<?xml version="1.0" encoding="UTF-8"?>
<gpx version="1.1" creator="https://www.youtrack.es" xsi:schemaLocation="http://www.topografix.com/GPX/1/1 http://www.topografix.com/GPX/1/1/gpx.xsd http://www.garmin.com/xmlschemas/GpxExtensions/v3 http://www.garmin.com/xmlschemas/GpxExtensionsv3.xsd http://www.garmin.com/xmlschemas/TrackPointExtension/v1 http://www.garmin.com/xmlschemas/TrackPointExtensionv1.xsd" xmlns:gpxtpx="http://www.garmin.com/xmlschemas/TrackPointExtension/v1" xmlns:gpxx="http://www.garmin.com/xmlschemas/GpxExtensions/v3" xmlns:xsi="http://www.w3.org/2001/XMLSchema-instance">
  <metadata>
    <link href="https://www.youtrack.es">
      <text>YouTrack.es</text>
    </link>
    <time>2026-05-07T18:52:25Z</time>
  </metadata>
  <trk>
    <src>https://www.youtrack.es</src>
    <link href="https://www.youtrack.es/ruta/35584-montanas-vacias">
      <text>YouTrack.es</text>
    </link>
    <trkseg>
      <trkpt lat="40.34436752088367938995361328125" lon="-1.1120648123323917388916015625">
        <ele>889</ele>
        <time>2022-08-23T11:09:01.000Z</time>
      </trkpt>
      <trkpt lat="40.3443183191120624542236328125" lon="-1.1121989227831363677978515625">
        <ele>888.79998779296875</ele>
        <time>2022-08-23T11:09:05.000Z</time>
      </trkpt>
      <trkpt lat="40.3442515991628170013427734375" lon="-1.11229992471635341644287109375">
        <ele>888.79998779296875</ele>
        <time>2022-08-23T11:09:09.000Z</time>
      </trkpt>
      <trkpt lat="40.344215892255306243896484375" lon="-1.11223940737545490264892578125">
        <ele>888.5999755859375</ele>
        <time>2022-08-23T11:09:13.000Z</time>
      </trkpt>
      <trkpt lat="40.34421279095113277435302734375" lon="-1.11222649924457073211669921875">
        <ele>888.5999755859375</ele>
        <time>2022-08-23T11:09:14.000Z</time>
      </trkpt>
      <trkpt lat="40.34420474432408809661865234375" lon="-1.11218358390033245086669921875">
        <ele>888.5999755859375</ele>
        <time>2022-08-23T11:09:19.000Z</time>
      </trkpt>
      <trkpt lat="40.3442546166479587554931640625" lon="-1.1122917942702770233154296875">
        <ele>888.5999755859375</ele>
        <time>2022-08-23T11:09:25.000Z</time>
      </trkpt>
      <trkpt lat="40.34438964910805225372314453125" lon="-1.1125512979924678802490234375">
        <ele>888.5999755859375</ele>
        <time>2022-08-23T11:09:31.000Z</time>
      </trkpt>
      <trkpt lat="40.34446089528501033782958984375" lon="-1.11274014227092266082763671875">
        <ele>888.4000244140625</ele>
        <time>2022-08-23T11:09:36.000Z</time>
      </trkpt>
      <trkpt lat="40.34445318393409252166748046875" lon="-1.1127578280866146087646484375">
        <ele>888.4000244140625</ele>
        <time>2022-08-23T11:09:37.000Z</time>
      </trkpt>
      <trkpt lat="40.34443725831806659698486328125" lon="-1.1127841472625732421875">
        <ele>888.4000244140625</ele>
        <time>2022-08-23T11:09:40.000Z</time>
      </trkpt>
      <trkpt lat="40.344396270811557769775390625" lon="-1.11277400515973567962646484375">
        <ele>888.4000244140625</ele>
        <time>2022-08-23T11:09:44.000Z</time>
      </trkpt>
      <trkpt lat="40.34437690861523151397705078125" lon="-1.11274751834571361541748046875">
        <ele>888.5999755859375</ele>
        <time>2022-08-23T11:09:45.000Z</time>
      </trkpt>
      <trkpt lat="40.3442336618900299072265625" lon="-1.11252958886325359344482421875">
        <ele>888.5999755859375</ele>
        <time>2022-08-23T11:09:51.000Z</time>
      </trkpt>
      <trkpt lat="40.34406594000756740570068359375" lon="-1.112088449299335479736328125">
        <ele>889</ele>
        <time>2022-08-23T11:10:01.000Z</time>
      </trkpt>
      <trkpt lat="40.3439206816256046295166015625" lon="-1.1116899736225605010986328125">
        <ele>890.20001220703125</ele>
        <time>2022-08-23T11:10:10.000Z</time>
      </trkpt>
      <trkpt lat="40.3439064323902130126953125" lon="-1.111643873155117034912109375">
        <ele>890.20001220703125</ele>
        <time>2022-08-23T11:10:11.000Z</time>
      </trkpt>
      <trkpt lat="40.3437802009284496307373046875" lon="-1.11138763837516307830810546875">
        <ele>891</ele>
        <time>2022-08-23T11:10:18.000Z</time>
      </trkpt>
      <trkpt lat="40.34375010989606380462646484375" lon="-1.11137657426297664642333984375">
        <ele>891.20001220703125</ele>
        <time>2022-08-23T11:10:19.000Z</time>
      </trkpt>
      <trkpt lat="40.34366394393146038055419921875" lon="-1.11137674190104007720947265625">
        <ele>892</ele>
        <time>2022-08-23T11:10:22.000Z</time>
      </trkpt>
      <trkpt lat="40.34363485872745513916015625" lon="-1.11139006912708282470703125">
        <ele>892.20001220703125</ele>
        <time>2022-08-23T11:10:23.000Z</time>
      </trkpt>
      <trkpt lat="40.34349882043898105621337890625" lon="-1.111551336944103240966796875">
        <ele>893.4000244140625</ele>
        <time>2022-08-23T11:10:28.000Z</time>
      </trkpt>
      <trkpt lat="40.34342254512012004852294921875" lon="-1.11168050207197666168212890625">
        <ele>894.5999755859375</ele>
        <time>2022-08-23T11:10:31.000Z</time>
      </trkpt>
      <trkpt lat="40.34329413436353206634521484375" lon="-1.1119199730455875396728515625">
        <ele>895</ele>
        <time>2022-08-23T11:10:36.000Z</time>
      </trkpt>
      <trkpt lat="40.34302993677556514739990234375" lon="-1.112451218068599700927734375">
        <ele>895.5999755859375</ele>
        <time>2022-08-23T11:10:46.000Z</time>
      </trkpt>
      <trkpt lat="40.34291141666471958160400390625" lon="-1.11268959939479827880859375">
        <ele>895.5999755859375</ele>
        <time>2022-08-23T11:10:50.000Z</time>
      </trkpt>
      <trkpt lat="40.3427136875689029693603515625" lon="-1.1130387894809246063232421875">
        <ele>895.79998779296875</ele>
        <time>2022-08-23T11:10:56.000Z</time>
      </trkpt>
      <trkpt lat="40.34250430762767791748046875" lon="-1.113549582660198211669921875">
        <ele>896.20001220703125</ele>
        <time>2022-08-23T11:11:04.000Z</time>
      </trkpt>
      <trkpt lat="40.34238050691783428192138671875" lon="-1.114146709442138671875">
        <ele>896.5999755859375</ele>
        <time>2022-08-23T11:11:12.000Z</time>
      </trkpt>
      <trkpt lat="40.34228461794555187225341796875" lon="-1.11471860669553279876708984375">
        <ele>896.79998779296875</ele>
        <time>2022-08-23T11:11:20.000Z</time>
      </trkpt>
      <trkpt lat="40.34225628711283206939697265625" lon="-1.114855147898197174072265625">
        <ele>897</ele>
        <time>2022-08-23T11:11:22.000Z</time>
      </trkpt>
      <trkpt lat="40.34223784692585468292236328125" lon="-1.11491759307682514190673828125">
        <ele>897</ele>
        <time>2022-08-23T11:11:23.000Z</time>
      </trkpt>
      <trkpt lat="40.34220993518829345703125" lon="-1.11497081816196441650390625">
        <ele>897</ele>
        <time>2022-08-23T11:11:24.000Z</time>
      </trkpt>
      <trkpt lat="40.34209527075290679931640625" lon="-1.115102581679821014404296875">
        <ele>897.4000244140625</ele>
        <time>2022-08-23T11:11:27.000Z</time>
      </trkpt>
      <trkpt lat="40.34187172539532184600830078125" lon="-1.11517827026546001434326171875">
        <ele>897.5999755859375</ele>
        <time>2022-08-23T11:11:31.000Z</time>
      </trkpt>
      <trkpt lat="40.34175186417996883392333984375" lon="-1.11518380232155323028564453125">
        <ele>897.5999755859375</ele>
        <time>2022-08-23T11:11:33.000Z</time>
      </trkpt>
      <trkpt lat="40.34169319085776805877685546875" lon="-1.1151956208050251007080078125">
        <ele>897.5999755859375</ele>
        <time>2022-08-23T11:11:34.000Z</time>
      </trkpt>
      <trkpt lat="40.3415955416858196258544921875" lon="-1.11524951644241809844970703125">
        <ele>897.5999755859375</ele>
        <time>2022-08-23T11:11:36.000Z</time>
      </trkpt>
      <trkpt lat="40.34152454696595668792724609375" lon="-1.11536778509616851806640625">
        <ele>897.5999755859375</ele>
        <time>2022-08-23T11:11:39.000Z</time>
      </trkpt>
      <trkpt lat="40.3414939530193805694580078125" lon="-1.11557255499064922332763671875">
        <ele>897.79998779296875</ele>
        <time>2022-08-23T11:11:44.000Z</time>
      </trkpt>
      <trkpt lat="40.34149043262004852294921875" lon="-1.11561278812587261199951171875">
        <ele>897.79998779296875</ele>
        <time>2022-08-23T11:11:45.000Z</time>
      </trkpt>
      <trkpt lat="40.34147995524108409881591796875" lon="-1.1156767420470714569091796875">
        <ele>898.20001220703125</ele>
        <time>2022-08-23T11:11:47.000Z</time>
      </trkpt>
      <trkpt lat="40.34144056029617786407470703125" lon="-1.11579450778663158416748046875">
        <ele>899.20001220703125</ele>
        <time>2022-08-23T11:11:51.000Z</time>
      </trkpt>
      <trkpt lat="40.3413642011582851409912109375" lon="-1.11600271426141262054443359375">
        <ele>900.4000244140625</ele>
        <time>2022-08-23T11:11:58.000Z</time>
      </trkpt>
      <trkpt lat="40.341357327997684478759765625" lon="-1.11603188328444957733154296875">
        <ele>900.5999755859375</ele>
        <time>2022-08-23T11:11:59.000Z</time>
      </trkpt>
      <trkpt lat="40.3412683121860027313232421875" lon="-1.11619130708277225494384765625">
        <ele>902.4000244140625</ele>
        <time>2022-08-23T11:12:09.000Z</time>
      </trkpt>
      <trkpt lat="40.34118172712624073028564453125" lon="-1.11635827459394931793212890625">
        <ele>902.79998779296875</ele>
        <time>2022-08-23T11:12:11.000Z</time>
      </trkpt>
      <trkpt lat="40.34117368049919605255126953125" lon="-1.11657436005771160125732421875">
        <ele>904</ele>
        <time>2022-08-23T11:12:17.000Z</time>
      </trkpt>
      <trkpt lat="40.34117368049919605255126953125" lon="-1.11661191098392009735107421875">
        <ele>904.4000244140625</ele>
        <time>2022-08-23T11:12:18.000Z</time>
      </trkpt>
      <trkpt lat="40.34110595472157001495361328125" lon="-1.11676546745002269744873046875">
        <ele>905.20001220703125</ele>
        <time>2022-08-23T11:12:23.000Z</time>
      </trkpt>
      <trkpt lat="40.34108097665011882781982421875" lon="-1.1168123222887516021728515625">
        <ele>905.5999755859375</ele>
        <time>2022-08-23T11:12:25.000Z</time>
      </trkpt>
      <trkpt lat="40.34105457365512847900390625" lon="-1.11686177551746368408203125">
        <ele>905.79998779296875</ele>
        <time>2022-08-23T11:12:27.000Z</time>
      </trkpt>
      <trkpt lat="40.34104594029486179351806640625" lon="-1.11688147298991680145263671875">
        <ele>906.20001220703125</ele>
        <time>2022-08-23T11:12:28.000Z</time>
      </trkpt>
      <trkpt lat="40.34102582372725009918212890625" lon="-1.1168927885591983795166015625">
        <ele>906.5999755859375</ele>
        <time>2022-08-23T11:12:29.000Z</time>
      </trkpt>
      <trkpt lat="40.34100671298801898956298828125" lon="-1.11688859760761260986328125">
        <ele>906.79998779296875</ele>
        <time>2022-08-23T11:12:30.000Z</time>
      </trkpt>
      <trkpt lat="40.34103454090654850006103515625" lon="-1.11679329536855220794677734375">
        <ele>907</ele>
        <time>2022-08-23T11:12:33.000Z</time>
      </trkpt>
      <trkpt lat="40.3410825692117214202880859375" lon="-1.11670394428074359893798828125">
        <ele>907</ele>
        <time>2022-08-23T11:12:35.000Z</time>
      </trkpt>
      <trkpt lat="40.34114417620003223419189453125" lon="-1.1165937222540378570556640625">
        <ele>907</ele>
        <time>2022-08-23T11:12:37.000Z</time>
      </trkpt>
      <trkpt lat="40.34125506877899169921875" lon="-1.1162621341645717620849609375">
        <ele>907</ele>
        <time>2022-08-23T11:12:42.000Z</time>
      </trkpt>
      <trkpt lat="40.3413890115916728973388671875" lon="-1.11581630073487758636474609375">
        <ele>905.79998779296875</ele>
        <time>2022-08-23T11:12:48.000Z</time>
      </trkpt>
      <trkpt lat="40.34145514480769634246826171875" lon="-1.11568537540733814239501953125">
        <ele>905</ele>
        <time>2022-08-23T11:12:51.000Z</time>
      </trkpt>
      <trkpt lat="40.34147224389016628265380859375" lon="-1.11568168736994266510009765625">
        <ele>904.79998779296875</ele>
        <time>2022-08-23T11:12:52.000Z</time>
      </trkpt>
      <trkpt lat="40.34148431383073329925537109375" lon="-1.11572896130383014678955078125">
        <ele>903.79998779296875</ele>
        <time>2022-08-23T11:12:54.000Z</time>
      </trkpt>
      <trkpt lat="40.34148615784943103790283203125" lon="-1.1158137023448944091796875">
        <ele>902.79998779296875</ele>
        <time>2022-08-23T11:12:56.000Z</time>
      </trkpt>
      <trkpt lat="40.34149847924709320068359375" lon="-1.11599408090114593505859375">
        <ele>901.4000244140625</ele>
        <time>2022-08-23T11:12:59.000Z</time>
      </trkpt>
      <trkpt lat="40.34155438654124736785888671875" lon="-1.1161796562373638153076171875">
        <ele>900.20001220703125</ele>
        <time>2022-08-23T11:13:02.000Z</time>
      </trkpt>
      <trkpt lat="40.34160031937062740325927734375" lon="-1.1162946559488773345947265625">
        <ele>899.79998779296875</ele>
        <time>2022-08-23T11:13:04.000Z</time>
      </trkpt>
      <trkpt lat="40.34160300157964229583740234375" lon="-1.1164689995348453521728515625">
        <ele>899.20001220703125</ele>
        <time>2022-08-23T11:13:07.000Z</time>
      </trkpt>
      <trkpt lat="40.34159294329583644866943359375" lon="-1.116520464420318603515625">
        <ele>898.79998779296875</ele>
        <time>2022-08-23T11:13:08.000Z</time>
      </trkpt>
      <trkpt lat="40.34158137626945972442626953125" lon="-1.11656798981130123138427734375">
        <ele>898.4000244140625</ele>
        <time>2022-08-23T11:13:09.000Z</time>
      </trkpt>
      <trkpt lat="40.3415710665285587310791015625" lon="-1.1166145093739032745361328125">
        <ele>898</ele>
        <time>2022-08-23T11:13:10.000Z</time>
      </trkpt>
      <trkpt lat="40.34153192304074764251708984375" lon="-1.11683495342731475830078125">
        <ele>897.5999755859375</ele>
        <time>2022-08-23T11:13:15.000Z</time>
      </trkpt>
      <trkpt lat="40.34146620891988277435302734375" lon="-1.11730677075684070587158203125">
        <ele>898.5999755859375</ele>
        <time>2022-08-23T11:13:25.000Z</time>
      </trkpt>
      <trkpt lat="40.34135841764509677886962890625" lon="-1.11757465638220310211181640625">
        <ele>899</ele>
        <time>2022-08-23T11:13:32.000Z</time>
      </trkpt>
      <trkpt lat="40.341304354369640350341796875" lon="-1.11768110655248165130615234375">
        <ele>899.20001220703125</ele>
        <time>2022-08-23T11:13:35.000Z</time>
      </trkpt>
      <trkpt lat="40.3411915339529514312744140625" lon="-1.1178842000663280487060546875">
        <ele>900</ele>
        <time>2022-08-23T11:13:41.000Z</time>
      </trkpt>
      <trkpt lat="40.3411335311830043792724609375" lon="-1.118028201162815093994140625">
        <ele>900.4000244140625</ele>
        <time>2022-08-23T11:13:45.000Z</time>
      </trkpt>
      <trkpt lat="40.34111081622540950775146484375" lon="-1.11814797855913639068603515625">
        <ele>900.5999755859375</ele>
        <time>2022-08-23T11:13:48.000Z</time>
      </trkpt>
      <trkpt lat="40.34110411070287227630615234375" lon="-1.1183519102632999420166015625">
        <ele>901.4000244140625</ele>
        <time>2022-08-23T11:13:53.000Z</time>
      </trkpt>
      <trkpt lat="40.3410901129245758056640625" lon="-1.118433214724063873291015625">
        <ele>901.5999755859375</ele>
        <time>2022-08-23T11:13:55.000Z</time>
      </trkpt>
      <trkpt lat="40.34099799580872058868408203125" lon="-1.1186375655233860015869140625">
        <ele>902.20001220703125</ele>
        <time>2022-08-23T11:14:01.000Z</time>
      </trkpt>
      <trkpt lat="40.3409216366708278656005859375" lon="-1.11872716806828975677490234375">
        <ele>902.4000244140625</ele>
        <time>2022-08-23T11:14:04.000Z</time>
      </trkpt>
      <trkpt lat="40.3408193774521350860595703125" lon="-1.1188497953116893768310546875">
        <ele>902.79998779296875</ele>
        <time>2022-08-23T11:14:08.000Z</time>
      </trkpt>
      <trkpt lat="40.340801775455474853515625" lon="-1.11888675950467586517333984375">
        <ele>903</ele>
        <time>2022-08-23T11:14:09.000Z</time>
      </trkpt>
      <trkpt lat="40.34067445434629917144775390625" lon="-1.1190915293991565704345703125">
        <ele>903.4000244140625</ele>
        <time>2022-08-23T11:14:15.000Z</time>
      </trkpt>
      <trkpt lat="40.340522825717926025390625" lon="-1.119277440011501312255859375">
        <ele>904.5999755859375</ele>
        <time>2022-08-23T11:14:21.000Z</time>
      </trkpt>
      <trkpt lat="40.34048217348754405975341796875" lon="-1.1193493567407131195068359375">
        <ele>904.79998779296875</ele>
        <time>2022-08-23T11:14:23.000Z</time>
      </trkpt>
      <trkpt lat="40.34036792814731597900390625" lon="-1.1196009814739227294921875">
        <ele>905.4000244140625</ele>
        <time>2022-08-23T11:14:29.000Z</time>
      </trkpt>
      <trkpt lat="40.34029911272227764129638671875" lon="-1.119751520454883575439453125">
        <ele>905.5999755859375</ele>
        <time>2022-08-23T11:14:33.000Z</time>
      </trkpt>
      <trkpt lat="40.34022116102278232574462890625" lon="-1.1198888160288333892822265625">
        <ele>905.79998779296875</ele>
        <time>2022-08-23T11:14:37.000Z</time>
      </trkpt>
      <trkpt lat="40.3400958515703678131103515625" lon="-1.12002921290695667266845703125">
        <ele>906.5999755859375</ele>
        <time>2022-08-23T11:14:42.000Z</time>
      </trkpt>
      <trkpt lat="40.34003223292529582977294921875" lon="-1.1200661770999431610107421875">
        <ele>907</ele>
        <time>2022-08-23T11:14:44.000Z</time>
      </trkpt>
      <trkpt lat="40.3398554585874080657958984375" lon="-1.120192073285579681396484375">
        <ele>907.4000244140625</ele>
        <time>2022-08-23T11:14:50.000Z</time>
      </trkpt>
      <trkpt lat="40.33975504338741302490234375" lon="-1.120399944484233856201171875">
        <ele>907.79998779296875</ele>
        <time>2022-08-23T11:14:56.000Z</time>
      </trkpt>
      <trkpt lat="40.33977641724050045013427734375" lon="-1.1206068098545074462890625">
        <ele>908</ele>
        <time>2022-08-23T11:15:01.000Z</time>
      </trkpt>
      <trkpt lat="40.3398557938635349273681640625" lon="-1.1209053732454776763916015625">
        <ele>908.4000244140625</ele>
        <time>2022-08-23T11:15:08.000Z</time>
      </trkpt>
      <trkpt lat="40.33987104892730712890625" lon="-1.1209489591419696807861328125">
        <ele>908.5999755859375</ele>
        <time>2022-08-23T11:15:09.000Z</time>
      </trkpt>
      <trkpt lat="40.339952521026134490966796875" lon="-1.1211968958377838134765625">
        <ele>908.79998779296875</ele>
        <time>2022-08-23T11:15:15.000Z</time>
      </trkpt>
      <trkpt lat="40.3400386869907379150390625" lon="-1.121396720409393310546875">
        <ele>909.4000244140625</ele>
        <time>2022-08-23T11:15:22.000Z</time>
      </trkpt>
      <trkpt lat="40.34005452878773212432861328125" lon="-1.12144357524812221527099609375">
        <ele>909.79998779296875</ele>
        <time>2022-08-23T11:15:24.000Z</time>
      </trkpt>
      <trkpt lat="40.34011471085250377655029296875" lon="-1.12155555747449398040771484375">
        <ele>910.5999755859375</ele>
        <time>2022-08-23T11:15:30.000Z</time>
      </trkpt>
      <trkpt lat="40.34012812189757823944091796875" lon="-1.1215776018798351287841796875">
        <ele>910.79998779296875</ele>
        <time>2022-08-23T11:15:31.000Z</time>
      </trkpt>
      <trkpt lat="40.340227447450160980224609375" lon="-1.12169285304844379425048828125">
        <ele>911.20001220703125</ele>
        <time>2022-08-23T11:15:36.000Z</time>
      </trkpt>
      <trkpt lat="40.34037186764180660247802734375" lon="-1.12183501012623310089111328125">
        <ele>911.4000244140625</ele>
        <time>2022-08-23T11:15:43.000Z</time>
      </trkpt>
      <trkpt lat="40.340498350560665130615234375" lon="-1.12190793268382549285888671875">
        <ele>912</ele>
        <time>2022-08-23T11:15:48.000Z</time>
      </trkpt>
      <trkpt lat="40.34058929421007633209228515625" lon="-1.12203801982104778289794921875">
        <ele>912.5999755859375</ele>
        <time>2022-08-23T11:15:53.000Z</time>
      </trkpt>
      <trkpt lat="40.3405759669840335845947265625" lon="-1.12213524989783763885498046875">
        <ele>913</ele>
        <time>2022-08-23T11:15:56.000Z</time>
      </trkpt>
      <trkpt lat="40.34055878408253192901611328125" lon="-1.122215799987316131591796875">
        <ele>913.4000244140625</ele>
        <time>2022-08-23T11:15:58.000Z</time>
      </trkpt>
      <trkpt lat="40.340533889830112457275390625" lon="-1.12230473197996616363525390625">
        <ele>914</ele>
        <time>2022-08-23T11:16:01.000Z</time>
      </trkpt>
      <trkpt lat="40.34049533307552337646484375" lon="-1.12239156849682331085205078125">
        <ele>914.4000244140625</ele>
        <time>2022-08-23T11:16:04.000Z</time>
      </trkpt>
      <trkpt lat="40.3404499031603336334228515625" lon="-1.1224831826984882354736328125">
        <ele>915</ele>
        <time>2022-08-23T11:16:07.000Z</time>
      </trkpt>
      <trkpt lat="40.3403892181813716888427734375" lon="-1.12254831008613109588623046875">
        <ele>915.79998779296875</ele>
        <time>2022-08-23T11:16:10.000Z</time>
      </trkpt>
      <trkpt lat="40.34032744355499744415283203125" lon="-1.122581921517848968505859375">
        <ele>916.20001220703125</ele>
        <time>2022-08-23T11:16:12.000Z</time>
      </trkpt>
      <trkpt lat="40.34021437168121337890625" lon="-1.12260715104639530181884765625">
        <ele>916.4000244140625</ele>
        <time>2022-08-23T11:16:15.000Z</time>
      </trkpt>
      <trkpt lat="40.3400425426661968231201171875" lon="-1.12256205640733242034912109375">
        <ele>916.5999755859375</ele>
        <time>2022-08-23T11:16:20.000Z</time>
      </trkpt>
      <trkpt lat="40.33985185436904430389404296875" lon="-1.12257764674723148345947265625">
        <ele>916.79998779296875</ele>
        <time>2022-08-23T11:16:26.000Z</time>
      </trkpt>
      <trkpt lat="40.33972411416471004486083984375" lon="-1.1226840130984783172607421875">
        <ele>917.20001220703125</ele>
        <time>2022-08-23T11:16:31.000Z</time>
      </trkpt>
      <trkpt lat="40.339702069759368896484375" lon="-1.12270354293286800384521484375">
        <ele>917.4000244140625</ele>
        <time>2022-08-23T11:16:32.000Z</time>
      </trkpt>
      <trkpt lat="40.3395661152899265289306640625" lon="-1.1228409223258495330810546875">
        <ele>918</ele>
        <time>2022-08-23T11:16:38.000Z</time>
      </trkpt>
      <trkpt lat="40.33954574726521968841552734375" lon="-1.12286447547376155853271484375">
        <ele>918</ele>
        <time>2022-08-23T11:16:39.000Z</time>
      </trkpt>
      <trkpt lat="40.33942203037440776824951171875" lon="-1.123021803796291351318359375">
        <ele>918.5999755859375</ele>
        <time>2022-08-23T11:16:45.000Z</time>
      </trkpt>
      <trkpt lat="40.33933795988559722900390625" lon="-1.12315750680863857269287109375">
        <ele>919.20001220703125</ele>
        <time>2022-08-23T11:16:50.000Z</time>
      </trkpt>
      <trkpt lat="40.33932454884052276611328125" lon="-1.12319178879261016845703125">
        <ele>919.4000244140625</ele>
        <time>2022-08-23T11:16:51.000Z</time>
      </trkpt>
      <trkpt lat="40.3392930328845977783203125" lon="-1.1234226264059543609619140625">
        <ele>920.20001220703125</ele>
        <time>2022-08-23T11:16:57.000Z</time>
      </trkpt>
      <trkpt lat="40.33929445780813694000244140625" lon="-1.12346730194985866546630859375">
        <ele>920.20001220703125</ele>
        <time>2022-08-23T11:16:58.000Z</time>
      </trkpt>
      <trkpt lat="40.33935346640646457672119140625" lon="-1.12365958280861377716064453125">
        <ele>920.79998779296875</ele>
        <time>2022-08-23T11:17:03.000Z</time>
      </trkpt>
      <trkpt lat="40.33940644003450870513916015625" lon="-1.12374675460159778594970703125">
        <ele>921.4000244140625</ele>
        <time>2022-08-23T11:17:06.000Z</time>
      </trkpt>
      <trkpt lat="40.33945572562515735626220703125" lon="-1.1237874068319797515869140625">
        <ele>921.5999755859375</ele>
        <time>2022-08-23T11:17:08.000Z</time>
      </trkpt>
      <trkpt lat="40.3395853936672210693359375" lon="-1.12383325584232807159423828125">
        <ele>922.4000244140625</ele>
        <time>2022-08-23T11:17:13.000Z</time>
      </trkpt>
      <trkpt lat="40.3396335057914257049560546875" lon="-1.123840548098087310791015625">
        <ele>922.4000244140625</ele>
        <time>2022-08-23T11:17:15.000Z</time>
      </trkpt>
      <trkpt lat="40.3397666104137897491455078125" lon="-1.12384247593581676483154296875">
        <ele>922.5999755859375</ele>
        <time>2022-08-23T11:17:21.000Z</time>
      </trkpt>
      <trkpt lat="40.339882783591747283935546875" lon="-1.123794615268707275390625">
        <ele>923.79998779296875</ele>
        <time>2022-08-23T11:17:27.000Z</time>
      </trkpt>
      <trkpt lat="40.33991756848990917205810546875" lon="-1.12378656864166259765625">
        <ele>924.20001220703125</ele>
        <time>2022-08-23T11:17:29.000Z</time>
      </trkpt>
      <trkpt lat="40.3399758227169513702392578125" lon="-1.12378866411745548248291015625">
        <ele>925</ele>
        <time>2022-08-23T11:17:32.000Z</time>
      </trkpt>
      <trkpt lat="40.34007347188889980316162109375" lon="-1.12384281121194362640380859375">
        <ele>926.20001220703125</ele>
        <time>2022-08-23T11:17:37.000Z</time>
      </trkpt>
      <trkpt lat="40.34014387987554073333740234375" lon="-1.12395663745701313018798828125">
        <ele>927.4000244140625</ele>
        <time>2022-08-23T11:17:42.000Z</time>
      </trkpt>
      <trkpt lat="40.34015226177871227264404296875" lon="-1.12401866354048252105712890625">
        <ele>928.20001220703125</ele>
        <time>2022-08-23T11:17:44.000Z</time>
      </trkpt>
      <trkpt lat="40.34015242941677570343017578125" lon="-1.12404816783964633941650390625">
        <ele>928.4000244140625</ele>
        <time>2022-08-23T11:17:45.000Z</time>
      </trkpt>
      <trkpt lat="40.34016936086118221282958984375" lon="-1.12426157109439373016357421875">
        <ele>929.20001220703125</ele>
        <time>2022-08-23T11:17:52.000Z</time>
      </trkpt>
      <trkpt lat="40.34016785211861133575439453125" lon="-1.12429082393646240234375">
        <ele>929.4000244140625</ele>
        <time>2022-08-23T11:17:53.000Z</time>
      </trkpt>
      <trkpt lat="40.34014035947620868682861328125" lon="-1.12449400126934051513671875">
        <ele>930.4000244140625</ele>
        <time>2022-08-23T11:18:00.000Z</time>
      </trkpt>
      <trkpt lat="40.34012326039373874664306640625" lon="-1.12463808618485927581787109375">
        <ele>931.4000244140625</ele>
        <time>2022-08-23T11:18:05.000Z</time>
      </trkpt>
      <trkpt lat="40.3401203267276287078857421875" lon="-1.1246668361127376556396484375">
        <ele>931.5999755859375</ele>
        <time>2022-08-23T11:18:06.000Z</time>
      </trkpt>
      <trkpt lat="40.34010197035968303680419921875" lon="-1.12481729127466678619384765625">
        <ele>932.4000244140625</ele>
        <time>2022-08-23T11:18:11.000Z</time>
      </trkpt>
      <trkpt lat="40.3400708734989166259765625" lon="-1.12493363209068775177001953125">
        <ele>933</ele>
        <time>2022-08-23T11:18:15.000Z</time>
      </trkpt>
      <trkpt lat="40.34004162065684795379638671875" lon="-1.12505684606730937957763671875">
        <ele>933.5999755859375</ele>
        <time>2022-08-23T11:18:19.000Z</time>
      </trkpt>
      <trkpt lat="40.34002334810793399810791015625" lon="-1.12511359155178070068359375">
        <ele>933.79998779296875</ele>
        <time>2022-08-23T11:18:21.000Z</time>
      </trkpt>
      <trkpt lat="40.34000004641711711883544921875" lon="-1.125253736972808837890625">
        <ele>934.79998779296875</ele>
        <time>2022-08-23T11:18:26.000Z</time>
      </trkpt>
      <trkpt lat="40.34000390209257602691650390625" lon="-1.125344596803188323974609375">
        <ele>935.20001220703125</ele>
        <time>2022-08-23T11:18:29.000Z</time>
      </trkpt>
      <trkpt lat="40.3399996273219585418701171875" lon="-1.1254342831671237945556640625">
        <ele>936</ele>
        <time>2022-08-23T11:18:32.000Z</time>
      </trkpt>
      <trkpt lat="40.340000800788402557373046875" lon="-1.125583648681640625">
        <ele>936.5999755859375</ele>
        <time>2022-08-23T11:18:37.000Z</time>
      </trkpt>
      <trkpt lat="40.34001060761511325836181640625" lon="-1.1256498657166957855224609375">
        <ele>937</ele>
        <time>2022-08-23T11:18:39.000Z</time>
      </trkpt>
      <trkpt lat="40.34002083353698253631591796875" lon="-1.125787831842899322509765625">
        <ele>937.5999755859375</ele>
        <time>2022-08-23T11:18:43.000Z</time>
      </trkpt>
      <trkpt lat="40.3400133736431598663330078125" lon="-1.12593426369130611419677734375">
        <ele>938.20001220703125</ele>
        <time>2022-08-23T11:18:47.000Z</time>
      </trkpt>
      <trkpt lat="40.33999702893197536468505859375" lon="-1.1260471679270267486572265625">
        <ele>938.5999755859375</ele>
        <time>2022-08-23T11:18:50.000Z</time>
      </trkpt>
      <trkpt lat="40.3399047441780567169189453125" lon="-1.12625277601182460784912109375">
        <ele>939.20001220703125</ele>
        <time>2022-08-23T11:18:56.000Z</time>
      </trkpt>
      <trkpt lat="40.3398863039910793304443359375" lon="-1.12628596834838390350341796875">
        <ele>939.20001220703125</ele>
        <time>2022-08-23T11:18:57.000Z</time>
      </trkpt>
      <trkpt lat="40.339723862707614898681640625" lon="-1.12649652175605297088623046875">
        <ele>939.4000244140625</ele>
        <time>2022-08-23T11:19:04.000Z</time>
      </trkpt>
      <trkpt lat="40.33952814526855945587158203125" lon="-1.126609258353710174560546875">
        <ele>939.5999755859375</ele>
        <time>2022-08-23T11:19:10.000Z</time>
      </trkpt>
      <trkpt lat="40.339265204966068267822265625" lon="-1.12665544264018535614013671875">
        <ele>940</ele>
        <time>2022-08-23T11:19:17.000Z</time>
      </trkpt>
      <trkpt lat="40.339034534990787506103515625" lon="-1.1266942508518695831298828125">
        <ele>940</ele>
        <time>2022-08-23T11:19:23.000Z</time>
      </trkpt>
      <trkpt lat="40.33887955360114574432373046875" lon="-1.126836240291595458984375">
        <ele>939.79998779296875</ele>
        <time>2022-08-23T11:19:29.000Z</time>
      </trkpt>
      <trkpt lat="40.33884803764522075653076171875" lon="-1.12702064216136932373046875">
        <ele>939.79998779296875</ele>
        <time>2022-08-23T11:19:34.000Z</time>
      </trkpt>
      <trkpt lat="40.33893051557242870330810546875" lon="-1.12725131213665008544921875">
        <ele>940</ele>
        <time>2022-08-23T11:19:40.000Z</time>
      </trkpt>
      <trkpt lat="40.33908926881849765777587890625" lon="-1.1273659765720367431640625">
        <ele>940</ele>
        <time>2022-08-23T11:19:45.000Z</time>
      </trkpt>
      <trkpt lat="40.3391225449740886688232421875" lon="-1.1273852549493312835693359375">
        <ele>940.20001220703125</ele>
        <time>2022-08-23T11:19:46.000Z</time>
      </trkpt>
      <trkpt lat="40.33931608311831951141357421875" lon="-1.12752749584615230560302734375">
        <ele>940.5999755859375</ele>
        <time>2022-08-23T11:19:52.000Z</time>
      </trkpt>
      <trkpt lat="40.3395188413560390472412109375" lon="-1.12776537425816059112548828125">
        <ele>940.79998779296875</ele>
        <time>2022-08-23T11:20:00.000Z</time>
      </trkpt>
      <trkpt lat="40.33965043723583221435546875" lon="-1.128018759191036224365234375">
        <ele>941</ele>
        <time>2022-08-23T11:20:07.000Z</time>
      </trkpt>
      <trkpt lat="40.33967516385018825531005859375" lon="-1.12823861651122570037841796875">
        <ele>941.20001220703125</ele>
        <time>2022-08-23T11:20:12.000Z</time>
      </trkpt>
      <trkpt lat="40.339671559631824493408203125" lon="-1.12828387878835201263427734375">
        <ele>941.20001220703125</ele>
        <time>2022-08-23T11:20:13.000Z</time>
      </trkpt>
      <trkpt lat="40.33959603868424892425537109375" lon="-1.12864497117698192596435546875">
        <ele>941.79998779296875</ele>
        <time>2022-08-23T11:20:21.000Z</time>
      </trkpt>
      <trkpt lat="40.33957189880311489105224609375" lon="-1.1288433708250522613525390625">
        <ele>942.20001220703125</ele>
        <time>2022-08-23T11:20:25.000Z</time>
      </trkpt>
      <trkpt lat="40.339563600718975067138671875" lon="-1.12899315543472766876220703125">
        <ele>942.4000244140625</ele>
        <time>2022-08-23T11:20:28.000Z</time>
      </trkpt>
      <trkpt lat="40.33960525877773761749267578125" lon="-1.12930051982402801513671875">
        <ele>943.20001220703125</ele>
        <time>2022-08-23T11:20:35.000Z</time>
      </trkpt>
      <trkpt lat="40.339710451662540435791015625" lon="-1.1295796371996402740478515625">
        <ele>943.79998779296875</ele>
        <time>2022-08-23T11:20:42.000Z</time>
      </trkpt>
      <trkpt lat="40.3397062607109546661376953125" lon="-1.1297987401485443115234375">
        <ele>944</ele>
        <time>2022-08-23T11:20:47.000Z</time>
      </trkpt>
      <trkpt lat="40.33959050662815570831298828125" lon="-1.130012981593608856201171875">
        <ele>944</ele>
        <time>2022-08-23T11:20:53.000Z</time>
      </trkpt>
      <trkpt lat="40.3395426459610462188720703125" lon="-1.13007140345871448516845703125">
        <ele>944.4000244140625</ele>
        <time>2022-08-23T11:20:55.000Z</time>
      </trkpt>
      <trkpt lat="40.33939487300813198089599609375" lon="-1.13031171262264251708984375">
        <ele>944.79998779296875</ele>
        <time>2022-08-23T11:21:02.000Z</time>
      </trkpt>
      <trkpt lat="40.3392985649406909942626953125" lon="-1.130587644875049591064453125">
        <ele>945.4000244140625</ele>
        <time>2022-08-23T11:21:09.000Z</time>
      </trkpt>
      <trkpt lat="40.33920586109161376953125" lon="-1.13086827099323272705078125">
        <ele>946</ele>
        <time>2022-08-23T11:21:16.000Z</time>
      </trkpt>
      <trkpt lat="40.33912179060280323028564453125" lon="-1.13104890100657939910888671875">
        <ele>946.4000244140625</ele>
        <time>2022-08-23T11:21:21.000Z</time>
      </trkpt>
      <trkpt lat="40.3390809707343578338623046875" lon="-1.13112333230674266815185546875">
        <ele>946.79998779296875</ele>
        <time>2022-08-23T11:21:23.000Z</time>
      </trkpt>
      <trkpt lat="40.33894577063620090484619140625" lon="-1.1314283497631549835205078125">
        <ele>947.20001220703125</ele>
        <time>2022-08-23T11:21:31.000Z</time>
      </trkpt>
      <trkpt lat="40.3389233909547328948974609375" lon="-1.13151133060455322265625">
        <ele>947.4000244140625</ele>
        <time>2022-08-23T11:21:33.000Z</time>
      </trkpt>
      <trkpt lat="40.33890604041516780853271484375" lon="-1.131689362227916717529296875">
        <ele>947.5999755859375</ele>
        <time>2022-08-23T11:21:37.000Z</time>
      </trkpt>
      <trkpt lat="40.33896437846124172210693359375" lon="-1.13203176297247409820556640625">
        <ele>948.4000244140625</ele>
        <time>2022-08-23T11:21:45.000Z</time>
      </trkpt>
      <trkpt lat="40.3390149213373661041259765625" lon="-1.1321481876075267791748046875">
        <ele>948.5999755859375</ele>
        <time>2022-08-23T11:21:48.000Z</time>
      </trkpt>
      <trkpt lat="40.33910192549228668212890625" lon="-1.132284142076969146728515625">
        <ele>948.79998779296875</ele>
        <time>2022-08-23T11:21:52.000Z</time>
      </trkpt>
      <trkpt lat="40.33930384553968906402587890625" lon="-1.132513470947742462158203125">
        <ele>949.20001220703125</ele>
        <time>2022-08-23T11:22:00.000Z</time>
      </trkpt>
      <trkpt lat="40.33933200873434543609619140625" lon="-1.132540293037891387939453125">
        <ele>949.4000244140625</ele>
        <time>2022-08-23T11:22:01.000Z</time>
      </trkpt>
      <trkpt lat="40.339514650404453277587890625" lon="-1.132658980786800384521484375">
        <ele>950</ele>
        <time>2022-08-23T11:22:07.000Z</time>
      </trkpt>
      <trkpt lat="40.33973618410527706146240234375" lon="-1.13276165910065174102783203125">
        <ele>950.20001220703125</ele>
        <time>2022-08-23T11:22:14.000Z</time>
      </trkpt>
      <trkpt lat="40.3398698754608631134033203125" lon="-1.13290750421583652496337890625">
        <ele>950.5999755859375</ele>
        <time>2022-08-23T11:22:19.000Z</time>
      </trkpt>
      <trkpt lat="40.339889489114284515380859375" lon="-1.1329441331326961517333984375">
        <ele>950.5999755859375</ele>
        <time>2022-08-23T11:22:20.000Z</time>
      </trkpt>
      <trkpt lat="40.33993617631494998931884765625" lon="-1.13318896852433681488037109375">
        <ele>951</ele>
        <time>2022-08-23T11:22:26.000Z</time>
      </trkpt>
      <trkpt lat="40.33991673029959201812744140625" lon="-1.13335442729294300079345703125">
        <ele>951.5999755859375</ele>
        <time>2022-08-23T11:22:30.000Z</time>
      </trkpt>
      <trkpt lat="40.3398879803717136383056640625" lon="-1.13347780890762805938720703125">
        <ele>952.20001220703125</ele>
        <time>2022-08-23T11:22:33.000Z</time>
      </trkpt>
      <trkpt lat="40.339845903217792510986328125" lon="-1.1336408369243144989013671875">
        <ele>952.5999755859375</ele>
        <time>2022-08-23T11:22:37.000Z</time>
      </trkpt>
      <trkpt lat="40.33979435451328754425048828125" lon="-1.13385717384517192840576171875">
        <ele>953</ele>
        <time>2022-08-23T11:22:42.000Z</time>
      </trkpt>
      <trkpt lat="40.339775495231151580810546875" lon="-1.133999414741992950439453125">
        <ele>953.5999755859375</ele>
        <time>2022-08-23T11:22:45.000Z</time>
      </trkpt>
      <trkpt lat="40.33977256156504154205322265625" lon="-1.1341424100100994110107421875">
        <ele>953.79998779296875</ele>
        <time>2022-08-23T11:22:48.000Z</time>
      </trkpt>
      <trkpt lat="40.3397785127162933349609375" lon="-1.1346423067152500152587890625">
        <ele>954.5999755859375</ele>
        <time>2022-08-23T11:22:58.000Z</time>
      </trkpt>
      <trkpt lat="40.33976837061345577239990234375" lon="-1.13498554565012454986572265625">
        <ele>954.79998779296875</ele>
        <time>2022-08-23T11:23:06.000Z</time>
      </trkpt>
      <trkpt lat="40.33971522934734821319580078125" lon="-1.13526868633925914764404296875">
        <ele>955.79998779296875</ele>
        <time>2022-08-23T11:23:13.000Z</time>
      </trkpt>
      <trkpt lat="40.3395988047122955322265625" lon="-1.13561536185443401336669921875">
        <ele>956.79998779296875</ele>
        <time>2022-08-23T11:23:22.000Z</time>
      </trkpt>
      <trkpt lat="40.33954876475036144256591796875" lon="-1.1358875222504138946533203125">
        <ele>957.79998779296875</ele>
        <time>2022-08-23T11:23:30.000Z</time>
      </trkpt>
      <trkpt lat="40.33951708115637302398681640625" lon="-1.13612766377627849578857421875">
        <ele>958.5999755859375</ele>
        <time>2022-08-23T11:23:38.000Z</time>
      </trkpt>
      <trkpt lat="40.33951423130929470062255859375" lon="-1.1361567489802837371826171875">
        <ele>958.79998779296875</ele>
        <time>2022-08-23T11:23:39.000Z</time>
      </trkpt>
      <trkpt lat="40.3395161591470241546630859375" lon="-1.13634257577359676361083984375">
        <ele>960</ele>
        <time>2022-08-23T11:23:46.000Z</time>
      </trkpt>
      <trkpt lat="40.33951657824218273162841796875" lon="-1.1363656260073184967041015625">
        <ele>960.4000244140625</ele>
        <time>2022-08-23T11:23:47.000Z</time>
      </trkpt>
      <trkpt lat="40.33951054327189922332763671875" lon="-1.13646863959729671478271484375">
        <ele>961.20001220703125</ele>
        <time>2022-08-23T11:23:51.000Z</time>
      </trkpt>
      <trkpt lat="40.33950702287256717681884765625" lon="-1.1365731619298458099365234375">
        <ele>962</ele>
        <time>2022-08-23T11:23:55.000Z</time>
      </trkpt>
      <trkpt lat="40.3394995629787445068359375" lon="-1.13661892712116241455078125">
        <ele>962.20001220703125</ele>
        <time>2022-08-23T11:23:57.000Z</time>
      </trkpt>
      <trkpt lat="40.3394846431910991668701171875" lon="-1.13667097873985767364501953125">
        <ele>963</ele>
        <time>2022-08-23T11:24:00.000Z</time>
      </trkpt>
      <trkpt lat="40.3394715674221515655517578125" lon="-1.136687658727169036865234375">
        <ele>963.4000244140625</ele>
        <time>2022-08-23T11:24:01.000Z</time>
      </trkpt>
      <trkpt lat="40.3394152410328388214111328125" lon="-1.13677239976823329925537109375">
        <ele>964.5999755859375</ele>
        <time>2022-08-23T11:24:05.000Z</time>
      </trkpt>
      <trkpt lat="40.33939755521714687347412109375" lon="-1.13680089823901653289794921875">
        <ele>964.5999755859375</ele>
        <time>2022-08-23T11:24:06.000Z</time>
      </trkpt>
      <trkpt lat="40.33925087191164493560791015625" lon="-1.13695864565670490264892578125">
        <ele>964.79998779296875</ele>
        <time>2022-08-23T11:24:12.000Z</time>
      </trkpt>
      <trkpt lat="40.33903864212334156036376953125" lon="-1.137161068618297576904296875">
        <ele>965</ele>
        <time>2022-08-23T11:24:21.000Z</time>
      </trkpt>
      <trkpt lat="40.3388898633420467376708984375" lon="-1.1372742243111133575439453125">
        <ele>965</ele>
        <time>2022-08-23T11:24:27.000Z</time>
      </trkpt>
      <trkpt lat="40.33876840956509113311767578125" lon="-1.1374167166650295257568359375">
        <ele>965.20001220703125</ele>
        <time>2022-08-23T11:24:33.000Z</time>
      </trkpt>
      <trkpt lat="40.3386783041059970855712890625" lon="-1.137590222060680389404296875">
        <ele>965.5999755859375</ele>
        <time>2022-08-23T11:24:39.000Z</time>
      </trkpt>
      <trkpt lat="40.33865089528262615203857421875" lon="-1.13765048794448375701904296875">
        <ele>966</ele>
        <time>2022-08-23T11:24:41.000Z</time>
      </trkpt>
      <trkpt lat="40.33856255002319812774658203125" lon="-1.13784695975482463836669921875">
        <ele>966.79998779296875</ele>
        <time>2022-08-23T11:24:48.000Z</time>
      </trkpt>
      <trkpt lat="40.33850781619548797607421875" lon="-1.1379732750356197357177734375">
        <ele>968</ele>
        <time>2022-08-23T11:24:52.000Z</time>
      </trkpt>
      <trkpt lat="40.33846666105091571807861328125" lon="-1.13806254230439662933349609375">
        <ele>968.4000244140625</ele>
        <time>2022-08-23T11:24:55.000Z</time>
      </trkpt>
      <trkpt lat="40.3384087421000003814697265625" lon="-1.13826504908502101898193359375">
        <ele>969.20001220703125</ele>
        <time>2022-08-23T11:25:01.000Z</time>
      </trkpt>
      <trkpt lat="40.3383839316666126251220703125" lon="-1.1383786238729953765869140625">
        <ele>969.4000244140625</ele>
        <time>2022-08-23T11:25:04.000Z</time>
      </trkpt>
      <trkpt lat="40.33832349814474582672119140625" lon="-1.13864810205996036529541015625">
        <ele>970.20001220703125</ele>
        <time>2022-08-23T11:25:11.000Z</time>
      </trkpt>
      <trkpt lat="40.33831545151770114898681640625" lon="-1.138687916100025177001953125">
        <ele>970.20001220703125</ele>
        <time>2022-08-23T11:25:12.000Z</time>
      </trkpt>
      <trkpt lat="40.33828653395175933837890625" lon="-1.13895705901086330413818359375">
        <ele>970.5999755859375</ele>
        <time>2022-08-23T11:25:19.000Z</time>
      </trkpt>
      <trkpt lat="40.3382846899330615997314453125" lon="-1.1392345838248729705810546875">
        <ele>971.20001220703125</ele>
        <time>2022-08-23T11:25:26.000Z</time>
      </trkpt>
      <trkpt lat="40.33830841071903705596923828125" lon="-1.13958050496876239776611328125">
        <ele>971.4000244140625</ele>
        <time>2022-08-23T11:25:34.000Z</time>
      </trkpt>
      <trkpt lat="40.33827186562120914459228515625" lon="-1.1398293636739253997802734375">
        <ele>971.4000244140625</ele>
        <time>2022-08-23T11:25:40.000Z</time>
      </trkpt>
      <trkpt lat="40.33811763860285282135009765625" lon="-1.1399245820939540863037109375">
        <ele>971.4000244140625</ele>
        <time>2022-08-23T11:25:45.000Z</time>
      </trkpt>
      <trkpt lat="40.3380862064659595489501953125" lon="-1.1399386636912822723388671875">
        <ele>971.4000244140625</ele>
        <time>2022-08-23T11:25:46.000Z</time>
      </trkpt>
      <trkpt lat="40.33788411878049373626708984375" lon="-1.14008291624486446380615234375">
        <ele>972</ele>
        <time>2022-08-23T11:25:53.000Z</time>
      </trkpt>
      <trkpt lat="40.33773089759051799774169921875" lon="-1.14030688069760799407958984375">
        <ele>972.4000244140625</ele>
        <time>2022-08-23T11:26:00.000Z</time>
      </trkpt>
      <trkpt lat="40.33769485540688037872314453125" lon="-1.14036086015403270721435546875">
        <ele>972.4000244140625</ele>
        <time>2022-08-23T11:26:02.000Z</time>
      </trkpt>
      <trkpt lat="40.33760583959519863128662109375" lon="-1.14049262367188930511474609375">
        <ele>972.79998779296875</ele>
        <time>2022-08-23T11:26:07.000Z</time>
      </trkpt>
      <trkpt lat="40.33750140108168125152587890625" lon="-1.14068088121712207794189453125">
        <ele>973.4000244140625</ele>
        <time>2022-08-23T11:26:14.000Z</time>
      </trkpt>
      <trkpt lat="40.33743317238986492156982421875" lon="-1.1408150754868984222412109375">
        <ele>974.4000244140625</ele>
        <time>2022-08-23T11:26:19.000Z</time>
      </trkpt>
      <trkpt lat="40.33739201724529266357421875" lon="-1.14089679904282093048095703125">
        <ele>975.20001220703125</ele>
        <time>2022-08-23T11:26:22.000Z</time>
      </trkpt>
      <trkpt lat="40.33734935335814952850341796875" lon="-1.1409894190728664398193359375">
        <ele>975.4000244140625</ele>
        <time>2022-08-23T11:26:25.000Z</time>
      </trkpt>
      <trkpt lat="40.3372657857835292816162109375" lon="-1.1411820352077484130859375">
        <ele>976.20001220703125</ele>
        <time>2022-08-23T11:26:31.000Z</time>
      </trkpt>
      <trkpt lat="40.33720283769071102142333984375" lon="-1.1413441412150859832763671875">
        <ele>976.5999755859375</ele>
        <time>2022-08-23T11:26:36.000Z</time>
      </trkpt>
      <trkpt lat="40.33717920072376728057861328125" lon="-1.14140826277434825897216796875">
        <ele>976.79998779296875</ele>
        <time>2022-08-23T11:26:38.000Z</time>
      </trkpt>
      <trkpt lat="40.33709487877786159515380859375" lon="-1.14166592247784137725830078125">
        <ele>977.5999755859375</ele>
        <time>2022-08-23T11:26:46.000Z</time>
      </trkpt>
      <trkpt lat="40.33708381466567516326904296875" lon="-1.14169794134795665740966796875">
        <ele>977.79998779296875</ele>
        <time>2022-08-23T11:26:47.000Z</time>
      </trkpt>
      <trkpt lat="40.3370103053748607635498046875" lon="-1.141929365694522857666015625">
        <ele>978.20001220703125</ele>
        <time>2022-08-23T11:26:54.000Z</time>
      </trkpt>
      <trkpt lat="40.33698960207402706146240234375" lon="-1.1420224048197269439697265625">
        <ele>979</ele>
        <time>2022-08-23T11:26:57.000Z</time>
      </trkpt>
      <trkpt lat="40.33696127124130725860595703125" lon="-1.14218576811254024505615234375">
        <ele>980</ele>
        <time>2022-08-23T11:27:02.000Z</time>
      </trkpt>
      <trkpt lat="40.33695557154715061187744140625" lon="-1.14222231321036815643310546875">
        <ele>980.20001220703125</ele>
        <time>2022-08-23T11:27:03.000Z</time>
      </trkpt>
      <trkpt lat="40.336934365332126617431640625" lon="-1.14239464513957500457763671875">
        <ele>981</ele>
        <time>2022-08-23T11:27:08.000Z</time>
      </trkpt>
      <trkpt lat="40.33692531287670135498046875" lon="-1.1425303481519222259521484375">
        <ele>981.5999755859375</ele>
        <time>2022-08-23T11:27:12.000Z</time>
      </trkpt>
      <trkpt lat="40.3369112312793731689453125" lon="-1.142665632069110870361328125">
        <ele>982.20001220703125</ele>
        <time>2022-08-23T11:27:16.000Z</time>
      </trkpt>
      <trkpt lat="40.336910896003246307373046875" lon="-1.142809800803661346435546875">
        <ele>982.5999755859375</ele>
        <time>2022-08-23T11:27:20.000Z</time>
      </trkpt>
      <trkpt lat="40.336914248764514923095703125" lon="-1.1430087871849536895751953125">
        <ele>983.4000244140625</ele>
        <time>2022-08-23T11:27:26.000Z</time>
      </trkpt>
      <trkpt lat="40.3369177691638469696044921875" lon="-1.143040470778942108154296875">
        <ele>983.5999755859375</ele>
        <time>2022-08-23T11:27:27.000Z</time>
      </trkpt>
      <trkpt lat="40.3369512967765331268310546875" lon="-1.14325077272951602935791015625">
        <ele>984.4000244140625</ele>
        <time>2022-08-23T11:27:34.000Z</time>
      </trkpt>
      <trkpt lat="40.33696361817419528961181640625" lon="-1.14331581629812717437744140625">
        <ele>985</ele>
        <time>2022-08-23T11:27:36.000Z</time>
      </trkpt>
      <trkpt lat="40.3369771130383014678955078125" lon="-1.14341564476490020751953125">
        <ele>985.5999755859375</ele>
        <time>2022-08-23T11:27:39.000Z</time>
      </trkpt>
      <trkpt lat="40.33699915744364261627197265625" lon="-1.14358303137123584747314453125">
        <ele>986.5999755859375</ele>
        <time>2022-08-23T11:27:44.000Z</time>
      </trkpt>
      <trkpt lat="40.33700368367135524749755859375" lon="-1.14361739717423915863037109375">
        <ele>986.79998779296875</ele>
        <time>2022-08-23T11:27:45.000Z</time>
      </trkpt>
      <trkpt lat="40.3370156697928905487060546875" lon="-1.14393423311412334442138671875">
        <ele>987.5999755859375</ele>
        <time>2022-08-23T11:27:54.000Z</time>
      </trkpt>
      <trkpt lat="40.3370149992406368255615234375" lon="-1.1440380848944187164306640625">
        <ele>987.79998779296875</ele>
        <time>2022-08-23T11:27:57.000Z</time>
      </trkpt>
      <trkpt lat="40.33701273612678050994873046875" lon="-1.14424654282629489898681640625">
        <ele>988</ele>
        <time>2022-08-23T11:28:03.000Z</time>
      </trkpt>
      <trkpt lat="40.33699999563395977020263671875" lon="-1.144513003528118133544921875">
        <ele>988.5999755859375</ele>
        <time>2022-08-23T11:28:10.000Z</time>
      </trkpt>
      <trkpt lat="40.33697250299155712127685546875" lon="-1.14485691301524639129638671875">
        <ele>989</ele>
        <time>2022-08-23T11:28:19.000Z</time>
      </trkpt>
      <trkpt lat="40.336969904601573944091796875" lon="-1.14489446394145488739013671875">
        <ele>989</ele>
        <time>2022-08-23T11:28:20.000Z</time>
      </trkpt>
      <trkpt lat="40.33693067729473114013671875" lon="-1.14530266262590885162353515625">
        <ele>989.79998779296875</ele>
        <time>2022-08-23T11:28:31.000Z</time>
      </trkpt>
      <trkpt lat="40.33692237921059131622314453125" lon="-1.1454482562839984893798828125">
        <ele>990</ele>
        <time>2022-08-23T11:28:35.000Z</time>
      </trkpt>
      <trkpt lat="40.33691533841192722320556640625" lon="-1.1456648446619510650634765625">
        <ele>990.4000244140625</ele>
        <time>2022-08-23T11:28:41.000Z</time>
      </trkpt>
      <trkpt lat="40.33689421601593494415283203125" lon="-1.14592359401285648345947265625">
        <ele>991.20001220703125</ele>
        <time>2022-08-23T11:28:48.000Z</time>
      </trkpt>
      <trkpt lat="40.3368852473795413970947265625" lon="-1.14599769003689289093017578125">
        <ele>991.4000244140625</ele>
        <time>2022-08-23T11:28:50.000Z</time>
      </trkpt>
      <trkpt lat="40.33685985021293163299560546875" lon="-1.1461788229644298553466796875">
        <ele>992.20001220703125</ele>
        <time>2022-08-23T11:28:55.000Z</time>
      </trkpt>
      <trkpt lat="40.33683436922729015350341796875" lon="-1.14632357843220233917236328125">
        <ele>992.5999755859375</ele>
        <time>2022-08-23T11:28:59.000Z</time>
      </trkpt>
      <trkpt lat="40.33682447858154773712158203125" lon="-1.14639465697109699249267578125">
        <ele>992.79998779296875</ele>
        <time>2022-08-23T11:29:01.000Z</time>
      </trkpt>
      <trkpt lat="40.3368118219077587127685546875" lon="-1.1465003527700901031494140625">
        <ele>993.20001220703125</ele>
        <time>2022-08-23T11:29:04.000Z</time>
      </trkpt>
      <trkpt lat="40.336790196597576141357421875" lon="-1.14670478738844394683837890625">
        <ele>994</ele>
        <time>2022-08-23T11:29:10.000Z</time>
      </trkpt>
      <trkpt lat="40.33677753992378711700439453125" lon="-1.1467672325670719146728515625">
        <ele>994.4000244140625</ele>
        <time>2022-08-23T11:29:12.000Z</time>
      </trkpt>
      <trkpt lat="40.3367521427571773529052734375" lon="-1.14694786258041858673095703125">
        <ele>995.4000244140625</ele>
        <time>2022-08-23T11:29:17.000Z</time>
      </trkpt>
      <trkpt lat="40.33674702979624271392822265625" lon="-1.14698507823050022125244140625">
        <ele>995.5999755859375</ele>
        <time>2022-08-23T11:29:18.000Z</time>
      </trkpt>
      <trkpt lat="40.336733199656009674072265625" lon="-1.14726402796804904937744140625">
        <ele>996.4000244140625</ele>
        <time>2022-08-23T11:29:26.000Z</time>
      </trkpt>
      <trkpt lat="40.3367249853909015655517578125" lon="-1.1473377048969268798828125">
        <ele>996.5999755859375</ele>
        <time>2022-08-23T11:29:28.000Z</time>
      </trkpt>
      <trkpt lat="40.33670042641460895538330078125" lon="-1.14758807234466075897216796875">
        <ele>997.5999755859375</ele>
        <time>2022-08-23T11:29:35.000Z</time>
      </trkpt>
      <trkpt lat="40.3366991691291332244873046875" lon="-1.14762243814766407012939453125">
        <ele>997.79998779296875</ele>
        <time>2022-08-23T11:29:36.000Z</time>
      </trkpt>
      <trkpt lat="40.33667662180960178375244140625" lon="-1.14790926687419414520263671875">
        <ele>998.5999755859375</ele>
        <time>2022-08-23T11:29:44.000Z</time>
      </trkpt>
      <trkpt lat="40.336672849953174591064453125" lon="-1.1479463987052440643310546875">
        <ele>998.79998779296875</ele>
        <time>2022-08-23T11:29:45.000Z</time>
      </trkpt>
      <trkpt lat="40.336652733385562896728515625" lon="-1.14816977642476558685302734375">
        <ele>999.5999755859375</ele>
        <time>2022-08-23T11:29:51.000Z</time>
      </trkpt>
      <trkpt lat="40.3366401605308055877685546875" lon="-1.1483470536768436431884765625">
        <ele>1000</ele>
        <time>2022-08-23T11:29:56.000Z</time>
      </trkpt>
      <trkpt lat="40.33663705922663211822509765625" lon="-1.14851594902575016021728515625">
        <ele>1000.79998779296875</ele>
        <time>2022-08-23T11:30:02.000Z</time>
      </trkpt>
      <trkpt lat="40.33663588576018810272216796875" lon="-1.14859457127749919891357421875">
        <ele>1001.4000244140625</ele>
        <time>2022-08-23T11:30:05.000Z</time>
      </trkpt>
      <trkpt lat="40.3366358019411563873291015625" lon="-1.14864553324878215789794921875">
        <ele>1002</ele>
        <time>2022-08-23T11:30:07.000Z</time>
      </trkpt>
      <trkpt lat="40.33662029542028903961181640625" lon="-1.14876640029251575469970703125">
        <ele>1003.20001220703125</ele>
        <time>2022-08-23T11:30:11.000Z</time>
      </trkpt>
      <trkpt lat="40.336596406996250152587890625" lon="-1.1488945595920085906982421875">
        <ele>1004.4000244140625</ele>
        <time>2022-08-23T11:30:15.000Z</time>
      </trkpt>
      <trkpt lat="40.336558185517787933349609375" lon="-1.1491305939853191375732421875">
        <ele>1004.5999755859375</ele>
        <time>2022-08-23T11:30:22.000Z</time>
      </trkpt>
      <trkpt lat="40.33655357547104358673095703125" lon="-1.14939336664974689483642578125">
        <ele>1005.20001220703125</ele>
        <time>2022-08-23T11:30:30.000Z</time>
      </trkpt>
      <trkpt lat="40.3365603648126125335693359375" lon="-1.14960576407611370086669921875">
        <ele>1005.5999755859375</ele>
        <time>2022-08-23T11:30:38.000Z</time>
      </trkpt>
      <trkpt lat="40.3365623764693737030029296875" lon="-1.1496311612427234649658203125">
        <ele>1005.5999755859375</ele>
        <time>2022-08-23T11:30:39.000Z</time>
      </trkpt>
      <trkpt lat="40.336572267115116119384765625" lon="-1.14978413097560405731201171875">
        <ele>1006.5999755859375</ele>
        <time>2022-08-23T11:30:45.000Z</time>
      </trkpt>
      <trkpt lat="40.3365652263164520263671875" lon="-1.14986526779830455780029296875">
        <ele>1007.5999755859375</ele>
        <time>2022-08-23T11:30:48.000Z</time>
      </trkpt>
      <trkpt lat="40.33655977807939052581787109375" lon="-1.1498923413455486297607421875">
        <ele>1007.79998779296875</ele>
        <time>2022-08-23T11:30:49.000Z</time>
      </trkpt>
      <trkpt lat="40.33654309809207916259765625" lon="-1.14996970631182193756103515625">
        <ele>1009</ele>
        <time>2022-08-23T11:30:52.000Z</time>
      </trkpt>
      <trkpt lat="40.336525999009609222412109375" lon="-1.15005008876323699951171875">
        <ele>1010</ele>
        <time>2022-08-23T11:30:55.000Z</time>
      </trkpt>
      <trkpt lat="40.33652088604867458343505859375" lon="-1.15010398440062999725341796875">
        <ele>1010.4000244140625</ele>
        <time>2022-08-23T11:30:57.000Z</time>
      </trkpt>
      <trkpt lat="40.33649750053882598876953125" lon="-1.15033976733684539794921875">
        <ele>1011</ele>
        <time>2022-08-23T11:31:05.000Z</time>
      </trkpt>
      <trkpt lat="40.336494147777557373046875" lon="-1.15037086419761180877685546875">
        <ele>1011</ele>
        <time>2022-08-23T11:31:06.000Z</time>
      </trkpt>
      <trkpt lat="40.33645936287939548492431640625" lon="-1.1506721936166286468505859375">
        <ele>1011.79998779296875</ele>
        <time>2022-08-23T11:31:16.000Z</time>
      </trkpt>
      <trkpt lat="40.336401946842670440673828125" lon="-1.15086254663765430450439453125">
        <ele>1012.20001220703125</ele>
        <time>2022-08-23T11:31:23.000Z</time>
      </trkpt>
      <trkpt lat="40.336365737020969390869140625" lon="-1.15100453607738018035888671875">
        <ele>1013.20001220703125</ele>
        <time>2022-08-23T11:31:28.000Z</time>
      </trkpt>
      <trkpt lat="40.33636112697422504425048828125" lon="-1.1510322801768779754638671875">
        <ele>1013.4000244140625</ele>
        <time>2022-08-23T11:31:29.000Z</time>
      </trkpt>
      <trkpt lat="40.336326174437999725341796875" lon="-1.15119136869907379150390625">
        <ele>1014.20001220703125</ele>
        <time>2022-08-23T11:31:35.000Z</time>
      </trkpt>
      <trkpt lat="40.336296670138835906982421875" lon="-1.15126068703830242156982421875">
        <ele>1014.5999755859375</ele>
        <time>2022-08-23T11:31:38.000Z</time>
      </trkpt>
      <trkpt lat="40.33624143339693546295166015625" lon="-1.15135238505899906158447265625">
        <ele>1015.79998779296875</ele>
        <time>2022-08-23T11:31:42.000Z</time>
      </trkpt>
      <trkpt lat="40.33613313920795917510986328125" lon="-1.15156226791441440582275390625">
        <ele>1016.5999755859375</ele>
        <time>2022-08-23T11:31:50.000Z</time>
      </trkpt>
      <trkpt lat="40.33604395575821399688720703125" lon="-1.1517521180212497711181640625">
        <ele>1016.79998779296875</ele>
        <time>2022-08-23T11:31:57.000Z</time>
      </trkpt>
      <trkpt lat="40.33602165989577770233154296875" lon="-1.15184021182358264923095703125">
        <ele>1016.79998779296875</ele>
        <time>2022-08-23T11:32:00.000Z</time>
      </trkpt>
      <trkpt lat="40.33597555942833423614501953125" lon="-1.15210088901221752166748046875">
        <ele>1017.4000244140625</ele>
        <time>2022-08-23T11:32:09.000Z</time>
      </trkpt>
      <trkpt lat="40.3359699435532093048095703125" lon="-1.152187474071979522705078125">
        <ele>1017.79998779296875</ele>
        <time>2022-08-23T11:32:12.000Z</time>
      </trkpt>
      <trkpt lat="40.33596231602132320404052734375" lon="-1.1523579619824886322021484375">
        <ele>1018.5999755859375</ele>
        <time>2022-08-23T11:32:18.000Z</time>
      </trkpt>
      <trkpt lat="40.335958711802959442138671875" lon="-1.152386628091335296630859375">
        <ele>1018.79998779296875</ele>
        <time>2022-08-23T11:32:19.000Z</time>
      </trkpt>
      <trkpt lat="40.33591470681130886077880859375" lon="-1.15254445932805538177490234375">
        <ele>1020</ele>
        <time>2022-08-23T11:32:25.000Z</time>
      </trkpt>
      <trkpt lat="40.33590414561331272125244140625" lon="-1.1525685153901576995849609375">
        <ele>1020.20001220703125</ele>
        <time>2022-08-23T11:32:26.000Z</time>
      </trkpt>
      <trkpt lat="40.33583910204470157623291015625" lon="-1.152738668024539947509765625">
        <ele>1021</ele>
        <time>2022-08-23T11:32:33.000Z</time>
      </trkpt>
      <trkpt lat="40.33581714145839214324951171875" lon="-1.15280714817345142364501953125">
        <ele>1021.79998779296875</ele>
        <time>2022-08-23T11:32:36.000Z</time>
      </trkpt>
      <trkpt lat="40.3357959352433681488037109375" lon="-1.152850650250911712646484375">
        <ele>1022</ele>
        <time>2022-08-23T11:32:38.000Z</time>
      </trkpt>
      <trkpt lat="40.33578730188310146331787109375" lon="-1.1528711020946502685546875">
        <ele>1022</ele>
        <time>2022-08-23T11:32:39.000Z</time>
      </trkpt>
      <trkpt lat="40.335728712379932403564453125" lon="-1.15298350341618061065673828125">
        <ele>1023</ele>
        <time>2022-08-23T11:32:45.000Z</time>
      </trkpt>
      <trkpt lat="40.33571940846741199493408203125" lon="-1.15300445817410945892333984375">
        <ele>1023.4000244140625</ele>
        <time>2022-08-23T11:32:46.000Z</time>
      </trkpt>
      <trkpt lat="40.33569090999662876129150390625" lon="-1.1530955694615840911865234375">
        <ele>1024.4000244140625</ele>
        <time>2022-08-23T11:32:50.000Z</time>
      </trkpt>
      <trkpt lat="40.33567481674253940582275390625" lon="-1.15317880176007747650146484375">
        <ele>1024.5999755859375</ele>
        <time>2022-08-23T11:32:54.000Z</time>
      </trkpt>
      <trkpt lat="40.3356839530169963836669921875" lon="-1.15326396189630031585693359375">
        <ele>1025.4000244140625</ele>
        <time>2022-08-23T11:32:58.000Z</time>
      </trkpt>
      <trkpt lat="40.3356842882931232452392578125" lon="-1.15333889611065387725830078125">
        <ele>1026.4000244140625</ele>
        <time>2022-08-23T11:33:01.000Z</time>
      </trkpt>
      <trkpt lat="40.33568319864571094512939453125" lon="-1.15336689166724681854248046875">
        <ele>1026.5999755859375</ele>
        <time>2022-08-23T11:33:02.000Z</time>
      </trkpt>
      <trkpt lat="40.33567138016223907470703125" lon="-1.1535227112472057342529296875">
        <ele>1027.800048828125</ele>
        <time>2022-08-23T11:33:08.000Z</time>
      </trkpt>
      <trkpt lat="40.33567179925739765167236328125" lon="-1.15354525856673717498779296875">
        <ele>1028</ele>
        <time>2022-08-23T11:33:09.000Z</time>
      </trkpt>
      <trkpt lat="40.335660986602306365966796875" lon="-1.1536702327430248260498046875">
        <ele>1029</ele>
        <time>2022-08-23T11:33:14.000Z</time>
      </trkpt>
      <trkpt lat="40.3356479108333587646484375" lon="-1.15372228436172008514404296875">
        <ele>1029.4000244140625</ele>
        <time>2022-08-23T11:33:16.000Z</time>
      </trkpt>
      <trkpt lat="40.33563341014087200164794921875" lon="-1.15379177033901214599609375">
        <ele>1029.800048828125</ele>
        <time>2022-08-23T11:33:21.000Z</time>
      </trkpt>
      <trkpt lat="40.33563056029379367828369140625" lon="-1.15386997349560260772705078125">
        <ele>1029.5999755859375</ele>
        <time>2022-08-23T11:33:39.000Z</time>
      </trkpt>
      <trkpt lat="40.33561882562935352325439453125" lon="-1.15392227657139301300048828125">
        <ele>1029.800048828125</ele>
        <time>2022-08-23T11:33:41.000Z</time>
      </trkpt>
      <trkpt lat="40.335575826466083526611328125" lon="-1.15420927293598651885986328125">
        <ele>1030</ele>
        <time>2022-08-23T11:33:50.000Z</time>
      </trkpt>
      <trkpt lat="40.33556065522134304046630859375" lon="-1.15434673614799976348876953125">
        <ele>1030.199951171875</ele>
        <time>2022-08-23T11:33:54.000Z</time>
      </trkpt>
      <trkpt lat="40.335536263883113861083984375" lon="-1.15451236255466938018798828125">
        <ele>1030.800048828125</ele>
        <time>2022-08-23T11:33:59.000Z</time>
      </trkpt>
      <trkpt lat="40.33550365827977657318115234375" lon="-1.1546827666461467742919921875">
        <ele>1031.4000244140625</ele>
        <time>2022-08-23T11:34:04.000Z</time>
      </trkpt>
      <trkpt lat="40.33547423779964447021484375" lon="-1.15482584573328495025634765625">
        <ele>1031.5999755859375</ele>
        <time>2022-08-23T11:34:08.000Z</time>
      </trkpt>
      <trkpt lat="40.33542931079864501953125" lon="-1.1550552584230899810791015625">
        <ele>1032</ele>
        <time>2022-08-23T11:34:14.000Z</time>
      </trkpt>
      <trkpt lat="40.3353842161595821380615234375" lon="-1.15530562587082386016845703125">
        <ele>1032</ele>
        <time>2022-08-23T11:34:21.000Z</time>
      </trkpt>
      <trkpt lat="40.3353282250463962554931640625" lon="-1.1555320210754871368408203125">
        <ele>1032</ele>
        <time>2022-08-23T11:34:27.000Z</time>
      </trkpt>
      <trkpt lat="40.33521498553454875946044921875" lon="-1.15583905018866062164306640625">
        <ele>1032</ele>
        <time>2022-08-23T11:34:35.000Z</time>
      </trkpt>
      <trkpt lat="40.33520341850817203521728515625" lon="-1.15585681982338428497314453125">
        <ele>1031.4000244140625</ele>
        <time>2022-08-23T11:34:38.000Z</time>
      </trkpt>
      <trkpt lat="40.33517123199999332427978515625" lon="-1.15592546761035919189453125">
        <ele>1031.4000244140625</ele>
        <time>2022-08-23T11:36:36.000Z</time>
      </trkpt>
      <trkpt lat="40.33514298498630523681640625" lon="-1.15598204545676708221435546875">
        <ele>1031.4000244140625</ele>
        <time>2022-08-23T11:36:38.000Z</time>
      </trkpt>
      <trkpt lat="40.33500392921268939971923828125" lon="-1.15630055777728557586669921875">
        <ele>1030.800048828125</ele>
        <time>2022-08-23T11:36:47.000Z</time>
      </trkpt>
      <trkpt lat="40.3349698148667812347412109375" lon="-1.15638353861868381500244140625">
        <ele>1030.5999755859375</ele>
        <time>2022-08-23T11:36:49.000Z</time>
      </trkpt>
      <trkpt lat="40.33485976047813892364501953125" lon="-1.15664471872150897979736328125">
        <ele>1030.199951171875</ele>
        <time>2022-08-23T11:36:55.000Z</time>
      </trkpt>
      <trkpt lat="40.33470268361270427703857421875" lon="-1.15700430236756801605224609375">
        <ele>1029.800048828125</ele>
        <time>2022-08-23T11:37:02.000Z</time>
      </trkpt>
      <trkpt lat="40.33467225730419158935546875" lon="-1.15705945529043674468994140625">
        <ele>1029.5999755859375</ele>
        <time>2022-08-23T11:37:03.000Z</time>
      </trkpt>
      <trkpt lat="40.334509313106536865234375" lon="-1.157313846051692962646484375">
        <ele>1029.199951171875</ele>
        <time>2022-08-23T11:37:08.000Z</time>
      </trkpt>
      <trkpt lat="40.33440940082073211669921875" lon="-1.15744368173182010650634765625">
        <ele>1028.800048828125</ele>
        <time>2022-08-23T11:37:11.000Z</time>
      </trkpt>
      <trkpt lat="40.3343228995800018310546875" lon="-1.15758298896253108978271484375">
        <ele>1028.4000244140625</ele>
        <time>2022-08-23T11:37:14.000Z</time>
      </trkpt>
      <trkpt lat="40.33426162786781787872314453125" lon="-1.15767334587872028350830078125">
        <ele>1027.5999755859375</ele>
        <time>2022-08-23T11:37:16.000Z</time>
      </trkpt>
      <trkpt lat="40.334230698645114898681640625" lon="-1.1577170155942440032958984375">
        <ele>1027.199951171875</ele>
        <time>2022-08-23T11:37:17.000Z</time>
      </trkpt>
      <trkpt lat="40.3341343067586421966552734375" lon="-1.15788440220057964324951171875">
        <ele>1025.800048828125</ele>
        <time>2022-08-23T11:37:20.000Z</time>
      </trkpt>
      <trkpt lat="40.3341037966310977935791015625" lon="-1.157963275909423828125">
        <ele>1025.4000244140625</ele>
        <time>2022-08-23T11:37:21.000Z</time>
      </trkpt>
      <trkpt lat="40.334077812731266021728515625" lon="-1.1580532975494861602783203125">
        <ele>1024.4000244140625</ele>
        <time>2022-08-23T11:37:22.000Z</time>
      </trkpt>
      <trkpt lat="40.334031544625759124755859375" lon="-1.1582547985017299652099609375">
        <ele>1023</ele>
        <time>2022-08-23T11:37:24.000Z</time>
      </trkpt>
      <trkpt lat="40.33399810083210468292236328125" lon="-1.15835764445364475250244140625">
        <ele>1022.4000244140625</ele>
        <time>2022-08-23T11:37:25.000Z</time>
      </trkpt>
      <trkpt lat="40.3339552693068981170654296875" lon="-1.15845101885497570037841796875">
        <ele>1021.79998779296875</ele>
        <time>2022-08-23T11:37:26.000Z</time>
      </trkpt>
      <trkpt lat="40.333848483860492706298828125" lon="-1.1586051620543003082275390625">
        <ele>1020.4000244140625</ele>
        <time>2022-08-23T11:37:28.000Z</time>
      </trkpt>
      <trkpt lat="40.33379123546183109283447265625" lon="-1.1586691997945308685302734375">
        <ele>1019.4000244140625</ele>
        <time>2022-08-23T11:37:29.000Z</time>
      </trkpt>
      <trkpt lat="40.33373356796801090240478515625" lon="-1.1587245203554630279541015625">
        <ele>1018.20001220703125</ele>
        <time>2022-08-23T11:37:30.000Z</time>
      </trkpt>
      <trkpt lat="40.33362007699906826019287109375" lon="-1.15881948731839656829833984375">
        <ele>1017</ele>
        <time>2022-08-23T11:37:32.000Z</time>
      </trkpt>
      <trkpt lat="40.33341572619974613189697265625" lon="-1.1589541845023632049560546875">
        <ele>1016</ele>
        <time>2022-08-23T11:37:36.000Z</time>
      </trkpt>
      <trkpt lat="40.3333125449717044830322265625" lon="-1.15906759165227413177490234375">
        <ele>1016</ele>
        <time>2022-08-23T11:37:40.000Z</time>
      </trkpt>
      <trkpt lat="40.333237610757350921630859375" lon="-1.15914545953273773193359375">
        <ele>1016</ele>
        <time>2022-08-23T11:37:43.000Z</time>
      </trkpt>
      <trkpt lat="40.33322411589324474334716796875" lon="-1.159191392362117767333984375">
        <ele>1016</ele>
        <time>2022-08-23T11:37:44.000Z</time>
      </trkpt>
      <trkpt lat="40.33323585055768489837646484375" lon="-1.15933916531503200531005859375">
        <ele>1016</ele>
        <time>2022-08-23T11:37:48.000Z</time>
      </trkpt>
      <trkpt lat="40.333246327936649322509765625" lon="-1.1593705974519252777099609375">
        <ele>1016.20001220703125</ele>
        <time>2022-08-23T11:37:53.000Z</time>
      </trkpt>
      <trkpt lat="40.3332917578518390655517578125" lon="-1.1593836732208728790283203125">
        <ele>1016.4000244140625</ele>
        <time>2022-08-23T11:38:22.000Z</time>
      </trkpt>
      <trkpt lat="40.33341136761009693145751953125" lon="-1.15949423052370548248291015625">
        <ele>1016.4000244140625</ele>
        <time>2022-08-23T11:38:28.000Z</time>
      </trkpt>
      <trkpt lat="40.3334768302738666534423828125" lon="-1.15952490828931331634521484375">
        <ele>1016.4000244140625</ele>
        <time>2022-08-23T11:38:32.000Z</time>
      </trkpt>
      <trkpt lat="40.33347791992127895355224609375" lon="-1.1595254950225353240966796875">
        <ele>1016.4000244140625</ele>
        <time>2022-08-23T11:38:33.000Z</time>
      </trkpt>
      <trkpt lat="40.33350340090692043304443359375" lon="-1.1595337092876434326171875">
        <ele>1016.4000244140625</ele>
        <time>2022-08-23T11:38:40.000Z</time>
      </trkpt>
      <trkpt lat="40.3335401974618434906005859375" lon="-1.15955525077879428863525390625">
        <ele>1016.4000244140625</ele>
        <time>2022-08-23T11:38:42.000Z</time>
      </trkpt>
      <trkpt lat="40.33371479250490665435791015625" lon="-1.159628927707672119140625">
        <ele>1016</ele>
        <time>2022-08-23T11:38:48.000Z</time>
      </trkpt>
      <trkpt lat="40.3340493142604827880859375" lon="-1.15975163877010345458984375">
        <ele>1015.4000244140625</ele>
        <time>2022-08-23T11:38:56.000Z</time>
      </trkpt>
      <trkpt lat="40.3343016095459461212158203125" lon="-1.15993813611567020416259765625">
        <ele>1014.79998779296875</ele>
        <time>2022-08-23T11:39:02.000Z</time>
      </trkpt>
      <trkpt lat="40.3343673236668109893798828125" lon="-1.15998767316341400146484375">
        <ele>1014.79998779296875</ele>
        <time>2022-08-23T11:39:05.000Z</time>
      </trkpt>
      <trkpt lat="40.33436916768550872802734375" lon="-1.1599871702492237091064453125">
        <ele>1014.79998779296875</ele>
        <time>2022-08-23T11:39:06.000Z</time>
      </trkpt>
      <trkpt lat="40.3343582712113857269287109375" lon="-1.16003905422985553741455078125">
        <ele>1015.4000244140625</ele>
        <time>2022-08-23T11:40:41.000Z</time>
      </trkpt>
      <trkpt lat="40.33432750962674617767333984375" lon="-1.16005514748394489288330078125">
        <ele>1015.20001220703125</ele>
        <time>2022-08-23T11:40:43.000Z</time>
      </trkpt>
      <trkpt lat="40.33428828231990337371826171875" lon="-1.16009437479078769683837890625">
        <ele>1015.20001220703125</ele>
        <time>2022-08-23T11:40:45.000Z</time>
      </trkpt>
      <trkpt lat="40.334240086376667022705078125" lon="-1.1601776070892810821533203125">
        <ele>1015.20001220703125</ele>
        <time>2022-08-23T11:40:48.000Z</time>
      </trkpt>
      <trkpt lat="40.33416942693293094635009765625" lon="-1.16044742055237293243408203125">
        <ele>1015.20001220703125</ele>
        <time>2022-08-23T11:40:55.000Z</time>
      </trkpt>
      <trkpt lat="40.33412785269320011138916015625" lon="-1.16062142886221408843994140625">
        <ele>1015.20001220703125</ele>
        <time>2022-08-23T11:41:01.000Z</time>
      </trkpt>
      <trkpt lat="40.33407823182642459869384765625" lon="-1.16075168363749980926513671875">
        <ele>1015.20001220703125</ele>
        <time>2022-08-23T11:41:06.000Z</time>
      </trkpt>
      <trkpt lat="40.3339331410825252532958984375" lon="-1.16099593229591846466064453125">
        <ele>1015.4000244140625</ele>
        <time>2022-08-23T11:41:12.000Z</time>
      </trkpt>
      <trkpt lat="40.33386834897100925445556640625" lon="-1.1610845290124416351318359375">
        <ele>1015</ele>
        <time>2022-08-23T11:41:15.000Z</time>
      </trkpt>
      <trkpt lat="40.33383348025381565093994140625" lon="-1.16112736053764820098876953125">
        <ele>1014.4000244140625</ele>
        <time>2022-08-23T11:41:17.000Z</time>
      </trkpt>
      <trkpt lat="40.3337671793997287750244140625" lon="-1.16121335886418819427490234375">
        <ele>1014</ele>
        <time>2022-08-23T11:41:20.000Z</time>
      </trkpt>
      <trkpt lat="40.33371630124747753143310546875" lon="-1.16130086593329906463623046875">
        <ele>1013.4000244140625</ele>
        <time>2022-08-23T11:41:22.000Z</time>
      </trkpt>
      <trkpt lat="40.33367657102644443511962890625" lon="-1.16141871549189090728759765625">
        <ele>1012.79998779296875</ele>
        <time>2022-08-23T11:41:24.000Z</time>
      </trkpt>
      <trkpt lat="40.3336555324494838714599609375" lon="-1.1614848487079143524169921875">
        <ele>1012.5999755859375</ele>
        <time>2022-08-23T11:41:25.000Z</time>
      </trkpt>
      <trkpt lat="40.333624519407749176025390625" lon="-1.16155148483812808990478515625">
        <ele>1012.5999755859375</ele>
        <time>2022-08-23T11:41:26.000Z</time>
      </trkpt>
      <trkpt lat="40.33346702344715595245361328125" lon="-1.1617306061089038848876953125">
        <ele>1011.79998779296875</ele>
        <time>2022-08-23T11:41:29.000Z</time>
      </trkpt>
      <trkpt lat="40.333403237164020538330078125" lon="-1.16178332827985286712646484375">
        <ele>1011.5999755859375</ele>
        <time>2022-08-23T11:41:30.000Z</time>
      </trkpt>
      <trkpt lat="40.33320299349725246429443359375" lon="-1.161937303841114044189453125">
        <ele>1010.5999755859375</ele>
        <time>2022-08-23T11:41:33.000Z</time>
      </trkpt>
      <trkpt lat="40.33301423303782939910888671875" lon="-1.16209580563008785247802734375">
        <ele>1009</ele>
        <time>2022-08-23T11:41:36.000Z</time>
      </trkpt>
      <trkpt lat="40.33293711952865123748779296875" lon="-1.1622244678437709808349609375">
        <ele>1008</ele>
        <time>2022-08-23T11:41:38.000Z</time>
      </trkpt>
      <trkpt lat="40.33291465602815151214599609375" lon="-1.16230032406747341156005859375">
        <ele>1006.79998779296875</ele>
        <time>2022-08-23T11:41:39.000Z</time>
      </trkpt>
      <trkpt lat="40.332907028496265411376953125" lon="-1.1624672077596187591552734375">
        <ele>1005.5999755859375</ele>
        <time>2022-08-23T11:41:41.000Z</time>
      </trkpt>
      <trkpt lat="40.33291918225586414337158203125" lon="-1.16255010478198528289794921875">
        <ele>1004.79998779296875</ele>
        <time>2022-08-23T11:41:42.000Z</time>
      </trkpt>
      <trkpt lat="40.33293376676738262176513671875" lon="-1.162631995975971221923828125">
        <ele>1004.20001220703125</ele>
        <time>2022-08-23T11:41:43.000Z</time>
      </trkpt>
      <trkpt lat="40.3329333476722240447998046875" lon="-1.1628011427819728851318359375">
        <ele>1003.20001220703125</ele>
        <time>2022-08-23T11:41:45.000Z</time>
      </trkpt>
      <trkpt lat="40.33292136155068874359130859375" lon="-1.16288152523338794708251953125">
        <ele>1002.5999755859375</ele>
        <time>2022-08-23T11:41:46.000Z</time>
      </trkpt>
      <trkpt lat="40.33290325663983821868896484375" lon="-1.16296366788446903228759765625">
        <ele>1002</ele>
        <time>2022-08-23T11:41:47.000Z</time>
      </trkpt>
      <trkpt lat="40.33287308178842067718505859375" lon="-1.1631307192146778106689453125">
        <ele>1001.5999755859375</ele>
        <time>2022-08-23T11:41:49.000Z</time>
      </trkpt>
      <trkpt lat="40.33286252059042453765869140625" lon="-1.16329542361199855804443359375">
        <ele>1000.79998779296875</ele>
        <time>2022-08-23T11:41:51.000Z</time>
      </trkpt>
      <trkpt lat="40.33287308178842067718505859375" lon="-1.16346222348511219024658203125">
        <ele>1000.4000244140625</ele>
        <time>2022-08-23T11:41:54.000Z</time>
      </trkpt>
      <trkpt lat="40.332874841988086700439453125" lon="-1.16347881965339183807373046875">
        <ele>999.79998779296875</ele>
        <time>2022-08-23T11:41:57.000Z</time>
      </trkpt>
      <trkpt lat="40.33287475816905498504638671875" lon="-1.1635246686637401580810546875">
        <ele>999.20001220703125</ele>
        <time>2022-08-23T11:42:30.000Z</time>
      </trkpt>
      <trkpt lat="40.33284709788858890533447265625" lon="-1.16369850933551788330078125">
        <ele>999.20001220703125</ele>
        <time>2022-08-23T11:42:36.000Z</time>
      </trkpt>
      <trkpt lat="40.33275783061981201171875" lon="-1.16392222233116626739501953125">
        <ele>999.20001220703125</ele>
        <time>2022-08-23T11:42:43.000Z</time>
      </trkpt>
      <trkpt lat="40.33263285644352436065673828125" lon="-1.16422380320727825164794921875">
        <ele>999.79998779296875</ele>
        <time>2022-08-23T11:42:51.000Z</time>
      </trkpt>
      <trkpt lat="40.33262330107390880584716796875" lon="-1.16446989588439464569091796875">
        <ele>999.79998779296875</ele>
        <time>2022-08-23T11:42:56.000Z</time>
      </trkpt>
      <trkpt lat="40.3327204473316669464111328125" lon="-1.16472579538822174072265625">
        <ele>999.79998779296875</ele>
        <time>2022-08-23T11:43:02.000Z</time>
      </trkpt>
      <trkpt lat="40.33287559635937213897705078125" lon="-1.1650545336306095123291015625">
        <ele>999.79998779296875</ele>
        <time>2022-08-23T11:43:10.000Z</time>
      </trkpt>
      <trkpt lat="40.332877524197101593017578125" lon="-1.1653006263077259063720703125">
        <ele>1000.20001220703125</ele>
        <time>2022-08-23T11:43:15.000Z</time>
      </trkpt>
      <trkpt lat="40.332793034613132476806640625" lon="-1.1656871996819972991943359375">
        <ele>1000.5999755859375</ele>
        <time>2022-08-23T11:43:22.000Z</time>
      </trkpt>
      <trkpt lat="40.33278373070061206817626953125" lon="-1.165961287915706634521484375">
        <ele>1000.79998779296875</ele>
        <time>2022-08-23T11:43:28.000Z</time>
      </trkpt>
      <trkpt lat="40.3328706510365009307861328125" lon="-1.16614376194775104522705078125">
        <ele>1001.4000244140625</ele>
        <time>2022-08-23T11:43:33.000Z</time>
      </trkpt>
      <trkpt lat="40.33292588777840137481689453125" lon="-1.16620830260217189788818359375">
        <ele>1001.4000244140625</ele>
        <time>2022-08-23T11:43:35.000Z</time>
      </trkpt>
      <trkpt lat="40.3329886682331562042236328125" lon="-1.1662796325981616973876953125">
        <ele>1001.5999755859375</ele>
        <time>2022-08-23T11:43:37.000Z</time>
      </trkpt>
      <trkpt lat="40.3330703079700469970703125" lon="-1.16636135615408420562744140625">
        <ele>1001.5999755859375</ele>
        <time>2022-08-23T11:43:39.000Z</time>
      </trkpt>
      <trkpt lat="40.33334783278405666351318359375" lon="-1.166672743856906890869140625">
        <ele>1001.4000244140625</ele>
        <time>2022-08-23T11:43:46.000Z</time>
      </trkpt>
      <trkpt lat="40.3335412032902240753173828125" lon="-1.16701212711632251739501953125">
        <ele>1001.20001220703125</ele>
        <time>2022-08-23T11:43:53.000Z</time>
      </trkpt>
      <trkpt lat="40.33374563790857791900634765625" lon="-1.167316474020481109619140625">
        <ele>1000.79998779296875</ele>
        <time>2022-08-23T11:43:58.000Z</time>
      </trkpt>
      <trkpt lat="40.33378310501575469970703125" lon="-1.16739031858742237091064453125">
        <ele>1000.79998779296875</ele>
        <time>2022-08-23T11:43:59.000Z</time>
      </trkpt>
      <trkpt lat="40.33383029513061046600341796875" lon="-1.1675513349473476409912109375">
        <ele>1000.79998779296875</ele>
        <time>2022-08-23T11:44:01.000Z</time>
      </trkpt>
      <trkpt lat="40.3338509984314441680908203125" lon="-1.16770296357572078704833984375">
        <ele>1000.4000244140625</ele>
        <time>2022-08-23T11:44:03.000Z</time>
      </trkpt>
      <trkpt lat="40.3338704444468021392822265625" lon="-1.16790764965116977691650390625">
        <ele>999.79998779296875</ele>
        <time>2022-08-23T11:44:06.000Z</time>
      </trkpt>
      <trkpt lat="40.3338996134698390960693359375" lon="-1.16816170513629913330078125">
        <ele>999.5999755859375</ele>
        <time>2022-08-23T11:44:11.000Z</time>
      </trkpt>
      <trkpt lat="40.33400832675397396087646484375" lon="-1.16835658438503742218017578125">
        <ele>1000.20001220703125</ele>
        <time>2022-08-23T11:44:16.000Z</time>
      </trkpt>
      <trkpt lat="40.3341460414230823516845703125" lon="-1.16843688301742076873779296875">
        <ele>1001.20001220703125</ele>
        <time>2022-08-23T11:44:20.000Z</time>
      </trkpt>
      <trkpt lat="40.33419172279536724090576171875" lon="-1.16866596043109893798828125">
        <ele>1001.20001220703125</ele>
        <time>2022-08-23T11:44:25.000Z</time>
      </trkpt>
      <trkpt lat="40.33418501727283000946044921875" lon="-1.1687596701085567474365234375">
        <ele>1001.4000244140625</ele>
        <time>2022-08-23T11:44:27.000Z</time>
      </trkpt>
      <trkpt lat="40.3342094086110591888427734375" lon="-1.16893627680838108062744140625">
        <ele>1001.4000244140625</ele>
        <time>2022-08-23T11:44:31.000Z</time>
      </trkpt>
      <trkpt lat="40.3342295251786708831787109375" lon="-1.16897986270487308502197265625">
        <ele>1001.5999755859375</ele>
        <time>2022-08-23T11:44:32.000Z</time>
      </trkpt>
      <trkpt lat="40.334254838526248931884765625" lon="-1.1690231971442699432373046875">
        <ele>1001.5999755859375</ele>
        <time>2022-08-23T11:44:33.000Z</time>
      </trkpt>
      <trkpt lat="40.33433136530220508575439453125" lon="-1.16916895844042301177978515625">
        <ele>1001.79998779296875</ele>
        <time>2022-08-23T11:44:36.000Z</time>
      </trkpt>
      <trkpt lat="40.33441568724811077117919921875" lon="-1.169517897069454193115234375">
        <ele>1001.79998779296875</ele>
        <time>2022-08-23T11:44:42.000Z</time>
      </trkpt>
      <trkpt lat="40.3344327025115489959716796875" lon="-1.16996205411851406097412109375">
        <ele>1001.79998779296875</ele>
        <time>2022-08-23T11:44:49.000Z</time>
      </trkpt>
      <trkpt lat="40.33447301946580410003662109375" lon="-1.17039204575121402740478515625">
        <ele>1001.5999755859375</ele>
        <time>2022-08-23T11:44:55.000Z</time>
      </trkpt>
      <trkpt lat="40.33447704277932643890380859375" lon="-1.17046438157558441162109375">
        <ele>1001.5999755859375</ele>
        <time>2022-08-23T11:44:56.000Z</time>
      </trkpt>
      <trkpt lat="40.33447905443608760833740234375" lon="-1.17093519307672977447509765625">
        <ele>1001.20001220703125</ele>
        <time>2022-08-23T11:45:03.000Z</time>
      </trkpt>
      <trkpt lat="40.334498248994350433349609375" lon="-1.17138949222862720489501953125">
        <ele>1001.20001220703125</ele>
        <time>2022-08-23T11:45:11.000Z</time>
      </trkpt>
      <trkpt lat="40.334508307278156280517578125" lon="-1.171848736703395843505859375">
        <ele>1001.79998779296875</ele>
        <time>2022-08-23T11:45:20.000Z</time>
      </trkpt>
      <trkpt lat="40.33447536639869213104248046875" lon="-1.17209759540855884552001953125">
        <ele>1002</ele>
        <time>2022-08-23T11:45:25.000Z</time>
      </trkpt>
      <trkpt lat="40.33445189706981182098388671875" lon="-1.17219549603760242462158203125">
        <ele>1002.20001220703125</ele>
        <time>2022-08-23T11:45:27.000Z</time>
      </trkpt>
      <trkpt lat="40.334400348365306854248046875" lon="-1.17243588902056217193603515625">
        <ele>1002.79998779296875</ele>
        <time>2022-08-23T11:45:32.000Z</time>
      </trkpt>
      <trkpt lat="40.33439355902373790740966796875" lon="-1.17248567752540111541748046875">
        <ele>1002.79998779296875</ele>
        <time>2022-08-23T11:45:33.000Z</time>
      </trkpt>
      <trkpt lat="40.3343311138451099395751953125" lon="-1.1728463508188724517822265625">
        <ele>1003.79998779296875</ele>
        <time>2022-08-23T11:45:41.000Z</time>
      </trkpt>
      <trkpt lat="40.33431778661906719207763671875" lon="-1.17293293587863445281982421875">
        <ele>1004.20001220703125</ele>
        <time>2022-08-23T11:45:43.000Z</time>
      </trkpt>
      <trkpt lat="40.334237404167652130126953125" lon="-1.17331397719681262969970703125">
        <ele>1005.20001220703125</ele>
        <time>2022-08-23T11:45:52.000Z</time>
      </trkpt>
      <trkpt lat="40.334160961210727691650390625" lon="-1.17358915507793426513671875">
        <ele>1006</ele>
        <time>2022-08-23T11:45:59.000Z</time>
      </trkpt>
      <trkpt lat="40.3341319598257541656494140625" lon="-1.173700131475925445556640625">
        <ele>1006.5999755859375</ele>
        <time>2022-08-23T11:46:02.000Z</time>
      </trkpt>
      <trkpt lat="40.33406917937099933624267578125" lon="-1.1738662607967853546142578125">
        <ele>1007.5999755859375</ele>
        <time>2022-08-23T11:46:07.000Z</time>
      </trkpt>
      <trkpt lat="40.3339874558150768280029296875" lon="-1.17408829741179943084716796875">
        <ele>1008.5999755859375</ele>
        <time>2022-08-23T11:46:13.000Z</time>
      </trkpt>
      <trkpt lat="40.333967171609401702880859375" lon="-1.17416457273066043853759765625">
        <ele>1009.4000244140625</ele>
        <time>2022-08-23T11:46:15.000Z</time>
      </trkpt>
      <trkpt lat="40.3339475579559803009033203125" lon="-1.174246966838836669921875">
        <ele>1009.79998779296875</ele>
        <time>2022-08-23T11:46:17.000Z</time>
      </trkpt>
      <trkpt lat="40.3338964283466339111328125" lon="-1.1744932271540164947509765625">
        <ele>1010.5999755859375</ele>
        <time>2022-08-23T11:46:23.000Z</time>
      </trkpt>
      <trkpt lat="40.3338908962905406951904296875" lon="-1.17453488521277904510498046875">
        <ele>1010.79998779296875</ele>
        <time>2022-08-23T11:46:24.000Z</time>
      </trkpt>
      <trkpt lat="40.333858542144298553466796875" lon="-1.17492598481476306915283203125">
        <ele>1011.4000244140625</ele>
        <time>2022-08-23T11:46:33.000Z</time>
      </trkpt>
      <trkpt lat="40.33386482857167720794677734375" lon="-1.1752472631633281707763671875">
        <ele>1011.5999755859375</ele>
        <time>2022-08-23T11:46:40.000Z</time>
      </trkpt>
      <trkpt lat="40.33385242335498332977294921875" lon="-1.17540928535163402557373046875">
        <ele>1011.5999755859375</ele>
        <time>2022-08-23T11:46:43.000Z</time>
      </trkpt>
      <trkpt lat="40.33380380831658840179443359375" lon="-1.1756269633769989013671875">
        <ele>1011.5999755859375</ele>
        <time>2022-08-23T11:46:47.000Z</time>
      </trkpt>
      <trkpt lat="40.333790145814418792724609375" lon="-1.1756801046431064605712890625">
        <ele>1011.5999755859375</ele>
        <time>2022-08-23T11:46:48.000Z</time>
      </trkpt>
      <trkpt lat="40.33370674587786197662353515625" lon="-1.17594857700169086456298828125">
        <ele>1011.4000244140625</ele>
        <time>2022-08-23T11:46:53.000Z</time>
      </trkpt>
      <trkpt lat="40.33365033566951751708984375" lon="-1.176393069326877593994140625">
        <ele>1011.20001220703125</ele>
        <time>2022-08-23T11:47:01.000Z</time>
      </trkpt>
      <trkpt lat="40.3336169756948947906494140625" lon="-1.1766098253428936004638671875">
        <ele>1011.20001220703125</ele>
        <time>2022-08-23T11:47:05.000Z</time>
      </trkpt>
      <trkpt lat="40.33357330597937107086181640625" lon="-1.17676413618028163909912109375">
        <ele>1011.4000244140625</ele>
        <time>2022-08-23T11:47:08.000Z</time>
      </trkpt>
      <trkpt lat="40.33344782888889312744140625" lon="-1.17709740065038204193115234375">
        <ele>1011.79998779296875</ele>
        <time>2022-08-23T11:47:15.000Z</time>
      </trkpt>
      <trkpt lat="40.33342964015901088714599609375" lon="-1.177143752574920654296875">
        <ele>1011.79998779296875</ele>
        <time>2022-08-23T11:47:16.000Z</time>
      </trkpt>
      <trkpt lat="40.33334347419440746307373046875" lon="-1.17743116803467273712158203125">
        <ele>1012</ele>
        <time>2022-08-23T11:47:22.000Z</time>
      </trkpt>
      <trkpt lat="40.3333170711994171142578125" lon="-1.17777734063565731048583984375">
        <ele>1012.20001220703125</ele>
        <time>2022-08-23T11:47:29.000Z</time>
      </trkpt>
      <trkpt lat="40.33325948752462863922119140625" lon="-1.17808629758656024932861328125">
        <ele>1013</ele>
        <time>2022-08-23T11:47:36.000Z</time>
      </trkpt>
      <trkpt lat="40.333171896636486053466796875" lon="-1.1785001121461391448974609375">
        <ele>1013.5999755859375</ele>
        <time>2022-08-23T11:47:46.000Z</time>
      </trkpt>
      <trkpt lat="40.3331304900348186492919921875" lon="-1.17864243686199188232421875">
        <ele>1014.20001220703125</ele>
        <time>2022-08-23T11:47:49.000Z</time>
      </trkpt>
      <trkpt lat="40.33307659439742565155029296875" lon="-1.1787971667945384979248046875">
        <ele>1014.79998779296875</ele>
        <time>2022-08-23T11:47:52.000Z</time>
      </trkpt>
      <trkpt lat="40.33300568349659442901611328125" lon="-1.17899782955646514892578125">
        <ele>1014.79998779296875</ele>
        <time>2022-08-23T11:47:56.000Z</time>
      </trkpt>
      <trkpt lat="40.33296343870460987091064453125" lon="-1.17908743210136890411376953125">
        <ele>1014.79998779296875</ele>
        <time>2022-08-23T11:47:58.000Z</time>
      </trkpt>
      <trkpt lat="40.33281507901847362518310546875" lon="-1.17921416647732257843017578125">
        <ele>1014.79998779296875</ele>
        <time>2022-08-23T11:48:03.000Z</time>
      </trkpt>
      <trkpt lat="40.33260351978242397308349609375" lon="-1.179269738495349884033203125">
        <ele>1014.79998779296875</ele>
        <time>2022-08-23T11:48:09.000Z</time>
      </trkpt>
      <trkpt lat="40.3324901126325130462646484375" lon="-1.1794053576886653900146484375">
        <ele>1015</ele>
        <time>2022-08-23T11:48:15.000Z</time>
      </trkpt>
      <trkpt lat="40.33245683647692203521728515625" lon="-1.17957207374274730682373046875">
        <ele>1015.4000244140625</ele>
        <time>2022-08-23T11:48:20.000Z</time>
      </trkpt>
      <trkpt lat="40.33243739046156406402587890625" lon="-1.17963795550167560577392578125">
        <ele>1015.5999755859375</ele>
        <time>2022-08-23T11:48:22.000Z</time>
      </trkpt>
      <trkpt lat="40.3323308564722537994384765625" lon="-1.1798355169594287872314453125">
        <ele>1016.5999755859375</ele>
        <time>2022-08-23T11:48:29.000Z</time>
      </trkpt>
      <trkpt lat="40.33229355700314044952392578125" lon="-1.18003861047327518463134765625">
        <ele>1017.20001220703125</ele>
        <time>2022-08-23T11:48:35.000Z</time>
      </trkpt>
      <trkpt lat="40.33231333829462528228759765625" lon="-1.180105917155742645263671875">
        <ele>1017.5999755859375</ele>
        <time>2022-08-23T11:48:37.000Z</time>
      </trkpt>
      <trkpt lat="40.33235751092433929443359375" lon="-1.180203147232532501220703125">
        <ele>1018.20001220703125</ele>
        <time>2022-08-23T11:48:40.000Z</time>
      </trkpt>
      <trkpt lat="40.33239112235605716705322265625" lon="-1.18026651442050933837890625">
        <ele>1018.79998779296875</ele>
        <time>2022-08-23T11:48:42.000Z</time>
      </trkpt>
      <trkpt lat="40.3324086405336856842041015625" lon="-1.1803783290088176727294921875">
        <ele>1019.5999755859375</ele>
        <time>2022-08-23T11:48:45.000Z</time>
      </trkpt>
      <trkpt lat="40.33240185119211673736572265625" lon="-1.180417723953723907470703125">
        <ele>1019.79998779296875</ele>
        <time>2022-08-23T11:48:46.000Z</time>
      </trkpt>
      <trkpt lat="40.33234141767024993896484375" lon="-1.18057622574269771575927734375">
        <ele>1020.4000244140625</ele>
        <time>2022-08-23T11:48:51.000Z</time>
      </trkpt>
      <trkpt lat="40.33225181512534618377685546875" lon="-1.18074470199644565582275390625">
        <ele>1020.79998779296875</ele>
        <time>2022-08-23T11:48:58.000Z</time>
      </trkpt>
      <trkpt lat="40.33224578015506267547607421875" lon="-1.18076884187757968902587890625">
        <ele>1021</ele>
        <time>2022-08-23T11:48:59.000Z</time>
      </trkpt>
      <trkpt lat="40.33221527002751827239990234375" lon="-1.18086456321179866790771484375">
        <ele>1021.5999755859375</ele>
        <time>2022-08-23T11:49:03.000Z</time>
      </trkpt>
      <trkpt lat="40.3321974165737628936767578125" lon="-1.18091384880244731903076171875">
        <ele>1022</ele>
        <time>2022-08-23T11:49:05.000Z</time>
      </trkpt>
      <trkpt lat="40.3321880288422107696533203125" lon="-1.18094167672097682952880859375">
        <ele>1022.20001220703125</ele>
        <time>2022-08-23T11:49:06.000Z</time>
      </trkpt>
      <trkpt lat="40.332152657210826873779296875" lon="-1.18104712106287479400634765625">
        <ele>1023</ele>
        <time>2022-08-23T11:49:10.000Z</time>
      </trkpt>
      <trkpt lat="40.33212281763553619384765625" lon="-1.18112959899008274078369140625">
        <ele>1024</ele>
        <time>2022-08-23T11:49:13.000Z</time>
      </trkpt>
      <trkpt lat="40.33211368136107921600341796875" lon="-1.18115675635635852813720703125">
        <ele>1024.4000244140625</ele>
        <time>2022-08-23T11:49:14.000Z</time>
      </trkpt>
      <trkpt lat="40.33204947598278522491455078125" lon="-1.18134786374866962432861328125">
        <ele>1025.199951171875</ele>
        <time>2022-08-23T11:49:21.000Z</time>
      </trkpt>
      <trkpt lat="40.33203941769897937774658203125" lon="-1.18139077909290790557861328125">
        <ele>1025.4000244140625</ele>
        <time>2022-08-23T11:49:22.000Z</time>
      </trkpt>
      <trkpt lat="40.3320076502859592437744140625" lon="-1.181572414934635162353515625">
        <ele>1025.4000244140625</ele>
        <time>2022-08-23T11:49:25.000Z</time>
      </trkpt>
      <trkpt lat="40.331973619759082794189453125" lon="-1.181999556720256805419921875">
        <ele>1025.4000244140625</ele>
        <time>2022-08-23T11:49:30.000Z</time>
      </trkpt>
      <trkpt lat="40.33196498639881610870361328125" lon="-1.18250054307281970977783203125">
        <ele>1024.4000244140625</ele>
        <time>2022-08-23T11:49:35.000Z</time>
      </trkpt>
      <trkpt lat="40.331971608102321624755859375" lon="-1.18260464631021022796630859375">
        <ele>1024</ele>
        <time>2022-08-23T11:49:36.000Z</time>
      </trkpt>
      <trkpt lat="40.33196188509464263916015625" lon="-1.18280430324375629425048828125">
        <ele>1023.4000244140625</ele>
        <time>2022-08-23T11:49:38.000Z</time>
      </trkpt>
      <trkpt lat="40.331936739385128021240234375" lon="-1.1828952468931674957275390625">
        <ele>1023.20001220703125</ele>
        <time>2022-08-23T11:49:39.000Z</time>
      </trkpt>
      <trkpt lat="40.33186088316142559051513671875" lon="-1.18304318748414516448974609375">
        <ele>1022.20001220703125</ele>
        <time>2022-08-23T11:49:41.000Z</time>
      </trkpt>
      <trkpt lat="40.3318175487220287322998046875" lon="-1.18310135789215564727783203125">
        <ele>1021.5999755859375</ele>
        <time>2022-08-23T11:49:42.000Z</time>
      </trkpt>
      <trkpt lat="40.33173917792737483978271484375" lon="-1.1832053773105144500732421875">
        <ele>1020.79998779296875</ele>
        <time>2022-08-23T11:49:44.000Z</time>
      </trkpt>
      <trkpt lat="40.33170833252370357513427734375" lon="-1.18325608782470226287841796875">
        <ele>1020.5999755859375</ele>
        <time>2022-08-23T11:49:45.000Z</time>
      </trkpt>
      <trkpt lat="40.3316613100469112396240234375" lon="-1.1833579279482364654541015625">
        <ele>1020.5999755859375</ele>
        <time>2022-08-23T11:49:47.000Z</time>
      </trkpt>
      <trkpt lat="40.331608168780803680419921875" lon="-1.18358214385807514190673828125">
        <ele>1020.4000244140625</ele>
        <time>2022-08-23T11:49:52.000Z</time>
      </trkpt>
      <trkpt lat="40.3315711207687854766845703125" lon="-1.18396905250847339630126953125">
        <ele>1021.4000244140625</ele>
        <time>2022-08-23T11:50:01.000Z</time>
      </trkpt>
      <trkpt lat="40.33153801225125789642333984375" lon="-1.18426510132849216461181640625">
        <ele>1021.79998779296875</ele>
        <time>2022-08-23T11:50:08.000Z</time>
      </trkpt>
      <trkpt lat="40.33152359537780284881591796875" lon="-1.1843905784189701080322265625">
        <ele>1022.20001220703125</ele>
        <time>2022-08-23T11:50:11.000Z</time>
      </trkpt>
      <trkpt lat="40.33149777911603450775146484375" lon="-1.18475493974983692169189453125">
        <ele>1023</ele>
        <time>2022-08-23T11:50:20.000Z</time>
      </trkpt>
      <trkpt lat="40.33148637972772121429443359375" lon="-1.18482836522161960601806640625">
        <ele>1023.20001220703125</ele>
        <time>2022-08-23T11:50:22.000Z</time>
      </trkpt>
      <trkpt lat="40.3314400278031826019287109375" lon="-1.1850245855748653411865234375">
        <ele>1024.199951171875</ele>
        <time>2022-08-23T11:50:27.000Z</time>
      </trkpt>
      <trkpt lat="40.33142787404358386993408203125" lon="-1.1850738711655139923095703125">
        <ele>1024.199951171875</ele>
        <time>2022-08-23T11:50:28.000Z</time>
      </trkpt>
      <trkpt lat="40.331356711685657501220703125" lon="-1.18546002544462680816650390625">
        <ele>1024.4000244140625</ele>
        <time>2022-08-23T11:50:35.000Z</time>
      </trkpt>
      <trkpt lat="40.3312985412776470184326171875" lon="-1.1858446709811687469482421875">
        <ele>1024.4000244140625</ele>
        <time>2022-08-23T11:50:42.000Z</time>
      </trkpt>
      <trkpt lat="40.331158898770809173583984375" lon="-1.18622638285160064697265625">
        <ele>1024.5999755859375</ele>
        <time>2022-08-23T11:50:50.000Z</time>
      </trkpt>
      <trkpt lat="40.33095563761889934539794921875" lon="-1.1866481602191925048828125">
        <ele>1024.5999755859375</ele>
        <time>2022-08-23T11:51:00.000Z</time>
      </trkpt>
      <trkpt lat="40.330786742269992828369140625" lon="-1.1870144493877887725830078125">
        <ele>1024.800048828125</ele>
        <time>2022-08-23T11:51:09.000Z</time>
      </trkpt>
      <trkpt lat="40.33072228543460369110107421875" lon="-1.18722156621515750885009765625">
        <ele>1025.199951171875</ele>
        <time>2022-08-23T11:51:14.000Z</time>
      </trkpt>
      <trkpt lat="40.3306987322866916656494140625" lon="-1.187356598675251007080078125">
        <ele>1025.4000244140625</ele>
        <time>2022-08-23T11:51:17.000Z</time>
      </trkpt>
      <trkpt lat="40.3306249715387821197509765625" lon="-1.18770562112331390380859375">
        <ele>1025.800048828125</ele>
        <time>2022-08-23T11:51:25.000Z</time>
      </trkpt>
      <trkpt lat="40.33050267957150936126708984375" lon="-1.18795531801879405975341796875">
        <ele>1026.199951171875</ele>
        <time>2022-08-23T11:51:32.000Z</time>
      </trkpt>
      <trkpt lat="40.3304841555655002593994140625" lon="-1.18798859417438507080078125">
        <ele>1026.199951171875</ele>
        <time>2022-08-23T11:51:33.000Z</time>
      </trkpt>
      <trkpt lat="40.33033872954547405242919921875" lon="-1.18820141069591045379638671875">
        <ele>1026.800048828125</ele>
        <time>2022-08-23T11:51:40.000Z</time>
      </trkpt>
      <trkpt lat="40.330226831138134002685546875" lon="-1.1883498542010784149169921875">
        <ele>1027.199951171875</ele>
        <time>2022-08-23T11:51:45.000Z</time>
      </trkpt>
      <trkpt lat="40.33010772429406642913818359375" lon="-1.1884950287640094757080078125">
        <ele>1028</ele>
        <time>2022-08-23T11:51:50.000Z</time>
      </trkpt>
      <trkpt lat="40.32994494773447513580322265625" lon="-1.18866090662777423858642578125">
        <ele>1028.4000244140625</ele>
        <time>2022-08-23T11:51:57.000Z</time>
      </trkpt>
      <trkpt lat="40.32978971488773822784423828125" lon="-1.18884245865046977996826171875">
        <ele>1029.5999755859375</ele>
        <time>2022-08-23T11:52:04.000Z</time>
      </trkpt>
      <trkpt lat="40.3296114318072795867919921875" lon="-1.1890138685703277587890625">
        <ele>1030.5999755859375</ele>
        <time>2022-08-23T11:52:11.000Z</time>
      </trkpt>
      <trkpt lat="40.3295566141605377197265625" lon="-1.1890562810003757476806640625">
        <ele>1030.5999755859375</ele>
        <time>2022-08-23T11:52:13.000Z</time>
      </trkpt>
      <trkpt lat="40.32928009517490863800048828125" lon="-1.1892809160053730010986328125">
        <ele>1031</ele>
        <time>2022-08-23T11:52:23.000Z</time>
      </trkpt>
      <trkpt lat="40.32904766499996185302734375" lon="-1.1895179562270641326904296875">
        <ele>1031.4000244140625</ele>
        <time>2022-08-23T11:52:32.000Z</time>
      </trkpt>
      <trkpt lat="40.32893392257392406463623046875" lon="-1.18966841138899326324462890625">
        <ele>1031.5999755859375</ele>
        <time>2022-08-23T11:52:37.000Z</time>
      </trkpt>
      <trkpt lat="40.328818671405315399169921875" lon="-1.1898185312747955322265625">
        <ele>1031.800048828125</ele>
        <time>2022-08-23T11:52:42.000Z</time>
      </trkpt>
      <trkpt lat="40.32859261147677898406982421875" lon="-1.1900785379111766815185546875">
        <ele>1032.4000244140625</ele>
        <time>2022-08-23T11:52:51.000Z</time>
      </trkpt>
      <trkpt lat="40.3283652104437351226806640625" lon="-1.19032789953052997589111328125">
        <ele>1032.4000244140625</ele>
        <time>2022-08-23T11:53:00.000Z</time>
      </trkpt>
      <trkpt lat="40.32824140973389148712158203125" lon="-1.19046871550381183624267578125">
        <ele>1032.800048828125</ele>
        <time>2022-08-23T11:53:05.000Z</time>
      </trkpt>
      <trkpt lat="40.328147113323211669921875" lon="-1.19056711904704570770263671875">
        <ele>1033</ele>
        <time>2022-08-23T11:53:09.000Z</time>
      </trkpt>
      <trkpt lat="40.32792340032756328582763671875" lon="-1.19074481539428234100341796875">
        <ele>1033.800048828125</ele>
        <time>2022-08-23T11:53:18.000Z</time>
      </trkpt>
      <trkpt lat="40.32789758406579494476318359375" lon="-1.1907675303518772125244140625">
        <ele>1033.800048828125</ele>
        <time>2022-08-23T11:53:19.000Z</time>
      </trkpt>
      <trkpt lat="40.327737741172313690185546875" lon="-1.190910525619983673095703125">
        <ele>1034.4000244140625</ele>
        <time>2022-08-23T11:53:26.000Z</time>
      </trkpt>
      <trkpt lat="40.3275932371616363525390625" lon="-1.19103684090077877044677734375">
        <ele>1035</ele>
        <time>2022-08-23T11:53:32.000Z</time>
      </trkpt>
      <trkpt lat="40.3275706060230731964111328125" lon="-1.19105762802064418792724609375">
        <ele>1035</ele>
        <time>2022-08-23T11:53:33.000Z</time>
      </trkpt>
      <trkpt lat="40.32740606926381587982177734375" lon="-1.19121797382831573486328125">
        <ele>1035.5999755859375</ele>
        <time>2022-08-23T11:53:41.000Z</time>
      </trkpt>
      <trkpt lat="40.327366255223751068115234375" lon="-1.19126013480126857757568359375">
        <ele>1036.199951171875</ele>
        <time>2022-08-23T11:53:43.000Z</time>
      </trkpt>
      <trkpt lat="40.32724857330322265625" lon="-1.191364824771881103515625">
        <ele>1037</ele>
        <time>2022-08-23T11:53:49.000Z</time>
      </trkpt>
      <trkpt lat="40.32722787000238895416259765625" lon="-1.19138083420693874359130859375">
        <ele>1037</ele>
        <time>2022-08-23T11:53:50.000Z</time>
      </trkpt>
      <trkpt lat="40.32705654390156269073486328125" lon="-1.19147186167538166046142578125">
        <ele>1038.4000244140625</ele>
        <time>2022-08-23T11:53:58.000Z</time>
      </trkpt>
      <trkpt lat="40.3269184939563274383544921875" lon="-1.1915141902863979339599609375">
        <ele>1039.199951171875</ele>
        <time>2022-08-23T11:54:05.000Z</time>
      </trkpt>
      <trkpt lat="40.326858647167682647705078125" lon="-1.1915168724954128265380859375">
        <ele>1039.4000244140625</ele>
        <time>2022-08-23T11:54:08.000Z</time>
      </trkpt>
      <trkpt lat="40.3267376124858856201171875" lon="-1.19155065156519412994384765625">
        <ele>1040.5999755859375</ele>
        <time>2022-08-23T11:54:14.000Z</time>
      </trkpt>
      <trkpt lat="40.32664239406585693359375" lon="-1.19160010479390621185302734375">
        <ele>1041.5999755859375</ele>
        <time>2022-08-23T11:54:19.000Z</time>
      </trkpt>
      <trkpt lat="40.32659017480909824371337890625" lon="-1.1916301958262920379638671875">
        <ele>1042</ele>
        <time>2022-08-23T11:54:22.000Z</time>
      </trkpt>
      <trkpt lat="40.3264990635216236114501953125" lon="-1.19171418249607086181640625">
        <ele>1042.800048828125</ele>
        <time>2022-08-23T11:54:28.000Z</time>
      </trkpt>
      <trkpt lat="40.326486490666866302490234375" lon="-1.19173019193112850189208984375">
        <ele>1043</ele>
        <time>2022-08-23T11:54:29.000Z</time>
      </trkpt>
      <trkpt lat="40.3264481015503406524658203125" lon="-1.19181417860090732574462890625">
        <ele>1044</ele>
        <time>2022-08-23T11:54:33.000Z</time>
      </trkpt>
      <trkpt lat="40.32640979625284671783447265625" lon="-1.19192875921726226806640625">
        <ele>1044.800048828125</ele>
        <time>2022-08-23T11:54:38.000Z</time>
      </trkpt>
      <trkpt lat="40.32639688812196254730224609375" lon="-1.19197594933211803436279296875">
        <ele>1045</ele>
        <time>2022-08-23T11:54:40.000Z</time>
      </trkpt>
      <trkpt lat="40.32637341879308223724365234375" lon="-1.19206446222960948944091796875">
        <ele>1046</ele>
        <time>2022-08-23T11:54:44.000Z</time>
      </trkpt>
      <trkpt lat="40.326355397701263427734375" lon="-1.19215406477451324462890625">
        <ele>1047.199951171875</ele>
        <time>2022-08-23T11:54:48.000Z</time>
      </trkpt>
      <trkpt lat="40.32634508796036243438720703125" lon="-1.192268393933773040771484375">
        <ele>1048.4000244140625</ele>
        <time>2022-08-23T11:54:53.000Z</time>
      </trkpt>
      <trkpt lat="40.32634290866553783416748046875" lon="-1.19233779609203338623046875">
        <ele>1048.800048828125</ele>
        <time>2022-08-23T11:54:56.000Z</time>
      </trkpt>
      <trkpt lat="40.326343663036823272705078125" lon="-1.19249260984361171722412109375">
        <ele>1049.199951171875</ele>
        <time>2022-08-23T11:55:02.000Z</time>
      </trkpt>
      <trkpt lat="40.32633519731462001800537109375" lon="-1.192550025880336761474609375">
        <ele>1049.4000244140625</ele>
        <time>2022-08-23T11:55:04.000Z</time>
      </trkpt>
      <trkpt lat="40.32629244960844516754150390625" lon="-1.192757897078990936279296875">
        <ele>1049.5999755859375</ele>
        <time>2022-08-23T11:55:12.000Z</time>
      </trkpt>
      <trkpt lat="40.326254479587078094482421875" lon="-1.19291891343891620635986328125">
        <ele>1050.199951171875</ele>
        <time>2022-08-23T11:55:20.000Z</time>
      </trkpt>
      <trkpt lat="40.3262496180832386016845703125" lon="-1.1929379403591156005859375">
        <ele>1050.4000244140625</ele>
        <time>2022-08-23T11:55:21.000Z</time>
      </trkpt>
      <trkpt lat="40.3262253105640411376953125" lon="-1.1930624954402446746826171875">
        <ele>1051</ele>
        <time>2022-08-23T11:55:27.000Z</time>
      </trkpt>
      <trkpt lat="40.32620494253933429718017578125" lon="-1.1931256949901580810546875">
        <ele>1051.4000244140625</ele>
        <time>2022-08-23T11:55:30.000Z</time>
      </trkpt>
      <trkpt lat="40.326160602271556854248046875" lon="-1.19321932084858417510986328125">
        <ele>1052</ele>
        <time>2022-08-23T11:55:35.000Z</time>
      </trkpt>
      <trkpt lat="40.3261419944465160369873046875" lon="-1.19325251318514347076416015625">
        <ele>1052.5999755859375</ele>
        <time>2022-08-23T11:55:37.000Z</time>
      </trkpt>
      <trkpt lat="40.3261088021099567413330078125" lon="-1.193327866494655609130859375">
        <ele>1053.4000244140625</ele>
        <time>2022-08-23T11:55:42.000Z</time>
      </trkpt>
      <trkpt lat="40.32608910463750362396240234375" lon="-1.19336047209799289703369140625">
        <ele>1053.800048828125</ele>
        <time>2022-08-23T11:55:44.000Z</time>
      </trkpt>
      <trkpt lat="40.32605239190161228179931640625" lon="-1.1934460513293743133544921875">
        <ele>1054.800048828125</ele>
        <time>2022-08-23T11:55:49.000Z</time>
      </trkpt>
      <trkpt lat="40.32605071552097797393798828125" lon="-1.19346474297344684600830078125">
        <ele>1055</ele>
        <time>2022-08-23T11:55:50.000Z</time>
      </trkpt>
      <trkpt lat="40.32601199112832546234130859375" lon="-1.19355711154639720916748046875">
        <ele>1056</ele>
        <time>2022-08-23T11:55:55.000Z</time>
      </trkpt>
      <trkpt lat="40.32598349265754222869873046875" lon="-1.19361595250666141510009765625">
        <ele>1056.4000244140625</ele>
        <time>2022-08-23T11:55:58.000Z</time>
      </trkpt>
      <trkpt lat="40.3259525634348392486572265625" lon="-1.19366859085857868194580078125">
        <ele>1057</ele>
        <time>2022-08-23T11:56:01.000Z</time>
      </trkpt>
      <trkpt lat="40.32593135721981525421142578125" lon="-1.19372860528528690338134765625">
        <ele>1057.4000244140625</ele>
        <time>2022-08-23T11:56:04.000Z</time>
      </trkpt>
      <trkpt lat="40.32591727562248706817626953125" lon="-1.193769760429859161376953125">
        <ele>1057.800048828125</ele>
        <time>2022-08-23T11:56:06.000Z</time>
      </trkpt>
      <trkpt lat="40.3259089775383472442626953125" lon="-1.1937887035310268402099609375">
        <ele>1058</ele>
        <time>2022-08-23T11:56:07.000Z</time>
      </trkpt>
      <trkpt lat="40.32587184570729732513427734375" lon="-1.19387361221015453338623046875">
        <ele>1058.800048828125</ele>
        <time>2022-08-23T11:56:12.000Z</time>
      </trkpt>
      <trkpt lat="40.32585524953901767730712890625" lon="-1.19393127970397472381591796875">
        <ele>1059.199951171875</ele>
        <time>2022-08-23T11:56:15.000Z</time>
      </trkpt>
      <trkpt lat="40.32584317959845066070556640625" lon="-1.19397201575338840484619140625">
        <ele>1059.800048828125</ele>
        <time>2022-08-23T11:56:17.000Z</time>
      </trkpt>
      <trkpt lat="40.325839407742023468017578125" lon="-1.19399397633969783782958984375">
        <ele>1060.199951171875</ele>
        <time>2022-08-23T11:56:18.000Z</time>
      </trkpt>
      <trkpt lat="40.3258358873426914215087890625" lon="-1.1940156854689121246337890625">
        <ele>1060.199951171875</ele>
        <time>2022-08-23T11:56:19.000Z</time>
      </trkpt>
      <trkpt lat="40.32583982683718204498291015625" lon="-1.19414149783551692962646484375">
        <ele>1061.4000244140625</ele>
        <time>2022-08-23T11:56:25.000Z</time>
      </trkpt>
      <trkpt lat="40.3258590213954448699951171875" lon="-1.1942668072879314422607421875">
        <ele>1062.4000244140625</ele>
        <time>2022-08-23T11:56:31.000Z</time>
      </trkpt>
      <trkpt lat="40.3258610330522060394287109375" lon="-1.19428650476038455963134765625">
        <ele>1062.5999755859375</ele>
        <time>2022-08-23T11:56:32.000Z</time>
      </trkpt>
      <trkpt lat="40.325860194861888885498046875" lon="-1.19439966045320034027099609375">
        <ele>1063.4000244140625</ele>
        <time>2022-08-23T11:56:38.000Z</time>
      </trkpt>
      <trkpt lat="40.32585307024419307708740234375" lon="-1.1944331042468547821044921875">
        <ele>1063.5999755859375</ele>
        <time>2022-08-23T11:56:40.000Z</time>
      </trkpt>
      <trkpt lat="40.32581417821347713470458984375" lon="-1.19456805288791656494140625">
        <ele>1064.5999755859375</ele>
        <time>2022-08-23T11:56:48.000Z</time>
      </trkpt>
      <trkpt lat="40.3257996775209903717041015625" lon="-1.1945980601012706756591796875">
        <ele>1065</ele>
        <time>2022-08-23T11:56:50.000Z</time>
      </trkpt>
      <trkpt lat="40.32578500919044017791748046875" lon="-1.1946289055049419403076171875">
        <ele>1065.5999755859375</ele>
        <time>2022-08-23T11:56:52.000Z</time>
      </trkpt>
      <trkpt lat="40.32575190067291259765625" lon="-1.19471398182213306427001953125">
        <ele>1066.800048828125</ele>
        <time>2022-08-23T11:56:57.000Z</time>
      </trkpt>
      <trkpt lat="40.32573823817074298858642578125" lon="-1.1947502754628658294677734375">
        <ele>1067.199951171875</ele>
        <time>2022-08-23T11:56:59.000Z</time>
      </trkpt>
      <trkpt lat="40.325718037784099578857421875" lon="-1.1947992257773876190185546875">
        <ele>1067.800048828125</ele>
        <time>2022-08-23T11:57:02.000Z</time>
      </trkpt>
      <trkpt lat="40.32569381408393383026123046875" lon="-1.194883882999420166015625">
        <ele>1068.5999755859375</ele>
        <time>2022-08-23T11:57:07.000Z</time>
      </trkpt>
      <trkpt lat="40.32568375580012798309326171875" lon="-1.1949222721159458160400390625">
        <ele>1069</ele>
        <time>2022-08-23T11:57:09.000Z</time>
      </trkpt>
      <trkpt lat="40.3256588615477085113525390625" lon="-1.19501740671694278717041015625">
        <ele>1069.5999755859375</ele>
        <time>2022-08-23T11:57:14.000Z</time>
      </trkpt>
      <trkpt lat="40.3256524913012981414794921875" lon="-1.195079348981380462646484375">
        <ele>1070.199951171875</ele>
        <time>2022-08-23T11:57:17.000Z</time>
      </trkpt>
      <trkpt lat="40.32564218156039714813232421875" lon="-1.19515017606317996978759765625">
        <ele>1070.5999755859375</ele>
        <time>2022-08-23T11:57:21.000Z</time>
      </trkpt>
      <trkpt lat="40.3256327100098133087158203125" lon="-1.195234246551990509033203125">
        <ele>1071.199951171875</ele>
        <time>2022-08-23T11:57:26.000Z</time>
      </trkpt>
      <trkpt lat="40.32563262619078159332275390625" lon="-1.1952666006982326507568359375">
        <ele>1071.5999755859375</ele>
        <time>2022-08-23T11:57:28.000Z</time>
      </trkpt>
      <trkpt lat="40.3256320394575595855712890625" lon="-1.1953339911997318267822265625">
        <ele>1072.4000244140625</ele>
        <time>2022-08-23T11:57:32.000Z</time>
      </trkpt>
      <trkpt lat="40.32562692649662494659423828125" lon="-1.1953599750995635986328125">
        <ele>1072.5999755859375</ele>
        <time>2022-08-23T11:57:34.000Z</time>
      </trkpt>
      <trkpt lat="40.3256119228899478912353515625" lon="-1.195411942899227142333984375">
        <ele>1073</ele>
        <time>2022-08-23T11:57:38.000Z</time>
      </trkpt>
      <trkpt lat="40.32560479827225208282470703125" lon="-1.19546315632760524749755859375">
        <ele>1073.4000244140625</ele>
        <time>2022-08-23T11:57:41.000Z</time>
      </trkpt>
      <trkpt lat="40.325602702796459197998046875" lon="-1.19547774083912372589111328125">
        <ele>1073.4000244140625</ele>
        <time>2022-08-23T11:57:42.000Z</time>
      </trkpt>
      <trkpt lat="40.3255753777921199798583984375" lon="-1.19558569975197315216064453125">
        <ele>1073.800048828125</ele>
        <time>2022-08-23T11:57:48.000Z</time>
      </trkpt>
      <trkpt lat="40.32555467449128627777099609375" lon="-1.1956488154828548431396484375">
        <ele>1074.5999755859375</ele>
        <time>2022-08-23T11:57:52.000Z</time>
      </trkpt>
      <trkpt lat="40.32554629258811473846435546875" lon="-1.1957001127302646636962890625">
        <ele>1075.199951171875</ele>
        <time>2022-08-23T11:57:55.000Z</time>
      </trkpt>
      <trkpt lat="40.32554428093135356903076171875" lon="-1.1957167088985443115234375">
        <ele>1075.5999755859375</ele>
        <time>2022-08-23T11:57:56.000Z</time>
      </trkpt>
      <trkpt lat="40.3255190514028072357177734375" lon="-1.19583212770521640777587890625">
        <ele>1076.4000244140625</ele>
        <time>2022-08-23T11:58:03.000Z</time>
      </trkpt>
      <trkpt lat="40.32551695592701435089111328125" lon="-1.1958509869873523712158203125">
        <ele>1076.5999755859375</ele>
        <time>2022-08-23T11:58:04.000Z</time>
      </trkpt>
      <trkpt lat="40.3254888765513896942138671875" lon="-1.19598652236163616180419921875">
        <ele>1077.4000244140625</ele>
        <time>2022-08-23T11:58:11.000Z</time>
      </trkpt>
      <trkpt lat="40.3254674188792705535888671875" lon="-1.19604284875094890594482421875">
        <ele>1077.5999755859375</ele>
        <time>2022-08-23T11:58:14.000Z</time>
      </trkpt>
      <trkpt lat="40.3254449553787708282470703125" lon="-1.19612281210720539093017578125">
        <ele>1078.199951171875</ele>
        <time>2022-08-23T11:58:18.000Z</time>
      </trkpt>
      <trkpt lat="40.32542039640247821807861328125" lon="-1.19622171856462955474853515625">
        <ele>1078.5999755859375</ele>
        <time>2022-08-23T11:58:23.000Z</time>
      </trkpt>
      <trkpt lat="40.32541469670832157135009765625" lon="-1.19624032638967037200927734375">
        <ele>1078.800048828125</ele>
        <time>2022-08-23T11:58:24.000Z</time>
      </trkpt>
      <trkpt lat="40.32540799118578433990478515625" lon="-1.1962580122053623199462890625">
        <ele>1078.800048828125</ele>
        <time>2022-08-23T11:58:25.000Z</time>
      </trkpt>
      <trkpt lat="40.325386114418506622314453125" lon="-1.196328587830066680908203125">
        <ele>1079.5999755859375</ele>
        <time>2022-08-23T11:58:29.000Z</time>
      </trkpt>
      <trkpt lat="40.325368680059909820556640625" lon="-1.1963800527155399322509765625">
        <ele>1080.800048828125</ele>
        <time>2022-08-23T11:58:32.000Z</time>
      </trkpt>
      <trkpt lat="40.32536373473703861236572265625" lon="-1.19639790616929531097412109375">
        <ele>1080.800048828125</ele>
        <time>2022-08-23T11:58:33.000Z</time>
      </trkpt>
      <trkpt lat="40.3253366611897945404052734375" lon="-1.1964923702180385589599609375">
        <ele>1081.800048828125</ele>
        <time>2022-08-23T11:58:38.000Z</time>
      </trkpt>
      <trkpt lat="40.32532098703086376190185546875" lon="-1.1965428292751312255859375">
        <ele>1082.199951171875</ele>
        <time>2022-08-23T11:58:41.000Z</time>
      </trkpt>
      <trkpt lat="40.32529927790164947509765625" lon="-1.1965922825038433074951171875">
        <ele>1082.800048828125</ele>
        <time>2022-08-23T11:58:44.000Z</time>
      </trkpt>
      <trkpt lat="40.32525393180549144744873046875" lon="-1.196663863956928253173828125">
        <ele>1083.800048828125</ele>
        <time>2022-08-23T11:58:49.000Z</time>
      </trkpt>
      <trkpt lat="40.32522375695407390594482421875" lon="-1.1967270635068416595458984375">
        <ele>1084.800048828125</ele>
        <time>2022-08-23T11:58:53.000Z</time>
      </trkpt>
      <trkpt lat="40.325206406414508819580078125" lon="-1.19676478207111358642578125">
        <ele>1085.199951171875</ele>
        <time>2022-08-23T11:58:55.000Z</time>
      </trkpt>
      <trkpt lat="40.32516709528863430023193359375" lon="-1.19686159305274486541748046875">
        <ele>1085.800048828125</ele>
        <time>2022-08-23T11:59:00.000Z</time>
      </trkpt>
      <trkpt lat="40.325154103338718414306640625" lon="-1.19689889252185821533203125">
        <ele>1086</ele>
        <time>2022-08-23T11:59:02.000Z</time>
      </trkpt>
      <trkpt lat="40.32511328347027301788330078125" lon="-1.19701431132853031158447265625">
        <ele>1086.800048828125</ele>
        <time>2022-08-23T11:59:08.000Z</time>
      </trkpt>
      <trkpt lat="40.32510674558579921722412109375" lon="-1.19703434407711029052734375">
        <ele>1087</ele>
        <time>2022-08-23T11:59:09.000Z</time>
      </trkpt>
      <trkpt lat="40.32506885938346385955810546875" lon="-1.1971907503902912139892578125">
        <ele>1087.4000244140625</ele>
        <time>2022-08-23T11:59:16.000Z</time>
      </trkpt>
      <trkpt lat="40.32504086382687091827392578125" lon="-1.197255961596965789794921875">
        <ele>1088</ele>
        <time>2022-08-23T11:59:19.000Z</time>
      </trkpt>
      <trkpt lat="40.32499216496944427490234375" lon="-1.19734355248510837554931640625">
        <ele>1088.800048828125</ele>
        <time>2022-08-23T11:59:23.000Z</time>
      </trkpt>
      <trkpt lat="40.3249712102115154266357421875" lon="-1.19739367626607418060302734375">
        <ele>1089</ele>
        <time>2022-08-23T11:59:25.000Z</time>
      </trkpt>
      <trkpt lat="40.32494396902620792388916015625" lon="-1.19749702513217926025390625">
        <ele>1089.199951171875</ele>
        <time>2022-08-23T11:59:29.000Z</time>
      </trkpt>
      <trkpt lat="40.32495201565325260162353515625" lon="-1.19766273535788059234619140625">
        <ele>1089.5999755859375</ele>
        <time>2022-08-23T11:59:35.000Z</time>
      </trkpt>
      <trkpt lat="40.324952937662601470947265625" lon="-1.1977439559996128082275390625">
        <ele>1090</ele>
        <time>2022-08-23T11:59:38.000Z</time>
      </trkpt>
      <trkpt lat="40.32495117746293544769287109375" lon="-1.19787781499326229095458984375">
        <ele>1090.5999755859375</ele>
        <time>2022-08-23T11:59:43.000Z</time>
      </trkpt>
      <trkpt lat="40.32494815997779369354248046875" lon="-1.19810546748340129852294921875">
        <ele>1091.199951171875</ele>
        <time>2022-08-23T11:59:51.000Z</time>
      </trkpt>
      <trkpt lat="40.32494329847395420074462890625" lon="-1.19816464371979236602783203125">
        <ele>1091.4000244140625</ele>
        <time>2022-08-23T11:59:53.000Z</time>
      </trkpt>
      <trkpt lat="40.3248783387243747711181640625" lon="-1.19834602810442447662353515625">
        <ele>1091.800048828125</ele>
        <time>2022-08-23T12:00:00.000Z</time>
      </trkpt>
      <trkpt lat="40.32481304369866847991943359375" lon="-1.198538057506084442138671875">
        <ele>1092.199951171875</ele>
        <time>2022-08-23T12:00:07.000Z</time>
      </trkpt>
      <trkpt lat="40.3248072601854801177978515625" lon="-1.198569573462009429931640625">
        <ele>1092.199951171875</ele>
        <time>2022-08-23T12:00:08.000Z</time>
      </trkpt>
      <trkpt lat="40.324766524136066436767578125" lon="-1.1988637782633304595947265625">
        <ele>1093.4000244140625</ele>
        <time>2022-08-23T12:00:17.000Z</time>
      </trkpt>
      <trkpt lat="40.324763171374797821044921875" lon="-1.19889588095247745513916015625">
        <ele>1093.4000244140625</ele>
        <time>2022-08-23T12:00:18.000Z</time>
      </trkpt>
      <trkpt lat="40.3247267939150333404541015625" lon="-1.1990910954773426055908203125">
        <ele>1093.800048828125</ele>
        <time>2022-08-23T12:00:24.000Z</time>
      </trkpt>
      <trkpt lat="40.324686057865619659423828125" lon="-1.199271976947784423828125">
        <ele>1094.199951171875</ele>
        <time>2022-08-23T12:00:30.000Z</time>
      </trkpt>
      <trkpt lat="40.324654541909694671630859375" lon="-1.1994364298880100250244140625">
        <ele>1094.4000244140625</ele>
        <time>2022-08-23T12:00:35.000Z</time>
      </trkpt>
      <trkpt lat="40.32464272342622280120849609375" lon="-1.19947188533842563629150390625">
        <ele>1094.4000244140625</ele>
        <time>2022-08-23T12:00:36.000Z</time>
      </trkpt>
      <trkpt lat="40.32454733736813068389892578125" lon="-1.1997267790138721466064453125">
        <ele>1095.199951171875</ele>
        <time>2022-08-23T12:00:43.000Z</time>
      </trkpt>
      <trkpt lat="40.324431918561458587646484375" lon="-1.20006197132170200347900390625">
        <ele>1095.4000244140625</ele>
        <time>2022-08-23T12:00:52.000Z</time>
      </trkpt>
      <trkpt lat="40.32433192245662212371826171875" lon="-1.2003353051841259002685546875">
        <ele>1095.5999755859375</ele>
        <time>2022-08-23T12:00:59.000Z</time>
      </trkpt>
      <trkpt lat="40.32422580756247043609619140625" lon="-1.20065691880881786346435546875">
        <ele>1095.5999755859375</ele>
        <time>2022-08-23T12:01:06.000Z</time>
      </trkpt>
      <trkpt lat="40.3241787850856781005859375" lon="-1.20113887824118137359619140625">
        <ele>1095.199951171875</ele>
        <time>2022-08-23T12:01:15.000Z</time>
      </trkpt>
      <trkpt lat="40.32420066185295581817626953125" lon="-1.2015523575246334075927734375">
        <ele>1094.800048828125</ele>
        <time>2022-08-23T12:01:22.000Z</time>
      </trkpt>
      <trkpt lat="40.32423234544694423675537109375" lon="-1.20184421539306640625">
        <ele>1094.4000244140625</ele>
        <time>2022-08-23T12:01:27.000Z</time>
      </trkpt>
      <trkpt lat="40.32423201017081737518310546875" lon="-1.20189995504915714263916015625">
        <ele>1094.4000244140625</ele>
        <time>2022-08-23T12:01:28.000Z</time>
      </trkpt>
      <trkpt lat="40.32422907650470733642578125" lon="-1.20195561088621616363525390625">
        <ele>1094.4000244140625</ele>
        <time>2022-08-23T12:01:29.000Z</time>
      </trkpt>
      <trkpt lat="40.3242134861648082733154296875" lon="-1.20206725783646106719970703125">
        <ele>1094.4000244140625</ele>
        <time>2022-08-23T12:01:31.000Z</time>
      </trkpt>
      <trkpt lat="40.32417518086731433868408203125" lon="-1.2022269330918788909912109375">
        <ele>1094.4000244140625</ele>
        <time>2022-08-23T12:01:34.000Z</time>
      </trkpt>
      <trkpt lat="40.32416763715445995330810546875" lon="-1.20227898471057415008544921875">
        <ele>1094.4000244140625</ele>
        <time>2022-08-23T12:01:35.000Z</time>
      </trkpt>
      <trkpt lat="40.3241833113133907318115234375" lon="-1.20248048566281795501708984375">
        <ele>1094.4000244140625</ele>
        <time>2022-08-23T12:01:39.000Z</time>
      </trkpt>
      <trkpt lat="40.324193537235260009765625" lon="-1.20252750813961029052734375">
        <ele>1094.4000244140625</ele>
        <time>2022-08-23T12:01:40.000Z</time>
      </trkpt>
      <trkpt lat="40.32428531907498836517333984375" lon="-1.20284803211688995361328125">
        <ele>1094.5999755859375</ele>
        <time>2022-08-23T12:01:47.000Z</time>
      </trkpt>
      <trkpt lat="40.324336700141429901123046875" lon="-1.2030755169689655303955078125">
        <ele>1094.5999755859375</ele>
        <time>2022-08-23T12:01:51.000Z</time>
      </trkpt>
      <trkpt lat="40.32434399239718914031982421875" lon="-1.2032066099345684051513671875">
        <ele>1094.5999755859375</ele>
        <time>2022-08-23T12:01:53.000Z</time>
      </trkpt>
      <trkpt lat="40.32434172928333282470703125" lon="-1.20348413474857807159423828125">
        <ele>1094</ele>
        <time>2022-08-23T12:01:57.000Z</time>
      </trkpt>
      <trkpt lat="40.3243140690028667449951171875" lon="-1.20369158685207366943359375">
        <ele>1093.4000244140625</ele>
        <time>2022-08-23T12:02:00.000Z</time>
      </trkpt>
      <trkpt lat="40.3243127278983592987060546875" lon="-1.2039086781442165374755859375">
        <ele>1092</ele>
        <time>2022-08-23T12:02:03.000Z</time>
      </trkpt>
      <trkpt lat="40.3243355266749858856201171875" lon="-1.204049997031688690185546875">
        <ele>1090.5999755859375</ele>
        <time>2022-08-23T12:02:05.000Z</time>
      </trkpt>
      <trkpt lat="40.324478186666965484619140625" lon="-1.2043163739144802093505859375">
        <ele>1089.199951171875</ele>
        <time>2022-08-23T12:02:09.000Z</time>
      </trkpt>
      <trkpt lat="40.32462361268699169158935546875" lon="-1.20452617295086383819580078125">
        <ele>1088.199951171875</ele>
        <time>2022-08-23T12:02:12.000Z</time>
      </trkpt>
      <trkpt lat="40.32470525242388248443603515625" lon="-1.204686351120471954345703125">
        <ele>1087.4000244140625</ele>
        <time>2022-08-23T12:02:14.000Z</time>
      </trkpt>
      <trkpt lat="40.32473643310368061065673828125" lon="-1.204771511256694793701171875">
        <ele>1087</ele>
        <time>2022-08-23T12:02:15.000Z</time>
      </trkpt>
      <trkpt lat="40.32478102482855319976806640625" lon="-1.20494417846202850341796875">
        <ele>1085.800048828125</ele>
        <time>2022-08-23T12:02:17.000Z</time>
      </trkpt>
      <trkpt lat="40.3248216770589351654052734375" lon="-1.20518800802528858184814453125">
        <ele>1084.800048828125</ele>
        <time>2022-08-23T12:02:20.000Z</time>
      </trkpt>
      <trkpt lat="40.32483282499015331268310546875" lon="-1.2052626907825469970703125">
        <ele>1084.5999755859375</ele>
        <time>2022-08-23T12:02:21.000Z</time>
      </trkpt>
      <trkpt lat="40.324877165257930755615234375" lon="-1.2055765092372894287109375">
        <ele>1084</ele>
        <time>2022-08-23T12:02:26.000Z</time>
      </trkpt>
      <trkpt lat="40.32491463236510753631591796875" lon="-1.20591471903026103973388671875">
        <ele>1084.4000244140625</ele>
        <time>2022-08-23T12:02:33.000Z</time>
      </trkpt>
      <trkpt lat="40.32489904202520847320556640625" lon="-1.20625250972807407379150390625">
        <ele>1085</ele>
        <time>2022-08-23T12:02:40.000Z</time>
      </trkpt>
      <trkpt lat="40.324926786124706268310546875" lon="-1.2065318785607814788818359375">
        <ele>1085</ele>
        <time>2022-08-23T12:02:45.000Z</time>
      </trkpt>
      <trkpt lat="40.32493449747562408447265625" lon="-1.20658745057880878448486328125">
        <ele>1084.800048828125</ele>
        <time>2022-08-23T12:02:46.000Z</time>
      </trkpt>
      <trkpt lat="40.3249497525393962860107421875" lon="-1.206798590719699859619140625">
        <ele>1084.5999755859375</ele>
        <time>2022-08-23T12:02:50.000Z</time>
      </trkpt>
      <trkpt lat="40.32497338950634002685546875" lon="-1.20711651630699634552001953125">
        <ele>1084.4000244140625</ele>
        <time>2022-08-23T12:02:57.000Z</time>
      </trkpt>
      <trkpt lat="40.32495796680450439453125" lon="-1.2073144130408763885498046875">
        <ele>1084.800048828125</ele>
        <time>2022-08-23T12:03:03.000Z</time>
      </trkpt>
      <trkpt lat="40.32496869564056396484375" lon="-1.207487247884273529052734375">
        <ele>1085.4000244140625</ele>
        <time>2022-08-23T12:03:08.000Z</time>
      </trkpt>
      <trkpt lat="40.32498411834239959716796875" lon="-1.2075943686068058013916015625">
        <ele>1086</ele>
        <time>2022-08-23T12:03:11.000Z</time>
      </trkpt>
      <trkpt lat="40.32498504035174846649169921875" lon="-1.2076986394822597503662109375">
        <ele>1086.4000244140625</ele>
        <time>2022-08-23T12:03:14.000Z</time>
      </trkpt>
      <trkpt lat="40.32496777363121509552001953125" lon="-1.2078753300011157989501953125">
        <ele>1087</ele>
        <time>2022-08-23T12:03:19.000Z</time>
      </trkpt>
      <trkpt lat="40.32498856075108051300048828125" lon="-1.2080731429159641265869140625">
        <ele>1087.4000244140625</ele>
        <time>2022-08-23T12:03:25.000Z</time>
      </trkpt>
      <trkpt lat="40.324992500245571136474609375" lon="-1.2081408686935901641845703125">
        <ele>1087.5999755859375</ele>
        <time>2022-08-23T12:03:27.000Z</time>
      </trkpt>
      <trkpt lat="40.3249802626669406890869140625" lon="-1.208402216434478759765625">
        <ele>1088.4000244140625</ele>
        <time>2022-08-23T12:03:34.000Z</time>
      </trkpt>
      <trkpt lat="40.32495352439582347869873046875" lon="-1.20855820365250110626220703125">
        <ele>1088.800048828125</ele>
        <time>2022-08-23T12:03:38.000Z</time>
      </trkpt>
      <trkpt lat="40.3249029815196990966796875" lon="-1.20875584892928600311279296875">
        <ele>1089</ele>
        <time>2022-08-23T12:03:43.000Z</time>
      </trkpt>
      <trkpt lat="40.3248545341193675994873046875" lon="-1.20915818028151988983154296875">
        <ele>1089.4000244140625</ele>
        <time>2022-08-23T12:03:53.000Z</time>
      </trkpt>
      <trkpt lat="40.32482628710567951202392578125" lon="-1.2093611061573028564453125">
        <ele>1089.800048828125</ele>
        <time>2022-08-23T12:03:58.000Z</time>
      </trkpt>
      <trkpt lat="40.3248153068125247955322265625" lon="-1.2094477750360965728759765625">
        <ele>1090.199951171875</ele>
        <time>2022-08-23T12:04:00.000Z</time>
      </trkpt>
      <trkpt lat="40.32477649860084056854248046875" lon="-1.20968095958232879638671875">
        <ele>1090.800048828125</ele>
        <time>2022-08-23T12:04:06.000Z</time>
      </trkpt>
      <trkpt lat="40.3247733972966670989990234375" lon="-1.20971046388149261474609375">
        <ele>1091</ele>
        <time>2022-08-23T12:04:07.000Z</time>
      </trkpt>
      <trkpt lat="40.32476090826094150543212890625" lon="-1.20987474918365478515625">
        <ele>1091.4000244140625</ele>
        <time>2022-08-23T12:04:13.000Z</time>
      </trkpt>
      <trkpt lat="40.3247661888599395751953125" lon="-1.20999352075159549713134765625">
        <ele>1091.800048828125</ele>
        <time>2022-08-23T12:04:17.000Z</time>
      </trkpt>
      <trkpt lat="40.32477448694407939910888671875" lon="-1.210081614553928375244140625">
        <ele>1092.4000244140625</ele>
        <time>2022-08-23T12:04:20.000Z</time>
      </trkpt>
      <trkpt lat="40.32479770481586456298828125" lon="-1.21022989042103290557861328125">
        <ele>1093</ele>
        <time>2022-08-23T12:04:25.000Z</time>
      </trkpt>
      <trkpt lat="40.32480097375810146331787109375" lon="-1.2102943472564220428466796875">
        <ele>1093</ele>
        <time>2022-08-23T12:04:27.000Z</time>
      </trkpt>
      <trkpt lat="40.32481379806995391845703125" lon="-1.21051034890115261077880859375">
        <ele>1093.4000244140625</ele>
        <time>2022-08-23T12:04:34.000Z</time>
      </trkpt>
      <trkpt lat="40.324817486107349395751953125" lon="-1.21073146350681781768798828125">
        <ele>1093.800048828125</ele>
        <time>2022-08-23T12:04:41.000Z</time>
      </trkpt>
      <trkpt lat="40.3248216770589351654052734375" lon="-1.21100605465471744537353515625">
        <ele>1094</ele>
        <time>2022-08-23T12:04:49.000Z</time>
      </trkpt>
      <trkpt lat="40.32481354661285877227783203125" lon="-1.21110965497791767120361328125">
        <ele>1094.199951171875</ele>
        <time>2022-08-23T12:04:52.000Z</time>
      </trkpt>
      <trkpt lat="40.324754454195499420166015625" lon="-1.211480386555194854736328125">
        <ele>1094.4000244140625</ele>
        <time>2022-08-23T12:05:03.000Z</time>
      </trkpt>
      <trkpt lat="40.32472335733473300933837890625" lon="-1.21170007623732089996337890625">
        <ele>1095</ele>
        <time>2022-08-23T12:05:10.000Z</time>
      </trkpt>
      <trkpt lat="40.32471983693540096282958984375" lon="-1.21172689832746982574462890625">
        <ele>1095.199951171875</ele>
        <time>2022-08-23T12:05:11.000Z</time>
      </trkpt>
      <trkpt lat="40.32473274506628513336181640625" lon="-1.211909539997577667236328125">
        <ele>1095.800048828125</ele>
        <time>2022-08-23T12:05:17.000Z</time>
      </trkpt>
      <trkpt lat="40.32473458908498287200927734375" lon="-1.2119710631668567657470703125">
        <ele>1096.199951171875</ele>
        <time>2022-08-23T12:05:19.000Z</time>
      </trkpt>
      <trkpt lat="40.32474095933139324188232421875" lon="-1.21203300543129444122314453125">
        <ele>1096.4000244140625</ele>
        <time>2022-08-23T12:05:21.000Z</time>
      </trkpt>
      <trkpt lat="40.3247559629380702972412109375" lon="-1.21212922967970371246337890625">
        <ele>1096.5999755859375</ele>
        <time>2022-08-23T12:05:24.000Z</time>
      </trkpt>
      <trkpt lat="40.32477331347763538360595703125" lon="-1.21228178031742572784423828125">
        <ele>1097.199951171875</ele>
        <time>2022-08-23T12:05:29.000Z</time>
      </trkpt>
      <trkpt lat="40.3247849643230438232421875" lon="-1.21234129182994365692138671875">
        <ele>1097.5999755859375</ele>
        <time>2022-08-23T12:05:31.000Z</time>
      </trkpt>
      <trkpt lat="40.32482796348631381988525390625" lon="-1.2125467322766780853271484375">
        <ele>1098.199951171875</ele>
        <time>2022-08-23T12:05:38.000Z</time>
      </trkpt>
      <trkpt lat="40.32485344447195529937744140625" lon="-1.21268008835613727569580078125">
        <ele>1098.4000244140625</ele>
        <time>2022-08-23T12:05:42.000Z</time>
      </trkpt>
      <trkpt lat="40.32488328404724597930908203125" lon="-1.2128333933651447296142578125">
        <ele>1098.800048828125</ele>
        <time>2022-08-23T12:05:46.000Z</time>
      </trkpt>
      <trkpt lat="40.3248974494636058807373046875" lon="-1.2130271829664707183837890625">
        <ele>1099</ele>
        <time>2022-08-23T12:05:51.000Z</time>
      </trkpt>
      <trkpt lat="40.32491832040250301361083984375" lon="-1.21329414658248424530029296875">
        <ele>1099</ele>
        <time>2022-08-23T12:05:57.000Z</time>
      </trkpt>
      <trkpt lat="40.32498084940016269683837890625" lon="-1.213687844574451446533203125">
        <ele>1098.800048828125</ele>
        <time>2022-08-23T12:06:06.000Z</time>
      </trkpt>
      <trkpt lat="40.3250694461166858673095703125" lon="-1.2139964662492275238037109375">
        <ele>1099.199951171875</ele>
        <time>2022-08-23T12:06:14.000Z</time>
      </trkpt>
      <trkpt lat="40.3250640816986560821533203125" lon="-1.21415714733302593231201171875">
        <ele>1099.5999755859375</ele>
        <time>2022-08-23T12:06:18.000Z</time>
      </trkpt>
      <trkpt lat="40.3250476531684398651123046875" lon="-1.2142331711947917938232421875">
        <ele>1099.5999755859375</ele>
        <time>2022-08-23T12:06:20.000Z</time>
      </trkpt>
      <trkpt lat="40.32494899816811084747314453125" lon="-1.21448705904185771942138671875">
        <ele>1100.199951171875</ele>
        <time>2022-08-23T12:06:27.000Z</time>
      </trkpt>
      <trkpt lat="40.32491865567862987518310546875" lon="-1.21460842899978160858154296875">
        <ele>1100.5999755859375</ele>
        <time>2022-08-23T12:06:30.000Z</time>
      </trkpt>
      <trkpt lat="40.3249075077474117279052734375" lon="-1.21473097242414951324462890625">
        <ele>1100.5999755859375</ele>
        <time>2022-08-23T12:06:33.000Z</time>
      </trkpt>
      <trkpt lat="40.32490457408130168914794921875" lon="-1.21490716002881526947021484375">
        <ele>1100.800048828125</ele>
        <time>2022-08-23T12:06:38.000Z</time>
      </trkpt>
      <trkpt lat="40.32493508420884609222412109375" lon="-1.21512341313064098358154296875">
        <ele>1101.199951171875</ele>
        <time>2022-08-23T12:06:45.000Z</time>
      </trkpt>
      <trkpt lat="40.3249378502368927001953125" lon="-1.21518761850893497467041015625">
        <ele>1101.5999755859375</ele>
        <time>2022-08-23T12:06:47.000Z</time>
      </trkpt>
      <trkpt lat="40.32493223436176776885986328125" lon="-1.21539272367954254150390625">
        <ele>1102.800048828125</ele>
        <time>2022-08-23T12:06:53.000Z</time>
      </trkpt>
      <trkpt lat="40.32492653466761112213134765625" lon="-1.215427927672863006591796875">
        <ele>1103</ele>
        <time>2022-08-23T12:06:54.000Z</time>
      </trkpt>
      <trkpt lat="40.32487423159182071685791015625" lon="-1.2156359665095806121826171875">
        <ele>1103.800048828125</ele>
        <time>2022-08-23T12:07:00.000Z</time>
      </trkpt>
      <trkpt lat="40.3248598985373973846435546875" lon="-1.21570997871458530426025390625">
        <ele>1104</ele>
        <time>2022-08-23T12:07:02.000Z</time>
      </trkpt>
      <trkpt lat="40.32483533956110477447509765625" lon="-1.21598490513861179351806640625">
        <ele>1104.5999755859375</ele>
        <time>2022-08-23T12:07:09.000Z</time>
      </trkpt>
      <trkpt lat="40.32482511363923549652099609375" lon="-1.2163122184574604034423828125">
        <ele>1104.800048828125</ele>
        <time>2022-08-23T12:07:17.000Z</time>
      </trkpt>
      <trkpt lat="40.32482762821018695831298828125" lon="-1.2164704687893390655517578125">
        <ele>1105</ele>
        <time>2022-08-23T12:07:21.000Z</time>
      </trkpt>
      <trkpt lat="40.32482318580150604248046875" lon="-1.21668579988181591033935546875">
        <ele>1105.5999755859375</ele>
        <time>2022-08-23T12:07:27.000Z</time>
      </trkpt>
      <trkpt lat="40.32481404952704906463623046875" lon="-1.21671882458031177520751953125">
        <ele>1105.5999755859375</ele>
        <time>2022-08-23T12:07:28.000Z</time>
      </trkpt>
      <trkpt lat="40.324728973209857940673828125" lon="-1.216926276683807373046875">
        <ele>1106</ele>
        <time>2022-08-23T12:07:34.000Z</time>
      </trkpt>
      <trkpt lat="40.3247117064893245697021484375" lon="-1.216962821781635284423828125">
        <ele>1106</ele>
        <time>2022-08-23T12:07:35.000Z</time>
      </trkpt>
      <trkpt lat="40.32458840869367122650146484375" lon="-1.217303462326526641845703125">
        <ele>1106</ele>
        <time>2022-08-23T12:07:44.000Z</time>
      </trkpt>
      <trkpt lat="40.32454867847263813018798828125" lon="-1.2176208011806011199951171875">
        <ele>1106</ele>
        <time>2022-08-23T12:07:52.000Z</time>
      </trkpt>
      <trkpt lat="40.32448388636112213134765625" lon="-1.2178223021328449249267578125">
        <ele>1106.199951171875</ele>
        <time>2022-08-23T12:07:58.000Z</time>
      </trkpt>
      <trkpt lat="40.3243905119597911834716796875" lon="-1.21793302707374095916748046875">
        <ele>1107</ele>
        <time>2022-08-23T12:08:03.000Z</time>
      </trkpt>
      <trkpt lat="40.32435555942356586456298828125" lon="-1.2179721705615520477294921875">
        <ele>1107.199951171875</ele>
        <time>2022-08-23T12:08:05.000Z</time>
      </trkpt>
      <trkpt lat="40.324313901364803314208984375" lon="-1.21804400347173213958740234375">
        <ele>1108</ele>
        <time>2022-08-23T12:08:08.000Z</time>
      </trkpt>
      <trkpt lat="40.32428850419819355010986328125" lon="-1.2181538902223110198974609375">
        <ele>1108.5999755859375</ele>
        <time>2022-08-23T12:08:12.000Z</time>
      </trkpt>
      <trkpt lat="40.32428598962724208831787109375" lon="-1.21823259629309177398681640625">
        <ele>1108.800048828125</ele>
        <time>2022-08-23T12:08:15.000Z</time>
      </trkpt>
      <trkpt lat="40.3242922760546207427978515625" lon="-1.21827299706637859344482421875">
        <ele>1108.800048828125</ele>
        <time>2022-08-23T12:08:17.000Z</time>
      </trkpt>
      <trkpt lat="40.32427643425762653350830078125" lon="-1.218383722007274627685546875">
        <ele>1109.199951171875</ele>
        <time>2022-08-23T12:08:22.000Z</time>
      </trkpt>
      <trkpt lat="40.32426059246063232421875" lon="-1.21842990629374980926513671875">
        <ele>1109.4000244140625</ele>
        <time>2022-08-23T12:08:24.000Z</time>
      </trkpt>
      <trkpt lat="40.3242309205234050750732421875" lon="-1.21852956712245941162109375">
        <ele>1110.199951171875</ele>
        <time>2022-08-23T12:08:28.000Z</time>
      </trkpt>
      <trkpt lat="40.3242161683738231658935546875" lon="-1.21863819658756256103515625">
        <ele>1111</ele>
        <time>2022-08-23T12:08:32.000Z</time>
      </trkpt>
      <trkpt lat="40.32421608455479145050048828125" lon="-1.2186658568680286407470703125">
        <ele>1111.199951171875</ele>
        <time>2022-08-23T12:08:33.000Z</time>
      </trkpt>
      <trkpt lat="40.32422161661088466644287109375" lon="-1.21883944608271121978759765625">
        <ele>1112.4000244140625</ele>
        <time>2022-08-23T12:08:39.000Z</time>
      </trkpt>
      <trkpt lat="40.3242265619337558746337890625" lon="-1.2188686989247798919677734375">
        <ele>1112.5999755859375</ele>
        <time>2022-08-23T12:08:40.000Z</time>
      </trkpt>
      <trkpt lat="40.3242500312626361846923828125" lon="-1.218957714736461639404296875">
        <ele>1113</ele>
        <time>2022-08-23T12:08:44.000Z</time>
      </trkpt>
      <trkpt lat="40.3242520429193973541259765625" lon="-1.21898428536951541900634765625">
        <ele>1113.199951171875</ele>
        <time>2022-08-23T12:08:45.000Z</time>
      </trkpt>
      <trkpt lat="40.3242268972098827362060546875" lon="-1.2191511690616607666015625">
        <ele>1113.199951171875</ele>
        <time>2022-08-23T12:08:50.000Z</time>
      </trkpt>
      <trkpt lat="40.3241628594696521759033203125" lon="-1.2192847765982151031494140625">
        <ele>1113.4000244140625</ele>
        <time>2022-08-23T12:08:54.000Z</time>
      </trkpt>
      <trkpt lat="40.32409756444394588470458984375" lon="-1.2194212339818477630615234375">
        <ele>1114.199951171875</ele>
        <time>2022-08-23T12:08:58.000Z</time>
      </trkpt>
      <trkpt lat="40.3240473568439483642578125" lon="-1.219522990286350250244140625">
        <ele>1114.5999755859375</ele>
        <time>2022-08-23T12:09:01.000Z</time>
      </trkpt>
      <trkpt lat="40.3239606879651546478271484375" lon="-1.21969632804393768310546875">
        <ele>1115</ele>
        <time>2022-08-23T12:09:06.000Z</time>
      </trkpt>
      <trkpt lat="40.32384040765464305877685546875" lon="-1.21993797831237316131591796875">
        <ele>1115.199951171875</ele>
        <time>2022-08-23T12:09:13.000Z</time>
      </trkpt>
      <trkpt lat="40.323737561702728271484375" lon="-1.2201501242816448211669921875">
        <ele>1115.5999755859375</ele>
        <time>2022-08-23T12:09:19.000Z</time>
      </trkpt>
      <trkpt lat="40.3236864320933818817138671875" lon="-1.22025514952838420867919921875">
        <ele>1116.199951171875</ele>
        <time>2022-08-23T12:09:22.000Z</time>
      </trkpt>
      <trkpt lat="40.3235208056867122650146484375" lon="-1.22060853056609630584716796875">
        <ele>1116.800048828125</ele>
        <time>2022-08-23T12:09:32.000Z</time>
      </trkpt>
      <trkpt lat="40.3234748728573322296142578125" lon="-1.22071900404989719390869140625">
        <ele>1117</ele>
        <time>2022-08-23T12:09:35.000Z</time>
      </trkpt>
      <trkpt lat="40.32335576601326465606689453125" lon="-1.2210067547857761383056640625">
        <ele>1118</ele>
        <time>2022-08-23T12:09:43.000Z</time>
      </trkpt>
      <trkpt lat="40.323329530656337738037109375" lon="-1.2210838682949542999267578125">
        <ele>1118.199951171875</ele>
        <time>2022-08-23T12:09:45.000Z</time>
      </trkpt>
      <trkpt lat="40.323209501802921295166015625" lon="-1.221425347030162811279296875">
        <ele>1119</ele>
        <time>2022-08-23T12:09:54.000Z</time>
      </trkpt>
      <trkpt lat="40.3231895528733730316162109375" lon="-1.2214456312358379364013671875">
        <ele>1119</ele>
        <time>2022-08-23T12:09:55.000Z</time>
      </trkpt>
      <trkpt lat="40.32316549681127071380615234375" lon="-1.2214261852204799652099609375">
        <ele>1119.199951171875</ele>
        <time>2022-08-23T12:09:57.000Z</time>
      </trkpt>
      <trkpt lat="40.32320070080459117889404296875" lon="-1.2213158793747425079345703125">
        <ele>1119.4000244140625</ele>
        <time>2022-08-23T12:10:00.000Z</time>
      </trkpt>
      <trkpt lat="40.32321578823029994964599609375" lon="-1.2212722934782505035400390625">
        <ele>1119.4000244140625</ele>
        <time>2022-08-23T12:10:01.000Z</time>
      </trkpt>
      <trkpt lat="40.3233377449214458465576171875" lon="-1.22092989273369312286376953125">
        <ele>1119.5999755859375</ele>
        <time>2022-08-23T12:10:08.000Z</time>
      </trkpt>
      <trkpt lat="40.32331720925867557525634765625" lon="-1.2207935191690921783447265625">
        <ele>1119.5999755859375</ele>
        <time>2022-08-23T12:10:11.000Z</time>
      </trkpt>
      <trkpt lat="40.32321897335350513458251953125" lon="-1.22074750252068042755126953125">
        <ele>1119.5999755859375</ele>
        <time>2022-08-23T12:10:14.000Z</time>
      </trkpt>
      <trkpt lat="40.32313683070242404937744140625" lon="-1.220751106739044189453125">
        <ele>1119.4000244140625</ele>
        <time>2022-08-23T12:10:16.000Z</time>
      </trkpt>
      <trkpt lat="40.32305619679391384124755859375" lon="-1.2207690440118312835693359375">
        <ele>1119.199951171875</ele>
        <time>2022-08-23T12:10:18.000Z</time>
      </trkpt>
      <trkpt lat="40.32298143021762371063232421875" lon="-1.22080349363386631011962890625">
        <ele>1119</ele>
        <time>2022-08-23T12:10:20.000Z</time>
      </trkpt>
      <trkpt lat="40.32287866808474063873291015625" lon="-1.2209514342248439788818359375">
        <ele>1118.5999755859375</ele>
        <time>2022-08-23T12:10:24.000Z</time>
      </trkpt>
      <trkpt lat="40.3227483294904232025146484375" lon="-1.22118118219077587127685546875">
        <ele>1118.199951171875</ele>
        <time>2022-08-23T12:10:30.000Z</time>
      </trkpt>
      <trkpt lat="40.3227250277996063232421875" lon="-1.22122493572533130645751953125">
        <ele>1118.199951171875</ele>
        <time>2022-08-23T12:10:31.000Z</time>
      </trkpt>
      <trkpt lat="40.3226821124553680419921875" lon="-1.22132618911564350128173828125">
        <ele>1118</ele>
        <time>2022-08-23T12:10:33.000Z</time>
      </trkpt>
      <trkpt lat="40.322665683925151824951171875" lon="-1.22138821519911289215087890625">
        <ele>1118</ele>
        <time>2022-08-23T12:10:34.000Z</time>
      </trkpt>
      <trkpt lat="40.32264967449009418487548828125" lon="-1.2214551866054534912109375">
        <ele>1118</ele>
        <time>2022-08-23T12:10:35.000Z</time>
      </trkpt>
      <trkpt lat="40.32258748076856136322021484375" lon="-1.22181183658540248870849609375">
        <ele>1116.5999755859375</ele>
        <time>2022-08-23T12:10:40.000Z</time>
      </trkpt>
      <trkpt lat="40.3225689567625522613525390625" lon="-1.221952401101589202880859375">
        <ele>1116</ele>
        <time>2022-08-23T12:10:42.000Z</time>
      </trkpt>
      <trkpt lat="40.32254867255687713623046875" lon="-1.22209078632295131683349609375">
        <ele>1115.5999755859375</ele>
        <time>2022-08-23T12:10:44.000Z</time>
      </trkpt>
      <trkpt lat="40.322452448308467864990234375" lon="-1.22246311046183109283447265625">
        <ele>1114.800048828125</ele>
        <time>2022-08-23T12:10:50.000Z</time>
      </trkpt>
      <trkpt lat="40.322349853813648223876953125" lon="-1.22265346348285675048828125">
        <ele>1114.800048828125</ele>
        <time>2022-08-23T12:10:54.000Z</time>
      </trkpt>
      <trkpt lat="40.32229243777692317962646484375" lon="-1.2227267213165760040283203125">
        <ele>1115</ele>
        <time>2022-08-23T12:10:56.000Z</time>
      </trkpt>
      <trkpt lat="40.322092361748218536376953125" lon="-1.222942136228084564208984375">
        <ele>1115.800048828125</ele>
        <time>2022-08-23T12:11:04.000Z</time>
      </trkpt>
      <trkpt lat="40.32196135260164737701416015625" lon="-1.22310080565512180328369140625">
        <ele>1116.4000244140625</ele>
        <time>2022-08-23T12:11:11.000Z</time>
      </trkpt>
      <trkpt lat="40.32194291241466999053955078125" lon="-1.2231194972991943359375">
        <ele>1116.5999755859375</ele>
        <time>2022-08-23T12:11:12.000Z</time>
      </trkpt>
      <trkpt lat="40.32180779613554477691650390625" lon="-1.22323223389685153961181640625">
        <ele>1117.5999755859375</ele>
        <time>2022-08-23T12:11:19.000Z</time>
      </trkpt>
      <trkpt lat="40.32176638953387737274169921875" lon="-1.22326056472957134246826171875">
        <ele>1118.199951171875</ele>
        <time>2022-08-23T12:11:21.000Z</time>
      </trkpt>
      <trkpt lat="40.3216161020100116729736328125" lon="-1.223356537520885467529296875">
        <ele>1118.800048828125</ele>
        <time>2022-08-23T12:11:28.000Z</time>
      </trkpt>
      <trkpt lat="40.321549884974956512451171875" lon="-1.2233989499509334564208984375">
        <ele>1119</ele>
        <time>2022-08-23T12:11:31.000Z</time>
      </trkpt>
      <trkpt lat="40.3213907964527606964111328125" lon="-1.2235179729759693145751953125">
        <ele>1119.4000244140625</ele>
        <time>2022-08-23T12:11:39.000Z</time>
      </trkpt>
      <trkpt lat="40.32132047228515148162841796875" lon="-1.22357941232621669769287109375">
        <ele>1119.800048828125</ele>
        <time>2022-08-23T12:11:43.000Z</time>
      </trkpt>
      <trkpt lat="40.32123950310051441192626953125" lon="-1.22367194853723049163818359375">
        <ele>1120.4000244140625</ele>
        <time>2022-08-23T12:11:48.000Z</time>
      </trkpt>
      <trkpt lat="40.32122558914124965667724609375" lon="-1.22369323857128620147705078125">
        <ele>1120.5999755859375</ele>
        <time>2022-08-23T12:11:49.000Z</time>
      </trkpt>
      <trkpt lat="40.32119608484208583831787109375" lon="-1.2237332202494144439697265625">
        <ele>1121</ele>
        <time>2022-08-23T12:11:51.000Z</time>
      </trkpt>
      <trkpt lat="40.32114051282405853271484375" lon="-1.22381226159632205963134765625">
        <ele>1121.5999755859375</ele>
        <time>2022-08-23T12:11:55.000Z</time>
      </trkpt>
      <trkpt lat="40.3211017884314060211181640625" lon="-1.22386716306209564208984375">
        <ele>1122</ele>
        <time>2022-08-23T12:11:58.000Z</time>
      </trkpt>
      <trkpt lat="40.3210565261542797088623046875" lon="-1.22395073063671588897705078125">
        <ele>1122.800048828125</ele>
        <time>2022-08-23T12:12:02.000Z</time>
      </trkpt>
      <trkpt lat="40.32103414647281169891357421875" lon="-1.22399322688579559326171875">
        <ele>1123.199951171875</ele>
        <time>2022-08-23T12:12:04.000Z</time>
      </trkpt>
      <trkpt lat="40.3209820948541164398193359375" lon="-1.2241087295114994049072265625">
        <ele>1124.4000244140625</ele>
        <time>2022-08-23T12:12:09.000Z</time>
      </trkpt>
      <trkpt lat="40.32097111456096172332763671875" lon="-1.22413312084972858428955078125">
        <ele>1124.4000244140625</ele>
        <time>2022-08-23T12:12:10.000Z</time>
      </trkpt>
      <trkpt lat="40.320867933332920074462890625" lon="-1.2243984080851078033447265625">
        <ele>1125.4000244140625</ele>
        <time>2022-08-23T12:12:20.000Z</time>
      </trkpt>
      <trkpt lat="40.3208567015826702117919921875" lon="-1.22442774474620819091796875">
        <ele>1125.4000244140625</ele>
        <time>2022-08-23T12:12:21.000Z</time>
      </trkpt>
      <trkpt lat="40.3207671828567981719970703125" lon="-1.22467492707073688507080078125">
        <ele>1125.5999755859375</ele>
        <time>2022-08-23T12:12:28.000Z</time>
      </trkpt>
      <trkpt lat="40.32065344043076038360595703125" lon="-1.225034929811954498291015625">
        <ele>1125.4000244140625</ele>
        <time>2022-08-23T12:12:36.000Z</time>
      </trkpt>
      <trkpt lat="40.32053106464445590972900390625" lon="-1.2252764962613582611083984375">
        <ele>1125.4000244140625</ele>
        <time>2022-08-23T12:12:43.000Z</time>
      </trkpt>
      <trkpt lat="40.32033073715865612030029296875" lon="-1.225482188165187835693359375">
        <ele>1125.5999755859375</ele>
        <time>2022-08-23T12:12:51.000Z</time>
      </trkpt>
      <trkpt lat="40.32013778574764728546142578125" lon="-1.22567572630941867828369140625">
        <ele>1125.800048828125</ele>
        <time>2022-08-23T12:12:59.000Z</time>
      </trkpt>
      <trkpt lat="40.31990669667720794677734375" lon="-1.22591192834079265594482421875">
        <ele>1125.5999755859375</ele>
        <time>2022-08-23T12:13:08.000Z</time>
      </trkpt>
      <trkpt lat="40.31971491873264312744140625" lon="-1.22613756917417049407958984375">
        <ele>1126.4000244140625</ele>
        <time>2022-08-23T12:13:16.000Z</time>
      </trkpt>
      <trkpt lat="40.3196906112134456634521484375" lon="-1.2261651456356048583984375">
        <ele>1126.4000244140625</ele>
        <time>2022-08-23T12:13:17.000Z</time>
      </trkpt>
      <trkpt lat="40.31946807168424129486083984375" lon="-1.22641769237816333770751953125">
        <ele>1126.5999755859375</ele>
        <time>2022-08-23T12:13:26.000Z</time>
      </trkpt>
      <trkpt lat="40.319258272647857666015625" lon="-1.22666059993207454681396484375">
        <ele>1126.800048828125</ele>
        <time>2022-08-23T12:13:35.000Z</time>
      </trkpt>
      <trkpt lat="40.31912055797874927520751953125" lon="-1.22682086192071437835693359375">
        <ele>1126.800048828125</ele>
        <time>2022-08-23T12:13:41.000Z</time>
      </trkpt>
      <trkpt lat="40.3189902193844318389892578125" lon="-1.22693737037479877471923828125">
        <ele>1127</ele>
        <time>2022-08-23T12:13:46.000Z</time>
      </trkpt>
      <trkpt lat="40.31878662295639514923095703125" lon="-1.2271392904222011566162109375">
        <ele>1127</ele>
        <time>2022-08-23T12:13:54.000Z</time>
      </trkpt>
      <trkpt lat="40.3186220861971378326416015625" lon="-1.22734959237277507781982421875">
        <ele>1127.199951171875</ele>
        <time>2022-08-23T12:14:01.000Z</time>
      </trkpt>
      <trkpt lat="40.31860054470598697662353515625" lon="-1.22738295234739780426025390625">
        <ele>1127.199951171875</ele>
        <time>2022-08-23T12:14:02.000Z</time>
      </trkpt>
      <trkpt lat="40.3184656798839569091796875" lon="-1.22762083075940608978271484375">
        <ele>1127.4000244140625</ele>
        <time>2022-08-23T12:14:09.000Z</time>
      </trkpt>
      <trkpt lat="40.3184296377003192901611328125" lon="-1.22768905945122241973876953125">
        <ele>1127.4000244140625</ele>
        <time>2022-08-23T12:14:11.000Z</time>
      </trkpt>
      <trkpt lat="40.3183438070118427276611328125" lon="-1.22784043662250041961669921875">
        <ele>1127.800048828125</ele>
        <time>2022-08-23T12:14:17.000Z</time>
      </trkpt>
      <trkpt lat="40.31824414618313312530517578125" lon="-1.22801679186522960662841796875">
        <ele>1128.5999755859375</ele>
        <time>2022-08-23T12:14:25.000Z</time>
      </trkpt>
      <trkpt lat="40.318232662975788116455078125" lon="-1.22803959064185619354248046875">
        <ele>1129</ele>
        <time>2022-08-23T12:14:26.000Z</time>
      </trkpt>
      <trkpt lat="40.31819142401218414306640625" lon="-1.22812977991998195648193359375">
        <ele>1129.5999755859375</ele>
        <time>2022-08-23T12:14:30.000Z</time>
      </trkpt>
      <trkpt lat="40.31813652254641056060791015625" lon="-1.228262968361377716064453125">
        <ele>1130.4000244140625</ele>
        <time>2022-08-23T12:14:36.000Z</time>
      </trkpt>
      <trkpt lat="40.3181196749210357666015625" lon="-1.22830747626721858978271484375">
        <ele>1130.5999755859375</ele>
        <time>2022-08-23T12:14:38.000Z</time>
      </trkpt>
      <trkpt lat="40.3180470876395702362060546875" lon="-1.22850880958139896392822265625">
        <ele>1131.5999755859375</ele>
        <time>2022-08-23T12:14:47.000Z</time>
      </trkpt>
      <trkpt lat="40.3180306591093540191650390625" lon="-1.22855273075401782989501953125">
        <ele>1131.800048828125</ele>
        <time>2022-08-23T12:14:49.000Z</time>
      </trkpt>
      <trkpt lat="40.31798380427062511444091796875" lon="-1.2286889366805553436279296875">
        <ele>1132.5999755859375</ele>
        <time>2022-08-23T12:14:55.000Z</time>
      </trkpt>
      <trkpt lat="40.317967794835567474365234375" lon="-1.228753812611103057861328125">
        <ele>1132.800048828125</ele>
        <time>2022-08-23T12:14:58.000Z</time>
      </trkpt>
      <trkpt lat="40.31794105656445026397705078125" lon="-1.22886571101844310760498046875">
        <ele>1133.800048828125</ele>
        <time>2022-08-23T12:15:03.000Z</time>
      </trkpt>
      <trkpt lat="40.3179334290325641632080078125" lon="-1.22888800688087940216064453125">
        <ele>1133.800048828125</ele>
        <time>2022-08-23T12:15:04.000Z</time>
      </trkpt>
      <trkpt lat="40.317881293594837188720703125" lon="-1.22903703711926937103271484375">
        <ele>1134.800048828125</ele>
        <time>2022-08-23T12:15:11.000Z</time>
      </trkpt>
      <trkpt lat="40.31787232495844364166259765625" lon="-1.22905991971492767333984375">
        <ele>1135</ele>
        <time>2022-08-23T12:15:12.000Z</time>
      </trkpt>
      <trkpt lat="40.31781591475009918212890625" lon="-1.229214482009410858154296875">
        <ele>1136</ele>
        <time>2022-08-23T12:15:19.000Z</time>
      </trkpt>
      <trkpt lat="40.31779177486896514892578125" lon="-1.2292806990444660186767578125">
        <ele>1136.4000244140625</ele>
        <time>2022-08-23T12:15:22.000Z</time>
      </trkpt>
      <trkpt lat="40.3177493624389171600341796875" lon="-1.2293903343379497528076171875">
        <ele>1137.199951171875</ele>
        <time>2022-08-23T12:15:27.000Z</time>
      </trkpt>
      <trkpt lat="40.3177108056843280792236328125" lon="-1.2294734828174114227294921875">
        <ele>1137.5999755859375</ele>
        <time>2022-08-23T12:15:31.000Z</time>
      </trkpt>
      <trkpt lat="40.3176658786833286285400390625" lon="-1.229635588824748992919921875">
        <ele>1138.199951171875</ele>
        <time>2022-08-23T12:15:38.000Z</time>
      </trkpt>
      <trkpt lat="40.31766009517014026641845703125" lon="-1.22965897433459758758544921875">
        <ele>1138.4000244140625</ele>
        <time>2022-08-23T12:15:39.000Z</time>
      </trkpt>
      <trkpt lat="40.3176320157945156097412109375" lon="-1.229773722589015960693359375">
        <ele>1139.4000244140625</ele>
        <time>2022-08-23T12:15:44.000Z</time>
      </trkpt>
      <trkpt lat="40.317614078521728515625" lon="-1.2298654206097126007080078125">
        <ele>1140</ele>
        <time>2022-08-23T12:15:48.000Z</time>
      </trkpt>
      <trkpt lat="40.3176025114953517913818359375" lon="-1.22991126962006092071533203125">
        <ele>1140.5999755859375</ele>
        <time>2022-08-23T12:15:50.000Z</time>
      </trkpt>
      <trkpt lat="40.31757409684360027313232421875" lon="-1.230042614042758941650390625">
        <ele>1141.5999755859375</ele>
        <time>2022-08-23T12:15:56.000Z</time>
      </trkpt>
      <trkpt lat="40.31756755895912647247314453125" lon="-1.23008628375828266143798828125">
        <ele>1141.800048828125</ele>
        <time>2022-08-23T12:15:58.000Z</time>
      </trkpt>
      <trkpt lat="40.31754962168633937835693359375" lon="-1.230194829404354095458984375">
        <ele>1142.800048828125</ele>
        <time>2022-08-23T12:16:03.000Z</time>
      </trkpt>
      <trkpt lat="40.3175374679267406463623046875" lon="-1.23028099536895751953125">
        <ele>1143</ele>
        <time>2022-08-23T12:16:07.000Z</time>
      </trkpt>
      <trkpt lat="40.3175324387848377227783203125" lon="-1.230418123304843902587890625">
        <ele>1143.800048828125</ele>
        <time>2022-08-23T12:16:13.000Z</time>
      </trkpt>
      <trkpt lat="40.3175341151654720306396484375" lon="-1.23046405613422393798828125">
        <ele>1144.199951171875</ele>
        <time>2022-08-23T12:16:15.000Z</time>
      </trkpt>
      <trkpt lat="40.31754274852573871612548828125" lon="-1.2306275032460689544677734375">
        <ele>1144.800048828125</ele>
        <time>2022-08-23T12:16:22.000Z</time>
      </trkpt>
      <trkpt lat="40.31754207797348499298095703125" lon="-1.23065206222236156463623046875">
        <ele>1145</ele>
        <time>2022-08-23T12:16:23.000Z</time>
      </trkpt>
      <trkpt lat="40.31753939576447010040283203125" lon="-1.23078525066375732421875">
        <ele>1146</ele>
        <time>2022-08-23T12:16:28.000Z</time>
      </trkpt>
      <trkpt lat="40.3175347857177257537841796875" lon="-1.230842582881450653076171875">
        <ele>1146.199951171875</ele>
        <time>2022-08-23T12:16:30.000Z</time>
      </trkpt>
      <trkpt lat="40.31749430112540721893310546875" lon="-1.23108624480664730072021484375">
        <ele>1147</ele>
        <time>2022-08-23T12:16:38.000Z</time>
      </trkpt>
      <trkpt lat="40.31748290173709392547607421875" lon="-1.2311508692800998687744140625">
        <ele>1147.4000244140625</ele>
        <time>2022-08-23T12:16:40.000Z</time>
      </trkpt>
      <trkpt lat="40.3174345381557941436767578125" lon="-1.2314046733081340789794921875">
        <ele>1147.5999755859375</ele>
        <time>2022-08-23T12:16:48.000Z</time>
      </trkpt>
      <trkpt lat="40.31738676130771636962890625" lon="-1.231698207557201385498046875">
        <ele>1147.5999755859375</ele>
        <time>2022-08-23T12:16:57.000Z</time>
      </trkpt>
      <trkpt lat="40.3173111565411090850830078125" lon="-1.23190985061228275299072265625">
        <ele>1147.4000244140625</ele>
        <time>2022-08-23T12:17:03.000Z</time>
      </trkpt>
      <trkpt lat="40.317182242870330810546875" lon="-1.2321600504219532012939453125">
        <ele>1147.199951171875</ele>
        <time>2022-08-23T12:17:09.000Z</time>
      </trkpt>
      <trkpt lat="40.31704008579254150390625" lon="-1.23245802707970142364501953125">
        <ele>1146.199951171875</ele>
        <time>2022-08-23T12:17:16.000Z</time>
      </trkpt>
      <trkpt lat="40.31699742190539836883544921875" lon="-1.23253631405532360076904296875">
        <ele>1146.199951171875</ele>
        <time>2022-08-23T12:17:18.000Z</time>
      </trkpt>
      <trkpt lat="40.31692449934780597686767578125" lon="-1.232721470296382904052734375">
        <ele>1146</ele>
        <time>2022-08-23T12:17:23.000Z</time>
      </trkpt>
      <trkpt lat="40.31690756790339946746826171875" lon="-1.2329700775444507598876953125">
        <ele>1145.800048828125</ele>
        <time>2022-08-23T12:17:29.000Z</time>
      </trkpt>
      <trkpt lat="40.3169473819434642791748046875" lon="-1.23331834562122821807861328125">
        <ele>1145.4000244140625</ele>
        <time>2022-08-23T12:17:36.000Z</time>
      </trkpt>
      <trkpt lat="40.317039750516414642333984375" lon="-1.233501993119716644287109375">
        <ele>1145</ele>
        <time>2022-08-23T12:17:41.000Z</time>
      </trkpt>
      <trkpt lat="40.31719707883894443511962890625" lon="-1.2335953675210475921630859375">
        <ele>1144.5999755859375</ele>
        <time>2022-08-23T12:17:47.000Z</time>
      </trkpt>
      <trkpt lat="40.31724737025797367095947265625" lon="-1.2337358482182025909423828125">
        <ele>1144.5999755859375</ele>
        <time>2022-08-23T12:17:52.000Z</time>
      </trkpt>
      <trkpt lat="40.31729464419186115264892578125" lon="-1.23391605913639068603515625">
        <ele>1145.199951171875</ele>
        <time>2022-08-23T12:17:59.000Z</time>
      </trkpt>
      <trkpt lat="40.3173155151307582855224609375" lon="-1.2339631654322147369384765625">
        <ele>1145.199951171875</ele>
        <time>2022-08-23T12:18:01.000Z</time>
      </trkpt>
      <trkpt lat="40.3173203766345977783203125" lon="-1.23399208299815654754638671875">
        <ele>1145.199951171875</ele>
        <time>2022-08-23T12:18:04.000Z</time>
      </trkpt>
      <trkpt lat="40.31732113100588321685791015625" lon="-1.233992166817188262939453125">
        <ele>1145.199951171875</ele>
        <time>2022-08-23T12:18:05.000Z</time>
      </trkpt>
      <trkpt lat="40.3172860108315944671630859375" lon="-1.23401404358446598052978515625">
        <ele>1144.800048828125</ele>
        <time>2022-08-23T12:18:34.000Z</time>
      </trkpt>
      <trkpt lat="40.3172555007040500640869140625" lon="-1.234012283384799957275390625">
        <ele>1144.800048828125</ele>
        <time>2022-08-23T12:18:36.000Z</time>
      </trkpt>
      <trkpt lat="40.3172202967107295989990234375" lon="-1.234008260071277618408203125">
        <ele>1144.800048828125</ele>
        <time>2022-08-23T12:18:38.000Z</time>
      </trkpt>
      <trkpt lat="40.31708526425063610076904296875" lon="-1.233992166817188262939453125">
        <ele>1145</ele>
        <time>2022-08-23T12:18:45.000Z</time>
      </trkpt>
      <trkpt lat="40.31694109551608562469482421875" lon="-1.23397171497344970703125">
        <ele>1145.800048828125</ele>
        <time>2022-08-23T12:18:52.000Z</time>
      </trkpt>
      <trkpt lat="40.31689818017184734344482421875" lon="-1.2339635007083415985107421875">
        <ele>1146</ele>
        <time>2022-08-23T12:18:54.000Z</time>
      </trkpt>
      <trkpt lat="40.3167743794620037078857421875" lon="-1.23392452485859394073486328125">
        <ele>1147.199951171875</ele>
        <time>2022-08-23T12:19:00.000Z</time>
      </trkpt>
      <trkpt lat="40.31673372723162174224853515625" lon="-1.23390533030033111572265625">
        <ele>1147.199951171875</ele>
        <time>2022-08-23T12:19:02.000Z</time>
      </trkpt>
      <trkpt lat="40.31654052436351776123046875" lon="-1.23386065475642681121826171875">
        <ele>1148.199951171875</ele>
        <time>2022-08-23T12:19:11.000Z</time>
      </trkpt>
      <trkpt lat="40.31649568118155002593994140625" lon="-1.233854033052921295166015625">
        <ele>1148.4000244140625</ele>
        <time>2022-08-23T12:19:13.000Z</time>
      </trkpt>
      <trkpt lat="40.31629619188606739044189453125" lon="-1.233837269246578216552734375">
        <ele>1149.199951171875</ele>
        <time>2022-08-23T12:19:22.000Z</time>
      </trkpt>
      <trkpt lat="40.3162741474807262420654296875" lon="-1.23383802361786365509033203125">
        <ele>1149.199951171875</ele>
        <time>2022-08-23T12:19:23.000Z</time>
      </trkpt>
      <trkpt lat="40.3161852993071079254150390625" lon="-1.2338267080485820770263671875">
        <ele>1149.5999755859375</ele>
        <time>2022-08-23T12:19:27.000Z</time>
      </trkpt>
      <trkpt lat="40.3161413781344890594482421875" lon="-1.23382109217345714569091796875">
        <ele>1149.800048828125</ele>
        <time>2022-08-23T12:19:29.000Z</time>
      </trkpt>
      <trkpt lat="40.3160743229091167449951171875" lon="-1.23381572775542736053466796875">
        <ele>1150</ele>
        <time>2022-08-23T12:19:32.000Z</time>
      </trkpt>
      <trkpt lat="40.31598740257322788238525390625" lon="-1.233809106051921844482421875">
        <ele>1150.4000244140625</ele>
        <time>2022-08-23T12:19:36.000Z</time>
      </trkpt>
      <trkpt lat="40.31580853275954723358154296875" lon="-1.23381011188030242919921875">
        <ele>1150.800048828125</ele>
        <time>2022-08-23T12:19:44.000Z</time>
      </trkpt>
      <trkpt lat="40.3156091272830963134765625" lon="-1.23382360674440860748291015625">
        <ele>1151.199951171875</ele>
        <time>2022-08-23T12:19:53.000Z</time>
      </trkpt>
      <trkpt lat="40.31558741815388202667236328125" lon="-1.23382779769599437713623046875">
        <ele>1151.4000244140625</ele>
        <time>2022-08-23T12:19:54.000Z</time>
      </trkpt>
      <trkpt lat="40.3154503740370273590087890625" lon="-1.233852021396160125732421875">
        <ele>1151.800048828125</ele>
        <time>2022-08-23T12:20:00.000Z</time>
      </trkpt>
      <trkpt lat="40.315281562507152557373046875" lon="-1.233890242874622344970703125">
        <ele>1152.199951171875</ele>
        <time>2022-08-23T12:20:07.000Z</time>
      </trkpt>
      <trkpt lat="40.31525717116892337799072265625" lon="-1.23389552347362041473388671875">
        <ele>1152.199951171875</ele>
        <time>2022-08-23T12:20:08.000Z</time>
      </trkpt>
      <trkpt lat="40.315038822591304779052734375" lon="-1.233942545950412750244140625">
        <ele>1153.199951171875</ele>
        <time>2022-08-23T12:20:17.000Z</time>
      </trkpt>
      <trkpt lat="40.3149648942053318023681640625" lon="-1.2339564599096775054931640625">
        <ele>1153.199951171875</ele>
        <time>2022-08-23T12:20:20.000Z</time>
      </trkpt>
      <trkpt lat="40.314845703542232513427734375" lon="-1.23398118652403354644775390625">
        <ele>1154</ele>
        <time>2022-08-23T12:20:25.000Z</time>
      </trkpt>
      <trkpt lat="40.314780659973621368408203125" lon="-1.233993507921695709228515625">
        <ele>1154.4000244140625</ele>
        <time>2022-08-23T12:20:28.000Z</time>
      </trkpt>
      <trkpt lat="40.3146772272884845733642578125" lon="-1.2340302206575870513916015625">
        <ele>1154.800048828125</ele>
        <time>2022-08-23T12:20:33.000Z</time>
      </trkpt>
      <trkpt lat="40.31455057673156261444091796875" lon="-1.2340795062482357025146484375">
        <ele>1155.4000244140625</ele>
        <time>2022-08-23T12:20:39.000Z</time>
      </trkpt>
      <trkpt lat="40.31452962197363376617431640625" lon="-1.23408931307494640350341796875">
        <ele>1155.5999755859375</ele>
        <time>2022-08-23T12:20:40.000Z</time>
      </trkpt>
      <trkpt lat="40.31430968083441257476806640625" lon="-1.23419442214071750640869140625">
        <ele>1156.4000244140625</ele>
        <time>2022-08-23T12:20:50.000Z</time>
      </trkpt>
      <trkpt lat="40.31421949155628681182861328125" lon="-1.23424035497009754180908203125">
        <ele>1156.5999755859375</ele>
        <time>2022-08-23T12:20:54.000Z</time>
      </trkpt>
      <trkpt lat="40.31409963034093379974365234375" lon="-1.2342900596559047698974609375">
        <ele>1156.5999755859375</ele>
        <time>2022-08-23T12:20:59.000Z</time>
      </trkpt>
      <trkpt lat="40.31395378522574901580810546875" lon="-1.2343581207096576690673828125">
        <ele>1157.199951171875</ele>
        <time>2022-08-23T12:21:06.000Z</time>
      </trkpt>
      <trkpt lat="40.31379134394228458404541015625" lon="-1.23444135300815105438232421875">
        <ele>1157.5999755859375</ele>
        <time>2022-08-23T12:21:14.000Z</time>
      </trkpt>
      <trkpt lat="40.3137713111937046051025390625" lon="-1.23445174656808376312255859375">
        <ele>1157.5999755859375</ele>
        <time>2022-08-23T12:21:15.000Z</time>
      </trkpt>
      <trkpt lat="40.3135768510401248931884765625" lon="-1.234555430710315704345703125">
        <ele>1158.5999755859375</ele>
        <time>2022-08-23T12:21:25.000Z</time>
      </trkpt>
      <trkpt lat="40.31355899758636951446533203125" lon="-1.234569512307643890380859375">
        <ele>1158.5999755859375</ele>
        <time>2022-08-23T12:21:26.000Z</time>
      </trkpt>
      <trkpt lat="40.31339370645582675933837890625" lon="-1.2347148545086383819580078125">
        <ele>1159.199951171875</ele>
        <time>2022-08-23T12:21:35.000Z</time>
      </trkpt>
      <trkpt lat="40.31333369202911853790283203125" lon="-1.23480211012065410614013671875">
        <ele>1159.5999755859375</ele>
        <time>2022-08-23T12:21:39.000Z</time>
      </trkpt>
      <trkpt lat="40.313289351761341094970703125" lon="-1.2348794750869274139404296875">
        <ele>1159.800048828125</ele>
        <time>2022-08-23T12:21:42.000Z</time>
      </trkpt>
      <trkpt lat="40.3132152557373046875" lon="-1.2350273318588733673095703125">
        <ele>1160.5999755859375</ele>
        <time>2022-08-23T12:21:47.000Z</time>
      </trkpt>
      <trkpt lat="40.3131688199937343597412109375" lon="-1.23510955832898616790771484375">
        <ele>1161.199951171875</ele>
        <time>2022-08-23T12:21:50.000Z</time>
      </trkpt>
      <trkpt lat="40.31309732235968112945556640625" lon="-1.23525104485452175140380859375">
        <ele>1161.800048828125</ele>
        <time>2022-08-23T12:21:55.000Z</time>
      </trkpt>
      <trkpt lat="40.3130591847002506256103515625" lon="-1.2353374622762203216552734375">
        <ele>1161.800048828125</ele>
        <time>2022-08-23T12:21:58.000Z</time>
      </trkpt>
      <trkpt lat="40.3129361383616924285888671875" lon="-1.2355996482074260711669921875">
        <ele>1162.4000244140625</ele>
        <time>2022-08-23T12:22:07.000Z</time>
      </trkpt>
      <trkpt lat="40.31289833597838878631591796875" lon="-1.23569075949490070343017578125">
        <ele>1162.800048828125</ele>
        <time>2022-08-23T12:22:10.000Z</time>
      </trkpt>
      <trkpt lat="40.3128181211650371551513671875" lon="-1.235867701470851898193359375">
        <ele>1163.199951171875</ele>
        <time>2022-08-23T12:22:16.000Z</time>
      </trkpt>
      <trkpt lat="40.31268660910427570343017578125" lon="-1.23613835312426090240478515625">
        <ele>1164</ele>
        <time>2022-08-23T12:22:25.000Z</time>
      </trkpt>
      <trkpt lat="40.31255031935870647430419921875" lon="-1.23641294427216053009033203125">
        <ele>1164.4000244140625</ele>
        <time>2022-08-23T12:22:34.000Z</time>
      </trkpt>
      <trkpt lat="40.3123554401099681854248046875" lon="-1.23667613603174686431884765625">
        <ele>1164.800048828125</ele>
        <time>2022-08-23T12:22:44.000Z</time>
      </trkpt>
      <trkpt lat="40.31233792193233966827392578125" lon="-1.23669323511421680450439453125">
        <ele>1165</ele>
        <time>2022-08-23T12:22:45.000Z</time>
      </trkpt>
      <trkpt lat="40.3122655861079692840576171875" lon="-1.2367759644985198974609375">
        <ele>1165.199951171875</ele>
        <time>2022-08-23T12:22:51.000Z</time>
      </trkpt>
      <trkpt lat="40.312252007424831390380859375" lon="-1.23678761534392833709716796875">
        <ele>1165.199951171875</ele>
        <time>2022-08-23T12:22:52.000Z</time>
      </trkpt>
      <trkpt lat="40.3121663443744182586669921875" lon="-1.23684913851320743560791015625">
        <ele>1165.199951171875</ele>
        <time>2022-08-23T12:22:59.000Z</time>
      </trkpt>
      <trkpt lat="40.31210188753902912139892578125" lon="-1.23686489649116992950439453125">
        <ele>1165.199951171875</ele>
        <time>2022-08-23T12:23:06.000Z</time>
      </trkpt>
      <trkpt lat="40.31210373155772686004638671875" lon="-1.236851401627063751220703125">
        <ele>1165.199951171875</ele>
        <time>2022-08-23T12:23:07.000Z</time>
      </trkpt>
      <trkpt lat="40.31211898662149906158447265625" lon="-1.23683421872556209564208984375">
        <ele>1165.199951171875</ele>
        <time>2022-08-23T12:23:09.000Z</time>
      </trkpt>
      <trkpt lat="40.31216542236506938934326171875" lon="-1.23681795783340930938720703125">
        <ele>1165.199951171875</ele>
        <time>2022-08-23T12:23:12.000Z</time>
      </trkpt>
      <trkpt lat="40.31229333020746707916259765625" lon="-1.23672240413725376129150390625">
        <ele>1165</ele>
        <time>2022-08-23T12:23:20.000Z</time>
      </trkpt>
      <trkpt lat="40.31237496994435787200927734375" lon="-1.236581169068813323974609375">
        <ele>1165</ele>
        <time>2022-08-23T12:23:26.000Z</time>
      </trkpt>
      <trkpt lat="40.31237496994435787200927734375" lon="-1.236581169068813323974609375">
        <ele>1165</ele>
        <time>2022-08-23T12:23:27.000Z</time>
      </trkpt>
      <trkpt lat="40.3123876266181468963623046875" lon="-1.23658083379268646240234375">
        <ele>1165</ele>
        <time>2022-08-23T12:23:28.000Z</time>
      </trkpt>
      <trkpt lat="40.3123768977820873260498046875" lon="-1.236625425517559051513671875">
        <ele>1165</ele>
        <time>2022-08-23T12:23:31.000Z</time>
      </trkpt>
      <trkpt lat="40.31228913925588130950927734375" lon="-1.2367187999188899993896484375">
        <ele>1165</ele>
        <time>2022-08-23T12:23:37.000Z</time>
      </trkpt>
      <trkpt lat="40.31227086670696735382080078125" lon="-1.23673480935394763946533203125">
        <ele>1165</ele>
        <time>2022-08-23T12:23:38.000Z</time>
      </trkpt>
      <trkpt lat="40.31209350563585758209228515625" lon="-1.2368931435048580169677734375">
        <ele>1165.199951171875</ele>
        <time>2022-08-23T12:23:47.000Z</time>
      </trkpt>
      <trkpt lat="40.31193324364721775054931640625" lon="-1.2370051257312297821044921875">
        <ele>1165.199951171875</ele>
        <time>2022-08-23T12:23:55.000Z</time>
      </trkpt>
      <trkpt lat="40.31175336800515651702880859375" lon="-1.237074024975299835205078125">
        <ele>1165.4000244140625</ele>
        <time>2022-08-23T12:24:03.000Z</time>
      </trkpt>
      <trkpt lat="40.31154767610132694244384765625" lon="-1.2371308542788028717041015625">
        <ele>1165.5999755859375</ele>
        <time>2022-08-23T12:24:12.000Z</time>
      </trkpt>
      <trkpt lat="40.31136344186961650848388671875" lon="-1.23723135329782962799072265625">
        <ele>1165.800048828125</ele>
        <time>2022-08-23T12:24:20.000Z</time>
      </trkpt>
      <trkpt lat="40.31120971776545047760009765625" lon="-1.23735289089381694793701171875">
        <ele>1165.4000244140625</ele>
        <time>2022-08-23T12:24:28.000Z</time>
      </trkpt>
      <trkpt lat="40.3110569156706333160400390625" lon="-1.2375134043395519256591796875">
        <ele>1164.800048828125</ele>
        <time>2022-08-23T12:24:34.000Z</time>
      </trkpt>
      <trkpt lat="40.31090478412806987762451171875" lon="-1.23778380453586578369140625">
        <ele>1164.4000244140625</ele>
        <time>2022-08-23T12:24:40.000Z</time>
      </trkpt>
      <trkpt lat="40.31088433228433132171630859375" lon="-1.237840466201305389404296875">
        <ele>1164.4000244140625</ele>
        <time>2022-08-23T12:24:41.000Z</time>
      </trkpt>
      <trkpt lat="40.3108024410903453826904296875" lon="-1.23815537430346012115478515625">
        <ele>1163.800048828125</ele>
        <time>2022-08-23T12:24:46.000Z</time>
      </trkpt>
      <trkpt lat="40.31064637005329132080078125" lon="-1.2384635768830776214599609375">
        <ele>1162.800048828125</ele>
        <time>2022-08-23T12:24:51.000Z</time>
      </trkpt>
      <trkpt lat="40.31059783883392810821533203125" lon="-1.2385192327201366424560546875">
        <ele>1162.5999755859375</ele>
        <time>2022-08-23T12:24:52.000Z</time>
      </trkpt>
      <trkpt lat="40.31041880138218402862548828125" lon="-1.23863448388874530792236328125">
        <ele>1161.5999755859375</ele>
        <time>2022-08-23T12:24:55.000Z</time>
      </trkpt>
      <trkpt lat="40.31035493128001689910888671875" lon="-1.2386583723127841949462890625">
        <ele>1161.199951171875</ele>
        <time>2022-08-23T12:24:56.000Z</time>
      </trkpt>
      <trkpt lat="40.31023272313177585601806640625" lon="-1.238702125847339630126953125">
        <ele>1160.4000244140625</ele>
        <time>2022-08-23T12:24:58.000Z</time>
      </trkpt>
      <trkpt lat="40.310114286839962005615234375" lon="-1.23874462209641933441162109375">
        <ele>1159.199951171875</ele>
        <time>2022-08-23T12:25:00.000Z</time>
      </trkpt>
      <trkpt lat="40.31005536206066608428955078125" lon="-1.23876943252980709075927734375">
        <ele>1158.5999755859375</ele>
        <time>2022-08-23T12:25:01.000Z</time>
      </trkpt>
      <trkpt lat="40.3099952638149261474609375" lon="-1.2387956678867340087890625">
        <ele>1157.199951171875</ele>
        <time>2022-08-23T12:25:02.000Z</time>
      </trkpt>
      <trkpt lat="40.3098016418516635894775390625" lon="-1.2388761341571807861328125">
        <ele>1156</ele>
        <time>2022-08-23T12:25:05.000Z</time>
      </trkpt>
      <trkpt lat="40.3096626698970794677734375" lon="-1.23891460709273815155029296875">
        <ele>1155.199951171875</ele>
        <time>2022-08-23T12:25:07.000Z</time>
      </trkpt>
      <trkpt lat="40.30958949588239192962646484375" lon="-1.23891896568238735198974609375">
        <ele>1155</ele>
        <time>2022-08-23T12:25:08.000Z</time>
      </trkpt>
      <trkpt lat="40.3095156513154506683349609375" lon="-1.238912679255008697509765625">
        <ele>1154.4000244140625</ele>
        <time>2022-08-23T12:25:09.000Z</time>
      </trkpt>
      <trkpt lat="40.30936737544834613800048828125" lon="-1.2388628907501697540283203125">
        <ele>1153.199951171875</ele>
        <time>2022-08-23T12:25:11.000Z</time>
      </trkpt>
      <trkpt lat="40.309292189776897430419921875" lon="-1.23882760293781757354736328125">
        <ele>1152.4000244140625</ele>
        <time>2022-08-23T12:25:12.000Z</time>
      </trkpt>
      <trkpt lat="40.30921800993382930755615234375" lon="-1.23879156075417995452880859375">
        <ele>1152</ele>
        <time>2022-08-23T12:25:13.000Z</time>
      </trkpt>
      <trkpt lat="40.3090677224099636077880859375" lon="-1.238723583519458770751953125">
        <ele>1150.800048828125</ele>
        <time>2022-08-23T12:25:15.000Z</time>
      </trkpt>
      <trkpt lat="40.30884719453752040863037109375" lon="-1.2386261858046054840087890625">
        <ele>1149.800048828125</ele>
        <time>2022-08-23T12:25:18.000Z</time>
      </trkpt>
      <trkpt lat="40.30862825922667980194091796875" lon="-1.23849970288574695587158203125">
        <ele>1148.4000244140625</ele>
        <time>2022-08-23T12:25:21.000Z</time>
      </trkpt>
      <trkpt lat="40.30849264003336429595947265625" lon="-1.23842007480561733245849609375">
        <ele>1147</ele>
        <time>2022-08-23T12:25:23.000Z</time>
      </trkpt>
      <trkpt lat="40.30842726118862628936767578125" lon="-1.2383901514112949371337890625">
        <ele>1146.4000244140625</ele>
        <time>2022-08-23T12:25:24.000Z</time>
      </trkpt>
      <trkpt lat="40.308358781039714813232421875" lon="-1.23836911283433437347412109375">
        <ele>1145.800048828125</ele>
        <time>2022-08-23T12:25:25.000Z</time>
      </trkpt>
      <trkpt lat="40.308160297572612762451171875" lon="-1.23836559243500232696533203125">
        <ele>1144.4000244140625</ele>
        <time>2022-08-23T12:25:28.000Z</time>
      </trkpt>
      <trkpt lat="40.30809701420366764068603515625" lon="-1.2383750639855861663818359375">
        <ele>1144</ele>
        <time>2022-08-23T12:25:29.000Z</time>
      </trkpt>
      <trkpt lat="40.3080332279205322265625" lon="-1.2383857928216457366943359375">
        <ele>1143</ele>
        <time>2022-08-23T12:25:30.000Z</time>
      </trkpt>
      <trkpt lat="40.30790624208748340606689453125" lon="-1.23840448446571826934814453125">
        <ele>1142</ele>
        <time>2022-08-23T12:25:32.000Z</time>
      </trkpt>
      <trkpt lat="40.30777498148381710052490234375" lon="-1.23842443339526653289794921875">
        <ele>1140.5999755859375</ele>
        <time>2022-08-23T12:25:34.000Z</time>
      </trkpt>
      <trkpt lat="40.30770541168749332427978515625" lon="-1.2384347431361675262451171875">
        <ele>1139.5999755859375</ele>
        <time>2022-08-23T12:25:35.000Z</time>
      </trkpt>
      <trkpt lat="40.30763215385377407073974609375" lon="-1.238444633781909942626953125">
        <ele>1138.800048828125</ele>
        <time>2022-08-23T12:25:36.000Z</time>
      </trkpt>
      <trkpt lat="40.307481028139591217041015625" lon="-1.23846282251179218292236328125">
        <ele>1137.4000244140625</ele>
        <time>2022-08-23T12:25:38.000Z</time>
      </trkpt>
      <trkpt lat="40.307336188852787017822265625" lon="-1.23848520219326019287109375">
        <ele>1135.4000244140625</ele>
        <time>2022-08-23T12:25:40.000Z</time>
      </trkpt>
      <trkpt lat="40.30726871453225612640380859375" lon="-1.23850540257990360260009765625">
        <ele>1134.4000244140625</ele>
        <time>2022-08-23T12:25:41.000Z</time>
      </trkpt>
      <trkpt lat="40.3071529604494571685791015625" lon="-1.23857044614851474761962890625">
        <ele>1133.199951171875</ele>
        <time>2022-08-23T12:25:43.000Z</time>
      </trkpt>
      <trkpt lat="40.3070527128875255584716796875" lon="-1.23865015804767608642578125">
        <ele>1131.4000244140625</ele>
        <time>2022-08-23T12:25:45.000Z</time>
      </trkpt>
      <trkpt lat="40.307006947696208953857421875" lon="-1.23869240283966064453125">
        <ele>1130.4000244140625</ele>
        <time>2022-08-23T12:25:46.000Z</time>
      </trkpt>
      <trkpt lat="40.3069102205336093902587890625" lon="-1.23878451995551586151123046875">
        <ele>1128.4000244140625</ele>
        <time>2022-08-23T12:25:48.000Z</time>
      </trkpt>
      <trkpt lat="40.3067955560982227325439453125" lon="-1.2388841807842254638671875">
        <ele>1127</ele>
        <time>2022-08-23T12:25:50.000Z</time>
      </trkpt>
      <trkpt lat="40.30666672624647617340087890625" lon="-1.2389970012009143829345703125">
        <ele>1125.4000244140625</ele>
        <time>2022-08-23T12:25:52.000Z</time>
      </trkpt>
      <trkpt lat="40.30653848312795162200927734375" lon="-1.23911627568304538726806640625">
        <ele>1124.199951171875</ele>
        <time>2022-08-23T12:25:54.000Z</time>
      </trkpt>
      <trkpt lat="40.306425578892230987548828125" lon="-1.2392280064523220062255859375">
        <ele>1123.199951171875</ele>
        <time>2022-08-23T12:25:56.000Z</time>
      </trkpt>
      <trkpt lat="40.30638140626251697540283203125" lon="-1.23927419073879718780517578125">
        <ele>1122</ele>
        <time>2022-08-23T12:25:57.000Z</time>
      </trkpt>
      <trkpt lat="40.306313596665859222412109375" lon="-1.23935289680957794189453125">
        <ele>1121</ele>
        <time>2022-08-23T12:25:59.000Z</time>
      </trkpt>
      <trkpt lat="40.306290797889232635498046875" lon="-1.239386089146137237548828125">
        <ele>1120.5999755859375</ele>
        <time>2022-08-23T12:26:00.000Z</time>
      </trkpt>
      <trkpt lat="40.3062215633690357208251953125" lon="-1.23947418294847011566162109375">
        <ele>1120.4000244140625</ele>
        <time>2022-08-23T12:26:05.000Z</time>
      </trkpt>
      <trkpt lat="40.30619951896369457244873046875" lon="-1.23949245549738407135009765625">
        <ele>1120.4000244140625</ele>
        <time>2022-08-23T12:26:07.000Z</time>
      </trkpt>
      <trkpt lat="40.30619415454566478729248046875" lon="-1.23950175940990447998046875">
        <ele>1120.4000244140625</ele>
        <time>2022-08-23T12:26:09.000Z</time>
      </trkpt>
      <trkpt lat="40.306237824261188507080078125" lon="-1.23948222957551479339599609375">
        <ele>1120.800048828125</ele>
        <time>2022-08-23T12:26:30.000Z</time>
      </trkpt>
      <trkpt lat="40.3063208051025867462158203125" lon="-1.23936136253178119659423828125">
        <ele>1120.5999755859375</ele>
        <time>2022-08-23T12:26:35.000Z</time>
      </trkpt>
      <trkpt lat="40.306520126760005950927734375" lon="-1.23913471587002277374267578125">
        <ele>1120.4000244140625</ele>
        <time>2022-08-23T12:26:41.000Z</time>
      </trkpt>
      <trkpt lat="40.3066505491733551025390625" lon="-1.23902608640491962432861328125">
        <ele>1120</ele>
        <time>2022-08-23T12:26:44.000Z</time>
      </trkpt>
      <trkpt lat="40.30668918974697589874267578125" lon="-1.23901435174047946929931640625">
        <ele>1119.5999755859375</ele>
        <time>2022-08-23T12:26:45.000Z</time>
      </trkpt>
      <trkpt lat="40.30672104097902774810791015625" lon="-1.2390187941491603851318359375">
        <ele>1119.4000244140625</ele>
        <time>2022-08-23T12:26:46.000Z</time>
      </trkpt>
      <trkpt lat="40.30678407289087772369384765625" lon="-1.2390865199267864227294921875">
        <ele>1118.5999755859375</ele>
        <time>2022-08-23T12:26:50.000Z</time>
      </trkpt>
      <trkpt lat="40.3068344481289386749267578125" lon="-1.23924736864864826202392578125">
        <ele>1118.5999755859375</ele>
        <time>2022-08-23T12:26:56.000Z</time>
      </trkpt>
      <trkpt lat="40.3068865835666656494140625" lon="-1.2395441718399524688720703125">
        <ele>1119</ele>
        <time>2022-08-23T12:27:05.000Z</time>
      </trkpt>
      <trkpt lat="40.306921787559986114501953125" lon="-1.239846087992191314697265625">
        <ele>1119</ele>
        <time>2022-08-23T12:27:14.000Z</time>
      </trkpt>
      <trkpt lat="40.306974090635776519775390625" lon="-1.2400903366506099700927734375">
        <ele>1119.4000244140625</ele>
        <time>2022-08-23T12:27:22.000Z</time>
      </trkpt>
      <trkpt lat="40.30701608397066593170166015625" lon="-1.2402334995567798614501953125">
        <ele>1119.800048828125</ele>
        <time>2022-08-23T12:27:27.000Z</time>
      </trkpt>
      <trkpt lat="40.30705061741173267364501953125" lon="-1.24034103937447071075439453125">
        <ele>1120</ele>
        <time>2022-08-23T12:27:31.000Z</time>
      </trkpt>
      <trkpt lat="40.3071244619786739349365234375" lon="-1.24054337851703166961669921875">
        <ele>1120.5999755859375</ele>
        <time>2022-08-23T12:27:39.000Z</time>
      </trkpt>
      <trkpt lat="40.30714281834661960601806640625" lon="-1.240589730441570281982421875">
        <ele>1120.800048828125</ele>
        <time>2022-08-23T12:27:41.000Z</time>
      </trkpt>
      <trkpt lat="40.30717936344444751739501953125" lon="-1.2406603060662746429443359375">
        <ele>1121.199951171875</ele>
        <time>2022-08-23T12:27:45.000Z</time>
      </trkpt>
      <trkpt lat="40.30721582472324371337890625" lon="-1.2407344020903110504150390625">
        <ele>1122</ele>
        <time>2022-08-23T12:27:50.000Z</time>
      </trkpt>
      <trkpt lat="40.30722387135028839111328125" lon="-1.2407739646732807159423828125">
        <ele>1122</ele>
        <time>2022-08-23T12:27:52.000Z</time>
      </trkpt>
      <trkpt lat="40.3072565607726573944091796875" lon="-1.24086189083755016326904296875">
        <ele>1122.4000244140625</ele>
        <time>2022-08-23T12:27:57.000Z</time>
      </trkpt>
      <trkpt lat="40.307260416448116302490234375" lon="-1.24087848700582981109619140625">
        <ele>1122.4000244140625</ele>
        <time>2022-08-23T12:27:58.000Z</time>
      </trkpt>
      <trkpt lat="40.30725195072591304779052734375" lon="-1.240924336016178131103515625">
        <ele>1122.4000244140625</ele>
        <time>2022-08-23T12:28:03.000Z</time>
      </trkpt>
      <trkpt lat="40.3072401322424411773681640625" lon="-1.24092106707394123077392578125">
        <ele>1122.4000244140625</ele>
        <time>2022-08-23T12:28:04.000Z</time>
      </trkpt>
      <trkpt lat="40.307236276566982269287109375" lon="-1.24083607457578182220458984375">
        <ele>1122.5999755859375</ele>
        <time>2022-08-23T12:28:08.000Z</time>
      </trkpt>
      <trkpt lat="40.30724507756531238555908203125" lon="-1.24081260524690151214599609375">
        <ele>1122.5999755859375</ele>
        <time>2022-08-23T12:28:09.000Z</time>
      </trkpt>
      <trkpt lat="40.3072984702885150909423828125" lon="-1.2407481484115123748779296875">
        <ele>1122.5999755859375</ele>
        <time>2022-08-23T12:28:14.000Z</time>
      </trkpt>
      <trkpt lat="40.30729788355529308319091796875" lon="-1.240743286907672882080078125">
        <ele>1122.5999755859375</ele>
        <time>2022-08-23T12:28:16.000Z</time>
      </trkpt>
      <trkpt lat="40.3072340972721576690673828125" lon="-1.24078544788062572479248046875">
        <ele>1122.800048828125</ele>
        <time>2022-08-23T12:29:11.000Z</time>
      </trkpt>
      <trkpt lat="40.30721850693225860595703125" lon="-1.240765750408172607421875">
        <ele>1122.800048828125</ele>
        <time>2022-08-23T12:29:12.000Z</time>
      </trkpt>
      <trkpt lat="40.30715639702975749969482421875" lon="-1.2406023032963275909423828125">
        <ele>1122.5999755859375</ele>
        <time>2022-08-23T12:29:17.000Z</time>
      </trkpt>
      <trkpt lat="40.30703083612024784088134765625" lon="-1.24027314595878124237060546875">
        <ele>1121.800048828125</ele>
        <time>2022-08-23T12:29:25.000Z</time>
      </trkpt>
      <trkpt lat="40.3070158325135707855224609375" lon="-1.24022754840552806854248046875">
        <ele>1121.800048828125</ele>
        <time>2022-08-23T12:29:26.000Z</time>
      </trkpt>
      <trkpt lat="40.30692690052092075347900390625" lon="-1.23988858424127101898193359375">
        <ele>1121.4000244140625</ele>
        <time>2022-08-23T12:29:33.000Z</time>
      </trkpt>
      <trkpt lat="40.306884907186031341552734375" lon="-1.23954291455447673797607421875">
        <ele>1120.5999755859375</ele>
        <time>2022-08-23T12:29:40.000Z</time>
      </trkpt>
      <trkpt lat="40.3068793751299381256103515625" lon="-1.23949505388736724853515625">
        <ele>1120.4000244140625</ele>
        <time>2022-08-23T12:29:41.000Z</time>
      </trkpt>
      <trkpt lat="40.3067985735833644866943359375" lon="-1.23906849883496761322021484375">
        <ele>1119.5999755859375</ele>
        <time>2022-08-23T12:29:50.000Z</time>
      </trkpt>
      <trkpt lat="40.306780971586704254150390625" lon="-1.239028014242649078369140625">
        <ele>1119.5999755859375</ele>
        <time>2022-08-23T12:29:51.000Z</time>
      </trkpt>
      <trkpt lat="40.30673478730022907257080078125" lon="-1.2389731965959072113037109375">
        <ele>1119.4000244140625</ele>
        <time>2022-08-23T12:29:53.000Z</time>
      </trkpt>
      <trkpt lat="40.306706540286540985107421875" lon="-1.2389700114727020263671875">
        <ele>1119.4000244140625</ele>
        <time>2022-08-23T12:29:54.000Z</time>
      </trkpt>
      <trkpt lat="40.30659497715532779693603515625" lon="-1.23905978165566921234130859375">
        <ele>1119</ele>
        <time>2022-08-23T12:29:58.000Z</time>
      </trkpt>
      <trkpt lat="40.30646321363747119903564453125" lon="-1.239204369485378265380859375">
        <ele>1118.5999755859375</ele>
        <time>2022-08-23T12:30:04.000Z</time>
      </trkpt>
      <trkpt lat="40.30644812621176242828369140625" lon="-1.239219121634960174560546875">
        <ele>1118.199951171875</ele>
        <time>2022-08-23T12:30:05.000Z</time>
      </trkpt>
      <trkpt lat="40.30635240487754344940185546875" lon="-1.239328086376190185546875">
        <ele>1118.199951171875</ele>
        <time>2022-08-23T12:30:12.000Z</time>
      </trkpt>
      <trkpt lat="40.306276045739650726318359375" lon="-1.23943679966032505035400390625">
        <ele>1118.800048828125</ele>
        <time>2022-08-23T12:30:19.000Z</time>
      </trkpt>
      <trkpt lat="40.3061771392822265625" lon="-1.23951408080756664276123046875">
        <ele>1119.4000244140625</ele>
        <time>2022-08-23T12:30:27.000Z</time>
      </trkpt>
      <trkpt lat="40.3061652369797229766845703125" lon="-1.23952430672943592071533203125">
        <ele>1119.5999755859375</ele>
        <time>2022-08-23T12:30:28.000Z</time>
      </trkpt>
      <trkpt lat="40.306099019944667816162109375" lon="-1.23956747353076934814453125">
        <ele>1120.5999755859375</ele>
        <time>2022-08-23T12:30:33.000Z</time>
      </trkpt>
      <trkpt lat="40.30608661472797393798828125" lon="-1.23957878910005092620849609375">
        <ele>1120.800048828125</ele>
        <time>2022-08-23T12:30:34.000Z</time>
      </trkpt>
      <trkpt lat="40.305996425449848175048828125" lon="-1.23968373052775859832763671875">
        <ele>1121.800048828125</ele>
        <time>2022-08-23T12:30:42.000Z</time>
      </trkpt>
      <trkpt lat="40.30596180818974971771240234375" lon="-1.239733435213565826416015625">
        <ele>1122.4000244140625</ele>
        <time>2022-08-23T12:30:45.000Z</time>
      </trkpt>
      <trkpt lat="40.30592442490160465240478515625" lon="-1.23980660922825336456298828125">
        <ele>1122.800048828125</ele>
        <time>2022-08-23T12:30:49.000Z</time>
      </trkpt>
      <trkpt lat="40.3058742173016071319580078125" lon="-1.239913143217563629150390625">
        <ele>1123.199951171875</ele>
        <time>2022-08-23T12:30:54.000Z</time>
      </trkpt>
      <trkpt lat="40.30580255202949047088623046875" lon="-1.24009176157414913177490234375">
        <ele>1123.800048828125</ele>
        <time>2022-08-23T12:31:01.000Z</time>
      </trkpt>
      <trkpt lat="40.30576801858842372894287109375" lon="-1.24017390422523021697998046875">
        <ele>1124</ele>
        <time>2022-08-23T12:31:04.000Z</time>
      </trkpt>
      <trkpt lat="40.30566777102649211883544921875" lon="-1.24034397304058074951171875">
        <ele>1124.199951171875</ele>
        <time>2022-08-23T12:31:10.000Z</time>
      </trkpt>
      <trkpt lat="40.3055481612682342529296875" lon="-1.24052728526294231414794921875">
        <ele>1124.199951171875</ele>
        <time>2022-08-23T12:31:17.000Z</time>
      </trkpt>
      <trkpt lat="40.30542670749127864837646484375" lon="-1.24070431105792522430419921875">
        <ele>1124.199951171875</ele>
        <time>2022-08-23T12:31:24.000Z</time>
      </trkpt>
      <trkpt lat="40.30528723262250423431396484375" lon="-1.24090447090566158294677734375">
        <ele>1124.4000244140625</ele>
        <time>2022-08-23T12:31:32.000Z</time>
      </trkpt>
      <trkpt lat="40.3051248751580715179443359375" lon="-1.24116607010364532470703125">
        <ele>1124.5999755859375</ele>
        <time>2022-08-23T12:31:42.000Z</time>
      </trkpt>
      <trkpt lat="40.3050390444695949554443359375" lon="-1.2412946484982967376708984375">
        <ele>1124.800048828125</ele>
        <time>2022-08-23T12:31:47.000Z</time>
      </trkpt>
      <trkpt lat="40.30498548410832881927490234375" lon="-1.2414081394672393798828125">
        <ele>1125.4000244140625</ele>
        <time>2022-08-23T12:31:51.000Z</time>
      </trkpt>
      <trkpt lat="40.30488037504255771636962890625" lon="-1.24158122576773166656494140625">
        <ele>1125.4000244140625</ele>
        <time>2022-08-23T12:31:57.000Z</time>
      </trkpt>
      <trkpt lat="40.30472137033939361572265625" lon="-1.24182564206421375274658203125">
        <ele>1125.5999755859375</ele>
        <time>2022-08-23T12:32:05.000Z</time>
      </trkpt>
      <trkpt lat="40.3045971505343914031982421875" lon="-1.2420201860368251800537109375">
        <ele>1125.4000244140625</ele>
        <time>2022-08-23T12:32:11.000Z</time>
      </trkpt>
      <trkpt lat="40.30439405702054500579833984375" lon="-1.242273151874542236328125">
        <ele>1124.5999755859375</ele>
        <time>2022-08-23T12:32:19.000Z</time>
      </trkpt>
      <trkpt lat="40.304259359836578369140625" lon="-1.2424570508301258087158203125">
        <ele>1124.5999755859375</ele>
        <time>2022-08-23T12:32:25.000Z</time>
      </trkpt>
      <trkpt lat="40.3041351400315761566162109375" lon="-1.24266249127686023712158203125">
        <ele>1125</ele>
        <time>2022-08-23T12:32:32.000Z</time>
      </trkpt>
      <trkpt lat="40.304045788943767547607421875" lon="-1.24281621538102626800537109375">
        <ele>1125.199951171875</ele>
        <time>2022-08-23T12:32:38.000Z</time>
      </trkpt>
      <trkpt lat="40.3039493970572948455810546875" lon="-1.2429663352668285369873046875">
        <ele>1125.5999755859375</ele>
        <time>2022-08-23T12:32:45.000Z</time>
      </trkpt>
      <trkpt lat="40.30390421859920024871826171875" lon="-1.24304135330021381378173828125">
        <ele>1125.800048828125</ele>
        <time>2022-08-23T12:32:48.000Z</time>
      </trkpt>
      <trkpt lat="40.3038489818572998046875" lon="-1.243128441274166107177734375">
        <ele>1125.800048828125</ele>
        <time>2022-08-23T12:32:52.000Z</time>
      </trkpt>
      <trkpt lat="40.30371495522558689117431640625" lon="-1.243275292217731475830078125">
        <ele>1126.4000244140625</ele>
        <time>2022-08-23T12:33:00.000Z</time>
      </trkpt>
      <trkpt lat="40.30361361801624298095703125" lon="-1.2434251606464385986328125">
        <ele>1126.800048828125</ele>
        <time>2022-08-23T12:33:07.000Z</time>
      </trkpt>
      <trkpt lat="40.30359911732375621795654296875" lon="-1.2434477917850017547607421875">
        <ele>1126.800048828125</ele>
        <time>2022-08-23T12:33:08.000Z</time>
      </trkpt>
      <trkpt lat="40.3034743107855319976806640625" lon="-1.24365893192589282989501953125">
        <ele>1127</ele>
        <time>2022-08-23T12:33:15.000Z</time>
      </trkpt>
      <trkpt lat="40.3033673577010631561279296875" lon="-1.2438219599425792694091796875">
        <ele>1127</ele>
        <time>2022-08-23T12:33:20.000Z</time>
      </trkpt>
      <trkpt lat="40.30319360084831714630126953125" lon="-1.2439884245395660400390625">
        <ele>1127</ele>
        <time>2022-08-23T12:33:27.000Z</time>
      </trkpt>
      <trkpt lat="40.30309050343930721282958984375" lon="-1.24406310729682445526123046875">
        <ele>1127.199951171875</ele>
        <time>2022-08-23T12:33:32.000Z</time>
      </trkpt>
      <trkpt lat="40.30291548930108547210693359375" lon="-1.2441518716514110565185546875">
        <ele>1127.199951171875</ele>
        <time>2022-08-23T12:33:38.000Z</time>
      </trkpt>
      <trkpt lat="40.3027467615902423858642578125" lon="-1.2442048452794551849365234375">
        <ele>1127.199951171875</ele>
        <time>2022-08-23T12:33:45.000Z</time>
      </trkpt>
      <trkpt lat="40.3026337735354900360107421875" lon="-1.24425505287945270538330078125">
        <ele>1126.800048828125</ele>
        <time>2022-08-23T12:33:50.000Z</time>
      </trkpt>
      <trkpt lat="40.30248574912548065185546875" lon="-1.2443168275058269500732421875">
        <ele>1126.800048828125</ele>
        <time>2022-08-23T12:33:57.000Z</time>
      </trkpt>
      <trkpt lat="40.3023058734834194183349609375" lon="-1.2444046698510646820068359375">
        <ele>1127.4000244140625</ele>
        <time>2022-08-23T12:34:06.000Z</time>
      </trkpt>
      <trkpt lat="40.3022592701017856597900390625" lon="-1.24442805536091327667236328125">
        <ele>1127.5999755859375</ele>
        <time>2022-08-23T12:34:08.000Z</time>
      </trkpt>
      <trkpt lat="40.30219162814319133758544921875" lon="-1.244461499154567718505859375">
        <ele>1127.800048828125</ele>
        <time>2022-08-23T12:34:11.000Z</time>
      </trkpt>
      <trkpt lat="40.30203111469745635986328125" lon="-1.24454489909112453460693359375">
        <ele>1128.5999755859375</ele>
        <time>2022-08-23T12:34:19.000Z</time>
      </trkpt>
      <trkpt lat="40.302014015614986419677734375" lon="-1.24455730430781841278076171875">
        <ele>1128.5999755859375</ele>
        <time>2022-08-23T12:34:20.000Z</time>
      </trkpt>
      <trkpt lat="40.3019394166767597198486328125" lon="-1.2446068413555622100830078125">
        <ele>1128.800048828125</ele>
        <time>2022-08-23T12:34:24.000Z</time>
      </trkpt>
      <trkpt lat="40.301798097789287567138671875" lon="-1.2447040714323520660400390625">
        <ele>1128.800048828125</ele>
        <time>2022-08-23T12:34:31.000Z</time>
      </trkpt>
      <trkpt lat="40.30163557268679141998291015625" lon="-1.24485854990780353546142578125">
        <ele>1129.4000244140625</ele>
        <time>2022-08-23T12:34:40.000Z</time>
      </trkpt>
      <trkpt lat="40.30162098817527294158935546875" lon="-1.244881935417652130126953125">
        <ele>1129.5999755859375</ele>
        <time>2022-08-23T12:34:41.000Z</time>
      </trkpt>
      <trkpt lat="40.30154119245707988739013671875" lon="-1.24501747079193592071533203125">
        <ele>1129.800048828125</ele>
        <time>2022-08-23T12:34:47.000Z</time>
      </trkpt>
      <trkpt lat="40.30146139673888683319091796875" lon="-1.24517622403800487518310546875">
        <ele>1130.4000244140625</ele>
        <time>2022-08-23T12:34:53.000Z</time>
      </trkpt>
      <trkpt lat="40.30140741728246212005615234375" lon="-1.24529474414885044097900390625">
        <ele>1130.4000244140625</ele>
        <time>2022-08-23T12:34:58.000Z</time>
      </trkpt>
      <trkpt lat="40.30140037648379802703857421875" lon="-1.245319806039333343505859375">
        <ele>1130.5999755859375</ele>
        <time>2022-08-23T12:34:59.000Z</time>
      </trkpt>
      <trkpt lat="40.3013389371335506439208984375" lon="-1.24550596810877323150634765625">
        <ele>1130.5999755859375</ele>
        <time>2022-08-23T12:35:05.000Z</time>
      </trkpt>
      <trkpt lat="40.3012534417212009429931640625" lon="-1.24570042826235294342041015625">
        <ele>1130.800048828125</ele>
        <time>2022-08-23T12:35:12.000Z</time>
      </trkpt>
      <trkpt lat="40.30114238150417804718017578125" lon="-1.24587845988571643829345703125">
        <ele>1131</ele>
        <time>2022-08-23T12:35:19.000Z</time>
      </trkpt>
      <trkpt lat="40.3010688722133636474609375" lon="-1.24599027447402477264404296875">
        <ele>1131.199951171875</ele>
        <time>2022-08-23T12:35:24.000Z</time>
      </trkpt>
      <trkpt lat="40.30097876675426959991455078125" lon="-1.24617299996316432952880859375">
        <ele>1131.4000244140625</ele>
        <time>2022-08-23T12:35:30.000Z</time>
      </trkpt>
      <trkpt lat="40.30094507150352001190185546875" lon="-1.24624273739755153656005859375">
        <ele>1131.5999755859375</ele>
        <time>2022-08-23T12:35:32.000Z</time>
      </trkpt>
      <trkpt lat="40.30087064020335674285888671875" lon="-1.246409453451633453369140625">
        <ele>1131.800048828125</ele>
        <time>2022-08-23T12:35:37.000Z</time>
      </trkpt>
      <trkpt lat="40.30078028328716754913330078125" lon="-1.24667507596313953399658203125">
        <ele>1132</ele>
        <time>2022-08-23T12:35:45.000Z</time>
      </trkpt>
      <trkpt lat="40.30069814063608646392822265625" lon="-1.24691002070903778076171875">
        <ele>1132.4000244140625</ele>
        <time>2022-08-23T12:35:52.000Z</time>
      </trkpt>
      <trkpt lat="40.30060007236897945404052734375" lon="-1.247159801423549652099609375">
        <ele>1132.800048828125</ele>
        <time>2022-08-23T12:36:00.000Z</time>
      </trkpt>
      <trkpt lat="40.30047484673559665679931640625" lon="-1.24741536565124988555908203125">
        <ele>1133</ele>
        <time>2022-08-23T12:36:09.000Z</time>
      </trkpt>
      <trkpt lat="40.3003565780818462371826171875" lon="-1.2475954927504062652587890625">
        <ele>1133</ele>
        <time>2022-08-23T12:36:16.000Z</time>
      </trkpt>
      <trkpt lat="40.3002559952437877655029296875" lon="-1.247745864093303680419921875">
        <ele>1133.199951171875</ele>
        <time>2022-08-23T12:36:22.000Z</time>
      </trkpt>
      <trkpt lat="40.30016622506082057952880859375" lon="-1.247854493558406829833984375">
        <ele>1133.199951171875</ele>
        <time>2022-08-23T12:36:27.000Z</time>
      </trkpt>
      <trkpt lat="40.30014577321708202362060546875" lon="-1.24787553213536739349365234375">
        <ele>1133.4000244140625</ele>
        <time>2022-08-23T12:36:28.000Z</time>
      </trkpt>
      <trkpt lat="40.29999263584613800048828125" lon="-1.2479646317660808563232421875">
        <ele>1133.800048828125</ele>
        <time>2022-08-23T12:36:35.000Z</time>
      </trkpt>
      <trkpt lat="40.2999492175877094268798828125" lon="-1.2479864247143268585205078125">
        <ele>1134</ele>
        <time>2022-08-23T12:36:37.000Z</time>
      </trkpt>
      <trkpt lat="40.2998489700257778167724609375" lon="-1.24801450408995151519775390625">
        <ele>1134.199951171875</ele>
        <time>2022-08-23T12:36:42.000Z</time>
      </trkpt>
      <trkpt lat="40.29981938190758228302001953125" lon="-1.24803059734404087066650390625">
        <ele>1134.4000244140625</ele>
        <time>2022-08-23T12:36:44.000Z</time>
      </trkpt>
      <trkpt lat="40.299761295318603515625" lon="-1.2480782903730869293212890625">
        <ele>1134.800048828125</ele>
        <time>2022-08-23T12:36:49.000Z</time>
      </trkpt>
      <trkpt lat="40.29970874078571796417236328125" lon="-1.2481131590902805328369140625">
        <ele>1135.5999755859375</ele>
        <time>2022-08-23T12:36:53.000Z</time>
      </trkpt>
      <trkpt lat="40.2996608801186084747314453125" lon="-1.248133443295955657958984375">
        <ele>1136.199951171875</ele>
        <time>2022-08-23T12:36:56.000Z</time>
      </trkpt>
      <trkpt lat="40.2996032126247882843017578125" lon="-1.248147189617156982421875">
        <ele>1136.800048828125</ele>
        <time>2022-08-23T12:36:59.000Z</time>
      </trkpt>
      <trkpt lat="40.299528278410434722900390625" lon="-1.2481701560318470001220703125">
        <ele>1137.199951171875</ele>
        <time>2022-08-23T12:37:03.000Z</time>
      </trkpt>
      <trkpt lat="40.2993976883590221405029296875" lon="-1.2481812201440334320068359375">
        <ele>1137.800048828125</ele>
        <time>2022-08-23T12:37:10.000Z</time>
      </trkpt>
      <trkpt lat="40.29937706887722015380859375" lon="-1.24818113632500171661376953125">
        <ele>1138</ele>
        <time>2022-08-23T12:37:11.000Z</time>
      </trkpt>
      <trkpt lat="40.29925377108156681060791015625" lon="-1.24817644245922565460205078125">
        <ele>1138.5999755859375</ele>
        <time>2022-08-23T12:37:17.000Z</time>
      </trkpt>
      <trkpt lat="40.29919660650193691253662109375" lon="-1.24818767420947551727294921875">
        <ele>1138.800048828125</ele>
        <time>2022-08-23T12:37:20.000Z</time>
      </trkpt>
      <trkpt lat="40.29905864037573337554931640625" lon="-1.2482120655477046966552734375">
        <ele>1139</ele>
        <time>2022-08-23T12:37:28.000Z</time>
      </trkpt>
      <trkpt lat="40.29898018576204776763916015625" lon="-1.24822773970663547515869140625">
        <ele>1139.800048828125</ele>
        <time>2022-08-23T12:37:33.000Z</time>
      </trkpt>
      <trkpt lat="40.29891748912632465362548828125" lon="-1.24824064783751964569091796875">
        <ele>1140.4000244140625</ele>
        <time>2022-08-23T12:37:37.000Z</time>
      </trkpt>
      <trkpt lat="40.29888681136071681976318359375" lon="-1.24825338833034038543701171875">
        <ele>1140.800048828125</ele>
        <time>2022-08-23T12:37:39.000Z</time>
      </trkpt>
      <trkpt lat="40.29881539754569530487060546875" lon="-1.2482719123363494873046875">
        <ele>1141.5999755859375</ele>
        <time>2022-08-23T12:37:44.000Z</time>
      </trkpt>
      <trkpt lat="40.29876912944018840789794921875" lon="-1.24828641302883625030517578125">
        <ele>1142</ele>
        <time>2022-08-23T12:37:47.000Z</time>
      </trkpt>
      <trkpt lat="40.29868908226490020751953125" lon="-1.248317845165729522705078125">
        <ele>1142.800048828125</ele>
        <time>2022-08-23T12:37:52.000Z</time>
      </trkpt>
      <trkpt lat="40.29867290519177913665771484375" lon="-1.24832547269761562347412109375">
        <ele>1143</ele>
        <time>2022-08-23T12:37:53.000Z</time>
      </trkpt>
      <trkpt lat="40.2985772676765918731689453125" lon="-1.24838582240045070648193359375">
        <ele>1144</ele>
        <time>2022-08-23T12:37:59.000Z</time>
      </trkpt>
      <trkpt lat="40.2985263057053089141845703125" lon="-1.24840426258742809295654296875">
        <ele>1144</ele>
        <time>2022-08-23T12:38:02.000Z</time>
      </trkpt>
      <trkpt lat="40.2984572388231754302978515625" lon="-1.24844198115170001983642578125">
        <ele>1144.4000244140625</ele>
        <time>2022-08-23T12:38:06.000Z</time>
      </trkpt>
      <trkpt lat="40.2983593381941318511962890625" lon="-1.2484926916658878326416015625">
        <ele>1144.5999755859375</ele>
        <time>2022-08-23T12:38:12.000Z</time>
      </trkpt>
      <trkpt lat="40.2983066998422145843505859375" lon="-1.24852362088859081268310546875">
        <ele>1145</ele>
        <time>2022-08-23T12:38:15.000Z</time>
      </trkpt>
      <trkpt lat="40.29824542813003063201904296875" lon="-1.248547844588756561279296875">
        <ele>1145.5999755859375</ele>
        <time>2022-08-23T12:38:18.000Z</time>
      </trkpt>
      <trkpt lat="40.29815037734806537628173828125" lon="-1.24858581461012363433837890625">
        <ele>1146</ele>
        <time>2022-08-23T12:38:23.000Z</time>
      </trkpt>
      <trkpt lat="40.29809086583554744720458984375" lon="-1.248620264232158660888671875">
        <ele>1146.199951171875</ele>
        <time>2022-08-23T12:38:26.000Z</time>
      </trkpt>
      <trkpt lat="40.29795021750032901763916015625" lon="-1.2487552128732204437255859375">
        <ele>1147</ele>
        <time>2022-08-23T12:38:34.000Z</time>
      </trkpt>
      <trkpt lat="40.2979038655757904052734375" lon="-1.24881581403315067291259765625">
        <ele>1147.199951171875</ele>
        <time>2022-08-23T12:38:37.000Z</time>
      </trkpt>
      <trkpt lat="40.29786639846861362457275390625" lon="-1.2488849647343158721923828125">
        <ele>1147.199951171875</ele>
        <time>2022-08-23T12:38:40.000Z</time>
      </trkpt>
      <trkpt lat="40.29780001379549503326416015625" lon="-1.24901781789958477020263671875">
        <ele>1147.4000244140625</ele>
        <time>2022-08-23T12:38:46.000Z</time>
      </trkpt>
      <trkpt lat="40.2977266721427440643310546875" lon="-1.24915092252194881439208984375">
        <ele>1147.800048828125</ele>
        <time>2022-08-23T12:38:52.000Z</time>
      </trkpt>
      <trkpt lat="40.2976787276566028594970703125" lon="-1.24922602437436580657958984375">
        <ele>1148.199951171875</ele>
        <time>2022-08-23T12:38:55.000Z</time>
      </trkpt>
      <trkpt lat="40.29760052450001239776611328125" lon="-1.249328367412090301513671875">
        <ele>1148.5999755859375</ele>
        <time>2022-08-23T12:38:59.000Z</time>
      </trkpt>
      <trkpt lat="40.29749323613941669464111328125" lon="-1.24947731383144855499267578125">
        <ele>1149.4000244140625</ele>
        <time>2022-08-23T12:39:05.000Z</time>
      </trkpt>
      <trkpt lat="40.297458954155445098876953125" lon="-1.249523162841796875">
        <ele>1149.4000244140625</ele>
        <time>2022-08-23T12:39:07.000Z</time>
      </trkpt>
      <trkpt lat="40.2973270229995250701904296875" lon="-1.24969272874295711517333984375">
        <ele>1149.800048828125</ele>
        <time>2022-08-23T12:39:15.000Z</time>
      </trkpt>
      <trkpt lat="40.29721319675445556640625" lon="-1.24987880699336528778076171875">
        <ele>1150.4000244140625</ele>
        <time>2022-08-23T12:39:23.000Z</time>
      </trkpt>
      <trkpt lat="40.2971023879945278167724609375" lon="-1.25010159797966480255126953125">
        <ele>1151</ele>
        <time>2022-08-23T12:39:31.000Z</time>
      </trkpt>
      <trkpt lat="40.29701932333409786224365234375" lon="-1.2503048591315746307373046875">
        <ele>1151.199951171875</ele>
        <time>2022-08-23T12:39:38.000Z</time>
      </trkpt>
      <trkpt lat="40.2969448082149028778076171875" lon="-1.25044240616261959075927734375">
        <ele>1151</ele>
        <time>2022-08-23T12:39:44.000Z</time>
      </trkpt>
      <trkpt lat="40.2968241088092327117919921875" lon="-1.2505724094808101654052734375">
        <ele>1151.4000244140625</ele>
        <time>2022-08-23T12:39:52.000Z</time>
      </trkpt>
      <trkpt lat="40.29679167084395885467529296875" lon="-1.2506045959889888763427734375">
        <ele>1151.800048828125</ele>
        <time>2022-08-23T12:39:54.000Z</time>
      </trkpt>
      <trkpt lat="40.29667633585631847381591796875" lon="-1.25072604976594448089599609375">
        <ele>1152.4000244140625</ele>
        <time>2022-08-23T12:40:01.000Z</time>
      </trkpt>
      <trkpt lat="40.29664062894880771636962890625" lon="-1.25076024793088436126708984375">
        <ele>1152.4000244140625</ele>
        <time>2022-08-23T12:40:03.000Z</time>
      </trkpt>
      <trkpt lat="40.2964526228606700897216796875" lon="-1.25094565562903881072998046875">
        <ele>1152.800048828125</ele>
        <time>2022-08-23T12:40:13.000Z</time>
      </trkpt>
      <trkpt lat="40.29630267061293125152587890625" lon="-1.25109552405774593353271484375">
        <ele>1152.800048828125</ele>
        <time>2022-08-23T12:40:21.000Z</time>
      </trkpt>
      <trkpt lat="40.29623620212078094482421875" lon="-1.25116593204438686370849609375">
        <ele>1153.199951171875</ele>
        <time>2022-08-23T12:40:25.000Z</time>
      </trkpt>
      <trkpt lat="40.29618666507303714752197265625" lon="-1.25121756456792354583740234375">
        <ele>1153.4000244140625</ele>
        <time>2022-08-23T12:40:28.000Z</time>
      </trkpt>
      <trkpt lat="40.29607468284666538238525390625" lon="-1.251346059143543243408203125">
        <ele>1154</ele>
        <time>2022-08-23T12:40:35.000Z</time>
      </trkpt>
      <trkpt lat="40.29602606780827045440673828125" lon="-1.25139727257192134857177734375">
        <ele>1154.199951171875</ele>
        <time>2022-08-23T12:40:38.000Z</time>
      </trkpt>
      <trkpt lat="40.295965969562530517578125" lon="-1.25146977603435516357421875">
        <ele>1154.4000244140625</ele>
        <time>2022-08-23T12:40:42.000Z</time>
      </trkpt>
      <trkpt lat="40.29586144722998142242431640625" lon="-1.25159558840095996856689453125">
        <ele>1154.800048828125</ele>
        <time>2022-08-23T12:40:48.000Z</time>
      </trkpt>
      <trkpt lat="40.29575784690678119659423828125" lon="-1.25172718428075313568115234375">
        <ele>1155.199951171875</ele>
        <time>2022-08-23T12:40:55.000Z</time>
      </trkpt>
      <trkpt lat="40.29574460349977016448974609375" lon="-1.2517445348203182220458984375">
        <ele>1155.199951171875</ele>
        <time>2022-08-23T12:40:56.000Z</time>
      </trkpt>
      <trkpt lat="40.295682661235332489013671875" lon="-1.25184184871613979339599609375">
        <ele>1155.800048828125</ele>
        <time>2022-08-23T12:41:01.000Z</time>
      </trkpt>
      <trkpt lat="40.29563932679593563079833984375" lon="-1.2519178725779056549072265625">
        <ele>1156.199951171875</ele>
        <time>2022-08-23T12:41:05.000Z</time>
      </trkpt>
      <trkpt lat="40.2956083975732326507568359375" lon="-1.2519835866987705230712890625">
        <ele>1156.800048828125</ele>
        <time>2022-08-23T12:41:08.000Z</time>
      </trkpt>
      <trkpt lat="40.2955400012433528900146484375" lon="-1.2521337904036045074462890625">
        <ele>1157.199951171875</ele>
        <time>2022-08-23T12:41:15.000Z</time>
      </trkpt>
      <trkpt lat="40.2954803220927715301513671875" lon="-1.252259351313114166259765625">
        <ele>1157.199951171875</ele>
        <time>2022-08-23T12:41:20.000Z</time>
      </trkpt>
      <trkpt lat="40.29544553719460964202880859375" lon="-1.2523376382887363433837890625">
        <ele>1157.5999755859375</ele>
        <time>2022-08-23T12:41:23.000Z</time>
      </trkpt>
      <trkpt lat="40.2953933179378509521484375" lon="-1.25245322473347187042236328125">
        <ele>1158.4000244140625</ele>
        <time>2022-08-23T12:41:28.000Z</time>
      </trkpt>
      <trkpt lat="40.29538217000663280487060546875" lon="-1.25247702933847904205322265625">
        <ele>1158.4000244140625</ele>
        <time>2022-08-23T12:41:29.000Z</time>
      </trkpt>
      <trkpt lat="40.29529131017625331878662109375" lon="-1.25268775038421154022216796875">
        <ele>1158.800048828125</ele>
        <time>2022-08-23T12:41:37.000Z</time>
      </trkpt>
      <trkpt lat="40.295223332941532135009765625" lon="-1.25283057801425457000732421875">
        <ele>1159.199951171875</ele>
        <time>2022-08-23T12:41:43.000Z</time>
      </trkpt>
      <trkpt lat="40.29512518085539340972900390625" lon="-1.2529952824115753173828125">
        <ele>1159.199951171875</ele>
        <time>2022-08-23T12:41:49.000Z</time>
      </trkpt>
      <trkpt lat="40.2950032241642475128173828125" lon="-1.25315814279019832611083984375">
        <ele>1159.199951171875</ele>
        <time>2022-08-23T12:41:55.000Z</time>
      </trkpt>
      <trkpt lat="40.29489601962268352508544921875" lon="-1.25324749387800693511962890625">
        <ele>1159.4000244140625</ele>
        <time>2022-08-23T12:42:01.000Z</time>
      </trkpt>
      <trkpt lat="40.294809602200984954833984375" lon="-1.253342963755130767822265625">
        <ele>1159.800048828125</ele>
        <time>2022-08-23T12:42:07.000Z</time>
      </trkpt>
      <trkpt lat="40.29476702213287353515625" lon="-1.25338613055646419525146484375">
        <ele>1160.4000244140625</ele>
        <time>2022-08-23T12:42:10.000Z</time>
      </trkpt>
      <trkpt lat="40.29471815563738346099853515625" lon="-1.25343474559485912322998046875">
        <ele>1160.800048828125</ele>
        <time>2022-08-23T12:42:13.000Z</time>
      </trkpt>
      <trkpt lat="40.29457599855959415435791015625" lon="-1.253585703670978546142578125">
        <ele>1161.199951171875</ele>
        <time>2022-08-23T12:42:21.000Z</time>
      </trkpt>
      <trkpt lat="40.29452185146510601043701171875" lon="-1.25363205559551715850830078125">
        <ele>1161.199951171875</ele>
        <time>2022-08-23T12:42:24.000Z</time>
      </trkpt>
      <trkpt lat="40.294437445700168609619140625" lon="-1.25370807945728302001953125">
        <ele>1161.4000244140625</ele>
        <time>2022-08-23T12:42:29.000Z</time>
      </trkpt>
      <trkpt lat="40.294370390474796295166015625" lon="-1.2538054771721363067626953125">
        <ele>1162.199951171875</ele>
        <time>2022-08-23T12:42:34.000Z</time>
      </trkpt>
      <trkpt lat="40.29430123977363109588623046875" lon="-1.25387169420719146728515625">
        <ele>1162.800048828125</ele>
        <time>2022-08-23T12:42:38.000Z</time>
      </trkpt>
      <trkpt lat="40.29418255202472209930419921875" lon="-1.2539469636976718902587890625">
        <ele>1163.199951171875</ele>
        <time>2022-08-23T12:42:44.000Z</time>
      </trkpt>
      <trkpt lat="40.29416285455226898193359375" lon="-1.25396020710468292236328125">
        <ele>1163.4000244140625</ele>
        <time>2022-08-23T12:42:45.000Z</time>
      </trkpt>
      <trkpt lat="40.2940495312213897705078125" lon="-1.2540894560515880584716796875">
        <ele>1164</ele>
        <time>2022-08-23T12:42:52.000Z</time>
      </trkpt>
      <trkpt lat="40.293972752988338470458984375" lon="-1.25418459065258502960205078125">
        <ele>1164.4000244140625</ele>
        <time>2022-08-23T12:42:57.000Z</time>
      </trkpt>
      <trkpt lat="40.29394467361271381378173828125" lon="-1.25422432087361812591552734375">
        <ele>1164.5999755859375</ele>
        <time>2022-08-23T12:42:59.000Z</time>
      </trkpt>
      <trkpt lat="40.293843336403369903564453125" lon="-1.2543833255767822265625">
        <ele>1165</ele>
        <time>2022-08-23T12:43:07.000Z</time>
      </trkpt>
      <trkpt lat="40.2937853336334228515625" lon="-1.254435963928699493408203125">
        <ele>1165.199951171875</ele>
        <time>2022-08-23T12:43:11.000Z</time>
      </trkpt>
      <trkpt lat="40.2937355451285839080810546875" lon="-1.2544704973697662353515625">
        <ele>1165.199951171875</ele>
        <time>2022-08-23T12:43:14.000Z</time>
      </trkpt>
      <trkpt lat="40.29364049434661865234375" lon="-1.25454199500381946563720703125">
        <ele>1165.5999755859375</ele>
        <time>2022-08-23T12:43:20.000Z</time>
      </trkpt>
      <trkpt lat="40.293545611202716827392578125" lon="-1.2546044401824474334716796875">
        <ele>1165.5999755859375</ele>
        <time>2022-08-23T12:43:24.000Z</time>
      </trkpt>
      <trkpt lat="40.29343706555664539337158203125" lon="-1.2546574138104915618896484375">
        <ele>1165.5999755859375</ele>
        <time>2022-08-23T12:43:29.000Z</time>
      </trkpt>
      <trkpt lat="40.293310582637786865234375" lon="-1.25474148429930210113525390625">
        <ele>1165.5999755859375</ele>
        <time>2022-08-23T12:43:35.000Z</time>
      </trkpt>
      <trkpt lat="40.2931595407426357269287109375" lon="-1.2549025006592273712158203125">
        <ele>1165.5999755859375</ele>
        <time>2022-08-23T12:43:43.000Z</time>
      </trkpt>
      <trkpt lat="40.2929979376494884490966796875" lon="-1.255123950541019439697265625">
        <ele>1165.800048828125</ele>
        <time>2022-08-23T12:43:51.000Z</time>
      </trkpt>
      <trkpt lat="40.29284899123013019561767578125" lon="-1.25532100908458232879638671875">
        <ele>1165.800048828125</ele>
        <time>2022-08-23T12:43:57.000Z</time>
      </trkpt>
      <trkpt lat="40.2926596440374851226806640625" lon="-1.25553072430193424224853515625">
        <ele>1165.5999755859375</ele>
        <time>2022-08-23T12:44:04.000Z</time>
      </trkpt>
      <trkpt lat="40.2924978733062744140625" lon="-1.25576608814299106597900390625">
        <ele>1165.4000244140625</ele>
        <time>2022-08-23T12:44:12.000Z</time>
      </trkpt>
      <trkpt lat="40.29235303401947021484375" lon="-1.2559901364147663116455078125">
        <ele>1165.5999755859375</ele>
        <time>2022-08-23T12:44:20.000Z</time>
      </trkpt>
      <trkpt lat="40.2922095358371734619140625" lon="-1.25614377669990062713623046875">
        <ele>1166</ele>
        <time>2022-08-23T12:44:27.000Z</time>
      </trkpt>
      <trkpt lat="40.2921885810792446136474609375" lon="-1.2561674974858760833740234375">
        <ele>1166</ele>
        <time>2022-08-23T12:44:28.000Z</time>
      </trkpt>
      <trkpt lat="40.29203049838542938232421875" lon="-1.2563203833997249603271484375">
        <ele>1166.4000244140625</ele>
        <time>2022-08-23T12:44:36.000Z</time>
      </trkpt>
      <trkpt lat="40.2919341064989566802978515625" lon="-1.2564327009022235870361328125">
        <ele>1166.5999755859375</ele>
        <time>2022-08-23T12:44:43.000Z</time>
      </trkpt>
      <trkpt lat="40.2918965555727481842041015625" lon="-1.25648877583444118499755859375">
        <ele>1166.800048828125</ele>
        <time>2022-08-23T12:44:47.000Z</time>
      </trkpt>
      <trkpt lat="40.29187099076807498931884765625" lon="-1.256546191871166229248046875">
        <ele>1167.199951171875</ele>
        <time>2022-08-23T12:44:51.000Z</time>
      </trkpt>
      <trkpt lat="40.29185347259044647216796875" lon="-1.2565948069095611572265625">
        <ele>1167.199951171875</ele>
        <time>2022-08-23T12:44:54.000Z</time>
      </trkpt>
      <trkpt lat="40.2918405644595623016357421875" lon="-1.2566462717950344085693359375">
        <ele>1167.800048828125</ele>
        <time>2022-08-23T12:44:57.000Z</time>
      </trkpt>
      <trkpt lat="40.29183528386056423187255859375" lon="-1.2566620297729969024658203125">
        <ele>1168</ele>
        <time>2022-08-23T12:44:58.000Z</time>
      </trkpt>
      <trkpt lat="40.2918030135333538055419921875" lon="-1.25675238668918609619140625">
        <ele>1169</ele>
        <time>2022-08-23T12:45:04.000Z</time>
      </trkpt>
      <trkpt lat="40.29179471544921398162841796875" lon="-1.256766803562641143798828125">
        <ele>1169.199951171875</ele>
        <time>2022-08-23T12:45:05.000Z</time>
      </trkpt>
      <trkpt lat="40.29175967909395694732666015625" lon="-1.25682757236063480377197265625">
        <ele>1170</ele>
        <time>2022-08-23T12:45:09.000Z</time>
      </trkpt>
      <trkpt lat="40.2917540632188320159912109375" lon="-1.2568415701389312744140625">
        <ele>1170.199951171875</ele>
        <time>2022-08-23T12:45:10.000Z</time>
      </trkpt>
      <trkpt lat="40.29173922725021839141845703125" lon="-1.25686663202941417694091796875">
        <ele>1170.5999755859375</ele>
        <time>2022-08-23T12:45:12.000Z</time>
      </trkpt>
      <trkpt lat="40.2917312644422054290771484375" lon="-1.256880462169647216796875">
        <ele>1171</ele>
        <time>2022-08-23T12:45:13.000Z</time>
      </trkpt>
      <trkpt lat="40.29170595109462738037109375" lon="-1.25692832283675670623779296875">
        <ele>1171.4000244140625</ele>
        <time>2022-08-23T12:45:16.000Z</time>
      </trkpt>
      <trkpt lat="40.291683487594127655029296875" lon="-1.2569751776754856109619140625">
        <ele>1172.199951171875</ele>
        <time>2022-08-23T12:45:19.000Z</time>
      </trkpt>
      <trkpt lat="40.29164426028728485107421875" lon="-1.25704667530953884124755859375">
        <ele>1173.199951171875</ele>
        <time>2022-08-23T12:45:24.000Z</time>
      </trkpt>
      <trkpt lat="40.2916367165744304656982421875" lon="-1.25705941580235958099365234375">
        <ele>1173.199951171875</ele>
        <time>2022-08-23T12:45:25.000Z</time>
      </trkpt>
      <trkpt lat="40.2916135825216770172119140625" lon="-1.25709612853825092315673828125">
        <ele>1173.800048828125</ele>
        <time>2022-08-23T12:45:28.000Z</time>
      </trkpt>
      <trkpt lat="40.2915958128869533538818359375" lon="-1.25711590982973575592041015625">
        <ele>1174.199951171875</ele>
        <time>2022-08-23T12:45:30.000Z</time>
      </trkpt>
      <trkpt lat="40.291588269174098968505859375" lon="-1.2571277283132076263427734375">
        <ele>1174.4000244140625</ele>
        <time>2022-08-23T12:45:31.000Z</time>
      </trkpt>
      <trkpt lat="40.291581563651561737060546875" lon="-1.25714038498699665069580078125">
        <ele>1174.5999755859375</ele>
        <time>2022-08-23T12:45:32.000Z</time>
      </trkpt>
      <trkpt lat="40.2915663085877895355224609375" lon="-1.2571662850677967071533203125">
        <ele>1175</ele>
        <time>2022-08-23T12:45:34.000Z</time>
      </trkpt>
      <trkpt lat="40.29154409654438495635986328125" lon="-1.25720123760402202606201171875">
        <ele>1175.4000244140625</ele>
        <time>2022-08-23T12:45:37.000Z</time>
      </trkpt>
      <trkpt lat="40.29153764247894287109375" lon="-1.25721230171620845794677734375">
        <ele>1175.800048828125</ele>
        <time>2022-08-23T12:45:38.000Z</time>
      </trkpt>
      <trkpt lat="40.2915009297430515289306640625" lon="-1.25728455372154712677001953125">
        <ele>1176.5999755859375</ele>
        <time>2022-08-23T12:45:43.000Z</time>
      </trkpt>
      <trkpt lat="40.29147838242352008819580078125" lon="-1.257304586470127105712890625">
        <ele>1176.800048828125</ele>
        <time>2022-08-23T12:45:45.000Z</time>
      </trkpt>
      <trkpt lat="40.29142909683287143707275390625" lon="-1.25736904330551624298095703125">
        <ele>1177.5999755859375</ele>
        <time>2022-08-23T12:45:50.000Z</time>
      </trkpt>
      <trkpt lat="40.2914083935320377349853515625" lon="-1.25739745795726776123046875">
        <ele>1178</ele>
        <time>2022-08-23T12:45:52.000Z</time>
      </trkpt>
      <trkpt lat="40.2913700044155120849609375" lon="-1.25745252706110477447509765625">
        <ele>1178.5999755859375</ele>
        <time>2022-08-23T12:45:56.000Z</time>
      </trkpt>
      <trkpt lat="40.29132507741451263427734375" lon="-1.25750600360333919525146484375">
        <ele>1179.199951171875</ele>
        <time>2022-08-23T12:46:00.000Z</time>
      </trkpt>
      <trkpt lat="40.2912964113056659698486328125" lon="-1.25754606910049915313720703125">
        <ele>1179.800048828125</ele>
        <time>2022-08-23T12:46:03.000Z</time>
      </trkpt>
      <trkpt lat="40.29124938882887363433837890625" lon="-1.2576101906597614288330078125">
        <ele>1181</ele>
        <time>2022-08-23T12:46:08.000Z</time>
      </trkpt>
      <trkpt lat="40.291240923106670379638671875" lon="-1.25761949457228183746337890625">
        <ele>1181.199951171875</ele>
        <time>2022-08-23T12:46:09.000Z</time>
      </trkpt>
      <trkpt lat="40.29119138605892658233642578125" lon="-1.2576663494110107421875">
        <ele>1182</ele>
        <time>2022-08-23T12:46:13.000Z</time>
      </trkpt>
      <trkpt lat="40.291147716343402862548828125" lon="-1.25770918093621730804443359375">
        <ele>1182.5999755859375</ele>
        <time>2022-08-23T12:46:17.000Z</time>
      </trkpt>
      <trkpt lat="40.2911237441003322601318359375" lon="-1.25772410072386264801025390625">
        <ele>1183</ele>
        <time>2022-08-23T12:46:19.000Z</time>
      </trkpt>
      <trkpt lat="40.291029699146747589111328125" lon="-1.25780037604272365570068359375">
        <ele>1184</ele>
        <time>2022-08-23T12:46:27.000Z</time>
      </trkpt>
      <trkpt lat="40.2910050563514232635498046875" lon="-1.25781722366809844970703125">
        <ele>1184.199951171875</ele>
        <time>2022-08-23T12:46:29.000Z</time>
      </trkpt>
      <trkpt lat="40.29093607328832149505615234375" lon="-1.25787782482802867889404296875">
        <ele>1184.5999755859375</ele>
        <time>2022-08-23T12:46:35.000Z</time>
      </trkpt>
      <trkpt lat="40.2908934094011783599853515625" lon="-1.25792853534221649169921875">
        <ele>1185.199951171875</ele>
        <time>2022-08-23T12:46:39.000Z</time>
      </trkpt>
      <trkpt lat="40.29085292480885982513427734375" lon="-1.25797539018094539642333984375">
        <ele>1185.5999755859375</ele>
        <time>2022-08-23T12:46:43.000Z</time>
      </trkpt>
      <trkpt lat="40.29080162756145000457763671875" lon="-1.2580204010009765625">
        <ele>1186.4000244140625</ele>
        <time>2022-08-23T12:46:47.000Z</time>
      </trkpt>
      <trkpt lat="40.29076139442622661590576171875" lon="-1.25805837102234363555908203125">
        <ele>1187</ele>
        <time>2022-08-23T12:46:50.000Z</time>
      </trkpt>
      <trkpt lat="40.29071512632071971893310546875" lon="-1.2581120990216732025146484375">
        <ele>1187.199951171875</ele>
        <time>2022-08-23T12:46:54.000Z</time>
      </trkpt>
      <trkpt lat="40.2906699478626251220703125" lon="-1.2581771425902843475341796875">
        <ele>1187.5999755859375</ele>
        <time>2022-08-23T12:46:58.000Z</time>
      </trkpt>
      <trkpt lat="40.2905946783721446990966796875" lon="-1.2582726962864398956298828125">
        <ele>1188.199951171875</ele>
        <time>2022-08-23T12:47:05.000Z</time>
      </trkpt>
      <trkpt lat="40.29058118350803852081298828125" lon="-1.258284263312816619873046875">
        <ele>1188.4000244140625</ele>
        <time>2022-08-23T12:47:06.000Z</time>
      </trkpt>
      <trkpt lat="40.29051312245428562164306640625" lon="-1.2583669088780879974365234375">
        <ele>1188.800048828125</ele>
        <time>2022-08-23T12:47:11.000Z</time>
      </trkpt>
      <trkpt lat="40.2904082648456096649169921875" lon="-1.25852675177156925201416015625">
        <ele>1189.4000244140625</ele>
        <time>2022-08-23T12:47:19.000Z</time>
      </trkpt>
      <trkpt lat="40.29039510525763034820556640625" lon="-1.2585435993969440460205078125">
        <ele>1189.4000244140625</ele>
        <time>2022-08-23T12:47:20.000Z</time>
      </trkpt>
      <trkpt lat="40.29030793346464633941650390625" lon="-1.25866413116455078125">
        <ele>1189.5999755859375</ele>
        <time>2022-08-23T12:47:27.000Z</time>
      </trkpt>
      <trkpt lat="40.2902231924235820770263671875" lon="-1.25877452082931995391845703125">
        <ele>1190</ele>
        <time>2022-08-23T12:47:33.000Z</time>
      </trkpt>
      <trkpt lat="40.290168710052967071533203125" lon="-1.25885498709976673126220703125">
        <ele>1190.4000244140625</ele>
        <time>2022-08-23T12:47:37.000Z</time>
      </trkpt>
      <trkpt lat="40.29012990184128284454345703125" lon="-1.2589229643344879150390625">
        <ele>1190.800048828125</ele>
        <time>2022-08-23T12:47:40.000Z</time>
      </trkpt>
      <trkpt lat="40.29002965427935123443603515625" lon="-1.25907727517187595367431640625">
        <ele>1191</ele>
        <time>2022-08-23T12:47:47.000Z</time>
      </trkpt>
      <trkpt lat="40.2899328432977199554443359375" lon="-1.25926201231777667999267578125">
        <ele>1191.199951171875</ele>
        <time>2022-08-23T12:47:54.000Z</time>
      </trkpt>
      <trkpt lat="40.2897963859140872955322265625" lon="-1.2594942748546600341796875">
        <ele>1191.4000244140625</ele>
        <time>2022-08-23T12:48:03.000Z</time>
      </trkpt>
      <trkpt lat="40.28976595960557460784912109375" lon="-1.2595477513968944549560546875">
        <ele>1191.5999755859375</ele>
        <time>2022-08-23T12:48:05.000Z</time>
      </trkpt>
      <trkpt lat="40.2896394766867160797119140625" lon="-1.25976207666099071502685546875">
        <ele>1191.800048828125</ele>
        <time>2022-08-23T12:48:13.000Z</time>
      </trkpt>
      <trkpt lat="40.2894896082580089569091796875" lon="-1.26000146381556987762451171875">
        <ele>1191.800048828125</ele>
        <time>2022-08-23T12:48:22.000Z</time>
      </trkpt>
      <trkpt lat="40.289333201944828033447265625" lon="-1.2602142803370952606201171875">
        <ele>1192.199951171875</ele>
        <time>2022-08-23T12:48:30.000Z</time>
      </trkpt>
      <trkpt lat="40.2893132530152797698974609375" lon="-1.2602424435317516326904296875">
        <ele>1192.4000244140625</ele>
        <time>2022-08-23T12:48:31.000Z</time>
      </trkpt>
      <trkpt lat="40.28911284171044826507568359375" lon="-1.26051552593708038330078125">
        <ele>1193.199951171875</ele>
        <time>2022-08-23T12:48:40.000Z</time>
      </trkpt>
      <trkpt lat="40.2890356443822383880615234375" lon="-1.2606261670589447021484375">
        <ele>1193.4000244140625</ele>
        <time>2022-08-23T12:48:44.000Z</time>
      </trkpt>
      <trkpt lat="40.28901703655719757080078125" lon="-1.26065609045326709747314453125">
        <ele>1193.5999755859375</ele>
        <time>2022-08-23T12:48:45.000Z</time>
      </trkpt>
      <trkpt lat="40.2888629771769046783447265625" lon="-1.260941661894321441650390625">
        <ele>1193.5999755859375</ele>
        <time>2022-08-23T12:48:54.000Z</time>
      </trkpt>
      <trkpt lat="40.2887395955622196197509765625" lon="-1.26120141707360744476318359375">
        <ele>1193.5999755859375</ele>
        <time>2022-08-23T12:49:02.000Z</time>
      </trkpt>
      <trkpt lat="40.2886567823588848114013671875" lon="-1.2613904289901256561279296875">
        <ele>1193.5999755859375</ele>
        <time>2022-08-23T12:49:08.000Z</time>
      </trkpt>
      <trkpt lat="40.28852694667875766754150390625" lon="-1.2616331689059734344482421875">
        <ele>1193.800048828125</ele>
        <time>2022-08-23T12:49:16.000Z</time>
      </trkpt>
      <trkpt lat="40.2884007990360260009765625" lon="-1.2618490867316722869873046875">
        <ele>1194</ele>
        <time>2022-08-23T12:49:24.000Z</time>
      </trkpt>
      <trkpt lat="40.2883406169712543487548828125" lon="-1.2619297206401824951171875">
        <ele>1194.199951171875</ele>
        <time>2022-08-23T12:49:29.000Z</time>
      </trkpt>
      <trkpt lat="40.28833483345806598663330078125" lon="-1.2619258649647235870361328125">
        <ele>1194.199951171875</ele>
        <time>2022-08-23T12:49:30.000Z</time>
      </trkpt>
      <trkpt lat="40.2882886491715908050537109375" lon="-1.2619815208017826080322265625">
        <ele>1195</ele>
        <time>2022-08-23T12:52:15.000Z</time>
      </trkpt>
      <trkpt lat="40.288257636129856109619140625" lon="-1.26202736981213092803955078125">
        <ele>1195</ele>
        <time>2022-08-23T12:52:18.000Z</time>
      </trkpt>
      <trkpt lat="40.28818689286708831787109375" lon="-1.2621402740478515625">
        <ele>1195.4000244140625</ele>
        <time>2022-08-23T12:52:26.000Z</time>
      </trkpt>
      <trkpt lat="40.28808337636291980743408203125" lon="-1.26227815635502338409423828125">
        <ele>1195.800048828125</ele>
        <time>2022-08-23T12:52:33.000Z</time>
      </trkpt>
      <trkpt lat="40.2880536206066608428955078125" lon="-1.26232442446053028106689453125">
        <ele>1196</ele>
        <time>2022-08-23T12:52:35.000Z</time>
      </trkpt>
      <trkpt lat="40.28795882128179073333740234375" lon="-1.26249692402780055999755859375">
        <ele>1196.5999755859375</ele>
        <time>2022-08-23T12:52:42.000Z</time>
      </trkpt>
      <trkpt lat="40.2878883294761180877685546875" lon="-1.2626299448311328887939453125">
        <ele>1197</ele>
        <time>2022-08-23T12:52:47.000Z</time>
      </trkpt>
      <trkpt lat="40.28783963061869144439697265625" lon="-1.26270831562578678131103515625">
        <ele>1197.199951171875</ele>
        <time>2022-08-23T12:52:50.000Z</time>
      </trkpt>
      <trkpt lat="40.2877195179462432861328125" lon="-1.262929178774356842041015625">
        <ele>1197.4000244140625</ele>
        <time>2022-08-23T12:52:58.000Z</time>
      </trkpt>
      <trkpt lat="40.2876392193138599395751953125" lon="-1.26313981600105762481689453125">
        <ele>1197.5999755859375</ele>
        <time>2022-08-23T12:53:05.000Z</time>
      </trkpt>
      <trkpt lat="40.28756336309015750885009765625" lon="-1.263392865657806396484375">
        <ele>1198</ele>
        <time>2022-08-23T12:53:13.000Z</time>
      </trkpt>
      <trkpt lat="40.28751432895660400390625" lon="-1.26356997527182102203369140625">
        <ele>1198</ele>
        <time>2022-08-23T12:53:18.000Z</time>
      </trkpt>
      <trkpt lat="40.2874886803328990936279296875" lon="-1.26363627612590789794921875">
        <ele>1198.199951171875</ele>
        <time>2022-08-23T12:53:20.000Z</time>
      </trkpt>
      <trkpt lat="40.28741835616528987884521484375" lon="-1.2638721428811550140380859375">
        <ele>1198.4000244140625</ele>
        <time>2022-08-23T12:53:27.000Z</time>
      </trkpt>
      <trkpt lat="40.2873193658888339996337890625" lon="-1.26419442705810070037841796875">
        <ele>1198.800048828125</ele>
        <time>2022-08-23T12:53:37.000Z</time>
      </trkpt>
      <trkpt lat="40.2872549928724765777587890625" lon="-1.2644370831549167633056640625">
        <ele>1199</ele>
        <time>2022-08-23T12:53:44.000Z</time>
      </trkpt>
      <trkpt lat="40.287233032286167144775390625" lon="-1.2645031325519084930419921875">
        <ele>1199.199951171875</ele>
        <time>2022-08-23T12:53:46.000Z</time>
      </trkpt>
      <trkpt lat="40.28713119216263294219970703125" lon="-1.2648065574467182159423828125">
        <ele>1199.4000244140625</ele>
        <time>2022-08-23T12:53:55.000Z</time>
      </trkpt>
      <trkpt lat="40.2870712615549564361572265625" lon="-1.26505021937191486358642578125">
        <ele>1199.800048828125</ele>
        <time>2022-08-23T12:54:02.000Z</time>
      </trkpt>
      <trkpt lat="40.287056006491184234619140625" lon="-1.26527904532849788665771484375">
        <ele>1200</ele>
        <time>2022-08-23T12:54:08.000Z</time>
      </trkpt>
      <trkpt lat="40.2870544977486133575439453125" lon="-1.26531810499727725982666015625">
        <ele>1200.199951171875</ele>
        <time>2022-08-23T12:54:09.000Z</time>
      </trkpt>
      <trkpt lat="40.28704293072223663330078125" lon="-1.26567735336720943450927734375">
        <ele>1201</ele>
        <time>2022-08-23T12:54:18.000Z</time>
      </trkpt>
      <trkpt lat="40.28703178279101848602294921875" lon="-1.26583426259458065032958984375">
        <ele>1201.199951171875</ele>
        <time>2022-08-23T12:54:22.000Z</time>
      </trkpt>
      <trkpt lat="40.28699708171188831329345703125" lon="-1.26599100418388843536376953125">
        <ele>1201.4000244140625</ele>
        <time>2022-08-23T12:54:26.000Z</time>
      </trkpt>
      <trkpt lat="40.28685383498668670654296875" lon="-1.26641261391341686248779296875">
        <ele>1202</ele>
        <time>2022-08-23T12:54:37.000Z</time>
      </trkpt>
      <trkpt lat="40.286765657365322113037109375" lon="-1.26663607545197010040283203125">
        <ele>1202.199951171875</ele>
        <time>2022-08-23T12:54:43.000Z</time>
      </trkpt>
      <trkpt lat="40.2866957522928714752197265625" lon="-1.26683883368968963623046875">
        <ele>1202.199951171875</ele>
        <time>2022-08-23T12:54:48.000Z</time>
      </trkpt>
      <trkpt lat="40.28660061769187450408935546875" lon="-1.26714938320219516754150390625">
        <ele>1202.4000244140625</ele>
        <time>2022-08-23T12:54:55.000Z</time>
      </trkpt>
      <trkpt lat="40.2864922396838665008544921875" lon="-1.267423890531063079833984375">
        <ele>1202.5999755859375</ele>
        <time>2022-08-23T12:55:02.000Z</time>
      </trkpt>
      <trkpt lat="40.286341868340969085693359375" lon="-1.26772530376911163330078125">
        <ele>1203</ele>
        <time>2022-08-23T12:55:10.000Z</time>
      </trkpt>
      <trkpt lat="40.28617196716368198394775390625" lon="-1.26805865205824375152587890625">
        <ele>1203</ele>
        <time>2022-08-23T12:55:19.000Z</time>
      </trkpt>
      <trkpt lat="40.28609250672161579132080078125" lon="-1.26820684410631656646728515625">
        <ele>1202.800048828125</ele>
        <time>2022-08-23T12:55:24.000Z</time>
      </trkpt>
      <trkpt lat="40.28602964244782924652099609375" lon="-1.26839878968894481658935546875">
        <ele>1202.800048828125</ele>
        <time>2022-08-23T12:55:30.000Z</time>
      </trkpt>
      <trkpt lat="40.2859581448137760162353515625" lon="-1.26868528313934803009033203125">
        <ele>1202.800048828125</ele>
        <time>2022-08-23T12:55:38.000Z</time>
      </trkpt>
      <trkpt lat="40.2859266288578510284423828125" lon="-1.2688100896775722503662109375">
        <ele>1203.199951171875</ele>
        <time>2022-08-23T12:55:44.000Z</time>
      </trkpt>
      <trkpt lat="40.28585764579474925994873046875" lon="-1.2689931504428386688232421875">
        <ele>1203.199951171875</ele>
        <time>2022-08-23T12:55:50.000Z</time>
      </trkpt>
      <trkpt lat="40.28572957031428813934326171875" lon="-1.26931057311594486236572265625">
        <ele>1203.5999755859375</ele>
        <time>2022-08-23T12:56:00.000Z</time>
      </trkpt>
      <trkpt lat="40.2856094576418399810791015625" lon="-1.2695601023733615875244140625">
        <ele>1204</ele>
        <time>2022-08-23T12:56:09.000Z</time>
      </trkpt>
      <trkpt lat="40.28559646569192409515380859375" lon="-1.269586086273193359375">
        <ele>1204.199951171875</ele>
        <time>2022-08-23T12:56:10.000Z</time>
      </trkpt>
      <trkpt lat="40.2855122275650501251220703125" lon="-1.2697451747953891754150390625">
        <ele>1204.4000244140625</ele>
        <time>2022-08-23T12:56:16.000Z</time>
      </trkpt>
      <trkpt lat="40.28538473881781101226806640625" lon="-1.2699885852634906768798828125">
        <ele>1205</ele>
        <time>2022-08-23T12:56:25.000Z</time>
      </trkpt>
      <trkpt lat="40.28532095253467559814453125" lon="-1.270093023777008056640625">
        <ele>1205.199951171875</ele>
        <time>2022-08-23T12:56:29.000Z</time>
      </trkpt>
      <trkpt lat="40.28523285873234272003173828125" lon="-1.27021313644945621490478515625">
        <ele>1205.4000244140625</ele>
        <time>2022-08-23T12:56:34.000Z</time>
      </trkpt>
      <trkpt lat="40.28517820872366428375244140625" lon="-1.27026736736297607421875">
        <ele>1205.5999755859375</ele>
        <time>2022-08-23T12:56:39.000Z</time>
      </trkpt>
      <trkpt lat="40.2851430885493755340576171875" lon="-1.27030416391789913177490234375">
        <ele>1206.5999755859375</ele>
        <time>2022-08-23T12:56:50.000Z</time>
      </trkpt>
      <trkpt lat="40.285107381641864776611328125" lon="-1.2703278847038745880126953125">
        <ele>1206.4000244140625</ele>
        <time>2022-08-23T12:56:52.000Z</time>
      </trkpt>
      <trkpt lat="40.28494586236774921417236328125" lon="-1.2704492546617984771728515625">
        <ele>1207</ele>
        <time>2022-08-23T12:57:00.000Z</time>
      </trkpt>
      <trkpt lat="40.28479683212935924530029296875" lon="-1.27059954218566417694091796875">
        <ele>1207.199951171875</ele>
        <time>2022-08-23T12:57:07.000Z</time>
      </trkpt>
      <trkpt lat="40.28469205833971500396728515625" lon="-1.27077422104775905609130859375">
        <ele>1207.199951171875</ele>
        <time>2022-08-23T12:57:14.000Z</time>
      </trkpt>
      <trkpt lat="40.2845845185220241546630859375" lon="-1.27099885605275630950927734375">
        <ele>1207</ele>
        <time>2022-08-23T12:57:23.000Z</time>
      </trkpt>
      <trkpt lat="40.28454906307160854339599609375" lon="-1.2710631452500820159912109375">
        <ele>1206.800048828125</ele>
        <time>2022-08-23T12:57:28.000Z</time>
      </trkpt>
      <trkpt lat="40.28455275110900402069091796875" lon="-1.27112173475325107574462890625">
        <ele>1206.199951171875</ele>
        <time>2022-08-23T12:57:58.000Z</time>
      </trkpt>
      <trkpt lat="40.2845690958201885223388671875" lon="-1.27117672003805637359619140625">
        <ele>1206.199951171875</ele>
        <time>2022-08-23T12:58:00.000Z</time>
      </trkpt>
      <trkpt lat="40.28461863286793231964111328125" lon="-1.27138861455023288726806640625">
        <ele>1206</ele>
        <time>2022-08-23T12:58:06.000Z</time>
      </trkpt>
      <trkpt lat="40.28465886600315570831298828125" lon="-1.27150763757526874542236328125">
        <ele>1205.800048828125</ele>
        <time>2022-08-23T12:58:10.000Z</time>
      </trkpt>
      <trkpt lat="40.2846993505954742431640625" lon="-1.2715439312160015106201171875">
        <ele>1205.800048828125</ele>
        <time>2022-08-23T12:58:12.000Z</time>
      </trkpt>
      <trkpt lat="40.284816361963748931884765625" lon="-1.27156128175556659698486328125">
        <ele>1206</ele>
        <time>2022-08-23T12:58:16.000Z</time>
      </trkpt>
      <trkpt lat="40.284851901233196258544921875" lon="-1.27156379632651805877685546875">
        <ele>1206</ele>
        <time>2022-08-23T12:58:17.000Z</time>
      </trkpt>
      <trkpt lat="40.28506622649729251861572265625" lon="-1.27162414602935314178466796875">
        <ele>1206.800048828125</ele>
        <time>2022-08-23T12:58:23.000Z</time>
      </trkpt>
      <trkpt lat="40.2853231318295001983642578125" lon="-1.27177317626774311065673828125">
        <ele>1207.199951171875</ele>
        <time>2022-08-23T12:58:31.000Z</time>
      </trkpt>
      <trkpt lat="40.28558758087456226348876953125" lon="-1.2719284929335117340087890625">
        <ele>1207.5999755859375</ele>
        <time>2022-08-23T12:58:39.000Z</time>
      </trkpt>
      <trkpt lat="40.28571582399308681488037109375" lon="-1.2720116414129734039306640625">
        <ele>1207.800048828125</ele>
        <time>2022-08-23T12:58:43.000Z</time>
      </trkpt>
      <trkpt lat="40.2858634293079376220703125" lon="-1.2721055187284946441650390625">
        <ele>1208</ele>
        <time>2022-08-23T12:58:48.000Z</time>
      </trkpt>
      <trkpt lat="40.28602369129657745361328125" lon="-1.27220367081463336944580078125">
        <ele>1208.199951171875</ele>
        <time>2022-08-23T12:58:55.000Z</time>
      </trkpt>
      <trkpt lat="40.28614866547286510467529296875" lon="-1.2722885794937610626220703125">
        <ele>1208.4000244140625</ele>
        <time>2022-08-23T12:59:00.000Z</time>
      </trkpt>
      <trkpt lat="40.286264084279537200927734375" lon="-1.27249896526336669921875">
        <ele>1208.800048828125</ele>
        <time>2022-08-23T12:59:07.000Z</time>
      </trkpt>
      <trkpt lat="40.2862966060638427734375" lon="-1.27257012762129306793212890625">
        <ele>1208.800048828125</ele>
        <time>2022-08-23T12:59:09.000Z</time>
      </trkpt>
      <trkpt lat="40.28638578951358795166015625" lon="-1.27279392443597316741943359375">
        <ele>1209.4000244140625</ele>
        <time>2022-08-23T12:59:15.000Z</time>
      </trkpt>
      <trkpt lat="40.286504141986370086669921875" lon="-1.2731381691992282867431640625">
        <ele>1209.800048828125</ele>
        <time>2022-08-23T12:59:24.000Z</time>
      </trkpt>
      <trkpt lat="40.286630876362323760986328125" lon="-1.27351376228034496307373046875">
        <ele>1210.5999755859375</ele>
        <time>2022-08-23T12:59:34.000Z</time>
      </trkpt>
      <trkpt lat="40.28665007092058658599853515625" lon="-1.2735928036272525787353515625">
        <ele>1211</ele>
        <time>2022-08-23T12:59:36.000Z</time>
      </trkpt>
      <trkpt lat="40.28671880252659320831298828125" lon="-1.27383009530603885650634765625">
        <ele>1211.199951171875</ele>
        <time>2022-08-23T12:59:42.000Z</time>
      </trkpt>
      <trkpt lat="40.28680915944278240203857421875" lon="-1.27411088906228542327880859375">
        <ele>1211.800048828125</ele>
        <time>2022-08-23T12:59:49.000Z</time>
      </trkpt>
      <trkpt lat="40.28682223521173000335693359375" lon="-1.27415263094007968902587890625">
        <ele>1212</ele>
        <time>2022-08-23T12:59:50.000Z</time>
      </trkpt>
      <trkpt lat="40.2868853509426116943359375" lon="-1.2744001485407352447509765625">
        <ele>1212.4000244140625</ele>
        <time>2022-08-23T12:59:56.000Z</time>
      </trkpt>
      <trkpt lat="40.28693555854260921478271484375" lon="-1.27472997643053531646728515625">
        <ele>1213</ele>
        <time>2022-08-23T13:00:04.000Z</time>
      </trkpt>
      <trkpt lat="40.2869398333132266998291015625" lon="-1.2750173918902873992919921875">
        <ele>1213.5999755859375</ele>
        <time>2022-08-23T13:00:11.000Z</time>
      </trkpt>
      <trkpt lat="40.28693321160972118377685546875" lon="-1.275316290557384490966796875">
        <ele>1214</ele>
        <time>2022-08-23T13:00:18.000Z</time>
      </trkpt>
      <trkpt lat="40.28693371452391147613525390625" lon="-1.27573437988758087158203125">
        <ele>1214.5999755859375</ele>
        <time>2022-08-23T13:00:28.000Z</time>
      </trkpt>
      <trkpt lat="40.2869549207389354705810546875" lon="-1.2759461067616939544677734375">
        <ele>1215</ele>
        <time>2022-08-23T13:00:33.000Z</time>
      </trkpt>
      <trkpt lat="40.2869787253439426422119140625" lon="-1.2760765291750431060791015625">
        <ele>1215</ele>
        <time>2022-08-23T13:00:36.000Z</time>
      </trkpt>
      <trkpt lat="40.28708157129585742950439453125" lon="-1.2764215283095836639404296875">
        <ele>1215.4000244140625</ele>
        <time>2022-08-23T13:00:44.000Z</time>
      </trkpt>
      <trkpt lat="40.28720428235828876495361328125" lon="-1.276759319007396697998046875">
        <ele>1215.800048828125</ele>
        <time>2022-08-23T13:00:52.000Z</time>
      </trkpt>
      <trkpt lat="40.28730050660669803619384765625" lon="-1.276992671191692352294921875">
        <ele>1216</ele>
        <time>2022-08-23T13:00:58.000Z</time>
      </trkpt>
      <trkpt lat="40.2873170189559459686279296875" lon="-1.27703801728785037994384765625">
        <ele>1216</ele>
        <time>2022-08-23T13:00:59.000Z</time>
      </trkpt>
      <trkpt lat="40.287410058081150054931640625" lon="-1.277291066944599151611328125">
        <ele>1216.4000244140625</ele>
        <time>2022-08-23T13:01:05.000Z</time>
      </trkpt>
      <trkpt lat="40.28754441998898983001708984375" lon="-1.277665235102176666259765625">
        <ele>1217</ele>
        <time>2022-08-23T13:01:14.000Z</time>
      </trkpt>
      <trkpt lat="40.28755799867212772369384765625" lon="-1.27771024592220783233642578125">
        <ele>1217.199951171875</ele>
        <time>2022-08-23T13:01:15.000Z</time>
      </trkpt>
      <trkpt lat="40.28764449991285800933837890625" lon="-1.2780632078647613525390625">
        <ele>1217.5999755859375</ele>
        <time>2022-08-23T13:01:23.000Z</time>
      </trkpt>
      <trkpt lat="40.28765271417796611785888671875" lon="-1.278446428477764129638671875">
        <ele>1218.199951171875</ele>
        <time>2022-08-23T13:01:31.000Z</time>
      </trkpt>
      <trkpt lat="40.28764768503606319427490234375" lon="-1.27849529497325420379638671875">
        <ele>1218.199951171875</ele>
        <time>2022-08-23T13:01:32.000Z</time>
      </trkpt>
      <trkpt lat="40.28757375665009021759033203125" lon="-1.27895177341997623443603515625">
        <ele>1218.5999755859375</ele>
        <time>2022-08-23T13:01:41.000Z</time>
      </trkpt>
      <trkpt lat="40.28748205862939357757568359375" lon="-1.27942669205367565155029296875">
        <ele>1219</ele>
        <time>2022-08-23T13:01:50.000Z</time>
      </trkpt>
      <trkpt lat="40.28743344359099864959716796875" lon="-1.279690973460674285888671875">
        <ele>1219.199951171875</ele>
        <time>2022-08-23T13:01:55.000Z</time>
      </trkpt>
      <trkpt lat="40.287396647036075592041015625" lon="-1.27989138476550579071044921875">
        <ele>1219.4000244140625</ele>
        <time>2022-08-23T13:01:59.000Z</time>
      </trkpt>
      <trkpt lat="40.28733084909617900848388671875" lon="-1.2802406586706638336181640625">
        <ele>1220.4000244140625</ele>
        <time>2022-08-23T13:02:06.000Z</time>
      </trkpt>
      <trkpt lat="40.28731249272823333740234375" lon="-1.28033730201423168182373046875">
        <ele>1220.5999755859375</ele>
        <time>2022-08-23T13:02:08.000Z</time>
      </trkpt>
      <trkpt lat="40.2872385643422603607177734375" lon="-1.280712224543094635009765625">
        <ele>1221.199951171875</ele>
        <time>2022-08-23T13:02:16.000Z</time>
      </trkpt>
      <trkpt lat="40.287220962345600128173828125" lon="-1.280801407992839813232421875">
        <ele>1221.4000244140625</ele>
        <time>2022-08-23T13:02:18.000Z</time>
      </trkpt>
      <trkpt lat="40.28716924600303173065185546875" lon="-1.28106568939983844757080078125">
        <ele>1221.800048828125</ele>
        <time>2022-08-23T13:02:24.000Z</time>
      </trkpt>
      <trkpt lat="40.287105627357959747314453125" lon="-1.28137699328362941741943359375">
        <ele>1222.4000244140625</ele>
        <time>2022-08-23T13:02:31.000Z</time>
      </trkpt>
      <trkpt lat="40.2870860137045383453369140625" lon="-1.2814694456756114959716796875">
        <ele>1222.5999755859375</ele>
        <time>2022-08-23T13:02:33.000Z</time>
      </trkpt>
      <trkpt lat="40.28701007366180419921875" lon="-1.28184168599545955657958984375">
        <ele>1223.4000244140625</ele>
        <time>2022-08-23T13:02:41.000Z</time>
      </trkpt>
      <trkpt lat="40.286990962922573089599609375" lon="-1.281937323510646820068359375">
        <ele>1223.4000244140625</ele>
        <time>2022-08-23T13:02:43.000Z</time>
      </trkpt>
      <trkpt lat="40.28690479695796966552734375" lon="-1.28237913362681865692138671875">
        <ele>1224.199951171875</ele>
        <time>2022-08-23T13:02:52.000Z</time>
      </trkpt>
      <trkpt lat="40.28686380945146083831787109375" lon="-1.28257895819842815399169921875">
        <ele>1224.4000244140625</ele>
        <time>2022-08-23T13:02:56.000Z</time>
      </trkpt>
      <trkpt lat="40.28683212585747241973876953125" lon="-1.28272346220910549163818359375">
        <ele>1224.5999755859375</ele>
        <time>2022-08-23T13:02:59.000Z</time>
      </trkpt>
      <trkpt lat="40.2867527492344379425048828125" lon="-1.28311690874397754669189453125">
        <ele>1225.199951171875</ele>
        <time>2022-08-23T13:03:07.000Z</time>
      </trkpt>
      <trkpt lat="40.28670572675764560699462890625" lon="-1.2833659350872039794921875">
        <ele>1225.5999755859375</ele>
        <time>2022-08-23T13:03:12.000Z</time>
      </trkpt>
      <trkpt lat="40.28662978671491146087646484375" lon="-1.283767931163311004638671875">
        <ele>1226.199951171875</ele>
        <time>2022-08-23T13:03:20.000Z</time>
      </trkpt>
      <trkpt lat="40.28659106232225894927978515625" lon="-1.28396851010620594024658203125">
        <ele>1226.5999755859375</ele>
        <time>2022-08-23T13:03:24.000Z</time>
      </trkpt>
      <trkpt lat="40.28653331100940704345703125" lon="-1.28426472656428813934326171875">
        <ele>1227.199951171875</ele>
        <time>2022-08-23T13:03:30.000Z</time>
      </trkpt>
      <trkpt lat="40.28649441897869110107421875" lon="-1.28452129662036895751953125">
        <ele>1227.800048828125</ele>
        <time>2022-08-23T13:03:35.000Z</time>
      </trkpt>
      <trkpt lat="40.2864669263362884521484375" lon="-1.284724138677120208740234375">
        <ele>1228.4000244140625</ele>
        <time>2022-08-23T13:03:39.000Z</time>
      </trkpt>
      <trkpt lat="40.2864466421306133270263671875" lon="-1.28502094186842441558837890625">
        <ele>1228.800048828125</ele>
        <time>2022-08-23T13:03:45.000Z</time>
      </trkpt>
      <trkpt lat="40.2864439599215984344482421875" lon="-1.28507257439196109771728515625">
        <ele>1228.800048828125</ele>
        <time>2022-08-23T13:03:46.000Z</time>
      </trkpt>
      <trkpt lat="40.2864168025553226470947265625" lon="-1.28551413305103778839111328125">
        <ele>1229.800048828125</ele>
        <time>2022-08-23T13:03:55.000Z</time>
      </trkpt>
      <trkpt lat="40.2864151261746883392333984375" lon="-1.285562999546527862548828125">
        <ele>1229.800048828125</ele>
        <time>2022-08-23T13:03:56.000Z</time>
      </trkpt>
      <trkpt lat="40.2863971889019012451171875" lon="-1.28590263426303863525390625">
        <ele>1230.800048828125</ele>
        <time>2022-08-23T13:04:03.000Z</time>
      </trkpt>
      <trkpt lat="40.28639274649322032928466796875" lon="-1.28594865091145038604736328125">
        <ele>1231</ele>
        <time>2022-08-23T13:04:04.000Z</time>
      </trkpt>
      <trkpt lat="40.28635754249989986419677734375" lon="-1.28640127368271350860595703125">
        <ele>1231.5999755859375</ele>
        <time>2022-08-23T13:04:14.000Z</time>
      </trkpt>
      <trkpt lat="40.28631797991693019866943359375" lon="-1.28675431944429874420166015625">
        <ele>1232</ele>
        <time>2022-08-23T13:04:22.000Z</time>
      </trkpt>
      <trkpt lat="40.28619057498872280120849609375" lon="-1.28725555725395679473876953125">
        <ele>1232.800048828125</ele>
        <time>2022-08-23T13:04:33.000Z</time>
      </trkpt>
      <trkpt lat="40.28605319559574127197265625" lon="-1.2876707129180431365966796875">
        <ele>1232.5999755859375</ele>
        <time>2022-08-23T13:04:41.000Z</time>
      </trkpt>
      <trkpt lat="40.285901315510272979736328125" lon="-1.288119815289974212646484375">
        <ele>1232.199951171875</ele>
        <time>2022-08-23T13:04:50.000Z</time>
      </trkpt>
      <trkpt lat="40.28579075820744037628173828125" lon="-1.288439668715000152587890625">
        <ele>1232.199951171875</ele>
        <time>2022-08-23T13:04:57.000Z</time>
      </trkpt>
      <trkpt lat="40.28569134883582592010498046875" lon="-1.28873462788760662078857421875">
        <ele>1232.800048828125</ele>
        <time>2022-08-23T13:05:05.000Z</time>
      </trkpt>
      <trkpt lat="40.28566184453666210174560546875" lon="-1.28882397897541522979736328125">
        <ele>1233.199951171875</ele>
        <time>2022-08-23T13:05:08.000Z</time>
      </trkpt>
      <trkpt lat="40.28560392558574676513671875" lon="-1.28900502808392047882080078125">
        <ele>1234.4000244140625</ele>
        <time>2022-08-23T13:05:15.000Z</time>
      </trkpt>
      <trkpt lat="40.28553628362715244293212890625" lon="-1.28921692259609699249267578125">
        <ele>1235.4000244140625</ele>
        <time>2022-08-23T13:05:24.000Z</time>
      </trkpt>
      <trkpt lat="40.28549185954034328460693359375" lon="-1.289353631436824798583984375">
        <ele>1236.4000244140625</ele>
        <time>2022-08-23T13:05:30.000Z</time>
      </trkpt>
      <trkpt lat="40.2854780294001102447509765625" lon="-1.2894017435610294342041015625">
        <ele>1236.800048828125</ele>
        <time>2022-08-23T13:05:32.000Z</time>
      </trkpt>
      <trkpt lat="40.28544902801513671875" lon="-1.2894993089139461517333984375">
        <ele>1237.4000244140625</ele>
        <time>2022-08-23T13:05:36.000Z</time>
      </trkpt>
      <trkpt lat="40.28540485538542270660400390625" lon="-1.28964289091527462005615234375">
        <ele>1238</ele>
        <time>2022-08-23T13:05:42.000Z</time>
      </trkpt>
      <trkpt lat="40.28538373298943042755126953125" lon="-1.28971279598772525787353515625">
        <ele>1238.5999755859375</ele>
        <time>2022-08-23T13:05:45.000Z</time>
      </trkpt>
      <trkpt lat="40.28534484095871448516845703125" lon="-1.28983215428888797760009765625">
        <ele>1239.800048828125</ele>
        <time>2022-08-23T13:05:50.000Z</time>
      </trkpt>
      <trkpt lat="40.28533780016005039215087890625" lon="-1.28985662944614887237548828125">
        <ele>1239.800048828125</ele>
        <time>2022-08-23T13:05:51.000Z</time>
      </trkpt>
      <trkpt lat="40.28527560643851757049560546875" lon="-1.29004689864814281463623046875">
        <ele>1240.800048828125</ele>
        <time>2022-08-23T13:05:59.000Z</time>
      </trkpt>
      <trkpt lat="40.28526772744953632354736328125" lon="-1.2900714576244354248046875">
        <ele>1241</ele>
        <time>2022-08-23T13:06:00.000Z</time>
      </trkpt>
      <trkpt lat="40.28522112406790256500244140625" lon="-1.29021202214062213897705078125">
        <ele>1242</ele>
        <time>2022-08-23T13:06:06.000Z</time>
      </trkpt>
      <trkpt lat="40.2852108143270015716552734375" lon="-1.290262900292873382568359375">
        <ele>1242.199951171875</ele>
        <time>2022-08-23T13:06:08.000Z</time>
      </trkpt>
      <trkpt lat="40.285161025822162628173828125" lon="-1.29043783061206340789794921875">
        <ele>1243</ele>
        <time>2022-08-23T13:06:15.000Z</time>
      </trkpt>
      <trkpt lat="40.28514233417809009552001953125" lon="-1.2904846854507923126220703125">
        <ele>1243.4000244140625</ele>
        <time>2022-08-23T13:06:17.000Z</time>
      </trkpt>
      <trkpt lat="40.2851035259664058685302734375" lon="-1.29064637236297130584716796875">
        <ele>1244</ele>
        <time>2022-08-23T13:06:23.000Z</time>
      </trkpt>
      <trkpt lat="40.2850813977420330047607421875" lon="-1.29073186777532100677490234375">
        <ele>1244.4000244140625</ele>
        <time>2022-08-23T13:06:26.000Z</time>
      </trkpt>
      <trkpt lat="40.28503806330263614654541015625" lon="-1.29087083972990512847900390625">
        <ele>1245</ele>
        <time>2022-08-23T13:06:31.000Z</time>
      </trkpt>
      <trkpt lat="40.2849972434341907501220703125" lon="-1.29098198376595973968505859375">
        <ele>1245.800048828125</ele>
        <time>2022-08-23T13:06:35.000Z</time>
      </trkpt>
      <trkpt lat="40.28496514074504375457763671875" lon="-1.29106764681637287139892578125">
        <ele>1246.199951171875</ele>
        <time>2022-08-23T13:06:38.000Z</time>
      </trkpt>
      <trkpt lat="40.28489557094871997833251953125" lon="-1.2912145815789699554443359375">
        <ele>1247.199951171875</ele>
        <time>2022-08-23T13:06:43.000Z</time>
      </trkpt>
      <trkpt lat="40.2848487161099910736083984375" lon="-1.2913047708570957183837890625">
        <ele>1247.199951171875</ele>
        <time>2022-08-23T13:06:46.000Z</time>
      </trkpt>
      <trkpt lat="40.28476112522184848785400390625" lon="-1.29144935868680477142333984375">
        <ele>1247.4000244140625</ele>
        <time>2022-08-23T13:06:51.000Z</time>
      </trkpt>
      <trkpt lat="40.28460153378546237945556640625" lon="-1.29171087406575679779052734375">
        <ele>1248.199951171875</ele>
        <time>2022-08-23T13:07:00.000Z</time>
      </trkpt>
      <trkpt lat="40.28454705141484737396240234375" lon="-1.2917999736964702606201171875">
        <ele>1248.4000244140625</ele>
        <time>2022-08-23T13:07:03.000Z</time>
      </trkpt>
      <trkpt lat="40.28449156321585178375244140625" lon="-1.29189376719295978546142578125">
        <ele>1249</ele>
        <time>2022-08-23T13:07:06.000Z</time>
      </trkpt>
      <trkpt lat="40.28436717577278614044189453125" lon="-1.292114295065402984619140625">
        <ele>1249.199951171875</ele>
        <time>2022-08-23T13:07:13.000Z</time>
      </trkpt>
      <trkpt lat="40.28427279554307460784912109375" lon="-1.29229995422065258026123046875">
        <ele>1249.5999755859375</ele>
        <time>2022-08-23T13:07:18.000Z</time>
      </trkpt>
      <trkpt lat="40.28421764262020587921142578125" lon="-1.29241243936121463775634765625">
        <ele>1249.5999755859375</ele>
        <time>2022-08-23T13:07:21.000Z</time>
      </trkpt>
      <trkpt lat="40.28408453799784183502197265625" lon="-1.29268585704267024993896484375">
        <ele>1249.800048828125</ele>
        <time>2022-08-23T13:07:28.000Z</time>
      </trkpt>
      <trkpt lat="40.28395495377480983734130859375" lon="-1.29294921644032001495361328125">
        <ele>1249.800048828125</ele>
        <time>2022-08-23T13:07:35.000Z</time>
      </trkpt>
      <trkpt lat="40.28382067568600177764892578125" lon="-1.29325616173446178436279296875">
        <ele>1249.4000244140625</ele>
        <time>2022-08-23T13:07:42.000Z</time>
      </trkpt>
      <trkpt lat="40.2837081067264080047607421875" lon="-1.29356042481958866119384765625">
        <ele>1249.199951171875</ele>
        <time>2022-08-23T13:07:48.000Z</time>
      </trkpt>
      <trkpt lat="40.28357751667499542236328125" lon="-1.294039785861968994140625">
        <ele>1248.5999755859375</ele>
        <time>2022-08-23T13:07:56.000Z</time>
      </trkpt>
      <trkpt lat="40.283566452562808990478515625" lon="-1.29410340450704097747802734375">
        <ele>1248.4000244140625</ele>
        <time>2022-08-23T13:07:57.000Z</time>
      </trkpt>
      <trkpt lat="40.28353954665362834930419921875" lon="-1.294445134699344635009765625">
        <ele>1248</ele>
        <time>2022-08-23T13:08:03.000Z</time>
      </trkpt>
      <trkpt lat="40.28350953944027423858642578125" lon="-1.29473305307328701019287109375">
        <ele>1248.4000244140625</ele>
        <time>2022-08-23T13:08:10.000Z</time>
      </trkpt>
      <trkpt lat="40.2835009060800075531005859375" lon="-1.29477127455174922943115234375">
        <ele>1248.4000244140625</ele>
        <time>2022-08-23T13:08:11.000Z</time>
      </trkpt>
      <trkpt lat="40.28339755721390247344970703125" lon="-1.2950752861797809600830078125">
        <ele>1249</ele>
        <time>2022-08-23T13:08:20.000Z</time>
      </trkpt>
      <trkpt lat="40.2833389677107334136962890625" lon="-1.2952288426458835601806640625">
        <ele>1249.5999755859375</ele>
        <time>2022-08-23T13:08:25.000Z</time>
      </trkpt>
      <trkpt lat="40.28328917920589447021484375" lon="-1.295343674719333648681640625">
        <ele>1250.199951171875</ele>
        <time>2022-08-23T13:08:29.000Z</time>
      </trkpt>
      <trkpt lat="40.28325707651674747467041015625" lon="-1.29542875103652477264404296875">
        <ele>1250.5999755859375</ele>
        <time>2022-08-23T13:08:32.000Z</time>
      </trkpt>
      <trkpt lat="40.28319253586232662200927734375" lon="-1.2956023402512073516845703125">
        <ele>1251.800048828125</ele>
        <time>2022-08-23T13:08:38.000Z</time>
      </trkpt>
      <trkpt lat="40.28312397189438343048095703125" lon="-1.29582169465720653533935546875">
        <ele>1252.800048828125</ele>
        <time>2022-08-23T13:08:46.000Z</time>
      </trkpt>
      <trkpt lat="40.283119194209575653076171875" lon="-1.29584985785186290740966796875">
        <ele>1253</ele>
        <time>2022-08-23T13:08:47.000Z</time>
      </trkpt>
      <trkpt lat="40.28309471905231475830078125" lon="-1.29596670158207416534423828125">
        <ele>1254</ele>
        <time>2022-08-23T13:08:51.000Z</time>
      </trkpt>
      <trkpt lat="40.2830663882195949554443359375" lon="-1.2960844673216342926025390625">
        <ele>1254</ele>
        <time>2022-08-23T13:08:55.000Z</time>
      </trkpt>
      <trkpt lat="40.2829922921955585479736328125" lon="-1.29635713063180446624755859375">
        <ele>1254.800048828125</ele>
        <time>2022-08-23T13:09:04.000Z</time>
      </trkpt>
      <trkpt lat="40.28295247815549373626708984375" lon="-1.296544969081878662109375">
        <ele>1255</ele>
        <time>2022-08-23T13:09:10.000Z</time>
      </trkpt>
      <trkpt lat="40.28294476680457592010498046875" lon="-1.29657707177102565765380859375">
        <ele>1255</ele>
        <time>2022-08-23T13:09:11.000Z</time>
      </trkpt>
      <trkpt lat="40.2828756161034107208251953125" lon="-1.2968214042484760284423828125">
        <ele>1255.4000244140625</ele>
        <time>2022-08-23T13:09:19.000Z</time>
      </trkpt>
      <trkpt lat="40.28282172046601772308349609375" lon="-1.29701259545981884002685546875">
        <ele>1255.800048828125</ele>
        <time>2022-08-23T13:09:25.000Z</time>
      </trkpt>
      <trkpt lat="40.282777883112430572509765625" lon="-1.29716732539236545562744140625">
        <ele>1256</ele>
        <time>2022-08-23T13:09:30.000Z</time>
      </trkpt>
      <trkpt lat="40.282757095992565155029296875" lon="-1.297230608761310577392578125">
        <ele>1256.199951171875</ele>
        <time>2022-08-23T13:09:32.000Z</time>
      </trkpt>
      <trkpt lat="40.2826895378530025482177734375" lon="-1.2974426709115505218505859375">
        <ele>1257.199951171875</ele>
        <time>2022-08-23T13:09:39.000Z</time>
      </trkpt>
      <trkpt lat="40.28267034329473972320556640625" lon="-1.2974963150918483734130859375">
        <ele>1257.5999755859375</ele>
        <time>2022-08-23T13:09:41.000Z</time>
      </trkpt>
      <trkpt lat="40.282606892287731170654296875" lon="-1.2976830638945102691650390625">
        <ele>1258.199951171875</ele>
        <time>2022-08-23T13:09:48.000Z</time>
      </trkpt>
      <trkpt lat="40.2825463749468326568603515625" lon="-1.29787391982972621917724609375">
        <ele>1258.4000244140625</ele>
        <time>2022-08-23T13:09:55.000Z</time>
      </trkpt>
      <trkpt lat="40.28248409740626811981201171875" lon="-1.2980652786791324615478515625">
        <ele>1259</ele>
        <time>2022-08-23T13:10:02.000Z</time>
      </trkpt>
      <trkpt lat="40.28245794586837291717529296875" lon="-1.29817600362002849578857421875">
        <ele>1259.5999755859375</ele>
        <time>2022-08-23T13:10:06.000Z</time>
      </trkpt>
      <trkpt lat="40.28243481181561946868896484375" lon="-1.29826367832720279693603515625">
        <ele>1260</ele>
        <time>2022-08-23T13:10:09.000Z</time>
      </trkpt>
      <trkpt lat="40.28237613849341869354248046875" lon="-1.298498623073101043701171875">
        <ele>1260.199951171875</ele>
        <time>2022-08-23T13:10:17.000Z</time>
      </trkpt>
      <trkpt lat="40.28235501609742641448974609375" lon="-1.29860959947109222412109375">
        <ele>1260.4000244140625</ele>
        <time>2022-08-23T13:10:21.000Z</time>
      </trkpt>
      <trkpt lat="40.28233431279659271240234375" lon="-1.29871831275522708892822265625">
        <ele>1261</ele>
        <time>2022-08-23T13:10:25.000Z</time>
      </trkpt>
      <trkpt lat="40.28232182376086711883544921875" lon="-1.29880012013018131256103515625">
        <ele>1261.4000244140625</ele>
        <time>2022-08-23T13:10:28.000Z</time>
      </trkpt>
      <trkpt lat="40.28230941854417324066162109375" lon="-1.29897169768810272216796875">
        <ele>1262.199951171875</ele>
        <time>2022-08-23T13:10:34.000Z</time>
      </trkpt>
      <trkpt lat="40.2822979353368282318115234375" lon="-1.29911653697490692138671875">
        <ele>1262.5999755859375</ele>
        <time>2022-08-23T13:10:39.000Z</time>
      </trkpt>
      <trkpt lat="40.28227438218891620635986328125" lon="-1.299292556941509246826171875">
        <ele>1262.800048828125</ele>
        <time>2022-08-23T13:10:45.000Z</time>
      </trkpt>
      <trkpt lat="40.28224705718457698822021484375" lon="-1.2994667328894138336181640625">
        <ele>1263.800048828125</ele>
        <time>2022-08-23T13:10:51.000Z</time>
      </trkpt>
      <trkpt lat="40.2822147868573665618896484375" lon="-1.2996415793895721435546875">
        <ele>1264.5999755859375</ele>
        <time>2022-08-23T13:10:57.000Z</time>
      </trkpt>
      <trkpt lat="40.28220833279192447662353515625" lon="-1.2996715866029262542724609375">
        <ele>1264.800048828125</ele>
        <time>2022-08-23T13:10:58.000Z</time>
      </trkpt>
      <trkpt lat="40.2821552753448486328125" lon="-1.299902759492397308349609375">
        <ele>1265.800048828125</ele>
        <time>2022-08-23T13:11:06.000Z</time>
      </trkpt>
      <trkpt lat="40.28213256038725376129150390625" lon="-1.2999877519905567169189453125">
        <ele>1266.4000244140625</ele>
        <time>2022-08-23T13:11:09.000Z</time>
      </trkpt>
      <trkpt lat="40.2820788323879241943359375" lon="-1.30019302479922771453857421875">
        <ele>1267</ele>
        <time>2022-08-23T13:11:16.000Z</time>
      </trkpt>
      <trkpt lat="40.28206349350512027740478515625" lon="-1.30025186575949192047119140625">
        <ele>1267.4000244140625</ele>
        <time>2022-08-23T13:11:18.000Z</time>
      </trkpt>
      <trkpt lat="40.2819968573749065399169921875" lon="-1.3004755787551403045654296875">
        <ele>1268</ele>
        <time>2022-08-23T13:11:26.000Z</time>
      </trkpt>
      <trkpt lat="40.281943716108798980712890625" lon="-1.300641037523746490478515625">
        <ele>1269</ele>
        <time>2022-08-23T13:11:32.000Z</time>
      </trkpt>
      <trkpt lat="40.281899459660053253173828125" lon="-1.30078746937215328216552734375">
        <ele>1269.4000244140625</ele>
        <time>2022-08-23T13:11:37.000Z</time>
      </trkpt>
      <trkpt lat="40.28184883296489715576171875" lon="-1.3009630702435970306396484375">
        <ele>1270</ele>
        <time>2022-08-23T13:11:43.000Z</time>
      </trkpt>
      <trkpt lat="40.2818268723785877227783203125" lon="-1.30105552263557910919189453125">
        <ele>1270.5999755859375</ele>
        <time>2022-08-23T13:11:46.000Z</time>
      </trkpt>
      <trkpt lat="40.28175135143101215362548828125" lon="-1.30135442130267620086669921875">
        <ele>1271</ele>
        <time>2022-08-23T13:11:56.000Z</time>
      </trkpt>
      <trkpt lat="40.28174548409879207611083984375" lon="-1.30138459615409374237060546875">
        <ele>1271.199951171875</ele>
        <time>2022-08-23T13:11:57.000Z</time>
      </trkpt>
      <trkpt lat="40.281678177416324615478515625" lon="-1.30164611153304576873779296875">
        <ele>1272</ele>
        <time>2022-08-23T13:12:06.000Z</time>
      </trkpt>
      <trkpt lat="40.281638614833354949951171875" lon="-1.30179262720048427581787109375">
        <ele>1272.199951171875</ele>
        <time>2022-08-23T13:12:11.000Z</time>
      </trkpt>
      <trkpt lat="40.28161254711449146270751953125" lon="-1.301880888640880584716796875">
        <ele>1272.199951171875</ele>
        <time>2022-08-23T13:12:14.000Z</time>
      </trkpt>
      <trkpt lat="40.281538702547550201416015625" lon="-1.30220199935138225555419921875">
        <ele>1273</ele>
        <time>2022-08-23T13:12:25.000Z</time>
      </trkpt>
      <trkpt lat="40.28146795928478240966796875" lon="-1.30245496518909931182861328125">
        <ele>1273.800048828125</ele>
        <time>2022-08-23T13:12:34.000Z</time>
      </trkpt>
      <trkpt lat="40.2814604155719280242919921875" lon="-1.30248405039310455322265625">
        <ele>1274</ele>
        <time>2022-08-23T13:12:35.000Z</time>
      </trkpt>
      <trkpt lat="40.2814054302871227264404296875" lon="-1.3027155585587024688720703125">
        <ele>1275</ele>
        <time>2022-08-23T13:12:43.000Z</time>
      </trkpt>
      <trkpt lat="40.28133074752986431121826171875" lon="-1.30297648720443248748779296875">
        <ele>1275.4000244140625</ele>
        <time>2022-08-23T13:12:52.000Z</time>
      </trkpt>
      <trkpt lat="40.28124391101300716400146484375" lon="-1.30325786769390106201171875">
        <ele>1276</ele>
        <time>2022-08-23T13:13:02.000Z</time>
      </trkpt>
      <trkpt lat="40.28123318217694759368896484375" lon="-1.30328326486051082611083984375">
        <ele>1276.199951171875</ele>
        <time>2022-08-23T13:13:03.000Z</time>
      </trkpt>
      <trkpt lat="40.2811767719686031341552734375" lon="-1.30341477692127227783203125">
        <ele>1277.199951171875</ele>
        <time>2022-08-23T13:13:08.000Z</time>
      </trkpt>
      <trkpt lat="40.28114198707044124603271484375" lon="-1.3034893758594989776611328125">
        <ele>1277.4000244140625</ele>
        <time>2022-08-23T13:13:11.000Z</time>
      </trkpt>
      <trkpt lat="40.28103956021368503570556640625" lon="-1.3037358038127422332763671875">
        <ele>1277.800048828125</ele>
        <time>2022-08-23T13:13:20.000Z</time>
      </trkpt>
      <trkpt lat="40.28099320828914642333984375" lon="-1.30384468473494052886962890625">
        <ele>1278.4000244140625</ele>
        <time>2022-08-23T13:13:24.000Z</time>
      </trkpt>
      <trkpt lat="40.2809410728514194488525390625" lon="-1.303979046642780303955078125">
        <ele>1278.800048828125</ele>
        <time>2022-08-23T13:13:29.000Z</time>
      </trkpt>
      <trkpt lat="40.28083026409149169921875" lon="-1.3042538054287433624267578125">
        <ele>1279</ele>
        <time>2022-08-23T13:13:39.000Z</time>
      </trkpt>
      <trkpt lat="40.28077603317797183990478515625" lon="-1.3043983094394207000732421875">
        <ele>1279.199951171875</ele>
        <time>2022-08-23T13:13:44.000Z</time>
      </trkpt>
      <trkpt lat="40.28074753470718860626220703125" lon="-1.30448891781270503997802734375">
        <ele>1279.800048828125</ele>
        <time>2022-08-23T13:13:47.000Z</time>
      </trkpt>
      <trkpt lat="40.28071568347513675689697265625" lon="-1.30460928194224834442138671875">
        <ele>1280.199951171875</ele>
        <time>2022-08-23T13:13:51.000Z</time>
      </trkpt>
      <trkpt lat="40.28067679144442081451416015625" lon="-1.304776668548583984375">
        <ele>1281.199951171875</ele>
        <time>2022-08-23T13:13:56.000Z</time>
      </trkpt>
      <trkpt lat="40.28066840954124927520751953125" lon="-1.304817907512187957763671875">
        <ele>1281.4000244140625</ele>
        <time>2022-08-23T13:13:57.000Z</time>
      </trkpt>
      <trkpt lat="40.280631445348262786865234375" lon="-1.3050515949726104736328125">
        <ele>1281.4000244140625</ele>
        <time>2022-08-23T13:14:02.000Z</time>
      </trkpt>
      <trkpt lat="40.2805893681943416595458984375" lon="-1.30529710091650485992431640625">
        <ele>1281.5999755859375</ele>
        <time>2022-08-23T13:14:07.000Z</time>
      </trkpt>
      <trkpt lat="40.280578471720218658447265625" lon="-1.3054068200290203094482421875">
        <ele>1281.4000244140625</ele>
        <time>2022-08-23T13:14:09.000Z</time>
      </trkpt>
      <trkpt lat="40.2805699221789836883544921875" lon="-1.30563589744269847869873046875">
        <ele>1281</ele>
        <time>2022-08-23T13:14:13.000Z</time>
      </trkpt>
      <trkpt lat="40.2805843390524387359619140625" lon="-1.30583488382399082183837890625">
        <ele>1280.800048828125</ele>
        <time>2022-08-23T13:14:16.000Z</time>
      </trkpt>
      <trkpt lat="40.2806389890611171722412109375" lon="-1.306391023099422454833984375">
        <ele>1280</ele>
        <time>2022-08-23T13:14:23.000Z</time>
      </trkpt>
      <trkpt lat="40.28072456829249858856201171875" lon="-1.3070198334753513336181640625">
        <ele>1278.800048828125</ele>
        <time>2022-08-23T13:14:30.000Z</time>
      </trkpt>
      <trkpt lat="40.280752815306186676025390625" lon="-1.30721303634345531463623046875">
        <ele>1278.4000244140625</ele>
        <time>2022-08-23T13:14:32.000Z</time>
      </trkpt>
      <trkpt lat="40.28078324161469936370849609375" lon="-1.307412944734096527099609375">
        <ele>1277.5999755859375</ele>
        <time>2022-08-23T13:14:34.000Z</time>
      </trkpt>
      <trkpt lat="40.2808394841849803924560546875" lon="-1.30780823528766632080078125">
        <ele>1276.5999755859375</ele>
        <time>2022-08-23T13:14:38.000Z</time>
      </trkpt>
      <trkpt lat="40.28086571954190731048583984375" lon="-1.3079901225864887237548828125">
        <ele>1276</ele>
        <time>2022-08-23T13:14:40.000Z</time>
      </trkpt>
      <trkpt lat="40.28089002706110477447509765625" lon="-1.30816035903990268707275390625">
        <ele>1275.5999755859375</ele>
        <time>2022-08-23T13:14:42.000Z</time>
      </trkpt>
      <trkpt lat="40.2809340320527553558349609375" lon="-1.3084638677537441253662109375">
        <ele>1275.199951171875</ele>
        <time>2022-08-23T13:14:46.000Z</time>
      </trkpt>
      <trkpt lat="40.2809759415686130523681640625" lon="-1.3086663745343685150146484375">
        <ele>1275.199951171875</ele>
        <time>2022-08-23T13:14:49.000Z</time>
      </trkpt>
      <trkpt lat="40.2810463495552539825439453125" lon="-1.3087485171854496002197265625">
        <ele>1275</ele>
        <time>2022-08-23T13:14:51.000Z</time>
      </trkpt>
      <trkpt lat="40.28118238784372806549072265625" lon="-1.30871239118278026580810546875">
        <ele>1274.800048828125</ele>
        <time>2022-08-23T13:14:54.000Z</time>
      </trkpt>
      <trkpt lat="40.2813631854951381683349609375" lon="-1.3085711561143398284912109375">
        <ele>1274.5999755859375</ele>
        <time>2022-08-23T13:14:58.000Z</time>
      </trkpt>
      <trkpt lat="40.2814124710857868194580078125" lon="-1.308547519147396087646484375">
        <ele>1274.4000244140625</ele>
        <time>2022-08-23T13:14:59.000Z</time>
      </trkpt>
      <trkpt lat="40.28157792985439300537109375" lon="-1.3085198588669300079345703125">
        <ele>1274</ele>
        <time>2022-08-23T13:15:02.000Z</time>
      </trkpt>
      <trkpt lat="40.28196291066706180572509765625" lon="-1.3084813021123409271240234375">
        <ele>1273.4000244140625</ele>
        <time>2022-08-23T13:15:09.000Z</time>
      </trkpt>
      <trkpt lat="40.28206751681864261627197265625" lon="-1.30845959298312664031982421875">
        <ele>1273.199951171875</ele>
        <time>2022-08-23T13:15:11.000Z</time>
      </trkpt>
      <trkpt lat="40.282342694699764251708984375" lon="-1.30839723162353038787841796875">
        <ele>1273</ele>
        <time>2022-08-23T13:15:17.000Z</time>
      </trkpt>
      <trkpt lat="40.28260949067771434783935546875" lon="-1.30836957134306430816650390625">
        <ele>1273.199951171875</ele>
        <time>2022-08-23T13:15:23.000Z</time>
      </trkpt>
      <trkpt lat="40.2827009372413158416748046875" lon="-1.30835783667862415313720703125">
        <ele>1273.5999755859375</ele>
        <time>2022-08-23T13:15:25.000Z</time>
      </trkpt>
      <trkpt lat="40.283182896673679351806640625" lon="-1.308305449783802032470703125">
        <ele>1273.5999755859375</ele>
        <time>2022-08-23T13:15:35.000Z</time>
      </trkpt>
      <trkpt lat="40.28353150002658367156982421875" lon="-1.308225654065608978271484375">
        <ele>1273.5999755859375</ele>
        <time>2022-08-23T13:15:42.000Z</time>
      </trkpt>
      <trkpt lat="40.28395713306963443756103515625" lon="-1.308074109256267547607421875">
        <ele>1273.5999755859375</ele>
        <time>2022-08-23T13:15:51.000Z</time>
      </trkpt>
      <trkpt lat="40.2843642421066761016845703125" lon="-1.30806597881019115447998046875">
        <ele>1273.4000244140625</ele>
        <time>2022-08-23T13:15:59.000Z</time>
      </trkpt>
      <trkpt lat="40.2847360633313655853271484375" lon="-1.30815558135509490966796875">
        <ele>1273</ele>
        <time>2022-08-23T13:16:05.000Z</time>
      </trkpt>
      <trkpt lat="40.285097323358058929443359375" lon="-1.308308802545070648193359375">
        <ele>1272.199951171875</ele>
        <time>2022-08-23T13:16:10.000Z</time>
      </trkpt>
      <trkpt lat="40.28517770580947399139404296875" lon="-1.30835272371768951416015625">
        <ele>1272</ele>
        <time>2022-08-23T13:16:11.000Z</time>
      </trkpt>
      <trkpt lat="40.28553661890327930450439453125" lon="-1.30853779613971710205078125">
        <ele>1270.800048828125</ele>
        <time>2022-08-23T13:16:15.000Z</time>
      </trkpt>
      <trkpt lat="40.28570945374667644500732421875" lon="-1.30860610865056514739990234375">
        <ele>1269.5999755859375</ele>
        <time>2022-08-23T13:16:17.000Z</time>
      </trkpt>
      <trkpt lat="40.28587742708623409271240234375" lon="-1.30868992768228054046630859375">
        <ele>1268</ele>
        <time>2022-08-23T13:16:19.000Z</time>
      </trkpt>
      <trkpt lat="40.2859682030975818634033203125" lon="-1.30872689187526702880859375">
        <ele>1267.4000244140625</ele>
        <time>2022-08-23T13:16:20.000Z</time>
      </trkpt>
      <trkpt lat="40.2860597334802150726318359375" lon="-1.308756731450557708740234375">
        <ele>1266.5999755859375</ele>
        <time>2022-08-23T13:16:21.000Z</time>
      </trkpt>
      <trkpt lat="40.28624941594898700714111328125" lon="-1.3088185898959636688232421875">
        <ele>1265.4000244140625</ele>
        <time>2022-08-23T13:16:23.000Z</time>
      </trkpt>
      <trkpt lat="40.286431051790714263916015625" lon="-1.308883130550384521484375">
        <ele>1264.199951171875</ele>
        <time>2022-08-23T13:16:25.000Z</time>
      </trkpt>
      <trkpt lat="40.28661285527050495147705078125" lon="-1.3089228607714176177978515625">
        <ele>1263.4000244140625</ele>
        <time>2022-08-23T13:16:27.000Z</time>
      </trkpt>
      <trkpt lat="40.286701284348964691162109375" lon="-1.30893585272133350372314453125">
        <ele>1262.800048828125</ele>
        <time>2022-08-23T13:16:28.000Z</time>
      </trkpt>
      <trkpt lat="40.28678820468485355377197265625" lon="-1.308956556022167205810546875">
        <ele>1262.4000244140625</ele>
        <time>2022-08-23T13:16:29.000Z</time>
      </trkpt>
      <trkpt lat="40.28687235899269580841064453125" lon="-1.3089842163026332855224609375">
        <ele>1261.5999755859375</ele>
        <time>2022-08-23T13:16:30.000Z</time>
      </trkpt>
      <trkpt lat="40.28702138923108577728271484375" lon="-1.30906191654503345489501953125">
        <ele>1260.4000244140625</ele>
        <time>2022-08-23T13:16:32.000Z</time>
      </trkpt>
      <trkpt lat="40.28708660043776035308837890625" lon="-1.30910298787057399749755859375">
        <ele>1259.800048828125</ele>
        <time>2022-08-23T13:16:33.000Z</time>
      </trkpt>
      <trkpt lat="40.2873736806213855743408203125" lon="-1.30928345024585723876953125">
        <ele>1259.199951171875</ele>
        <time>2022-08-23T13:16:38.000Z</time>
      </trkpt>
      <trkpt lat="40.2874754369258880615234375" lon="-1.3093188218772411346435546875">
        <ele>1259</ele>
        <time>2022-08-23T13:16:40.000Z</time>
      </trkpt>
      <trkpt lat="40.28762807138264179229736328125" lon="-1.309349834918975830078125">
        <ele>1258.800048828125</ele>
        <time>2022-08-23T13:16:43.000Z</time>
      </trkpt>
      <trkpt lat="40.28778749518096446990966796875" lon="-1.3093833625316619873046875">
        <ele>1258.800048828125</ele>
        <time>2022-08-23T13:16:46.000Z</time>
      </trkpt>
      <trkpt lat="40.2879453264176845550537109375" lon="-1.30942099727690219879150390625">
        <ele>1258.5999755859375</ele>
        <time>2022-08-23T13:16:49.000Z</time>
      </trkpt>
      <trkpt lat="40.28816987760365009307861328125" lon="-1.309486962854862213134765625">
        <ele>1257.800048828125</ele>
        <time>2022-08-23T13:16:53.000Z</time>
      </trkpt>
      <trkpt lat="40.28833332471549510955810546875" lon="-1.30955410189926624298095703125">
        <ele>1256.800048828125</ele>
        <time>2022-08-23T13:16:56.000Z</time>
      </trkpt>
      <trkpt lat="40.28838428668677806854248046875" lon="-1.30957220681011676788330078125">
        <ele>1256.800048828125</ele>
        <time>2022-08-23T13:16:57.000Z</time>
      </trkpt>
      <trkpt lat="40.28855175711214542388916015625" lon="-1.30961881019175052642822265625">
        <ele>1255.4000244140625</ele>
        <time>2022-08-23T13:17:00.000Z</time>
      </trkpt>
      <trkpt lat="40.28866969048976898193359375" lon="-1.30965267308056354522705078125">
        <ele>1255</ele>
        <time>2022-08-23T13:17:02.000Z</time>
      </trkpt>
      <trkpt lat="40.288840346038341522216796875" lon="-1.3097094185650348663330078125">
        <ele>1253.800048828125</ele>
        <time>2022-08-23T13:17:05.000Z</time>
      </trkpt>
      <trkpt lat="40.28889960609376430511474609375" lon="-1.30972878076136112213134765625">
        <ele>1253.5999755859375</ele>
        <time>2022-08-23T13:17:06.000Z</time>
      </trkpt>
      <trkpt lat="40.28900454752147197723388671875" lon="-1.3097701035439968109130859375">
        <ele>1252.800048828125</ele>
        <time>2022-08-23T13:17:08.000Z</time>
      </trkpt>
      <trkpt lat="40.28915910981595516204833984375" lon="-1.30984026007354259490966796875">
        <ele>1252.199951171875</ele>
        <time>2022-08-23T13:17:11.000Z</time>
      </trkpt>
      <trkpt lat="40.28927125968039035797119140625" lon="-1.30989273078739643096923828125">
        <ele>1251.5999755859375</ele>
        <time>2022-08-23T13:17:13.000Z</time>
      </trkpt>
      <trkpt lat="40.289527662098407745361328125" lon="-1.31002935580909252166748046875">
        <ele>1250.5999755859375</ele>
        <time>2022-08-23T13:17:18.000Z</time>
      </trkpt>
      <trkpt lat="40.28957703150808811187744140625" lon="-1.31005349569022655487060546875">
        <ele>1250.5999755859375</ele>
        <time>2022-08-23T13:17:19.000Z</time>
      </trkpt>
      <trkpt lat="40.28983452357351779937744140625" lon="-1.3101932220160961151123046875">
        <ele>1250</ele>
        <time>2022-08-23T13:17:24.000Z</time>
      </trkpt>
      <trkpt lat="40.29007307253777980804443359375" lon="-1.31030327640473842620849609375">
        <ele>1249.5999755859375</ele>
        <time>2022-08-23T13:17:29.000Z</time>
      </trkpt>
      <trkpt lat="40.29021221213042736053466796875" lon="-1.3103771209716796875">
        <ele>1249.4000244140625</ele>
        <time>2022-08-23T13:17:32.000Z</time>
      </trkpt>
      <trkpt lat="40.29038228094577789306640625" lon="-1.3104711659252643585205078125">
        <ele>1249.4000244140625</ele>
        <time>2022-08-23T13:17:36.000Z</time>
      </trkpt>
      <trkpt lat="40.290461070835590362548828125" lon="-1.31052489392459392547607421875">
        <ele>1249.199951171875</ele>
        <time>2022-08-23T13:17:38.000Z</time>
      </trkpt>
      <trkpt lat="40.2905001305043697357177734375" lon="-1.31055473349988460540771484375">
        <ele>1249.199951171875</ele>
        <time>2022-08-23T13:17:39.000Z</time>
      </trkpt>
      <trkpt lat="40.29065460897982120513916015625" lon="-1.31068247370421886444091796875">
        <ele>1249.199951171875</ele>
        <time>2022-08-23T13:17:43.000Z</time>
      </trkpt>
      <trkpt lat="40.290886200964450836181640625" lon="-1.3109076954424381256103515625">
        <ele>1249</ele>
        <time>2022-08-23T13:17:49.000Z</time>
      </trkpt>
      <trkpt lat="40.2911445312201976776123046875" lon="-1.311234422028064727783203125">
        <ele>1248.5999755859375</ele>
        <time>2022-08-23T13:17:56.000Z</time>
      </trkpt>
      <trkpt lat="40.29127788729965686798095703125" lon="-1.31141505204141139984130859375">
        <ele>1248.4000244140625</ele>
        <time>2022-08-23T13:18:00.000Z</time>
      </trkpt>
      <trkpt lat="40.2914147637784481048583984375" lon="-1.31161973811686038970947265625">
        <ele>1248.4000244140625</ele>
        <time>2022-08-23T13:18:04.000Z</time>
      </trkpt>
      <trkpt lat="40.29165959917008876800537109375" lon="-1.3118684291839599609375">
        <ele>1248.199951171875</ele>
        <time>2022-08-23T13:18:09.000Z</time>
      </trkpt>
      <trkpt lat="40.291840732097625732421875" lon="-1.31194596178829669952392578125">
        <ele>1247.5999755859375</ele>
        <time>2022-08-23T13:18:12.000Z</time>
      </trkpt>
      <trkpt lat="40.29189596883952617645263671875" lon="-1.31196163594722747802734375">
        <ele>1247.4000244140625</ele>
        <time>2022-08-23T13:18:13.000Z</time>
      </trkpt>
      <trkpt lat="40.2919525466859340667724609375" lon="-1.31197898648679256439208984375">
        <ele>1247.4000244140625</ele>
        <time>2022-08-23T13:18:14.000Z</time>
      </trkpt>
      <trkpt lat="40.292058326303958892822265625" lon="-1.31201393902301788330078125">
        <ele>1247</ele>
        <time>2022-08-23T13:18:16.000Z</time>
      </trkpt>
      <trkpt lat="40.29219671152532100677490234375" lon="-1.31209331564605236053466796875">
        <ele>1246.800048828125</ele>
        <time>2022-08-23T13:18:19.000Z</time>
      </trkpt>
      <trkpt lat="40.292377509176731109619140625" lon="-1.3122142665088176727294921875">
        <ele>1246.5999755859375</ele>
        <time>2022-08-23T13:18:24.000Z</time>
      </trkpt>
      <trkpt lat="40.292500220239162445068359375" lon="-1.31230504252016544342041015625">
        <ele>1247.199951171875</ele>
        <time>2022-08-23T13:18:30.000Z</time>
      </trkpt>
      <trkpt lat="40.29258035123348236083984375" lon="-1.3123705051839351654052734375">
        <ele>1248.5999755859375</ele>
        <time>2022-08-23T13:18:34.000Z</time>
      </trkpt>
      <trkpt lat="40.2926646731793880462646484375" lon="-1.312439739704132080078125">
        <ele>1249.4000244140625</ele>
        <time>2022-08-23T13:18:38.000Z</time>
      </trkpt>
      <trkpt lat="40.29268470592796802520751953125" lon="-1.3124580122530460357666015625">
        <ele>1249.5999755859375</ele>
        <time>2022-08-23T13:18:39.000Z</time>
      </trkpt>
      <trkpt lat="40.29285536147654056549072265625" lon="-1.31263746879994869232177734375">
        <ele>1250</ele>
        <time>2022-08-23T13:18:47.000Z</time>
      </trkpt>
      <trkpt lat="40.293011851608753204345703125" lon="-1.31287769414484500885009765625">
        <ele>1250.199951171875</ele>
        <time>2022-08-23T13:18:55.000Z</time>
      </trkpt>
      <trkpt lat="40.29316063039004802703857421875" lon="-1.31315924227237701416015625">
        <ele>1250.4000244140625</ele>
        <time>2022-08-23T13:19:03.000Z</time>
      </trkpt>
      <trkpt lat="40.293196253478527069091796875" lon="-1.31322604604065418243408203125">
        <ele>1250.800048828125</ele>
        <time>2022-08-23T13:19:05.000Z</time>
      </trkpt>
      <trkpt lat="40.29328401200473308563232421875" lon="-1.31336082704365253448486328125">
        <ele>1251.199951171875</ele>
        <time>2022-08-23T13:19:09.000Z</time>
      </trkpt>
      <trkpt lat="40.29346757568418979644775390625" lon="-1.3135986216366291046142578125">
        <ele>1251.199951171875</ele>
        <time>2022-08-23T13:19:16.000Z</time>
      </trkpt>
      <trkpt lat="40.293675698339939117431640625" lon="-1.313877403736114501953125">
        <ele>1251.5999755859375</ele>
        <time>2022-08-23T13:19:24.000Z</time>
      </trkpt>
      <trkpt lat="40.2937962301075458526611328125" lon="-1.314040012657642364501953125">
        <ele>1251.5999755859375</ele>
        <time>2022-08-23T13:19:29.000Z</time>
      </trkpt>
      <trkpt lat="40.29388365335762500762939453125" lon="-1.314130537211894989013671875">
        <ele>1252.199951171875</ele>
        <time>2022-08-23T13:19:32.000Z</time>
      </trkpt>
      <trkpt lat="40.2940218709409236907958984375" lon="-1.314252912998199462890625">
        <ele>1252.4000244140625</ele>
        <time>2022-08-23T13:19:37.000Z</time>
      </trkpt>
      <trkpt lat="40.294192023575305938720703125" lon="-1.3143503107130527496337890625">
        <ele>1252.4000244140625</ele>
        <time>2022-08-23T13:19:42.000Z</time>
      </trkpt>
      <trkpt lat="40.29436427168548107147216796875" lon="-1.314492635428905487060546875">
        <ele>1252.199951171875</ele>
        <time>2022-08-23T13:19:47.000Z</time>
      </trkpt>
      <trkpt lat="40.29461824335157871246337890625" lon="-1.314729340374469757080078125">
        <ele>1251.5999755859375</ele>
        <time>2022-08-23T13:19:55.000Z</time>
      </trkpt>
      <trkpt lat="40.29475771822035312652587890625" lon="-1.31486437283456325531005859375">
        <ele>1251.4000244140625</ele>
        <time>2022-08-23T13:19:59.000Z</time>
      </trkpt>
      <trkpt lat="40.2948268689215183258056640625" lon="-1.31492388434708118438720703125">
        <ele>1251.4000244140625</ele>
        <time>2022-08-23T13:20:01.000Z</time>
      </trkpt>
      <trkpt lat="40.29510590247809886932373046875" lon="-1.31520031951367855072021484375">
        <ele>1251.199951171875</ele>
        <time>2022-08-23T13:20:09.000Z</time>
      </trkpt>
      <trkpt lat="40.2953633107244968414306640625" lon="-1.31547893397510051727294921875">
        <ele>1251.199951171875</ele>
        <time>2022-08-23T13:20:16.000Z</time>
      </trkpt>
      <trkpt lat="40.2953938208520412445068359375" lon="-1.31552503444254398345947265625">
        <ele>1251.199951171875</ele>
        <time>2022-08-23T13:20:17.000Z</time>
      </trkpt>
      <trkpt lat="40.29567419551312923431396484375" lon="-1.3159190677106380462646484375">
        <ele>1251.199951171875</ele>
        <time>2022-08-23T13:20:26.000Z</time>
      </trkpt>
      <trkpt lat="40.29590520076453685760498046875" lon="-1.31621033884584903717041015625">
        <ele>1251</ele>
        <time>2022-08-23T13:20:33.000Z</time>
      </trkpt>
      <trkpt lat="40.296141318976879119873046875" lon="-1.316492892801761627197265625">
        <ele>1250.800048828125</ele>
        <time>2022-08-23T13:20:40.000Z</time>
      </trkpt>
      <trkpt lat="40.2962516248226165771484375" lon="-1.31661350838840007781982421875">
        <ele>1250.4000244140625</ele>
        <time>2022-08-23T13:20:43.000Z</time>
      </trkpt>
      <trkpt lat="40.29637425206601619720458984375" lon="-1.31670772098004817962646484375">
        <ele>1250</ele>
        <time>2022-08-23T13:20:46.000Z</time>
      </trkpt>
      <trkpt lat="40.29646729119122028350830078125" lon="-1.31675298325717449188232421875">
        <ele>1249.800048828125</ele>
        <time>2022-08-23T13:20:48.000Z</time>
      </trkpt>
      <trkpt lat="40.296572484076023101806640625" lon="-1.3167810626327991485595703125">
        <ele>1249.800048828125</ele>
        <time>2022-08-23T13:20:50.000Z</time>
      </trkpt>
      <trkpt lat="40.296628139913082122802734375" lon="-1.3167954795062541961669921875">
        <ele>1249.5999755859375</ele>
        <time>2022-08-23T13:20:51.000Z</time>
      </trkpt>
      <trkpt lat="40.29685738496482372283935546875" lon="-1.316851638257503509521484375">
        <ele>1249.199951171875</ele>
        <time>2022-08-23T13:20:55.000Z</time>
      </trkpt>
      <trkpt lat="40.296984203159809112548828125" lon="-1.31689287722110748291015625">
        <ele>1249.199951171875</ele>
        <time>2022-08-23T13:20:57.000Z</time>
      </trkpt>
      <trkpt lat="40.2974299527704715728759765625" lon="-1.31702472455799579620361328125">
        <ele>1248.199951171875</ele>
        <time>2022-08-23T13:21:04.000Z</time>
      </trkpt>
      <trkpt lat="40.29748879373073577880859375" lon="-1.3170469366014003753662109375">
        <ele>1248</ele>
        <time>2022-08-23T13:21:05.000Z</time>
      </trkpt>
      <trkpt lat="40.29771451838314533233642578125" lon="-1.3171652890741825103759765625">
        <ele>1247.800048828125</ele>
        <time>2022-08-23T13:21:09.000Z</time>
      </trkpt>
      <trkpt lat="40.29776447452604770660400390625" lon="-1.31720577366650104522705078125">
        <ele>1247.5999755859375</ele>
        <time>2022-08-23T13:21:10.000Z</time>
      </trkpt>
      <trkpt lat="40.29786187224090099334716796875" lon="-1.317283809185028076171875">
        <ele>1247</ele>
        <time>2022-08-23T13:21:12.000Z</time>
      </trkpt>
      <trkpt lat="40.2980441786348819732666015625" lon="-1.317449100315570831298828125">
        <ele>1246</ele>
        <time>2022-08-23T13:21:16.000Z</time>
      </trkpt>
      <trkpt lat="40.298213660717010498046875" lon="-1.31761866621673107147216796875">
        <ele>1245.5999755859375</ele>
        <time>2022-08-23T13:21:20.000Z</time>
      </trkpt>
      <trkpt lat="40.29829605482518672943115234375" lon="-1.317686140537261962890625">
        <ele>1245.4000244140625</ele>
        <time>2022-08-23T13:21:22.000Z</time>
      </trkpt>
      <trkpt lat="40.29834282584488391876220703125" lon="-1.31771438755095005035400390625">
        <ele>1245.199951171875</ele>
        <time>2022-08-23T13:21:23.000Z</time>
      </trkpt>
      <trkpt lat="40.298391021788120269775390625" lon="-1.317740790545940399169921875">
        <ele>1245</ele>
        <time>2022-08-23T13:21:24.000Z</time>
      </trkpt>
      <trkpt lat="40.2985789440572261810302734375" lon="-1.3178593106567859649658203125">
        <ele>1244.800048828125</ele>
        <time>2022-08-23T13:21:28.000Z</time>
      </trkpt>
      <trkpt lat="40.2988733164966106414794921875" lon="-1.31807313300669193267822265625">
        <ele>1244.4000244140625</ele>
        <time>2022-08-23T13:21:35.000Z</time>
      </trkpt>
      <trkpt lat="40.2989916689693927764892578125" lon="-1.318162567913532257080078125">
        <ele>1244.199951171875</ele>
        <time>2022-08-23T13:21:38.000Z</time>
      </trkpt>
      <trkpt lat="40.29903634451329708099365234375" lon="-1.3181841932237148284912109375">
        <ele>1244</ele>
        <time>2022-08-23T13:21:39.000Z</time>
      </trkpt>
      <trkpt lat="40.29908445663750171661376953125" lon="-1.31820238195359706878662109375">
        <ele>1243.800048828125</ele>
        <time>2022-08-23T13:21:40.000Z</time>
      </trkpt>
      <trkpt lat="40.2995203994214534759521484375" lon="-1.3183508254587650299072265625">
        <ele>1243.199951171875</ele>
        <time>2022-08-23T13:21:49.000Z</time>
      </trkpt>
      <trkpt lat="40.29970019124448299407958984375" lon="-1.3184208981692790985107421875">
        <ele>1243</ele>
        <time>2022-08-23T13:21:53.000Z</time>
      </trkpt>
      <trkpt lat="40.29991359449923038482666015625" lon="-1.31851552985608577728271484375">
        <ele>1242.5999755859375</ele>
        <time>2022-08-23T13:21:58.000Z</time>
      </trkpt>
      <trkpt lat="40.30014996416866779327392578125" lon="-1.31862902082502841949462890625">
        <ele>1242.4000244140625</ele>
        <time>2022-08-23T13:22:05.000Z</time>
      </trkpt>
      <trkpt lat="40.3003941290080547332763671875" lon="-1.31874091923236846923828125">
        <ele>1242.5999755859375</ele>
        <time>2022-08-23T13:22:14.000Z</time>
      </trkpt>
      <trkpt lat="40.30060526914894580841064453125" lon="-1.31883538328111171722412109375">
        <ele>1243.4000244140625</ele>
        <time>2022-08-23T13:22:22.000Z</time>
      </trkpt>
      <trkpt lat="40.30080861411988735198974609375" lon="-1.31893110461533069610595703125">
        <ele>1244</ele>
        <time>2022-08-23T13:22:30.000Z</time>
      </trkpt>
      <trkpt lat="40.30083275400102138519287109375" lon="-1.31894451566040515899658203125">
        <ele>1244</ele>
        <time>2022-08-23T13:22:31.000Z</time>
      </trkpt>
      <trkpt lat="40.3010003082454204559326171875" lon="-1.319047026336193084716796875">
        <ele>1244.4000244140625</ele>
        <time>2022-08-23T13:22:38.000Z</time>
      </trkpt>
      <trkpt lat="40.3011989593505859375" lon="-1.31915506906807422637939453125">
        <ele>1245</ele>
        <time>2022-08-23T13:22:45.000Z</time>
      </trkpt>
      <trkpt lat="40.30123181641101837158203125" lon="-1.31917116232216358184814453125">
        <ele>1245</ele>
        <time>2022-08-23T13:22:46.000Z</time>
      </trkpt>
      <trkpt lat="40.30142853967845439910888671875" lon="-1.31926596164703369140625">
        <ele>1245</ele>
        <time>2022-08-23T13:22:52.000Z</time>
      </trkpt>
      <trkpt lat="40.30164160765707492828369140625" lon="-1.319409795105457305908203125">
        <ele>1244.800048828125</ele>
        <time>2022-08-23T13:22:59.000Z</time>
      </trkpt>
      <trkpt lat="40.30169793404638767242431640625" lon="-1.31943686865270137786865234375">
        <ele>1244.800048828125</ele>
        <time>2022-08-23T13:23:01.000Z</time>
      </trkpt>
      <trkpt lat="40.301733054220676422119140625" lon="-1.31943636573851108551025390625">
        <ele>1244.800048828125</ele>
        <time>2022-08-23T13:23:03.000Z</time>
      </trkpt>
      <trkpt lat="40.30175342224538326263427734375" lon="-1.31943502463400363922119140625">
        <ele>1244.5999755859375</ele>
        <time>2022-08-23T13:23:08.000Z</time>
      </trkpt>
      <trkpt lat="40.30177873559296131134033203125" lon="-1.31949822418391704559326171875">
        <ele>1244.800048828125</ele>
        <time>2022-08-23T13:23:50.000Z</time>
      </trkpt>
      <trkpt lat="40.30180807225406169891357421875" lon="-1.319528482854366302490234375">
        <ele>1244.800048828125</ele>
        <time>2022-08-23T13:23:52.000Z</time>
      </trkpt>
      <trkpt lat="40.3019620478153228759765625" lon="-1.3196470029652118682861328125">
        <ele>1244.800048828125</ele>
        <time>2022-08-23T13:23:58.000Z</time>
      </trkpt>
      <trkpt lat="40.302216522395610809326171875" lon="-1.3198485039174556732177734375">
        <ele>1244.4000244140625</ele>
        <time>2022-08-23T13:24:07.000Z</time>
      </trkpt>
      <trkpt lat="40.30238449573516845703125" lon="-1.31999979726970195770263671875">
        <ele>1244.199951171875</ele>
        <time>2022-08-23T13:24:13.000Z</time>
      </trkpt>
      <trkpt lat="40.3024155087769031524658203125" lon="-1.3200292177498340606689453125">
        <ele>1244</ele>
        <time>2022-08-23T13:24:14.000Z</time>
      </trkpt>
      <trkpt lat="40.30264802277088165283203125" lon="-1.3202784955501556396484375">
        <ele>1243.4000244140625</ele>
        <time>2022-08-23T13:24:21.000Z</time>
      </trkpt>
      <trkpt lat="40.3027130663394927978515625" lon="-1.32036139257252216339111328125">
        <ele>1243.199951171875</ele>
        <time>2022-08-23T13:24:23.000Z</time>
      </trkpt>
      <trkpt lat="40.3028926067054271697998046875" lon="-1.3206471316516399383544921875">
        <ele>1242.5999755859375</ele>
        <time>2022-08-23T13:24:29.000Z</time>
      </trkpt>
      <trkpt lat="40.3029760904610157012939453125" lon="-1.32079808972775936126708984375">
        <ele>1242</ele>
        <time>2022-08-23T13:24:32.000Z</time>
      </trkpt>
      <trkpt lat="40.30314691364765167236328125" lon="-1.32106916047632694244384765625">
        <ele>1241.199951171875</ele>
        <time>2022-08-23T13:24:38.000Z</time>
      </trkpt>
      <trkpt lat="40.303402058780193328857421875" lon="-1.3214511238038539886474609375">
        <ele>1240.199951171875</ele>
        <time>2022-08-23T13:24:46.000Z</time>
      </trkpt>
      <trkpt lat="40.30343499965965747833251953125" lon="-1.32149915210902690887451171875">
        <ele>1240</ele>
        <time>2022-08-23T13:24:47.000Z</time>
      </trkpt>
      <trkpt lat="40.30360548757016658782958984375" lon="-1.32174306549131870269775390625">
        <ele>1239.800048828125</ele>
        <time>2022-08-23T13:24:53.000Z</time>
      </trkpt>
      <trkpt lat="40.30380698852241039276123046875" lon="-1.32197289727628231048583984375">
        <ele>1240.199951171875</ele>
        <time>2022-08-23T13:25:00.000Z</time>
      </trkpt>
      <trkpt lat="40.3040184639394283294677734375" lon="-1.3222715444862842559814453125">
        <ele>1240.800048828125</ele>
        <time>2022-08-23T13:25:08.000Z</time>
      </trkpt>
      <trkpt lat="40.30415416695177555084228515625" lon="-1.322472207248210906982421875">
        <ele>1241</ele>
        <time>2022-08-23T13:25:14.000Z</time>
      </trkpt>
      <trkpt lat="40.3041750378906726837158203125" lon="-1.32250607013702392578125">
        <ele>1241</ele>
        <time>2022-08-23T13:25:15.000Z</time>
      </trkpt>
      <trkpt lat="40.304350554943084716796875" lon="-1.3227774761617183685302734375">
        <ele>1241.800048828125</ele>
        <time>2022-08-23T13:25:23.000Z</time>
      </trkpt>
      <trkpt lat="40.3044908680021762847900390625" lon="-1.3229404203593730926513671875">
        <ele>1242</ele>
        <time>2022-08-23T13:25:29.000Z</time>
      </trkpt>
      <trkpt lat="40.3045136667788028717041015625" lon="-1.3229642249643802642822265625">
        <ele>1242.199951171875</ele>
        <time>2022-08-23T13:25:30.000Z</time>
      </trkpt>
      <trkpt lat="40.30466965399682521820068359375" lon="-1.32313999347388744354248046875">
        <ele>1242.199951171875</ele>
        <time>2022-08-23T13:25:36.000Z</time>
      </trkpt>
      <trkpt lat="40.30480577610433101654052734375" lon="-1.32329489104449748992919921875">
        <ele>1242.199951171875</ele>
        <time>2022-08-23T13:25:41.000Z</time>
      </trkpt>
      <trkpt lat="40.304993279278278350830078125" lon="-1.323481388390064239501953125">
        <ele>1242.4000244140625</ele>
        <time>2022-08-23T13:25:48.000Z</time>
      </trkpt>
      <trkpt lat="40.30516368336975574493408203125" lon="-1.3236911036074161529541015625">
        <ele>1242.5999755859375</ele>
        <time>2022-08-23T13:25:55.000Z</time>
      </trkpt>
      <trkpt lat="40.30533048324286937713623046875" lon="-1.32383066229522228240966796875">
        <ele>1243</ele>
        <time>2022-08-23T13:26:01.000Z</time>
      </trkpt>
      <trkpt lat="40.305356718599796295166015625" lon="-1.32383669726550579071044921875">
        <ele>1243</ele>
        <time>2022-08-23T13:26:02.000Z</time>
      </trkpt>
      <trkpt lat="40.3055208362638950347900390625" lon="-1.323878355324268341064453125">
        <ele>1243.5999755859375</ele>
        <time>2022-08-23T13:26:07.000Z</time>
      </trkpt>
      <trkpt lat="40.3057769872248172760009765625" lon="-1.3239485956728458404541015625">
        <ele>1244</ele>
        <time>2022-08-23T13:26:14.000Z</time>
      </trkpt>
      <trkpt lat="40.30592241324484348297119140625" lon="-1.32399964146316051483154296875">
        <ele>1244</ele>
        <time>2022-08-23T13:26:18.000Z</time>
      </trkpt>
      <trkpt lat="40.3059546835720539093017578125" lon="-1.32401414215564727783203125">
        <ele>1244</ele>
        <time>2022-08-23T13:26:19.000Z</time>
      </trkpt>
      <trkpt lat="40.30620907433331012725830078125" lon="-1.3241504319012165069580078125">
        <ele>1244.199951171875</ele>
        <time>2022-08-23T13:26:27.000Z</time>
      </trkpt>
      <trkpt lat="40.30648986808955669403076171875" lon="-1.32432854734361171722412109375">
        <ele>1244.5999755859375</ele>
        <time>2022-08-23T13:26:35.000Z</time>
      </trkpt>
      <trkpt lat="40.30671249143779277801513671875" lon="-1.32453625090420246124267578125">
        <ele>1244.800048828125</ele>
        <time>2022-08-23T13:26:42.000Z</time>
      </trkpt>
      <trkpt lat="40.30696931295096874237060546875" lon="-1.324805058538913726806640625">
        <ele>1244.800048828125</ele>
        <time>2022-08-23T13:26:51.000Z</time>
      </trkpt>
      <trkpt lat="40.30717718414962291717529296875" lon="-1.325058527290821075439453125">
        <ele>1245</ele>
        <time>2022-08-23T13:26:58.000Z</time>
      </trkpt>
      <trkpt lat="40.30732671730220317840576171875" lon="-1.32521904073655605316162109375">
        <ele>1245</ele>
        <time>2022-08-23T13:27:03.000Z</time>
      </trkpt>
      <trkpt lat="40.30741120688617229461669921875" lon="-1.325521208345890045166015625">
        <ele>1245</ele>
        <time>2022-08-23T13:27:09.000Z</time>
      </trkpt>
      <trkpt lat="40.30747055076062679290771484375" lon="-1.325856484472751617431640625">
        <ele>1244.5999755859375</ele>
        <time>2022-08-23T13:27:15.000Z</time>
      </trkpt>
      <trkpt lat="40.30751078389585018157958984375" lon="-1.32625672034919261932373046875">
        <ele>1243.800048828125</ele>
        <time>2022-08-23T13:27:21.000Z</time>
      </trkpt>
      <trkpt lat="40.30751614831387996673583984375" lon="-1.32632964290678501129150390625">
        <ele>1243.800048828125</ele>
        <time>2022-08-23T13:27:22.000Z</time>
      </trkpt>
      <trkpt lat="40.3075371868908405303955078125" lon="-1.3267012126743793487548828125">
        <ele>1243.4000244140625</ele>
        <time>2022-08-23T13:27:27.000Z</time>
      </trkpt>
      <trkpt lat="40.30753274448215961456298828125" lon="-1.326775811612606048583984375">
        <ele>1243.199951171875</ele>
        <time>2022-08-23T13:27:28.000Z</time>
      </trkpt>
      <trkpt lat="40.30753375031054019927978515625" lon="-1.32692341692745685577392578125">
        <ele>1243</ele>
        <time>2022-08-23T13:27:30.000Z</time>
      </trkpt>
      <trkpt lat="40.30752922408282756805419921875" lon="-1.32706339471042156219482421875">
        <ele>1242.5999755859375</ele>
        <time>2022-08-23T13:27:32.000Z</time>
      </trkpt>
      <trkpt lat="40.3075274638831615447998046875" lon="-1.327132545411586761474609375">
        <ele>1242</ele>
        <time>2022-08-23T13:27:33.000Z</time>
      </trkpt>
      <trkpt lat="40.307519920170307159423828125" lon="-1.32744133472442626953125">
        <ele>1241.199951171875</ele>
        <time>2022-08-23T13:27:38.000Z</time>
      </trkpt>
      <trkpt lat="40.307517908513545989990234375" lon="-1.3278388045728206634521484375">
        <ele>1241.199951171875</ele>
        <time>2022-08-23T13:27:45.000Z</time>
      </trkpt>
      <trkpt lat="40.30751832760870456695556640625" lon="-1.32789622060954570770263671875">
        <ele>1241.199951171875</ele>
        <time>2022-08-23T13:27:46.000Z</time>
      </trkpt>
      <trkpt lat="40.30749301426112651824951171875" lon="-1.32832621224224567413330078125">
        <ele>1241</ele>
        <time>2022-08-23T13:27:53.000Z</time>
      </trkpt>
      <trkpt lat="40.3074868954718112945556640625" lon="-1.3283873163163661956787109375">
        <ele>1241</ele>
        <time>2022-08-23T13:27:54.000Z</time>
      </trkpt>
      <trkpt lat="40.30746870674192905426025390625" lon="-1.32859074510633945465087890625">
        <ele>1240.800048828125</ele>
        <time>2022-08-23T13:27:58.000Z</time>
      </trkpt>
      <trkpt lat="40.30745311640202999114990234375" lon="-1.32884404622018337249755859375">
        <ele>1240.800048828125</ele>
        <time>2022-08-23T13:28:04.000Z</time>
      </trkpt>
      <trkpt lat="40.3074443154036998748779296875" lon="-1.3291286118328571319580078125">
        <ele>1240.800048828125</ele>
        <time>2022-08-23T13:28:11.000Z</time>
      </trkpt>
      <trkpt lat="40.30741355381906032562255859375" lon="-1.329360119998455047607421875">
        <ele>1240.800048828125</ele>
        <time>2022-08-23T13:28:16.000Z</time>
      </trkpt>
      <trkpt lat="40.3073668666183948516845703125" lon="-1.32958886213600635528564453125">
        <ele>1241</ele>
        <time>2022-08-23T13:28:23.000Z</time>
      </trkpt>
      <trkpt lat="40.30736594460904598236083984375" lon="-1.3298110663890838623046875">
        <ele>1241.4000244140625</ele>
        <time>2022-08-23T13:28:30.000Z</time>
      </trkpt>
      <trkpt lat="40.307376086711883544921875" lon="-1.33001483045518398284912109375">
        <ele>1241.800048828125</ele>
        <time>2022-08-23T13:28:36.000Z</time>
      </trkpt>
      <trkpt lat="40.3073853068053722381591796875" lon="-1.33014005608856678009033203125">
        <ele>1241.800048828125</ele>
        <time>2022-08-23T13:28:40.000Z</time>
      </trkpt>
      <trkpt lat="40.3073854744434356689453125" lon="-1.33026997558772563934326171875">
        <ele>1242.199951171875</ele>
        <time>2022-08-23T13:28:44.000Z</time>
      </trkpt>
      <trkpt lat="40.30739645473659038543701171875" lon="-1.33041791617870330810546875">
        <ele>1242.800048828125</ele>
        <time>2022-08-23T13:28:49.000Z</time>
      </trkpt>
      <trkpt lat="40.30740785412490367889404296875" lon="-1.330473236739635467529296875">
        <ele>1242.800048828125</ele>
        <time>2022-08-23T13:28:51.000Z</time>
      </trkpt>
      <trkpt lat="40.30741699039936065673828125" lon="-1.330555714666843414306640625">
        <ele>1243</ele>
        <time>2022-08-23T13:28:54.000Z</time>
      </trkpt>
      <trkpt lat="40.30741699039936065673828125" lon="-1.3307972811162471771240234375">
        <ele>1244</ele>
        <time>2022-08-23T13:29:01.000Z</time>
      </trkpt>
      <trkpt lat="40.30743978917598724365234375" lon="-1.33098428137600421905517578125">
        <ele>1244.800048828125</ele>
        <time>2022-08-23T13:29:07.000Z</time>
      </trkpt>
      <trkpt lat="40.30744892545044422149658203125" lon="-1.33101738989353179931640625">
        <ele>1245</ele>
        <time>2022-08-23T13:29:08.000Z</time>
      </trkpt>
      <trkpt lat="40.30747390352189540863037109375" lon="-1.33114253170788288116455078125">
        <ele>1245.199951171875</ele>
        <time>2022-08-23T13:29:12.000Z</time>
      </trkpt>
      <trkpt lat="40.30747734010219573974609375" lon="-1.3313347287476062774658203125">
        <ele>1245.199951171875</ele>
        <time>2022-08-23T13:29:17.000Z</time>
      </trkpt>
      <trkpt lat="40.3074444830417633056640625" lon="-1.33151720277965068817138671875">
        <ele>1245.4000244140625</ele>
        <time>2022-08-23T13:29:23.000Z</time>
      </trkpt>
      <trkpt lat="40.3074054233729839324951171875" lon="-1.33167863823473453521728515625">
        <ele>1245.800048828125</ele>
        <time>2022-08-23T13:29:29.000Z</time>
      </trkpt>
      <trkpt lat="40.307397544384002685546875" lon="-1.33170797489583492279052734375">
        <ele>1246</ele>
        <time>2022-08-23T13:29:30.000Z</time>
      </trkpt>
      <trkpt lat="40.3073477558791637420654296875" lon="-1.33186706341803073883056640625">
        <ele>1246.800048828125</ele>
        <time>2022-08-23T13:29:36.000Z</time>
      </trkpt>
      <trkpt lat="40.30731012113392353057861328125" lon="-1.33206403814256191253662109375">
        <ele>1247.4000244140625</ele>
        <time>2022-08-23T13:29:43.000Z</time>
      </trkpt>
      <trkpt lat="40.30730308033525943756103515625" lon="-1.33224584162235260009765625">
        <ele>1247.800048828125</ele>
        <time>2022-08-23T13:29:49.000Z</time>
      </trkpt>
      <trkpt lat="40.30730525963008403778076171875" lon="-1.33227341808378696441650390625">
        <ele>1247.800048828125</ele>
        <time>2022-08-23T13:29:50.000Z</time>
      </trkpt>
      <trkpt lat="40.307322107255458831787109375" lon="-1.332374922931194305419921875">
        <ele>1248.4000244140625</ele>
        <time>2022-08-23T13:29:54.000Z</time>
      </trkpt>
      <trkpt lat="40.3073678724467754364013671875" lon="-1.33253091014921665191650390625">
        <ele>1248.5999755859375</ele>
        <time>2022-08-23T13:30:01.000Z</time>
      </trkpt>
      <trkpt lat="40.30738237313926219940185546875" lon="-1.332550942897796630859375">
        <ele>1248.800048828125</ele>
        <time>2022-08-23T13:30:02.000Z</time>
      </trkpt>
      <trkpt lat="40.3074674494564533233642578125" lon="-1.33272436447441577911376953125">
        <ele>1249.800048828125</ele>
        <time>2022-08-23T13:30:10.000Z</time>
      </trkpt>
      <trkpt lat="40.30748044140636920928955078125" lon="-1.33274733088910579681396484375">
        <ele>1249.800048828125</ele>
        <time>2022-08-23T13:30:11.000Z</time>
      </trkpt>
      <trkpt lat="40.3075546212494373321533203125" lon="-1.33290809579193592071533203125">
        <ele>1250.4000244140625</ele>
        <time>2022-08-23T13:30:17.000Z</time>
      </trkpt>
      <trkpt lat="40.30761891044676303863525390625" lon="-1.33304606191813945770263671875">
        <ele>1250.800048828125</ele>
        <time>2022-08-23T13:30:23.000Z</time>
      </trkpt>
      <trkpt lat="40.307643301784992218017578125" lon="-1.33309610188007354736328125">
        <ele>1251.199951171875</ele>
        <time>2022-08-23T13:30:25.000Z</time>
      </trkpt>
      <trkpt lat="40.30768680386245250701904296875" lon="-1.33320230059325695037841796875">
        <ele>1251.800048828125</ele>
        <time>2022-08-23T13:30:30.000Z</time>
      </trkpt>
      <trkpt lat="40.3077048249542713165283203125" lon="-1.33324404247105121612548828125">
        <ele>1252</ele>
        <time>2022-08-23T13:30:32.000Z</time>
      </trkpt>
      <trkpt lat="40.3077608160674571990966796875" lon="-1.33337412960827350616455078125">
        <ele>1252.800048828125</ele>
        <time>2022-08-23T13:30:38.000Z</time>
      </trkpt>
      <trkpt lat="40.30778856016695499420166015625" lon="-1.33345845155417919158935546875">
        <ele>1253</ele>
        <time>2022-08-23T13:30:42.000Z</time>
      </trkpt>
      <trkpt lat="40.30780146829783916473388671875" lon="-1.33350103162229061126708984375">
        <ele>1253.199951171875</ele>
        <time>2022-08-23T13:30:44.000Z</time>
      </trkpt>
      <trkpt lat="40.3078329004347324371337890625" lon="-1.333673782646656036376953125">
        <ele>1254</ele>
        <time>2022-08-23T13:30:51.000Z</time>
      </trkpt>
      <trkpt lat="40.30783499591052532196044921875" lon="-1.33370487950742244720458984375">
        <ele>1254</ele>
        <time>2022-08-23T13:30:52.000Z</time>
      </trkpt>
      <trkpt lat="40.3078526817262172698974609375" lon="-1.33384644985198974609375">
        <ele>1254.4000244140625</ele>
        <time>2022-08-23T13:30:57.000Z</time>
      </trkpt>
      <trkpt lat="40.3078848682343959808349609375" lon="-1.3340377248823642730712890625">
        <ele>1254.5999755859375</ele>
        <time>2022-08-23T13:31:04.000Z</time>
      </trkpt>
      <trkpt lat="40.30790003947913646697998046875" lon="-1.33415750227868556976318359375">
        <ele>1255</ele>
        <time>2022-08-23T13:31:08.000Z</time>
      </trkpt>
      <trkpt lat="40.30790071003139019012451171875" lon="-1.33424635045230388641357421875">
        <ele>1255</ele>
        <time>2022-08-23T13:31:11.000Z</time>
      </trkpt>
      <trkpt lat="40.30790540389716625213623046875" lon="-1.33450836874544620513916015625">
        <ele>1255.199951171875</ele>
        <time>2022-08-23T13:31:20.000Z</time>
      </trkpt>
      <trkpt lat="40.30791512690484523773193359375" lon="-1.33476083166897296905517578125">
        <ele>1255.4000244140625</ele>
        <time>2022-08-23T13:31:28.000Z</time>
      </trkpt>
      <trkpt lat="40.30793390236794948577880859375" lon="-1.3349191658198833465576171875">
        <ele>1256</ele>
        <time>2022-08-23T13:31:34.000Z</time>
      </trkpt>
      <trkpt lat="40.30793457292020320892333984375" lon="-1.33494305424392223358154296875">
        <ele>1256</ele>
        <time>2022-08-23T13:31:35.000Z</time>
      </trkpt>
      <trkpt lat="40.30794848687946796417236328125" lon="-1.3351303897798061370849609375">
        <ele>1256.4000244140625</ele>
        <time>2022-08-23T13:31:42.000Z</time>
      </trkpt>
      <trkpt lat="40.30794446356594562530517578125" lon="-1.3352371752262115478515625">
        <ele>1256.800048828125</ele>
        <time>2022-08-23T13:31:46.000Z</time>
      </trkpt>
      <trkpt lat="40.3079422004520893096923828125" lon="-1.33531336672604084014892578125">
        <ele>1257.199951171875</ele>
        <time>2022-08-23T13:31:49.000Z</time>
      </trkpt>
      <trkpt lat="40.307923257350921630859375" lon="-1.33550229482352733612060546875">
        <ele>1257.800048828125</ele>
        <time>2022-08-23T13:31:56.000Z</time>
      </trkpt>
      <trkpt lat="40.30792132951319217681884765625" lon="-1.3355286978185176849365234375">
        <ele>1257.800048828125</ele>
        <time>2022-08-23T13:31:57.000Z</time>
      </trkpt>
      <trkpt lat="40.307932309806346893310546875" lon="-1.33571234531700611114501953125">
        <ele>1258.4000244140625</ele>
        <time>2022-08-23T13:32:04.000Z</time>
      </trkpt>
      <trkpt lat="40.30795334838330745697021484375" lon="-1.33585366420447826385498046875">
        <ele>1259</ele>
        <time>2022-08-23T13:32:10.000Z</time>
      </trkpt>
      <trkpt lat="40.30795586295425891876220703125" lon="-1.335876546800136566162109375">
        <ele>1259.199951171875</ele>
        <time>2022-08-23T13:32:11.000Z</time>
      </trkpt>
      <trkpt lat="40.30795351602137088775634765625" lon="-1.3360094837844371795654296875">
        <ele>1260</ele>
        <time>2022-08-23T13:32:17.000Z</time>
      </trkpt>
      <trkpt lat="40.30795267783105373382568359375" lon="-1.33603001944720745086669921875">
        <ele>1260</ele>
        <time>2022-08-23T13:32:18.000Z</time>
      </trkpt>
      <trkpt lat="40.3079649992287158966064453125" lon="-1.33616027422249317169189453125">
        <ele>1261.199951171875</ele>
        <time>2022-08-23T13:32:24.000Z</time>
      </trkpt>
      <trkpt lat="40.3079693578183650970458984375" lon="-1.33617888204753398895263671875">
        <ele>1261.4000244140625</ele>
        <time>2022-08-23T13:32:25.000Z</time>
      </trkpt>
      <trkpt lat="40.30801554210484027862548828125" lon="-1.3363108970224857330322265625">
        <ele>1262.4000244140625</ele>
        <time>2022-08-23T13:32:32.000Z</time>
      </trkpt>
      <trkpt lat="40.30802023597061634063720703125" lon="-1.336325816810131072998046875">
        <ele>1262.4000244140625</ele>
        <time>2022-08-23T13:32:33.000Z</time>
      </trkpt>
      <trkpt lat="40.3080545179545879364013671875" lon="-1.33638775907456874847412109375">
        <ele>1263.4000244140625</ele>
        <time>2022-08-23T13:32:37.000Z</time>
      </trkpt>
      <trkpt lat="40.30808460898697376251220703125" lon="-1.33644291199743747711181640625">
        <ele>1264</ele>
        <time>2022-08-23T13:32:40.000Z</time>
      </trkpt>
      <trkpt lat="40.30814923346042633056640625" lon="-1.33654785342514514923095703125">
        <ele>1264.5999755859375</ele>
        <time>2022-08-23T13:32:46.000Z</time>
      </trkpt>
      <trkpt lat="40.3081705234944820404052734375" lon="-1.3365885056555271148681640625">
        <ele>1265</ele>
        <time>2022-08-23T13:32:48.000Z</time>
      </trkpt>
      <trkpt lat="40.30819223262369632720947265625" lon="-1.3366213627159595489501953125">
        <ele>1265.800048828125</ele>
        <time>2022-08-23T13:32:50.000Z</time>
      </trkpt>
      <trkpt lat="40.30821167863905429840087890625" lon="-1.33667282760143280029296875">
        <ele>1266.800048828125</ele>
        <time>2022-08-23T13:32:53.000Z</time>
      </trkpt>
      <trkpt lat="40.30821897089481353759765625" lon="-1.33669151924550533294677734375">
        <ele>1267</ele>
        <time>2022-08-23T13:32:54.000Z</time>
      </trkpt>
      <trkpt lat="40.30829667113721370697021484375" lon="-1.33682428859174251556396484375">
        <ele>1267.5999755859375</ele>
        <time>2022-08-23T13:33:02.000Z</time>
      </trkpt>
      <trkpt lat="40.30832223594188690185546875" lon="-1.33688363246619701385498046875">
        <ele>1268</ele>
        <time>2022-08-23T13:33:05.000Z</time>
      </trkpt>
      <trkpt lat="40.30834863893687725067138671875" lon="-1.33693459443747997283935546875">
        <ele>1268.199951171875</ele>
        <time>2022-08-23T13:33:08.000Z</time>
      </trkpt>
      <trkpt lat="40.308431200683116912841796875" lon="-1.3370756618678569793701171875">
        <ele>1268.800048828125</ele>
        <time>2022-08-23T13:33:16.000Z</time>
      </trkpt>
      <trkpt lat="40.30844134278595447540283203125" lon="-1.33709167130291461944580078125">
        <ele>1269</ele>
        <time>2022-08-23T13:33:17.000Z</time>
      </trkpt>
      <trkpt lat="40.30848090536892414093017578125" lon="-1.33718571625649929046630859375">
        <ele>1270</ele>
        <time>2022-08-23T13:33:22.000Z</time>
      </trkpt>
      <trkpt lat="40.30848543159663677215576171875" lon="-1.3372067548334598541259765625">
        <ele>1270.199951171875</ele>
        <time>2022-08-23T13:33:23.000Z</time>
      </trkpt>
      <trkpt lat="40.308541171252727508544921875" lon="-1.33737397380173206329345703125">
        <ele>1271</ele>
        <time>2022-08-23T13:33:31.000Z</time>
      </trkpt>
      <trkpt lat="40.3085482120513916015625" lon="-1.3373938389122486114501953125">
        <ele>1271.199951171875</ele>
        <time>2022-08-23T13:33:32.000Z</time>
      </trkpt>
      <trkpt lat="40.30856824479997158050537109375" lon="-1.33747472427785396575927734375">
        <ele>1271.5999755859375</ele>
        <time>2022-08-23T13:33:36.000Z</time>
      </trkpt>
      <trkpt lat="40.308586098253726959228515625" lon="-1.33758033625781536102294921875">
        <ele>1272.199951171875</ele>
        <time>2022-08-23T13:33:41.000Z</time>
      </trkpt>
      <trkpt lat="40.3086327016353607177734375" lon="-1.337709836661815643310546875">
        <ele>1273.4000244140625</ele>
        <time>2022-08-23T13:33:48.000Z</time>
      </trkpt>
      <trkpt lat="40.3086412511765956878662109375" lon="-1.3377287797629833221435546875">
        <ele>1273.4000244140625</ele>
        <time>2022-08-23T13:33:49.000Z</time>
      </trkpt>
      <trkpt lat="40.308706797659397125244140625" lon="-1.3378910534083843231201171875">
        <ele>1274.4000244140625</ele>
        <time>2022-08-23T13:33:57.000Z</time>
      </trkpt>
      <trkpt lat="40.308752395212650299072265625" lon="-1.33802440948784351348876953125">
        <ele>1275.199951171875</ele>
        <time>2022-08-23T13:34:03.000Z</time>
      </trkpt>
      <trkpt lat="40.308761112391948699951171875" lon="-1.33804368786513805389404296875">
        <ele>1275.4000244140625</ele>
        <time>2022-08-23T13:34:04.000Z</time>
      </trkpt>
      <trkpt lat="40.30880562029778957366943359375" lon="-1.33815072476863861083984375">
        <ele>1276.199951171875</ele>
        <time>2022-08-23T13:34:09.000Z</time>
      </trkpt>
      <trkpt lat="40.30883009545505046844482421875" lon="-1.3381864316761493682861328125">
        <ele>1276.800048828125</ele>
        <time>2022-08-23T13:34:11.000Z</time>
      </trkpt>
      <trkpt lat="40.30889547429978847503662109375" lon="-1.33829514496028423309326171875">
        <ele>1277.5999755859375</ele>
        <time>2022-08-23T13:34:17.000Z</time>
      </trkpt>
      <trkpt lat="40.30890570022165775299072265625" lon="-1.3383098132908344268798828125">
        <ele>1277.800048828125</ele>
        <time>2022-08-23T13:34:18.000Z</time>
      </trkpt>
      <trkpt lat="40.30896403826773166656494140625" lon="-1.33845373056828975677490234375">
        <ele>1278.5999755859375</ele>
        <time>2022-08-23T13:34:25.000Z</time>
      </trkpt>
      <trkpt lat="40.30899488367140293121337890625" lon="-1.33854475803673267364501953125">
        <ele>1278.800048828125</ele>
        <time>2022-08-23T13:34:29.000Z</time>
      </trkpt>
      <trkpt lat="40.3090117312967777252197265625" lon="-1.33861768059432506561279296875">
        <ele>1279.199951171875</ele>
        <time>2022-08-23T13:34:32.000Z</time>
      </trkpt>
      <trkpt lat="40.309019275009632110595703125" lon="-1.338722370564937591552734375">
        <ele>1280.199951171875</ele>
        <time>2022-08-23T13:34:36.000Z</time>
      </trkpt>
      <trkpt lat="40.3090184368193149566650390625" lon="-1.33879738859832286834716796875">
        <ele>1281.199951171875</ele>
        <time>2022-08-23T13:34:39.000Z</time>
      </trkpt>
      <trkpt lat="40.309016592800617218017578125" lon="-1.3388232886791229248046875">
        <ele>1281.5999755859375</ele>
        <time>2022-08-23T13:34:40.000Z</time>
      </trkpt>
      <trkpt lat="40.30900527723133563995361328125" lon="-1.33892043493688106536865234375">
        <ele>1282.5999755859375</ele>
        <time>2022-08-23T13:34:44.000Z</time>
      </trkpt>
      <trkpt lat="40.30899345874786376953125" lon="-1.33898380212485790252685546875">
        <ele>1283</ele>
        <time>2022-08-23T13:34:47.000Z</time>
      </trkpt>
      <trkpt lat="40.3089839033782482147216796875" lon="-1.33913367055356502532958984375">
        <ele>1283.199951171875</ele>
        <time>2022-08-23T13:34:54.000Z</time>
      </trkpt>
      <trkpt lat="40.3089828975498676300048828125" lon="-1.33919636718928813934326171875">
        <ele>1283.5999755859375</ele>
        <time>2022-08-23T13:34:57.000Z</time>
      </trkpt>
      <trkpt lat="40.3089892677962779998779296875" lon="-1.33930952288210391998291015625">
        <ele>1284.5999755859375</ele>
        <time>2022-08-23T13:35:02.000Z</time>
      </trkpt>
      <trkpt lat="40.30899387784302234649658203125" lon="-1.33935260586440563201904296875">
        <ele>1284.800048828125</ele>
        <time>2022-08-23T13:35:04.000Z</time>
      </trkpt>
      <trkpt lat="40.3090108931064605712890625" lon="-1.339470706880092620849609375">
        <ele>1285.199951171875</ele>
        <time>2022-08-23T13:35:10.000Z</time>
      </trkpt>
      <trkpt lat="40.3090204484760761260986328125" lon="-1.33953751064836978912353515625">
        <ele>1285.800048828125</ele>
        <time>2022-08-23T13:35:14.000Z</time>
      </trkpt>
      <trkpt lat="40.30902874656021595001220703125" lon="-1.3395962677896022796630859375">
        <ele>1286.4000244140625</ele>
        <time>2022-08-23T13:35:17.000Z</time>
      </trkpt>
      <trkpt lat="40.3090633638203144073486328125" lon="-1.33973817341029644012451171875">
        <ele>1286.800048828125</ele>
        <time>2022-08-23T13:35:24.000Z</time>
      </trkpt>
      <trkpt lat="40.3090707398951053619384765625" lon="-1.33977857418358325958251953125">
        <ele>1286.800048828125</ele>
        <time>2022-08-23T13:35:26.000Z</time>
      </trkpt>
      <trkpt lat="40.30907501466572284698486328125" lon="-1.33986105211079120635986328125">
        <ele>1287</ele>
        <time>2022-08-23T13:35:30.000Z</time>
      </trkpt>
      <trkpt lat="40.30907534994184970855712890625" lon="-1.34005106985569000244140625">
        <ele>1287.4000244140625</ele>
        <time>2022-08-23T13:35:38.000Z</time>
      </trkpt>
      <trkpt lat="40.30907719396054744720458984375" lon="-1.34020487777888774871826171875">
        <ele>1287.800048828125</ele>
        <time>2022-08-23T13:35:45.000Z</time>
      </trkpt>
      <trkpt lat="40.30907719396054744720458984375" lon="-1.34022516198456287384033203125">
        <ele>1288</ele>
        <time>2022-08-23T13:35:46.000Z</time>
      </trkpt>
      <trkpt lat="40.30907317064702510833740234375" lon="-1.3402842544019222259521484375">
        <ele>1289</ele>
        <time>2022-08-23T13:35:49.000Z</time>
      </trkpt>
      <trkpt lat="40.309075601398944854736328125" lon="-1.34035726077854633331298828125">
        <ele>1289.800048828125</ele>
        <time>2022-08-23T13:35:53.000Z</time>
      </trkpt>
      <trkpt lat="40.309076271951198577880859375" lon="-1.34040906094014644622802734375">
        <ele>1290</ele>
        <time>2022-08-23T13:35:56.000Z</time>
      </trkpt>
      <trkpt lat="40.309075601398944854736328125" lon="-1.3404817320406436920166015625">
        <ele>1290.800048828125</ele>
        <time>2022-08-23T13:36:00.000Z</time>
      </trkpt>
      <trkpt lat="40.3090690635144710540771484375" lon="-1.34051836095750331878662109375">
        <ele>1291.199951171875</ele>
        <time>2022-08-23T13:36:02.000Z</time>
      </trkpt>
      <trkpt lat="40.3090610168874263763427734375" lon="-1.3406257331371307373046875">
        <ele>1291.5999755859375</ele>
        <time>2022-08-23T13:36:08.000Z</time>
      </trkpt>
      <trkpt lat="40.3090606816112995147705078125" lon="-1.34068264625966548919677734375">
        <ele>1292.4000244140625</ele>
        <time>2022-08-23T13:36:11.000Z</time>
      </trkpt>
      <trkpt lat="40.30905137769877910614013671875" lon="-1.34079094044864177703857421875">
        <ele>1293.199951171875</ele>
        <time>2022-08-23T13:36:17.000Z</time>
      </trkpt>
      <trkpt lat="40.3090506233274936676025390625" lon="-1.34083268232643604278564453125">
        <ele>1293.4000244140625</ele>
        <time>2022-08-23T13:36:19.000Z</time>
      </trkpt>
      <trkpt lat="40.309044085443019866943359375" lon="-1.3409273140132427215576171875">
        <ele>1293.800048828125</ele>
        <time>2022-08-23T13:36:24.000Z</time>
      </trkpt>
      <trkpt lat="40.3090469352900981903076171875" lon="-1.34106737561523914337158203125">
        <ele>1294.199951171875</ele>
        <time>2022-08-23T13:36:31.000Z</time>
      </trkpt>
      <trkpt lat="40.309048108756542205810546875" lon="-1.341108195483684539794921875">
        <ele>1294.4000244140625</ele>
        <time>2022-08-23T13:36:33.000Z</time>
      </trkpt>
      <trkpt lat="40.30906395055353641510009765625" lon="-1.34122177027165889739990234375">
        <ele>1295.4000244140625</ele>
        <time>2022-08-23T13:36:39.000Z</time>
      </trkpt>
      <trkpt lat="40.30907115899026393890380859375" lon="-1.341261081397533416748046875">
        <ele>1295.5999755859375</ele>
        <time>2022-08-23T13:36:41.000Z</time>
      </trkpt>
      <trkpt lat="40.30909429304301738739013671875" lon="-1.3413601554930210113525390625">
        <ele>1296.199951171875</ele>
        <time>2022-08-23T13:36:46.000Z</time>
      </trkpt>
      <trkpt lat="40.30909228138625621795654296875" lon="-1.3414681144058704376220703125">
        <ele>1296.5999755859375</ele>
        <time>2022-08-23T13:36:51.000Z</time>
      </trkpt>
      <trkpt lat="40.309085659682750701904296875" lon="-1.3415358401834964752197265625">
        <ele>1296.5999755859375</ele>
        <time>2022-08-23T13:36:54.000Z</time>
      </trkpt>
      <trkpt lat="40.30908842571079730987548828125" lon="-1.34163868613541126251220703125">
        <ele>1297</ele>
        <time>2022-08-23T13:36:59.000Z</time>
      </trkpt>
      <trkpt lat="40.30908641405403614044189453125" lon="-1.34166039526462554931640625">
        <ele>1297</ele>
        <time>2022-08-23T13:37:00.000Z</time>
      </trkpt>
      <trkpt lat="40.3090650402009487152099609375" lon="-1.34177950210869312286376953125">
        <ele>1297.5999755859375</ele>
        <time>2022-08-23T13:37:06.000Z</time>
      </trkpt>
      <trkpt lat="40.30906043015420436859130859375" lon="-1.34182157926261425018310546875">
        <ele>1297.800048828125</ele>
        <time>2022-08-23T13:37:08.000Z</time>
      </trkpt>
      <trkpt lat="40.30905338935554027557373046875" lon="-1.34195736609399318695068359375">
        <ele>1298</ele>
        <time>2022-08-23T13:37:14.000Z</time>
      </trkpt>
      <trkpt lat="40.3090385533869266510009765625" lon="-1.34212349541485309600830078125">
        <ele>1298</ele>
        <time>2022-08-23T13:37:21.000Z</time>
      </trkpt>
      <trkpt lat="40.3090231306850910186767578125" lon="-1.34229750372469425201416015625">
        <ele>1298</ele>
        <time>2022-08-23T13:37:28.000Z</time>
      </trkpt>
      <trkpt lat="40.309015251696109771728515625" lon="-1.34247838519513607025146484375">
        <ele>1298.199951171875</ele>
        <time>2022-08-23T13:37:35.000Z</time>
      </trkpt>
      <trkpt lat="40.30901826918125152587890625" lon="-1.34256354533135890960693359375">
        <ele>1298.5999755859375</ele>
        <time>2022-08-23T13:37:38.000Z</time>
      </trkpt>
      <trkpt lat="40.3090201131999492645263671875" lon="-1.3426647149026393890380859375">
        <ele>1298.800048828125</ele>
        <time>2022-08-23T13:37:42.000Z</time>
      </trkpt>
      <trkpt lat="40.30901919119060039520263671875" lon="-1.34284568019211292266845703125">
        <ele>1299.199951171875</ele>
        <time>2022-08-23T13:37:50.000Z</time>
      </trkpt>
      <trkpt lat="40.30901785008609294891357421875" lon="-1.3429356180131435394287109375">
        <ele>1299.800048828125</ele>
        <time>2022-08-23T13:37:54.000Z</time>
      </trkpt>
      <trkpt lat="40.30901156365871429443359375" lon="-1.34298364631831645965576171875">
        <ele>1300</ele>
        <time>2022-08-23T13:37:56.000Z</time>
      </trkpt>
      <trkpt lat="40.3089936263859272003173828125" lon="-1.343126557767391204833984375">
        <ele>1300.199951171875</ele>
        <time>2022-08-23T13:38:02.000Z</time>
      </trkpt>
      <trkpt lat="40.30898147262632846832275390625" lon="-1.34331020526587963104248046875">
        <ele>1300.5999755859375</ele>
        <time>2022-08-23T13:38:10.000Z</time>
      </trkpt>
      <trkpt lat="40.308985412120819091796875" lon="-1.34346627630293369293212890625">
        <ele>1301.4000244140625</ele>
        <time>2022-08-23T13:38:17.000Z</time>
      </trkpt>
      <trkpt lat="40.30899002216756343841552734375" lon="-1.34352662600576877593994140625">
        <ele>1301.5999755859375</ele>
        <time>2022-08-23T13:38:20.000Z</time>
      </trkpt>
      <trkpt lat="40.3089942969381809234619140625" lon="-1.34359686635434627532958984375">
        <ele>1302.199951171875</ele>
        <time>2022-08-23T13:38:24.000Z</time>
      </trkpt>
      <trkpt lat="40.30899471603333950042724609375" lon="-1.34361010976135730743408203125">
        <ele>1302.4000244140625</ele>
        <time>2022-08-23T13:38:25.000Z</time>
      </trkpt>
      <trkpt lat="40.30899924226105213165283203125" lon="-1.3436383567750453948974609375">
        <ele>1302.5999755859375</ele>
        <time>2022-08-23T13:38:27.000Z</time>
      </trkpt>
      <trkpt lat="40.30900326557457447052001953125" lon="-1.34373634122312068939208984375">
        <ele>1303.4000244140625</ele>
        <time>2022-08-23T13:38:32.000Z</time>
      </trkpt>
      <trkpt lat="40.309001505374908447265625" lon="-1.343792416155338287353515625">
        <ele>1303.800048828125</ele>
        <time>2022-08-23T13:38:35.000Z</time>
      </trkpt>
      <trkpt lat="40.3090194426476955413818359375" lon="-1.3438713736832141876220703125">
        <ele>1304.4000244140625</ele>
        <time>2022-08-23T13:38:40.000Z</time>
      </trkpt>
      <trkpt lat="40.30902137048542499542236328125" lon="-1.34394756518304347991943359375">
        <ele>1304.5999755859375</ele>
        <time>2022-08-23T13:38:44.000Z</time>
      </trkpt>
      <trkpt lat="40.30902354978024959564208984375" lon="-1.34398327209055423736572265625">
        <ele>1304.5999755859375</ele>
        <time>2022-08-23T13:38:46.000Z</time>
      </trkpt>
      <trkpt lat="40.3090452589094638824462890625" lon="-1.34412140585482120513916015625">
        <ele>1305.199951171875</ele>
        <time>2022-08-23T13:38:53.000Z</time>
      </trkpt>
      <trkpt lat="40.30905741266906261444091796875" lon="-1.34420036338269710540771484375">
        <ele>1305.5999755859375</ele>
        <time>2022-08-23T13:38:57.000Z</time>
      </trkpt>
      <trkpt lat="40.30907702632248401641845703125" lon="-1.3442586176097393035888671875">
        <ele>1305.800048828125</ele>
        <time>2022-08-23T13:39:00.000Z</time>
      </trkpt>
      <trkpt lat="40.30909513123333454132080078125" lon="-1.3443933986127376556396484375">
        <ele>1306.4000244140625</ele>
        <time>2022-08-23T13:39:07.000Z</time>
      </trkpt>
      <trkpt lat="40.3090982325375080108642578125" lon="-1.344459615647792816162109375">
        <ele>1306.5999755859375</ele>
        <time>2022-08-23T13:39:10.000Z</time>
      </trkpt>
      <trkpt lat="40.30911843292415142059326171875" lon="-1.34450881741940975189208984375">
        <ele>1306.800048828125</ele>
        <time>2022-08-23T13:39:13.000Z</time>
      </trkpt>
      <trkpt lat="40.3091230429708957672119140625" lon="-1.3445268385112285614013671875">
        <ele>1306.800048828125</ele>
        <time>2022-08-23T13:39:14.000Z</time>
      </trkpt>
      <trkpt lat="40.30912430025637149810791015625" lon="-1.34454645216464996337890625">
        <ele>1307</ele>
        <time>2022-08-23T13:39:15.000Z</time>
      </trkpt>
      <trkpt lat="40.30913435854017734527587890625" lon="-1.34462230838835239410400390625">
        <ele>1307.5999755859375</ele>
        <time>2022-08-23T13:39:19.000Z</time>
      </trkpt>
      <trkpt lat="40.3091334365308284759521484375" lon="-1.3446410000324249267578125">
        <ele>1307.5999755859375</ele>
        <time>2022-08-23T13:39:20.000Z</time>
      </trkpt>
      <trkpt lat="40.309135280549526214599609375" lon="-1.3446998409926891326904296875">
        <ele>1308</ele>
        <time>2022-08-23T13:39:23.000Z</time>
      </trkpt>
      <trkpt lat="40.3091369569301605224609375" lon="-1.34474468417465686798095703125">
        <ele>1308.4000244140625</ele>
        <time>2022-08-23T13:39:25.000Z</time>
      </trkpt>
      <trkpt lat="40.30913653783500194549560546875" lon="-1.34476765058934688568115234375">
        <ele>1308.5999755859375</ele>
        <time>2022-08-23T13:39:26.000Z</time>
      </trkpt>
      <trkpt lat="40.309162773191928863525390625" lon="-1.34488114155828952789306640625">
        <ele>1309.5999755859375</ele>
        <time>2022-08-23T13:39:32.000Z</time>
      </trkpt>
      <trkpt lat="40.30918364413082599639892578125" lon="-1.34497317485511302947998046875">
        <ele>1310.800048828125</ele>
        <time>2022-08-23T13:39:37.000Z</time>
      </trkpt>
      <trkpt lat="40.30918666161596775054931640625" lon="-1.34499312378466129302978515625">
        <ele>1311</ele>
        <time>2022-08-23T13:39:38.000Z</time>
      </trkpt>
      <trkpt lat="40.3091906011104583740234375" lon="-1.3450676389038562774658203125">
        <ele>1311.800048828125</ele>
        <time>2022-08-23T13:39:42.000Z</time>
      </trkpt>
      <trkpt lat="40.309193618595600128173828125" lon="-1.34511348791420459747314453125">
        <ele>1312</ele>
        <time>2022-08-23T13:39:44.000Z</time>
      </trkpt>
      <trkpt lat="40.30920191667973995208740234375" lon="-1.34520434774458408355712890625">
        <ele>1312.800048828125</ele>
        <time>2022-08-23T13:39:48.000Z</time>
      </trkpt>
      <trkpt lat="40.309211052954196929931640625" lon="-1.34528699330985546112060546875">
        <ele>1313.800048828125</ele>
        <time>2022-08-23T13:39:52.000Z</time>
      </trkpt>
      <trkpt lat="40.309212394058704376220703125" lon="-1.34530962444841861724853515625">
        <ele>1313.800048828125</ele>
        <time>2022-08-23T13:39:53.000Z</time>
      </trkpt>
      <trkpt lat="40.30921314842998981475830078125" lon="-1.3454510271549224853515625">
        <ele>1315</ele>
        <time>2022-08-23T13:40:00.000Z</time>
      </trkpt>
      <trkpt lat="40.30921331606805324554443359375" lon="-1.34547206573188304901123046875">
        <ele>1315</ele>
        <time>2022-08-23T13:40:01.000Z</time>
      </trkpt>
      <trkpt lat="40.3091857396066188812255859375" lon="-1.34560919366776943206787109375">
        <ele>1315.5999755859375</ele>
        <time>2022-08-23T13:40:08.000Z</time>
      </trkpt>
      <trkpt lat="40.30916620977222919464111328125" lon="-1.3456682860851287841796875">
        <ele>1316</ele>
        <time>2022-08-23T13:40:11.000Z</time>
      </trkpt>
      <trkpt lat="40.3091428242623805999755859375" lon="-1.3457455672323703765869140625">
        <ele>1316.5999755859375</ele>
        <time>2022-08-23T13:40:15.000Z</time>
      </trkpt>
      <trkpt lat="40.30914223752915859222412109375" lon="-1.34579309262335300445556640625">
        <ele>1317</ele>
        <time>2022-08-23T13:40:17.000Z</time>
      </trkpt>
      <trkpt lat="40.30916319228708744049072265625" lon="-1.34588797576725482940673828125">
        <ele>1317.4000244140625</ele>
        <time>2022-08-23T13:40:21.000Z</time>
      </trkpt>
      <trkpt lat="40.30920359306037425994873046875" lon="-1.3460151292383670806884765625">
        <ele>1317.4000244140625</ele>
        <time>2022-08-23T13:40:28.000Z</time>
      </trkpt>
      <trkpt lat="40.3092444129288196563720703125" lon="-1.34614530019462108612060546875">
        <ele>1317.4000244140625</ele>
        <time>2022-08-23T13:40:35.000Z</time>
      </trkpt>
      <trkpt lat="40.3092859871685504913330078125" lon="-1.34625577367842197418212890625">
        <ele>1317.800048828125</ele>
        <time>2022-08-23T13:40:41.000Z</time>
      </trkpt>
      <trkpt lat="40.30929981730878353118896484375" lon="-1.34629198350012302398681640625">
        <ele>1318</ele>
        <time>2022-08-23T13:40:43.000Z</time>
      </trkpt>
      <trkpt lat="40.30932580120861530303955078125" lon="-1.3463951647281646728515625">
        <ele>1318.800048828125</ele>
        <time>2022-08-23T13:40:49.000Z</time>
      </trkpt>
      <trkpt lat="40.30934725888073444366455078125" lon="-1.34652902372181415557861328125">
        <ele>1320</ele>
        <time>2022-08-23T13:40:56.000Z</time>
      </trkpt>
      <trkpt lat="40.309380702674388885498046875" lon="-1.34664125740528106689453125">
        <ele>1321</ele>
        <time>2022-08-23T13:41:02.000Z</time>
      </trkpt>
      <trkpt lat="40.309387408196926116943359375" lon="-1.34665793739259243011474609375">
        <ele>1321.199951171875</ele>
        <time>2022-08-23T13:41:03.000Z</time>
      </trkpt>
      <trkpt lat="40.30943979509174823760986328125" lon="-1.3467597775161266326904296875">
        <ele>1322.199951171875</ele>
        <time>2022-08-23T13:41:10.000Z</time>
      </trkpt>
      <trkpt lat="40.30944817699491977691650390625" lon="-1.3467733561992645263671875">
        <ele>1322.4000244140625</ele>
        <time>2022-08-23T13:41:11.000Z</time>
      </trkpt>
      <trkpt lat="40.30949343927204608917236328125" lon="-1.34682976640760898590087890625">
        <ele>1323.4000244140625</ele>
        <time>2022-08-23T13:41:15.000Z</time>
      </trkpt>
      <trkpt lat="40.30951179563999176025390625" lon="-1.346856839954853057861328125">
        <ele>1323.5999755859375</ele>
        <time>2022-08-23T13:41:17.000Z</time>
      </trkpt>
      <trkpt lat="40.30957206152379512786865234375" lon="-1.34694560430943965911865234375">
        <ele>1324.4000244140625</ele>
        <time>2022-08-23T13:41:23.000Z</time>
      </trkpt>
      <trkpt lat="40.309592597186565399169921875" lon="-1.346976868808269500732421875">
        <ele>1324.5999755859375</ele>
        <time>2022-08-23T13:41:25.000Z</time>
      </trkpt>
      <trkpt lat="40.30965705402195453643798828125" lon="-1.34709849022328853607177734375">
        <ele>1325.4000244140625</ele>
        <time>2022-08-23T13:41:32.000Z</time>
      </trkpt>
      <trkpt lat="40.309669040143489837646484375" lon="-1.347114332020282745361328125">
        <ele>1325.4000244140625</ele>
        <time>2022-08-23T13:41:33.000Z</time>
      </trkpt>
      <trkpt lat="40.30972234904766082763671875" lon="-1.347175352275371551513671875">
        <ele>1325.800048828125</ele>
        <time>2022-08-23T13:41:38.000Z</time>
      </trkpt>
      <trkpt lat="40.30973374843597412109375" lon="-1.34718650020658969879150390625">
        <ele>1326.199951171875</ele>
        <time>2022-08-23T13:41:39.000Z</time>
      </trkpt>
      <trkpt lat="40.30974590219557285308837890625" lon="-1.34719840250909328460693359375">
        <ele>1326.4000244140625</ele>
        <time>2022-08-23T13:41:40.000Z</time>
      </trkpt>
      <trkpt lat="40.30982100404798984527587890625" lon="-1.3472938723862171173095703125">
        <ele>1327.4000244140625</ele>
        <time>2022-08-23T13:41:47.000Z</time>
      </trkpt>
      <trkpt lat="40.309827961027622222900390625" lon="-1.3473160006105899810791015625">
        <ele>1327.5999755859375</ele>
        <time>2022-08-23T13:41:48.000Z</time>
      </trkpt>
      <trkpt lat="40.30987146310508251190185546875" lon="-1.3473773561418056488037109375">
        <ele>1328</ele>
        <time>2022-08-23T13:41:52.000Z</time>
      </trkpt>
      <trkpt lat="40.30991789884865283966064453125" lon="-1.34743309579789638519287109375">
        <ele>1328.5999755859375</ele>
        <time>2022-08-23T13:41:56.000Z</time>
      </trkpt>
      <trkpt lat="40.30993566848337650299072265625" lon="-1.34746427647769451141357421875">
        <ele>1329</ele>
        <time>2022-08-23T13:41:58.000Z</time>
      </trkpt>
      <trkpt lat="40.31002652831375598907470703125" lon="-1.34758514352142810821533203125">
        <ele>1329.800048828125</ele>
        <time>2022-08-23T13:42:06.000Z</time>
      </trkpt>
      <trkpt lat="40.31010230071842670440673828125" lon="-1.3477039150893688201904296875">
        <ele>1330.4000244140625</ele>
        <time>2022-08-23T13:42:13.000Z</time>
      </trkpt>
      <trkpt lat="40.31011956743896007537841796875" lon="-1.34773685596883296966552734375">
        <ele>1330.5999755859375</ele>
        <time>2022-08-23T13:42:15.000Z</time>
      </trkpt>
      <trkpt lat="40.3101483173668384552001953125" lon="-1.34776971302926540374755859375">
        <ele>1331</ele>
        <time>2022-08-23T13:42:18.000Z</time>
      </trkpt>
      <trkpt lat="40.31023641116917133331298828125" lon="-1.3478809408843517303466796875">
        <ele>1331.5999755859375</ele>
        <time>2022-08-23T13:42:26.000Z</time>
      </trkpt>
      <trkpt lat="40.31024940311908721923828125" lon="-1.3478945195674896240234375">
        <ele>1331.800048828125</ele>
        <time>2022-08-23T13:42:27.000Z</time>
      </trkpt>
      <trkpt lat="40.3103278577327728271484375" lon="-1.34797942824661731719970703125">
        <ele>1332</ele>
        <time>2022-08-23T13:42:33.000Z</time>
      </trkpt>
      <trkpt lat="40.31041276641190052032470703125" lon="-1.34812091477215290069580078125">
        <ele>1332.800048828125</ele>
        <time>2022-08-23T13:42:41.000Z</time>
      </trkpt>
      <trkpt lat="40.3104916401207447052001953125" lon="-1.3482510857284069061279296875">
        <ele>1333.199951171875</ele>
        <time>2022-08-23T13:42:48.000Z</time>
      </trkpt>
      <trkpt lat="40.31056590378284454345703125" lon="-1.34836860001087188720703125">
        <ele>1333.800048828125</ele>
        <time>2022-08-23T13:42:55.000Z</time>
      </trkpt>
      <trkpt lat="40.31057529151439666748046875" lon="-1.34838192723691463470458984375">
        <ele>1334</ele>
        <time>2022-08-23T13:42:56.000Z</time>
      </trkpt>
      <trkpt lat="40.310662798583507537841796875" lon="-1.348511762917041778564453125">
        <ele>1334.800048828125</ele>
        <time>2022-08-23T13:43:04.000Z</time>
      </trkpt>
      <trkpt lat="40.31072373501956462860107421875" lon="-1.348574794828891754150390625">
        <ele>1334.800048828125</ele>
        <time>2022-08-23T13:43:08.000Z</time>
      </trkpt>
      <trkpt lat="40.31076698563992977142333984375" lon="-1.3486254215240478515625">
        <ele>1334.800048828125</ele>
        <time>2022-08-23T13:43:11.000Z</time>
      </trkpt>
      <trkpt lat="40.3108812309801578521728515625" lon="-1.34872860275208950042724609375">
        <ele>1335</ele>
        <time>2022-08-23T13:43:18.000Z</time>
      </trkpt>
      <trkpt lat="40.31100218184292316436767578125" lon="-1.3488431833684444427490234375">
        <ele>1335.199951171875</ele>
        <time>2022-08-23T13:43:25.000Z</time>
      </trkpt>
      <trkpt lat="40.3111082129180431365966796875" lon="-1.348923146724700927734375">
        <ele>1335.5999755859375</ele>
        <time>2022-08-23T13:43:31.000Z</time>
      </trkpt>
      <trkpt lat="40.311183147132396697998046875" lon="-1.34897083975374698638916015625">
        <ele>1335.800048828125</ele>
        <time>2022-08-23T13:43:35.000Z</time>
      </trkpt>
      <trkpt lat="40.311270654201507568359375" lon="-1.34901844896376132965087890625">
        <ele>1336</ele>
        <time>2022-08-23T13:43:40.000Z</time>
      </trkpt>
      <trkpt lat="40.31134307384490966796875" lon="-1.3490762002766132354736328125">
        <ele>1336.199951171875</ele>
        <time>2022-08-23T13:43:45.000Z</time>
      </trkpt>
      <trkpt lat="40.31140367500483989715576171875" lon="-1.3491204567253589630126953125">
        <ele>1336.5999755859375</ele>
        <time>2022-08-23T13:43:49.000Z</time>
      </trkpt>
      <trkpt lat="40.311436951160430908203125" lon="-1.34914048947393894195556640625">
        <ele>1336.800048828125</ele>
        <time>2022-08-23T13:43:52.000Z</time>
      </trkpt>
      <trkpt lat="40.31148699112236499786376953125" lon="-1.34917351417243480682373046875">
        <ele>1336.800048828125</ele>
        <time>2022-08-23T13:43:55.000Z</time>
      </trkpt>
      <trkpt lat="40.311578102409839630126953125" lon="-1.3492317683994770050048828125">
        <ele>1337.4000244140625</ele>
        <time>2022-08-23T13:44:01.000Z</time>
      </trkpt>
      <trkpt lat="40.31160601414740085601806640625" lon="-1.34925783611834049224853515625">
        <ele>1337.5999755859375</ele>
        <time>2022-08-23T13:44:03.000Z</time>
      </trkpt>
      <trkpt lat="40.3117145597934722900390625" lon="-1.34931885637342929840087890625">
        <ele>1338.5999755859375</ele>
        <time>2022-08-23T13:44:09.000Z</time>
      </trkpt>
      <trkpt lat="40.3117455728352069854736328125" lon="-1.34933327324688434600830078125">
        <ele>1338.5999755859375</ele>
        <time>2022-08-23T13:44:11.000Z</time>
      </trkpt>
      <trkpt lat="40.3118347562849521636962890625" lon="-1.349362023174762725830078125">
        <ele>1339.199951171875</ele>
        <time>2022-08-23T13:44:16.000Z</time>
      </trkpt>
      <trkpt lat="40.31190776266157627105712890625" lon="-1.34937576949596405029296875">
        <ele>1339.800048828125</ele>
        <time>2022-08-23T13:44:20.000Z</time>
      </trkpt>
      <trkpt lat="40.31196911819279193878173828125" lon="-1.349380798637866973876953125">
        <ele>1340</ele>
        <time>2022-08-23T13:44:23.000Z</time>
      </trkpt>
      <trkpt lat="40.31207389198243618011474609375" lon="-1.34940326213836669921875">
        <ele>1340.800048828125</ele>
        <time>2022-08-23T13:44:28.000Z</time>
      </trkpt>
      <trkpt lat="40.312133319675922393798828125" lon="-1.34940938092768192291259765625">
        <ele>1341</ele>
        <time>2022-08-23T13:44:31.000Z</time>
      </trkpt>
      <trkpt lat="40.31231336295604705810546875" lon="-1.34941491298377513885498046875">
        <ele>1341.800048828125</ele>
        <time>2022-08-23T13:44:40.000Z</time>
      </trkpt>
      <trkpt lat="40.3123346529901027679443359375" lon="-1.34941474534571170806884765625">
        <ele>1341.800048828125</ele>
        <time>2022-08-23T13:44:41.000Z</time>
      </trkpt>
      <trkpt lat="40.31246046535670757293701171875" lon="-1.34938607923686504364013671875">
        <ele>1342.4000244140625</ele>
        <time>2022-08-23T13:44:47.000Z</time>
      </trkpt>
      <trkpt lat="40.31259273178875446319580078125" lon="-1.34936227463185787200927734375">
        <ele>1342.800048828125</ele>
        <time>2022-08-23T13:44:53.000Z</time>
      </trkpt>
      <trkpt lat="40.312611758708953857421875" lon="-1.3493601791560649871826171875">
        <ele>1342.800048828125</ele>
        <time>2022-08-23T13:44:54.000Z</time>
      </trkpt>
      <trkpt lat="40.31272147782146930694580078125" lon="-1.34933411143720149993896484375">
        <ele>1343.199951171875</ele>
        <time>2022-08-23T13:44:59.000Z</time>
      </trkpt>
      <trkpt lat="40.31285458244383335113525390625" lon="-1.3493038527667522430419921875">
        <ele>1343.5999755859375</ele>
        <time>2022-08-23T13:45:06.000Z</time>
      </trkpt>
      <trkpt lat="40.31299288384616374969482421875" lon="-1.34926672093570232391357421875">
        <ele>1344.199951171875</ele>
        <time>2022-08-23T13:45:13.000Z</time>
      </trkpt>
      <trkpt lat="40.3130739368498325347900390625" lon="-1.34926051832735538482666015625">
        <ele>1344.5999755859375</ele>
        <time>2022-08-23T13:45:17.000Z</time>
      </trkpt>
      <trkpt lat="40.3131269104778766632080078125" lon="-1.34925817139446735382080078125">
        <ele>1344.800048828125</ele>
        <time>2022-08-23T13:45:20.000Z</time>
      </trkpt>
      <trkpt lat="40.31326211057603359222412109375" lon="-1.34925641119480133056640625">
        <ele>1345.4000244140625</ele>
        <time>2022-08-23T13:45:28.000Z</time>
      </trkpt>
      <trkpt lat="40.3133522160351276397705078125" lon="-1.34926102124154567718505859375">
        <ele>1345.800048828125</ele>
        <time>2022-08-23T13:45:33.000Z</time>
      </trkpt>
      <trkpt lat="40.31338750384747982025146484375" lon="-1.349261105060577392578125">
        <ele>1345.800048828125</ele>
        <time>2022-08-23T13:45:35.000Z</time>
      </trkpt>
      <trkpt lat="40.3135049343109130859375" lon="-1.34927728213369846343994140625">
        <ele>1346.4000244140625</ele>
        <time>2022-08-23T13:45:40.000Z</time>
      </trkpt>
      <trkpt lat="40.31357509084045886993408203125" lon="-1.34928717277944087982177734375">
        <ele>1346.5999755859375</ele>
        <time>2022-08-23T13:45:43.000Z</time>
      </trkpt>
      <trkpt lat="40.313599817454814910888671875" lon="-1.34929371066391468048095703125">
        <ele>1346.800048828125</ele>
        <time>2022-08-23T13:45:44.000Z</time>
      </trkpt>
      <trkpt lat="40.31372244469821453094482421875" lon="-1.349322460591793060302734375">
        <ele>1347.199951171875</ele>
        <time>2022-08-23T13:45:50.000Z</time>
      </trkpt>
      <trkpt lat="40.31390131451189517974853515625" lon="-1.34938993491232395172119140625">
        <ele>1347.199951171875</ele>
        <time>2022-08-23T13:45:57.000Z</time>
      </trkpt>
      <trkpt lat="40.3140720538794994354248046875" lon="-1.34945749305188655853271484375">
        <ele>1347.5999755859375</ele>
        <time>2022-08-23T13:46:04.000Z</time>
      </trkpt>
      <trkpt lat="40.31409703195095062255859375" lon="-1.34946637786924839019775390625">
        <ele>1347.5999755859375</ele>
        <time>2022-08-23T13:46:05.000Z</time>
      </trkpt>
      <trkpt lat="40.31433834694325923919677734375" lon="-1.34954474866390228271484375">
        <ele>1348.5999755859375</ele>
        <time>2022-08-23T13:46:15.000Z</time>
      </trkpt>
      <trkpt lat="40.31454336829483509063720703125" lon="-1.3496267236769199371337890625">
        <ele>1349.5999755859375</ele>
        <time>2022-08-23T13:46:24.000Z</time>
      </trkpt>
      <trkpt lat="40.31456633470952510833740234375" lon="-1.3496357761323451995849609375">
        <ele>1349.800048828125</ele>
        <time>2022-08-23T13:46:25.000Z</time>
      </trkpt>
      <trkpt lat="40.3147722780704498291015625" lon="-1.34971934370696544647216796875">
        <ele>1350.800048828125</ele>
        <time>2022-08-23T13:46:34.000Z</time>
      </trkpt>
      <trkpt lat="40.31479398719966411590576171875" lon="-1.3497309945523738861083984375">
        <ele>1350.800048828125</ele>
        <time>2022-08-23T13:46:35.000Z</time>
      </trkpt>
      <trkpt lat="40.3149414248764514923095703125" lon="-1.34981690905988216400146484375">
        <ele>1351.5999755859375</ele>
        <time>2022-08-23T13:46:42.000Z</time>
      </trkpt>
      <trkpt lat="40.31499649398028850555419921875" lon="-1.34986795485019683837890625">
        <ele>1352</ele>
        <time>2022-08-23T13:46:45.000Z</time>
      </trkpt>
      <trkpt lat="40.31509791500866413116455078125" lon="-1.349972225725650787353515625">
        <ele>1352.800048828125</ele>
        <time>2022-08-23T13:46:51.000Z</time>
      </trkpt>
      <trkpt lat="40.31512440182268619537353515625" lon="-1.35001472197473049163818359375">
        <ele>1353</ele>
        <time>2022-08-23T13:46:53.000Z</time>
      </trkpt>
      <trkpt lat="40.3151801414787769317626953125" lon="-1.3501370139420032501220703125">
        <ele>1353</ele>
        <time>2022-08-23T13:46:58.000Z</time>
      </trkpt>
      <trkpt lat="40.31521844677627086639404296875" lon="-1.35031211189925670623779296875">
        <ele>1353</ele>
        <time>2022-08-23T13:47:05.000Z</time>
      </trkpt>
      <trkpt lat="40.31527183949947357177734375" lon="-1.3504890538752079010009765625">
        <ele>1353.4000244140625</ele>
        <time>2022-08-23T13:47:12.000Z</time>
      </trkpt>
      <trkpt lat="40.31533109955489635467529296875" lon="-1.35059609077870845794677734375">
        <ele>1354</ele>
        <time>2022-08-23T13:47:17.000Z</time>
      </trkpt>
      <trkpt lat="40.3153487853705883026123046875" lon="-1.3506074063479900360107421875">
        <ele>1354.199951171875</ele>
        <time>2022-08-23T13:47:18.000Z</time>
      </trkpt>
      <trkpt lat="40.31546655111014842987060546875" lon="-1.3506617210805416107177734375">
        <ele>1355</ele>
        <time>2022-08-23T13:47:24.000Z</time>
      </trkpt>
      <trkpt lat="40.3156877495348453521728515625" lon="-1.35067890398204326629638671875">
        <ele>1355.199951171875</ele>
        <time>2022-08-23T13:47:30.000Z</time>
      </trkpt>
      <trkpt lat="40.31601539812982082366943359375" lon="-1.3507063128054141998291015625">
        <ele>1354.5999755859375</ele>
        <time>2022-08-23T13:47:37.000Z</time>
      </trkpt>
      <trkpt lat="40.31623936258256435394287109375" lon="-1.3507234118878841400146484375">
        <ele>1353.800048828125</ele>
        <time>2022-08-23T13:47:41.000Z</time>
      </trkpt>
      <trkpt lat="40.316355787217617034912109375" lon="-1.3507210649549961090087890625">
        <ele>1353.4000244140625</ele>
        <time>2022-08-23T13:47:43.000Z</time>
      </trkpt>
      <trkpt lat="40.3164793364703655242919921875" lon="-1.350713185966014862060546875">
        <ele>1352.5999755859375</ele>
        <time>2022-08-23T13:47:45.000Z</time>
      </trkpt>
      <trkpt lat="40.3167475573718547821044921875" lon="-1.35068871080875396728515625">
        <ele>1351.5999755859375</ele>
        <time>2022-08-23T13:47:49.000Z</time>
      </trkpt>
      <trkpt lat="40.31681570224463939666748046875" lon="-1.35067999362945556640625">
        <ele>1351.199951171875</ele>
        <time>2022-08-23T13:47:50.000Z</time>
      </trkpt>
      <trkpt lat="40.31695735640823841094970703125" lon="-1.3506637327373027801513671875">
        <ele>1350.5999755859375</ele>
        <time>2022-08-23T13:47:52.000Z</time>
      </trkpt>
      <trkpt lat="40.3171723522245883941650390625" lon="-1.3506479747593402862548828125">
        <ele>1349.4000244140625</ele>
        <time>2022-08-23T13:47:55.000Z</time>
      </trkpt>
      <trkpt lat="40.31732532195746898651123046875" lon="-1.3506464660167694091796875">
        <ele>1348.199951171875</ele>
        <time>2022-08-23T13:47:57.000Z</time>
      </trkpt>
      <trkpt lat="40.3175773657858371734619140625" lon="-1.350670941174030303955078125">
        <ele>1346.5999755859375</ele>
        <time>2022-08-23T13:48:00.000Z</time>
      </trkpt>
      <trkpt lat="40.31766571104526519775390625" lon="-1.35068628005683422088623046875">
        <ele>1346</ele>
        <time>2022-08-23T13:48:01.000Z</time>
      </trkpt>
      <trkpt lat="40.3177547268569469451904296875" lon="-1.35070103220641613006591796875">
        <ele>1345.4000244140625</ele>
        <time>2022-08-23T13:48:02.000Z</time>
      </trkpt>
      <trkpt lat="40.31792714260518550872802734375" lon="-1.35073036886751651763916015625">
        <ele>1344.199951171875</ele>
        <time>2022-08-23T13:48:04.000Z</time>
      </trkpt>
      <trkpt lat="40.31819703988730907440185546875" lon="-1.35077747516334056854248046875">
        <ele>1343</ele>
        <time>2022-08-23T13:48:07.000Z</time>
      </trkpt>
      <trkpt lat="40.318473391234874725341796875" lon="-1.35084687732160091400146484375">
        <ele>1341.5999755859375</ele>
        <time>2022-08-23T13:48:10.000Z</time>
      </trkpt>
      <trkpt lat="40.31865921802818775177001953125" lon="-1.350911669433116912841796875">
        <ele>1340.4000244140625</ele>
        <time>2022-08-23T13:48:12.000Z</time>
      </trkpt>
      <trkpt lat="40.31883758492767810821533203125" lon="-1.35098098777234554290771484375">
        <ele>1339.199951171875</ele>
        <time>2022-08-23T13:48:14.000Z</time>
      </trkpt>
      <trkpt lat="40.31901620328426361083984375" lon="-1.35104016400873661041259765625">
        <ele>1338</ele>
        <time>2022-08-23T13:48:16.000Z</time>
      </trkpt>
      <trkpt lat="40.3191964142024517059326171875" lon="-1.35109665803611278533935546875">
        <ele>1336.5999755859375</ele>
        <time>2022-08-23T13:48:18.000Z</time>
      </trkpt>
      <trkpt lat="40.3192909620702266693115234375" lon="-1.35112230665981769561767578125">
        <ele>1335.5999755859375</ele>
        <time>2022-08-23T13:48:19.000Z</time>
      </trkpt>
      <trkpt lat="40.319481901824474334716796875" lon="-1.3511743582785129547119140625">
        <ele>1334.199951171875</ele>
        <time>2022-08-23T13:48:21.000Z</time>
      </trkpt>
      <trkpt lat="40.3196698240935802459716796875" lon="-1.35121978819370269775390625">
        <ele>1332.5999755859375</ele>
        <time>2022-08-23T13:48:23.000Z</time>
      </trkpt>
      <trkpt lat="40.31994667835533618927001953125" lon="-1.3512876816093921661376953125">
        <ele>1331.199951171875</ele>
        <time>2022-08-23T13:48:26.000Z</time>
      </trkpt>
      <trkpt lat="40.32013828866183757781982421875" lon="-1.3513168506324291229248046875">
        <ele>1329.800048828125</ele>
        <time>2022-08-23T13:48:28.000Z</time>
      </trkpt>
      <trkpt lat="40.32033023424446582794189453125" lon="-1.3513175211846828460693359375">
        <ele>1328.800048828125</ele>
        <time>2022-08-23T13:48:30.000Z</time>
      </trkpt>
      <trkpt lat="40.320502482354640960693359375" lon="-1.35130821727216243743896484375">
        <ele>1327.199951171875</ele>
        <time>2022-08-23T13:48:32.000Z</time>
      </trkpt>
      <trkpt lat="40.3206454776227474212646484375" lon="-1.35129698552191257476806640625">
        <ele>1326</ele>
        <time>2022-08-23T13:48:34.000Z</time>
      </trkpt>
      <trkpt lat="40.32078084535896778106689453125" lon="-1.35129086673259735107421875">
        <ele>1325</ele>
        <time>2022-08-23T13:48:36.000Z</time>
      </trkpt>
      <trkpt lat="40.3209079988300800323486328125" lon="-1.35127921588718891143798828125">
        <ele>1323.4000244140625</ele>
        <time>2022-08-23T13:48:38.000Z</time>
      </trkpt>
      <trkpt lat="40.3210233338177204132080078125" lon="-1.3512675650417804718017578125">
        <ele>1322</ele>
        <time>2022-08-23T13:48:40.000Z</time>
      </trkpt>
      <trkpt lat="40.32112332992255687713623046875" lon="-1.35125021450221538543701171875">
        <ele>1320.5999755859375</ele>
        <time>2022-08-23T13:48:42.000Z</time>
      </trkpt>
      <trkpt lat="40.32123648561537265777587890625" lon="-1.3512367196381092071533203125">
        <ele>1319.4000244140625</ele>
        <time>2022-08-23T13:48:45.000Z</time>
      </trkpt>
      <trkpt lat="40.32129566185176372528076171875" lon="-1.3512246496975421905517578125">
        <ele>1318.199951171875</ele>
        <time>2022-08-23T13:48:47.000Z</time>
      </trkpt>
      <trkpt lat="40.32134863547980785369873046875" lon="-1.351228840649127960205078125">
        <ele>1317.4000244140625</ele>
        <time>2022-08-23T13:48:50.000Z</time>
      </trkpt>
      <trkpt lat="40.32134704291820526123046875" lon="-1.3512303493916988372802734375">
        <ele>1317</ele>
        <time>2022-08-23T13:48:51.000Z</time>
      </trkpt>
      <trkpt lat="40.3213465400040149688720703125" lon="-1.3512310199439525604248046875">
        <ele>1316.5999755859375</ele>
        <time>2022-08-23T13:48:52.000Z</time>
      </trkpt>
      <trkpt lat="40.32138735987246036529541015625" lon="-1.35122791863977909088134765625">
        <ele>1315.199951171875</ele>
        <time>2022-08-23T13:49:09.000Z</time>
      </trkpt>
      <trkpt lat="40.3214089013636112213134765625" lon="-1.351230852305889129638671875">
        <ele>1315.199951171875</ele>
        <time>2022-08-23T13:49:10.000Z</time>
      </trkpt>
      <trkpt lat="40.32156840898096561431884765625" lon="-1.35129983536899089813232421875">
        <ele>1315.199951171875</ele>
        <time>2022-08-23T13:49:16.000Z</time>
      </trkpt>
      <trkpt lat="40.32167720608413219451904296875" lon="-1.35150603018701076507568359375">
        <ele>1314.199951171875</ele>
        <time>2022-08-23T13:49:22.000Z</time>
      </trkpt>
      <trkpt lat="40.32169078476727008819580078125" lon="-1.3515475206077098846435546875">
        <ele>1313.4000244140625</ele>
        <time>2022-08-23T13:49:26.000Z</time>
      </trkpt>
      <trkpt lat="40.40773018263280391693115234375" lon="-1.4431503228843212127685546875">
        <ele>1160.800048828125</ele>
        <time>2022-08-24T06:59:31.000Z</time>
      </trkpt>
      <trkpt lat="40.40764175355434417724609375" lon="-1.4433276839554309844970703125">
        <ele>1160.5999755859375</ele>
        <time>2022-08-24T06:59:36.000Z</time>
      </trkpt>
      <trkpt lat="40.40761015377938747406005859375" lon="-1.4433364011347293853759765625">
        <ele>1160.5999755859375</ele>
        <time>2022-08-24T06:59:39.000Z</time>
      </trkpt>
      <trkpt lat="40.40756807662546634674072265625" lon="-1.443322487175464630126953125">
        <ele>1160.5999755859375</ele>
        <time>2022-08-24T06:59:41.000Z</time>
      </trkpt>
      <trkpt lat="40.407432205975055694580078125" lon="-1.44328233785927295684814453125">
        <ele>1160.199951171875</ele>
        <time>2022-08-24T06:59:45.000Z</time>
      </trkpt>
      <trkpt lat="40.4073884524405002593994140625" lon="-1.4432985149323940277099609375">
        <ele>1160</ele>
        <time>2022-08-24T06:59:46.000Z</time>
      </trkpt>
      <trkpt lat="40.4071500711143016815185546875" lon="-1.44333514384925365447998046875">
        <ele>1159.5999755859375</ele>
        <time>2022-08-24T06:59:50.000Z</time>
      </trkpt>
      <trkpt lat="40.40693071670830249786376953125" lon="-1.44338727928698062896728515625">
        <ele>1159</ele>
        <time>2022-08-24T06:59:53.000Z</time>
      </trkpt>
      <trkpt lat="40.4067876376211643218994140625" lon="-1.44340219907462596893310546875">
        <ele>1158</ele>
        <time>2022-08-24T06:59:55.000Z</time>
      </trkpt>
      <trkpt lat="40.40671848691999912261962890625" lon="-1.44340370781719684600830078125">
        <ele>1157.199951171875</ele>
        <time>2022-08-24T06:59:56.000Z</time>
      </trkpt>
      <trkpt lat="40.40657364763319492340087890625" lon="-1.443410329520702362060546875">
        <ele>1156.800048828125</ele>
        <time>2022-08-24T06:59:57.000Z</time>
      </trkpt>
      <trkpt lat="40.4064932651817798614501953125" lon="-1.4434953220188617706298828125">
        <ele>1155.800048828125</ele>
        <time>2022-08-24T06:59:59.000Z</time>
      </trkpt>
      <trkpt lat="40.40642805397510528564453125" lon="-1.443549804389476776123046875">
        <ele>1154.5999755859375</ele>
        <time>2022-08-24T07:00:01.000Z</time>
      </trkpt>
      <trkpt lat="40.4064260423183441162109375" lon="-1.44357704557478427886962890625">
        <ele>1153.800048828125</ele>
        <time>2022-08-24T07:00:02.000Z</time>
      </trkpt>
      <trkpt lat="40.40642495267093181610107421875" lon="-1.443549133837223052978515625">
        <ele>1152.800048828125</ele>
        <time>2022-08-24T07:00:03.000Z</time>
      </trkpt>
      <trkpt lat="40.40647222660481929779052734375" lon="-1.4435278438031673431396484375">
        <ele>1151.4000244140625</ele>
        <time>2022-08-24T07:00:05.000Z</time>
      </trkpt>
      <trkpt lat="40.406572557985782623291015625" lon="-1.443543769419193267822265625">
        <ele>1150</ele>
        <time>2022-08-24T07:00:07.000Z</time>
      </trkpt>
      <trkpt lat="40.4066381044685840606689453125" lon="-1.44355407916009426116943359375">
        <ele>1149.199951171875</ele>
        <time>2022-08-24T07:00:08.000Z</time>
      </trkpt>
      <trkpt lat="40.40671412833034992218017578125" lon="-1.443560533225536346435546875">
        <ele>1148.5999755859375</ele>
        <time>2022-08-24T07:00:09.000Z</time>
      </trkpt>
      <trkpt lat="40.40685050189495086669921875" lon="-1.44349423237144947052001953125">
        <ele>1147.5999755859375</ele>
        <time>2022-08-24T07:00:11.000Z</time>
      </trkpt>
      <trkpt lat="40.40692920796573162078857421875" lon="-1.4434483833611011505126953125">
        <ele>1147.199951171875</ele>
        <time>2022-08-24T07:00:12.000Z</time>
      </trkpt>
      <trkpt lat="40.40726398117840290069580078125" lon="-1.44314453937113285064697265625">
        <ele>1146.199951171875</ele>
        <time>2022-08-24T07:00:16.000Z</time>
      </trkpt>
      <trkpt lat="40.40745534002780914306640625" lon="-1.44287061877548694610595703125">
        <ele>1145</ele>
        <time>2022-08-24T07:00:19.000Z</time>
      </trkpt>
      <trkpt lat="40.40750370360910892486572265625" lon="-1.44279040396213531494140625">
        <ele>1144.199951171875</ele>
        <time>2022-08-24T07:00:20.000Z</time>
      </trkpt>
      <trkpt lat="40.407555587589740753173828125" lon="-1.4427825249731540679931640625">
        <ele>1143.4000244140625</ele>
        <time>2022-08-24T07:00:21.000Z</time>
      </trkpt>
      <trkpt lat="40.4076321981847286224365234375" lon="-1.44281496293842792510986328125">
        <ele>1140.4000244140625</ele>
        <time>2022-08-24T07:00:23.000Z</time>
      </trkpt>
      <trkpt lat="40.40766589343547821044921875" lon="-1.44281211309134960174560546875">
        <ele>1139</ele>
        <time>2022-08-24T07:00:25.000Z</time>
      </trkpt>
      <trkpt lat="40.40768492035567760467529296875" lon="-1.4428076706826686859130859375">
        <ele>1137.5999755859375</ele>
        <time>2022-08-24T07:00:27.000Z</time>
      </trkpt>
      <trkpt lat="40.40770956315100193023681640625" lon="-1.44278948195278644561767578125">
        <ele>1136</ele>
        <time>2022-08-24T07:00:29.000Z</time>
      </trkpt>
      <trkpt lat="40.40772431530058383941650390625" lon="-1.44276115112006664276123046875">
        <ele>1134.5999755859375</ele>
        <time>2022-08-24T07:00:31.000Z</time>
      </trkpt>
      <trkpt lat="40.40774359367787837982177734375" lon="-1.442751847207546234130859375">
        <ele>1134</ele>
        <time>2022-08-24T07:00:32.000Z</time>
      </trkpt>
      <trkpt lat="40.40778282098472118377685546875" lon="-1.44274941645562648773193359375">
        <ele>1133.4000244140625</ele>
        <time>2022-08-24T07:00:34.000Z</time>
      </trkpt>
      <trkpt lat="40.4078179411590099334716796875" lon="-1.44279467873275279998779296875">
        <ele>1133</ele>
        <time>2022-08-24T07:00:37.000Z</time>
      </trkpt>
      <trkpt lat="40.4078430868685245513916015625" lon="-1.44282099790871143341064453125">
        <ele>1133</ele>
        <time>2022-08-24T07:00:41.000Z</time>
      </trkpt>
      <trkpt lat="40.40785172022879123687744140625" lon="-1.44283105619251728057861328125">
        <ele>1133</ele>
        <time>2022-08-24T07:00:42.000Z</time>
      </trkpt>
      <trkpt lat="40.4078591801226139068603515625" lon="-1.44285066984593868255615234375">
        <ele>1133</ele>
        <time>2022-08-24T07:00:43.000Z</time>
      </trkpt>
      <trkpt lat="40.40802220813930034637451171875" lon="-1.4448256976902484893798828125">
        <ele>1138.800048828125</ele>
        <time>2022-08-24T07:01:17.000Z</time>
      </trkpt>
      <trkpt lat="40.4080241359770298004150390625" lon="-1.4448724687099456787109375">
        <ele>1139</ele>
        <time>2022-08-24T07:01:18.000Z</time>
      </trkpt>
      <trkpt lat="40.4080586694180965423583984375" lon="-1.4450164698064327239990234375">
        <ele>1139.199951171875</ele>
        <time>2022-08-24T07:01:21.000Z</time>
      </trkpt>
      <trkpt lat="40.4081210307776927947998046875" lon="-1.4452853612601757049560546875">
        <ele>1139.800048828125</ele>
        <time>2022-08-24T07:01:26.000Z</time>
      </trkpt>
      <trkpt lat="40.4081317596137523651123046875" lon="-1.44533355720341205596923828125">
        <ele>1139.800048828125</ele>
        <time>2022-08-24T07:01:27.000Z</time>
      </trkpt>
      <trkpt lat="40.40823142044246196746826171875" lon="-1.44557830877602100372314453125">
        <ele>1140.4000244140625</ele>
        <time>2022-08-24T07:01:33.000Z</time>
      </trkpt>
      <trkpt lat="40.4083815403282642364501953125" lon="-1.44594878889620304107666015625">
        <ele>1141</ele>
        <time>2022-08-24T07:01:42.000Z</time>
      </trkpt>
      <trkpt lat="40.40840257890522480010986328125" lon="-1.446030177175998687744140625">
        <ele>1141</ele>
        <time>2022-08-24T07:01:44.000Z</time>
      </trkpt>
      <trkpt lat="40.40842101909220218658447265625" lon="-1.44633494317531585693359375">
        <ele>1141.5999755859375</ele>
        <time>2022-08-24T07:01:50.000Z</time>
      </trkpt>
      <trkpt lat="40.408372320234775543212890625" lon="-1.44659201614558696746826171875">
        <ele>1141.5999755859375</ele>
        <time>2022-08-24T07:01:55.000Z</time>
      </trkpt>
      <trkpt lat="40.4082222841680049896240234375" lon="-1.4468879811465740203857421875">
        <ele>1141.800048828125</ele>
        <time>2022-08-24T07:02:02.000Z</time>
      </trkpt>
      <trkpt lat="40.40803142823278903961181640625" lon="-1.44703642465174198150634765625">
        <ele>1141.800048828125</ele>
        <time>2022-08-24T07:02:08.000Z</time>
      </trkpt>
      <trkpt lat="40.40781064890325069427490234375" lon="-1.44716667942702770233154296875">
        <ele>1141.800048828125</ele>
        <time>2022-08-24T07:02:14.000Z</time>
      </trkpt>
      <trkpt lat="40.40773554705083370208740234375" lon="-1.44720775075256824493408203125">
        <ele>1141.800048828125</ele>
        <time>2022-08-24T07:02:16.000Z</time>
      </trkpt>
      <trkpt lat="40.4075778834521770477294921875" lon="-1.44727966748178005218505859375">
        <ele>1142</ele>
        <time>2022-08-24T07:02:21.000Z</time>
      </trkpt>
      <trkpt lat="40.4075753688812255859375" lon="-1.4472963474690914154052734375">
        <ele>1142</ele>
        <time>2022-08-24T07:02:22.000Z</time>
      </trkpt>
      <trkpt lat="40.40759741328656673431396484375" lon="-1.4473221637308597564697265625">
        <ele>1142</ele>
        <time>2022-08-24T07:02:24.000Z</time>
      </trkpt>
      <trkpt lat="40.40762792341411113739013671875" lon="-1.44732023589313030242919921875">
        <ele>1142</ele>
        <time>2022-08-24T07:02:26.000Z</time>
      </trkpt>
      <trkpt lat="40.40767083875834941864013671875" lon="-1.44732057116925716400146484375">
        <ele>1142.199951171875</ele>
        <time>2022-08-24T07:02:29.000Z</time>
      </trkpt>
      <trkpt lat="40.407696403563022613525390625" lon="-1.4473328925669193267822265625">
        <ele>1142.5999755859375</ele>
        <time>2022-08-24T07:02:32.000Z</time>
      </trkpt>
      <trkpt lat="40.40770201943814754486083984375" lon="-1.44733917899429798126220703125">
        <ele>1143.199951171875</ele>
        <time>2022-08-24T07:02:34.000Z</time>
      </trkpt>
      <trkpt lat="40.407703779637813568115234375" lon="-1.4473446272313594818115234375">
        <ele>1143.4000244140625</ele>
        <time>2022-08-24T07:02:35.000Z</time>
      </trkpt>
      <trkpt lat="40.4077877663075923919677734375" lon="-1.4474071562290191650390625">
        <ele>1144.5999755859375</ele>
        <time>2022-08-24T07:02:50.000Z</time>
      </trkpt>
      <trkpt lat="40.4078072123229503631591796875" lon="-1.44738846458494663238525390625">
        <ele>1144.5999755859375</ele>
        <time>2022-08-24T07:02:51.000Z</time>
      </trkpt>
      <trkpt lat="40.4079272411763668060302734375" lon="-1.44728754647076129913330078125">
        <ele>1145.199951171875</ele>
        <time>2022-08-24T07:02:58.000Z</time>
      </trkpt>
      <trkpt lat="40.4080341942608356475830078125" lon="-1.4472437091171741485595703125">
        <ele>1146</ele>
        <time>2022-08-24T07:03:03.000Z</time>
      </trkpt>
      <trkpt lat="40.40807149372994899749755859375" lon="-1.447214372456073760986328125">
        <ele>1146.5999755859375</ele>
        <time>2022-08-24T07:03:05.000Z</time>
      </trkpt>
      <trkpt lat="40.40810502134263515472412109375" lon="-1.4471907354891300201416015625">
        <ele>1147.199951171875</ele>
        <time>2022-08-24T07:03:07.000Z</time>
      </trkpt>
      <trkpt lat="40.408201329410076141357421875" lon="-1.447090320289134979248046875">
        <ele>1148.199951171875</ele>
        <time>2022-08-24T07:03:12.000Z</time>
      </trkpt>
      <trkpt lat="40.40822320617735385894775390625" lon="-1.4470458962023258209228515625">
        <ele>1148.5999755859375</ele>
        <time>2022-08-24T07:03:14.000Z</time>
      </trkpt>
      <trkpt lat="40.4082926921546459197998046875" lon="-1.44699770025908946990966796875">
        <ele>1149.4000244140625</ele>
        <time>2022-08-24T07:03:18.000Z</time>
      </trkpt>
      <trkpt lat="40.408333428204059600830078125" lon="-1.44699853844940662384033203125">
        <ele>1149.5999755859375</ele>
        <time>2022-08-24T07:03:20.000Z</time>
      </trkpt>
      <trkpt lat="40.408360250294208526611328125" lon="-1.44708453677594661712646484375">
        <ele>1150.199951171875</ele>
        <time>2022-08-24T07:03:24.000Z</time>
      </trkpt>
      <trkpt lat="40.408352203667163848876953125" lon="-1.447105072438716888427734375">
        <ele>1150.4000244140625</ele>
        <time>2022-08-24T07:03:25.000Z</time>
      </trkpt>
      <trkpt lat="40.40830937214195728302001953125" lon="-1.447157375514507293701171875">
        <ele>1151.199951171875</ele>
        <time>2022-08-24T07:03:28.000Z</time>
      </trkpt>
      <trkpt lat="40.40828120894730091094970703125" lon="-1.44719065167009830474853515625">
        <ele>1151.5999755859375</ele>
        <time>2022-08-24T07:03:30.000Z</time>
      </trkpt>
      <trkpt lat="40.40826670825481414794921875" lon="-1.4472044818103313446044921875">
        <ele>1151.5999755859375</ele>
        <time>2022-08-24T07:03:31.000Z</time>
      </trkpt>
      <trkpt lat="40.40820996277034282684326171875" lon="-1.4472755603492259979248046875">
        <ele>1152.5999755859375</ele>
        <time>2022-08-24T07:03:36.000Z</time>
      </trkpt>
      <trkpt lat="40.40820543654263019561767578125" lon="-1.447288133203983306884765625">
        <ele>1152.800048828125</ele>
        <time>2022-08-24T07:03:37.000Z</time>
      </trkpt>
      <trkpt lat="40.40821063332259654998779296875" lon="-1.4473347365856170654296875">
        <ele>1153.199951171875</ele>
        <time>2022-08-24T07:03:40.000Z</time>
      </trkpt>
      <trkpt lat="40.40825706906616687774658203125" lon="-1.44735158421099185943603515625">
        <ele>1153.800048828125</ele>
        <time>2022-08-24T07:03:42.000Z</time>
      </trkpt>
      <trkpt lat="40.40827299468219280242919921875" lon="-1.4473481476306915283203125">
        <ele>1154</ele>
        <time>2022-08-24T07:03:43.000Z</time>
      </trkpt>
      <trkpt lat="40.40827299468219280242919921875" lon="-1.4473481476306915283203125">
        <ele>1154.199951171875</ele>
        <time>2022-08-24T07:03:44.000Z</time>
      </trkpt>
      <trkpt lat="40.40828657336533069610595703125" lon="-1.44734018482267856597900390625">
        <ele>1154.4000244140625</ele>
        <time>2022-08-24T07:03:45.000Z</time>
      </trkpt>
      <trkpt lat="40.4083156585693359375" lon="-1.447310931980609893798828125">
        <ele>1155.199951171875</ele>
        <time>2022-08-24T07:03:47.000Z</time>
      </trkpt>
      <trkpt lat="40.4083463363349437713623046875" lon="-1.4472846128046512603759765625">
        <ele>1155.5999755859375</ele>
        <time>2022-08-24T07:03:49.000Z</time>
      </trkpt>
      <trkpt lat="40.4083986394107341766357421875" lon="-1.447255276143550872802734375">
        <ele>1156.199951171875</ele>
        <time>2022-08-24T07:03:52.000Z</time>
      </trkpt>
      <trkpt lat="40.40845018811523914337158203125" lon="-1.44722501747310161590576171875">
        <ele>1157</ele>
        <time>2022-08-24T07:03:55.000Z</time>
      </trkpt>
      <trkpt lat="40.40846544317901134490966796875" lon="-1.447217725217342376708984375">
        <ele>1157.199951171875</ele>
        <time>2022-08-24T07:03:56.000Z</time>
      </trkpt>
      <trkpt lat="40.40855370461940765380859375" lon="-1.44716617651283740997314453125">
        <ele>1158.4000244140625</ele>
        <time>2022-08-24T07:04:02.000Z</time>
      </trkpt>
      <trkpt lat="40.4085780121386051177978515625" lon="-1.44711471162736415863037109375">
        <ele>1159.199951171875</ele>
        <time>2022-08-24T07:04:05.000Z</time>
      </trkpt>
      <trkpt lat="40.40857826359570026397705078125" lon="-1.4470951817929744720458984375">
        <ele>1159.4000244140625</ele>
        <time>2022-08-24T07:04:06.000Z</time>
      </trkpt>
      <trkpt lat="40.4085890762507915496826171875" lon="-1.44700323231518268585205078125">
        <ele>1160.5999755859375</ele>
        <time>2022-08-24T07:04:11.000Z</time>
      </trkpt>
      <trkpt lat="40.40859737433493137359619140625" lon="-1.44697062671184539794921875">
        <ele>1161</ele>
        <time>2022-08-24T07:04:13.000Z</time>
      </trkpt>
      <trkpt lat="40.40859921835362911224365234375" lon="-1.44691404886543750762939453125">
        <ele>1162</ele>
        <time>2022-08-24T07:04:16.000Z</time>
      </trkpt>
      <trkpt lat="40.40859854780137538909912109375" lon="-1.4468933455646038055419921875">
        <ele>1162.199951171875</ele>
        <time>2022-08-24T07:04:17.000Z</time>
      </trkpt>
      <trkpt lat="40.40861011482775211334228515625" lon="-1.4468557946383953094482421875">
        <ele>1162.5999755859375</ele>
        <time>2022-08-24T07:04:19.000Z</time>
      </trkpt>
      <trkpt lat="40.408617071807384490966796875" lon="-1.4468215964734554290771484375">
        <ele>1163.199951171875</ele>
        <time>2022-08-24T07:04:21.000Z</time>
      </trkpt>
      <trkpt lat="40.4086390323936939239501953125" lon="-1.44675076939165592193603515625">
        <ele>1164.199951171875</ele>
        <time>2022-08-24T07:04:26.000Z</time>
      </trkpt>
      <trkpt lat="40.40868773125112056732177734375" lon="-1.44667566753923892974853515625">
        <ele>1165.199951171875</ele>
        <time>2022-08-24T07:04:30.000Z</time>
      </trkpt>
      <trkpt lat="40.40870483033359050750732421875" lon="-1.44666619598865509033203125">
        <ele>1165.5999755859375</ele>
        <time>2022-08-24T07:04:31.000Z</time>
      </trkpt>
      <trkpt lat="40.408768951892852783203125" lon="-1.44659503363072872161865234375">
        <ele>1166.5999755859375</ele>
        <time>2022-08-24T07:04:37.000Z</time>
      </trkpt>
      <trkpt lat="40.40877909399569034576416015625" lon="-1.44658078439533710479736328125">
        <ele>1166.800048828125</ele>
        <time>2022-08-24T07:04:38.000Z</time>
      </trkpt>
      <trkpt lat="40.40883474983274936676025390625" lon="-1.44654373638331890106201171875">
        <ele>1167.5999755859375</ele>
        <time>2022-08-24T07:04:41.000Z</time>
      </trkpt>
      <trkpt lat="40.40884782560169696807861328125" lon="-1.446539461612701416015625">
        <ele>1167.800048828125</ele>
        <time>2022-08-24T07:04:43.000Z</time>
      </trkpt>
      <trkpt lat="40.40887649171054363250732421875" lon="-1.44652730785310268402099609375">
        <ele>1168.199951171875</ele>
        <time>2022-08-24T07:04:45.000Z</time>
      </trkpt>
      <trkpt lat="40.4089330695569515228271484375" lon="-1.44651389680802822113037109375">
        <ele>1168.800048828125</ele>
        <time>2022-08-24T07:04:49.000Z</time>
      </trkpt>
      <trkpt lat="40.40893918834626674652099609375" lon="-1.44652462564408779144287109375">
        <ele>1169.199951171875</ele>
        <time>2022-08-24T07:04:51.000Z</time>
      </trkpt>
      <trkpt lat="40.4089186526834964752197265625" lon="-1.44653770141303539276123046875">
        <ele>1169.800048828125</ele>
        <time>2022-08-24T07:04:53.000Z</time>
      </trkpt>
      <trkpt lat="40.40886593051254749298095703125" lon="-1.44657977856695652008056640625">
        <ele>1169.800048828125</ele>
        <time>2022-08-24T07:04:56.000Z</time>
      </trkpt>
      <trkpt lat="40.4087694548070430755615234375" lon="-1.4467478357255458831787109375">
        <ele>1169.800048828125</ele>
        <time>2022-08-24T07:05:00.000Z</time>
      </trkpt>
      <trkpt lat="40.408600308001041412353515625" lon="-1.44712074659764766693115234375">
        <ele>1169</ele>
        <time>2022-08-24T07:05:06.000Z</time>
      </trkpt>
      <trkpt lat="40.40853048674762248992919921875" lon="-1.4472326450049877166748046875">
        <ele>1168.5999755859375</ele>
        <time>2022-08-24T07:05:08.000Z</time>
      </trkpt>
      <trkpt lat="40.40849427692592144012451171875" lon="-1.44726625643670558929443359375">
        <ele>1168</ele>
        <time>2022-08-24T07:05:09.000Z</time>
      </trkpt>
      <trkpt lat="40.4084620065987110137939453125" lon="-1.447276733815670013427734375">
        <ele>1167.199951171875</ele>
        <time>2022-08-24T07:05:10.000Z</time>
      </trkpt>
      <trkpt lat="40.40843560360372066497802734375" lon="-1.44727111794054508209228515625">
        <ele>1166.4000244140625</ele>
        <time>2022-08-24T07:05:11.000Z</time>
      </trkpt>
      <trkpt lat="40.40842093527317047119140625" lon="-1.44723306410014629364013671875">
        <ele>1164.800048828125</ele>
        <time>2022-08-24T07:05:13.000Z</time>
      </trkpt>
      <trkpt lat="40.40844348259270191192626953125" lon="-1.44719651900231838226318359375">
        <ele>1162.800048828125</ele>
        <time>2022-08-24T07:05:15.000Z</time>
      </trkpt>
      <trkpt lat="40.40844717063009738922119140625" lon="-1.44717623479664325714111328125">
        <ele>1161.800048828125</ele>
        <time>2022-08-24T07:05:16.000Z</time>
      </trkpt>
      <trkpt lat="40.4084549658000469207763671875" lon="-1.447127200663089752197265625">
        <ele>1160.5999755859375</ele>
        <time>2022-08-24T07:05:18.000Z</time>
      </trkpt>
      <trkpt lat="40.408475585281848907470703125" lon="-1.4469000510871410369873046875">
        <ele>1160</ele>
        <time>2022-08-24T07:05:26.000Z</time>
      </trkpt>
      <trkpt lat="40.40849980898201465606689453125" lon="-1.44682654179632663726806640625">
        <ele>1160.5999755859375</ele>
        <time>2022-08-24T07:05:30.000Z</time>
      </trkpt>
      <trkpt lat="40.4085055924952030181884765625" lon="-1.44679117016494274139404296875">
        <ele>1161</ele>
        <time>2022-08-24T07:05:32.000Z</time>
      </trkpt>
      <trkpt lat="40.40856233797967433929443359375" lon="-1.44663929007947444915771484375">
        <ele>1161.800048828125</ele>
        <time>2022-08-24T07:05:38.000Z</time>
      </trkpt>
      <trkpt lat="40.4085676185786724090576171875" lon="-1.44661749713122844696044921875">
        <ele>1161.800048828125</ele>
        <time>2022-08-24T07:05:39.000Z</time>
      </trkpt>
      <trkpt lat="40.408622436225414276123046875" lon="-1.4464662037789821624755859375">
        <ele>1162.800048828125</ele>
        <time>2022-08-24T07:05:46.000Z</time>
      </trkpt>
      <trkpt lat="40.40862101130187511444091796875" lon="-1.44641146995127201080322265625">
        <ele>1163.4000244140625</ele>
        <time>2022-08-24T07:05:48.000Z</time>
      </trkpt>
      <trkpt lat="40.4086296446621417999267578125" lon="-1.4463002420961856842041015625">
        <ele>1164</ele>
        <time>2022-08-24T07:05:52.000Z</time>
      </trkpt>
      <trkpt lat="40.40859787724912166595458984375" lon="-1.44619069062173366546630859375">
        <ele>1164.4000244140625</ele>
        <time>2022-08-24T07:05:56.000Z</time>
      </trkpt>
      <trkpt lat="40.40858455002307891845703125" lon="-1.44598751328885555267333984375">
        <ele>1165</ele>
        <time>2022-08-24T07:06:04.000Z</time>
      </trkpt>
      <trkpt lat="40.408584214746952056884765625" lon="-1.445946358144283294677734375">
        <ele>1165.4000244140625</ele>
        <time>2022-08-24T07:06:06.000Z</time>
      </trkpt>
      <trkpt lat="40.4086098633706569671630859375" lon="-1.4458801411092281341552734375">
        <ele>1165.800048828125</ele>
        <time>2022-08-24T07:06:11.000Z</time>
      </trkpt>
      <trkpt lat="40.408620424568653106689453125" lon="-1.44586614333093166351318359375">
        <ele>1166.4000244140625</ele>
        <time>2022-08-24T07:06:13.000Z</time>
      </trkpt>
      <trkpt lat="40.40862536989152431488037109375" lon="-1.44585005007684230804443359375">
        <ele>1166.800048828125</ele>
        <time>2022-08-24T07:06:14.000Z</time>
      </trkpt>
      <trkpt lat="40.40861547924578189849853515625" lon="-1.44579204730689525604248046875">
        <ele>1167.4000244140625</ele>
        <time>2022-08-24T07:06:17.000Z</time>
      </trkpt>
      <trkpt lat="40.40860944427549839019775390625" lon="-1.44575483165681362152099609375">
        <ele>1167.800048828125</ele>
        <time>2022-08-24T07:06:19.000Z</time>
      </trkpt>
      <trkpt lat="40.4086071811616420745849609375" lon="-1.44559842534363269805908203125">
        <ele>1169</ele>
        <time>2022-08-24T07:06:25.000Z</time>
      </trkpt>
      <trkpt lat="40.4086495935916900634765625" lon="-1.44537429325282573699951171875">
        <ele>1170.199951171875</ele>
        <time>2022-08-24T07:06:33.000Z</time>
      </trkpt>
      <trkpt lat="40.40866493247449398040771484375" lon="-1.445360966026782989501953125">
        <ele>1170.199951171875</ele>
        <time>2022-08-24T07:06:34.000Z</time>
      </trkpt>
      <trkpt lat="40.40869678370654582977294921875" lon="-1.4452907256782054901123046875">
        <ele>1170.4000244140625</ele>
        <time>2022-08-24T07:06:38.000Z</time>
      </trkpt>
      <trkpt lat="40.408712290227413177490234375" lon="-1.44524135626852512359619140625">
        <ele>1171.199951171875</ele>
        <time>2022-08-24T07:06:44.000Z</time>
      </trkpt>
      <trkpt lat="40.4087248630821704864501953125" lon="-1.4452441222965717315673828125">
        <ele>1171.4000244140625</ele>
        <time>2022-08-24T07:06:45.000Z</time>
      </trkpt>
      <trkpt lat="40.408771969377994537353515625" lon="-1.44525141455233097076416015625">
        <ele>1171.800048828125</ele>
        <time>2022-08-24T07:06:51.000Z</time>
      </trkpt>
      <trkpt lat="40.40869854390621185302734375" lon="-1.44516625441610813140869140625">
        <ele>1172</ele>
        <time>2022-08-24T07:06:57.000Z</time>
      </trkpt>
      <trkpt lat="40.4086413793265819549560546875" lon="-1.445140354335308074951171875">
        <ele>1171.800048828125</ele>
        <time>2022-08-24T07:07:01.000Z</time>
      </trkpt>
      <trkpt lat="40.4086246155202388763427734375" lon="-1.445132307708263397216796875">
        <ele>1171.5999755859375</ele>
        <time>2022-08-24T07:07:03.000Z</time>
      </trkpt>
      <trkpt lat="40.4085981287062168121337890625" lon="-1.44510657526552677154541015625">
        <ele>1171.199951171875</ele>
        <time>2022-08-24T07:07:05.000Z</time>
      </trkpt>
      <trkpt lat="40.408571474254131317138671875" lon="-1.4450077526271343231201171875">
        <ele>1171.199951171875</ele>
        <time>2022-08-24T07:07:09.000Z</time>
      </trkpt>
      <trkpt lat="40.408551692962646484375" lon="-1.4449504204094409942626953125">
        <ele>1171</ele>
        <time>2022-08-24T07:07:14.000Z</time>
      </trkpt>
      <trkpt lat="40.408665351569652557373046875" lon="-1.44500792026519775390625">
        <ele>1172.199951171875</ele>
        <time>2022-08-24T07:07:27.000Z</time>
      </trkpt>
      <trkpt lat="40.40870063938200473785400390625" lon="-1.44501739181578159332275390625">
        <ele>1173</ele>
        <time>2022-08-24T07:07:31.000Z</time>
      </trkpt>
      <trkpt lat="40.40873584337532520294189453125" lon="-1.44501169212162494659423828125">
        <ele>1174.199951171875</ele>
        <time>2022-08-24T07:07:35.000Z</time>
      </trkpt>
      <trkpt lat="40.40880524553358554840087890625" lon="-1.44502577371895313262939453125">
        <ele>1175.199951171875</ele>
        <time>2022-08-24T07:07:40.000Z</time>
      </trkpt>
      <trkpt lat="40.4088180698454380035400390625" lon="-1.4450347423553466796875">
        <ele>1175.4000244140625</ele>
        <time>2022-08-24T07:07:41.000Z</time>
      </trkpt>
      <trkpt lat="40.408859811723232269287109375" lon="-1.44508847035467624664306640625">
        <ele>1176.4000244140625</ele>
        <time>2022-08-24T07:07:45.000Z</time>
      </trkpt>
      <trkpt lat="40.408886633813381195068359375" lon="-1.44513172097504138946533203125">
        <ele>1177.5999755859375</ele>
        <time>2022-08-24T07:07:50.000Z</time>
      </trkpt>
      <trkpt lat="40.408904068171977996826171875" lon="-1.44513742066919803619384765625">
        <ele>1178.199951171875</ele>
        <time>2022-08-24T07:07:52.000Z</time>
      </trkpt>
      <trkpt lat="40.40893399156630039215087890625" lon="-1.4451487362384796142578125">
        <ele>1178.800048828125</ele>
        <time>2022-08-24T07:07:55.000Z</time>
      </trkpt>
      <trkpt lat="40.40896668098866939544677734375" lon="-1.44515368156135082244873046875">
        <ele>1179.4000244140625</ele>
        <time>2022-08-24T07:07:58.000Z</time>
      </trkpt>
      <trkpt lat="40.40899115614593029022216796875" lon="-1.44515368156135082244873046875">
        <ele>1180</ele>
        <time>2022-08-24T07:08:00.000Z</time>
      </trkpt>
      <trkpt lat="40.4090363346040248870849609375" lon="-1.44516860134899616241455078125">
        <ele>1181</ele>
        <time>2022-08-24T07:08:03.000Z</time>
      </trkpt>
      <trkpt lat="40.4090497456490993499755859375" lon="-1.44517480395734310150146484375">
        <ele>1181.199951171875</ele>
        <time>2022-08-24T07:08:04.000Z</time>
      </trkpt>
      <trkpt lat="40.409089140594005584716796875" lon="-1.445155777037143707275390625">
        <ele>1182.4000244140625</ele>
        <time>2022-08-24T07:08:08.000Z</time>
      </trkpt>
      <trkpt lat="40.40908721275627613067626953125" lon="-1.445138342678546905517578125">
        <ele>1182.5999755859375</ele>
        <time>2022-08-24T07:08:10.000Z</time>
      </trkpt>
      <trkpt lat="40.40907698683440685272216796875" lon="-1.44510506652295589447021484375">
        <ele>1183.4000244140625</ele>
        <time>2022-08-24T07:08:13.000Z</time>
      </trkpt>
      <trkpt lat="40.4090591333806514739990234375" lon="-1.44508210010826587677001953125">
        <ele>1183.800048828125</ele>
        <time>2022-08-24T07:08:15.000Z</time>
      </trkpt>
      <trkpt lat="40.40903725661337375640869140625" lon="-1.44503566436469554901123046875">
        <ele>1184.199951171875</ele>
        <time>2022-08-24T07:08:18.000Z</time>
      </trkpt>
      <trkpt lat="40.4090225882828235626220703125" lon="-1.44500599242746829986572265625">
        <ele>1184.4000244140625</ele>
        <time>2022-08-24T07:08:20.000Z</time>
      </trkpt>
      <trkpt lat="40.40897388942539691925048828125" lon="-1.4448796771466732025146484375">
        <ele>1185.800048828125</ele>
        <time>2022-08-24T07:08:28.000Z</time>
      </trkpt>
      <trkpt lat="40.40897992439568042755126953125" lon="-1.4448241889476776123046875">
        <ele>1186.4000244140625</ele>
        <time>2022-08-24T07:08:31.000Z</time>
      </trkpt>
      <trkpt lat="40.40899568237364292144775390625" lon="-1.4447935111820697784423828125">
        <ele>1186.800048828125</ele>
        <time>2022-08-24T07:08:34.000Z</time>
      </trkpt>
      <trkpt lat="40.409022755920886993408203125" lon="-1.44476995803415775299072265625">
        <ele>1187.4000244140625</ele>
        <time>2022-08-24T07:08:37.000Z</time>
      </trkpt>
      <trkpt lat="40.40905661880970001220703125" lon="-1.44478387199342250823974609375">
        <ele>1188</ele>
        <time>2022-08-24T07:08:40.000Z</time>
      </trkpt>
      <trkpt lat="40.40906927548348903656005859375" lon="-1.444786973297595977783203125">
        <ele>1188.199951171875</ele>
        <time>2022-08-24T07:08:41.000Z</time>
      </trkpt>
      <trkpt lat="40.4090899787843227386474609375" lon="-1.444793678820133209228515625">
        <ele>1188.4000244140625</ele>
        <time>2022-08-24T07:08:43.000Z</time>
      </trkpt>
      <trkpt lat="40.40912342257797718048095703125" lon="-1.444804407656192779541015625">
        <ele>1189.199951171875</ele>
        <time>2022-08-24T07:08:46.000Z</time>
      </trkpt>
      <trkpt lat="40.40917505510151386260986328125" lon="-1.44484221003949642181396484375">
        <ele>1190.4000244140625</ele>
        <time>2022-08-24T07:08:51.000Z</time>
      </trkpt>
      <trkpt lat="40.4091912321746349334716796875" lon="-1.44486517645418643951416015625">
        <ele>1191</ele>
        <time>2022-08-24T07:08:53.000Z</time>
      </trkpt>
      <trkpt lat="40.40921579115092754364013671875" lon="-1.44487339071929454803466796875">
        <ele>1191.4000244140625</ele>
        <time>2022-08-24T07:08:55.000Z</time>
      </trkpt>
      <trkpt lat="40.40923959575593471527099609375" lon="-1.44488512538373470306396484375">
        <ele>1191.800048828125</ele>
        <time>2022-08-24T07:08:57.000Z</time>
      </trkpt>
      <trkpt lat="40.409271530807018280029296875" lon="-1.44490289501845836639404296875">
        <ele>1192.800048828125</ele>
        <time>2022-08-24T07:09:00.000Z</time>
      </trkpt>
      <trkpt lat="40.409307740628719329833984375" lon="-1.444916389882564544677734375">
        <ele>1193.199951171875</ele>
        <time>2022-08-24T07:09:03.000Z</time>
      </trkpt>
      <trkpt lat="40.40933732874691486358642578125" lon="-1.4449467323720455169677734375">
        <ele>1194</ele>
        <time>2022-08-24T07:09:06.000Z</time>
      </trkpt>
      <trkpt lat="40.4093776457011699676513671875" lon="-1.444974057376384735107421875">
        <ele>1194.800048828125</ele>
        <time>2022-08-24T07:09:10.000Z</time>
      </trkpt>
      <trkpt lat="40.409389548003673553466796875" lon="-1.44498051144182682037353515625">
        <ele>1195</ele>
        <time>2022-08-24T07:09:11.000Z</time>
      </trkpt>
      <trkpt lat="40.4094339720904827117919921875" lon="-1.4450017176568508148193359375">
        <ele>1196.199951171875</ele>
        <time>2022-08-24T07:09:15.000Z</time>
      </trkpt>
      <trkpt lat="40.4094557650387287139892578125" lon="-1.4450040645897388458251953125">
        <ele>1196.5999755859375</ele>
        <time>2022-08-24T07:09:17.000Z</time>
      </trkpt>
      <trkpt lat="40.40948954410851001739501953125" lon="-1.44500456750392913818359375">
        <ele>1197.199951171875</ele>
        <time>2022-08-24T07:09:20.000Z</time>
      </trkpt>
      <trkpt lat="40.4095543362200260162353515625" lon="-1.4450261928141117095947265625">
        <ele>1198.5999755859375</ele>
        <time>2022-08-24T07:09:26.000Z</time>
      </trkpt>
      <trkpt lat="40.40961443446576595306396484375" lon="-1.44504035823047161102294921875">
        <ele>1199.5999755859375</ele>
        <time>2022-08-24T07:09:32.000Z</time>
      </trkpt>
      <trkpt lat="40.40962415747344493865966796875" lon="-1.4450422860682010650634765625">
        <ele>1199.800048828125</ele>
        <time>2022-08-24T07:09:33.000Z</time>
      </trkpt>
      <trkpt lat="40.40966539643704891204833984375" lon="-1.4450580440461635589599609375">
        <ele>1200.800048828125</ele>
        <time>2022-08-24T07:09:37.000Z</time>
      </trkpt>
      <trkpt lat="40.40969724766910076141357421875" lon="-1.4450682699680328369140625">
        <ele>1201.199951171875</ele>
        <time>2022-08-24T07:09:40.000Z</time>
      </trkpt>
      <trkpt lat="40.40973831899464130401611328125" lon="-1.44509299658238887786865234375">
        <ele>1201.800048828125</ele>
        <time>2022-08-24T07:09:44.000Z</time>
      </trkpt>
      <trkpt lat="40.40976581163704395294189453125" lon="-1.4451452158391475677490234375">
        <ele>1202.800048828125</ele>
        <time>2022-08-24T07:09:48.000Z</time>
      </trkpt>
      <trkpt lat="40.40977067314088344573974609375" lon="-1.44517958164215087890625">
        <ele>1203.199951171875</ele>
        <time>2022-08-24T07:09:50.000Z</time>
      </trkpt>
      <trkpt lat="40.40976916439831256866455078125" lon="-1.4452511630952358245849609375">
        <ele>1204.4000244140625</ele>
        <time>2022-08-24T07:09:54.000Z</time>
      </trkpt>
      <trkpt lat="40.40976849384605884552001953125" lon="-1.44526650197803974151611328125">
        <ele>1204.5999755859375</ele>
        <time>2022-08-24T07:09:55.000Z</time>
      </trkpt>
      <trkpt lat="40.40975156240165233612060546875" lon="-1.44537630490958690643310546875">
        <ele>1205.4000244140625</ele>
        <time>2022-08-24T07:10:02.000Z</time>
      </trkpt>
      <trkpt lat="40.4097511433064937591552734375" lon="-1.44539055414497852325439453125">
        <ele>1205.5999755859375</ele>
        <time>2022-08-24T07:10:03.000Z</time>
      </trkpt>
      <trkpt lat="40.4097380675375461578369140625" lon="-1.44545383751392364501953125">
        <ele>1206.4000244140625</ele>
        <time>2022-08-24T07:10:07.000Z</time>
      </trkpt>
      <trkpt lat="40.40971753187477588653564453125" lon="-1.445529945194721221923828125">
        <ele>1207</ele>
        <time>2022-08-24T07:10:11.000Z</time>
      </trkpt>
      <trkpt lat="40.40969406254589557647705078125" lon="-1.44560337066650390625">
        <ele>1207.5999755859375</ele>
        <time>2022-08-24T07:10:15.000Z</time>
      </trkpt>
      <trkpt lat="40.40969272144138813018798828125" lon="-1.445644609630107879638671875">
        <ele>1208.199951171875</ele>
        <time>2022-08-24T07:10:17.000Z</time>
      </trkpt>
      <trkpt lat="40.40969473309814929962158203125" lon="-1.4456618763506412506103515625">
        <ele>1208.4000244140625</ele>
        <time>2022-08-24T07:10:18.000Z</time>
      </trkpt>
      <trkpt lat="40.40971870534121990203857421875" lon="-1.44568048417568206787109375">
        <ele>1208.800048828125</ele>
        <time>2022-08-24T07:10:21.000Z</time>
      </trkpt>
      <trkpt lat="40.40972691960632801055908203125" lon="-1.44567989744246006011962890625">
        <ele>1209</ele>
        <time>2022-08-24T07:10:22.000Z</time>
      </trkpt>
      <trkpt lat="40.40979347191751003265380859375" lon="-1.44562172703444957733154296875">
        <ele>1210</ele>
        <time>2022-08-24T07:10:28.000Z</time>
      </trkpt>
      <trkpt lat="40.40980738587677478790283203125" lon="-1.44561317749321460723876953125">
        <ele>1210.199951171875</ele>
        <time>2022-08-24T07:10:29.000Z</time>
      </trkpt>
      <trkpt lat="40.40985901840031147003173828125" lon="-1.4455596171319484710693359375">
        <ele>1211.4000244140625</ele>
        <time>2022-08-24T07:10:34.000Z</time>
      </trkpt>
      <trkpt lat="40.4098829068243503570556640625" lon="-1.44554344005882740020751953125">
        <ele>1211.5999755859375</ele>
        <time>2022-08-24T07:10:36.000Z</time>
      </trkpt>
      <trkpt lat="40.40998407639563083648681640625" lon="-1.4454888738691806793212890625">
        <ele>1212.4000244140625</ele>
        <time>2022-08-24T07:10:44.000Z</time>
      </trkpt>
      <trkpt lat="40.4100294224917888641357421875" lon="-1.44546280615031719207763671875">
        <ele>1213.5999755859375</ele>
        <time>2022-08-24T07:10:48.000Z</time>
      </trkpt>
      <trkpt lat="40.41007585823535919189453125" lon="-1.44543313421308994293212890625">
        <ele>1214.199951171875</ele>
        <time>2022-08-24T07:10:52.000Z</time>
      </trkpt>
      <trkpt lat="40.410088263452053070068359375" lon="-1.4454288594424724578857421875">
        <ele>1214.4000244140625</ele>
        <time>2022-08-24T07:10:53.000Z</time>
      </trkpt>
      <trkpt lat="40.41012388654053211212158203125" lon="-1.445411927998065948486328125">
        <ele>1214.5999755859375</ele>
        <time>2022-08-24T07:10:56.000Z</time>
      </trkpt>
      <trkpt lat="40.41017283685505390167236328125" lon="-1.44538284279406070709228515625">
        <ele>1215.4000244140625</ele>
        <time>2022-08-24T07:11:00.000Z</time>
      </trkpt>
      <trkpt lat="40.4102133214473724365234375" lon="-1.44533942453563213348388671875">
        <ele>1216</ele>
        <time>2022-08-24T07:11:04.000Z</time>
      </trkpt>
      <trkpt lat="40.41023000143468379974365234375" lon="-1.44527287222445011138916015625">
        <ele>1216.5999755859375</ele>
        <time>2022-08-24T07:11:08.000Z</time>
      </trkpt>
      <trkpt lat="40.41022866033017635345458984375" lon="-1.445240937173366546630859375">
        <ele>1217</ele>
        <time>2022-08-24T07:11:10.000Z</time>
      </trkpt>
      <trkpt lat="40.41022203862667083740234375" lon="-1.44514479674398899078369140625">
        <ele>1218.199951171875</ele>
        <time>2022-08-24T07:11:16.000Z</time>
      </trkpt>
      <trkpt lat="40.4102161712944507598876953125" lon="-1.4450499974191188812255859375">
        <ele>1219.4000244140625</ele>
        <time>2022-08-24T07:11:22.000Z</time>
      </trkpt>
      <trkpt lat="40.41022396646440029144287109375" lon="-1.4450198225677013397216796875">
        <ele>1219.5999755859375</ele>
        <time>2022-08-24T07:11:24.000Z</time>
      </trkpt>
      <trkpt lat="40.41024927981197834014892578125" lon="-1.44495360553264617919921875">
        <ele>1220.800048828125</ele>
        <time>2022-08-24T07:11:29.000Z</time>
      </trkpt>
      <trkpt lat="40.41027509607374668121337890625" lon="-1.44492083229124546051025390625">
        <ele>1221.199951171875</ele>
        <time>2022-08-24T07:11:32.000Z</time>
      </trkpt>
      <trkpt lat="40.41030862368643283843994140625" lon="-1.444880850613117218017578125">
        <ele>1221.800048828125</ele>
        <time>2022-08-24T07:11:36.000Z</time>
      </trkpt>
      <trkpt lat="40.410332344472408294677734375" lon="-1.44482888281345367431640625">
        <ele>1222.5999755859375</ele>
        <time>2022-08-24T07:11:40.000Z</time>
      </trkpt>
      <trkpt lat="40.41034265421330928802490234375" lon="-1.4448079280555248260498046875">
        <ele>1223</ele>
        <time>2022-08-24T07:11:42.000Z</time>
      </trkpt>
      <trkpt lat="40.41038674302399158477783203125" lon="-1.4447690360248088836669921875">
        <ele>1224.199951171875</ele>
        <time>2022-08-24T07:11:47.000Z</time>
      </trkpt>
      <trkpt lat="40.4104394651949405670166015625" lon="-1.44472385756671428680419921875">
        <ele>1225.199951171875</ele>
        <time>2022-08-24T07:11:53.000Z</time>
      </trkpt>
      <trkpt lat="40.41047039441764354705810546875" lon="-1.44470642320811748504638671875">
        <ele>1226</ele>
        <time>2022-08-24T07:11:56.000Z</time>
      </trkpt>
      <trkpt lat="40.4104961268603801727294921875" lon="-1.44469703547656536102294921875">
        <ele>1226.4000244140625</ele>
        <time>2022-08-24T07:11:58.000Z</time>
      </trkpt>
      <trkpt lat="40.41053007356822490692138671875" lon="-1.4446578919887542724609375">
        <ele>1227.4000244140625</ele>
        <time>2022-08-24T07:12:02.000Z</time>
      </trkpt>
      <trkpt lat="40.4105336777865886688232421875" lon="-1.444643475115299224853515625">
        <ele>1227.5999755859375</ele>
        <time>2022-08-24T07:12:03.000Z</time>
      </trkpt>
      <trkpt lat="40.41053543798625469207763671875" lon="-1.44461296498775482177734375">
        <ele>1228</ele>
        <time>2022-08-24T07:12:05.000Z</time>
      </trkpt>
      <trkpt lat="40.4105293191969394683837890625" lon="-1.4445685409009456634521484375">
        <ele>1228.800048828125</ele>
        <time>2022-08-24T07:12:08.000Z</time>
      </trkpt>
      <trkpt lat="40.41053049266338348388671875" lon="-1.44455529749393463134765625">
        <ele>1229</ele>
        <time>2022-08-24T07:12:09.000Z</time>
      </trkpt>
      <trkpt lat="40.41051297448575496673583984375" lon="-1.44450056366622447967529296875">
        <ele>1229.800048828125</ele>
        <time>2022-08-24T07:12:13.000Z</time>
      </trkpt>
      <trkpt lat="40.41049721650779247283935546875" lon="-1.44445865415036678314208984375">
        <ele>1230.5999755859375</ele>
        <time>2022-08-24T07:12:16.000Z</time>
      </trkpt>
      <trkpt lat="40.4104874096810817718505859375" lon="-1.44443057477474212646484375">
        <ele>1231.199951171875</ele>
        <time>2022-08-24T07:12:18.000Z</time>
      </trkpt>
      <trkpt lat="40.41044390760362148284912109375" lon="-1.44434667192399501800537109375">
        <ele>1232</ele>
        <time>2022-08-24T07:12:24.000Z</time>
      </trkpt>
      <trkpt lat="40.41043602861464023590087890625" lon="-1.44433544017374515533447265625">
        <ele>1232.199951171875</ele>
        <time>2022-08-24T07:12:25.000Z</time>
      </trkpt>
      <trkpt lat="40.41039663366973400115966796875" lon="-1.44426788203418254852294921875">
        <ele>1233.4000244140625</ele>
        <time>2022-08-24T07:12:30.000Z</time>
      </trkpt>
      <trkpt lat="40.410389006137847900390625" lon="-1.44425514154136180877685546875">
        <ele>1233.5999755859375</ele>
        <time>2022-08-24T07:12:31.000Z</time>
      </trkpt>
      <trkpt lat="40.410354137420654296875" lon="-1.44420585595071315765380859375">
        <ele>1234.5999755859375</ele>
        <time>2022-08-24T07:12:36.000Z</time>
      </trkpt>
      <trkpt lat="40.4103271476924419403076171875" lon="-1.44416914321482181549072265625">
        <ele>1235.199951171875</ele>
        <time>2022-08-24T07:12:39.000Z</time>
      </trkpt>
      <trkpt lat="40.41029320098459720611572265625" lon="-1.44412153400480747222900390625">
        <ele>1235.5999755859375</ele>
        <time>2022-08-24T07:12:43.000Z</time>
      </trkpt>
      <trkpt lat="40.41026118211448192596435546875" lon="-1.4440797083079814910888671875">
        <ele>1236.4000244140625</ele>
        <time>2022-08-24T07:12:47.000Z</time>
      </trkpt>
      <trkpt lat="40.41024542413651943206787109375" lon="-1.4440552331507205963134765625">
        <ele>1236.800048828125</ele>
        <time>2022-08-24T07:12:49.000Z</time>
      </trkpt>
      <trkpt lat="40.41020569391548633575439453125" lon="-1.44400049932301044464111328125">
        <ele>1237.199951171875</ele>
        <time>2022-08-24T07:12:54.000Z</time>
      </trkpt>
      <trkpt lat="40.410177446901798248291015625" lon="-1.44396764226257801055908203125">
        <ele>1237.800048828125</ele>
        <time>2022-08-24T07:12:57.000Z</time>
      </trkpt>
      <trkpt lat="40.4101165942847728729248046875" lon="-1.4438832364976406097412109375">
        <ele>1238.800048828125</ele>
        <time>2022-08-24T07:13:04.000Z</time>
      </trkpt>
      <trkpt lat="40.41011047549545764923095703125" lon="-1.44387594424188137054443359375">
        <ele>1239</ele>
        <time>2022-08-24T07:13:05.000Z</time>
      </trkpt>
      <trkpt lat="40.4100542329251766204833984375" lon="-1.4437997527420520782470703125">
        <ele>1240.199951171875</ele>
        <time>2022-08-24T07:13:12.000Z</time>
      </trkpt>
      <trkpt lat="40.41004828177392482757568359375" lon="-1.44378759898245334625244140625">
        <ele>1240.199951171875</ele>
        <time>2022-08-24T07:13:13.000Z</time>
      </trkpt>
      <trkpt lat="40.41002565063536167144775390625" lon="-1.4437373913824558258056640625">
        <ele>1241.4000244140625</ele>
        <time>2022-08-24T07:13:17.000Z</time>
      </trkpt>
      <trkpt lat="40.41000855155289173126220703125" lon="-1.4436924643814563751220703125">
        <ele>1242.4000244140625</ele>
        <time>2022-08-24T07:13:20.000Z</time>
      </trkpt>
      <trkpt lat="40.409987680613994598388671875" lon="-1.4436488784849643707275390625">
        <ele>1243.199951171875</ele>
        <time>2022-08-24T07:13:23.000Z</time>
      </trkpt>
      <trkpt lat="40.40997988544404506683349609375" lon="-1.443621218204498291015625">
        <ele>1243.5999755859375</ele>
        <time>2022-08-24T07:13:25.000Z</time>
      </trkpt>
      <trkpt lat="40.4099419154226779937744140625" lon="-1.44355357624590396881103515625">
        <ele>1244.5999755859375</ele>
        <time>2022-08-24T07:13:31.000Z</time>
      </trkpt>
      <trkpt lat="40.409934036433696746826171875" lon="-1.44353966228663921356201171875">
        <ele>1245.199951171875</ele>
        <time>2022-08-24T07:13:32.000Z</time>
      </trkpt>
      <trkpt lat="40.40990394540131092071533203125" lon="-1.44342600367963314056396484375">
        <ele>1245.800048828125</ele>
        <time>2022-08-24T07:13:39.000Z</time>
      </trkpt>
      <trkpt lat="40.4098815657198429107666015625" lon="-1.44337101839482784271240234375">
        <ele>1246.5999755859375</ele>
        <time>2022-08-24T07:13:45.000Z</time>
      </trkpt>
      <trkpt lat="40.40987745858728885650634765625" lon="-1.4433726109564304351806640625">
        <ele>1246.5999755859375</ele>
        <time>2022-08-24T07:13:47.000Z</time>
      </trkpt>
      <trkpt lat="40.409938059747219085693359375" lon="-1.4433541707694530487060546875">
        <ele>1247.199951171875</ele>
        <time>2022-08-24T07:16:58.000Z</time>
      </trkpt>
      <trkpt lat="40.40996831841766834259033203125" lon="-1.44338476471602916717529296875">
        <ele>1247.199951171875</ele>
        <time>2022-08-24T07:17:00.000Z</time>
      </trkpt>
      <trkpt lat="40.41003168560564517974853515625" lon="-1.44347813911736011505126953125">
        <ele>1246.199951171875</ele>
        <time>2022-08-24T07:17:04.000Z</time>
      </trkpt>
      <trkpt lat="40.41005180217325687408447265625" lon="-1.44349155016243457794189453125">
        <ele>1246</ele>
        <time>2022-08-24T07:17:05.000Z</time>
      </trkpt>
      <trkpt lat="40.41019898839294910430908203125" lon="-1.44355189986526966094970703125">
        <ele>1245.800048828125</ele>
        <time>2022-08-24T07:17:10.000Z</time>
      </trkpt>
      <trkpt lat="40.41033192537724971771240234375" lon="-1.44355676136910915374755859375">
        <ele>1245.4000244140625</ele>
        <time>2022-08-24T07:17:13.000Z</time>
      </trkpt>
      <trkpt lat="40.4104535467922687530517578125" lon="-1.443545110523700714111328125">
        <ele>1245.199951171875</ele>
        <time>2022-08-24T07:17:16.000Z</time>
      </trkpt>
      <trkpt lat="40.4105313308537006378173828125" lon="-1.443524323403835296630859375">
        <ele>1244.199951171875</ele>
        <time>2022-08-24T07:17:19.000Z</time>
      </trkpt>
      <trkpt lat="40.41054750792682170867919921875" lon="-1.4435204677283763885498046875">
        <ele>1244</ele>
        <time>2022-08-24T07:17:20.000Z</time>
      </trkpt>
      <trkpt lat="40.41066602803766727447509765625" lon="-1.44351518712937831878662109375">
        <ele>1244</ele>
        <time>2022-08-24T07:17:28.000Z</time>
      </trkpt>
      <trkpt lat="40.41078102774918079376220703125" lon="-1.443551145493984222412109375">
        <ele>1244.4000244140625</ele>
        <time>2022-08-24T07:17:35.000Z</time>
      </trkpt>
      <trkpt lat="40.41086752898991107940673828125" lon="-1.443610154092311859130859375">
        <ele>1245.4000244140625</ele>
        <time>2022-08-24T07:17:41.000Z</time>
      </trkpt>
      <trkpt lat="40.41087507270276546478271484375" lon="-1.443622224032878875732421875">
        <ele>1245.4000244140625</ele>
        <time>2022-08-24T07:17:42.000Z</time>
      </trkpt>
      <trkpt lat="40.4108798503875732421875" lon="-1.44363035447895526885986328125">
        <ele>1245.5999755859375</ele>
        <time>2022-08-24T07:17:44.000Z</time>
      </trkpt>
      <trkpt lat="40.41094313375651836395263671875" lon="-1.44365516491234302520751953125">
        <ele>1247</ele>
        <time>2022-08-24T07:17:57.000Z</time>
      </trkpt>
      <trkpt lat="40.4109643399715423583984375" lon="-1.4436616189777851104736328125">
        <ele>1247.199951171875</ele>
        <time>2022-08-24T07:17:58.000Z</time>
      </trkpt>
      <trkpt lat="40.41115251369774341583251953125" lon="-1.44370093010365962982177734375">
        <ele>1246.800048828125</ele>
        <time>2022-08-24T07:18:06.000Z</time>
      </trkpt>
      <trkpt lat="40.41129500605165958404541015625" lon="-1.4438413269817829132080078125">
        <ele>1246.800048828125</ele>
        <time>2022-08-24T07:18:13.000Z</time>
      </trkpt>
      <trkpt lat="40.411399863660335540771484375" lon="-1.4440155029296875">
        <ele>1247.199951171875</ele>
        <time>2022-08-24T07:18:19.000Z</time>
      </trkpt>
      <trkpt lat="40.41148510761559009552001953125" lon="-1.4441668801009654998779296875">
        <ele>1247.199951171875</ele>
        <time>2022-08-24T07:18:25.000Z</time>
      </trkpt>
      <trkpt lat="40.411587618291378021240234375" lon="-1.4443268068134784698486328125">
        <ele>1248</ele>
        <time>2022-08-24T07:18:33.000Z</time>
      </trkpt>
      <trkpt lat="40.4116402566432952880859375" lon="-1.44440375268459320068359375">
        <ele>1248.5999755859375</ele>
        <time>2022-08-24T07:18:38.000Z</time>
      </trkpt>
      <trkpt lat="40.41166934184730052947998046875" lon="-1.44444976933300495147705078125">
        <ele>1248.800048828125</ele>
        <time>2022-08-24T07:18:41.000Z</time>
      </trkpt>
      <trkpt lat="40.4117198847234249114990234375" lon="-1.44451565109193325042724609375">
        <ele>1249.5999755859375</ele>
        <time>2022-08-24T07:18:46.000Z</time>
      </trkpt>
      <trkpt lat="40.41175483725965023040771484375" lon="-1.44456543959677219390869140625">
        <ele>1250.199951171875</ele>
        <time>2022-08-24T07:18:50.000Z</time>
      </trkpt>
      <trkpt lat="40.41178978979587554931640625" lon="-1.444601900875568389892578125">
        <ele>1250.800048828125</ele>
        <time>2022-08-24T07:18:53.000Z</time>
      </trkpt>
      <trkpt lat="40.41183530353009700775146484375" lon="-1.4446640945971012115478515625">
        <ele>1252</ele>
        <time>2022-08-24T07:18:58.000Z</time>
      </trkpt>
      <trkpt lat="40.41187888942658901214599609375" lon="-1.4447060041129589080810546875">
        <ele>1253</ele>
        <time>2022-08-24T07:19:02.000Z</time>
      </trkpt>
      <trkpt lat="40.4119093157351016998291015625" lon="-1.4447459019720554351806640625">
        <ele>1253.800048828125</ele>
        <time>2022-08-24T07:19:05.000Z</time>
      </trkpt>
      <trkpt lat="40.41194058023393154144287109375" lon="-1.444788314402103424072265625">
        <ele>1254.4000244140625</ele>
        <time>2022-08-24T07:19:08.000Z</time>
      </trkpt>
      <trkpt lat="40.41200143285095691680908203125" lon="-1.444846652448177337646484375">
        <ele>1255.199951171875</ele>
        <time>2022-08-24T07:19:13.000Z</time>
      </trkpt>
      <trkpt lat="40.41201400570571422576904296875" lon="-1.444858051836490631103515625">
        <ele>1255.4000244140625</ele>
        <time>2022-08-24T07:19:14.000Z</time>
      </trkpt>
      <trkpt lat="40.41207888163626194000244140625" lon="-1.4449100196361541748046875">
        <ele>1256.5999755859375</ele>
        <time>2022-08-24T07:19:19.000Z</time>
      </trkpt>
      <trkpt lat="40.41212749667465686798095703125" lon="-1.4449520967900753021240234375">
        <ele>1257.4000244140625</ele>
        <time>2022-08-24T07:19:23.000Z</time>
      </trkpt>
      <trkpt lat="40.4121399857103824615478515625" lon="-1.44496073015034198760986328125">
        <ele>1257.800048828125</ele>
        <time>2022-08-24T07:19:24.000Z</time>
      </trkpt>
      <trkpt lat="40.41218533180654048919677734375" lon="-1.4450060762465000152587890625">
        <ele>1258.800048828125</ele>
        <time>2022-08-24T07:19:28.000Z</time>
      </trkpt>
      <trkpt lat="40.4122181050479412078857421875" lon="-1.44503449089825153350830078125">
        <ele>1259.800048828125</ele>
        <time>2022-08-24T07:19:31.000Z</time>
      </trkpt>
      <trkpt lat="40.41222807951271533966064453125" lon="-1.44504371099174022674560546875">
        <ele>1260.199951171875</ele>
        <time>2022-08-24T07:19:32.000Z</time>
      </trkpt>
      <trkpt lat="40.41227166540920734405517578125" lon="-1.4450711198151111602783203125">
        <ele>1261.4000244140625</ele>
        <time>2022-08-24T07:19:36.000Z</time>
      </trkpt>
      <trkpt lat="40.412298738956451416015625" lon="-1.445097438991069793701171875">
        <ele>1262</ele>
        <time>2022-08-24T07:19:39.000Z</time>
      </trkpt>
      <trkpt lat="40.4123188555240631103515625" lon="-1.4451165497303009033203125">
        <ele>1262.4000244140625</ele>
        <time>2022-08-24T07:19:41.000Z</time>
      </trkpt>
      <trkpt lat="40.4123592562973499298095703125" lon="-1.44516206346452236175537109375">
        <ele>1263.199951171875</ele>
        <time>2022-08-24T07:19:46.000Z</time>
      </trkpt>
      <trkpt lat="40.4123659618198871612548828125" lon="-1.4451743848621845245361328125">
        <ele>1263.4000244140625</ele>
        <time>2022-08-24T07:19:47.000Z</time>
      </trkpt>
      <trkpt lat="40.41240577585995197296142578125" lon="-1.44524286501109600067138671875">
        <ele>1264.4000244140625</ele>
        <time>2022-08-24T07:19:53.000Z</time>
      </trkpt>
      <trkpt lat="40.4124216176569461822509765625" lon="-1.44528393633663654327392578125">
        <ele>1265.199951171875</ele>
        <time>2022-08-24T07:19:56.000Z</time>
      </trkpt>
      <trkpt lat="40.412439219653606414794921875" lon="-1.44532869569957256317138671875">
        <ele>1265.5999755859375</ele>
        <time>2022-08-24T07:19:59.000Z</time>
      </trkpt>
      <trkpt lat="40.41246704757213592529296875" lon="-1.445402540266513824462890625">
        <ele>1266.5999755859375</ele>
        <time>2022-08-24T07:20:04.000Z</time>
      </trkpt>
      <trkpt lat="40.4124829731881618499755859375" lon="-1.4454308710992336273193359375">
        <ele>1266.800048828125</ele>
        <time>2022-08-24T07:20:06.000Z</time>
      </trkpt>
      <trkpt lat="40.41252446360886096954345703125" lon="-1.4455110020935535430908203125">
        <ele>1268</ele>
        <time>2022-08-24T07:20:12.000Z</time>
      </trkpt>
      <trkpt lat="40.412541814148426055908203125" lon="-1.4456073939800262451171875">
        <ele>1269.199951171875</ele>
        <time>2022-08-24T07:20:18.000Z</time>
      </trkpt>
      <trkpt lat="40.41254055686295032501220703125" lon="-1.4456256665289402008056640625">
        <ele>1269.199951171875</ele>
        <time>2022-08-24T07:20:19.000Z</time>
      </trkpt>
      <trkpt lat="40.41251666843891143798828125" lon="-1.4456816576421260833740234375">
        <ele>1269.800048828125</ele>
        <time>2022-08-24T07:20:23.000Z</time>
      </trkpt>
      <trkpt lat="40.41249982081353664398193359375" lon="-1.44568459130823612213134765625">
        <ele>1270.4000244140625</ele>
        <time>2022-08-24T07:20:25.000Z</time>
      </trkpt>
      <trkpt lat="40.4124568216502666473388671875" lon="-1.44566531293094158172607421875">
        <ele>1271.4000244140625</ele>
        <time>2022-08-24T07:20:29.000Z</time>
      </trkpt>
      <trkpt lat="40.4124355316162109375" lon="-1.44565760158002376556396484375">
        <ele>1271.800048828125</ele>
        <time>2022-08-24T07:20:31.000Z</time>
      </trkpt>
      <trkpt lat="40.4124085418879985809326171875" lon="-1.44564402289688587188720703125">
        <ele>1272.5999755859375</ele>
        <time>2022-08-24T07:20:34.000Z</time>
      </trkpt>
      <trkpt lat="40.41237727738916873931884765625" lon="-1.44563681446015834808349609375">
        <ele>1273.199951171875</ele>
        <time>2022-08-24T07:20:37.000Z</time>
      </trkpt>
      <trkpt lat="40.4123659618198871612548828125" lon="-1.4456315338611602783203125">
        <ele>1273.199951171875</ele>
        <time>2022-08-24T07:20:38.000Z</time>
      </trkpt>
      <trkpt lat="40.4123461805284023284912109375" lon="-1.44562122412025928497314453125">
        <ele>1273.5999755859375</ele>
        <time>2022-08-24T07:20:40.000Z</time>
      </trkpt>
      <trkpt lat="40.41229262016713619232177734375" lon="-1.4456055499613285064697265625">
        <ele>1274.199951171875</ele>
        <time>2022-08-24T07:20:45.000Z</time>
      </trkpt>
      <trkpt lat="40.41227200068533420562744140625" lon="-1.4456008560955524444580078125">
        <ele>1274.5999755859375</ele>
        <time>2022-08-24T07:20:47.000Z</time>
      </trkpt>
      <trkpt lat="40.4122201167047023773193359375" lon="-1.445589959621429443359375">
        <ele>1275.800048828125</ele>
        <time>2022-08-24T07:20:52.000Z</time>
      </trkpt>
      <trkpt lat="40.4122107289731502532958984375" lon="-1.44558652304112911224365234375">
        <ele>1276.199951171875</ele>
        <time>2022-08-24T07:20:53.000Z</time>
      </trkpt>
      <trkpt lat="40.412181727588176727294921875" lon="-1.44557763822376728057861328125">
        <ele>1277</ele>
        <time>2022-08-24T07:20:56.000Z</time>
      </trkpt>
      <trkpt lat="40.41212447918951511383056640625" lon="-1.445565484464168548583984375">
        <ele>1277.5999755859375</ele>
        <time>2022-08-24T07:21:01.000Z</time>
      </trkpt>
      <trkpt lat="40.41208022274076938629150390625" lon="-1.44556757993996143341064453125">
        <ele>1278.4000244140625</ele>
        <time>2022-08-24T07:21:05.000Z</time>
      </trkpt>
      <trkpt lat="40.41203713975846767425537109375" lon="-1.44556975923478603363037109375">
        <ele>1279</ele>
        <time>2022-08-24T07:21:09.000Z</time>
      </trkpt>
      <trkpt lat="40.41199875064194202423095703125" lon="-1.44556188024580478668212890625">
        <ele>1279.4000244140625</ele>
        <time>2022-08-24T07:21:12.000Z</time>
      </trkpt>
      <trkpt lat="40.41194594465196132659912109375" lon="-1.44556959159672260284423828125">
        <ele>1280.4000244140625</ele>
        <time>2022-08-24T07:21:17.000Z</time>
      </trkpt>
      <trkpt lat="40.4119354672729969024658203125" lon="-1.4455683343112468719482421875">
        <ele>1280.5999755859375</ele>
        <time>2022-08-24T07:21:18.000Z</time>
      </trkpt>
      <trkpt lat="40.4118788056075572967529296875" lon="-1.44555936567485332489013671875">
        <ele>1282</ele>
        <time>2022-08-24T07:21:23.000Z</time>
      </trkpt>
      <trkpt lat="40.4118556715548038482666015625" lon="-1.445556096732616424560546875">
        <ele>1282.4000244140625</ele>
        <time>2022-08-24T07:21:25.000Z</time>
      </trkpt>
      <trkpt lat="40.41181937791407108306884765625" lon="-1.4455448649823665618896484375">
        <ele>1282.800048828125</ele>
        <time>2022-08-24T07:21:28.000Z</time>
      </trkpt>
      <trkpt lat="40.41180588304996490478515625" lon="-1.44554344005882740020751953125">
        <ele>1283</ele>
        <time>2022-08-24T07:21:29.000Z</time>
      </trkpt>
      <trkpt lat="40.41176699101924896240234375" lon="-1.4455415122210979461669921875">
        <ele>1283.5999755859375</ele>
        <time>2022-08-24T07:21:32.000Z</time>
      </trkpt>
      <trkpt lat="40.41173824109137058258056640625" lon="-1.44555282779037952423095703125">
        <ele>1284.199951171875</ele>
        <time>2022-08-24T07:21:35.000Z</time>
      </trkpt>
      <trkpt lat="40.411725081503391265869140625" lon="-1.4456075616180896759033203125">
        <ele>1285</ele>
        <time>2022-08-24T07:21:39.000Z</time>
      </trkpt>
      <trkpt lat="40.4117215611040592193603515625" lon="-1.44563262350857257843017578125">
        <ele>1285.199951171875</ele>
        <time>2022-08-24T07:21:41.000Z</time>
      </trkpt>
      <trkpt lat="40.41173622943460941314697265625" lon="-1.44572205841541290283203125">
        <ele>1286.199951171875</ele>
        <time>2022-08-24T07:21:47.000Z</time>
      </trkpt>
      <trkpt lat="40.41173354722559452056884765625" lon="-1.44573907367885112762451171875">
        <ele>1286.4000244140625</ele>
        <time>2022-08-24T07:21:48.000Z</time>
      </trkpt>
      <trkpt lat="40.4117369838058948516845703125" lon="-1.44578768871724605560302734375">
        <ele>1287.5999755859375</ele>
        <time>2022-08-24T07:21:51.000Z</time>
      </trkpt>
      <trkpt lat="40.41173321194946765899658203125" lon="-1.44583496265113353729248046875">
        <ele>1287.800048828125</ele>
        <time>2022-08-24T07:21:54.000Z</time>
      </trkpt>
      <trkpt lat="40.4117275960743427276611328125" lon="-1.44590352661907672882080078125">
        <ele>1288.800048828125</ele>
        <time>2022-08-24T07:21:59.000Z</time>
      </trkpt>
      <trkpt lat="40.41172633878886699676513671875" lon="-1.44594426266849040985107421875">
        <ele>1289.199951171875</ele>
        <time>2022-08-24T07:22:02.000Z</time>
      </trkpt>
      <trkpt lat="40.41172013618052005767822265625" lon="-1.44598214887082576751708984375">
        <ele>1289.800048828125</ele>
        <time>2022-08-24T07:22:05.000Z</time>
      </trkpt>
      <trkpt lat="40.41170052252709865570068359375" lon="-1.44605943001806735992431640625">
        <ele>1290.800048828125</ele>
        <time>2022-08-24T07:22:11.000Z</time>
      </trkpt>
      <trkpt lat="40.411698259413242340087890625" lon="-1.4460722543299198150634765625">
        <ele>1291</ele>
        <time>2022-08-24T07:22:12.000Z</time>
      </trkpt>
      <trkpt lat="40.41169591248035430908203125" lon="-1.44615246914327144622802734375">
        <ele>1292</ele>
        <time>2022-08-24T07:22:19.000Z</time>
      </trkpt>
      <trkpt lat="40.41168912313878536224365234375" lon="-1.44622497260570526123046875">
        <ele>1293.4000244140625</ele>
        <time>2022-08-24T07:22:25.000Z</time>
      </trkpt>
      <trkpt lat="40.41168711148202419281005859375" lon="-1.44623746164143085479736328125">
        <ele>1293.5999755859375</ele>
        <time>2022-08-24T07:22:26.000Z</time>
      </trkpt>
      <trkpt lat="40.41167453862726688385009765625" lon="-1.44633905030786991119384765625">
        <ele>1294.5999755859375</ele>
        <time>2022-08-24T07:22:33.000Z</time>
      </trkpt>
      <trkpt lat="40.4116724431514739990234375" lon="-1.44636956043541431427001953125">
        <ele>1295</ele>
        <time>2022-08-24T07:22:35.000Z</time>
      </trkpt>
      <trkpt lat="40.4116595350205898284912109375" lon="-1.44641214050352573394775390625">
        <ele>1295.5999755859375</ele>
        <time>2022-08-24T07:22:38.000Z</time>
      </trkpt>
      <trkpt lat="40.41164654307067394256591796875" lon="-1.446476764976978302001953125">
        <ele>1296.800048828125</ele>
        <time>2022-08-24T07:22:43.000Z</time>
      </trkpt>
      <trkpt lat="40.41164855472743511199951171875" lon="-1.44648908637464046478271484375">
        <ele>1297</ele>
        <time>2022-08-24T07:22:44.000Z</time>
      </trkpt>
      <trkpt lat="40.41166448034346103668212890625" lon="-1.4465228654444217681884765625">
        <ele>1297.800048828125</ele>
        <time>2022-08-24T07:22:47.000Z</time>
      </trkpt>
      <trkpt lat="40.4116722755134105682373046875" lon="-1.4465302415192127227783203125">
        <ele>1298</ele>
        <time>2022-08-24T07:22:48.000Z</time>
      </trkpt>
      <trkpt lat="40.41168912313878536224365234375" lon="-1.4465369470417499542236328125">
        <ele>1298.4000244140625</ele>
        <time>2022-08-24T07:22:50.000Z</time>
      </trkpt>
      <trkpt lat="40.41171544231474399566650390625" lon="-1.4465322531759738922119140625">
        <ele>1299.199951171875</ele>
        <time>2022-08-24T07:22:53.000Z</time>
      </trkpt>
      <trkpt lat="40.41174829937517642974853515625" lon="-1.446506939828395843505859375">
        <ele>1299.5999755859375</ele>
        <time>2022-08-24T07:22:57.000Z</time>
      </trkpt>
      <trkpt lat="40.41178937070071697235107421875" lon="-1.446476764976978302001953125">
        <ele>1300.199951171875</ele>
        <time>2022-08-24T07:23:01.000Z</time>
      </trkpt>
      <trkpt lat="40.41181988082826137542724609375" lon="-1.44645296037197113037109375">
        <ele>1300.5999755859375</ele>
        <time>2022-08-24T07:23:04.000Z</time>
      </trkpt>
      <trkpt lat="40.411839075386524200439453125" lon="-1.446441896259784698486328125">
        <ele>1300.800048828125</ele>
        <time>2022-08-24T07:23:06.000Z</time>
      </trkpt>
      <trkpt lat="40.411858521401882171630859375" lon="-1.44643108360469341278076171875">
        <ele>1301.4000244140625</ele>
        <time>2022-08-24T07:23:08.000Z</time>
      </trkpt>
      <trkpt lat="40.41190755553543567657470703125" lon="-1.44641180522739887237548828125">
        <ele>1302</ele>
        <time>2022-08-24T07:23:13.000Z</time>
      </trkpt>
      <trkpt lat="40.41191895492374897003173828125" lon="-1.44641532562673091888427734375">
        <ele>1302.199951171875</ele>
        <time>2022-08-24T07:23:14.000Z</time>
      </trkpt>
      <trkpt lat="40.4119431786239147186279296875" lon="-1.4464227855205535888671875">
        <ele>1302.4000244140625</ele>
        <time>2022-08-24T07:23:16.000Z</time>
      </trkpt>
      <trkpt lat="40.41195214726030826568603515625" lon="-1.44643125124275684356689453125">
        <ele>1302.5999755859375</ele>
        <time>2022-08-24T07:23:17.000Z</time>
      </trkpt>
      <trkpt lat="40.411974526941776275634765625" lon="-1.44647366367280483245849609375">
        <ele>1303</ele>
        <time>2022-08-24T07:23:21.000Z</time>
      </trkpt>
      <trkpt lat="40.41199254803359508514404296875" lon="-1.4465128071606159210205078125">
        <ele>1303.5999755859375</ele>
        <time>2022-08-24T07:23:24.000Z</time>
      </trkpt>
      <trkpt lat="40.4120119102299213409423828125" lon="-1.446560584008693695068359375">
        <ele>1304</ele>
        <time>2022-08-24T07:23:28.000Z</time>
      </trkpt>
      <trkpt lat="40.412029512226581573486328125" lon="-1.4466707222163677215576171875">
        <ele>1304.800048828125</ele>
        <time>2022-08-24T07:23:36.000Z</time>
      </trkpt>
      <trkpt lat="40.4120491258800029754638671875" lon="-1.44681162200868129730224609375">
        <ele>1306</ele>
        <time>2022-08-24T07:23:45.000Z</time>
      </trkpt>
      <trkpt lat="40.4120699129998683929443359375" lon="-1.44693785347044467926025390625">
        <ele>1307</ele>
        <time>2022-08-24T07:23:52.000Z</time>
      </trkpt>
      <trkpt lat="40.41207267902791500091552734375" lon="-1.44695813767611980438232421875">
        <ele>1307.199951171875</ele>
        <time>2022-08-24T07:23:53.000Z</time>
      </trkpt>
      <trkpt lat="40.4121069610118865966796875" lon="-1.4470727182924747467041015625">
        <ele>1308.199951171875</ele>
        <time>2022-08-24T07:23:59.000Z</time>
      </trkpt>
      <trkpt lat="40.41211810894310474395751953125" lon="-1.44710046239197254180908203125">
        <ele>1308.5999755859375</ele>
        <time>2022-08-24T07:24:01.000Z</time>
      </trkpt>
      <trkpt lat="40.4121497087180614471435546875" lon="-1.44717321731150150299072265625">
        <ele>1308.5999755859375</ele>
        <time>2022-08-24T07:24:06.000Z</time>
      </trkpt>
      <trkpt lat="40.41216270066797733306884765625" lon="-1.44720892421901226043701171875">
        <ele>1308.800048828125</ele>
        <time>2022-08-24T07:24:08.000Z</time>
      </trkpt>
      <trkpt lat="40.41224920190870761871337890625" lon="-1.4473935775458812713623046875">
        <ele>1308.800048828125</ele>
        <time>2022-08-24T07:24:17.000Z</time>
      </trkpt>
      <trkpt lat="40.41234676726162433624267578125" lon="-1.44758946262300014495849609375">
        <ele>1309</ele>
        <time>2022-08-24T07:24:26.000Z</time>
      </trkpt>
      <trkpt lat="40.41241667233407497406005859375" lon="-1.44771485589444637298583984375">
        <ele>1309.199951171875</ele>
        <time>2022-08-24T07:24:34.000Z</time>
      </trkpt>
      <trkpt lat="40.4124330170452594757080078125" lon="-1.44773078151047229766845703125">
        <ele>1309.5999755859375</ele>
        <time>2022-08-24T07:24:36.000Z</time>
      </trkpt>
      <trkpt lat="40.412449948489665985107421875" lon="-1.44777352921664714813232421875">
        <ele>1310.4000244140625</ele>
        <time>2022-08-24T07:24:42.000Z</time>
      </trkpt>
      <trkpt lat="40.41244869120419025421142578125" lon="-1.447774283587932586669921875">
        <ele>1310.4000244140625</ele>
        <time>2022-08-24T07:24:43.000Z</time>
      </trkpt>
      <trkpt lat="40.41249244473874568939208984375" lon="-1.44785617478191852569580078125">
        <ele>1310.800048828125</ele>
        <time>2022-08-24T07:24:50.000Z</time>
      </trkpt>
      <trkpt lat="40.412517674267292022705078125" lon="-1.44790914840996265411376953125">
        <ele>1310.800048828125</ele>
        <time>2022-08-24T07:24:53.000Z</time>
      </trkpt>
      <trkpt lat="40.41258632205426692962646484375" lon="-1.44804024137556552886962890625">
        <ele>1311.800048828125</ele>
        <time>2022-08-24T07:25:01.000Z</time>
      </trkpt>
      <trkpt lat="40.41259570978581905364990234375" lon="-1.44805692136287689208984375">
        <ele>1311.800048828125</ele>
        <time>2022-08-24T07:25:02.000Z</time>
      </trkpt>
      <trkpt lat="40.41268925182521343231201171875" lon="-1.44819010980427265167236328125">
        <ele>1313</ele>
        <time>2022-08-24T07:25:10.000Z</time>
      </trkpt>
      <trkpt lat="40.41276116855442523956298828125" lon="-1.4482595957815647125244140625">
        <ele>1313.199951171875</ele>
        <time>2022-08-24T07:25:15.000Z</time>
      </trkpt>
      <trkpt lat="40.4127780161798000335693359375" lon="-1.44827711395919322967529296875">
        <ele>1313.199951171875</ele>
        <time>2022-08-24T07:25:16.000Z</time>
      </trkpt>
      <trkpt lat="40.4129235260188579559326171875" lon="-1.44840904511511325836181640625">
        <ele>1313.5999755859375</ele>
        <time>2022-08-24T07:25:24.000Z</time>
      </trkpt>
      <trkpt lat="40.41310809552669525146484375" lon="-1.448551118373870849609375">
        <ele>1314.199951171875</ele>
        <time>2022-08-24T07:25:32.000Z</time>
      </trkpt>
      <trkpt lat="40.41329643689095973968505859375" lon="-1.44871347583830356597900390625">
        <ele>1314.4000244140625</ele>
        <time>2022-08-24T07:25:38.000Z</time>
      </trkpt>
      <trkpt lat="40.41344915516674518585205078125" lon="-1.44897968508303165435791015625">
        <ele>1314.4000244140625</ele>
        <time>2022-08-24T07:25:45.000Z</time>
      </trkpt>
      <trkpt lat="40.413509421050548553466796875" lon="-1.44917347468435764312744140625">
        <ele>1314.199951171875</ele>
        <time>2022-08-24T07:25:49.000Z</time>
      </trkpt>
      <trkpt lat="40.4135400988161563873291015625" lon="-1.4493378438055515289306640625">
        <ele>1314</ele>
        <time>2022-08-24T07:25:52.000Z</time>
      </trkpt>
      <trkpt lat="40.41363154537975788116455078125" lon="-1.44986330531537532806396484375">
        <ele>1313.5999755859375</ele>
        <time>2022-08-24T07:26:02.000Z</time>
      </trkpt>
      <trkpt lat="40.4136701859533786773681640625" lon="-1.45008106715977191925048828125">
        <ele>1314</ele>
        <time>2022-08-24T07:26:08.000Z</time>
      </trkpt>
      <trkpt lat="40.4136638157069683074951171875" lon="-1.450085341930389404296875">
        <ele>1314</ele>
        <time>2022-08-24T07:26:10.000Z</time>
      </trkpt>
      <trkpt lat="40.4136678390204906463623046875" lon="-1.45019237883388996124267578125">
        <ele>1314</ele>
        <time>2022-08-24T07:27:11.000Z</time>
      </trkpt>
      <trkpt lat="40.4136728681623935699462890625" lon="-1.450223140418529510498046875">
        <ele>1314</ele>
        <time>2022-08-24T07:27:12.000Z</time>
      </trkpt>
      <trkpt lat="40.41372944600880146026611328125" lon="-1.4505193568766117095947265625">
        <ele>1314</ele>
        <time>2022-08-24T07:27:20.000Z</time>
      </trkpt>
      <trkpt lat="40.41378979571163654327392578125" lon="-1.45090878009796142578125">
        <ele>1314.199951171875</ele>
        <time>2022-08-24T07:27:28.000Z</time>
      </trkpt>
      <trkpt lat="40.41384830139577388763427734375" lon="-1.45123391412198543548583984375">
        <ele>1313.800048828125</ele>
        <time>2022-08-24T07:27:37.000Z</time>
      </trkpt>
      <trkpt lat="40.413892306387424468994140625" lon="-1.45145419053733348846435546875">
        <ele>1314.4000244140625</ele>
        <time>2022-08-24T07:27:45.000Z</time>
      </trkpt>
      <trkpt lat="40.4139353893697261810302734375" lon="-1.451668851077556610107421875">
        <ele>1315.4000244140625</ele>
        <time>2022-08-24T07:27:54.000Z</time>
      </trkpt>
      <trkpt lat="40.4139397479593753814697265625" lon="-1.45168955437839031219482421875">
        <ele>1315.4000244140625</ele>
        <time>2022-08-24T07:27:55.000Z</time>
      </trkpt>
      <trkpt lat="40.413961373269557952880859375" lon="-1.45180991850793361663818359375">
        <ele>1316.4000244140625</ele>
        <time>2022-08-24T07:28:01.000Z</time>
      </trkpt>
      <trkpt lat="40.41396514512598514556884765625" lon="-1.4518279395997524261474609375">
        <ele>1316.5999755859375</ele>
        <time>2022-08-24T07:28:02.000Z</time>
      </trkpt>
      <trkpt lat="40.4139776341617107391357421875" lon="-1.45188770256936550140380859375">
        <ele>1317.5999755859375</ele>
        <time>2022-08-24T07:28:06.000Z</time>
      </trkpt>
      <trkpt lat="40.41398056782782077789306640625" lon="-1.45193480886518955230712890625">
        <ele>1318</ele>
        <time>2022-08-24T07:28:09.000Z</time>
      </trkpt>
      <trkpt lat="40.4139871895313262939453125" lon="-1.451993398368358612060546875">
        <ele>1318.5999755859375</ele>
        <time>2022-08-24T07:28:13.000Z</time>
      </trkpt>
      <trkpt lat="40.41399515233933925628662109375" lon="-1.452062129974365234375">
        <ele>1319.199951171875</ele>
        <time>2022-08-24T07:28:17.000Z</time>
      </trkpt>
      <trkpt lat="40.4140027798712253570556640625" lon="-1.4521025307476520538330078125">
        <ele>1319.5999755859375</ele>
        <time>2022-08-24T07:28:19.000Z</time>
      </trkpt>
      <trkpt lat="40.41402800939977169036865234375" lon="-1.452221386134624481201171875">
        <ele>1320.5999755859375</ele>
        <time>2022-08-24T07:28:25.000Z</time>
      </trkpt>
      <trkpt lat="40.41403806768357753753662109375" lon="-1.452262289822101593017578125">
        <ele>1321</ele>
        <time>2022-08-24T07:28:27.000Z</time>
      </trkpt>
      <trkpt lat="40.4140591062605381011962890625" lon="-1.4523901976644992828369140625">
        <ele>1321.800048828125</ele>
        <time>2022-08-24T07:28:33.000Z</time>
      </trkpt>
      <trkpt lat="40.4140654765069484710693359375" lon="-1.45242967642843723297119140625">
        <ele>1322.199951171875</ele>
        <time>2022-08-24T07:28:35.000Z</time>
      </trkpt>
      <trkpt lat="40.4140627942979335784912109375" lon="-1.452579461038112640380859375">
        <ele>1323</ele>
        <time>2022-08-24T07:28:42.000Z</time>
      </trkpt>
      <trkpt lat="40.4140547476708889007568359375" lon="-1.45261801779270172119140625">
        <ele>1323.199951171875</ele>
        <time>2022-08-24T07:28:44.000Z</time>
      </trkpt>
      <trkpt lat="40.4140403307974338531494140625" lon="-1.45274265669286251068115234375">
        <ele>1324.199951171875</ele>
        <time>2022-08-24T07:28:51.000Z</time>
      </trkpt>
      <trkpt lat="40.41403790004551410675048828125" lon="-1.45277635194361209869384765625">
        <ele>1325</ele>
        <time>2022-08-24T07:28:53.000Z</time>
      </trkpt>
      <trkpt lat="40.41403706185519695281982421875" lon="-1.4527935348451137542724609375">
        <ele>1325.5999755859375</ele>
        <time>2022-08-24T07:28:54.000Z</time>
      </trkpt>
      <trkpt lat="40.414019711315631866455078125" lon="-1.45288649015128612518310546875">
        <ele>1326.800048828125</ele>
        <time>2022-08-24T07:29:00.000Z</time>
      </trkpt>
      <trkpt lat="40.41400956921279430389404296875" lon="-1.45291708409786224365234375">
        <ele>1327</ele>
        <time>2022-08-24T07:29:02.000Z</time>
      </trkpt>
      <trkpt lat="40.41398140601813793182373046875" lon="-1.45298053510487079620361328125">
        <ele>1328</ele>
        <time>2022-08-24T07:29:06.000Z</time>
      </trkpt>
      <trkpt lat="40.41392692364752292633056640625" lon="-1.45307558588683605194091796875">
        <ele>1328.800048828125</ele>
        <time>2022-08-24T07:29:13.000Z</time>
      </trkpt>
      <trkpt lat="40.4139094054698944091796875" lon="-1.45310659892857074737548828125">
        <ele>1329</ele>
        <time>2022-08-24T07:29:15.000Z</time>
      </trkpt>
      <trkpt lat="40.41383824311196804046630859375" lon="-1.453221179544925689697265625">
        <ele>1329.800048828125</ele>
        <time>2022-08-24T07:29:22.000Z</time>
      </trkpt>
      <trkpt lat="40.4138036258518695831298828125" lon="-1.4532739855349063873291015625">
        <ele>1330.199951171875</ele>
        <time>2022-08-24T07:29:25.000Z</time>
      </trkpt>
      <trkpt lat="40.4137258417904376983642578125" lon="-1.45338638685643672943115234375">
        <ele>1330.5999755859375</ele>
        <time>2022-08-24T07:29:32.000Z</time>
      </trkpt>
      <trkpt lat="40.41361578740179538726806640625" lon="-1.453441120684146881103515625">
        <ele>1331.199951171875</ele>
        <time>2022-08-24T07:29:40.000Z</time>
      </trkpt>
      <trkpt lat="40.41360321454703807830810546875" lon="-1.4534501731395721435546875">
        <ele>1331.199951171875</ele>
        <time>2022-08-24T07:29:41.000Z</time>
      </trkpt>
      <trkpt lat="40.413483940064907073974609375" lon="-1.45354715175926685333251953125">
        <ele>1332.4000244140625</ele>
        <time>2022-08-24T07:29:50.000Z</time>
      </trkpt>
      <trkpt lat="40.413469858467578887939453125" lon="-1.45355704240500926971435546875">
        <ele>1332.5999755859375</ele>
        <time>2022-08-24T07:29:51.000Z</time>
      </trkpt>
      <trkpt lat="40.41336692869663238525390625" lon="-1.45361043512821197509765625">
        <ele>1333.4000244140625</ele>
        <time>2022-08-24T07:29:58.000Z</time>
      </trkpt>
      <trkpt lat="40.41335293091833591461181640625" lon="-1.45361420698463916778564453125">
        <ele>1333.4000244140625</ele>
        <time>2022-08-24T07:29:59.000Z</time>
      </trkpt>
      <trkpt lat="40.41325955651700496673583984375" lon="-1.4536285400390625">
        <ele>1334.4000244140625</ele>
        <time>2022-08-24T07:30:06.000Z</time>
      </trkpt>
      <trkpt lat="40.4132467322051525115966796875" lon="-1.45363180898129940032958984375">
        <ele>1334.4000244140625</ele>
        <time>2022-08-24T07:30:07.000Z</time>
      </trkpt>
      <trkpt lat="40.413164086639881134033203125" lon="-1.45365276373922824859619140625">
        <ele>1335.5999755859375</ele>
        <time>2022-08-24T07:30:13.000Z</time>
      </trkpt>
      <trkpt lat="40.41311941109597682952880859375" lon="-1.45366382785141468048095703125">
        <ele>1336</ele>
        <time>2022-08-24T07:30:16.000Z</time>
      </trkpt>
      <trkpt lat="40.41307699866592884063720703125" lon="-1.4536783285439014434814453125">
        <ele>1336.5999755859375</ele>
        <time>2022-08-24T07:30:19.000Z</time>
      </trkpt>
      <trkpt lat="40.41300592012703418731689453125" lon="-1.4537076652050018310546875">
        <ele>1337.800048828125</ele>
        <time>2022-08-24T07:30:24.000Z</time>
      </trkpt>
      <trkpt lat="40.41297532618045806884765625" lon="-1.4537237584590911865234375">
        <ele>1338.199951171875</ele>
        <time>2022-08-24T07:30:26.000Z</time>
      </trkpt>
      <trkpt lat="40.41287608444690704345703125" lon="-1.45378905348479747772216796875">
        <ele>1338.800048828125</ele>
        <time>2022-08-24T07:30:33.000Z</time>
      </trkpt>
      <trkpt lat="40.41286208666861057281494140625" lon="-1.45380011759698390960693359375">
        <ele>1339</ele>
        <time>2022-08-24T07:30:34.000Z</time>
      </trkpt>
      <trkpt lat="40.4127568937838077545166015625" lon="-1.45385744981467723846435546875">
        <ele>1339.800048828125</ele>
        <time>2022-08-24T07:30:41.000Z</time>
      </trkpt>
      <trkpt lat="40.4126975499093532562255859375" lon="-1.45388578064739704132080078125">
        <ele>1340.199951171875</ele>
        <time>2022-08-24T07:30:45.000Z</time>
      </trkpt>
      <trkpt lat="40.41261901147663593292236328125" lon="-1.45390388555824756622314453125">
        <ele>1341</ele>
        <time>2022-08-24T07:30:50.000Z</time>
      </trkpt>
      <trkpt lat="40.4125506989657878875732421875" lon="-1.45391494967043399810791015625">
        <ele>1341.199951171875</ele>
        <time>2022-08-24T07:30:54.000Z</time>
      </trkpt>
      <trkpt lat="40.41240938007831573486328125" lon="-1.45394646562635898590087890625">
        <ele>1341.800048828125</ele>
        <time>2022-08-24T07:31:02.000Z</time>
      </trkpt>
      <trkpt lat="40.41235313750803470611572265625" lon="-1.4539864473044872283935546875">
        <ele>1342</ele>
        <time>2022-08-24T07:31:05.000Z</time>
      </trkpt>
      <trkpt lat="40.4122771136462688446044921875" lon="-1.45406238734722137451171875">
        <ele>1342.199951171875</ele>
        <time>2022-08-24T07:31:09.000Z</time>
      </trkpt>
      <trkpt lat="40.4122724197804927825927734375" lon="-1.45407118834555149078369140625">
        <ele>1342.199951171875</ele>
        <time>2022-08-24T07:31:11.000Z</time>
      </trkpt>
      <trkpt lat="40.41222338564693927764892578125" lon="-1.45412231795489788055419921875">
        <ele>1341.4000244140625</ele>
        <time>2022-08-24T07:31:29.000Z</time>
      </trkpt>
      <trkpt lat="40.4122080467641353607177734375" lon="-1.45414059050381183624267578125">
        <ele>1341.4000244140625</ele>
        <time>2022-08-24T07:31:30.000Z</time>
      </trkpt>
      <trkpt lat="40.41209950111806392669677734375" lon="-1.45430973730981349945068359375">
        <ele>1341.199951171875</ele>
        <time>2022-08-24T07:31:37.000Z</time>
      </trkpt>
      <trkpt lat="40.41195952333509922027587890625" lon="-1.4544571749866008758544921875">
        <ele>1341.199951171875</ele>
        <time>2022-08-24T07:31:45.000Z</time>
      </trkpt>
      <trkpt lat="40.41183161549270153045654296875" lon="-1.45453671924769878387451171875">
        <ele>1341.5999755859375</ele>
        <time>2022-08-24T07:31:53.000Z</time>
      </trkpt>
      <trkpt lat="40.411754585802555084228515625" lon="-1.4546181075274944305419921875">
        <ele>1343</ele>
        <time>2022-08-24T07:32:01.000Z</time>
      </trkpt>
      <trkpt lat="40.41174612008035182952880859375" lon="-1.45463478751480579376220703125">
        <ele>1343.4000244140625</ele>
        <time>2022-08-24T07:32:02.000Z</time>
      </trkpt>
      <trkpt lat="40.411733798682689666748046875" lon="-1.45471357740461826324462890625">
        <ele>1344.4000244140625</ele>
        <time>2022-08-24T07:32:06.000Z</time>
      </trkpt>
      <trkpt lat="40.4117381572723388671875" lon="-1.454770155251026153564453125">
        <ele>1345</ele>
        <time>2022-08-24T07:32:09.000Z</time>
      </trkpt>
      <trkpt lat="40.4117433540523052215576171875" lon="-1.45483545027673244476318359375">
        <ele>1345.5999755859375</ele>
        <time>2022-08-24T07:32:12.000Z</time>
      </trkpt>
      <trkpt lat="40.411725081503391265869140625" lon="-1.45502974279224872589111328125">
        <ele>1346.5999755859375</ele>
        <time>2022-08-24T07:32:20.000Z</time>
      </trkpt>
      <trkpt lat="40.41172097437083721160888671875" lon="-1.45505639724433422088623046875">
        <ele>1346.5999755859375</ele>
        <time>2022-08-24T07:32:21.000Z</time>
      </trkpt>
      <trkpt lat="40.411713011562824249267578125" lon="-1.45518950186669826507568359375">
        <ele>1346.800048828125</ele>
        <time>2022-08-24T07:32:26.000Z</time>
      </trkpt>
      <trkpt lat="40.4117126762866973876953125" lon="-1.4552008174359798431396484375">
        <ele>1346.800048828125</ele>
        <time>2022-08-24T07:32:28.000Z</time>
      </trkpt>
      <trkpt lat="40.41172365657985210418701171875" lon="-1.45528153516352176666259765625">
        <ele>1345.800048828125</ele>
        <time>2022-08-24T07:33:07.000Z</time>
      </trkpt>
      <trkpt lat="40.411723740398883819580078125" lon="-1.45532830618321895599365234375">
        <ele>1345.800048828125</ele>
        <time>2022-08-24T07:33:08.000Z</time>
      </trkpt>
      <trkpt lat="40.41173086501657962799072265625" lon="-1.45560189150273799896240234375">
        <ele>1345.5999755859375</ele>
        <time>2022-08-24T07:33:12.000Z</time>
      </trkpt>
      <trkpt lat="40.4117859341204166412353515625" lon="-1.45607630722224712371826171875">
        <ele>1344.5999755859375</ele>
        <time>2022-08-24T07:33:17.000Z</time>
      </trkpt>
      <trkpt lat="40.4117839224636554718017578125" lon="-1.456178985536098480224609375">
        <ele>1344.4000244140625</ele>
        <time>2022-08-24T07:33:18.000Z</time>
      </trkpt>
      <trkpt lat="40.4117571003735065460205078125" lon="-1.45649640820920467376708984375">
        <ele>1343.199951171875</ele>
        <time>2022-08-24T07:33:21.000Z</time>
      </trkpt>
      <trkpt lat="40.41175701655447483062744140625" lon="-1.45660000853240489959716796875">
        <ele>1342.4000244140625</ele>
        <time>2022-08-24T07:33:22.000Z</time>
      </trkpt>
      <trkpt lat="40.4117661528289318084716796875" lon="-1.45670033991336822509765625">
        <ele>1341.4000244140625</ele>
        <time>2022-08-24T07:33:23.000Z</time>
      </trkpt>
      <trkpt lat="40.41181133128702640533447265625" lon="-1.4568832330405712127685546875">
        <ele>1340.199951171875</ele>
        <time>2022-08-24T07:33:25.000Z</time>
      </trkpt>
      <trkpt lat="40.4118385724723339080810546875" lon="-1.4569670520722866058349609375">
        <ele>1339.800048828125</ele>
        <time>2022-08-24T07:33:26.000Z</time>
      </trkpt>
      <trkpt lat="40.41189841926097869873046875" lon="-1.4571397192776203155517578125">
        <ele>1339</ele>
        <time>2022-08-24T07:33:28.000Z</time>
      </trkpt>
      <trkpt lat="40.41195751167833805084228515625" lon="-1.45733409561216831207275390625">
        <ele>1338.5999755859375</ele>
        <time>2022-08-24T07:33:30.000Z</time>
      </trkpt>
      <trkpt lat="40.41197159327566623687744140625" lon="-1.457442305982112884521484375">
        <ele>1338.4000244140625</ele>
        <time>2022-08-24T07:33:31.000Z</time>
      </trkpt>
      <trkpt lat="40.41197427548468112945556640625" lon="-1.45755001343786716461181640625">
        <ele>1338</ele>
        <time>2022-08-24T07:33:32.000Z</time>
      </trkpt>
      <trkpt lat="40.4119703359901905059814453125" lon="-1.45782242529094219207763671875">
        <ele>1337.4000244140625</ele>
        <time>2022-08-24T07:33:35.000Z</time>
      </trkpt>
      <trkpt lat="40.4119666479527950286865234375" lon="-1.4578950963914394378662109375">
        <ele>1337</ele>
        <time>2022-08-24T07:33:36.000Z</time>
      </trkpt>
      <trkpt lat="40.41196103207767009735107421875" lon="-1.45805619657039642333984375">
        <ele>1336.5999755859375</ele>
        <time>2022-08-24T07:33:39.000Z</time>
      </trkpt>
      <trkpt lat="40.41198852472007274627685546875" lon="-1.4582900516688823699951171875">
        <ele>1336.5999755859375</ele>
        <time>2022-08-24T07:33:45.000Z</time>
      </trkpt>
      <trkpt lat="40.4120772890746593475341796875" lon="-1.4585207216441631317138671875">
        <ele>1336.800048828125</ele>
        <time>2022-08-24T07:33:52.000Z</time>
      </trkpt>
      <trkpt lat="40.41217871010303497314453125" lon="-1.45875315181910991668701171875">
        <ele>1337.199951171875</ele>
        <time>2022-08-24T07:34:01.000Z</time>
      </trkpt>
      <trkpt lat="40.41223579086363315582275390625" lon="-1.4589844085276126861572265625">
        <ele>1338</ele>
        <time>2022-08-24T07:34:10.000Z</time>
      </trkpt>
      <trkpt lat="40.412238724529743194580078125" lon="-1.45900963805615901947021484375">
        <ele>1338</ele>
        <time>2022-08-24T07:34:11.000Z</time>
      </trkpt>
      <trkpt lat="40.41224635206162929534912109375" lon="-1.459223292768001556396484375">
        <ele>1338.800048828125</ele>
        <time>2022-08-24T07:34:19.000Z</time>
      </trkpt>
      <trkpt lat="40.41224769316613674163818359375" lon="-1.4593341015279293060302734375">
        <ele>1339.199951171875</ele>
        <time>2022-08-24T07:34:23.000Z</time>
      </trkpt>
      <trkpt lat="40.4122523032128810882568359375" lon="-1.45944298245012760162353515625">
        <ele>1339.4000244140625</ele>
        <time>2022-08-24T07:34:27.000Z</time>
      </trkpt>
      <trkpt lat="40.41226160712540149688720703125" lon="-1.45954239182174205780029296875">
        <ele>1340.199951171875</ele>
        <time>2022-08-24T07:34:31.000Z</time>
      </trkpt>
      <trkpt lat="40.41228641755878925323486328125" lon="-1.4597079344093799591064453125">
        <ele>1341.199951171875</ele>
        <time>2022-08-24T07:34:38.000Z</time>
      </trkpt>
      <trkpt lat="40.4122938774526119232177734375" lon="-1.45973098464310169219970703125">
        <ele>1341.199951171875</ele>
        <time>2022-08-24T07:34:39.000Z</time>
      </trkpt>
      <trkpt lat="40.41233201511204242706298828125" lon="-1.4598111994564533233642578125">
        <ele>1342</ele>
        <time>2022-08-24T07:34:43.000Z</time>
      </trkpt>
      <trkpt lat="40.41235716082155704498291015625" lon="-1.45986509509384632110595703125">
        <ele>1342.199951171875</ele>
        <time>2022-08-24T07:34:46.000Z</time>
      </trkpt>
      <trkpt lat="40.41236369870603084564208984375" lon="-1.4598812721669673919677734375">
        <ele>1342.199951171875</ele>
        <time>2022-08-24T07:34:47.000Z</time>
      </trkpt>
      <trkpt lat="40.41241415776312351226806640625" lon="-1.459979005157947540283203125">
        <ele>1343.4000244140625</ele>
        <time>2022-08-24T07:34:54.000Z</time>
      </trkpt>
      <trkpt lat="40.41242287494242191314697265625" lon="-1.459993422031402587890625">
        <ele>1343.800048828125</ele>
        <time>2022-08-24T07:34:55.000Z</time>
      </trkpt>
      <trkpt lat="40.4124588333070278167724609375" lon="-1.46005268208682537078857421875">
        <ele>1344.5999755859375</ele>
        <time>2022-08-24T07:34:59.000Z</time>
      </trkpt>
      <trkpt lat="40.41248355992138385772705078125" lon="-1.460101716220378875732421875">
        <ele>1345.800048828125</ele>
        <time>2022-08-24T07:35:02.000Z</time>
      </trkpt>
      <trkpt lat="40.4125188477337360382080078125" lon="-1.460143961012363433837890625">
        <ele>1346.5999755859375</ele>
        <time>2022-08-24T07:35:05.000Z</time>
      </trkpt>
      <trkpt lat="40.4125436581671237945556640625" lon="-1.46017556078732013702392578125">
        <ele>1347</ele>
        <time>2022-08-24T07:35:07.000Z</time>
      </trkpt>
      <trkpt lat="40.4126395471394062042236328125" lon="-1.46025787107646465301513671875">
        <ele>1348</ele>
        <time>2022-08-24T07:35:12.000Z</time>
      </trkpt>
      <trkpt lat="40.41281950660049915313720703125" lon="-1.46031134761869907379150390625">
        <ele>1348.199951171875</ele>
        <time>2022-08-24T07:35:17.000Z</time>
      </trkpt>
      <trkpt lat="40.413154698908329010009765625" lon="-1.46028988994657993316650390625">
        <ele>1347.800048828125</ele>
        <time>2022-08-24T07:35:24.000Z</time>
      </trkpt>
      <trkpt lat="40.41340573690831661224365234375" lon="-1.46024026907980442047119140625">
        <ele>1347.199951171875</ele>
        <time>2022-08-24T07:35:29.000Z</time>
      </trkpt>
      <trkpt lat="40.41344764642417430877685546875" lon="-1.46023775450885295867919921875">
        <ele>1347</ele>
        <time>2022-08-24T07:35:30.000Z</time>
      </trkpt>
      <trkpt lat="40.413539595901966094970703125" lon="-1.4602576196193695068359375">
        <ele>1346.800048828125</ele>
        <time>2022-08-24T07:35:34.000Z</time>
      </trkpt>
      <trkpt lat="40.41360338218510150909423828125" lon="-1.4603043906390666961669921875">
        <ele>1347</ele>
        <time>2022-08-24T07:35:39.000Z</time>
      </trkpt>
      <trkpt lat="40.41362039744853973388671875" lon="-1.46036289632320404052734375">
        <ele>1348.4000244140625</ele>
        <time>2022-08-24T07:35:45.000Z</time>
      </trkpt>
      <trkpt lat="40.413616038858890533447265625" lon="-1.46036633290350437164306640625">
        <ele>1348.800048828125</ele>
        <time>2022-08-24T07:35:47.000Z</time>
      </trkpt>
      <trkpt lat="40.41356767527759075164794921875" lon="-1.46029056049883365631103515625">
        <ele>1349.5999755859375</ele>
        <time>2022-08-24T07:35:57.000Z</time>
      </trkpt>
      <trkpt lat="40.41354261338710784912109375" lon="-1.4602671749889850616455078125">
        <ele>1349.5999755859375</ele>
        <time>2022-08-24T07:35:58.000Z</time>
      </trkpt>
      <trkpt lat="40.41337003000080585479736328125" lon="-1.46023658104240894317626953125">
        <ele>1349.5999755859375</ele>
        <time>2022-08-24T07:36:02.000Z</time>
      </trkpt>
      <trkpt lat="40.41332007385790348052978515625" lon="-1.4602443762123584747314453125">
        <ele>1349.5999755859375</ele>
        <time>2022-08-24T07:36:03.000Z</time>
      </trkpt>
      <trkpt lat="40.413108766078948974609375" lon="-1.4602802507579326629638671875">
        <ele>1348.199951171875</ele>
        <time>2022-08-24T07:36:08.000Z</time>
      </trkpt>
      <trkpt lat="40.41307599283754825592041015625" lon="-1.4602859504520893096923828125">
        <ele>1347.800048828125</ele>
        <time>2022-08-24T07:36:09.000Z</time>
      </trkpt>
      <trkpt lat="40.41298429481685161590576171875" lon="-1.4602973498404026031494140625">
        <ele>1347.199951171875</ele>
        <time>2022-08-24T07:36:12.000Z</time>
      </trkpt>
      <trkpt lat="40.41281850077211856842041015625" lon="-1.4602906443178653717041015625">
        <ele>1347.199951171875</ele>
        <time>2022-08-24T07:36:18.000Z</time>
      </trkpt>
      <trkpt lat="40.41270920075476169586181640625" lon="-1.46030296571552753448486328125">
        <ele>1347.199951171875</ele>
        <time>2022-08-24T07:36:24.000Z</time>
      </trkpt>
      <trkpt lat="40.41271909140050411224365234375" lon="-1.460404805839061737060546875">
        <ele>1347.199951171875</ele>
        <time>2022-08-24T07:36:28.000Z</time>
      </trkpt>
      <trkpt lat="40.41273065842688083648681640625" lon="-1.4604240842163562774658203125">
        <ele>1347.199951171875</ele>
        <time>2022-08-24T07:36:29.000Z</time>
      </trkpt>
      <trkpt lat="40.41285035200417041778564453125" lon="-1.46053950302302837371826171875">
        <ele>1346.4000244140625</ele>
        <time>2022-08-24T07:36:34.000Z</time>
      </trkpt>
      <trkpt lat="40.41290550492703914642333984375" lon="-1.4605900458991527557373046875">
        <ele>1346.199951171875</ele>
        <time>2022-08-24T07:36:36.000Z</time>
      </trkpt>
      <trkpt lat="40.41305570863187313079833984375" lon="-1.46072306670248508453369140625">
        <ele>1345</ele>
        <time>2022-08-24T07:36:41.000Z</time>
      </trkpt>
      <trkpt lat="40.41315637528896331787109375" lon="-1.46080680191516876220703125">
        <ele>1344.4000244140625</ele>
        <time>2022-08-24T07:36:46.000Z</time>
      </trkpt>
      <trkpt lat="40.41325553320348262786865234375" lon="-1.46089623682200908660888671875">
        <ele>1344.199951171875</ele>
        <time>2022-08-24T07:36:53.000Z</time>
      </trkpt>
      <trkpt lat="40.41335410438477993011474609375" lon="-1.46098927594721317291259765625">
        <ele>1345.4000244140625</ele>
        <time>2022-08-24T07:37:01.000Z</time>
      </trkpt>
      <trkpt lat="40.41341923177242279052734375" lon="-1.461071334779262542724609375">
        <ele>1345.800048828125</ele>
        <time>2022-08-24T07:37:08.000Z</time>
      </trkpt>
      <trkpt lat="40.41342325508594512939453125" lon="-1.4610761962831020355224609375">
        <ele>1346</ele>
        <time>2022-08-24T07:37:09.000Z</time>
      </trkpt>
      <trkpt lat="40.4134267754852771759033203125" lon="-1.46107845939695835113525390625">
        <ele>1346</ele>
        <time>2022-08-24T07:37:10.000Z</time>
      </trkpt>
      <trkpt lat="40.413427613675594329833984375" lon="-1.4610778726637363433837890625">
        <ele>1346.199951171875</ele>
        <time>2022-08-24T07:37:11.000Z</time>
      </trkpt>
      <trkpt lat="40.41336449794471263885498046875" lon="-1.46096630953252315521240234375">
        <ele>1346.4000244140625</ele>
        <time>2022-08-24T07:37:30.000Z</time>
      </trkpt>
      <trkpt lat="40.41334136389195919036865234375" lon="-1.46094066090881824493408203125">
        <ele>1346.4000244140625</ele>
        <time>2022-08-24T07:37:31.000Z</time>
      </trkpt>
      <trkpt lat="40.41324363090097904205322265625" lon="-1.4608369767665863037109375">
        <ele>1346.199951171875</ele>
        <time>2022-08-24T07:37:35.000Z</time>
      </trkpt>
      <trkpt lat="40.413194596767425537109375" lon="-1.4607855118811130523681640625">
        <ele>1345.800048828125</ele>
        <time>2022-08-24T07:37:37.000Z</time>
      </trkpt>
      <trkpt lat="40.4130422137677669525146484375" lon="-1.460652910172939300537109375">
        <ele>1345</ele>
        <time>2022-08-24T07:37:42.000Z</time>
      </trkpt>
      <trkpt lat="40.4129811935126781463623046875" lon="-1.46060270257294178009033203125">
        <ele>1345</ele>
        <time>2022-08-24T07:37:44.000Z</time>
      </trkpt>
      <trkpt lat="40.41292109526693820953369140625" lon="-1.46055660210549831390380859375">
        <ele>1344</ele>
        <time>2022-08-24T07:37:47.000Z</time>
      </trkpt>
      <trkpt lat="40.412883795797824859619140625" lon="-1.4605303667485713958740234375">
        <ele>1343.5999755859375</ele>
        <time>2022-08-24T07:37:49.000Z</time>
      </trkpt>
      <trkpt lat="40.412789918482303619384765625" lon="-1.460430957376956939697265625">
        <ele>1343.5999755859375</ele>
        <time>2022-08-24T07:37:56.000Z</time>
      </trkpt>
      <trkpt lat="40.412722192704677581787109375" lon="-1.4603137783706188201904296875">
        <ele>1344.4000244140625</ele>
        <time>2022-08-24T07:38:04.000Z</time>
      </trkpt>
      <trkpt lat="40.4127193428575992584228515625" lon="-1.46026767790317535400390625">
        <ele>1344.800048828125</ele>
        <time>2022-08-24T07:38:07.000Z</time>
      </trkpt>
      <trkpt lat="40.412726886570453643798828125" lon="-1.4602587930858135223388671875">
        <ele>1345</ele>
        <time>2022-08-24T07:38:08.000Z</time>
      </trkpt>
      <trkpt lat="40.41275295428931713104248046875" lon="-1.460247896611690521240234375">
        <ele>1345.4000244140625</ele>
        <time>2022-08-24T07:38:10.000Z</time>
      </trkpt>
      <trkpt lat="40.41282512247562408447265625" lon="-1.46025401540100574493408203125">
        <ele>1346.199951171875</ele>
        <time>2022-08-24T07:38:13.000Z</time>
      </trkpt>
      <trkpt lat="40.4128856398165225982666015625" lon="-1.46025636233389377593994140625">
        <ele>1346.5999755859375</ele>
        <time>2022-08-24T07:38:15.000Z</time>
      </trkpt>
      <trkpt lat="40.4131501726806163787841796875" lon="-1.46024781279265880584716796875">
        <ele>1346.800048828125</ele>
        <time>2022-08-24T07:38:22.000Z</time>
      </trkpt>
      <trkpt lat="40.4134378395974636077880859375" lon="-1.4602138660848140716552734375">
        <ele>1346.199951171875</ele>
        <time>2022-08-24T07:38:29.000Z</time>
      </trkpt>
      <trkpt lat="40.41353850625455379486083984375" lon="-1.46023607812821865081787109375">
        <ele>1346</ele>
        <time>2022-08-24T07:38:34.000Z</time>
      </trkpt>
      <trkpt lat="40.4136385023593902587890625" lon="-1.460337080061435699462890625">
        <ele>1347.199951171875</ele>
        <time>2022-08-24T07:38:42.000Z</time>
      </trkpt>
      <trkpt lat="40.4136641509830951690673828125" lon="-1.4604051411151885986328125">
        <ele>1348.4000244140625</ele>
        <time>2022-08-24T07:38:46.000Z</time>
      </trkpt>
      <trkpt lat="40.4136765561997890472412109375" lon="-1.4604566060006618499755859375">
        <ele>1349.199951171875</ele>
        <time>2022-08-24T07:38:49.000Z</time>
      </trkpt>
      <trkpt lat="40.4136787354946136474609375" lon="-1.46047546528279781341552734375">
        <ele>1349.4000244140625</ele>
        <time>2022-08-24T07:38:50.000Z</time>
      </trkpt>
      <trkpt lat="40.41369357146322727203369140625" lon="-1.46055308170616626739501953125">
        <ele>1350.4000244140625</ele>
        <time>2022-08-24T07:38:54.000Z</time>
      </trkpt>
      <trkpt lat="40.41371871717274188995361328125" lon="-1.460656933486461639404296875">
        <ele>1351.199951171875</ele>
        <time>2022-08-24T07:38:59.000Z</time>
      </trkpt>
      <trkpt lat="40.4137332178652286529541015625" lon="-1.46071535535156726837158203125">
        <ele>1351.5999755859375</ele>
        <time>2022-08-24T07:39:02.000Z</time>
      </trkpt>
      <trkpt lat="40.41376414708793163299560546875" lon="-1.46082381717860698699951171875">
        <ele>1352.800048828125</ele>
        <time>2022-08-24T07:39:08.000Z</time>
      </trkpt>
      <trkpt lat="40.4137699306011199951171875" lon="-1.4608398266136646270751953125">
        <ele>1353.199951171875</ele>
        <time>2022-08-24T07:39:09.000Z</time>
      </trkpt>
      <trkpt lat="40.413791052997112274169921875" lon="-1.46092909388244152069091796875">
        <ele>1354.4000244140625</ele>
        <time>2022-08-24T07:39:14.000Z</time>
      </trkpt>
      <trkpt lat="40.41379583068192005157470703125" lon="-1.46094853989779949188232421875">
        <ele>1354.4000244140625</ele>
        <time>2022-08-24T07:39:15.000Z</time>
      </trkpt>
      <trkpt lat="40.41382097639143466949462890625" lon="-1.46110243164002895355224609375">
        <ele>1355.4000244140625</ele>
        <time>2022-08-24T07:39:23.000Z</time>
      </trkpt>
      <trkpt lat="40.41382424533367156982421875" lon="-1.461120955646038055419921875">
        <ele>1355.5999755859375</ele>
        <time>2022-08-24T07:39:24.000Z</time>
      </trkpt>
      <trkpt lat="40.41383899748325347900390625" lon="-1.4612498693168163299560546875">
        <ele>1356.4000244140625</ele>
        <time>2022-08-24T07:39:31.000Z</time>
      </trkpt>
      <trkpt lat="40.41383991949260234832763671875" lon="-1.4613232947885990142822265625">
        <ele>1357</ele>
        <time>2022-08-24T07:39:35.000Z</time>
      </trkpt>
      <trkpt lat="40.41384444572031497955322265625" lon="-1.4614109694957733154296875">
        <ele>1357.800048828125</ele>
        <time>2022-08-24T07:39:40.000Z</time>
      </trkpt>
      <trkpt lat="40.41385106742382049560546875" lon="-1.461456902325153350830078125">
        <ele>1358.199951171875</ele>
        <time>2022-08-24T07:39:43.000Z</time>
      </trkpt>
      <trkpt lat="40.413852073252201080322265625" lon="-1.46148514933884143829345703125">
        <ele>1358.800048828125</ele>
        <time>2022-08-24T07:39:45.000Z</time>
      </trkpt>
      <trkpt lat="40.41387596167623996734619140625" lon="-1.46153694950044155120849609375">
        <ele>1359.800048828125</ele>
        <time>2022-08-24T07:39:49.000Z</time>
      </trkpt>
      <trkpt lat="40.4138948209583759307861328125" lon="-1.4615700580179691314697265625">
        <ele>1360.199951171875</ele>
        <time>2022-08-24T07:39:51.000Z</time>
      </trkpt>
      <trkpt lat="40.41395190171897411346435546875" lon="-1.46166251040995121002197265625">
        <ele>1360.800048828125</ele>
        <time>2022-08-24T07:39:56.000Z</time>
      </trkpt>
      <trkpt lat="40.41397444903850555419921875" lon="-1.46169335581362247467041015625">
        <ele>1360.800048828125</ele>
        <time>2022-08-24T07:39:58.000Z</time>
      </trkpt>
      <trkpt lat="40.41404686868190765380859375" lon="-1.46178958006203174591064453125">
        <ele>1361</ele>
        <time>2022-08-24T07:40:04.000Z</time>
      </trkpt>
      <trkpt lat="40.4142217151820659637451171875" lon="-1.4618959464132785797119140625">
        <ele>1361.4000244140625</ele>
        <time>2022-08-24T07:40:13.000Z</time>
      </trkpt>
      <trkpt lat="40.41437736712396144866943359375" lon="-1.46200709044933319091796875">
        <ele>1361.5999755859375</ele>
        <time>2022-08-24T07:40:22.000Z</time>
      </trkpt>
      <trkpt lat="40.4144436679780483245849609375" lon="-1.46210356615483760833740234375">
        <ele>1361.800048828125</ele>
        <time>2022-08-24T07:40:28.000Z</time>
      </trkpt>
      <trkpt lat="40.41448163799941539764404296875" lon="-1.46216257475316524505615234375">
        <ele>1362.5999755859375</ele>
        <time>2022-08-24T07:40:32.000Z</time>
      </trkpt>
      <trkpt lat="40.4145150817930698394775390625" lon="-1.4622251875698566436767578125">
        <ele>1363</ele>
        <time>2022-08-24T07:40:36.000Z</time>
      </trkpt>
      <trkpt lat="40.41453695856034755706787109375" lon="-1.46229081787168979644775390625">
        <ele>1363.199951171875</ele>
        <time>2022-08-24T07:40:40.000Z</time>
      </trkpt>
      <trkpt lat="40.41456746868789196014404296875" lon="-1.462368182837963104248046875">
        <ele>1364</ele>
        <time>2022-08-24T07:40:45.000Z</time>
      </trkpt>
      <trkpt lat="40.41459881700575351715087890625" lon="-1.462420485913753509521484375">
        <ele>1364.4000244140625</ele>
        <time>2022-08-24T07:40:49.000Z</time>
      </trkpt>
      <trkpt lat="40.41463519446551799774169921875" lon="-1.4624823443591594696044921875">
        <ele>1365.199951171875</ele>
        <time>2022-08-24T07:40:54.000Z</time>
      </trkpt>
      <trkpt lat="40.41466168127954006195068359375" lon="-1.46253640763461589813232421875">
        <ele>1366</ele>
        <time>2022-08-24T07:40:58.000Z</time>
      </trkpt>
      <trkpt lat="40.414674840867519378662109375" lon="-1.46256239153444766998291015625">
        <ele>1366.4000244140625</ele>
        <time>2022-08-24T07:41:00.000Z</time>
      </trkpt>
      <trkpt lat="40.41471532545983791351318359375" lon="-1.4626260101795196533203125">
        <ele>1367</ele>
        <time>2022-08-24T07:41:05.000Z</time>
      </trkpt>
      <trkpt lat="40.41472873650491237640380859375" lon="-1.4626529999077320098876953125">
        <ele>1367.4000244140625</ele>
        <time>2022-08-24T07:41:07.000Z</time>
      </trkpt>
      <trkpt lat="40.41476394049823284149169921875" lon="-1.4627341367304325103759765625">
        <ele>1368.4000244140625</ele>
        <time>2022-08-24T07:41:13.000Z</time>
      </trkpt>
      <trkpt lat="40.4147682152688503265380859375" lon="-1.46274561993777751922607421875">
        <ele>1368.5999755859375</ele>
        <time>2022-08-24T07:41:14.000Z</time>
      </trkpt>
      <trkpt lat="40.41480937041342258453369140625" lon="-1.4628119207918643951416015625">
        <ele>1369.5999755859375</ele>
        <time>2022-08-24T07:41:20.000Z</time>
      </trkpt>
      <trkpt lat="40.4148159921169281005859375" lon="-1.4628231525421142578125">
        <ele>1369.5999755859375</ele>
        <time>2022-08-24T07:41:21.000Z</time>
      </trkpt>
      <trkpt lat="40.41483602486550807952880859375" lon="-1.46286983974277973175048828125">
        <ele>1370.5999755859375</ele>
        <time>2022-08-24T07:41:25.000Z</time>
      </trkpt>
      <trkpt lat="40.41486871428787708282470703125" lon="-1.4629373140633106231689453125">
        <ele>1371.5999755859375</ele>
        <time>2022-08-24T07:41:31.000Z</time>
      </trkpt>
      <trkpt lat="40.4149043373763561248779296875" lon="-1.46301291882991790771484375">
        <ele>1372.800048828125</ele>
        <time>2022-08-24T07:41:37.000Z</time>
      </trkpt>
      <trkpt lat="40.414909534156322479248046875" lon="-1.46302632987499237060546875">
        <ele>1372.800048828125</ele>
        <time>2022-08-24T07:41:38.000Z</time>
      </trkpt>
      <trkpt lat="40.41495052166283130645751953125" lon="-1.46310118027031421661376953125">
        <ele>1374</ele>
        <time>2022-08-24T07:41:44.000Z</time>
      </trkpt>
      <trkpt lat="40.41495806537568569183349609375" lon="-1.46311475895345211029052734375">
        <ele>1374.199951171875</ele>
        <time>2022-08-24T07:41:45.000Z</time>
      </trkpt>
      <trkpt lat="40.4149925149977207183837890625" lon="-1.46317058242857456207275390625">
        <ele>1375</ele>
        <time>2022-08-24T07:41:50.000Z</time>
      </trkpt>
      <trkpt lat="40.41502830572426319122314453125" lon="-1.4632186107337474822998046875">
        <ele>1375.800048828125</ele>
        <time>2022-08-24T07:41:54.000Z</time>
      </trkpt>
      <trkpt lat="40.415037609636783599853515625" lon="-1.4632290042936801910400390625">
        <ele>1376</ele>
        <time>2022-08-24T07:41:55.000Z</time>
      </trkpt>
      <trkpt lat="40.415116734802722930908203125" lon="-1.4633228816092014312744140625">
        <ele>1377.199951171875</ele>
        <time>2022-08-24T07:42:04.000Z</time>
      </trkpt>
      <trkpt lat="40.41512469761073589324951171875" lon="-1.46333268843591213226318359375">
        <ele>1377.5999755859375</ele>
        <time>2022-08-24T07:42:05.000Z</time>
      </trkpt>
      <trkpt lat="40.41514657437801361083984375" lon="-1.46336386911571025848388671875">
        <ele>1378.199951171875</ele>
        <time>2022-08-24T07:42:08.000Z</time>
      </trkpt>
      <trkpt lat="40.41518756188452243804931640625" lon="-1.4634043537080287933349609375">
        <ele>1379.199951171875</ele>
        <time>2022-08-24T07:42:13.000Z</time>
      </trkpt>
      <trkpt lat="40.4151973687112331390380859375" lon="-1.463413238525390625">
        <ele>1379.5999755859375</ele>
        <time>2022-08-24T07:42:14.000Z</time>
      </trkpt>
      <trkpt lat="40.415246151387691497802734375" lon="-1.46346981637179851531982421875">
        <ele>1380.4000244140625</ele>
        <time>2022-08-24T07:42:20.000Z</time>
      </trkpt>
      <trkpt lat="40.41524824686348438262939453125" lon="-1.4634831435978412628173828125">
        <ele>1380.5999755859375</ele>
        <time>2022-08-24T07:42:21.000Z</time>
      </trkpt>
      <trkpt lat="40.41525788605213165283203125" lon="-1.46350468508899211883544921875">
        <ele>1380.5999755859375</ele>
        <time>2022-08-24T07:42:23.000Z</time>
      </trkpt>
      <trkpt lat="40.41528512723743915557861328125" lon="-1.46351658739149570465087890625">
        <ele>1381</ele>
        <time>2022-08-24T07:42:26.000Z</time>
      </trkpt>
      <trkpt lat="40.4152935929596424102783203125" lon="-1.46351851522922515869140625">
        <ele>1381.199951171875</ele>
        <time>2022-08-24T07:42:27.000Z</time>
      </trkpt>
      <trkpt lat="40.4153009690344333648681640625" lon="-1.46352387964725494384765625">
        <ele>1381.4000244140625</ele>
        <time>2022-08-24T07:42:28.000Z</time>
      </trkpt>
      <trkpt lat="40.41533022187650203704833984375" lon="-1.46356872282922267913818359375">
        <ele>1381.800048828125</ele>
        <time>2022-08-24T07:42:32.000Z</time>
      </trkpt>
      <trkpt lat="40.41535184718668460845947265625" lon="-1.4635969698429107666015625">
        <ele>1382</ele>
        <time>2022-08-24T07:42:35.000Z</time>
      </trkpt>
      <trkpt lat="40.415397696197032928466796875" lon="-1.46364164538681507110595703125">
        <ele>1382.5999755859375</ele>
        <time>2022-08-24T07:42:40.000Z</time>
      </trkpt>
      <trkpt lat="40.415404401719570159912109375" lon="-1.4636517874896526336669921875">
        <ele>1382.800048828125</ele>
        <time>2022-08-24T07:42:41.000Z</time>
      </trkpt>
      <trkpt lat="40.4154132865369319915771484375" lon="-1.46366092376410961151123046875">
        <ele>1383</ele>
        <time>2022-08-24T07:42:42.000Z</time>
      </trkpt>
      <trkpt lat="40.4154624044895172119140625" lon="-1.46373686380684375762939453125">
        <ele>1383.800048828125</ele>
        <time>2022-08-24T07:42:49.000Z</time>
      </trkpt>
      <trkpt lat="40.41547087021172046661376953125" lon="-1.4637463353574275970458984375">
        <ele>1384.199951171875</ele>
        <time>2022-08-24T07:42:50.000Z</time>
      </trkpt>
      <trkpt lat="40.4155081696808338165283203125" lon="-1.46379436366260051727294921875">
        <ele>1385</ele>
        <time>2022-08-24T07:42:55.000Z</time>
      </trkpt>
      <trkpt lat="40.4155346564948558807373046875" lon="-1.4638211019337177276611328125">
        <ele>1385.800048828125</ele>
        <time>2022-08-24T07:42:58.000Z</time>
      </trkpt>
      <trkpt lat="40.41554915718734264373779296875" lon="-1.4638439007103443145751953125">
        <ele>1386.199951171875</ele>
        <time>2022-08-24T07:43:00.000Z</time>
      </trkpt>
      <trkpt lat="40.4155911505222320556640625" lon="-1.463899053633213043212890625">
        <ele>1387</ele>
        <time>2022-08-24T07:43:06.000Z</time>
      </trkpt>
      <trkpt lat="40.4156198166310787200927734375" lon="-1.46391950547695159912109375">
        <ele>1387.199951171875</ele>
        <time>2022-08-24T07:43:09.000Z</time>
      </trkpt>
      <trkpt lat="40.415668599307537078857421875" lon="-1.46398253738880157470703125">
        <ele>1388</ele>
        <time>2022-08-24T07:43:15.000Z</time>
      </trkpt>
      <trkpt lat="40.41569433175027370452880859375" lon="-1.4640112034976482391357421875">
        <ele>1388.4000244140625</ele>
        <time>2022-08-24T07:43:18.000Z</time>
      </trkpt>
      <trkpt lat="40.4157100059092044830322265625" lon="-1.464034505188465118408203125">
        <ele>1388.800048828125</ele>
        <time>2022-08-24T07:43:20.000Z</time>
      </trkpt>
      <trkpt lat="40.4157250933349132537841796875" lon="-1.46405738778412342071533203125">
        <ele>1389.199951171875</ele>
        <time>2022-08-24T07:43:22.000Z</time>
      </trkpt>
      <trkpt lat="40.41573439724743366241455078125" lon="-1.4640668593347072601318359375">
        <ele>1389.4000244140625</ele>
        <time>2022-08-24T07:43:23.000Z</time>
      </trkpt>
      <trkpt lat="40.41578502394258975982666015625" lon="-1.464130394160747528076171875">
        <ele>1390.4000244140625</ele>
        <time>2022-08-24T07:43:29.000Z</time>
      </trkpt>
      <trkpt lat="40.415801368653774261474609375" lon="-1.46414740942418575286865234375">
        <ele>1390.800048828125</ele>
        <time>2022-08-24T07:43:31.000Z</time>
      </trkpt>
      <trkpt lat="40.41584738530218601226806640625" lon="-1.46419786848127841949462890625">
        <ele>1391.5999755859375</ele>
        <time>2022-08-24T07:43:36.000Z</time>
      </trkpt>
      <trkpt lat="40.4158893786370754241943359375" lon="-1.46425318904221057891845703125">
        <ele>1392</ele>
        <time>2022-08-24T07:43:41.000Z</time>
      </trkpt>
      <trkpt lat="40.4159156978130340576171875" lon="-1.464284621179103851318359375">
        <ele>1392.5999755859375</ele>
        <time>2022-08-24T07:43:44.000Z</time>
      </trkpt>
      <trkpt lat="40.4159685038030147552490234375" lon="-1.4643562026321887969970703125">
        <ele>1393.5999755859375</ele>
        <time>2022-08-24T07:43:50.000Z</time>
      </trkpt>
      <trkpt lat="40.41598468087613582611083984375" lon="-1.46437950432300567626953125">
        <ele>1394</ele>
        <time>2022-08-24T07:43:52.000Z</time>
      </trkpt>
      <trkpt lat="40.41601871140301227569580078125" lon="-1.46442367695271968841552734375">
        <ele>1394.800048828125</ele>
        <time>2022-08-24T07:43:56.000Z</time>
      </trkpt>
      <trkpt lat="40.41608476080000400543212890625" lon="-1.46451051346957683563232421875">
        <ele>1395.800048828125</ele>
        <time>2022-08-24T07:44:04.000Z</time>
      </trkpt>
      <trkpt lat="40.41613119654357433319091796875" lon="-1.4645784907042980194091796875">
        <ele>1396.800048828125</ele>
        <time>2022-08-24T07:44:10.000Z</time>
      </trkpt>
      <trkpt lat="40.4161790572106838226318359375" lon="-1.46464076824486255645751953125">
        <ele>1397.800048828125</ele>
        <time>2022-08-24T07:44:16.000Z</time>
      </trkpt>
      <trkpt lat="40.41618567891418933868408203125" lon="-1.4646535925567150115966796875">
        <ele>1398</ele>
        <time>2022-08-24T07:44:17.000Z</time>
      </trkpt>
      <trkpt lat="40.4162457771599292755126953125" lon="-1.46470547653734683990478515625">
        <ele>1399</ele>
        <time>2022-08-24T07:44:23.000Z</time>
      </trkpt>
      <trkpt lat="40.41625608690083026885986328125" lon="-1.46471067331731319427490234375">
        <ele>1399.199951171875</ele>
        <time>2022-08-24T07:44:24.000Z</time>
      </trkpt>
      <trkpt lat="40.4163099825382232666015625" lon="-1.4647598750889301300048828125">
        <ele>1400</ele>
        <time>2022-08-24T07:44:29.000Z</time>
      </trkpt>
      <trkpt lat="40.4163577593863010406494140625" lon="-1.4648007787764072418212890625">
        <ele>1400.5999755859375</ele>
        <time>2022-08-24T07:44:33.000Z</time>
      </trkpt>
      <trkpt lat="40.4163929633796215057373046875" lon="-1.4648229070007801055908203125">
        <ele>1401.199951171875</ele>
        <time>2022-08-24T07:44:36.000Z</time>
      </trkpt>
      <trkpt lat="40.41646513156592845916748046875" lon="-1.4648809097707271575927734375">
        <ele>1402</ele>
        <time>2022-08-24T07:44:42.000Z</time>
      </trkpt>
      <trkpt lat="40.41649128310382366180419921875" lon="-1.4648951590061187744140625">
        <ele>1402.199951171875</ele>
        <time>2022-08-24T07:44:44.000Z</time>
      </trkpt>
      <trkpt lat="40.416569150984287261962890625" lon="-1.464955173432826995849609375">
        <ele>1403.4000244140625</ele>
        <time>2022-08-24T07:44:51.000Z</time>
      </trkpt>
      <trkpt lat="40.4165763594210147857666015625" lon="-1.4649667404592037200927734375">
        <ele>1403.4000244140625</ele>
        <time>2022-08-24T07:44:52.000Z</time>
      </trkpt>
      <trkpt lat="40.41662489064037799835205078125" lon="-1.46502667106688022613525390625">
        <ele>1404.199951171875</ele>
        <time>2022-08-24T07:44:57.000Z</time>
      </trkpt>
      <trkpt lat="40.41663712821900844573974609375" lon="-1.4650384895503520965576171875">
        <ele>1404.4000244140625</ele>
        <time>2022-08-24T07:44:58.000Z</time>
      </trkpt>
      <trkpt lat="40.41671507991850376129150390625" lon="-1.46511635743081569671630859375">
        <ele>1405.5999755859375</ele>
        <time>2022-08-24T07:45:05.000Z</time>
      </trkpt>
      <trkpt lat="40.416734106838703155517578125" lon="-1.46514317952096462249755859375">
        <ele>1406</ele>
        <time>2022-08-24T07:45:07.000Z</time>
      </trkpt>
      <trkpt lat="40.41678397916257381439208984375" lon="-1.4652062952518463134765625">
        <ele>1406.800048828125</ele>
        <time>2022-08-24T07:45:12.000Z</time>
      </trkpt>
      <trkpt lat="40.4168509505689144134521484375" lon="-1.4652772061526775360107421875">
        <ele>1407.800048828125</ele>
        <time>2022-08-24T07:45:18.000Z</time>
      </trkpt>
      <trkpt lat="40.41686142794787883758544921875" lon="-1.46528734825551509857177734375">
        <ele>1407.800048828125</ele>
        <time>2022-08-24T07:45:19.000Z</time>
      </trkpt>
      <trkpt lat="40.4169314168393611907958984375" lon="-1.465331353247165679931640625">
        <ele>1408.800048828125</ele>
        <time>2022-08-24T07:45:25.000Z</time>
      </trkpt>
      <trkpt lat="40.41700123809278011322021484375" lon="-1.465359516441822052001953125">
        <ele>1409.5999755859375</ele>
        <time>2022-08-24T07:45:30.000Z</time>
      </trkpt>
      <trkpt lat="40.417056977748870849609375" lon="-1.46537720225751399993896484375">
        <ele>1410</ele>
        <time>2022-08-24T07:45:34.000Z</time>
      </trkpt>
      <trkpt lat="40.417152531445026397705078125" lon="-1.4654046110808849334716796875">
        <ele>1411.199951171875</ele>
        <time>2022-08-24T07:45:40.000Z</time>
      </trkpt>
      <trkpt lat="40.41716870851814746856689453125" lon="-1.46540888585150241851806640625">
        <ele>1411.4000244140625</ele>
        <time>2022-08-24T07:45:41.000Z</time>
      </trkpt>
      <trkpt lat="40.41730700992047786712646484375" lon="-1.46548918448388576507568359375">
        <ele>1412.199951171875</ele>
        <time>2022-08-24T07:45:50.000Z</time>
      </trkpt>
      <trkpt lat="40.417320169508457183837890625" lon="-1.4655040204524993896484375">
        <ele>1412.4000244140625</ele>
        <time>2022-08-24T07:45:51.000Z</time>
      </trkpt>
      <trkpt lat="40.41742569766938686370849609375" lon="-1.465659253299236297607421875">
        <ele>1413</ele>
        <time>2022-08-24T07:46:00.000Z</time>
      </trkpt>
      <trkpt lat="40.41749241761863231658935546875" lon="-1.4657348580658435821533203125">
        <ele>1413.199951171875</ele>
        <time>2022-08-24T07:46:05.000Z</time>
      </trkpt>
      <trkpt lat="40.4175479896366596221923828125" lon="-1.46578690968453884124755859375">
        <ele>1413.5999755859375</ele>
        <time>2022-08-24T07:46:09.000Z</time>
      </trkpt>
      <trkpt lat="40.41763390414416790008544921875" lon="-1.46587106399238109588623046875">
        <ele>1414.199951171875</ele>
        <time>2022-08-24T07:46:15.000Z</time>
      </trkpt>
      <trkpt lat="40.417723171412944793701171875" lon="-1.465951614081859588623046875">
        <ele>1414.5999755859375</ele>
        <time>2022-08-24T07:46:21.000Z</time>
      </trkpt>
      <trkpt lat="40.41783322580158710479736328125" lon="-1.46604423411190509796142578125">
        <ele>1415.4000244140625</ele>
        <time>2022-08-24T07:46:28.000Z</time>
      </trkpt>
      <trkpt lat="40.41788913309574127197265625" lon="-1.46608580835163593292236328125">
        <ele>1415.5999755859375</ele>
        <time>2022-08-24T07:46:31.000Z</time>
      </trkpt>
      <trkpt lat="40.4180807434022426605224609375" lon="-1.46618287079036235809326171875">
        <ele>1416.199951171875</ele>
        <time>2022-08-24T07:46:40.000Z</time>
      </trkpt>
      <trkpt lat="40.418145954608917236328125" lon="-1.46621757186949253082275390625">
        <ele>1416.4000244140625</ele>
        <time>2022-08-24T07:46:43.000Z</time>
      </trkpt>
      <trkpt lat="40.4182802326977252960205078125" lon="-1.46628546528518199920654296875">
        <ele>1416.800048828125</ele>
        <time>2022-08-24T07:46:49.000Z</time>
      </trkpt>
      <trkpt lat="40.4184542410075664520263671875" lon="-1.466401554644107818603515625">
        <ele>1417.4000244140625</ele>
        <time>2022-08-24T07:46:58.000Z</time>
      </trkpt>
      <trkpt lat="40.4185890220105648040771484375" lon="-1.46653960458934307098388671875">
        <ele>1418</ele>
        <time>2022-08-24T07:47:06.000Z</time>
      </trkpt>
      <trkpt lat="40.4186953045427799224853515625" lon="-1.46668846718966960906982421875">
        <ele>1418.4000244140625</ele>
        <time>2022-08-24T07:47:13.000Z</time>
      </trkpt>
      <trkpt lat="40.418710894882678985595703125" lon="-1.46670724265277385711669921875">
        <ele>1418.5999755859375</ele>
        <time>2022-08-24T07:47:14.000Z</time>
      </trkpt>
      <trkpt lat="40.41888666339218616485595703125" lon="-1.4668955840170383453369140625">
        <ele>1419</ele>
        <time>2022-08-24T07:47:23.000Z</time>
      </trkpt>
      <trkpt lat="40.419054217636585235595703125" lon="-1.46709633059799671173095703125">
        <ele>1419.199951171875</ele>
        <time>2022-08-24T07:47:31.000Z</time>
      </trkpt>
      <trkpt lat="40.41924121789634227752685546875" lon="-1.46730889566242694854736328125">
        <ele>1419.199951171875</ele>
        <time>2022-08-24T07:47:40.000Z</time>
      </trkpt>
      <trkpt lat="40.41945043019950389862060546875" lon="-1.46751995198428630828857421875">
        <ele>1419</ele>
        <time>2022-08-24T07:47:47.000Z</time>
      </trkpt>
      <trkpt lat="40.41964204050600528717041015625" lon="-1.4676305092871189117431640625">
        <ele>1418.800048828125</ele>
        <time>2022-08-24T07:47:53.000Z</time>
      </trkpt>
      <trkpt lat="40.41984655894339084625244140625" lon="-1.46775632165372371673583984375">
        <ele>1418.5999755859375</ele>
        <time>2022-08-24T07:48:01.000Z</time>
      </trkpt>
      <trkpt lat="40.42004688642919063568115234375" lon="-1.46800911985337734222412109375">
        <ele>1418.800048828125</ele>
        <time>2022-08-24T07:48:10.000Z</time>
      </trkpt>
      <trkpt lat="40.42021217755973339080810546875" lon="-1.46828605793416500091552734375">
        <ele>1418.800048828125</ele>
        <time>2022-08-24T07:48:19.000Z</time>
      </trkpt>
      <trkpt lat="40.42043857276439666748046875" lon="-1.46864362992346286773681640625">
        <ele>1417.800048828125</ele>
        <time>2022-08-24T07:48:29.000Z</time>
      </trkpt>
      <trkpt lat="40.42055348865687847137451171875" lon="-1.46879400126636028289794921875">
        <ele>1417.4000244140625</ele>
        <time>2022-08-24T07:48:33.000Z</time>
      </trkpt>
      <trkpt lat="40.420742668211460113525390625" lon="-1.46909306757152080535888671875">
        <ele>1416.4000244140625</ele>
        <time>2022-08-24T07:48:40.000Z</time>
      </trkpt>
      <trkpt lat="40.4207686521112918853759765625" lon="-1.46914034150540828704833984375">
        <ele>1416.199951171875</ele>
        <time>2022-08-24T07:48:41.000Z</time>
      </trkpt>
      <trkpt lat="40.420888178050518035888671875" lon="-1.46939431317150592803955078125">
        <ele>1415.5999755859375</ele>
        <time>2022-08-24T07:48:47.000Z</time>
      </trkpt>
      <trkpt lat="40.42100577615201473236083984375" lon="-1.46969824098050594329833984375">
        <ele>1415.4000244140625</ele>
        <time>2022-08-24T07:48:55.000Z</time>
      </trkpt>
      <trkpt lat="40.42105942033231258392333984375" lon="-1.46997014991939067840576171875">
        <ele>1415.800048828125</ele>
        <time>2022-08-24T07:49:03.000Z</time>
      </trkpt>
      <trkpt lat="40.4211092926561832427978515625" lon="-1.4702832140028476715087890625">
        <ele>1416.199951171875</ele>
        <time>2022-08-24T07:49:11.000Z</time>
      </trkpt>
      <trkpt lat="40.42118288576602935791015625" lon="-1.47057180292904376983642578125">
        <ele>1415.4000244140625</ele>
        <time>2022-08-24T07:49:18.000Z</time>
      </trkpt>
      <trkpt lat="40.4212333448231220245361328125" lon="-1.4707294665277004241943359375">
        <ele>1415.199951171875</ele>
        <time>2022-08-24T07:49:22.000Z</time>
      </trkpt>
      <trkpt lat="40.42129042558372020721435546875" lon="-1.4709601365029811859130859375">
        <ele>1414.4000244140625</ele>
        <time>2022-08-24T07:49:27.000Z</time>
      </trkpt>
      <trkpt lat="40.42129964567720890045166015625" lon="-1.4710224978625774383544921875">
        <ele>1414</ele>
        <time>2022-08-24T07:49:28.000Z</time>
      </trkpt>
      <trkpt lat="40.42132261209189891815185546875" lon="-1.47121955640614032745361328125">
        <ele>1413.5999755859375</ele>
        <time>2022-08-24T07:49:31.000Z</time>
      </trkpt>
      <trkpt lat="40.42133501730859279632568359375" lon="-1.4712816663086414337158203125">
        <ele>1413.4000244140625</ele>
        <time>2022-08-24T07:49:32.000Z</time>
      </trkpt>
      <trkpt lat="40.4213651083409786224365234375" lon="-1.47139976732432842254638671875">
        <ele>1412.199951171875</ele>
        <time>2022-08-24T07:49:34.000Z</time>
      </trkpt>
      <trkpt lat="40.4214217700064182281494140625" lon="-1.4715632982552051544189453125">
        <ele>1410.800048828125</ele>
        <time>2022-08-24T07:49:37.000Z</time>
      </trkpt>
      <trkpt lat="40.42152612470090389251708984375" lon="-1.47175834514200687408447265625">
        <ele>1409.800048828125</ele>
        <time>2022-08-24T07:49:41.000Z</time>
      </trkpt>
      <trkpt lat="40.4216690361499786376953125" lon="-1.4720353670418262481689453125">
        <ele>1408.4000244140625</ele>
        <time>2022-08-24T07:49:47.000Z</time>
      </trkpt>
      <trkpt lat="40.4217114485800266265869140625" lon="-1.47217894904315471649169921875">
        <ele>1407.199951171875</ele>
        <time>2022-08-24T07:49:51.000Z</time>
      </trkpt>
      <trkpt lat="40.42172309942543506622314453125" lon="-1.47221130318939685821533203125">
        <ele>1406.5999755859375</ele>
        <time>2022-08-24T07:49:52.000Z</time>
      </trkpt>
      <trkpt lat="40.42173206806182861328125" lon="-1.472252793610095977783203125">
        <ele>1405.800048828125</ele>
        <time>2022-08-24T07:49:54.000Z</time>
      </trkpt>
      <trkpt lat="40.42173684574663639068603515625" lon="-1.4722942002117633819580078125">
        <ele>1404.800048828125</ele>
        <time>2022-08-24T07:49:56.000Z</time>
      </trkpt>
      <trkpt lat="40.42174774222075939178466796875" lon="-1.47236737422645092010498046875">
        <ele>1403.5999755859375</ele>
        <time>2022-08-24T07:49:58.000Z</time>
      </trkpt>
      <trkpt lat="40.4217763245105743408203125" lon="-1.4724708907306194305419921875">
        <ele>1402.800048828125</ele>
        <time>2022-08-24T07:50:00.000Z</time>
      </trkpt>
      <trkpt lat="40.4217989556491374969482421875" lon="-1.47252813912928104400634765625">
        <ele>1402.4000244140625</ele>
        <time>2022-08-24T07:50:01.000Z</time>
      </trkpt>
      <trkpt lat="40.42191403917968273162841796875" lon="-1.47264447994530200958251953125">
        <ele>1401.4000244140625</ele>
        <time>2022-08-24T07:50:04.000Z</time>
      </trkpt>
      <trkpt lat="40.421961732208728790283203125" lon="-1.47265546023845672607421875">
        <ele>1401</ele>
        <time>2022-08-24T07:50:05.000Z</time>
      </trkpt>
      <trkpt lat="40.4221027158200740814208984375" lon="-1.47263693623244762420654296875">
        <ele>1400.4000244140625</ele>
        <time>2022-08-24T07:50:08.000Z</time>
      </trkpt>
      <trkpt lat="40.422198437154293060302734375" lon="-1.4726133830845355987548828125">
        <ele>1399.5999755859375</ele>
        <time>2022-08-24T07:50:10.000Z</time>
      </trkpt>
      <trkpt lat="40.42229608632624149322509765625" lon="-1.472602821886539459228515625">
        <ele>1399.199951171875</ele>
        <time>2022-08-24T07:50:12.000Z</time>
      </trkpt>
      <trkpt lat="40.42239985428750514984130859375" lon="-1.47262302227318286895751953125">
        <ele>1399</ele>
        <time>2022-08-24T07:50:14.000Z</time>
      </trkpt>
      <trkpt lat="40.42251334525644779205322265625" lon="-1.47266493178904056549072265625">
        <ele>1398.800048828125</ele>
        <time>2022-08-24T07:50:16.000Z</time>
      </trkpt>
      <trkpt lat="40.4225707612931728363037109375" lon="-1.4726864732801914215087890625">
        <ele>1398.800048828125</ele>
        <time>2022-08-24T07:50:17.000Z</time>
      </trkpt>
      <trkpt lat="40.422628931701183319091796875" lon="-1.472711451351642608642578125">
        <ele>1398.5999755859375</ele>
        <time>2022-08-24T07:50:18.000Z</time>
      </trkpt>
      <trkpt lat="40.42273077182471752166748046875" lon="-1.47276568226516246795654296875">
        <ele>1398.5999755859375</ele>
        <time>2022-08-24T07:50:20.000Z</time>
      </trkpt>
      <trkpt lat="40.4229774512350559234619140625" lon="-1.47293315269052982330322265625">
        <ele>1397.4000244140625</ele>
        <time>2022-08-24T07:50:25.000Z</time>
      </trkpt>
      <trkpt lat="40.42307292111217975616455078125" lon="-1.47298528812825679779052734375">
        <ele>1396.4000244140625</ele>
        <time>2022-08-24T07:50:27.000Z</time>
      </trkpt>
      <trkpt lat="40.42311868630349636077880859375" lon="-1.473023928701877593994140625">
        <ele>1396</ele>
        <time>2022-08-24T07:50:28.000Z</time>
      </trkpt>
      <trkpt lat="40.423156656324863433837890625" lon="-1.4730733819305896759033203125">
        <ele>1395.5999755859375</ele>
        <time>2022-08-24T07:50:29.000Z</time>
      </trkpt>
      <trkpt lat="40.423221029341220855712890625" lon="-1.47318611852824687957763671875">
        <ele>1394.800048828125</ele>
        <time>2022-08-24T07:50:31.000Z</time>
      </trkpt>
      <trkpt lat="40.4232610948383808135986328125" lon="-1.47330581210553646087646484375">
        <ele>1394</ele>
        <time>2022-08-24T07:50:33.000Z</time>
      </trkpt>
      <trkpt lat="40.4232795350253582000732421875" lon="-1.47336096502840518951416015625">
        <ele>1393.800048828125</ele>
        <time>2022-08-24T07:50:34.000Z</time>
      </trkpt>
      <trkpt lat="40.423296801745891571044921875" lon="-1.47340840660035610198974609375">
        <ele>1393.800048828125</ele>
        <time>2022-08-24T07:50:35.000Z</time>
      </trkpt>
      <trkpt lat="40.423371233046054840087890625" lon="-1.4735494740307331085205078125">
        <ele>1393</ele>
        <time>2022-08-24T07:50:39.000Z</time>
      </trkpt>
      <trkpt lat="40.4234314151108264923095703125" lon="-1.47363848984241485595703125">
        <ele>1392.4000244140625</ele>
        <time>2022-08-24T07:50:42.000Z</time>
      </trkpt>
      <trkpt lat="40.42349084280431270599365234375" lon="-1.473739407956600189208984375">
        <ele>1391.5999755859375</ele>
        <time>2022-08-24T07:50:45.000Z</time>
      </trkpt>
      <trkpt lat="40.42351079173386096954345703125" lon="-1.4737878553569316864013671875">
        <ele>1391.199951171875</ele>
        <time>2022-08-24T07:50:46.000Z</time>
      </trkpt>
      <trkpt lat="40.42360299266874790191650390625" lon="-1.47401290945708751678466796875">
        <ele>1389.5999755859375</ele>
        <time>2022-08-24T07:50:50.000Z</time>
      </trkpt>
      <trkpt lat="40.42372318916022777557373046875" lon="-1.4741139113903045654296875">
        <ele>1388.4000244140625</ele>
        <time>2022-08-24T07:50:53.000Z</time>
      </trkpt>
      <trkpt lat="40.4238550364971160888671875" lon="-1.4740698225796222686767578125">
        <ele>1387.4000244140625</ele>
        <time>2022-08-24T07:50:57.000Z</time>
      </trkpt>
      <trkpt lat="40.423894263803958892822265625" lon="-1.47404140792787075042724609375">
        <ele>1387.199951171875</ele>
        <time>2022-08-24T07:50:59.000Z</time>
      </trkpt>
      <trkpt lat="40.42397866956889629364013671875" lon="-1.47398374043405055999755859375">
        <ele>1387.199951171875</ele>
        <time>2022-08-24T07:51:04.000Z</time>
      </trkpt>
      <trkpt lat="40.42410515248775482177734375" lon="-1.47391886450350284576416015625">
        <ele>1388</ele>
        <time>2022-08-24T07:51:13.000Z</time>
      </trkpt>
      <trkpt lat="40.4241365008056163787841796875" lon="-1.4739129133522510528564453125">
        <ele>1388.5999755859375</ele>
        <time>2022-08-24T07:51:15.000Z</time>
      </trkpt>
      <trkpt lat="40.42419098317623138427734375" lon="-1.473919786512851715087890625">
        <ele>1389.800048828125</ele>
        <time>2022-08-24T07:51:19.000Z</time>
      </trkpt>
      <trkpt lat="40.42421872727572917938232421875" lon="-1.47392791695892810821533203125">
        <ele>1390.199951171875</ele>
        <time>2022-08-24T07:51:21.000Z</time>
      </trkpt>
      <trkpt lat="40.42426063679158687591552734375" lon="-1.47395557723939418792724609375">
        <ele>1391</ele>
        <time>2022-08-24T07:51:24.000Z</time>
      </trkpt>
      <trkpt lat="40.42430941946804523468017578125" lon="-1.47402598522603511810302734375">
        <ele>1391.5999755859375</ele>
        <time>2022-08-24T07:51:29.000Z</time>
      </trkpt>
      <trkpt lat="40.4243244230747222900390625" lon="-1.474059261381626129150390625">
        <ele>1392</ele>
        <time>2022-08-24T07:51:31.000Z</time>
      </trkpt>
      <trkpt lat="40.4243738763034343719482421875" lon="-1.47414584644138813018798828125">
        <ele>1393</ele>
        <time>2022-08-24T07:51:37.000Z</time>
      </trkpt>
      <trkpt lat="40.4244580306112766265869140625" lon="-1.4742575772106647491455078125">
        <ele>1394</ele>
        <time>2022-08-24T07:51:45.000Z</time>
      </trkpt>
      <trkpt lat="40.424481332302093505859375" lon="-1.4742843993008136749267578125">
        <ele>1394.199951171875</ele>
        <time>2022-08-24T07:51:47.000Z</time>
      </trkpt>
      <trkpt lat="40.42453891597688198089599609375" lon="-1.47435438819229602813720703125">
        <ele>1395.199951171875</ele>
        <time>2022-08-24T07:51:52.000Z</time>
      </trkpt>
      <trkpt lat="40.424574203789234161376953125" lon="-1.47439227439463138580322265625">
        <ele>1395.4000244140625</ele>
        <time>2022-08-24T07:51:55.000Z</time>
      </trkpt>
      <trkpt lat="40.42463413439691066741943359375" lon="-1.47445832379162311553955078125">
        <ele>1396.199951171875</ele>
        <time>2022-08-24T07:52:00.000Z</time>
      </trkpt>
      <trkpt lat="40.42469297535717487335205078125" lon="-1.47452487610280513763427734375">
        <ele>1396.800048828125</ele>
        <time>2022-08-24T07:52:05.000Z</time>
      </trkpt>
      <trkpt lat="40.42474008165299892425537109375" lon="-1.47457323968410491943359375">
        <ele>1397.199951171875</ele>
        <time>2022-08-24T07:52:09.000Z</time>
      </trkpt>
      <trkpt lat="40.42482021264731884002685546875" lon="-1.47463769651949405670166015625">
        <ele>1397.800048828125</ele>
        <time>2022-08-24T07:52:15.000Z</time>
      </trkpt>
      <trkpt lat="40.42489581741392612457275390625" lon="-1.47468388080596923828125">
        <ele>1398.4000244140625</ele>
        <time>2022-08-24T07:52:20.000Z</time>
      </trkpt>
      <trkpt lat="40.42495935223996639251708984375" lon="-1.47471749223768711090087890625">
        <ele>1399.4000244140625</ele>
        <time>2022-08-24T07:52:24.000Z</time>
      </trkpt>
      <trkpt lat="40.42497477494180202484130859375" lon="-1.4747269637882709503173828125">
        <ele>1399.5999755859375</ele>
        <time>2022-08-24T07:52:25.000Z</time>
      </trkpt>
      <trkpt lat="40.42508994229137897491455078125" lon="-1.47478823550045490264892578125">
        <ele>1400.4000244140625</ele>
        <time>2022-08-24T07:52:32.000Z</time>
      </trkpt>
      <trkpt lat="40.42512816376984119415283203125" lon="-1.474810279905796051025390625">
        <ele>1400.5999755859375</ele>
        <time>2022-08-24T07:52:34.000Z</time>
      </trkpt>
      <trkpt lat="40.42522774077951908111572265625" lon="-1.474859230220317840576171875">
        <ele>1401</ele>
        <time>2022-08-24T07:52:39.000Z</time>
      </trkpt>
      <trkpt lat="40.42543024756014347076416015625" lon="-1.4749982021749019622802734375">
        <ele>1401.4000244140625</ele>
        <time>2022-08-24T07:52:49.000Z</time>
      </trkpt>
      <trkpt lat="40.4255099594593048095703125" lon="-1.47504203952848911285400390625">
        <ele>1401.5999755859375</ele>
        <time>2022-08-24T07:52:52.000Z</time>
      </trkpt>
      <trkpt lat="40.42566745541989803314208984375" lon="-1.4751063287258148193359375">
        <ele>1401.5999755859375</ele>
        <time>2022-08-24T07:52:57.000Z</time>
      </trkpt>
      <trkpt lat="40.4258799366652965545654296875" lon="-1.475219316780567169189453125">
        <ele>1401.4000244140625</ele>
        <time>2022-08-24T07:53:04.000Z</time>
      </trkpt>
      <trkpt lat="40.42590348981320858001708984375" lon="-1.475239098072052001953125">
        <ele>1401</ele>
        <time>2022-08-24T07:53:08.000Z</time>
      </trkpt>
      <trkpt lat="40.42594556696712970733642578125" lon="-1.47527539171278476715087890625">
        <ele>1400.4000244140625</ele>
        <time>2022-08-24T07:53:12.000Z</time>
      </trkpt>
      <trkpt lat="40.42599074542522430419921875" lon="-1.4753103442490100860595703125">
        <ele>1400.199951171875</ele>
        <time>2022-08-24T07:53:14.000Z</time>
      </trkpt>
      <trkpt lat="40.426194258034229278564453125" lon="-1.47551461122930049896240234375">
        <ele>1399.5999755859375</ele>
        <time>2022-08-24T07:53:21.000Z</time>
      </trkpt>
      <trkpt lat="40.42623482644557952880859375" lon="-1.47554612718522548675537109375">
        <ele>1399.5999755859375</ele>
        <time>2022-08-24T07:53:22.000Z</time>
      </trkpt>
      <trkpt lat="40.42628352530300617218017578125" lon="-1.47558040916919708251953125">
        <ele>1399.4000244140625</ele>
        <time>2022-08-24T07:53:23.000Z</time>
      </trkpt>
      <trkpt lat="40.42639249004423618316650390625" lon="-1.47565945051610469818115234375">
        <ele>1398.5999755859375</ele>
        <time>2022-08-24T07:53:25.000Z</time>
      </trkpt>
      <trkpt lat="40.42643825523555278778076171875" lon="-1.4756969176232814788818359375">
        <ele>1398.199951171875</ele>
        <time>2022-08-24T07:53:26.000Z</time>
      </trkpt>
      <trkpt lat="40.4264898039400577545166015625" lon="-1.4757498912513256072998046875">
        <ele>1396.800048828125</ele>
        <time>2022-08-24T07:53:28.000Z</time>
      </trkpt>
      <trkpt lat="40.42653615586459636688232421875" lon="-1.47585776634514331817626953125">
        <ele>1396.4000244140625</ele>
        <time>2022-08-24T07:53:34.000Z</time>
      </trkpt>
      <trkpt lat="40.42659156024456024169921875" lon="-1.47592373192310333251953125">
        <ele>1396.4000244140625</ele>
        <time>2022-08-24T07:53:40.000Z</time>
      </trkpt>
      <trkpt lat="40.42667261324822902679443359375" lon="-1.475974358618259429931640625">
        <ele>1397.800048828125</ele>
        <time>2022-08-24T07:53:47.000Z</time>
      </trkpt>
      <trkpt lat="40.42675274424254894256591796875" lon="-1.47598500363528728485107421875">
        <ele>1398.800048828125</ele>
        <time>2022-08-24T07:53:54.000Z</time>
      </trkpt>
      <trkpt lat="40.4267791472375392913818359375" lon="-1.47598433308303356170654296875">
        <ele>1399.199951171875</ele>
        <time>2022-08-24T07:53:56.000Z</time>
      </trkpt>
      <trkpt lat="40.4268267564475536346435546875" lon="-1.47598600946366786956787109375">
        <ele>1399.800048828125</ele>
        <time>2022-08-24T07:54:00.000Z</time>
      </trkpt>
      <trkpt lat="40.4268537461757659912109375" lon="-1.4759845845401287078857421875">
        <ele>1400</ele>
        <time>2022-08-24T07:54:02.000Z</time>
      </trkpt>
      <trkpt lat="40.42691652663052082061767578125" lon="-1.47598684765398502349853515625">
        <ele>1400.800048828125</ele>
        <time>2022-08-24T07:54:07.000Z</time>
      </trkpt>
      <trkpt lat="40.4269638843834400177001953125" lon="-1.47599070332944393157958984375">
        <ele>1401.199951171875</ele>
        <time>2022-08-24T07:54:11.000Z</time>
      </trkpt>
      <trkpt lat="40.42699682526290416717529296875" lon="-1.47599020041525363922119140625">
        <ele>1401.800048828125</ele>
        <time>2022-08-24T07:54:14.000Z</time>
      </trkpt>
      <trkpt lat="40.4270708374679088592529296875" lon="-1.47599455900490283966064453125">
        <ele>1403</ele>
        <time>2022-08-24T07:54:20.000Z</time>
      </trkpt>
      <trkpt lat="40.42708299122750759124755859375" lon="-1.4759941399097442626953125">
        <ele>1403.199951171875</ele>
        <time>2022-08-24T07:54:21.000Z</time>
      </trkpt>
      <trkpt lat="40.42715750634670257568359375" lon="-1.47600411437451839447021484375">
        <ele>1404</ele>
        <time>2022-08-24T07:54:27.000Z</time>
      </trkpt>
      <trkpt lat="40.4271804727613925933837890625" lon="-1.4760080538690090179443359375">
        <ele>1404.4000244140625</ele>
        <time>2022-08-24T07:54:29.000Z</time>
      </trkpt>
      <trkpt lat="40.4272426664829254150390625" lon="-1.47602255456149578094482421875">
        <ele>1405.199951171875</ele>
        <time>2022-08-24T07:54:34.000Z</time>
      </trkpt>
      <trkpt lat="40.427276194095611572265625" lon="-1.47604099474847316741943359375">
        <ele>1405.5999755859375</ele>
        <time>2022-08-24T07:54:37.000Z</time>
      </trkpt>
      <trkpt lat="40.427328832447528839111328125" lon="-1.47607251070439815521240234375">
        <ele>1406.199951171875</ele>
        <time>2022-08-24T07:54:41.000Z</time>
      </trkpt>
      <trkpt lat="40.42740116827189922332763671875" lon="-1.47613151930272579193115234375">
        <ele>1407.199951171875</ele>
        <time>2022-08-24T07:54:47.000Z</time>
      </trkpt>
      <trkpt lat="40.4274114780128002166748046875" lon="-1.4761441759765148162841796875">
        <ele>1407.4000244140625</ele>
        <time>2022-08-24T07:54:48.000Z</time>
      </trkpt>
      <trkpt lat="40.42748272418975830078125" lon="-1.47622950375080108642578125">
        <ele>1408.4000244140625</ele>
        <time>2022-08-24T07:54:55.000Z</time>
      </trkpt>
      <trkpt lat="40.42749387212097644805908203125" lon="-1.4762414060533046722412109375">
        <ele>1408.4000244140625</ele>
        <time>2022-08-24T07:54:56.000Z</time>
      </trkpt>
      <trkpt lat="40.42758020572364330291748046875" lon="-1.47636554203927516937255859375">
        <ele>1408.5999755859375</ele>
        <time>2022-08-24T07:55:04.000Z</time>
      </trkpt>
      <trkpt lat="40.4276921041309833526611328125" lon="-1.476494036614894866943359375">
        <ele>1408.5999755859375</ele>
        <time>2022-08-24T07:55:12.000Z</time>
      </trkpt>
      <trkpt lat="40.42783266864717006683349609375" lon="-1.47667407989501953125">
        <ele>1408.800048828125</ele>
        <time>2022-08-24T07:55:21.000Z</time>
      </trkpt>
      <trkpt lat="40.42786636389791965484619140625" lon="-1.4768459089100360870361328125">
        <ele>1408.800048828125</ele>
        <time>2022-08-24T07:55:25.000Z</time>
      </trkpt>
      <trkpt lat="40.4278563894331455230712890625" lon="-1.47690114565193653106689453125">
        <ele>1408.800048828125</ele>
        <time>2022-08-24T07:55:26.000Z</time>
      </trkpt>
      <trkpt lat="40.4277796112000942230224609375" lon="-1.47707146592438220977783203125">
        <ele>1408.4000244140625</ele>
        <time>2022-08-24T07:55:29.000Z</time>
      </trkpt>
      <trkpt lat="40.42774566449224948883056640625" lon="-1.47712561301887035369873046875">
        <ele>1408.199951171875</ele>
        <time>2022-08-24T07:55:30.000Z</time>
      </trkpt>
      <trkpt lat="40.42757861316204071044921875" lon="-1.4773513376712799072265625">
        <ele>1407.4000244140625</ele>
        <time>2022-08-24T07:55:35.000Z</time>
      </trkpt>
      <trkpt lat="40.427550114691257476806640625" lon="-1.477385200560092926025390625">
        <ele>1407.4000244140625</ele>
        <time>2022-08-24T07:55:36.000Z</time>
      </trkpt>
      <trkpt lat="40.4274496994912624359130859375" lon="-1.47748989053070545196533203125">
        <ele>1406.800048828125</ele>
        <time>2022-08-24T07:55:41.000Z</time>
      </trkpt>
      <trkpt lat="40.42728424072265625" lon="-1.477670185267925262451171875">
        <ele>1406.5999755859375</ele>
        <time>2022-08-24T07:55:48.000Z</time>
      </trkpt>
      <trkpt lat="40.42714367620646953582763671875" lon="-1.47790680639445781707763671875">
        <ele>1406.5999755859375</ele>
        <time>2022-08-24T07:55:55.000Z</time>
      </trkpt>
      <trkpt lat="40.427097491919994354248046875" lon="-1.4782362990081310272216796875">
        <ele>1407</ele>
        <time>2022-08-24T07:56:03.000Z</time>
      </trkpt>
      <trkpt lat="40.42703035287559032440185546875" lon="-1.478686742484569549560546875">
        <ele>1407.800048828125</ele>
        <time>2022-08-24T07:56:14.000Z</time>
      </trkpt>
      <trkpt lat="40.4268810711801052093505859375" lon="-1.47909653373062610626220703125">
        <ele>1408.199951171875</ele>
        <time>2022-08-24T07:56:25.000Z</time>
      </trkpt>
      <trkpt lat="40.42679599486291408538818359375" lon="-1.47936659865081310272216796875">
        <ele>1408.4000244140625</ele>
        <time>2022-08-24T07:56:33.000Z</time>
      </trkpt>
      <trkpt lat="40.4267694242298603057861328125" lon="-1.479465924203395843505859375">
        <ele>1408.5999755859375</ele>
        <time>2022-08-24T07:56:37.000Z</time>
      </trkpt>
      <trkpt lat="40.42674754746258258819580078125" lon="-1.479539684951305389404296875">
        <ele>1408.800048828125</ele>
        <time>2022-08-24T07:56:40.000Z</time>
      </trkpt>
      <trkpt lat="40.42673262767493724822998046875" lon="-1.47962140850722789764404296875">
        <ele>1409.4000244140625</ele>
        <time>2022-08-24T07:56:43.000Z</time>
      </trkpt>
      <trkpt lat="40.42671401984989643096923828125" lon="-1.47979994304478168487548828125">
        <ele>1410.199951171875</ele>
        <time>2022-08-24T07:56:50.000Z</time>
      </trkpt>
      <trkpt lat="40.42671200819313526153564453125" lon="-1.47982408292591571807861328125">
        <ele>1410.4000244140625</ele>
        <time>2022-08-24T07:56:51.000Z</time>
      </trkpt>
      <trkpt lat="40.426659286022186279296875" lon="-1.480015106499195098876953125">
        <ele>1411.4000244140625</ele>
        <time>2022-08-24T07:56:59.000Z</time>
      </trkpt>
      <trkpt lat="40.426652915775775909423828125" lon="-1.48003916256129741668701171875">
        <ele>1411.5999755859375</ele>
        <time>2022-08-24T07:57:00.000Z</time>
      </trkpt>
      <trkpt lat="40.42658292688429355621337890625" lon="-1.48018819279968738555908203125">
        <ele>1412.5999755859375</ele>
        <time>2022-08-24T07:57:07.000Z</time>
      </trkpt>
      <trkpt lat="40.42657789774239063262939453125" lon="-1.4802063815295696258544921875">
        <ele>1412.800048828125</ele>
        <time>2022-08-24T07:57:08.000Z</time>
      </trkpt>
      <trkpt lat="40.42655375786125659942626953125" lon="-1.480304114520549774169921875">
        <ele>1413.199951171875</ele>
        <time>2022-08-24T07:57:13.000Z</time>
      </trkpt>
      <trkpt lat="40.42653867043554782867431640625" lon="-1.48033571429550647735595703125">
        <ele>1413.800048828125</ele>
        <time>2022-08-24T07:57:15.000Z</time>
      </trkpt>
      <trkpt lat="40.4265162907540798187255859375" lon="-1.480430848896503448486328125">
        <ele>1414.5999755859375</ele>
        <time>2022-08-24T07:57:20.000Z</time>
      </trkpt>
      <trkpt lat="40.42651436291635036468505859375" lon="-1.480471082031726837158203125">
        <ele>1415</ele>
        <time>2022-08-24T07:57:22.000Z</time>
      </trkpt>
      <trkpt lat="40.42653967626392841339111328125" lon="-1.4805792085826396942138671875">
        <ele>1415.800048828125</ele>
        <time>2022-08-24T07:57:27.000Z</time>
      </trkpt>
      <trkpt lat="40.4265561886131763458251953125" lon="-1.4806204475462436676025390625">
        <ele>1416.199951171875</ele>
        <time>2022-08-24T07:57:29.000Z</time>
      </trkpt>
      <trkpt lat="40.426589548587799072265625" lon="-1.48069001734256744384765625">
        <ele>1417.4000244140625</ele>
        <time>2022-08-24T07:57:33.000Z</time>
      </trkpt>
      <trkpt lat="40.4266222380101680755615234375" lon="-1.48072890937328338623046875">
        <ele>1417.800048828125</ele>
        <time>2022-08-24T07:57:36.000Z</time>
      </trkpt>
      <trkpt lat="40.42662106454372406005859375" lon="-1.480730585753917694091796875">
        <ele>1418.199951171875</ele>
        <time>2022-08-24T07:57:38.000Z</time>
      </trkpt>
      <trkpt lat="40.42666406370699405670166015625" lon="-1.4807719923555850982666015625">
        <ele>1419</ele>
        <time>2022-08-24T07:58:01.000Z</time>
      </trkpt>
      <trkpt lat="40.4266909696161746978759765625" lon="-1.4807994849979877471923828125">
        <ele>1419</ele>
        <time>2022-08-24T07:58:03.000Z</time>
      </trkpt>
      <trkpt lat="40.426836647093296051025390625" lon="-1.48100978694856166839599609375">
        <ele>1419.4000244140625</ele>
        <time>2022-08-24T07:58:14.000Z</time>
      </trkpt>
      <trkpt lat="40.4268874414265155792236328125" lon="-1.481123864650726318359375">
        <ele>1420</ele>
        <time>2022-08-24T07:58:19.000Z</time>
      </trkpt>
      <trkpt lat="40.42693362571299076080322265625" lon="-1.481239534914493560791015625">
        <ele>1420.800048828125</ele>
        <time>2022-08-24T07:58:24.000Z</time>
      </trkpt>
      <trkpt lat="40.4269571788609027862548828125" lon="-1.481281779706478118896484375">
        <ele>1421</ele>
        <time>2022-08-24T07:58:26.000Z</time>
      </trkpt>
      <trkpt lat="40.42704996652901172637939453125" lon="-1.48144447244703769683837890625">
        <ele>1422</ele>
        <time>2022-08-24T07:58:33.000Z</time>
      </trkpt>
      <trkpt lat="40.427064634859561920166015625" lon="-1.48146785795688629150390625">
        <ele>1422.4000244140625</ele>
        <time>2022-08-24T07:58:34.000Z</time>
      </trkpt>
      <trkpt lat="40.427201427519321441650390625" lon="-1.4817221648991107940673828125">
        <ele>1423</ele>
        <time>2022-08-24T07:58:44.000Z</time>
      </trkpt>
      <trkpt lat="40.4273005016148090362548828125" lon="-1.4820708520710468292236328125">
        <ele>1423.800048828125</ele>
        <time>2022-08-24T07:58:54.000Z</time>
      </trkpt>
      <trkpt lat="40.427421033382415771484375" lon="-1.4823860116302967071533203125">
        <ele>1424</ele>
        <time>2022-08-24T07:59:02.000Z</time>
      </trkpt>
      <trkpt lat="40.4274755157530307769775390625" lon="-1.48247058503329753875732421875">
        <ele>1424</ele>
        <time>2022-08-24T07:59:04.000Z</time>
      </trkpt>
      <trkpt lat="40.4275999031960964202880859375" lon="-1.4826071262359619140625">
        <ele>1423.4000244140625</ele>
        <time>2022-08-24T07:59:07.000Z</time>
      </trkpt>
      <trkpt lat="40.42769436724483966827392578125" lon="-1.4826860837638378143310546875">
        <ele>1423</ele>
        <time>2022-08-24T07:59:09.000Z</time>
      </trkpt>
      <trkpt lat="40.4278890788555145263671875" lon="-1.48279345594346523284912109375">
        <ele>1422.199951171875</ele>
        <time>2022-08-24T07:59:13.000Z</time>
      </trkpt>
      <trkpt lat="40.42793274857103824615478515625" lon="-1.482814662158489227294921875">
        <ele>1421.800048828125</ele>
        <time>2022-08-24T07:59:14.000Z</time>
      </trkpt>
      <trkpt lat="40.42805747129023075103759765625" lon="-1.48287945427000522613525390625">
        <ele>1421.5999755859375</ele>
        <time>2022-08-24T07:59:18.000Z</time>
      </trkpt>
      <trkpt lat="40.428163670003414154052734375" lon="-1.48303720168769359588623046875">
        <ele>1421.5999755859375</ele>
        <time>2022-08-24T07:59:24.000Z</time>
      </trkpt>
      <trkpt lat="40.42832954786717891693115234375" lon="-1.48321540094912052154541015625">
        <ele>1422.4000244140625</ele>
        <time>2022-08-24T07:59:32.000Z</time>
      </trkpt>
      <trkpt lat="40.428444631397724151611328125" lon="-1.4832843840122222900390625">
        <ele>1422.800048828125</ele>
        <time>2022-08-24T07:59:39.000Z</time>
      </trkpt>
      <trkpt lat="40.428458712995052337646484375" lon="-1.48329318501055240631103515625">
        <ele>1422.800048828125</ele>
        <time>2022-08-24T07:59:40.000Z</time>
      </trkpt>
      <trkpt lat="40.42854730971157550811767578125" lon="-1.48333794437348842620849609375">
        <ele>1423.4000244140625</ele>
        <time>2022-08-24T07:59:47.000Z</time>
      </trkpt>
      <trkpt lat="40.428595505654811859130859375" lon="-1.4833365194499492645263671875">
        <ele>1424</ele>
        <time>2022-08-24T07:59:50.000Z</time>
      </trkpt>
      <trkpt lat="40.4286513291299343109130859375" lon="-1.48336283862590789794921875">
        <ele>1424.199951171875</ele>
        <time>2022-08-24T07:59:53.000Z</time>
      </trkpt>
      <trkpt lat="40.42879608459770679473876953125" lon="-1.48344070650637149810791015625">
        <ele>1424.800048828125</ele>
        <time>2022-08-24T08:00:01.000Z</time>
      </trkpt>
      <trkpt lat="40.428814776241779327392578125" lon="-1.48344992659986019134521484375">
        <ele>1425</ele>
        <time>2022-08-24T08:00:02.000Z</time>
      </trkpt>
      <trkpt lat="40.42890496551990509033203125" lon="-1.48349083028733730316162109375">
        <ele>1425.800048828125</ele>
        <time>2022-08-24T08:00:07.000Z</time>
      </trkpt>
      <trkpt lat="40.428974367678165435791015625" lon="-1.48351614363491535186767578125">
        <ele>1426.4000244140625</ele>
        <time>2022-08-24T08:00:11.000Z</time>
      </trkpt>
      <trkpt lat="40.42900378815829753875732421875" lon="-1.48352687247097492218017578125">
        <ele>1427</ele>
        <time>2022-08-24T08:00:13.000Z</time>
      </trkpt>
      <trkpt lat="40.42908727191388607025146484375" lon="-1.4835567958652973175048828125">
        <ele>1428</ele>
        <time>2022-08-24T08:00:19.000Z</time>
      </trkpt>
      <trkpt lat="40.4291005991399288177490234375" lon="-1.48356040008366107940673828125">
        <ele>1428.199951171875</ele>
        <time>2022-08-24T08:00:20.000Z</time>
      </trkpt>
      <trkpt lat="40.42922674678266048431396484375" lon="-1.483602225780487060546875">
        <ele>1429.199951171875</ele>
        <time>2022-08-24T08:00:28.000Z</time>
      </trkpt>
      <trkpt lat="40.42925675399601459503173828125" lon="-1.4836141280829906463623046875">
        <ele>1429.4000244140625</ele>
        <time>2022-08-24T08:00:30.000Z</time>
      </trkpt>
      <trkpt lat="40.42932364158332347869873046875" lon="-1.483644135296344757080078125">
        <ele>1430.199951171875</ele>
        <time>2022-08-24T08:00:35.000Z</time>
      </trkpt>
      <trkpt lat="40.42936764657497406005859375" lon="-1.48367087356746196746826171875">
        <ele>1430.4000244140625</ele>
        <time>2022-08-24T08:00:38.000Z</time>
      </trkpt>
      <trkpt lat="40.42942405678331851959228515625" lon="-1.4837090112268924713134765625">
        <ele>1431.199951171875</ele>
        <time>2022-08-24T08:00:42.000Z</time>
      </trkpt>
      <trkpt lat="40.42949798516929149627685546875" lon="-1.483776234090328216552734375">
        <ele>1432.4000244140625</ele>
        <time>2022-08-24T08:00:48.000Z</time>
      </trkpt>
      <trkpt lat="40.42951114475727081298828125" lon="-1.48378662765026092529296875">
        <ele>1432.4000244140625</ele>
        <time>2022-08-24T08:00:49.000Z</time>
      </trkpt>
      <trkpt lat="40.4296056926250457763671875" lon="-1.48386131040751934051513671875">
        <ele>1433.4000244140625</ele>
        <time>2022-08-24T08:00:56.000Z</time>
      </trkpt>
      <trkpt lat="40.42966797016561031341552734375" lon="-1.4839148707687854766845703125">
        <ele>1434.4000244140625</ele>
        <time>2022-08-24T08:01:01.000Z</time>
      </trkpt>
      <trkpt lat="40.42973234318196773529052734375" lon="-1.48394948802888393402099609375">
        <ele>1435.4000244140625</ele>
        <time>2022-08-24T08:01:06.000Z</time>
      </trkpt>
      <trkpt lat="40.4297902621328830718994140625" lon="-1.4839768968522548675537109375">
        <ele>1436</ele>
        <time>2022-08-24T08:01:10.000Z</time>
      </trkpt>
      <trkpt lat="40.429850108921527862548828125" lon="-1.48400430567562580108642578125">
        <ele>1436.4000244140625</ele>
        <time>2022-08-24T08:01:14.000Z</time>
      </trkpt>
      <trkpt lat="40.42991590686142444610595703125" lon="-1.48403607308864593505859375">
        <ele>1437.199951171875</ele>
        <time>2022-08-24T08:01:19.000Z</time>
      </trkpt>
      <trkpt lat="40.42996846139430999755859375" lon="-1.4840734563767910003662109375">
        <ele>1437.5999755859375</ele>
        <time>2022-08-24T08:01:23.000Z</time>
      </trkpt>
      <trkpt lat="40.4300165735185146331787109375" lon="-1.48412282578647136688232421875">
        <ele>1438.4000244140625</ele>
        <time>2022-08-24T08:01:27.000Z</time>
      </trkpt>
      <trkpt lat="40.430027134716510772705078125" lon="-1.484136991202831268310546875">
        <ele>1438.5999755859375</ele>
        <time>2022-08-24T08:01:28.000Z</time>
      </trkpt>
      <trkpt lat="40.430085472762584686279296875" lon="-1.4842239953577518463134765625">
        <ele>1439.5999755859375</ele>
        <time>2022-08-24T08:01:34.000Z</time>
      </trkpt>
      <trkpt lat="40.43011506088078022003173828125" lon="-1.48426665924489498138427734375">
        <ele>1440</ele>
        <time>2022-08-24T08:01:37.000Z</time>
      </trkpt>
      <trkpt lat="40.43015780858695507049560546875" lon="-1.48432197980582714080810546875">
        <ele>1440.800048828125</ele>
        <time>2022-08-24T08:01:41.000Z</time>
      </trkpt>
      <trkpt lat="40.43019988574087619781494140625" lon="-1.48440278135240077972412109375">
        <ele>1441.4000244140625</ele>
        <time>2022-08-24T08:01:46.000Z</time>
      </trkpt>
      <trkpt lat="40.43021799065172672271728515625" lon="-1.4844382368028163909912109375">
        <ele>1441.800048828125</ele>
        <time>2022-08-24T08:01:48.000Z</time>
      </trkpt>
      <trkpt lat="40.4302708804607391357421875" lon="-1.48452700115740299224853515625">
        <ele>1443</ele>
        <time>2022-08-24T08:01:53.000Z</time>
      </trkpt>
      <trkpt lat="40.43028253130614757537841796875" lon="-1.4845458604395389556884765625">
        <ele>1443.199951171875</ele>
        <time>2022-08-24T08:01:54.000Z</time>
      </trkpt>
      <trkpt lat="40.43035796843469142913818359375" lon="-1.4846434257924556732177734375">
        <ele>1444</ele>
        <time>2022-08-24T08:01:59.000Z</time>
      </trkpt>
      <trkpt lat="40.43039887212216854095458984375" lon="-1.48470235057175159454345703125">
        <ele>1444.4000244140625</ele>
        <time>2022-08-24T08:02:02.000Z</time>
      </trkpt>
      <trkpt lat="40.43054589070379734039306640625" lon="-1.48490519262850284576416015625">
        <ele>1444.4000244140625</ele>
        <time>2022-08-24T08:02:11.000Z</time>
      </trkpt>
      <trkpt lat="40.43075837194919586181640625" lon="-1.48514441214501857757568359375">
        <ele>1444.199951171875</ele>
        <time>2022-08-24T08:02:19.000Z</time>
      </trkpt>
      <trkpt lat="40.43103422038257122039794921875" lon="-1.485445238649845123291015625">
        <ele>1443.4000244140625</ele>
        <time>2022-08-24T08:02:27.000Z</time>
      </trkpt>
      <trkpt lat="40.4311454482376575469970703125" lon="-1.48557993583381175994873046875">
        <ele>1443</ele>
        <time>2022-08-24T08:02:30.000Z</time>
      </trkpt>
      <trkpt lat="40.431310236454010009765625" lon="-1.48576299659907817840576171875">
        <ele>1442.4000244140625</ele>
        <time>2022-08-24T08:02:34.000Z</time>
      </trkpt>
      <trkpt lat="40.4314002580940723419189453125" lon="-1.4858443848788738250732421875">
        <ele>1442</ele>
        <time>2022-08-24T08:02:36.000Z</time>
      </trkpt>
      <trkpt lat="40.43159186840057373046875" lon="-1.485985033214092254638671875">
        <ele>1441.199951171875</ele>
        <time>2022-08-24T08:02:40.000Z</time>
      </trkpt>
      <trkpt lat="40.431640483438968658447265625" lon="-1.48603104986250400543212890625">
        <ele>1441.199951171875</ele>
        <time>2022-08-24T08:02:41.000Z</time>
      </trkpt>
      <trkpt lat="40.43178725056350231170654296875" lon="-1.48619499988853931427001953125">
        <ele>1441</ele>
        <time>2022-08-24T08:02:44.000Z</time>
      </trkpt>
      <trkpt lat="40.43183569796383380889892578125" lon="-1.48625333793461322784423828125">
        <ele>1440.800048828125</ele>
        <time>2022-08-24T08:02:45.000Z</time>
      </trkpt>
      <trkpt lat="40.43209536932408809661865234375" lon="-1.48662968538701534271240234375">
        <ele>1439.5999755859375</ele>
        <time>2022-08-24T08:02:51.000Z</time>
      </trkpt>
      <trkpt lat="40.4321365244686603546142578125" lon="-1.48669355548918247222900390625">
        <ele>1439.4000244140625</ele>
        <time>2022-08-24T08:02:52.000Z</time>
      </trkpt>
      <trkpt lat="40.4322072677314281463623046875" lon="-1.4868222177028656005859375">
        <ele>1439</ele>
        <time>2022-08-24T08:02:54.000Z</time>
      </trkpt>
      <trkpt lat="40.43225504457950592041015625" lon="-1.48695523850619792938232421875">
        <ele>1438.800048828125</ele>
        <time>2022-08-24T08:02:56.000Z</time>
      </trkpt>
      <trkpt lat="40.432289578020572662353515625" lon="-1.4870818890631198883056640625">
        <ele>1438.4000244140625</ele>
        <time>2022-08-24T08:02:58.000Z</time>
      </trkpt>
      <trkpt lat="40.43236610479652881622314453125" lon="-1.4872904308140277862548828125">
        <ele>1438</ele>
        <time>2022-08-24T08:03:02.000Z</time>
      </trkpt>
      <trkpt lat="40.43246802873909473419189453125" lon="-1.48754482157528400421142578125">
        <ele>1438</ele>
        <time>2022-08-24T08:03:08.000Z</time>
      </trkpt>
      <trkpt lat="40.43252821080386638641357421875" lon="-1.48780767805874347686767578125">
        <ele>1438.199951171875</ele>
        <time>2022-08-24T08:03:16.000Z</time>
      </trkpt>
      <trkpt lat="40.43255637399852275848388671875" lon="-1.48797129280865192413330078125">
        <ele>1439.199951171875</ele>
        <time>2022-08-24T08:03:21.000Z</time>
      </trkpt>
      <trkpt lat="40.43258219026029109954833984375" lon="-1.4881081692874431610107421875">
        <ele>1439.800048828125</ele>
        <time>2022-08-24T08:03:25.000Z</time>
      </trkpt>
      <trkpt lat="40.4326741397380828857421875" lon="-1.488454006612300872802734375">
        <ele>1440</ele>
        <time>2022-08-24T08:03:35.000Z</time>
      </trkpt>
      <trkpt lat="40.43277212418615818023681640625" lon="-1.4886258356273174285888671875">
        <ele>1440.4000244140625</ele>
        <time>2022-08-24T08:03:42.000Z</time>
      </trkpt>
      <trkpt lat="40.4327883012592792510986328125" lon="-1.488646455109119415283203125">
        <ele>1440.4000244140625</ele>
        <time>2022-08-24T08:03:43.000Z</time>
      </trkpt>
      <trkpt lat="40.432876311242580413818359375" lon="-1.48877763189375400543212890625">
        <ele>1441.4000244140625</ele>
        <time>2022-08-24T08:03:49.000Z</time>
      </trkpt>
      <trkpt lat="40.432925261557102203369140625" lon="-1.48887821473181247711181640625">
        <ele>1442</ele>
        <time>2022-08-24T08:03:53.000Z</time>
      </trkpt>
      <trkpt lat="40.4329542629420757293701171875" lon="-1.48896060883998870849609375">
        <ele>1442.4000244140625</ele>
        <time>2022-08-24T08:03:56.000Z</time>
      </trkpt>
      <trkpt lat="40.43300648219883441925048828125" lon="-1.48914777673780918121337890625">
        <ele>1443</ele>
        <time>2022-08-24T08:04:02.000Z</time>
      </trkpt>
      <trkpt lat="40.433023162186145782470703125" lon="-1.4892155863344669342041015625">
        <ele>1443.199951171875</ele>
        <time>2022-08-24T08:04:04.000Z</time>
      </trkpt>
      <trkpt lat="40.4330991022288799285888671875" lon="-1.48948322050273418426513671875">
        <ele>1444.199951171875</ele>
        <time>2022-08-24T08:04:12.000Z</time>
      </trkpt>
      <trkpt lat="40.43310857377946376800537109375" lon="-1.48951674811542034149169921875">
        <ele>1444.4000244140625</ele>
        <time>2022-08-24T08:04:13.000Z</time>
      </trkpt>
      <trkpt lat="40.43318803422152996063232421875" lon="-1.489907763898372650146484375">
        <ele>1445.199951171875</ele>
        <time>2022-08-24T08:04:24.000Z</time>
      </trkpt>
      <trkpt lat="40.4331810772418975830078125" lon="-1.48999535478651523590087890625">
        <ele>1445.4000244140625</ele>
        <time>2022-08-24T08:04:26.000Z</time>
      </trkpt>
      <trkpt lat="40.43315819464623928070068359375" lon="-1.49019869975745677947998046875">
        <ele>1445.5999755859375</ele>
        <time>2022-08-24T08:04:31.000Z</time>
      </trkpt>
      <trkpt lat="40.43317479081451892852783203125" lon="-1.490486450493335723876953125">
        <ele>1446</ele>
        <time>2022-08-24T08:04:39.000Z</time>
      </trkpt>
      <trkpt lat="40.4331899620592594146728515625" lon="-1.49063891731202602386474609375">
        <ele>1446.4000244140625</ele>
        <time>2022-08-24T08:04:43.000Z</time>
      </trkpt>
      <trkpt lat="40.43321393430233001708984375" lon="-1.49083304218947887420654296875">
        <ele>1446.5999755859375</ele>
        <time>2022-08-24T08:04:48.000Z</time>
      </trkpt>
      <trkpt lat="40.43321837671101093292236328125" lon="-1.49109355174005031585693359375">
        <ele>1446.4000244140625</ele>
        <time>2022-08-24T08:04:56.000Z</time>
      </trkpt>
      <trkpt lat="40.43321401812136173248291015625" lon="-1.49113185703754425048828125">
        <ele>1446.199951171875</ele>
        <time>2022-08-24T08:05:00.000Z</time>
      </trkpt>
      <trkpt lat="40.43316775001585483551025390625" lon="-1.491140909492969512939453125">
        <ele>1445.4000244140625</ele>
        <time>2022-08-24T08:05:47.000Z</time>
      </trkpt>
      <trkpt lat="40.4331168718636035919189453125" lon="-1.4911487884819507598876953125">
        <ele>1445.4000244140625</ele>
        <time>2022-08-24T08:05:49.000Z</time>
      </trkpt>
      <trkpt lat="40.43296021409332752227783203125" lon="-1.4912027679383754730224609375">
        <ele>1445.4000244140625</ele>
        <time>2022-08-24T08:05:53.000Z</time>
      </trkpt>
      <trkpt lat="40.43280892074108123779296875" lon="-1.49128147400915622711181640625">
        <ele>1445.199951171875</ele>
        <time>2022-08-24T08:05:56.000Z</time>
      </trkpt>
      <trkpt lat="40.4326258599758148193359375" lon="-1.491376273334026336669921875">
        <ele>1444.800048828125</ele>
        <time>2022-08-24T08:05:59.000Z</time>
      </trkpt>
      <trkpt lat="40.432324111461639404296875" lon="-1.4914797060191631317138671875">
        <ele>1444</ele>
        <time>2022-08-24T08:06:03.000Z</time>
      </trkpt>
      <trkpt lat="40.43216024525463581085205078125" lon="-1.49151432327926158905029296875">
        <ele>1442.800048828125</ele>
        <time>2022-08-24T08:06:05.000Z</time>
      </trkpt>
      <trkpt lat="40.43192404322326183319091796875" lon="-1.49158674292266368865966796875">
        <ele>1441.4000244140625</ele>
        <time>2022-08-24T08:06:08.000Z</time>
      </trkpt>
      <trkpt lat="40.4317858256399631500244140625" lon="-1.49168447591364383697509765625">
        <ele>1440.199951171875</ele>
        <time>2022-08-24T08:06:10.000Z</time>
      </trkpt>
      <trkpt lat="40.43165515176951885223388671875" lon="-1.49181724525988101959228515625">
        <ele>1439.199951171875</ele>
        <time>2022-08-24T08:06:12.000Z</time>
      </trkpt>
      <trkpt lat="40.43158859945833683013916015625" lon="-1.49189117364585399627685546875">
        <ele>1438.800048828125</ele>
        <time>2022-08-24T08:06:13.000Z</time>
      </trkpt>
      <trkpt lat="40.4314525611698627471923828125" lon="-1.49205160327255725860595703125">
        <ele>1438.199951171875</ele>
        <time>2022-08-24T08:06:15.000Z</time>
      </trkpt>
      <trkpt lat="40.43131484650075435638427734375" lon="-1.49221773259341716766357421875">
        <ele>1437.4000244140625</ele>
        <time>2022-08-24T08:06:17.000Z</time>
      </trkpt>
      <trkpt lat="40.43118241243064403533935546875" lon="-1.49237237870693206787109375">
        <ele>1436</ele>
        <time>2022-08-24T08:06:19.000Z</time>
      </trkpt>
      <trkpt lat="40.4310599528253078460693359375" lon="-1.4925219118595123291015625">
        <ele>1434.800048828125</ele>
        <time>2022-08-24T08:06:21.000Z</time>
      </trkpt>
      <trkpt lat="40.43099901638925075531005859375" lon="-1.49259475059807300567626953125">
        <ele>1434.5999755859375</ele>
        <time>2022-08-24T08:06:22.000Z</time>
      </trkpt>
      <trkpt lat="40.43087261728942394256591796875" lon="-1.49273690767586231231689453125">
        <ele>1433.5999755859375</ele>
        <time>2022-08-24T08:06:24.000Z</time>
      </trkpt>
      <trkpt lat="40.430731214582920074462890625" lon="-1.49286297149956226348876953125">
        <ele>1431.800048828125</ele>
        <time>2022-08-24T08:06:26.000Z</time>
      </trkpt>
      <trkpt lat="40.43065284378826618194580078125" lon="-1.49292013607919216156005859375">
        <ele>1430.800048828125</ele>
        <time>2022-08-24T08:06:27.000Z</time>
      </trkpt>
      <trkpt lat="40.43048235587775707244873046875" lon="-1.49302507750689983367919921875">
        <ele>1429.4000244140625</ele>
        <time>2022-08-24T08:06:29.000Z</time>
      </trkpt>
      <trkpt lat="40.4302988760173320770263671875" lon="-1.49313370697200298309326171875">
        <ele>1427.4000244140625</ele>
        <time>2022-08-24T08:06:31.000Z</time>
      </trkpt>
      <trkpt lat="40.43020307086408138275146484375" lon="-1.49319472722709178924560546875">
        <ele>1426.5999755859375</ele>
        <time>2022-08-24T08:06:32.000Z</time>
      </trkpt>
      <trkpt lat="40.430104918777942657470703125" lon="-1.4932576753199100494384765625">
        <ele>1425.5999755859375</ele>
        <time>2022-08-24T08:06:33.000Z</time>
      </trkpt>
      <trkpt lat="40.42990333400666713714599609375" lon="-1.49339002557098865509033203125">
        <ele>1424.4000244140625</ele>
        <time>2022-08-24T08:06:35.000Z</time>
      </trkpt>
      <trkpt lat="40.42970359325408935546875" lon="-1.49352430365979671478271484375">
        <ele>1422.800048828125</ele>
        <time>2022-08-24T08:06:37.000Z</time>
      </trkpt>
      <trkpt lat="40.4296048544347286224365234375" lon="-1.4935899339616298675537109375">
        <ele>1422</ele>
        <time>2022-08-24T08:06:38.000Z</time>
      </trkpt>
      <trkpt lat="40.42950167320668697357177734375" lon="-1.49365573190152645111083984375">
        <ele>1421</ele>
        <time>2022-08-24T08:06:39.000Z</time>
      </trkpt>
      <trkpt lat="40.42929782532155513763427734375" lon="-1.493791602551937103271484375">
        <ele>1419.4000244140625</ele>
        <time>2022-08-24T08:06:41.000Z</time>
      </trkpt>
      <trkpt lat="40.42910470627248287200927734375" lon="-1.49393183179199695587158203125">
        <ele>1417.199951171875</ele>
        <time>2022-08-24T08:06:43.000Z</time>
      </trkpt>
      <trkpt lat="40.42901217006146907806396484375" lon="-1.4940137229859828948974609375">
        <ele>1415.800048828125</ele>
        <time>2022-08-24T08:06:44.000Z</time>
      </trkpt>
      <trkpt lat="40.428924076259136199951171875" lon="-1.49410600773990154266357421875">
        <ele>1414.5999755859375</ele>
        <time>2022-08-24T08:06:45.000Z</time>
      </trkpt>
      <trkpt lat="40.428840927779674530029296875" lon="-1.49420223198831081390380859375">
        <ele>1413.199951171875</ele>
        <time>2022-08-24T08:06:46.000Z</time>
      </trkpt>
      <trkpt lat="40.42876339517533779144287109375" lon="-1.49429627694189548492431640625">
        <ele>1411.800048828125</ele>
        <time>2022-08-24T08:06:47.000Z</time>
      </trkpt>
      <trkpt lat="40.42868695221841335296630859375" lon="-1.4943860471248626708984375">
        <ele>1410.5999755859375</ele>
        <time>2022-08-24T08:06:48.000Z</time>
      </trkpt>
      <trkpt lat="40.42860732413828372955322265625" lon="-1.49446777068078517913818359375">
        <ele>1409.4000244140625</ele>
        <time>2022-08-24T08:06:49.000Z</time>
      </trkpt>
      <trkpt lat="40.42852216400206089019775390625" lon="-1.4945411123335361480712890625">
        <ele>1407.800048828125</ele>
        <time>2022-08-24T08:06:50.000Z</time>
      </trkpt>
      <trkpt lat="40.4284290410578250885009765625" lon="-1.49460691027343273162841796875">
        <ele>1406.5999755859375</ele>
        <time>2022-08-24T08:06:51.000Z</time>
      </trkpt>
      <trkpt lat="40.4282278753817081451416015625" lon="-1.49471386335790157318115234375">
        <ele>1404.800048828125</ele>
        <time>2022-08-24T08:06:53.000Z</time>
      </trkpt>
      <trkpt lat="40.4280179925262928009033203125" lon="-1.494792737066745758056640625">
        <ele>1403</ele>
        <time>2022-08-24T08:06:55.000Z</time>
      </trkpt>
      <trkpt lat="40.42791112326085567474365234375" lon="-1.4948250912129878997802734375">
        <ele>1402</ele>
        <time>2022-08-24T08:06:56.000Z</time>
      </trkpt>
      <trkpt lat="40.42769671417772769927978515625" lon="-1.49487814866006374359130859375">
        <ele>1400.4000244140625</ele>
        <time>2022-08-24T08:06:58.000Z</time>
      </trkpt>
      <trkpt lat="40.42749655432999134063720703125" lon="-1.494912095367908477783203125">
        <ele>1398.4000244140625</ele>
        <time>2022-08-24T08:07:00.000Z</time>
      </trkpt>
      <trkpt lat="40.42731173336505889892578125" lon="-1.49492508731782436370849609375">
        <ele>1397.199951171875</ele>
        <time>2022-08-24T08:07:02.000Z</time>
      </trkpt>
      <trkpt lat="40.42705214582383632659912109375" lon="-1.49491268210113048553466796875">
        <ele>1395.5999755859375</ele>
        <time>2022-08-24T08:07:05.000Z</time>
      </trkpt>
      <trkpt lat="40.42688517831265926361083984375" lon="-1.494903378188610076904296875">
        <ele>1394.4000244140625</ele>
        <time>2022-08-24T08:07:07.000Z</time>
      </trkpt>
      <trkpt lat="40.42671854607760906219482421875" lon="-1.4949171245098114013671875">
        <ele>1393.199951171875</ele>
        <time>2022-08-24T08:07:09.000Z</time>
      </trkpt>
      <trkpt lat="40.4265417717397212982177734375" lon="-1.49493866600096225738525390625">
        <ele>1392.199951171875</ele>
        <time>2022-08-24T08:07:11.000Z</time>
      </trkpt>
      <trkpt lat="40.4264489002525806427001953125" lon="-1.49494864046573638916015625">
        <ele>1391.5999755859375</ele>
        <time>2022-08-24T08:07:12.000Z</time>
      </trkpt>
      <trkpt lat="40.42618109844624996185302734375" lon="-1.49495140649378299713134765625">
        <ele>1390.4000244140625</ele>
        <time>2022-08-24T08:07:15.000Z</time>
      </trkpt>
      <trkpt lat="40.426099039614200592041015625" lon="-1.494954340159893035888671875">
        <ele>1389.800048828125</ele>
        <time>2022-08-24T08:07:16.000Z</time>
      </trkpt>
      <trkpt lat="40.4260214231908321380615234375" lon="-1.4949659071862697601318359375">
        <ele>1389</ele>
        <time>2022-08-24T08:07:17.000Z</time>
      </trkpt>
      <trkpt lat="40.4258735664188861846923828125" lon="-1.49502499960362911224365234375">
        <ele>1387.800048828125</ele>
        <time>2022-08-24T08:07:19.000Z</time>
      </trkpt>
      <trkpt lat="40.42580273933708667755126953125" lon="-1.4950735308229923248291015625">
        <ele>1387</ele>
        <time>2022-08-24T08:07:20.000Z</time>
      </trkpt>
      <trkpt lat="40.4257325828075408935546875" lon="-1.4951275102794170379638671875">
        <ele>1386.199951171875</ele>
        <time>2022-08-24T08:07:21.000Z</time>
      </trkpt>
      <trkpt lat="40.42566225863993167877197265625" lon="-1.49518668651580810546875">
        <ele>1385.5999755859375</ele>
        <time>2022-08-24T08:07:22.000Z</time>
      </trkpt>
      <trkpt lat="40.42559486813843250274658203125" lon="-1.495254747569561004638671875">
        <ele>1384.800048828125</ele>
        <time>2022-08-24T08:07:23.000Z</time>
      </trkpt>
      <trkpt lat="40.425534434616565704345703125" lon="-1.4953323639929294586181640625">
        <ele>1383.800048828125</ele>
        <time>2022-08-24T08:07:24.000Z</time>
      </trkpt>
      <trkpt lat="40.4254826344549655914306640625" lon="-1.4954205416142940521240234375">
        <ele>1383</ele>
        <time>2022-08-24T08:07:25.000Z</time>
      </trkpt>
      <trkpt lat="40.42539571411907672882080078125" lon="-1.4956223778426647186279296875">
        <ele>1381.5999755859375</ele>
        <time>2022-08-24T08:07:27.000Z</time>
      </trkpt>
      <trkpt lat="40.4253223724663257598876953125" lon="-1.49582932703197002410888671875">
        <ele>1379.199951171875</ele>
        <time>2022-08-24T08:07:29.000Z</time>
      </trkpt>
      <trkpt lat="40.4252878390252590179443359375" lon="-1.495930664241313934326171875">
        <ele>1378.199951171875</ele>
        <time>2022-08-24T08:07:30.000Z</time>
      </trkpt>
      <trkpt lat="40.42525439523160457611083984375" lon="-1.49603552184998989105224609375">
        <ele>1377.199951171875</ele>
        <time>2022-08-24T08:07:31.000Z</time>
      </trkpt>
      <trkpt lat="40.425191782414913177490234375" lon="-1.49625755846500396728515625">
        <ele>1375.199951171875</ele>
        <time>2022-08-24T08:07:33.000Z</time>
      </trkpt>
      <trkpt lat="40.4251396469771862030029296875" lon="-1.49650096893310546875">
        <ele>1373.5999755859375</ele>
        <time>2022-08-24T08:07:35.000Z</time>
      </trkpt>
      <trkpt lat="40.425107292830944061279296875" lon="-1.4967626519501209259033203125">
        <ele>1371.800048828125</ele>
        <time>2022-08-24T08:07:37.000Z</time>
      </trkpt>
      <trkpt lat="40.425098240375518798828125" lon="-1.49689215235412120819091796875">
        <ele>1370.5999755859375</ele>
        <time>2022-08-24T08:07:38.000Z</time>
      </trkpt>
      <trkpt lat="40.42508474551141262054443359375" lon="-1.49701519869267940521240234375">
        <ele>1369.4000244140625</ele>
        <time>2022-08-24T08:07:39.000Z</time>
      </trkpt>
      <trkpt lat="40.4250662215054035186767578125" lon="-1.4971301145851612091064453125">
        <ele>1368.199951171875</ele>
        <time>2022-08-24T08:07:40.000Z</time>
      </trkpt>
      <trkpt lat="40.42504216544330120086669921875" lon="-1.49724058806896209716796875">
        <ele>1367</ele>
        <time>2022-08-24T08:07:41.000Z</time>
      </trkpt>
      <trkpt lat="40.42496069334447383880615234375" lon="-1.4974529854953289031982421875">
        <ele>1365.4000244140625</ele>
        <time>2022-08-24T08:07:43.000Z</time>
      </trkpt>
      <trkpt lat="40.42491358704864978790283203125" lon="-1.4975609444081783294677734375">
        <ele>1364.199951171875</ele>
        <time>2022-08-24T08:07:44.000Z</time>
      </trkpt>
      <trkpt lat="40.4248627088963985443115234375" lon="-1.4976746030151844024658203125">
        <ele>1363</ele>
        <time>2022-08-24T08:07:45.000Z</time>
      </trkpt>
      <trkpt lat="40.424753241240978240966796875" lon="-1.49790267460048198699951171875">
        <ele>1361.199951171875</ele>
        <time>2022-08-24T08:07:47.000Z</time>
      </trkpt>
      <trkpt lat="40.424684844911098480224609375" lon="-1.49800795130431652069091796875">
        <ele>1360.199951171875</ele>
        <time>2022-08-24T08:07:48.000Z</time>
      </trkpt>
      <trkpt lat="40.4246095754206180572509765625" lon="-1.498107947409152984619140625">
        <ele>1359.5999755859375</ele>
        <time>2022-08-24T08:07:49.000Z</time>
      </trkpt>
      <trkpt lat="40.42452667839825153350830078125" lon="-1.4981956221163272857666015625">
        <ele>1358.800048828125</ele>
        <time>2022-08-24T08:07:50.000Z</time>
      </trkpt>
      <trkpt lat="40.42433490045368671417236328125" lon="-1.498332917690277099609375">
        <ele>1357</ele>
        <time>2022-08-24T08:07:52.000Z</time>
      </trkpt>
      <trkpt lat="40.42423767037689685821533203125" lon="-1.49838413111865520477294921875">
        <ele>1356</ele>
        <time>2022-08-24T08:07:53.000Z</time>
      </trkpt>
      <trkpt lat="40.42414412833750247955322265625" lon="-1.498423777520656585693359375">
        <ele>1355.199951171875</ele>
        <time>2022-08-24T08:07:54.000Z</time>
      </trkpt>
      <trkpt lat="40.424057543277740478515625" lon="-1.4984551258385181427001953125">
        <ele>1354.199951171875</ele>
        <time>2022-08-24T08:07:55.000Z</time>
      </trkpt>
      <trkpt lat="40.4239735566079616546630859375" lon="-1.49848245084285736083984375">
        <ele>1353</ele>
        <time>2022-08-24T08:07:56.000Z</time>
      </trkpt>
      <trkpt lat="40.4238863848149776458740234375" lon="-1.498504243791103363037109375">
        <ele>1351.800048828125</ele>
        <time>2022-08-24T08:07:57.000Z</time>
      </trkpt>
      <trkpt lat="40.4236278869211673736572265625" lon="-1.4985342510044574737548828125">
        <ele>1350.5999755859375</ele>
        <time>2022-08-24T08:08:00.000Z</time>
      </trkpt>
      <trkpt lat="40.4235440678894519805908203125" lon="-1.4985308982431888580322265625">
        <ele>1350.199951171875</ele>
        <time>2022-08-24T08:08:01.000Z</time>
      </trkpt>
      <trkpt lat="40.42329034768044948577880859375" lon="-1.4985087700188159942626953125">
        <ele>1349.5999755859375</ele>
        <time>2022-08-24T08:08:04.000Z</time>
      </trkpt>
      <trkpt lat="40.42305783368647098541259765625" lon="-1.4984896592795848846435546875">
        <ele>1349.199951171875</ele>
        <time>2022-08-24T08:08:07.000Z</time>
      </trkpt>
      <trkpt lat="40.4228949733078479766845703125" lon="-1.49847264401614665985107421875">
        <ele>1348.5999755859375</ele>
        <time>2022-08-24T08:08:09.000Z</time>
      </trkpt>
      <trkpt lat="40.42272507213056087493896484375" lon="-1.4984283037483692169189453125">
        <ele>1348</ele>
        <time>2022-08-24T08:08:11.000Z</time>
      </trkpt>
      <trkpt lat="40.4226364754140377044677734375" lon="-1.49840139783918857574462890625">
        <ele>1347.199951171875</ele>
        <time>2022-08-24T08:08:12.000Z</time>
      </trkpt>
      <trkpt lat="40.42245961725711822509765625" lon="-1.4983589015901088714599609375">
        <ele>1346</ele>
        <time>2022-08-24T08:08:14.000Z</time>
      </trkpt>
      <trkpt lat="40.42221142910420894622802734375" lon="-1.49833023548126220703125">
        <ele>1344.800048828125</ele>
        <time>2022-08-24T08:08:17.000Z</time>
      </trkpt>
      <trkpt lat="40.42205393314361572265625" lon="-1.49833635427057743072509765625">
        <ele>1343.5999755859375</ele>
        <time>2022-08-24T08:08:19.000Z</time>
      </trkpt>
      <trkpt lat="40.42189509607851505279541015625" lon="-1.49835160933434963226318359375">
        <ele>1342.199951171875</ele>
        <time>2022-08-24T08:08:21.000Z</time>
      </trkpt>
      <trkpt lat="40.42173014022409915924072265625" lon="-1.4983659423887729644775390625">
        <ele>1340.800048828125</ele>
        <time>2022-08-24T08:08:23.000Z</time>
      </trkpt>
      <trkpt lat="40.42155529372394084930419921875" lon="-1.498362757265567779541015625">
        <ele>1338</ele>
        <time>2022-08-24T08:08:25.000Z</time>
      </trkpt>
      <trkpt lat="40.42137541808187961578369140625" lon="-1.4983233623206615447998046875">
        <ele>1336.4000244140625</ele>
        <time>2022-08-24T08:08:27.000Z</time>
      </trkpt>
      <trkpt lat="40.42128656990826129913330078125" lon="-1.49829260073602199554443359375">
        <ele>1335.4000244140625</ele>
        <time>2022-08-24T08:08:28.000Z</time>
      </trkpt>
      <trkpt lat="40.4212004877626895904541015625" lon="-1.498256810009479522705078125">
        <ele>1334.4000244140625</ele>
        <time>2022-08-24T08:08:29.000Z</time>
      </trkpt>
      <trkpt lat="40.42112111113965511322021484375" lon="-1.49821431376039981842041015625">
        <ele>1333.5999755859375</ele>
        <time>2022-08-24T08:08:30.000Z</time>
      </trkpt>
      <trkpt lat="40.42104785330593585968017578125" lon="-1.4981671236455440521240234375">
        <ele>1332.4000244140625</ele>
        <time>2022-08-24T08:08:31.000Z</time>
      </trkpt>
      <trkpt lat="40.42098314501345157623291015625" lon="-1.49811767041683197021484375">
        <ele>1331.4000244140625</ele>
        <time>2022-08-24T08:08:32.000Z</time>
      </trkpt>
      <trkpt lat="40.4209238849580287933349609375" lon="-1.49807475507259368896484375">
        <ele>1330.4000244140625</ele>
        <time>2022-08-24T08:08:33.000Z</time>
      </trkpt>
      <trkpt lat="40.4208702407777309417724609375" lon="-1.4980380423367023468017578125">
        <ele>1329.4000244140625</ele>
        <time>2022-08-24T08:08:34.000Z</time>
      </trkpt>
      <trkpt lat="40.42081735096871852874755859375" lon="-1.49800828658044338226318359375">
        <ele>1328.5999755859375</ele>
        <time>2022-08-24T08:08:35.000Z</time>
      </trkpt>
      <trkpt lat="40.4207595996558666229248046875" lon="-1.4979857392609119415283203125">
        <ele>1327.4000244140625</ele>
        <time>2022-08-24T08:08:36.000Z</time>
      </trkpt>
      <trkpt lat="40.4206972382962703704833984375" lon="-1.497979871928691864013671875">
        <ele>1326.4000244140625</ele>
        <time>2022-08-24T08:08:37.000Z</time>
      </trkpt>
      <trkpt lat="40.4206278361380100250244140625" lon="-1.49798666127026081085205078125">
        <ele>1325.199951171875</ele>
        <time>2022-08-24T08:08:38.000Z</time>
      </trkpt>
      <trkpt lat="40.4204826615750789642333984375" lon="-1.49802454747259616851806640625">
        <ele>1323.199951171875</ele>
        <time>2022-08-24T08:08:40.000Z</time>
      </trkpt>
      <trkpt lat="40.42041082866489887237548828125" lon="-1.4980460889637470245361328125">
        <ele>1322.199951171875</ele>
        <time>2022-08-24T08:08:41.000Z</time>
      </trkpt>
      <trkpt lat="40.4202647320926189422607421875" lon="-1.49807877838611602783203125">
        <ele>1320.5999755859375</ele>
        <time>2022-08-24T08:08:43.000Z</time>
      </trkpt>
      <trkpt lat="40.4201165400445461273193359375" lon="-1.49809420108795166015625">
        <ele>1319</ele>
        <time>2022-08-24T08:08:45.000Z</time>
      </trkpt>
      <trkpt lat="40.41996340267360210418701171875" lon="-1.49810291826725006103515625">
        <ele>1317</ele>
        <time>2022-08-24T08:08:47.000Z</time>
      </trkpt>
      <trkpt lat="40.41988737881183624267578125" lon="-1.49810367263853549957275390625">
        <ele>1316</ele>
        <time>2022-08-24T08:08:48.000Z</time>
      </trkpt>
      <trkpt lat="40.4198147915303707122802734375" lon="-1.49810434319078922271728515625">
        <ele>1314.800048828125</ele>
        <time>2022-08-24T08:08:49.000Z</time>
      </trkpt>
      <trkpt lat="40.41974245570600032806396484375" lon="-1.49810166098177433013916015625">
        <ele>1313.5999755859375</ele>
        <time>2022-08-24T08:08:50.000Z</time>
      </trkpt>
      <trkpt lat="40.4196712933480739593505859375" lon="-1.49809227325022220611572265625">
        <ele>1312.4000244140625</ele>
        <time>2022-08-24T08:08:51.000Z</time>
      </trkpt>
      <trkpt lat="40.4196018911898136138916015625" lon="-1.4980719052255153656005859375">
        <ele>1311.4000244140625</ele>
        <time>2022-08-24T08:08:52.000Z</time>
      </trkpt>
      <trkpt lat="40.419534333050251007080078125" lon="-1.49804147891700267791748046875">
        <ele>1309.5999755859375</ele>
        <time>2022-08-24T08:08:53.000Z</time>
      </trkpt>
      <trkpt lat="40.419469289481639862060546875" lon="-1.49800912477076053619384765625">
        <ele>1308.5999755859375</ele>
        <time>2022-08-24T08:08:54.000Z</time>
      </trkpt>
      <trkpt lat="40.4193542897701263427734375" lon="-1.497958414256572723388671875">
        <ele>1306.199951171875</ele>
        <time>2022-08-24T08:08:56.000Z</time>
      </trkpt>
      <trkpt lat="40.4193021543323993682861328125" lon="-1.49793821386992931365966796875">
        <ele>1305.199951171875</ele>
        <time>2022-08-24T08:08:57.000Z</time>
      </trkpt>
      <trkpt lat="40.419250689446926116943359375" lon="-1.49792253971099853515625">
        <ele>1304.4000244140625</ele>
        <time>2022-08-24T08:08:58.000Z</time>
      </trkpt>
      <trkpt lat="40.419198386371135711669921875" lon="-1.49791541509330272674560546875">
        <ele>1303.199951171875</ele>
        <time>2022-08-24T08:08:59.000Z</time>
      </trkpt>
      <trkpt lat="40.41908866725862026214599609375" lon="-1.497926898300647735595703125">
        <ele>1301.4000244140625</ele>
        <time>2022-08-24T08:09:01.000Z</time>
      </trkpt>
      <trkpt lat="40.41903737001121044158935546875" lon="-1.49794793687760829925537109375">
        <ele>1300.5999755859375</ele>
        <time>2022-08-24T08:09:02.000Z</time>
      </trkpt>
      <trkpt lat="40.41898909024894237518310546875" lon="-1.49797819554805755615234375">
        <ele>1299.5999755859375</ele>
        <time>2022-08-24T08:09:03.000Z</time>
      </trkpt>
      <trkpt lat="40.4189400561153888702392578125" lon="-1.4980149082839488983154296875">
        <ele>1298.800048828125</ele>
        <time>2022-08-24T08:09:04.000Z</time>
      </trkpt>
      <trkpt lat="40.41888716630637645721435546875" lon="-1.4980554766952991485595703125">
        <ele>1298</ele>
        <time>2022-08-24T08:09:05.000Z</time>
      </trkpt>
      <trkpt lat="40.4188320972025394439697265625" lon="-1.4980953745543956756591796875">
        <ele>1297</ele>
        <time>2022-08-24T08:09:06.000Z</time>
      </trkpt>
      <trkpt lat="40.41877786628901958465576171875" lon="-1.4981339313089847564697265625">
        <ele>1296</ele>
        <time>2022-08-24T08:09:07.000Z</time>
      </trkpt>
      <trkpt lat="40.41867761872708797454833984375" lon="-1.49820274673402309417724609375">
        <ele>1294.4000244140625</ele>
        <time>2022-08-24T08:09:09.000Z</time>
      </trkpt>
      <trkpt lat="40.418586842715740203857421875" lon="-1.49826426990330219268798828125">
        <ele>1293</ele>
        <time>2022-08-24T08:09:11.000Z</time>
      </trkpt>
      <trkpt lat="40.41854585520923137664794921875" lon="-1.4982913434505462646484375">
        <ele>1292</ele>
        <time>2022-08-24T08:09:12.000Z</time>
      </trkpt>
      <trkpt lat="40.4185102321207523345947265625" lon="-1.49832151830196380615234375">
        <ele>1291.4000244140625</ele>
        <time>2022-08-24T08:09:13.000Z</time>
      </trkpt>
      <trkpt lat="40.4184354655444622039794921875" lon="-1.4984105341136455535888671875">
        <ele>1289.800048828125</ele>
        <time>2022-08-24T08:09:15.000Z</time>
      </trkpt>
      <trkpt lat="40.418399758636951446533203125" lon="-1.4984775893390178680419921875">
        <ele>1288.800048828125</ele>
        <time>2022-08-24T08:09:16.000Z</time>
      </trkpt>
      <trkpt lat="40.41837327182292938232421875" lon="-1.49855646304786205291748046875">
        <ele>1287.800048828125</ele>
        <time>2022-08-24T08:09:17.000Z</time>
      </trkpt>
      <trkpt lat="40.4183459468185901641845703125" lon="-1.49874405004084110260009765625">
        <ele>1286</ele>
        <time>2022-08-24T08:09:19.000Z</time>
      </trkpt>
      <trkpt lat="40.41835944168269634246826171875" lon="-1.49895795620977878570556640625">
        <ele>1284.800048828125</ele>
        <time>2022-08-24T08:09:21.000Z</time>
      </trkpt>
      <trkpt lat="40.418385677039623260498046875" lon="-1.4990666694939136505126953125">
        <ele>1283.800048828125</ele>
        <time>2022-08-24T08:09:22.000Z</time>
      </trkpt>
      <trkpt lat="40.41841643862426280975341796875" lon="-1.4991736225783824920654296875">
        <ele>1283.199951171875</ele>
        <time>2022-08-24T08:09:23.000Z</time>
      </trkpt>
      <trkpt lat="40.41845365427434444427490234375" lon="-1.49927546270191669464111328125">
        <ele>1282.5999755859375</ele>
        <time>2022-08-24T08:09:24.000Z</time>
      </trkpt>
      <trkpt lat="40.41854183189570903778076171875" lon="-1.49945349432528018951416015625">
        <ele>1281.4000244140625</ele>
        <time>2022-08-24T08:09:26.000Z</time>
      </trkpt>
      <trkpt lat="40.41858625598251819610595703125" lon="-1.4995373971760272979736328125">
        <ele>1280.4000244140625</ele>
        <time>2022-08-24T08:09:27.000Z</time>
      </trkpt>
      <trkpt lat="40.41862414218485355377197265625" lon="-1.49962901137769222259521484375">
        <ele>1279.5999755859375</ele>
        <time>2022-08-24T08:09:28.000Z</time>
      </trkpt>
      <trkpt lat="40.41865599341690540313720703125" lon="-1.4998374693095684051513671875">
        <ele>1278</ele>
        <time>2022-08-24T08:09:30.000Z</time>
      </trkpt>
      <trkpt lat="40.41862984187901020050048828125" lon="-1.50006101466715335845947265625">
        <ele>1276.5999755859375</ele>
        <time>2022-08-24T08:09:32.000Z</time>
      </trkpt>
      <trkpt lat="40.41859723627567291259765625" lon="-1.500173918902873992919921875">
        <ele>1275.800048828125</ele>
        <time>2022-08-24T08:09:33.000Z</time>
      </trkpt>
      <trkpt lat="40.41855624876916408538818359375" lon="-1.50028531439602375030517578125">
        <ele>1275</ele>
        <time>2022-08-24T08:09:34.000Z</time>
      </trkpt>
      <trkpt lat="40.4185142554342746734619140625" lon="-1.50039830245077610015869140625">
        <ele>1274.5999755859375</ele>
        <time>2022-08-24T08:09:35.000Z</time>
      </trkpt>
      <trkpt lat="40.41847796179354190826416015625" lon="-1.50051564909517765045166015625">
        <ele>1274</ele>
        <time>2022-08-24T08:09:36.000Z</time>
      </trkpt>
      <trkpt lat="40.4184503853321075439453125" lon="-1.50063701905310153961181640625">
        <ele>1273.199951171875</ele>
        <time>2022-08-24T08:09:37.000Z</time>
      </trkpt>
      <trkpt lat="40.41840277612209320068359375" lon="-1.50087825022637844085693359375">
        <ele>1271.199951171875</ele>
        <time>2022-08-24T08:09:39.000Z</time>
      </trkpt>
      <trkpt lat="40.41834217496216297149658203125" lon="-1.50108754634857177734375">
        <ele>1269.5999755859375</ele>
        <time>2022-08-24T08:09:41.000Z</time>
      </trkpt>
      <trkpt lat="40.4183109104633331298828125" lon="-1.50117848999798297882080078125">
        <ele>1268.5999755859375</ele>
        <time>2022-08-24T08:09:42.000Z</time>
      </trkpt>
      <trkpt lat="40.41825399734079837799072265625" lon="-1.50134059600532054901123046875">
        <ele>1267.4000244140625</ele>
        <time>2022-08-24T08:09:44.000Z</time>
      </trkpt>
      <trkpt lat="40.4181917198002338409423828125" lon="-1.50155785493552684783935546875">
        <ele>1266.4000244140625</ele>
        <time>2022-08-24T08:09:47.000Z</time>
      </trkpt>
      <trkpt lat="40.418173782527446746826171875" lon="-1.5016305260360240936279296875">
        <ele>1266.199951171875</ele>
        <time>2022-08-24T08:09:48.000Z</time>
      </trkpt>
      <trkpt lat="40.4180492274463176727294921875" lon="-1.50204350240528583526611328125">
        <ele>1265.5999755859375</ele>
        <time>2022-08-24T08:09:54.000Z</time>
      </trkpt>
      <trkpt lat="40.41792140342295169830322265625" lon="-1.502333097159862518310546875">
        <ele>1264.800048828125</ele>
        <time>2022-08-24T08:09:58.000Z</time>
      </trkpt>
      <trkpt lat="40.41786859743297100067138671875" lon="-1.5024794451892375946044921875">
        <ele>1263.800048828125</ele>
        <time>2022-08-24T08:10:00.000Z</time>
      </trkpt>
      <trkpt lat="40.41782534681260585784912109375" lon="-1.50263174436986446380615234375">
        <ele>1262.4000244140625</ele>
        <time>2022-08-24T08:10:02.000Z</time>
      </trkpt>
      <trkpt lat="40.41778444312512874603271484375" lon="-1.50279678404331207275390625">
        <ele>1261</ele>
        <time>2022-08-24T08:10:04.000Z</time>
      </trkpt>
      <trkpt lat="40.417756028473377227783203125" lon="-1.5028851293027400970458984375">
        <ele>1260</ele>
        <time>2022-08-24T08:10:05.000Z</time>
      </trkpt>
      <trkpt lat="40.41771789081394672393798828125" lon="-1.50297515094280242919921875">
        <ele>1259</ele>
        <time>2022-08-24T08:10:06.000Z</time>
      </trkpt>
      <trkpt lat="40.4176197387278079986572265625" lon="-1.50314957834780216217041015625">
        <ele>1257.4000244140625</ele>
        <time>2022-08-24T08:10:08.000Z</time>
      </trkpt>
      <trkpt lat="40.41755561716854572296142578125" lon="-1.50323054753243923187255859375">
        <ele>1256.4000244140625</ele>
        <time>2022-08-24T08:10:09.000Z</time>
      </trkpt>
      <trkpt lat="40.417482443153858184814453125" lon="-1.50330581702291965484619140625">
        <ele>1255.5999755859375</ele>
        <time>2022-08-24T08:10:10.000Z</time>
      </trkpt>
      <trkpt lat="40.41739904321730136871337890625" lon="-1.50337572209537029266357421875">
        <ele>1254.800048828125</ele>
        <time>2022-08-24T08:10:11.000Z</time>
      </trkpt>
      <trkpt lat="40.4172210954129695892333984375" lon="-1.5034832619130611419677734375">
        <ele>1253.199951171875</ele>
        <time>2022-08-24T08:10:13.000Z</time>
      </trkpt>
      <trkpt lat="40.4171295650303363800048828125" lon="-1.5035288594663143157958984375">
        <ele>1252.5999755859375</ele>
        <time>2022-08-24T08:10:14.000Z</time>
      </trkpt>
      <trkpt lat="40.4170380346477031707763671875" lon="-1.50357454083859920501708984375">
        <ele>1252</ele>
        <time>2022-08-24T08:10:15.000Z</time>
      </trkpt>
      <trkpt lat="40.4168626852333545684814453125" lon="-1.50367830879986286163330078125">
        <ele>1250.199951171875</ele>
        <time>2022-08-24T08:10:17.000Z</time>
      </trkpt>
      <trkpt lat="40.416781045496463775634765625" lon="-1.50373362936079502105712890625">
        <ele>1249.199951171875</ele>
        <time>2022-08-24T08:10:18.000Z</time>
      </trkpt>
      <trkpt lat="40.4167047701776027679443359375" lon="-1.50379096157848834991455078125">
        <ele>1248</ele>
        <time>2022-08-24T08:10:19.000Z</time>
      </trkpt>
      <trkpt lat="40.41663109324872493743896484375" lon="-1.50385516695678234100341796875">
        <ele>1247.5999755859375</ele>
        <time>2022-08-24T08:10:20.000Z</time>
      </trkpt>
      <trkpt lat="40.41649036109447479248046875" lon="-1.50400218553841114044189453125">
        <ele>1246.800048828125</ele>
        <time>2022-08-24T08:10:22.000Z</time>
      </trkpt>
      <trkpt lat="40.4162752814590930938720703125" lon="-1.50420494377613067626953125">
        <ele>1245.800048828125</ele>
        <time>2022-08-24T08:10:25.000Z</time>
      </trkpt>
      <trkpt lat="40.416201017796993255615234375" lon="-1.5042614378035068511962890625">
        <ele>1245.800048828125</ele>
        <time>2022-08-24T08:10:26.000Z</time>
      </trkpt>
      <trkpt lat="40.4161291010677814483642578125" lon="-1.5043278224766254425048828125">
        <ele>1245.4000244140625</ele>
        <time>2022-08-24T08:10:27.000Z</time>
      </trkpt>
      <trkpt lat="40.41599440388381481170654296875" lon="-1.5045060217380523681640625">
        <ele>1244.5999755859375</ele>
        <time>2022-08-24T08:10:29.000Z</time>
      </trkpt>
      <trkpt lat="40.4157908074557781219482421875" lon="-1.5048055909574031829833984375">
        <ele>1243</ele>
        <time>2022-08-24T08:10:32.000Z</time>
      </trkpt>
      <trkpt lat="40.41571520268917083740234375" lon="-1.504898630082607269287109375">
        <ele>1242.199951171875</ele>
        <time>2022-08-24T08:10:33.000Z</time>
      </trkpt>
      <trkpt lat="40.41563247330486774444580078125" lon="-1.504986472427845001220703125">
        <ele>1241.199951171875</ele>
        <time>2022-08-24T08:10:34.000Z</time>
      </trkpt>
      <trkpt lat="40.4155484028160572052001953125" lon="-1.5050785057246685028076171875">
        <ele>1240.4000244140625</ele>
        <time>2022-08-24T08:10:35.000Z</time>
      </trkpt>
      <trkpt lat="40.41546885855495929718017578125" lon="-1.5051777474582195281982421875">
        <ele>1239.5999755859375</ele>
        <time>2022-08-24T08:10:36.000Z</time>
      </trkpt>
      <trkpt lat="40.415321923792362213134765625" lon="-1.5053789131343364715576171875">
        <ele>1238.199951171875</ele>
        <time>2022-08-24T08:10:38.000Z</time>
      </trkpt>
      <trkpt lat="40.4152513481676578521728515625" lon="-1.50546868331730365753173828125">
        <ele>1237.4000244140625</ele>
        <time>2022-08-24T08:10:39.000Z</time>
      </trkpt>
      <trkpt lat="40.41517750360071659088134765625" lon="-1.50554613210260868072509765625">
        <ele>1237</ele>
        <time>2022-08-24T08:10:40.000Z</time>
      </trkpt>
      <trkpt lat="40.41500316001474857330322265625" lon="-1.50566062889993190765380859375">
        <ele>1236</ele>
        <time>2022-08-24T08:10:42.000Z</time>
      </trkpt>
      <trkpt lat="40.4148171655833721160888671875" lon="-1.5057473815977573394775390625">
        <ele>1234.4000244140625</ele>
        <time>2022-08-24T08:10:44.000Z</time>
      </trkpt>
      <trkpt lat="40.4146465100347995758056640625" lon="-1.50584511458873748779296875">
        <ele>1232.5999755859375</ele>
        <time>2022-08-24T08:10:46.000Z</time>
      </trkpt>
      <trkpt lat="40.4145643673837184906005859375" lon="-1.50589867495000362396240234375">
        <ele>1231.800048828125</ele>
        <time>2022-08-24T08:10:47.000Z</time>
      </trkpt>
      <trkpt lat="40.41448649950325489044189453125" lon="-1.5059569291770458221435546875">
        <ele>1230.4000244140625</ele>
        <time>2022-08-24T08:10:48.000Z</time>
      </trkpt>
      <trkpt lat="40.4143316857516765594482421875" lon="-1.5061037801206111907958984375">
        <ele>1229</ele>
        <time>2022-08-24T08:10:50.000Z</time>
      </trkpt>
      <trkpt lat="40.414255745708942413330078125" lon="-1.5061822347342967987060546875">
        <ele>1228</ele>
        <time>2022-08-24T08:10:51.000Z</time>
      </trkpt>
      <trkpt lat="40.41410210542380809783935546875" lon="-1.50633537210524082183837890625">
        <ele>1226.199951171875</ele>
        <time>2022-08-24T08:10:53.000Z</time>
      </trkpt>
      <trkpt lat="40.413960032165050506591796875" lon="-1.5064789541065692901611328125">
        <ele>1224.199951171875</ele>
        <time>2022-08-24T08:10:55.000Z</time>
      </trkpt>
      <trkpt lat="40.41389021091163158416748046875" lon="-1.50654776953160762786865234375">
        <ele>1223</ele>
        <time>2022-08-24T08:10:56.000Z</time>
      </trkpt>
      <trkpt lat="40.41381879709661006927490234375" lon="-1.50661817751824855804443359375">
        <ele>1222.199951171875</ele>
        <time>2022-08-24T08:10:57.000Z</time>
      </trkpt>
      <trkpt lat="40.4137456230819225311279296875" lon="-1.50668556801974773406982421875">
        <ele>1221.4000244140625</ele>
        <time>2022-08-24T08:10:58.000Z</time>
      </trkpt>
      <trkpt lat="40.41360405273735523223876953125" lon="-1.50682336650788784027099609375">
        <ele>1219.5999755859375</ele>
        <time>2022-08-24T08:11:00.000Z</time>
      </trkpt>
      <trkpt lat="40.4135354049503803253173828125" lon="-1.50688421912491321563720703125">
        <ele>1218.5999755859375</ele>
        <time>2022-08-24T08:11:01.000Z</time>
      </trkpt>
      <trkpt lat="40.4134673438966274261474609375" lon="-1.50694054551422595977783203125">
        <ele>1217.5999755859375</ele>
        <time>2022-08-24T08:11:02.000Z</time>
      </trkpt>
      <trkpt lat="40.41339567862451076507568359375" lon="-1.506992764770984649658203125">
        <ele>1216</ele>
        <time>2022-08-24T08:11:03.000Z</time>
      </trkpt>
      <trkpt lat="40.4133191518485546112060546875" lon="-1.50703945197165012359619140625">
        <ele>1214.800048828125</ele>
        <time>2022-08-24T08:11:04.000Z</time>
      </trkpt>
      <trkpt lat="40.41323591955006122589111328125" lon="-1.5070844627916812896728515625">
        <ele>1213.5999755859375</ele>
        <time>2022-08-24T08:11:05.000Z</time>
      </trkpt>
      <trkpt lat="40.413150675594806671142578125" lon="-1.50712721049785614013671875">
        <ele>1212.199951171875</ele>
        <time>2022-08-24T08:11:06.000Z</time>
      </trkpt>
      <trkpt lat="40.4130725562572479248046875" lon="-1.5071667730808258056640625">
        <ele>1211</ele>
        <time>2022-08-24T08:11:07.000Z</time>
      </trkpt>
      <trkpt lat="40.41300751268863677978515625" lon="-1.5072008036077022552490234375">
        <ele>1209.5999755859375</ele>
        <time>2022-08-24T08:11:08.000Z</time>
      </trkpt>
      <trkpt lat="40.41291522793471813201904296875" lon="-1.50725486688315868377685546875">
        <ele>1208.199951171875</ele>
        <time>2022-08-24T08:11:10.000Z</time>
      </trkpt>
      <trkpt lat="40.412881113588809967041015625" lon="-1.5072767436504364013671875">
        <ele>1207.5999755859375</ele>
        <time>2022-08-24T08:11:11.000Z</time>
      </trkpt>
      <trkpt lat="40.41285152547061443328857421875" lon="-1.5072950161993503570556640625">
        <ele>1207</ele>
        <time>2022-08-24T08:11:12.000Z</time>
      </trkpt>
      <trkpt lat="40.4128041677176952362060546875" lon="-1.5073369257152080535888671875">
        <ele>1205</ele>
        <time>2022-08-24T08:11:14.000Z</time>
      </trkpt>
      <trkpt lat="40.4127890802919864654541015625" lon="-1.5073610655963420867919921875">
        <ele>1203.800048828125</ele>
        <time>2022-08-24T08:11:15.000Z</time>
      </trkpt>
      <trkpt lat="40.412776172161102294921875" lon="-1.50738294236361980438232421875">
        <ele>1201.5999755859375</ele>
        <time>2022-08-24T08:11:16.000Z</time>
      </trkpt>
      <trkpt lat="40.41276016272604465484619140625" lon="-1.50742216967046260833740234375">
        <ele>1200.199951171875</ele>
        <time>2022-08-24T08:11:18.000Z</time>
      </trkpt>
      <trkpt lat="40.41275597177445888519287109375" lon="-1.5074308030307292938232421875">
        <ele>1199.199951171875</ele>
        <time>2022-08-24T08:11:20.000Z</time>
      </trkpt>
      <trkpt lat="40.41275630705058574676513671875" lon="-1.5074328146874904632568359375">
        <ele>1198.800048828125</ele>
        <time>2022-08-24T08:11:21.000Z</time>
      </trkpt>
      <trkpt lat="40.41278212331235408782958984375" lon="-1.50747430510818958282470703125">
        <ele>1197.199951171875</ele>
        <time>2022-08-24T08:12:37.000Z</time>
      </trkpt>
      <trkpt lat="40.41280768811702728271484375" lon="-1.50749408639967441558837890625">
        <ele>1197.199951171875</ele>
        <time>2022-08-24T08:12:39.000Z</time>
      </trkpt>
      <trkpt lat="40.41286594234406948089599609375" lon="-1.50750749744474887847900390625">
        <ele>1197.4000244140625</ele>
        <time>2022-08-24T08:12:42.000Z</time>
      </trkpt>
      <trkpt lat="40.412963591516017913818359375" lon="-1.507543288171291351318359375">
        <ele>1197.4000244140625</ele>
        <time>2022-08-24T08:12:46.000Z</time>
      </trkpt>
      <trkpt lat="40.413223765790462493896484375" lon="-1.5076916478574275970458984375">
        <ele>1197.5999755859375</ele>
        <time>2022-08-24T08:12:56.000Z</time>
      </trkpt>
      <trkpt lat="40.4134592972695827484130859375" lon="-1.50791586376726627349853515625">
        <ele>1197.800048828125</ele>
        <time>2022-08-24T08:13:05.000Z</time>
      </trkpt>
      <trkpt lat="40.413618050515651702880859375" lon="-1.50818693451583385467529296875">
        <ele>1198</ele>
        <time>2022-08-24T08:13:13.000Z</time>
      </trkpt>
      <trkpt lat="40.41374587453901767730712890625" lon="-1.508472003042697906494140625">
        <ele>1198.199951171875</ele>
        <time>2022-08-24T08:13:20.000Z</time>
      </trkpt>
      <trkpt lat="40.413765572011470794677734375" lon="-1.5085164271295070648193359375">
        <ele>1198.199951171875</ele>
        <time>2022-08-24T08:13:21.000Z</time>
      </trkpt>
      <trkpt lat="40.41393329389393329620361328125" lon="-1.50879043154418468475341796875">
        <ele>1198.4000244140625</ele>
        <time>2022-08-24T08:13:28.000Z</time>
      </trkpt>
      <trkpt lat="40.41407846845686435699462890625" lon="-1.508970223367214202880859375">
        <ele>1198.5999755859375</ele>
        <time>2022-08-24T08:13:33.000Z</time>
      </trkpt>
      <trkpt lat="40.41415289975702762603759765625" lon="-1.50903484784066677093505859375">
        <ele>1198.5999755859375</ele>
        <time>2022-08-24T08:13:35.000Z</time>
      </trkpt>
      <trkpt lat="40.4144378006458282470703125" lon="-1.5091945230960845947265625">
        <ele>1199.199951171875</ele>
        <time>2022-08-24T08:13:42.000Z</time>
      </trkpt>
      <trkpt lat="40.41481398046016693115234375" lon="-1.50934212841093540191650390625">
        <ele>1199.199951171875</ele>
        <time>2022-08-24T08:13:50.000Z</time>
      </trkpt>
      <trkpt lat="40.4151879809796810150146484375" lon="-1.509505994617938995361328125">
        <ele>1199.199951171875</ele>
        <time>2022-08-24T08:13:58.000Z</time>
      </trkpt>
      <trkpt lat="40.415484197437763214111328125" lon="-1.50969349779188632965087890625">
        <ele>1199.5999755859375</ele>
        <time>2022-08-24T08:14:05.000Z</time>
      </trkpt>
      <trkpt lat="40.41552468203008174896240234375" lon="-1.50972635485231876373291015625">
        <ele>1199.5999755859375</ele>
        <time>2022-08-24T08:14:06.000Z</time>
      </trkpt>
      <trkpt lat="40.4158164560794830322265625" lon="-1.51004252023994922637939453125">
        <ele>1199.800048828125</ele>
        <time>2022-08-24T08:14:14.000Z</time>
      </trkpt>
      <trkpt lat="40.41606967337429523468017578125" lon="-1.5104311890900135040283203125">
        <ele>1200</ele>
        <time>2022-08-24T08:14:22.000Z</time>
      </trkpt>
      <trkpt lat="40.4164092242717742919921875" lon="-1.51103728450834751129150390625">
        <ele>1200.4000244140625</ele>
        <time>2022-08-24T08:14:34.000Z</time>
      </trkpt>
      <trkpt lat="40.41646630503237247467041015625" lon="-1.51114021427929401397705078125">
        <ele>1200.5999755859375</ele>
        <time>2022-08-24T08:14:36.000Z</time>
      </trkpt>
      <trkpt lat="40.4167332686483860015869140625" lon="-1.51164581067860126495361328125">
        <ele>1201</ele>
        <time>2022-08-24T08:14:46.000Z</time>
      </trkpt>
      <trkpt lat="40.416986234486103057861328125" lon="-1.51217387057840824127197265625">
        <ele>1201.199951171875</ele>
        <time>2022-08-24T08:14:56.000Z</time>
      </trkpt>
      <trkpt lat="40.4171862266957759857177734375" lon="-1.512536220252513885498046875">
        <ele>1201.4000244140625</ele>
        <time>2022-08-24T08:15:03.000Z</time>
      </trkpt>
      <trkpt lat="40.41725571267306804656982421875" lon="-1.51262716390192508697509765625">
        <ele>1201.5999755859375</ele>
        <time>2022-08-24T08:15:05.000Z</time>
      </trkpt>
      <trkpt lat="40.417554192245006561279296875" lon="-1.5129243023693561553955078125">
        <ele>1201.5999755859375</ele>
        <time>2022-08-24T08:15:13.000Z</time>
      </trkpt>
      <trkpt lat="40.41771076619625091552734375" lon="-1.5130488574504852294921875">
        <ele>1201.800048828125</ele>
        <time>2022-08-24T08:15:17.000Z</time>
      </trkpt>
      <trkpt lat="40.4179724492132663726806640625" lon="-1.51326620019972324371337890625">
        <ele>1202.4000244140625</ele>
        <time>2022-08-24T08:15:24.000Z</time>
      </trkpt>
      <trkpt lat="40.4181786440312862396240234375" lon="-1.51346770115196704864501953125">
        <ele>1203</ele>
        <time>2022-08-24T08:15:30.000Z</time>
      </trkpt>
      <trkpt lat="40.41827377863228321075439453125" lon="-1.513568200170993804931640625">
        <ele>1203.4000244140625</ele>
        <time>2022-08-24T08:15:33.000Z</time>
      </trkpt>
      <trkpt lat="40.4185789637267589569091796875" lon="-1.51388579048216342926025390625">
        <ele>1203.800048828125</ele>
        <time>2022-08-24T08:15:42.000Z</time>
      </trkpt>
      <trkpt lat="40.41864283382892608642578125" lon="-1.51396214962005615234375">
        <ele>1204</ele>
        <time>2022-08-24T08:15:44.000Z</time>
      </trkpt>
      <trkpt lat="40.41884525679051876068115234375" lon="-1.51417697779834270477294921875">
        <ele>1204.4000244140625</ele>
        <time>2022-08-24T08:15:50.000Z</time>
      </trkpt>
      <trkpt lat="40.4190805368125438690185546875" lon="-1.514433883130550384521484375">
        <ele>1205</ele>
        <time>2022-08-24T08:15:57.000Z</time>
      </trkpt>
      <trkpt lat="40.41914432309567928314208984375" lon="-1.51451158337295055389404296875">
        <ele>1205.199951171875</ele>
        <time>2022-08-24T08:15:59.000Z</time>
      </trkpt>
      <trkpt lat="40.4194483347237110137939453125" lon="-1.51483613066375255584716796875">
        <ele>1205.5999755859375</ele>
        <time>2022-08-24T08:16:08.000Z</time>
      </trkpt>
      <trkpt lat="40.4197551123797893524169921875" lon="-1.51517341844737529754638671875">
        <ele>1205.800048828125</ele>
        <time>2022-08-24T08:16:17.000Z</time>
      </trkpt>
      <trkpt lat="40.4198826849460601806640625" lon="-1.51533183641731739044189453125">
        <ele>1206</ele>
        <time>2022-08-24T08:16:21.000Z</time>
      </trkpt>
      <trkpt lat="40.420047976076602935791015625" lon="-1.51552847586572170257568359375">
        <ele>1206.199951171875</ele>
        <time>2022-08-24T08:16:26.000Z</time>
      </trkpt>
      <trkpt lat="40.42037579230964183807373046875" lon="-1.51592711918056011199951171875">
        <ele>1206.4000244140625</ele>
        <time>2022-08-24T08:16:36.000Z</time>
      </trkpt>
      <trkpt lat="40.42076940648257732391357421875" lon="-1.51626306585967540740966796875">
        <ele>1206.800048828125</ele>
        <time>2022-08-24T08:16:46.000Z</time>
      </trkpt>
      <trkpt lat="40.42089781723916530609130859375" lon="-1.51634856127202510833740234375">
        <ele>1206.800048828125</ele>
        <time>2022-08-24T08:16:49.000Z</time>
      </trkpt>
      <trkpt lat="40.42112966068089008331298828125" lon="-1.51645333506166934967041015625">
        <ele>1207</ele>
        <time>2022-08-24T08:16:54.000Z</time>
      </trkpt>
      <trkpt lat="40.42117844335734844207763671875" lon="-1.51647043414413928985595703125">
        <ele>1207</ele>
        <time>2022-08-24T08:16:55.000Z</time>
      </trkpt>
      <trkpt lat="40.4214759171009063720703125" lon="-1.51660772971808910369873046875">
        <ele>1207.199951171875</ele>
        <time>2022-08-24T08:17:02.000Z</time>
      </trkpt>
      <trkpt lat="40.42175193317234516143798828125" lon="-1.516782827675342559814453125">
        <ele>1207.4000244140625</ele>
        <time>2022-08-24T08:17:09.000Z</time>
      </trkpt>
      <trkpt lat="40.42205066420137882232666015625" lon="-1.51706638745963573455810546875">
        <ele>1207.5999755859375</ele>
        <time>2022-08-24T08:17:17.000Z</time>
      </trkpt>
      <trkpt lat="40.422197766602039337158203125" lon="-1.51729521341621875762939453125">
        <ele>1208</ele>
        <time>2022-08-24T08:17:22.000Z</time>
      </trkpt>
      <trkpt lat="40.422223918139934539794921875" lon="-1.517346762120723724365234375">
        <ele>1208.199951171875</ele>
        <time>2022-08-24T08:17:23.000Z</time>
      </trkpt>
      <trkpt lat="40.422250069677829742431640625" lon="-1.5173988975584506988525390625">
        <ele>1208.199951171875</ele>
        <time>2022-08-24T08:17:24.000Z</time>
      </trkpt>
      <trkpt lat="40.42243975214660167694091796875" lon="-1.51789502240717411041259765625">
        <ele>1208.5999755859375</ele>
        <time>2022-08-24T08:17:33.000Z</time>
      </trkpt>
      <trkpt lat="40.42262314818799495697021484375" lon="-1.51844881474971771240234375">
        <ele>1209.199951171875</ele>
        <time>2022-08-24T08:17:43.000Z</time>
      </trkpt>
      <trkpt lat="40.42266505770385265350341796875" lon="-1.51855451054871082305908203125">
        <ele>1209.199951171875</ele>
        <time>2022-08-24T08:17:45.000Z</time>
      </trkpt>
      <trkpt lat="40.4228202067315578460693359375" lon="-1.5188529901206493377685546875">
        <ele>1209.4000244140625</ele>
        <time>2022-08-24T08:17:51.000Z</time>
      </trkpt>
      <trkpt lat="40.42306453920900821685791015625" lon="-1.519224643707275390625">
        <ele>1209.5999755859375</ele>
        <time>2022-08-24T08:17:59.000Z</time>
      </trkpt>
      <trkpt lat="40.4233160801231861114501953125" lon="-1.51957559399306774139404296875">
        <ele>1209.800048828125</ele>
        <time>2022-08-24T08:18:07.000Z</time>
      </trkpt>
      <trkpt lat="40.423499308526515960693359375" lon="-1.51982839219272136688232421875">
        <ele>1210.199951171875</ele>
        <time>2022-08-24T08:18:13.000Z</time>
      </trkpt>
      <trkpt lat="40.42353526689112186431884765625" lon="-1.519855968654155731201171875">
        <ele>1210.199951171875</ele>
        <time>2022-08-24T08:18:14.000Z</time>
      </trkpt>
      <trkpt lat="40.4235752485692501068115234375" lon="-1.51987574994564056396484375">
        <ele>1210.4000244140625</ele>
        <time>2022-08-24T08:18:15.000Z</time>
      </trkpt>
      <trkpt lat="40.42365043424069881439208984375" lon="-1.51990248821675777435302734375">
        <ele>1210.4000244140625</ele>
        <time>2022-08-24T08:18:17.000Z</time>
      </trkpt>
      <trkpt lat="40.4237814433872699737548828125" lon="-1.519980691373348236083984375">
        <ele>1210.5999755859375</ele>
        <time>2022-08-24T08:18:21.000Z</time>
      </trkpt>
      <trkpt lat="40.4240615665912628173828125" lon="-1.52015268802642822265625">
        <ele>1211.199951171875</ele>
        <time>2022-08-24T08:18:30.000Z</time>
      </trkpt>
      <trkpt lat="40.42424236424267292022705078125" lon="-1.52025662362575531005859375">
        <ele>1211.5999755859375</ele>
        <time>2022-08-24T08:18:37.000Z</time>
      </trkpt>
      <trkpt lat="40.424387119710445404052734375" lon="-1.52030129916965961456298828125">
        <ele>1212.199951171875</ele>
        <time>2022-08-24T08:18:43.000Z</time>
      </trkpt>
      <trkpt lat="40.42440648190677165985107421875" lon="-1.52030247263610363006591796875">
        <ele>1212.4000244140625</ele>
        <time>2022-08-24T08:18:44.000Z</time>
      </trkpt>
      <trkpt lat="40.4245626367628574371337890625" lon="-1.520332396030426025390625">
        <ele>1213.4000244140625</ele>
        <time>2022-08-24T08:18:52.000Z</time>
      </trkpt>
      <trkpt lat="40.42461535893380641937255859375" lon="-1.52034656144678592681884765625">
        <ele>1213.5999755859375</ele>
        <time>2022-08-24T08:18:54.000Z</time>
      </trkpt>
      <trkpt lat="40.4247294366359710693359375" lon="-1.5204006247222423553466796875">
        <ele>1214.5999755859375</ele>
        <time>2022-08-24T08:18:59.000Z</time>
      </trkpt>
      <trkpt lat="40.4247520677745342254638671875" lon="-1.52041194029152393341064453125">
        <ele>1214.800048828125</ele>
        <time>2022-08-24T08:19:00.000Z</time>
      </trkpt>
      <trkpt lat="40.4249153472483158111572265625" lon="-1.5204928256571292877197265625">
        <ele>1215.4000244140625</ele>
        <time>2022-08-24T08:19:07.000Z</time>
      </trkpt>
      <trkpt lat="40.42498080991208553314208984375" lon="-1.52054118923842906951904296875">
        <ele>1215.5999755859375</ele>
        <time>2022-08-24T08:19:10.000Z</time>
      </trkpt>
      <trkpt lat="40.4251446761190891265869140625" lon="-1.52063355781137943267822265625">
        <ele>1216.199951171875</ele>
        <time>2022-08-24T08:19:15.000Z</time>
      </trkpt>
      <trkpt lat="40.42526797391474246978759765625" lon="-1.520703546702861785888671875">
        <ele>1216.5999755859375</ele>
        <time>2022-08-24T08:19:20.000Z</time>
      </trkpt>
      <trkpt lat="40.42530435137450695037841796875" lon="-1.52074436657130718231201171875">
        <ele>1217</ele>
        <time>2022-08-24T08:19:22.000Z</time>
      </trkpt>
      <trkpt lat="40.42542974464595317840576171875" lon="-1.52085148729383945465087890625">
        <ele>1217.5999755859375</ele>
        <time>2022-08-24T08:19:28.000Z</time>
      </trkpt>
      <trkpt lat="40.42543695308268070220947265625" lon="-1.52086816728115081787109375">
        <ele>1217.5999755859375</ele>
        <time>2022-08-24T08:19:29.000Z</time>
      </trkpt>
      <trkpt lat="40.42561531998217105865478515625" lon="-1.5209545008838176727294921875">
        <ele>1218.5999755859375</ele>
        <time>2022-08-24T08:19:37.000Z</time>
      </trkpt>
      <trkpt lat="40.425637699663639068603515625" lon="-1.520964391529560089111328125">
        <ele>1218.800048828125</ele>
        <time>2022-08-24T08:19:38.000Z</time>
      </trkpt>
      <trkpt lat="40.42582469992339611053466796875" lon="-1.52106841094791889190673828125">
        <ele>1219.5999755859375</ele>
        <time>2022-08-24T08:19:46.000Z</time>
      </trkpt>
      <trkpt lat="40.42584900744259357452392578125" lon="-1.521085761487483978271484375">
        <ele>1219.800048828125</ele>
        <time>2022-08-24T08:19:47.000Z</time>
      </trkpt>
      <trkpt lat="40.42600641958415508270263671875" lon="-1.52119539678096771240234375">
        <ele>1220.4000244140625</ele>
        <time>2022-08-24T08:19:54.000Z</time>
      </trkpt>
      <trkpt lat="40.42606106959283351898193359375" lon="-1.521232612431049346923828125">
        <ele>1220.800048828125</ele>
        <time>2022-08-24T08:19:57.000Z</time>
      </trkpt>
      <trkpt lat="40.42615813203155994415283203125" lon="-1.5212743543088436126708984375">
        <ele>1221.4000244140625</ele>
        <time>2022-08-24T08:20:02.000Z</time>
      </trkpt>
      <trkpt lat="40.42619593441486358642578125" lon="-1.52127997018396854400634765625">
        <ele>1221.800048828125</ele>
        <time>2022-08-24T08:20:04.000Z</time>
      </trkpt>
      <trkpt lat="40.42627883143723011016845703125" lon="-1.521290950477123260498046875">
        <ele>1222.5999755859375</ele>
        <time>2022-08-24T08:20:08.000Z</time>
      </trkpt>
      <trkpt lat="40.42633381672203540802001953125" lon="-1.521307043731212615966796875">
        <ele>1223</ele>
        <time>2022-08-24T08:20:11.000Z</time>
      </trkpt>
      <trkpt lat="40.42642685584723949432373046875" lon="-1.5213236398994922637939453125">
        <ele>1223.800048828125</ele>
        <time>2022-08-24T08:20:16.000Z</time>
      </trkpt>
      <trkpt lat="40.4264629818499088287353515625" lon="-1.5213276632130146026611328125">
        <ele>1224</ele>
        <time>2022-08-24T08:20:18.000Z</time>
      </trkpt>
      <trkpt lat="40.42655342258512973785400390625" lon="-1.5213155932724475860595703125">
        <ele>1224.800048828125</ele>
        <time>2022-08-24T08:20:24.000Z</time>
      </trkpt>
      <trkpt lat="40.42658410035073757171630859375" lon="-1.52130494825541973114013671875">
        <ele>1225</ele>
        <time>2022-08-24T08:20:26.000Z</time>
      </trkpt>
      <trkpt lat="40.4266738705337047576904296875" lon="-1.5212525613605976104736328125">
        <ele>1226</ele>
        <time>2022-08-24T08:20:32.000Z</time>
      </trkpt>
      <trkpt lat="40.42669842950999736785888671875" lon="-1.52123428881168365478515625">
        <ele>1226</ele>
        <time>2022-08-24T08:20:34.000Z</time>
      </trkpt>
      <trkpt lat="40.42676799930632114410400390625" lon="-1.52122012339532375335693359375">
        <ele>1226.5999755859375</ele>
        <time>2022-08-24T08:20:39.000Z</time>
      </trkpt>
      <trkpt lat="40.4268081486225128173828125" lon="-1.52118877507746219635009765625">
        <ele>1227</ele>
        <time>2022-08-24T08:20:43.000Z</time>
      </trkpt>
      <trkpt lat="40.426836311817169189453125" lon="-1.5211571753025054931640625">
        <ele>1227.5999755859375</ele>
        <time>2022-08-24T08:20:47.000Z</time>
      </trkpt>
      <trkpt lat="40.42686757631599903106689453125" lon="-1.521103866398334503173828125">
        <ele>1228.199951171875</ele>
        <time>2022-08-24T08:20:52.000Z</time>
      </trkpt>
      <trkpt lat="40.4268740303814411163330078125" lon="-1.52108970098197460174560546875">
        <ele>1228.5999755859375</ele>
        <time>2022-08-24T08:20:54.000Z</time>
      </trkpt>
      <trkpt lat="40.4268810711801052093505859375" lon="-1.52103890664875507354736328125">
        <ele>1229.4000244140625</ele>
        <time>2022-08-24T08:20:59.000Z</time>
      </trkpt>
      <trkpt lat="40.42694485746324062347412109375" lon="-1.52096866630017757415771484375">
        <ele>1229.800048828125</ele>
        <time>2022-08-24T08:21:02.000Z</time>
      </trkpt>
      <trkpt lat="40.42695407755672931671142578125" lon="-1.52093195356428623199462890625">
        <ele>1230.4000244140625</ele>
        <time>2022-08-24T08:21:05.000Z</time>
      </trkpt>
      <trkpt lat="40.4269474558532238006591796875" lon="-1.520894654095172882080078125">
        <ele>1231.4000244140625</ele>
        <time>2022-08-24T08:21:10.000Z</time>
      </trkpt>
      <trkpt lat="40.42695776559412479400634765625" lon="-1.52081158943474292755126953125">
        <ele>1232.5999755859375</ele>
        <time>2022-08-24T08:21:17.000Z</time>
      </trkpt>
      <trkpt lat="40.42696581222116947174072265625" lon="-1.5207923948764801025390625">
        <ele>1232.800048828125</ele>
        <time>2022-08-24T08:21:18.000Z</time>
      </trkpt>
      <trkpt lat="40.426982156932353973388671875" lon="-1.520700864493846893310546875">
        <ele>1233.5999755859375</ele>
        <time>2022-08-24T08:21:23.000Z</time>
      </trkpt>
      <trkpt lat="40.4269903711974620819091796875" lon="-1.520651914179325103759765625">
        <ele>1234.199951171875</ele>
        <time>2022-08-24T08:21:26.000Z</time>
      </trkpt>
      <trkpt lat="40.42698928155004978179931640625" lon="-1.52063908986747264862060546875">
        <ele>1234.4000244140625</ele>
        <time>2022-08-24T08:21:27.000Z</time>
      </trkpt>
      <trkpt lat="40.4269913770258426666259765625" lon="-1.5206111781299114227294921875">
        <ele>1234.800048828125</ele>
        <time>2022-08-24T08:21:29.000Z</time>
      </trkpt>
      <trkpt lat="40.42699112556874752044677734375" lon="-1.5205965936183929443359375">
        <ele>1235</ele>
        <time>2022-08-24T08:21:30.000Z</time>
      </trkpt>
      <trkpt lat="40.42698324657976627349853515625" lon="-1.52052710764110088348388671875">
        <ele>1236</ele>
        <time>2022-08-24T08:21:35.000Z</time>
      </trkpt>
      <trkpt lat="40.42697888799011707305908203125" lon="-1.52042484842240810394287109375">
        <ele>1237</ele>
        <time>2022-08-24T08:21:41.000Z</time>
      </trkpt>
      <trkpt lat="40.42698307894170284271240234375" lon="-1.5204066596925258636474609375">
        <ele>1237.199951171875</ele>
        <time>2022-08-24T08:21:42.000Z</time>
      </trkpt>
      <trkpt lat="40.4269977472722530364990234375" lon="-1.5203315578401088714599609375">
        <ele>1238.199951171875</ele>
        <time>2022-08-24T08:21:46.000Z</time>
      </trkpt>
      <trkpt lat="40.42704879306256771087646484375" lon="-1.52022150345146656036376953125">
        <ele>1239.199951171875</ele>
        <time>2022-08-24T08:21:51.000Z</time>
      </trkpt>
      <trkpt lat="40.4270798899233341217041015625" lon="-1.5201927535235881805419921875">
        <ele>1239.199951171875</ele>
        <time>2022-08-24T08:21:52.000Z</time>
      </trkpt>
      <trkpt lat="40.42716664262115955352783203125" lon="-1.52008202858269214630126953125">
        <ele>1240</ele>
        <time>2022-08-24T08:21:57.000Z</time>
      </trkpt>
      <trkpt lat="40.4271824844181537628173828125" lon="-1.520041711628437042236328125">
        <ele>1240.4000244140625</ele>
        <time>2022-08-24T08:21:59.000Z</time>
      </trkpt>
      <trkpt lat="40.427240990102291107177734375" lon="-1.51988983154296875">
        <ele>1241.5999755859375</ele>
        <time>2022-08-24T08:22:07.000Z</time>
      </trkpt>
      <trkpt lat="40.42725113220512866973876953125" lon="-1.51980198919773101806640625">
        <ele>1242.5999755859375</ele>
        <time>2022-08-24T08:22:13.000Z</time>
      </trkpt>
      <trkpt lat="40.42724224738776683807373046875" lon="-1.51977240107953548431396484375">
        <ele>1243</ele>
        <time>2022-08-24T08:22:15.000Z</time>
      </trkpt>
      <trkpt lat="40.4272438399493694305419921875" lon="-1.5197133086621761322021484375">
        <ele>1243.800048828125</ele>
        <time>2022-08-24T08:22:19.000Z</time>
      </trkpt>
      <trkpt lat="40.42724610306322574615478515625" lon="-1.51965916156768798828125">
        <ele>1244.4000244140625</ele>
        <time>2022-08-24T08:22:23.000Z</time>
      </trkpt>
      <trkpt lat="40.42723101563751697540283203125" lon="-1.51961959898471832275390625">
        <ele>1245</ele>
        <time>2022-08-24T08:22:26.000Z</time>
      </trkpt>
      <trkpt lat="40.42723218910396099090576171875" lon="-1.51955765672028064727783203125">
        <ele>1245.800048828125</ele>
        <time>2022-08-24T08:22:30.000Z</time>
      </trkpt>
      <trkpt lat="40.42723118327558040618896484375" lon="-1.51954005472362041473388671875">
        <ele>1246</ele>
        <time>2022-08-24T08:22:31.000Z</time>
      </trkpt>
      <trkpt lat="40.42722447775304317474365234375" lon="-1.519477106630802154541015625">
        <ele>1247</ele>
        <time>2022-08-24T08:22:35.000Z</time>
      </trkpt>
      <trkpt lat="40.427225567400455474853515625" lon="-1.5194259770214557647705078125">
        <ele>1247.5999755859375</ele>
        <time>2022-08-24T08:22:38.000Z</time>
      </trkpt>
      <trkpt lat="40.427217520773410797119140625" lon="-1.51937861926853656768798828125">
        <ele>1248.199951171875</ele>
        <time>2022-08-24T08:22:41.000Z</time>
      </trkpt>
      <trkpt lat="40.4271979071199893951416015625" lon="-1.519292704761028289794921875">
        <ele>1249.199951171875</ele>
        <time>2022-08-24T08:22:47.000Z</time>
      </trkpt>
      <trkpt lat="40.42719329707324504852294921875" lon="-1.51927703060209751129150390625">
        <ele>1249.199951171875</ele>
        <time>2022-08-24T08:22:48.000Z</time>
      </trkpt>
      <trkpt lat="40.42716261930763721466064453125" lon="-1.51917996816337108612060546875">
        <ele>1250.4000244140625</ele>
        <time>2022-08-24T08:22:54.000Z</time>
      </trkpt>
      <trkpt lat="40.42714535258710384368896484375" lon="-1.5191523917019367218017578125">
        <ele>1250.800048828125</ele>
        <time>2022-08-24T08:22:56.000Z</time>
      </trkpt>
      <trkpt lat="40.4271221347153186798095703125" lon="-1.519115678966045379638671875">
        <ele>1251.199951171875</ele>
        <time>2022-08-24T08:22:59.000Z</time>
      </trkpt>
      <trkpt lat="40.427103526890277862548828125" lon="-1.519050300121307373046875">
        <ele>1252.199951171875</ele>
        <time>2022-08-24T08:23:03.000Z</time>
      </trkpt>
      <trkpt lat="40.42709874920547008514404296875" lon="-1.519035883247852325439453125">
        <ele>1252.800048828125</ele>
        <time>2022-08-24T08:23:04.000Z</time>
      </trkpt>
      <trkpt lat="40.42708240449428558349609375" lon="-1.51895734481513500213623046875">
        <ele>1254</ele>
        <time>2022-08-24T08:23:09.000Z</time>
      </trkpt>
      <trkpt lat="40.42707377113401889801025390625" lon="-1.518925912678241729736328125">
        <ele>1254.199951171875</ele>
        <time>2022-08-24T08:23:11.000Z</time>
      </trkpt>
      <trkpt lat="40.427055917680263519287109375" lon="-1.51879406534135341644287109375">
        <ele>1255</ele>
        <time>2022-08-24T08:23:18.000Z</time>
      </trkpt>
      <trkpt lat="40.42705583386123180389404296875" lon="-1.5187728591263294219970703125">
        <ele>1255.199951171875</ele>
        <time>2022-08-24T08:23:19.000Z</time>
      </trkpt>
      <trkpt lat="40.427059940993785858154296875" lon="-1.51855417527258396148681640625">
        <ele>1256</ele>
        <time>2022-08-24T08:23:27.000Z</time>
      </trkpt>
      <trkpt lat="40.427080728113651275634765625" lon="-1.5183430351316928863525390625">
        <ele>1256.4000244140625</ele>
        <time>2022-08-24T08:23:34.000Z</time>
      </trkpt>
      <trkpt lat="40.42715406976640224456787109375" lon="-1.51815067045390605926513671875">
        <ele>1256.4000244140625</ele>
        <time>2022-08-24T08:23:40.000Z</time>
      </trkpt>
      <trkpt lat="40.427244342863559722900390625" lon="-1.51792922057211399078369140625">
        <ele>1256.4000244140625</ele>
        <time>2022-08-24T08:23:47.000Z</time>
      </trkpt>
      <trkpt lat="40.427286922931671142578125" lon="-1.51767910458147525787353515625">
        <ele>1256.5999755859375</ele>
        <time>2022-08-24T08:23:54.000Z</time>
      </trkpt>
      <trkpt lat="40.42731952853500843048095703125" lon="-1.5174082852900028228759765625">
        <ele>1256.800048828125</ele>
        <time>2022-08-24T08:24:01.000Z</time>
      </trkpt>
      <trkpt lat="40.4273499548435211181640625" lon="-1.5172104723751544952392578125">
        <ele>1256.800048828125</ele>
        <time>2022-08-24T08:24:07.000Z</time>
      </trkpt>
      <trkpt lat="40.42736814357340335845947265625" lon="-1.51708063669502735137939453125">
        <ele>1257.199951171875</ele>
        <time>2022-08-24T08:24:11.000Z</time>
      </trkpt>
      <trkpt lat="40.4273893497884273529052734375" lon="-1.51694275438785552978515625">
        <ele>1257.4000244140625</ele>
        <time>2022-08-24T08:24:15.000Z</time>
      </trkpt>
      <trkpt lat="40.4273648746311664581298828125" lon="-1.51674686931073665618896484375">
        <ele>1257.800048828125</ele>
        <time>2022-08-24T08:24:22.000Z</time>
      </trkpt>
      <trkpt lat="40.4273353703320026397705078125" lon="-1.5166421793401241302490234375">
        <ele>1258.199951171875</ele>
        <time>2022-08-24T08:24:27.000Z</time>
      </trkpt>
      <trkpt lat="40.4273165948688983917236328125" lon="-1.516578979790210723876953125">
        <ele>1258.800048828125</ele>
        <time>2022-08-24T08:24:30.000Z</time>
      </trkpt>
      <trkpt lat="40.42730771005153656005859375" lon="-1.51653639972209930419921875">
        <ele>1259.199951171875</ele>
        <time>2022-08-24T08:24:32.000Z</time>
      </trkpt>
      <trkpt lat="40.4272709973156452178955078125" lon="-1.51641259901225566864013671875">
        <ele>1260.4000244140625</ele>
        <time>2022-08-24T08:24:38.000Z</time>
      </trkpt>
      <trkpt lat="40.4272683151066303253173828125" lon="-1.5163910575211048126220703125">
        <ele>1260.5999755859375</ele>
        <time>2022-08-24T08:24:39.000Z</time>
      </trkpt>
      <trkpt lat="40.42724811471998691558837890625" lon="-1.51620506308972835540771484375">
        <ele>1261.4000244140625</ele>
        <time>2022-08-24T08:24:47.000Z</time>
      </trkpt>
      <trkpt lat="40.4272471927106380462646484375" lon="-1.5161816775798797607421875">
        <ele>1261.5999755859375</ele>
        <time>2022-08-24T08:24:48.000Z</time>
      </trkpt>
      <trkpt lat="40.42724241502583026885986328125" lon="-1.51603289879858493804931640625">
        <ele>1262.4000244140625</ele>
        <time>2022-08-24T08:24:54.000Z</time>
      </trkpt>
      <trkpt lat="40.42724191211163997650146484375" lon="-1.5159582160413265228271484375">
        <ele>1263</ele>
        <time>2022-08-24T08:24:57.000Z</time>
      </trkpt>
      <trkpt lat="40.42725079692900180816650390625" lon="-1.51580675505101680755615234375">
        <ele>1263.5999755859375</ele>
        <time>2022-08-24T08:25:03.000Z</time>
      </trkpt>
      <trkpt lat="40.4272468574345111846923828125" lon="-1.51572796516120433807373046875">
        <ele>1263.800048828125</ele>
        <time>2022-08-24T08:25:06.000Z</time>
      </trkpt>
      <trkpt lat="40.4272495396435260772705078125" lon="-1.5156001411378383636474609375">
        <ele>1264.4000244140625</ele>
        <time>2022-08-24T08:25:11.000Z</time>
      </trkpt>
      <trkpt lat="40.42725406587123870849609375" lon="-1.5155231952667236328125">
        <ele>1264.5999755859375</ele>
        <time>2022-08-24T08:25:14.000Z</time>
      </trkpt>
      <trkpt lat="40.4272736795246601104736328125" lon="-1.5152685530483722686767578125">
        <ele>1265.4000244140625</ele>
        <time>2022-08-24T08:25:24.000Z</time>
      </trkpt>
      <trkpt lat="40.42727007530629634857177734375" lon="-1.51522002182900905609130859375">
        <ele>1265.800048828125</ele>
        <time>2022-08-24T08:25:26.000Z</time>
      </trkpt>
      <trkpt lat="40.42727175168693065643310546875" lon="-1.515034697949886322021484375">
        <ele>1266.800048828125</ele>
        <time>2022-08-24T08:25:34.000Z</time>
      </trkpt>
      <trkpt lat="40.42728030122816562652587890625" lon="-1.5148504637181758880615234375">
        <ele>1267.800048828125</ele>
        <time>2022-08-24T08:25:42.000Z</time>
      </trkpt>
      <trkpt lat="40.42728365398943424224853515625" lon="-1.51480142958462238311767578125">
        <ele>1268.199951171875</ele>
        <time>2022-08-24T08:25:44.000Z</time>
      </trkpt>
      <trkpt lat="40.42729555629193782806396484375" lon="-1.51468022726476192474365234375">
        <ele>1268.800048828125</ele>
        <time>2022-08-24T08:25:49.000Z</time>
      </trkpt>
      <trkpt lat="40.42729170061647891998291015625" lon="-1.51457729749381542205810546875">
        <ele>1269.199951171875</ele>
        <time>2022-08-24T08:25:53.000Z</time>
      </trkpt>
      <trkpt lat="40.42729153297841548919677734375" lon="-1.51444922201335430145263671875">
        <ele>1270</ele>
        <time>2022-08-24T08:25:58.000Z</time>
      </trkpt>
      <trkpt lat="40.4272937960922718048095703125" lon="-1.51430069468915462493896484375">
        <ele>1270.5999755859375</ele>
        <time>2022-08-24T08:26:04.000Z</time>
      </trkpt>
      <trkpt lat="40.42729295790195465087890625" lon="-1.5142117626965045928955078125">
        <ele>1271</ele>
        <time>2022-08-24T08:26:08.000Z</time>
      </trkpt>
      <trkpt lat="40.42727929539978504180908203125" lon="-1.5141095034778118133544921875">
        <ele>1271.800048828125</ele>
        <time>2022-08-24T08:26:13.000Z</time>
      </trkpt>
      <trkpt lat="40.4272709973156452178955078125" lon="-1.5140702761709690093994140625">
        <ele>1272</ele>
        <time>2022-08-24T08:26:15.000Z</time>
      </trkpt>
      <trkpt lat="40.42723705060780048370361328125" lon="-1.5139420330524444580078125">
        <ele>1273.199951171875</ele>
        <time>2022-08-24T08:26:22.000Z</time>
      </trkpt>
      <trkpt lat="40.427227914333343505859375" lon="-1.51390607468783855438232421875">
        <ele>1273.5999755859375</ele>
        <time>2022-08-24T08:26:24.000Z</time>
      </trkpt>
      <trkpt lat="40.4272066242992877960205078125" lon="-1.51383549906313419342041015625">
        <ele>1274.199951171875</ele>
        <time>2022-08-24T08:26:28.000Z</time>
      </trkpt>
      <trkpt lat="40.42718575336039066314697265625" lon="-1.51374648325145244598388671875">
        <ele>1275.199951171875</ele>
        <time>2022-08-24T08:26:33.000Z</time>
      </trkpt>
      <trkpt lat="40.427182652056217193603515625" lon="-1.5137293003499507904052734375">
        <ele>1275.199951171875</ele>
        <time>2022-08-24T08:26:34.000Z</time>
      </trkpt>
      <trkpt lat="40.42716966010630130767822265625" lon="-1.51362243108451366424560546875">
        <ele>1276.4000244140625</ele>
        <time>2022-08-24T08:26:40.000Z</time>
      </trkpt>
      <trkpt lat="40.42716597206890583038330078125" lon="-1.51355772279202938079833984375">
        <ele>1277</ele>
        <time>2022-08-24T08:26:43.000Z</time>
      </trkpt>
      <trkpt lat="40.4271647147834300994873046875" lon="-1.51351623237133026123046875">
        <ele>1277.4000244140625</ele>
        <time>2022-08-24T08:26:45.000Z</time>
      </trkpt>
      <trkpt lat="40.4271600209176540374755859375" lon="-1.51343584991991519927978515625">
        <ele>1278.5999755859375</ele>
        <time>2022-08-24T08:26:49.000Z</time>
      </trkpt>
      <trkpt lat="40.4271523095667362213134765625" lon="-1.51334297843277454376220703125">
        <ele>1279.800048828125</ele>
        <time>2022-08-24T08:26:54.000Z</time>
      </trkpt>
      <trkpt lat="40.42715004645287990570068359375" lon="-1.5132240392267704010009765625">
        <ele>1281</ele>
        <time>2022-08-24T08:27:00.000Z</time>
      </trkpt>
      <trkpt lat="40.42715423740446567535400390625" lon="-1.513147093355655670166015625">
        <ele>1282</ele>
        <time>2022-08-24T08:27:04.000Z</time>
      </trkpt>
      <trkpt lat="40.42715323157608509063720703125" lon="-1.5131281502544879913330078125">
        <ele>1282.199951171875</ele>
        <time>2022-08-24T08:27:05.000Z</time>
      </trkpt>
      <trkpt lat="40.42716530151665210723876953125" lon="-1.5130332671105861663818359375">
        <ele>1283.4000244140625</ele>
        <time>2022-08-24T08:27:10.000Z</time>
      </trkpt>
      <trkpt lat="40.4271724261343479156494140625" lon="-1.51299345307052135467529296875">
        <ele>1283.800048828125</ele>
        <time>2022-08-24T08:27:12.000Z</time>
      </trkpt>
      <trkpt lat="40.42718432843685150146484375" lon="-1.51293595321476459503173828125">
        <ele>1284.199951171875</ele>
        <time>2022-08-24T08:27:15.000Z</time>
      </trkpt>
      <trkpt lat="40.4271851666271686553955078125" lon="-1.51291499845683574676513671875">
        <ele>1284.5999755859375</ele>
        <time>2022-08-24T08:27:16.000Z</time>
      </trkpt>
      <trkpt lat="40.42718240059912204742431640625" lon="-1.5127811394631862640380859375">
        <ele>1285.5999755859375</ele>
        <time>2022-08-24T08:27:22.000Z</time>
      </trkpt>
      <trkpt lat="40.42717653326690196990966796875" lon="-1.51275708340108394622802734375">
        <ele>1285.800048828125</ele>
        <time>2022-08-24T08:27:23.000Z</time>
      </trkpt>
      <trkpt lat="40.42714853771030902862548828125" lon="-1.51254787109792232513427734375">
        <ele>1286.5999755859375</ele>
        <time>2022-08-24T08:27:32.000Z</time>
      </trkpt>
      <trkpt lat="40.4271942190825939178466796875" lon="-1.51232742704451084136962890625">
        <ele>1287.5999755859375</ele>
        <time>2022-08-24T08:27:41.000Z</time>
      </trkpt>
      <trkpt lat="40.42720419354736804962158203125" lon="-1.51230479590594768524169921875">
        <ele>1287.5999755859375</ele>
        <time>2022-08-24T08:27:42.000Z</time>
      </trkpt>
      <trkpt lat="40.42726420797407627105712890625" lon="-1.51210748590528964996337890625">
        <ele>1288.5999755859375</ele>
        <time>2022-08-24T08:27:50.000Z</time>
      </trkpt>
      <trkpt lat="40.427271835505962371826171875" lon="-1.51208125054836273193359375">
        <ele>1288.800048828125</ele>
        <time>2022-08-24T08:27:51.000Z</time>
      </trkpt>
      <trkpt lat="40.42737451381981372833251953125" lon="-1.51191956363618373870849609375">
        <ele>1289.199951171875</ele>
        <time>2022-08-24T08:27:57.000Z</time>
      </trkpt>
      <trkpt lat="40.42753745801746845245361328125" lon="-1.511743627488613128662109375">
        <ele>1289.199951171875</ele>
        <time>2022-08-24T08:28:01.000Z</time>
      </trkpt>
      <trkpt lat="40.4276823811233043670654296875" lon="-1.51165083982050418853759765625">
        <ele>1289.199951171875</ele>
        <time>2022-08-24T08:28:04.000Z</time>
      </trkpt>
      <trkpt lat="40.4277755878865718841552734375" lon="-1.5116210840642452239990234375">
        <ele>1288.800048828125</ele>
        <time>2022-08-24T08:28:06.000Z</time>
      </trkpt>
      <trkpt lat="40.4279495961964130401611328125" lon="-1.51157163083553314208984375">
        <ele>1288.199951171875</ele>
        <time>2022-08-24T08:28:11.000Z</time>
      </trkpt>
      <trkpt lat="40.42822041548788547515869140625" lon="-1.51147046126425266265869140625">
        <ele>1288</ele>
        <time>2022-08-24T08:28:20.000Z</time>
      </trkpt>
      <trkpt lat="40.42842124588787555694580078125" lon="-1.51143274269998073577880859375">
        <ele>1288.5999755859375</ele>
        <time>2022-08-24T08:28:29.000Z</time>
      </trkpt>
      <trkpt lat="40.4285745508968830108642578125" lon="-1.511406339704990386962890625">
        <ele>1289.800048828125</ele>
        <time>2022-08-24T08:28:37.000Z</time>
      </trkpt>
      <trkpt lat="40.42859374545514583587646484375" lon="-1.5114021487534046173095703125">
        <ele>1289.800048828125</ele>
        <time>2022-08-24T08:28:38.000Z</time>
      </trkpt>
      <trkpt lat="40.42870673350989818572998046875" lon="-1.51138144545257091522216796875">
        <ele>1291</ele>
        <time>2022-08-24T08:28:44.000Z</time>
      </trkpt>
      <trkpt lat="40.4287941567599773406982421875" lon="-1.51135579682886600494384765625">
        <ele>1291.4000244140625</ele>
        <time>2022-08-24T08:28:48.000Z</time>
      </trkpt>
      <trkpt lat="40.4289158619940280914306640625" lon="-1.51132143102586269378662109375">
        <ele>1292</ele>
        <time>2022-08-24T08:28:55.000Z</time>
      </trkpt>
      <trkpt lat="40.42902943678200244903564453125" lon="-1.51127466000616550445556640625">
        <ele>1292.199951171875</ele>
        <time>2022-08-24T08:29:02.000Z</time>
      </trkpt>
      <trkpt lat="40.42924183420836925506591796875" lon="-1.511217243969440460205078125">
        <ele>1292.800048828125</ele>
        <time>2022-08-24T08:29:12.000Z</time>
      </trkpt>
      <trkpt lat="40.42930218391120433807373046875" lon="-1.51121447794139385223388671875">
        <ele>1293</ele>
        <time>2022-08-24T08:29:15.000Z</time>
      </trkpt>
      <trkpt lat="40.42940385639667510986328125" lon="-1.51121162809431552886962890625">
        <ele>1293.5999755859375</ele>
        <time>2022-08-24T08:29:20.000Z</time>
      </trkpt>
      <trkpt lat="40.42948700487613677978515625" lon="-1.51121623814105987548828125">
        <ele>1294</ele>
        <time>2022-08-24T08:29:24.000Z</time>
      </trkpt>
      <trkpt lat="40.42960879392921924591064453125" lon="-1.51121565140783786773681640625">
        <ele>1294.4000244140625</ele>
        <time>2022-08-24T08:29:28.000Z</time>
      </trkpt>
      <trkpt lat="40.42971407063305377960205078125" lon="-1.511152870953083038330078125">
        <ele>1294.5999755859375</ele>
        <time>2022-08-24T08:29:33.000Z</time>
      </trkpt>
      <trkpt lat="40.429791770875453948974609375" lon="-1.51106444187462329864501953125">
        <ele>1294.800048828125</ele>
        <time>2022-08-24T08:29:38.000Z</time>
      </trkpt>
      <trkpt lat="40.4298693872988224029541015625" lon="-1.51100140996277332305908203125">
        <ele>1295.4000244140625</ele>
        <time>2022-08-24T08:29:42.000Z</time>
      </trkpt>
      <trkpt lat="40.42992814444005489349365234375" lon="-1.51096151210367679595947265625">
        <ele>1296.4000244140625</ele>
        <time>2022-08-24T08:29:45.000Z</time>
      </trkpt>
      <trkpt lat="40.42997248470783233642578125" lon="-1.510938294231891632080078125">
        <ele>1296.800048828125</ele>
        <time>2022-08-24T08:29:47.000Z</time>
      </trkpt>
      <trkpt lat="40.43012897484004497528076171875" lon="-1.51091943494975566864013671875">
        <ele>1297.4000244140625</ele>
        <time>2022-08-24T08:29:54.000Z</time>
      </trkpt>
      <trkpt lat="40.430151522159576416015625" lon="-1.510922200977802276611328125">
        <ele>1297.4000244140625</ele>
        <time>2022-08-24T08:29:55.000Z</time>
      </trkpt>
      <trkpt lat="40.4302837885916233062744140625" lon="-1.510958410799503326416015625">
        <ele>1297.5999755859375</ele>
        <time>2022-08-24T08:29:59.000Z</time>
      </trkpt>
      <trkpt lat="40.43038261123001575469970703125" lon="-1.5109823830425739288330078125">
        <ele>1297.5999755859375</ele>
        <time>2022-08-24T08:30:01.000Z</time>
      </trkpt>
      <trkpt lat="40.43049274943768978118896484375" lon="-1.51096536777913570404052734375">
        <ele>1297.5999755859375</ele>
        <time>2022-08-24T08:30:03.000Z</time>
      </trkpt>
      <trkpt lat="40.43080606497824192047119140625" lon="-1.51088573969900608062744140625">
        <ele>1297</ele>
        <time>2022-08-24T08:30:08.000Z</time>
      </trkpt>
      <trkpt lat="40.43104494921863079071044921875" lon="-1.51087182573974132537841796875">
        <ele>1296.199951171875</ele>
        <time>2022-08-24T08:30:11.000Z</time>
      </trkpt>
      <trkpt lat="40.4311372339725494384765625" lon="-1.51087584905326366424560546875">
        <ele>1296</ele>
        <time>2022-08-24T08:30:12.000Z</time>
      </trkpt>
      <trkpt lat="40.4314133338630199432373046875" lon="-1.51088766753673553466796875">
        <ele>1294.800048828125</ele>
        <time>2022-08-24T08:30:15.000Z</time>
      </trkpt>
      <trkpt lat="40.43158315122127532958984375" lon="-1.51086746715009212493896484375">
        <ele>1294.199951171875</ele>
        <time>2022-08-24T08:30:17.000Z</time>
      </trkpt>
      <trkpt lat="40.43166336603462696075439453125" lon="-1.510858833789825439453125">
        <ele>1293.800048828125</ele>
        <time>2022-08-24T08:30:18.000Z</time>
      </trkpt>
      <trkpt lat="40.4318062774837017059326171875" lon="-1.5108469314873218536376953125">
        <ele>1292.800048828125</ele>
        <time>2022-08-24T08:30:20.000Z</time>
      </trkpt>
      <trkpt lat="40.43187945149838924407958984375" lon="-1.51084332726895809173583984375">
        <ele>1292.4000244140625</ele>
        <time>2022-08-24T08:30:21.000Z</time>
      </trkpt>
      <trkpt lat="40.432100482285022735595703125" lon="-1.510819606482982635498046875">
        <ele>1291.5999755859375</ele>
        <time>2022-08-24T08:30:24.000Z</time>
      </trkpt>
      <trkpt lat="40.43230290524661540985107421875" lon="-1.5108077041804790496826171875">
        <ele>1291</ele>
        <time>2022-08-24T08:30:27.000Z</time>
      </trkpt>
      <trkpt lat="40.43236845172941684722900390625" lon="-1.51080259121954441070556640625">
        <ele>1290.5999755859375</ele>
        <time>2022-08-24T08:30:28.000Z</time>
      </trkpt>
      <trkpt lat="40.4327081702649593353271484375" lon="-1.51079001836478710174560546875">
        <ele>1290</ele>
        <time>2022-08-24T08:30:33.000Z</time>
      </trkpt>
      <trkpt lat="40.432964824140071868896484375" lon="-1.51081063784658908843994140625">
        <ele>1289.5999755859375</ele>
        <time>2022-08-24T08:30:38.000Z</time>
      </trkpt>
      <trkpt lat="40.4330456256866455078125" lon="-1.51081985794007778167724609375">
        <ele>1289.4000244140625</ele>
        <time>2022-08-24T08:30:40.000Z</time>
      </trkpt>
      <trkpt lat="40.4331125132739543914794921875" lon="-1.51081164367496967315673828125">
        <ele>1289.4000244140625</ele>
        <time>2022-08-24T08:30:41.000Z</time>
      </trkpt>
      <trkpt lat="40.43330403976142406463623046875" lon="-1.5107959695160388946533203125">
        <ele>1289.199951171875</ele>
        <time>2022-08-24T08:30:44.000Z</time>
      </trkpt>
      <trkpt lat="40.43357108719646930694580078125" lon="-1.510756574571132659912109375">
        <ele>1288.4000244140625</ele>
        <time>2022-08-24T08:30:49.000Z</time>
      </trkpt>
      <trkpt lat="40.43361417017877101898193359375" lon="-1.5107406489551067352294921875">
        <ele>1288.4000244140625</ele>
        <time>2022-08-24T08:30:50.000Z</time>
      </trkpt>
      <trkpt lat="40.43393217958509922027587890625" lon="-1.51070636697113513946533203125">
        <ele>1288</ele>
        <time>2022-08-24T08:30:56.000Z</time>
      </trkpt>
      <trkpt lat="40.4342514462769031524658203125" lon="-1.510781385004520416259765625">
        <ele>1287.5999755859375</ele>
        <time>2022-08-24T08:31:01.000Z</time>
      </trkpt>
      <trkpt lat="40.434351526200771331787109375" lon="-1.51082153432071208953857421875">
        <ele>1287.4000244140625</ele>
        <time>2022-08-24T08:31:03.000Z</time>
      </trkpt>
      <trkpt lat="40.43447230942547321319580078125" lon="-1.51085673831403255462646484375">
        <ele>1287</ele>
        <time>2022-08-24T08:31:06.000Z</time>
      </trkpt>
      <trkpt lat="40.43458429165184497833251953125" lon="-1.5108925290405750274658203125">
        <ele>1287</ele>
        <time>2022-08-24T08:31:11.000Z</time>
      </trkpt>
      <trkpt lat="40.43475578539073467254638671875" lon="-1.510942317545413970947265625">
        <ele>1287.800048828125</ele>
        <time>2022-08-24T08:31:18.000Z</time>
      </trkpt>
      <trkpt lat="40.4348214156925678253173828125" lon="-1.510938294231891632080078125">
        <ele>1288.199951171875</ele>
        <time>2022-08-24T08:31:21.000Z</time>
      </trkpt>
      <trkpt lat="40.4349166341125965118408203125" lon="-1.51092479936778545379638671875">
        <ele>1288.800048828125</ele>
        <time>2022-08-24T08:31:26.000Z</time>
      </trkpt>
      <trkpt lat="40.43497639708220958709716796875" lon="-1.5109153278172016143798828125">
        <ele>1289.4000244140625</ele>
        <time>2022-08-24T08:31:29.000Z</time>
      </trkpt>
      <trkpt lat="40.43507211841642856597900390625" lon="-1.51089563034474849700927734375">
        <ele>1290.199951171875</ele>
        <time>2022-08-24T08:31:33.000Z</time>
      </trkpt>
      <trkpt lat="40.435138083994388580322265625" lon="-1.51090149767696857452392578125">
        <ele>1290.4000244140625</ele>
        <time>2022-08-24T08:31:36.000Z</time>
      </trkpt>
      <trkpt lat="40.4352257587015628814697265625" lon="-1.510903425514698028564453125">
        <ele>1291</ele>
        <time>2022-08-24T08:31:40.000Z</time>
      </trkpt>
      <trkpt lat="40.43533782474696636199951171875" lon="-1.5109223686158657073974609375">
        <ele>1291.4000244140625</ele>
        <time>2022-08-24T08:31:45.000Z</time>
      </trkpt>
      <trkpt lat="40.4354262538254261016845703125" lon="-1.51094206608831882476806640625">
        <ele>1291.800048828125</ele>
        <time>2022-08-24T08:31:49.000Z</time>
      </trkpt>
      <trkpt lat="40.435527674853801727294921875" lon="-1.51097291149199008941650390625">
        <ele>1292.4000244140625</ele>
        <time>2022-08-24T08:31:54.000Z</time>
      </trkpt>
      <trkpt lat="40.4355704225599765777587890625" lon="-1.51098246686160564422607421875">
        <ele>1292.5999755859375</ele>
        <time>2022-08-24T08:31:56.000Z</time>
      </trkpt>
      <trkpt lat="40.43568617664277553558349609375" lon="-1.51100635528564453125">
        <ele>1293.199951171875</ele>
        <time>2022-08-24T08:32:03.000Z</time>
      </trkpt>
      <trkpt lat="40.435685254633426666259765625" lon="-1.511010713875293731689453125">
        <ele>1293.199951171875</ele>
        <time>2022-08-24T08:32:04.000Z</time>
      </trkpt>
      <trkpt lat="40.43579287827014923095703125" lon="-1.51101079769432544708251953125">
        <ele>1293.4000244140625</ele>
        <time>2022-08-24T08:32:13.000Z</time>
      </trkpt>
      <trkpt lat="40.43587393127381801605224609375" lon="-1.51100208051502704620361328125">
        <ele>1293.4000244140625</ele>
        <time>2022-08-24T08:32:15.000Z</time>
      </trkpt>
      <trkpt lat="40.43614265508949756622314453125" lon="-1.51100258342921733856201171875">
        <ele>1293</ele>
        <time>2022-08-24T08:32:20.000Z</time>
      </trkpt>
      <trkpt lat="40.4363353550434112548828125" lon="-1.5110487677156925201416015625">
        <ele>1292.4000244140625</ele>
        <time>2022-08-24T08:32:23.000Z</time>
      </trkpt>
      <trkpt lat="40.4365293122828006744384765625" lon="-1.51108078658580780029296875">
        <ele>1291.5999755859375</ele>
        <time>2022-08-24T08:32:26.000Z</time>
      </trkpt>
      <trkpt lat="40.4365997202694416046142578125" lon="-1.51109327562153339385986328125">
        <ele>1291.4000244140625</ele>
        <time>2022-08-24T08:32:27.000Z</time>
      </trkpt>
      <trkpt lat="40.4369388520717620849609375" lon="-1.51114507578313350677490234375">
        <ele>1290.4000244140625</ele>
        <time>2022-08-24T08:32:31.000Z</time>
      </trkpt>
      <trkpt lat="40.43702024035155773162841796875" lon="-1.51115630753338336944580078125">
        <ele>1290</ele>
        <time>2022-08-24T08:32:32.000Z</time>
      </trkpt>
      <trkpt lat="40.43717832304537296295166015625" lon="-1.5111657790839672088623046875">
        <ele>1289.4000244140625</ele>
        <time>2022-08-24T08:32:34.000Z</time>
      </trkpt>
      <trkpt lat="40.43727002106606960296630859375" lon="-1.51115111075341701507568359375">
        <ele>1288.800048828125</ele>
        <time>2022-08-24T08:32:35.000Z</time>
      </trkpt>
      <trkpt lat="40.4373524151742458343505859375" lon="-1.5111349336802959442138671875">
        <ele>1288.199951171875</ele>
        <time>2022-08-24T08:32:36.000Z</time>
      </trkpt>
      <trkpt lat="40.43744285590946674346923828125" lon="-1.51110148988664150238037109375">
        <ele>1287</ele>
        <time>2022-08-24T08:32:37.000Z</time>
      </trkpt>
      <trkpt lat="40.43770336546003818511962890625" lon="-1.51102580130100250244140625">
        <ele>1285.199951171875</ele>
        <time>2022-08-24T08:32:40.000Z</time>
      </trkpt>
      <trkpt lat="40.437782071530818939208984375" lon="-1.51100358925759792327880859375">
        <ele>1284.199951171875</ele>
        <time>2022-08-24T08:32:41.000Z</time>
      </trkpt>
      <trkpt lat="40.43785926885902881622314453125" lon="-1.51099218986928462982177734375">
        <ele>1283.5999755859375</ele>
        <time>2022-08-24T08:32:42.000Z</time>
      </trkpt>
      <trkpt lat="40.4379347898066043853759765625" lon="-1.5109887532889842987060546875">
        <ele>1283</ele>
        <time>2022-08-24T08:32:43.000Z</time>
      </trkpt>
      <trkpt lat="40.4381128214299678802490234375" lon="-1.5109951235353946685791015625">
        <ele>1282</ele>
        <time>2022-08-24T08:32:45.000Z</time>
      </trkpt>
      <trkpt lat="40.43846075423061847686767578125" lon="-1.51101063005626201629638671875">
        <ele>1281.4000244140625</ele>
        <time>2022-08-24T08:32:50.000Z</time>
      </trkpt>
      <trkpt lat="40.438533090054988861083984375" lon="-1.51101968251168727874755859375">
        <ele>1281.4000244140625</ele>
        <time>2022-08-24T08:32:53.000Z</time>
      </trkpt>
      <trkpt lat="40.43864364735782146453857421875" lon="-1.5110591612756252288818359375">
        <ele>1281.5999755859375</ele>
        <time>2022-08-24T08:32:59.000Z</time>
      </trkpt>
      <trkpt lat="40.43874724768102169036865234375" lon="-1.51109444908797740936279296875">
        <ele>1282.800048828125</ele>
        <time>2022-08-24T08:33:05.000Z</time>
      </trkpt>
      <trkpt lat="40.43877339921891689300537109375" lon="-1.51110626757144927978515625">
        <ele>1283.199951171875</ele>
        <time>2022-08-24T08:33:07.000Z</time>
      </trkpt>
      <trkpt lat="40.43884112499654293060302734375" lon="-1.51114306412637233734130859375">
        <ele>1284</ele>
        <time>2022-08-24T08:33:12.000Z</time>
      </trkpt>
      <trkpt lat="40.43892997317016124725341796875" lon="-1.51122135110199451446533203125">
        <ele>1285.199951171875</ele>
        <time>2022-08-24T08:33:19.000Z</time>
      </trkpt>
      <trkpt lat="40.43907263316214084625244140625" lon="-1.51134406216442584991455078125">
        <ele>1286.199951171875</ele>
        <time>2022-08-24T08:33:28.000Z</time>
      </trkpt>
      <trkpt lat="40.4392061568796634674072265625" lon="-1.5114400349557399749755859375">
        <ele>1287.199951171875</ele>
        <time>2022-08-24T08:33:36.000Z</time>
      </trkpt>
      <trkpt lat="40.4392199032008647918701171875" lon="-1.51145503856241703033447265625">
        <ele>1287.4000244140625</ele>
        <time>2022-08-24T08:33:37.000Z</time>
      </trkpt>
      <trkpt lat="40.439336411654949188232421875" lon="-1.51159535162150859832763671875">
        <ele>1288.4000244140625</ele>
        <time>2022-08-24T08:33:45.000Z</time>
      </trkpt>
      <trkpt lat="40.43941411189734935760498046875" lon="-1.51172057725489139556884765625">
        <ele>1289.4000244140625</ele>
        <time>2022-08-24T08:33:52.000Z</time>
      </trkpt>
      <trkpt lat="40.4394509084522724151611328125" lon="-1.51174731552600860595703125">
        <ele>1289.5999755859375</ele>
        <time>2022-08-24T08:33:54.000Z</time>
      </trkpt>
      <trkpt lat="40.43952056206762790679931640625" lon="-1.5117823518812656402587890625">
        <ele>1290</ele>
        <time>2022-08-24T08:33:58.000Z</time>
      </trkpt>
      <trkpt lat="40.4395836777985095977783203125" lon="-1.51180841960012912750244140625">
        <ele>1290.5999755859375</ele>
        <time>2022-08-24T08:34:01.000Z</time>
      </trkpt>
      <trkpt lat="40.4396809078752994537353515625" lon="-1.51184211485087871551513671875">
        <ele>1291.800048828125</ele>
        <time>2022-08-24T08:34:06.000Z</time>
      </trkpt>
      <trkpt lat="40.4397003538906574249267578125" lon="-1.5118487365543842315673828125">
        <ele>1291.800048828125</ele>
        <time>2022-08-24T08:34:07.000Z</time>
      </trkpt>
      <trkpt lat="40.4398498870432376861572265625" lon="-1.51193582452833652496337890625">
        <ele>1292</ele>
        <time>2022-08-24T08:34:14.000Z</time>
      </trkpt>
      <trkpt lat="40.4399910382926464080810546875" lon="-1.51207052171230316162109375">
        <ele>1292.4000244140625</ele>
        <time>2022-08-24T08:34:22.000Z</time>
      </trkpt>
      <trkpt lat="40.44006018899381160736083984375" lon="-1.5121384151279926300048828125">
        <ele>1292.5999755859375</ele>
        <time>2022-08-24T08:34:26.000Z</time>
      </trkpt>
      <trkpt lat="40.4401184432208538055419921875" lon="-1.51220488362014293670654296875">
        <ele>1292.800048828125</ele>
        <time>2022-08-24T08:34:30.000Z</time>
      </trkpt>
      <trkpt lat="40.44022296555340290069580078125" lon="-1.5122892893850803375244140625">
        <ele>1293.5999755859375</ele>
        <time>2022-08-24T08:34:35.000Z</time>
      </trkpt>
      <trkpt lat="40.44034567661583423614501953125" lon="-1.51235542260110378265380859375">
        <ele>1294</ele>
        <time>2022-08-24T08:34:40.000Z</time>
      </trkpt>
      <trkpt lat="40.44045749120414257049560546875" lon="-1.51241828687489032745361328125">
        <ele>1294.800048828125</ele>
        <time>2022-08-24T08:34:45.000Z</time>
      </trkpt>
      <trkpt lat="40.44049973599612712860107421875" lon="-1.51244041509926319122314453125">
        <ele>1295.199951171875</ele>
        <time>2022-08-24T08:34:47.000Z</time>
      </trkpt>
      <trkpt lat="40.44056561775505542755126953125" lon="-1.51247528381645679473876953125">
        <ele>1295.800048828125</ele>
        <time>2022-08-24T08:34:50.000Z</time>
      </trkpt>
      <trkpt lat="40.44065010733902454376220703125" lon="-1.5125347115099430084228515625">
        <ele>1296.199951171875</ele>
        <time>2022-08-24T08:34:54.000Z</time>
      </trkpt>
      <trkpt lat="40.44084523804485797882080078125" lon="-1.51266639120876789093017578125">
        <ele>1296.199951171875</ele>
        <time>2022-08-24T08:35:02.000Z</time>
      </trkpt>
      <trkpt lat="40.44104455970227718353271484375" lon="-1.512815840542316436767578125">
        <ele>1295.5999755859375</ele>
        <time>2022-08-24T08:35:09.000Z</time>
      </trkpt>
      <trkpt lat="40.4413009621202945709228515625" lon="-1.51289454661309719085693359375">
        <ele>1295.199951171875</ele>
        <time>2022-08-24T08:35:16.000Z</time>
      </trkpt>
      <trkpt lat="40.44152718968689441680908203125" lon="-1.512936539947986602783203125">
        <ele>1295.4000244140625</ele>
        <time>2022-08-24T08:35:24.000Z</time>
      </trkpt>
      <trkpt lat="40.44173740781843662261962890625" lon="-1.51301558129489421844482421875">
        <ele>1297</ele>
        <time>2022-08-24T08:35:32.000Z</time>
      </trkpt>
      <trkpt lat="40.4417596198618412017822265625" lon="-1.51302941143512725830078125">
        <ele>1297.199951171875</ele>
        <time>2022-08-24T08:35:33.000Z</time>
      </trkpt>
      <trkpt lat="40.44190051965415477752685546875" lon="-1.51313602924346923828125">
        <ele>1298</ele>
        <time>2022-08-24T08:35:40.000Z</time>
      </trkpt>
      <trkpt lat="40.44191929511725902557373046875" lon="-1.5131492726504802703857421875">
        <ele>1298</ele>
        <time>2022-08-24T08:35:41.000Z</time>
      </trkpt>
      <trkpt lat="40.442025996744632720947265625" lon="-1.5132419764995574951171875">
        <ele>1298.800048828125</ele>
        <time>2022-08-24T08:35:48.000Z</time>
      </trkpt>
      <trkpt lat="40.4420871846377849578857421875" lon="-1.51328556239604949951171875">
        <ele>1299</ele>
        <time>2022-08-24T08:35:51.000Z</time>
      </trkpt>
      <trkpt lat="40.4421451874077320098876953125" lon="-1.51331163011491298675537109375">
        <ele>1299.199951171875</ele>
        <time>2022-08-24T08:35:53.000Z</time>
      </trkpt>
      <trkpt lat="40.44228650629520416259765625" lon="-1.513383127748966217041015625">
        <ele>1299</ele>
        <time>2022-08-24T08:35:59.000Z</time>
      </trkpt>
      <trkpt lat="40.44250887818634510040283203125" lon="-1.51347558014094829559326171875">
        <ele>1299</ele>
        <time>2022-08-24T08:36:06.000Z</time>
      </trkpt>
      <trkpt lat="40.4427594132721424102783203125" lon="-1.51352293789386749267578125">
        <ele>1299.199951171875</ele>
        <time>2022-08-24T08:36:13.000Z</time>
      </trkpt>
      <trkpt lat="40.44313936494290828704833984375" lon="-1.51364506222307682037353515625">
        <ele>1300</ele>
        <time>2022-08-24T08:36:25.000Z</time>
      </trkpt>
      <trkpt lat="40.44326056726276874542236328125" lon="-1.51375100947916507720947265625">
        <ele>1301.199951171875</ele>
        <time>2022-08-24T08:36:31.000Z</time>
      </trkpt>
      <trkpt lat="40.44327951036393642425537109375" lon="-1.51377347297966480255126953125">
        <ele>1301.4000244140625</ele>
        <time>2022-08-24T08:36:32.000Z</time>
      </trkpt>
      <trkpt lat="40.44341077096760272979736328125" lon="-1.5139106847345829010009765625">
        <ele>1302.199951171875</ele>
        <time>2022-08-24T08:36:38.000Z</time>
      </trkpt>
      <trkpt lat="40.4434641636908054351806640625" lon="-1.5139420330524444580078125">
        <ele>1302.199951171875</ele>
        <time>2022-08-24T08:36:40.000Z</time>
      </trkpt>
      <trkpt lat="40.4436609707772731781005859375" lon="-1.5140169672667980194091796875">
        <ele>1302.4000244140625</ele>
        <time>2022-08-24T08:36:48.000Z</time>
      </trkpt>
      <trkpt lat="40.44387998990714550018310546875" lon="-1.5141141973435878753662109375">
        <ele>1303</ele>
        <time>2022-08-24T08:36:56.000Z</time>
      </trkpt>
      <trkpt lat="40.44409439899027347564697265625" lon="-1.5141458809375762939453125">
        <ele>1303.199951171875</ele>
        <time>2022-08-24T08:37:02.000Z</time>
      </trkpt>
      <trkpt lat="40.44417553581297397613525390625" lon="-1.51416205801069736480712890625">
        <ele>1303.199951171875</ele>
        <time>2022-08-24T08:37:04.000Z</time>
      </trkpt>
      <trkpt lat="40.4443680681288242340087890625" lon="-1.51417379267513751983642578125">
        <ele>1303</ele>
        <time>2022-08-24T08:37:08.000Z</time>
      </trkpt>
      <trkpt lat="40.4446617700159549713134765625" lon="-1.51418150402605533599853515625">
        <ele>1303.199951171875</ele>
        <time>2022-08-24T08:37:16.000Z</time>
      </trkpt>
      <trkpt lat="40.44489939697086811065673828125" lon="-1.51419508270919322967529296875">
        <ele>1304</ele>
        <time>2022-08-24T08:37:24.000Z</time>
      </trkpt>
      <trkpt lat="40.4449826292693614959716796875" lon="-1.51421167887747287750244140625">
        <ele>1304.4000244140625</ele>
        <time>2022-08-24T08:37:27.000Z</time>
      </trkpt>
      <trkpt lat="40.44519846327602863311767578125" lon="-1.51422056369483470916748046875">
        <ele>1305</ele>
        <time>2022-08-24T08:37:34.000Z</time>
      </trkpt>
      <trkpt lat="40.445278175175189971923828125" lon="-1.5142117626965045928955078125">
        <ele>1305</ele>
        <time>2022-08-24T08:37:37.000Z</time>
      </trkpt>
      <trkpt lat="40.44539912603795528411865234375" lon="-1.51420849375426769256591796875">
        <ele>1305.199951171875</ele>
        <time>2022-08-24T08:37:41.000Z</time>
      </trkpt>
      <trkpt lat="40.445574559271335601806640625" lon="-1.5142566896975040435791015625">
        <ele>1305.800048828125</ele>
        <time>2022-08-24T08:37:48.000Z</time>
      </trkpt>
      <trkpt lat="40.445615462958812713623046875" lon="-1.5142811648547649383544921875">
        <ele>1306.199951171875</ele>
        <time>2022-08-24T08:37:50.000Z</time>
      </trkpt>
      <trkpt lat="40.4457282833755016326904296875" lon="-1.51434008963406085968017578125">
        <ele>1307.199951171875</ele>
        <time>2022-08-24T08:37:55.000Z</time>
      </trkpt>
      <trkpt lat="40.4457671754062175750732421875" lon="-1.5143535844981670379638671875">
        <ele>1307.199951171875</ele>
        <time>2022-08-24T08:37:57.000Z</time>
      </trkpt>
      <trkpt lat="40.445890724658966064453125" lon="-1.51439021341502666473388671875">
        <ele>1307.4000244140625</ele>
        <time>2022-08-24T08:38:02.000Z</time>
      </trkpt>
      <trkpt lat="40.44602843932807445526123046875" lon="-1.5144099108874797821044921875">
        <ele>1307.4000244140625</ele>
        <time>2022-08-24T08:38:08.000Z</time>
      </trkpt>
      <trkpt lat="40.44615299440920352935791015625" lon="-1.5144082345068454742431640625">
        <ele>1308</ele>
        <time>2022-08-24T08:38:15.000Z</time>
      </trkpt>
      <trkpt lat="40.4461669921875" lon="-1.51441083289682865142822265625">
        <ele>1308.199951171875</ele>
        <time>2022-08-24T08:38:16.000Z</time>
      </trkpt>
      <trkpt lat="40.44625810347497463226318359375" lon="-1.5144317038357257843017578125">
        <ele>1309</ele>
        <time>2022-08-24T08:38:22.000Z</time>
      </trkpt>
      <trkpt lat="40.44633119367063045501708984375" lon="-1.514439247548580169677734375">
        <ele>1309.199951171875</ele>
        <time>2022-08-24T08:38:25.000Z</time>
      </trkpt>
      <trkpt lat="40.446442924439907073974609375" lon="-1.51443966664373874664306640625">
        <ele>1309.5999755859375</ele>
        <time>2022-08-24T08:38:30.000Z</time>
      </trkpt>
      <trkpt lat="40.44661919586360454559326171875" lon="-1.5144199691712856292724609375">
        <ele>1310.4000244140625</ele>
        <time>2022-08-24T08:38:37.000Z</time>
      </trkpt>
      <trkpt lat="40.44681072235107421875" lon="-1.51437185704708099365234375">
        <ele>1311</ele>
        <time>2022-08-24T08:38:45.000Z</time>
      </trkpt>
      <trkpt lat="40.447029657661914825439453125" lon="-1.514311842620372772216796875">
        <ele>1311</ele>
        <time>2022-08-24T08:38:50.000Z</time>
      </trkpt>
      <trkpt lat="40.44722721911966800689697265625" lon="-1.5143086574971675872802734375">
        <ele>1310.5999755859375</ele>
        <time>2022-08-24T08:38:55.000Z</time>
      </trkpt>
      <trkpt lat="40.44738261960446834564208984375" lon="-1.51432282291352748870849609375">
        <ele>1310.5999755859375</ele>
        <time>2022-08-24T08:39:01.000Z</time>
      </trkpt>
      <trkpt lat="40.4474933445453643798828125" lon="-1.51432449929416179656982421875">
        <ele>1311.199951171875</ele>
        <time>2022-08-24T08:39:07.000Z</time>
      </trkpt>
      <trkpt lat="40.44751103036105632781982421875" lon="-1.514323912560939788818359375">
        <ele>1311.4000244140625</ele>
        <time>2022-08-24T08:39:08.000Z</time>
      </trkpt>
      <trkpt lat="40.44768453575670719146728515625" lon="-1.5143234096467494964599609375">
        <ele>1312.199951171875</ele>
        <time>2022-08-24T08:39:16.000Z</time>
      </trkpt>
      <trkpt lat="40.44770817272365093231201171875" lon="-1.51432215236127376556396484375">
        <ele>1312.199951171875</ele>
        <time>2022-08-24T08:39:17.000Z</time>
      </trkpt>
      <trkpt lat="40.44796080328524112701416015625" lon="-1.514279656112194061279296875">
        <ele>1313.199951171875</ele>
        <time>2022-08-24T08:39:25.000Z</time>
      </trkpt>
      <trkpt lat="40.44799382798373699188232421875" lon="-1.51428024284541606903076171875">
        <ele>1313.199951171875</ele>
        <time>2022-08-24T08:39:26.000Z</time>
      </trkpt>
      <trkpt lat="40.448166914284229278564453125" lon="-1.5143136866390705108642578125">
        <ele>1313.5999755859375</ele>
        <time>2022-08-24T08:39:32.000Z</time>
      </trkpt>
      <trkpt lat="40.4483317025005817413330078125" lon="-1.514366827905178070068359375">
        <ele>1314.199951171875</ele>
        <time>2022-08-24T08:39:38.000Z</time>
      </trkpt>
      <trkpt lat="40.44835500419139862060546875" lon="-1.51438166387379169464111328125">
        <ele>1314.4000244140625</ele>
        <time>2022-08-24T08:39:39.000Z</time>
      </trkpt>
      <trkpt lat="40.44852457009255886077880859375" lon="-1.51446833275258541107177734375">
        <ele>1314.800048828125</ele>
        <time>2022-08-24T08:39:47.000Z</time>
      </trkpt>
      <trkpt lat="40.44861878268420696258544921875" lon="-1.51450823061168193817138671875">
        <ele>1315.4000244140625</ele>
        <time>2022-08-24T08:39:52.000Z</time>
      </trkpt>
      <trkpt lat="40.44866421259939670562744140625" lon="-1.51451527141034603118896484375">
        <ele>1315.5999755859375</ele>
        <time>2022-08-24T08:39:54.000Z</time>
      </trkpt>
      <trkpt lat="40.44882497750222682952880859375" lon="-1.51453136466443538665771484375">
        <ele>1316.199951171875</ele>
        <time>2022-08-24T08:40:02.000Z</time>
      </trkpt>
      <trkpt lat="40.44900367967784404754638671875" lon="-1.5145443566143512725830078125">
        <ele>1317</ele>
        <time>2022-08-24T08:40:10.000Z</time>
      </trkpt>
      <trkpt lat="40.44916209764778614044189453125" lon="-1.51453538797795772552490234375">
        <ele>1317.199951171875</ele>
        <time>2022-08-24T08:40:18.000Z</time>
      </trkpt>
      <trkpt lat="40.44932386837899684906005859375" lon="-1.5145348012447357177734375">
        <ele>1317.4000244140625</ele>
        <time>2022-08-24T08:40:27.000Z</time>
      </trkpt>
      <trkpt lat="40.44949485920369625091552734375" lon="-1.51451275683939456939697265625">
        <ele>1317.800048828125</ele>
        <time>2022-08-24T08:40:35.000Z</time>
      </trkpt>
      <trkpt lat="40.449563004076480865478515625" lon="-1.51452717371284961700439453125">
        <ele>1318</ele>
        <time>2022-08-24T08:40:39.000Z</time>
      </trkpt>
      <trkpt lat="40.44965998269617557525634765625" lon="-1.51453438214957714080810546875">
        <ele>1318.5999755859375</ele>
        <time>2022-08-24T08:40:44.000Z</time>
      </trkpt>
      <trkpt lat="40.44969719834625720977783203125" lon="-1.5145410038530826568603515625">
        <ele>1319</ele>
        <time>2022-08-24T08:40:46.000Z</time>
      </trkpt>
      <trkpt lat="40.44981789775192737579345703125" lon="-1.5145695023238658905029296875">
        <ele>1320.199951171875</ele>
        <time>2022-08-24T08:40:53.000Z</time>
      </trkpt>
      <trkpt lat="40.44993826188147068023681640625" lon="-1.514568328857421875">
        <ele>1321.4000244140625</ele>
        <time>2022-08-24T08:40:59.000Z</time>
      </trkpt>
      <trkpt lat="40.450025014579296112060546875" lon="-1.51456137187778949737548828125">
        <ele>1322.5999755859375</ele>
        <time>2022-08-24T08:41:03.000Z</time>
      </trkpt>
      <trkpt lat="40.45009768567979335784912109375" lon="-1.514569334685802459716796875">
        <ele>1323.5999755859375</ele>
        <time>2022-08-24T08:41:07.000Z</time>
      </trkpt>
      <trkpt lat="40.45014697127044200897216796875" lon="-1.514597497880458831787109375">
        <ele>1324.4000244140625</ele>
        <time>2022-08-24T08:41:10.000Z</time>
      </trkpt>
      <trkpt lat="40.45018334873020648956298828125" lon="-1.51461032219231128692626953125">
        <ele>1324.800048828125</ele>
        <time>2022-08-24T08:41:12.000Z</time>
      </trkpt>
      <trkpt lat="40.4502689279615879058837890625" lon="-1.5146610327064990997314453125">
        <ele>1325.800048828125</ele>
        <time>2022-08-24T08:41:18.000Z</time>
      </trkpt>
      <trkpt lat="40.4502877034246921539306640625" lon="-1.5146670676767826080322265625">
        <ele>1325.800048828125</ele>
        <time>2022-08-24T08:41:19.000Z</time>
      </trkpt>
      <trkpt lat="40.450373031198978424072265625" lon="-1.51471610181033611297607421875">
        <ele>1326</ele>
        <time>2022-08-24T08:41:25.000Z</time>
      </trkpt>
      <trkpt lat="40.4504732787609100341796875" lon="-1.51476874016225337982177734375">
        <ele>1326.5999755859375</ele>
        <time>2022-08-24T08:41:32.000Z</time>
      </trkpt>
      <trkpt lat="40.45051409862935543060302734375" lon="-1.5147896111011505126953125">
        <ele>1326.800048828125</ele>
        <time>2022-08-24T08:41:34.000Z</time>
      </trkpt>
      <trkpt lat="40.45065156184136867523193359375" lon="-1.51485239155590534210205078125">
        <ele>1327.5999755859375</ele>
        <time>2022-08-24T08:41:41.000Z</time>
      </trkpt>
      <trkpt lat="40.45067184604704380035400390625" lon="-1.51486001908779144287109375">
        <ele>1327.800048828125</ele>
        <time>2022-08-24T08:41:42.000Z</time>
      </trkpt>
      <trkpt lat="40.4507966525852680206298828125" lon="-1.51495817117393016815185546875">
        <ele>1328.5999755859375</ele>
        <time>2022-08-24T08:41:50.000Z</time>
      </trkpt>
      <trkpt lat="40.4508445970714092254638671875" lon="-1.51498901657760143280029296875">
        <ele>1329</ele>
        <time>2022-08-24T08:41:53.000Z</time>
      </trkpt>
      <trkpt lat="40.4508969001471996307373046875" lon="-1.51501315645873546600341796875">
        <ele>1329.199951171875</ele>
        <time>2022-08-24T08:41:57.000Z</time>
      </trkpt>
      <trkpt lat="40.45098348520696163177490234375" lon="-1.5150734223425388336181640625">
        <ele>1330</ele>
        <time>2022-08-24T08:42:03.000Z</time>
      </trkpt>
      <trkpt lat="40.450998656451702117919921875" lon="-1.515087001025676727294921875">
        <ele>1330</ele>
        <time>2022-08-24T08:42:04.000Z</time>
      </trkpt>
      <trkpt lat="40.45112170279026031494140625" lon="-1.51515715755522251129150390625">
        <ele>1330.800048828125</ele>
        <time>2022-08-24T08:42:10.000Z</time>
      </trkpt>
      <trkpt lat="40.4511403106153011322021484375" lon="-1.51516134850680828094482421875">
        <ele>1331.199951171875</ele>
        <time>2022-08-24T08:42:11.000Z</time>
      </trkpt>
      <trkpt lat="40.45131389982998371124267578125" lon="-1.51520510204136371612548828125">
        <ele>1332</ele>
        <time>2022-08-24T08:42:19.000Z</time>
      </trkpt>
      <trkpt lat="40.451337285339832305908203125" lon="-1.5152108855545520782470703125">
        <ele>1332</ele>
        <time>2022-08-24T08:42:20.000Z</time>
      </trkpt>
      <trkpt lat="40.4515074379742145538330078125" lon="-1.515262015163898468017578125">
        <ele>1332.5999755859375</ele>
        <time>2022-08-24T08:42:28.000Z</time>
      </trkpt>
      <trkpt lat="40.45159041881561279296875" lon="-1.51528623886406421661376953125">
        <ele>1333</ele>
        <time>2022-08-24T08:42:32.000Z</time>
      </trkpt>
      <trkpt lat="40.45170064084231853485107421875" lon="-1.51528892107307910919189453125">
        <ele>1333.4000244140625</ele>
        <time>2022-08-24T08:42:37.000Z</time>
      </trkpt>
      <trkpt lat="40.45184665359556674957275390625" lon="-1.51529462076723575592041015625">
        <ele>1334</ele>
        <time>2022-08-24T08:42:42.000Z</time>
      </trkpt>
      <trkpt lat="40.45191303826868534088134765625" lon="-1.515298895537853240966796875">
        <ele>1334.199951171875</ele>
        <time>2022-08-24T08:42:44.000Z</time>
      </trkpt>
      <trkpt lat="40.4520878009498119354248046875" lon="-1.51531121693551540374755859375">
        <ele>1334.4000244140625</ele>
        <time>2022-08-24T08:42:50.000Z</time>
      </trkpt>
      <trkpt lat="40.4523506574332714080810546875" lon="-1.51538028381764888763427734375">
        <ele>1334.4000244140625</ele>
        <time>2022-08-24T08:42:58.000Z</time>
      </trkpt>
      <trkpt lat="40.452636815607547760009765625" lon="-1.515453122556209564208984375">
        <ele>1334</ele>
        <time>2022-08-24T08:43:06.000Z</time>
      </trkpt>
      <trkpt lat="40.45268165878951549530029296875" lon="-1.51545622386038303375244140625">
        <ele>1333.800048828125</ele>
        <time>2022-08-24T08:43:07.000Z</time>
      </trkpt>
      <trkpt lat="40.4528193734586238861083984375" lon="-1.515418924391269683837890625">
        <ele>1333.800048828125</ele>
        <time>2022-08-24T08:43:10.000Z</time>
      </trkpt>
      <trkpt lat="40.45286237262189388275146484375" lon="-1.51540811173617839813232421875">
        <ele>1333.800048828125</ele>
        <time>2022-08-24T08:43:11.000Z</time>
      </trkpt>
      <trkpt lat="40.4529611952602863311767578125" lon="-1.51544163934886455535888671875">
        <ele>1333.4000244140625</ele>
        <time>2022-08-24T08:43:14.000Z</time>
      </trkpt>
      <trkpt lat="40.45300000347197055816650390625" lon="-1.515474580228328704833984375">
        <ele>1333.4000244140625</ele>
        <time>2022-08-24T08:43:16.000Z</time>
      </trkpt>
      <trkpt lat="40.4530664719641208648681640625" lon="-1.5155324153602123260498046875">
        <ele>1333.4000244140625</ele>
        <time>2022-08-24T08:43:20.000Z</time>
      </trkpt>
      <trkpt lat="40.453205108642578125" lon="-1.5156276337802410125732421875">
        <ele>1334.4000244140625</ele>
        <time>2022-08-24T08:43:28.000Z</time>
      </trkpt>
      <trkpt lat="40.4532374627888202667236328125" lon="-1.51564800180494785308837890625">
        <ele>1335</ele>
        <time>2022-08-24T08:43:32.000Z</time>
      </trkpt>
      <trkpt lat="40.45325146056711673736572265625" lon="-1.51567365042865276336669921875">
        <ele>1335.5999755859375</ele>
        <time>2022-08-24T08:43:35.000Z</time>
      </trkpt>
      <trkpt lat="40.453224219381809234619140625" lon="-1.51566803455352783203125">
        <ele>1335.800048828125</ele>
        <time>2022-08-24T08:43:38.000Z</time>
      </trkpt>
      <trkpt lat="40.45319681055843830108642578125" lon="-1.5156340040266513824462890625">
        <ele>1335.800048828125</ele>
        <time>2022-08-24T08:43:40.000Z</time>
      </trkpt>
      <trkpt lat="40.4530547372996807098388671875" lon="-1.51546745561063289642333984375">
        <ele>1335.800048828125</ele>
        <time>2022-08-24T08:43:46.000Z</time>
      </trkpt>
      <trkpt lat="40.45297753997147083282470703125" lon="-1.51536704041063785552978515625">
        <ele>1335.4000244140625</ele>
        <time>2022-08-24T08:43:51.000Z</time>
      </trkpt>
      <trkpt lat="40.45300452969968318939208984375" lon="-1.51529990136623382568359375">
        <ele>1334.199951171875</ele>
        <time>2022-08-24T08:43:55.000Z</time>
      </trkpt>
      <trkpt lat="40.4530131630599498748779296875" lon="-1.515286155045032501220703125">
        <ele>1333.800048828125</ele>
        <time>2022-08-24T08:43:56.000Z</time>
      </trkpt>
      <trkpt lat="40.4530942998826503753662109375" lon="-1.51514567434787750244140625">
        <ele>1333</ele>
        <time>2022-08-24T08:44:05.000Z</time>
      </trkpt>
      <trkpt lat="40.45315808616578578948974609375" lon="-1.51501290500164031982421875">
        <ele>1333.199951171875</ele>
        <time>2022-08-24T08:44:13.000Z</time>
      </trkpt>
      <trkpt lat="40.45322027988731861114501953125" lon="-1.5148756094276905059814453125">
        <ele>1335</ele>
        <time>2022-08-24T08:44:21.000Z</time>
      </trkpt>
      <trkpt lat="40.45327819883823394775390625" lon="-1.51477552950382232666015625">
        <ele>1335.800048828125</ele>
        <time>2022-08-24T08:44:28.000Z</time>
      </trkpt>
      <trkpt lat="40.45328733511269092559814453125" lon="-1.51476706378161907196044921875">
        <ele>1335.800048828125</ele>
        <time>2022-08-24T08:44:29.000Z</time>
      </trkpt>
      <trkpt lat="40.453403256833553314208984375" lon="-1.51462691836059093475341796875">
        <ele>1336.5999755859375</ele>
        <time>2022-08-24T08:44:38.000Z</time>
      </trkpt>
      <trkpt lat="40.45342731289565563201904296875" lon="-1.51457981206476688385009765625">
        <ele>1336.800048828125</ele>
        <time>2022-08-24T08:44:40.000Z</time>
      </trkpt>
      <trkpt lat="40.45343619771301746368408203125" lon="-1.51446280069649219512939453125">
        <ele>1337.199951171875</ele>
        <time>2022-08-24T08:44:45.000Z</time>
      </trkpt>
      <trkpt lat="40.4534054361283779144287109375" lon="-1.51441837660968303680419921875">
        <ele>1337.5999755859375</ele>
        <time>2022-08-24T08:44:48.000Z</time>
      </trkpt>
      <trkpt lat="40.4533735848963260650634765625" lon="-1.51442089118063449859619140625">
        <ele>1337.5999755859375</ele>
        <time>2022-08-24T08:44:50.000Z</time>
      </trkpt>
      <trkpt lat="40.45334382914006710052490234375" lon="-1.514437906444072723388671875">
        <ele>1337.5999755859375</ele>
        <time>2022-08-24T08:44:52.000Z</time>
      </trkpt>
      <trkpt lat="40.45330761931836605072021484375" lon="-1.5144518204033374786376953125">
        <ele>1337.800048828125</ele>
        <time>2022-08-24T08:44:54.000Z</time>
      </trkpt>
      <trkpt lat="40.4532595910131931304931640625" lon="-1.51447822339832782745361328125">
        <ele>1338.199951171875</ele>
        <time>2022-08-24T08:44:57.000Z</time>
      </trkpt>
      <trkpt lat="40.45319261960685253143310546875" lon="-1.514508984982967376708984375">
        <ele>1339</ele>
        <time>2022-08-24T08:45:01.000Z</time>
      </trkpt>
      <trkpt lat="40.4531087167561054229736328125" lon="-1.514533795416355133056640625">
        <ele>1340</ele>
        <time>2022-08-24T08:45:06.000Z</time>
      </trkpt>
      <trkpt lat="40.45309170149266719818115234375" lon="-1.51453706435859203338623046875">
        <ele>1340.199951171875</ele>
        <time>2022-08-24T08:45:07.000Z</time>
      </trkpt>
      <trkpt lat="40.4529343731701374053955078125" lon="-1.51456455700099468231201171875">
        <ele>1341.199951171875</ele>
        <time>2022-08-24T08:45:14.000Z</time>
      </trkpt>
      <trkpt lat="40.45273915864527225494384765625" lon="-1.51459506712853908538818359375">
        <ele>1341.800048828125</ele>
        <time>2022-08-24T08:45:23.000Z</time>
      </trkpt>
      <trkpt lat="40.45269087888300418853759765625" lon="-1.51457704603672027587890625">
        <ele>1341.800048828125</ele>
        <time>2022-08-24T08:45:26.000Z</time>
      </trkpt>
      <trkpt lat="40.4526597820222377777099609375" lon="-1.5145198814570903778076171875">
        <ele>1342</ele>
        <time>2022-08-24T08:45:29.000Z</time>
      </trkpt>
      <trkpt lat="40.452687442302703857421875" lon="-1.51440949179232120513916015625">
        <ele>1342.4000244140625</ele>
        <time>2022-08-24T08:45:34.000Z</time>
      </trkpt>
      <trkpt lat="40.4527638852596282958984375" lon="-1.51436406187713146209716796875">
        <ele>1343.4000244140625</ele>
        <time>2022-08-24T08:45:38.000Z</time>
      </trkpt>
      <trkpt lat="40.4528029449284076690673828125" lon="-1.51436104439198970794677734375">
        <ele>1343.800048828125</ele>
        <time>2022-08-24T08:45:40.000Z</time>
      </trkpt>
      <trkpt lat="40.4528793878853321075439453125" lon="-1.51437160558998584747314453125">
        <ele>1344.4000244140625</ele>
        <time>2022-08-24T08:45:44.000Z</time>
      </trkpt>
      <trkpt lat="40.45295356772840023040771484375" lon="-1.51436381042003631591796875">
        <ele>1344.5999755859375</ele>
        <time>2022-08-24T08:45:48.000Z</time>
      </trkpt>
      <trkpt lat="40.45307896099984645843505859375" lon="-1.51426398195326328277587890625">
        <ele>1345.199951171875</ele>
        <time>2022-08-24T08:45:56.000Z</time>
      </trkpt>
      <trkpt lat="40.45309253968298435211181640625" lon="-1.51424621231853961944580078125">
        <ele>1345.5999755859375</ele>
        <time>2022-08-24T08:45:57.000Z</time>
      </trkpt>
      <trkpt lat="40.4531694017350673675537109375" lon="-1.51413171552121639251708984375">
        <ele>1346.5999755859375</ele>
        <time>2022-08-24T08:46:03.000Z</time>
      </trkpt>
      <trkpt lat="40.45318826101720333099365234375" lon="-1.5140887163579463958740234375">
        <ele>1347</ele>
        <time>2022-08-24T08:46:05.000Z</time>
      </trkpt>
      <trkpt lat="40.4532709904015064239501953125" lon="-1.51392392814159393310546875">
        <ele>1347.5999755859375</ele>
        <time>2022-08-24T08:46:13.000Z</time>
      </trkpt>
      <trkpt lat="40.45328490436077117919921875" lon="-1.5139076672494411468505859375">
        <ele>1347.800048828125</ele>
        <time>2022-08-24T08:46:14.000Z</time>
      </trkpt>
      <trkpt lat="40.45340451411902904510498046875" lon="-1.5138057433068752288818359375">
        <ele>1348.4000244140625</ele>
        <time>2022-08-24T08:46:22.000Z</time>
      </trkpt>
      <trkpt lat="40.4534594155848026275634765625" lon="-1.51378151960670948028564453125">
        <ele>1348.800048828125</ele>
        <time>2022-08-24T08:46:25.000Z</time>
      </trkpt>
      <trkpt lat="40.4535137303173542022705078125" lon="-1.51375805027782917022705078125">
        <ele>1349.199951171875</ele>
        <time>2022-08-24T08:46:29.000Z</time>
      </trkpt>
      <trkpt lat="40.45360266231000423431396484375" lon="-1.5137219242751598358154296875">
        <ele>1349.5999755859375</ele>
        <time>2022-08-24T08:46:34.000Z</time>
      </trkpt>
      <trkpt lat="40.45364960096776485443115234375" lon="-1.51369669474661350250244140625">
        <ele>1349.800048828125</ele>
        <time>2022-08-24T08:46:37.000Z</time>
      </trkpt>
      <trkpt lat="40.45379594899713993072509765625" lon="-1.51362343691289424896240234375">
        <ele>1350.5999755859375</ele>
        <time>2022-08-24T08:46:47.000Z</time>
      </trkpt>
      <trkpt lat="40.45381237752735614776611328125" lon="-1.513616479933261871337890625">
        <ele>1350.5999755859375</ele>
        <time>2022-08-24T08:46:48.000Z</time>
      </trkpt>
      <trkpt lat="40.45392863452434539794921875" lon="-1.5135613270103931427001953125">
        <ele>1351.5999755859375</ele>
        <time>2022-08-24T08:46:55.000Z</time>
      </trkpt>
      <trkpt lat="40.45394481159746646881103515625" lon="-1.5135546214878559112548828125">
        <ele>1351.800048828125</ele>
        <time>2022-08-24T08:46:56.000Z</time>
      </trkpt>
      <trkpt lat="40.45406500808894634246826171875" lon="-1.51349301449954509735107421875">
        <ele>1352.800048828125</ele>
        <time>2022-08-24T08:47:04.000Z</time>
      </trkpt>
      <trkpt lat="40.45419442467391490936279296875" lon="-1.5134292282164096832275390625">
        <ele>1354</ele>
        <time>2022-08-24T08:47:12.000Z</time>
      </trkpt>
      <trkpt lat="40.4543240927159786224365234375" lon="-1.5133698843419551849365234375">
        <ele>1355</ele>
        <time>2022-08-24T08:47:20.000Z</time>
      </trkpt>
      <trkpt lat="40.45434244908392429351806640625" lon="-1.5133625082671642303466796875">
        <ele>1355.199951171875</ele>
        <time>2022-08-24T08:47:21.000Z</time>
      </trkpt>
      <trkpt lat="40.45442844741046428680419921875" lon="-1.51333576999604701995849609375">
        <ele>1356.199951171875</ele>
        <time>2022-08-24T08:47:26.000Z</time>
      </trkpt>
      <trkpt lat="40.45449860394001007080078125" lon="-1.51331364177167415618896484375">
        <ele>1356.5999755859375</ele>
        <time>2022-08-24T08:47:30.000Z</time>
      </trkpt>
      <trkpt lat="40.4546253383159637451171875" lon="-1.5132750011980533599853515625">
        <ele>1357.199951171875</ele>
        <time>2022-08-24T08:47:37.000Z</time>
      </trkpt>
      <trkpt lat="40.4546640627086162567138671875" lon="-1.51325396262109279632568359375">
        <ele>1357.4000244140625</ele>
        <time>2022-08-24T08:47:39.000Z</time>
      </trkpt>
      <trkpt lat="40.45481585897505283355712890625" lon="-1.51316218078136444091796875">
        <ele>1358</ele>
        <time>2022-08-24T08:47:47.000Z</time>
      </trkpt>
      <trkpt lat="40.4548588581383228302001953125" lon="-1.51312085799872875213623046875">
        <ele>1358</ele>
        <time>2022-08-24T08:47:49.000Z</time>
      </trkpt>
      <trkpt lat="40.45489959418773651123046875" lon="-1.5130681358277797698974609375">
        <ele>1358.5999755859375</ele>
        <time>2022-08-24T08:47:55.000Z</time>
      </trkpt>
      <trkpt lat="40.45492566190659999847412109375" lon="-1.51300837285816669464111328125">
        <ele>1359.199951171875</ele>
        <time>2022-08-24T08:48:03.000Z</time>
      </trkpt>
      <trkpt lat="40.4549798928201198577880859375" lon="-1.51294894516468048095703125">
        <ele>1359.5999755859375</ele>
        <time>2022-08-24T08:48:10.000Z</time>
      </trkpt>
      <trkpt lat="40.4549996741116046905517578125" lon="-1.51293058879673480987548828125">
        <ele>1360</ele>
        <time>2022-08-24T08:48:12.000Z</time>
      </trkpt>
      <trkpt lat="40.4550553299486637115478515625" lon="-1.5128887630999088287353515625">
        <ele>1361</ele>
        <time>2022-08-24T08:48:18.000Z</time>
      </trkpt>
      <trkpt lat="40.4550650529563426971435546875" lon="-1.512884907424449920654296875">
        <ele>1361</ele>
        <time>2022-08-24T08:48:19.000Z</time>
      </trkpt>
      <trkpt lat="40.45513152144849300384521484375" lon="-1.512865461409091949462890625">
        <ele>1362</ele>
        <time>2022-08-24T08:48:25.000Z</time>
      </trkpt>
      <trkpt lat="40.4551585949957370758056640625" lon="-1.51285598985850811004638671875">
        <ele>1362.199951171875</ele>
        <time>2022-08-24T08:48:27.000Z</time>
      </trkpt>
      <trkpt lat="40.4552440904080867767333984375" lon="-1.51283168233931064605712890625">
        <ele>1363</ele>
        <time>2022-08-24T08:48:34.000Z</time>
      </trkpt>
      <trkpt lat="40.4552591778337955474853515625" lon="-1.51282288134098052978515625">
        <ele>1363.199951171875</ele>
        <time>2022-08-24T08:48:35.000Z</time>
      </trkpt>
      <trkpt lat="40.4553560726344585418701171875" lon="-1.51277518831193447113037109375">
        <ele>1364.199951171875</ele>
        <time>2022-08-24T08:48:41.000Z</time>
      </trkpt>
      <trkpt lat="40.45541499741375446319580078125" lon="-1.5127412416040897369384765625">
        <ele>1365.199951171875</ele>
        <time>2022-08-24T08:48:45.000Z</time>
      </trkpt>
      <trkpt lat="40.455449782311916351318359375" lon="-1.5127137489616870880126953125">
        <ele>1365.800048828125</ele>
        <time>2022-08-24T08:48:48.000Z</time>
      </trkpt>
      <trkpt lat="40.45547082088887691497802734375" lon="-1.5127023495733737945556640625">
        <ele>1366.199951171875</ele>
        <time>2022-08-24T08:48:50.000Z</time>
      </trkpt>
      <trkpt lat="40.455504097044467926025390625" lon="-1.51268466375768184661865234375">
        <ele>1366.5999755859375</ele>
        <time>2022-08-24T08:48:52.000Z</time>
      </trkpt>
      <trkpt lat="40.45556721277534961700439453125" lon="-1.51264409534633159637451171875">
        <ele>1367.199951171875</ele>
        <time>2022-08-24T08:48:56.000Z</time>
      </trkpt>
      <trkpt lat="40.45560258440673351287841796875" lon="-1.5126198716461658477783203125">
        <ele>1367.4000244140625</ele>
        <time>2022-08-24T08:48:57.000Z</time>
      </trkpt>
      <trkpt lat="40.45566997490823268890380859375" lon="-1.5125658921897411346435546875">
        <ele>1368.5999755859375</ele>
        <time>2022-08-24T08:49:02.000Z</time>
      </trkpt>
      <trkpt lat="40.45568573288619518280029296875" lon="-1.51255474425852298736572265625">
        <ele>1369</ele>
        <time>2022-08-24T08:49:04.000Z</time>
      </trkpt>
      <trkpt lat="40.45598454773426055908203125" lon="-1.51250311173498630523681640625">
        <ele>1372</ele>
        <time>2022-08-24T08:49:58.000Z</time>
      </trkpt>
      <trkpt lat="40.45603676699101924896240234375" lon="-1.51249405927956104278564453125">
        <ele>1373</ele>
        <time>2022-08-24T08:50:02.000Z</time>
      </trkpt>
      <trkpt lat="40.456049256026744842529296875" lon="-1.5124911256134510040283203125">
        <ele>1373.199951171875</ele>
        <time>2022-08-24T08:50:03.000Z</time>
      </trkpt>
      <trkpt lat="40.4561436362564563751220703125" lon="-1.5124995075166225433349609375">
        <ele>1374.199951171875</ele>
        <time>2022-08-24T08:50:09.000Z</time>
      </trkpt>
      <trkpt lat="40.45617640949785709381103515625" lon="-1.51250562630593776702880859375">
        <ele>1374.800048828125</ele>
        <time>2022-08-24T08:50:11.000Z</time>
      </trkpt>
      <trkpt lat="40.4562063328921794891357421875" lon="-1.51251585222780704498291015625">
        <ele>1375.4000244140625</ele>
        <time>2022-08-24T08:50:13.000Z</time>
      </trkpt>
      <trkpt lat="40.45631152577698230743408203125" lon="-1.512570083141326904296875">
        <ele>1376.4000244140625</ele>
        <time>2022-08-24T08:50:21.000Z</time>
      </trkpt>
      <trkpt lat="40.45632158406078815460205078125" lon="-1.51257754303514957427978515625">
        <ele>1376.4000244140625</ele>
        <time>2022-08-24T08:50:22.000Z</time>
      </trkpt>
      <trkpt lat="40.45636047609150409698486328125" lon="-1.51265566237270832061767578125">
        <ele>1377.199951171875</ele>
        <time>2022-08-24T08:50:28.000Z</time>
      </trkpt>
      <trkpt lat="40.45637690462172031402587890625" lon="-1.512690447270870208740234375">
        <ele>1377.5999755859375</ele>
        <time>2022-08-24T08:50:31.000Z</time>
      </trkpt>
      <trkpt lat="40.45644731260836124420166015625" lon="-1.5127399004995822906494140625">
        <ele>1378.4000244140625</ele>
        <time>2022-08-24T08:50:38.000Z</time>
      </trkpt>
      <trkpt lat="40.45645569451153278350830078125" lon="-1.5127502940595149993896484375">
        <ele>1378.5999755859375</ele>
        <time>2022-08-24T08:50:40.000Z</time>
      </trkpt>
      <trkpt lat="40.45646206475794315338134765625" lon="-1.5127687342464923858642578125">
        <ele>1379.199951171875</ele>
        <time>2022-08-24T08:50:43.000Z</time>
      </trkpt>
      <trkpt lat="40.45647312887012958526611328125" lon="-1.51277937926352024078369140625">
        <ele>1379.4000244140625</ele>
        <time>2022-08-24T08:50:45.000Z</time>
      </trkpt>
      <trkpt lat="40.45648670755326747894287109375" lon="-1.51278289966285228729248046875">
        <ele>1379.800048828125</ele>
        <time>2022-08-24T08:50:48.000Z</time>
      </trkpt>
      <trkpt lat="40.4565198160707950592041015625" lon="-1.512793041765689849853515625">
        <ele>1380.199951171875</ele>
        <time>2022-08-24T08:50:53.000Z</time>
      </trkpt>
      <trkpt lat="40.45653666369616985321044921875" lon="-1.512796394526958465576171875">
        <ele>1380.5999755859375</ele>
        <time>2022-08-24T08:50:55.000Z</time>
      </trkpt>
      <trkpt lat="40.4565784893929958343505859375" lon="-1.51280083693563938140869140625">
        <ele>1381.5999755859375</ele>
        <time>2022-08-24T08:51:00.000Z</time>
      </trkpt>
      <trkpt lat="40.45665132813155651092529296875" lon="-1.512826569378376007080078125">
        <ele>1382.5999755859375</ele>
        <time>2022-08-24T08:51:07.000Z</time>
      </trkpt>
      <trkpt lat="40.45667228288948535919189453125" lon="-1.51284023188054561614990234375">
        <ele>1383.199951171875</ele>
        <time>2022-08-24T08:51:09.000Z</time>
      </trkpt>
      <trkpt lat="40.45670698396861553192138671875" lon="-1.51285649277269840240478515625">
        <ele>1383.800048828125</ele>
        <time>2022-08-24T08:51:12.000Z</time>
      </trkpt>
      <trkpt lat="40.456792227923870086669921875" lon="-1.51287518441677093505859375">
        <ele>1385</ele>
        <time>2022-08-24T08:51:18.000Z</time>
      </trkpt>
      <trkpt lat="40.4568396694958209991455078125" lon="-1.5128917805850505828857421875">
        <ele>1385.4000244140625</ele>
        <time>2022-08-24T08:51:22.000Z</time>
      </trkpt>
      <trkpt lat="40.45686573721468448638916015625" lon="-1.5129025094211101531982421875">
        <ele>1386</ele>
        <time>2022-08-24T08:51:24.000Z</time>
      </trkpt>
      <trkpt lat="40.4569781385362148284912109375" lon="-1.512916088104248046875">
        <ele>1386.800048828125</ele>
        <time>2022-08-24T08:51:31.000Z</time>
      </trkpt>
      <trkpt lat="40.4570125043392181396484375" lon="-1.51291432790458202362060546875">
        <ele>1387</ele>
        <time>2022-08-24T08:51:33.000Z</time>
      </trkpt>
      <trkpt lat="40.45709825120866298675537109375" lon="-1.51292036287486553192138671875">
        <ele>1387.800048828125</ele>
        <time>2022-08-24T08:51:38.000Z</time>
      </trkpt>
      <trkpt lat="40.4571249894797801971435546875" lon="-1.51293176226317882537841796875">
        <ele>1388</ele>
        <time>2022-08-24T08:51:40.000Z</time>
      </trkpt>
      <trkpt lat="40.457276366651058197021484375" lon="-1.512929163873195648193359375">
        <ele>1388.800048828125</ele>
        <time>2022-08-24T08:51:46.000Z</time>
      </trkpt>
      <trkpt lat="40.45738172717392444610595703125" lon="-1.51296906173229217529296875">
        <ele>1389</ele>
        <time>2022-08-24T08:51:51.000Z</time>
      </trkpt>
      <trkpt lat="40.45744660310447216033935546875" lon="-1.51303301565349102020263671875">
        <ele>1389</ele>
        <time>2022-08-24T08:51:54.000Z</time>
      </trkpt>
      <trkpt lat="40.45758423395454883575439453125" lon="-1.5132250450551509857177734375">
        <ele>1389</ele>
        <time>2022-08-24T08:51:59.000Z</time>
      </trkpt>
      <trkpt lat="40.45765154063701629638671875" lon="-1.51324943639338016510009765625">
        <ele>1389</ele>
        <time>2022-08-24T08:52:03.000Z</time>
      </trkpt>
      <trkpt lat="40.45766620896756649017333984375" lon="-1.513243652880191802978515625">
        <ele>1389</ele>
        <time>2022-08-24T08:52:05.000Z</time>
      </trkpt>
      <trkpt lat="40.45797298662364482879638671875" lon="-1.51313309557735919952392578125">
        <ele>1389.800048828125</ele>
        <time>2022-08-24T08:52:28.000Z</time>
      </trkpt>
      <trkpt lat="40.45799343846738338470458984375" lon="-1.51312706060707569122314453125">
        <ele>1390</ele>
        <time>2022-08-24T08:52:29.000Z</time>
      </trkpt>
      <trkpt lat="40.458009950816631317138671875" lon="-1.5131221152842044830322265625">
        <ele>1390.199951171875</ele>
        <time>2022-08-24T08:52:30.000Z</time>
      </trkpt>
      <trkpt lat="40.4580560512840747833251953125" lon="-1.513110212981700897216796875">
        <ele>1391</ele>
        <time>2022-08-24T08:52:33.000Z</time>
      </trkpt>
      <trkpt lat="40.458107180893421173095703125" lon="-1.51309604756534099578857421875">
        <ele>1391.5999755859375</ele>
        <time>2022-08-24T08:52:37.000Z</time>
      </trkpt>
      <trkpt lat="40.45813425444066524505615234375" lon="-1.5130929462611675262451171875">
        <ele>1392</ele>
        <time>2022-08-24T08:52:39.000Z</time>
      </trkpt>
      <trkpt lat="40.45824053697288036346435546875" lon="-1.513079702854156494140625">
        <ele>1392.800048828125</ele>
        <time>2022-08-24T08:52:44.000Z</time>
      </trkpt>
      <trkpt lat="40.45829250477254390716552734375" lon="-1.5130574069917201995849609375">
        <ele>1393.199951171875</ele>
        <time>2022-08-24T08:52:46.000Z</time>
      </trkpt>
      <trkpt lat="40.45846098102629184722900390625" lon="-1.51299630291759967803955078125">
        <ele>1393.800048828125</ele>
        <time>2022-08-24T08:52:52.000Z</time>
      </trkpt>
      <trkpt lat="40.4584811814129352569580078125" lon="-1.5129940398037433624267578125">
        <ele>1394</ele>
        <time>2022-08-24T08:52:53.000Z</time>
      </trkpt>
      <trkpt lat="40.4585683532059192657470703125" lon="-1.513016335666179656982421875">
        <ele>1395</ele>
        <time>2022-08-24T08:52:59.000Z</time>
      </trkpt>
      <trkpt lat="40.458587296307086944580078125" lon="-1.51301390491425991058349609375">
        <ele>1395.199951171875</ele>
        <time>2022-08-24T08:53:00.000Z</time>
      </trkpt>
      <trkpt lat="40.45866583473980426788330078125" lon="-1.51303100399672985076904296875">
        <ele>1396</ele>
        <time>2022-08-24T08:53:05.000Z</time>
      </trkpt>
      <trkpt lat="40.45870489440858364105224609375" lon="-1.5130366198718547821044921875">
        <ele>1396.5999755859375</ele>
        <time>2022-08-24T08:53:08.000Z</time>
      </trkpt>
      <trkpt lat="40.45878150500357151031494140625" lon="-1.5130838938057422637939453125">
        <ele>1397</ele>
        <time>2022-08-24T08:53:15.000Z</time>
      </trkpt>
      <trkpt lat="40.45881402678787708282470703125" lon="-1.51307844556868076324462890625">
        <ele>1397</ele>
        <time>2022-08-24T08:53:17.000Z</time>
      </trkpt>
      <trkpt lat="40.45886482112109661102294921875" lon="-1.5130815468728542327880859375">
        <ele>1397.199951171875</ele>
        <time>2022-08-24T08:53:21.000Z</time>
      </trkpt>
      <trkpt lat="40.4589539207518100738525390625" lon="-1.5130916051566600799560546875">
        <ele>1398</ele>
        <time>2022-08-24T08:53:27.000Z</time>
      </trkpt>
      <trkpt lat="40.45899826101958751678466796875" lon="-1.51308766566216945648193359375">
        <ele>1398.199951171875</ele>
        <time>2022-08-24T08:53:29.000Z</time>
      </trkpt>
      <trkpt lat="40.45912533067166805267333984375" lon="-1.5130667947232723236083984375">
        <ele>1399</ele>
        <time>2022-08-24T08:53:35.000Z</time>
      </trkpt>
      <trkpt lat="40.4591609537601470947265625" lon="-1.513067297637462615966796875">
        <ele>1399.199951171875</ele>
        <time>2022-08-24T08:53:37.000Z</time>
      </trkpt>
      <trkpt lat="40.459279306232929229736328125" lon="-1.5130644477903842926025390625">
        <ele>1400</ele>
        <time>2022-08-24T08:53:43.000Z</time>
      </trkpt>
      <trkpt lat="40.4593733511865139007568359375" lon="-1.5130721591413021087646484375">
        <ele>1400.5999755859375</ele>
        <time>2022-08-24T08:53:48.000Z</time>
      </trkpt>
      <trkpt lat="40.45943395234644412994384765625" lon="-1.5130835585296154022216796875">
        <ele>1400.800048828125</ele>
        <time>2022-08-24T08:53:51.000Z</time>
      </trkpt>
      <trkpt lat="40.45951173640787601470947265625" lon="-1.5130973048508167266845703125">
        <ele>1401.4000244140625</ele>
        <time>2022-08-24T08:53:55.000Z</time>
      </trkpt>
      <trkpt lat="40.45958415605127811431884765625" lon="-1.51311297900974750518798828125">
        <ele>1402</ele>
        <time>2022-08-24T08:53:59.000Z</time>
      </trkpt>
      <trkpt lat="40.459695048630237579345703125" lon="-1.51312060654163360595703125">
        <ele>1402.5999755859375</ele>
        <time>2022-08-24T08:54:05.000Z</time>
      </trkpt>
      <trkpt lat="40.4597424902021884918212890625" lon="-1.5131486020982265472412109375">
        <ele>1403</ele>
        <time>2022-08-24T08:54:08.000Z</time>
      </trkpt>
      <trkpt lat="40.4597988165915012359619140625" lon="-1.51318254880607128143310546875">
        <ele>1403.4000244140625</ele>
        <time>2022-08-24T08:54:12.000Z</time>
      </trkpt>
      <trkpt lat="40.45985497534275054931640625" lon="-1.5132220275700092315673828125">
        <ele>1403.800048828125</ele>
        <time>2022-08-24T08:54:16.000Z</time>
      </trkpt>
      <trkpt lat="40.459895543754100799560546875" lon="-1.5132364444434642791748046875">
        <ele>1404.199951171875</ele>
        <time>2022-08-24T08:54:19.000Z</time>
      </trkpt>
      <trkpt lat="40.4599548876285552978515625" lon="-1.51328614912927150726318359375">
        <ele>1405</ele>
        <time>2022-08-24T08:54:24.000Z</time>
      </trkpt>
      <trkpt lat="40.4599897563457489013671875" lon="-1.51330794207751750946044921875">
        <ele>1405.199951171875</ele>
        <time>2022-08-24T08:54:27.000Z</time>
      </trkpt>
      <trkpt lat="40.46005656011402606964111328125" lon="-1.5133430622518062591552734375">
        <ele>1406</ele>
        <time>2022-08-24T08:54:33.000Z</time>
      </trkpt>
      <trkpt lat="40.46007919125258922576904296875" lon="-1.51334767229855060577392578125">
        <ele>1406.199951171875</ele>
        <time>2022-08-24T08:54:35.000Z</time>
      </trkpt>
      <trkpt lat="40.46016535721719264984130859375" lon="-1.513346917927265167236328125">
        <ele>1407</ele>
        <time>2022-08-24T08:54:41.000Z</time>
      </trkpt>
      <trkpt lat="40.46020098030567169189453125" lon="-1.5133484266698360443115234375">
        <ele>1407.4000244140625</ele>
        <time>2022-08-24T08:54:44.000Z</time>
      </trkpt>
      <trkpt lat="40.460300557315349578857421875" lon="-1.51335538364946842193603515625">
        <ele>1408.199951171875</ele>
        <time>2022-08-24T08:54:50.000Z</time>
      </trkpt>
      <trkpt lat="40.46033299528062343597412109375" lon="-1.51335538364946842193603515625">
        <ele>1408.5999755859375</ele>
        <time>2022-08-24T08:54:52.000Z</time>
      </trkpt>
      <trkpt lat="40.460372306406497955322265625" lon="-1.51336225681006908416748046875">
        <ele>1409.199951171875</ele>
        <time>2022-08-24T08:54:55.000Z</time>
      </trkpt>
      <trkpt lat="40.46044279821217060089111328125" lon="-1.513380110263824462890625">
        <ele>1409.4000244140625</ele>
        <time>2022-08-24T08:54:59.000Z</time>
      </trkpt>
      <trkpt lat="40.46055503189563751220703125" lon="-1.513417661190032958984375">
        <ele>1410</ele>
        <time>2022-08-24T08:55:06.000Z</time>
      </trkpt>
      <trkpt lat="40.46057514846324920654296875" lon="-1.51342478580772876739501953125">
        <ele>1410</ele>
        <time>2022-08-24T08:55:07.000Z</time>
      </trkpt>
      <trkpt lat="40.46072744764387607574462890625" lon="-1.513455547392368316650390625">
        <ele>1410.800048828125</ele>
        <time>2022-08-24T08:55:15.000Z</time>
      </trkpt>
      <trkpt lat="40.4607754759490489959716796875" lon="-1.5134667791426181793212890625">
        <ele>1411</ele>
        <time>2022-08-24T08:55:18.000Z</time>
      </trkpt>
      <trkpt lat="40.46088100410997867584228515625" lon="-1.51348815299570560455322265625">
        <ele>1411.5999755859375</ele>
        <time>2022-08-24T08:55:24.000Z</time>
      </trkpt>
      <trkpt lat="40.460977815091609954833984375" lon="-1.513523943722248077392578125">
        <ele>1412.199951171875</ele>
        <time>2022-08-24T08:55:30.000Z</time>
      </trkpt>
      <trkpt lat="40.46099550090730190277099609375" lon="-1.5135251171886920928955078125">
        <ele>1412.4000244140625</ele>
        <time>2022-08-24T08:55:31.000Z</time>
      </trkpt>
      <trkpt lat="40.4610919766128063201904296875" lon="-1.51354431174695491790771484375">
        <ele>1413</ele>
        <time>2022-08-24T08:55:37.000Z</time>
      </trkpt>
      <trkpt lat="40.4611221514642238616943359375" lon="-1.5135499276220798492431640625">
        <ele>1413.4000244140625</ele>
        <time>2022-08-24T08:55:39.000Z</time>
      </trkpt>
      <trkpt lat="40.46117370016872882843017578125" lon="-1.51355856098234653472900390625">
        <ele>1414</ele>
        <time>2022-08-24T08:55:43.000Z</time>
      </trkpt>
      <trkpt lat="40.46123321168124675750732421875" lon="-1.51356157846748828887939453125">
        <ele>1415</ele>
        <time>2022-08-24T08:55:47.000Z</time>
      </trkpt>
      <trkpt lat="40.4612477123737335205078125" lon="-1.5135636739432811737060546875">
        <ele>1415.199951171875</ele>
        <time>2022-08-24T08:55:48.000Z</time>
      </trkpt>
      <trkpt lat="40.46132809482514858245849609375" lon="-1.513560824096202850341796875">
        <ele>1416</ele>
        <time>2022-08-24T08:55:53.000Z</time>
      </trkpt>
      <trkpt lat="40.46143605373799800872802734375" lon="-1.513576246798038482666015625">
        <ele>1416.5999755859375</ele>
        <time>2022-08-24T08:56:00.000Z</time>
      </trkpt>
      <trkpt lat="40.4615466110408306121826171875" lon="-1.51360231451690196990966796875">
        <ele>1417.199951171875</ele>
        <time>2022-08-24T08:56:07.000Z</time>
      </trkpt>
      <trkpt lat="40.46161182224750518798828125" lon="-1.51362578384578227996826171875">
        <ele>1417.5999755859375</ele>
        <time>2022-08-24T08:56:11.000Z</time>
      </trkpt>
      <trkpt lat="40.4616763629019260406494140625" lon="-1.51363852433860301971435546875">
        <ele>1418.199951171875</ele>
        <time>2022-08-24T08:56:15.000Z</time>
      </trkpt>
      <trkpt lat="40.46171885915100574493408203125" lon="-1.5136545337736606597900390625">
        <ele>1418.5999755859375</ele>
        <time>2022-08-24T08:56:18.000Z</time>
      </trkpt>
      <trkpt lat="40.46177485026419162750244140625" lon="-1.51367020793259143829345703125">
        <ele>1419.4000244140625</ele>
        <time>2022-08-24T08:56:22.000Z</time>
      </trkpt>
      <trkpt lat="40.4618399776518344879150390625" lon="-1.51366601698100566864013671875">
        <ele>1419.5999755859375</ele>
        <time>2022-08-24T08:56:26.000Z</time>
      </trkpt>
      <trkpt lat="40.4619569890201091766357421875" lon="-1.513677500188350677490234375">
        <ele>1420.199951171875</ele>
        <time>2022-08-24T08:56:34.000Z</time>
      </trkpt>
      <trkpt lat="40.46197266317903995513916015625" lon="-1.51368244551122188568115234375">
        <ele>1420.4000244140625</ele>
        <time>2022-08-24T08:56:35.000Z</time>
      </trkpt>
      <trkpt lat="40.4620726592838764190673828125" lon="-1.5136870555579662322998046875">
        <ele>1421.199951171875</ele>
        <time>2022-08-24T08:56:42.000Z</time>
      </trkpt>
      <trkpt lat="40.46209537424147129058837890625" lon="-1.51368579827249050140380859375">
        <ele>1421.4000244140625</ele>
        <time>2022-08-24T08:56:44.000Z</time>
      </trkpt>
      <trkpt lat="40.46218858100473880767822265625" lon="-1.5137058310210704803466796875">
        <ele>1422.199951171875</ele>
        <time>2022-08-24T08:56:52.000Z</time>
      </trkpt>
      <trkpt lat="40.46229084022343158721923828125" lon="-1.5137296356260776519775390625">
        <ele>1423.5999755859375</ele>
        <time>2022-08-24T08:56:59.000Z</time>
      </trkpt>
      <trkpt lat="40.4623050056397914886474609375" lon="-1.51373374275863170623779296875">
        <ele>1423.800048828125</ele>
        <time>2022-08-24T08:57:00.000Z</time>
      </trkpt>
      <trkpt lat="40.46238186769187450408935546875" lon="-1.5137360058724880218505859375">
        <ele>1424.4000244140625</ele>
        <time>2022-08-24T08:57:05.000Z</time>
      </trkpt>
      <trkpt lat="40.46239100396633148193359375" lon="-1.51374028064310550689697265625">
        <ele>1424.4000244140625</ele>
        <time>2022-08-24T08:57:06.000Z</time>
      </trkpt>
      <trkpt lat="40.462403409183025360107421875" lon="-1.513747908174991607666015625">
        <ele>1424.5999755859375</ele>
        <time>2022-08-24T08:57:07.000Z</time>
      </trkpt>
      <trkpt lat="40.462416149675846099853515625" lon="-1.5137531049549579620361328125">
        <ele>1424.800048828125</ele>
        <time>2022-08-24T08:57:08.000Z</time>
      </trkpt>
      <trkpt lat="40.46248496510088443756103515625" lon="-1.51375805027782917022705078125">
        <ele>1425.5999755859375</ele>
        <time>2022-08-24T08:57:13.000Z</time>
      </trkpt>
      <trkpt lat="40.4625219292938709259033203125" lon="-1.5137611515820026397705078125">
        <ele>1425.800048828125</ele>
        <time>2022-08-24T08:57:15.000Z</time>
      </trkpt>
      <trkpt lat="40.46263265423476696014404296875" lon="-1.513763330876827239990234375">
        <ele>1426.5999755859375</ele>
        <time>2022-08-24T08:57:21.000Z</time>
      </trkpt>
      <trkpt lat="40.46265981160104274749755859375" lon="-1.51377347297966480255126953125">
        <ele>1426.5999755859375</ele>
        <time>2022-08-24T08:57:23.000Z</time>
      </trkpt>
      <trkpt lat="40.46276651322841644287109375" lon="-1.51379710994660854339599609375">
        <ele>1427.5999755859375</ele>
        <time>2022-08-24T08:57:30.000Z</time>
      </trkpt>
      <trkpt lat="40.46278059482574462890625" lon="-1.51379694230854511260986328125">
        <ele>1427.800048828125</ele>
        <time>2022-08-24T08:57:31.000Z</time>
      </trkpt>
      <trkpt lat="40.462824515998363494873046875" lon="-1.5138003788888454437255859375">
        <ele>1428.800048828125</ele>
        <time>2022-08-24T08:57:35.000Z</time>
      </trkpt>
      <trkpt lat="40.4629004560410976409912109375" lon="-1.5137976966798305511474609375">
        <ele>1429.4000244140625</ele>
        <time>2022-08-24T08:57:39.000Z</time>
      </trkpt>
      <trkpt lat="40.46294085681438446044921875" lon="-1.513802893459796905517578125">
        <ele>1429.800048828125</ele>
        <time>2022-08-24T08:57:41.000Z</time>
      </trkpt>
      <trkpt lat="40.463053174316883087158203125" lon="-1.51381337083876132965087890625">
        <ele>1430.5999755859375</ele>
        <time>2022-08-24T08:57:48.000Z</time>
      </trkpt>
      <trkpt lat="40.4630815051496028900146484375" lon="-1.51381974108517169952392578125">
        <ele>1431</ele>
        <time>2022-08-24T08:57:50.000Z</time>
      </trkpt>
      <trkpt lat="40.46317881904542446136474609375" lon="-1.51383046992123126983642578125">
        <ele>1431.800048828125</ele>
        <time>2022-08-24T08:57:57.000Z</time>
      </trkpt>
      <trkpt lat="40.463190972805023193359375" lon="-1.5138355828821659088134765625">
        <ele>1431.800048828125</ele>
        <time>2022-08-24T08:57:58.000Z</time>
      </trkpt>
      <trkpt lat="40.4632850177586078643798828125" lon="-1.51384723372757434844970703125">
        <ele>1432.5999755859375</ele>
        <time>2022-08-24T08:58:04.000Z</time>
      </trkpt>
      <trkpt lat="40.46331024728715419769287109375" lon="-1.5138533525168895721435546875">
        <ele>1433</ele>
        <time>2022-08-24T08:58:06.000Z</time>
      </trkpt>
      <trkpt lat="40.46341854147613048553466796875" lon="-1.51386969722807407379150390625">
        <ele>1433.800048828125</ele>
        <time>2022-08-24T08:58:12.000Z</time>
      </trkpt>
      <trkpt lat="40.46343748457729816436767578125" lon="-1.513871289789676666259765625">
        <ele>1434</ele>
        <time>2022-08-24T08:58:13.000Z</time>
      </trkpt>
      <trkpt lat="40.4635404981672763824462890625" lon="-1.51387942023575305938720703125">
        <ele>1434.5999755859375</ele>
        <time>2022-08-24T08:58:20.000Z</time>
      </trkpt>
      <trkpt lat="40.463565476238727569580078125" lon="-1.51388444937765598297119140625">
        <ele>1435</ele>
        <time>2022-08-24T08:58:22.000Z</time>
      </trkpt>
      <trkpt lat="40.46366044320166110992431640625" lon="-1.5138919092714786529541015625">
        <ele>1435.800048828125</ele>
        <time>2022-08-24T08:58:29.000Z</time>
      </trkpt>
      <trkpt lat="40.46371609903872013092041015625" lon="-1.5138855390250682830810546875">
        <ele>1436</ele>
        <time>2022-08-24T08:58:32.000Z</time>
      </trkpt>
      <trkpt lat="40.4637775383889675140380859375" lon="-1.51387807913124561309814453125">
        <ele>1436.4000244140625</ele>
        <time>2022-08-24T08:58:36.000Z</time>
      </trkpt>
      <trkpt lat="40.463888682425022125244140625" lon="-1.51385729201138019561767578125">
        <ele>1437</ele>
        <time>2022-08-24T08:58:42.000Z</time>
      </trkpt>
      <trkpt lat="40.46393637545406818389892578125" lon="-1.5138610638678073883056640625">
        <ele>1437.5999755859375</ele>
        <time>2022-08-24T08:58:45.000Z</time>
      </trkpt>
      <trkpt lat="40.46399253420531749725341796875" lon="-1.51386382989585399627685546875">
        <ele>1438.199951171875</ele>
        <time>2022-08-24T08:58:49.000Z</time>
      </trkpt>
      <trkpt lat="40.46404265798628330230712890625" lon="-1.51387589983642101287841796875">
        <ele>1438.4000244140625</ele>
        <time>2022-08-24T08:58:53.000Z</time>
      </trkpt>
      <trkpt lat="40.4641057737171649932861328125" lon="-1.51386818848550319671630859375">
        <ele>1439.199951171875</ele>
        <time>2022-08-24T08:58:57.000Z</time>
      </trkpt>
      <trkpt lat="40.46417861245572566986083984375" lon="-1.51385259814560413360595703125">
        <ele>1439.800048828125</ele>
        <time>2022-08-24T08:59:02.000Z</time>
      </trkpt>
      <trkpt lat="40.46421230770647525787353515625" lon="-1.513845138251781463623046875">
        <ele>1440.199951171875</ele>
        <time>2022-08-24T08:59:04.000Z</time>
      </trkpt>
      <trkpt lat="40.46428455971181392669677734375" lon="-1.51383600197732448577880859375">
        <ele>1440.800048828125</ele>
        <time>2022-08-24T08:59:08.000Z</time>
      </trkpt>
      <trkpt lat="40.464312471449375152587890625" lon="-1.51383482851088047027587890625">
        <ele>1441.4000244140625</ele>
        <time>2022-08-24T08:59:10.000Z</time>
      </trkpt>
      <trkpt lat="40.46443811617791652679443359375" lon="-1.51383046992123126983642578125">
        <ele>1442</ele>
        <time>2022-08-24T08:59:18.000Z</time>
      </trkpt>
      <trkpt lat="40.464465357363224029541015625" lon="-1.513841114938259124755859375">
        <ele>1442.199951171875</ele>
        <time>2022-08-24T08:59:20.000Z</time>
      </trkpt>
      <trkpt lat="40.4645550437271595001220703125" lon="-1.5138335712254047393798828125">
        <ele>1443.199951171875</ele>
        <time>2022-08-24T08:59:26.000Z</time>
      </trkpt>
      <trkpt lat="40.46457038260996341705322265625" lon="-1.51383181102573871612548828125">
        <ele>1443.4000244140625</ele>
        <time>2022-08-24T08:59:27.000Z</time>
      </trkpt>
      <trkpt lat="40.4646951891481876373291015625" lon="-1.51380498893558979034423828125">
        <ele>1444</ele>
        <time>2022-08-24T08:59:34.000Z</time>
      </trkpt>
      <trkpt lat="40.46473533846437931060791015625" lon="-1.51380599476397037506103515625">
        <ele>1444.199951171875</ele>
        <time>2022-08-24T08:59:36.000Z</time>
      </trkpt>
      <trkpt lat="40.4648517630994319915771484375" lon="-1.5138235129415988922119140625">
        <ele>1445.199951171875</ele>
        <time>2022-08-24T08:59:43.000Z</time>
      </trkpt>
      <trkpt lat="40.46487799845635890960693359375" lon="-1.51383130811154842376708984375">
        <ele>1445.4000244140625</ele>
        <time>2022-08-24T08:59:45.000Z</time>
      </trkpt>
      <trkpt lat="40.4650160484015941619873046875" lon="-1.51384756900370121002197265625">
        <ele>1446.199951171875</ele>
        <time>2022-08-24T08:59:52.000Z</time>
      </trkpt>
      <trkpt lat="40.4650321416556835174560546875" lon="-1.51385259814560413360595703125">
        <ele>1446.4000244140625</ele>
        <time>2022-08-24T08:59:53.000Z</time>
      </trkpt>
      <trkpt lat="40.465111434459686279296875" lon="-1.513871960341930389404296875">
        <ele>1447.5999755859375</ele>
        <time>2022-08-24T08:59:58.000Z</time>
      </trkpt>
      <trkpt lat="40.46512828208506107330322265625" lon="-1.51387187652289867401123046875">
        <ele>1447.800048828125</ele>
        <time>2022-08-24T08:59:59.000Z</time>
      </trkpt>
      <trkpt lat="40.4651892185211181640625" lon="-1.51388444937765598297119140625">
        <ele>1448.5999755859375</ele>
        <time>2022-08-24T09:00:04.000Z</time>
      </trkpt>
      <trkpt lat="40.46522802673280239105224609375" lon="-1.51388478465378284454345703125">
        <ele>1449.199951171875</ele>
        <time>2022-08-24T09:00:07.000Z</time>
      </trkpt>
      <trkpt lat="40.46530120074748992919921875" lon="-1.5138945914804935455322265625">
        <ele>1449.800048828125</ele>
        <time>2022-08-24T09:00:11.000Z</time>
      </trkpt>
      <trkpt lat="40.4653714410960674285888671875" lon="-1.513892747461795806884765625">
        <ele>1450.199951171875</ele>
        <time>2022-08-24T09:00:15.000Z</time>
      </trkpt>
      <trkpt lat="40.46548803336918354034423828125" lon="-1.51389836333692073822021484375">
        <ele>1450.800048828125</ele>
        <time>2022-08-24T09:00:22.000Z</time>
      </trkpt>
      <trkpt lat="40.46550597064197063446044921875" lon="-1.5138952620327472686767578125">
        <ele>1451</ele>
        <time>2022-08-24T09:00:23.000Z</time>
      </trkpt>
      <trkpt lat="40.46562180854380130767822265625" lon="-1.5139259397983551025390625">
        <ele>1451.5999755859375</ele>
        <time>2022-08-24T09:00:31.000Z</time>
      </trkpt>
      <trkpt lat="40.4656513966619968414306640625" lon="-1.51393272913992404937744140625">
        <ele>1451.800048828125</ele>
        <time>2022-08-24T09:00:33.000Z</time>
      </trkpt>
      <trkpt lat="40.46574368141591548919677734375" lon="-1.51394144631922245025634765625">
        <ele>1452.5999755859375</ele>
        <time>2022-08-24T09:00:40.000Z</time>
      </trkpt>
      <trkpt lat="40.4657674022018909454345703125" lon="-1.51394513435661792755126953125">
        <ele>1452.800048828125</ele>
        <time>2022-08-24T09:00:42.000Z</time>
      </trkpt>
      <trkpt lat="40.46586178243160247802734375" lon="-1.51395284570753574371337890625">
        <ele>1453.800048828125</ele>
        <time>2022-08-24T09:00:48.000Z</time>
      </trkpt>
      <trkpt lat="40.4659635387361049652099609375" lon="-1.51394882239401340484619140625">
        <ele>1454.800048828125</ele>
        <time>2022-08-24T09:00:54.000Z</time>
      </trkpt>
      <trkpt lat="40.465991199016571044921875" lon="-1.513954102993011474609375">
        <ele>1455</ele>
        <time>2022-08-24T09:00:56.000Z</time>
      </trkpt>
      <trkpt lat="40.46610075049102306365966796875" lon="-1.51398654095828533172607421875">
        <ele>1455.800048828125</ele>
        <time>2022-08-24T09:01:03.000Z</time>
      </trkpt>
      <trkpt lat="40.4661553166806697845458984375" lon="-1.51399710215628147125244140625">
        <ele>1456.4000244140625</ele>
        <time>2022-08-24T09:01:06.000Z</time>
      </trkpt>
      <trkpt lat="40.46618440188467502593994140625" lon="-1.513996012508869171142578125">
        <ele>1457</ele>
        <time>2022-08-24T09:01:08.000Z</time>
      </trkpt>
      <trkpt lat="40.466232933104038238525390625" lon="-1.51401939801871776580810546875">
        <ele>1457.800048828125</ele>
        <time>2022-08-24T09:01:13.000Z</time>
      </trkpt>
      <trkpt lat="40.46626151539385318756103515625" lon="-1.51403012685477733612060546875">
        <ele>1458</ele>
        <time>2022-08-24T09:01:15.000Z</time>
      </trkpt>
      <trkpt lat="40.4663196019828319549560546875" lon="-1.51405493728816509246826171875">
        <ele>1458.5999755859375</ele>
        <time>2022-08-24T09:01:20.000Z</time>
      </trkpt>
      <trkpt lat="40.4663776047527790069580078125" lon="-1.51408242993056774139404296875">
        <ele>1459</ele>
        <time>2022-08-24T09:01:25.000Z</time>
      </trkpt>
      <trkpt lat="40.46640316955745220184326171875" lon="-1.5140964277088642120361328125">
        <ele>1459.4000244140625</ele>
        <time>2022-08-24T09:01:27.000Z</time>
      </trkpt>
      <trkpt lat="40.4664785228669643402099609375" lon="-1.51414143852889537811279296875">
        <ele>1460.199951171875</ele>
        <time>2022-08-24T09:01:33.000Z</time>
      </trkpt>
      <trkpt lat="40.46653443016111850738525390625" lon="-1.51416507549583911895751953125">
        <ele>1460.4000244140625</ele>
        <time>2022-08-24T09:01:37.000Z</time>
      </trkpt>
      <trkpt lat="40.4666146449744701385498046875" lon="-1.51419474743306636810302734375">
        <ele>1461</ele>
        <time>2022-08-24T09:01:42.000Z</time>
      </trkpt>
      <trkpt lat="40.46667792834341526031494140625" lon="-1.514206565916538238525390625">
        <ele>1461.4000244140625</ele>
        <time>2022-08-24T09:01:46.000Z</time>
      </trkpt>
      <trkpt lat="40.4667333327233791351318359375" lon="-1.5142248384654521942138671875">
        <ele>1462</ele>
        <time>2022-08-24T09:01:50.000Z</time>
      </trkpt>
      <trkpt lat="40.4668074287474155426025390625" lon="-1.51425383985042572021484375">
        <ele>1462.800048828125</ele>
        <time>2022-08-24T09:01:55.000Z</time>
      </trkpt>
      <trkpt lat="40.46683684922754764556884765625" lon="-1.51426054537296295166015625">
        <ele>1463.199951171875</ele>
        <time>2022-08-24T09:01:57.000Z</time>
      </trkpt>
      <trkpt lat="40.46692435629665851593017578125" lon="-1.51427923701703548431396484375">
        <ele>1463.800048828125</ele>
        <time>2022-08-24T09:02:03.000Z</time>
      </trkpt>
      <trkpt lat="40.466955117881298065185546875" lon="-1.514283008873462677001953125">
        <ele>1464.199951171875</ele>
        <time>2022-08-24T09:02:05.000Z</time>
      </trkpt>
      <trkpt lat="40.46703793108463287353515625" lon="-1.514300443232059478759765625">
        <ele>1465.199951171875</ele>
        <time>2022-08-24T09:02:11.000Z</time>
      </trkpt>
      <trkpt lat="40.46705394051969051361083984375" lon="-1.51430287398397922515869140625">
        <ele>1465.4000244140625</ele>
        <time>2022-08-24T09:02:12.000Z</time>
      </trkpt>
      <trkpt lat="40.4670950956642627716064453125" lon="-1.51430807076394557952880859375">
        <ele>1466.199951171875</ele>
        <time>2022-08-24T09:02:17.000Z</time>
      </trkpt>
      <trkpt lat="40.4672654159367084503173828125" lon="-1.5143207274377346038818359375">
        <ele>1468.199951171875</ele>
        <time>2022-08-24T09:03:34.000Z</time>
      </trkpt>
      <trkpt lat="40.4673800803720951080322265625" lon="-1.5143524110317230224609375">
        <ele>1469</ele>
        <time>2022-08-24T09:03:42.000Z</time>
      </trkpt>
      <trkpt lat="40.4674551822245121002197265625" lon="-1.51437453925609588623046875">
        <ele>1470</ele>
        <time>2022-08-24T09:03:48.000Z</time>
      </trkpt>
      <trkpt lat="40.467491559684276580810546875" lon="-1.51437747292220592498779296875">
        <ele>1470.4000244140625</ele>
        <time>2022-08-24T09:03:51.000Z</time>
      </trkpt>
      <trkpt lat="40.467536151409149169921875" lon="-1.51438736356794834136962890625">
        <ele>1471</ele>
        <time>2022-08-24T09:03:54.000Z</time>
      </trkpt>
      <trkpt lat="40.46758065931499004364013671875" lon="-1.5144330449402332305908203125">
        <ele>1472</ele>
        <time>2022-08-24T09:03:58.000Z</time>
      </trkpt>
      <trkpt lat="40.46760764904320240020751953125" lon="-1.5144498087465763092041015625">
        <ele>1472.199951171875</ele>
        <time>2022-08-24T09:04:00.000Z</time>
      </trkpt>
      <trkpt lat="40.46766816638410091400146484375" lon="-1.51449121534824371337890625">
        <ele>1473</ele>
        <time>2022-08-24T09:04:05.000Z</time>
      </trkpt>
      <trkpt lat="40.46768258325755596160888671875" lon="-1.51449792087078094482421875">
        <ele>1473.199951171875</ele>
        <time>2022-08-24T09:04:06.000Z</time>
      </trkpt>
      <trkpt lat="40.46776439063251018524169921875" lon="-1.514541842043399810791015625">
        <ele>1474</ele>
        <time>2022-08-24T09:04:13.000Z</time>
      </trkpt>
      <trkpt lat="40.4678454436361789703369140625" lon="-1.5145723521709442138671875">
        <ele>1475</ele>
        <time>2022-08-24T09:04:19.000Z</time>
      </trkpt>
      <trkpt lat="40.46787771396338939666748046875" lon="-1.51457545347511768341064453125">
        <ele>1475.4000244140625</ele>
        <time>2022-08-24T09:04:21.000Z</time>
      </trkpt>
      <trkpt lat="40.46794510446488857269287109375" lon="-1.51458350010216236114501953125">
        <ele>1476.4000244140625</ele>
        <time>2022-08-24T09:04:26.000Z</time>
      </trkpt>
      <trkpt lat="40.46799606643617153167724609375" lon="-1.51459640823304653167724609375">
        <ele>1476.5999755859375</ele>
        <time>2022-08-24T09:04:30.000Z</time>
      </trkpt>
      <trkpt lat="40.4680338688194751739501953125" lon="-1.514604873955249786376953125">
        <ele>1477</ele>
        <time>2022-08-24T09:04:34.000Z</time>
      </trkpt>
      <trkpt lat="40.46804510056972503662109375" lon="-1.51460881344974040985107421875">
        <ele>1477.199951171875</ele>
        <time>2022-08-24T09:04:35.000Z</time>
      </trkpt>
      <trkpt lat="40.4680684022605419158935546875" lon="-1.514613926410675048828125">
        <ele>1477.4000244140625</ele>
        <time>2022-08-24T09:04:37.000Z</time>
      </trkpt>
      <trkpt lat="40.468154735863208770751953125" lon="-1.51461149565875530242919921875">
        <ele>1478.199951171875</ele>
        <time>2022-08-24T09:04:45.000Z</time>
      </trkpt>
      <trkpt lat="40.46817652881145477294921875" lon="-1.5146057121455669403076171875">
        <ele>1478.4000244140625</ele>
        <time>2022-08-24T09:04:47.000Z</time>
      </trkpt>
      <trkpt lat="40.468260347843170166015625" lon="-1.5145879425108432769775390625">
        <ele>1479.4000244140625</ele>
        <time>2022-08-24T09:04:54.000Z</time>
      </trkpt>
      <trkpt lat="40.46831826679408550262451171875" lon="-1.5145782195031642913818359375">
        <ele>1480.4000244140625</ele>
        <time>2022-08-24T09:04:59.000Z</time>
      </trkpt>
      <trkpt lat="40.4683366231620311737060546875" lon="-1.51456975378096103668212890625">
        <ele>1480.5999755859375</ele>
        <time>2022-08-24T09:05:01.000Z</time>
      </trkpt>
      <trkpt lat="40.4683842323720455169677734375" lon="-1.514565646648406982421875">
        <ele>1481.4000244140625</ele>
        <time>2022-08-24T09:05:04.000Z</time>
      </trkpt>
      <trkpt lat="40.46847098506987094879150390625" lon="-1.5145576000213623046875">
        <ele>1482.4000244140625</ele>
        <time>2022-08-24T09:05:09.000Z</time>
      </trkpt>
      <trkpt lat="40.468488000333309173583984375" lon="-1.514557935297489166259765625">
        <ele>1482.5999755859375</ele>
        <time>2022-08-24T09:05:10.000Z</time>
      </trkpt>
      <trkpt lat="40.46856410801410675048828125" lon="-1.5145923011004924774169921875">
        <ele>1483.5999755859375</ele>
        <time>2022-08-24T09:05:16.000Z</time>
      </trkpt>
      <trkpt lat="40.46858464367687702178955078125" lon="-1.51460520923137664794921875">
        <ele>1484</ele>
        <time>2022-08-24T09:05:18.000Z</time>
      </trkpt>
      <trkpt lat="40.46866209246218204498291015625" lon="-1.51464879512786865234375">
        <ele>1484.5999755859375</ele>
        <time>2022-08-24T09:05:24.000Z</time>
      </trkpt>
      <trkpt lat="40.46869042329490184783935546875" lon="-1.514661870896816253662109375">
        <ele>1484.800048828125</ele>
        <time>2022-08-24T09:05:26.000Z</time>
      </trkpt>
      <trkpt lat="40.468769632279872894287109375" lon="-1.5147010982036590576171875">
        <ele>1485.800048828125</ele>
        <time>2022-08-24T09:05:32.000Z</time>
      </trkpt>
      <trkpt lat="40.46881766058504581451416015625" lon="-1.5147252380847930908203125">
        <ele>1486.4000244140625</ele>
        <time>2022-08-24T09:05:36.000Z</time>
      </trkpt>
      <trkpt lat="40.46885739080607891082763671875" lon="-1.5147428400814533233642578125">
        <ele>1486.800048828125</ele>
        <time>2022-08-24T09:05:39.000Z</time>
      </trkpt>
      <trkpt lat="40.46892645768821239471435546875" lon="-1.5147896111011505126953125">
        <ele>1487.4000244140625</ele>
        <time>2022-08-24T09:05:45.000Z</time>
      </trkpt>
      <trkpt lat="40.46896585263311862945556640625" lon="-1.5148112364113330841064453125">
        <ele>1488</ele>
        <time>2022-08-24T09:05:48.000Z</time>
      </trkpt>
      <trkpt lat="40.46897926367819309234619140625" lon="-1.514816768467426300048828125">
        <ele>1488</ele>
        <time>2022-08-24T09:05:49.000Z</time>
      </trkpt>
      <trkpt lat="40.4690028168261051177978515625" lon="-1.51482515037059783935546875">
        <ele>1488.4000244140625</ele>
        <time>2022-08-24T09:05:51.000Z</time>
      </trkpt>
      <trkpt lat="40.469023101031780242919921875" lon="-1.51483646593987941741943359375">
        <ele>1489</ele>
        <time>2022-08-24T09:05:53.000Z</time>
      </trkpt>
      <trkpt lat="40.469041876494884490966796875" lon="-1.514853648841381072998046875">
        <ele>1489.4000244140625</ele>
        <time>2022-08-24T09:05:55.000Z</time>
      </trkpt>
      <trkpt lat="40.469078756868839263916015625" lon="-1.5148769505321979522705078125">
        <ele>1490.199951171875</ele>
        <time>2022-08-24T09:05:58.000Z</time>
      </trkpt>
      <trkpt lat="40.46910130418837070465087890625" lon="-1.51489698328077793121337890625">
        <ele>1490.5999755859375</ele>
        <time>2022-08-24T09:06:00.000Z</time>
      </trkpt>
      <trkpt lat="40.4691382683813571929931640625" lon="-1.5149237215518951416015625">
        <ele>1491.4000244140625</ele>
        <time>2022-08-24T09:06:03.000Z</time>
      </trkpt>
      <trkpt lat="40.46922233887016773223876953125" lon="-1.51497225277125835418701171875">
        <ele>1492.4000244140625</ele>
        <time>2022-08-24T09:06:09.000Z</time>
      </trkpt>
      <trkpt lat="40.46923642046749591827392578125" lon="-1.5149795450270175933837890625">
        <ele>1492.5999755859375</ele>
        <time>2022-08-24T09:06:10.000Z</time>
      </trkpt>
      <trkpt lat="40.46929190866649150848388671875" lon="-1.51500728912651538848876953125">
        <ele>1493.5999755859375</ele>
        <time>2022-08-24T09:06:14.000Z</time>
      </trkpt>
      <trkpt lat="40.4693464748561382293701171875" lon="-1.51504199020564556121826171875">
        <ele>1494.5999755859375</ele>
        <time>2022-08-24T09:06:18.000Z</time>
      </trkpt>
      <trkpt lat="40.4693598859012126922607421875" lon="-1.51504869572818279266357421875">
        <ele>1494.5999755859375</ele>
        <time>2022-08-24T09:06:19.000Z</time>
      </trkpt>
      <trkpt lat="40.46944110654294490814208984375" lon="-1.51508674956858158111572265625">
        <ele>1495.800048828125</ele>
        <time>2022-08-24T09:06:25.000Z</time>
      </trkpt>
      <trkpt lat="40.46949760057032108306884765625" lon="-1.5151141583919525146484375">
        <ele>1496.4000244140625</ele>
        <time>2022-08-24T09:06:29.000Z</time>
      </trkpt>
      <trkpt lat="40.46954018063843250274658203125" lon="-1.515132598578929901123046875">
        <ele>1497</ele>
        <time>2022-08-24T09:06:32.000Z</time>
      </trkpt>
      <trkpt lat="40.46960773877799510955810546875" lon="-1.51516704820096492767333984375">
        <ele>1497.5999755859375</ele>
        <time>2022-08-24T09:06:37.000Z</time>
      </trkpt>
      <trkpt lat="40.4696455411612987518310546875" lon="-1.51519202627241611480712890625">
        <ele>1497.800048828125</ele>
        <time>2022-08-24T09:06:40.000Z</time>
      </trkpt>
      <trkpt lat="40.46972139738500118255615234375" lon="-1.51523510925471782684326171875">
        <ele>1498.5999755859375</ele>
        <time>2022-08-24T09:06:45.000Z</time>
      </trkpt>
      <trkpt lat="40.4697833396494388580322265625" lon="-1.5152652002871036529541015625">
        <ele>1499</ele>
        <time>2022-08-24T09:06:49.000Z</time>
      </trkpt>
      <trkpt lat="40.4698628000915050506591796875" lon="-1.51529327966272830963134765625">
        <ele>1500</ele>
        <time>2022-08-24T09:06:54.000Z</time>
      </trkpt>
      <trkpt lat="40.46990864910185337066650390625" lon="-1.515309624373912811279296875">
        <ele>1500.4000244140625</ele>
        <time>2022-08-24T09:06:57.000Z</time>
      </trkpt>
      <trkpt lat="40.46999774873256683349609375" lon="-1.51534424163401126861572265625">
        <ele>1501</ele>
        <time>2022-08-24T09:07:03.000Z</time>
      </trkpt>
      <trkpt lat="40.47003840096294879913330078125" lon="-1.51535463519394397735595703125">
        <ele>1501.5999755859375</ele>
        <time>2022-08-24T09:07:06.000Z</time>
      </trkpt>
      <trkpt lat="40.470089614391326904296875" lon="-1.51538464240729808807373046875">
        <ele>1502.199951171875</ele>
        <time>2022-08-24T09:07:10.000Z</time>
      </trkpt>
      <trkpt lat="40.470146946609020233154296875" lon="-1.5153956227004528045654296875">
        <ele>1502.800048828125</ele>
        <time>2022-08-24T09:07:14.000Z</time>
      </trkpt>
      <trkpt lat="40.47017209231853485107421875" lon="-1.51539838872849941253662109375">
        <ele>1503</ele>
        <time>2022-08-24T09:07:16.000Z</time>
      </trkpt>
      <trkpt lat="40.47025314532220363616943359375" lon="-1.51540224440395832061767578125">
        <ele>1503.199951171875</ele>
        <time>2022-08-24T09:07:21.000Z</time>
      </trkpt>
      <trkpt lat="40.4702684842050075531005859375" lon="-1.5154033340513706207275390625">
        <ele>1503.199951171875</ele>
        <time>2022-08-24T09:07:22.000Z</time>
      </trkpt>
      <trkpt lat="40.4703928716480731964111328125" lon="-1.51542403735220432281494140625">
        <ele>1504</ele>
        <time>2022-08-24T09:07:30.000Z</time>
      </trkpt>
      <trkpt lat="40.47040619887411594390869140625" lon="-1.51543023996055126190185546875">
        <ele>1504.199951171875</ele>
        <time>2022-08-24T09:07:31.000Z</time>
      </trkpt>
      <trkpt lat="40.47043302096426486968994140625" lon="-1.51543158106505870819091796875">
        <ele>1505.199951171875</ele>
        <time>2022-08-24T09:07:36.000Z</time>
      </trkpt>
      <trkpt lat="40.47062630765140056610107421875" lon="-1.51549343951046466827392578125">
        <ele>1506.800048828125</ele>
        <time>2022-08-24T09:13:37.000Z</time>
      </trkpt>
      <trkpt lat="40.47066654078662395477294921875" lon="-1.515504755079746246337890625">
        <ele>1506.800048828125</ele>
        <time>2022-08-24T09:13:40.000Z</time>
      </trkpt>
      <trkpt lat="40.47086686827242374420166015625" lon="-1.51553995907306671142578125">
        <ele>1507.4000244140625</ele>
        <time>2022-08-24T09:13:54.000Z</time>
      </trkpt>
      <trkpt lat="40.470894277095794677734375" lon="-1.51555144228041172027587890625">
        <ele>1507.5999755859375</ele>
        <time>2022-08-24T09:13:56.000Z</time>
      </trkpt>
      <trkpt lat="40.47098438255488872528076171875" lon="-1.5155592374503612518310546875">
        <ele>1508.199951171875</ele>
        <time>2022-08-24T09:14:01.000Z</time>
      </trkpt>
      <trkpt lat="40.47106501646339893341064453125" lon="-1.5155766718089580535888671875">
        <ele>1508.4000244140625</ele>
        <time>2022-08-24T09:14:06.000Z</time>
      </trkpt>
      <trkpt lat="40.471105165779590606689453125" lon="-1.515579186379909515380859375">
        <ele>1508.4000244140625</ele>
        <time>2022-08-24T09:14:08.000Z</time>
      </trkpt>
      <trkpt lat="40.471236594021320343017578125" lon="-1.5155568905174732208251953125">
        <ele>1508.5999755859375</ele>
        <time>2022-08-24T09:14:13.000Z</time>
      </trkpt>
      <trkpt lat="40.47126852907240390777587890625" lon="-1.51555362157523632049560546875">
        <ele>1508.5999755859375</ele>
        <time>2022-08-24T09:14:14.000Z</time>
      </trkpt>
      <trkpt lat="40.47150741331279277801513671875" lon="-1.51556753553450107574462890625">
        <ele>1508.5999755859375</ele>
        <time>2022-08-24T09:14:20.000Z</time>
      </trkpt>
      <trkpt lat="40.4717748798429965972900390625" lon="-1.5156397037208080291748046875">
        <ele>1507.199951171875</ele>
        <time>2022-08-24T09:14:26.000Z</time>
      </trkpt>
      <trkpt lat="40.47181989066302776336669921875" lon="-1.5156480856239795684814453125">
        <ele>1506.800048828125</ele>
        <time>2022-08-24T09:14:27.000Z</time>
      </trkpt>
      <trkpt lat="40.471854843199253082275390625" lon="-1.515654958784580230712890625">
        <ele>1506.4000244140625</ele>
        <time>2022-08-24T09:14:28.000Z</time>
      </trkpt>
      <trkpt lat="40.4719508998095989227294921875" lon="-1.51568303816020488739013671875">
        <ele>1505.4000244140625</ele>
        <time>2022-08-24T09:14:31.000Z</time>
      </trkpt>
      <trkpt lat="40.47198719345033168792724609375" lon="-1.51569150388240814208984375">
        <ele>1505.199951171875</ele>
        <time>2022-08-24T09:14:32.000Z</time>
      </trkpt>
      <trkpt lat="40.47209112904965877532958984375" lon="-1.51569686830043792724609375">
        <ele>1503.5999755859375</ele>
        <time>2022-08-24T09:14:36.000Z</time>
      </trkpt>
      <trkpt lat="40.472167991101741790771484375" lon="-1.51570986025035381317138671875">
        <ele>1502.4000244140625</ele>
        <time>2022-08-24T09:14:39.000Z</time>
      </trkpt>
      <trkpt lat="40.47222473658621311187744140625" lon="-1.51571773923933506011962890625">
        <ele>1501.800048828125</ele>
        <time>2022-08-24T09:14:41.000Z</time>
      </trkpt>
      <trkpt lat="40.47225692309439182281494140625" lon="-1.51571958325803279876708984375">
        <ele>1501.199951171875</ele>
        <time>2022-08-24T09:14:42.000Z</time>
      </trkpt>
      <trkpt lat="40.47237879596650600433349609375" lon="-1.51574238203465938568115234375">
        <ele>1500.199951171875</ele>
        <time>2022-08-24T09:14:45.000Z</time>
      </trkpt>
      <trkpt lat="40.47242288477718830108642578125" lon="-1.5157525241374969482421875">
        <ele>1499.800048828125</ele>
        <time>2022-08-24T09:14:46.000Z</time>
      </trkpt>
      <trkpt lat="40.47246948815882205963134765625" lon="-1.5157659351825714111328125">
        <ele>1499.4000244140625</ele>
        <time>2022-08-24T09:14:47.000Z</time>
      </trkpt>
      <trkpt lat="40.47252061776816844940185546875" lon="-1.515781022608280181884765625">
        <ele>1498.800048828125</ele>
        <time>2022-08-24T09:14:48.000Z</time>
      </trkpt>
      <trkpt lat="40.47269605100154876708984375" lon="-1.5158195793628692626953125">
        <ele>1498</ele>
        <time>2022-08-24T09:14:51.000Z</time>
      </trkpt>
      <trkpt lat="40.4727471806108951568603515625" lon="-1.515828631818294525146484375">
        <ele>1497.5999755859375</ele>
        <time>2022-08-24T09:14:52.000Z</time>
      </trkpt>
      <trkpt lat="40.47290266491472721099853515625" lon="-1.51584883220493793487548828125">
        <ele>1496.199951171875</ele>
        <time>2022-08-24T09:14:56.000Z</time>
      </trkpt>
      <trkpt lat="40.472993440926074981689453125" lon="-1.51585704647004604339599609375">
        <ele>1495</ele>
        <time>2022-08-24T09:14:59.000Z</time>
      </trkpt>
      <trkpt lat="40.47314456664025783538818359375" lon="-1.5158971957862377166748046875">
        <ele>1493.5999755859375</ele>
        <time>2022-08-24T09:15:03.000Z</time>
      </trkpt>
      <trkpt lat="40.4733114503324031829833984375" lon="-1.51599870063364505767822265625">
        <ele>1492.5999755859375</ele>
        <time>2022-08-24T09:15:07.000Z</time>
      </trkpt>
      <trkpt lat="40.4733925871551036834716796875" lon="-1.5160648338496685028076171875">
        <ele>1492.199951171875</ele>
        <time>2022-08-24T09:15:09.000Z</time>
      </trkpt>
      <trkpt lat="40.473564080893993377685546875" lon="-1.51619148440659046173095703125">
        <ele>1491.5999755859375</ele>
        <time>2022-08-24T09:15:13.000Z</time>
      </trkpt>
      <trkpt lat="40.47360825352370738983154296875" lon="-1.5162163786590099334716796875">
        <ele>1491.4000244140625</ele>
        <time>2022-08-24T09:15:14.000Z</time>
      </trkpt>
      <trkpt lat="40.47364882193505764007568359375" lon="-1.51623465120792388916015625">
        <ele>1491.4000244140625</ele>
        <time>2022-08-24T09:15:15.000Z</time>
      </trkpt>
      <trkpt lat="40.47378410585224628448486328125" lon="-1.51625166647136211395263671875">
        <ele>1491</ele>
        <time>2022-08-24T09:15:18.000Z</time>
      </trkpt>
      <trkpt lat="40.47383196651935577392578125" lon="-1.5162582881748676300048828125">
        <ele>1490.800048828125</ele>
        <time>2022-08-24T09:15:19.000Z</time>
      </trkpt>
      <trkpt lat="40.47387982718646526336669921875" lon="-1.5162723697721958160400390625">
        <ele>1490.800048828125</ele>
        <time>2022-08-24T09:15:20.000Z</time>
      </trkpt>
      <trkpt lat="40.4740101657807826995849609375" lon="-1.51633498258888721466064453125">
        <ele>1490.4000244140625</ele>
        <time>2022-08-24T09:15:23.000Z</time>
      </trkpt>
      <trkpt lat="40.47408702783286571502685546875" lon="-1.51636851020157337188720703125">
        <ele>1490.199951171875</ele>
        <time>2022-08-24T09:15:25.000Z</time>
      </trkpt>
      <trkpt lat="40.4743213020265102386474609375" lon="-1.5164135210216045379638671875">
        <ele>1490</ele>
        <time>2022-08-24T09:15:31.000Z</time>
      </trkpt>
      <trkpt lat="40.47459631226956844329833984375" lon="-1.5164820849895477294921875">
        <ele>1490</ele>
        <time>2022-08-24T09:15:38.000Z</time>
      </trkpt>
      <trkpt lat="40.47484181821346282958984375" lon="-1.5166805684566497802734375">
        <ele>1490</ele>
        <time>2022-08-24T09:15:46.000Z</time>
      </trkpt>
      <trkpt lat="40.4750082828104496002197265625" lon="-1.51682314462959766387939453125">
        <ele>1490.199951171875</ele>
        <time>2022-08-24T09:15:53.000Z</time>
      </trkpt>
      <trkpt lat="40.475182123482227325439453125" lon="-1.5169890224933624267578125">
        <ele>1490.800048828125</ele>
        <time>2022-08-24T09:16:01.000Z</time>
      </trkpt>
      <trkpt lat="40.4752758331596851348876953125" lon="-1.517185159027576446533203125">
        <ele>1491.4000244140625</ele>
        <time>2022-08-24T09:16:07.000Z</time>
      </trkpt>
      <trkpt lat="40.4752835445106029510498046875" lon="-1.5172282420098781585693359375">
        <ele>1491.4000244140625</ele>
        <time>2022-08-24T09:16:08.000Z</time>
      </trkpt>
      <trkpt lat="40.47533626668155193328857421875" lon="-1.5173913538455963134765625">
        <ele>1491.5999755859375</ele>
        <time>2022-08-24T09:16:12.000Z</time>
      </trkpt>
      <trkpt lat="40.47543995082378387451171875" lon="-1.51768916286528110504150390625">
        <ele>1491.5999755859375</ele>
        <time>2022-08-24T09:16:18.000Z</time>
      </trkpt>
      <trkpt lat="40.4756002128124237060546875" lon="-1.51805779896676540374755859375">
        <ele>1491</ele>
        <time>2022-08-24T09:16:25.000Z</time>
      </trkpt>
      <trkpt lat="40.47566014342010021209716796875" lon="-1.51818822138011455535888671875">
        <ele>1490.4000244140625</ele>
        <time>2022-08-24T09:16:28.000Z</time>
      </trkpt>
      <trkpt lat="40.4757214151322841644287109375" lon="-1.5182793326675891876220703125">
        <ele>1489.4000244140625</ele>
        <time>2022-08-24T09:16:31.000Z</time>
      </trkpt>
      <trkpt lat="40.475740022957324981689453125" lon="-1.5183068253099918365478515625">
        <ele>1489.199951171875</ele>
        <time>2022-08-24T09:16:32.000Z</time>
      </trkpt>
      <trkpt lat="40.47577195800840854644775390625" lon="-1.51836097240447998046875">
        <ele>1488</ele>
        <time>2022-08-24T09:16:34.000Z</time>
      </trkpt>
      <trkpt lat="40.47584923915565013885498046875" lon="-1.51845392771065235137939453125">
        <ele>1486.800048828125</ele>
        <time>2022-08-24T09:16:37.000Z</time>
      </trkpt>
      <trkpt lat="40.47596641816198825836181640625" lon="-1.5185519121587276458740234375">
        <ele>1485.5999755859375</ele>
        <time>2022-08-24T09:16:40.000Z</time>
      </trkpt>
      <trkpt lat="40.47609843313694000244140625" lon="-1.51864805258810520172119140625">
        <ele>1484.5999755859375</ele>
        <time>2022-08-24T09:16:43.000Z</time>
      </trkpt>
      <trkpt lat="40.47622893936932086944580078125" lon="-1.5187577717006206512451171875">
        <ele>1483</ele>
        <time>2022-08-24T09:16:46.000Z</time>
      </trkpt>
      <trkpt lat="40.4763148538768291473388671875" lon="-1.51883195154368877410888671875">
        <ele>1481.800048828125</ele>
        <time>2022-08-24T09:16:48.000Z</time>
      </trkpt>
      <trkpt lat="40.47635751776397228240966796875" lon="-1.51886950246989727020263671875">
        <ele>1481.4000244140625</ele>
        <time>2022-08-24T09:16:49.000Z</time>
      </trkpt>
      <trkpt lat="40.476398169994354248046875" lon="-1.51891292072832584381103515625">
        <ele>1481</ele>
        <time>2022-08-24T09:16:50.000Z</time>
      </trkpt>
      <trkpt lat="40.47643580473959445953369140625" lon="-1.51896220631897449493408203125">
        <ele>1480.800048828125</ele>
        <time>2022-08-24T09:16:51.000Z</time>
      </trkpt>
      <trkpt lat="40.47650369815528392791748046875" lon="-1.51907905004918575286865234375">
        <ele>1480.4000244140625</ele>
        <time>2022-08-24T09:16:53.000Z</time>
      </trkpt>
      <trkpt lat="40.4765974916517734527587890625" lon="-1.51925741694867610931396484375">
        <ele>1479.5999755859375</ele>
        <time>2022-08-24T09:16:56.000Z</time>
      </trkpt>
      <trkpt lat="40.47663060016930103302001953125" lon="-1.5193163417279720306396484375">
        <ele>1479.199951171875</ele>
        <time>2022-08-24T09:16:57.000Z</time>
      </trkpt>
      <trkpt lat="40.47670997679233551025390625" lon="-1.5194357000291347503662109375">
        <ele>1478.5999755859375</ele>
        <time>2022-08-24T09:16:59.000Z</time>
      </trkpt>
      <trkpt lat="40.47675557434558868408203125" lon="-1.519496552646160125732421875">
        <ele>1478.199951171875</ele>
        <time>2022-08-24T09:17:00.000Z</time>
      </trkpt>
      <trkpt lat="40.4768476076424121856689453125" lon="-1.51961783878505229949951171875">
        <ele>1477.199951171875</ele>
        <time>2022-08-24T09:17:02.000Z</time>
      </trkpt>
      <trkpt lat="40.47688968479633331298828125" lon="-1.51967667974531650543212890625">
        <ele>1475.5999755859375</ele>
        <time>2022-08-24T09:17:03.000Z</time>
      </trkpt>
      <trkpt lat="40.47699001617729663848876953125" lon="-1.51982805691659450531005859375">
        <ele>1474.199951171875</ele>
        <time>2022-08-24T09:17:06.000Z</time>
      </trkpt>
      <trkpt lat="40.47704718075692653656005859375" lon="-1.51994607411324977874755859375">
        <ele>1473</ele>
        <time>2022-08-24T09:17:08.000Z</time>
      </trkpt>
      <trkpt lat="40.47709529288113117218017578125" lon="-1.520067192614078521728515625">
        <ele>1471.800048828125</ele>
        <time>2022-08-24T09:17:10.000Z</time>
      </trkpt>
      <trkpt lat="40.47713938169181346893310546875" lon="-1.52017741464078426361083984375">
        <ele>1470.5999755859375</ele>
        <time>2022-08-24T09:17:12.000Z</time>
      </trkpt>
      <trkpt lat="40.47719486989080905914306640625" lon="-1.5202742256224155426025390625">
        <ele>1469.5999755859375</ele>
        <time>2022-08-24T09:17:14.000Z</time>
      </trkpt>
      <trkpt lat="40.47728824429214000701904296875" lon="-1.52040389366447925567626953125">
        <ele>1468.5999755859375</ele>
        <time>2022-08-24T09:17:17.000Z</time>
      </trkpt>
      <trkpt lat="40.47731816768646240234375" lon="-1.52045502327382564544677734375">
        <ele>1468</ele>
        <time>2022-08-24T09:17:18.000Z</time>
      </trkpt>
      <trkpt lat="40.47739704139530658721923828125" lon="-1.5206421911716461181640625">
        <ele>1467</ele>
        <time>2022-08-24T09:17:21.000Z</time>
      </trkpt>
      <trkpt lat="40.47742051072418689727783203125" lon="-1.52071486227214336395263671875">
        <ele>1466.5999755859375</ele>
        <time>2022-08-24T09:17:22.000Z</time>
      </trkpt>
      <trkpt lat="40.4774608276784420013427734375" lon="-1.52086422778666019439697265625">
        <ele>1465.800048828125</ele>
        <time>2022-08-24T09:17:24.000Z</time>
      </trkpt>
      <trkpt lat="40.47751187346875667572021484375" lon="-1.52110914699733257293701171875">
        <ele>1464.5999755859375</ele>
        <time>2022-08-24T09:17:27.000Z</time>
      </trkpt>
      <trkpt lat="40.4775312356650829315185546875" lon="-1.52119765989482402801513671875">
        <ele>1464.199951171875</ele>
        <time>2022-08-24T09:17:28.000Z</time>
      </trkpt>
      <trkpt lat="40.47756719402968883514404296875" lon="-1.52137652970850467681884765625">
        <ele>1463.4000244140625</ele>
        <time>2022-08-24T09:17:30.000Z</time>
      </trkpt>
      <trkpt lat="40.477575995028018951416015625" lon="-1.52146437205374240875244140625">
        <ele>1462.5999755859375</ele>
        <time>2022-08-24T09:17:31.000Z</time>
      </trkpt>
      <trkpt lat="40.47757389955222606658935546875" lon="-1.52163016609847545623779296875">
        <ele>1462.199951171875</ele>
        <time>2022-08-24T09:17:33.000Z</time>
      </trkpt>
      <trkpt lat="40.47757222317159175872802734375" lon="-1.52186519466340541839599609375">
        <ele>1461.199951171875</ele>
        <time>2022-08-24T09:17:36.000Z</time>
      </trkpt>
      <trkpt lat="40.477585382759571075439453125" lon="-1.5221383608877658843994140625">
        <ele>1460.4000244140625</ele>
        <time>2022-08-24T09:17:40.000Z</time>
      </trkpt>
      <trkpt lat="40.47760072164237499237060546875" lon="-1.52223651297390460968017578125">
        <ele>1460</ele>
        <time>2022-08-24T09:17:42.000Z</time>
      </trkpt>
      <trkpt lat="40.47761849127709865570068359375" lon="-1.52237967588007450103759765625">
        <ele>1459</ele>
        <time>2022-08-24T09:17:45.000Z</time>
      </trkpt>
      <trkpt lat="40.47763961367309093475341796875" lon="-1.52247254736721515655517578125">
        <ele>1458.4000244140625</ele>
        <time>2022-08-24T09:17:47.000Z</time>
      </trkpt>
      <trkpt lat="40.477661155164241790771484375" lon="-1.52256156317889690399169921875">
        <ele>1457.800048828125</ele>
        <time>2022-08-24T09:17:49.000Z</time>
      </trkpt>
      <trkpt lat="40.47774824313819408416748046875" lon="-1.5228649042546749114990234375">
        <ele>1456.800048828125</ele>
        <time>2022-08-24T09:17:55.000Z</time>
      </trkpt>
      <trkpt lat="40.47776333056390285491943359375" lon="-1.5229239128530025482177734375">
        <ele>1456.800048828125</ele>
        <time>2022-08-24T09:17:56.000Z</time>
      </trkpt>
      <trkpt lat="40.47779224812984466552734375" lon="-1.52305710129439830780029296875">
        <ele>1456.4000244140625</ele>
        <time>2022-08-24T09:17:59.000Z</time>
      </trkpt>
      <trkpt lat="40.4777977801859378814697265625" lon="-1.52308308519423007965087890625">
        <ele>1456.4000244140625</ele>
        <time>2022-08-24T09:18:02.000Z</time>
      </trkpt>
      <trkpt lat="40.47776115126907825469970703125" lon="-1.5230690874159336090087890625">
        <ele>1456.199951171875</ele>
        <time>2022-08-24T09:18:51.000Z</time>
      </trkpt>
      <trkpt lat="40.47766861505806446075439453125" lon="-1.52315475046634674072265625">
        <ele>1456.800048828125</ele>
        <time>2022-08-24T09:18:59.000Z</time>
      </trkpt>
      <trkpt lat="40.47754841856658458709716796875" lon="-1.5232139267027378082275390625">
        <ele>1457.800048828125</ele>
        <time>2022-08-24T09:19:09.000Z</time>
      </trkpt>
      <trkpt lat="40.47744934447109699249267578125" lon="-1.52323245070874691009521484375">
        <ele>1459</ele>
        <time>2022-08-24T09:19:17.000Z</time>
      </trkpt>
      <trkpt lat="40.47743685543537139892578125" lon="-1.52323395945131778717041015625">
        <ele>1459</ele>
        <time>2022-08-24T09:19:18.000Z</time>
      </trkpt>
      <trkpt lat="40.477337948977947235107421875" lon="-1.52325055561959743499755859375">
        <ele>1460.199951171875</ele>
        <time>2022-08-24T09:19:25.000Z</time>
      </trkpt>
      <trkpt lat="40.4773099534213542938232421875" lon="-1.52326229028403759002685546875">
        <ele>1460.4000244140625</ele>
        <time>2022-08-24T09:19:27.000Z</time>
      </trkpt>
      <trkpt lat="40.47723057679831981658935546875" lon="-1.523309983313083648681640625">
        <ele>1461.199951171875</ele>
        <time>2022-08-24T09:19:33.000Z</time>
      </trkpt>
      <trkpt lat="40.4771916009485721588134765625" lon="-1.523343510925769805908203125">
        <ele>1461.800048828125</ele>
        <time>2022-08-24T09:19:36.000Z</time>
      </trkpt>
      <trkpt lat="40.47713108360767364501953125" lon="-1.52341098524630069732666015625">
        <ele>1462.4000244140625</ele>
        <time>2022-08-24T09:19:41.000Z</time>
      </trkpt>
      <trkpt lat="40.4770880006253719329833984375" lon="-1.5234901942312717437744140625">
        <ele>1463</ele>
        <time>2022-08-24T09:19:46.000Z</time>
      </trkpt>
      <trkpt lat="40.47706495039165019989013671875" lon="-1.52352045290172100067138671875">
        <ele>1463.4000244140625</ele>
        <time>2022-08-24T09:19:48.000Z</time>
      </trkpt>
      <trkpt lat="40.47702111303806304931640625" lon="-1.523598991334438323974609375">
        <ele>1464</ele>
        <time>2022-08-24T09:19:53.000Z</time>
      </trkpt>
      <trkpt lat="40.47696252353489398956298828125" lon="-1.5236923657357692718505859375">
        <ele>1464.4000244140625</ele>
        <time>2022-08-24T09:19:59.000Z</time>
      </trkpt>
      <trkpt lat="40.4769173450767993927001953125" lon="-1.52375422418117523193359375">
        <ele>1465</ele>
        <time>2022-08-24T09:20:03.000Z</time>
      </trkpt>
      <trkpt lat="40.47688121907413005828857421875" lon="-1.52381231077015399932861328125">
        <ele>1465.5999755859375</ele>
        <time>2022-08-24T09:20:07.000Z</time>
      </trkpt>
      <trkpt lat="40.4768462665379047393798828125" lon="-1.52386578731238842010498046875">
        <ele>1466.199951171875</ele>
        <time>2022-08-24T09:20:11.000Z</time>
      </trkpt>
      <trkpt lat="40.47678482718765735626220703125" lon="-1.52394675649702548980712890625">
        <ele>1466.800048828125</ele>
        <time>2022-08-24T09:20:17.000Z</time>
      </trkpt>
      <trkpt lat="40.4767077974975109100341796875" lon="-1.52399696409702301025390625">
        <ele>1467.800048828125</ele>
        <time>2022-08-24T09:20:24.000Z</time>
      </trkpt>
      <trkpt lat="40.47669748775660991668701171875" lon="-1.5240029990673065185546875">
        <ele>1467.800048828125</ele>
        <time>2022-08-24T09:20:25.000Z</time>
      </trkpt>
      <trkpt lat="40.47660729847848415374755859375" lon="-1.524068377912044525146484375">
        <ele>1468.800048828125</ele>
        <time>2022-08-24T09:20:33.000Z</time>
      </trkpt>
      <trkpt lat="40.476563461124897003173828125" lon="-1.52411104179918766021728515625">
        <ele>1469.5999755859375</ele>
        <time>2022-08-24T09:20:37.000Z</time>
      </trkpt>
      <trkpt lat="40.476537980139255523681640625" lon="-1.5241332538425922393798828125">
        <ele>1470</ele>
        <time>2022-08-24T09:20:39.000Z</time>
      </trkpt>
      <trkpt lat="40.4764640517532825469970703125" lon="-1.52420659549534320831298828125">
        <ele>1471</ele>
        <time>2022-08-24T09:20:46.000Z</time>
      </trkpt>
      <trkpt lat="40.47638031654059886932373046875" lon="-1.52431011199951171875">
        <ele>1472</ele>
        <time>2022-08-24T09:20:54.000Z</time>
      </trkpt>
      <trkpt lat="40.47635902650654315948486328125" lon="-1.5243371017277240753173828125">
        <ele>1472.4000244140625</ele>
        <time>2022-08-24T09:20:56.000Z</time>
      </trkpt>
      <trkpt lat="40.47625802457332611083984375" lon="-1.524455957114696502685546875">
        <ele>1473</ele>
        <time>2022-08-24T09:21:05.000Z</time>
      </trkpt>
      <trkpt lat="40.47624167986214160919189453125" lon="-1.52448353357613086700439453125">
        <ele>1473</ele>
        <time>2022-08-24T09:21:07.000Z</time>
      </trkpt>
      <trkpt lat="40.476163141429424285888671875" lon="-1.52458126656711101531982421875">
        <ele>1473.5999755859375</ele>
        <time>2022-08-24T09:21:14.000Z</time>
      </trkpt>
      <trkpt lat="40.47606750391423702239990234375" lon="-1.5246730484068393707275390625">
        <ele>1474</ele>
        <time>2022-08-24T09:21:22.000Z</time>
      </trkpt>
      <trkpt lat="40.47605660744011402130126953125" lon="-1.5246837772428989410400390625">
        <ele>1474</ele>
        <time>2022-08-24T09:21:23.000Z</time>
      </trkpt>
      <trkpt lat="40.47597312368452548980712890625" lon="-1.52475829236209392547607421875">
        <ele>1475.199951171875</ele>
        <time>2022-08-24T09:21:30.000Z</time>
      </trkpt>
      <trkpt lat="40.47594797797501087188720703125" lon="-1.52477690018713474273681640625">
        <ele>1475.4000244140625</ele>
        <time>2022-08-24T09:21:32.000Z</time>
      </trkpt>
      <trkpt lat="40.47586977481842041015625" lon="-1.52485853992402553558349609375">
        <ele>1476.199951171875</ele>
        <time>2022-08-24T09:21:39.000Z</time>
      </trkpt>
      <trkpt lat="40.47584940679371356964111328125" lon="-1.52488209307193756103515625">
        <ele>1476.5999755859375</ele>
        <time>2022-08-24T09:21:41.000Z</time>
      </trkpt>
      <trkpt lat="40.475808419287204742431640625" lon="-1.52492576278746128082275390625">
        <ele>1477.199951171875</ele>
        <time>2022-08-24T09:21:45.000Z</time>
      </trkpt>
      <trkpt lat="40.4757489077746868133544921875" lon="-1.52499265037477016448974609375">
        <ele>1478.199951171875</ele>
        <time>2022-08-24T09:21:51.000Z</time>
      </trkpt>
      <trkpt lat="40.4757415316998958587646484375" lon="-1.525003798305988311767578125">
        <ele>1478.199951171875</ele>
        <time>2022-08-24T09:21:52.000Z</time>
      </trkpt>
      <trkpt lat="40.47567506320774555206298828125" lon="-1.52507378719747066497802734375">
        <ele>1479.199951171875</ele>
        <time>2022-08-24T09:21:58.000Z</time>
      </trkpt>
      <trkpt lat="40.47557397745549678802490234375" lon="-1.52517738752067089080810546875">
        <ele>1480</ele>
        <time>2022-08-24T09:22:07.000Z</time>
      </trkpt>
      <trkpt lat="40.47554799355566501617431640625" lon="-1.525230444967746734619140625">
        <ele>1480.4000244140625</ele>
        <time>2022-08-24T09:22:11.000Z</time>
      </trkpt>
      <trkpt lat="40.47552720643579959869384765625" lon="-1.5252564288675785064697265625">
        <ele>1480.4000244140625</ele>
        <time>2022-08-24T09:22:13.000Z</time>
      </trkpt>
      <trkpt lat="40.47545411624014377593994140625" lon="-1.5253560058772563934326171875">
        <ele>1481.4000244140625</ele>
        <time>2022-08-24T09:22:20.000Z</time>
      </trkpt>
      <trkpt lat="40.47544104047119617462158203125" lon="-1.525369249284267425537109375">
        <ele>1481.4000244140625</ele>
        <time>2022-08-24T09:22:21.000Z</time>
      </trkpt>
      <trkpt lat="40.4753700457513332366943359375" lon="-1.525434963405132293701171875">
        <ele>1482.4000244140625</ele>
        <time>2022-08-24T09:22:27.000Z</time>
      </trkpt>
      <trkpt lat="40.47533802688121795654296875" lon="-1.52544929645955562591552734375">
        <ele>1482.4000244140625</ele>
        <time>2022-08-24T09:22:29.000Z</time>
      </trkpt>
      <trkpt lat="40.4752634279429912567138671875" lon="-1.5255249850451946258544921875">
        <ele>1483.199951171875</ele>
        <time>2022-08-24T09:22:36.000Z</time>
      </trkpt>
      <trkpt lat="40.475237108767032623291015625" lon="-1.52556966058909893035888671875">
        <ele>1483.5999755859375</ele>
        <time>2022-08-24T09:22:39.000Z</time>
      </trkpt>
      <trkpt lat="40.47517441213130950927734375" lon="-1.5256651304662227630615234375">
        <ele>1484.5999755859375</ele>
        <time>2022-08-24T09:22:45.000Z</time>
      </trkpt>
      <trkpt lat="40.475146584212779998779296875" lon="-1.5257137455046176910400390625">
        <ele>1484.800048828125</ele>
        <time>2022-08-24T09:22:48.000Z</time>
      </trkpt>
      <trkpt lat="40.475093610584735870361328125" lon="-1.52583369053900241851806640625">
        <ele>1485.5999755859375</ele>
        <time>2022-08-24T09:22:54.000Z</time>
      </trkpt>
      <trkpt lat="40.47507005743682384490966796875" lon="-1.52589890174567699432373046875">
        <ele>1486</ele>
        <time>2022-08-24T09:22:57.000Z</time>
      </trkpt>
      <trkpt lat="40.47504139132797718048095703125" lon="-1.52597534470260143280029296875">
        <ele>1486.5999755859375</ele>
        <time>2022-08-24T09:23:01.000Z</time>
      </trkpt>
      <trkpt lat="40.47504021786153316497802734375" lon="-1.52601264417171478271484375">
        <ele>1486.800048828125</ele>
        <time>2022-08-24T09:23:04.000Z</time>
      </trkpt>
      <trkpt lat="40.475007109344005584716796875" lon="-1.52608640491962432861328125">
        <ele>1487.5999755859375</ele>
        <time>2022-08-24T09:23:09.000Z</time>
      </trkpt>
      <trkpt lat="40.47499747015535831451416015625" lon="-1.526104845106601715087890625">
        <ele>1487.800048828125</ele>
        <time>2022-08-24T09:23:10.000Z</time>
      </trkpt>
      <trkpt lat="40.47496427781879901885986328125" lon="-1.52623032219707965850830078125">
        <ele>1488.199951171875</ele>
        <time>2022-08-24T09:23:16.000Z</time>
      </trkpt>
      <trkpt lat="40.47495740465819835662841796875" lon="-1.526415646076202392578125">
        <ele>1488.800048828125</ele>
        <time>2022-08-24T09:23:24.000Z</time>
      </trkpt>
      <trkpt lat="40.47496176324784755706787109375" lon="-1.5264875628054141998291015625">
        <ele>1489</ele>
        <time>2022-08-24T09:23:27.000Z</time>
      </trkpt>
      <trkpt lat="40.47497852705419063568115234375" lon="-1.5265841223299503326416015625">
        <ele>1489.800048828125</ele>
        <time>2022-08-24T09:23:31.000Z</time>
      </trkpt>
      <trkpt lat="40.4750086180865764617919921875" lon="-1.52667221613228321075439453125">
        <ele>1490</ele>
        <time>2022-08-24T09:23:35.000Z</time>
      </trkpt>
      <trkpt lat="40.47504566609859466552734375" lon="-1.5268107689917087554931640625">
        <ele>1491</ele>
        <time>2022-08-24T09:23:41.000Z</time>
      </trkpt>
      <trkpt lat="40.475046001374721527099609375" lon="-1.52683130465447902679443359375">
        <ele>1491.199951171875</ele>
        <time>2022-08-24T09:23:42.000Z</time>
      </trkpt>
      <trkpt lat="40.475035607814788818359375" lon="-1.526926942169666290283203125">
        <ele>1491.800048828125</ele>
        <time>2022-08-24T09:23:47.000Z</time>
      </trkpt>
      <trkpt lat="40.4750289022922515869140625" lon="-1.526941023766994476318359375">
        <ele>1491.800048828125</ele>
        <time>2022-08-24T09:23:48.000Z</time>
      </trkpt>
      <trkpt lat="40.47499001026153564453125" lon="-1.52699156664311885833740234375">
        <ele>1492</ele>
        <time>2022-08-24T09:23:52.000Z</time>
      </trkpt>
      <trkpt lat="40.47495556063950061798095703125" lon="-1.52702341787517070770263671875">
        <ele>1492.4000244140625</ele>
        <time>2022-08-24T09:23:55.000Z</time>
      </trkpt>
      <trkpt lat="40.47488682903349399566650390625" lon="-1.52709499932825565338134765625">
        <ele>1493</ele>
        <time>2022-08-24T09:24:01.000Z</time>
      </trkpt>
      <trkpt lat="40.47486403025686740875244140625" lon="-1.52714462019503116607666015625">
        <ele>1493.4000244140625</ele>
        <time>2022-08-24T09:24:04.000Z</time>
      </trkpt>
      <trkpt lat="40.47482974827289581298828125" lon="-1.52721829712390899658203125">
        <ele>1494.199951171875</ele>
        <time>2022-08-24T09:24:08.000Z</time>
      </trkpt>
      <trkpt lat="40.4747776128351688385009765625" lon="-1.52733338065445423126220703125">
        <ele>1495</ele>
        <time>2022-08-24T09:24:14.000Z</time>
      </trkpt>
      <trkpt lat="40.47476327978074550628662109375" lon="-1.52737378142774105072021484375">
        <ele>1495.199951171875</ele>
        <time>2022-08-24T09:24:16.000Z</time>
      </trkpt>
      <trkpt lat="40.47471667639911174774169921875" lon="-1.52752817608416080474853515625">
        <ele>1496</ele>
        <time>2022-08-24T09:24:23.000Z</time>
      </trkpt>
      <trkpt lat="40.47470259480178356170654296875" lon="-1.52757662348449230194091796875">
        <ele>1496.199951171875</ele>
        <time>2022-08-24T09:24:25.000Z</time>
      </trkpt>
      <trkpt lat="40.4746562428772449493408203125" lon="-1.52774132788181304931640625">
        <ele>1496.800048828125</ele>
        <time>2022-08-24T09:24:31.000Z</time>
      </trkpt>
      <trkpt lat="40.47460167668759822845458984375" lon="-1.52794182300567626953125">
        <ele>1497.199951171875</ele>
        <time>2022-08-24T09:24:39.000Z</time>
      </trkpt>
      <trkpt lat="40.4745526425540447235107421875" lon="-1.52814097702503204345703125">
        <ele>1497.800048828125</ele>
        <time>2022-08-24T09:24:47.000Z</time>
      </trkpt>
      <trkpt lat="40.4744963161647319793701171875" lon="-1.52831054292619228363037109375">
        <ele>1498.4000244140625</ele>
        <time>2022-08-24T09:24:53.000Z</time>
      </trkpt>
      <trkpt lat="40.47448114491999149322509765625" lon="-1.5283728204667568206787109375">
        <ele>1498.4000244140625</ele>
        <time>2022-08-24T09:24:55.000Z</time>
      </trkpt>
      <trkpt lat="40.47438877634704113006591796875" lon="-1.5286490879952907562255859375">
        <ele>1498.5999755859375</ele>
        <time>2022-08-24T09:25:02.000Z</time>
      </trkpt>
      <trkpt lat="40.47428634949028491973876953125" lon="-1.5289106033742427825927734375">
        <ele>1498.5999755859375</ele>
        <time>2022-08-24T09:25:08.000Z</time>
      </trkpt>
      <trkpt lat="40.47418258152902126312255859375" lon="-1.52916147373616695404052734375">
        <ele>1497.800048828125</ele>
        <time>2022-08-24T09:25:15.000Z</time>
      </trkpt>
      <trkpt lat="40.4740366525948047637939453125" lon="-1.52945182286202907562255859375">
        <ele>1497.4000244140625</ele>
        <time>2022-08-24T09:25:24.000Z</time>
      </trkpt>
      <trkpt lat="40.4738847725093364715576171875" lon="-1.529653072357177734375">
        <ele>1497.800048828125</ele>
        <time>2022-08-24T09:25:32.000Z</time>
      </trkpt>
      <trkpt lat="40.473714955151081085205078125" lon="-1.52986966073513031005859375">
        <ele>1498.4000244140625</ele>
        <time>2022-08-24T09:25:41.000Z</time>
      </trkpt>
      <trkpt lat="40.47353097237646579742431640625" lon="-1.53008423745632171630859375">
        <ele>1498.5999755859375</ele>
        <time>2022-08-24T09:25:49.000Z</time>
      </trkpt>
      <trkpt lat="40.4733766615390777587890625" lon="-1.53029537759721279144287109375">
        <ele>1498.5999755859375</ele>
        <time>2022-08-24T09:25:57.000Z</time>
      </trkpt>
      <trkpt lat="40.47326266765594482421875" lon="-1.53046519495546817779541015625">
        <ele>1498.5999755859375</ele>
        <time>2022-08-24T09:26:02.000Z</time>
      </trkpt>
      <trkpt lat="40.473191924393177032470703125" lon="-1.53053627349436283111572265625">
        <ele>1498.5999755859375</ele>
        <time>2022-08-24T09:26:07.000Z</time>
      </trkpt>
      <trkpt lat="40.473113469779491424560546875" lon="-1.5306268818676471710205078125">
        <ele>1499</ele>
        <time>2022-08-24T09:26:15.000Z</time>
      </trkpt>
      <trkpt lat="40.47309360466897487640380859375" lon="-1.53065898455679416656494140625">
        <ele>1499.199951171875</ele>
        <time>2022-08-24T09:26:17.000Z</time>
      </trkpt>
      <trkpt lat="40.473049096763134002685546875" lon="-1.5307385288178920745849609375">
        <ele>1500.199951171875</ele>
        <time>2022-08-24T09:26:23.000Z</time>
      </trkpt>
      <trkpt lat="40.47299084253609180450439453125" lon="-1.53082025237381458282470703125">
        <ele>1501</ele>
        <time>2022-08-24T09:26:30.000Z</time>
      </trkpt>
      <trkpt lat="40.4729795269668102264404296875" lon="-1.53083869256079196929931640625">
        <ele>1501.199951171875</ele>
        <time>2022-08-24T09:26:32.000Z</time>
      </trkpt>
      <trkpt lat="40.47294708900153636932373046875" lon="-1.53088881634175777435302734375">
        <ele>1502.4000244140625</ele>
        <time>2022-08-24T09:26:37.000Z</time>
      </trkpt>
      <trkpt lat="40.472914986312389373779296875" lon="-1.5309329889714717864990234375">
        <ele>1502.800048828125</ele>
        <time>2022-08-24T09:26:40.000Z</time>
      </trkpt>
      <trkpt lat="40.472855977714061737060546875" lon="-1.53101739473640918731689453125">
        <ele>1503.4000244140625</ele>
        <time>2022-08-24T09:26:46.000Z</time>
      </trkpt>
      <trkpt lat="40.47283845953643321990966796875" lon="-1.53104178607463836669921875">
        <ele>1503.5999755859375</ele>
        <time>2022-08-24T09:26:48.000Z</time>
      </trkpt>
      <trkpt lat="40.472788922488689422607421875" lon="-1.5311183966696262359619140625">
        <ele>1503.800048828125</ele>
        <time>2022-08-24T09:26:54.000Z</time>
      </trkpt>
      <trkpt lat="40.47275983728468418121337890625" lon="-1.53117145411670207977294921875">
        <ele>1504.199951171875</ele>
        <time>2022-08-24T09:26:58.000Z</time>
      </trkpt>
      <trkpt lat="40.47273050062358379364013671875" lon="-1.53121319599449634552001953125">
        <ele>1504.4000244140625</ele>
        <time>2022-08-24T09:27:01.000Z</time>
      </trkpt>
      <trkpt lat="40.4726953804492950439453125" lon="-1.53126197867095470428466796875">
        <ele>1505.199951171875</ele>
        <time>2022-08-24T09:27:06.000Z</time>
      </trkpt>
      <trkpt lat="40.47268339432775974273681640625" lon="-1.53128595091402530670166015625">
        <ele>1505.5999755859375</ele>
        <time>2022-08-24T09:27:09.000Z</time>
      </trkpt>
      <trkpt lat="40.47262824140489101409912109375" lon="-1.53136658482253551483154296875">
        <ele>1506.4000244140625</ele>
        <time>2022-08-24T09:27:16.000Z</time>
      </trkpt>
      <trkpt lat="40.47255179844796657562255859375" lon="-1.531502120196819305419921875">
        <ele>1507.199951171875</ele>
        <time>2022-08-24T09:27:24.000Z</time>
      </trkpt>
      <trkpt lat="40.47252707183361053466796875" lon="-1.5315519087016582489013671875">
        <ele>1507.4000244140625</ele>
        <time>2022-08-24T09:27:27.000Z</time>
      </trkpt>
      <trkpt lat="40.4724776186048984527587890625" lon="-1.5316477976739406585693359375">
        <ele>1507.800048828125</ele>
        <time>2022-08-24T09:27:32.000Z</time>
      </trkpt>
      <trkpt lat="40.47242581844329833984375" lon="-1.5317269228398799896240234375">
        <ele>1508.5999755859375</ele>
        <time>2022-08-24T09:27:37.000Z</time>
      </trkpt>
      <trkpt lat="40.47240612097084522247314453125" lon="-1.531760282814502716064453125">
        <ele>1508.800048828125</ele>
        <time>2022-08-24T09:27:39.000Z</time>
      </trkpt>
      <trkpt lat="40.4723438434302806854248046875" lon="-1.53188190422952175140380859375">
        <ele>1509.4000244140625</ele>
        <time>2022-08-24T09:27:47.000Z</time>
      </trkpt>
      <trkpt lat="40.47232934273779392242431640625" lon="-1.53190973214805126190185546875">
        <ele>1509.5999755859375</ele>
        <time>2022-08-24T09:27:49.000Z</time>
      </trkpt>
      <trkpt lat="40.47227335162460803985595703125" lon="-1.53199103660881519317626953125">
        <ele>1510</ele>
        <time>2022-08-24T09:27:56.000Z</time>
      </trkpt>
      <trkpt lat="40.47223345376551151275634765625" lon="-1.532061360776424407958984375">
        <ele>1510.5999755859375</ele>
        <time>2022-08-24T09:28:01.000Z</time>
      </trkpt>
      <trkpt lat="40.47219372354447841644287109375" lon="-1.53209664858877658843994140625">
        <ele>1510.800048828125</ele>
        <time>2022-08-24T09:28:04.000Z</time>
      </trkpt>
      <trkpt lat="40.472174026072025299072265625" lon="-1.5321547351777553558349609375">
        <ele>1511.800048828125</ele>
        <time>2022-08-24T09:28:08.000Z</time>
      </trkpt>
      <trkpt lat="40.472105629742145538330078125" lon="-1.5322476066648960113525390625">
        <ele>1512.800048828125</ele>
        <time>2022-08-24T09:28:14.000Z</time>
      </trkpt>
      <trkpt lat="40.47210236079990863800048828125" lon="-1.53226076625287532806396484375">
        <ele>1513</ele>
        <time>2022-08-24T09:28:15.000Z</time>
      </trkpt>
      <trkpt lat="40.4720731079578399658203125" lon="-1.53233100660145282745361328125">
        <ele>1514</ele>
        <time>2022-08-24T09:28:20.000Z</time>
      </trkpt>
      <trkpt lat="40.4720534943044185638427734375" lon="-1.532382555305957794189453125">
        <ele>1514.5999755859375</ele>
        <time>2022-08-24T09:28:23.000Z</time>
      </trkpt>
      <trkpt lat="40.4720300249755382537841796875" lon="-1.53243075124919414520263671875">
        <ele>1515.199951171875</ele>
        <time>2022-08-24T09:28:26.000Z</time>
      </trkpt>
      <trkpt lat="40.47198434360325336456298828125" lon="-1.532525382936000823974609375">
        <ele>1516.199951171875</ele>
        <time>2022-08-24T09:28:32.000Z</time>
      </trkpt>
      <trkpt lat="40.471933968365192413330078125" lon="-1.5326496027410030364990234375">
        <ele>1517.199951171875</ele>
        <time>2022-08-24T09:28:39.000Z</time>
      </trkpt>
      <trkpt lat="40.47191410325467586517333984375" lon="-1.53270467184484004974365234375">
        <ele>1517.800048828125</ele>
        <time>2022-08-24T09:28:42.000Z</time>
      </trkpt>
      <trkpt lat="40.471893735229969024658203125" lon="-1.53277985751628875732421875">
        <ele>1518.4000244140625</ele>
        <time>2022-08-24T09:28:46.000Z</time>
      </trkpt>
      <trkpt lat="40.4718761332333087921142578125" lon="-1.5328983776271343231201171875">
        <ele>1519.5999755859375</ele>
        <time>2022-08-24T09:28:52.000Z</time>
      </trkpt>
      <trkpt lat="40.47186766751110553741455078125" lon="-1.5329362638294696807861328125">
        <ele>1519.800048828125</ele>
        <time>2022-08-24T09:28:54.000Z</time>
      </trkpt>
      <trkpt lat="40.47184604220092296600341796875" lon="-1.53303927741944789886474609375">
        <ele>1520.5999755859375</ele>
        <time>2022-08-24T09:29:00.000Z</time>
      </trkpt>
      <trkpt lat="40.47184688039124011993408203125" lon="-1.53306911699473857879638671875">
        <ele>1520.800048828125</ele>
        <time>2022-08-24T09:29:02.000Z</time>
      </trkpt>
      <trkpt lat="40.471881665289402008056640625" lon="-1.53321194462478160858154296875">
        <ele>1521.5999755859375</ele>
        <time>2022-08-24T09:29:11.000Z</time>
      </trkpt>
      <trkpt lat="40.471892394125461578369140625" lon="-1.5332805924117565155029296875">
        <ele>1521.800048828125</ele>
        <time>2022-08-24T09:29:15.000Z</time>
      </trkpt>
      <trkpt lat="40.47190857119858264923095703125" lon="-1.533328033983707427978515625">
        <ele>1522.199951171875</ele>
        <time>2022-08-24T09:29:18.000Z</time>
      </trkpt>
      <trkpt lat="40.47192935831844806671142578125" lon="-1.53337455354630947113037109375">
        <ele>1522.5999755859375</ele>
        <time>2022-08-24T09:29:21.000Z</time>
      </trkpt>
      <trkpt lat="40.4719633050262928009033203125" lon="-1.53345569036900997161865234375">
        <ele>1523.199951171875</ele>
        <time>2022-08-24T09:29:26.000Z</time>
      </trkpt>
      <trkpt lat="40.4719824157655239105224609375" lon="-1.5334810875356197357177734375">
        <ele>1523.800048828125</ele>
        <time>2022-08-24T09:29:28.000Z</time>
      </trkpt>
      <trkpt lat="40.4720283485949039459228515625" lon="-1.53356079943478107452392578125">
        <ele>1524.199951171875</ele>
        <time>2022-08-24T09:29:33.000Z</time>
      </trkpt>
      <trkpt lat="40.47208693809807300567626953125" lon="-1.53361343778669834136962890625">
        <ele>1525</ele>
        <time>2022-08-24T09:29:38.000Z</time>
      </trkpt>
      <trkpt lat="40.47209682874381542205810546875" lon="-1.53362483717501163482666015625">
        <ele>1525</ele>
        <time>2022-08-24T09:29:39.000Z</time>
      </trkpt>
      <trkpt lat="40.47215919010341167449951171875" lon="-1.53367496095597743988037109375">
        <ele>1526</ele>
        <time>2022-08-24T09:29:44.000Z</time>
      </trkpt>
      <trkpt lat="40.4722070507705211639404296875" lon="-1.533695161342620849609375">
        <ele>1526.4000244140625</ele>
        <time>2022-08-24T09:29:47.000Z</time>
      </trkpt>
      <trkpt lat="40.47233236022293567657470703125" lon="-1.53376012109220027923583984375">
        <ele>1526.800048828125</ele>
        <time>2022-08-24T09:29:56.000Z</time>
      </trkpt>
      <trkpt lat="40.4723451845347881317138671875" lon="-1.533770263195037841796875">
        <ele>1527</ele>
        <time>2022-08-24T09:29:57.000Z</time>
      </trkpt>
      <trkpt lat="40.47241483815014362335205078125" lon="-1.53383756987750530242919921875">
        <ele>1527.199951171875</ele>
        <time>2022-08-24T09:30:03.000Z</time>
      </trkpt>
      <trkpt lat="40.4724943824112415313720703125" lon="-1.5339578501880168914794921875">
        <ele>1527.5999755859375</ele>
        <time>2022-08-24T09:30:11.000Z</time>
      </trkpt>
      <trkpt lat="40.4725004173815250396728515625" lon="-1.53410696424543857574462890625">
        <ele>1528.199951171875</ele>
        <time>2022-08-24T09:30:19.000Z</time>
      </trkpt>
      <trkpt lat="40.47249614261090755462646484375" lon="-1.5342240594327449798583984375">
        <ele>1529.4000244140625</ele>
        <time>2022-08-24T09:30:25.000Z</time>
      </trkpt>
      <trkpt lat="40.472505949437618255615234375" lon="-1.5342666395008563995361328125">
        <ele>1529.5999755859375</ele>
        <time>2022-08-24T09:30:27.000Z</time>
      </trkpt>
      <trkpt lat="40.47253067605197429656982421875" lon="-1.53442681767046451568603515625">
        <ele>1529.800048828125</ele>
        <time>2022-08-24T09:30:32.000Z</time>
      </trkpt>
      <trkpt lat="40.472597144544124603271484375" lon="-1.534683220088481903076171875">
        <ele>1530</ele>
        <time>2022-08-24T09:30:36.000Z</time>
      </trkpt>
      <trkpt lat="40.4727552272379398345947265625" lon="-1.534824036061763763427734375">
        <ele>1530</ele>
        <time>2022-08-24T09:30:39.000Z</time>
      </trkpt>
      <trkpt lat="40.4728155769407749176025390625" lon="-1.53484649956226348876953125">
        <ele>1530</ele>
        <time>2022-08-24T09:30:40.000Z</time>
      </trkpt>
      <trkpt lat="40.47312713228166103363037109375" lon="-1.534950099885463714599609375">
        <ele>1528.199951171875</ele>
        <time>2022-08-24T09:30:46.000Z</time>
      </trkpt>
      <trkpt lat="40.4732692055404186248779296875" lon="-1.5349341742694377899169921875">
        <ele>1527.199951171875</ele>
        <time>2022-08-24T09:30:50.000Z</time>
      </trkpt>
      <trkpt lat="40.4732935130596160888671875" lon="-1.53492654673755168914794921875">
        <ele>1527.199951171875</ele>
        <time>2022-08-24T09:30:51.000Z</time>
      </trkpt>
      <trkpt lat="40.47338345088064670562744140625" lon="-1.5348875708878040313720703125">
        <ele>1527.199951171875</ele>
        <time>2022-08-24T09:30:56.000Z</time>
      </trkpt>
      <trkpt lat="40.47350884415209293365478515625" lon="-1.534837447106838226318359375">
        <ele>1527.800048828125</ele>
        <time>2022-08-24T09:31:05.000Z</time>
      </trkpt>
      <trkpt lat="40.473568104207515716552734375" lon="-1.53481389395892620086669921875">
        <ele>1528.199951171875</ele>
        <time>2022-08-24T09:31:10.000Z</time>
      </trkpt>
      <trkpt lat="40.4735960997641086578369140625" lon="-1.5348144806921482086181640625">
        <ele>1528.5999755859375</ele>
        <time>2022-08-24T09:31:12.000Z</time>
      </trkpt>
      <trkpt lat="40.4737349040806293487548828125" lon="-1.5348114632070064544677734375">
        <ele>1529.199951171875</ele>
        <time>2022-08-24T09:31:21.000Z</time>
      </trkpt>
      <trkpt lat="40.47379936091601848602294921875" lon="-1.53480618260800838470458984375">
        <ele>1529.199951171875</ele>
        <time>2022-08-24T09:31:25.000Z</time>
      </trkpt>
      <trkpt lat="40.47382987104356288909912109375" lon="-1.53480224311351776123046875">
        <ele>1529.4000244140625</ele>
        <time>2022-08-24T09:31:27.000Z</time>
      </trkpt>
      <trkpt lat="40.47393833287060260772705078125" lon="-1.5348067693412303924560546875">
        <ele>1530</ele>
        <time>2022-08-24T09:31:35.000Z</time>
      </trkpt>
      <trkpt lat="40.47395191155374050140380859375" lon="-1.53480760753154754638671875">
        <ele>1530.199951171875</ele>
        <time>2022-08-24T09:31:36.000Z</time>
      </trkpt>
      <trkpt lat="40.4740389995276927947998046875" lon="-1.53481121174991130828857421875">
        <ele>1531</ele>
        <time>2022-08-24T09:31:42.000Z</time>
      </trkpt>
      <trkpt lat="40.47406791709363460540771484375" lon="-1.53480920009315013885498046875">
        <ele>1531.4000244140625</ele>
        <time>2022-08-24T09:31:44.000Z</time>
      </trkpt>
      <trkpt lat="40.47418040223419666290283203125" lon="-1.53480626642704010009765625">
        <ele>1532.4000244140625</ele>
        <time>2022-08-24T09:31:52.000Z</time>
      </trkpt>
      <trkpt lat="40.4742907918989658355712890625" lon="-1.5347960405051708221435546875">
        <ele>1533</ele>
        <time>2022-08-24T09:31:59.000Z</time>
      </trkpt>
      <trkpt lat="40.47444929368793964385986328125" lon="-1.5348138101398944854736328125">
        <ele>1533.4000244140625</ele>
        <time>2022-08-24T09:32:07.000Z</time>
      </trkpt>
      <trkpt lat="40.47456085681915283203125" lon="-1.53480433858931064605712890625">
        <ele>1533.5999755859375</ele>
        <time>2022-08-24T09:32:14.000Z</time>
      </trkpt>
      <trkpt lat="40.4747172631323337554931640625" lon="-1.5347886644303798675537109375">
        <ele>1533.4000244140625</ele>
        <time>2022-08-24T09:32:21.000Z</time>
      </trkpt>
      <trkpt lat="40.474914573132991790771484375" lon="-1.53477734886109828948974609375">
        <ele>1533.199951171875</ele>
        <time>2022-08-24T09:32:28.000Z</time>
      </trkpt>
      <trkpt lat="40.47515689395368099212646484375" lon="-1.5347762592136859893798828125">
        <ele>1533</ele>
        <time>2022-08-24T09:32:35.000Z</time>
      </trkpt>
      <trkpt lat="40.47533492557704448699951171875" lon="-1.53480718843638896942138671875">
        <ele>1532.4000244140625</ele>
        <time>2022-08-24T09:32:40.000Z</time>
      </trkpt>
      <trkpt lat="40.47544506378471851348876953125" lon="-1.534820012748241424560546875">
        <ele>1532</ele>
        <time>2022-08-24T09:32:43.000Z</time>
      </trkpt>
      <trkpt lat="40.475527457892894744873046875" lon="-1.53485295362770557403564453125">
        <ele>1531.800048828125</ele>
        <time>2022-08-24T09:32:45.000Z</time>
      </trkpt>
      <trkpt lat="40.4756107740104198455810546875" lon="-1.53491581790149211883544921875">
        <ele>1531.4000244140625</ele>
        <time>2022-08-24T09:32:47.000Z</time>
      </trkpt>
      <trkpt lat="40.475651510059833526611328125" lon="-1.534960158169269561767578125">
        <ele>1531.199951171875</ele>
        <time>2022-08-24T09:32:48.000Z</time>
      </trkpt>
      <trkpt lat="40.47569383867084980010986328125" lon="-1.53500969521701335906982421875">
        <ele>1531</ele>
        <time>2022-08-24T09:32:49.000Z</time>
      </trkpt>
      <trkpt lat="40.47587907873094081878662109375" lon="-1.535215638577938079833984375">
        <ele>1530.800048828125</ele>
        <time>2022-08-24T09:32:53.000Z</time>
      </trkpt>
      <trkpt lat="40.47592618502676486968994140625" lon="-1.53525553643703460693359375">
        <ele>1530.5999755859375</ele>
        <time>2022-08-24T09:32:54.000Z</time>
      </trkpt>
      <trkpt lat="40.47602090053260326385498046875" lon="-1.535314880311489105224609375">
        <ele>1530.199951171875</ele>
        <time>2022-08-24T09:32:56.000Z</time>
      </trkpt>
      <trkpt lat="40.4760724492371082305908203125" lon="-1.535337679088115692138671875">
        <ele>1530</ele>
        <time>2022-08-24T09:32:57.000Z</time>
      </trkpt>
      <trkpt lat="40.4761874489486217498779296875" lon="-1.53538118116557598114013671875">
        <ele>1529.4000244140625</ele>
        <time>2022-08-24T09:32:59.000Z</time>
      </trkpt>
      <trkpt lat="40.4762494750320911407470703125" lon="-1.53540565632283687591552734375">
        <ele>1529.199951171875</ele>
        <time>2022-08-24T09:33:00.000Z</time>
      </trkpt>
      <trkpt lat="40.4764345474541187286376953125" lon="-1.53552509844303131103515625">
        <ele>1528.199951171875</ele>
        <time>2022-08-24T09:33:03.000Z</time>
      </trkpt>
      <trkpt lat="40.47649213112890720367431640625" lon="-1.5355705283582210540771484375">
        <ele>1527.5999755859375</ele>
        <time>2022-08-24T09:33:04.000Z</time>
      </trkpt>
      <trkpt lat="40.476660691201686859130859375" lon="-1.53570204041898250579833984375">
        <ele>1526.4000244140625</ele>
        <time>2022-08-24T09:33:07.000Z</time>
      </trkpt>
      <trkpt lat="40.4768261499702930450439453125" lon="-1.535789966583251953125">
        <ele>1525.199951171875</ele>
        <time>2022-08-24T09:33:10.000Z</time>
      </trkpt>
      <trkpt lat="40.47717927955090999603271484375" lon="-1.535921394824981689453125">
        <ele>1524.199951171875</ele>
        <time>2022-08-24T09:33:17.000Z</time>
      </trkpt>
      <trkpt lat="40.4772610031068325042724609375" lon="-1.53594260104000568389892578125">
        <ele>1524.199951171875</ele>
        <time>2022-08-24T09:33:19.000Z</time>
      </trkpt>
      <trkpt lat="40.47741112299263477325439453125" lon="-1.535962633788585662841796875">
        <ele>1524</ele>
        <time>2022-08-24T09:33:23.000Z</time>
      </trkpt>
      <trkpt lat="40.47756652347743511199951171875" lon="-1.536073274910449981689453125">
        <ele>1524</ele>
        <time>2022-08-24T09:33:29.000Z</time>
      </trkpt>
      <trkpt lat="40.477673225104808807373046875" lon="-1.53622004203498363494873046875">
        <ele>1524.4000244140625</ele>
        <time>2022-08-24T09:33:36.000Z</time>
      </trkpt>
      <trkpt lat="40.47770432196557521820068359375" lon="-1.53640226460993289947509765625">
        <ele>1525</ele>
        <time>2022-08-24T09:33:43.000Z</time>
      </trkpt>
      <trkpt lat="40.4776780866086483001708984375" lon="-1.53646881692111492156982421875">
        <ele>1525.199951171875</ele>
        <time>2022-08-24T09:33:46.000Z</time>
      </trkpt>
      <trkpt lat="40.4776549525558948516845703125" lon="-1.536567471921443939208984375">
        <ele>1525.4000244140625</ele>
        <time>2022-08-24T09:33:50.000Z</time>
      </trkpt>
      <trkpt lat="40.4776301421225070953369140625" lon="-1.5366574935615062713623046875">
        <ele>1525.4000244140625</ele>
        <time>2022-08-24T09:33:54.000Z</time>
      </trkpt>
      <trkpt lat="40.47764196060597896575927734375" lon="-1.53670728206634521484375">
        <ele>1525.4000244140625</ele>
        <time>2022-08-24T09:33:57.000Z</time>
      </trkpt>
      <trkpt lat="40.477698035538196563720703125" lon="-1.53678263537585735321044921875">
        <ele>1525.800048828125</ele>
        <time>2022-08-24T09:34:04.000Z</time>
      </trkpt>
      <trkpt lat="40.4777136258780956268310546875" lon="-1.53682186268270015716552734375">
        <ele>1526.199951171875</ele>
        <time>2022-08-24T09:34:07.000Z</time>
      </trkpt>
      <trkpt lat="40.47775260172784328460693359375" lon="-1.5368801169097423553466796875">
        <ele>1526.199951171875</ele>
        <time>2022-08-24T09:34:11.000Z</time>
      </trkpt>
      <trkpt lat="40.477835498750209808349609375" lon="-1.5369602479040622711181640625">
        <ele>1526.4000244140625</ele>
        <time>2022-08-24T09:34:18.000Z</time>
      </trkpt>
      <trkpt lat="40.47792778350412845611572265625" lon="-1.53706292621791362762451171875">
        <ele>1526.5999755859375</ele>
        <time>2022-08-24T09:34:25.000Z</time>
      </trkpt>
      <trkpt lat="40.47797891311347484588623046875" lon="-1.53714372776448726654052734375">
        <ele>1527</ele>
        <time>2022-08-24T09:34:29.000Z</time>
      </trkpt>
      <trkpt lat="40.47801755368709564208984375" lon="-1.537194438278675079345703125">
        <ele>1527.199951171875</ele>
        <time>2022-08-24T09:34:32.000Z</time>
      </trkpt>
      <trkpt lat="40.47810078598558902740478515625" lon="-1.53733282350003719329833984375">
        <ele>1527.800048828125</ele>
        <time>2022-08-24T09:34:40.000Z</time>
      </trkpt>
      <trkpt lat="40.47813045792281627655029296875" lon="-1.5373766608536243438720703125">
        <ele>1528.199951171875</ele>
        <time>2022-08-24T09:34:43.000Z</time>
      </trkpt>
      <trkpt lat="40.47818460501730442047119140625" lon="-1.5374423749744892120361328125">
        <ele>1528.800048828125</ele>
        <time>2022-08-24T09:34:48.000Z</time>
      </trkpt>
      <trkpt lat="40.47820530831813812255859375" lon="-1.53746701776981353759765625">
        <ele>1529.199951171875</ele>
        <time>2022-08-24T09:34:50.000Z</time>
      </trkpt>
      <trkpt lat="40.478268004953861236572265625" lon="-1.5375318937003612518310546875">
        <ele>1530.199951171875</ele>
        <time>2022-08-24T09:34:56.000Z</time>
      </trkpt>
      <trkpt lat="40.47835911624133586883544921875" lon="-1.53763331472873687744140625">
        <ele>1531.4000244140625</ele>
        <time>2022-08-24T09:35:04.000Z</time>
      </trkpt>
      <trkpt lat="40.47838644124567508697509765625" lon="-1.53765988536179065704345703125">
        <ele>1531.5999755859375</ele>
        <time>2022-08-24T09:35:06.000Z</time>
      </trkpt>
      <trkpt lat="40.47850906848907470703125" lon="-1.53777505271136760711669921875">
        <ele>1532.199951171875</ele>
        <time>2022-08-24T09:35:15.000Z</time>
      </trkpt>
      <trkpt lat="40.47852273099124431610107421875" lon="-1.537785194814205169677734375">
        <ele>1532.199951171875</ele>
        <time>2022-08-24T09:35:16.000Z</time>
      </trkpt>
      <trkpt lat="40.47862415201961994171142578125" lon="-1.53789876960217952728271484375">
        <ele>1533</ele>
        <time>2022-08-24T09:35:25.000Z</time>
      </trkpt>
      <trkpt lat="40.47864443622529506683349609375" lon="-1.5379275195300579071044921875">
        <ele>1533.199951171875</ele>
        <time>2022-08-24T09:35:27.000Z</time>
      </trkpt>
      <trkpt lat="40.47868316061794757843017578125" lon="-1.53797755949199199676513671875">
        <ele>1533.5999755859375</ele>
        <time>2022-08-24T09:35:31.000Z</time>
      </trkpt>
      <trkpt lat="40.47876144759356975555419921875" lon="-1.53806112706661224365234375">
        <ele>1534.199951171875</ele>
        <time>2022-08-24T09:35:38.000Z</time>
      </trkpt>
      <trkpt lat="40.4787855036556720733642578125" lon="-1.53808216564357280731201171875">
        <ele>1534.199951171875</ele>
        <time>2022-08-24T09:35:40.000Z</time>
      </trkpt>
      <trkpt lat="40.4788475297391414642333984375" lon="-1.5381286852061748504638671875">
        <ele>1534.5999755859375</ele>
        <time>2022-08-24T09:35:45.000Z</time>
      </trkpt>
      <trkpt lat="40.478952638804912567138671875" lon="-1.53821694664657115936279296875">
        <ele>1535.199951171875</ele>
        <time>2022-08-24T09:35:53.000Z</time>
      </trkpt>
      <trkpt lat="40.47896579839289188385009765625" lon="-1.53823002241551876068115234375">
        <ele>1535.4000244140625</ele>
        <time>2022-08-24T09:35:54.000Z</time>
      </trkpt>
      <trkpt lat="40.47905732877552509307861328125" lon="-1.53832021169364452362060546875">
        <ele>1536</ele>
        <time>2022-08-24T09:36:01.000Z</time>
      </trkpt>
      <trkpt lat="40.47910963185131549835205078125" lon="-1.5383650548756122589111328125">
        <ele>1536.4000244140625</ele>
        <time>2022-08-24T09:36:05.000Z</time>
      </trkpt>
      <trkpt lat="40.4791512899100780487060546875" lon="-1.53838458471000194549560546875">
        <ele>1536.5999755859375</ele>
        <time>2022-08-24T09:36:08.000Z</time>
      </trkpt>
      <trkpt lat="40.47921490855515003204345703125" lon="-1.5384498797357082366943359375">
        <ele>1537.4000244140625</ele>
        <time>2022-08-24T09:36:14.000Z</time>
      </trkpt>
      <trkpt lat="40.4792951233685016632080078125" lon="-1.53852975927293300628662109375">
        <ele>1538.4000244140625</ele>
        <time>2022-08-24T09:36:21.000Z</time>
      </trkpt>
      <trkpt lat="40.47930593602359294891357421875" lon="-1.53854350559413433074951171875">
        <ele>1538.4000244140625</ele>
        <time>2022-08-24T09:36:22.000Z</time>
      </trkpt>
      <trkpt lat="40.47937382943928241729736328125" lon="-1.53864224441349506378173828125">
        <ele>1539.199951171875</ele>
        <time>2022-08-24T09:36:29.000Z</time>
      </trkpt>
      <trkpt lat="40.4793950356543064117431640625" lon="-1.53867174871265888214111328125">
        <ele>1539.5999755859375</ele>
        <time>2022-08-24T09:36:31.000Z</time>
      </trkpt>
      <trkpt lat="40.47941741533577442169189453125" lon="-1.538715250790119171142578125">
        <ele>1540</ele>
        <time>2022-08-24T09:36:34.000Z</time>
      </trkpt>
      <trkpt lat="40.4794309101998805999755859375" lon="-1.53877048753201961517333984375">
        <ele>1540.199951171875</ele>
        <time>2022-08-24T09:36:37.000Z</time>
      </trkpt>
      <trkpt lat="40.4794376157224178314208984375" lon="-1.5388116426765918731689453125">
        <ele>1540.4000244140625</ele>
        <time>2022-08-24T09:36:39.000Z</time>
      </trkpt>
      <trkpt lat="40.4794496856629848480224609375" lon="-1.53892002068459987640380859375">
        <ele>1541.5999755859375</ele>
        <time>2022-08-24T09:36:44.000Z</time>
      </trkpt>
      <trkpt lat="40.4794530384242534637451171875" lon="-1.5389616787433624267578125">
        <ele>1542</ele>
        <time>2022-08-24T09:36:46.000Z</time>
      </trkpt>
      <trkpt lat="40.479454882442951202392578125" lon="-1.53905882500112056732177734375">
        <ele>1542.5999755859375</ele>
        <time>2022-08-24T09:36:51.000Z</time>
      </trkpt>
      <trkpt lat="40.4794637672603130340576171875" lon="-1.53912956826388835906982421875">
        <ele>1543</ele>
        <time>2022-08-24T09:36:55.000Z</time>
      </trkpt>
      <trkpt lat="40.47948463819921016693115234375" lon="-1.539223194122314453125">
        <ele>1543.5999755859375</ele>
        <time>2022-08-24T09:37:00.000Z</time>
      </trkpt>
      <trkpt lat="40.4794936068356037139892578125" lon="-1.53926049359142780303955078125">
        <ele>1543.800048828125</ele>
        <time>2022-08-24T09:37:02.000Z</time>
      </trkpt>
      <trkpt lat="40.479536019265651702880859375" lon="-1.539397202432155609130859375">
        <ele>1544.800048828125</ele>
        <time>2022-08-24T09:37:09.000Z</time>
      </trkpt>
      <trkpt lat="40.47960701398551464080810546875" lon="-1.5395727194845676422119140625">
        <ele>1545.800048828125</ele>
        <time>2022-08-24T09:37:18.000Z</time>
      </trkpt>
      <trkpt lat="40.47962310723960399627685546875" lon="-1.5396095998585224151611328125">
        <ele>1546</ele>
        <time>2022-08-24T09:37:20.000Z</time>
      </trkpt>
      <trkpt lat="40.47969502396881580352783203125" lon="-1.5397591330111026763916015625">
        <ele>1546.4000244140625</ele>
        <time>2022-08-24T09:37:28.000Z</time>
      </trkpt>
      <trkpt lat="40.47978823073208332061767578125" lon="-1.5399217419326305389404296875">
        <ele>1546.800048828125</ele>
        <time>2022-08-24T09:37:37.000Z</time>
      </trkpt>
      <trkpt lat="40.47979946248233318328857421875" lon="-1.5399381704628467559814453125">
        <ele>1547</ele>
        <time>2022-08-24T09:37:38.000Z</time>
      </trkpt>
      <trkpt lat="40.47990507446229457855224609375" lon="-1.54009181074798107147216796875">
        <ele>1547.5999755859375</ele>
        <time>2022-08-24T09:37:47.000Z</time>
      </trkpt>
      <trkpt lat="40.479939021170139312744140625" lon="-1.540142856538295745849609375">
        <ele>1547.800048828125</ele>
        <time>2022-08-24T09:37:50.000Z</time>
      </trkpt>
      <trkpt lat="40.480012781918048858642578125" lon="-1.5402503125369548797607421875">
        <ele>1548.4000244140625</ele>
        <time>2022-08-24T09:37:56.000Z</time>
      </trkpt>
      <trkpt lat="40.4800903983414173126220703125" lon="-1.540368497371673583984375">
        <ele>1548.800048828125</ele>
        <time>2022-08-24T09:38:02.000Z</time>
      </trkpt>
      <trkpt lat="40.48015393316745758056640625" lon="-1.54047913849353790283203125">
        <ele>1549.4000244140625</ele>
        <time>2022-08-24T09:38:07.000Z</time>
      </trkpt>
      <trkpt lat="40.4802258498966693878173828125" lon="-1.54063244350254535675048828125">
        <ele>1549.5999755859375</ele>
        <time>2022-08-24T09:38:14.000Z</time>
      </trkpt>
      <trkpt lat="40.4803136922419071197509765625" lon="-1.54082790948450565338134765625">
        <ele>1549.5999755859375</ele>
        <time>2022-08-24T09:38:22.000Z</time>
      </trkpt>
      <trkpt lat="40.4804253391921520233154296875" lon="-1.541071236133575439453125">
        <ele>1549.4000244140625</ele>
        <time>2022-08-24T09:38:29.000Z</time>
      </trkpt>
      <trkpt lat="40.48054779879748821258544921875" lon="-1.5413697995245456695556640625">
        <ele>1549</ele>
        <time>2022-08-24T09:38:35.000Z</time>
      </trkpt>
      <trkpt lat="40.4807232320308685302734375" lon="-1.5417463146150112152099609375">
        <ele>1548.199951171875</ele>
        <time>2022-08-24T09:38:42.000Z</time>
      </trkpt>
      <trkpt lat="40.480740331113338470458984375" lon="-1.5417994558811187744140625">
        <ele>1548.199951171875</ele>
        <time>2022-08-24T09:38:43.000Z</time>
      </trkpt>
      <trkpt lat="40.48079892061650753021240234375" lon="-1.54196835123002529144287109375">
        <ele>1547.4000244140625</ele>
        <time>2022-08-24T09:38:46.000Z</time>
      </trkpt>
      <trkpt lat="40.48086262308061122894287109375" lon="-1.542079411447048187255859375">
        <ele>1546.5999755859375</ele>
        <time>2022-08-24T09:38:48.000Z</time>
      </trkpt>
      <trkpt lat="40.4809232242405414581298828125" lon="-1.542192399501800537109375">
        <ele>1546.4000244140625</ele>
        <time>2022-08-24T09:38:50.000Z</time>
      </trkpt>
      <trkpt lat="40.480954907834529876708984375" lon="-1.542253084480762481689453125">
        <ele>1546</ele>
        <time>2022-08-24T09:38:51.000Z</time>
      </trkpt>
      <trkpt lat="40.4810630343854427337646484375" lon="-1.54242868535220623016357421875">
        <ele>1544.800048828125</ele>
        <time>2022-08-24T09:38:54.000Z</time>
      </trkpt>
      <trkpt lat="40.48113184981048107147216796875" lon="-1.54252138920128345489501953125">
        <ele>1543.5999755859375</ele>
        <time>2022-08-24T09:38:56.000Z</time>
      </trkpt>
      <trkpt lat="40.481236539781093597412109375" lon="-1.542637646198272705078125">
        <ele>1542</ele>
        <time>2022-08-24T09:38:59.000Z</time>
      </trkpt>
      <trkpt lat="40.4812704026699066162109375" lon="-1.5426700003445148468017578125">
        <ele>1541.5999755859375</ele>
        <time>2022-08-24T09:39:00.000Z</time>
      </trkpt>
      <trkpt lat="40.4813292436301708221435546875" lon="-1.54272146522998809814453125">
        <ele>1540.5999755859375</ele>
        <time>2022-08-24T09:39:02.000Z</time>
      </trkpt>
      <trkpt lat="40.48137023113667964935302734375" lon="-1.542754657566547393798828125">
        <ele>1538.5999755859375</ele>
        <time>2022-08-24T09:39:04.000Z</time>
      </trkpt>
      <trkpt lat="40.4813869111239910125732421875" lon="-1.54276438057422637939453125">
        <ele>1538</ele>
        <time>2022-08-24T09:39:05.000Z</time>
      </trkpt>
      <trkpt lat="40.4814026691019535064697265625" lon="-1.542772762477397918701171875">
        <ele>1537.4000244140625</ele>
        <time>2022-08-24T09:39:06.000Z</time>
      </trkpt>
      <trkpt lat="40.48146427609026432037353515625" lon="-1.5428275801241397857666015625">
        <ele>1536</ele>
        <time>2022-08-24T09:39:09.000Z</time>
      </trkpt>
      <trkpt lat="40.4815099574625492095947265625" lon="-1.5428750216960906982421875">
        <ele>1535.199951171875</ele>
        <time>2022-08-24T09:39:11.000Z</time>
      </trkpt>
      <trkpt lat="40.4815525375306606292724609375" lon="-1.54291684739291667938232421875">
        <ele>1534.800048828125</ele>
        <time>2022-08-24T09:39:13.000Z</time>
      </trkpt>
      <trkpt lat="40.48163157887756824493408203125" lon="-1.543022207915782928466796875">
        <ele>1533.5999755859375</ele>
        <time>2022-08-24T09:39:17.000Z</time>
      </trkpt>
      <trkpt lat="40.4816514439880847930908203125" lon="-1.5430533885955810546875">
        <ele>1533.199951171875</ele>
        <time>2022-08-24T09:39:18.000Z</time>
      </trkpt>
      <trkpt lat="40.48169410787522792816162109375" lon="-1.543095298111438751220703125">
        <ele>1532</ele>
        <time>2022-08-24T09:39:20.000Z</time>
      </trkpt>
      <trkpt lat="40.48170064575970172882080078125" lon="-1.54310041107237339019775390625">
        <ele>1531.800048828125</ele>
        <time>2022-08-24T09:39:21.000Z</time>
      </trkpt>
      <trkpt lat="40.48170290887355804443359375" lon="-1.54309940524399280548095703125">
        <ele>1531</ele>
        <time>2022-08-24T09:39:23.000Z</time>
      </trkpt>
      <trkpt lat="40.48174506984651088714599609375" lon="-1.54311633668839931488037109375">
        <ele>1528.4000244140625</ele>
        <time>2022-08-24T09:39:32.000Z</time>
      </trkpt>
      <trkpt lat="40.48177842982113361358642578125" lon="-1.5431313402950763702392578125">
        <ele>1528.4000244140625</ele>
        <time>2022-08-24T09:39:34.000Z</time>
      </trkpt>
      <trkpt lat="40.48187633045017719268798828125" lon="-1.54314919374883174896240234375">
        <ele>1527.5999755859375</ele>
        <time>2022-08-24T09:39:41.000Z</time>
      </trkpt>
      <trkpt lat="40.4819156415760517120361328125" lon="-1.54316998086869716644287109375">
        <ele>1527.199951171875</ele>
        <time>2022-08-24T09:39:43.000Z</time>
      </trkpt>
      <trkpt lat="40.48199635930359363555908203125" lon="-1.54323468916118144989013671875">
        <ele>1526.4000244140625</ele>
        <time>2022-08-24T09:39:46.000Z</time>
      </trkpt>
      <trkpt lat="40.48205704428255558013916015625" lon="-1.54328917153179645538330078125">
        <ele>1526</ele>
        <time>2022-08-24T09:39:48.000Z</time>
      </trkpt>
      <trkpt lat="40.482138432562351226806640625" lon="-1.5433905087411403656005859375">
        <ele>1524.800048828125</ele>
        <time>2022-08-24T09:39:52.000Z</time>
      </trkpt>
      <trkpt lat="40.48220389522612094879150390625" lon="-1.54347256757318973541259765625">
        <ele>1523.5999755859375</ele>
        <time>2022-08-24T09:39:55.000Z</time>
      </trkpt>
      <trkpt lat="40.48227958381175994873046875" lon="-1.5435554645955562591552734375">
        <ele>1522</ele>
        <time>2022-08-24T09:39:58.000Z</time>
      </trkpt>
      <trkpt lat="40.48230716027319431304931640625" lon="-1.5435812808573246002197265625">
        <ele>1521</ele>
        <time>2022-08-24T09:39:59.000Z</time>
      </trkpt>
      <trkpt lat="40.48233188688755035400390625" lon="-1.54361061751842498779296875">
        <ele>1520.5999755859375</ele>
        <time>2022-08-24T09:40:00.000Z</time>
      </trkpt>
      <trkpt lat="40.48241377808153629302978515625" lon="-1.54370449483394622802734375">
        <ele>1519.199951171875</ele>
        <time>2022-08-24T09:40:03.000Z</time>
      </trkpt>
      <trkpt lat="40.48246021382510662078857421875" lon="-1.54375956393778324127197265625">
        <ele>1518.199951171875</ele>
        <time>2022-08-24T09:40:05.000Z</time>
      </trkpt>
      <trkpt lat="40.4824842698872089385986328125" lon="-1.54377448372542858123779296875">
        <ele>1517.800048828125</ele>
        <time>2022-08-24T09:40:06.000Z</time>
      </trkpt>
      <trkpt lat="40.48255451023578643798828125" lon="-1.5438404493033885955810546875">
        <ele>1516.4000244140625</ele>
        <time>2022-08-24T09:40:09.000Z</time>
      </trkpt>
      <trkpt lat="40.48258669674396514892578125" lon="-1.54386634938418865203857421875">
        <ele>1516.199951171875</ele>
        <time>2022-08-24T09:40:10.000Z</time>
      </trkpt>
      <trkpt lat="40.482679903507232666015625" lon="-1.54391379095613956451416015625">
        <ele>1515</ele>
        <time>2022-08-24T09:40:13.000Z</time>
      </trkpt>
      <trkpt lat="40.4827414266765117645263671875" lon="-1.543930470943450927734375">
        <ele>1514.4000244140625</ele>
        <time>2022-08-24T09:40:15.000Z</time>
      </trkpt>
      <trkpt lat="40.48277084715664386749267578125" lon="-1.5439410321414470672607421875">
        <ele>1513.800048828125</ele>
        <time>2022-08-24T09:40:16.000Z</time>
      </trkpt>
      <trkpt lat="40.4829295165836811065673828125" lon="-1.54399677179753780364990234375">
        <ele>1512.5999755859375</ele>
        <time>2022-08-24T09:40:21.000Z</time>
      </trkpt>
      <trkpt lat="40.4829804785549640655517578125" lon="-1.5440208278596401214599609375">
        <ele>1512.199951171875</ele>
        <time>2022-08-24T09:40:23.000Z</time>
      </trkpt>
      <trkpt lat="40.4830502159893512725830078125" lon="-1.5440520085394382476806640625">
        <ele>1511.4000244140625</ele>
        <time>2022-08-24T09:40:26.000Z</time>
      </trkpt>
      <trkpt lat="40.4831063747406005859375" lon="-1.544083692133426666259765625">
        <ele>1510.199951171875</ele>
        <time>2022-08-24T09:40:28.000Z</time>
      </trkpt>
      <trkpt lat="40.4831300117075443267822265625" lon="-1.5441007912158966064453125">
        <ele>1509.5999755859375</ele>
        <time>2022-08-24T09:40:29.000Z</time>
      </trkpt>
      <trkpt lat="40.483154989778995513916015625" lon="-1.5441190637648105621337890625">
        <ele>1509</ele>
        <time>2022-08-24T09:40:30.000Z</time>
      </trkpt>
      <trkpt lat="40.48323168419301509857177734375" lon="-1.54420606791973114013671875">
        <ele>1507.800048828125</ele>
        <time>2022-08-24T09:40:33.000Z</time>
      </trkpt>
      <trkpt lat="40.48325859010219573974609375" lon="-1.54425158165395259857177734375">
        <ele>1507.4000244140625</ele>
        <time>2022-08-24T09:40:34.000Z</time>
      </trkpt>
      <trkpt lat="40.48334307968616485595703125" lon="-1.544423662126064300537109375">
        <ele>1506.199951171875</ele>
        <time>2022-08-24T09:40:37.000Z</time>
      </trkpt>
      <trkpt lat="40.48340016044676303863525390625" lon="-1.544567160308361053466796875">
        <ele>1505.5999755859375</ele>
        <time>2022-08-24T09:40:39.000Z</time>
      </trkpt>
      <trkpt lat="40.4834230430424213409423828125" lon="-1.54464268125593662261962890625">
        <ele>1505.4000244140625</ele>
        <time>2022-08-24T09:40:40.000Z</time>
      </trkpt>
      <trkpt lat="40.48344123177230358123779296875" lon="-1.5447188727557659149169921875">
        <ele>1505.199951171875</ele>
        <time>2022-08-24T09:40:41.000Z</time>
      </trkpt>
      <trkpt lat="40.48349135555326938629150390625" lon="-1.54494996182620525360107421875">
        <ele>1504</ele>
        <time>2022-08-24T09:40:44.000Z</time>
      </trkpt>
      <trkpt lat="40.48358003608882427215576171875" lon="-1.54516638256609439849853515625">
        <ele>1502.800048828125</ele>
        <time>2022-08-24T09:40:47.000Z</time>
      </trkpt>
      <trkpt lat="40.48363351263105869293212890625" lon="-1.54529211111366748809814453125">
        <ele>1502.199951171875</ele>
        <time>2022-08-24T09:40:49.000Z</time>
      </trkpt>
      <trkpt lat="40.4836946167051792144775390625" lon="-1.5454578213393688201904296875">
        <ele>1501.5999755859375</ele>
        <time>2022-08-24T09:40:52.000Z</time>
      </trkpt>
      <trkpt lat="40.4837412200868129730224609375" lon="-1.54559805057942867279052734375">
        <ele>1501.199951171875</ele>
        <time>2022-08-24T09:40:55.000Z</time>
      </trkpt>
      <trkpt lat="40.48383618704974651336669921875" lon="-1.5458227694034576416015625">
        <ele>1501</ele>
        <time>2022-08-24T09:41:02.000Z</time>
      </trkpt>
      <trkpt lat="40.48394246958196163177490234375" lon="-1.54598965309560298919677734375">
        <ele>1501.4000244140625</ele>
        <time>2022-08-24T09:41:10.000Z</time>
      </trkpt>
      <trkpt lat="40.4840376041829586029052734375" lon="-1.54609140940010547637939453125">
        <ele>1502.5999755859375</ele>
        <time>2022-08-24T09:41:17.000Z</time>
      </trkpt>
      <trkpt lat="40.48405260778963565826416015625" lon="-1.5461045689880847930908203125">
        <ele>1502.800048828125</ele>
        <time>2022-08-24T09:41:18.000Z</time>
      </trkpt>
      <trkpt lat="40.4841564595699310302734375" lon="-1.546203307807445526123046875">
        <ele>1503.800048828125</ele>
        <time>2022-08-24T09:41:25.000Z</time>
      </trkpt>
      <trkpt lat="40.48419794999063014984130859375" lon="-1.5462494082748889923095703125">
        <ele>1504.199951171875</ele>
        <time>2022-08-24T09:41:28.000Z</time>
      </trkpt>
      <trkpt lat="40.48434698022902011871337890625" lon="-1.5463939122855663299560546875">
        <ele>1504.5999755859375</ele>
        <time>2022-08-24T09:41:38.000Z</time>
      </trkpt>
      <trkpt lat="40.4844017140567302703857421875" lon="-1.546442694962024688720703125">
        <ele>1504.800048828125</ele>
        <time>2022-08-24T09:41:42.000Z</time>
      </trkpt>
      <trkpt lat="40.48445695079863071441650390625" lon="-1.54648728668689727783203125">
        <ele>1505.199951171875</ele>
        <time>2022-08-24T09:41:46.000Z</time>
      </trkpt>
      <trkpt lat="40.48452886752784252166748046875" lon="-1.5465380810201168060302734375">
        <ele>1506</ele>
        <time>2022-08-24T09:41:52.000Z</time>
      </trkpt>
      <trkpt lat="40.48455418087542057037353515625" lon="-1.54655165970325469970703125">
        <ele>1506</ele>
        <time>2022-08-24T09:41:54.000Z</time>
      </trkpt>
      <trkpt lat="40.48461469821631908416748046875" lon="-1.5465724468231201171875">
        <ele>1506.800048828125</ele>
        <time>2022-08-24T09:41:59.000Z</time>
      </trkpt>
      <trkpt lat="40.48465543426573276519775390625" lon="-1.5465923957526683807373046875">
        <ele>1507.199951171875</ele>
        <time>2022-08-24T09:42:02.000Z</time>
      </trkpt>
      <trkpt lat="40.48472014255821704864501953125" lon="-1.5466034598648548126220703125">
        <ele>1508</ele>
        <time>2022-08-24T09:42:07.000Z</time>
      </trkpt>
      <trkpt lat="40.48474495299160480499267578125" lon="-1.54661175794899463653564453125">
        <ele>1508.4000244140625</ele>
        <time>2022-08-24T09:42:09.000Z</time>
      </trkpt>
      <trkpt lat="40.48479625023901462554931640625" lon="-1.546635814011096954345703125">
        <ele>1509</ele>
        <time>2022-08-24T09:42:13.000Z</time>
      </trkpt>
      <trkpt lat="40.48487470485270023345947265625" lon="-1.54667629860341548919677734375">
        <ele>1509.800048828125</ele>
        <time>2022-08-24T09:42:19.000Z</time>
      </trkpt>
      <trkpt lat="40.48488669097423553466796875" lon="-1.54668384231626987457275390625">
        <ele>1510</ele>
        <time>2022-08-24T09:42:20.000Z</time>
      </trkpt>
      <trkpt lat="40.48495466820895671844482421875" lon="-1.54671871103346347808837890625">
        <ele>1511.199951171875</ele>
        <time>2022-08-24T09:42:25.000Z</time>
      </trkpt>
      <trkpt lat="40.48499540425837039947509765625" lon="-1.5467379055917263031005859375">
        <ele>1511.5999755859375</ele>
        <time>2022-08-24T09:42:28.000Z</time>
      </trkpt>
      <trkpt lat="40.48500747419893741607666015625" lon="-1.54673882760107517242431640625">
        <ele>1511.5999755859375</ele>
        <time>2022-08-24T09:42:29.000Z</time>
      </trkpt>
      <trkpt lat="40.48503329046070575714111328125" lon="-1.54674746096134185791015625">
        <ele>1512.199951171875</ele>
        <time>2022-08-24T09:42:31.000Z</time>
      </trkpt>
      <trkpt lat="40.48504502512514591217041015625" lon="-1.5467543341219425201416015625">
        <ele>1512.4000244140625</ele>
        <time>2022-08-24T09:42:32.000Z</time>
      </trkpt>
      <trkpt lat="40.48511065542697906494140625" lon="-1.54679431580007076263427734375">
        <ele>1513.199951171875</ele>
        <time>2022-08-24T09:42:37.000Z</time>
      </trkpt>
      <trkpt lat="40.48512448556721210479736328125" lon="-1.54680336825549602508544921875">
        <ele>1513.4000244140625</ele>
        <time>2022-08-24T09:42:38.000Z</time>
      </trkpt>
      <trkpt lat="40.48518709838390350341796875" lon="-1.5468513965606689453125">
        <ele>1514.199951171875</ele>
        <time>2022-08-24T09:42:43.000Z</time>
      </trkpt>
      <trkpt lat="40.4852140881121158599853515625" lon="-1.5468730218708515167236328125">
        <ele>1514.5999755859375</ele>
        <time>2022-08-24T09:42:45.000Z</time>
      </trkpt>
      <trkpt lat="40.48528608866035938262939453125" lon="-1.54694183729588985443115234375">
        <ele>1515.4000244140625</ele>
        <time>2022-08-24T09:42:50.000Z</time>
      </trkpt>
      <trkpt lat="40.48532799817621707916259765625" lon="-1.5469933860003948211669921875">
        <ele>1515.800048828125</ele>
        <time>2022-08-24T09:42:53.000Z</time>
      </trkpt>
      <trkpt lat="40.48540812917053699493408203125" lon="-1.54708768241107463836669921875">
        <ele>1516.4000244140625</ele>
        <time>2022-08-24T09:42:59.000Z</time>
      </trkpt>
      <trkpt lat="40.48542237840592861175537109375" lon="-1.547107212245464324951171875">
        <ele>1516.4000244140625</ele>
        <time>2022-08-24T09:43:00.000Z</time>
      </trkpt>
      <trkpt lat="40.485440231859683990478515625" lon="-1.54714283533394336700439453125">
        <ele>1516.5999755859375</ele>
        <time>2022-08-24T09:43:02.000Z</time>
      </trkpt>
      <trkpt lat="40.48547317273914813995361328125" lon="-1.547201760113239288330078125">
        <ele>1516.5999755859375</ele>
        <time>2022-08-24T09:43:05.000Z</time>
      </trkpt>
      <trkpt lat="40.48548691906034946441650390625" lon="-1.547223217785358428955078125">
        <ele>1516.5999755859375</ele>
        <time>2022-08-24T09:43:06.000Z</time>
      </trkpt>
      <trkpt lat="40.48557828180491924285888671875" lon="-1.54737601988017559051513671875">
        <ele>1516.5999755859375</ele>
        <time>2022-08-24T09:43:11.000Z</time>
      </trkpt>
      <trkpt lat="40.48570878803730010986328125" lon="-1.547606103122234344482421875">
        <ele>1516.199951171875</ele>
        <time>2022-08-24T09:43:16.000Z</time>
      </trkpt>
      <trkpt lat="40.4858879931271076202392578125" lon="-1.5479489229619503021240234375">
        <ele>1514.800048828125</ele>
        <time>2022-08-24T09:43:22.000Z</time>
      </trkpt>
      <trkpt lat="40.48592411912977695465087890625" lon="-1.54800633899867534637451171875">
        <ele>1514.5999755859375</ele>
        <time>2022-08-24T09:43:23.000Z</time>
      </trkpt>
      <trkpt lat="40.48595613799989223480224609375" lon="-1.54806937091052532196044921875">
        <ele>1514.4000244140625</ele>
        <time>2022-08-24T09:43:24.000Z</time>
      </trkpt>
      <trkpt lat="40.48601095564663410186767578125" lon="-1.5481933392584323883056640625">
        <ele>1513.800048828125</ele>
        <time>2022-08-24T09:43:26.000Z</time>
      </trkpt>
      <trkpt lat="40.48606359399855136871337890625" lon="-1.54831663705408573150634765625">
        <ele>1513</ele>
        <time>2022-08-24T09:43:28.000Z</time>
      </trkpt>
      <trkpt lat="40.48609041608870029449462890625" lon="-1.54837413690984249114990234375">
        <ele>1512.5999755859375</ele>
        <time>2022-08-24T09:43:29.000Z</time>
      </trkpt>
      <trkpt lat="40.486138276755809783935546875" lon="-1.54848997481167316436767578125">
        <ele>1511.4000244140625</ele>
        <time>2022-08-24T09:43:31.000Z</time>
      </trkpt>
      <trkpt lat="40.48617037944495677947998046875" lon="-1.548614613711833953857421875">
        <ele>1510.4000244140625</ele>
        <time>2022-08-24T09:43:33.000Z</time>
      </trkpt>
      <trkpt lat="40.4861793480813503265380859375" lon="-1.54867722652852535247802734375">
        <ele>1509.800048828125</ele>
        <time>2022-08-24T09:43:34.000Z</time>
      </trkpt>
      <trkpt lat="40.48618630506098270416259765625" lon="-1.54874243773519992828369140625">
        <ele>1509.199951171875</ele>
        <time>2022-08-24T09:43:35.000Z</time>
      </trkpt>
      <trkpt lat="40.48620508052408695220947265625" lon="-1.548883505165576934814453125">
        <ele>1508</ele>
        <time>2022-08-24T09:43:37.000Z</time>
      </trkpt>
      <trkpt lat="40.48621706664562225341796875" lon="-1.54896087013185024261474609375">
        <ele>1507.5999755859375</ele>
        <time>2022-08-24T09:43:38.000Z</time>
      </trkpt>
      <trkpt lat="40.48623693175613880157470703125" lon="-1.5491260774433612823486328125">
        <ele>1506.4000244140625</ele>
        <time>2022-08-24T09:43:40.000Z</time>
      </trkpt>
      <trkpt lat="40.48625336028635501861572265625" lon="-1.5493034385144710540771484375">
        <ele>1505.199951171875</ele>
        <time>2022-08-24T09:43:42.000Z</time>
      </trkpt>
      <trkpt lat="40.4862598143517971038818359375" lon="-1.54939454980194568634033203125">
        <ele>1504.5999755859375</ele>
        <time>2022-08-24T09:43:43.000Z</time>
      </trkpt>
      <trkpt lat="40.48626727424561977386474609375" lon="-1.54948809184134006500244140625">
        <ele>1504</ele>
        <time>2022-08-24T09:43:44.000Z</time>
      </trkpt>
      <trkpt lat="40.48630801029503345489501953125" lon="-1.549868881702423095703125">
        <ele>1502.5999755859375</ele>
        <time>2022-08-24T09:43:48.000Z</time>
      </trkpt>
      <trkpt lat="40.48632024787366390228271484375" lon="-1.54996016062796115875244140625">
        <ele>1502.199951171875</ele>
        <time>2022-08-24T09:43:49.000Z</time>
      </trkpt>
      <trkpt lat="40.4863533563911914825439453125" lon="-1.55012302100658416748046875">
        <ele>1501</ele>
        <time>2022-08-24T09:43:51.000Z</time>
      </trkpt>
      <trkpt lat="40.48638327978551387786865234375" lon="-1.550272889435291290283203125">
        <ele>1500.199951171875</ele>
        <time>2022-08-24T09:43:53.000Z</time>
      </trkpt>
      <trkpt lat="40.48638629727065563201904296875" lon="-1.5503535233438014984130859375">
        <ele>1499.800048828125</ele>
        <time>2022-08-24T09:43:54.000Z</time>
      </trkpt>
      <trkpt lat="40.4863865487277507781982421875" lon="-1.55060087330639362335205078125">
        <ele>1498.199951171875</ele>
        <time>2022-08-24T09:43:57.000Z</time>
      </trkpt>
      <trkpt lat="40.486411191523075103759765625" lon="-1.5508219040930271148681640625">
        <ele>1497.199951171875</ele>
        <time>2022-08-24T09:44:00.000Z</time>
      </trkpt>
      <trkpt lat="40.4864971898496150970458984375" lon="-1.5510549210011959075927734375">
        <ele>1496</ele>
        <time>2022-08-24T09:44:04.000Z</time>
      </trkpt>
      <trkpt lat="40.486564077436923980712890625" lon="-1.5511612035334110260009765625">
        <ele>1495.4000244140625</ele>
        <time>2022-08-24T09:44:06.000Z</time>
      </trkpt>
      <trkpt lat="40.48663808964192867279052734375" lon="-1.551250554621219635009765625">
        <ele>1494.800048828125</ele>
        <time>2022-08-24T09:44:08.000Z</time>
      </trkpt>
      <trkpt lat="40.48667631112039089202880859375" lon="-1.551286764442920684814453125">
        <ele>1494.5999755859375</ele>
        <time>2022-08-24T09:44:09.000Z</time>
      </trkpt>
      <trkpt lat="40.48679064027965068817138671875" lon="-1.551400758326053619384765625">
        <ele>1493.800048828125</ele>
        <time>2022-08-24T09:44:12.000Z</time>
      </trkpt>
      <trkpt lat="40.48695626668632030487060546875" lon="-1.5515534766018390655517578125">
        <ele>1492.5999755859375</ele>
        <time>2022-08-24T09:44:17.000Z</time>
      </trkpt>
      <trkpt lat="40.48704494722187519073486328125" lon="-1.55164827592670917510986328125">
        <ele>1492.199951171875</ele>
        <time>2022-08-24T09:44:20.000Z</time>
      </trkpt>
      <trkpt lat="40.48731140792369842529296875" lon="-1.55194583348929882049560546875">
        <ele>1492</ele>
        <time>2022-08-24T09:44:29.000Z</time>
      </trkpt>
      <trkpt lat="40.48757367767393589019775390625" lon="-1.55219494365155696868896484375">
        <ele>1492</ele>
        <time>2022-08-24T09:44:38.000Z</time>
      </trkpt>
      <trkpt lat="40.4877906851470470428466796875" lon="-1.5524255298078060150146484375">
        <ele>1492</ele>
        <time>2022-08-24T09:44:47.000Z</time>
      </trkpt>
      <trkpt lat="40.4879653640091419219970703125" lon="-1.55258252285420894622802734375">
        <ele>1492.4000244140625</ele>
        <time>2022-08-24T09:44:55.000Z</time>
      </trkpt>
      <trkpt lat="40.48815890215337276458740234375" lon="-1.55274596996605396270751953125">
        <ele>1493.4000244140625</ele>
        <time>2022-08-24T09:45:04.000Z</time>
      </trkpt>
      <trkpt lat="40.48823618330061435699462890625" lon="-1.5528238378465175628662109375">
        <ele>1493.800048828125</ele>
        <time>2022-08-24T09:45:08.000Z</time>
      </trkpt>
      <trkpt lat="40.488350428640842437744140625" lon="-1.5529475547373294830322265625">
        <ele>1494.5999755859375</ele>
        <time>2022-08-24T09:45:15.000Z</time>
      </trkpt>
      <trkpt lat="40.4884028993546962738037109375" lon="-1.55300212092697620391845703125">
        <ele>1495</ele>
        <time>2022-08-24T09:45:18.000Z</time>
      </trkpt>
      <trkpt lat="40.48850289545953273773193359375" lon="-1.55308292247354984283447265625">
        <ele>1495.800048828125</ele>
        <time>2022-08-24T09:45:23.000Z</time>
      </trkpt>
      <trkpt lat="40.48853457905352115631103515625" lon="-1.5531170368194580078125">
        <ele>1496</ele>
        <time>2022-08-24T09:45:25.000Z</time>
      </trkpt>
      <trkpt lat="40.488650500774383544921875" lon="-1.553231365978717803955078125">
        <ele>1497</ele>
        <time>2022-08-24T09:45:32.000Z</time>
      </trkpt>
      <trkpt lat="40.48866852186620235443115234375" lon="-1.5532499738037586212158203125">
        <ele>1497.199951171875</ele>
        <time>2022-08-24T09:45:33.000Z</time>
      </trkpt>
      <trkpt lat="40.48877547495067119598388671875" lon="-1.55335374176502227783203125">
        <ele>1498.199951171875</ele>
        <time>2022-08-24T09:45:39.000Z</time>
      </trkpt>
      <trkpt lat="40.4888122715055942535400390625" lon="-1.55337989330291748046875">
        <ele>1498.4000244140625</ele>
        <time>2022-08-24T09:45:41.000Z</time>
      </trkpt>
      <trkpt lat="40.488897264003753662109375" lon="-1.55344334430992603302001953125">
        <ele>1499.199951171875</ele>
        <time>2022-08-24T09:45:46.000Z</time>
      </trkpt>
      <trkpt lat="40.48893422819674015045166015625" lon="-1.55346580781042575836181640625">
        <ele>1499.4000244140625</ele>
        <time>2022-08-24T09:45:48.000Z</time>
      </trkpt>
      <trkpt lat="40.4890863597393035888671875" lon="-1.5535624511539936065673828125">
        <ele>1500.199951171875</ele>
        <time>2022-08-24T09:45:56.000Z</time>
      </trkpt>
      <trkpt lat="40.48910689540207386016845703125" lon="-1.55357510782778263092041015625">
        <ele>1500.4000244140625</ele>
        <time>2022-08-24T09:45:57.000Z</time>
      </trkpt>
      <trkpt lat="40.48925424925982952117919921875" lon="-1.55368499457836151123046875">
        <ele>1501.5999755859375</ele>
        <time>2022-08-24T09:46:04.000Z</time>
      </trkpt>
      <trkpt lat="40.4892940632998943328857421875" lon="-1.55372179113328456878662109375">
        <ele>1502</ele>
        <time>2022-08-24T09:46:06.000Z</time>
      </trkpt>
      <trkpt lat="40.48939724452793598175048828125" lon="-1.55380728654563426971435546875">
        <ele>1502.5999755859375</ele>
        <time>2022-08-24T09:46:11.000Z</time>
      </trkpt>
      <trkpt lat="40.48948911018669605255126953125" lon="-1.55387006700038909912109375">
        <ele>1502.800048828125</ele>
        <time>2022-08-24T09:46:15.000Z</time>
      </trkpt>
      <trkpt lat="40.4896970652043819427490234375" lon="-1.5540063567459583282470703125">
        <ele>1503.5999755859375</ele>
        <time>2022-08-24T09:46:24.000Z</time>
      </trkpt>
      <trkpt lat="40.48971994780004024505615234375" lon="-1.5540214441716670989990234375">
        <ele>1503.800048828125</ele>
        <time>2022-08-24T09:46:25.000Z</time>
      </trkpt>
      <trkpt lat="40.48991776071488857269287109375" lon="-1.55414901673793792724609375">
        <ele>1504.5999755859375</ele>
        <time>2022-08-24T09:46:33.000Z</time>
      </trkpt>
      <trkpt lat="40.490047931671142578125" lon="-1.5542326681315898895263671875">
        <ele>1505</ele>
        <time>2022-08-24T09:46:38.000Z</time>
      </trkpt>
      <trkpt lat="40.4902687110006809234619140625" lon="-1.55437172390520572662353515625">
        <ele>1505.4000244140625</ele>
        <time>2022-08-24T09:46:46.000Z</time>
      </trkpt>
      <trkpt lat="40.4906512610614299774169921875" lon="-1.55456601642072200775146484375">
        <ele>1505.800048828125</ele>
        <time>2022-08-24T09:46:59.000Z</time>
      </trkpt>
      <trkpt lat="40.49097505398094654083251953125" lon="-1.5547168068587779998779296875">
        <ele>1506</ele>
        <time>2022-08-24T09:47:08.000Z</time>
      </trkpt>
      <trkpt lat="40.4913231544196605682373046875" lon="-1.55492844991385936737060546875">
        <ele>1505.5999755859375</ele>
        <time>2022-08-24T09:47:16.000Z</time>
      </trkpt>
      <trkpt lat="40.49167008139193058013916015625" lon="-1.5551536716520786285400390625">
        <ele>1504.800048828125</ele>
        <time>2022-08-24T09:47:24.000Z</time>
      </trkpt>
      <trkpt lat="40.492021031677722930908203125" lon="-1.5553726069629192352294921875">
        <ele>1503.800048828125</ele>
        <time>2022-08-24T09:47:31.000Z</time>
      </trkpt>
      <trkpt lat="40.4924868978559970855712890625" lon="-1.55569732189178466796875">
        <ele>1502.5999755859375</ele>
        <time>2022-08-24T09:47:39.000Z</time>
      </trkpt>
      <trkpt lat="40.4929586313664913177490234375" lon="-1.556014828383922576904296875">
        <ele>1501.4000244140625</ele>
        <time>2022-08-24T09:47:46.000Z</time>
      </trkpt>
      <trkpt lat="40.4931038059294223785400390625" lon="-1.55609688721597194671630859375">
        <ele>1500.800048828125</ele>
        <time>2022-08-24T09:47:48.000Z</time>
      </trkpt>
      <trkpt lat="40.49317781813442707061767578125" lon="-1.55613695271313190460205078125">
        <ele>1500.4000244140625</ele>
        <time>2022-08-24T09:47:49.000Z</time>
      </trkpt>
      <trkpt lat="40.49340127967298030853271484375" lon="-1.55625212006270885467529296875">
        <ele>1499.4000244140625</ele>
        <time>2022-08-24T09:47:52.000Z</time>
      </trkpt>
      <trkpt lat="40.49375080503523349761962890625" lon="-1.5564498491585254669189453125">
        <ele>1498.5999755859375</ele>
        <time>2022-08-24T09:47:57.000Z</time>
      </trkpt>
      <trkpt lat="40.49381685443222522735595703125" lon="-1.55648781917989253997802734375">
        <ele>1498.4000244140625</ele>
        <time>2022-08-24T09:47:58.000Z</time>
      </trkpt>
      <trkpt lat="40.49413117580115795135498046875" lon="-1.5566795133054256439208984375">
        <ele>1497.4000244140625</ele>
        <time>2022-08-24T09:48:03.000Z</time>
      </trkpt>
      <trkpt lat="40.49429847858846187591552734375" lon="-1.5567988716065883636474609375">
        <ele>1497</ele>
        <time>2022-08-24T09:48:06.000Z</time>
      </trkpt>
      <trkpt lat="40.49469024874269962310791015625" lon="-1.5571385063230991363525390625">
        <ele>1496.800048828125</ele>
        <time>2022-08-24T09:48:14.000Z</time>
      </trkpt>
      <trkpt lat="40.494983196258544921875" lon="-1.55739105306565761566162109375">
        <ele>1497.199951171875</ele>
        <time>2022-08-24T09:48:21.000Z</time>
      </trkpt>
      <trkpt lat="40.49535401165485382080078125" lon="-1.55773571692407131195068359375">
        <ele>1497.800048828125</ele>
        <time>2022-08-24T09:48:30.000Z</time>
      </trkpt>
      <trkpt lat="40.495653413236141204833984375" lon="-1.55808725394308567047119140625">
        <ele>1497</ele>
        <time>2022-08-24T09:48:37.000Z</time>
      </trkpt>
      <trkpt lat="40.49578660167753696441650390625" lon="-1.55819823034107685089111328125">
        <ele>1496.4000244140625</ele>
        <time>2022-08-24T09:48:40.000Z</time>
      </trkpt>
      <trkpt lat="40.49593873322010040283203125" lon="-1.5583223663270473480224609375">
        <ele>1495.800048828125</ele>
        <time>2022-08-24T09:48:44.000Z</time>
      </trkpt>
      <trkpt lat="40.49614333547651767730712890625" lon="-1.5585067681968212127685546875">
        <ele>1495.5999755859375</ele>
        <time>2022-08-24T09:48:51.000Z</time>
      </trkpt>
      <trkpt lat="40.49639713950455188751220703125" lon="-1.5587290562689304351806640625">
        <ele>1496.5999755859375</ele>
        <time>2022-08-24T09:49:01.000Z</time>
      </trkpt>
      <trkpt lat="40.49662931822240352630615234375" lon="-1.55893868766725063323974609375">
        <ele>1497.199951171875</ele>
        <time>2022-08-24T09:49:11.000Z</time>
      </trkpt>
      <trkpt lat="40.4966701380908489227294921875" lon="-1.5589774958789348602294921875">
        <ele>1497.5999755859375</ele>
        <time>2022-08-24T09:49:13.000Z</time>
      </trkpt>
      <trkpt lat="40.4968022368848323822021484375" lon="-1.55910498462617397308349609375">
        <ele>1498.4000244140625</ele>
        <time>2022-08-24T09:49:20.000Z</time>
      </trkpt>
      <trkpt lat="40.4969004727900028228759765625" lon="-1.5591880492866039276123046875">
        <ele>1498.800048828125</ele>
        <time>2022-08-24T09:49:25.000Z</time>
      </trkpt>
      <trkpt lat="40.49695554189383983612060546875" lon="-1.55924378894269466400146484375">
        <ele>1499</ele>
        <time>2022-08-24T09:49:28.000Z</time>
      </trkpt>
      <trkpt lat="40.49711563624441623687744140625" lon="-1.55938292853534221649169921875">
        <ele>1499.800048828125</ele>
        <time>2022-08-24T09:49:36.000Z</time>
      </trkpt>
      <trkpt lat="40.4971737228333950042724609375" lon="-1.55943221412599086761474609375">
        <ele>1500</ele>
        <time>2022-08-24T09:49:39.000Z</time>
      </trkpt>
      <trkpt lat="40.4973319731652736663818359375" lon="-1.5595699287950992584228515625">
        <ele>1500.800048828125</ele>
        <time>2022-08-24T09:49:47.000Z</time>
      </trkpt>
      <trkpt lat="40.4974670894443988800048828125" lon="-1.55969188548624515533447265625">
        <ele>1501.5999755859375</ele>
        <time>2022-08-24T09:49:54.000Z</time>
      </trkpt>
      <trkpt lat="40.4975827597081661224365234375" lon="-1.55979783274233341217041015625">
        <ele>1502</ele>
        <time>2022-08-24T09:50:00.000Z</time>
      </trkpt>
      <trkpt lat="40.4976806603372097015380859375" lon="-1.55987964011728763580322265625">
        <ele>1502.5999755859375</ele>
        <time>2022-08-24T09:50:05.000Z</time>
      </trkpt>
      <trkpt lat="40.4977839253842830657958984375" lon="-1.55991551466286182403564453125">
        <ele>1503.199951171875</ele>
        <time>2022-08-24T09:50:11.000Z</time>
      </trkpt>
      <trkpt lat="40.49778887070715427398681640625" lon="-1.55991316772997379302978515625">
        <ele>1503.199951171875</ele>
        <time>2022-08-24T09:50:13.000Z</time>
      </trkpt>
      <trkpt lat="40.49781837500631809234619140625" lon="-1.560047529637813568115234375">
        <ele>1504.5999755859375</ele>
        <time>2022-08-24T09:52:58.000Z</time>
      </trkpt>
      <trkpt lat="40.49782960675656795501708984375" lon="-1.5600590966641902923583984375">
        <ele>1504.5999755859375</ele>
        <time>2022-08-24T09:52:59.000Z</time>
      </trkpt>
      <trkpt lat="40.4978707619011402130126953125" lon="-1.56008600257337093353271484375">
        <ele>1504.5999755859375</ele>
        <time>2022-08-24T09:53:02.000Z</time>
      </trkpt>
      <trkpt lat="40.49792088568210601806640625" lon="-1.56013838946819305419921875">
        <ele>1504.800048828125</ele>
        <time>2022-08-24T09:53:06.000Z</time>
      </trkpt>
      <trkpt lat="40.4980420880019664764404296875" lon="-1.560241319239139556884765625">
        <ele>1505.4000244140625</ele>
        <time>2022-08-24T09:53:15.000Z</time>
      </trkpt>
      <trkpt lat="40.49810386262834072113037109375" lon="-1.56028079800307750701904296875">
        <ele>1505.800048828125</ele>
        <time>2022-08-24T09:53:19.000Z</time>
      </trkpt>
      <trkpt lat="40.49817075021564960479736328125" lon="-1.56033150851726531982421875">
        <ele>1506.199951171875</ele>
        <time>2022-08-24T09:53:24.000Z</time>
      </trkpt>
      <trkpt lat="40.4982261545956134796142578125" lon="-1.5603886730968952178955078125">
        <ele>1506.800048828125</ele>
        <time>2022-08-24T09:53:29.000Z</time>
      </trkpt>
      <trkpt lat="40.4982620291411876678466796875" lon="-1.560423038899898529052734375">
        <ele>1507.199951171875</ele>
        <time>2022-08-24T09:53:32.000Z</time>
      </trkpt>
      <trkpt lat="40.49829647876322269439697265625" lon="-1.56045463867485523223876953125">
        <ele>1507.800048828125</ele>
        <time>2022-08-24T09:53:35.000Z</time>
      </trkpt>
      <trkpt lat="40.49835615791380405426025390625" lon="-1.56050316989421844482421875">
        <ele>1508.5999755859375</ele>
        <time>2022-08-24T09:53:40.000Z</time>
      </trkpt>
      <trkpt lat="40.49836738966405391693115234375" lon="-1.560514234006404876708984375">
        <ele>1509</ele>
        <time>2022-08-24T09:53:41.000Z</time>
      </trkpt>
      <trkpt lat="40.49844584427773952484130859375" lon="-1.560592018067836761474609375">
        <ele>1510.199951171875</ele>
        <time>2022-08-24T09:53:48.000Z</time>
      </trkpt>
      <trkpt lat="40.4985295794904232025146484375" lon="-1.56065739691257476806640625">
        <ele>1511.199951171875</ele>
        <time>2022-08-24T09:53:55.000Z</time>
      </trkpt>
      <trkpt lat="40.49854315817356109619140625" lon="-1.560661755502223968505859375">
        <ele>1511.4000244140625</ele>
        <time>2022-08-24T09:53:56.000Z</time>
      </trkpt>
      <trkpt lat="40.49862756393849849700927734375" lon="-1.56069218181073665618896484375">
        <ele>1512.199951171875</ele>
        <time>2022-08-24T09:54:02.000Z</time>
      </trkpt>
      <trkpt lat="40.498666875064373016357421875" lon="-1.56071682460606098175048828125">
        <ele>1512.5999755859375</ele>
        <time>2022-08-24T09:54:05.000Z</time>
      </trkpt>
      <trkpt lat="40.49874038435518741607666015625" lon="-1.5607460774481296539306640625">
        <ele>1513.4000244140625</ele>
        <time>2022-08-24T09:54:10.000Z</time>
      </trkpt>
      <trkpt lat="40.4988133907318115234375" lon="-1.560779772698879241943359375">
        <ele>1514.199951171875</ele>
        <time>2022-08-24T09:54:15.000Z</time>
      </trkpt>
      <trkpt lat="40.49884331412613391876220703125" lon="-1.56079008243978023529052734375">
        <ele>1514.4000244140625</ele>
        <time>2022-08-24T09:54:17.000Z</time>
      </trkpt>
      <trkpt lat="40.49894456751644611358642578125" lon="-1.5608382783830165863037109375">
        <ele>1515.5999755859375</ele>
        <time>2022-08-24T09:54:24.000Z</time>
      </trkpt>
      <trkpt lat="40.4989594034850597381591796875" lon="-1.560844816267490386962890625">
        <ele>1515.800048828125</ele>
        <time>2022-08-24T09:54:25.000Z</time>
      </trkpt>
      <trkpt lat="40.49904146231710910797119140625" lon="-1.5609063394367694854736328125">
        <ele>1516.800048828125</ele>
        <time>2022-08-24T09:54:31.000Z</time>
      </trkpt>
      <trkpt lat="40.4990549571812152862548828125" lon="-1.56091715209186077117919921875">
        <ele>1517</ele>
        <time>2022-08-24T09:54:32.000Z</time>
      </trkpt>
      <trkpt lat="40.49910902045667171478271484375" lon="-1.560970209538936614990234375">
        <ele>1517.800048828125</ele>
        <time>2022-08-24T09:54:36.000Z</time>
      </trkpt>
      <trkpt lat="40.4991795122623443603515625" lon="-1.56103835441172122955322265625">
        <ele>1518.4000244140625</ele>
        <time>2022-08-24T09:54:41.000Z</time>
      </trkpt>
      <trkpt lat="40.499204657971858978271484375" lon="-1.5610659308731555938720703125">
        <ele>1518.800048828125</ele>
        <time>2022-08-24T09:54:43.000Z</time>
      </trkpt>
      <trkpt lat="40.4992948472499847412109375" lon="-1.56117296777665615081787109375">
        <ele>1519.800048828125</ele>
        <time>2022-08-24T09:54:50.000Z</time>
      </trkpt>
      <trkpt lat="40.4993074201047420501708984375" lon="-1.56118872575461864471435546875">
        <ele>1520</ele>
        <time>2022-08-24T09:54:51.000Z</time>
      </trkpt>
      <trkpt lat="40.4994106851518154144287109375" lon="-1.56131059862673282623291015625">
        <ele>1521</ele>
        <time>2022-08-24T09:54:59.000Z</time>
      </trkpt>
      <trkpt lat="40.49953532405197620391845703125" lon="-1.56145577318966388702392578125">
        <ele>1522</ele>
        <time>2022-08-24T09:55:08.000Z</time>
      </trkpt>
      <trkpt lat="40.499566756188869476318359375" lon="-1.561484523117542266845703125">
        <ele>1522.199951171875</ele>
        <time>2022-08-24T09:55:10.000Z</time>
      </trkpt>
      <trkpt lat="40.49965887330472469329833984375" lon="-1.5615732036530971527099609375">
        <ele>1523</ele>
        <time>2022-08-24T09:55:16.000Z</time>
      </trkpt>
      <trkpt lat="40.499708913266658782958984375" lon="-1.56162609346210956573486328125">
        <ele>1523.4000244140625</ele>
        <time>2022-08-24T09:55:19.000Z</time>
      </trkpt>
      <trkpt lat="40.499808825552463531494140625" lon="-1.56173153780400753021240234375">
        <ele>1524</ele>
        <time>2022-08-24T09:55:25.000Z</time>
      </trkpt>
      <trkpt lat="40.49987194128334522247314453125" lon="-1.56180244870483875274658203125">
        <ele>1524.4000244140625</ele>
        <time>2022-08-24T09:55:29.000Z</time>
      </trkpt>
      <trkpt lat="40.49992038868367671966552734375" lon="-1.56188693828880786895751953125">
        <ele>1524.5999755859375</ele>
        <time>2022-08-24T09:55:33.000Z</time>
      </trkpt>
      <trkpt lat="40.4999927245080471038818359375" lon="-1.562054492533206939697265625">
        <ele>1525.4000244140625</ele>
        <time>2022-08-24T09:55:40.000Z</time>
      </trkpt>
      <trkpt lat="40.50001158379018306732177734375" lon="-1.56212967820465564727783203125">
        <ele>1525.5999755859375</ele>
        <time>2022-08-24T09:55:43.000Z</time>
      </trkpt>
      <trkpt lat="40.5000537447631359100341796875" lon="-1.56233989633619785308837890625">
        <ele>1526.4000244140625</ele>
        <time>2022-08-24T09:55:51.000Z</time>
      </trkpt>
      <trkpt lat="40.50006204284727573394775390625" lon="-1.56236688606441020965576171875">
        <ele>1526.4000244140625</ele>
        <time>2022-08-24T09:55:52.000Z</time>
      </trkpt>
      <trkpt lat="40.50011736340820789337158203125" lon="-1.562590263783931732177734375">
        <ele>1526.5999755859375</ele>
        <time>2022-08-24T09:56:00.000Z</time>
      </trkpt>
      <trkpt lat="40.50019380636513233184814453125" lon="-1.56282755546271800994873046875">
        <ele>1527</ele>
        <time>2022-08-24T09:56:08.000Z</time>
      </trkpt>
      <trkpt lat="40.50028868950903415679931640625" lon="-1.563030146062374114990234375">
        <ele>1526.800048828125</ele>
        <time>2022-08-24T09:56:16.000Z</time>
      </trkpt>
      <trkpt lat="40.50043034367263317108154296875" lon="-1.56328956596553325653076171875">
        <ele>1526.800048828125</ele>
        <time>2022-08-24T09:56:26.000Z</time>
      </trkpt>
      <trkpt lat="40.50058607943356037139892578125" lon="-1.56356181018054485321044921875">
        <ele>1527.4000244140625</ele>
        <time>2022-08-24T09:56:36.000Z</time>
      </trkpt>
      <trkpt lat="40.50063301809132099151611328125" lon="-1.56369005329906940460205078125">
        <ele>1527.5999755859375</ele>
        <time>2022-08-24T09:56:40.000Z</time>
      </trkpt>
      <trkpt lat="40.50066537223756313323974609375" lon="-1.5637846849858760833740234375">
        <ele>1528.199951171875</ele>
        <time>2022-08-24T09:56:43.000Z</time>
      </trkpt>
      <trkpt lat="40.50068817101418972015380859375" lon="-1.563877053558826446533203125">
        <ele>1528.800048828125</ele>
        <time>2022-08-24T09:56:46.000Z</time>
      </trkpt>
      <trkpt lat="40.5007092095911502838134765625" lon="-1.5639583580195903778076171875">
        <ele>1529</ele>
        <time>2022-08-24T09:56:49.000Z</time>
      </trkpt>
      <trkpt lat="40.50072890706360340118408203125" lon="-1.56406723894178867340087890625">
        <ele>1529.5999755859375</ele>
        <time>2022-08-24T09:56:53.000Z</time>
      </trkpt>
      <trkpt lat="40.50073443911969661712646484375" lon="-1.5640924684703350067138671875">
        <ele>1529.800048828125</ele>
        <time>2022-08-24T09:56:54.000Z</time>
      </trkpt>
      <trkpt lat="40.500784479081630706787109375" lon="-1.56431400217115879058837890625">
        <ele>1530.800048828125</ele>
        <time>2022-08-24T09:57:02.000Z</time>
      </trkpt>
      <trkpt lat="40.50080685876309871673583984375" lon="-1.564400084316730499267578125">
        <ele>1531.199951171875</ele>
        <time>2022-08-24T09:57:05.000Z</time>
      </trkpt>
      <trkpt lat="40.50090023316442966461181640625" lon="-1.564685739576816558837890625">
        <ele>1532</ele>
        <time>2022-08-24T09:57:16.000Z</time>
      </trkpt>
      <trkpt lat="40.5009345151484012603759765625" lon="-1.5647640265524387359619140625">
        <ele>1532.199951171875</ele>
        <time>2022-08-24T09:57:19.000Z</time>
      </trkpt>
      <trkpt lat="40.50104339607059955596923828125" lon="-1.56498522497713565826416015625">
        <ele>1532.4000244140625</ele>
        <time>2022-08-24T09:57:28.000Z</time>
      </trkpt>
      <trkpt lat="40.50114615820348262786865234375" lon="-1.565236262977123260498046875">
        <ele>1533</ele>
        <time>2022-08-24T09:57:38.000Z</time>
      </trkpt>
      <trkpt lat="40.50116233527660369873046875" lon="-1.565283872187137603759765625">
        <ele>1533</ele>
        <time>2022-08-24T09:57:40.000Z</time>
      </trkpt>
      <trkpt lat="40.50121740438044071197509765625" lon="-1.56544907949864864349365234375">
        <ele>1533.4000244140625</ele>
        <time>2022-08-24T09:57:46.000Z</time>
      </trkpt>
      <trkpt lat="40.5012835375964641571044921875" lon="-1.56563482247292995452880859375">
        <ele>1533.800048828125</ele>
        <time>2022-08-24T09:57:53.000Z</time>
      </trkpt>
      <trkpt lat="40.501315556466579437255859375" lon="-1.565745882689952850341796875">
        <ele>1534</ele>
        <time>2022-08-24T09:57:57.000Z</time>
      </trkpt>
      <trkpt lat="40.501396358013153076171875" lon="-1.5660001896321773529052734375">
        <ele>1535</ele>
        <time>2022-08-24T09:58:06.000Z</time>
      </trkpt>
      <trkpt lat="40.50143483094871044158935546875" lon="-1.56617830507457256317138671875">
        <ele>1536.199951171875</ele>
        <time>2022-08-24T09:58:12.000Z</time>
      </trkpt>
      <trkpt lat="40.50145612098276615142822265625" lon="-1.5663351304829120635986328125">
        <ele>1536.800048828125</ele>
        <time>2022-08-24T09:58:17.000Z</time>
      </trkpt>
      <trkpt lat="40.50146450288593769073486328125" lon="-1.56646295450627803802490234375">
        <ele>1537.199951171875</ele>
        <time>2022-08-24T09:58:21.000Z</time>
      </trkpt>
      <trkpt lat="40.501472465693950653076171875" lon="-1.56660494394600391387939453125">
        <ele>1538</ele>
        <time>2022-08-24T09:58:26.000Z</time>
      </trkpt>
      <trkpt lat="40.5014639161527156829833984375" lon="-1.56683645211160182952880859375">
        <ele>1538.199951171875</ele>
        <time>2022-08-24T09:58:34.000Z</time>
      </trkpt>
      <trkpt lat="40.501428879797458648681640625" lon="-1.56707483343780040740966796875">
        <ele>1538.199951171875</ele>
        <time>2022-08-24T09:58:43.000Z</time>
      </trkpt>
      <trkpt lat="40.50142577849328517913818359375" lon="-1.5672960318624973297119140625">
        <ele>1538.199951171875</ele>
        <time>2022-08-24T09:58:49.000Z</time>
      </trkpt>
      <trkpt lat="40.501431562006473541259765625" lon="-1.567332744598388671875">
        <ele>1538.199951171875</ele>
        <time>2022-08-24T09:58:50.000Z</time>
      </trkpt>
      <trkpt lat="40.501481853425502777099609375" lon="-1.56767162494361400604248046875">
        <ele>1538.4000244140625</ele>
        <time>2022-08-24T09:58:59.000Z</time>
      </trkpt>
      <trkpt lat="40.5015805922448635101318359375" lon="-1.56810865737497806549072265625">
        <ele>1538.4000244140625</ele>
        <time>2022-08-24T09:59:10.000Z</time>
      </trkpt>
      <trkpt lat="40.50168578512966632843017578125" lon="-1.568504869937896728515625">
        <ele>1538.5999755859375</ele>
        <time>2022-08-24T09:59:20.000Z</time>
      </trkpt>
      <trkpt lat="40.50172601826488971710205078125" lon="-1.5687310136854648590087890625">
        <ele>1539.4000244140625</ele>
        <time>2022-08-24T09:59:26.000Z</time>
      </trkpt>
      <trkpt lat="40.5017284490168094635009765625" lon="-1.5687688998878002166748046875">
        <ele>1539.4000244140625</ele>
        <time>2022-08-24T09:59:27.000Z</time>
      </trkpt>
      <trkpt lat="40.50170355476438999176025390625" lon="-1.56913225539028644561767578125">
        <ele>1540</ele>
        <time>2022-08-24T09:59:37.000Z</time>
      </trkpt>
      <trkpt lat="40.50168360583484172821044921875" lon="-1.569199897348880767822265625">
        <ele>1540.4000244140625</ele>
        <time>2022-08-24T09:59:39.000Z</time>
      </trkpt>
      <trkpt lat="40.50161655060946941375732421875" lon="-1.56950592063367366790771484375">
        <ele>1540.800048828125</ele>
        <time>2022-08-24T09:59:47.000Z</time>
      </trkpt>
      <trkpt lat="40.50155083648860454559326171875" lon="-1.56977548263967037200927734375">
        <ele>1540.800048828125</ele>
        <time>2022-08-24T09:59:54.000Z</time>
      </trkpt>
      <trkpt lat="40.50152334384620189666748046875" lon="-1.570055186748504638671875">
        <ele>1540</ele>
        <time>2022-08-24T10:00:01.000Z</time>
      </trkpt>
      <trkpt lat="40.50157807767391204833984375" lon="-1.5703788958489894866943359375">
        <ele>1540</ele>
        <time>2022-08-24T10:00:08.000Z</time>
      </trkpt>
      <trkpt lat="40.50170154310762882232666015625" lon="-1.57077996991574764251708984375">
        <ele>1539.5999755859375</ele>
        <time>2022-08-24T10:00:17.000Z</time>
      </trkpt>
      <trkpt lat="40.501824505627155303955078125" lon="-1.5712259709835052490234375">
        <ele>1539.4000244140625</ele>
        <time>2022-08-24T10:00:27.000Z</time>
      </trkpt>
      <trkpt lat="40.5019208975136280059814453125" lon="-1.571574322879314422607421875">
        <ele>1539.800048828125</ele>
        <time>2022-08-24T10:00:36.000Z</time>
      </trkpt>
      <trkpt lat="40.50198971293866634368896484375" lon="-1.5719126164913177490234375">
        <ele>1541</ele>
        <time>2022-08-24T10:00:46.000Z</time>
      </trkpt>
      <trkpt lat="40.50202407874166965484619140625" lon="-1.57207983545958995819091796875">
        <ele>1541.4000244140625</ele>
        <time>2022-08-24T10:00:51.000Z</time>
      </trkpt>
      <trkpt lat="40.50205123610794544219970703125" lon="-1.57225526869297027587890625">
        <ele>1541.800048828125</ele>
        <time>2022-08-24T10:00:56.000Z</time>
      </trkpt>
      <trkpt lat="40.50207051448523998260498046875" lon="-1.5723580308258533477783203125">
        <ele>1542.4000244140625</ele>
        <time>2022-08-24T10:00:59.000Z</time>
      </trkpt>
      <trkpt lat="40.50213606096804141998291015625" lon="-1.5726342983543872833251953125">
        <ele>1543.4000244140625</ele>
        <time>2022-08-24T10:01:07.000Z</time>
      </trkpt>
      <trkpt lat="40.50214469432830810546875" lon="-1.57266824506223201751708984375">
        <ele>1543.4000244140625</ele>
        <time>2022-08-24T10:01:08.000Z</time>
      </trkpt>
      <trkpt lat="40.50225994549691677093505859375" lon="-1.573019362986087799072265625">
        <ele>1544.4000244140625</ele>
        <time>2022-08-24T10:01:19.000Z</time>
      </trkpt>
      <trkpt lat="40.50228391773998737335205078125" lon="-1.57308138906955718994140625">
        <ele>1544.5999755859375</ele>
        <time>2022-08-24T10:01:21.000Z</time>
      </trkpt>
      <trkpt lat="40.50237276591360569000244140625" lon="-1.5732736699283123016357421875">
        <ele>1545.5999755859375</ele>
        <time>2022-08-24T10:01:27.000Z</time>
      </trkpt>
      <trkpt lat="40.50240688025951385498046875" lon="-1.573334522545337677001953125">
        <ele>1546</ele>
        <time>2022-08-24T10:01:29.000Z</time>
      </trkpt>
      <trkpt lat="40.502533949911594390869140625" lon="-1.573567874729633331298828125">
        <ele>1546.5999755859375</ele>
        <time>2022-08-24T10:01:36.000Z</time>
      </trkpt>
      <trkpt lat="40.50263780169188976287841796875" lon="-1.57377281226217746734619140625">
        <ele>1547.4000244140625</ele>
        <time>2022-08-24T10:01:42.000Z</time>
      </trkpt>
      <trkpt lat="40.5026543140411376953125" lon="-1.57380784861743450164794921875">
        <ele>1547.5999755859375</ele>
        <time>2022-08-24T10:01:43.000Z</time>
      </trkpt>
      <trkpt lat="40.502812229096889495849609375" lon="-1.57412719912827014923095703125">
        <ele>1547.800048828125</ele>
        <time>2022-08-24T10:01:52.000Z</time>
      </trkpt>
      <trkpt lat="40.50295673310756683349609375" lon="-1.574454344809055328369140625">
        <ele>1547.4000244140625</ele>
        <time>2022-08-24T10:01:59.000Z</time>
      </trkpt>
      <trkpt lat="40.50308455713093280792236328125" lon="-1.57474377192556858062744140625">
        <ele>1546.5999755859375</ele>
        <time>2022-08-24T10:02:04.000Z</time>
      </trkpt>
      <trkpt lat="40.5031614191830158233642578125" lon="-1.57495088875293731689453125">
        <ele>1546</ele>
        <time>2022-08-24T10:02:07.000Z</time>
      </trkpt>
      <trkpt lat="40.50323995761573314666748046875" lon="-1.5751860849559307098388671875">
        <ele>1545.4000244140625</ele>
        <time>2022-08-24T10:02:10.000Z</time>
      </trkpt>
      <trkpt lat="40.50333484075963497161865234375" lon="-1.57544701360166072845458984375">
        <ele>1545.199951171875</ele>
        <time>2022-08-24T10:02:13.000Z</time>
      </trkpt>
      <trkpt lat="40.50352091901004314422607421875" lon="-1.575952358543872833251953125">
        <ele>1544.4000244140625</ele>
        <time>2022-08-24T10:02:18.000Z</time>
      </trkpt>
      <trkpt lat="40.50356215797364711761474609375" lon="-1.5760611556470394134521484375">
        <ele>1544.199951171875</ele>
        <time>2022-08-24T10:02:19.000Z</time>
      </trkpt>
      <trkpt lat="40.50367380492389202117919921875" lon="-1.57641403377056121826171875">
        <ele>1543.199951171875</ele>
        <time>2022-08-24T10:02:22.000Z</time>
      </trkpt>
      <trkpt lat="40.503689981997013092041015625" lon="-1.57654403708875179290771484375">
        <ele>1542.800048828125</ele>
        <time>2022-08-24T10:02:23.000Z</time>
      </trkpt>
      <trkpt lat="40.50367749296128749847412109375" lon="-1.576806642115116119384765625">
        <ele>1542</ele>
        <time>2022-08-24T10:02:25.000Z</time>
      </trkpt>
      <trkpt lat="40.5036499164998531341552734375" lon="-1.57692558132112026214599609375">
        <ele>1541.5999755859375</ele>
        <time>2022-08-24T10:02:26.000Z</time>
      </trkpt>
      <trkpt lat="40.50348437391221523284912109375" lon="-1.5772019326686859130859375">
        <ele>1540.800048828125</ele>
        <time>2022-08-24T10:02:29.000Z</time>
      </trkpt>
      <trkpt lat="40.50334037281572818756103515625" lon="-1.57733646221458911895751953125">
        <ele>1539.800048828125</ele>
        <time>2022-08-24T10:02:31.000Z</time>
      </trkpt>
      <trkpt lat="40.50326225347816944122314453125" lon="-1.57740033231675624847412109375">
        <ele>1539.4000244140625</ele>
        <time>2022-08-24T10:02:32.000Z</time>
      </trkpt>
      <trkpt lat="40.50309545360505580902099609375" lon="-1.57752312719821929931640625">
        <ele>1538.199951171875</ele>
        <time>2022-08-24T10:02:34.000Z</time>
      </trkpt>
      <trkpt lat="40.502924881875514984130859375" lon="-1.5776433236896991729736328125">
        <ele>1537</ele>
        <time>2022-08-24T10:02:36.000Z</time>
      </trkpt>
      <trkpt lat="40.5026796273887157440185546875" lon="-1.57779662869870662689208984375">
        <ele>1535.5999755859375</ele>
        <time>2022-08-24T10:02:39.000Z</time>
      </trkpt>
      <trkpt lat="40.502591617405414581298828125" lon="-1.5778334252536296844482421875">
        <ele>1535.199951171875</ele>
        <time>2022-08-24T10:02:40.000Z</time>
      </trkpt>
      <trkpt lat="40.50243227742612361907958984375" lon="-1.57789151184260845184326171875">
        <ele>1534.199951171875</ele>
        <time>2022-08-24T10:02:42.000Z</time>
      </trkpt>
      <trkpt lat="40.50236589275300502777099609375" lon="-1.57792235724627971649169921875">
        <ele>1533.4000244140625</ele>
        <time>2022-08-24T10:02:43.000Z</time>
      </trkpt>
      <trkpt lat="40.502314679324626922607421875" lon="-1.57796158455312252044677734375">
        <ele>1532.800048828125</ele>
        <time>2022-08-24T10:02:44.000Z</time>
      </trkpt>
      <trkpt lat="40.5022585205733776092529296875" lon="-1.5780687890946865081787109375">
        <ele>1531.199951171875</ele>
        <time>2022-08-24T10:02:46.000Z</time>
      </trkpt>
      <trkpt lat="40.5022477917373180389404296875" lon="-1.578132994472980499267578125">
        <ele>1530.4000244140625</ele>
        <time>2022-08-24T10:02:47.000Z</time>
      </trkpt>
      <trkpt lat="40.5022501386702060699462890625" lon="-1.57819778658449649810791015625">
        <ele>1529.5999755859375</ele>
        <time>2022-08-24T10:02:48.000Z</time>
      </trkpt>
      <trkpt lat="40.502279810607433319091796875" lon="-1.57831546850502490997314453125">
        <ele>1527.5999755859375</ele>
        <time>2022-08-24T10:02:50.000Z</time>
      </trkpt>
      <trkpt lat="40.502343513071537017822265625" lon="-1.5784037299454212188720703125">
        <ele>1526.5999755859375</ele>
        <time>2022-08-24T10:02:52.000Z</time>
      </trkpt>
      <trkpt lat="40.502431355416774749755859375" lon="-1.57846299000084400177001953125">
        <ele>1526.199951171875</ele>
        <time>2022-08-24T10:02:54.000Z</time>
      </trkpt>
      <trkpt lat="40.5024767853319644927978515625" lon="-1.578486375510692596435546875">
        <ele>1526.199951171875</ele>
        <time>2022-08-24T10:02:55.000Z</time>
      </trkpt>
      <trkpt lat="40.5026906915009021759033203125" lon="-1.57855753786861896514892578125">
        <ele>1526</ele>
        <time>2022-08-24T10:03:00.000Z</time>
      </trkpt>
      <trkpt lat="40.5029766820371150970458984375" lon="-1.57861168496310710906982421875">
        <ele>1526</ele>
        <time>2022-08-24T10:03:06.000Z</time>
      </trkpt>
      <trkpt lat="40.5033179931342601776123046875" lon="-1.57875551842153072357177734375">
        <ele>1525.800048828125</ele>
        <time>2022-08-24T10:03:12.000Z</time>
      </trkpt>
      <trkpt lat="40.503434501588344573974609375" lon="-1.57882609404623508453369140625">
        <ele>1525.5999755859375</ele>
        <time>2022-08-24T10:03:14.000Z</time>
      </trkpt>
      <trkpt lat="40.50369031727313995361328125" lon="-1.5789294429123401641845703125">
        <ele>1524.5999755859375</ele>
        <time>2022-08-24T10:03:18.000Z</time>
      </trkpt>
      <trkpt lat="40.50381428562104701995849609375" lon="-1.5789572708308696746826171875">
        <ele>1524.4000244140625</ele>
        <time>2022-08-24T10:03:20.000Z</time>
      </trkpt>
      <trkpt lat="40.50412257201969623565673828125" lon="-1.57905156724154949188232421875">
        <ele>1523.4000244140625</ele>
        <time>2022-08-24T10:03:25.000Z</time>
      </trkpt>
      <trkpt lat="40.5041816644370555877685546875" lon="-1.579087190330028533935546875">
        <ele>1523.199951171875</ele>
        <time>2022-08-24T10:03:26.000Z</time>
      </trkpt>
      <trkpt lat="40.50424008630216121673583984375" lon="-1.5791329555213451385498046875">
        <ele>1523.199951171875</ele>
        <time>2022-08-24T10:03:27.000Z</time>
      </trkpt>
      <trkpt lat="40.50435441546142101287841796875" lon="-1.579250805079936981201171875">
        <ele>1523</ele>
        <time>2022-08-24T10:03:29.000Z</time>
      </trkpt>
      <trkpt lat="40.5045212991535663604736328125" lon="-1.5795889310538768768310546875">
        <ele>1522.5999755859375</ele>
        <time>2022-08-24T10:03:33.000Z</time>
      </trkpt>
      <trkpt lat="40.5045491270720958709716796875" lon="-1.57979286275804042816162109375">
        <ele>1522.199951171875</ele>
        <time>2022-08-24T10:03:35.000Z</time>
      </trkpt>
      <trkpt lat="40.50455306656658649444580078125" lon="-1.57989545725286006927490234375">
        <ele>1521.800048828125</ele>
        <time>2022-08-24T10:03:36.000Z</time>
      </trkpt>
      <trkpt lat="40.50455993972718715667724609375" lon="-1.57999419607222080230712890625">
        <ele>1521.5999755859375</ele>
        <time>2022-08-24T10:03:37.000Z</time>
      </trkpt>
      <trkpt lat="40.50460352562367916107177734375" lon="-1.58016803674399852752685546875">
        <ele>1521.199951171875</ele>
        <time>2022-08-24T10:03:39.000Z</time>
      </trkpt>
      <trkpt lat="40.5046403221786022186279296875" lon="-1.58023911528289318084716796875">
        <ele>1520.800048828125</ele>
        <time>2022-08-24T10:03:40.000Z</time>
      </trkpt>
      <trkpt lat="40.5047831498086452484130859375" lon="-1.58035897649824619293212890625">
        <ele>1520</ele>
        <time>2022-08-24T10:03:43.000Z</time>
      </trkpt>
      <trkpt lat="40.50491466186940670013427734375" lon="-1.58037255518138408660888671875">
        <ele>1520</ele>
        <time>2022-08-24T10:03:46.000Z</time>
      </trkpt>
      <trkpt lat="40.50494701601564884185791015625" lon="-1.58037238754332065582275390625">
        <ele>1520</ele>
        <time>2022-08-24T10:03:47.000Z</time>
      </trkpt>
      <trkpt lat="40.5051184259355068206787109375" lon="-1.58040842972695827484130859375">
        <ele>1520.199951171875</ele>
        <time>2022-08-24T10:03:54.000Z</time>
      </trkpt>
      <trkpt lat="40.50520383752882480621337890625" lon="-1.58049090765416622161865234375">
        <ele>1521</ele>
        <time>2022-08-24T10:03:59.000Z</time>
      </trkpt>
      <trkpt lat="40.5052475072443485260009765625" lon="-1.58055410720407962799072265625">
        <ele>1521.5999755859375</ele>
        <time>2022-08-24T10:04:02.000Z</time>
      </trkpt>
      <trkpt lat="40.5052843876183032989501953125" lon="-1.58062485046684741973876953125">
        <ele>1522.199951171875</ele>
        <time>2022-08-24T10:04:05.000Z</time>
      </trkpt>
      <trkpt lat="40.50536091439425945281982421875" lon="-1.58079139888286590576171875">
        <ele>1522.800048828125</ele>
        <time>2022-08-24T10:04:12.000Z</time>
      </trkpt>
      <trkpt lat="40.505395196378231048583984375" lon="-1.58086138777434825897216796875">
        <ele>1523.4000244140625</ele>
        <time>2022-08-24T10:04:15.000Z</time>
      </trkpt>
      <trkpt lat="40.5055026523768901824951171875" lon="-1.5810715220868587493896484375">
        <ele>1524.4000244140625</ele>
        <time>2022-08-24T10:04:24.000Z</time>
      </trkpt>
      <trkpt lat="40.50565981306135654449462890625" lon="-1.58129255287349224090576171875">
        <ele>1525.5999755859375</ele>
        <time>2022-08-24T10:04:35.000Z</time>
      </trkpt>
      <trkpt lat="40.5057509243488311767578125" lon="-1.5814396552741527557373046875">
        <ele>1526.5999755859375</ele>
        <time>2022-08-24T10:04:42.000Z</time>
      </trkpt>
      <trkpt lat="40.505762659013271331787109375" lon="-1.58146119676530361175537109375">
        <ele>1526.5999755859375</ele>
        <time>2022-08-24T10:04:43.000Z</time>
      </trkpt>
      <trkpt lat="40.5058805085718631744384765625" lon="-1.5816592611372470855712890625">
        <ele>1527.4000244140625</ele>
        <time>2022-08-24T10:04:52.000Z</time>
      </trkpt>
      <trkpt lat="40.50590640865266323089599609375" lon="-1.581701338291168212890625">
        <ele>1527.5999755859375</ele>
        <time>2022-08-24T10:04:54.000Z</time>
      </trkpt>
      <trkpt lat="40.50601772032678127288818359375" lon="-1.581882722675800323486328125">
        <ele>1528.4000244140625</ele>
        <time>2022-08-24T10:05:02.000Z</time>
      </trkpt>
      <trkpt lat="40.50605476833879947662353515625" lon="-1.581949777901172637939453125">
        <ele>1528.5999755859375</ele>
        <time>2022-08-24T10:05:05.000Z</time>
      </trkpt>
      <trkpt lat="40.5061420239508152008056640625" lon="-1.582085229456424713134765625">
        <ele>1529.4000244140625</ele>
        <time>2022-08-24T10:05:11.000Z</time>
      </trkpt>
      <trkpt lat="40.50618284381926059722900390625" lon="-1.5821588225662708282470703125">
        <ele>1529.800048828125</ele>
        <time>2022-08-24T10:05:14.000Z</time>
      </trkpt>
      <trkpt lat="40.506268255412578582763671875" lon="-1.582289747893810272216796875">
        <ele>1530.5999755859375</ele>
        <time>2022-08-24T10:05:20.000Z</time>
      </trkpt>
      <trkpt lat="40.5062902159988880157470703125" lon="-1.582338698208332061767578125">
        <ele>1531</ele>
        <time>2022-08-24T10:05:22.000Z</time>
      </trkpt>
      <trkpt lat="40.506365485489368438720703125" lon="-1.58248060382902622222900390625">
        <ele>1532.199951171875</ele>
        <time>2022-08-24T10:05:28.000Z</time>
      </trkpt>
      <trkpt lat="40.50640513189136981964111328125" lon="-1.58256056718528270721435546875">
        <ele>1532.4000244140625</ele>
        <time>2022-08-24T10:05:31.000Z</time>
      </trkpt>
      <trkpt lat="40.506471097469329833984375" lon="-1.58268235623836517333984375">
        <ele>1533.199951171875</ele>
        <time>2022-08-24T10:05:36.000Z</time>
      </trkpt>
      <trkpt lat="40.506504289805889129638671875" lon="-1.582746393978595733642578125">
        <ele>1533.5999755859375</ele>
        <time>2022-08-24T10:05:39.000Z</time>
      </trkpt>
      <trkpt lat="40.50653320737183094024658203125" lon="-1.5828072465956211090087890625">
        <ele>1534.4000244140625</ele>
        <time>2022-08-24T10:05:42.000Z</time>
      </trkpt>
      <trkpt lat="40.50659640692174434661865234375" lon="-1.58293389715254306793212890625">
        <ele>1535.4000244140625</ele>
        <time>2022-08-24T10:05:48.000Z</time>
      </trkpt>
      <trkpt lat="40.506618283689022064208984375" lon="-1.582976393401622772216796875">
        <ele>1535.5999755859375</ele>
        <time>2022-08-24T10:05:50.000Z</time>
      </trkpt>
      <trkpt lat="40.50666715018451213836669921875" lon="-1.58308468759059906005859375">
        <ele>1536.4000244140625</ele>
        <time>2022-08-24T10:05:55.000Z</time>
      </trkpt>
      <trkpt lat="40.50673772580921649932861328125" lon="-1.583233214914798736572265625">
        <ele>1537.199951171875</ele>
        <time>2022-08-24T10:06:02.000Z</time>
      </trkpt>
      <trkpt lat="40.50676069222390651702880859375" lon="-1.58327621407806873321533203125">
        <ele>1537.5999755859375</ele>
        <time>2022-08-24T10:06:04.000Z</time>
      </trkpt>
      <trkpt lat="40.506844259798526763916015625" lon="-1.5834729373455047607421875">
        <ele>1538.5999755859375</ele>
        <time>2022-08-24T10:06:13.000Z</time>
      </trkpt>
      <trkpt lat="40.50686446018517017364501953125" lon="-1.58351576887071132659912109375">
        <ele>1538.800048828125</ele>
        <time>2022-08-24T10:06:15.000Z</time>
      </trkpt>
      <trkpt lat="40.50693503580987453460693359375" lon="-1.58367150463163852691650390625">
        <ele>1539.800048828125</ele>
        <time>2022-08-24T10:06:22.000Z</time>
      </trkpt>
      <trkpt lat="40.50695179961621761322021484375" lon="-1.58371626399457454681396484375">
        <ele>1540</ele>
        <time>2022-08-24T10:06:24.000Z</time>
      </trkpt>
      <trkpt lat="40.507023632526397705078125" lon="-1.583849452435970306396484375">
        <ele>1540.800048828125</ele>
        <time>2022-08-24T10:06:31.000Z</time>
      </trkpt>
      <trkpt lat="40.50704299472272396087646484375" lon="-1.58389043994247913360595703125">
        <ele>1540.800048828125</ele>
        <time>2022-08-24T10:06:33.000Z</time>
      </trkpt>
      <trkpt lat="40.50711357034742832183837890625" lon="-1.58402740024030208587646484375">
        <ele>1542</ele>
        <time>2022-08-24T10:06:39.000Z</time>
      </trkpt>
      <trkpt lat="40.50715279765427112579345703125" lon="-1.584104262292385101318359375">
        <ele>1542.4000244140625</ele>
        <time>2022-08-24T10:06:42.000Z</time>
      </trkpt>
      <trkpt lat="40.507238209247589111328125" lon="-1.5842593275010585784912109375">
        <ele>1543</ele>
        <time>2022-08-24T10:06:48.000Z</time>
      </trkpt>
      <trkpt lat="40.50729763694107532501220703125" lon="-1.584366448223590850830078125">
        <ele>1543.4000244140625</ele>
        <time>2022-08-24T10:06:52.000Z</time>
      </trkpt>
      <trkpt lat="40.5073704756796360015869140625" lon="-1.584512293338775634765625">
        <ele>1544.199951171875</ele>
        <time>2022-08-24T10:06:57.000Z</time>
      </trkpt>
      <trkpt lat="40.5074138939380645751953125" lon="-1.5845778398215770721435546875">
        <ele>1544.199951171875</ele>
        <time>2022-08-24T10:07:00.000Z</time>
      </trkpt>
      <trkpt lat="40.5074804462492465972900390625" lon="-1.5846921689808368682861328125">
        <ele>1544.199951171875</ele>
        <time>2022-08-24T10:07:05.000Z</time>
      </trkpt>
      <trkpt lat="40.5075920931994915008544921875" lon="-1.5849379263818264007568359375">
        <ele>1544.5999755859375</ele>
        <time>2022-08-24T10:07:14.000Z</time>
      </trkpt>
      <trkpt lat="40.5077312327921390533447265625" lon="-1.58519634045660495758056640625">
        <ele>1544.800048828125</ele>
        <time>2022-08-24T10:07:23.000Z</time>
      </trkpt>
      <trkpt lat="40.50781681202352046966552734375" lon="-1.58540069125592708587646484375">
        <ele>1545.199951171875</ele>
        <time>2022-08-24T10:07:31.000Z</time>
      </trkpt>
      <trkpt lat="40.50782536156475543975830078125" lon="-1.58542633987963199615478515625">
        <ele>1545.199951171875</ele>
        <time>2022-08-24T10:07:32.000Z</time>
      </trkpt>
      <trkpt lat="40.50789375789463520050048828125" lon="-1.58562800846993923187255859375">
        <ele>1545.5999755859375</ele>
        <time>2022-08-24T10:07:40.000Z</time>
      </trkpt>
      <trkpt lat="40.50792980007827281951904296875" lon="-1.5858663059771060943603515625">
        <ele>1546</ele>
        <time>2022-08-24T10:07:48.000Z</time>
      </trkpt>
      <trkpt lat="40.507933236658573150634765625" lon="-1.585928834974765777587890625">
        <ele>1546.199951171875</ele>
        <time>2022-08-24T10:07:50.000Z</time>
      </trkpt>
      <trkpt lat="40.5079515092074871063232421875" lon="-1.58604023046791553497314453125">
        <ele>1546.4000244140625</ele>
        <time>2022-08-24T10:07:54.000Z</time>
      </trkpt>
      <trkpt lat="40.50799660384654998779296875" lon="-1.58622060902416706085205078125">
        <ele>1547.199951171875</ele>
        <time>2022-08-24T10:08:01.000Z</time>
      </trkpt>
      <trkpt lat="40.50806340761482715606689453125" lon="-1.5863125585019588470458984375">
        <ele>1548.199951171875</ele>
        <time>2022-08-24T10:08:06.000Z</time>
      </trkpt>
      <trkpt lat="40.50801110453903675079345703125" lon="-1.590761505067348480224609375">
        <ele>1569.199951171875</ele>
        <time>2022-08-24T11:18:55.000Z</time>
      </trkpt>
      <trkpt lat="40.50790649838745594024658203125" lon="-1.5908141434192657470703125">
        <ele>1568.5999755859375</ele>
        <time>2022-08-24T11:18:59.000Z</time>
      </trkpt>
      <trkpt lat="40.50779837183654308319091796875" lon="-1.5907851420342922210693359375">
        <ele>1568.5999755859375</ele>
        <time>2022-08-24T11:19:05.000Z</time>
      </trkpt>
      <trkpt lat="40.5076936818659305572509765625" lon="-1.59072957001626491546630859375">
        <ele>1569.4000244140625</ele>
        <time>2022-08-24T11:19:12.000Z</time>
      </trkpt>
      <trkpt lat="40.50761464051902294158935546875" lon="-1.5906952880322933197021484375">
        <ele>1570.199951171875</ele>
        <time>2022-08-24T11:19:18.000Z</time>
      </trkpt>
      <trkpt lat="40.5075709708034992218017578125" lon="-1.59067927859723567962646484375">
        <ele>1570.800048828125</ele>
        <time>2022-08-24T11:19:21.000Z</time>
      </trkpt>
      <trkpt lat="40.5075324140489101409912109375" lon="-1.59066603519022464752197265625">
        <ele>1571.4000244140625</ele>
        <time>2022-08-24T11:19:24.000Z</time>
      </trkpt>
      <trkpt lat="40.5074677057564258575439453125" lon="-1.59065413288772106170654296875">
        <ele>1572.199951171875</ele>
        <time>2022-08-24T11:19:29.000Z</time>
      </trkpt>
      <trkpt lat="40.5074553005397319793701171875" lon="-1.59065228886902332305908203125">
        <ele>1572.4000244140625</ele>
        <time>2022-08-24T11:19:30.000Z</time>
      </trkpt>
      <trkpt lat="40.507352538406848907470703125" lon="-1.59065446816384792327880859375">
        <ele>1573.5999755859375</ele>
        <time>2022-08-24T11:19:37.000Z</time>
      </trkpt>
      <trkpt lat="40.50723846070468425750732421875" lon="-1.59066217951476573944091796875">
        <ele>1574.5999755859375</ele>
        <time>2022-08-24T11:19:45.000Z</time>
      </trkpt>
      <trkpt lat="40.50722421146929264068603515625" lon="-1.590664945542812347412109375">
        <ele>1574.800048828125</ele>
        <time>2022-08-24T11:19:46.000Z</time>
      </trkpt>
      <trkpt lat="40.50715162418782711029052734375" lon="-1.5906956233084201812744140625">
        <ele>1575.800048828125</ele>
        <time>2022-08-24T11:19:52.000Z</time>
      </trkpt>
      <trkpt lat="40.50712547264993190765380859375" lon="-1.590709872543811798095703125">
        <ele>1576.4000244140625</ele>
        <time>2022-08-24T11:19:54.000Z</time>
      </trkpt>
      <trkpt lat="40.50709798000752925872802734375" lon="-1.5907274745404720306396484375">
        <ele>1577</ele>
        <time>2022-08-24T11:19:56.000Z</time>
      </trkpt>
      <trkpt lat="40.5070067010819911956787109375" lon="-1.59077131189405918121337890625">
        <ele>1578.199951171875</ele>
        <time>2022-08-24T11:20:02.000Z</time>
      </trkpt>
      <trkpt lat="40.50694006495177745819091796875" lon="-1.5908034145832061767578125">
        <ele>1579.199951171875</ele>
        <time>2022-08-24T11:20:07.000Z</time>
      </trkpt>
      <trkpt lat="40.50690762698650360107421875" lon="-1.59082026220858097076416015625">
        <ele>1579.800048828125</ele>
        <time>2022-08-24T11:20:10.000Z</time>
      </trkpt>
      <trkpt lat="40.506895892322063446044921875" lon="-1.59082696773111820220947265625">
        <ele>1580</ele>
        <time>2022-08-24T11:20:11.000Z</time>
      </trkpt>
      <trkpt lat="40.50686043687164783477783203125" lon="-1.59084037877619266510009765625">
        <ele>1580.4000244140625</ele>
        <time>2022-08-24T11:20:14.000Z</time>
      </trkpt>
      <trkpt lat="40.50682472996413707733154296875" lon="-1.590858399868011474609375">
        <ele>1581</ele>
        <time>2022-08-24T11:20:17.000Z</time>
      </trkpt>
      <trkpt lat="40.50679924897849559783935546875" lon="-1.59086845815181732177734375">
        <ele>1581.4000244140625</ele>
        <time>2022-08-24T11:20:19.000Z</time>
      </trkpt>
      <trkpt lat="40.50674141384661197662353515625" lon="-1.59090089611709117889404296875">
        <ele>1582</ele>
        <time>2022-08-24T11:20:24.000Z</time>
      </trkpt>
      <trkpt lat="40.50670604221522808074951171875" lon="-1.590925119817256927490234375">
        <ele>1582.5999755859375</ele>
        <time>2022-08-24T11:20:27.000Z</time>
      </trkpt>
      <trkpt lat="40.50664803944528102874755859375" lon="-1.5909715555608272552490234375">
        <ele>1583.5999755859375</ele>
        <time>2022-08-24T11:20:32.000Z</time>
      </trkpt>
      <trkpt lat="40.506627000868320465087890625" lon="-1.5909943543374538421630859375">
        <ele>1584</ele>
        <time>2022-08-24T11:20:34.000Z</time>
      </trkpt>
      <trkpt lat="40.5065609514713287353515625" lon="-1.59104975871741771697998046875">
        <ele>1584.5999755859375</ele>
        <time>2022-08-24T11:20:39.000Z</time>
      </trkpt>
      <trkpt lat="40.5065319500863552093505859375" lon="-1.59106752835214138031005859375">
        <ele>1584.800048828125</ele>
        <time>2022-08-24T11:20:41.000Z</time>
      </trkpt>
      <trkpt lat="40.50646967254579067230224609375" lon="-1.59106316976249217987060546875">
        <ele>1585.5999755859375</ele>
        <time>2022-08-24T11:20:45.000Z</time>
      </trkpt>
      <trkpt lat="40.5064471252262592315673828125" lon="-1.5910439752042293548583984375">
        <ele>1585.800048828125</ele>
        <time>2022-08-24T11:20:47.000Z</time>
      </trkpt>
      <trkpt lat="40.50639356486499309539794921875" lon="-1.591003574430942535400390625">
        <ele>1587</ele>
        <time>2022-08-24T11:20:52.000Z</time>
      </trkpt>
      <trkpt lat="40.50637118518352508544921875" lon="-1.59097733907401561737060546875">
        <ele>1587.4000244140625</ele>
        <time>2022-08-24T11:20:56.000Z</time>
      </trkpt>
      <trkpt lat="40.50634570419788360595703125" lon="-1.5909500978887081146240234375">
        <ele>1587.800048828125</ele>
        <time>2022-08-24T11:20:59.000Z</time>
      </trkpt>
      <trkpt lat="40.5063036270439624786376953125" lon="-1.5909021534025669097900390625">
        <ele>1588</ele>
        <time>2022-08-24T11:21:03.000Z</time>
      </trkpt>
      <trkpt lat="40.50622223876416683197021484375" lon="-1.5908163227140903472900390625">
        <ele>1589.199951171875</ele>
        <time>2022-08-24T11:21:11.000Z</time>
      </trkpt>
      <trkpt lat="40.50620891153812408447265625" lon="-1.59079947508871555328369140625">
        <ele>1589.199951171875</ele>
        <time>2022-08-24T11:21:12.000Z</time>
      </trkpt>
      <trkpt lat="40.50611578859388828277587890625" lon="-1.59067911095917224884033203125">
        <ele>1590.199951171875</ele>
        <time>2022-08-24T11:21:19.000Z</time>
      </trkpt>
      <trkpt lat="40.50610430538654327392578125" lon="-1.59066419117152690887451171875">
        <ele>1590.199951171875</ele>
        <time>2022-08-24T11:21:20.000Z</time>
      </trkpt>
      <trkpt lat="40.50599760375916957855224609375" lon="-1.590545587241649627685546875">
        <ele>1591.199951171875</ele>
        <time>2022-08-24T11:21:28.000Z</time>
      </trkpt>
      <trkpt lat="40.505967177450656890869140625" lon="-1.59050761722028255462646484375">
        <ele>1591.4000244140625</ele>
        <time>2022-08-24T11:21:30.000Z</time>
      </trkpt>
      <trkpt lat="40.505864918231964111328125" lon="-1.590307541191577911376953125">
        <ele>1592.199951171875</ele>
        <time>2022-08-24T11:21:37.000Z</time>
      </trkpt>
      <trkpt lat="40.50584941171109676361083984375" lon="-1.5902711637318134307861328125">
        <ele>1592.199951171875</ele>
        <time>2022-08-24T11:21:38.000Z</time>
      </trkpt>
      <trkpt lat="40.5057443864643573760986328125" lon="-1.59002448432147502899169921875">
        <ele>1592.5999755859375</ele>
        <time>2022-08-24T11:21:45.000Z</time>
      </trkpt>
      <trkpt lat="40.50562159158289432525634765625" lon="-1.58968971110880374908447265625">
        <ele>1593.199951171875</ele>
        <time>2022-08-24T11:21:55.000Z</time>
      </trkpt>
      <trkpt lat="40.50550273619592189788818359375" lon="-1.58932208083570003509521484375">
        <ele>1593.199951171875</ele>
        <time>2022-08-24T11:22:02.000Z</time>
      </trkpt>
      <trkpt lat="40.505413971841335296630859375" lon="-1.58899066038429737091064453125">
        <ele>1593.4000244140625</ele>
        <time>2022-08-24T11:22:11.000Z</time>
      </trkpt>
      <trkpt lat="40.50533392466604709625244140625" lon="-1.5887486748397350311279296875">
        <ele>1594.199951171875</ele>
        <time>2022-08-24T11:22:18.000Z</time>
      </trkpt>
      <trkpt lat="40.5053219385445117950439453125" lon="-1.588715650141239166259765625">
        <ele>1594.199951171875</ele>
        <time>2022-08-24T11:22:19.000Z</time>
      </trkpt>
      <trkpt lat="40.50525228492915630340576171875" lon="-1.58850903622806072235107421875">
        <ele>1595.199951171875</ele>
        <time>2022-08-24T11:22:25.000Z</time>
      </trkpt>
      <trkpt lat="40.50522512756288051605224609375" lon="-1.58843779005110263824462890625">
        <ele>1595.4000244140625</ele>
        <time>2022-08-24T11:22:27.000Z</time>
      </trkpt>
      <trkpt lat="40.50514868460595607757568359375" lon="-1.5882571600377559661865234375">
        <ele>1595.800048828125</ele>
        <time>2022-08-24T11:22:32.000Z</time>
      </trkpt>
      <trkpt lat="40.5050976388156414031982421875" lon="-1.5880747698247432708740234375">
        <ele>1596.4000244140625</ele>
        <time>2022-08-24T11:22:37.000Z</time>
      </trkpt>
      <trkpt lat="40.50506939180195331573486328125" lon="-1.58797443844377994537353515625">
        <ele>1596.800048828125</ele>
        <time>2022-08-24T11:22:40.000Z</time>
      </trkpt>
      <trkpt lat="40.50497551448643207550048828125" lon="-1.5877646394073963165283203125">
        <ele>1597.5999755859375</ele>
        <time>2022-08-24T11:22:46.000Z</time>
      </trkpt>
      <trkpt lat="40.50495321862399578094482421875" lon="-1.58773899078369140625">
        <ele>1597.5999755859375</ele>
        <time>2022-08-24T11:22:47.000Z</time>
      </trkpt>
      <trkpt lat="40.504797063767910003662109375" lon="-1.58759859390556812286376953125">
        <ele>1598.5999755859375</ele>
        <time>2022-08-24T11:22:53.000Z</time>
      </trkpt>
      <trkpt lat="40.504744090139865875244140625" lon="-1.58755366690456867218017578125">
        <ele>1598.800048828125</ele>
        <time>2022-08-24T11:22:55.000Z</time>
      </trkpt>
      <trkpt lat="40.50456664524972438812255859375" lon="-1.58744570799171924591064453125">
        <ele>1599.5999755859375</ele>
        <time>2022-08-24T11:23:02.000Z</time>
      </trkpt>
      <trkpt lat="40.5045424215495586395263671875" lon="-1.58743179403245449066162109375">
        <ele>1599.800048828125</ele>
        <time>2022-08-24T11:23:03.000Z</time>
      </trkpt>
      <trkpt lat="40.50442867912352085113525390625" lon="-1.587373875081539154052734375">
        <ele>1600.5999755859375</ele>
        <time>2022-08-24T11:23:08.000Z</time>
      </trkpt>
      <trkpt lat="40.50438777543604373931884765625" lon="-1.58735400997102260589599609375">
        <ele>1601</ele>
        <time>2022-08-24T11:23:10.000Z</time>
      </trkpt>
      <trkpt lat="40.5043067224323749542236328125" lon="-1.5873076580464839935302734375">
        <ele>1601.5999755859375</ele>
        <time>2022-08-24T11:23:14.000Z</time>
      </trkpt>
      <trkpt lat="40.5042497254908084869384765625" lon="-1.587273962795734405517578125">
        <ele>1602.800048828125</ele>
        <time>2022-08-24T11:23:17.000Z</time>
      </trkpt>
      <trkpt lat="40.504196584224700927734375" lon="-1.58723817206919193267822265625">
        <ele>1603.199951171875</ele>
        <time>2022-08-24T11:23:20.000Z</time>
      </trkpt>
      <trkpt lat="40.5041330493986606597900390625" lon="-1.58720321953296661376953125">
        <ele>1604</ele>
        <time>2022-08-24T11:23:24.000Z</time>
      </trkpt>
      <trkpt lat="40.50409273244440555572509765625" lon="-1.5871782414615154266357421875">
        <ele>1604.199951171875</ele>
        <time>2022-08-24T11:23:27.000Z</time>
      </trkpt>
      <trkpt lat="40.5040214024484157562255859375" lon="-1.58715334720909595489501953125">
        <ele>1605</ele>
        <time>2022-08-24T11:23:32.000Z</time>
      </trkpt>
      <trkpt lat="40.50399332307279109954833984375" lon="-1.58713893033564090728759765625">
        <ele>1605.4000244140625</ele>
        <time>2022-08-24T11:23:34.000Z</time>
      </trkpt>
      <trkpt lat="40.50387480296194553375244140625" lon="-1.587081514298915863037109375">
        <ele>1606.199951171875</ele>
        <time>2022-08-24T11:23:42.000Z</time>
      </trkpt>
      <trkpt lat="40.5038182251155376434326171875" lon="-1.58707137219607830047607421875">
        <ele>1606.5999755859375</ele>
        <time>2022-08-24T11:23:45.000Z</time>
      </trkpt>
      <trkpt lat="40.50375175662338733673095703125" lon="-1.58706240355968475341796875">
        <ele>1607.199951171875</ele>
        <time>2022-08-24T11:23:49.000Z</time>
      </trkpt>
      <trkpt lat="40.5036780796945095062255859375" lon="-1.58708478324115276336669921875">
        <ele>1608</ele>
        <time>2022-08-24T11:23:53.000Z</time>
      </trkpt>
      <trkpt lat="40.50366374664008617401123046875" lon="-1.587091572582721710205078125">
        <ele>1608.4000244140625</ele>
        <time>2022-08-24T11:23:55.000Z</time>
      </trkpt>
      <trkpt lat="40.503573976457118988037109375" lon="-1.5871537663042545318603515625">
        <ele>1609.5999755859375</ele>
        <time>2022-08-24T11:24:01.000Z</time>
      </trkpt>
      <trkpt lat="40.5035453103482723236083984375" lon="-1.5871715359389781951904296875">
        <ele>1610.199951171875</ele>
        <time>2022-08-24T11:24:04.000Z</time>
      </trkpt>
      <trkpt lat="40.5035034008324146270751953125" lon="-1.5872060693800449371337890625">
        <ele>1610.5999755859375</ele>
        <time>2022-08-24T11:24:07.000Z</time>
      </trkpt>
      <trkpt lat="40.50342142581939697265625" lon="-1.587264239788055419921875">
        <ele>1611.5999755859375</ele>
        <time>2022-08-24T11:24:13.000Z</time>
      </trkpt>
      <trkpt lat="40.50339234061539173126220703125" lon="-1.5872868709266185760498046875">
        <ele>1611.800048828125</ele>
        <time>2022-08-24T11:24:14.000Z</time>
      </trkpt>
      <trkpt lat="40.50333232618868350982666015625" lon="-1.587327606976032257080078125">
        <ele>1612.5999755859375</ele>
        <time>2022-08-24T11:24:18.000Z</time>
      </trkpt>
      <trkpt lat="40.503295361995697021484375" lon="-1.58737228251993656158447265625">
        <ele>1613.4000244140625</ele>
        <time>2022-08-24T11:24:23.000Z</time>
      </trkpt>
      <trkpt lat="40.503284968435764312744140625" lon="-1.58738695085048675537109375">
        <ele>1613.800048828125</ele>
        <time>2022-08-24T11:24:24.000Z</time>
      </trkpt>
      <trkpt lat="40.50322034396231174468994140625" lon="-1.58745442517101764678955078125">
        <ele>1615</ele>
        <time>2022-08-24T11:24:29.000Z</time>
      </trkpt>
      <trkpt lat="40.5031962879002094268798828125" lon="-1.58748057670891284942626953125">
        <ele>1615.199951171875</ele>
        <time>2022-08-24T11:24:31.000Z</time>
      </trkpt>
      <trkpt lat="40.50314423628151416778564453125" lon="-1.58753086812794208526611328125">
        <ele>1616.199951171875</ele>
        <time>2022-08-24T11:24:35.000Z</time>
      </trkpt>
      <trkpt lat="40.50311607308685779571533203125" lon="-1.587564647197723388671875">
        <ele>1616.4000244140625</ele>
        <time>2022-08-24T11:24:37.000Z</time>
      </trkpt>
      <trkpt lat="40.5030645243823528289794921875" lon="-1.58763413317501544952392578125">
        <ele>1617.4000244140625</ele>
        <time>2022-08-24T11:24:42.000Z</time>
      </trkpt>
      <trkpt lat="40.50302336923778057098388671875" lon="-1.58768258057534694671630859375">
        <ele>1618</ele>
        <time>2022-08-24T11:24:46.000Z</time>
      </trkpt>
      <trkpt lat="40.50296922214329242706298828125" lon="-1.58772331662476062774658203125">
        <ele>1618.5999755859375</ele>
        <time>2022-08-24T11:24:50.000Z</time>
      </trkpt>
      <trkpt lat="40.502934269607067108154296875" lon="-1.587763130664825439453125">
        <ele>1619</ele>
        <time>2022-08-24T11:24:53.000Z</time>
      </trkpt>
      <trkpt lat="40.50288992933928966522216796875" lon="-1.58778333105146884918212890625">
        <ele>1619.5999755859375</ele>
        <time>2022-08-24T11:24:56.000Z</time>
      </trkpt>
      <trkpt lat="40.5028509534895420074462890625" lon="-1.5878179483115673065185546875">
        <ele>1620</ele>
        <time>2022-08-24T11:24:59.000Z</time>
      </trkpt>
      <trkpt lat="40.50279588438570499420166015625" lon="-1.58785172738134860992431640625">
        <ele>1620.5999755859375</ele>
        <time>2022-08-24T11:25:03.000Z</time>
      </trkpt>
      <trkpt lat="40.5027473531663417816162109375" lon="-1.5878799743950366973876953125">
        <ele>1621</ele>
        <time>2022-08-24T11:25:07.000Z</time>
      </trkpt>
      <trkpt lat="40.50272983498871326446533203125" lon="-1.58788450062274932861328125">
        <ele>1621.5999755859375</ele>
        <time>2022-08-24T11:25:08.000Z</time>
      </trkpt>
      <trkpt lat="40.50269949249923229217529296875" lon="-1.587891541421413421630859375">
        <ele>1621.800048828125</ele>
        <time>2022-08-24T11:25:10.000Z</time>
      </trkpt>
      <trkpt lat="40.5026591755449771881103515625" lon="-1.5879000909626483917236328125">
        <ele>1622.4000244140625</ele>
        <time>2022-08-24T11:25:13.000Z</time>
      </trkpt>
      <trkpt lat="40.5026288330554962158203125" lon="-1.58791559748351573944091796875">
        <ele>1622.800048828125</ele>
        <time>2022-08-24T11:25:15.000Z</time>
      </trkpt>
      <trkpt lat="40.5025988258421421051025390625" lon="-1.58793680369853973388671875">
        <ele>1623.199951171875</ele>
        <time>2022-08-24T11:25:17.000Z</time>
      </trkpt>
      <trkpt lat="40.5025485344231128692626953125" lon="-1.5879617817699909210205078125">
        <ele>1623.5999755859375</ele>
        <time>2022-08-24T11:25:20.000Z</time>
      </trkpt>
      <trkpt lat="40.50250151194632053375244140625" lon="-1.5879805572330951690673828125">
        <ele>1623.800048828125</ele>
        <time>2022-08-24T11:25:23.000Z</time>
      </trkpt>
      <trkpt lat="40.502468235790729522705078125" lon="-1.5879865922033786773681640625">
        <ele>1624</ele>
        <time>2022-08-24T11:25:25.000Z</time>
      </trkpt>
      <trkpt lat="40.5023922957479953765869140625" lon="-1.58800126053392887115478515625">
        <ele>1625</ele>
        <time>2022-08-24T11:25:30.000Z</time>
      </trkpt>
      <trkpt lat="40.50234912894666194915771484375" lon="-1.588013581931591033935546875">
        <ele>1625.4000244140625</ele>
        <time>2022-08-24T11:25:33.000Z</time>
      </trkpt>
      <trkpt lat="40.502299256622791290283203125" lon="-1.588022969663143157958984375">
        <ele>1626</ele>
        <time>2022-08-24T11:25:37.000Z</time>
      </trkpt>
      <trkpt lat="40.50227000378072261810302734375" lon="-1.588033698499202728271484375">
        <ele>1626.4000244140625</ele>
        <time>2022-08-24T11:25:40.000Z</time>
      </trkpt>
      <trkpt lat="40.50218601711094379425048828125" lon="-1.58807284198701381683349609375">
        <ele>1627.199951171875</ele>
        <time>2022-08-24T11:25:45.000Z</time>
      </trkpt>
      <trkpt lat="40.50216170959174633026123046875" lon="-1.58808457665145397186279296875">
        <ele>1627.5999755859375</ele>
        <time>2022-08-24T11:25:48.000Z</time>
      </trkpt>
      <trkpt lat="40.5021096579730510711669921875" lon="-1.5881170146167278289794921875">
        <ele>1628.199951171875</ele>
        <time>2022-08-24T11:25:52.000Z</time>
      </trkpt>
      <trkpt lat="40.50207101739943027496337890625" lon="-1.58813604153692722320556640625">
        <ele>1628.4000244140625</ele>
        <time>2022-08-24T11:25:55.000Z</time>
      </trkpt>
      <trkpt lat="40.5019985139369964599609375" lon="-1.5881807170808315277099609375">
        <ele>1629</ele>
        <time>2022-08-24T11:26:00.000Z</time>
      </trkpt>
      <trkpt lat="40.50195970572531223297119140625" lon="-1.58820368349552154541015625">
        <ele>1629.5999755859375</ele>
        <time>2022-08-24T11:26:03.000Z</time>
      </trkpt>
      <trkpt lat="40.50193271599709987640380859375" lon="-1.5882189385592937469482421875">
        <ele>1630.199951171875</ele>
        <time>2022-08-24T11:26:05.000Z</time>
      </trkpt>
      <trkpt lat="40.50185409374535083770751953125" lon="-1.58828406594693660736083984375">
        <ele>1631.199951171875</ele>
        <time>2022-08-24T11:26:12.000Z</time>
      </trkpt>
      <trkpt lat="40.50177899189293384552001953125" lon="-1.58835933543741703033447265625">
        <ele>1632.4000244140625</ele>
        <time>2022-08-24T11:26:18.000Z</time>
      </trkpt>
      <trkpt lat="40.50176809541881084442138671875" lon="-1.588374339044094085693359375">
        <ele>1632.4000244140625</ele>
        <time>2022-08-24T11:26:19.000Z</time>
      </trkpt>
      <trkpt lat="40.5017049796879291534423828125" lon="-1.58847182057797908782958984375">
        <ele>1633.4000244140625</ele>
        <time>2022-08-24T11:26:25.000Z</time>
      </trkpt>
      <trkpt lat="40.50166499800980091094970703125" lon="-1.58853133209049701690673828125">
        <ele>1633.800048828125</ele>
        <time>2022-08-24T11:26:29.000Z</time>
      </trkpt>
      <trkpt lat="40.501640103757381439208984375" lon="-1.58857122994959354400634765625">
        <ele>1634.5999755859375</ele>
        <time>2022-08-24T11:26:32.000Z</time>
      </trkpt>
      <trkpt lat="40.50158503465354442596435546875" lon="-1.58864247612655162811279296875">
        <ele>1635.4000244140625</ele>
        <time>2022-08-24T11:26:37.000Z</time>
      </trkpt>
      <trkpt lat="40.50156533718109130859375" lon="-1.58867063932120800018310546875">
        <ele>1635.800048828125</ele>
        <time>2022-08-24T11:26:39.000Z</time>
      </trkpt>
      <trkpt lat="40.50151630304753780364990234375" lon="-1.5887503512203693389892578125">
        <ele>1636.5999755859375</ele>
        <time>2022-08-24T11:26:44.000Z</time>
      </trkpt>
      <trkpt lat="40.50150557421147823333740234375" lon="-1.5887684561312198638916015625">
        <ele>1636.800048828125</ele>
        <time>2022-08-24T11:26:45.000Z</time>
      </trkpt>
      <trkpt lat="40.50145528279244899749755859375" lon="-1.58886610530316829681396484375">
        <ele>1637.5999755859375</ele>
        <time>2022-08-24T11:26:51.000Z</time>
      </trkpt>
      <trkpt lat="40.50142276100814342498779296875" lon="-1.58893064595758914947509765625">
        <ele>1637.800048828125</ele>
        <time>2022-08-24T11:26:55.000Z</time>
      </trkpt>
      <trkpt lat="40.50137984566390514373779296875" lon="-1.58900859765708446502685546875">
        <ele>1638.5999755859375</ele>
        <time>2022-08-24T11:27:00.000Z</time>
      </trkpt>
      <trkpt lat="40.50135000608861446380615234375" lon="-1.58907540142536163330078125">
        <ele>1639.4000244140625</ele>
        <time>2022-08-24T11:27:04.000Z</time>
      </trkpt>
      <trkpt lat="40.50133894197642803192138671875" lon="-1.5891064144670963287353515625">
        <ele>1639.5999755859375</ele>
        <time>2022-08-24T11:27:06.000Z</time>
      </trkpt>
      <trkpt lat="40.5013065040111541748046875" lon="-1.5891672670841217041015625">
        <ele>1640.199951171875</ele>
        <time>2022-08-24T11:27:10.000Z</time>
      </trkpt>
      <trkpt lat="40.5012758262455463409423828125" lon="-1.5892126969993114471435546875">
        <ele>1640.5999755859375</ele>
        <time>2022-08-24T11:27:13.000Z</time>
      </trkpt>
      <trkpt lat="40.50123215653002262115478515625" lon="-1.5893075801432132720947265625">
        <ele>1641.199951171875</ele>
        <time>2022-08-24T11:27:19.000Z</time>
      </trkpt>
      <trkpt lat="40.50120634026825428009033203125" lon="-1.58935493789613246917724609375">
        <ele>1641.800048828125</ele>
        <time>2022-08-24T11:27:22.000Z</time>
      </trkpt>
      <trkpt lat="40.501155965030193328857421875" lon="-1.58945803530514240264892578125">
        <ele>1642.4000244140625</ele>
        <time>2022-08-24T11:27:28.000Z</time>
      </trkpt>
      <trkpt lat="40.5011370219290256500244140625" lon="-1.5894916467368602752685546875">
        <ele>1643</ele>
        <time>2022-08-24T11:27:30.000Z</time>
      </trkpt>
      <trkpt lat="40.50107457675039768218994140625" lon="-1.58960857428610324859619140625">
        <ele>1644</ele>
        <time>2022-08-24T11:27:37.000Z</time>
      </trkpt>
      <trkpt lat="40.50106066279113292694091796875" lon="-1.5896415151655673980712890625">
        <ele>1644</ele>
        <time>2022-08-24T11:27:39.000Z</time>
      </trkpt>
      <trkpt lat="40.50101389177143573760986328125" lon="-1.589718125760555267333984375">
        <ele>1644.800048828125</ele>
        <time>2022-08-24T11:27:44.000Z</time>
      </trkpt>
      <trkpt lat="40.50098472274839878082275390625" lon="-1.58977503888309001922607421875">
        <ele>1645.4000244140625</ele>
        <time>2022-08-24T11:27:48.000Z</time>
      </trkpt>
      <trkpt lat="40.50096091814339160919189453125" lon="-1.58982164226472377777099609375">
        <ele>1646</ele>
        <time>2022-08-24T11:27:51.000Z</time>
      </trkpt>
      <trkpt lat="40.5009301565587520599365234375" lon="-1.589916609227657318115234375">
        <ele>1646.800048828125</ele>
        <time>2022-08-24T11:27:57.000Z</time>
      </trkpt>
      <trkpt lat="40.500920601189136505126953125" lon="-1.58993479795753955841064453125">
        <ele>1647.199951171875</ele>
        <time>2022-08-24T11:27:58.000Z</time>
      </trkpt>
      <trkpt lat="40.5008560605347156524658203125" lon="-1.59004711546003818511962890625">
        <ele>1648.4000244140625</ele>
        <time>2022-08-24T11:28:05.000Z</time>
      </trkpt>
      <trkpt lat="40.50084725953638553619384765625" lon="-1.59006320871412754058837890625">
        <ele>1648.4000244140625</ele>
        <time>2022-08-24T11:28:06.000Z</time>
      </trkpt>
      <trkpt lat="40.50078012049198150634765625" lon="-1.59018508158624172210693359375">
        <ele>1649.199951171875</ele>
        <time>2022-08-24T11:28:13.000Z</time>
      </trkpt>
      <trkpt lat="40.5007065273821353912353515625" lon="-1.59032120369374752044677734375">
        <ele>1650.4000244140625</ele>
        <time>2022-08-24T11:28:21.000Z</time>
      </trkpt>
      <trkpt lat="40.50069722346961498260498046875" lon="-1.59033914096653461456298828125">
        <ele>1650.5999755859375</ele>
        <time>2022-08-24T11:28:22.000Z</time>
      </trkpt>
      <trkpt lat="40.50066210329532623291015625" lon="-1.5904126502573490142822265625">
        <ele>1651.4000244140625</ele>
        <time>2022-08-24T11:28:26.000Z</time>
      </trkpt>
      <trkpt lat="40.5006198585033416748046875" lon="-1.5904874168336391448974609375">
        <ele>1652.4000244140625</ele>
        <time>2022-08-24T11:28:31.000Z</time>
      </trkpt>
      <trkpt lat="40.500611476600170135498046875" lon="-1.59050292335450649261474609375">
        <ele>1652.5999755859375</ele>
        <time>2022-08-24T11:28:32.000Z</time>
      </trkpt>
      <trkpt lat="40.50056152045726776123046875" lon="-1.59059730358421802520751953125">
        <ele>1653.5999755859375</ele>
        <time>2022-08-24T11:28:37.000Z</time>
      </trkpt>
      <trkpt lat="40.50055079162120819091796875" lon="-1.59061339683830738067626953125">
        <ele>1653.800048828125</ele>
        <time>2022-08-24T11:28:38.000Z</time>
      </trkpt>
      <trkpt lat="40.5004802159965038299560546875" lon="-1.5907482616603374481201171875">
        <ele>1654.5999755859375</ele>
        <time>2022-08-24T11:28:46.000Z</time>
      </trkpt>
      <trkpt lat="40.500468313694000244140625" lon="-1.5907757543027400970458984375">
        <ele>1654.800048828125</ele>
        <time>2022-08-24T11:28:48.000Z</time>
      </trkpt>
      <trkpt lat="40.50044140778481960296630859375" lon="-1.5908334217965602874755859375">
        <ele>1655.5999755859375</ele>
        <time>2022-08-24T11:28:52.000Z</time>
      </trkpt>
      <trkpt lat="40.50039446912705898284912109375" lon="-1.590911708772182464599609375">
        <ele>1656.5999755859375</ele>
        <time>2022-08-24T11:28:57.000Z</time>
      </trkpt>
      <trkpt lat="40.5003846623003482818603515625" lon="-1.59092721529304981231689453125">
        <ele>1656.5999755859375</ele>
        <time>2022-08-24T11:28:58.000Z</time>
      </trkpt>
      <trkpt lat="40.5003005079925060272216796875" lon="-1.59108529798686504364013671875">
        <ele>1657.800048828125</ele>
        <time>2022-08-24T11:29:06.000Z</time>
      </trkpt>
      <trkpt lat="40.5002746917307376861572265625" lon="-1.59113944508135318756103515625">
        <ele>1658</ele>
        <time>2022-08-24T11:29:09.000Z</time>
      </trkpt>
      <trkpt lat="40.50023001618683338165283203125" lon="-1.591230891644954681396484375">
        <ele>1658.5999755859375</ele>
        <time>2022-08-24T11:29:14.000Z</time>
      </trkpt>
      <trkpt lat="40.50022247247397899627685546875" lon="-1.59125268459320068359375">
        <ele>1658.800048828125</ele>
        <time>2022-08-24T11:29:15.000Z</time>
      </trkpt>
      <trkpt lat="40.50015382468700408935546875" lon="-1.59138612449169158935546875">
        <ele>1659.5999755859375</ele>
        <time>2022-08-24T11:29:22.000Z</time>
      </trkpt>
      <trkpt lat="40.50014636479318141937255859375" lon="-1.59140615724027156829833984375">
        <ele>1660</ele>
        <time>2022-08-24T11:29:23.000Z</time>
      </trkpt>
      <trkpt lat="40.50008115358650684356689453125" lon="-1.59157790243625640869140625">
        <ele>1661</ele>
        <time>2022-08-24T11:29:32.000Z</time>
      </trkpt>
      <trkpt lat="40.50007444806396961212158203125" lon="-1.5915995277464389801025390625">
        <ele>1661</ele>
        <time>2022-08-24T11:29:33.000Z</time>
      </trkpt>
      <trkpt lat="40.50000538118183612823486328125" lon="-1.5917584486305713653564453125">
        <ele>1662</ele>
        <time>2022-08-24T11:29:41.000Z</time>
      </trkpt>
      <trkpt lat="40.49995274282991886138916015625" lon="-1.5918695926666259765625">
        <ele>1663.199951171875</ele>
        <time>2022-08-24T11:29:47.000Z</time>
      </trkpt>
      <trkpt lat="40.49994084052741527557373046875" lon="-1.59188895486295223236083984375">
        <ele>1663.4000244140625</ele>
        <time>2022-08-24T11:29:48.000Z</time>
      </trkpt>
      <trkpt lat="40.49989289604127407073974609375" lon="-1.59195969812572002410888671875">
        <ele>1664.199951171875</ele>
        <time>2022-08-24T11:29:52.000Z</time>
      </trkpt>
      <trkpt lat="40.4998582787811756134033203125" lon="-1.59201300702989101409912109375">
        <ele>1664.4000244140625</ele>
        <time>2022-08-24T11:29:55.000Z</time>
      </trkpt>
      <trkpt lat="40.49979516305029392242431640625" lon="-1.59211291931569576263427734375">
        <ele>1665</ele>
        <time>2022-08-24T11:30:01.000Z</time>
      </trkpt>
      <trkpt lat="40.49978560768067836761474609375" lon="-1.5921329520642757415771484375">
        <ele>1665.199951171875</ele>
        <time>2022-08-24T11:30:02.000Z</time>
      </trkpt>
      <trkpt lat="40.49970447085797786712646484375" lon="-1.5922761149704456329345703125">
        <ele>1666.199951171875</ele>
        <time>2022-08-24T11:30:10.000Z</time>
      </trkpt>
      <trkpt lat="40.49964898265898227691650390625" lon="-1.592414081096649169921875">
        <ele>1667</ele>
        <time>2022-08-24T11:30:17.000Z</time>
      </trkpt>
      <trkpt lat="40.49962274730205535888671875" lon="-1.59245858900249004364013671875">
        <ele>1667.4000244140625</ele>
        <time>2022-08-24T11:30:19.000Z</time>
      </trkpt>
      <trkpt lat="40.499552004039287567138671875" lon="-1.592583395540714263916015625">
        <ele>1668</ele>
        <time>2022-08-24T11:30:24.000Z</time>
      </trkpt>
      <trkpt lat="40.49951101653277873992919921875" lon="-1.59265170805156230926513671875">
        <ele>1668.4000244140625</ele>
        <time>2022-08-24T11:30:27.000Z</time>
      </trkpt>
      <trkpt lat="40.49946927465498447418212890625" lon="-1.59270753152668476104736328125">
        <ele>1668.5999755859375</ele>
        <time>2022-08-24T11:30:30.000Z</time>
      </trkpt>
      <trkpt lat="40.499405823647975921630859375" lon="-1.5927802026271820068359375">
        <ele>1669.4000244140625</ele>
        <time>2022-08-24T11:30:35.000Z</time>
      </trkpt>
      <trkpt lat="40.49935494549572467803955078125" lon="-1.59283560700714588165283203125">
        <ele>1670</ele>
        <time>2022-08-24T11:30:38.000Z</time>
      </trkpt>
      <trkpt lat="40.49930348061025142669677734375" lon="-1.59289813600480556488037109375">
        <ele>1670.4000244140625</ele>
        <time>2022-08-24T11:30:42.000Z</time>
      </trkpt>
      <trkpt lat="40.499269701540470123291015625" lon="-1.59294272772967815399169921875">
        <ele>1670.5999755859375</ele>
        <time>2022-08-24T11:30:45.000Z</time>
      </trkpt>
      <trkpt lat="40.499191246926784515380859375" lon="-1.59300483763217926025390625">
        <ele>1671.4000244140625</ele>
        <time>2022-08-24T11:30:50.000Z</time>
      </trkpt>
      <trkpt lat="40.49917750060558319091796875" lon="-1.59301632083952426910400390625">
        <ele>1671.5999755859375</ele>
        <time>2022-08-24T11:30:51.000Z</time>
      </trkpt>
      <trkpt lat="40.49906057305634021759033203125" lon="-1.59311707131564617156982421875">
        <ele>1672.4000244140625</ele>
        <time>2022-08-24T11:30:58.000Z</time>
      </trkpt>
      <trkpt lat="40.49895378760993480682373046875" lon="-1.593202650547027587890625">
        <ele>1673.4000244140625</ele>
        <time>2022-08-24T11:31:05.000Z</time>
      </trkpt>
      <trkpt lat="40.4989426396787166595458984375" lon="-1.5932142175734043121337890625">
        <ele>1673.5999755859375</ele>
        <time>2022-08-24T11:31:06.000Z</time>
      </trkpt>
      <trkpt lat="40.498856641352176666259765625" lon="-1.59327439963817596435546875">
        <ele>1674</ele>
        <time>2022-08-24T11:31:12.000Z</time>
      </trkpt>
      <trkpt lat="40.4988035000860691070556640625" lon="-1.593305580317974090576171875">
        <ele>1674.5999755859375</ele>
        <time>2022-08-24T11:31:15.000Z</time>
      </trkpt>
      <trkpt lat="40.4987233690917491912841796875" lon="-1.59335092641413211822509765625">
        <ele>1674.800048828125</ele>
        <time>2022-08-24T11:31:19.000Z</time>
      </trkpt>
      <trkpt lat="40.49861432053148746490478515625" lon="-1.59340239129960536956787109375">
        <ele>1675.5999755859375</ele>
        <time>2022-08-24T11:31:24.000Z</time>
      </trkpt>
      <trkpt lat="40.49853242933750152587890625" lon="-1.593428961932659149169921875">
        <ele>1676.199951171875</ele>
        <time>2022-08-24T11:31:28.000Z</time>
      </trkpt>
      <trkpt lat="40.498469062149524688720703125" lon="-1.59345008432865142822265625">
        <ele>1676.5999755859375</ele>
        <time>2022-08-24T11:31:31.000Z</time>
      </trkpt>
      <trkpt lat="40.498366467654705047607421875" lon="-1.59348906017839908599853515625">
        <ele>1677.4000244140625</ele>
        <time>2022-08-24T11:31:36.000Z</time>
      </trkpt>
      <trkpt lat="40.49830377101898193359375" lon="-1.59350532107055187225341796875">
        <ele>1677.4000244140625</ele>
        <time>2022-08-24T11:31:39.000Z</time>
      </trkpt>
      <trkpt lat="40.49817427061498165130615234375" lon="-1.5935451351106166839599609375">
        <ele>1678.4000244140625</ele>
        <time>2022-08-24T11:31:45.000Z</time>
      </trkpt>
      <trkpt lat="40.498068071901798248291015625" lon="-1.59358025528490543365478515625">
        <ele>1679.199951171875</ele>
        <time>2022-08-24T11:31:50.000Z</time>
      </trkpt>
      <trkpt lat="40.498019121587276458740234375" lon="-1.59359735436737537384033203125">
        <ele>1679.4000244140625</ele>
        <time>2022-08-24T11:31:52.000Z</time>
      </trkpt>
      <trkpt lat="40.49799456261098384857177734375" lon="-1.5936048142611980438232421875">
        <ele>1679.5999755859375</ele>
        <time>2022-08-24T11:31:53.000Z</time>
      </trkpt>
      <trkpt lat="40.497867576777935028076171875" lon="-1.5936370007693767547607421875">
        <ele>1680.5999755859375</ele>
        <time>2022-08-24T11:32:00.000Z</time>
      </trkpt>
      <trkpt lat="40.4977842606604099273681640625" lon="-1.593671031296253204345703125">
        <ele>1681.199951171875</ele>
        <time>2022-08-24T11:32:06.000Z</time>
      </trkpt>
      <trkpt lat="40.497770011425018310546875" lon="-1.59368234686553478240966796875">
        <ele>1681.4000244140625</ele>
        <time>2022-08-24T11:32:07.000Z</time>
      </trkpt>
      <trkpt lat="40.4977104999125003814697265625" lon="-1.59375225193798542022705078125">
        <ele>1682.4000244140625</ele>
        <time>2022-08-24T11:32:13.000Z</time>
      </trkpt>
      <trkpt lat="40.49770220182836055755615234375" lon="-1.59377069212496280670166015625">
        <ele>1682.800048828125</ele>
        <time>2022-08-24T11:32:14.000Z</time>
      </trkpt>
      <trkpt lat="40.49765408970415592193603515625" lon="-1.59388636238873004913330078125">
        <ele>1683.5999755859375</ele>
        <time>2022-08-24T11:32:20.000Z</time>
      </trkpt>
      <trkpt lat="40.4976514913141727447509765625" lon="-1.59392558969557285308837890625">
        <ele>1683.5999755859375</ele>
        <time>2022-08-24T11:32:22.000Z</time>
      </trkpt>
      <trkpt lat="40.4976732842624187469482421875" lon="-1.594038493931293487548828125">
        <ele>1684.4000244140625</ele>
        <time>2022-08-24T11:32:28.000Z</time>
      </trkpt>
      <trkpt lat="40.497683845460414886474609375" lon="-1.594053916633129119873046875">
        <ele>1684.5999755859375</ele>
        <time>2022-08-24T11:32:29.000Z</time>
      </trkpt>
      <trkpt lat="40.49775400198996067047119140625" lon="-1.5941481292247772216796875">
        <ele>1685.199951171875</ele>
        <time>2022-08-24T11:32:35.000Z</time>
      </trkpt>
      <trkpt lat="40.497854836285114288330078125" lon="-1.594235636293888092041015625">
        <ele>1685.4000244140625</ele>
        <time>2022-08-24T11:32:43.000Z</time>
      </trkpt>
      <trkpt lat="40.49798391759395599365234375" lon="-1.59430981613695621490478515625">
        <ele>1685.5999755859375</ele>
        <time>2022-08-24T11:32:50.000Z</time>
      </trkpt>
      <trkpt lat="40.498150549829006195068359375" lon="-1.59440134651958942413330078125">
        <ele>1685.5999755859375</ele>
        <time>2022-08-24T11:32:57.000Z</time>
      </trkpt>
      <trkpt lat="40.4983143322169780731201171875" lon="-1.59445163793861865997314453125">
        <ele>1685.800048828125</ele>
        <time>2022-08-24T11:33:05.000Z</time>
      </trkpt>
      <trkpt lat="40.49847668968141078948974609375" lon="-1.5944533981382846832275390625">
        <ele>1686</ele>
        <time>2022-08-24T11:33:12.000Z</time>
      </trkpt>
      <trkpt lat="40.49860694445669651031494140625" lon="-1.59449874423444271087646484375">
        <ele>1686.199951171875</ele>
        <time>2022-08-24T11:33:17.000Z</time>
      </trkpt>
      <trkpt lat="40.49867064692080020904541015625" lon="-1.5945080481469631195068359375">
        <ele>1686.4000244140625</ele>
        <time>2022-08-24T11:33:19.000Z</time>
      </trkpt>
      <trkpt lat="40.49883929081261157989501953125" lon="-1.594538055360317230224609375">
        <ele>1686.5999755859375</ele>
        <time>2022-08-24T11:33:24.000Z</time>
      </trkpt>
      <trkpt lat="40.49891673959791660308837890625" lon="-1.5945372171700000762939453125">
        <ele>1686.800048828125</ele>
        <time>2022-08-24T11:33:26.000Z</time>
      </trkpt>
      <trkpt lat="40.49914472736418247222900390625" lon="-1.594545431435108184814453125">
        <ele>1686.800048828125</ele>
        <time>2022-08-24T11:33:32.000Z</time>
      </trkpt>
      <trkpt lat="40.49939853139221668243408203125" lon="-1.594579629600048065185546875">
        <ele>1686.800048828125</ele>
        <time>2022-08-24T11:33:39.000Z</time>
      </trkpt>
      <trkpt lat="40.49962140619754791259765625" lon="-1.594637297093868255615234375">
        <ele>1687</ele>
        <time>2022-08-24T11:33:43.000Z</time>
      </trkpt>
      <trkpt lat="40.49971637316048145294189453125" lon="-1.5946765244007110595703125">
        <ele>1687.199951171875</ele>
        <time>2022-08-24T11:33:45.000Z</time>
      </trkpt>
      <trkpt lat="40.499892644584178924560546875" lon="-1.5948751755058765411376953125">
        <ele>1687.800048828125</ele>
        <time>2022-08-24T11:33:51.000Z</time>
      </trkpt>
      <trkpt lat="40.4999105818569660186767578125" lon="-1.5949117206037044525146484375">
        <ele>1688</ele>
        <time>2022-08-24T11:33:52.000Z</time>
      </trkpt>
      <trkpt lat="40.4999873600900173187255859375" lon="-1.5951244533061981201171875">
        <ele>1688.4000244140625</ele>
        <time>2022-08-24T11:33:57.000Z</time>
      </trkpt>
      <trkpt lat="40.5000158585608005523681640625" lon="-1.59531648270785808563232421875">
        <ele>1688.800048828125</ele>
        <time>2022-08-24T11:34:02.000Z</time>
      </trkpt>
      <trkpt lat="40.499997250735759735107421875" lon="-1.59542343579232692718505859375">
        <ele>1689</ele>
        <time>2022-08-24T11:34:05.000Z</time>
      </trkpt>
      <trkpt lat="40.49998157657682895660400390625" lon="-1.595489569008350372314453125">
        <ele>1689.4000244140625</ele>
        <time>2022-08-24T11:34:07.000Z</time>
      </trkpt>
      <trkpt lat="40.4999095760285854339599609375" lon="-1.59569509327411651611328125">
        <ele>1690.199951171875</ele>
        <time>2022-08-24T11:34:14.000Z</time>
      </trkpt>
      <trkpt lat="40.49981561489403247833251953125" lon="-1.59582040272653102874755859375">
        <ele>1691.199951171875</ele>
        <time>2022-08-24T11:34:19.000Z</time>
      </trkpt>
      <trkpt lat="40.49979281611740589141845703125" lon="-1.59583649598062038421630859375">
        <ele>1691.4000244140625</ele>
        <time>2022-08-24T11:34:20.000Z</time>
      </trkpt>
      <trkpt lat="40.49964881502091884613037109375" lon="-1.595885865390300750732421875">
        <ele>1692.4000244140625</ele>
        <time>2022-08-24T11:34:25.000Z</time>
      </trkpt>
      <trkpt lat="40.4996188916265964508056640625" lon="-1.595885865390300750732421875">
        <ele>1692.5999755859375</ele>
        <time>2022-08-24T11:34:26.000Z</time>
      </trkpt>
      <trkpt lat="40.49947815947234630584716796875" lon="-1.5958873741328716278076171875">
        <ele>1693.4000244140625</ele>
        <time>2022-08-24T11:34:31.000Z</time>
      </trkpt>
      <trkpt lat="40.49943222664296627044677734375" lon="-1.59589089453220367431640625">
        <ele>1693.5999755859375</ele>
        <time>2022-08-24T11:34:33.000Z</time>
      </trkpt>
      <trkpt lat="40.49924162216484546661376953125" lon="-1.59588108770549297332763671875">
        <ele>1694.199951171875</ele>
        <time>2022-08-24T11:34:41.000Z</time>
      </trkpt>
      <trkpt lat="40.4992182366549968719482421875" lon="-1.5958813391625881195068359375">
        <ele>1694.4000244140625</ele>
        <time>2022-08-24T11:34:42.000Z</time>
      </trkpt>
      <trkpt lat="40.4990365169942378997802734375" lon="-1.5958675928413867950439453125">
        <ele>1694.800048828125</ele>
        <time>2022-08-24T11:34:49.000Z</time>
      </trkpt>
      <trkpt lat="40.49891036935150623321533203125" lon="-1.59585460089147090911865234375">
        <ele>1695.4000244140625</ele>
        <time>2022-08-24T11:34:54.000Z</time>
      </trkpt>
      <trkpt lat="40.49883686006069183349609375" lon="-1.5958347357809543609619140625">
        <ele>1695.4000244140625</ele>
        <time>2022-08-24T11:34:57.000Z</time>
      </trkpt>
      <trkpt lat="40.4987216927111148834228515625" lon="-1.5958126075565814971923828125">
        <ele>1696</ele>
        <time>2022-08-24T11:35:04.000Z</time>
      </trkpt>
      <trkpt lat="40.49872026778757572174072265625" lon="-1.5958105958998203277587890625">
        <ele>1696</ele>
        <time>2022-08-24T11:35:05.000Z</time>
      </trkpt>
      <trkpt lat="40.49845204688608646392822265625" lon="-1.595861054956912994384765625">
        <ele>1696.800048828125</ele>
        <time>2022-08-24T11:36:17.000Z</time>
      </trkpt>
      <trkpt lat="40.4984068684279918670654296875" lon="-1.59585476852953433990478515625">
        <ele>1696.800048828125</ele>
        <time>2022-08-24T11:36:19.000Z</time>
      </trkpt>
      <trkpt lat="40.4982058703899383544921875" lon="-1.59578469581902027130126953125">
        <ele>1697.199951171875</ele>
        <time>2022-08-24T11:36:27.000Z</time>
      </trkpt>
      <trkpt lat="40.4980404116213321685791015625" lon="-1.59573826007544994354248046875">
        <ele>1697.800048828125</ele>
        <time>2022-08-24T11:36:34.000Z</time>
      </trkpt>
      <trkpt lat="40.49802104942500591278076171875" lon="-1.59572870470583438873291015625">
        <ele>1697.800048828125</ele>
        <time>2022-08-24T11:36:35.000Z</time>
      </trkpt>
      <trkpt lat="40.49786145798861980438232421875" lon="-1.59569685347378253936767578125">
        <ele>1698.199951171875</ele>
        <time>2022-08-24T11:36:41.000Z</time>
      </trkpt>
      <trkpt lat="40.49774411134421825408935546875" lon="-1.5956689417362213134765625">
        <ele>1698.800048828125</ele>
        <time>2022-08-24T11:36:45.000Z</time>
      </trkpt>
      <trkpt lat="40.497687198221683502197265625" lon="-1.59565678797662258148193359375">
        <ele>1699.199951171875</ele>
        <time>2022-08-24T11:36:47.000Z</time>
      </trkpt>
      <trkpt lat="40.49751277081668376922607421875" lon="-1.59559308551251888275146484375">
        <ele>1699.800048828125</ele>
        <time>2022-08-24T11:36:53.000Z</time>
      </trkpt>
      <trkpt lat="40.4974838532507419586181640625" lon="-1.59558537416160106658935546875">
        <ele>1700</ele>
        <time>2022-08-24T11:36:54.000Z</time>
      </trkpt>
      <trkpt lat="40.49734027124941349029541015625" lon="-1.5955388545989990234375">
        <ele>1700.800048828125</ele>
        <time>2022-08-24T11:36:59.000Z</time>
      </trkpt>
      <trkpt lat="40.497229881584644317626953125" lon="-1.5954972803592681884765625">
        <ele>1701.199951171875</ele>
        <time>2022-08-24T11:37:03.000Z</time>
      </trkpt>
      <trkpt lat="40.497126281261444091796875" lon="-1.595458053052425384521484375">
        <ele>1701.800048828125</ele>
        <time>2022-08-24T11:37:07.000Z</time>
      </trkpt>
      <trkpt lat="40.4969675280153751373291015625" lon="-1.59542242996394634246826171875">
        <ele>1703</ele>
        <time>2022-08-24T11:37:12.000Z</time>
      </trkpt>
      <trkpt lat="40.4967204295098781585693359375" lon="-1.5953878127038478851318359375">
        <ele>1704.199951171875</ele>
        <time>2022-08-24T11:37:20.000Z</time>
      </trkpt>
      <trkpt lat="40.49648531712591648101806640625" lon="-1.59541421569883823394775390625">
        <ele>1705</ele>
        <time>2022-08-24T11:37:28.000Z</time>
      </trkpt>
      <trkpt lat="40.496425218880176544189453125" lon="-1.5954267047345638275146484375">
        <ele>1705.199951171875</ele>
        <time>2022-08-24T11:37:30.000Z</time>
      </trkpt>
      <trkpt lat="40.4962416552007198333740234375" lon="-1.595470122992992401123046875">
        <ele>1706</ele>
        <time>2022-08-24T11:37:36.000Z</time>
      </trkpt>
      <trkpt lat="40.49615322612226009368896484375" lon="-1.5954837016761302947998046875">
        <ele>1706.199951171875</ele>
        <time>2022-08-24T11:37:39.000Z</time>
      </trkpt>
      <trkpt lat="40.4960800521075725555419921875" lon="-1.595492921769618988037109375">
        <ele>1706.5999755859375</ele>
        <time>2022-08-24T11:37:42.000Z</time>
      </trkpt>
      <trkpt lat="40.49590445123612880706787109375" lon="-1.5955106914043426513671875">
        <ele>1706.800048828125</ele>
        <time>2022-08-24T11:37:48.000Z</time>
      </trkpt>
      <trkpt lat="40.49579179845750331878662109375" lon="-1.59553307108581066131591796875">
        <ele>1707.199951171875</ele>
        <time>2022-08-24T11:37:51.000Z</time>
      </trkpt>
      <trkpt lat="40.4957087337970733642578125" lon="-1.5955480746924877166748046875">
        <ele>1707.199951171875</ele>
        <time>2022-08-24T11:37:53.000Z</time>
      </trkpt>
      <trkpt lat="40.49533255398273468017578125" lon="-1.59559526480734348297119140625">
        <ele>1707.4000244140625</ele>
        <time>2022-08-24T11:38:01.000Z</time>
      </trkpt>
      <trkpt lat="40.49512870609760284423828125" lon="-1.59564077854156494140625">
        <ele>1707.4000244140625</ele>
        <time>2022-08-24T11:38:05.000Z</time>
      </trkpt>
      <trkpt lat="40.49502988345921039581298828125" lon="-1.59566885791718959808349609375">
        <ele>1707.4000244140625</ele>
        <time>2022-08-24T11:38:07.000Z</time>
      </trkpt>
      <trkpt lat="40.4947366006672382354736328125" lon="-1.59579928033053874969482421875">
        <ele>1706.4000244140625</ele>
        <time>2022-08-24T11:38:13.000Z</time>
      </trkpt>
      <trkpt lat="40.49457759596407413482666015625" lon="-1.59588024951517581939697265625">
        <ele>1705.800048828125</ele>
        <time>2022-08-24T11:38:16.000Z</time>
      </trkpt>
      <trkpt lat="40.49441029317677021026611328125" lon="-1.5959755517542362213134765625">
        <ele>1705.5999755859375</ele>
        <time>2022-08-24T11:38:19.000Z</time>
      </trkpt>
      <trkpt lat="40.49422052688896656036376953125" lon="-1.5961086563766002655029296875">
        <ele>1705.4000244140625</ele>
        <time>2022-08-24T11:38:22.000Z</time>
      </trkpt>
      <trkpt lat="40.49409781582653522491455078125" lon="-1.5962209738790988922119140625">
        <ele>1705.199951171875</ele>
        <time>2022-08-24T11:38:24.000Z</time>
      </trkpt>
      <trkpt lat="40.4939627833664417266845703125" lon="-1.59635080955922603607177734375">
        <ele>1704.800048828125</ele>
        <time>2022-08-24T11:38:26.000Z</time>
      </trkpt>
      <trkpt lat="40.49378718249499797821044921875" lon="-1.59655482508242130279541015625">
        <ele>1704.5999755859375</ele>
        <time>2022-08-24T11:38:29.000Z</time>
      </trkpt>
      <trkpt lat="40.4935292713344097137451171875" lon="-1.5969859063625335693359375">
        <ele>1703.800048828125</ele>
        <time>2022-08-24T11:38:34.000Z</time>
      </trkpt>
      <trkpt lat="40.4934776388108730316162109375" lon="-1.59707106649875640869140625">
        <ele>1703.800048828125</ele>
        <time>2022-08-24T11:38:35.000Z</time>
      </trkpt>
      <trkpt lat="40.49325509928166866302490234375" lon="-1.59740726463496685028076171875">
        <ele>1702.5999755859375</ele>
        <time>2022-08-24T11:38:39.000Z</time>
      </trkpt>
      <trkpt lat="40.49319525249302387237548828125" lon="-1.5974933467805385589599609375">
        <ele>1702.4000244140625</ele>
        <time>2022-08-24T11:38:40.000Z</time>
      </trkpt>
      <trkpt lat="40.49297086894512176513671875" lon="-1.5978675149381160736083984375">
        <ele>1701.4000244140625</ele>
        <time>2022-08-24T11:38:44.000Z</time>
      </trkpt>
      <trkpt lat="40.49287430942058563232421875" lon="-1.59808360040187835693359375">
        <ele>1701</ele>
        <time>2022-08-24T11:38:46.000Z</time>
      </trkpt>
      <trkpt lat="40.4928023926913738250732421875" lon="-1.59831670112907886505126953125">
        <ele>1700.199951171875</ele>
        <time>2022-08-24T11:38:48.000Z</time>
      </trkpt>
      <trkpt lat="40.49270289950072765350341796875" lon="-1.598677374422550201416015625">
        <ele>1699.4000244140625</ele>
        <time>2022-08-24T11:38:51.000Z</time>
      </trkpt>
      <trkpt lat="40.49266853369772434234619140625" lon="-1.59880000166594982147216796875">
        <ele>1699</ele>
        <time>2022-08-24T11:38:52.000Z</time>
      </trkpt>
      <trkpt lat="40.492574237287044525146484375" lon="-1.5993350185453891754150390625">
        <ele>1697.800048828125</ele>
        <time>2022-08-24T11:38:57.000Z</time>
      </trkpt>
      <trkpt lat="40.4926129616796970367431640625" lon="-1.59974078647792339324951171875">
        <ele>1697.5999755859375</ele>
        <time>2022-08-24T11:39:01.000Z</time>
      </trkpt>
      <trkpt lat="40.49276031553745269775390625" lon="-1.60006214864552021026611328125">
        <ele>1697.4000244140625</ele>
        <time>2022-08-24T11:39:05.000Z</time>
      </trkpt>
      <trkpt lat="40.49299391917884349822998046875" lon="-1.60044486634433269500732421875">
        <ele>1697.199951171875</ele>
        <time>2022-08-24T11:39:10.000Z</time>
      </trkpt>
      <trkpt lat="40.49318502657115459442138671875" lon="-1.60094694234430789947509765625">
        <ele>1697</ele>
        <time>2022-08-24T11:39:16.000Z</time>
      </trkpt>
      <trkpt lat="40.49322224222123622894287109375" lon="-1.60111340694129467010498046875">
        <ele>1696.5999755859375</ele>
        <time>2022-08-24T11:39:18.000Z</time>
      </trkpt>
      <trkpt lat="40.49328058026731014251708984375" lon="-1.60144633613526821136474609375">
        <ele>1696.199951171875</ele>
        <time>2022-08-24T11:39:22.000Z</time>
      </trkpt>
      <trkpt lat="40.49341402016580104827880859375" lon="-1.60182259976863861083984375">
        <ele>1696</ele>
        <time>2022-08-24T11:39:27.000Z</time>
      </trkpt>
      <trkpt lat="40.49345157109200954437255859375" lon="-1.60189258866012096405029296875">
        <ele>1696</ele>
        <time>2022-08-24T11:39:28.000Z</time>
      </trkpt>
      <trkpt lat="40.4937614500522613525390625" lon="-1.60235946066677570343017578125">
        <ele>1695.5999755859375</ele>
        <time>2022-08-24T11:39:35.000Z</time>
      </trkpt>
      <trkpt lat="40.493898577988147735595703125" lon="-1.6025751270353794097900390625">
        <ele>1695.5999755859375</ele>
        <time>2022-08-24T11:39:38.000Z</time>
      </trkpt>
      <trkpt lat="40.49401181749999523162841796875" lon="-1.602778472006320953369140625">
        <ele>1695.4000244140625</ele>
        <time>2022-08-24T11:39:41.000Z</time>
      </trkpt>
      <trkpt lat="40.49418565817177295684814453125" lon="-1.60319144837558269500732421875">
        <ele>1694.800048828125</ele>
        <time>2022-08-24T11:39:46.000Z</time>
      </trkpt>
      <trkpt lat="40.4943148232996463775634765625" lon="-1.6034475155174732208251953125">
        <ele>1694.4000244140625</ele>
        <time>2022-08-24T11:39:48.000Z</time>
      </trkpt>
      <trkpt lat="40.49442051909863948822021484375" lon="-1.60359377972781658172607421875">
        <ele>1693.800048828125</ele>
        <time>2022-08-24T11:39:50.000Z</time>
      </trkpt>
      <trkpt lat="40.49442051909863948822021484375" lon="-1.60359377972781658172607421875">
        <ele>1693.4000244140625</ele>
        <time>2022-08-24T11:39:51.000Z</time>
      </trkpt>
      <trkpt lat="40.4945766739547252655029296875" lon="-1.60368531011044979095458984375">
        <ele>1693.199951171875</ele>
        <time>2022-08-24T11:39:52.000Z</time>
      </trkpt>
      <trkpt lat="40.494739115238189697265625" lon="-1.60374716855585575103759765625">
        <ele>1692.800048828125</ele>
        <time>2022-08-24T11:39:54.000Z</time>
      </trkpt>
      <trkpt lat="40.4948857985436916351318359375" lon="-1.60382646135985851287841796875">
        <ele>1692</ele>
        <time>2022-08-24T11:39:56.000Z</time>
      </trkpt>
      <trkpt lat="40.49501982517540454864501953125" lon="-1.6039356775581836700439453125">
        <ele>1691.5999755859375</ele>
        <time>2022-08-24T11:39:58.000Z</time>
      </trkpt>
      <trkpt lat="40.4950883053243160247802734375" lon="-1.6039946861565113067626953125">
        <ele>1691.4000244140625</ele>
        <time>2022-08-24T11:39:59.000Z</time>
      </trkpt>
      <trkpt lat="40.49542953260242938995361328125" lon="-1.6044121049344539642333984375">
        <ele>1691</ele>
        <time>2022-08-24T11:40:05.000Z</time>
      </trkpt>
      <trkpt lat="40.49570269882678985595703125" lon="-1.60476121120154857635498046875">
        <ele>1690</ele>
        <time>2022-08-24T11:40:11.000Z</time>
      </trkpt>
      <trkpt lat="40.4960277490317821502685546875" lon="-1.60511140711605548858642578125">
        <ele>1689.5999755859375</ele>
        <time>2022-08-24T11:40:17.000Z</time>
      </trkpt>
      <trkpt lat="40.49613327719271183013916015625" lon="-1.60517795942723751068115234375">
        <ele>1689.5999755859375</ele>
        <time>2022-08-24T11:40:19.000Z</time>
      </trkpt>
      <trkpt lat="40.49623654223978519439697265625" lon="-1.6052050329744815826416015625">
        <ele>1689.5999755859375</ele>
        <time>2022-08-24T11:40:21.000Z</time>
      </trkpt>
      <trkpt lat="40.49633444286882877349853515625" lon="-1.60520327277481555938720703125">
        <ele>1689.5999755859375</ele>
        <time>2022-08-24T11:40:23.000Z</time>
      </trkpt>
      <trkpt lat="40.4965105466544628143310546875" lon="-1.60517762415111064910888671875">
        <ele>1689.4000244140625</ele>
        <time>2022-08-24T11:40:27.000Z</time>
      </trkpt>
      <trkpt lat="40.4968491755425930023193359375" lon="-1.605108641088008880615234375">
        <ele>1689.4000244140625</ele>
        <time>2022-08-24T11:40:32.000Z</time>
      </trkpt>
      <trkpt lat="40.49724555574357509613037109375" lon="-1.60512196831405162811279296875">
        <ele>1689.5999755859375</ele>
        <time>2022-08-24T11:40:38.000Z</time>
      </trkpt>
      <trkpt lat="40.49767470918595790863037109375" lon="-1.605211906135082244873046875">
        <ele>1690.199951171875</ele>
        <time>2022-08-24T11:40:45.000Z</time>
      </trkpt>
      <trkpt lat="40.4980833269655704498291015625" lon="-1.60540779121220111846923828125">
        <ele>1690.199951171875</ele>
        <time>2022-08-24T11:40:52.000Z</time>
      </trkpt>
      <trkpt lat="40.49844793975353240966796875" lon="-1.60558666102588176727294921875">
        <ele>1690.199951171875</ele>
        <time>2022-08-24T11:40:59.000Z</time>
      </trkpt>
      <trkpt lat="40.4988135583698749542236328125" lon="-1.605823449790477752685546875">
        <ele>1690</ele>
        <time>2022-08-24T11:41:06.000Z</time>
      </trkpt>
      <trkpt lat="40.49885806627571582794189453125" lon="-1.605873741209506988525390625">
        <ele>1689.800048828125</ele>
        <time>2022-08-24T11:41:07.000Z</time>
      </trkpt>
      <trkpt lat="40.49894590862095355987548828125" lon="-1.60605370067059993743896484375">
        <ele>1689.800048828125</ele>
        <time>2022-08-24T11:41:10.000Z</time>
      </trkpt>
      <trkpt lat="40.49893182702362537384033203125" lon="-1.6063114441931247711181640625">
        <ele>1689.5999755859375</ele>
        <time>2022-08-24T11:41:14.000Z</time>
      </trkpt>
      <trkpt lat="40.49891372211277484893798828125" lon="-1.60638143308460712432861328125">
        <ele>1689.5999755859375</ele>
        <time>2022-08-24T11:41:15.000Z</time>
      </trkpt>
      <trkpt lat="40.4988276399672031402587890625" lon="-1.60670313052833080291748046875">
        <ele>1689.5999755859375</ele>
        <time>2022-08-24T11:41:20.000Z</time>
      </trkpt>
      <trkpt lat="40.49869495443999767303466796875" lon="-1.60713295452296733856201171875">
        <ele>1689.4000244140625</ele>
        <time>2022-08-24T11:41:27.000Z</time>
      </trkpt>
      <trkpt lat="40.4986190982162952423095703125" lon="-1.60743067972362041473388671875">
        <ele>1688.800048828125</ele>
        <time>2022-08-24T11:41:32.000Z</time>
      </trkpt>
      <trkpt lat="40.49860979430377483367919921875" lon="-1.60750444047152996063232421875">
        <ele>1688.800048828125</ele>
        <time>2022-08-24T11:41:33.000Z</time>
      </trkpt>
      <trkpt lat="40.49860442988574504852294921875" lon="-1.607576273381710052490234375">
        <ele>1688.5999755859375</ele>
        <time>2022-08-24T11:41:34.000Z</time>
      </trkpt>
      <trkpt lat="40.4986429028213024139404296875" lon="-1.6078148223459720611572265625">
        <ele>1688.5999755859375</ele>
        <time>2022-08-24T11:41:37.000Z</time>
      </trkpt>
      <trkpt lat="40.49874373711645603179931640625" lon="-1.60803870297968387603759765625">
        <ele>1688.5999755859375</ele>
        <time>2022-08-24T11:41:40.000Z</time>
      </trkpt>
      <trkpt lat="40.49878321588039398193359375" lon="-1.60810324363410472869873046875">
        <ele>1688.5999755859375</ele>
        <time>2022-08-24T11:41:41.000Z</time>
      </trkpt>
      <trkpt lat="40.49901916645467281341552734375" lon="-1.60843198187649250030517578125">
        <ele>1688.5999755859375</ele>
        <time>2022-08-24T11:41:47.000Z</time>
      </trkpt>
      <trkpt lat="40.49908722750842571258544921875" lon="-1.60853088833391666412353515625">
        <ele>1688.5999755859375</ele>
        <time>2022-08-24T11:41:49.000Z</time>
      </trkpt>
      <trkpt lat="40.49916543066501617431640625" lon="-1.6087076626718044281005859375">
        <ele>1688.800048828125</ele>
        <time>2022-08-24T11:41:52.000Z</time>
      </trkpt>
      <trkpt lat="40.499248914420604705810546875" lon="-1.608997844159603118896484375">
        <ele>1689</ele>
        <time>2022-08-24T11:41:56.000Z</time>
      </trkpt>
      <trkpt lat="40.499275065958499908447265625" lon="-1.609056852757930755615234375">
        <ele>1689</ele>
        <time>2022-08-24T11:41:57.000Z</time>
      </trkpt>
      <trkpt lat="40.4993282072246074676513671875" lon="-1.60916120745241641998291015625">
        <ele>1689</ele>
        <time>2022-08-24T11:41:59.000Z</time>
      </trkpt>
      <trkpt lat="40.49945175647735595703125" lon="-1.609322391450405120849609375">
        <ele>1689</ele>
        <time>2022-08-24T11:42:02.000Z</time>
      </trkpt>
      <trkpt lat="40.49974453635513782501220703125" lon="-1.6097024269402027130126953125">
        <ele>1688.4000244140625</ele>
        <time>2022-08-24T11:42:09.000Z</time>
      </trkpt>
      <trkpt lat="40.50007109530270099639892578125" lon="-1.61014758981764316558837890625">
        <ele>1688.4000244140625</ele>
        <time>2022-08-24T11:42:17.000Z</time>
      </trkpt>
      <trkpt lat="40.50013747997581958770751953125" lon="-1.61025680601596832275390625">
        <ele>1688.4000244140625</ele>
        <time>2022-08-24T11:42:19.000Z</time>
      </trkpt>
      <trkpt lat="40.50023420713841915130615234375" lon="-1.61047565750777721405029296875">
        <ele>1688.4000244140625</ele>
        <time>2022-08-24T11:42:23.000Z</time>
      </trkpt>
      <trkpt lat="40.50031249411404132843017578125" lon="-1.6108101792633533477783203125">
        <ele>1688.5999755859375</ele>
        <time>2022-08-24T11:42:29.000Z</time>
      </trkpt>
      <trkpt lat="40.50039866007864475250244140625" lon="-1.61121728830039501190185546875">
        <ele>1689</ele>
        <time>2022-08-24T11:42:36.000Z</time>
      </trkpt>
      <trkpt lat="40.50041441805660724639892578125" lon="-1.61146245896816253662109375">
        <ele>1689.4000244140625</ele>
        <time>2022-08-24T11:42:40.000Z</time>
      </trkpt>
      <trkpt lat="40.500408969819545745849609375" lon="-1.61157167516648769378662109375">
        <ele>1689.800048828125</ele>
        <time>2022-08-24T11:42:42.000Z</time>
      </trkpt>
      <trkpt lat="40.5003704130649566650390625" lon="-1.61189957521855831146240234375">
        <ele>1690.199951171875</ele>
        <time>2022-08-24T11:42:48.000Z</time>
      </trkpt>
      <trkpt lat="40.50030134618282318115234375" lon="-1.61226502619683742523193359375">
        <ele>1690.4000244140625</ele>
        <time>2022-08-24T11:42:55.000Z</time>
      </trkpt>
      <trkpt lat="40.5002659745514392852783203125" lon="-1.61235831677913665771484375">
        <ele>1691.199951171875</ele>
        <time>2022-08-24T11:42:57.000Z</time>
      </trkpt>
      <trkpt lat="40.5000899545848369598388671875" lon="-1.612597368657588958740234375">
        <ele>1691.199951171875</ele>
        <time>2022-08-24T11:43:03.000Z</time>
      </trkpt>
      <trkpt lat="40.50002700649201869964599609375" lon="-1.612671129405498504638671875">
        <ele>1691.4000244140625</ele>
        <time>2022-08-24T11:43:05.000Z</time>
      </trkpt>
      <trkpt lat="40.4998418502509593963623046875" lon="-1.61284505389630794525146484375">
        <ele>1691.5999755859375</ele>
        <time>2022-08-24T11:43:10.000Z</time>
      </trkpt>
      <trkpt lat="40.499568097293376922607421875" lon="-1.61310455761849880218505859375">
        <ele>1691.199951171875</ele>
        <time>2022-08-24T11:43:17.000Z</time>
      </trkpt>
      <trkpt lat="40.49940305761992931365966796875" lon="-1.6133257560431957244873046875">
        <ele>1690.800048828125</ele>
        <time>2022-08-24T11:43:22.000Z</time>
      </trkpt>
      <trkpt lat="40.49937321804463863372802734375" lon="-1.6133750416338443756103515625">
        <ele>1690.800048828125</ele>
        <time>2022-08-24T11:43:23.000Z</time>
      </trkpt>
      <trkpt lat="40.49932233989238739013671875" lon="-1.6134933941066265106201171875">
        <ele>1690.5999755859375</ele>
        <time>2022-08-24T11:43:25.000Z</time>
      </trkpt>
      <trkpt lat="40.49927330575883388519287109375" lon="-1.6136801429092884063720703125">
        <ele>1690.5999755859375</ele>
        <time>2022-08-24T11:43:28.000Z</time>
      </trkpt>
      <trkpt lat="40.49918898381292819976806640625" lon="-1.61411575041711330413818359375">
        <ele>1690.4000244140625</ele>
        <time>2022-08-24T11:43:35.000Z</time>
      </trkpt>
      <trkpt lat="40.499174483120441436767578125" lon="-1.61417023278772830963134765625">
        <ele>1690.199951171875</ele>
        <time>2022-08-24T11:43:36.000Z</time>
      </trkpt>
      <trkpt lat="40.49915411509573459625244140625" lon="-1.61422303877770900726318359375">
        <ele>1690.199951171875</ele>
        <time>2022-08-24T11:43:37.000Z</time>
      </trkpt>
      <trkpt lat="40.4990757443010807037353515625" lon="-1.61438732407987117767333984375">
        <ele>1690</ele>
        <time>2022-08-24T11:43:40.000Z</time>
      </trkpt>
      <trkpt lat="40.498862676322460174560546875" lon="-1.61477071233093738555908203125">
        <ele>1689.5999755859375</ele>
        <time>2022-08-24T11:43:47.000Z</time>
      </trkpt>
      <trkpt lat="40.49882655031979084014892578125" lon="-1.61482184194028377532958984375">
        <ele>1689.5999755859375</ele>
        <time>2022-08-24T11:43:48.000Z</time>
      </trkpt>
      <trkpt lat="40.49865237437188625335693359375" lon="-1.61501797847449779510498046875">
        <ele>1689.199951171875</ele>
        <time>2022-08-24T11:43:52.000Z</time>
      </trkpt>
      <trkpt lat="40.498607866466045379638671875" lon="-1.61506843753159046173095703125">
        <ele>1689.199951171875</ele>
        <time>2022-08-24T11:43:53.000Z</time>
      </trkpt>
      <trkpt lat="40.4983709938824176788330078125" lon="-1.61539851687848567962646484375">
        <ele>1688.5999755859375</ele>
        <time>2022-08-24T11:43:59.000Z</time>
      </trkpt>
      <trkpt lat="40.49826085567474365234375" lon="-1.6155566833913326263427734375">
        <ele>1688.199951171875</ele>
        <time>2022-08-24T11:44:02.000Z</time>
      </trkpt>
      <trkpt lat="40.49810218624770641326904296875" lon="-1.61577813327312469482421875">
        <ele>1686.800048828125</ele>
        <time>2022-08-24T11:44:06.000Z</time>
      </trkpt>
      <trkpt lat="40.49806647934019565582275390625" lon="-1.61584577523171901702880859375">
        <ele>1686.5999755859375</ele>
        <time>2022-08-24T11:44:07.000Z</time>
      </trkpt>
      <trkpt lat="40.4979917965829372406005859375" lon="-1.61609270609915256500244140625">
        <ele>1686.4000244140625</ele>
        <time>2022-08-24T11:44:10.000Z</time>
      </trkpt>
      <trkpt lat="40.49795399419963359832763671875" lon="-1.61627702414989471435546875">
        <ele>1685.5999755859375</ele>
        <time>2022-08-24T11:44:12.000Z</time>
      </trkpt>
      <trkpt lat="40.49790923483669757843017578125" lon="-1.61655354313552379608154296875">
        <ele>1684.4000244140625</ele>
        <time>2022-08-24T11:44:15.000Z</time>
      </trkpt>
      <trkpt lat="40.4978653974831104278564453125" lon="-1.6168079338967800140380859375">
        <ele>1683.4000244140625</ele>
        <time>2022-08-24T11:44:18.000Z</time>
      </trkpt>
      <trkpt lat="40.49776204861700534820556640625" lon="-1.6171281225979328155517578125">
        <ele>1683.199951171875</ele>
        <time>2022-08-24T11:44:23.000Z</time>
      </trkpt>
      <trkpt lat="40.49776523374021053314208984375" lon="-1.6171814315021038055419921875">
        <ele>1683.199951171875</ele>
        <time>2022-08-24T11:44:24.000Z</time>
      </trkpt>
      <trkpt lat="40.4978080652654170989990234375" lon="-1.61725762300193309783935546875">
        <ele>1683.199951171875</ele>
        <time>2022-08-24T11:44:26.000Z</time>
      </trkpt>
      <trkpt lat="40.49789666198194026947021484375" lon="-1.61729182116687297821044921875">
        <ele>1683.199951171875</ele>
        <time>2022-08-24T11:44:29.000Z</time>
      </trkpt>
      <trkpt lat="40.4979381524026393890380859375" lon="-1.61729358136653900146484375">
        <ele>1683.199951171875</ele>
        <time>2022-08-24T11:44:30.000Z</time>
      </trkpt>
      <trkpt lat="40.4982429184019565582275390625" lon="-1.617290563881397247314453125">
        <ele>1683.199951171875</ele>
        <time>2022-08-24T11:44:37.000Z</time>
      </trkpt>
      <trkpt lat="40.4982891865074634552001953125" lon="-1.6173017956316471099853515625">
        <ele>1683.199951171875</ele>
        <time>2022-08-24T11:44:38.000Z</time>
      </trkpt>
      <trkpt lat="40.49845623783767223358154296875" lon="-1.61738477647304534912109375">
        <ele>1682.5999755859375</ele>
        <time>2022-08-24T11:44:41.000Z</time>
      </trkpt>
      <trkpt lat="40.49852329306304454803466796875" lon="-1.61742425523698329925537109375">
        <ele>1682.4000244140625</ele>
        <time>2022-08-24T11:44:42.000Z</time>
      </trkpt>
      <trkpt lat="40.49873217009007930755615234375" lon="-1.617540009319782257080078125">
        <ele>1681.4000244140625</ele>
        <time>2022-08-24T11:44:45.000Z</time>
      </trkpt>
      <trkpt lat="40.498902238905429840087890625" lon="-1.61763782612979412078857421875">
        <ele>1680.199951171875</ele>
        <time>2022-08-24T11:44:47.000Z</time>
      </trkpt>
      <trkpt lat="40.499070547521114349365234375" lon="-1.6177272610366344451904296875">
        <ele>1679.199951171875</ele>
        <time>2022-08-24T11:44:49.000Z</time>
      </trkpt>
      <trkpt lat="40.499306581914424896240234375" lon="-1.61784184165298938751220703125">
        <ele>1677.800048828125</ele>
        <time>2022-08-24T11:44:52.000Z</time>
      </trkpt>
      <trkpt lat="40.49938294105231761932373046875" lon="-1.6178761236369609832763671875">
        <ele>1677.4000244140625</ele>
        <time>2022-08-24T11:44:53.000Z</time>
      </trkpt>
      <trkpt lat="40.49957170151174068450927734375" lon="-1.61799321882426738739013671875">
        <ele>1676.4000244140625</ele>
        <time>2022-08-24T11:44:56.000Z</time>
      </trkpt>
      <trkpt lat="40.49963691271841526031494140625" lon="-1.6180400736629962921142578125">
        <ele>1676.199951171875</ele>
        <time>2022-08-24T11:44:57.000Z</time>
      </trkpt>
      <trkpt lat="40.49970053136348724365234375" lon="-1.618088185787200927734375">
        <ele>1676.199951171875</ele>
        <time>2022-08-24T11:44:58.000Z</time>
      </trkpt>
      <trkpt lat="40.4999065585434436798095703125" lon="-1.61821919493377208709716796875">
        <ele>1676</ele>
        <time>2022-08-24T11:45:01.000Z</time>
      </trkpt>
      <trkpt lat="40.50008467398583889007568359375" lon="-1.61824442446231842041015625">
        <ele>1675.800048828125</ele>
        <time>2022-08-24T11:45:03.000Z</time>
      </trkpt>
      <trkpt lat="40.5002790503203868865966796875" lon="-1.6181741841137409210205078125">
        <ele>1675.199951171875</ele>
        <time>2022-08-24T11:45:05.000Z</time>
      </trkpt>
      <trkpt lat="40.50037502311170101165771484375" lon="-1.6181305982172489166259765625">
        <ele>1674.5999755859375</ele>
        <time>2022-08-24T11:45:06.000Z</time>
      </trkpt>
      <trkpt lat="40.50046353600919246673583984375" lon="-1.618104279041290283203125">
        <ele>1673.800048828125</ele>
        <time>2022-08-24T11:45:07.000Z</time>
      </trkpt>
      <trkpt lat="40.5006252229213714599609375" lon="-1.6181024350225925445556640625">
        <ele>1672.4000244140625</ele>
        <time>2022-08-24T11:45:09.000Z</time>
      </trkpt>
      <trkpt lat="40.50069856457412242889404296875" lon="-1.61811509169638156890869140625">
        <ele>1671.5999755859375</ele>
        <time>2022-08-24T11:45:10.000Z</time>
      </trkpt>
      <trkpt lat="40.500765033066272735595703125" lon="-1.61812514998018741607666015625">
        <ele>1671.199951171875</ele>
        <time>2022-08-24T11:45:11.000Z</time>
      </trkpt>
      <trkpt lat="40.5009284801781177520751953125" lon="-1.61813353188335895538330078125">
        <ele>1671</ele>
        <time>2022-08-24T11:45:14.000Z</time>
      </trkpt>
      <trkpt lat="40.50105446018278598785400390625" lon="-1.61814426071941852569580078125">
        <ele>1671</ele>
        <time>2022-08-24T11:45:18.000Z</time>
      </trkpt>
      <trkpt lat="40.501208938658237457275390625" lon="-1.61812883801758289337158203125">
        <ele>1671.5999755859375</ele>
        <time>2022-08-24T11:45:24.000Z</time>
      </trkpt>
      <trkpt lat="40.501272641122341156005859375" lon="-1.61811375059187412261962890625">
        <ele>1672.4000244140625</ele>
        <time>2022-08-24T11:45:26.000Z</time>
      </trkpt>
      <trkpt lat="40.50138940103352069854736328125" lon="-1.6180826537311077117919921875">
        <ele>1673.4000244140625</ele>
        <time>2022-08-24T11:45:30.000Z</time>
      </trkpt>
      <trkpt lat="40.501449666917324066162109375" lon="-1.6180605255067348480224609375">
        <ele>1674</ele>
        <time>2022-08-24T11:45:32.000Z</time>
      </trkpt>
      <trkpt lat="40.5015101842582225799560546875" lon="-1.61804351024329662322998046875">
        <ele>1674.5999755859375</ele>
        <time>2022-08-24T11:45:34.000Z</time>
      </trkpt>
      <trkpt lat="40.50162644125521183013916015625" lon="-1.618001349270343780517578125">
        <ele>1675.800048828125</ele>
        <time>2022-08-24T11:45:38.000Z</time>
      </trkpt>
      <trkpt lat="40.50167924724519252777099609375" lon="-1.61798634566366672515869140625">
        <ele>1676.199951171875</ele>
        <time>2022-08-24T11:45:40.000Z</time>
      </trkpt>
      <trkpt lat="40.50172719173133373260498046875" lon="-1.61797276698052883148193359375">
        <ele>1677</ele>
        <time>2022-08-24T11:45:42.000Z</time>
      </trkpt>
      <trkpt lat="40.50187286920845508575439453125" lon="-1.61796748638153076171875">
        <ele>1677.800048828125</ele>
        <time>2022-08-24T11:45:47.000Z</time>
      </trkpt>
      <trkpt lat="40.50193640403449535369873046875" lon="-1.6179763711988925933837890625">
        <ele>1678.199951171875</ele>
        <time>2022-08-24T11:45:49.000Z</time>
      </trkpt>
      <trkpt lat="40.50213606096804141998291015625" lon="-1.61804920993745326995849609375">
        <ele>1679</ele>
        <time>2022-08-24T11:45:55.000Z</time>
      </trkpt>
      <trkpt lat="40.50220278091728687286376953125" lon="-1.61808039061725139617919921875">
        <ele>1679.199951171875</ele>
        <time>2022-08-24T11:45:57.000Z</time>
      </trkpt>
      <trkpt lat="40.5024499632418155670166015625" lon="-1.618171669542789459228515625">
        <ele>1679.5999755859375</ele>
        <time>2022-08-24T11:46:04.000Z</time>
      </trkpt>
      <trkpt lat="40.50273452885448932647705078125" lon="-1.6182533092796802520751953125">
        <ele>1680.199951171875</ele>
        <time>2022-08-24T11:46:11.000Z</time>
      </trkpt>
      <trkpt lat="40.50300844945013523101806640625" lon="-1.61831290461122989654541015625">
        <ele>1680.199951171875</ele>
        <time>2022-08-24T11:46:17.000Z</time>
      </trkpt>
      <trkpt lat="40.5032029934227466583251953125" lon="-1.6183250583708286285400390625">
        <ele>1679.800048828125</ele>
        <time>2022-08-24T11:46:23.000Z</time>
      </trkpt>
      <trkpt lat="40.50341941416263580322265625" lon="-1.618347354233264923095703125">
        <ele>1679.800048828125</ele>
        <time>2022-08-24T11:46:30.000Z</time>
      </trkpt>
      <trkpt lat="40.503530390560626983642578125" lon="-1.61834207363426685333251953125">
        <ele>1680.4000244140625</ele>
        <time>2022-08-24T11:46:33.000Z</time>
      </trkpt>
      <trkpt lat="40.50364647991955280303955078125" lon="-1.61834157072007656097412109375">
        <ele>1681.199951171875</ele>
        <time>2022-08-24T11:46:36.000Z</time>
      </trkpt>
      <trkpt lat="40.50368905998766422271728515625" lon="-1.61834224127233028411865234375">
        <ele>1681.4000244140625</ele>
        <time>2022-08-24T11:46:37.000Z</time>
      </trkpt>
      <trkpt lat="40.5038903094828128814697265625" lon="-1.61837660707533359527587890625">
        <ele>1681.5999755859375</ele>
        <time>2022-08-24T11:46:41.000Z</time>
      </trkpt>
      <trkpt lat="40.50423941574990749359130859375" lon="-1.618444919586181640625">
        <ele>1681.5999755859375</ele>
        <time>2022-08-24T11:46:48.000Z</time>
      </trkpt>
      <trkpt lat="40.5045058764517307281494140625" lon="-1.61863745190203189849853515625">
        <ele>1681.800048828125</ele>
        <time>2022-08-24T11:46:55.000Z</time>
      </trkpt>
      <trkpt lat="40.50472942180931568145751953125" lon="-1.61883107386529445648193359375">
        <ele>1682</ele>
        <time>2022-08-24T11:47:02.000Z</time>
      </trkpt>
      <trkpt lat="40.50477736629545688629150390625" lon="-1.61887834779918193817138671875">
        <ele>1682.4000244140625</ele>
        <time>2022-08-24T11:47:04.000Z</time>
      </trkpt>
      <trkpt lat="40.50487509928643703460693359375" lon="-1.61898798309266567230224609375">
        <ele>1683.4000244140625</ele>
        <time>2022-08-24T11:47:09.000Z</time>
      </trkpt>
      <trkpt lat="40.5050401389598846435546875" lon="-1.619134582579135894775390625">
        <ele>1684.199951171875</ele>
        <time>2022-08-24T11:47:16.000Z</time>
      </trkpt>
      <trkpt lat="40.505080707371234893798828125" lon="-1.619190238416194915771484375">
        <ele>1684.4000244140625</ele>
        <time>2022-08-24T11:47:18.000Z</time>
      </trkpt>
      <trkpt lat="40.50516276620328426361083984375" lon="-1.61929442547261714935302734375">
        <ele>1685</ele>
        <time>2022-08-24T11:47:22.000Z</time>
      </trkpt>
      <trkpt lat="40.50534917972981929779052734375" lon="-1.6194494068622589111328125">
        <ele>1685.199951171875</ele>
        <time>2022-08-24T11:47:28.000Z</time>
      </trkpt>
      <trkpt lat="40.505396537482738494873046875" lon="-1.61951855756342411041259765625">
        <ele>1685.4000244140625</ele>
        <time>2022-08-24T11:47:30.000Z</time>
      </trkpt>
      <trkpt lat="40.5054805241525173187255859375" lon="-1.61964478902518749237060546875">
        <ele>1685.5999755859375</ele>
        <time>2022-08-24T11:47:34.000Z</time>
      </trkpt>
      <trkpt lat="40.5056543648242950439453125" lon="-1.61986154504120349884033203125">
        <ele>1685.5999755859375</ele>
        <time>2022-08-24T11:47:41.000Z</time>
      </trkpt>
      <trkpt lat="40.5058662593364715576171875" lon="-1.62010964937508106231689453125">
        <ele>1685.800048828125</ele>
        <time>2022-08-24T11:47:48.000Z</time>
      </trkpt>
      <trkpt lat="40.50610925070941448211669921875" lon="-1.6203829832375049591064453125">
        <ele>1685.199951171875</ele>
        <time>2022-08-24T11:47:55.000Z</time>
      </trkpt>
      <trkpt lat="40.50617697648704051971435546875" lon="-1.62048063240945339202880859375">
        <ele>1685.199951171875</ele>
        <time>2022-08-24T11:47:57.000Z</time>
      </trkpt>
      <trkpt lat="40.50629868172109127044677734375" lon="-1.6206709854304790496826171875">
        <ele>1684.800048828125</ele>
        <time>2022-08-24T11:48:01.000Z</time>
      </trkpt>
      <trkpt lat="40.50649322569370269775390625" lon="-1.62109133787453174591064453125">
        <ele>1684.4000244140625</ele>
        <time>2022-08-24T11:48:09.000Z</time>
      </trkpt>
      <trkpt lat="40.5065540783107280731201171875" lon="-1.62123952992260456085205078125">
        <ele>1684</ele>
        <time>2022-08-24T11:48:12.000Z</time>
      </trkpt>
      <trkpt lat="40.50662406720221042633056640625" lon="-1.62142912857234477996826171875">
        <ele>1683.800048828125</ele>
        <time>2022-08-24T11:48:16.000Z</time>
      </trkpt>
      <trkpt lat="40.50673487596213817596435546875" lon="-1.62181888706982135772705078125">
        <ele>1683.5999755859375</ele>
        <time>2022-08-24T11:48:22.000Z</time>
      </trkpt>
      <trkpt lat="40.5067808926105499267578125" lon="-1.621997170150279998779296875">
        <ele>1683</ele>
        <time>2022-08-24T11:48:24.000Z</time>
      </trkpt>
      <trkpt lat="40.50685792230069637298583984375" lon="-1.62229120731353759765625">
        <ele>1682.199951171875</ele>
        <time>2022-08-24T11:48:27.000Z</time>
      </trkpt>
      <trkpt lat="40.506911985576152801513671875" lon="-1.62249379791319370269775390625">
        <ele>1681.4000244140625</ele>
        <time>2022-08-24T11:48:29.000Z</time>
      </trkpt>
      <trkpt lat="40.506981723010540008544921875" lon="-1.622680127620697021484375">
        <ele>1680.800048828125</ele>
        <time>2022-08-24T11:48:31.000Z</time>
      </trkpt>
      <trkpt lat="40.5070231296122074127197265625" lon="-1.622754223644733428955078125">
        <ele>1680.4000244140625</ele>
        <time>2022-08-24T11:48:32.000Z</time>
      </trkpt>
      <trkpt lat="40.5070640332996845245361328125" lon="-1.62281415425240993499755859375">
        <ele>1680</ele>
        <time>2022-08-24T11:48:33.000Z</time>
      </trkpt>
      <trkpt lat="40.507150702178478240966796875" lon="-1.622909791767597198486328125">
        <ele>1679.800048828125</ele>
        <time>2022-08-24T11:48:35.000Z</time>
      </trkpt>
      <trkpt lat="40.50718682818114757537841796875" lon="-1.62294273264706134796142578125">
        <ele>1679.800048828125</ele>
        <time>2022-08-24T11:48:36.000Z</time>
      </trkpt>
      <trkpt lat="40.5072561465203762054443359375" lon="-1.622996628284454345703125">
        <ele>1679.5999755859375</ele>
        <time>2022-08-24T11:48:38.000Z</time>
      </trkpt>
      <trkpt lat="40.507376007735729217529296875" lon="-1.62309980951249599456787109375">
        <ele>1679.5999755859375</ele>
        <time>2022-08-24T11:48:41.000Z</time>
      </trkpt>
      <trkpt lat="40.507491342723369598388671875" lon="-1.62321723997592926025390625">
        <ele>1680.4000244140625</ele>
        <time>2022-08-24T11:48:44.000Z</time>
      </trkpt>
      <trkpt lat="40.50756434909999370574951171875" lon="-1.6233008913695812225341796875">
        <ele>1681.199951171875</ele>
        <time>2022-08-24T11:48:46.000Z</time>
      </trkpt>
      <trkpt lat="40.50763408653438091278076171875" lon="-1.62339770235121250152587890625">
        <ele>1682.199951171875</ele>
        <time>2022-08-24T11:48:48.000Z</time>
      </trkpt>
      <trkpt lat="40.50766141153872013092041015625" lon="-1.62344799377024173736572265625">
        <ele>1682.5999755859375</ele>
        <time>2022-08-24T11:48:49.000Z</time>
      </trkpt>
      <trkpt lat="40.507782362401485443115234375" lon="-1.62372275255620479583740234375">
        <ele>1683</ele>
        <time>2022-08-24T11:48:55.000Z</time>
      </trkpt>
      <trkpt lat="40.5078401975333690643310546875" lon="-1.62387982942163944244384765625">
        <ele>1683</ele>
        <time>2022-08-24T11:48:58.000Z</time>
      </trkpt>
      <trkpt lat="40.507912449538707733154296875" lon="-1.624046377837657928466796875">
        <ele>1682.800048828125</ele>
        <time>2022-08-24T11:49:01.000Z</time>
      </trkpt>
      <trkpt lat="40.50800557248294353485107421875" lon="-1.62436849437654018402099609375">
        <ele>1682.5999755859375</ele>
        <time>2022-08-24T11:49:07.000Z</time>
      </trkpt>
      <trkpt lat="40.50802552141249179840087890625" lon="-1.62448097951710224151611328125">
        <ele>1682.5999755859375</ele>
        <time>2022-08-24T11:49:09.000Z</time>
      </trkpt>
      <trkpt lat="40.50807916559278964996337890625" lon="-1.6247083805501461029052734375">
        <ele>1682.4000244140625</ele>
        <time>2022-08-24T11:49:13.000Z</time>
      </trkpt>
      <trkpt lat="40.50822727382183074951171875" lon="-1.625164188444614410400390625">
        <ele>1682.199951171875</ele>
        <time>2022-08-24T11:49:20.000Z</time>
      </trkpt>
      <trkpt lat="40.50832307897508144378662109375" lon="-1.6253712214529514312744140625">
        <ele>1682.4000244140625</ele>
        <time>2022-08-24T11:49:23.000Z</time>
      </trkpt>
      <trkpt lat="40.50837119109928607940673828125" lon="-1.62543810904026031494140625">
        <ele>1682.4000244140625</ele>
        <time>2022-08-24T11:49:24.000Z</time>
      </trkpt>
      <trkpt lat="40.50853162072598934173583984375" lon="-1.625638268887996673583984375">
        <ele>1681.199951171875</ele>
        <time>2022-08-24T11:49:27.000Z</time>
      </trkpt>
      <trkpt lat="40.5086807347834110260009765625" lon="-1.62583365105092525482177734375">
        <ele>1680.199951171875</ele>
        <time>2022-08-24T11:49:30.000Z</time>
      </trkpt>
      <trkpt lat="40.5087337084114551544189453125" lon="-1.62589131854474544525146484375">
        <ele>1680</ele>
        <time>2022-08-24T11:49:31.000Z</time>
      </trkpt>
      <trkpt lat="40.50889271311461925506591796875" lon="-1.62606214173138141632080078125">
        <ele>1679.199951171875</ele>
        <time>2022-08-24T11:49:34.000Z</time>
      </trkpt>
      <trkpt lat="40.50909823738038539886474609375" lon="-1.626244448125362396240234375">
        <ele>1678.4000244140625</ele>
        <time>2022-08-24T11:49:38.000Z</time>
      </trkpt>
      <trkpt lat="40.5092822201550006866455078125" lon="-1.6263871081173419952392578125">
        <ele>1678.199951171875</ele>
        <time>2022-08-24T11:49:43.000Z</time>
      </trkpt>
      <trkpt lat="40.50946511328220367431640625" lon="-1.62652063183486461639404296875">
        <ele>1679</ele>
        <time>2022-08-24T11:49:50.000Z</time>
      </trkpt>
      <trkpt lat="40.50959344021975994110107421875" lon="-1.6265983320772647857666015625">
        <ele>1680.4000244140625</ele>
        <time>2022-08-24T11:49:56.000Z</time>
      </trkpt>
      <trkpt lat="40.50961196422576904296875" lon="-1.62661266513168811798095703125">
        <ele>1680.5999755859375</ele>
        <time>2022-08-24T11:49:57.000Z</time>
      </trkpt>
      <trkpt lat="40.50969972275197505950927734375" lon="-1.62669899873435497283935546875">
        <ele>1681.4000244140625</ele>
        <time>2022-08-24T11:50:02.000Z</time>
      </trkpt>
      <trkpt lat="40.50977759063243865966796875" lon="-1.62675909698009490966796875">
        <ele>1682.4000244140625</ele>
        <time>2022-08-24T11:50:06.000Z</time>
      </trkpt>
      <trkpt lat="40.509798042476177215576171875" lon="-1.62676856853067874908447265625">
        <ele>1682.5999755859375</ele>
        <time>2022-08-24T11:50:07.000Z</time>
      </trkpt>
      <trkpt lat="40.50990625284612178802490234375" lon="-1.62680226378142833709716796875">
        <ele>1683.5999755859375</ele>
        <time>2022-08-24T11:50:13.000Z</time>
      </trkpt>
      <trkpt lat="40.51000381819903850555419921875" lon="-1.62681617774069309234619140625">
        <ele>1684.5999755859375</ele>
        <time>2022-08-24T11:50:19.000Z</time>
      </trkpt>
      <trkpt lat="40.510039441287517547607421875" lon="-1.62681366316974163055419921875">
        <ele>1685.199951171875</ele>
        <time>2022-08-24T11:50:21.000Z</time>
      </trkpt>
      <trkpt lat="40.510095097124576568603515625" lon="-1.626805029809474945068359375">
        <ele>1685.800048828125</ele>
        <time>2022-08-24T11:50:24.000Z</time>
      </trkpt>
      <trkpt lat="40.51016575656831264495849609375" lon="-1.626794971525669097900390625">
        <ele>1686.199951171875</ele>
        <time>2022-08-24T11:50:28.000Z</time>
      </trkpt>
      <trkpt lat="40.51022258587181568145751953125" lon="-1.6267927922308444976806640625">
        <ele>1687</ele>
        <time>2022-08-24T11:50:31.000Z</time>
      </trkpt>
      <trkpt lat="40.5102903954684734344482421875" lon="-1.6267927922308444976806640625">
        <ele>1687.4000244140625</ele>
        <time>2022-08-24T11:50:35.000Z</time>
      </trkpt>
      <trkpt lat="40.5104791559278964996337890625" lon="-1.6268135793507099151611328125">
        <ele>1687.800048828125</ele>
        <time>2022-08-24T11:50:43.000Z</time>
      </trkpt>
      <trkpt lat="40.51050639711320400238037109375" lon="-1.626817770302295684814453125">
        <ele>1688</ele>
        <time>2022-08-24T11:50:44.000Z</time>
      </trkpt>
      <trkpt lat="40.5106969177722930908203125" lon="-1.62682841531932353973388671875">
        <ele>1689</ele>
        <time>2022-08-24T11:50:50.000Z</time>
      </trkpt>
      <trkpt lat="40.51072851754724979400634765625" lon="-1.62682950496673583984375">
        <ele>1689.199951171875</ele>
        <time>2022-08-24T11:50:51.000Z</time>
      </trkpt>
      <trkpt lat="40.51098668016493320465087890625" lon="-1.62680008448660373687744140625">
        <ele>1689.800048828125</ele>
        <time>2022-08-24T11:50:59.000Z</time>
      </trkpt>
      <trkpt lat="40.5111597664654254913330078125" lon="-1.62667536176741123199462890625">
        <ele>1690</ele>
        <time>2022-08-24T11:51:05.000Z</time>
      </trkpt>
      <trkpt lat="40.511197485029697418212890625" lon="-1.62662498652935028076171875">
        <ele>1690.199951171875</ele>
        <time>2022-08-24T11:51:07.000Z</time>
      </trkpt>
      <trkpt lat="40.5112529732286930084228515625" lon="-1.62652976810932159423828125">
        <ele>1690.5999755859375</ele>
        <time>2022-08-24T11:51:11.000Z</time>
      </trkpt>
      <trkpt lat="40.5113089643418788909912109375" lon="-1.626423485577106475830078125">
        <ele>1691.199951171875</ele>
        <time>2022-08-24T11:51:15.000Z</time>
      </trkpt>
      <trkpt lat="40.51138716749846935272216796875" lon="-1.62628040648996829986572265625">
        <ele>1692.4000244140625</ele>
        <time>2022-08-24T11:51:20.000Z</time>
      </trkpt>
      <trkpt lat="40.5114792846143245697021484375" lon="-1.6261698491871356964111328125">
        <ele>1693.5999755859375</ele>
        <time>2022-08-24T11:51:25.000Z</time>
      </trkpt>
      <trkpt lat="40.51152597181499004364013671875" lon="-1.62611276842653751373291015625">
        <ele>1694.199951171875</ele>
        <time>2022-08-24T11:51:28.000Z</time>
      </trkpt>
      <trkpt lat="40.5115793645381927490234375" lon="-1.62605912424623966217041015625">
        <ele>1694.5999755859375</ele>
        <time>2022-08-24T11:51:31.000Z</time>
      </trkpt>
      <trkpt lat="40.511690676212310791015625" lon="-1.6259606368839740753173828125">
        <ele>1695.199951171875</ele>
        <time>2022-08-24T11:51:37.000Z</time>
      </trkpt>
      <trkpt lat="40.511733256280422210693359375" lon="-1.62593406625092029571533203125">
        <ele>1695.5999755859375</ele>
        <time>2022-08-24T11:51:39.000Z</time>
      </trkpt>
      <trkpt lat="40.51188119687139987945556640625" lon="-1.625842116773128509521484375">
        <ele>1697</ele>
        <time>2022-08-24T11:51:46.000Z</time>
      </trkpt>
      <trkpt lat="40.512052439153194427490234375" lon="-1.62577196024358272552490234375">
        <ele>1698</ele>
        <time>2022-08-24T11:51:54.000Z</time>
      </trkpt>
      <trkpt lat="40.51224648021161556243896484375" lon="-1.62570037879049777984619140625">
        <ele>1699</ele>
        <time>2022-08-24T11:52:03.000Z</time>
      </trkpt>
      <trkpt lat="40.5122660100460052490234375" lon="-1.62569266743957996368408203125">
        <ele>1699</ele>
        <time>2022-08-24T11:52:04.000Z</time>
      </trkpt>
      <trkpt lat="40.51240372471511363983154296875" lon="-1.62563793361186981201171875">
        <ele>1699.800048828125</ele>
        <time>2022-08-24T11:52:10.000Z</time>
      </trkpt>
      <trkpt lat="40.51250229589641094207763671875" lon="-1.6256023943424224853515625">
        <ele>1700</ele>
        <time>2022-08-24T11:52:14.000Z</time>
      </trkpt>
      <trkpt lat="40.51262685097754001617431640625" lon="-1.62555386312305927276611328125">
        <ele>1700.5999755859375</ele>
        <time>2022-08-24T11:52:19.000Z</time>
      </trkpt>
      <trkpt lat="40.5128381587564945220947265625" lon="-1.62546635605394840240478515625">
        <ele>1701</ele>
        <time>2022-08-24T11:52:27.000Z</time>
      </trkpt>
      <trkpt lat="40.51286372356116771697998046875" lon="-1.6254548728466033935546875">
        <ele>1701.199951171875</ele>
        <time>2022-08-24T11:52:28.000Z</time>
      </trkpt>
      <trkpt lat="40.51310612820088863372802734375" lon="-1.625364013016223907470703125">
        <ele>1701.5999755859375</ele>
        <time>2022-08-24T11:52:37.000Z</time>
      </trkpt>
      <trkpt lat="40.51324275322258472442626953125" lon="-1.62531883455812931060791015625">
        <ele>1702.4000244140625</ele>
        <time>2022-08-24T11:52:42.000Z</time>
      </trkpt>
      <trkpt lat="40.51339186728000640869140625" lon="-1.625278852880001068115234375">
        <ele>1702.800048828125</ele>
        <time>2022-08-24T11:52:47.000Z</time>
      </trkpt>
      <trkpt lat="40.5136485211551189422607421875" lon="-1.6252133063971996307373046875">
        <ele>1703</ele>
        <time>2022-08-24T11:52:55.000Z</time>
      </trkpt>
      <trkpt lat="40.513746254146099090576171875" lon="-1.6251962073147296905517578125">
        <ele>1703.4000244140625</ele>
        <time>2022-08-24T11:52:58.000Z</time>
      </trkpt>
      <trkpt lat="40.51393593661487102508544921875" lon="-1.62518120370805263519287109375">
        <ele>1703.800048828125</ele>
        <time>2022-08-24T11:53:04.000Z</time>
      </trkpt>
      <trkpt lat="40.514098294079303741455078125" lon="-1.62516963668167591094970703125">
        <ele>1704.5999755859375</ele>
        <time>2022-08-24T11:53:09.000Z</time>
      </trkpt>
      <trkpt lat="40.51412922330200672149658203125" lon="-1.62516661919653415679931640625">
        <ele>1704.5999755859375</ele>
        <time>2022-08-24T11:53:10.000Z</time>
      </trkpt>
      <trkpt lat="40.5142255313694477081298828125" lon="-1.6251576505601406097412109375">
        <ele>1705</ele>
        <time>2022-08-24T11:53:13.000Z</time>
      </trkpt>
      <trkpt lat="40.51452183164656162261962890625" lon="-1.62513778544962406158447265625">
        <ele>1705</ele>
        <time>2022-08-24T11:53:20.000Z</time>
      </trkpt>
      <trkpt lat="40.5149495601654052734375" lon="-1.62509369663894176483154296875">
        <ele>1705</ele>
        <time>2022-08-24T11:53:30.000Z</time>
      </trkpt>
      <trkpt lat="40.51536588929593563079833984375" lon="-1.62508078850805759429931640625">
        <ele>1705</ele>
        <time>2022-08-24T11:53:37.000Z</time>
      </trkpt>
      <trkpt lat="40.5157872475683689117431640625" lon="-1.625158153474330902099609375">
        <ele>1702.800048828125</ele>
        <time>2022-08-24T11:53:42.000Z</time>
      </trkpt>
      <trkpt lat="40.51596821285784244537353515625" lon="-1.6252293996512889862060546875">
        <ele>1701.4000244140625</ele>
        <time>2022-08-24T11:53:44.000Z</time>
      </trkpt>
      <trkpt lat="40.5161587335169315338134765625" lon="-1.6252917610108852386474609375">
        <ele>1700</ele>
        <time>2022-08-24T11:53:46.000Z</time>
      </trkpt>
      <trkpt lat="40.51643558777868747711181640625" lon="-1.62530089728534221649169921875">
        <ele>1698.800048828125</ele>
        <time>2022-08-24T11:53:48.000Z</time>
      </trkpt>
      <trkpt lat="40.5165194906294345855712890625" lon="-1.62527491338551044464111328125">
        <ele>1697.4000244140625</ele>
        <time>2022-08-24T11:53:50.000Z</time>
      </trkpt>
      <trkpt lat="40.5166059918701648712158203125" lon="-1.62522713653743267059326171875">
        <ele>1696.800048828125</ele>
        <time>2022-08-24T11:53:51.000Z</time>
      </trkpt>
      <trkpt lat="40.516695342957973480224609375" lon="-1.62514532916247844696044921875">
        <ele>1696.199951171875</ele>
        <time>2022-08-24T11:53:52.000Z</time>
      </trkpt>
      <trkpt lat="40.51685300655663013458251953125" lon="-1.6249256394803524017333984375">
        <ele>1695</ele>
        <time>2022-08-24T11:53:54.000Z</time>
      </trkpt>
      <trkpt lat="40.51693146117031574249267578125" lon="-1.62480921484529972076416015625">
        <ele>1694.199951171875</ele>
        <time>2022-08-24T11:53:55.000Z</time>
      </trkpt>
      <trkpt lat="40.5170203931629657745361328125" lon="-1.62469672970473766326904296875">
        <ele>1693.800048828125</ele>
        <time>2022-08-24T11:53:56.000Z</time>
      </trkpt>
      <trkpt lat="40.51720462739467620849609375" lon="-1.62452808581292629241943359375">
        <ele>1691.800048828125</ele>
        <time>2022-08-24T11:53:58.000Z</time>
      </trkpt>
      <trkpt lat="40.517321638762950897216796875" lon="-1.6244599409401416778564453125">
        <ele>1690.800048828125</ele>
        <time>2022-08-24T11:53:59.000Z</time>
      </trkpt>
      <trkpt lat="40.517559349536895751953125" lon="-1.62439070641994476318359375">
        <ele>1689</ele>
        <time>2022-08-24T11:54:01.000Z</time>
      </trkpt>
      <trkpt lat="40.51767845638096332550048828125" lon="-1.624391041696071624755859375">
        <ele>1688</ele>
        <time>2022-08-24T11:54:02.000Z</time>
      </trkpt>
      <trkpt lat="40.5178009159862995147705078125" lon="-1.62440956570208072662353515625">
        <ele>1686.4000244140625</ele>
        <time>2022-08-24T11:54:03.000Z</time>
      </trkpt>
      <trkpt lat="40.51792270503938198089599609375" lon="-1.62444644607603549957275390625">
        <ele>1685.4000244140625</ele>
        <time>2022-08-24T11:54:04.000Z</time>
      </trkpt>
      <trkpt lat="40.518047511577606201171875" lon="-1.6244954802095890045166015625">
        <ele>1684.199951171875</ele>
        <time>2022-08-24T11:54:05.000Z</time>
      </trkpt>
      <trkpt lat="40.51817064173519611358642578125" lon="-1.624549292027950286865234375">
        <ele>1683.199951171875</ele>
        <time>2022-08-24T11:54:06.000Z</time>
      </trkpt>
      <trkpt lat="40.51842327229678630828857421875" lon="-1.62465968169271945953369140625">
        <ele>1682.199951171875</ele>
        <time>2022-08-24T11:54:08.000Z</time>
      </trkpt>
      <trkpt lat="40.51854841411113739013671875" lon="-1.624711565673351287841796875">
        <ele>1681.5999755859375</ele>
        <time>2022-08-24T11:54:09.000Z</time>
      </trkpt>
      <trkpt lat="40.51877640187740325927734375" lon="-1.62479043938219547271728515625">
        <ele>1680.199951171875</ele>
        <time>2022-08-24T11:54:10.000Z</time>
      </trkpt>
      <trkpt lat="40.51877640187740325927734375" lon="-1.62479043938219547271728515625">
        <ele>1678.800048828125</ele>
        <time>2022-08-24T11:54:11.000Z</time>
      </trkpt>
      <trkpt lat="40.518887042999267578125" lon="-1.624808125197887420654296875">
        <ele>1677.5999755859375</ele>
        <time>2022-08-24T11:54:12.000Z</time>
      </trkpt>
      <trkpt lat="40.5189995281398296356201171875" lon="-1.624815501272678375244140625">
        <ele>1676.5999755859375</ele>
        <time>2022-08-24T11:54:13.000Z</time>
      </trkpt>
      <trkpt lat="40.5192218162119388580322265625" lon="-1.62479094229638576507568359375">
        <ele>1675</ele>
        <time>2022-08-24T11:54:15.000Z</time>
      </trkpt>
      <trkpt lat="40.5193354748189449310302734375" lon="-1.62475951015949249267578125">
        <ele>1673.4000244140625</ele>
        <time>2022-08-24T11:54:16.000Z</time>
      </trkpt>
      <trkpt lat="40.5194534920156002044677734375" lon="-1.62470863200724124908447265625">
        <ele>1672</ele>
        <time>2022-08-24T11:54:17.000Z</time>
      </trkpt>
      <trkpt lat="40.51956639625132083892822265625" lon="-1.62464962340891361236572265625">
        <ele>1670.4000244140625</ele>
        <time>2022-08-24T11:54:18.000Z</time>
      </trkpt>
      <trkpt lat="40.51968022249639034271240234375" lon="-1.6245896928012371063232421875">
        <ele>1668.800048828125</ele>
        <time>2022-08-24T11:54:19.000Z</time>
      </trkpt>
      <trkpt lat="40.5197894386947154998779296875" lon="-1.6245276667177677154541015625">
        <ele>1667.800048828125</ele>
        <time>2022-08-24T11:54:20.000Z</time>
      </trkpt>
      <trkpt lat="40.51989463157951831817626953125" lon="-1.62445935420691967010498046875">
        <ele>1666.800048828125</ele>
        <time>2022-08-24T11:54:21.000Z</time>
      </trkpt>
      <trkpt lat="40.51999672316014766693115234375" lon="-1.62439414300024509429931640625">
        <ele>1665.199951171875</ele>
        <time>2022-08-24T11:54:22.000Z</time>
      </trkpt>
      <trkpt lat="40.52020694129168987274169921875" lon="-1.62425098009407520294189453125">
        <ele>1664</ele>
        <time>2022-08-24T11:54:23.000Z</time>
      </trkpt>
      <trkpt lat="40.52020694129168987274169921875" lon="-1.62425098009407520294189453125">
        <ele>1663.199951171875</ele>
        <time>2022-08-24T11:54:24.000Z</time>
      </trkpt>
      <trkpt lat="40.52030584774911403656005859375" lon="-1.6241727769374847412109375">
        <ele>1662.199951171875</ele>
        <time>2022-08-24T11:54:25.000Z</time>
      </trkpt>
      <trkpt lat="40.5203962884843349456787109375" lon="-1.62408267147839069366455078125">
        <ele>1661.4000244140625</ele>
        <time>2022-08-24T11:54:26.000Z</time>
      </trkpt>
      <trkpt lat="40.5204851366579532623291015625" lon="-1.6239811666309833526611328125">
        <ele>1661</ele>
        <time>2022-08-24T11:54:27.000Z</time>
      </trkpt>
      <trkpt lat="40.5205620825290679931640625" lon="-1.62386742420494556427001953125">
        <ele>1660.5999755859375</ele>
        <time>2022-08-24T11:54:28.000Z</time>
      </trkpt>
      <trkpt lat="40.52063492126762866973876953125" lon="-1.62374806590378284454345703125">
        <ele>1659.800048828125</ele>
        <time>2022-08-24T11:54:29.000Z</time>
      </trkpt>
      <trkpt lat="40.5207516811788082122802734375" lon="-1.6234807670116424560546875">
        <ele>1658.5999755859375</ele>
        <time>2022-08-24T11:54:31.000Z</time>
      </trkpt>
      <trkpt lat="40.52085100673139095306396484375" lon="-1.623198799788951873779296875">
        <ele>1656.4000244140625</ele>
        <time>2022-08-24T11:54:33.000Z</time>
      </trkpt>
      <trkpt lat="40.52097388543188571929931640625" lon="-1.6229335963726043701171875">
        <ele>1655</ele>
        <time>2022-08-24T11:54:35.000Z</time>
      </trkpt>
      <trkpt lat="40.5210577882826328277587890625" lon="-1.6228316724300384521484375">
        <ele>1653.800048828125</ele>
        <time>2022-08-24T11:54:36.000Z</time>
      </trkpt>
      <trkpt lat="40.5211473070085048675537109375" lon="-1.622747518122196197509765625">
        <ele>1652.800048828125</ele>
        <time>2022-08-24T11:54:37.000Z</time>
      </trkpt>
      <trkpt lat="40.5212472192943096160888671875" lon="-1.6226752661168575286865234375">
        <ele>1652</ele>
        <time>2022-08-24T11:54:38.000Z</time>
      </trkpt>
      <trkpt lat="40.52135459147393703460693359375" lon="-1.622610390186309814453125">
        <ele>1651.199951171875</ele>
        <time>2022-08-24T11:54:39.000Z</time>
      </trkpt>
      <trkpt lat="40.5215965770184993743896484375" lon="-1.62250318564474582672119140625">
        <ele>1649.5999755859375</ele>
        <time>2022-08-24T11:54:41.000Z</time>
      </trkpt>
      <trkpt lat="40.52185096777975559234619140625" lon="-1.6224293410778045654296875">
        <ele>1648.800048828125</ele>
        <time>2022-08-24T11:54:42.000Z</time>
      </trkpt>
      <trkpt lat="40.52185096777975559234619140625" lon="-1.6224293410778045654296875">
        <ele>1648.4000244140625</ele>
        <time>2022-08-24T11:54:43.000Z</time>
      </trkpt>
      <trkpt lat="40.5220989882946014404296875" lon="-1.622355245053768157958984375">
        <ele>1647.4000244140625</ele>
        <time>2022-08-24T11:54:45.000Z</time>
      </trkpt>
      <trkpt lat="40.522218681871891021728515625" lon="-1.62230855785310268402099609375">
        <ele>1646.199951171875</ele>
        <time>2022-08-24T11:54:46.000Z</time>
      </trkpt>
      <trkpt lat="40.522458069026470184326171875" lon="-1.622184254229068756103515625">
        <ele>1644.5999755859375</ele>
        <time>2022-08-24T11:54:48.000Z</time>
      </trkpt>
      <trkpt lat="40.52268681116402149200439453125" lon="-1.62207671441137790679931640625">
        <ele>1643.4000244140625</ele>
        <time>2022-08-24T11:54:49.000Z</time>
      </trkpt>
      <trkpt lat="40.52268681116402149200439453125" lon="-1.62207671441137790679931640625">
        <ele>1642</ele>
        <time>2022-08-24T11:54:50.000Z</time>
      </trkpt>
      <trkpt lat="40.5227935127913951873779296875" lon="-1.62204771302640438079833984375">
        <ele>1640.5999755859375</ele>
        <time>2022-08-24T11:54:51.000Z</time>
      </trkpt>
      <trkpt lat="40.52289116196334362030029296875" lon="-1.6220405884087085723876953125">
        <ele>1639.199951171875</ele>
        <time>2022-08-24T11:54:52.000Z</time>
      </trkpt>
      <trkpt lat="40.5230645835399627685546875" lon="-1.6221141815185546875">
        <ele>1637.4000244140625</ele>
        <time>2022-08-24T11:54:53.000Z</time>
      </trkpt>
      <trkpt lat="40.523149073123931884765625" lon="-1.62218249402940273284912109375">
        <ele>1635.4000244140625</ele>
        <time>2022-08-24T11:54:55.000Z</time>
      </trkpt>
      <trkpt lat="40.52323817275464534759521484375" lon="-1.62225256673991680145263671875">
        <ele>1634</ele>
        <time>2022-08-24T11:54:56.000Z</time>
      </trkpt>
      <trkpt lat="40.52333607338368892669677734375" lon="-1.6223086416721343994140625">
        <ele>1633</ele>
        <time>2022-08-24T11:54:57.000Z</time>
      </trkpt>
      <trkpt lat="40.52343883551657199859619140625" lon="-1.62234560586512088775634765625">
        <ele>1631.800048828125</ele>
        <time>2022-08-24T11:54:58.000Z</time>
      </trkpt>
      <trkpt lat="40.52354528568685054779052734375" lon="-1.62237879820168018341064453125">
        <ele>1630.5999755859375</ele>
        <time>2022-08-24T11:54:59.000Z</time>
      </trkpt>
      <trkpt lat="40.52365793846547603607177734375" lon="-1.62241484038531780242919921875">
        <ele>1629.5999755859375</ele>
        <time>2022-08-24T11:55:00.000Z</time>
      </trkpt>
      <trkpt lat="40.52377075888216495513916015625" lon="-1.62246177904307842254638671875">
        <ele>1628.4000244140625</ele>
        <time>2022-08-24T11:55:01.000Z</time>
      </trkpt>
      <trkpt lat="40.5238772928714752197265625" lon="-1.62252481095492839813232421875">
        <ele>1626.800048828125</ele>
        <time>2022-08-24T11:55:02.000Z</time>
      </trkpt>
      <trkpt lat="40.524055995047092437744140625" lon="-1.62270954810082912445068359375">
        <ele>1624.5999755859375</ele>
        <time>2022-08-24T11:55:04.000Z</time>
      </trkpt>
      <trkpt lat="40.52412933669984340667724609375" lon="-1.62282320670783519744873046875">
        <ele>1623.5999755859375</ele>
        <time>2022-08-24T11:55:05.000Z</time>
      </trkpt>
      <trkpt lat="40.52419035695493221282958984375" lon="-1.62293921224772930145263671875">
        <ele>1622.5999755859375</ele>
        <time>2022-08-24T11:55:06.000Z</time>
      </trkpt>
      <trkpt lat="40.52424500696361064910888671875" lon="-1.62304180674254894256591796875">
        <ele>1621.800048828125</ele>
        <time>2022-08-24T11:55:07.000Z</time>
      </trkpt>
      <trkpt lat="40.52430569194257259368896484375" lon="-1.623121686279773712158203125">
        <ele>1621</ele>
        <time>2022-08-24T11:55:08.000Z</time>
      </trkpt>
      <trkpt lat="40.52445203997194766998291015625" lon="-1.6231865622103214263916015625">
        <ele>1620</ele>
        <time>2022-08-24T11:55:10.000Z</time>
      </trkpt>
      <trkpt lat="40.52467617206275463104248046875" lon="-1.6231567226350307464599609375">
        <ele>1619</ele>
        <time>2022-08-24T11:55:12.000Z</time>
      </trkpt>
      <trkpt lat="40.52467617206275463104248046875" lon="-1.6231567226350307464599609375">
        <ele>1617.800048828125</ele>
        <time>2022-08-24T11:55:13.000Z</time>
      </trkpt>
      <trkpt lat="40.5247548781335353851318359375" lon="-1.6231496818363666534423828125">
        <ele>1616.5999755859375</ele>
        <time>2022-08-24T11:55:14.000Z</time>
      </trkpt>
      <trkpt lat="40.52483324892818927764892578125" lon="-1.62315697409212589263916015625">
        <ele>1615.4000244140625</ele>
        <time>2022-08-24T11:55:15.000Z</time>
      </trkpt>
      <trkpt lat="40.52506291307508945465087890625" lon="-1.62323442287743091583251953125">
        <ele>1614</ele>
        <time>2022-08-24T11:55:17.000Z</time>
      </trkpt>
      <trkpt lat="40.52506291307508945465087890625" lon="-1.62323442287743091583251953125">
        <ele>1613.800048828125</ele>
        <time>2022-08-24T11:55:18.000Z</time>
      </trkpt>
      <trkpt lat="40.52514187060296535491943359375" lon="-1.62324079312384128570556640625">
        <ele>1613.5999755859375</ele>
        <time>2022-08-24T11:55:19.000Z</time>
      </trkpt>
      <trkpt lat="40.52528209984302520751953125" lon="-1.62318899296224117279052734375">
        <ele>1613.199951171875</ele>
        <time>2022-08-24T11:55:21.000Z</time>
      </trkpt>
      <trkpt lat="40.5253959260880947113037109375" lon="-1.623093523085117340087890625">
        <ele>1613.199951171875</ele>
        <time>2022-08-24T11:55:23.000Z</time>
      </trkpt>
      <trkpt lat="40.52550866268575191497802734375" lon="-1.6230195946991443634033203125">
        <ele>1613</ele>
        <time>2022-08-24T11:55:25.000Z</time>
      </trkpt>
      <trkpt lat="40.52562735043466091156005859375" lon="-1.62297718226909637451171875">
        <ele>1612.800048828125</ele>
        <time>2022-08-24T11:55:26.000Z</time>
      </trkpt>
      <trkpt lat="40.5258130095899105072021484375" lon="-1.6229609213769435882568359375">
        <ele>1612.5999755859375</ele>
        <time>2022-08-24T11:55:29.000Z</time>
      </trkpt>
      <trkpt lat="40.52594703622162342071533203125" lon="-1.62297441624104976654052734375">
        <ele>1612.5999755859375</ele>
        <time>2022-08-24T11:55:31.000Z</time>
      </trkpt>
      <trkpt lat="40.5260145105421543121337890625" lon="-1.62298665381968021392822265625">
        <ele>1612.4000244140625</ele>
        <time>2022-08-24T11:55:32.000Z</time>
      </trkpt>
      <trkpt lat="40.52614551968872547149658203125" lon="-1.62302370183169841766357421875">
        <ele>1612.4000244140625</ele>
        <time>2022-08-24T11:55:34.000Z</time>
      </trkpt>
      <trkpt lat="40.5264723300933837890625" lon="-1.62314523942768573760986328125">
        <ele>1612.199951171875</ele>
        <time>2022-08-24T11:55:39.000Z</time>
      </trkpt>
      <trkpt lat="40.52667953073978424072265625" lon="-1.6232318244874477386474609375">
        <ele>1611.800048828125</ele>
        <time>2022-08-24T11:55:43.000Z</time>
      </trkpt>
      <trkpt lat="40.526821352541446685791015625" lon="-1.6233112849295139312744140625">
        <ele>1611.5999755859375</ele>
        <time>2022-08-24T11:55:45.000Z</time>
      </trkpt>
      <trkpt lat="40.52688698284327983856201171875" lon="-1.62336585111916065216064453125">
        <ele>1611.4000244140625</ele>
        <time>2022-08-24T11:55:46.000Z</time>
      </trkpt>
      <trkpt lat="40.526989661157131195068359375" lon="-1.623522341251373291015625">
        <ele>1610.800048828125</ele>
        <time>2022-08-24T11:55:48.000Z</time>
      </trkpt>
      <trkpt lat="40.52702059037983417510986328125" lon="-1.62362317554652690887451171875">
        <ele>1610.5999755859375</ele>
        <time>2022-08-24T11:55:49.000Z</time>
      </trkpt>
      <trkpt lat="40.5270438082516193389892578125" lon="-1.62385426461696624755859375">
        <ele>1609.5999755859375</ele>
        <time>2022-08-24T11:55:51.000Z</time>
      </trkpt>
      <trkpt lat="40.5270444788038730621337890625" lon="-1.6239778138697147369384765625">
        <ele>1609</ele>
        <time>2022-08-24T11:55:52.000Z</time>
      </trkpt>
      <trkpt lat="40.5270262062549591064453125" lon="-1.62423740141093730926513671875">
        <ele>1608.199951171875</ele>
        <time>2022-08-24T11:55:54.000Z</time>
      </trkpt>
      <trkpt lat="40.52703249268233776092529296875" lon="-1.6246383078396320343017578125">
        <ele>1607.199951171875</ele>
        <time>2022-08-24T11:55:56.000Z</time>
      </trkpt>
      <trkpt lat="40.52703249268233776092529296875" lon="-1.6246383078396320343017578125">
        <ele>1606.5999755859375</ele>
        <time>2022-08-24T11:55:57.000Z</time>
      </trkpt>
      <trkpt lat="40.5271390266716480255126953125" lon="-1.6250123083591461181640625">
        <ele>1604.800048828125</ele>
        <time>2022-08-24T11:55:59.000Z</time>
      </trkpt>
      <trkpt lat="40.5271390266716480255126953125" lon="-1.6250123083591461181640625">
        <ele>1604</ele>
        <time>2022-08-24T11:56:00.000Z</time>
      </trkpt>
      <trkpt lat="40.5272059142589569091796875" lon="-1.62510107271373271942138671875">
        <ele>1603.4000244140625</ele>
        <time>2022-08-24T11:56:01.000Z</time>
      </trkpt>
      <trkpt lat="40.5273707024753093719482421875" lon="-1.6252163238823413848876953125">
        <ele>1602</ele>
        <time>2022-08-24T11:56:03.000Z</time>
      </trkpt>
      <trkpt lat="40.52755401469767093658447265625" lon="-1.625303328037261962890625">
        <ele>1600.800048828125</ele>
        <time>2022-08-24T11:56:05.000Z</time>
      </trkpt>
      <trkpt lat="40.52764244377613067626953125" lon="-1.6253609955310821533203125">
        <ele>1600</ele>
        <time>2022-08-24T11:56:06.000Z</time>
      </trkpt>
      <trkpt lat="40.527724586427211761474609375" lon="-1.62543450482189655303955078125">
        <ele>1599</ele>
        <time>2022-08-24T11:56:07.000Z</time>
      </trkpt>
      <trkpt lat="40.52788945846259593963623046875" lon="-1.62559770047664642333984375">
        <ele>1597.5999755859375</ele>
        <time>2022-08-24T11:56:09.000Z</time>
      </trkpt>
      <trkpt lat="40.528125576674938201904296875" lon="-1.6258640773594379425048828125">
        <ele>1596.5999755859375</ele>
        <time>2022-08-24T11:56:12.000Z</time>
      </trkpt>
      <trkpt lat="40.5284110642969608306884765625" lon="-1.62629046477377414703369140625">
        <ele>1595.4000244140625</ele>
        <time>2022-08-24T11:56:15.000Z</time>
      </trkpt>
      <trkpt lat="40.52856252528727054595947265625" lon="-1.626518033444881439208984375">
        <ele>1595</ele>
        <time>2022-08-24T11:56:17.000Z</time>
      </trkpt>
      <trkpt lat="40.52863829769194126129150390625" lon="-1.62663144059479236602783203125">
        <ele>1594.199951171875</ele>
        <time>2022-08-24T11:56:19.000Z</time>
      </trkpt>
      <trkpt lat="40.52889880724251270294189453125" lon="-1.6269218735396862030029296875">
        <ele>1592.800048828125</ele>
        <time>2022-08-24T11:56:21.000Z</time>
      </trkpt>
      <trkpt lat="40.52889880724251270294189453125" lon="-1.6269218735396862030029296875">
        <ele>1592.199951171875</ele>
        <time>2022-08-24T11:56:22.000Z</time>
      </trkpt>
      <trkpt lat="40.5289934389293193817138671875" lon="-1.627001501619815826416015625">
        <ele>1591.4000244140625</ele>
        <time>2022-08-24T11:56:23.000Z</time>
      </trkpt>
      <trkpt lat="40.52918882109224796295166015625" lon="-1.62714541889727115631103515625">
        <ele>1590.800048828125</ele>
        <time>2022-08-24T11:56:24.000Z</time>
      </trkpt>
      <trkpt lat="40.52918882109224796295166015625" lon="-1.62714541889727115631103515625">
        <ele>1590</ele>
        <time>2022-08-24T11:56:25.000Z</time>
      </trkpt>
      <trkpt lat="40.529395602643489837646484375" lon="-1.62728941999375820159912109375">
        <ele>1589.199951171875</ele>
        <time>2022-08-24T11:56:26.000Z</time>
      </trkpt>
      <trkpt lat="40.529395602643489837646484375" lon="-1.62728941999375820159912109375">
        <ele>1587</ele>
        <time>2022-08-24T11:56:27.000Z</time>
      </trkpt>
      <trkpt lat="40.529500208795070648193359375" lon="-1.62736100144684314727783203125">
        <ele>1585.800048828125</ele>
        <time>2022-08-24T11:56:28.000Z</time>
      </trkpt>
      <trkpt lat="40.52959333173930644989013671875" lon="-1.62742855958640575408935546875">
        <ele>1584.800048828125</ele>
        <time>2022-08-24T11:56:29.000Z</time>
      </trkpt>
      <trkpt lat="40.52981629036366939544677734375" lon="-1.6275478340685367584228515625">
        <ele>1583.199951171875</ele>
        <time>2022-08-24T11:56:31.000Z</time>
      </trkpt>
      <trkpt lat="40.52988745272159576416015625" lon="-1.62755168974399566650390625">
        <ele>1581.800048828125</ele>
        <time>2022-08-24T11:56:33.000Z</time>
      </trkpt>
      <trkpt lat="40.53002432920038700103759765625" lon="-1.62748656235635280609130859375">
        <ele>1579.800048828125</ele>
        <time>2022-08-24T11:56:35.000Z</time>
      </trkpt>
      <trkpt lat="40.53008459508419036865234375" lon="-1.6274190880358219146728515625">
        <ele>1578.199951171875</ele>
        <time>2022-08-24T11:56:36.000Z</time>
      </trkpt>
      <trkpt lat="40.5301447771489620208740234375" lon="-1.62732906639575958251953125">
        <ele>1577</ele>
        <time>2022-08-24T11:56:37.000Z</time>
      </trkpt>
      <trkpt lat="40.53019146434962749481201171875" lon="-1.6272293217480182647705078125">
        <ele>1576</ele>
        <time>2022-08-24T11:56:38.000Z</time>
      </trkpt>
      <trkpt lat="40.53023790009319782257080078125" lon="-1.62712253630161285400390625">
        <ele>1575</ele>
        <time>2022-08-24T11:56:39.000Z</time>
      </trkpt>
      <trkpt lat="40.53029053844511508941650390625" lon="-1.62701248191297054290771484375">
        <ele>1573.800048828125</ele>
        <time>2022-08-24T11:56:40.000Z</time>
      </trkpt>
      <trkpt lat="40.5304106511175632476806640625" lon="-1.62682640366256237030029296875">
        <ele>1573</ele>
        <time>2022-08-24T11:56:41.000Z</time>
      </trkpt>
      <trkpt lat="40.5304824002087116241455078125" lon="-1.626771502196788787841796875">
        <ele>1572.5999755859375</ele>
        <time>2022-08-24T11:56:42.000Z</time>
      </trkpt>
      <trkpt lat="40.53064920008182525634765625" lon="-1.62672548554837703704833984375">
        <ele>1571</ele>
        <time>2022-08-24T11:56:44.000Z</time>
      </trkpt>
      <trkpt lat="40.53064920008182525634765625" lon="-1.62672548554837703704833984375">
        <ele>1570</ele>
        <time>2022-08-24T11:56:45.000Z</time>
      </trkpt>
      <trkpt lat="40.5307392217218875885009765625" lon="-1.6267113201320171356201171875">
        <ele>1569.199951171875</ele>
        <time>2022-08-24T11:56:46.000Z</time>
      </trkpt>
      <trkpt lat="40.53082580678164958953857421875" lon="-1.62669028155505657196044921875">
        <ele>1568.5999755859375</ele>
        <time>2022-08-24T11:56:47.000Z</time>
      </trkpt>
      <trkpt lat="40.53090761415660381317138671875" lon="-1.62665574811398983001708984375">
        <ele>1567.5999755859375</ele>
        <time>2022-08-24T11:56:48.000Z</time>
      </trkpt>
      <trkpt lat="40.53104373626410961151123046875" lon="-1.62653236649930477142333984375">
        <ele>1566.4000244140625</ele>
        <time>2022-08-24T11:56:49.000Z</time>
      </trkpt>
      <trkpt lat="40.53109939210116863250732421875" lon="-1.62644184194505214691162109375">
        <ele>1565</ele>
        <time>2022-08-24T11:56:51.000Z</time>
      </trkpt>
      <trkpt lat="40.53117432631552219390869140625" lon="-1.62621703930199146270751953125">
        <ele>1564</ele>
        <time>2022-08-24T11:56:53.000Z</time>
      </trkpt>
      <trkpt lat="40.53119511343538761138916015625" lon="-1.62608426995575428009033203125">
        <ele>1563.5999755859375</ele>
        <time>2022-08-24T11:56:54.000Z</time>
      </trkpt>
      <trkpt lat="40.53121858276426792144775390625" lon="-1.6258107684552669525146484375">
        <ele>1561.800048828125</ele>
        <time>2022-08-24T11:56:55.000Z</time>
      </trkpt>
      <trkpt lat="40.53121858276426792144775390625" lon="-1.6258107684552669525146484375">
        <ele>1561</ele>
        <time>2022-08-24T11:56:56.000Z</time>
      </trkpt>
      <trkpt lat="40.53122679702937602996826171875" lon="-1.62568059749901294708251953125">
        <ele>1560.199951171875</ele>
        <time>2022-08-24T11:56:57.000Z</time>
      </trkpt>
      <trkpt lat="40.5312411300837993621826171875" lon="-1.62556341849267482757568359375">
        <ele>1559.4000244140625</ele>
        <time>2022-08-24T11:56:58.000Z</time>
      </trkpt>
      <trkpt lat="40.5312676168978214263916015625" lon="-1.62546359002590179443359375">
        <ele>1558.800048828125</ele>
        <time>2022-08-24T11:56:59.000Z</time>
      </trkpt>
      <trkpt lat="40.5313718877732753753662109375" lon="-1.625303328037261962890625">
        <ele>1557.4000244140625</ele>
        <time>2022-08-24T11:57:01.000Z</time>
      </trkpt>
      <trkpt lat="40.5315157212316989898681640625" lon="-1.6251700557768344879150390625">
        <ele>1556.800048828125</ele>
        <time>2022-08-24T11:57:02.000Z</time>
      </trkpt>
      <trkpt lat="40.5315157212316989898681640625" lon="-1.6251700557768344879150390625">
        <ele>1556.4000244140625</ele>
        <time>2022-08-24T11:57:03.000Z</time>
      </trkpt>
      <trkpt lat="40.5317822657525539398193359375" lon="-1.62495187483727931976318359375">
        <ele>1555.199951171875</ele>
        <time>2022-08-24T11:57:05.000Z</time>
      </trkpt>
      <trkpt lat="40.5318838544189929962158203125" lon="-1.62489764392375946044921875">
        <ele>1553.5999755859375</ele>
        <time>2022-08-24T11:57:07.000Z</time>
      </trkpt>
      <trkpt lat="40.5321088247001171112060546875" lon="-1.6248528845608234405517578125">
        <ele>1552.4000244140625</ele>
        <time>2022-08-24T11:57:09.000Z</time>
      </trkpt>
      <trkpt lat="40.53223161958158016204833984375" lon="-1.62486285902559757232666015625">
        <ele>1551.5999755859375</ele>
        <time>2022-08-24T11:57:10.000Z</time>
      </trkpt>
      <trkpt lat="40.532483495771884918212890625" lon="-1.62489538080990314483642578125">
        <ele>1550.4000244140625</ele>
        <time>2022-08-24T11:57:11.000Z</time>
      </trkpt>
      <trkpt lat="40.532612241804599761962890625" lon="-1.62490971386432647705078125">
        <ele>1549.199951171875</ele>
        <time>2022-08-24T11:57:12.000Z</time>
      </trkpt>
      <trkpt lat="40.532612241804599761962890625" lon="-1.62490971386432647705078125">
        <ele>1548</ele>
        <time>2022-08-24T11:57:13.000Z</time>
      </trkpt>
      <trkpt lat="40.53273939527571201324462890625" lon="-1.6249269805848598480224609375">
        <ele>1546.800048828125</ele>
        <time>2022-08-24T11:57:14.000Z</time>
      </trkpt>
      <trkpt lat="40.532865040004253387451171875" lon="-1.6249534673988819122314453125">
        <ele>1545.800048828125</ele>
        <time>2022-08-24T11:57:15.000Z</time>
      </trkpt>
      <trkpt lat="40.53311037831008434295654296875" lon="-1.62504022009670734405517578125">
        <ele>1544.5999755859375</ele>
        <time>2022-08-24T11:57:16.000Z</time>
      </trkpt>
      <trkpt lat="40.53311037831008434295654296875" lon="-1.62504022009670734405517578125">
        <ele>1543.4000244140625</ele>
        <time>2022-08-24T11:57:17.000Z</time>
      </trkpt>
      <trkpt lat="40.53335965611040592193603515625" lon="-1.625128649175167083740234375">
        <ele>1541.5999755859375</ele>
        <time>2022-08-24T11:57:19.000Z</time>
      </trkpt>
      <trkpt lat="40.53348672576248645782470703125" lon="-1.6251579858362674713134765625">
        <ele>1540.4000244140625</ele>
        <time>2022-08-24T11:57:20.000Z</time>
      </trkpt>
      <trkpt lat="40.533740781247615814208984375" lon="-1.6251874901354312896728515625">
        <ele>1539.4000244140625</ele>
        <time>2022-08-24T11:57:21.000Z</time>
      </trkpt>
      <trkpt lat="40.53386785089969635009765625" lon="-1.6252054274082183837890625">
        <ele>1538</ele>
        <time>2022-08-24T11:57:23.000Z</time>
      </trkpt>
      <trkpt lat="40.53412224166095256805419921875" lon="-1.62528463639318943023681640625">
        <ele>1536.800048828125</ele>
        <time>2022-08-24T11:57:24.000Z</time>
      </trkpt>
      <trkpt lat="40.53412224166095256805419921875" lon="-1.62528463639318943023681640625">
        <ele>1535.800048828125</ele>
        <time>2022-08-24T11:57:25.000Z</time>
      </trkpt>
      <trkpt lat="40.53437554277479648590087890625" lon="-1.62539251148700714111328125">
        <ele>1534.800048828125</ele>
        <time>2022-08-24T11:57:26.000Z</time>
      </trkpt>
      <trkpt lat="40.53450613282620906829833984375" lon="-1.62544473074376583099365234375">
        <ele>1533.5999755859375</ele>
        <time>2022-08-24T11:57:28.000Z</time>
      </trkpt>
      <trkpt lat="40.53490343503654003143310546875" lon="-1.6255581378936767578125">
        <ele>1532</ele>
        <time>2022-08-24T11:57:30.000Z</time>
      </trkpt>
      <trkpt lat="40.53490343503654003143310546875" lon="-1.6255581378936767578125">
        <ele>1531</ele>
        <time>2022-08-24T11:57:31.000Z</time>
      </trkpt>
      <trkpt lat="40.53516830317676067352294921875" lon="-1.6256381012499332427978515625">
        <ele>1529.800048828125</ele>
        <time>2022-08-24T11:57:33.000Z</time>
      </trkpt>
      <trkpt lat="40.53543199785053730010986328125" lon="-1.62573105655610561370849609375">
        <ele>1528.4000244140625</ele>
        <time>2022-08-24T11:57:35.000Z</time>
      </trkpt>
      <trkpt lat="40.535696111619472503662109375" lon="-1.625832729041576385498046875">
        <ele>1527</ele>
        <time>2022-08-24T11:57:37.000Z</time>
      </trkpt>
      <trkpt lat="40.535824187099933624267578125" lon="-1.625887043774127960205078125">
        <ele>1525.199951171875</ele>
        <time>2022-08-24T11:57:38.000Z</time>
      </trkpt>
      <trkpt lat="40.53595083765685558319091796875" lon="-1.625946722924709320068359375">
        <ele>1523.800048828125</ele>
        <time>2022-08-24T11:57:39.000Z</time>
      </trkpt>
      <trkpt lat="40.536073632538318634033203125" lon="-1.62600916810333728790283203125">
        <ele>1522.5999755859375</ele>
        <time>2022-08-24T11:57:40.000Z</time>
      </trkpt>
      <trkpt lat="40.53631670773029327392578125" lon="-1.62615903653204441070556640625">
        <ele>1521.5999755859375</ele>
        <time>2022-08-24T11:57:41.000Z</time>
      </trkpt>
      <trkpt lat="40.53643698804080486297607421875" lon="-1.626237072050571441650390625">
        <ele>1520.5999755859375</ele>
        <time>2022-08-24T11:57:42.000Z</time>
      </trkpt>
      <trkpt lat="40.53643698804080486297607421875" lon="-1.626237072050571441650390625">
        <ele>1519.5999755859375</ele>
        <time>2022-08-24T11:57:43.000Z</time>
      </trkpt>
      <trkpt lat="40.536682493984699249267578125" lon="-1.6263911314308643341064453125">
        <ele>1518.4000244140625</ele>
        <time>2022-08-24T11:57:44.000Z</time>
      </trkpt>
      <trkpt lat="40.53680897690355777740478515625" lon="-1.62646112032234668731689453125">
        <ele>1516.800048828125</ele>
        <time>2022-08-24T11:57:46.000Z</time>
      </trkpt>
      <trkpt lat="40.5370595119893550872802734375" lon="-1.6265792213380336761474609375">
        <ele>1515.199951171875</ele>
        <time>2022-08-24T11:57:48.000Z</time>
      </trkpt>
      <trkpt lat="40.5371802113950252532958984375" lon="-1.62663093768060207366943359375">
        <ele>1514</ele>
        <time>2022-08-24T11:57:49.000Z</time>
      </trkpt>
      <trkpt lat="40.537410713732242584228515625" lon="-1.62673294544219970703125">
        <ele>1512</ele>
        <time>2022-08-24T11:57:51.000Z</time>
      </trkpt>
      <trkpt lat="40.53752210922539234161376953125" lon="-1.6267906129360198974609375">
        <ele>1509.800048828125</ele>
        <time>2022-08-24T11:57:52.000Z</time>
      </trkpt>
      <trkpt lat="40.53762855939567089080810546875" lon="-1.62685574032366275787353515625">
        <ele>1508.5999755859375</ele>
        <time>2022-08-24T11:57:53.000Z</time>
      </trkpt>
      <trkpt lat="40.53792661987245082855224609375" lon="-1.627081297338008880615234375">
        <ele>1507.4000244140625</ele>
        <time>2022-08-24T11:57:55.000Z</time>
      </trkpt>
      <trkpt lat="40.53811554796993732452392578125" lon="-1.6272423975169658660888671875">
        <ele>1506</ele>
        <time>2022-08-24T11:57:58.000Z</time>
      </trkpt>
      <trkpt lat="40.53854889236390590667724609375" lon="-1.6276883147656917572021484375">
        <ele>1504.800048828125</ele>
        <time>2022-08-24T11:58:02.000Z</time>
      </trkpt>
      <trkpt lat="40.53863354958593845367431640625" lon="-1.62778160534799098968505859375">
        <ele>1504.4000244140625</ele>
        <time>2022-08-24T11:58:03.000Z</time>
      </trkpt>
      <trkpt lat="40.538807474076747894287109375" lon="-1.62796676158905029296875">
        <ele>1503.5999755859375</ele>
        <time>2022-08-24T11:58:05.000Z</time>
      </trkpt>
      <trkpt lat="40.53889565169811248779296875" lon="-1.62806038744747638702392578125">
        <ele>1502.4000244140625</ele>
        <time>2022-08-24T11:58:07.000Z</time>
      </trkpt>
      <trkpt lat="40.53915943019092082977294921875" lon="-1.6283538378775119781494140625">
        <ele>1501</ele>
        <time>2022-08-24T11:58:10.000Z</time>
      </trkpt>
      <trkpt lat="40.5392481945455074310302734375" lon="-1.62846171297132968902587890625">
        <ele>1500.199951171875</ele>
        <time>2022-08-24T11:58:11.000Z</time>
      </trkpt>
      <trkpt lat="40.53943050093948841094970703125" lon="-1.628691963851451873779296875">
        <ele>1499.4000244140625</ele>
        <time>2022-08-24T11:58:12.000Z</time>
      </trkpt>
      <trkpt lat="40.53952035494148731231689453125" lon="-1.62880855612456798553466796875">
        <ele>1498</ele>
        <time>2022-08-24T11:58:14.000Z</time>
      </trkpt>
      <trkpt lat="40.5397789366543292999267578125" lon="-1.629170067608356475830078125">
        <ele>1496.5999755859375</ele>
        <time>2022-08-24T11:58:17.000Z</time>
      </trkpt>
      <trkpt lat="40.53993693552911281585693359375" lon="-1.62943149916827678680419921875">
        <ele>1494.5999755859375</ele>
        <time>2022-08-24T11:58:19.000Z</time>
      </trkpt>
      <trkpt lat="40.53999862633645534515380859375" lon="-1.62957139313220977783203125">
        <ele>1493.4000244140625</ele>
        <time>2022-08-24T11:58:20.000Z</time>
      </trkpt>
      <trkpt lat="40.54004489444196224212646484375" lon="-1.629719920456409454345703125">
        <ele>1491.800048828125</ele>
        <time>2022-08-24T11:58:21.000Z</time>
      </trkpt>
      <trkpt lat="40.54011815227568149566650390625" lon="-1.6300295479595661163330078125">
        <ele>1490</ele>
        <time>2022-08-24T11:58:23.000Z</time>
      </trkpt>
      <trkpt lat="40.54018068127334117889404296875" lon="-1.63034194149076938629150390625">
        <ele>1488</ele>
        <time>2022-08-24T11:58:25.000Z</time>
      </trkpt>
      <trkpt lat="40.54021253250539302825927734375" lon="-1.6304935701191425323486328125">
        <ele>1487</ele>
        <time>2022-08-24T11:58:26.000Z</time>
      </trkpt>
      <trkpt lat="40.5402838625013828277587890625" lon="-1.63078718818724155426025390625">
        <ele>1485.5999755859375</ele>
        <time>2022-08-24T11:58:28.000Z</time>
      </trkpt>
      <trkpt lat="40.54035938344895839691162109375" lon="-1.63107368163764476776123046875">
        <ele>1484.4000244140625</ele>
        <time>2022-08-24T11:58:30.000Z</time>
      </trkpt>
      <trkpt lat="40.5404062382876873016357421875" lon="-1.63121290504932403564453125">
        <ele>1483.5999755859375</ele>
        <time>2022-08-24T11:58:31.000Z</time>
      </trkpt>
      <trkpt lat="40.54045728407800197601318359375" lon="-1.63135061971843242645263671875">
        <ele>1482.4000244140625</ele>
        <time>2022-08-24T11:58:32.000Z</time>
      </trkpt>
      <trkpt lat="40.54056826047599315643310546875" lon="-1.63161615841090679168701171875">
        <ele>1480.5999755859375</ele>
        <time>2022-08-24T11:58:34.000Z</time>
      </trkpt>
      <trkpt lat="40.54062223993241786956787109375" lon="-1.63174398243427276611328125">
        <ele>1479.5999755859375</ele>
        <time>2022-08-24T11:58:35.000Z</time>
      </trkpt>
      <trkpt lat="40.5407418496906757354736328125" lon="-1.6319912485778331756591796875">
        <ele>1478.199951171875</ele>
        <time>2022-08-24T11:58:37.000Z</time>
      </trkpt>
      <trkpt lat="40.540874116122722625732421875" lon="-1.6322299651801586151123046875">
        <ele>1476.800048828125</ele>
        <time>2022-08-24T11:58:39.000Z</time>
      </trkpt>
      <trkpt lat="40.5410114116966724395751953125" lon="-1.63246281445026397705078125">
        <ele>1475</ele>
        <time>2022-08-24T11:58:41.000Z</time>
      </trkpt>
      <trkpt lat="40.54113487713038921356201171875" lon="-1.63270211778581142425537109375">
        <ele>1473.199951171875</ele>
        <time>2022-08-24T11:58:43.000Z</time>
      </trkpt>
      <trkpt lat="40.5411921255290508270263671875" lon="-1.63282399065792560577392578125">
        <ele>1472.4000244140625</ele>
        <time>2022-08-24T11:58:44.000Z</time>
      </trkpt>
      <trkpt lat="40.5412390641868114471435546875" lon="-1.63294686935842037200927734375">
        <ele>1471.4000244140625</ele>
        <time>2022-08-24T11:58:45.000Z</time>
      </trkpt>
      <trkpt lat="40.54133319295942783355712890625" lon="-1.6331908665597438812255859375">
        <ele>1470</ele>
        <time>2022-08-24T11:58:47.000Z</time>
      </trkpt>
      <trkpt lat="40.5413795448839664459228515625" lon="-1.6333152540028095245361328125">
        <ele>1469.4000244140625</ele>
        <time>2022-08-24T11:58:48.000Z</time>
      </trkpt>
      <trkpt lat="40.5414244718849658966064453125" lon="-1.63344056345522403717041015625">
        <ele>1468.800048828125</ele>
        <time>2022-08-24T11:58:49.000Z</time>
      </trkpt>
      <trkpt lat="40.54153653793036937713623046875" lon="-1.6338252089917659759521484375">
        <ele>1467.4000244140625</ele>
        <time>2022-08-24T11:58:52.000Z</time>
      </trkpt>
      <trkpt lat="40.54163376800715923309326171875" lon="-1.63422175683081150054931640625">
        <ele>1466.800048828125</ele>
        <time>2022-08-24T11:58:54.000Z</time>
      </trkpt>
      <trkpt lat="40.54163376800715923309326171875" lon="-1.63422175683081150054931640625">
        <ele>1466.4000244140625</ele>
        <time>2022-08-24T11:58:55.000Z</time>
      </trkpt>
      <trkpt lat="40.54169311188161373138427734375" lon="-1.63449366576969623565673828125">
        <ele>1465.199951171875</ele>
        <time>2022-08-24T11:58:57.000Z</time>
      </trkpt>
      <trkpt lat="40.54180392064154148101806640625" lon="-1.63504770956933498382568359375">
        <ele>1464.199951171875</ele>
        <time>2022-08-24T11:59:01.000Z</time>
      </trkpt>
      <trkpt lat="40.54189595393836498260498046875" lon="-1.635300256311893463134765625">
        <ele>1463</ele>
        <time>2022-08-24T11:59:03.000Z</time>
      </trkpt>
      <trkpt lat="40.542054288089275360107421875" lon="-1.635673753917217254638671875">
        <ele>1461.800048828125</ele>
        <time>2022-08-24T11:59:05.000Z</time>
      </trkpt>
      <trkpt lat="40.54210399277508258819580078125" lon="-1.63580417633056640625">
        <ele>1461.199951171875</ele>
        <time>2022-08-24T11:59:06.000Z</time>
      </trkpt>
      <trkpt lat="40.54210399277508258819580078125" lon="-1.63580417633056640625">
        <ele>1460.4000244140625</ele>
        <time>2022-08-24T11:59:07.000Z</time>
      </trkpt>
      <trkpt lat="40.54229476489126682281494140625" lon="-1.63617725484073162078857421875">
        <ele>1459.199951171875</ele>
        <time>2022-08-24T11:59:10.000Z</time>
      </trkpt>
      <trkpt lat="40.54242636077105998992919921875" lon="-1.63641010411083698272705078125">
        <ele>1457.5999755859375</ele>
        <time>2022-08-24T11:59:12.000Z</time>
      </trkpt>
      <trkpt lat="40.54256985895335674285888671875" lon="-1.6366049833595752716064453125">
        <ele>1455.800048828125</ele>
        <time>2022-08-24T11:59:14.000Z</time>
      </trkpt>
      <trkpt lat="40.54264831356704235076904296875" lon="-1.63669022731482982635498046875">
        <ele>1455.199951171875</ele>
        <time>2022-08-24T11:59:15.000Z</time>
      </trkpt>
      <trkpt lat="40.54273045621812343597412109375" lon="-1.6367642395198345184326171875">
        <ele>1454.4000244140625</ele>
        <time>2022-08-24T11:59:16.000Z</time>
      </trkpt>
      <trkpt lat="40.542828105390071868896484375" lon="-1.63681872189044952392578125">
        <ele>1452.800048828125</ele>
        <time>2022-08-24T11:59:17.000Z</time>
      </trkpt>
      <trkpt lat="40.5430331267416477203369140625" lon="-1.6368866153061389923095703125">
        <ele>1451</ele>
        <time>2022-08-24T11:59:19.000Z</time>
      </trkpt>
      <trkpt lat="40.5431420914828777313232421875" lon="-1.636902876198291778564453125">
        <ele>1450.199951171875</ele>
        <time>2022-08-24T11:59:20.000Z</time>
      </trkpt>
      <trkpt lat="40.54324812255799770355224609375" lon="-1.63691972382366657257080078125">
        <ele>1449.199951171875</ele>
        <time>2022-08-24T11:59:21.000Z</time>
      </trkpt>
      <trkpt lat="40.5434666387736797332763671875" lon="-1.636947803199291229248046875">
        <ele>1447.199951171875</ele>
        <time>2022-08-24T11:59:23.000Z</time>
      </trkpt>
      <trkpt lat="40.543689094483852386474609375" lon="-1.63696825504302978515625">
        <ele>1445</ele>
        <time>2022-08-24T11:59:25.000Z</time>
      </trkpt>
      <trkpt lat="40.543903671205043792724609375" lon="-1.63697429001331329345703125">
        <ele>1443.4000244140625</ele>
        <time>2022-08-24T11:59:27.000Z</time>
      </trkpt>
      <trkpt lat="40.5441167391836643218994140625" lon="-1.63695073686540126800537109375">
        <ele>1442.5999755859375</ele>
        <time>2022-08-24T11:59:29.000Z</time>
      </trkpt>
      <trkpt lat="40.544222854077816009521484375" lon="-1.63693464361131191253662109375">
        <ele>1442.199951171875</ele>
        <time>2022-08-24T11:59:30.000Z</time>
      </trkpt>
      <trkpt lat="40.54432737641036510467529296875" lon="-1.63691796362400054931640625">
        <ele>1441.5999755859375</ele>
        <time>2022-08-24T11:59:31.000Z</time>
      </trkpt>
      <trkpt lat="40.5445348285138607025146484375" lon="-1.63689441047608852386474609375">
        <ele>1440.800048828125</ele>
        <time>2022-08-24T11:59:33.000Z</time>
      </trkpt>
      <trkpt lat="40.544745214283466339111328125" lon="-1.636889465153217315673828125">
        <ele>1440.4000244140625</ele>
        <time>2022-08-24T11:59:35.000Z</time>
      </trkpt>
      <trkpt lat="40.5449487268924713134765625" lon="-1.6368993557989597320556640625">
        <ele>1439.5999755859375</ele>
        <time>2022-08-24T11:59:37.000Z</time>
      </trkpt>
      <trkpt lat="40.54524603299796581268310546875" lon="-1.63693497888743877410888671875">
        <ele>1438.4000244140625</ele>
        <time>2022-08-24T11:59:40.000Z</time>
      </trkpt>
      <trkpt lat="40.5454504676163196563720703125" lon="-1.636977978050708770751953125">
        <ele>1437.800048828125</ele>
        <time>2022-08-24T11:59:42.000Z</time>
      </trkpt>
      <trkpt lat="40.5456677265465259552001953125" lon="-1.63703405298292636871337890625">
        <ele>1436.4000244140625</ele>
        <time>2022-08-24T11:59:44.000Z</time>
      </trkpt>
      <trkpt lat="40.5458928644657135009765625" lon="-1.6370914690196514129638671875">
        <ele>1435</ele>
        <time>2022-08-24T11:59:46.000Z</time>
      </trkpt>
      <trkpt lat="40.5461223609745502471923828125" lon="-1.637142598628997802734375">
        <ele>1434</ele>
        <time>2022-08-24T11:59:48.000Z</time>
      </trkpt>
      <trkpt lat="40.54623761214315891265869140625" lon="-1.6371652297675609588623046875">
        <ele>1433.4000244140625</ele>
        <time>2022-08-24T11:59:49.000Z</time>
      </trkpt>
      <trkpt lat="40.546466521918773651123046875" lon="-1.6372007690370082855224609375">
        <ele>1432.199951171875</ele>
        <time>2022-08-24T11:59:51.000Z</time>
      </trkpt>
      <trkpt lat="40.54669660516083240509033203125" lon="-1.63723044097423553466796875">
        <ele>1430.800048828125</ele>
        <time>2022-08-24T11:59:53.000Z</time>
      </trkpt>
      <trkpt lat="40.5469228327274322509765625" lon="-1.6372503899037837982177734375">
        <ele>1429</ele>
        <time>2022-08-24T11:59:55.000Z</time>
      </trkpt>
      <trkpt lat="40.547035150229930877685546875" lon="-1.63725667633116245269775390625">
        <ele>1427.800048828125</ele>
        <time>2022-08-24T11:59:56.000Z</time>
      </trkpt>
      <trkpt lat="40.547253079712390899658203125" lon="-1.63727696053683757781982421875">
        <ele>1426.5999755859375</ele>
        <time>2022-08-24T11:59:58.000Z</time>
      </trkpt>
      <trkpt lat="40.5474664829671382904052734375" lon="-1.6373194567859172821044921875">
        <ele>1425.5999755859375</ele>
        <time>2022-08-24T12:00:00.000Z</time>
      </trkpt>
      <trkpt lat="40.54757217876613140106201171875" lon="-1.6373509727418422698974609375">
        <ele>1425</ele>
        <time>2022-08-24T12:00:01.000Z</time>
      </trkpt>
      <trkpt lat="40.54767577908933162689208984375" lon="-1.6373969055712223052978515625">
        <ele>1424.5999755859375</ele>
        <time>2022-08-24T12:00:02.000Z</time>
      </trkpt>
      <trkpt lat="40.547867305576801300048828125" lon="-1.6375400684773921966552734375">
        <ele>1423.800048828125</ele>
        <time>2022-08-24T12:00:04.000Z</time>
      </trkpt>
      <trkpt lat="40.54795615375041961669921875" lon="-1.6376248933374881744384765625">
        <ele>1423.199951171875</ele>
        <time>2022-08-24T12:00:05.000Z</time>
      </trkpt>
      <trkpt lat="40.54804039187729358673095703125" lon="-1.63771323859691619873046875">
        <ele>1422.800048828125</ele>
        <time>2022-08-24T12:00:06.000Z</time>
      </trkpt>
      <trkpt lat="40.54812404327094554901123046875" lon="-1.63780250586569309234619140625">
        <ele>1422.199951171875</ele>
        <time>2022-08-24T12:00:07.000Z</time>
      </trkpt>
      <trkpt lat="40.54829947650432586669921875" lon="-1.6379719041287899017333984375">
        <ele>1421.5999755859375</ele>
        <time>2022-08-24T12:00:09.000Z</time>
      </trkpt>
      <trkpt lat="40.5483908392488956451416015625" lon="-1.63805186748504638671875">
        <ele>1421</ele>
        <time>2022-08-24T12:00:10.000Z</time>
      </trkpt>
      <trkpt lat="40.54848345927894115447998046875" lon="-1.63812629878520965576171875">
        <ele>1420</ele>
        <time>2022-08-24T12:00:11.000Z</time>
      </trkpt>
      <trkpt lat="40.54867037571966648101806640625" lon="-1.638269461691379547119140625">
        <ele>1418.800048828125</ele>
        <time>2022-08-24T12:00:13.000Z</time>
      </trkpt>
      <trkpt lat="40.54885259829461574554443359375" lon="-1.63842142559587955474853515625">
        <ele>1418</ele>
        <time>2022-08-24T12:00:15.000Z</time>
      </trkpt>
      <trkpt lat="40.549032725393772125244140625" lon="-1.63855888880789279937744140625">
        <ele>1417.5999755859375</ele>
        <time>2022-08-24T12:00:17.000Z</time>
      </trkpt>
      <trkpt lat="40.54921335540711879730224609375" lon="-1.63868662901222705841064453125">
        <ele>1416.4000244140625</ele>
        <time>2022-08-24T12:00:19.000Z</time>
      </trkpt>
      <trkpt lat="40.54929767735302448272705078125" lon="-1.63876290433108806610107421875">
        <ele>1415.800048828125</ele>
        <time>2022-08-24T12:00:20.000Z</time>
      </trkpt>
      <trkpt lat="40.549442768096923828125" lon="-1.6389462165534496307373046875">
        <ele>1415</ele>
        <time>2022-08-24T12:00:22.000Z</time>
      </trkpt>
      <trkpt lat="40.54957780055701732635498046875" lon="-1.63912282325327396392822265625">
        <ele>1414.800048828125</ele>
        <time>2022-08-24T12:00:24.000Z</time>
      </trkpt>
      <trkpt lat="40.54971710778772830963134765625" lon="-1.63928459398448467254638671875">
        <ele>1413.5999755859375</ele>
        <time>2022-08-24T12:00:26.000Z</time>
      </trkpt>
      <trkpt lat="40.5498489551246166229248046875" lon="-1.6394372284412384033203125">
        <ele>1412.199951171875</ele>
        <time>2022-08-24T12:00:28.000Z</time>
      </trkpt>
      <trkpt lat="40.5500266514718532562255859375" lon="-1.63967661559581756591796875">
        <ele>1411.199951171875</ele>
        <time>2022-08-24T12:00:31.000Z</time>
      </trkpt>
      <trkpt lat="40.55029629729688167572021484375" lon="-1.64001029916107654571533203125">
        <ele>1410.199951171875</ele>
        <time>2022-08-24T12:00:36.000Z</time>
      </trkpt>
      <trkpt lat="40.55034868419170379638671875" lon="-1.64006293751299381256103515625">
        <ele>1410.199951171875</ele>
        <time>2022-08-24T12:00:37.000Z</time>
      </trkpt>
      <trkpt lat="40.550402663648128509521484375" lon="-1.6401079483330249786376953125">
        <ele>1410</ele>
        <time>2022-08-24T12:00:38.000Z</time>
      </trkpt>
      <trkpt lat="40.55066342465579509735107421875" lon="-1.64029578678309917449951171875">
        <ele>1410</ele>
        <time>2022-08-24T12:00:43.000Z</time>
      </trkpt>
      <trkpt lat="40.5508254468441009521484375" lon="-1.6404323279857635498046875">
        <ele>1410</ele>
        <time>2022-08-24T12:00:47.000Z</time>
      </trkpt>
      <trkpt lat="40.55097640492022037506103515625" lon="-1.64053048007190227508544921875">
        <ele>1411.800048828125</ele>
        <time>2022-08-24T12:00:54.000Z</time>
      </trkpt>
      <trkpt lat="40.55102434940636157989501953125" lon="-1.640559732913970947265625">
        <ele>1412.199951171875</ele>
        <time>2022-08-24T12:00:55.000Z</time>
      </trkpt>
      <trkpt lat="40.5510455556213855743408203125" lon="-1.64057490415871143341064453125">
        <ele>1413</ele>
        <time>2022-08-24T12:00:57.000Z</time>
      </trkpt>
      <trkpt lat="40.55115125142037868499755859375" lon="-1.64064162410795688629150390625">
        <ele>1414</ele>
        <time>2022-08-24T12:01:01.000Z</time>
      </trkpt>
      <trkpt lat="40.55116851814091205596923828125" lon="-1.64066224358975887298583984375">
        <ele>1414.800048828125</ele>
        <time>2022-08-24T12:01:03.000Z</time>
      </trkpt>
      <trkpt lat="40.5512011237442493438720703125" lon="-1.6407204978168010711669921875">
        <ele>1415.199951171875</ele>
        <time>2022-08-24T12:01:04.000Z</time>
      </trkpt>
      <trkpt lat="40.5512487329542636871337890625" lon="-1.64081999100744724273681640625">
        <ele>1416.199951171875</ele>
        <time>2022-08-24T12:01:07.000Z</time>
      </trkpt>
      <trkpt lat="40.55126206018030643463134765625" lon="-1.6408576257526874542236328125">
        <ele>1416.5999755859375</ele>
        <time>2022-08-24T12:01:09.000Z</time>
      </trkpt>
      <trkpt lat="40.55136197246611118316650390625" lon="-1.6412851028144359588623046875">
        <ele>1417.199951171875</ele>
        <time>2022-08-24T12:01:18.000Z</time>
      </trkpt>
      <trkpt lat="40.5514193885028362274169921875" lon="-1.64157159626483917236328125">
        <ele>1417.199951171875</ele>
        <time>2022-08-24T12:01:25.000Z</time>
      </trkpt>
      <trkpt lat="40.55143556557595729827880859375" lon="-1.64165566675364971160888671875">
        <ele>1417.4000244140625</ele>
        <time>2022-08-24T12:01:27.000Z</time>
      </trkpt>
      <trkpt lat="40.55146574042737483978271484375" lon="-1.64177946746349334716796875">
        <ele>1417.4000244140625</ele>
        <time>2022-08-24T12:01:30.000Z</time>
      </trkpt>
      <trkpt lat="40.55152240209281444549560546875" lon="-1.6420599259436130523681640625">
        <ele>1418</ele>
        <time>2022-08-24T12:01:37.000Z</time>
      </trkpt>
      <trkpt lat="40.55156908929347991943359375" lon="-1.642367877066135406494140625">
        <ele>1418</ele>
        <time>2022-08-24T12:01:46.000Z</time>
      </trkpt>
      <trkpt lat="40.55155727081000804901123046875" lon="-1.64275906048715114593505859375">
        <ele>1418.4000244140625</ele>
        <time>2022-08-24T12:01:54.000Z</time>
      </trkpt>
      <trkpt lat="40.5514840967953205108642578125" lon="-1.6432803310453891754150390625">
        <ele>1418.4000244140625</ele>
        <time>2022-08-24T12:02:03.000Z</time>
      </trkpt>
      <trkpt lat="40.55138594470918178558349609375" lon="-1.643869243562221527099609375">
        <ele>1418.800048828125</ele>
        <time>2022-08-24T12:02:12.000Z</time>
      </trkpt>
      <trkpt lat="40.55131218396127223968505859375" lon="-1.64432245306670665740966796875">
        <ele>1418.800048828125</ele>
        <time>2022-08-24T12:02:19.000Z</time>
      </trkpt>
      <trkpt lat="40.55126926861703395843505859375" lon="-1.644574664533138275146484375">
        <ele>1418.800048828125</ele>
        <time>2022-08-24T12:02:24.000Z</time>
      </trkpt>
      <trkpt lat="40.55124990642070770263671875" lon="-1.64467088878154754638671875">
        <ele>1418.800048828125</ele>
        <time>2022-08-24T12:02:26.000Z</time>
      </trkpt>
      <trkpt lat="40.551226437091827392578125" lon="-1.64480910636484622955322265625">
        <ele>1419</ele>
        <time>2022-08-24T12:02:29.000Z</time>
      </trkpt>
      <trkpt lat="40.55117723532021045684814453125" lon="-1.64510834030807018280029296875">
        <ele>1419.800048828125</ele>
        <time>2022-08-24T12:02:35.000Z</time>
      </trkpt>
      <trkpt lat="40.5511233396828174591064453125" lon="-1.64541997946798801422119140625">
        <ele>1420.199951171875</ele>
        <time>2022-08-24T12:02:41.000Z</time>
      </trkpt>
      <trkpt lat="40.5510844476521015167236328125" lon="-1.6456369869410991668701171875">
        <ele>1420.4000244140625</ele>
        <time>2022-08-24T12:02:45.000Z</time>
      </trkpt>
      <trkpt lat="40.5510495789349079132080078125" lon="-1.64580135606229305267333984375">
        <ele>1420.5999755859375</ele>
        <time>2022-08-24T12:02:48.000Z</time>
      </trkpt>
      <trkpt lat="40.55103130638599395751953125" lon="-1.646027751266956329345703125">
        <ele>1420.5999755859375</ele>
        <time>2022-08-24T12:02:52.000Z</time>
      </trkpt>
      <trkpt lat="40.5510435439646244049072265625" lon="-1.64643838070333003997802734375">
        <ele>1420.800048828125</ele>
        <time>2022-08-24T12:03:00.000Z</time>
      </trkpt>
      <trkpt lat="40.55104262195527553558349609375" lon="-1.64660065434873104095458984375">
        <ele>1421</ele>
        <time>2022-08-24T12:03:03.000Z</time>
      </trkpt>
      <trkpt lat="40.5510562844574451446533203125" lon="-1.646777093410491943359375">
        <ele>1421</ele>
        <time>2022-08-24T12:03:06.000Z</time>
      </trkpt>
      <trkpt lat="40.5510468967258930206298828125" lon="-1.64713290520012378692626953125">
        <ele>1421.4000244140625</ele>
        <time>2022-08-24T12:03:12.000Z</time>
      </trkpt>
      <trkpt lat="40.551037676632404327392578125" lon="-1.64718939922749996185302734375">
        <ele>1421.4000244140625</ele>
        <time>2022-08-24T12:03:13.000Z</time>
      </trkpt>
      <trkpt lat="40.55092292837798595428466796875" lon="-1.64744169451296329498291015625">
        <ele>1421.5999755859375</ele>
        <time>2022-08-24T12:03:18.000Z</time>
      </trkpt>
      <trkpt lat="40.55086140520870685577392578125" lon="-1.64752417244017124176025390625">
        <ele>1421.5999755859375</ele>
        <time>2022-08-24T12:03:20.000Z</time>
      </trkpt>
      <trkpt lat="40.55079200305044651031494140625" lon="-1.64765208028256893157958984375">
        <ele>1421.800048828125</ele>
        <time>2022-08-24T12:03:23.000Z</time>
      </trkpt>
      <trkpt lat="40.55073014460504055023193359375" lon="-1.647742353379726409912109375">
        <ele>1422</ele>
        <time>2022-08-24T12:03:27.000Z</time>
      </trkpt>
      <trkpt lat="40.550629310309886932373046875" lon="-1.647905297577381134033203125">
        <ele>1422</ele>
        <time>2022-08-24T12:03:33.000Z</time>
      </trkpt>
      <trkpt lat="40.55044901557266712188720703125" lon="-1.64816287346184253692626953125">
        <ele>1422.199951171875</ele>
        <time>2022-08-24T12:03:40.000Z</time>
      </trkpt>
      <trkpt lat="40.55027282796800136566162109375" lon="-1.6484352014958858489990234375">
        <ele>1422.5999755859375</ele>
        <time>2022-08-24T12:03:47.000Z</time>
      </trkpt>
      <trkpt lat="40.5501507036387920379638671875" lon="-1.6485607624053955078125">
        <ele>1422.800048828125</ele>
        <time>2022-08-24T12:03:51.000Z</time>
      </trkpt>
      <trkpt lat="40.55006562732160091400146484375" lon="-1.648651622235774993896484375">
        <ele>1423.199951171875</ele>
        <time>2022-08-24T12:03:54.000Z</time>
      </trkpt>
      <trkpt lat="40.55000980384647846221923828125" lon="-1.6487107984721660614013671875">
        <ele>1423.4000244140625</ele>
        <time>2022-08-24T12:03:56.000Z</time>
      </trkpt>
      <trkpt lat="40.54980511777102947235107421875" lon="-1.64897072128951549530029296875">
        <ele>1423.5999755859375</ele>
        <time>2022-08-24T12:04:04.000Z</time>
      </trkpt>
      <trkpt lat="40.54960529319941997528076171875" lon="-1.64921044372022151947021484375">
        <ele>1423.800048828125</ele>
        <time>2022-08-24T12:04:13.000Z</time>
      </trkpt>
      <trkpt lat="40.5495760403573513031005859375" lon="-1.64932946674525737762451171875">
        <ele>1423.800048828125</ele>
        <time>2022-08-24T12:04:17.000Z</time>
      </trkpt>
      <trkpt lat="40.5495472066104412078857421875" lon="-1.6494544409215450286865234375">
        <ele>1423.199951171875</ele>
        <time>2022-08-24T12:04:23.000Z</time>
      </trkpt>
      <trkpt lat="40.5494459532201290130615234375" lon="-1.6497047245502471923828125">
        <ele>1423</ele>
        <time>2022-08-24T12:04:31.000Z</time>
      </trkpt>
      <trkpt lat="40.549471266567707061767578125" lon="-1.649957858026027679443359375">
        <ele>1422.800048828125</ele>
        <time>2022-08-24T12:04:37.000Z</time>
      </trkpt>
      <trkpt lat="40.549492053687572479248046875" lon="-1.6502624563872814178466796875">
        <ele>1422.800048828125</ele>
        <time>2022-08-24T12:04:44.000Z</time>
      </trkpt>
      <trkpt lat="40.54949414916336536407470703125" lon="-1.6505588404834270477294921875">
        <ele>1422.800048828125</ele>
        <time>2022-08-24T12:04:52.000Z</time>
      </trkpt>
      <trkpt lat="40.5495173670351505279541015625" lon="-1.65066537447273731231689453125">
        <ele>1423</ele>
        <time>2022-08-24T12:04:56.000Z</time>
      </trkpt>
      <trkpt lat="40.5496021918952465057373046875" lon="-1.65065581910312175750732421875">
        <ele>1423.199951171875</ele>
        <time>2022-08-24T12:05:01.000Z</time>
      </trkpt>
      <trkpt lat="40.5496192909777164459228515625" lon="-1.650656573474407196044921875">
        <ele>1423.199951171875</ele>
        <time>2022-08-24T12:05:02.000Z</time>
      </trkpt>
      <trkpt lat="40.54966815747320652008056640625" lon="-1.65063570253551006317138671875">
        <ele>1423.5999755859375</ele>
        <time>2022-08-24T12:05:05.000Z</time>
      </trkpt>
      <trkpt lat="40.549683161079883575439453125" lon="-1.650639139115810394287109375">
        <ele>1423.800048828125</ele>
        <time>2022-08-24T12:05:06.000Z</time>
      </trkpt>
      <trkpt lat="40.5496967397630214691162109375" lon="-1.6506557352840900421142578125">
        <ele>1424</ele>
        <time>2022-08-24T12:05:07.000Z</time>
      </trkpt>
      <trkpt lat="40.549711324274539947509765625" lon="-1.65067023597657680511474609375">
        <ele>1424.4000244140625</ele>
        <time>2022-08-24T12:05:08.000Z</time>
      </trkpt>
      <trkpt lat="40.54972984828054904937744140625" lon="-1.6506971418857574462890625">
        <ele>1425.4000244140625</ele>
        <time>2022-08-24T12:05:12.000Z</time>
      </trkpt>
      <trkpt lat="40.5497326143085956573486328125" lon="-1.6508770175278186798095703125">
        <ele>1426.5999755859375</ele>
        <time>2022-08-24T12:05:29.000Z</time>
      </trkpt>
      <trkpt lat="40.54973353631794452667236328125" lon="-1.6509289853274822235107421875">
        <ele>1426.5999755859375</ele>
        <time>2022-08-24T12:05:31.000Z</time>
      </trkpt>
      <trkpt lat="40.5497678183019161224365234375" lon="-1.651100479066371917724609375">
        <ele>1427.199951171875</ele>
        <time>2022-08-24T12:05:37.000Z</time>
      </trkpt>
      <trkpt lat="40.54978785105049610137939453125" lon="-1.6513651795685291290283203125">
        <ele>1427.4000244140625</ele>
        <time>2022-08-24T12:05:46.000Z</time>
      </trkpt>
      <trkpt lat="40.5498033575713634490966796875" lon="-1.6515465639531612396240234375">
        <ele>1427.4000244140625</ele>
        <time>2022-08-24T12:05:54.000Z</time>
      </trkpt>
      <trkpt lat="40.549804531037807464599609375" lon="-1.651643626391887664794921875">
        <ele>1427.5999755859375</ele>
        <time>2022-08-24T12:05:59.000Z</time>
      </trkpt>
      <trkpt lat="40.5498181097209453582763671875" lon="-1.65175602771341800689697265625">
        <ele>1427.800048828125</ele>
        <time>2022-08-24T12:06:06.000Z</time>
      </trkpt>
      <trkpt lat="40.54982271976768970489501953125" lon="-1.65177715010941028594970703125">
        <ele>1427.800048828125</ele>
        <time>2022-08-24T12:06:07.000Z</time>
      </trkpt>
      <trkpt lat="40.549874268472194671630859375" lon="-1.65195551700890064239501953125">
        <ele>1429</ele>
        <time>2022-08-24T12:06:15.000Z</time>
      </trkpt>
      <trkpt lat="40.54987971670925617218017578125" lon="-1.6520038805902004241943359375">
        <ele>1429</ele>
        <time>2022-08-24T12:06:17.000Z</time>
      </trkpt>
      <trkpt lat="40.5499188601970672607421875" lon="-1.65215131826698780059814453125">
        <ele>1429.4000244140625</ele>
        <time>2022-08-24T12:06:23.000Z</time>
      </trkpt>
      <trkpt lat="40.54997828789055347442626953125" lon="-1.65231124497950077056884765625">
        <ele>1430.4000244140625</ele>
        <time>2022-08-24T12:06:29.000Z</time>
      </trkpt>
      <trkpt lat="40.55001215077936649322509765625" lon="-1.65243546478450298309326171875">
        <ele>1430.800048828125</ele>
        <time>2022-08-24T12:06:33.000Z</time>
      </trkpt>
      <trkpt lat="40.54998918436467647552490234375" lon="-1.65262841619551181793212890625">
        <ele>1431.4000244140625</ele>
        <time>2022-08-24T12:06:39.000Z</time>
      </trkpt>
      <trkpt lat="40.54997476749122142791748046875" lon="-1.6526838205754756927490234375">
        <ele>1431.5999755859375</ele>
        <time>2022-08-24T12:06:41.000Z</time>
      </trkpt>
      <trkpt lat="40.5499461852014064788818359375" lon="-1.65286780335009098052978515625">
        <ele>1432.4000244140625</ele>
        <time>2022-08-24T12:06:47.000Z</time>
      </trkpt>
      <trkpt lat="40.54993486963212490081787109375" lon="-1.6529376246035099029541015625">
        <ele>1432.5999755859375</ele>
        <time>2022-08-24T12:06:49.000Z</time>
      </trkpt>
      <trkpt lat="40.54988910444080829620361328125" lon="-1.653153710067272186279296875">
        <ele>1433.4000244140625</ele>
        <time>2022-08-24T12:06:55.000Z</time>
      </trkpt>
      <trkpt lat="40.54986446164548397064208984375" lon="-1.65329947136342525482177734375">
        <ele>1433.5999755859375</ele>
        <time>2022-08-24T12:06:59.000Z</time>
      </trkpt>
      <trkpt lat="40.5498311854898929595947265625" lon="-1.6534834541380405426025390625">
        <ele>1434</ele>
        <time>2022-08-24T12:07:04.000Z</time>
      </trkpt>
      <trkpt lat="40.54976639337837696075439453125" lon="-1.6538683511316776275634765625">
        <ele>1434.4000244140625</ele>
        <time>2022-08-24T12:07:14.000Z</time>
      </trkpt>
      <trkpt lat="40.54971576668322086334228515625" lon="-1.6541234962642192840576171875">
        <ele>1434.800048828125</ele>
        <time>2022-08-24T12:07:20.000Z</time>
      </trkpt>
      <trkpt lat="40.54970704950392246246337890625" lon="-1.6542076505720615386962890625">
        <ele>1434.800048828125</ele>
        <time>2022-08-24T12:07:22.000Z</time>
      </trkpt>
      <trkpt lat="40.549716688692569732666015625" lon="-1.6545627079904079437255859375">
        <ele>1435</ele>
        <time>2022-08-24T12:07:31.000Z</time>
      </trkpt>
      <trkpt lat="40.549745522439479827880859375" lon="-1.6549482755362987518310546875">
        <ele>1435.4000244140625</ele>
        <time>2022-08-24T12:07:40.000Z</time>
      </trkpt>
      <trkpt lat="40.54971677251160144805908203125" lon="-1.65524876676499843597412109375">
        <ele>1435.4000244140625</ele>
        <time>2022-08-24T12:07:47.000Z</time>
      </trkpt>
      <trkpt lat="40.54959842003881931304931640625" lon="-1.6555712185800075531005859375">
        <ele>1435.800048828125</ele>
        <time>2022-08-24T12:07:55.000Z</time>
      </trkpt>
      <trkpt lat="40.549489371478557586669921875" lon="-1.6558434627950191497802734375">
        <ele>1436.199951171875</ele>
        <time>2022-08-24T12:08:03.000Z</time>
      </trkpt>
      <trkpt lat="40.54941200651228427886962890625" lon="-1.656038425862789154052734375">
        <ele>1436.199951171875</ele>
        <time>2022-08-24T12:08:09.000Z</time>
      </trkpt>
      <trkpt lat="40.54931310005486011505126953125" lon="-1.65629499591886997222900390625">
        <ele>1436.199951171875</ele>
        <time>2022-08-24T12:08:16.000Z</time>
      </trkpt>
      <trkpt lat="40.5492873676121234893798828125" lon="-1.65637831203639507293701171875">
        <ele>1436.199951171875</ele>
        <time>2022-08-24T12:08:17.000Z</time>
      </trkpt>
      <trkpt lat="40.54921687580645084381103515625" lon="-1.65658148936927318572998046875">
        <ele>1437</ele>
        <time>2022-08-24T12:08:24.000Z</time>
      </trkpt>
      <trkpt lat="40.5491532571613788604736328125" lon="-1.656769327819347381591796875">
        <ele>1437.5999755859375</ele>
        <time>2022-08-24T12:08:31.000Z</time>
      </trkpt>
      <trkpt lat="40.54910958744585514068603515625" lon="-1.65692917071282863616943359375">
        <ele>1438</ele>
        <time>2022-08-24T12:08:38.000Z</time>
      </trkpt>
      <trkpt lat="40.5491076596081256866455078125" lon="-1.6569411568343639373779296875">
        <ele>1438.199951171875</ele>
        <time>2022-08-24T12:08:42.000Z</time>
      </trkpt>
      <trkpt lat="40.5490919016301631927490234375" lon="-1.6570823080837726593017578125">
        <ele>1438</ele>
        <time>2022-08-24T12:09:35.000Z</time>
      </trkpt>
      <trkpt lat="40.54908159188926219940185546875" lon="-1.65711994282901287078857421875">
        <ele>1438</ele>
        <time>2022-08-24T12:09:36.000Z</time>
      </trkpt>
      <trkpt lat="40.5490037240087985992431640625" lon="-1.65741029195487499237060546875">
        <ele>1438.199951171875</ele>
        <time>2022-08-24T12:09:44.000Z</time>
      </trkpt>
      <trkpt lat="40.54898939095437526702880859375" lon="-1.65763610042631626129150390625">
        <ele>1438.199951171875</ele>
        <time>2022-08-24T12:09:50.000Z</time>
      </trkpt>
      <trkpt lat="40.5489940010011196136474609375" lon="-1.65775679983198642730712890625">
        <ele>1438.199951171875</ele>
        <time>2022-08-24T12:09:53.000Z</time>
      </trkpt>
      <trkpt lat="40.54899341426789760589599609375" lon="-1.6579674370586872100830078125">
        <ele>1438.4000244140625</ele>
        <time>2022-08-24T12:09:58.000Z</time>
      </trkpt>
      <trkpt lat="40.5489762313663959503173828125" lon="-1.65832425467669963836669921875">
        <ele>1438.800048828125</ele>
        <time>2022-08-24T12:10:07.000Z</time>
      </trkpt>
      <trkpt lat="40.548959635198116302490234375" lon="-1.65860706008970737457275390625">
        <ele>1439.199951171875</ele>
        <time>2022-08-24T12:10:13.000Z</time>
      </trkpt>
      <trkpt lat="40.54894831962883472442626953125" lon="-1.658811829984188079833984375">
        <ele>1439.5999755859375</ele>
        <time>2022-08-24T12:10:19.000Z</time>
      </trkpt>
      <trkpt lat="40.548946224153041839599609375" lon="-1.6589890234172344207763671875">
        <ele>1439.5999755859375</ele>
        <time>2022-08-24T12:10:23.000Z</time>
      </trkpt>
      <trkpt lat="40.5488793365657329559326171875" lon="-1.6592776961624622344970703125">
        <ele>1439.800048828125</ele>
        <time>2022-08-24T12:10:29.000Z</time>
      </trkpt>
      <trkpt lat="40.5487539432942867279052734375" lon="-1.6595308296382427215576171875">
        <ele>1440</ele>
        <time>2022-08-24T12:10:37.000Z</time>
      </trkpt>
      <trkpt lat="40.548601560294628143310546875" lon="-1.6598124615848064422607421875">
        <ele>1440.800048828125</ele>
        <time>2022-08-24T12:10:44.000Z</time>
      </trkpt>
      <trkpt lat="40.548539198935031890869140625" lon="-1.65991899557411670684814453125">
        <ele>1441.199951171875</ele>
        <time>2022-08-24T12:10:47.000Z</time>
      </trkpt>
      <trkpt lat="40.548440627753734588623046875" lon="-1.66012577712535858154296875">
        <ele>1441.4000244140625</ele>
        <time>2022-08-24T12:10:54.000Z</time>
      </trkpt>
      <trkpt lat="40.5483164079487323760986328125" lon="-1.66033473797142505645751953125">
        <ele>1441.4000244140625</ele>
        <time>2022-08-24T12:11:00.000Z</time>
      </trkpt>
      <trkpt lat="40.54819076322019100189208984375" lon="-1.66064470075070858001708984375">
        <ele>1441.5999755859375</ele>
        <time>2022-08-24T12:11:08.000Z</time>
      </trkpt>
      <trkpt lat="40.54814751259982585906982421875" lon="-1.66088861413300037384033203125">
        <ele>1441.800048828125</ele>
        <time>2022-08-24T12:11:14.000Z</time>
      </trkpt>
      <trkpt lat="40.5481480993330478668212890625" lon="-1.6609316132962703704833984375">
        <ele>1441.800048828125</ele>
        <time>2022-08-24T12:11:15.000Z</time>
      </trkpt>
      <trkpt lat="40.5481459200382232666015625" lon="-1.66101090610027313232421875">
        <ele>1442</ele>
        <time>2022-08-24T12:11:18.000Z</time>
      </trkpt>
      <trkpt lat="40.548118092119693756103515625" lon="-1.661191619932651519775390625">
        <ele>1442.4000244140625</ele>
        <time>2022-08-24T12:11:22.000Z</time>
      </trkpt>
      <trkpt lat="40.5479767732322216033935546875" lon="-1.6615253873169422149658203125">
        <ele>1443</ele>
        <time>2022-08-24T12:11:31.000Z</time>
      </trkpt>
      <trkpt lat="40.5479616858065128326416015625" lon="-1.661563776433467864990234375">
        <ele>1443</ele>
        <time>2022-08-24T12:11:32.000Z</time>
      </trkpt>
      <trkpt lat="40.54791466332972049713134765625" lon="-1.6617701388895511627197265625">
        <ele>1443.4000244140625</ele>
        <time>2022-08-24T12:11:37.000Z</time>
      </trkpt>
      <trkpt lat="40.547906197607517242431640625" lon="-1.66202067397534847259521484375">
        <ele>1444</ele>
        <time>2022-08-24T12:11:43.000Z</time>
      </trkpt>
      <trkpt lat="40.5478832311928272247314453125" lon="-1.66226609610021114349365234375">
        <ele>1444.4000244140625</ele>
        <time>2022-08-24T12:11:49.000Z</time>
      </trkpt>
      <trkpt lat="40.5478803813457489013671875" lon="-1.66233734227716922760009765625">
        <ele>1444.5999755859375</ele>
        <time>2022-08-24T12:11:51.000Z</time>
      </trkpt>
      <trkpt lat="40.5478589236736297607421875" lon="-1.66262601502239704132080078125">
        <ele>1444.800048828125</ele>
        <time>2022-08-24T12:12:00.000Z</time>
      </trkpt>
      <trkpt lat="40.54785422980785369873046875" lon="-1.66286657564342021942138671875">
        <ele>1445.4000244140625</ele>
        <time>2022-08-24T12:12:08.000Z</time>
      </trkpt>
      <trkpt lat="40.547850541770458221435546875" lon="-1.66292608715593814849853515625">
        <ele>1445.5999755859375</ele>
        <time>2022-08-24T12:12:10.000Z</time>
      </trkpt>
      <trkpt lat="40.54784777574241161346435546875" lon="-1.66309523396193981170654296875">
        <ele>1446.5999755859375</ele>
        <time>2022-08-24T12:12:17.000Z</time>
      </trkpt>
      <trkpt lat="40.547840483486652374267578125" lon="-1.66334484703838825225830078125">
        <ele>1447.800048828125</ele>
        <time>2022-08-24T12:12:25.000Z</time>
      </trkpt>
      <trkpt lat="40.547834448516368865966796875" lon="-1.66339664719998836517333984375">
        <ele>1448</ele>
        <time>2022-08-24T12:12:27.000Z</time>
      </trkpt>
      <trkpt lat="40.547815002501010894775390625" lon="-1.66359278373420238494873046875">
        <ele>1448.5999755859375</ele>
        <time>2022-08-24T12:12:35.000Z</time>
      </trkpt>
      <trkpt lat="40.54781240411102771759033203125" lon="-1.663637124001979827880859375">
        <ele>1449</ele>
        <time>2022-08-24T12:12:37.000Z</time>
      </trkpt>
      <trkpt lat="40.54776764474809169769287109375" lon="-1.66383351199328899383544921875">
        <ele>1449.800048828125</ele>
        <time>2022-08-24T12:12:45.000Z</time>
      </trkpt>
      <trkpt lat="40.547752641141414642333984375" lon="-1.66388179175555706024169921875">
        <ele>1450.4000244140625</ele>
        <time>2022-08-24T12:12:47.000Z</time>
      </trkpt>
      <trkpt lat="40.5476840771734714508056640625" lon="-1.6640402935445308685302734375">
        <ele>1451.4000244140625</ele>
        <time>2022-08-24T12:12:54.000Z</time>
      </trkpt>
      <trkpt lat="40.54767183959484100341796875" lon="-1.66406099684536457061767578125">
        <ele>1451.4000244140625</ele>
        <time>2022-08-24T12:12:55.000Z</time>
      </trkpt>
      <trkpt lat="40.54758332669734954833984375" lon="-1.66420734487473964691162109375">
        <ele>1452.4000244140625</ele>
        <time>2022-08-24T12:13:02.000Z</time>
      </trkpt>
      <trkpt lat="40.54757134057581424713134765625" lon="-1.66422863490879535675048828125">
        <ele>1452.5999755859375</ele>
        <time>2022-08-24T12:13:03.000Z</time>
      </trkpt>
      <trkpt lat="40.54750260896980762481689453125" lon="-1.66436207480728626251220703125">
        <ele>1453.4000244140625</ele>
        <time>2022-08-24T12:13:09.000Z</time>
      </trkpt>
      <trkpt lat="40.5474485456943511962890625" lon="-1.6644959338009357452392578125">
        <ele>1454.199951171875</ele>
        <time>2022-08-24T12:13:15.000Z</time>
      </trkpt>
      <trkpt lat="40.5474309436976909637451171875" lon="-1.6645629890263080596923828125">
        <ele>1454.4000244140625</ele>
        <time>2022-08-24T12:13:18.000Z</time>
      </trkpt>
      <trkpt lat="40.5474232323467731475830078125" lon="-1.6647339798510074615478515625">
        <ele>1455.5999755859375</ele>
        <time>2022-08-24T12:13:26.000Z</time>
      </trkpt>
      <trkpt lat="40.5474674887955188751220703125" lon="-1.6649220697581768035888671875">
        <ele>1456.800048828125</ele>
        <time>2022-08-24T12:13:33.000Z</time>
      </trkpt>
      <trkpt lat="40.54748433642089366912841796875" lon="-1.664974205195903778076171875">
        <ele>1457</ele>
        <time>2022-08-24T12:13:35.000Z</time>
      </trkpt>
      <trkpt lat="40.54759061895310878753662109375" lon="-1.66524770669639110565185546875">
        <ele>1458.199951171875</ele>
        <time>2022-08-24T12:13:45.000Z</time>
      </trkpt>
      <trkpt lat="40.54772087372839450836181640625" lon="-1.66555565781891345977783203125">
        <ele>1459.199951171875</ele>
        <time>2022-08-24T12:13:56.000Z</time>
      </trkpt>
      <trkpt lat="40.54785959422588348388671875" lon="-1.66588322259485721588134765625">
        <ele>1460</ele>
        <time>2022-08-24T12:14:07.000Z</time>
      </trkpt>
      <trkpt lat="40.547983981668949127197265625" lon="-1.66616351343691349029541015625">
        <ele>1460.5999755859375</ele>
        <time>2022-08-24T12:14:17.000Z</time>
      </trkpt>
      <trkpt lat="40.547996722161769866943359375" lon="-1.66619016788899898529052734375">
        <ele>1460.5999755859375</ele>
        <time>2022-08-24T12:14:18.000Z</time>
      </trkpt>
      <trkpt lat="40.54815069772303104400634765625" lon="-1.666526533663272857666015625">
        <ele>1461.199951171875</ele>
        <time>2022-08-24T12:14:30.000Z</time>
      </trkpt>
      <trkpt lat="40.54826728999614715576171875" lon="-1.6667831875383853912353515625">
        <ele>1461.800048828125</ele>
        <time>2022-08-24T12:14:39.000Z</time>
      </trkpt>
      <trkpt lat="40.54827659390866756439208984375" lon="-1.6668173857033252716064453125">
        <ele>1461.800048828125</ele>
        <time>2022-08-24T12:14:40.000Z</time>
      </trkpt>
      <trkpt lat="40.548321940004825592041015625" lon="-1.66710027493536472320556640625">
        <ele>1462.199951171875</ele>
        <time>2022-08-24T12:14:48.000Z</time>
      </trkpt>
      <trkpt lat="40.5482800304889678955078125" lon="-1.66738509200513362884521484375">
        <ele>1462.5999755859375</ele>
        <time>2022-08-24T12:14:56.000Z</time>
      </trkpt>
      <trkpt lat="40.54826888255774974822998046875" lon="-1.667417697608470916748046875">
        <ele>1462.800048828125</ele>
        <time>2022-08-24T12:14:57.000Z</time>
      </trkpt>
      <trkpt lat="40.5481692217290401458740234375" lon="-1.66762313805520534515380859375">
        <ele>1463.800048828125</ele>
        <time>2022-08-24T12:15:04.000Z</time>
      </trkpt>
      <trkpt lat="40.54815572686493396759033203125" lon="-1.66765415109694004058837890625">
        <ele>1464</ele>
        <time>2022-08-24T12:15:05.000Z</time>
      </trkpt>
      <trkpt lat="40.54803066886961460113525390625" lon="-1.6679341904819011688232421875">
        <ele>1465</ele>
        <time>2022-08-24T12:15:15.000Z</time>
      </trkpt>
      <trkpt lat="40.547951795160770416259765625" lon="-1.668198890984058380126953125">
        <ele>1465.5999755859375</ele>
        <time>2022-08-24T12:15:23.000Z</time>
      </trkpt>
      <trkpt lat="40.54794081486761569976806640625" lon="-1.66849301196634769439697265625">
        <ele>1465.4000244140625</ele>
        <time>2022-08-24T12:15:30.000Z</time>
      </trkpt>
      <trkpt lat="40.54799965582787990570068359375" lon="-1.66881755925714969635009765625">
        <ele>1465.5999755859375</ele>
        <time>2022-08-24T12:15:37.000Z</time>
      </trkpt>
      <trkpt lat="40.5481137335300445556640625" lon="-1.66918770410120487213134765625">
        <ele>1465.4000244140625</ele>
        <time>2022-08-24T12:15:45.000Z</time>
      </trkpt>
      <trkpt lat="40.548269636929035186767578125" lon="-1.6696389019489288330078125">
        <ele>1465.199951171875</ele>
        <time>2022-08-24T12:15:55.000Z</time>
      </trkpt>
      <trkpt lat="40.5483888275921344757080078125" lon="-1.6699807159602642059326171875">
        <ele>1465.4000244140625</ele>
        <time>2022-08-24T12:16:03.000Z</time>
      </trkpt>
      <trkpt lat="40.54842562414705753326416015625" lon="-1.6702445782721042633056640625">
        <ele>1466.199951171875</ele>
        <time>2022-08-24T12:16:10.000Z</time>
      </trkpt>
      <trkpt lat="40.54840601049363613128662109375" lon="-1.67054087854921817779541015625">
        <ele>1466.4000244140625</ele>
        <time>2022-08-24T12:16:16.000Z</time>
      </trkpt>
      <trkpt lat="40.54835714399814605712890625" lon="-1.67099031619727611541748046875">
        <ele>1466.199951171875</ele>
        <time>2022-08-24T12:16:25.000Z</time>
      </trkpt>
      <trkpt lat="40.54834599606692790985107421875" lon="-1.671105735003948211669921875">
        <ele>1466</ele>
        <time>2022-08-24T12:16:26.000Z</time>
      </trkpt>
      <trkpt lat="40.54835379123687744140625" lon="-1.6713979281485080718994140625">
        <ele>1465.5999755859375</ele>
        <time>2022-08-24T12:16:31.000Z</time>
      </trkpt>
      <trkpt lat="40.54839377291500568389892578125" lon="-1.6719858348369598388671875">
        <ele>1464.800048828125</ele>
        <time>2022-08-24T12:16:40.000Z</time>
      </trkpt>
      <trkpt lat="40.54840098135173320770263671875" lon="-1.67244784533977508544921875">
        <ele>1464.4000244140625</ele>
        <time>2022-08-24T12:16:48.000Z</time>
      </trkpt>
      <trkpt lat="40.5484384484589099884033203125" lon="-1.67296006344258785247802734375">
        <ele>1464.5999755859375</ele>
        <time>2022-08-24T12:16:57.000Z</time>
      </trkpt>
      <trkpt lat="40.548490583896636962890625" lon="-1.67338100261986255645751953125">
        <ele>1465</ele>
        <time>2022-08-24T12:17:05.000Z</time>
      </trkpt>
      <trkpt lat="40.54848496802151203155517578125" lon="-1.67380412109196186065673828125">
        <ele>1466</ele>
        <time>2022-08-24T12:17:14.000Z</time>
      </trkpt>
      <trkpt lat="40.54846585728228092193603515625" lon="-1.673894226551055908203125">
        <ele>1466.5999755859375</ele>
        <time>2022-08-24T12:17:16.000Z</time>
      </trkpt>
      <trkpt lat="40.548381619155406951904296875" lon="-1.67423210106790065765380859375">
        <ele>1467.199951171875</ele>
        <time>2022-08-24T12:17:24.000Z</time>
      </trkpt>
      <trkpt lat="40.5483459122478961944580078125" lon="-1.674397476017475128173828125">
        <ele>1467.800048828125</ele>
        <time>2022-08-24T12:17:28.000Z</time>
      </trkpt>
      <trkpt lat="40.5483026616275310516357421875" lon="-1.67460945434868335723876953125">
        <ele>1468.199951171875</ele>
        <time>2022-08-24T12:17:33.000Z</time>
      </trkpt>
      <trkpt lat="40.54825061000883579254150390625" lon="-1.67490416206419467926025390625">
        <ele>1468.800048828125</ele>
        <time>2022-08-24T12:17:41.000Z</time>
      </trkpt>
      <trkpt lat="40.54820149205625057220458984375" lon="-1.6752013005316257476806640625">
        <ele>1469.800048828125</ele>
        <time>2022-08-24T12:17:50.000Z</time>
      </trkpt>
      <trkpt lat="40.5481950379908084869384765625" lon="-1.675229966640472412109375">
        <ele>1469.800048828125</ele>
        <time>2022-08-24T12:17:51.000Z</time>
      </trkpt>
      <trkpt lat="40.5481457524001598358154296875" lon="-1.67544228024780750274658203125">
        <ele>1470.800048828125</ele>
        <time>2022-08-24T12:17:58.000Z</time>
      </trkpt>
      <trkpt lat="40.54813628084957599639892578125" lon="-1.67547413147985935211181640625">
        <ele>1471</ele>
        <time>2022-08-24T12:17:59.000Z</time>
      </trkpt>
      <trkpt lat="40.54806285537779331207275390625" lon="-1.67574872262775897979736328125">
        <ele>1472</ele>
        <time>2022-08-24T12:18:08.000Z</time>
      </trkpt>
      <trkpt lat="40.54803469218313694000244140625" lon="-1.67584176175296306610107421875">
        <ele>1472.5999755859375</ele>
        <time>2022-08-24T12:18:11.000Z</time>
      </trkpt>
      <trkpt lat="40.54802547208964824676513671875" lon="-1.6758731938898563385009765625">
        <ele>1473</ele>
        <time>2022-08-24T12:18:12.000Z</time>
      </trkpt>
      <trkpt lat="40.5479539744555950164794921875" lon="-1.67605541646480560302734375">
        <ele>1473.4000244140625</ele>
        <time>2022-08-24T12:18:18.000Z</time>
      </trkpt>
      <trkpt lat="40.54787526838481426239013671875" lon="-1.67632724158465862274169921875">
        <ele>1473.5999755859375</ele>
        <time>2022-08-24T12:18:27.000Z</time>
      </trkpt>
      <trkpt lat="40.54783654399216175079345703125" lon="-1.67652823962271213531494140625">
        <ele>1474</ele>
        <time>2022-08-24T12:18:34.000Z</time>
      </trkpt>
      <trkpt lat="40.5478074587881565093994140625" lon="-1.67664944194257259368896484375">
        <ele>1474.800048828125</ele>
        <time>2022-08-24T12:18:38.000Z</time>
      </trkpt>
      <trkpt lat="40.5477927066385746002197265625" lon="-1.6767083667218685150146484375">
        <ele>1475.199951171875</ele>
        <time>2022-08-24T12:18:40.000Z</time>
      </trkpt>
      <trkpt lat="40.54773897863924503326416015625" lon="-1.676852703094482421875">
        <ele>1476.4000244140625</ele>
        <time>2022-08-24T12:18:45.000Z</time>
      </trkpt>
      <trkpt lat="40.54772020317614078521728515625" lon="-1.67691347189247608184814453125">
        <ele>1476.800048828125</ele>
        <time>2022-08-24T12:18:47.000Z</time>
      </trkpt>
      <trkpt lat="40.54763697087764739990234375" lon="-1.6771378554403781890869140625">
        <ele>1477.4000244140625</ele>
        <time>2022-08-24T12:18:54.000Z</time>
      </trkpt>
      <trkpt lat="40.547609813511371612548828125" lon="-1.67721186764538288116455078125">
        <ele>1477.4000244140625</ele>
        <time>2022-08-24T12:18:56.000Z</time>
      </trkpt>
      <trkpt lat="40.54746891371905803680419921875" lon="-1.67761000804603099822998046875">
        <ele>1477.5999755859375</ele>
        <time>2022-08-24T12:19:06.000Z</time>
      </trkpt>
      <trkpt lat="40.547315776348114013671875" lon="-1.6779338009655475616455078125">
        <ele>1477.199951171875</ele>
        <time>2022-08-24T12:19:14.000Z</time>
      </trkpt>
      <trkpt lat="40.54721779190003871917724609375" lon="-1.6780816577374935150146484375">
        <ele>1476.800048828125</ele>
        <time>2022-08-24T12:19:19.000Z</time>
      </trkpt>
      <trkpt lat="40.5471060611307621002197265625" lon="-1.67828173376619815826416015625">
        <ele>1476.800048828125</ele>
        <time>2022-08-24T12:19:25.000Z</time>
      </trkpt>
      <trkpt lat="40.547085441648960113525390625" lon="-1.678314171731472015380859375">
        <ele>1476.800048828125</ele>
        <time>2022-08-24T12:19:26.000Z</time>
      </trkpt>
      <trkpt lat="40.5469219945371150970458984375" lon="-1.67850695550441741943359375">
        <ele>1477</ele>
        <time>2022-08-24T12:19:33.000Z</time>
      </trkpt>
      <trkpt lat="40.54667213000357151031494140625" lon="-1.67881901375949382781982421875">
        <ele>1478</ele>
        <time>2022-08-24T12:19:45.000Z</time>
      </trkpt>
      <trkpt lat="40.54654221050441265106201171875" lon="-1.67904817499220371246337890625">
        <ele>1478.4000244140625</ele>
        <time>2022-08-24T12:19:53.000Z</time>
      </trkpt>
      <trkpt lat="40.54651035927236080169677734375" lon="-1.6791059263050556182861328125">
        <ele>1478.800048828125</ele>
        <time>2022-08-24T12:19:55.000Z</time>
      </trkpt>
      <trkpt lat="40.54645545780658721923828125" lon="-1.67922000400722026824951171875">
        <ele>1479.5999755859375</ele>
        <time>2022-08-24T12:19:59.000Z</time>
      </trkpt>
      <trkpt lat="40.54637876339256763458251953125" lon="-1.679371297359466552734375">
        <ele>1480.4000244140625</ele>
        <time>2022-08-24T12:20:05.000Z</time>
      </trkpt>
      <trkpt lat="40.54636602289974689483642578125" lon="-1.67939585633575916290283203125">
        <ele>1480.5999755859375</ele>
        <time>2022-08-24T12:20:06.000Z</time>
      </trkpt>
      <trkpt lat="40.5462554655969142913818359375" lon="-1.67961495928466320037841796875">
        <ele>1481.800048828125</ele>
        <time>2022-08-24T12:20:15.000Z</time>
      </trkpt>
      <trkpt lat="40.54617625661194324493408203125" lon="-1.6797610558569431304931640625">
        <ele>1482.800048828125</ele>
        <time>2022-08-24T12:20:21.000Z</time>
      </trkpt>
      <trkpt lat="40.5461396276950836181640625" lon="-1.67983330786228179931640625">
        <ele>1483.199951171875</ele>
        <time>2022-08-24T12:20:24.000Z</time>
      </trkpt>
      <trkpt lat="40.546074919402599334716796875" lon="-1.67995694093406200408935546875">
        <ele>1484</ele>
        <time>2022-08-24T12:20:29.000Z</time>
      </trkpt>
      <trkpt lat="40.54601046256721019744873046875" lon="-1.68007914908230304718017578125">
        <ele>1484.4000244140625</ele>
        <time>2022-08-24T12:20:34.000Z</time>
      </trkpt>
      <trkpt lat="40.54593670181930065155029296875" lon="-1.68019750155508518218994140625">
        <ele>1485</ele>
        <time>2022-08-24T12:20:39.000Z</time>
      </trkpt>
      <trkpt lat="40.54587082006037235260009765625" lon="-1.68031635694205760955810546875">
        <ele>1485.4000244140625</ele>
        <time>2022-08-24T12:20:44.000Z</time>
      </trkpt>
      <trkpt lat="40.5457411520183086395263671875" lon="-1.680570580065250396728515625">
        <ele>1485.800048828125</ele>
        <time>2022-08-24T12:20:53.000Z</time>
      </trkpt>
      <trkpt lat="40.54570988751947879791259765625" lon="-1.6806347854435443878173828125">
        <ele>1486</ele>
        <time>2022-08-24T12:20:55.000Z</time>
      </trkpt>
      <trkpt lat="40.54561114870011806488037109375" lon="-1.680875681340694427490234375">
        <ele>1486.199951171875</ele>
        <time>2022-08-24T12:21:03.000Z</time>
      </trkpt>
      <trkpt lat="40.54544292390346527099609375" lon="-1.6813314892351627349853515625">
        <ele>1486.4000244140625</ele>
        <time>2022-08-24T12:21:15.000Z</time>
      </trkpt>
      <trkpt lat="40.5453549139201641082763671875" lon="-1.681688725948333740234375">
        <ele>1486.4000244140625</ele>
        <time>2022-08-24T12:21:24.000Z</time>
      </trkpt>
      <trkpt lat="40.54523295722901821136474609375" lon="-1.68212349526584148406982421875">
        <ele>1486.199951171875</ele>
        <time>2022-08-24T12:21:36.000Z</time>
      </trkpt>
      <trkpt lat="40.54509465582668781280517578125" lon="-1.68239775113761425018310546875">
        <ele>1486</ele>
        <time>2022-08-24T12:21:44.000Z</time>
      </trkpt>
      <trkpt lat="40.54485954344272613525390625" lon="-1.6826655529439449310302734375">
        <ele>1485.4000244140625</ele>
        <time>2022-08-24T12:21:53.000Z</time>
      </trkpt>
      <trkpt lat="40.5448065698146820068359375" lon="-1.68272514827549457550048828125">
        <ele>1485.4000244140625</ele>
        <time>2022-08-24T12:21:55.000Z</time>
      </trkpt>
      <trkpt lat="40.54475485347211360931396484375" lon="-1.68278918601572513580322265625">
        <ele>1485</ele>
        <time>2022-08-24T12:21:58.000Z</time>
      </trkpt>
      <trkpt lat="40.54463557898998260498046875" lon="-1.68295430950820446014404296875">
        <ele>1484.800048828125</ele>
        <time>2022-08-24T12:22:03.000Z</time>
      </trkpt>
      <trkpt lat="40.544461570680141448974609375" lon="-1.683274246752262115478515625">
        <ele>1485</ele>
        <time>2022-08-24T12:22:13.000Z</time>
      </trkpt>
      <trkpt lat="40.54433357901871204376220703125" lon="-1.6835711337625980377197265625">
        <ele>1485.4000244140625</ele>
        <time>2022-08-24T12:22:22.000Z</time>
      </trkpt>
      <trkpt lat="40.54418320767581462860107421875" lon="-1.68377892114222049713134765625">
        <ele>1485.800048828125</ele>
        <time>2022-08-24T12:22:30.000Z</time>
      </trkpt>
      <trkpt lat="40.54405613802373409271240234375" lon="-1.68375913985073566436767578125">
        <ele>1486</ele>
        <time>2022-08-24T12:22:35.000Z</time>
      </trkpt>
      <trkpt lat="40.54397282190620899200439453125" lon="-1.683710105717182159423828125">
        <ele>1486.199951171875</ele>
        <time>2022-08-24T12:22:39.000Z</time>
      </trkpt>
      <trkpt lat="40.54390073753893375396728515625" lon="-1.68365805409848690032958984375">
        <ele>1486.4000244140625</ele>
        <time>2022-08-24T12:22:44.000Z</time>
      </trkpt>
      <trkpt lat="40.5437633581459522247314453125" lon="-1.6835704632103443145751953125">
        <ele>1487</ele>
        <time>2022-08-24T12:22:52.000Z</time>
      </trkpt>
      <trkpt lat="40.5437241308391094207763671875" lon="-1.683555208146572113037109375">
        <ele>1487.4000244140625</ele>
        <time>2022-08-24T12:22:54.000Z</time>
      </trkpt>
      <trkpt lat="40.543638132512569427490234375" lon="-1.683546490967273712158203125">
        <ele>1487.800048828125</ele>
        <time>2022-08-24T12:22:59.000Z</time>
      </trkpt>
      <trkpt lat="40.54353578947484493255615234375" lon="-1.6835731454193592071533203125">
        <ele>1488.4000244140625</ele>
        <time>2022-08-24T12:23:05.000Z</time>
      </trkpt>
      <trkpt lat="40.543487258255481719970703125" lon="-1.6836016438901424407958984375">
        <ele>1488.800048828125</ele>
        <time>2022-08-24T12:23:08.000Z</time>
      </trkpt>
      <trkpt lat="40.54342766292393207550048828125" lon="-1.683649085462093353271484375">
        <ele>1489.5999755859375</ele>
        <time>2022-08-24T12:23:12.000Z</time>
      </trkpt>
      <trkpt lat="40.543333031237125396728515625" lon="-1.6837230138480663299560546875">
        <ele>1490.199951171875</ele>
        <time>2022-08-24T12:23:18.000Z</time>
      </trkpt>
      <trkpt lat="40.5431850068271160125732421875" lon="-1.683850586414337158203125">
        <ele>1490.5999755859375</ele>
        <time>2022-08-24T12:23:27.000Z</time>
      </trkpt>
      <trkpt lat="40.5431685782968997955322265625" lon="-1.683860979974269866943359375">
        <ele>1491</ele>
        <time>2022-08-24T12:23:29.000Z</time>
      </trkpt>
      <trkpt lat="40.54302231408655643463134765625" lon="-1.683978326618671417236328125">
        <ele>1491.4000244140625</ele>
        <time>2022-08-24T12:23:38.000Z</time>
      </trkpt>
      <trkpt lat="40.54296380840241909027099609375" lon="-1.684011854231357574462890625">
        <ele>1491.5999755859375</ele>
        <time>2022-08-24T12:23:43.000Z</time>
      </trkpt>
      <trkpt lat="40.5428366549313068389892578125" lon="-1.68410464189946651458740234375">
        <ele>1492.5999755859375</ele>
        <time>2022-08-24T12:23:52.000Z</time>
      </trkpt>
      <trkpt lat="40.5428366549313068389892578125" lon="-1.68410464189946651458740234375">
        <ele>1492.800048828125</ele>
        <time>2022-08-24T12:23:53.000Z</time>
      </trkpt>
      <trkpt lat="40.54268452338874340057373046875" lon="-1.68417806737124919891357421875">
        <ele>1493.5999755859375</ele>
        <time>2022-08-24T12:24:04.000Z</time>
      </trkpt>
      <trkpt lat="40.54268452338874340057373046875" lon="-1.68417806737124919891357421875">
        <ele>1493.800048828125</ele>
        <time>2022-08-24T12:24:05.000Z</time>
      </trkpt>
      <trkpt lat="40.542578659951686859130859375" lon="-1.68423875235021114349365234375">
        <ele>1494.800048828125</ele>
        <time>2022-08-24T12:24:13.000Z</time>
      </trkpt>
      <trkpt lat="40.542578659951686859130859375" lon="-1.68423875235021114349365234375">
        <ele>1495</ele>
        <time>2022-08-24T12:24:14.000Z</time>
      </trkpt>
      <trkpt lat="40.54249257780611515045166015625" lon="-1.68427295051515102386474609375">
        <ele>1496.199951171875</ele>
        <time>2022-08-24T12:24:20.000Z</time>
      </trkpt>
      <trkpt lat="40.54245100356638431549072265625" lon="-1.68429021723568439483642578125">
        <ele>1497</ele>
        <time>2022-08-24T12:24:25.000Z</time>
      </trkpt>
      <trkpt lat="40.542428456246852874755859375" lon="-1.68429776094853878021240234375">
        <ele>1497.199951171875</ele>
        <time>2022-08-24T12:24:27.000Z</time>
      </trkpt>
      <trkpt lat="40.5423308908939361572265625" lon="-1.68433899991214275360107421875">
        <ele>1498.199951171875</ele>
        <time>2022-08-24T12:24:35.000Z</time>
      </trkpt>
      <trkpt lat="40.54230482317507266998291015625" lon="-1.684346459805965423583984375">
        <ele>1498.199951171875</ele>
        <time>2022-08-24T12:24:36.000Z</time>
      </trkpt>
      <trkpt lat="40.54221580736339092254638671875" lon="-1.68436800129711627960205078125">
        <ele>1499</ele>
        <time>2022-08-24T12:24:44.000Z</time>
      </trkpt>
      <trkpt lat="40.54220424033701419830322265625" lon="-1.68437336571514606475830078125">
        <ele>1499.4000244140625</ele>
        <time>2022-08-24T12:24:45.000Z</time>
      </trkpt>
      <trkpt lat="40.54209359921514987945556640625" lon="-1.6844167001545429229736328125">
        <ele>1500.4000244140625</ele>
        <time>2022-08-24T12:24:53.000Z</time>
      </trkpt>
      <trkpt lat="40.54209359921514987945556640625" lon="-1.6844167001545429229736328125">
        <ele>1500.4000244140625</ele>
        <time>2022-08-24T12:24:54.000Z</time>
      </trkpt>
      <trkpt lat="40.54198832251131534576416015625" lon="-1.68445207178592681884765625">
        <ele>1501.5999755859375</ele>
        <time>2022-08-24T12:25:02.000Z</time>
      </trkpt>
      <trkpt lat="40.541951693594455718994140625" lon="-1.6844703443348407745361328125">
        <ele>1501.800048828125</ele>
        <time>2022-08-24T12:25:05.000Z</time>
      </trkpt>
      <trkpt lat="40.54185806773602962493896484375" lon="-1.684500686824321746826171875">
        <ele>1502.5999755859375</ele>
        <time>2022-08-24T12:25:13.000Z</time>
      </trkpt>
      <trkpt lat="40.54183459840714931488037109375" lon="-1.6845112480223178863525390625">
        <ele>1503</ele>
        <time>2022-08-24T12:25:15.000Z</time>
      </trkpt>
      <trkpt lat="40.54174415767192840576171875" lon="-1.68453815393149852752685546875">
        <ele>1503.5999755859375</ele>
        <time>2022-08-24T12:25:21.000Z</time>
      </trkpt>
      <trkpt lat="40.541709624230861663818359375" lon="-1.68455759994685649871826171875">
        <ele>1504</ele>
        <time>2022-08-24T12:25:24.000Z</time>
      </trkpt>
      <trkpt lat="40.54161247797310352325439453125" lon="-1.6845930553972721099853515625">
        <ele>1504.800048828125</ele>
        <time>2022-08-24T12:25:31.000Z</time>
      </trkpt>
      <trkpt lat="40.54157408885657787322998046875" lon="-1.68461074121296405792236328125">
        <ele>1505</ele>
        <time>2022-08-24T12:25:34.000Z</time>
      </trkpt>
      <trkpt lat="40.5414898507297039031982421875" lon="-1.6846420057117938995361328125">
        <ele>1505.800048828125</ele>
        <time>2022-08-24T12:25:42.000Z</time>
      </trkpt>
      <trkpt lat="40.5414791218936443328857421875" lon="-1.68464384973049163818359375">
        <ele>1505.800048828125</ele>
        <time>2022-08-24T12:25:43.000Z</time>
      </trkpt>
      <trkpt lat="40.54136806167662143707275390625" lon="-1.68468014337122440338134765625">
        <ele>1506.800048828125</ele>
        <time>2022-08-24T12:25:51.000Z</time>
      </trkpt>
      <trkpt lat="40.54136806167662143707275390625" lon="-1.68468014337122440338134765625">
        <ele>1506.800048828125</ele>
        <time>2022-08-24T12:25:52.000Z</time>
      </trkpt>
      <trkpt lat="40.54130720905959606170654296875" lon="-1.6847197897732257843017578125">
        <ele>1507.800048828125</ele>
        <time>2022-08-24T12:25:57.000Z</time>
      </trkpt>
      <trkpt lat="40.54124057292938232421875" lon="-1.6847358830273151397705078125">
        <ele>1508.199951171875</ele>
        <time>2022-08-24T12:26:02.000Z</time>
      </trkpt>
      <trkpt lat="40.5411753617227077484130859375" lon="-1.6847328655421733856201171875">
        <ele>1508.800048828125</ele>
        <time>2022-08-24T12:26:06.000Z</time>
      </trkpt>
      <trkpt lat="40.54112783633172512054443359375" lon="-1.68475356884300708770751953125">
        <ele>1509.800048828125</ele>
        <time>2022-08-24T12:26:11.000Z</time>
      </trkpt>
      <trkpt lat="40.54110067896544933319091796875" lon="-1.68476454913616180419921875">
        <ele>1510.199951171875</ele>
        <time>2022-08-24T12:26:13.000Z</time>
      </trkpt>
      <trkpt lat="40.54103161208331584930419921875" lon="-1.68478122912347316741943359375">
        <ele>1511</ele>
        <time>2022-08-24T12:26:18.000Z</time>
      </trkpt>
      <trkpt lat="40.54097495041787624359130859375" lon="-1.68481039814651012420654296875">
        <ele>1511.5999755859375</ele>
        <time>2022-08-24T12:26:22.000Z</time>
      </trkpt>
      <trkpt lat="40.540941171348094940185546875" lon="-1.68481894768774509429931640625">
        <ele>1512</ele>
        <time>2022-08-24T12:26:26.000Z</time>
      </trkpt>
      <trkpt lat="40.5408726073801517486572265625" lon="-1.684812493622303009033203125">
        <ele>1512.5999755859375</ele>
        <time>2022-08-24T12:26:31.000Z</time>
      </trkpt>
      <trkpt lat="40.54082005284726619720458984375" lon="-1.68481509201228618621826171875">
        <ele>1513.199951171875</ele>
        <time>2022-08-24T12:26:35.000Z</time>
      </trkpt>
      <trkpt lat="40.5407680012285709381103515625" lon="-1.68480386026203632354736328125">
        <ele>1514.199951171875</ele>
        <time>2022-08-24T12:26:40.000Z</time>
      </trkpt>
      <trkpt lat="40.54071821272373199462890625" lon="-1.68476714752614498138427734375">
        <ele>1515.199951171875</ele>
        <time>2022-08-24T12:26:45.000Z</time>
      </trkpt>
      <trkpt lat="40.5406801588833332061767578125" lon="-1.68473077006638050079345703125">
        <ele>1515.5999755859375</ele>
        <time>2022-08-24T12:26:49.000Z</time>
      </trkpt>
      <trkpt lat="40.54063464514911174774169921875" lon="-1.68467997573316097259521484375">
        <ele>1516.199951171875</ele>
        <time>2022-08-24T12:26:54.000Z</time>
      </trkpt>
      <trkpt lat="40.54062475450336933135986328125" lon="-1.68467125855386257171630859375">
        <ele>1516.199951171875</ele>
        <time>2022-08-24T12:26:55.000Z</time>
      </trkpt>
      <trkpt lat="40.54060732014477252960205078125" lon="-1.6846544109284877777099609375">
        <ele>1516.4000244140625</ele>
        <time>2022-08-24T12:26:56.000Z</time>
      </trkpt>
      <trkpt lat="40.540541522204875946044921875" lon="-1.68459481559693813323974609375">
        <ele>1517.199951171875</ele>
        <time>2022-08-24T12:27:05.000Z</time>
      </trkpt>
      <trkpt lat="40.540531463921070098876953125" lon="-1.68458484113216400146484375">
        <ele>1517.4000244140625</ele>
        <time>2022-08-24T12:27:06.000Z</time>
      </trkpt>
      <trkpt lat="40.54043523967266082763671875" lon="-1.68451376259326934814453125">
        <ele>1518.199951171875</ele>
        <time>2022-08-24T12:27:15.000Z</time>
      </trkpt>
      <trkpt lat="40.54042258299887180328369140625" lon="-1.68450412340462207794189453125">
        <ele>1518.4000244140625</ele>
        <time>2022-08-24T12:27:16.000Z</time>
      </trkpt>
      <trkpt lat="40.5402986146509647369384765625" lon="-1.684450395405292510986328125">
        <ele>1519.4000244140625</ele>
        <time>2022-08-24T12:27:26.000Z</time>
      </trkpt>
      <trkpt lat="40.5402602255344390869140625" lon="-1.68443891219794750213623046875">
        <ele>1519.5999755859375</ele>
        <time>2022-08-24T12:27:29.000Z</time>
      </trkpt>
      <trkpt lat="40.54019576869904994964599609375" lon="-1.68439180590212345123291015625">
        <ele>1520.4000244140625</ele>
        <time>2022-08-24T12:27:34.000Z</time>
      </trkpt>
      <trkpt lat="40.5401148833334445953369140625" lon="-1.68433807790279388427734375">
        <ele>1521.4000244140625</ele>
        <time>2022-08-24T12:27:41.000Z</time>
      </trkpt>
      <trkpt lat="40.5401028133928775787353515625" lon="-1.68433464132249355316162109375">
        <ele>1521.4000244140625</ele>
        <time>2022-08-24T12:27:42.000Z</time>
      </trkpt>
      <trkpt lat="40.539960153400897979736328125" lon="-1.68430916033685207366943359375">
        <ele>1522.4000244140625</ele>
        <time>2022-08-24T12:27:52.000Z</time>
      </trkpt>
      <trkpt lat="40.539960153400897979736328125" lon="-1.68430916033685207366943359375">
        <ele>1522.5999755859375</ele>
        <time>2022-08-24T12:27:53.000Z</time>
      </trkpt>
      <trkpt lat="40.539864599704742431640625" lon="-1.6842986829578876495361328125">
        <ele>1523.4000244140625</ele>
        <time>2022-08-24T12:28:02.000Z</time>
      </trkpt>
      <trkpt lat="40.53981564939022064208984375" lon="-1.6843161173164844512939453125">
        <ele>1523.5999755859375</ele>
        <time>2022-08-24T12:28:05.000Z</time>
      </trkpt>
      <trkpt lat="40.5397346802055835723876953125" lon="-1.6843258403241634368896484375">
        <ele>1524.199951171875</ele>
        <time>2022-08-24T12:28:10.000Z</time>
      </trkpt>
      <trkpt lat="40.5396755039691925048828125" lon="-1.6843281872570514678955078125">
        <ele>1524.5999755859375</ele>
        <time>2022-08-24T12:28:15.000Z</time>
      </trkpt>
      <trkpt lat="40.5396334268152713775634765625" lon="-1.6843358986079692840576171875">
        <ele>1525</ele>
        <time>2022-08-24T12:28:19.000Z</time>
      </trkpt>
      <trkpt lat="40.53956829942762851715087890625" lon="-1.6843446157872676849365234375">
        <ele>1525.5999755859375</ele>
        <time>2022-08-24T12:28:24.000Z</time>
      </trkpt>
      <trkpt lat="40.539518259465694427490234375" lon="-1.68434117920696735382080078125">
        <ele>1526.4000244140625</ele>
        <time>2022-08-24T12:28:28.000Z</time>
      </trkpt>
      <trkpt lat="40.53948146291077136993408203125" lon="-1.68434503488242626190185546875">
        <ele>1526.800048828125</ele>
        <time>2022-08-24T12:28:31.000Z</time>
      </trkpt>
      <trkpt lat="40.53942765109241008758544921875" lon="-1.68434956111013889312744140625">
        <ele>1527.199951171875</ele>
        <time>2022-08-24T12:28:35.000Z</time>
      </trkpt>
      <trkpt lat="40.53935372270643711090087890625" lon="-1.6843395866453647613525390625">
        <ele>1527.800048828125</ele>
        <time>2022-08-24T12:28:41.000Z</time>
      </trkpt>
      <trkpt lat="40.5393427424132823944091796875" lon="-1.68433883227407932281494140625">
        <ele>1528</ele>
        <time>2022-08-24T12:28:42.000Z</time>
      </trkpt>
      <trkpt lat="40.53931684233248233795166015625" lon="-1.68433799408376216888427734375">
        <ele>1528.199951171875</ele>
        <time>2022-08-24T12:28:44.000Z</time>
      </trkpt>
      <trkpt lat="40.5392495356500148773193359375" lon="-1.684321649372577667236328125">
        <ele>1529</ele>
        <time>2022-08-24T12:28:50.000Z</time>
      </trkpt>
      <trkpt lat="40.53923897445201873779296875" lon="-1.684316955506801605224609375">
        <ele>1529.199951171875</ele>
        <time>2022-08-24T12:28:51.000Z</time>
      </trkpt>
      <trkpt lat="40.539146102964878082275390625" lon="-1.6843067295849323272705078125">
        <ele>1529.800048828125</ele>
        <time>2022-08-24T12:28:59.000Z</time>
      </trkpt>
      <trkpt lat="40.5391355417668819427490234375" lon="-1.684304215013980865478515625">
        <ele>1530</ele>
        <time>2022-08-24T12:29:00.000Z</time>
      </trkpt>
      <trkpt lat="40.53907544352114200592041015625" lon="-1.68429315090179443359375">
        <ele>1530.800048828125</ele>
        <time>2022-08-24T12:29:06.000Z</time>
      </trkpt>
      <trkpt lat="40.53905515931546688079833984375" lon="-1.68429340235888957977294921875">
        <ele>1531</ele>
        <time>2022-08-24T12:29:08.000Z</time>
      </trkpt>
      <trkpt lat="40.53889699280261993408203125" lon="-1.6842577792704105377197265625">
        <ele>1532</ele>
        <time>2022-08-24T12:29:20.000Z</time>
      </trkpt>
      <trkpt lat="40.5388824082911014556884765625" lon="-1.68425451032817363739013671875">
        <ele>1532</ele>
        <time>2022-08-24T12:29:21.000Z</time>
      </trkpt>
      <trkpt lat="40.538761205971240997314453125" lon="-1.68420706875622272491455078125">
        <ele>1532.800048828125</ele>
        <time>2022-08-24T12:29:31.000Z</time>
      </trkpt>
      <trkpt lat="40.5387447774410247802734375" lon="-1.68419600464403629302978515625">
        <ele>1533</ele>
        <time>2022-08-24T12:29:33.000Z</time>
      </trkpt>
      <trkpt lat="40.5387003533542156219482421875" lon="-1.6841659136116504669189453125">
        <ele>1534</ele>
        <time>2022-08-24T12:29:40.000Z</time>
      </trkpt>
      <trkpt lat="40.53866942413151264190673828125" lon="-1.68416214175522327423095703125">
        <ele>1534.199951171875</ele>
        <time>2022-08-24T12:29:43.000Z</time>
      </trkpt>
      <trkpt lat="40.53857571445405483245849609375" lon="-1.68413666076958179473876953125">
        <ele>1535</ele>
        <time>2022-08-24T12:29:50.000Z</time>
      </trkpt>
      <trkpt lat="40.5385223217308521270751953125" lon="-1.6841183044016361236572265625">
        <ele>1535.4000244140625</ele>
        <time>2022-08-24T12:29:54.000Z</time>
      </trkpt>
      <trkpt lat="40.5384609661996364593505859375" lon="-1.68409910984337329864501953125">
        <ele>1536.199951171875</ele>
        <time>2022-08-24T12:29:59.000Z</time>
      </trkpt>
      <trkpt lat="40.53836348466575145721435546875" lon="-1.68405200354754924774169921875">
        <ele>1537.199951171875</ele>
        <time>2022-08-24T12:30:07.000Z</time>
      </trkpt>
      <trkpt lat="40.538341104984283447265625" lon="-1.68404496274888515472412109375">
        <ele>1537.4000244140625</ele>
        <time>2022-08-24T12:30:09.000Z</time>
      </trkpt>
      <trkpt lat="40.53830732591450214385986328125" lon="-1.6840328089892864227294921875">
        <ele>1537.5999755859375</ele>
        <time>2022-08-24T12:30:12.000Z</time>
      </trkpt>
      <trkpt lat="40.5382343195378780364990234375" lon="-1.6840214096009731292724609375">
        <ele>1538</ele>
        <time>2022-08-24T12:30:18.000Z</time>
      </trkpt>
      <trkpt lat="40.5381903983652591705322265625" lon="-1.68399902991950511932373046875">
        <ele>1538.199951171875</ele>
        <time>2022-08-24T12:30:21.000Z</time>
      </trkpt>
      <trkpt lat="40.5381525121629238128662109375" lon="-1.68397991918027400970458984375">
        <ele>1539</ele>
        <time>2022-08-24T12:30:25.000Z</time>
      </trkpt>
      <trkpt lat="40.53806559182703495025634765625" lon="-1.68396064080297946929931640625">
        <ele>1540</ele>
        <time>2022-08-24T12:30:33.000Z</time>
      </trkpt>
      <trkpt lat="40.53805746138095855712890625" lon="-1.6839573718607425689697265625">
        <ele>1540.199951171875</ele>
        <time>2022-08-24T12:30:34.000Z</time>
      </trkpt>
      <trkpt lat="40.5379486642777919769287109375" lon="-1.68390733189880847930908203125">
        <ele>1540.800048828125</ele>
        <time>2022-08-24T12:30:44.000Z</time>
      </trkpt>
      <trkpt lat="40.5378893204033374786376953125" lon="-1.68391705490648746490478515625">
        <ele>1541.199951171875</ele>
        <time>2022-08-24T12:30:48.000Z</time>
      </trkpt>
      <trkpt lat="40.53776049055159091949462890625" lon="-1.68393130414187908172607421875">
        <ele>1542.199951171875</ele>
        <time>2022-08-24T12:30:58.000Z</time>
      </trkpt>
      <trkpt lat="40.537664853036403656005859375" lon="-1.68395108543336391448974609375">
        <ele>1543.199951171875</ele>
        <time>2022-08-24T12:31:06.000Z</time>
      </trkpt>
      <trkpt lat="40.53758882917463779449462890625" lon="-1.68397036381065845489501953125">
        <ele>1543.800048828125</ele>
        <time>2022-08-24T12:31:12.000Z</time>
      </trkpt>
      <trkpt lat="40.53753350861370563507080078125" lon="-1.68397866189479827880859375">
        <ele>1544.199951171875</ele>
        <time>2022-08-24T12:31:16.000Z</time>
      </trkpt>
      <trkpt lat="40.53750584833323955535888671875" lon="-1.6839753091335296630859375">
        <ele>1544.4000244140625</ele>
        <time>2022-08-24T12:31:18.000Z</time>
      </trkpt>
      <trkpt lat="40.53742907010018825531005859375" lon="-1.6839590482413768768310546875">
        <ele>1545.199951171875</ele>
        <time>2022-08-24T12:31:24.000Z</time>
      </trkpt>
      <trkpt lat="40.5374045111238956451416015625" lon="-1.6839520074427127838134765625">
        <ele>1545.4000244140625</ele>
        <time>2022-08-24T12:31:26.000Z</time>
      </trkpt>
      <trkpt lat="40.53728976286947727203369140625" lon="-1.683866344392299652099609375">
        <ele>1546.4000244140625</ele>
        <time>2022-08-24T12:31:36.000Z</time>
      </trkpt>
      <trkpt lat="40.53718767128884792327880859375" lon="-1.68381848372519016265869140625">
        <ele>1547.5999755859375</ele>
        <time>2022-08-24T12:31:45.000Z</time>
      </trkpt>
      <trkpt lat="40.5371805466711521148681640625" lon="-1.68380809016525745391845703125">
        <ele>1547.800048828125</ele>
        <time>2022-08-24T12:31:46.000Z</time>
      </trkpt>
      <trkpt lat="40.53710435517132282257080078125" lon="-1.6837495006620883941650390625">
        <ele>1548.4000244140625</ele>
        <time>2022-08-24T12:31:54.000Z</time>
      </trkpt>
      <trkpt lat="40.5370595119893550872802734375" lon="-1.68372175656259059906005859375">
        <ele>1548.800048828125</ele>
        <time>2022-08-24T12:31:58.000Z</time>
      </trkpt>
      <trkpt lat="40.536953397095203399658203125" lon="-1.6836267895996570587158203125">
        <ele>1549.4000244140625</ele>
        <time>2022-08-24T12:32:08.000Z</time>
      </trkpt>
      <trkpt lat="40.536933280527591705322265625" lon="-1.68361061252653598785400390625">
        <ele>1549.5999755859375</ele>
        <time>2022-08-24T12:32:10.000Z</time>
      </trkpt>
      <trkpt lat="40.53683211095631122589111328125" lon="-1.6835416294634342193603515625">
        <ele>1550.5999755859375</ele>
        <time>2022-08-24T12:32:19.000Z</time>
      </trkpt>
      <trkpt lat="40.5367906205356121063232421875" lon="-1.683516986668109893798828125">
        <ele>1551.199951171875</ele>
        <time>2022-08-24T12:32:23.000Z</time>
      </trkpt>
      <trkpt lat="40.53674510680139064788818359375" lon="-1.68347884900867938995361328125">
        <ele>1551.5999755859375</ele>
        <time>2022-08-24T12:32:27.000Z</time>
      </trkpt>
      <trkpt lat="40.536722056567668914794921875" lon="-1.68346744962036609649658203125">
        <ele>1551.5999755859375</ele>
        <time>2022-08-24T12:32:29.000Z</time>
      </trkpt>
      <trkpt lat="40.53665340878069400787353515625" lon="-1.6834013164043426513671875">
        <ele>1552.199951171875</ele>
        <time>2022-08-24T12:32:35.000Z</time>
      </trkpt>
      <trkpt lat="40.536624155938625335693359375" lon="-1.6833609156310558319091796875">
        <ele>1552.800048828125</ele>
        <time>2022-08-24T12:32:38.000Z</time>
      </trkpt>
      <trkpt lat="40.53655466996133327484130859375" lon="-1.683248765766620635986328125">
        <ele>1553.800048828125</ele>
        <time>2022-08-24T12:32:45.000Z</time>
      </trkpt>
      <trkpt lat="40.53654293529689311981201171875" lon="-1.68323795311152935028076171875">
        <ele>1553.800048828125</ele>
        <time>2022-08-24T12:32:46.000Z</time>
      </trkpt>
      <trkpt lat="40.536433719098567962646484375" lon="-1.68315145187079906463623046875">
        <ele>1554.5999755859375</ele>
        <time>2022-08-24T12:32:55.000Z</time>
      </trkpt>
      <trkpt lat="40.53642491810023784637451171875" lon="-1.6831470094621181488037109375">
        <ele>1554.800048828125</ele>
        <time>2022-08-24T12:32:56.000Z</time>
      </trkpt>
      <trkpt lat="40.53635819815099239349365234375" lon="-1.6831185109913349151611328125">
        <ele>1555.199951171875</ele>
        <time>2022-08-24T12:33:01.000Z</time>
      </trkpt>
      <trkpt lat="40.53625996224582195281982421875" lon="-1.6830646991729736328125">
        <ele>1555.800048828125</ele>
        <time>2022-08-24T12:33:08.000Z</time>
      </trkpt>
      <trkpt lat="40.53620983846485614776611328125" lon="-1.68304785154759883880615234375">
        <ele>1556.4000244140625</ele>
        <time>2022-08-24T12:33:11.000Z</time>
      </trkpt>
      <trkpt lat="40.536148734390735626220703125" lon="-1.68304466642439365386962890625">
        <ele>1556.800048828125</ele>
        <time>2022-08-24T12:33:15.000Z</time>
      </trkpt>
      <trkpt lat="40.53610187955200672149658203125" lon="-1.6830283217132091522216796875">
        <ele>1557.4000244140625</ele>
        <time>2022-08-24T12:33:18.000Z</time>
      </trkpt>
      <trkpt lat="40.5360446311533451080322265625" lon="-1.68301264755427837371826171875">
        <ele>1557.800048828125</ele>
        <time>2022-08-24T12:33:22.000Z</time>
      </trkpt>
      <trkpt lat="40.53597950376570224761962890625" lon="-1.68299219571053981781005859375">
        <ele>1558.199951171875</ele>
        <time>2022-08-24T12:33:26.000Z</time>
      </trkpt>
      <trkpt lat="40.53591303527355194091796875" lon="-1.682974509894847869873046875">
        <ele>1558.800048828125</ele>
        <time>2022-08-24T12:33:30.000Z</time>
      </trkpt>
      <trkpt lat="40.53584120236337184906005859375" lon="-1.6829574108123779296875">
        <ele>1559</ele>
        <time>2022-08-24T12:33:34.000Z</time>
      </trkpt>
      <trkpt lat="40.5356832034885883331298828125" lon="-1.68290653266012668609619140625">
        <ele>1559.5999755859375</ele>
        <time>2022-08-24T12:33:43.000Z</time>
      </trkpt>
      <trkpt lat="40.53564338944852352142333984375" lon="-1.68289504945278167724609375">
        <ele>1559.800048828125</ele>
        <time>2022-08-24T12:33:46.000Z</time>
      </trkpt>
      <trkpt lat="40.53557901643216609954833984375" lon="-1.68287183158099651336669921875">
        <ele>1560.199951171875</ele>
        <time>2022-08-24T12:33:51.000Z</time>
      </trkpt>
      <trkpt lat="40.53550626151263713836669921875" lon="-1.682857163250446319580078125">
        <ele>1560.5999755859375</ele>
        <time>2022-08-24T12:33:58.000Z</time>
      </trkpt>
      <trkpt lat="40.5354912579059600830078125" lon="-1.6828549839556217193603515625">
        <ele>1560.5999755859375</ele>
        <time>2022-08-24T12:33:59.000Z</time>
      </trkpt>
      <trkpt lat="40.535458736121654510498046875" lon="-1.6828623600304126739501953125">
        <ele>1561</ele>
        <time>2022-08-24T12:34:02.000Z</time>
      </trkpt>
      <trkpt lat="40.53537785075604915618896484375" lon="-1.68287216685712337493896484375">
        <ele>1561.4000244140625</ele>
        <time>2022-08-24T12:34:08.000Z</time>
      </trkpt>
      <trkpt lat="40.53534130565822124481201171875" lon="-1.6828771121799945831298828125">
        <ele>1561.800048828125</ele>
        <time>2022-08-24T12:34:11.000Z</time>
      </trkpt>
      <trkpt lat="40.53526687435805797576904296875" lon="-1.682865209877490997314453125">
        <ele>1562.199951171875</ele>
        <time>2022-08-24T12:34:16.000Z</time>
      </trkpt>
      <trkpt lat="40.53515120409429073333740234375" lon="-1.68285749852657318115234375">
        <ele>1562.800048828125</ele>
        <time>2022-08-24T12:34:23.000Z</time>
      </trkpt>
      <trkpt lat="40.5350475199520587921142578125" lon="-1.6828415729105472564697265625">
        <ele>1563.800048828125</ele>
        <time>2022-08-24T12:34:31.000Z</time>
      </trkpt>
      <trkpt lat="40.53500787355005741119384765625" lon="-1.68282304890453815460205078125">
        <ele>1564</ele>
        <time>2022-08-24T12:34:35.000Z</time>
      </trkpt>
      <trkpt lat="40.5349660478532314300537109375" lon="-1.68280653655529022216796875">
        <ele>1564.4000244140625</ele>
        <time>2022-08-24T12:34:39.000Z</time>
      </trkpt>
      <trkpt lat="40.53487258963286876678466796875" lon="-1.68276940472424030303955078125">
        <ele>1564.4000244140625</ele>
        <time>2022-08-24T12:34:46.000Z</time>
      </trkpt>
      <trkpt lat="40.53483705036342144012451171875" lon="-1.68274224735796451568603515625">
        <ele>1564.800048828125</ele>
        <time>2022-08-24T12:34:50.000Z</time>
      </trkpt>
      <trkpt lat="40.534796901047229766845703125" lon="-1.68271131813526153564453125">
        <ele>1565</ele>
        <time>2022-08-24T12:34:54.000Z</time>
      </trkpt>
      <trkpt lat="40.53478382527828216552734375" lon="-1.68270654045045375823974609375">
        <ele>1565.199951171875</ele>
        <time>2022-08-24T12:34:55.000Z</time>
      </trkpt>
      <trkpt lat="40.53470394574105739593505859375" lon="-1.682666726410388946533203125">
        <ele>1565.4000244140625</ele>
        <time>2022-08-24T12:35:00.000Z</time>
      </trkpt>
      <trkpt lat="40.5346807278692722320556640625" lon="-1.68264904059469699859619140625">
        <ele>1565.800048828125</ele>
        <time>2022-08-24T12:35:03.000Z</time>
      </trkpt>
      <trkpt lat="40.53465113975107669830322265625" lon="-1.68264149688184261322021484375">
        <ele>1566.199951171875</ele>
        <time>2022-08-24T12:35:06.000Z</time>
      </trkpt>
      <trkpt lat="40.53453865461051464080810546875" lon="-1.68260562233626842498779296875">
        <ele>1566.5999755859375</ele>
        <time>2022-08-24T12:35:15.000Z</time>
      </trkpt>
      <trkpt lat="40.53450160659849643707275390625" lon="-1.68260595761239528656005859375">
        <ele>1567</ele>
        <time>2022-08-24T12:35:18.000Z</time>
      </trkpt>
      <trkpt lat="40.53442440927028656005859375" lon="-1.68258433230221271514892578125">
        <ele>1567.800048828125</ele>
        <time>2022-08-24T12:35:24.000Z</time>
      </trkpt>
      <trkpt lat="40.534339249134063720703125" lon="-1.6825435124337673187255859375">
        <ele>1568.4000244140625</ele>
        <time>2022-08-24T12:35:30.000Z</time>
      </trkpt>
      <trkpt lat="40.5342830903828144073486328125" lon="-1.68252616189420223236083984375">
        <ele>1568.800048828125</ele>
        <time>2022-08-24T12:35:34.000Z</time>
      </trkpt>
      <trkpt lat="40.53424109704792499542236328125" lon="-1.68251912109553813934326171875">
        <ele>1569.199951171875</ele>
        <time>2022-08-24T12:35:37.000Z</time>
      </trkpt>
      <trkpt lat="40.534126348793506622314453125" lon="-1.68251191265881061553955078125">
        <ele>1569.800048828125</ele>
        <time>2022-08-24T12:35:45.000Z</time>
      </trkpt>
      <trkpt lat="40.5341117642819881439208984375" lon="-1.682511158287525177001953125">
        <ele>1570</ele>
        <time>2022-08-24T12:35:46.000Z</time>
      </trkpt>
      <trkpt lat="40.5340222455561161041259765625" lon="-1.682480983436107635498046875">
        <ele>1570.5999755859375</ele>
        <time>2022-08-24T12:35:52.000Z</time>
      </trkpt>
      <trkpt lat="40.5339865386486053466796875" lon="-1.68246950022876262664794921875">
        <ele>1570.800048828125</ele>
        <time>2022-08-24T12:35:55.000Z</time>
      </trkpt>
      <trkpt lat="40.533943958580493927001953125" lon="-1.6824705898761749267578125">
        <ele>1571.199951171875</ele>
        <time>2022-08-24T12:35:59.000Z</time>
      </trkpt>
      <trkpt lat="40.53388662636280059814453125" lon="-1.6824513114988803863525390625">
        <ele>1572</ele>
        <time>2022-08-24T12:36:04.000Z</time>
      </trkpt>
      <trkpt lat="40.533868186175823211669921875" lon="-1.6824462823569774627685546875">
        <ele>1572.199951171875</ele>
        <time>2022-08-24T12:36:06.000Z</time>
      </trkpt>
      <trkpt lat="40.53379165939986705780029296875" lon="-1.682436726987361907958984375">
        <ele>1573</ele>
        <time>2022-08-24T12:36:13.000Z</time>
      </trkpt>
      <trkpt lat="40.53377070464193820953369140625" lon="-1.6824328713119029998779296875">
        <ele>1573.199951171875</ele>
        <time>2022-08-24T12:36:15.000Z</time>
      </trkpt>
      <trkpt lat="40.53367095999419689178466796875" lon="-1.6824117489159107208251953125">
        <ele>1573.800048828125</ele>
        <time>2022-08-24T12:36:23.000Z</time>
      </trkpt>
      <trkpt lat="40.53361262194812297821044921875" lon="-1.68238786049187183380126953125">
        <ele>1574.199951171875</ele>
        <time>2022-08-24T12:36:27.000Z</time>
      </trkpt>
      <trkpt lat="40.53353584371507167816162109375" lon="-1.6823500581085681915283203125">
        <ele>1574.800048828125</ele>
        <time>2022-08-24T12:36:34.000Z</time>
      </trkpt>
      <trkpt lat="40.5334606580436229705810546875" lon="-1.68231443502008914947509765625">
        <ele>1575.5999755859375</ele>
        <time>2022-08-24T12:36:42.000Z</time>
      </trkpt>
      <trkpt lat="40.53337373770773410797119140625" lon="-1.6822997666895389556884765625">
        <ele>1575.800048828125</ele>
        <time>2022-08-24T12:36:48.000Z</time>
      </trkpt>
      <trkpt lat="40.533292181789875030517578125" lon="-1.68225576169788837432861328125">
        <ele>1576.4000244140625</ele>
        <time>2022-08-24T12:36:54.000Z</time>
      </trkpt>
      <trkpt lat="40.53324633277952671051025390625" lon="-1.6822374053299427032470703125">
        <ele>1577</ele>
        <time>2022-08-24T12:36:57.000Z</time>
      </trkpt>
      <trkpt lat="40.53311280906200408935546875" lon="-1.6821441985666751861572265625">
        <ele>1578</ele>
        <time>2022-08-24T12:37:08.000Z</time>
      </trkpt>
      <trkpt lat="40.533084981143474578857421875" lon="-1.682117544114589691162109375">
        <ele>1578</ele>
        <time>2022-08-24T12:37:10.000Z</time>
      </trkpt>
      <trkpt lat="40.5329480208456516265869140625" lon="-1.6820214875042438507080078125">
        <ele>1578.5999755859375</ele>
        <time>2022-08-24T12:37:20.000Z</time>
      </trkpt>
      <trkpt lat="40.53281307220458984375" lon="-1.68191067874431610107421875">
        <ele>1579</ele>
        <time>2022-08-24T12:37:30.000Z</time>
      </trkpt>
      <trkpt lat="40.532785914838314056396484375" lon="-1.68187421746551990509033203125">
        <ele>1579</ele>
        <time>2022-08-24T12:37:32.000Z</time>
      </trkpt>
      <trkpt lat="40.53260277025401592254638671875" lon="-1.68171311728656291961669921875">
        <ele>1579.199951171875</ele>
        <time>2022-08-24T12:37:42.000Z</time>
      </trkpt>
      <trkpt lat="40.53248860873281955718994140625" lon="-1.68162125162780284881591796875">
        <ele>1579.5999755859375</ele>
        <time>2022-08-24T12:37:49.000Z</time>
      </trkpt>
      <trkpt lat="40.532442592084407806396484375" lon="-1.68158906511962413787841796875">
        <ele>1580.199951171875</ele>
        <time>2022-08-24T12:37:52.000Z</time>
      </trkpt>
      <trkpt lat="40.5323783867061138153076171875" lon="-1.68155721388757228851318359375">
        <ele>1580.5999755859375</ele>
        <time>2022-08-24T12:37:57.000Z</time>
      </trkpt>
      <trkpt lat="40.53230403922498226165771484375" lon="-1.68151346035301685333251953125">
        <ele>1581.199951171875</ele>
        <time>2022-08-24T12:38:01.000Z</time>
      </trkpt>
      <trkpt lat="40.5322516523301601409912109375" lon="-1.6814924217760562896728515625">
        <ele>1581.199951171875</ele>
        <time>2022-08-24T12:38:04.000Z</time>
      </trkpt>
      <trkpt lat="40.53213388659060001373291015625" lon="-1.68146082200109958648681640625">
        <ele>1582</ele>
        <time>2022-08-24T12:38:11.000Z</time>
      </trkpt>
      <trkpt lat="40.53211762569844722747802734375" lon="-1.68144724331796169281005859375">
        <ele>1582.199951171875</ele>
        <time>2022-08-24T12:38:12.000Z</time>
      </trkpt>
      <trkpt lat="40.5320005305111408233642578125" lon="-1.68138052336871623992919921875">
        <ele>1582.800048828125</ele>
        <time>2022-08-24T12:38:21.000Z</time>
      </trkpt>
      <trkpt lat="40.53195501677691936492919921875" lon="-1.68136082589626312255859375">
        <ele>1583.199951171875</ele>
        <time>2022-08-24T12:38:24.000Z</time>
      </trkpt>
      <trkpt lat="40.53189332596957683563232421875" lon="-1.6813318245112895965576171875">
        <ele>1583.5999755859375</ele>
        <time>2022-08-24T12:38:28.000Z</time>
      </trkpt>
      <trkpt lat="40.53179844282567501068115234375" lon="-1.68128463439643383026123046875">
        <ele>1584.199951171875</ele>
        <time>2022-08-24T12:38:35.000Z</time>
      </trkpt>
      <trkpt lat="40.5317819304764270782470703125" lon="-1.68127910234034061431884765625">
        <ele>1584.199951171875</ele>
        <time>2022-08-24T12:38:36.000Z</time>
      </trkpt>
      <trkpt lat="40.53170406259596347808837890625" lon="-1.68124406598508358001708984375">
        <ele>1584.5999755859375</ele>
        <time>2022-08-24T12:38:42.000Z</time>
      </trkpt>
      <trkpt lat="40.5316005460917949676513671875" lon="-1.68118237517774105072021484375">
        <ele>1585</ele>
        <time>2022-08-24T12:38:50.000Z</time>
      </trkpt>
      <trkpt lat="40.53156777285039424896240234375" lon="-1.68117307126522064208984375">
        <ele>1585.199951171875</ele>
        <time>2022-08-24T12:38:52.000Z</time>
      </trkpt>
      <trkpt lat="40.5315006338059902191162109375" lon="-1.68115454725921154022216796875">
        <ele>1585.5999755859375</ele>
        <time>2022-08-24T12:38:57.000Z</time>
      </trkpt>
      <trkpt lat="40.53141773678362369537353515625" lon="-1.6811536252498626708984375">
        <ele>1586.199951171875</ele>
        <time>2022-08-24T12:39:02.000Z</time>
      </trkpt>
      <trkpt lat="40.53139711730182170867919921875" lon="-1.68115295469760894775390625">
        <ele>1586.4000244140625</ele>
        <time>2022-08-24T12:39:03.000Z</time>
      </trkpt>
      <trkpt lat="40.53127608262002468109130859375" lon="-1.68111138045787811279296875">
        <ele>1587</ele>
        <time>2022-08-24T12:39:10.000Z</time>
      </trkpt>
      <trkpt lat="40.531226880848407745361328125" lon="-1.68108589947223663330078125">
        <ele>1587.199951171875</ele>
        <time>2022-08-24T12:39:13.000Z</time>
      </trkpt>
      <trkpt lat="40.5312129668891429901123046875" lon="-1.68107911013066768646240234375">
        <ele>1587.199951171875</ele>
        <time>2022-08-24T12:39:14.000Z</time>
      </trkpt>
      <trkpt lat="40.5311863124370574951171875" lon="-1.6810582391917705535888671875">
        <ele>1587.4000244140625</ele>
        <time>2022-08-24T12:39:16.000Z</time>
      </trkpt>
      <trkpt lat="40.5310765095055103302001953125" lon="-1.6810411401093006134033203125">
        <ele>1588.199951171875</ele>
        <time>2022-08-24T12:39:23.000Z</time>
      </trkpt>
      <trkpt lat="40.531059242784976959228515625" lon="-1.68104021809995174407958984375">
        <ele>1588.199951171875</ele>
        <time>2022-08-24T12:39:24.000Z</time>
      </trkpt>
      <trkpt lat="40.530965365469455718994140625" lon="-1.68101792223751544952392578125">
        <ele>1588.5999755859375</ele>
        <time>2022-08-24T12:39:30.000Z</time>
      </trkpt>
      <trkpt lat="40.530864782631397247314453125" lon="-1.68098238296806812286376953125">
        <ele>1589</ele>
        <time>2022-08-24T12:39:37.000Z</time>
      </trkpt>
      <trkpt lat="40.530827231705188751220703125" lon="-1.6809720732271671295166015625">
        <ele>1589.199951171875</ele>
        <time>2022-08-24T12:39:40.000Z</time>
      </trkpt>
      <trkpt lat="40.530772246420383453369140625" lon="-1.680951453745365142822265625">
        <ele>1589.4000244140625</ele>
        <time>2022-08-24T12:39:44.000Z</time>
      </trkpt>
      <trkpt lat="40.53068138659000396728515625" lon="-1.68091901578009128570556640625">
        <ele>1590</ele>
        <time>2022-08-24T12:39:51.000Z</time>
      </trkpt>
      <trkpt lat="40.53062045015394687652587890625" lon="-1.680891774594783782958984375">
        <ele>1590.5999755859375</ele>
        <time>2022-08-24T12:39:57.000Z</time>
      </trkpt>
      <trkpt lat="40.53057149983942508697509765625" lon="-1.68087777681648731231689453125">
        <ele>1591.199951171875</ele>
        <time>2022-08-24T12:40:01.000Z</time>
      </trkpt>
      <trkpt lat="40.5304621160030364990234375" lon="-1.68082077987492084503173828125">
        <ele>1592.4000244140625</ele>
        <time>2022-08-24T12:40:09.000Z</time>
      </trkpt>
      <trkpt lat="40.530320964753627777099609375" lon="-1.6807528026401996612548828125">
        <ele>1593.199951171875</ele>
        <time>2022-08-24T12:40:19.000Z</time>
      </trkpt>
      <trkpt lat="40.5303063802421092987060546875" lon="-1.6807457618415355682373046875">
        <ele>1593.199951171875</ele>
        <time>2022-08-24T12:40:20.000Z</time>
      </trkpt>
      <trkpt lat="40.53016531281173229217529296875" lon="-1.6806699894368648529052734375">
        <ele>1594.199951171875</ele>
        <time>2022-08-24T12:40:30.000Z</time>
      </trkpt>
      <trkpt lat="40.53014318458735942840576171875" lon="-1.680662445724010467529296875">
        <ele>1594.199951171875</ele>
        <time>2022-08-24T12:40:32.000Z</time>
      </trkpt>
      <trkpt lat="40.53005986846983432769775390625" lon="-1.68062187731266021728515625">
        <ele>1594.5999755859375</ele>
        <time>2022-08-24T12:40:38.000Z</time>
      </trkpt>
      <trkpt lat="40.52998426370322704315185546875" lon="-1.68060134164988994598388671875">
        <ele>1595.4000244140625</ele>
        <time>2022-08-24T12:40:43.000Z</time>
      </trkpt>
      <trkpt lat="40.52997018210589885711669921875" lon="-1.68059513904154300689697265625">
        <ele>1595.5999755859375</ele>
        <time>2022-08-24T12:40:44.000Z</time>
      </trkpt>
      <trkpt lat="40.52991100586950778961181640625" lon="-1.68057401664555072784423828125">
        <ele>1596.4000244140625</ele>
        <time>2022-08-24T12:40:49.000Z</time>
      </trkpt>
      <trkpt lat="40.5298738740384578704833984375" lon="-1.680567227303981781005859375">
        <ele>1596.800048828125</ele>
        <time>2022-08-24T12:40:52.000Z</time>
      </trkpt>
      <trkpt lat="40.5298108421266078948974609375" lon="-1.68055255897343158721923828125">
        <ele>1597.199951171875</ele>
        <time>2022-08-24T12:40:58.000Z</time>
      </trkpt>
      <trkpt lat="40.52979231812059879302978515625" lon="-1.68054920621216297149658203125">
        <ele>1597.199951171875</ele>
        <time>2022-08-24T12:41:00.000Z</time>
      </trkpt>
      <trkpt lat="40.52978427149355411529541015625" lon="-1.68054300360381603240966796875">
        <ele>1597.5999755859375</ele>
        <time>2022-08-24T12:41:03.000Z</time>
      </trkpt>
      <trkpt lat="40.5280318669974803924560546875" lon="-1.679342798888683319091796875">
        <ele>1612.199951171875</ele>
        <time>2022-08-24T12:44:20.000Z</time>
      </trkpt>
      <trkpt lat="40.5279986746609210968017578125" lon="-1.67932377196848392486572265625">
        <ele>1612.4000244140625</ele>
        <time>2022-08-24T12:44:22.000Z</time>
      </trkpt>
      <trkpt lat="40.527893565595149993896484375" lon="-1.67929644696414470672607421875">
        <ele>1613.199951171875</ele>
        <time>2022-08-24T12:44:28.000Z</time>
      </trkpt>
      <trkpt lat="40.52786095999181270599365234375" lon="-1.67929175309836864471435546875">
        <ele>1613.4000244140625</ele>
        <time>2022-08-24T12:44:30.000Z</time>
      </trkpt>
      <trkpt lat="40.52774696610867977142333984375" lon="-1.67924716137349605560302734375">
        <ele>1614.4000244140625</ele>
        <time>2022-08-24T12:44:38.000Z</time>
      </trkpt>
      <trkpt lat="40.527721233665943145751953125" lon="-1.67923961766064167022705078125">
        <ele>1615</ele>
        <time>2022-08-24T12:44:40.000Z</time>
      </trkpt>
      <trkpt lat="40.52764068357646465301513671875" lon="-1.6792438924312591552734375">
        <ele>1615.5999755859375</ele>
        <time>2022-08-24T12:44:46.000Z</time>
      </trkpt>
      <trkpt lat="40.52761117927730083465576171875" lon="-1.67924498207867145538330078125">
        <ele>1615.800048828125</ele>
        <time>2022-08-24T12:44:48.000Z</time>
      </trkpt>
      <trkpt lat="40.5275457166135311126708984375" lon="-1.67924632318317890167236328125">
        <ele>1616.5999755859375</ele>
        <time>2022-08-24T12:44:53.000Z</time>
      </trkpt>
      <trkpt lat="40.52751730196177959442138671875" lon="-1.67924330569803714752197265625">
        <ele>1616.800048828125</ele>
        <time>2022-08-24T12:44:55.000Z</time>
      </trkpt>
      <trkpt lat="40.52741177380084991455078125" lon="-1.679248921573162078857421875">
        <ele>1617.199951171875</ele>
        <time>2022-08-24T12:45:03.000Z</time>
      </trkpt>
      <trkpt lat="40.52739945240318775177001953125" lon="-1.6792477481067180633544921875">
        <ele>1617.4000244140625</ele>
        <time>2022-08-24T12:45:04.000Z</time>
      </trkpt>
      <trkpt lat="40.5273043178021907806396484375" lon="-1.67924330569803714752197265625">
        <ele>1618.199951171875</ele>
        <time>2022-08-24T12:45:10.000Z</time>
      </trkpt>
      <trkpt lat="40.527243800461292266845703125" lon="-1.679234839975833892822265625">
        <ele>1618.5999755859375</ele>
        <time>2022-08-24T12:45:13.000Z</time>
      </trkpt>
      <trkpt lat="40.52715151570737361907958984375" lon="-1.67923039756715297698974609375">
        <ele>1619.5999755859375</ele>
        <time>2022-08-24T12:45:19.000Z</time>
      </trkpt>
      <trkpt lat="40.52714128978550434112548828125" lon="-1.67923073284327983856201171875">
        <ele>1619.800048828125</ele>
        <time>2022-08-24T12:45:20.000Z</time>
      </trkpt>
      <trkpt lat="40.52705244161188602447509765625" lon="-1.67921262793242931365966796875">
        <ele>1620.5999755859375</ele>
        <time>2022-08-24T12:45:27.000Z</time>
      </trkpt>
      <trkpt lat="40.5270384438335895538330078125" lon="-1.67922176420688629150390625">
        <ele>1620.800048828125</ele>
        <time>2022-08-24T12:45:29.000Z</time>
      </trkpt>
      <trkpt lat="40.5269881524145603179931640625" lon="-1.679240204393863677978515625">
        <ele>1621.199951171875</ele>
        <time>2022-08-24T12:45:33.000Z</time>
      </trkpt>
      <trkpt lat="40.526920258998870849609375" lon="-1.6792554594576358795166015625">
        <ele>1621.800048828125</ele>
        <time>2022-08-24T12:45:39.000Z</time>
      </trkpt>
      <trkpt lat="40.52691346965730190277099609375" lon="-1.67925369925796985626220703125">
        <ele>1622</ele>
        <time>2022-08-24T12:45:40.000Z</time>
      </trkpt>
      <trkpt lat="40.52691346965730190277099609375" lon="-1.67925369925796985626220703125">
        <ele>1622</ele>
        <time>2022-08-24T12:45:41.000Z</time>
      </trkpt>
      <trkpt lat="40.52683082409203052520751953125" lon="-1.67926141060888767242431640625">
        <ele>1623</ele>
        <time>2022-08-24T12:45:47.000Z</time>
      </trkpt>
      <trkpt lat="40.52682378329336643218994140625" lon="-1.67925839312374591827392578125">
        <ele>1623.199951171875</ele>
        <time>2022-08-24T12:45:48.000Z</time>
      </trkpt>
      <trkpt lat="40.5267809517681598663330078125" lon="-1.679238192737102508544921875">
        <ele>1623.5999755859375</ele>
        <time>2022-08-24T12:45:52.000Z</time>
      </trkpt>
      <trkpt lat="40.52674734033644199371337890625" lon="-1.6792443953454494476318359375">
        <ele>1624</ele>
        <time>2022-08-24T12:45:55.000Z</time>
      </trkpt>
      <trkpt lat="40.5267298221588134765625" lon="-1.67924179695546627044677734375">
        <ele>1624</ele>
        <time>2022-08-24T12:45:56.000Z</time>
      </trkpt>
      <trkpt lat="40.5267138965427875518798828125" lon="-1.6792386956512928009033203125">
        <ele>1624.199951171875</ele>
        <time>2022-08-24T12:45:57.000Z</time>
      </trkpt>
      <trkpt lat="40.52667760290205478668212890625" lon="-1.67922914028167724609375">
        <ele>1624.4000244140625</ele>
        <time>2022-08-24T12:46:00.000Z</time>
      </trkpt>
      <trkpt lat="40.52659646607935428619384765625" lon="-1.67920022271573543548583984375">
        <ele>1625</ele>
        <time>2022-08-24T12:46:07.000Z</time>
      </trkpt>
      <trkpt lat="40.526573918759822845458984375" lon="-1.6791920922696590423583984375">
        <ele>1625.199951171875</ele>
        <time>2022-08-24T12:46:09.000Z</time>
      </trkpt>
      <trkpt lat="40.526506192982196807861328125" lon="-1.6791780106723308563232421875">
        <ele>1625.5999755859375</ele>
        <time>2022-08-24T12:46:15.000Z</time>
      </trkpt>
      <trkpt lat="40.52646118216216564178466796875" lon="-1.6791629232466220855712890625">
        <ele>1625.800048828125</ele>
        <time>2022-08-24T12:46:19.000Z</time>
      </trkpt>
      <trkpt lat="40.52644005976617336273193359375" lon="-1.6791612468659877777099609375">
        <ele>1626</ele>
        <time>2022-08-24T12:46:21.000Z</time>
      </trkpt>
      <trkpt lat="40.52642765454947948455810546875" lon="-1.67915563099086284637451171875">
        <ele>1626</ele>
        <time>2022-08-24T12:46:22.000Z</time>
      </trkpt>
      <trkpt lat="40.52636998705565929412841796875" lon="-1.6791446506977081298828125">
        <ele>1626.199951171875</ele>
        <time>2022-08-24T12:46:27.000Z</time>
      </trkpt>
      <trkpt lat="40.52635573782026767730712890625" lon="-1.6791468299925327301025390625">
        <ele>1626.199951171875</ele>
        <time>2022-08-24T12:46:28.000Z</time>
      </trkpt>
      <trkpt lat="40.52633830346167087554931640625" lon="-1.67914674617350101470947265625">
        <ele>1626.4000244140625</ele>
        <time>2022-08-24T12:46:29.000Z</time>
      </trkpt>
      <trkpt lat="40.52630930207669734954833984375" lon="-1.679147668182849884033203125">
        <ele>1626.5999755859375</ele>
        <time>2022-08-24T12:46:32.000Z</time>
      </trkpt>
      <trkpt lat="40.5262005887925624847412109375" lon="-1.67912922799587249755859375">
        <ele>1627</ele>
        <time>2022-08-24T12:46:38.000Z</time>
      </trkpt>
      <trkpt lat="40.52609975449740886688232421875" lon="-1.67909301817417144775390625">
        <ele>1627.199951171875</ele>
        <time>2022-08-24T12:46:45.000Z</time>
      </trkpt>
      <trkpt lat="40.52600537426769733428955078125" lon="-1.679070889949798583984375">
        <ele>1627.800048828125</ele>
        <time>2022-08-24T12:46:53.000Z</time>
      </trkpt>
      <trkpt lat="40.5259615369141101837158203125" lon="-1.67905186302959918975830078125">
        <ele>1628.4000244140625</ele>
        <time>2022-08-24T12:46:57.000Z</time>
      </trkpt>
      <trkpt lat="40.52593664266169071197509765625" lon="-1.67902939952909946441650390625">
        <ele>1628.800048828125</ele>
        <time>2022-08-24T12:47:00.000Z</time>
      </trkpt>
      <trkpt lat="40.5258827470242977142333984375" lon="-1.67900048196315765380859375">
        <ele>1629.4000244140625</ele>
        <time>2022-08-24T12:47:05.000Z</time>
      </trkpt>
      <trkpt lat="40.52579431794583797454833984375" lon="-1.678958572447299957275390625">
        <ele>1629.800048828125</ele>
        <time>2022-08-24T12:47:12.000Z</time>
      </trkpt>
      <trkpt lat="40.52574670873582363128662109375" lon="-1.67892848141491413116455078125">
        <ele>1630.5999755859375</ele>
        <time>2022-08-24T12:47:16.000Z</time>
      </trkpt>
      <trkpt lat="40.52570563741028308868408203125" lon="-1.67889797128736972808837890625">
        <ele>1631</ele>
        <time>2022-08-24T12:47:20.000Z</time>
      </trkpt>
      <trkpt lat="40.52560798823833465576171875" lon="-1.678858660161495208740234375">
        <ele>1631.199951171875</ele>
        <time>2022-08-24T12:47:27.000Z</time>
      </trkpt>
      <trkpt lat="40.52559457719326019287109375" lon="-1.67885203845798969268798828125">
        <ele>1631.4000244140625</ele>
        <time>2022-08-24T12:47:28.000Z</time>
      </trkpt>
      <trkpt lat="40.5254854448139667510986328125" lon="-1.67877023108303546905517578125">
        <ele>1632.4000244140625</ele>
        <time>2022-08-24T12:47:37.000Z</time>
      </trkpt>
      <trkpt lat="40.525361560285091400146484375" lon="-1.6786918602883815765380859375">
        <ele>1633.5999755859375</ele>
        <time>2022-08-24T12:47:48.000Z</time>
      </trkpt>
      <trkpt lat="40.525351502001285552978515625" lon="-1.67868725024163722991943359375">
        <ele>1633.800048828125</ele>
        <time>2022-08-24T12:47:49.000Z</time>
      </trkpt>
      <trkpt lat="40.5252651683986186981201171875" lon="-1.6786586679518222808837890625">
        <ele>1634.5999755859375</ele>
        <time>2022-08-24T12:47:56.000Z</time>
      </trkpt>
      <trkpt lat="40.52518780343234539031982421875" lon="-1.678607203066349029541015625">
        <ele>1635.5999755859375</ele>
        <time>2022-08-24T12:48:03.000Z</time>
      </trkpt>
      <trkpt lat="40.5251632444560527801513671875" lon="-1.67859957553446292877197265625">
        <ele>1635.5999755859375</ele>
        <time>2022-08-24T12:48:05.000Z</time>
      </trkpt>
      <trkpt lat="40.525089316070079803466796875" lon="-1.67856638319790363311767578125">
        <ele>1636.800048828125</ele>
        <time>2022-08-24T12:48:12.000Z</time>
      </trkpt>
      <trkpt lat="40.525089316070079803466796875" lon="-1.67856638319790363311767578125">
        <ele>1636.800048828125</ele>
        <time>2022-08-24T12:48:13.000Z</time>
      </trkpt>
      <trkpt lat="40.52498839795589447021484375" lon="-1.6785094700753688812255859375">
        <ele>1637.4000244140625</ele>
        <time>2022-08-24T12:48:22.000Z</time>
      </trkpt>
      <trkpt lat="40.5249275453388690948486328125" lon="-1.67846160940825939178466796875">
        <ele>1637.800048828125</ele>
        <time>2022-08-24T12:48:29.000Z</time>
      </trkpt>
      <trkpt lat="40.5249194987118244171142578125" lon="-1.67845557443797588348388671875">
        <ele>1638</ele>
        <time>2022-08-24T12:48:30.000Z</time>
      </trkpt>
      <trkpt lat="40.52485755644738674163818359375" lon="-1.67841752059757709503173828125">
        <ele>1638.800048828125</ele>
        <time>2022-08-24T12:48:37.000Z</time>
      </trkpt>
      <trkpt lat="40.5248443968594074249267578125" lon="-1.67840746231377124786376953125">
        <ele>1638.800048828125</ele>
        <time>2022-08-24T12:48:38.000Z</time>
      </trkpt>
      <trkpt lat="40.52478480152785778045654296875" lon="-1.67834778316318988800048828125">
        <ele>1639.4000244140625</ele>
        <time>2022-08-24T12:48:43.000Z</time>
      </trkpt>
      <trkpt lat="40.52474423311650753021240234375" lon="-1.67828743346035480499267578125">
        <ele>1640</ele>
        <time>2022-08-24T12:48:49.000Z</time>
      </trkpt>
      <trkpt lat="40.5247049219906330108642578125" lon="-1.6782412491738796234130859375">
        <ele>1640.4000244140625</ele>
        <time>2022-08-24T12:48:52.000Z</time>
      </trkpt>
      <trkpt lat="40.52466443739831447601318359375" lon="-1.6782040335237979888916015625">
        <ele>1641</ele>
        <time>2022-08-24T12:48:56.000Z</time>
      </trkpt>
      <trkpt lat="40.52457776851952075958251953125" lon="-1.6780930571258068084716796875">
        <ele>1642</ele>
        <time>2022-08-24T12:49:04.000Z</time>
      </trkpt>
      <trkpt lat="40.5245701409876346588134765625" lon="-1.67808048427104949951171875">
        <ele>1642</ele>
        <time>2022-08-24T12:49:05.000Z</time>
      </trkpt>
      <trkpt lat="40.5245054326951503753662109375" lon="-1.67798451147973537445068359375">
        <ele>1643</ele>
        <time>2022-08-24T12:49:13.000Z</time>
      </trkpt>
      <trkpt lat="40.5244968831539154052734375" lon="-1.6779730282723903656005859375">
        <ele>1643</ele>
        <time>2022-08-24T12:49:14.000Z</time>
      </trkpt>
      <trkpt lat="40.52444634027779102325439453125" lon="-1.6779190488159656524658203125">
        <ele>1643.800048828125</ele>
        <time>2022-08-24T12:49:21.000Z</time>
      </trkpt>
      <trkpt lat="40.524432174861431121826171875" lon="-1.67791142128407955169677734375">
        <ele>1644.199951171875</ele>
        <time>2022-08-24T12:49:23.000Z</time>
      </trkpt>
      <trkpt lat="40.52441465668380260467529296875" lon="-1.67788661085069179534912109375">
        <ele>1645.4000244140625</ele>
        <time>2022-08-24T12:49:28.000Z</time>
      </trkpt>
      <trkpt lat="40.52436084486544132232666015625" lon="-1.67786129750311374664306640625">
        <ele>1646.4000244140625</ele>
        <time>2022-08-24T12:49:35.000Z</time>
      </trkpt>
      <trkpt lat="40.5243528820574283599853515625" lon="-1.6778607107698917388916015625">
        <ele>1646.5999755859375</ele>
        <time>2022-08-24T12:49:36.000Z</time>
      </trkpt>
      <trkpt lat="40.52423578687012195587158203125" lon="-1.6777986846864223480224609375">
        <ele>1647</ele>
        <time>2022-08-24T12:49:46.000Z</time>
      </trkpt>
      <trkpt lat="40.52421391010284423828125" lon="-1.67778770439326763153076171875">
        <ele>1647.199951171875</ele>
        <time>2022-08-24T12:49:48.000Z</time>
      </trkpt>
      <trkpt lat="40.52418935112655162811279296875" lon="-1.6777755506336688995361328125">
        <ele>1647.5999755859375</ele>
        <time>2022-08-24T12:49:51.000Z</time>
      </trkpt>
      <trkpt lat="40.5240950547158718109130859375" lon="-1.6777762211859226226806640625">
        <ele>1648.199951171875</ele>
        <time>2022-08-24T12:50:00.000Z</time>
      </trkpt>
      <trkpt lat="40.524009056389331817626953125" lon="-1.67776674963533878326416015625">
        <ele>1648.5999755859375</ele>
        <time>2022-08-24T12:50:07.000Z</time>
      </trkpt>
      <trkpt lat="40.52395583130419254302978515625" lon="-1.67776021175086498260498046875">
        <ele>1649</ele>
        <time>2022-08-24T12:50:12.000Z</time>
      </trkpt>
      <trkpt lat="40.5238979123532772064208984375" lon="-1.67777596972882747650146484375">
        <ele>1649.5999755859375</ele>
        <time>2022-08-24T12:50:18.000Z</time>
      </trkpt>
      <trkpt lat="40.5238264985382556915283203125" lon="-1.67778384871780872344970703125">
        <ele>1650.199951171875</ele>
        <time>2022-08-24T12:50:24.000Z</time>
      </trkpt>
      <trkpt lat="40.52377696149051189422607421875" lon="-1.677785106003284454345703125">
        <ele>1650.5999755859375</ele>
        <time>2022-08-24T12:50:28.000Z</time>
      </trkpt>
      <trkpt lat="40.52367746829986572265625" lon="-1.6777748800814151763916015625">
        <ele>1651.5999755859375</ele>
        <time>2022-08-24T12:50:36.000Z</time>
      </trkpt>
      <trkpt lat="40.5236665718257427215576171875" lon="-1.67777194641530513763427734375">
        <ele>1651.800048828125</ele>
        <time>2022-08-24T12:50:37.000Z</time>
      </trkpt>
      <trkpt lat="40.52356489934027194976806640625" lon="-1.6777711920440196990966796875">
        <ele>1652.5999755859375</ele>
        <time>2022-08-24T12:50:46.000Z</time>
      </trkpt>
      <trkpt lat="40.523509494960308074951171875" lon="-1.6777768917381763458251953125">
        <ele>1653.4000244140625</ele>
        <time>2022-08-24T12:50:51.000Z</time>
      </trkpt>
      <trkpt lat="40.5234861932694911956787109375" lon="-1.67777605354785919189453125">
        <ele>1653.800048828125</ele>
        <time>2022-08-24T12:50:54.000Z</time>
      </trkpt>
      <trkpt lat="40.5234060622751712799072265625" lon="-1.67777647264301776885986328125">
        <ele>1654.800048828125</ele>
        <time>2022-08-24T12:51:01.000Z</time>
      </trkpt>
      <trkpt lat="40.5233611352741718292236328125" lon="-1.67776239104568958282470703125">
        <ele>1655.199951171875</ele>
        <time>2022-08-24T12:51:06.000Z</time>
      </trkpt>
      <trkpt lat="40.523306317627429962158203125" lon="-1.67776926420629024505615234375">
        <ele>1655.800048828125</ele>
        <time>2022-08-24T12:51:11.000Z</time>
      </trkpt>
      <trkpt lat="40.523221828043460845947265625" lon="-1.67775325477123260498046875">
        <ele>1656.800048828125</ele>
        <time>2022-08-24T12:51:19.000Z</time>
      </trkpt>
      <trkpt lat="40.52320632152259349822998046875" lon="-1.67775015346705913543701171875">
        <ele>1657</ele>
        <time>2022-08-24T12:51:21.000Z</time>
      </trkpt>
      <trkpt lat="40.52311026491224765777587890625" lon="-1.6777581162750720977783203125">
        <ele>1657.800048828125</ele>
        <time>2022-08-24T12:51:31.000Z</time>
      </trkpt>
      <trkpt lat="40.52309920080006122589111328125" lon="-1.67775920592248439788818359375">
        <ele>1657.800048828125</ele>
        <time>2022-08-24T12:51:32.000Z</time>
      </trkpt>
      <trkpt lat="40.52297808229923248291015625" lon="-1.6777758859097957611083984375">
        <ele>1658.800048828125</ele>
        <time>2022-08-24T12:51:44.000Z</time>
      </trkpt>
      <trkpt lat="40.52294866181910037994384765625" lon="-1.677767336368560791015625">
        <ele>1659.199951171875</ele>
        <time>2022-08-24T12:51:46.000Z</time>
      </trkpt>
      <trkpt lat="40.5228491686284542083740234375" lon="-1.6777579486370086669921875">
        <ele>1660.199951171875</ele>
        <time>2022-08-24T12:51:55.000Z</time>
      </trkpt>
      <trkpt lat="40.52282385528087615966796875" lon="-1.67775920592248439788818359375">
        <ele>1660.4000244140625</ele>
        <time>2022-08-24T12:51:57.000Z</time>
      </trkpt>
      <trkpt lat="40.5227495916187763214111328125" lon="-1.677771694958209991455078125">
        <ele>1661.199951171875</ele>
        <time>2022-08-24T12:52:03.000Z</time>
      </trkpt>
      <trkpt lat="40.52269519306719303131103515625" lon="-1.6777732037007808685302734375">
        <ele>1661.4000244140625</ele>
        <time>2022-08-24T12:52:07.000Z</time>
      </trkpt>
      <trkpt lat="40.5225155688822269439697265625" lon="-1.67777739465236663818359375">
        <ele>1662.199951171875</ele>
        <time>2022-08-24T12:52:20.000Z</time>
      </trkpt>
      <trkpt lat="40.52250324748456478118896484375" lon="-1.67777949012815952301025390625">
        <ele>1662.4000244140625</ele>
        <time>2022-08-24T12:52:21.000Z</time>
      </trkpt>
      <trkpt lat="40.5224444903433322906494140625" lon="-1.67779541574418544769287109375">
        <ele>1663.199951171875</ele>
        <time>2022-08-24T12:52:27.000Z</time>
      </trkpt>
      <trkpt lat="40.522377602756023406982421875" lon="-1.6777986846864223480224609375">
        <ele>1663.800048828125</ele>
        <time>2022-08-24T12:52:34.000Z</time>
      </trkpt>
      <trkpt lat="40.52233493886888027191162109375" lon="-1.6777896322309970855712890625">
        <ele>1664.4000244140625</ele>
        <time>2022-08-24T12:52:40.000Z</time>
      </trkpt>
      <trkpt lat="40.5222651176154613494873046875" lon="-1.67780128307640552520751953125">
        <ele>1665.199951171875</ele>
        <time>2022-08-24T12:52:46.000Z</time>
      </trkpt>
      <trkpt lat="40.52225246094167232513427734375" lon="-1.67780396528542041778564453125">
        <ele>1665.199951171875</ele>
        <time>2022-08-24T12:52:47.000Z</time>
      </trkpt>
      <trkpt lat="40.52218942902982234954833984375" lon="-1.67781720869243144989013671875">
        <ele>1666.4000244140625</ele>
        <time>2022-08-24T12:52:53.000Z</time>
      </trkpt>
      <trkpt lat="40.52211684174835681915283203125" lon="-1.677821986377239227294921875">
        <ele>1667.199951171875</ele>
        <time>2022-08-24T12:52:58.000Z</time>
      </trkpt>
      <trkpt lat="40.5221058614552021026611328125" lon="-1.6778231598436832427978515625">
        <ele>1667.4000244140625</ele>
        <time>2022-08-24T12:52:59.000Z</time>
      </trkpt>
      <trkpt lat="40.5220160074532032012939453125" lon="-1.6778295300900936126708984375">
        <ele>1668.4000244140625</ele>
        <time>2022-08-24T12:53:06.000Z</time>
      </trkpt>
      <trkpt lat="40.52192439325153827667236328125" lon="-1.67780958116054534912109375">
        <ele>1669.4000244140625</ele>
        <time>2022-08-24T12:53:14.000Z</time>
      </trkpt>
      <trkpt lat="40.52190343849360942840576171875" lon="-1.67780530638992786407470703125">
        <ele>1669.4000244140625</ele>
        <time>2022-08-24T12:53:17.000Z</time>
      </trkpt>
      <trkpt lat="40.5217772908508777618408203125" lon="-1.6777990199625492095947265625">
        <ele>1670</ele>
        <time>2022-08-24T12:53:27.000Z</time>
      </trkpt>
      <trkpt lat="40.52170327864587306976318359375" lon="-1.67781989090144634246826171875">
        <ele>1670.199951171875</ele>
        <time>2022-08-24T12:53:35.000Z</time>
      </trkpt>
      <trkpt lat="40.52165466360747814178466796875" lon="-1.67783129028975963592529296875">
        <ele>1670.800048828125</ele>
        <time>2022-08-24T12:53:40.000Z</time>
      </trkpt>
      <trkpt lat="40.52158358506858348846435546875" lon="-1.677845455706119537353515625">
        <ele>1671.4000244140625</ele>
        <time>2022-08-24T12:53:47.000Z</time>
      </trkpt>
      <trkpt lat="40.5214963294565677642822265625" lon="-1.6778751276433467864990234375">
        <ele>1672.199951171875</ele>
        <time>2022-08-24T12:53:54.000Z</time>
      </trkpt>
      <trkpt lat="40.52144343964755535125732421875" lon="-1.67789633385837078094482421875">
        <ele>1672.5999755859375</ele>
        <time>2022-08-24T12:53:58.000Z</time>
      </trkpt>
      <trkpt lat="40.52139348350465297698974609375" lon="-1.67791821062564849853515625">
        <ele>1673.199951171875</ele>
        <time>2022-08-24T12:54:05.000Z</time>
      </trkpt>
      <trkpt lat="40.52137822844088077545166015625" lon="-1.67792784981429576873779296875">
        <ele>1673.5999755859375</ele>
        <time>2022-08-24T12:54:08.000Z</time>
      </trkpt>
      <trkpt lat="40.52128921262919902801513671875" lon="-1.67796456255018711090087890625">
        <ele>1674.5999755859375</ele>
        <time>2022-08-24T12:54:15.000Z</time>
      </trkpt>
      <trkpt lat="40.52121612243354320526123046875" lon="-1.67798987589776515960693359375">
        <ele>1675.5999755859375</ele>
        <time>2022-08-24T12:54:21.000Z</time>
      </trkpt>
      <trkpt lat="40.52114755846560001373291015625" lon="-1.67802725918591022491455078125">
        <ele>1676.4000244140625</ele>
        <time>2022-08-24T12:54:28.000Z</time>
      </trkpt>
      <trkpt lat="40.52111671306192874908447265625" lon="-1.67802960611879825592041015625">
        <ele>1676.5999755859375</ele>
        <time>2022-08-24T12:54:30.000Z</time>
      </trkpt>
      <trkpt lat="40.52100121043622493743896484375" lon="-1.67807369492948055267333984375">
        <ele>1677.199951171875</ele>
        <time>2022-08-24T12:54:39.000Z</time>
      </trkpt>
      <trkpt lat="40.52094723097980022430419921875" lon="-1.678101606667041778564453125">
        <ele>1677.5999755859375</ele>
        <time>2022-08-24T12:54:42.000Z</time>
      </trkpt>
      <trkpt lat="40.52084061317145824432373046875" lon="-1.6781517304480075836181640625">
        <ele>1678.5999755859375</ele>
        <time>2022-08-24T12:54:51.000Z</time>
      </trkpt>
      <trkpt lat="40.52081697620451450347900390625" lon="-1.6781664825975894927978515625">
        <ele>1678.5999755859375</ele>
        <time>2022-08-24T12:54:52.000Z</time>
      </trkpt>
      <trkpt lat="40.52070415578782558441162109375" lon="-1.67822255752980709075927734375">
        <ele>1679.5999755859375</ele>
        <time>2022-08-24T12:55:01.000Z</time>
      </trkpt>
      <trkpt lat="40.52067565731704235076904296875" lon="-1.67823513038456439971923828125">
        <ele>1679.5999755859375</ele>
        <time>2022-08-24T12:55:04.000Z</time>
      </trkpt>
      <trkpt lat="40.5205941013991832733154296875" lon="-1.67828005738556385040283203125">
        <ele>1680.5999755859375</ele>
        <time>2022-08-24T12:55:11.000Z</time>
      </trkpt>
      <trkpt lat="40.5205501802265644073486328125" lon="-1.6782999224960803985595703125">
        <ele>1681.4000244140625</ele>
        <time>2022-08-24T12:55:16.000Z</time>
      </trkpt>
      <trkpt lat="40.5205089412629604339599609375" lon="-1.67832582257688045501708984375">
        <ele>1681.800048828125</ele>
        <time>2022-08-24T12:55:19.000Z</time>
      </trkpt>
      <trkpt lat="40.52042285911738872528076171875" lon="-1.67836521752178668975830078125">
        <ele>1682.5999755859375</ele>
        <time>2022-08-24T12:55:26.000Z</time>
      </trkpt>
      <trkpt lat="40.52041280083358287811279296875" lon="-1.67836706154048442840576171875">
        <ele>1682.800048828125</ele>
        <time>2022-08-24T12:55:28.000Z</time>
      </trkpt>
      <trkpt lat="40.5204003117978572845458984375" lon="-1.6783673129975795745849609375">
        <ele>1683</ele>
        <time>2022-08-24T12:55:29.000Z</time>
      </trkpt>
      <trkpt lat="40.52035463042557239532470703125" lon="-1.678384579718112945556640625">
        <ele>1683.5999755859375</ele>
        <time>2022-08-24T12:55:33.000Z</time>
      </trkpt>
      <trkpt lat="40.52031490020453929901123046875" lon="-1.6784119047224521636962890625">
        <ele>1683.800048828125</ele>
        <time>2022-08-24T12:55:36.000Z</time>
      </trkpt>
      <trkpt lat="40.520266704261302947998046875" lon="-1.6784419119358062744140625">
        <ele>1684.800048828125</ele>
        <time>2022-08-24T12:55:41.000Z</time>
      </trkpt>
      <trkpt lat="40.520252622663974761962890625" lon="-1.678448617458343505859375">
        <ele>1685</ele>
        <time>2022-08-24T12:55:42.000Z</time>
      </trkpt>
      <trkpt lat="40.52018146030604839324951171875" lon="-1.67850687168538570404052734375">
        <ele>1685.4000244140625</ele>
        <time>2022-08-24T12:55:48.000Z</time>
      </trkpt>
      <trkpt lat="40.52012957632541656494140625" lon="-1.678546853363513946533203125">
        <ele>1685.800048828125</ele>
        <time>2022-08-24T12:55:53.000Z</time>
      </trkpt>
      <trkpt lat="40.52010971121490001678466796875" lon="-1.67855917476117610931396484375">
        <ele>1686.199951171875</ele>
        <time>2022-08-24T12:55:55.000Z</time>
      </trkpt>
      <trkpt lat="40.52005606703460216522216796875" lon="-1.67861013673245906829833984375">
        <ele>1686.800048828125</ele>
        <time>2022-08-24T12:56:02.000Z</time>
      </trkpt>
      <trkpt lat="40.52003930322825908660888671875" lon="-1.67863545008003711700439453125">
        <ele>1687</ele>
        <time>2022-08-24T12:56:03.000Z</time>
      </trkpt>
      <trkpt lat="40.519973337650299072265625" lon="-1.678716503083705902099609375">
        <ele>1687.4000244140625</ele>
        <time>2022-08-24T12:56:11.000Z</time>
      </trkpt>
      <trkpt lat="40.51988859660923480987548828125" lon="-1.67881331406533718109130859375">
        <ele>1688</ele>
        <time>2022-08-24T12:56:20.000Z</time>
      </trkpt>
      <trkpt lat="40.5198276601731777191162109375" lon="-1.6788742505013942718505859375">
        <ele>1688.5999755859375</ele>
        <time>2022-08-24T12:56:27.000Z</time>
      </trkpt>
      <trkpt lat="40.51982422359287738800048828125" lon="-1.67887181974947452545166015625">
        <ele>1688.800048828125</ele>
        <time>2022-08-24T12:56:28.000Z</time>
      </trkpt>
      <trkpt lat="40.51981450058519840240478515625" lon="-1.67887710034847259521484375">
        <ele>1689.4000244140625</ele>
        <time>2022-08-24T12:56:33.000Z</time>
      </trkpt>
      <trkpt lat="40.51968927495181560516357421875" lon="-1.67623437009751796722412109375">
        <ele>1711.199951171875</ele>
        <time>2022-08-24T13:00:11.000Z</time>
      </trkpt>
      <trkpt lat="40.51969707012176513671875" lon="-1.676219366490840911865234375">
        <ele>1711.199951171875</ele>
        <time>2022-08-24T13:00:12.000Z</time>
      </trkpt>
      <trkpt lat="40.51974090747535228729248046875" lon="-1.676104366779327392578125">
        <ele>1712.199951171875</ele>
        <time>2022-08-24T13:00:19.000Z</time>
      </trkpt>
      <trkpt lat="40.51977510564029216766357421875" lon="-1.67601920664310455322265625">
        <ele>1713</ele>
        <time>2022-08-24T13:00:24.000Z</time>
      </trkpt>
      <trkpt lat="40.51979388110339641571044921875" lon="-1.67597017250955104827880859375">
        <ele>1713.4000244140625</ele>
        <time>2022-08-24T13:00:27.000Z</time>
      </trkpt>
      <trkpt lat="40.5198159255087375640869140625" lon="-1.6759060509502887725830078125">
        <ele>1714</ele>
        <time>2022-08-24T13:00:31.000Z</time>
      </trkpt>
      <trkpt lat="40.5198404006659984588623046875" lon="-1.6758428514003753662109375">
        <ele>1714.4000244140625</ele>
        <time>2022-08-24T13:00:35.000Z</time>
      </trkpt>
      <trkpt lat="40.519866384565830230712890625" lon="-1.67578241787850856781005859375">
        <ele>1714.800048828125</ele>
        <time>2022-08-24T13:00:39.000Z</time>
      </trkpt>
      <trkpt lat="40.51987267099320888519287109375" lon="-1.6757682524621486663818359375">
        <ele>1715</ele>
        <time>2022-08-24T13:00:40.000Z</time>
      </trkpt>
      <trkpt lat="40.5198970623314380645751953125" lon="-1.6757172904908657073974609375">
        <ele>1715.199951171875</ele>
        <time>2022-08-24T13:00:43.000Z</time>
      </trkpt>
      <trkpt lat="40.51990284584462642669677734375" lon="-1.67569876648485660552978515625">
        <ele>1715.4000244140625</ele>
        <time>2022-08-24T13:00:44.000Z</time>
      </trkpt>
      <trkpt lat="40.519912652671337127685546875" lon="-1.6756716929376125335693359375">
        <ele>1715.5999755859375</ele>
        <time>2022-08-24T13:00:46.000Z</time>
      </trkpt>
      <trkpt lat="40.519957579672336578369140625" lon="-1.67558728717267513275146484375">
        <ele>1716.4000244140625</ele>
        <time>2022-08-24T13:00:51.000Z</time>
      </trkpt>
      <trkpt lat="40.5199714936316013336181640625" lon="-1.6755545139312744140625">
        <ele>1716.5999755859375</ele>
        <time>2022-08-24T13:00:53.000Z</time>
      </trkpt>
      <trkpt lat="40.5199949629604816436767578125" lon="-1.67546667158603668212890625">
        <ele>1717.199951171875</ele>
        <time>2022-08-24T13:00:59.000Z</time>
      </trkpt>
      <trkpt lat="40.52004466764628887176513671875" lon="-1.67533650062978267669677734375">
        <ele>1718</ele>
        <time>2022-08-24T13:01:06.000Z</time>
      </trkpt>
      <trkpt lat="40.52007132209837436676025390625" lon="-1.67526014149188995361328125">
        <ele>1718.4000244140625</ele>
        <time>2022-08-24T13:01:10.000Z</time>
      </trkpt>
      <trkpt lat="40.52008791826665401458740234375" lon="-1.6751952655613422393798828125">
        <ele>1718.4000244140625</ele>
        <time>2022-08-24T13:01:13.000Z</time>
      </trkpt>
      <trkpt lat="40.5200965516269207000732421875" lon="-1.67509116232395172119140625">
        <ele>1719.199951171875</ele>
        <time>2022-08-24T13:01:19.000Z</time>
      </trkpt>
      <trkpt lat="40.52009680308401584625244140625" lon="-1.67508705519139766693115234375">
        <ele>1719.4000244140625</ele>
        <time>2022-08-24T13:01:20.000Z</time>
      </trkpt>
      <trkpt lat="40.520164109766483306884765625" lon="-1.67500960640609264373779296875">
        <ele>1720</ele>
        <time>2022-08-24T13:01:29.000Z</time>
      </trkpt>
      <trkpt lat="40.52022051997482776641845703125" lon="-1.67495177127420902252197265625">
        <ele>1720</ele>
        <time>2022-08-24T13:01:31.000Z</time>
      </trkpt>
      <trkpt lat="40.520383380353450775146484375" lon="-1.67478010989725589752197265625">
        <ele>1719.800048828125</ele>
        <time>2022-08-24T13:01:37.000Z</time>
      </trkpt>
      <trkpt lat="40.520532913506031036376953125" lon="-1.67460928671061992645263671875">
        <ele>1718.5999755859375</ele>
        <time>2022-08-24T13:01:44.000Z</time>
      </trkpt>
      <trkpt lat="40.52055126987397670745849609375" lon="-1.6745860688388347625732421875">
        <ele>1718.4000244140625</ele>
        <time>2022-08-24T13:01:45.000Z</time>
      </trkpt>
      <trkpt lat="40.52062553353607654571533203125" lon="-1.67448607273399829864501953125">
        <ele>1717.199951171875</ele>
        <time>2022-08-24T13:01:49.000Z</time>
      </trkpt>
      <trkpt lat="40.5207399465143680572509765625" lon="-1.67434358038008213043212890625">
        <ele>1716.5999755859375</ele>
        <time>2022-08-24T13:01:55.000Z</time>
      </trkpt>
      <trkpt lat="40.52086986601352691650390625" lon="-1.67417384684085845947265625">
        <ele>1716.4000244140625</ele>
        <time>2022-08-24T13:02:00.000Z</time>
      </trkpt>
      <trkpt lat="40.520944297313690185546875" lon="-1.67402900755405426025390625">
        <ele>1716.199951171875</ele>
        <time>2022-08-24T13:02:04.000Z</time>
      </trkpt>
      <trkpt lat="40.52097556181252002716064453125" lon="-1.6739259101450443267822265625">
        <ele>1716.199951171875</ele>
        <time>2022-08-24T13:02:07.000Z</time>
      </trkpt>
      <trkpt lat="40.5210153758525848388671875" lon="-1.67372784577310085296630859375">
        <ele>1716.199951171875</ele>
        <time>2022-08-24T13:02:14.000Z</time>
      </trkpt>
      <trkpt lat="40.5211235024034976959228515625" lon="-1.67351846583187580108642578125">
        <ele>1716.800048828125</ele>
        <time>2022-08-24T13:02:20.000Z</time>
      </trkpt>
      <trkpt lat="40.52122467197477817535400390625" lon="-1.67332216165959835052490234375">
        <ele>1717</ele>
        <time>2022-08-24T13:02:26.000Z</time>
      </trkpt>
      <trkpt lat="40.52124747075140476226806640625" lon="-1.67325845919549465179443359375">
        <ele>1717.199951171875</ele>
        <time>2022-08-24T13:02:28.000Z</time>
      </trkpt>
      <trkpt lat="40.52126540802419185638427734375" lon="-1.67322174645960330963134765625">
        <ele>1717.199951171875</ele>
        <time>2022-08-24T13:02:29.000Z</time>
      </trkpt>
      <trkpt lat="40.52139096893370151519775390625" lon="-1.67301001958549022674560546875">
        <ele>1717.4000244140625</ele>
        <time>2022-08-24T13:02:36.000Z</time>
      </trkpt>
      <trkpt lat="40.52149976603686809539794921875" lon="-1.67276275344192981719970703125">
        <ele>1717.800048828125</ele>
        <time>2022-08-24T13:02:44.000Z</time>
      </trkpt>
      <trkpt lat="40.52150814794003963470458984375" lon="-1.67261146008968353271484375">
        <ele>1718</ele>
        <time>2022-08-24T13:02:49.000Z</time>
      </trkpt>
      <trkpt lat="40.52150018513202667236328125" lon="-1.67249889113008975982666015625">
        <ele>1718.5999755859375</ele>
        <time>2022-08-24T13:02:54.000Z</time>
      </trkpt>
      <trkpt lat="40.52149222232401371002197265625" lon="-1.67239311151206493377685546875">
        <ele>1719.199951171875</ele>
        <time>2022-08-24T13:02:58.000Z</time>
      </trkpt>
      <trkpt lat="40.521493814885616302490234375" lon="-1.67235153727233409881591796875">
        <ele>1719.4000244140625</ele>
        <time>2022-08-24T13:03:01.000Z</time>
      </trkpt>
      <trkpt lat="40.52150295116007328033447265625" lon="-1.67225397191941738128662109375">
        <ele>1720.5999755859375</ele>
        <time>2022-08-24T13:03:05.000Z</time>
      </trkpt>
      <trkpt lat="40.52150445990264415740966796875" lon="-1.672241985797882080078125">
        <ele>1720.800048828125</ele>
        <time>2022-08-24T13:03:08.000Z</time>
      </trkpt>
      <trkpt lat="40.52153564058244228363037109375" lon="-1.67195239104330539703369140625">
        <ele>1724.800048828125</ele>
        <time>2022-08-24T13:06:14.000Z</time>
      </trkpt>
      <trkpt lat="40.521522648632526397705078125" lon="-1.67204283177852630615234375">
        <ele>1724.5999755859375</ele>
        <time>2022-08-24T13:06:16.000Z</time>
      </trkpt>
      <trkpt lat="40.52148618735373020172119140625" lon="-1.67228288948535919189453125">
        <ele>1724.4000244140625</ele>
        <time>2022-08-24T13:06:21.000Z</time>
      </trkpt>
      <trkpt lat="40.5214872770011425018310546875" lon="-1.6723997332155704498291015625">
        <ele>1724.4000244140625</ele>
        <time>2022-08-24T13:06:22.000Z</time>
      </trkpt>
      <trkpt lat="40.5215104110538959503173828125" lon="-1.672651357948780059814453125">
        <ele>1723.5999755859375</ele>
        <time>2022-08-24T13:06:26.000Z</time>
      </trkpt>
      <trkpt lat="40.5215104110538959503173828125" lon="-1.672651357948780059814453125">
        <ele>1723.199951171875</ele>
        <time>2022-08-24T13:06:27.000Z</time>
      </trkpt>
      <trkpt lat="40.52150362171232700347900390625" lon="-1.67272587306797504425048828125">
        <ele>1722.5999755859375</ele>
        <time>2022-08-24T13:06:28.000Z</time>
      </trkpt>
      <trkpt lat="40.52139448933303356170654296875" lon="-1.67299610562622547149658203125">
        <ele>1721.5999755859375</ele>
        <time>2022-08-24T13:06:31.000Z</time>
      </trkpt>
      <trkpt lat="40.52139448933303356170654296875" lon="-1.67299610562622547149658203125">
        <ele>1721.4000244140625</ele>
        <time>2022-08-24T13:06:32.000Z</time>
      </trkpt>
      <trkpt lat="40.52125216461718082427978515625" lon="-1.67323985137045383453369140625">
        <ele>1720</ele>
        <time>2022-08-24T13:06:35.000Z</time>
      </trkpt>
      <trkpt lat="40.5211761407554149627685546875" lon="-1.6733405180275440216064453125">
        <ele>1719.199951171875</ele>
        <time>2022-08-24T13:06:37.000Z</time>
      </trkpt>
      <trkpt lat="40.52113900892436504364013671875" lon="-1.6733871214091777801513671875">
        <ele>1719</ele>
        <time>2022-08-24T13:06:38.000Z</time>
      </trkpt>
      <trkpt lat="40.52107161842286586761474609375" lon="-1.67348862625658512115478515625">
        <ele>1718.4000244140625</ele>
        <time>2022-08-24T13:06:40.000Z</time>
      </trkpt>
      <trkpt lat="40.52101277746260166168212890625" lon="-1.6736503131687641143798828125">
        <ele>1718</ele>
        <time>2022-08-24T13:06:43.000Z</time>
      </trkpt>
      <trkpt lat="40.5209786631166934967041015625" lon="-1.6738151013851165771484375">
        <ele>1717.800048828125</ele>
        <time>2022-08-24T13:06:46.000Z</time>
      </trkpt>
      <trkpt lat="40.52092527039349079132080078125" lon="-1.67393001727759838104248046875">
        <ele>1717.5999755859375</ele>
        <time>2022-08-24T13:06:48.000Z</time>
      </trkpt>
      <trkpt lat="40.52080549299716949462890625" lon="-1.67420645244419574737548828125">
        <ele>1717.4000244140625</ele>
        <time>2022-08-24T13:06:53.000Z</time>
      </trkpt>
      <trkpt lat="40.52069543860852718353271484375" lon="-1.67431239970028400421142578125">
        <ele>1716.5999755859375</ele>
        <time>2022-08-24T13:06:57.000Z</time>
      </trkpt>
      <trkpt lat="40.52064129151403903961181640625" lon="-1.67436654679477214813232421875">
        <ele>1716.4000244140625</ele>
        <time>2022-08-24T13:06:59.000Z</time>
      </trkpt>
      <trkpt lat="40.52052092738449573516845703125" lon="-1.67451691813766956329345703125">
        <ele>1716.199951171875</ele>
        <time>2022-08-24T13:07:06.000Z</time>
      </trkpt>
      <trkpt lat="40.5205116234719753265380859375" lon="-1.67455413378775119781494140625">
        <ele>1716.199951171875</ele>
        <time>2022-08-24T13:07:10.000Z</time>
      </trkpt>
      <trkpt lat="40.52039318718016147613525390625" lon="-1.67473199777305126190185546875">
        <ele>1716.800048828125</ele>
        <time>2022-08-24T13:08:04.000Z</time>
      </trkpt>
      <trkpt lat="40.52038170397281646728515625" lon="-1.6747439838945865631103515625">
        <ele>1716.800048828125</ele>
        <time>2022-08-24T13:08:05.000Z</time>
      </trkpt>
      <trkpt lat="40.520326383411884307861328125" lon="-1.6747999750077724456787109375">
        <ele>1716.800048828125</ele>
        <time>2022-08-24T13:08:09.000Z</time>
      </trkpt>
      <trkpt lat="40.52030785940587520599365234375" lon="-1.67483232915401458740234375">
        <ele>1716.800048828125</ele>
        <time>2022-08-24T13:08:11.000Z</time>
      </trkpt>
      <trkpt lat="40.52026092074811458587646484375" lon="-1.67488287203013896942138671875">
        <ele>1717.4000244140625</ele>
        <time>2022-08-24T13:08:14.000Z</time>
      </trkpt>
      <trkpt lat="40.52014323882758617401123046875" lon="-1.6749642603099346160888671875">
        <ele>1717.800048828125</ele>
        <time>2022-08-24T13:08:21.000Z</time>
      </trkpt>
      <trkpt lat="40.5200365372002124786376953125" lon="-1.67504279874265193939208984375">
        <ele>1718.199951171875</ele>
        <time>2022-08-24T13:08:28.000Z</time>
      </trkpt>
      <trkpt lat="40.52002538926899433135986328125" lon="-1.6750470735132694244384765625">
        <ele>1718.4000244140625</ele>
        <time>2022-08-24T13:08:29.000Z</time>
      </trkpt>
      <trkpt lat="40.5199218727648258209228515625" lon="-1.67499099858105182647705078125">
        <ele>1719.199951171875</ele>
        <time>2022-08-24T13:08:37.000Z</time>
      </trkpt>
      <trkpt lat="40.51987803541123867034912109375" lon="-1.67500776238739490509033203125">
        <ele>1720.4000244140625</ele>
        <time>2022-08-24T13:08:43.000Z</time>
      </trkpt>
      <trkpt lat="40.5198678933084011077880859375" lon="-1.67501027695834636688232421875">
        <ele>1720.800048828125</ele>
        <time>2022-08-24T13:08:44.000Z</time>
      </trkpt>
      <trkpt lat="40.51981567405164241790771484375" lon="-1.67504028417170047760009765625">
        <ele>1721.5999755859375</ele>
        <time>2022-08-24T13:08:49.000Z</time>
      </trkpt>
      <trkpt lat="40.51978901959955692291259765625" lon="-1.67506677098572254180908203125">
        <ele>1722</ele>
        <time>2022-08-24T13:08:52.000Z</time>
      </trkpt>
      <trkpt lat="40.51973705179989337921142578125" lon="-1.67511153034865856170654296875">
        <ele>1722.5999755859375</ele>
        <time>2022-08-24T13:08:57.000Z</time>
      </trkpt>
      <trkpt lat="40.51967988722026348114013671875" lon="-1.6751473210752010345458984375">
        <ele>1723.199951171875</ele>
        <time>2022-08-24T13:09:01.000Z</time>
      </trkpt>
      <trkpt lat="40.51964216865599155426025390625" lon="-1.67517875321209430694580078125">
        <ele>1723.800048828125</ele>
        <time>2022-08-24T13:09:04.000Z</time>
      </trkpt>
      <trkpt lat="40.51958181895315647125244140625" lon="-1.6752152144908905029296875">
        <ele>1724</ele>
        <time>2022-08-24T13:09:08.000Z</time>
      </trkpt>
      <trkpt lat="40.51946313120424747467041015625" lon="-1.67531571350991725921630859375">
        <ele>1724.5999755859375</ele>
        <time>2022-08-24T13:09:17.000Z</time>
      </trkpt>
      <trkpt lat="40.51942172460258007049560546875" lon="-1.6753344051539897918701171875">
        <ele>1725</ele>
        <time>2022-08-24T13:09:20.000Z</time>
      </trkpt>
      <trkpt lat="40.5193824134767055511474609375" lon="-1.6753565333783626556396484375">
        <ele>1725.199951171875</ele>
        <time>2022-08-24T13:09:23.000Z</time>
      </trkpt>
      <trkpt lat="40.51926464773714542388916015625" lon="-1.67544680647552013397216796875">
        <ele>1725.800048828125</ele>
        <time>2022-08-24T13:09:31.000Z</time>
      </trkpt>
      <trkpt lat="40.5192509852349758148193359375" lon="-1.67545937933027744293212890625">
        <ele>1726</ele>
        <time>2022-08-24T13:09:32.000Z</time>
      </trkpt>
      <trkpt lat="40.51912751980125904083251953125" lon="-1.67554688639938831329345703125">
        <ele>1726.199951171875</ele>
        <time>2022-08-24T13:09:39.000Z</time>
      </trkpt>
      <trkpt lat="40.51900112070143222808837890625" lon="-1.67562735266983509063720703125">
        <ele>1726.4000244140625</ele>
        <time>2022-08-24T13:09:47.000Z</time>
      </trkpt>
      <trkpt lat="40.5188808403909206390380859375" lon="-1.67569977231323719024658203125">
        <ele>1726.4000244140625</ele>
        <time>2022-08-24T13:09:54.000Z</time>
      </trkpt>
      <trkpt lat="40.518766678869724273681640625" lon="-1.67575291357934474945068359375">
        <ele>1726.800048828125</ele>
        <time>2022-08-24T13:10:01.000Z</time>
      </trkpt>
      <trkpt lat="40.51875838078558444976806640625" lon="-1.675754673779010772705078125">
        <ele>1727</ele>
        <time>2022-08-24T13:10:02.000Z</time>
      </trkpt>
      <trkpt lat="40.5186511762440204620361328125" lon="-1.67579499073326587677001953125">
        <ele>1727.5999755859375</ele>
        <time>2022-08-24T13:10:09.000Z</time>
      </trkpt>
      <trkpt lat="40.51854279823601245880126953125" lon="-1.67584394104778766632080078125">
        <ele>1727.800048828125</ele>
        <time>2022-08-24T13:10:16.000Z</time>
      </trkpt>
      <trkpt lat="40.51844456233084201812744140625" lon="-1.67587696574628353118896484375">
        <ele>1728.4000244140625</ele>
        <time>2022-08-24T13:10:23.000Z</time>
      </trkpt>
      <trkpt lat="40.51840701140463352203369140625" lon="-1.6758809052407741546630859375">
        <ele>1729</ele>
        <time>2022-08-24T13:10:25.000Z</time>
      </trkpt>
      <trkpt lat="40.51835370250046253204345703125" lon="-1.6758939810097217559814453125">
        <ele>1729.800048828125</ele>
        <time>2022-08-24T13:10:29.000Z</time>
      </trkpt>
      <trkpt lat="40.5183256231248378753662109375" lon="-1.675905548036098480224609375">
        <ele>1730</ele>
        <time>2022-08-24T13:10:31.000Z</time>
      </trkpt>
      <trkpt lat="40.51827457733452320098876953125" lon="-1.67591418139636516571044921875">
        <ele>1730.4000244140625</ele>
        <time>2022-08-24T13:10:35.000Z</time>
      </trkpt>
      <trkpt lat="40.51820584572851657867431640625" lon="-1.675916276872158050537109375">
        <ele>1731</ele>
        <time>2022-08-24T13:10:39.000Z</time>
      </trkpt>
      <trkpt lat="40.51813560537993907928466796875" lon="-1.67592658661305904388427734375">
        <ele>1731.4000244140625</ele>
        <time>2022-08-24T13:10:43.000Z</time>
      </trkpt>
      <trkpt lat="40.51808514632284641265869140625" lon="-1.675937734544277191162109375">
        <ele>1732</ele>
        <time>2022-08-24T13:10:46.000Z</time>
      </trkpt>
      <trkpt lat="40.5180698074400424957275390625" lon="-1.6759436018764972686767578125">
        <ele>1732.199951171875</ele>
        <time>2022-08-24T13:10:47.000Z</time>
      </trkpt>
      <trkpt lat="40.5180354416370391845703125" lon="-1.6759543307125568389892578125">
        <ele>1732.199951171875</ele>
        <time>2022-08-24T13:10:49.000Z</time>
      </trkpt>
      <trkpt lat="40.51800166256725788116455078125" lon="-1.67595910839736461639404296875">
        <ele>1732.4000244140625</ele>
        <time>2022-08-24T13:10:51.000Z</time>
      </trkpt>
      <trkpt lat="40.51793443970382213592529296875" lon="-1.6759700886905193328857421875">
        <ele>1733.199951171875</ele>
        <time>2022-08-24T13:10:56.000Z</time>
      </trkpt>
      <trkpt lat="40.5178250558674335479736328125" lon="-1.67595726437866687774658203125">
        <ele>1733.800048828125</ele>
        <time>2022-08-24T13:11:01.000Z</time>
      </trkpt>
      <trkpt lat="40.51775590516626834869384765625" lon="-1.6759499721229076385498046875">
        <ele>1734</ele>
        <time>2022-08-24T13:11:04.000Z</time>
      </trkpt>
      <trkpt lat="40.51773729734122753143310546875" lon="-1.67595215141773223876953125">
        <ele>1734.199951171875</ele>
        <time>2022-08-24T13:11:05.000Z</time>
      </trkpt>
      <trkpt lat="40.5176037736237049102783203125" lon="-1.6759365610778331756591796875">
        <ele>1734.4000244140625</ele>
        <time>2022-08-24T13:11:12.000Z</time>
      </trkpt>
      <trkpt lat="40.51747226156294345855712890625" lon="-1.67590320110321044921875">
        <ele>1735</ele>
        <time>2022-08-24T13:11:19.000Z</time>
      </trkpt>
      <trkpt lat="40.51742599345743656158447265625" lon="-1.67590177617967128753662109375">
        <ele>1735.199951171875</ele>
        <time>2022-08-24T13:11:22.000Z</time>
      </trkpt>
      <trkpt lat="40.51735290326178073883056640625" lon="-1.67589842341840267181396484375">
        <ele>1735.800048828125</ele>
        <time>2022-08-24T13:11:27.000Z</time>
      </trkpt>
      <trkpt lat="40.51728651858866214752197265625" lon="-1.67588836513459682464599609375">
        <ele>1736.199951171875</ele>
        <time>2022-08-24T13:11:31.000Z</time>
      </trkpt>
      <trkpt lat="40.51724092103540897369384765625" lon="-1.67588937096297740936279296875">
        <ele>1736.800048828125</ele>
        <time>2022-08-24T13:11:34.000Z</time>
      </trkpt>
      <trkpt lat="40.51717579364776611328125" lon="-1.67588702403008937835693359375">
        <ele>1737.4000244140625</ele>
        <time>2022-08-24T13:11:39.000Z</time>
      </trkpt>
      <trkpt lat="40.517127513885498046875" lon="-1.67587780393660068511962890625">
        <ele>1737.5999755859375</ele>
        <time>2022-08-24T13:11:42.000Z</time>
      </trkpt>
      <trkpt lat="40.517064146697521209716796875" lon="-1.6758701764047145843505859375">
        <ele>1738.199951171875</ele>
        <time>2022-08-24T13:11:46.000Z</time>
      </trkpt>
      <trkpt lat="40.5169989354908466339111328125" lon="-1.67585517279803752899169921875">
        <ele>1738.800048828125</ele>
        <time>2022-08-24T13:11:50.000Z</time>
      </trkpt>
      <trkpt lat="40.51693506538867950439453125" lon="-1.67584444396197795867919921875">
        <ele>1739.4000244140625</ele>
        <time>2022-08-24T13:11:54.000Z</time>
      </trkpt>
      <trkpt lat="40.51686993800103664398193359375" lon="-1.675837822258472442626953125">
        <ele>1739.800048828125</ele>
        <time>2022-08-24T13:11:58.000Z</time>
      </trkpt>
      <trkpt lat="40.516767762601375579833984375" lon="-1.67583069764077663421630859375">
        <ele>1740.4000244140625</ele>
        <time>2022-08-24T13:12:04.000Z</time>
      </trkpt>
      <trkpt lat="40.51676030270755290985107421875" lon="-1.67583354748785495758056640625">
        <ele>1740.5999755859375</ele>
        <time>2022-08-24T13:12:05.000Z</time>
      </trkpt>
      <trkpt lat="40.5166447162628173828125" lon="-1.67583053000271320343017578125">
        <ele>1741.199951171875</ele>
        <time>2022-08-24T13:12:14.000Z</time>
      </trkpt>
      <trkpt lat="40.51663088612258434295654296875" lon="-1.67583170346915721893310546875">
        <ele>1741.4000244140625</ele>
        <time>2022-08-24T13:12:16.000Z</time>
      </trkpt>
      <trkpt lat="40.51656014285981655120849609375" lon="-1.67583019472658634185791015625">
        <ele>1741.800048828125</ele>
        <time>2022-08-24T13:12:20.000Z</time>
      </trkpt>
      <trkpt lat="40.51656014285981655120849609375" lon="-1.67583019472658634185791015625">
        <ele>1742</ele>
        <time>2022-08-24T13:12:21.000Z</time>
      </trkpt>
      <trkpt lat="40.51646810956299304962158203125" lon="-1.67580194771289825439453125">
        <ele>1742.4000244140625</ele>
        <time>2022-08-24T13:12:26.000Z</time>
      </trkpt>
      <trkpt lat="40.51636333577334880828857421875" lon="-1.67579515837132930755615234375">
        <ele>1742.5999755859375</ele>
        <time>2022-08-24T13:12:30.000Z</time>
      </trkpt>
      <trkpt lat="40.51614247262477874755859375" lon="-1.675737239420413970947265625">
        <ele>1743.199951171875</ele>
        <time>2022-08-24T13:12:40.000Z</time>
      </trkpt>
      <trkpt lat="40.51611070521175861358642578125" lon="-1.67573782615363597869873046875">
        <ele>1743.4000244140625</ele>
        <time>2022-08-24T13:12:42.000Z</time>
      </trkpt>
      <trkpt lat="40.51606426946818828582763671875" lon="-1.67574168182909488677978515625">
        <ele>1743.800048828125</ele>
        <time>2022-08-24T13:12:46.000Z</time>
      </trkpt>
      <trkpt lat="40.515998639166355133056640625" lon="-1.675749979913234710693359375">
        <ele>1744.4000244140625</ele>
        <time>2022-08-24T13:12:51.000Z</time>
      </trkpt>
      <trkpt lat="40.51593300886452198028564453125" lon="-1.6757605411112308502197265625">
        <ele>1744.5999755859375</ele>
        <time>2022-08-24T13:12:54.000Z</time>
      </trkpt>
      <trkpt lat="40.51582303829491138458251953125" lon="-1.67576028965413570404052734375">
        <ele>1745.5999755859375</ele>
        <time>2022-08-24T13:12:59.000Z</time>
      </trkpt>
      <trkpt lat="40.51578347571194171905517578125" lon="-1.67575928382575511932373046875">
        <ele>1745.800048828125</ele>
        <time>2022-08-24T13:13:01.000Z</time>
      </trkpt>
      <trkpt lat="40.51571734249591827392578125" lon="-1.67576347477734088897705078125">
        <ele>1746.5999755859375</ele>
        <time>2022-08-24T13:13:05.000Z</time>
      </trkpt>
      <trkpt lat="40.51565707661211490631103515625" lon="-1.6757746227085590362548828125">
        <ele>1747</ele>
        <time>2022-08-24T13:13:09.000Z</time>
      </trkpt>
      <trkpt lat="40.51561784930527210235595703125" lon="-1.675774790346622467041015625">
        <ele>1747.4000244140625</ele>
        <time>2022-08-24T13:13:11.000Z</time>
      </trkpt>
      <trkpt lat="40.51551592536270618438720703125" lon="-1.675787530839443206787109375">
        <ele>1748</ele>
        <time>2022-08-24T13:13:16.000Z</time>
      </trkpt>
      <trkpt lat="40.51539455540478229522705078125" lon="-1.6757892072200775146484375">
        <ele>1748.4000244140625</ele>
        <time>2022-08-24T13:13:21.000Z</time>
      </trkpt>
      <trkpt lat="40.51528441719710826873779296875" lon="-1.67577906511723995208740234375">
        <ele>1749.199951171875</ele>
        <time>2022-08-24T13:13:25.000Z</time>
      </trkpt>
      <trkpt lat="40.5150714330375194549560546875" lon="-1.67576842010021209716796875">
        <ele>1749.4000244140625</ele>
        <time>2022-08-24T13:13:34.000Z</time>
      </trkpt>
      <trkpt lat="40.51489382050931453704833984375" lon="-1.6757846809923648834228515625">
        <ele>1750.4000244140625</ele>
        <time>2022-08-24T13:13:42.000Z</time>
      </trkpt>
      <trkpt lat="40.51487655378878116607666015625" lon="-1.6757863573729991912841796875">
        <ele>1750.5999755859375</ele>
        <time>2022-08-24T13:13:43.000Z</time>
      </trkpt>
      <trkpt lat="40.514734648168087005615234375" lon="-1.67579046450555324554443359375">
        <ele>1750.800048828125</ele>
        <time>2022-08-24T13:13:50.000Z</time>
      </trkpt>
      <trkpt lat="40.51459358073770999908447265625" lon="-1.67580194771289825439453125">
        <ele>1751</ele>
        <time>2022-08-24T13:13:56.000Z</time>
      </trkpt>
      <trkpt lat="40.5144330672919750213623046875" lon="-1.67578979395329952239990234375">
        <ele>1751.4000244140625</ele>
        <time>2022-08-24T13:14:02.000Z</time>
      </trkpt>
      <trkpt lat="40.51424690522253513336181640625" lon="-1.675757355988025665283203125">
        <ele>1752</ele>
        <time>2022-08-24T13:14:08.000Z</time>
      </trkpt>
      <trkpt lat="40.514062084257602691650390625" lon="-1.67573464103043079376220703125">
        <ele>1752.199951171875</ele>
        <time>2022-08-24T13:14:14.000Z</time>
      </trkpt>
      <trkpt lat="40.51398756913840770721435546875" lon="-1.675735227763652801513671875">
        <ele>1752.4000244140625</ele>
        <time>2022-08-24T13:14:17.000Z</time>
      </trkpt>
      <trkpt lat="40.51387466490268707275390625" lon="-1.67574637569487094879150390625">
        <ele>1752.800048828125</ele>
        <time>2022-08-24T13:14:21.000Z</time>
      </trkpt>
      <trkpt lat="40.5136947892606258392333984375" lon="-1.6757565177977085113525390625">
        <ele>1752.800048828125</ele>
        <time>2022-08-24T13:14:27.000Z</time>
      </trkpt>
      <trkpt lat="40.51350141875445842742919921875" lon="-1.67578308843076229095458984375">
        <ele>1753</ele>
        <time>2022-08-24T13:14:33.000Z</time>
      </trkpt>
      <trkpt lat="40.51320201717317104339599609375" lon="-1.6758309490978717803955078125">
        <ele>1753</ele>
        <time>2022-08-24T13:14:42.000Z</time>
      </trkpt>
      <trkpt lat="40.51294972188770771026611328125" lon="-1.67588149197399616241455078125">
        <ele>1753.4000244140625</ele>
        <time>2022-08-24T13:14:51.000Z</time>
      </trkpt>
      <trkpt lat="40.51292382180690765380859375" lon="-1.67588333599269390106201171875">
        <ele>1753.4000244140625</ele>
        <time>2022-08-24T13:14:52.000Z</time>
      </trkpt>
      <trkpt lat="40.5127043835818767547607421875" lon="-1.6758721880614757537841796875">
        <ele>1753.800048828125</ele>
        <time>2022-08-24T13:15:00.000Z</time>
      </trkpt>
      <trkpt lat="40.51243306137621402740478515625" lon="-1.67587830685079097747802734375">
        <ele>1754.4000244140625</ele>
        <time>2022-08-24T13:15:08.000Z</time>
      </trkpt>
      <trkpt lat="40.512399114668369293212890625" lon="-1.6758792288601398468017578125">
        <ele>1754.4000244140625</ele>
        <time>2022-08-24T13:15:09.000Z</time>
      </trkpt>
      <trkpt lat="40.5122430436313152313232421875" lon="-1.67586405761539936065673828125">
        <ele>1754.5999755859375</ele>
        <time>2022-08-24T13:15:15.000Z</time>
      </trkpt>
      <trkpt lat="40.51205134950578212738037109375" lon="-1.67587160132825374603271484375">
        <ele>1754.4000244140625</ele>
        <time>2022-08-24T13:15:22.000Z</time>
      </trkpt>
      <trkpt lat="40.5118088610470294952392578125" lon="-1.67589155025780200958251953125">
        <ele>1754.199951171875</ele>
        <time>2022-08-24T13:15:31.000Z</time>
      </trkpt>
      <trkpt lat="40.511547513306140899658203125" lon="-1.67591820470988750457763671875">
        <ele>1754</ele>
        <time>2022-08-24T13:15:38.000Z</time>
      </trkpt>
      <trkpt lat="40.51129647530615329742431640625" lon="-1.67594276368618011474609375">
        <ele>1753.4000244140625</ele>
        <time>2022-08-24T13:15:45.000Z</time>
      </trkpt>
      <trkpt lat="40.5110447667539119720458984375" lon="-1.676031611859798431396484375">
        <ele>1753</ele>
        <time>2022-08-24T13:15:51.000Z</time>
      </trkpt>
      <trkpt lat="40.510706640779972076416015625" lon="-1.67618055827915668487548828125">
        <ele>1752.4000244140625</ele>
        <time>2022-08-24T13:15:57.000Z</time>
      </trkpt>
      <trkpt lat="40.51064318977296352386474609375" lon="-1.6762094758450984954833984375">
        <ele>1752.4000244140625</ele>
        <time>2022-08-24T13:15:58.000Z</time>
      </trkpt>
      <trkpt lat="40.51035233773291110992431640625" lon="-1.6763134114444255828857421875">
        <ele>1752</ele>
        <time>2022-08-24T13:16:03.000Z</time>
      </trkpt>
      <trkpt lat="40.51024907268583774566650390625" lon="-1.6763429157435894012451171875">
        <ele>1751</ele>
        <time>2022-08-24T13:16:06.000Z</time>
      </trkpt>
      <trkpt lat="40.51021344959735870361328125" lon="-1.67636227793991565704345703125">
        <ele>1750.199951171875</ele>
        <time>2022-08-24T13:16:07.000Z</time>
      </trkpt>
      <trkpt lat="40.51017212681472301483154296875" lon="-1.6763844899833202362060546875">
        <ele>1749.800048828125</ele>
        <time>2022-08-24T13:16:08.000Z</time>
      </trkpt>
      <trkpt lat="40.51007674075663089752197265625" lon="-1.6764428280293941497802734375">
        <ele>1748.5999755859375</ele>
        <time>2022-08-24T13:16:10.000Z</time>
      </trkpt>
      <trkpt lat="40.509977750480175018310546875" lon="-1.6765139065682888031005859375">
        <ele>1747.800048828125</ele>
        <time>2022-08-24T13:16:12.000Z</time>
      </trkpt>
      <trkpt lat="40.50992452539503574371337890625" lon="-1.676550619304180145263671875">
        <ele>1747.4000244140625</ele>
        <time>2022-08-24T13:16:13.000Z</time>
      </trkpt>
      <trkpt lat="40.50971732474863529205322265625" lon="-1.67672060430049896240234375">
        <ele>1746.4000244140625</ele>
        <time>2022-08-24T13:16:17.000Z</time>
      </trkpt>
      <trkpt lat="40.5096510238945484161376953125" lon="-1.676765196025371551513671875">
        <ele>1746.199951171875</ele>
        <time>2022-08-24T13:16:18.000Z</time>
      </trkpt>
      <trkpt lat="40.50946511328220367431640625" lon="-1.67691363953053951263427734375">
        <ele>1744.5999755859375</ele>
        <time>2022-08-24T13:16:21.000Z</time>
      </trkpt>
      <trkpt lat="40.5093264766037464141845703125" lon="-1.6770433075726032257080078125">
        <ele>1743.4000244140625</ele>
        <time>2022-08-24T13:16:23.000Z</time>
      </trkpt>
      <trkpt lat="40.50913159735500812530517578125" lon="-1.67726668529212474822998046875">
        <ele>1742</ele>
        <time>2022-08-24T13:16:26.000Z</time>
      </trkpt>
      <trkpt lat="40.5090663023293018341064453125" lon="-1.6773329861462116241455078125">
        <ele>1741.4000244140625</ele>
        <time>2022-08-24T13:16:27.000Z</time>
      </trkpt>
      <trkpt lat="40.508992038667201995849609375" lon="-1.67738889344036579132080078125">
        <ele>1741</ele>
        <time>2022-08-24T13:16:28.000Z</time>
      </trkpt>
      <trkpt lat="40.5088503845036029815673828125" lon="-1.6774816811084747314453125">
        <ele>1739.800048828125</ele>
        <time>2022-08-24T13:16:30.000Z</time>
      </trkpt>
      <trkpt lat="40.50877704285085201263427734375" lon="-1.677520237863063812255859375">
        <ele>1739.5999755859375</ele>
        <time>2022-08-24T13:16:31.000Z</time>
      </trkpt>
      <trkpt lat="40.50862935371696949005126953125" lon="-1.6775914840400218963623046875">
        <ele>1738.5999755859375</ele>
        <time>2022-08-24T13:16:33.000Z</time>
      </trkpt>
      <trkpt lat="40.5085496418178081512451171875" lon="-1.67762844823300838470458984375">
        <ele>1737.199951171875</ele>
        <time>2022-08-24T13:16:34.000Z</time>
      </trkpt>
      <trkpt lat="40.5083984322845935821533203125" lon="-1.67770254425704479217529296875">
        <ele>1736</ele>
        <time>2022-08-24T13:16:36.000Z</time>
      </trkpt>
      <trkpt lat="40.50832517445087432861328125" lon="-1.67774093337357044219970703125">
        <ele>1735.4000244140625</ele>
        <time>2022-08-24T13:16:37.000Z</time>
      </trkpt>
      <trkpt lat="40.50825116224586963653564453125" lon="-1.67778049595654010772705078125">
        <ele>1734.800048828125</ele>
        <time>2022-08-24T13:16:38.000Z</time>
      </trkpt>
      <trkpt lat="40.50810255110263824462890625" lon="-1.67787672020494937896728515625">
        <ele>1733.4000244140625</ele>
        <time>2022-08-24T13:16:40.000Z</time>
      </trkpt>
      <trkpt lat="40.507966093719005584716796875" lon="-1.6779954917728900909423828125">
        <ele>1732.4000244140625</ele>
        <time>2022-08-24T13:16:42.000Z</time>
      </trkpt>
      <trkpt lat="40.507903061807155609130859375" lon="-1.67805810458958148956298828125">
        <ele>1731.800048828125</ele>
        <time>2022-08-24T13:16:43.000Z</time>
      </trkpt>
      <trkpt lat="40.50777741707861423492431640625" lon="-1.6781711764633655548095703125">
        <ele>1730.4000244140625</ele>
        <time>2022-08-24T13:16:45.000Z</time>
      </trkpt>
      <trkpt lat="40.50762520171701908111572265625" lon="-1.6782469488680362701416015625">
        <ele>1728.800048828125</ele>
        <time>2022-08-24T13:16:47.000Z</time>
      </trkpt>
      <trkpt lat="40.507469885051250457763671875" lon="-1.67830687947571277618408203125">
        <ele>1727.5999755859375</ele>
        <time>2022-08-24T13:16:49.000Z</time>
      </trkpt>
      <trkpt lat="40.50739218480885028839111328125" lon="-1.67833487503230571746826171875">
        <ele>1726.4000244140625</ele>
        <time>2022-08-24T13:16:51.000Z</time>
      </trkpt>
      <trkpt lat="40.50724063999950885772705078125" lon="-1.67839388363063335418701171875">
        <ele>1725.199951171875</ele>
        <time>2022-08-24T13:16:53.000Z</time>
      </trkpt>
      <trkpt lat="40.50702103413641452789306640625" lon="-1.67851894162595272064208984375">
        <ele>1723.800048828125</ele>
        <time>2022-08-24T13:16:55.000Z</time>
      </trkpt>
      <trkpt lat="40.50681852735579013824462890625" lon="-1.67867216281592845916748046875">
        <ele>1722.199951171875</ele>
        <time>2022-08-24T13:16:58.000Z</time>
      </trkpt>
      <trkpt lat="40.50674862228333950042724609375" lon="-1.6787243820726871490478515625">
        <ele>1720.5999755859375</ele>
        <time>2022-08-24T13:17:00.000Z</time>
      </trkpt>
      <trkpt lat="40.50655164755880832672119140625" lon="-1.678914315998554229736328125">
        <ele>1718.5999755859375</ele>
        <time>2022-08-24T13:17:02.000Z</time>
      </trkpt>
      <trkpt lat="40.5064853467047214508056640625" lon="-1.6789825446903705596923828125">
        <ele>1717.5999755859375</ele>
        <time>2022-08-24T13:17:04.000Z</time>
      </trkpt>
      <trkpt lat="40.50629231147468090057373046875" lon="-1.67918899096548557281494140625">
        <ele>1716.4000244140625</ele>
        <time>2022-08-24T13:17:07.000Z</time>
      </trkpt>
      <trkpt lat="40.5060571990907192230224609375" lon="-1.67946089990437030792236328125">
        <ele>1715.4000244140625</ele>
        <time>2022-08-24T13:17:11.000Z</time>
      </trkpt>
      <trkpt lat="40.50594781525433063507080078125" lon="-1.679611690342426300048828125">
        <ele>1714.800048828125</ele>
        <time>2022-08-24T13:17:13.000Z</time>
      </trkpt>
      <trkpt lat="40.5058375932276248931884765625" lon="-1.67978259734809398651123046875">
        <ele>1714.199951171875</ele>
        <time>2022-08-24T13:17:15.000Z</time>
      </trkpt>
      <trkpt lat="40.50577841699123382568359375" lon="-1.67986339889466762542724609375">
        <ele>1714</ele>
        <time>2022-08-24T13:17:16.000Z</time>
      </trkpt>
      <trkpt lat="40.50566484220325946807861328125" lon="-1.68003589846193790435791015625">
        <ele>1713.5999755859375</ele>
        <time>2022-08-24T13:17:18.000Z</time>
      </trkpt>
      <trkpt lat="40.50548966042697429656982421875" lon="-1.6803140938282012939453125">
        <ele>1712.5999755859375</ele>
        <time>2022-08-24T13:17:20.000Z</time>
      </trkpt>
      <trkpt lat="40.50542830489575862884521484375" lon="-1.68040654622018337249755859375">
        <ele>1712</ele>
        <time>2022-08-24T13:17:21.000Z</time>
      </trkpt>
      <trkpt lat="40.50530659966170787811279296875" lon="-1.6805823147296905517578125">
        <ele>1711.5999755859375</ele>
        <time>2022-08-24T13:17:23.000Z</time>
      </trkpt>
      <trkpt lat="40.5051080323755741119384765625" lon="-1.68081927113234996795654296875">
        <ele>1710</ele>
        <time>2022-08-24T13:17:26.000Z</time>
      </trkpt>
      <trkpt lat="40.50503854639828205108642578125" lon="-1.68089454062283039093017578125">
        <ele>1709.5999755859375</ele>
        <time>2022-08-24T13:17:27.000Z</time>
      </trkpt>
      <trkpt lat="40.50496981479227542877197265625" lon="-1.6809712350368499755859375">
        <ele>1709</ele>
        <time>2022-08-24T13:17:28.000Z</time>
      </trkpt>
      <trkpt lat="40.50483469851315021514892578125" lon="-1.68113023974001407623291015625">
        <ele>1707.5999755859375</ele>
        <time>2022-08-24T13:17:30.000Z</time>
      </trkpt>
      <trkpt lat="40.50462800078094005584716796875" lon="-1.68138940818607807159423828125">
        <ele>1706.4000244140625</ele>
        <time>2022-08-24T13:17:33.000Z</time>
      </trkpt>
      <trkpt lat="40.50455910153687000274658203125" lon="-1.68147054500877857208251953125">
        <ele>1706</ele>
        <time>2022-08-24T13:17:34.000Z</time>
      </trkpt>
      <trkpt lat="40.5044146813452243804931640625" lon="-1.6816272027790546417236328125">
        <ele>1705</ele>
        <time>2022-08-24T13:17:36.000Z</time>
      </trkpt>
      <trkpt lat="40.50414436496794223785400390625" lon="-1.681923754513263702392578125">
        <ele>1703.5999755859375</ele>
        <time>2022-08-24T13:17:40.000Z</time>
      </trkpt>
      <trkpt lat="40.5040777288377285003662109375" lon="-1.68199709616601467132568359375">
        <ele>1703</ele>
        <time>2022-08-24T13:17:41.000Z</time>
      </trkpt>
      <trkpt lat="40.5040143616497516632080078125" lon="-1.6820711083710193634033203125">
        <ele>1702.4000244140625</ele>
        <time>2022-08-24T13:17:42.000Z</time>
      </trkpt>
      <trkpt lat="40.50389307551085948944091796875" lon="-1.68222005479037761688232421875">
        <ele>1701.199951171875</ele>
        <time>2022-08-24T13:17:44.000Z</time>
      </trkpt>
      <trkpt lat="40.5037082545459270477294921875" lon="-1.68243396095931529998779296875">
        <ele>1699.5999755859375</ele>
        <time>2022-08-24T13:17:47.000Z</time>
      </trkpt>
      <trkpt lat="40.5035895667970180511474609375" lon="-1.68257963843643665313720703125">
        <ele>1698.5999755859375</ele>
        <time>2022-08-24T13:17:49.000Z</time>
      </trkpt>
      <trkpt lat="40.5034683644771575927734375" lon="-1.68272280134260654449462890625">
        <ele>1697.199951171875</ele>
        <time>2022-08-24T13:17:51.000Z</time>
      </trkpt>
      <trkpt lat="40.50334640778601169586181640625" lon="-1.6828407347202301025390625">
        <ele>1696.5999755859375</ele>
        <time>2022-08-24T13:17:53.000Z</time>
      </trkpt>
      <trkpt lat="40.50328119657933712005615234375" lon="-1.68289161287248134613037109375">
        <ele>1696.199951171875</ele>
        <time>2022-08-24T13:17:54.000Z</time>
      </trkpt>
      <trkpt lat="40.50302982330322265625" lon="-1.6831245459616184234619140625">
        <ele>1694.800048828125</ele>
        <time>2022-08-24T13:17:58.000Z</time>
      </trkpt>
      <trkpt lat="40.5028942041099071502685546875" lon="-1.6832509450614452362060546875">
        <ele>1694</ele>
        <time>2022-08-24T13:18:00.000Z</time>
      </trkpt>
      <trkpt lat="40.50283192656934261322021484375" lon="-1.6833153180778026580810546875">
        <ele>1693.5999755859375</ele>
        <time>2022-08-24T13:18:01.000Z</time>
      </trkpt>
      <trkpt lat="40.5027704872190952301025390625" lon="-1.68337625451385974884033203125">
        <ele>1692.800048828125</ele>
        <time>2022-08-24T13:18:02.000Z</time>
      </trkpt>
      <trkpt lat="40.50271072424948215484619140625" lon="-1.6834433935582637786865234375">
        <ele>1692.199951171875</ele>
        <time>2022-08-24T13:18:03.000Z</time>
      </trkpt>
      <trkpt lat="40.50254543311893939971923828125" lon="-1.68365369550883769989013671875">
        <ele>1690.800048828125</ele>
        <time>2022-08-24T13:18:06.000Z</time>
      </trkpt>
      <trkpt lat="40.50241115503013134002685546875" lon="-1.6839141212403774261474609375">
        <ele>1689.4000244140625</ele>
        <time>2022-08-24T13:18:09.000Z</time>
      </trkpt>
      <trkpt lat="40.5023150146007537841796875" lon="-1.6841186396777629852294921875">
        <ele>1688.800048828125</ele>
        <time>2022-08-24T13:18:11.000Z</time>
      </trkpt>
      <trkpt lat="40.50220445729792118072509765625" lon="-1.68431737460196018218994140625">
        <ele>1688</ele>
        <time>2022-08-24T13:18:13.000Z</time>
      </trkpt>
      <trkpt lat="40.50208727829158306121826171875" lon="-1.6844951547682285308837890625">
        <ele>1686.4000244140625</ele>
        <time>2022-08-24T13:18:15.000Z</time>
      </trkpt>
      <trkpt lat="40.50202810205519199371337890625" lon="-1.68458081781864166259765625">
        <ele>1685.800048828125</ele>
        <time>2022-08-24T13:18:16.000Z</time>
      </trkpt>
      <trkpt lat="40.50197144038975238800048828125" lon="-1.68466673232614994049072265625">
        <ele>1685.199951171875</ele>
        <time>2022-08-24T13:18:17.000Z</time>
      </trkpt>
      <trkpt lat="40.50186616368591785430908203125" lon="-1.684844680130481719970703125">
        <ele>1683.5999755859375</ele>
        <time>2022-08-24T13:18:19.000Z</time>
      </trkpt>
      <trkpt lat="40.5017753876745700836181640625" lon="-1.685027740895748138427734375">
        <ele>1682.4000244140625</ele>
        <time>2022-08-24T13:18:21.000Z</time>
      </trkpt>
      <trkpt lat="40.50173171795904636383056640625" lon="-1.68512337841093540191650390625">
        <ele>1682</ele>
        <time>2022-08-24T13:18:22.000Z</time>
      </trkpt>
      <trkpt lat="40.50163867883384227752685546875" lon="-1.68531716801226139068603515625">
        <ele>1680.800048828125</ele>
        <time>2022-08-24T13:18:24.000Z</time>
      </trkpt>
      <trkpt lat="40.5015621520578861236572265625" lon="-1.6855170764029026031494140625">
        <ele>1678.5999755859375</ele>
        <time>2022-08-24T13:18:26.000Z</time>
      </trkpt>
      <trkpt lat="40.501497946679592132568359375" lon="-1.685725785791873931884765625">
        <ele>1677.5999755859375</ele>
        <time>2022-08-24T13:18:28.000Z</time>
      </trkpt>
      <trkpt lat="40.50143935717642307281494140625" lon="-1.6859368421137332916259765625">
        <ele>1676.5999755859375</ele>
        <time>2022-08-24T13:18:30.000Z</time>
      </trkpt>
      <trkpt lat="40.50138286314904689788818359375" lon="-1.6861514188349246978759765625">
        <ele>1675</ele>
        <time>2022-08-24T13:18:32.000Z</time>
      </trkpt>
      <trkpt lat="40.50132586620748043060302734375" lon="-1.68636306189000606536865234375">
        <ele>1674</ele>
        <time>2022-08-24T13:18:34.000Z</time>
      </trkpt>
      <trkpt lat="40.50131195224821567535400390625" lon="-1.6864689253270626068115234375">
        <ele>1673.5999755859375</ele>
        <time>2022-08-24T13:18:35.000Z</time>
      </trkpt>
      <trkpt lat="40.5013106949627399444580078125" lon="-1.68677763082087039947509765625">
        <ele>1672.800048828125</ele>
        <time>2022-08-24T13:18:38.000Z</time>
      </trkpt>
      <trkpt lat="40.50131253898143768310546875" lon="-1.68687972240149974822998046875">
        <ele>1672.199951171875</ele>
        <time>2022-08-24T13:18:39.000Z</time>
      </trkpt>
      <trkpt lat="40.50131614319980144500732421875" lon="-1.6869825683534145355224609375">
        <ele>1671.5999755859375</ele>
        <time>2022-08-24T13:18:40.000Z</time>
      </trkpt>
      <trkpt lat="40.5013264529407024383544921875" lon="-1.6872843168675899505615234375">
        <ele>1670.199951171875</ele>
        <time>2022-08-24T13:18:43.000Z</time>
      </trkpt>
      <trkpt lat="40.50133399665355682373046875" lon="-1.68760827742516994476318359375">
        <ele>1669</ele>
        <time>2022-08-24T13:18:46.000Z</time>
      </trkpt>
      <trkpt lat="40.50137112848460674285888671875" lon="-1.68788186274468898773193359375">
        <ele>1667.800048828125</ele>
        <time>2022-08-24T13:18:49.000Z</time>
      </trkpt>
      <trkpt lat="40.50139040686190128326416015625" lon="-1.68796241283416748046875">
        <ele>1667</ele>
        <time>2022-08-24T13:18:50.000Z</time>
      </trkpt>
      <trkpt lat="40.5014072544872760772705078125" lon="-1.68803374283015727996826171875">
        <ele>1666.5999755859375</ele>
        <time>2022-08-24T13:18:51.000Z</time>
      </trkpt>
      <trkpt lat="40.50141622312366962432861328125" lon="-1.6880936734378337860107421875">
        <ele>1666.199951171875</ele>
        <time>2022-08-24T13:18:52.000Z</time>
      </trkpt>
      <trkpt lat="40.50142577849328517913818359375" lon="-1.68820045888423919677734375">
        <ele>1665</ele>
        <time>2022-08-24T13:18:54.000Z</time>
      </trkpt>
      <trkpt lat="40.50142443738877773284912109375" lon="-1.688260138034820556640625">
        <ele>1664.5999755859375</ele>
        <time>2022-08-24T13:18:55.000Z</time>
      </trkpt>
      <trkpt lat="40.5014111101627349853515625" lon="-1.6883226670324802398681640625">
        <ele>1664</ele>
        <time>2022-08-24T13:18:56.000Z</time>
      </trkpt>
      <trkpt lat="40.50135788507759571075439453125" lon="-1.6884262673556804656982421875">
        <ele>1662.800048828125</ele>
        <time>2022-08-24T13:18:58.000Z</time>
      </trkpt>
      <trkpt lat="40.501278005540370941162109375" lon="-1.688440851867198944091796875">
        <ele>1661.5999755859375</ele>
        <time>2022-08-24T13:19:00.000Z</time>
      </trkpt>
      <trkpt lat="40.50113123841583728790283203125" lon="-1.68830573558807373046875">
        <ele>1660.4000244140625</ele>
        <time>2022-08-24T13:19:03.000Z</time>
      </trkpt>
      <trkpt lat="40.50098128616809844970703125" lon="-1.68816735036671161651611328125">
        <ele>1659.199951171875</ele>
        <time>2022-08-24T13:19:06.000Z</time>
      </trkpt>
      <trkpt lat="40.500887073576450347900390625" lon="-1.68811186216771602630615234375">
        <ele>1658</ele>
        <time>2022-08-24T13:19:08.000Z</time>
      </trkpt>
      <trkpt lat="40.5007618479430675506591796875" lon="-1.6880433820188045501708984375">
        <ele>1657</ele>
        <time>2022-08-24T13:19:10.000Z</time>
      </trkpt>
      <trkpt lat="40.50062933005392551422119140625" lon="-1.68796249665319919586181640625">
        <ele>1655.800048828125</ele>
        <time>2022-08-24T13:19:12.000Z</time>
      </trkpt>
      <trkpt lat="40.50049848854541778564453125" lon="-1.687866859138011932373046875">
        <ele>1654.800048828125</ele>
        <time>2022-08-24T13:19:14.000Z</time>
      </trkpt>
      <trkpt lat="40.50030562095344066619873046875" lon="-1.6877272166311740875244140625">
        <ele>1653.4000244140625</ele>
        <time>2022-08-24T13:19:17.000Z</time>
      </trkpt>
      <trkpt lat="40.5002388171851634979248046875" lon="-1.6876732371747493743896484375">
        <ele>1652.5999755859375</ele>
        <time>2022-08-24T13:19:18.000Z</time>
      </trkpt>
      <trkpt lat="40.5001652240753173828125" lon="-1.68761171400547027587890625">
        <ele>1652</ele>
        <time>2022-08-24T13:19:19.000Z</time>
      </trkpt>
      <trkpt lat="40.50003035925328731536865234375" lon="-1.68749277479946613311767578125">
        <ele>1650.800048828125</ele>
        <time>2022-08-24T13:19:21.000Z</time>
      </trkpt>
      <trkpt lat="40.49996632151305675506591796875" lon="-1.6874407231807708740234375">
        <ele>1649.5999755859375</ele>
        <time>2022-08-24T13:19:22.000Z</time>
      </trkpt>
      <trkpt lat="40.4998998530209064483642578125" lon="-1.68739805929362773895263671875">
        <ele>1649.199951171875</ele>
        <time>2022-08-24T13:19:23.000Z</time>
      </trkpt>
      <trkpt lat="40.49983254633843898773193359375" lon="-1.68736855499446392059326171875">
        <ele>1648.5999755859375</ele>
        <time>2022-08-24T13:19:24.000Z</time>
      </trkpt>
      <trkpt lat="40.499676056206226348876953125" lon="-1.68733553029596805572509765625">
        <ele>1647.5999755859375</ele>
        <time>2022-08-24T13:19:26.000Z</time>
      </trkpt>
      <trkpt lat="40.49959181807935237884521484375" lon="-1.6873347759246826171875">
        <ele>1646.800048828125</ele>
        <time>2022-08-24T13:19:27.000Z</time>
      </trkpt>
      <trkpt lat="40.4995018802583217620849609375" lon="-1.6873349435627460479736328125">
        <ele>1646</ele>
        <time>2022-08-24T13:19:28.000Z</time>
      </trkpt>
      <trkpt lat="40.49941713921725749969482421875" lon="-1.687342487275600433349609375">
        <ele>1645.199951171875</ele>
        <time>2022-08-24T13:19:29.000Z</time>
      </trkpt>
      <trkpt lat="40.49932963214814662933349609375" lon="-1.68735514394938945770263671875">
        <ele>1644.4000244140625</ele>
        <time>2022-08-24T13:19:30.000Z</time>
      </trkpt>
      <trkpt lat="40.499155707657337188720703125" lon="-1.687379367649555206298828125">
        <ele>1643.199951171875</ele>
        <time>2022-08-24T13:19:32.000Z</time>
      </trkpt>
      <trkpt lat="40.4990695416927337646484375" lon="-1.68738649226725101470947265625">
        <ele>1642.5999755859375</ele>
        <time>2022-08-24T13:19:33.000Z</time>
      </trkpt>
      <trkpt lat="40.49898169934749603271484375" lon="-1.68738364242017269134521484375">
        <ele>1642</ele>
        <time>2022-08-24T13:19:34.000Z</time>
      </trkpt>
      <trkpt lat="40.49889746122062206268310546875" lon="-1.68737207539379596710205078125">
        <ele>1641.4000244140625</ele>
        <time>2022-08-24T13:19:35.000Z</time>
      </trkpt>
      <trkpt lat="40.49881196580827236175537109375" lon="-1.68734793551266193389892578125">
        <ele>1640.5999755859375</ele>
        <time>2022-08-24T13:19:36.000Z</time>
      </trkpt>
      <trkpt lat="40.4987334273755550384521484375" lon="-1.68731675483286380767822265625">
        <ele>1640</ele>
        <time>2022-08-24T13:19:37.000Z</time>
      </trkpt>
      <trkpt lat="40.498654134571552276611328125" lon="-1.68727484531700611114501953125">
        <ele>1639.5999755859375</ele>
        <time>2022-08-24T13:19:38.000Z</time>
      </trkpt>
      <trkpt lat="40.49840996973216533660888671875" lon="-1.68712397105991840362548828125">
        <ele>1638.4000244140625</ele>
        <time>2022-08-24T13:19:41.000Z</time>
      </trkpt>
      <trkpt lat="40.4983264021575450897216796875" lon="-1.68706177733838558197021484375">
        <ele>1637.800048828125</ele>
        <time>2022-08-24T13:19:42.000Z</time>
      </trkpt>
      <trkpt lat="40.498174689710140228271484375" lon="-1.6869282536208629608154296875">
        <ele>1637.199951171875</ele>
        <time>2022-08-24T13:19:44.000Z</time>
      </trkpt>
      <trkpt lat="40.498072095215320587158203125" lon="-1.686747707426548004150390625">
        <ele>1636.5999755859375</ele>
        <time>2022-08-24T13:19:46.000Z</time>
      </trkpt>
      <trkpt lat="40.498049966990947723388671875" lon="-1.68664854951202869415283203125">
        <ele>1636</ele>
        <time>2022-08-24T13:19:47.000Z</time>
      </trkpt>
      <trkpt lat="40.4980508051812648773193359375" lon="-1.6864387504756450653076171875">
        <ele>1635.199951171875</ele>
        <time>2022-08-24T13:19:49.000Z</time>
      </trkpt>
      <trkpt lat="40.49806438386440277099609375" lon="-1.68633204884827136993408203125">
        <ele>1633.800048828125</ele>
        <time>2022-08-24T13:19:50.000Z</time>
      </trkpt>
      <trkpt lat="40.49816102720797061920166015625" lon="-1.68603214435279369354248046875">
        <ele>1632.4000244140625</ele>
        <time>2022-08-24T13:19:53.000Z</time>
      </trkpt>
      <trkpt lat="40.49826345406472682952880859375" lon="-1.6858412884175777435302734375">
        <ele>1631.4000244140625</ele>
        <time>2022-08-24T13:19:55.000Z</time>
      </trkpt>
      <trkpt lat="40.49839069135487079620361328125" lon="-1.68567272834479808807373046875">
        <ele>1630.4000244140625</ele>
        <time>2022-08-24T13:19:57.000Z</time>
      </trkpt>
      <trkpt lat="40.498509965837001800537109375" lon="-1.6854858957231044769287109375">
        <ele>1629.800048828125</ele>
        <time>2022-08-24T13:19:59.000Z</time>
      </trkpt>
      <trkpt lat="40.4985808767378330230712890625" lon="-1.6852574050426483154296875">
        <ele>1629.199951171875</ele>
        <time>2022-08-24T13:20:01.000Z</time>
      </trkpt>
      <trkpt lat="40.49858900718390941619873046875" lon="-1.68492590077221393585205078125">
        <ele>1628.4000244140625</ele>
        <time>2022-08-24T13:20:04.000Z</time>
      </trkpt>
      <trkpt lat="40.498576350510120391845703125" lon="-1.68481743894517421722412109375">
        <ele>1627.800048828125</ele>
        <time>2022-08-24T13:20:05.000Z</time>
      </trkpt>
      <trkpt lat="40.49856252036988735198974609375" lon="-1.6847107373178005218505859375">
        <ele>1627.199951171875</ele>
        <time>2022-08-24T13:20:06.000Z</time>
      </trkpt>
      <trkpt lat="40.498552881181240081787109375" lon="-1.68461426161229610443115234375">
        <ele>1626.5999755859375</ele>
        <time>2022-08-24T13:20:07.000Z</time>
      </trkpt>
      <trkpt lat="40.498531758785247802734375" lon="-1.68441929854452610015869140625">
        <ele>1625.199951171875</ele>
        <time>2022-08-24T13:20:09.000Z</time>
      </trkpt>
      <trkpt lat="40.4985376261174678802490234375" lon="-1.68431385420262813568115234375">
        <ele>1624.5999755859375</ele>
        <time>2022-08-24T13:20:10.000Z</time>
      </trkpt>
      <trkpt lat="40.49854827113449573516845703125" lon="-1.68420664966106414794921875">
        <ele>1624</ele>
        <time>2022-08-24T13:20:11.000Z</time>
      </trkpt>
      <trkpt lat="40.498566962778568267822265625" lon="-1.68409776873886585235595703125">
        <ele>1623.4000244140625</ele>
        <time>2022-08-24T13:20:12.000Z</time>
      </trkpt>
      <trkpt lat="40.49859319813549518585205078125" lon="-1.6838872991502285003662109375">
        <ele>1622.800048828125</ele>
        <time>2022-08-24T13:20:14.000Z</time>
      </trkpt>
      <trkpt lat="40.49859252758324146270751953125" lon="-1.683786548674106597900390625">
        <ele>1622.800048828125</ele>
        <time>2022-08-24T13:20:15.000Z</time>
      </trkpt>
      <trkpt lat="40.4985869117081165313720703125" lon="-1.68369510211050510406494140625">
        <ele>1622.4000244140625</ele>
        <time>2022-08-24T13:20:16.000Z</time>
      </trkpt>
      <trkpt lat="40.49852245487272739410400390625" lon="-1.68342419900000095367431640625">
        <ele>1621.4000244140625</ele>
        <time>2022-08-24T13:20:19.000Z</time>
      </trkpt>
      <trkpt lat="40.4985037632286548614501953125" lon="-1.683336608111858367919921875">
        <ele>1621.199951171875</ele>
        <time>2022-08-24T13:20:20.000Z</time>
      </trkpt>
      <trkpt lat="40.49849487841129302978515625" lon="-1.6832457482814788818359375">
        <ele>1621</ele>
        <time>2022-08-24T13:20:21.000Z</time>
      </trkpt>
      <trkpt lat="40.49843410961329936981201171875" lon="-1.68295313604176044464111328125">
        <ele>1620.199951171875</ele>
        <time>2022-08-24T13:20:24.000Z</time>
      </trkpt>
      <trkpt lat="40.4984085448086261749267578125" lon="-1.68284182436764240264892578125">
        <ele>1620</ele>
        <time>2022-08-24T13:20:25.000Z</time>
      </trkpt>
      <trkpt lat="40.49831357784569263458251953125" lon="-1.68218300677835941314697265625">
        <ele>1619</ele>
        <time>2022-08-24T13:20:31.000Z</time>
      </trkpt>
      <trkpt lat="40.498221628367900848388671875" lon="-1.6817308031022548675537109375">
        <ele>1617.800048828125</ele>
        <time>2022-08-24T13:20:35.000Z</time>
      </trkpt>
      <trkpt lat="40.49819044768810272216796875" lon="-1.68161186389625072479248046875">
        <ele>1617.199951171875</ele>
        <time>2022-08-24T13:20:36.000Z</time>
      </trkpt>
      <trkpt lat="40.49813906662166118621826171875" lon="-1.68138169683516025543212890625">
        <ele>1616.4000244140625</ele>
        <time>2022-08-24T13:20:38.000Z</time>
      </trkpt>
      <trkpt lat="40.4980994202196598052978515625" lon="-1.6812124662101268768310546875">
        <ele>1615.4000244140625</ele>
        <time>2022-08-24T13:20:40.000Z</time>
      </trkpt>
      <trkpt lat="40.498088859021663665771484375" lon="-1.681170724332332611083984375">
        <ele>1615</ele>
        <time>2022-08-24T13:20:41.000Z</time>
      </trkpt>
      <trkpt lat="40.4980824887752532958984375" lon="-1.68115236796438694000244140625">
        <ele>1614.4000244140625</ele>
        <time>2022-08-24T13:20:42.000Z</time>
      </trkpt>
      <trkpt lat="40.49808173440396785736083984375" lon="-1.68114356696605682373046875">
        <ele>1614</ele>
        <time>2022-08-24T13:20:44.000Z</time>
      </trkpt>
      <trkpt lat="40.49804552458226680755615234375" lon="-1.6809965483844280242919921875">
        <ele>1609</ele>
        <time>2022-08-24T13:20:55.000Z</time>
      </trkpt>
      <trkpt lat="40.4980404116213321685791015625" lon="-1.68096461333334445953369140625">
        <ele>1609</ele>
        <time>2022-08-24T13:20:56.000Z</time>
      </trkpt>
      <trkpt lat="40.49799892120063304901123046875" lon="-1.68071709573268890380859375">
        <ele>1608.800048828125</ele>
        <time>2022-08-24T13:21:02.000Z</time>
      </trkpt>
      <trkpt lat="40.4979671537876129150390625" lon="-1.6804165206849575042724609375">
        <ele>1608.4000244140625</ele>
        <time>2022-08-24T13:21:08.000Z</time>
      </trkpt>
      <trkpt lat="40.49793438054621219635009765625" lon="-1.68007898144423961639404296875">
        <ele>1608</ele>
        <time>2022-08-24T13:21:13.000Z</time>
      </trkpt>
      <trkpt lat="40.49789079464972019195556640625" lon="-1.67993615381419658660888671875">
        <ele>1607.800048828125</ele>
        <time>2022-08-24T13:21:14.000Z</time>
      </trkpt>
      <trkpt lat="40.4978692531585693359375" lon="-1.67958729900419712066650390625">
        <ele>1607</ele>
        <time>2022-08-24T13:21:17.000Z</time>
      </trkpt>
      <trkpt lat="40.4978493042290210723876953125" lon="-1.6793270409107208251953125">
        <ele>1606.5999755859375</ele>
        <time>2022-08-24T13:21:19.000Z</time>
      </trkpt>
      <trkpt lat="40.49782290123403072357177734375" lon="-1.6790740750730037689208984375">
        <ele>1606.4000244140625</ele>
        <time>2022-08-24T13:21:21.000Z</time>
      </trkpt>
      <trkpt lat="40.49776841886341571807861328125" lon="-1.6788511164486408233642578125">
        <ele>1605.800048828125</ele>
        <time>2022-08-24T13:21:23.000Z</time>
      </trkpt>
      <trkpt lat="40.4977500624954700469970703125" lon="-1.6787666268646717071533203125">
        <ele>1605.5999755859375</ele>
        <time>2022-08-24T13:21:24.000Z</time>
      </trkpt>
      <trkpt lat="40.49771846272051334381103515625" lon="-1.678594462573528289794921875">
        <ele>1604.199951171875</ele>
        <time>2022-08-24T13:21:27.000Z</time>
      </trkpt>
      <trkpt lat="40.497700609266757965087890625" lon="-1.6785384714603424072265625">
        <ele>1603.5999755859375</ele>
        <time>2022-08-24T13:21:28.000Z</time>
      </trkpt>
      <trkpt lat="40.4976384155452251434326171875" lon="-1.67838734574615955352783203125">
        <ele>1603.199951171875</ele>
        <time>2022-08-24T13:21:32.000Z</time>
      </trkpt>
      <trkpt lat="40.4976193048059940338134765625" lon="-1.678340323269367218017578125">
        <ele>1603.199951171875</ele>
        <time>2022-08-24T13:21:33.000Z</time>
      </trkpt>
      <trkpt lat="40.497560463845729827880859375" lon="-1.67803262360394001007080078125">
        <ele>1603</ele>
        <time>2022-08-24T13:21:38.000Z</time>
      </trkpt>
      <trkpt lat="40.49750036559998989105224609375" lon="-1.677819974720478057861328125">
        <ele>1603.5999755859375</ele>
        <time>2022-08-24T13:21:42.000Z</time>
      </trkpt>
      <trkpt lat="40.497371368110179901123046875" lon="-1.67753708548843860626220703125">
        <ele>1603.5999755859375</ele>
        <time>2022-08-24T13:21:47.000Z</time>
      </trkpt>
      <trkpt lat="40.4972397722303867340087890625" lon="-1.67726517654955387115478515625">
        <ele>1604</ele>
        <time>2022-08-24T13:21:53.000Z</time>
      </trkpt>
      <trkpt lat="40.4971351660788059234619140625" lon="-1.67704037390649318695068359375">
        <ele>1604.4000244140625</ele>
        <time>2022-08-24T13:21:58.000Z</time>
      </trkpt>
      <trkpt lat="40.497111864387989044189453125" lon="-1.6769718937575817108154296875">
        <ele>1604.4000244140625</ele>
        <time>2022-08-24T13:22:00.000Z</time>
      </trkpt>
      <trkpt lat="40.49709074199199676513671875" lon="-1.676901318132877349853515625">
        <ele>1604.5999755859375</ele>
        <time>2022-08-24T13:22:02.000Z</time>
      </trkpt>
      <trkpt lat="40.49695118330419063568115234375" lon="-1.67668347246944904327392578125">
        <ele>1604.5999755859375</ele>
        <time>2022-08-24T13:22:06.000Z</time>
      </trkpt>
      <trkpt lat="40.49691631458699703216552734375" lon="-1.6765893436968326568603515625">
        <ele>1604.5999755859375</ele>
        <time>2022-08-24T13:22:08.000Z</time>
      </trkpt>
      <trkpt lat="40.49682117998600006103515625" lon="-1.67635473422706127166748046875">
        <ele>1604.5999755859375</ele>
        <time>2022-08-24T13:22:12.000Z</time>
      </trkpt>
      <trkpt lat="40.49676694907248020172119140625" lon="-1.67621375061571598052978515625">
        <ele>1604.5999755859375</ele>
        <time>2022-08-24T13:22:15.000Z</time>
      </trkpt>
      <trkpt lat="40.496732331812381744384765625" lon="-1.6761142574250698089599609375">
        <ele>1604.4000244140625</ele>
        <time>2022-08-24T13:22:17.000Z</time>
      </trkpt>
      <trkpt lat="40.4966252110898494720458984375" lon="-1.675865985453128814697265625">
        <ele>1604.4000244140625</ele>
        <time>2022-08-24T13:22:22.000Z</time>
      </trkpt>
      <trkpt lat="40.49650744535028934478759765625" lon="-1.6756146959960460662841796875">
        <ele>1604.4000244140625</ele>
        <time>2022-08-24T13:22:27.000Z</time>
      </trkpt>
      <trkpt lat="40.4964002408087253570556640625" lon="-1.67541093192994594573974609375">
        <ele>1604.4000244140625</ele>
        <time>2022-08-24T13:22:31.000Z</time>
      </trkpt>
      <trkpt lat="40.49630912952125072479248046875" lon="-1.67512678541243076324462890625">
        <ele>1604.4000244140625</ele>
        <time>2022-08-24T13:22:37.000Z</time>
      </trkpt>
      <trkpt lat="40.49620217643678188323974609375" lon="-1.6748274676501750946044921875">
        <ele>1604.5999755859375</ele>
        <time>2022-08-24T13:22:43.000Z</time>
      </trkpt>
      <trkpt lat="40.49607259221374988555908203125" lon="-1.67439202778041362762451171875">
        <ele>1604.800048828125</ele>
        <time>2022-08-24T13:22:50.000Z</time>
      </trkpt>
      <trkpt lat="40.496017523109912872314453125" lon="-1.67412162758409976959228515625">
        <ele>1605.199951171875</ele>
        <time>2022-08-24T13:22:57.000Z</time>
      </trkpt>
      <trkpt lat="40.49599246121942996978759765625" lon="-1.67381317354738712310791015625">
        <ele>1605.5999755859375</ele>
        <time>2022-08-24T13:23:03.000Z</time>
      </trkpt>
      <trkpt lat="40.49599681980907917022705078125" lon="-1.67366162873804569244384765625">
        <ele>1605.800048828125</ele>
        <time>2022-08-24T13:23:05.000Z</time>
      </trkpt>
      <trkpt lat="40.49597561359405517578125" lon="-1.67356305755674839019775390625">
        <ele>1606.199951171875</ele>
        <time>2022-08-24T13:23:08.000Z</time>
      </trkpt>
      <trkpt lat="40.495941080152988433837890625" lon="-1.67326332069933414459228515625">
        <ele>1606.800048828125</ele>
        <time>2022-08-24T13:23:15.000Z</time>
      </trkpt>
      <trkpt lat="40.495899505913257598876953125" lon="-1.6731189005076885223388671875">
        <ele>1606.800048828125</ele>
        <time>2022-08-24T13:23:19.000Z</time>
      </trkpt>
      <trkpt lat="40.4958547465503215789794921875" lon="-1.67299459688365459442138671875">
        <ele>1606.800048828125</ele>
        <time>2022-08-24T13:23:20.000Z</time>
      </trkpt>
      <trkpt lat="40.49584292806684970855712890625" lon="-1.67285813950002193450927734375">
        <ele>1606.800048828125</ele>
        <time>2022-08-24T13:23:22.000Z</time>
      </trkpt>
      <trkpt lat="40.4958275891840457916259765625" lon="-1.67245924472808837890625">
        <ele>1606.5999755859375</ele>
        <time>2022-08-24T13:23:28.000Z</time>
      </trkpt>
      <trkpt lat="40.49582163803279399871826171875" lon="-1.67219169437885284423828125">
        <ele>1606.199951171875</ele>
        <time>2022-08-24T13:23:31.000Z</time>
      </trkpt>
      <trkpt lat="40.49581040628254413604736328125" lon="-1.6720215417444705963134765625">
        <ele>1605.800048828125</ele>
        <time>2022-08-24T13:23:33.000Z</time>
      </trkpt>
      <trkpt lat="40.495790205895900726318359375" lon="-1.671673357486724853515625">
        <ele>1605</ele>
        <time>2022-08-24T13:23:36.000Z</time>
      </trkpt>
      <trkpt lat="40.49578375183045864105224609375" lon="-1.6714914701879024505615234375">
        <ele>1604.5999755859375</ele>
        <time>2022-08-24T13:23:38.000Z</time>
      </trkpt>
      <trkpt lat="40.49578693695366382598876953125" lon="-1.671402789652347564697265625">
        <ele>1604.4000244140625</ele>
        <time>2022-08-24T13:23:39.000Z</time>
      </trkpt>
      <trkpt lat="40.49576279707252979278564453125" lon="-1.67086458764970302581787109375">
        <ele>1604</ele>
        <time>2022-08-24T13:23:45.000Z</time>
      </trkpt>
      <trkpt lat="40.49576279707252979278564453125" lon="-1.67086458764970302581787109375">
        <ele>1603.800048828125</ele>
        <time>2022-08-24T13:23:46.000Z</time>
      </trkpt>
      <trkpt lat="40.4957306943833827972412109375" lon="-1.67067599482834339141845703125">
        <ele>1603.800048828125</ele>
        <time>2022-08-24T13:23:47.000Z</time>
      </trkpt>
      <trkpt lat="40.4956787265837192535400390625" lon="-1.67050248943269252777099609375">
        <ele>1603.4000244140625</ele>
        <time>2022-08-24T13:23:50.000Z</time>
      </trkpt>
      <trkpt lat="40.49563874490559101104736328125" lon="-1.6704299859702587127685546875">
        <ele>1603</ele>
        <time>2022-08-24T13:23:51.000Z</time>
      </trkpt>
      <trkpt lat="40.4955855198204517364501953125" lon="-1.67035513557493686676025390625">
        <ele>1602.4000244140625</ele>
        <time>2022-08-24T13:23:52.000Z</time>
      </trkpt>
      <trkpt lat="40.4954675026237964630126953125" lon="-1.6701909340918064117431640625">
        <ele>1602</ele>
        <time>2022-08-24T13:23:53.000Z</time>
      </trkpt>
      <trkpt lat="40.495391227304935455322265625" lon="-1.67001466266810894012451171875">
        <ele>1601.5999755859375</ele>
        <time>2022-08-24T13:23:55.000Z</time>
      </trkpt>
      <trkpt lat="40.495391227304935455322265625" lon="-1.67001466266810894012451171875">
        <ele>1601.199951171875</ele>
        <time>2022-08-24T13:23:56.000Z</time>
      </trkpt>
      <trkpt lat="40.49538007937371730804443359375" lon="-1.66992497630417346954345703125">
        <ele>1600.5999755859375</ele>
        <time>2022-08-24T13:23:57.000Z</time>
      </trkpt>
      <trkpt lat="40.49543975852429866790771484375" lon="-1.66970268823206424713134765625">
        <ele>1599.800048828125</ele>
        <time>2022-08-24T13:23:59.000Z</time>
      </trkpt>
      <trkpt lat="40.49548384733498096466064453125" lon="-1.66966195218265056610107421875">
        <ele>1599.5999755859375</ele>
        <time>2022-08-24T13:24:00.000Z</time>
      </trkpt>
      <trkpt lat="40.49548384733498096466064453125" lon="-1.66966195218265056610107421875">
        <ele>1599.199951171875</ele>
        <time>2022-08-24T13:24:01.000Z</time>
      </trkpt>
      <trkpt lat="40.4955754615366458892822265625" lon="-1.66961115784943103790283203125">
        <ele>1598.4000244140625</ele>
        <time>2022-08-24T13:24:02.000Z</time>
      </trkpt>
      <trkpt lat="40.49562223255634307861328125" lon="-1.6695978306233882904052734375">
        <ele>1597.5999755859375</ele>
        <time>2022-08-24T13:24:04.000Z</time>
      </trkpt>
      <trkpt lat="40.49567319452762603759765625" lon="-1.66958634741604328155517578125">
        <ele>1597.4000244140625</ele>
        <time>2022-08-24T13:24:05.000Z</time>
      </trkpt>
      <trkpt lat="40.49590746872127056121826171875" lon="-1.66951082646846771240234375">
        <ele>1597</ele>
        <time>2022-08-24T13:24:10.000Z</time>
      </trkpt>
      <trkpt lat="40.4961776174604892730712890625" lon="-1.66942633688449859619140625">
        <ele>1597</ele>
        <time>2022-08-24T13:24:17.000Z</time>
      </trkpt>
      <trkpt lat="40.4963006637990474700927734375" lon="-1.6693705134093761444091796875">
        <ele>1597</ele>
        <time>2022-08-24T13:24:20.000Z</time>
      </trkpt>
      <trkpt lat="40.496437288820743560791015625" lon="-1.6693098284304141998291015625">
        <ele>1597</ele>
        <time>2022-08-24T13:24:23.000Z</time>
      </trkpt>
      <trkpt lat="40.496480874717235565185546875" lon="-1.6692863591015338897705078125">
        <ele>1597</ele>
        <time>2022-08-24T13:24:24.000Z</time>
      </trkpt>
      <trkpt lat="40.49671548418700695037841796875" lon="-1.669157110154628753662109375">
        <ele>1597.199951171875</ele>
        <time>2022-08-24T13:24:30.000Z</time>
      </trkpt>
      <trkpt lat="40.496999882161617279052734375" lon="-1.66901285760104656219482421875">
        <ele>1597.4000244140625</ele>
        <time>2022-08-24T13:24:37.000Z</time>
      </trkpt>
      <trkpt lat="40.4971961863338947296142578125" lon="-1.66885645128786563873291015625">
        <ele>1597.5999755859375</ele>
        <time>2022-08-24T13:24:42.000Z</time>
      </trkpt>
      <trkpt lat="40.49723415635526180267333984375" lon="-1.66881437413394451141357421875">
        <ele>1597.5999755859375</ele>
        <time>2022-08-24T13:24:43.000Z</time>
      </trkpt>
      <trkpt lat="40.49733675085008144378662109375" lon="-1.668638102710247039794921875">
        <ele>1597.800048828125</ele>
        <time>2022-08-24T13:24:48.000Z</time>
      </trkpt>
      <trkpt lat="40.49735569395124912261962890625" lon="-1.66858437471091747283935546875">
        <ele>1597.800048828125</ele>
        <time>2022-08-24T13:24:49.000Z</time>
      </trkpt>
      <trkpt lat="40.49741260707378387451171875" lon="-1.668383963406085968017578125">
        <ele>1597.800048828125</ele>
        <time>2022-08-24T13:24:53.000Z</time>
      </trkpt>
      <trkpt lat="40.4975153692066669464111328125" lon="-1.66813485324382781982421875">
        <ele>1598</ele>
        <time>2022-08-24T13:24:59.000Z</time>
      </trkpt>
      <trkpt lat="40.49768879078328609466552734375" lon="-1.66793326847255229949951171875">
        <ele>1598.199951171875</ele>
        <time>2022-08-24T13:25:04.000Z</time>
      </trkpt>
      <trkpt lat="40.49783128313720226287841796875" lon="-1.66781927458941936492919921875">
        <ele>1598.4000244140625</ele>
        <time>2022-08-24T13:25:08.000Z</time>
      </trkpt>
      <trkpt lat="40.49793161451816558837890625" lon="-1.6677340306341648101806640625">
        <ele>1598.800048828125</ele>
        <time>2022-08-24T13:25:11.000Z</time>
      </trkpt>
      <trkpt lat="40.49812741577625274658203125" lon="-1.66756982915103435516357421875">
        <ele>1599.199951171875</ele>
        <time>2022-08-24T13:25:18.000Z</time>
      </trkpt>
      <trkpt lat="40.49824970774352550506591796875" lon="-1.66738308034837245941162109375">
        <ele>1599.4000244140625</ele>
        <time>2022-08-24T13:25:24.000Z</time>
      </trkpt>
      <trkpt lat="40.49827896058559417724609375" lon="-1.66730294935405254364013671875">
        <ele>1599.800048828125</ele>
        <time>2022-08-24T13:25:26.000Z</time>
      </trkpt>
      <trkpt lat="40.49830938689410686492919921875" lon="-1.66715458966791629791259765625">
        <ele>1599.800048828125</ele>
        <time>2022-08-24T13:25:29.000Z</time>
      </trkpt>
      <trkpt lat="40.4983304254710674285888671875" lon="-1.66693280450999736785888671875">
        <ele>1600</ele>
        <time>2022-08-24T13:25:35.000Z</time>
      </trkpt>
      <trkpt lat="40.4984085448086261749267578125" lon="-1.6665773279964923858642578125">
        <ele>1600.800048828125</ele>
        <time>2022-08-24T13:25:42.000Z</time>
      </trkpt>
      <trkpt lat="40.49841843545436859130859375" lon="-1.66653491556644439697265625">
        <ele>1600.800048828125</ele>
        <time>2022-08-24T13:25:43.000Z</time>
      </trkpt>
      <trkpt lat="40.49844366498291492462158203125" lon="-1.666395105421543121337890625">
        <ele>1601.199951171875</ele>
        <time>2022-08-24T13:25:47.000Z</time>
      </trkpt>
      <trkpt lat="40.49852882511913776397705078125" lon="-1.66610701940953731536865234375">
        <ele>1602</ele>
        <time>2022-08-24T13:25:54.000Z</time>
      </trkpt>
      <trkpt lat="40.49852882511913776397705078125" lon="-1.66610701940953731536865234375">
        <ele>1602</ele>
        <time>2022-08-24T13:25:55.000Z</time>
      </trkpt>
      <trkpt lat="40.49866159446537494659423828125" lon="-1.66582278907299041748046875">
        <ele>1602.199951171875</ele>
        <time>2022-08-24T13:26:01.000Z</time>
      </trkpt>
      <trkpt lat="40.49876200966536998748779296875" lon="-1.66555716656148433685302734375">
        <ele>1602.4000244140625</ele>
        <time>2022-08-24T13:26:07.000Z</time>
      </trkpt>
      <trkpt lat="40.4988558031618595123291015625" lon="-1.665286682546138763427734375">
        <ele>1602.800048828125</ele>
        <time>2022-08-24T13:26:14.000Z</time>
      </trkpt>
      <trkpt lat="40.4989231936633586883544921875" lon="-1.66503564454615116119384765625">
        <ele>1603</ele>
        <time>2022-08-24T13:26:21.000Z</time>
      </trkpt>
      <trkpt lat="40.4989553801715373992919921875" lon="-1.66493237949907779693603515625">
        <ele>1603.199951171875</ele>
        <time>2022-08-24T13:26:23.000Z</time>
      </trkpt>
      <trkpt lat="40.49895353615283966064453125" lon="-1.66480799205601215362548828125">
        <ele>1603.199951171875</ele>
        <time>2022-08-24T13:26:27.000Z</time>
      </trkpt>
      <trkpt lat="40.4989131353795528411865234375" lon="-1.66464932262897491455078125">
        <ele>1603.4000244140625</ele>
        <time>2022-08-24T13:26:31.000Z</time>
      </trkpt>
      <trkpt lat="40.49889645539224147796630859375" lon="-1.66463968344032764434814453125">
        <ele>1603.4000244140625</ele>
        <time>2022-08-24T13:26:32.000Z</time>
      </trkpt>
      <trkpt lat="40.49885907210409641265869140625" lon="-1.66465175338089466094970703125">
        <ele>1603.4000244140625</ele>
        <time>2022-08-24T13:26:34.000Z</time>
      </trkpt>
      <trkpt lat="40.498826466500759124755859375" lon="-1.66469215415418148040771484375">
        <ele>1603.4000244140625</ele>
        <time>2022-08-24T13:26:37.000Z</time>
      </trkpt>
      <trkpt lat="40.49874524585902690887451171875" lon="-1.66479910723865032196044921875">
        <ele>1603.4000244140625</ele>
        <time>2022-08-24T13:26:41.000Z</time>
      </trkpt>
      <trkpt lat="40.498538129031658172607421875" lon="-1.66506699286401271820068359375">
        <ele>1603.199951171875</ele>
        <time>2022-08-24T13:26:48.000Z</time>
      </trkpt>
      <trkpt lat="40.49836085177958011627197265625" lon="-1.66532163508236408233642578125">
        <ele>1602.5999755859375</ele>
        <time>2022-08-24T13:26:54.000Z</time>
      </trkpt>
      <trkpt lat="40.49808106385171413421630859375" lon="-1.66565992869436740875244140625">
        <ele>1602.199951171875</ele>
        <time>2022-08-24T13:27:01.000Z</time>
      </trkpt>
      <trkpt lat="40.49803898669779300689697265625" lon="-1.66571675799787044525146484375">
        <ele>1602.199951171875</ele>
        <time>2022-08-24T13:27:02.000Z</time>
      </trkpt>
      <trkpt lat="40.4978325404226779937744140625" lon="-1.6660003177821636199951171875">
        <ele>1601.5999755859375</ele>
        <time>2022-08-24T13:27:07.000Z</time>
      </trkpt>
      <trkpt lat="40.4976424388587474822998046875" lon="-1.66623316705226898193359375">
        <ele>1601.199951171875</ele>
        <time>2022-08-24T13:27:11.000Z</time>
      </trkpt>
      <trkpt lat="40.4975458793342113494873046875" lon="-1.666352190077304840087890625">
        <ele>1601</ele>
        <time>2022-08-24T13:27:13.000Z</time>
      </trkpt>
      <trkpt lat="40.49745258875191211700439453125" lon="-1.66646978817880153656005859375">
        <ele>1600.5999755859375</ele>
        <time>2022-08-24T13:27:15.000Z</time>
      </trkpt>
      <trkpt lat="40.4973608069121837615966796875" lon="-1.66657984256744384765625">
        <ele>1600</ele>
        <time>2022-08-24T13:27:17.000Z</time>
      </trkpt>
      <trkpt lat="40.4973162151873111724853515625" lon="-1.66662954725325107574462890625">
        <ele>1599.800048828125</ele>
        <time>2022-08-24T13:27:18.000Z</time>
      </trkpt>
      <trkpt lat="40.4970982857048511505126953125" lon="-1.6668844409286975860595703125">
        <ele>1599.199951171875</ele>
        <time>2022-08-24T13:27:23.000Z</time>
      </trkpt>
      <trkpt lat="40.4970171488821506500244140625" lon="-1.66698242537677288055419921875">
        <ele>1599.199951171875</ele>
        <time>2022-08-24T13:27:25.000Z</time>
      </trkpt>
      <trkpt lat="40.49697582609951496124267578125" lon="-1.667026765644550323486328125">
        <ele>1599.199951171875</ele>
        <time>2022-08-24T13:27:26.000Z</time>
      </trkpt>
      <trkpt lat="40.4968525283038616180419921875" lon="-1.66716649197041988372802734375">
        <ele>1598.800048828125</ele>
        <time>2022-08-24T13:27:29.000Z</time>
      </trkpt>
      <trkpt lat="40.49657885916531085968017578125" lon="-1.66751325130462646484375">
        <ele>1598.4000244140625</ele>
        <time>2022-08-24T13:27:36.000Z</time>
      </trkpt>
      <trkpt lat="40.49641373567283153533935546875" lon="-1.6676808893680572509765625">
        <ele>1597.800048828125</ele>
        <time>2022-08-24T13:27:40.000Z</time>
      </trkpt>
      <trkpt lat="40.49637065269052982330322265625" lon="-1.66771148331463336944580078125">
        <ele>1597.800048828125</ele>
        <time>2022-08-24T13:27:41.000Z</time>
      </trkpt>
      <trkpt lat="40.4963214509189128875732421875" lon="-1.66773528791964054107666015625">
        <ele>1597.800048828125</ele>
        <time>2022-08-24T13:27:42.000Z</time>
      </trkpt>
      <trkpt lat="40.49611383117735385894775390625" lon="-1.66777652688324451446533203125">
        <ele>1597.4000244140625</ele>
        <time>2022-08-24T13:27:46.000Z</time>
      </trkpt>
      <trkpt lat="40.496053732931613922119140625" lon="-1.66776915080845355987548828125">
        <ele>1597.4000244140625</ele>
        <time>2022-08-24T13:27:47.000Z</time>
      </trkpt>
      <trkpt lat="40.49580973573029041290283203125" lon="-1.66770980693399906158447265625">
        <ele>1596.800048828125</ele>
        <time>2022-08-24T13:27:52.000Z</time>
      </trkpt>
      <trkpt lat="40.49576841294765472412109375" lon="-1.66769899427890777587890625">
        <ele>1596.800048828125</ele>
        <time>2022-08-24T13:27:53.000Z</time>
      </trkpt>
      <trkpt lat="40.49553371965885162353515625" lon="-1.667651049792766571044921875">
        <ele>1596.5999755859375</ele>
        <time>2022-08-24T13:27:58.000Z</time>
      </trkpt>
      <trkpt lat="40.49522534944117069244384765625" lon="-1.66758357547223567962646484375">
        <ele>1596.199951171875</ele>
        <time>2022-08-24T13:28:05.000Z</time>
      </trkpt>
      <trkpt lat="40.49490096978843212127685546875" lon="-1.66745851747691631317138671875">
        <ele>1596.199951171875</ele>
        <time>2022-08-24T13:28:12.000Z</time>
      </trkpt>
      <trkpt lat="40.49461313523352146148681640625" lon="-1.6673601977527141571044921875">
        <ele>1596.199951171875</ele>
        <time>2022-08-24T13:28:19.000Z</time>
      </trkpt>
      <trkpt lat="40.4942896775901317596435546875" lon="-1.66722667403519153594970703125">
        <ele>1596.5999755859375</ele>
        <time>2022-08-24T13:28:28.000Z</time>
      </trkpt>
      <trkpt lat="40.4940590076148509979248046875" lon="-1.66713036596775054931640625">
        <ele>1597.199951171875</ele>
        <time>2022-08-24T13:28:36.000Z</time>
      </trkpt>
      <trkpt lat="40.4939161799848079681396484375" lon="-1.66704780422151088714599609375">
        <ele>1597.800048828125</ele>
        <time>2022-08-24T13:28:40.000Z</time>
      </trkpt>
      <trkpt lat="40.49380235373973846435546875" lon="-1.66698594577610492706298828125">
        <ele>1598.199951171875</ele>
        <time>2022-08-24T13:28:43.000Z</time>
      </trkpt>
      <trkpt lat="40.49342659302055835723876953125" lon="-1.66685007512569427490234375">
        <ele>1599</ele>
        <time>2022-08-24T13:28:51.000Z</time>
      </trkpt>
      <trkpt lat="40.49311880953609943389892578125" lon="-1.66674412786960601806640625">
        <ele>1599.199951171875</ele>
        <time>2022-08-24T13:28:59.000Z</time>
      </trkpt>
      <trkpt lat="40.4927842877805233001708984375" lon="-1.6667241789400577545166015625">
        <ele>1599.4000244140625</ele>
        <time>2022-08-24T13:29:05.000Z</time>
      </trkpt>
      <trkpt lat="40.49250408075749874114990234375" lon="-1.66680439375340938568115234375">
        <ele>1599.800048828125</ele>
        <time>2022-08-24T13:29:12.000Z</time>
      </trkpt>
      <trkpt lat="40.49243300221860408782958984375" lon="-1.6668408550322055816650390625">
        <ele>1600.199951171875</ele>
        <time>2022-08-24T13:29:14.000Z</time>
      </trkpt>
      <trkpt lat="40.492240972816944122314453125" lon="-1.66692308150231838226318359375">
        <ele>1600.5999755859375</ele>
        <time>2022-08-24T13:29:19.000Z</time>
      </trkpt>
      <trkpt lat="40.49199990928173065185546875" lon="-1.66708619333803653717041015625">
        <ele>1601</ele>
        <time>2022-08-24T13:29:26.000Z</time>
      </trkpt>
      <trkpt lat="40.49182288348674774169921875" lon="-1.6672589443624019622802734375">
        <ele>1601.199951171875</ele>
        <time>2022-08-24T13:29:33.000Z</time>
      </trkpt>
      <trkpt lat="40.49182288348674774169921875" lon="-1.6672589443624019622802734375">
        <ele>1601.199951171875</ele>
        <time>2022-08-24T13:29:34.000Z</time>
      </trkpt>
      <trkpt lat="40.4916503839194774627685546875" lon="-1.6675043664872646331787109375">
        <ele>1601.5999755859375</ele>
        <time>2022-08-24T13:29:41.000Z</time>
      </trkpt>
      <trkpt lat="40.49149942584335803985595703125" lon="-1.667850203812122344970703125">
        <ele>1602</ele>
        <time>2022-08-24T13:29:49.000Z</time>
      </trkpt>
      <trkpt lat="40.4914064705371856689453125" lon="-1.66813812218606472015380859375">
        <ele>1602.199951171875</ele>
        <time>2022-08-24T13:29:55.000Z</time>
      </trkpt>
      <trkpt lat="40.49139029346406459808349609375" lon="-1.66818707250058650970458984375">
        <ele>1602.199951171875</ele>
        <time>2022-08-24T13:29:56.000Z</time>
      </trkpt>
      <trkpt lat="40.4912393353879451751708984375" lon="-1.6685749031603336334228515625">
        <ele>1602.5999755859375</ele>
        <time>2022-08-24T13:30:04.000Z</time>
      </trkpt>
      <trkpt lat="40.49103456549346446990966796875" lon="-1.6689120233058929443359375">
        <ele>1602.5999755859375</ele>
        <time>2022-08-24T13:30:12.000Z</time>
      </trkpt>
      <trkpt lat="40.49084848724305629730224609375" lon="-1.6691802442073822021484375">
        <ele>1602.5999755859375</ele>
        <time>2022-08-24T13:30:19.000Z</time>
      </trkpt>
      <trkpt lat="40.490569286048412322998046875" lon="-1.66950722225010395050048828125">
        <ele>1602.199951171875</ele>
        <time>2022-08-24T13:30:28.000Z</time>
      </trkpt>
      <trkpt lat="40.490320511162281036376953125" lon="-1.6698040254414081573486328125">
        <ele>1601.4000244140625</ele>
        <time>2022-08-24T13:30:35.000Z</time>
      </trkpt>
      <trkpt lat="40.49017827026546001434326171875" lon="-1.66997711174190044403076171875">
        <ele>1601.199951171875</ele>
        <time>2022-08-24T13:30:38.000Z</time>
      </trkpt>
      <trkpt lat="40.490036867558956146240234375" lon="-1.670138128101825714111328125">
        <ele>1601</ele>
        <time>2022-08-24T13:30:43.000Z</time>
      </trkpt>
      <trkpt lat="40.48979572020471096038818359375" lon="-1.67036117054522037506103515625">
        <ele>1600.5999755859375</ele>
        <time>2022-08-24T13:30:49.000Z</time>
      </trkpt>
      <trkpt lat="40.4897295869886875152587890625" lon="-1.67043694294989109039306640625">
        <ele>1600.4000244140625</ele>
        <time>2022-08-24T13:30:51.000Z</time>
      </trkpt>
      <trkpt lat="40.48945943824946880340576171875" lon="-1.67066157795488834381103515625">
        <ele>1600.199951171875</ele>
        <time>2022-08-24T13:30:58.000Z</time>
      </trkpt>
      <trkpt lat="40.48927403055131435394287109375" lon="-1.670774482190608978271484375">
        <ele>1600.199951171875</ele>
        <time>2022-08-24T13:31:03.000Z</time>
      </trkpt>
      <trkpt lat="40.48906691372394561767578125" lon="-1.67090012691915035247802734375">
        <ele>1600.199951171875</ele>
        <time>2022-08-24T13:31:09.000Z</time>
      </trkpt>
      <trkpt lat="40.48881218768656253814697265625" lon="-1.67107229121029376983642578125">
        <ele>1600.800048828125</ele>
        <time>2022-08-24T13:31:16.000Z</time>
      </trkpt>
      <trkpt lat="40.48854614607989788055419921875" lon="-1.671243198215961456298828125">
        <ele>1601</ele>
        <time>2022-08-24T13:31:23.000Z</time>
      </trkpt>
      <trkpt lat="40.488150604069232940673828125" lon="-1.67152382433414459228515625">
        <ele>1601.5999755859375</ele>
        <time>2022-08-24T13:31:33.000Z</time>
      </trkpt>
      <trkpt lat="40.488086901605129241943359375" lon="-1.6715987585484981536865234375">
        <ele>1601.800048828125</ele>
        <time>2022-08-24T13:31:35.000Z</time>
      </trkpt>
      <trkpt lat="40.48799813725054264068603515625" lon="-1.6717194579541683197021484375">
        <ele>1602</ele>
        <time>2022-08-24T13:31:38.000Z</time>
      </trkpt>
      <trkpt lat="40.48797567375004291534423828125" lon="-1.67176530696451663970947265625">
        <ele>1602</ele>
        <time>2022-08-24T13:31:39.000Z</time>
      </trkpt>
      <trkpt lat="40.48786603845655918121337890625" lon="-1.6719281673431396484375">
        <ele>1602</ele>
        <time>2022-08-24T13:31:42.000Z</time>
      </trkpt>
      <trkpt lat="40.48782262019813060760498046875" lon="-1.6720205359160900115966796875">
        <ele>1602.199951171875</ele>
        <time>2022-08-24T13:31:44.000Z</time>
      </trkpt>
      <trkpt lat="40.487794540822505950927734375" lon="-1.67206185869872570037841796875">
        <ele>1602.199951171875</ele>
        <time>2022-08-24T13:31:45.000Z</time>
      </trkpt>
      <trkpt lat="40.48760971985757350921630859375" lon="-1.67240736074745655059814453125">
        <ele>1602.800048828125</ele>
        <time>2022-08-24T13:31:54.000Z</time>
      </trkpt>
      <trkpt lat="40.487481057643890380859375" lon="-1.6727226041257381439208984375">
        <ele>1603.199951171875</ele>
        <time>2022-08-24T13:32:01.000Z</time>
      </trkpt>
      <trkpt lat="40.48746429383754730224609375" lon="-1.67275973595678806304931640625">
        <ele>1603.199951171875</ele>
        <time>2022-08-24T13:32:02.000Z</time>
      </trkpt>
      <trkpt lat="40.4873831570148468017578125" lon="-1.67293558828532695770263671875">
        <ele>1604</ele>
        <time>2022-08-24T13:32:08.000Z</time>
      </trkpt>
      <trkpt lat="40.48731132410466670989990234375" lon="-1.67309937067329883575439453125">
        <ele>1604.199951171875</ele>
        <time>2022-08-24T13:32:13.000Z</time>
      </trkpt>
      <trkpt lat="40.48729263246059417724609375" lon="-1.67312786914408206939697265625">
        <ele>1604.199951171875</ele>
        <time>2022-08-24T13:32:14.000Z</time>
      </trkpt>
      <trkpt lat="40.4872126691043376922607421875" lon="-1.67336004786193370819091796875">
        <ele>1604.800048828125</ele>
        <time>2022-08-24T13:32:21.000Z</time>
      </trkpt>
      <trkpt lat="40.487099848687648773193359375" lon="-1.67363329790532588958740234375">
        <ele>1605.199951171875</ele>
        <time>2022-08-24T13:32:29.000Z</time>
      </trkpt>
      <trkpt lat="40.48708786256611347198486328125" lon="-1.6736677475273609161376953125">
        <ele>1605.4000244140625</ele>
        <time>2022-08-24T13:32:30.000Z</time>
      </trkpt>
      <trkpt lat="40.4869915544986724853515625" lon="-1.67391224764287471771240234375">
        <ele>1606</ele>
        <time>2022-08-24T13:32:37.000Z</time>
      </trkpt>
      <trkpt lat="40.48696934245526790618896484375" lon="-1.6739865951240062713623046875">
        <ele>1606.4000244140625</ele>
        <time>2022-08-24T13:32:39.000Z</time>
      </trkpt>
      <trkpt lat="40.4868954978883266448974609375" lon="-1.6741917841136455535888671875">
        <ele>1607</ele>
        <time>2022-08-24T13:32:45.000Z</time>
      </trkpt>
      <trkpt lat="40.48682601191103458404541015625" lon="-1.6743443347513675689697265625">
        <ele>1607.4000244140625</ele>
        <time>2022-08-24T13:32:50.000Z</time>
      </trkpt>
      <trkpt lat="40.486797429621219635009765625" lon="-1.674442403018474578857421875">
        <ele>1607.800048828125</ele>
        <time>2022-08-24T13:32:52.000Z</time>
      </trkpt>
      <trkpt lat="40.48672911711037158966064453125" lon="-1.67462990619242191314697265625">
        <ele>1608.199951171875</ele>
        <time>2022-08-24T13:32:59.000Z</time>
      </trkpt>
      <trkpt lat="40.48670816235244274139404296875" lon="-1.67469411157071590423583984375">
        <ele>1608.4000244140625</ele>
        <time>2022-08-24T13:33:01.000Z</time>
      </trkpt>
      <trkpt lat="40.48663456924259662628173828125" lon="-1.6748707182705402374267578125">
        <ele>1609.199951171875</ele>
        <time>2022-08-24T13:33:07.000Z</time>
      </trkpt>
      <trkpt lat="40.48660598695278167724609375" lon="-1.67492796666920185089111328125">
        <ele>1609.4000244140625</ele>
        <time>2022-08-24T13:33:09.000Z</time>
      </trkpt>
      <trkpt lat="40.48653398640453815460205078125" lon="-1.67508034966886043548583984375">
        <ele>1609.4000244140625</ele>
        <time>2022-08-24T13:33:14.000Z</time>
      </trkpt>
      <trkpt lat="40.48649744130671024322509765625" lon="-1.67522703297436237335205078125">
        <ele>1609.5999755859375</ele>
        <time>2022-08-24T13:33:20.000Z</time>
      </trkpt>
      <trkpt lat="40.48644262365996837615966796875" lon="-1.67537924833595752716064453125">
        <ele>1609.5999755859375</ele>
        <time>2022-08-24T13:33:26.000Z</time>
      </trkpt>
      <trkpt lat="40.48638428561389446258544921875" lon="-1.6755680926144123077392578125">
        <ele>1609.800048828125</ele>
        <time>2022-08-24T13:33:33.000Z</time>
      </trkpt>
      <trkpt lat="40.48632108606398105621337890625" lon="-1.6757581941783428192138671875">
        <ele>1610.4000244140625</ele>
        <time>2022-08-24T13:33:38.000Z</time>
      </trkpt>
      <trkpt lat="40.486308597028255462646484375" lon="-1.67578845284879207611083984375">
        <ele>1610.5999755859375</ele>
        <time>2022-08-24T13:33:40.000Z</time>
      </trkpt>
      <trkpt lat="40.4862360097467899322509765625" lon="-1.67603395879268646240234375">
        <ele>1611.199951171875</ele>
        <time>2022-08-24T13:33:47.000Z</time>
      </trkpt>
      <trkpt lat="40.4862244427204132080078125" lon="-1.67606321163475513458251953125">
        <ele>1611.4000244140625</ele>
        <time>2022-08-24T13:33:49.000Z</time>
      </trkpt>
      <trkpt lat="40.48614758066833019256591796875" lon="-1.67623386718332767486572265625">
        <ele>1612.4000244140625</ele>
        <time>2022-08-24T13:33:55.000Z</time>
      </trkpt>
      <trkpt lat="40.48613500781357288360595703125" lon="-1.67626672424376010894775390625">
        <ele>1612.5999755859375</ele>
        <time>2022-08-24T13:33:56.000Z</time>
      </trkpt>
      <trkpt lat="40.4860841296613216400146484375" lon="-1.67643050663173198699951171875">
        <ele>1613.4000244140625</ele>
        <time>2022-08-24T13:34:01.000Z</time>
      </trkpt>
      <trkpt lat="40.48604817129671573638916015625" lon="-1.67655908502638339996337890625">
        <ele>1613.5999755859375</ele>
        <time>2022-08-24T13:34:05.000Z</time>
      </trkpt>
      <trkpt lat="40.4860127158463001251220703125" lon="-1.6766470111906528472900390625">
        <ele>1614</ele>
        <time>2022-08-24T13:34:08.000Z</time>
      </trkpt>
      <trkpt lat="40.4859325848519802093505859375" lon="-1.6768505237996578216552734375">
        <ele>1614.5999755859375</ele>
        <time>2022-08-24T13:34:15.000Z</time>
      </trkpt>
      <trkpt lat="40.4859211854636669158935546875" lon="-1.67688044719398021697998046875">
        <ele>1615</ele>
        <time>2022-08-24T13:34:16.000Z</time>
      </trkpt>
      <trkpt lat="40.48583325929939746856689453125" lon="-1.67708630673587322235107421875">
        <ele>1615.4000244140625</ele>
        <time>2022-08-24T13:34:23.000Z</time>
      </trkpt>
      <trkpt lat="40.48577056266367435455322265625" lon="-1.67722896672785282135009765625">
        <ele>1616</ele>
        <time>2022-08-24T13:34:28.000Z</time>
      </trkpt>
      <trkpt lat="40.485717840492725372314453125" lon="-1.677377410233020782470703125">
        <ele>1616.4000244140625</ele>
        <time>2022-08-24T13:34:33.000Z</time>
      </trkpt>
      <trkpt lat="40.4856670461595058441162109375" lon="-1.677536331117153167724609375">
        <ele>1617</ele>
        <time>2022-08-24T13:34:38.000Z</time>
      </trkpt>
      <trkpt lat="40.48564466647803783416748046875" lon="-1.6776397638022899627685546875">
        <ele>1617.4000244140625</ele>
        <time>2022-08-24T13:34:41.000Z</time>
      </trkpt>
      <trkpt lat="40.485605187714099884033203125" lon="-1.67777244932949542999267578125">
        <ele>1618.199951171875</ele>
        <time>2022-08-24T13:34:45.000Z</time>
      </trkpt>
      <trkpt lat="40.48557442612946033477783203125" lon="-1.67787219397723674774169921875">
        <ele>1618.4000244140625</ele>
        <time>2022-08-24T13:34:48.000Z</time>
      </trkpt>
      <trkpt lat="40.4854849912226200103759765625" lon="-1.6780824959278106689453125">
        <ele>1619.199951171875</ele>
        <time>2022-08-24T13:34:55.000Z</time>
      </trkpt>
      <trkpt lat="40.4854732565581798553466796875" lon="-1.67811426334083080291748046875">
        <ele>1619.199951171875</ele>
        <time>2022-08-24T13:34:56.000Z</time>
      </trkpt>
      <trkpt lat="40.485388599336147308349609375" lon="-1.67833286337554454803466796875">
        <ele>1620.199951171875</ele>
        <time>2022-08-24T13:35:03.000Z</time>
      </trkpt>
      <trkpt lat="40.4853160120546817779541015625" lon="-1.67853537015616893768310546875">
        <ele>1621</ele>
        <time>2022-08-24T13:35:10.000Z</time>
      </trkpt>
      <trkpt lat="40.48529447056353092193603515625" lon="-1.6785912774503231048583984375">
        <ele>1621.4000244140625</ele>
        <time>2022-08-24T13:35:12.000Z</time>
      </trkpt>
      <trkpt lat="40.485222302377223968505859375" lon="-1.6787964664399623870849609375">
        <ele>1622.199951171875</ele>
        <time>2022-08-24T13:35:18.000Z</time>
      </trkpt>
      <trkpt lat="40.4852030239999294281005859375" lon="-1.67886368930339813232421875">
        <ele>1622.4000244140625</ele>
        <time>2022-08-24T13:35:21.000Z</time>
      </trkpt>
      <trkpt lat="40.485145859420299530029296875" lon="-1.67909544892609119415283203125">
        <ele>1623.4000244140625</ele>
        <time>2022-08-24T13:35:28.000Z</time>
      </trkpt>
      <trkpt lat="40.485136471688747406005859375" lon="-1.67912797071039676666259765625">
        <ele>1623.5999755859375</ele>
        <time>2022-08-24T13:35:29.000Z</time>
      </trkpt>
      <trkpt lat="40.48508794046938419342041015625" lon="-1.67928622104227542877197265625">
        <ele>1624</ele>
        <time>2022-08-24T13:35:34.000Z</time>
      </trkpt>
      <trkpt lat="40.48505491577088832855224609375" lon="-1.67937557213008403778076171875">
        <ele>1624.5999755859375</ele>
        <time>2022-08-24T13:35:37.000Z</time>
      </trkpt>
      <trkpt lat="40.4850323684513568878173828125" lon="-1.679436676204204559326171875">
        <ele>1625</ele>
        <time>2022-08-24T13:35:39.000Z</time>
      </trkpt>
      <trkpt lat="40.48495936207473278045654296875" lon="-1.67962007224559783935546875">
        <ele>1625.5999755859375</ele>
        <time>2022-08-24T13:35:45.000Z</time>
      </trkpt>
      <trkpt lat="40.48491694964468479156494140625" lon="-1.6797406040132045745849609375">
        <ele>1626.199951171875</ele>
        <time>2022-08-24T13:35:49.000Z</time>
      </trkpt>
      <trkpt lat="40.48487353138625621795654296875" lon="-1.67985820211470127105712890625">
        <ele>1626.5999755859375</ele>
        <time>2022-08-24T13:35:53.000Z</time>
      </trkpt>
      <trkpt lat="40.48484453000128269195556640625" lon="-1.67995459400117397308349609375">
        <ele>1627</ele>
        <time>2022-08-24T13:35:56.000Z</time>
      </trkpt>
      <trkpt lat="40.48479524441063404083251953125" lon="-1.68012038804590702056884765625">
        <ele>1627.5999755859375</ele>
        <time>2022-08-24T13:36:01.000Z</time>
      </trkpt>
      <trkpt lat="40.4847465455532073974609375" lon="-1.68025231920182704925537109375">
        <ele>1628.4000244140625</ele>
        <time>2022-08-24T13:36:05.000Z</time>
      </trkpt>
      <trkpt lat="40.48470002599060535430908203125" lon="-1.68038911186158657073974609375">
        <ele>1629</ele>
        <time>2022-08-24T13:36:09.000Z</time>
      </trkpt>
      <trkpt lat="40.4846176318824291229248046875" lon="-1.680579967796802520751953125">
        <ele>1630</ele>
        <time>2022-08-24T13:36:14.000Z</time>
      </trkpt>
      <trkpt lat="40.48460774123668670654296875" lon="-1.68061383068561553955078125">
        <ele>1630</ele>
        <time>2022-08-24T13:36:16.000Z</time>
      </trkpt>
      <trkpt lat="40.4845066554844379425048828125" lon="-1.68092370964586734771728515625">
        <ele>1630.5999755859375</ele>
        <time>2022-08-24T13:36:25.000Z</time>
      </trkpt>
      <trkpt lat="40.48444404266774654388427734375" lon="-1.68108195997774600982666015625">
        <ele>1631.199951171875</ele>
        <time>2022-08-24T13:36:29.000Z</time>
      </trkpt>
      <trkpt lat="40.484407246112823486328125" lon="-1.68118086643517017364501953125">
        <ele>1632</ele>
        <time>2022-08-24T13:36:33.000Z</time>
      </trkpt>
      <trkpt lat="40.48437975347042083740234375" lon="-1.68127843178808689117431640625">
        <ele>1632.199951171875</ele>
        <time>2022-08-24T13:36:35.000Z</time>
      </trkpt>
      <trkpt lat="40.48430657945573329925537109375" lon="-1.68146803043782711029052734375">
        <ele>1633.199951171875</ele>
        <time>2022-08-24T13:36:41.000Z</time>
      </trkpt>
      <trkpt lat="40.484246648848056793212890625" lon="-1.681626029312610626220703125">
        <ele>1633.800048828125</ele>
        <time>2022-08-24T13:36:47.000Z</time>
      </trkpt>
      <trkpt lat="40.48419426195323467254638671875" lon="-1.68179106898605823516845703125">
        <ele>1634.4000244140625</ele>
        <time>2022-08-24T13:36:52.000Z</time>
      </trkpt>
      <trkpt lat="40.48416626639664173126220703125" lon="-1.6818786598742008209228515625">
        <ele>1634.5999755859375</ele>
        <time>2022-08-24T13:36:55.000Z</time>
      </trkpt>
      <trkpt lat="40.4840362630784511566162109375" lon="-1.68215082027018070220947265625">
        <ele>1635.4000244140625</ele>
        <time>2022-08-24T13:37:04.000Z</time>
      </trkpt>
      <trkpt lat="40.48393718898296356201171875" lon="-1.6823678277432918548583984375">
        <ele>1636</ele>
        <time>2022-08-24T13:37:11.000Z</time>
      </trkpt>
      <trkpt lat="40.4838971234858036041259765625" lon="-1.682467572391033172607421875">
        <ele>1636.5999755859375</ele>
        <time>2022-08-24T13:37:14.000Z</time>
      </trkpt>
      <trkpt lat="40.48382730223238468170166015625" lon="-1.6827093064785003662109375">
        <ele>1637.199951171875</ele>
        <time>2022-08-24T13:37:21.000Z</time>
      </trkpt>
      <trkpt lat="40.4838065989315509796142578125" lon="-1.6828010044991970062255859375">
        <ele>1637.5999755859375</ele>
        <time>2022-08-24T13:37:25.000Z</time>
      </trkpt>
      <trkpt lat="40.4837948642671108245849609375" lon="-1.68285548686981201171875">
        <ele>1637.5999755859375</ele>
        <time>2022-08-24T13:37:27.000Z</time>
      </trkpt>
      <trkpt lat="40.48375387676060199737548828125" lon="-1.682997643947601318359375">
        <ele>1638</ele>
        <time>2022-08-24T13:37:33.000Z</time>
      </trkpt>
      <trkpt lat="40.48371548764407634735107421875" lon="-1.6832884959876537322998046875">
        <ele>1638.4000244140625</ele>
        <time>2022-08-24T13:37:41.000Z</time>
      </trkpt>
      <trkpt lat="40.48370073549449443817138671875" lon="-1.68340525589883327484130859375">
        <ele>1638.5999755859375</ele>
        <time>2022-08-24T13:37:44.000Z</time>
      </trkpt>
      <trkpt lat="40.48367978073656558990478515625" lon="-1.683608181774616241455078125">
        <ele>1639</ele>
        <time>2022-08-24T13:37:49.000Z</time>
      </trkpt>
      <trkpt lat="40.4836520366370677947998046875" lon="-1.68397606350481510162353515625">
        <ele>1639.4000244140625</ele>
        <time>2022-08-24T13:37:58.000Z</time>
      </trkpt>
      <trkpt lat="40.4836285673081874847412109375" lon="-1.6843508183956146240234375">
        <ele>1639.4000244140625</ele>
        <time>2022-08-24T13:38:06.000Z</time>
      </trkpt>
      <trkpt lat="40.48364172689616680145263671875" lon="-1.6844401694834232330322265625">
        <ele>1639.800048828125</ele>
        <time>2022-08-24T13:38:09.000Z</time>
      </trkpt>
      <trkpt lat="40.483676008880138397216796875" lon="-1.6847184486687183380126953125">
        <ele>1640</ele>
        <time>2022-08-24T13:38:15.000Z</time>
      </trkpt>
      <trkpt lat="40.48372454009950160980224609375" lon="-1.68522194959223270416259765625">
        <ele>1640</ele>
        <time>2022-08-24T13:38:26.000Z</time>
      </trkpt>
      <trkpt lat="40.48377784900367259979248046875" lon="-1.6855237819254398345947265625">
        <ele>1640.5999755859375</ele>
        <time>2022-08-24T13:38:33.000Z</time>
      </trkpt>
      <trkpt lat="40.48380416817963123321533203125" lon="-1.68565261177718639373779296875">
        <ele>1641</ele>
        <time>2022-08-24T13:38:36.000Z</time>
      </trkpt>
      <trkpt lat="40.48391296528279781341552734375" lon="-1.68613926507532596588134765625">
        <ele>1641.5999755859375</ele>
        <time>2022-08-24T13:38:47.000Z</time>
      </trkpt>
      <trkpt lat="40.48393174074590206146240234375" lon="-1.68622794561088085174560546875">
        <ele>1641.5999755859375</ele>
        <time>2022-08-24T13:38:48.000Z</time>
      </trkpt>
      <trkpt lat="40.48398437909781932830810546875" lon="-1.68646247126162052154541015625">
        <ele>1642.199951171875</ele>
        <time>2022-08-24T13:38:54.000Z</time>
      </trkpt>
      <trkpt lat="40.48402964137494564056396484375" lon="-1.68662105686962604522705078125">
        <ele>1642.800048828125</ele>
        <time>2022-08-24T13:38:58.000Z</time>
      </trkpt>
      <trkpt lat="40.48404724337160587310791015625" lon="-1.6866888664662837982177734375">
        <ele>1642.800048828125</ele>
        <time>2022-08-24T13:39:00.000Z</time>
      </trkpt>
      <trkpt lat="40.4840795136988162994384765625" lon="-1.6869151778519153594970703125">
        <ele>1643.199951171875</ele>
        <time>2022-08-24T13:39:06.000Z</time>
      </trkpt>
      <trkpt lat="40.48412536270916461944580078125" lon="-1.68713168241083621978759765625">
        <ele>1643.199951171875</ele>
        <time>2022-08-24T13:39:11.000Z</time>
      </trkpt>
      <trkpt lat="40.4842109419405460357666015625" lon="-1.687476597726345062255859375">
        <ele>1643.199951171875</ele>
        <time>2022-08-24T13:39:18.000Z</time>
      </trkpt>
      <trkpt lat="40.4842210002243518829345703125" lon="-1.68752999044954776763916015625">
        <ele>1643.199951171875</ele>
        <time>2022-08-24T13:39:19.000Z</time>
      </trkpt>
      <trkpt lat="40.4843172244727611541748046875" lon="-1.6879749856889247894287109375">
        <ele>1643</ele>
        <time>2022-08-24T13:39:26.000Z</time>
      </trkpt>
      <trkpt lat="40.4844675958156585693359375" lon="-1.68858057819306850433349609375">
        <ele>1642.5999755859375</ele>
        <time>2022-08-24T13:39:36.000Z</time>
      </trkpt>
      <trkpt lat="40.48454336822032928466796875" lon="-1.688948459923267364501953125">
        <ele>1642.5999755859375</ele>
        <time>2022-08-24T13:39:43.000Z</time>
      </trkpt>
      <trkpt lat="40.48465761356055736541748046875" lon="-1.689221374690532684326171875">
        <ele>1642.4000244140625</ele>
        <time>2022-08-24T13:39:48.000Z</time>
      </trkpt>
      <trkpt lat="40.48472248949110507965087890625" lon="-1.68931298889219760894775390625">
        <ele>1642.4000244140625</ele>
        <time>2022-08-24T13:39:50.000Z</time>
      </trkpt>
      <trkpt lat="40.48493522219359874725341796875" lon="-1.6895234584808349609375">
        <ele>1642.4000244140625</ele>
        <time>2022-08-24T13:39:56.000Z</time>
      </trkpt>
      <trkpt lat="40.48523479141294956207275390625" lon="-1.6898314096033573150634765625">
        <ele>1642.800048828125</ele>
        <time>2022-08-24T13:40:04.000Z</time>
      </trkpt>
      <trkpt lat="40.4854233004152774810791015625" lon="-1.69018135406076908111572265625">
        <ele>1643</ele>
        <time>2022-08-24T13:40:11.000Z</time>
      </trkpt>
      <trkpt lat="40.48554257489740848541259765625" lon="-1.690573878586292266845703125">
        <ele>1643</ele>
        <time>2022-08-24T13:40:18.000Z</time>
      </trkpt>
      <trkpt lat="40.48559722490608692169189453125" lon="-1.6910927183926105499267578125">
        <ele>1643</ele>
        <time>2022-08-24T13:40:27.000Z</time>
      </trkpt>
      <trkpt lat="40.48565304838120937347412109375" lon="-1.6917109675705432891845703125">
        <ele>1643</ele>
        <time>2022-08-24T13:40:36.000Z</time>
      </trkpt>
      <trkpt lat="40.4857092909514904022216796875" lon="-1.69225537218153476715087890625">
        <ele>1643.199951171875</ele>
        <time>2022-08-24T13:40:46.000Z</time>
      </trkpt>
      <trkpt lat="40.48574826680123805999755859375" lon="-1.69261830858886241912841796875">
        <ele>1643.199951171875</ele>
        <time>2022-08-24T13:40:52.000Z</time>
      </trkpt>
      <trkpt lat="40.48576603643596172332763671875" lon="-1.6927942447364330291748046875">
        <ele>1643.199951171875</ele>
        <time>2022-08-24T13:40:54.000Z</time>
      </trkpt>
      <trkpt lat="40.4858199320733547210693359375" lon="-1.69324007816612720489501953125">
        <ele>1643.199951171875</ele>
        <time>2022-08-24T13:41:02.000Z</time>
      </trkpt>
      <trkpt lat="40.48586527816951274871826171875" lon="-1.69369974173605442047119140625">
        <ele>1643</ele>
        <time>2022-08-24T13:41:08.000Z</time>
      </trkpt>
      <trkpt lat="40.48593685962259769439697265625" lon="-1.69439627788960933685302734375">
        <ele>1642.5999755859375</ele>
        <time>2022-08-24T13:41:14.000Z</time>
      </trkpt>
      <trkpt lat="40.4859382845461368560791015625" lon="-1.694627702236175537109375">
        <ele>1641.5999755859375</ele>
        <time>2022-08-24T13:41:16.000Z</time>
      </trkpt>
      <trkpt lat="40.48592277802526950836181640625" lon="-1.69474328868091106414794921875">
        <ele>1640.800048828125</ele>
        <time>2022-08-24T13:41:18.000Z</time>
      </trkpt>
      <trkpt lat="40.485905595123767852783203125" lon="-1.6948568634688854217529296875">
        <ele>1640.5999755859375</ele>
        <time>2022-08-24T13:41:19.000Z</time>
      </trkpt>
      <trkpt lat="40.48582286573946475982666015625" lon="-1.6952980868518352508544921875">
        <ele>1639.199951171875</ele>
        <time>2022-08-24T13:41:23.000Z</time>
      </trkpt>
      <trkpt lat="40.48576737754046916961669921875" lon="-1.6956347040832042694091796875">
        <ele>1638.4000244140625</ele>
        <time>2022-08-24T13:41:26.000Z</time>
      </trkpt>
      <trkpt lat="40.48574491403996944427490234375" lon="-1.6957396455109119415283203125">
        <ele>1638.4000244140625</ele>
        <time>2022-08-24T13:41:27.000Z</time>
      </trkpt>
      <trkpt lat="40.48569495789706707000732421875" lon="-1.69615128077566623687744140625">
        <ele>1637.199951171875</ele>
        <time>2022-08-24T13:41:31.000Z</time>
      </trkpt>
      <trkpt lat="40.48572245053946971893310546875" lon="-1.6967458091676235198974609375">
        <ele>1636.199951171875</ele>
        <time>2022-08-24T13:41:36.000Z</time>
      </trkpt>
      <trkpt lat="40.48572245053946971893310546875" lon="-1.6967458091676235198974609375">
        <ele>1636.199951171875</ele>
        <time>2022-08-24T13:41:37.000Z</time>
      </trkpt>
      <trkpt lat="40.4857389628887176513671875" lon="-1.6972376592457294464111328125">
        <ele>1636</ele>
        <time>2022-08-24T13:41:41.000Z</time>
      </trkpt>
      <trkpt lat="40.48572580330073833465576171875" lon="-1.697440333664417266845703125">
        <ele>1635.5999755859375</ele>
        <time>2022-08-24T13:41:43.000Z</time>
      </trkpt>
      <trkpt lat="40.4857072792947292327880859375" lon="-1.69763823039829730987548828125">
        <ele>1634.800048828125</ele>
        <time>2022-08-24T13:41:45.000Z</time>
      </trkpt>
      <trkpt lat="40.48564852215349674224853515625" lon="-1.6981113888323307037353515625">
        <ele>1634</ele>
        <time>2022-08-24T13:41:50.000Z</time>
      </trkpt>
      <trkpt lat="40.48565941862761974334716796875" lon="-1.69837801717221736907958984375">
        <ele>1633.800048828125</ele>
        <time>2022-08-24T13:41:54.000Z</time>
      </trkpt>
      <trkpt lat="40.48567685298621654510498046875" lon="-1.69846870936453342437744140625">
        <ele>1633.800048828125</ele>
        <time>2022-08-24T13:41:55.000Z</time>
      </trkpt>
      <trkpt lat="40.48576201312243938446044921875" lon="-1.69873793609440326690673828125">
        <ele>1633.199951171875</ele>
        <time>2022-08-24T13:41:58.000Z</time>
      </trkpt>
      <trkpt lat="40.4858474247157573699951171875" lon="-1.69888612814247608184814453125">
        <ele>1633</ele>
        <time>2022-08-24T13:42:00.000Z</time>
      </trkpt>
      <trkpt lat="40.485955886542797088623046875" lon="-1.69903599657118320465087890625">
        <ele>1632.800048828125</ele>
        <time>2022-08-24T13:42:02.000Z</time>
      </trkpt>
      <trkpt lat="40.48600190319120883941650390625" lon="-1.6991145350039005279541015625">
        <ele>1632.5999755859375</ele>
        <time>2022-08-24T13:42:03.000Z</time>
      </trkpt>
      <trkpt lat="40.4860663600265979766845703125" lon="-1.699273288249969482421875">
        <ele>1632.4000244140625</ele>
        <time>2022-08-24T13:42:05.000Z</time>
      </trkpt>
      <trkpt lat="40.48606912605464458465576171875" lon="-1.69949599541723728179931640625">
        <ele>1632</ele>
        <time>2022-08-24T13:42:08.000Z</time>
      </trkpt>
      <trkpt lat="40.4859372787177562713623046875" lon="-1.69973722659051418304443359375">
        <ele>1632</ele>
        <time>2022-08-24T13:42:12.000Z</time>
      </trkpt>
      <trkpt lat="40.48578179441392421722412109375" lon="-1.69981802813708782196044921875">
        <ele>1631.800048828125</ele>
        <time>2022-08-24T13:42:15.000Z</time>
      </trkpt>
      <trkpt lat="40.48572219908237457275390625" lon="-1.6998246498405933380126953125">
        <ele>1631.800048828125</ele>
        <time>2022-08-24T13:42:16.000Z</time>
      </trkpt>
      <trkpt lat="40.48560812138020992279052734375" lon="-1.699828170239925384521484375">
        <ele>1631.5999755859375</ele>
        <time>2022-08-24T13:42:18.000Z</time>
      </trkpt>
      <trkpt lat="40.48535884357988834381103515625" lon="-1.69984132982790470123291015625">
        <ele>1631.4000244140625</ele>
        <time>2022-08-24T13:42:23.000Z</time>
      </trkpt>
      <trkpt lat="40.48497076146304607391357421875" lon="-1.69988659210503101348876953125">
        <ele>1631.199951171875</ele>
        <time>2022-08-24T13:42:30.000Z</time>
      </trkpt>
      <trkpt lat="40.48465870320796966552734375" lon="-1.69999052770435810089111328125">
        <ele>1631</ele>
        <time>2022-08-24T13:42:34.000Z</time>
      </trkpt>
      <trkpt lat="40.48439919948577880859375" lon="-1.70008759014308452606201171875">
        <ele>1630.800048828125</ele>
        <time>2022-08-24T13:42:37.000Z</time>
      </trkpt>
      <trkpt lat="40.48412703908979892730712890625" lon="-1.7002326808869838714599609375">
        <ele>1629.199951171875</ele>
        <time>2022-08-24T13:42:40.000Z</time>
      </trkpt>
      <trkpt lat="40.48384004272520542144775390625" lon="-1.70039369724690914154052734375">
        <ele>1628.199951171875</ele>
        <time>2022-08-24T13:42:43.000Z</time>
      </trkpt>
      <trkpt lat="40.4836570657789707183837890625" lon="-1.70050375163555145263671875">
        <ele>1627</ele>
        <time>2022-08-24T13:42:45.000Z</time>
      </trkpt>
      <trkpt lat="40.483476854860782623291015625" lon="-1.700614057481288909912109375">
        <ele>1625.5999755859375</ele>
        <time>2022-08-24T13:42:47.000Z</time>
      </trkpt>
      <trkpt lat="40.48312540166079998016357421875" lon="-1.700815223157405853271484375">
        <ele>1625</ele>
        <time>2022-08-24T13:42:50.000Z</time>
      </trkpt>
      <trkpt lat="40.48312540166079998016357421875" lon="-1.700815223157405853271484375">
        <ele>1624.5999755859375</ele>
        <time>2022-08-24T13:42:51.000Z</time>
      </trkpt>
      <trkpt lat="40.48287176527082920074462890625" lon="-1.70096584595739841461181640625">
        <ele>1623.199951171875</ele>
        <time>2022-08-24T13:42:54.000Z</time>
      </trkpt>
      <trkpt lat="40.48261343501508235931396484375" lon="-1.70112376101315021514892578125">
        <ele>1622</ele>
        <time>2022-08-24T13:42:57.000Z</time>
      </trkpt>
      <trkpt lat="40.48245602287352085113525390625" lon="-1.70127882622182369232177734375">
        <ele>1621.5999755859375</ele>
        <time>2022-08-24T13:42:58.000Z</time>
      </trkpt>
      <trkpt lat="40.482324175536632537841796875" lon="-1.70148183591663837432861328125">
        <ele>1620.800048828125</ele>
        <time>2022-08-24T13:43:00.000Z</time>
      </trkpt>
      <trkpt lat="40.48226960934698581695556640625" lon="-1.7015952430665493011474609375">
        <ele>1620.199951171875</ele>
        <time>2022-08-24T13:43:01.000Z</time>
      </trkpt>
      <trkpt lat="40.4822214134037494659423828125" lon="-1.70171150006353855133056640625">
        <ele>1619.199951171875</ele>
        <time>2022-08-24T13:43:02.000Z</time>
      </trkpt>
      <trkpt lat="40.4820992052555084228515625" lon="-1.70205750502645969390869140625">
        <ele>1618</ele>
        <time>2022-08-24T13:43:05.000Z</time>
      </trkpt>
      <trkpt lat="40.48206232488155364990234375" lon="-1.70216881670057773590087890625">
        <ele>1617.4000244140625</ele>
        <time>2022-08-24T13:43:06.000Z</time>
      </trkpt>
      <trkpt lat="40.48202536068856716156005859375" lon="-1.70228113420307636260986328125">
        <ele>1616.800048828125</ele>
        <time>2022-08-24T13:43:07.000Z</time>
      </trkpt>
      <trkpt lat="40.4819528572261333465576171875" lon="-1.70250057242810726165771484375">
        <ele>1615.4000244140625</ele>
        <time>2022-08-24T13:43:09.000Z</time>
      </trkpt>
      <trkpt lat="40.481790415942668914794921875" lon="-1.7029068432748317718505859375">
        <ele>1614.4000244140625</ele>
        <time>2022-08-24T13:43:13.000Z</time>
      </trkpt>
      <trkpt lat="40.481708608567714691162109375" lon="-1.70309786684811115264892578125">
        <ele>1613</ele>
        <time>2022-08-24T13:43:15.000Z</time>
      </trkpt>
      <trkpt lat="40.4816003143787384033203125" lon="-1.7033648304641246795654296875">
        <ele>1611.800048828125</ele>
        <time>2022-08-24T13:43:18.000Z</time>
      </trkpt>
      <trkpt lat="40.48152630217373371124267578125" lon="-1.7035374976694583892822265625">
        <ele>1610.5999755859375</ele>
        <time>2022-08-24T13:43:20.000Z</time>
      </trkpt>
      <trkpt lat="40.4814930260181427001953125" lon="-1.70362626202404499053955078125">
        <ele>1610.199951171875</ele>
        <time>2022-08-24T13:43:21.000Z</time>
      </trkpt>
      <trkpt lat="40.48142437823116779327392578125" lon="-1.70381083153188228607177734375">
        <ele>1609.5999755859375</ele>
        <time>2022-08-24T13:43:23.000Z</time>
      </trkpt>
      <trkpt lat="40.48128155060112476348876953125" lon="-1.70418030582368373870849609375">
        <ele>1608.4000244140625</ele>
        <time>2022-08-24T13:43:27.000Z</time>
      </trkpt>
      <trkpt lat="40.4812145791947841644287109375" lon="-1.70436554588377475738525390625">
        <ele>1607.800048828125</ele>
        <time>2022-08-24T13:43:29.000Z</time>
      </trkpt>
      <trkpt lat="40.48110251314938068389892578125" lon="-1.70461767353117465972900390625">
        <ele>1607.4000244140625</ele>
        <time>2022-08-24T13:43:32.000Z</time>
      </trkpt>
      <trkpt lat="40.48102305270731449127197265625" lon="-1.7047651112079620361328125">
        <ele>1606</ele>
        <time>2022-08-24T13:43:34.000Z</time>
      </trkpt>
      <trkpt lat="40.4809825681149959564208984375" lon="-1.7048350162804126739501953125">
        <ele>1605.800048828125</ele>
        <time>2022-08-24T13:43:35.000Z</time>
      </trkpt>
      <trkpt lat="40.4808481223881244659423828125" lon="-1.705031655728816986083984375">
        <ele>1605</ele>
        <time>2022-08-24T13:43:38.000Z</time>
      </trkpt>
      <trkpt lat="40.48070244491100311279296875" lon="-1.705230139195919036865234375">
        <ele>1604.800048828125</ele>
        <time>2022-08-24T13:43:41.000Z</time>
      </trkpt>
      <trkpt lat="40.48039625398814678192138671875" lon="-1.70551219023764133453369140625">
        <ele>1604.5999755859375</ele>
        <time>2022-08-24T13:43:47.000Z</time>
      </trkpt>
      <trkpt lat="40.4800649173557758331298828125" lon="-1.7057151161134243011474609375">
        <ele>1604.199951171875</ele>
        <time>2022-08-24T13:43:53.000Z</time>
      </trkpt>
      <trkpt lat="40.47988160513341426849365234375" lon="-1.70581896789371967315673828125">
        <ele>1604</ele>
        <time>2022-08-24T13:43:56.000Z</time>
      </trkpt>
      <trkpt lat="40.4796525277197360992431640625" lon="-1.705948971211910247802734375">
        <ele>1604</ele>
        <time>2022-08-24T13:44:00.000Z</time>
      </trkpt>
      <trkpt lat="40.4792667925357818603515625" lon="-1.7062180303037166595458984375">
        <ele>1603</ele>
        <time>2022-08-24T13:44:07.000Z</time>
      </trkpt>
      <trkpt lat="40.479210801422595977783203125" lon="-1.70627050101757049560546875">
        <ele>1602.800048828125</ele>
        <time>2022-08-24T13:44:08.000Z</time>
      </trkpt>
      <trkpt lat="40.4791623540222644805908203125" lon="-1.7063306830823421478271484375">
        <ele>1602.5999755859375</ele>
        <time>2022-08-24T13:44:09.000Z</time>
      </trkpt>
      <trkpt lat="40.47903503291308879852294921875" lon="-1.7065409012138843536376953125">
        <ele>1602</ele>
        <time>2022-08-24T13:44:12.000Z</time>
      </trkpt>
      <trkpt lat="40.4788948036730289459228515625" lon="-1.706863604485988616943359375">
        <ele>1601.800048828125</ele>
        <time>2022-08-24T13:44:16.000Z</time>
      </trkpt>
      <trkpt lat="40.47886773012578487396240234375" lon="-1.7069368623197078704833984375">
        <ele>1601.800048828125</ele>
        <time>2022-08-24T13:44:17.000Z</time>
      </trkpt>
      <trkpt lat="40.47880000434815883636474609375" lon="-1.70713895000517368316650390625">
        <ele>1600.5999755859375</ele>
        <time>2022-08-24T13:44:20.000Z</time>
      </trkpt>
      <trkpt lat="40.4787268303334712982177734375" lon="-1.70739979483187198638916015625">
        <ele>1599.5999755859375</ele>
        <time>2022-08-24T13:44:24.000Z</time>
      </trkpt>
      <trkpt lat="40.47862884588539600372314453125" lon="-1.70775082893669605255126953125">
        <ele>1598.800048828125</ele>
        <time>2022-08-24T13:44:30.000Z</time>
      </trkpt>
      <trkpt lat="40.4786259122192859649658203125" lon="-1.7078018747270107269287109375">
        <ele>1598.800048828125</ele>
        <time>2022-08-24T13:44:31.000Z</time>
      </trkpt>
      <trkpt lat="40.47861308790743350982666015625" lon="-1.7079581134021282196044921875">
        <ele>1598.800048828125</ele>
        <time>2022-08-24T13:44:35.000Z</time>
      </trkpt>
      <trkpt lat="40.47860990278422832489013671875" lon="-1.70798719860613346099853515625">
        <ele>1598.800048828125</ele>
        <time>2022-08-24T13:44:36.000Z</time>
      </trkpt>
      <trkpt lat="40.4785890318453311920166015625" lon="-1.7081244103610515594482421875">
        <ele>1599</ele>
        <time>2022-08-24T13:44:42.000Z</time>
      </trkpt>
      <trkpt lat="40.478549636900424957275390625" lon="-1.70830495655536651611328125">
        <ele>1600</ele>
        <time>2022-08-24T13:44:48.000Z</time>
      </trkpt>
      <trkpt lat="40.47852071933448314666748046875" lon="-1.70849882997572422027587890625">
        <ele>1600.5999755859375</ele>
        <time>2022-08-24T13:44:54.000Z</time>
      </trkpt>
      <trkpt lat="40.478457771241664886474609375" lon="-1.70871910639107227325439453125">
        <ele>1601.4000244140625</ele>
        <time>2022-08-24T13:45:01.000Z</time>
      </trkpt>
      <trkpt lat="40.4784245789051055908203125" lon="-1.70881482772529125213623046875">
        <ele>1601.800048828125</ele>
        <time>2022-08-24T13:45:04.000Z</time>
      </trkpt>
      <trkpt lat="40.47839113511145114898681640625" lon="-1.70894809998571872711181640625">
        <ele>1602</ele>
        <time>2022-08-24T13:45:08.000Z</time>
      </trkpt>
      <trkpt lat="40.47831930220127105712890625" lon="-1.7091674543917179107666015625">
        <ele>1602.199951171875</ele>
        <time>2022-08-24T13:45:15.000Z</time>
      </trkpt>
      <trkpt lat="40.47826557420194149017333984375" lon="-1.7093320749700069427490234375">
        <ele>1602.5999755859375</ele>
        <time>2022-08-24T13:45:21.000Z</time>
      </trkpt>
      <trkpt lat="40.4782591201364994049072265625" lon="-1.70935763977468013763427734375">
        <ele>1602.800048828125</ele>
        <time>2022-08-24T13:45:22.000Z</time>
      </trkpt>
      <trkpt lat="40.47822701744735240936279296875" lon="-1.70951287262141704559326171875">
        <ele>1603.4000244140625</ele>
        <time>2022-08-24T13:45:28.000Z</time>
      </trkpt>
      <trkpt lat="40.478152334690093994140625" lon="-1.70965100638568401336669921875">
        <ele>1603.800048828125</ele>
        <time>2022-08-24T13:45:34.000Z</time>
      </trkpt>
      <trkpt lat="40.47813347540795803070068359375" lon="-1.709671206772327423095703125">
        <ele>1603.800048828125</ele>
        <time>2022-08-24T13:45:35.000Z</time>
      </trkpt>
      <trkpt lat="40.478003136813640594482421875" lon="-1.70985183678567409515380859375">
        <ele>1604.800048828125</ele>
        <time>2022-08-24T13:45:43.000Z</time>
      </trkpt>
      <trkpt lat="40.47795988619327545166015625" lon="-1.7099221609532833099365234375">
        <ele>1605</ele>
        <time>2022-08-24T13:45:45.000Z</time>
      </trkpt>
      <trkpt lat="40.477817393839359283447265625" lon="-1.7101652361452579498291015625">
        <ele>1606</ele>
        <time>2022-08-24T13:45:55.000Z</time>
      </trkpt>
      <trkpt lat="40.477817393839359283447265625" lon="-1.7101652361452579498291015625">
        <ele>1606.199951171875</ele>
        <time>2022-08-24T13:45:56.000Z</time>
      </trkpt>
      <trkpt lat="40.4777679406106472015380859375" lon="-1.71026238240301609039306640625">
        <ele>1607.199951171875</ele>
        <time>2022-08-24T13:46:00.000Z</time>
      </trkpt>
      <trkpt lat="40.4777432978153228759765625" lon="-1.7103159427642822265625">
        <ele>1607.5999755859375</ele>
        <time>2022-08-24T13:46:02.000Z</time>
      </trkpt>
      <trkpt lat="40.4776941798627376556396484375" lon="-1.71041241846978664398193359375">
        <ele>1608.199951171875</ele>
        <time>2022-08-24T13:46:06.000Z</time>
      </trkpt>
      <trkpt lat="40.47768252901732921600341796875" lon="-1.71049003489315509796142578125">
        <ele>1608.4000244140625</ele>
        <time>2022-08-24T13:46:09.000Z</time>
      </trkpt>
      <trkpt lat="40.47769007273018360137939453125" lon="-1.71065700240433216094970703125">
        <ele>1608.5999755859375</ele>
        <time>2022-08-24T13:46:15.000Z</time>
      </trkpt>
      <trkpt lat="40.47768705524504184722900390625" lon="-1.7108220420777797698974609375">
        <ele>1609</ele>
        <time>2022-08-24T13:46:20.000Z</time>
      </trkpt>
      <trkpt lat="40.47768906690180301666259765625" lon="-1.71087996102869510650634765625">
        <ele>1609.199951171875</ele>
        <time>2022-08-24T13:46:22.000Z</time>
      </trkpt>
      <trkpt lat="40.47767213545739650726318359375" lon="-1.711000911891460418701171875">
        <ele>1609.5999755859375</ele>
        <time>2022-08-24T13:46:26.000Z</time>
      </trkpt>
      <trkpt lat="40.47762486152350902557373046875" lon="-1.71121557243168354034423828125">
        <ele>1610.199951171875</ele>
        <time>2022-08-24T13:46:34.000Z</time>
      </trkpt>
      <trkpt lat="40.47755747102200984954833984375" lon="-1.7114010639488697052001953125">
        <ele>1611</ele>
        <time>2022-08-24T13:46:41.000Z</time>
      </trkpt>
      <trkpt lat="40.47753886319696903228759765625" lon="-1.7114875651895999908447265625">
        <ele>1611.199951171875</ele>
        <time>2022-08-24T13:46:44.000Z</time>
      </trkpt>
      <trkpt lat="40.47750064171850681304931640625" lon="-1.711686886847019195556640625">
        <ele>1611.800048828125</ele>
        <time>2022-08-24T13:46:51.000Z</time>
      </trkpt>
      <trkpt lat="40.47748119570314884185791015625" lon="-1.711769364774227142333984375">
        <ele>1612.4000244140625</ele>
        <time>2022-08-24T13:46:54.000Z</time>
      </trkpt>
      <trkpt lat="40.47746946103870868682861328125" lon="-1.7119247652590274810791015625">
        <ele>1613</ele>
        <time>2022-08-24T13:46:59.000Z</time>
      </trkpt>
      <trkpt lat="40.477459989488124847412109375" lon="-1.7120129428803920745849609375">
        <ele>1613.4000244140625</ele>
        <time>2022-08-24T13:47:02.000Z</time>
      </trkpt>
      <trkpt lat="40.47744163312017917633056640625" lon="-1.7121242545545101165771484375">
        <ele>1614</ele>
        <time>2022-08-24T13:47:06.000Z</time>
      </trkpt>
      <trkpt lat="40.47739754430949687957763671875" lon="-1.71231762506067752838134765625">
        <ele>1614.5999755859375</ele>
        <time>2022-08-24T13:47:13.000Z</time>
      </trkpt>
      <trkpt lat="40.47734574414789676666259765625" lon="-1.71250236220657825469970703125">
        <ele>1615.5999755859375</ele>
        <time>2022-08-24T13:47:20.000Z</time>
      </trkpt>
      <trkpt lat="40.47733937390148639678955078125" lon="-1.71252935193479061126708984375">
        <ele>1616</ele>
        <time>2022-08-24T13:47:21.000Z</time>
      </trkpt>
      <trkpt lat="40.477271564304828643798828125" lon="-1.7126358859241008758544921875">
        <ele>1616.5999755859375</ele>
        <time>2022-08-24T13:47:26.000Z</time>
      </trkpt>
      <trkpt lat="40.47714851796627044677734375" lon="-1.71284451149404048919677734375">
        <ele>1617.4000244140625</ele>
        <time>2022-08-24T13:47:35.000Z</time>
      </trkpt>
      <trkpt lat="40.477098561823368072509765625" lon="-1.71290217898786067962646484375">
        <ele>1617.800048828125</ele>
        <time>2022-08-24T13:47:38.000Z</time>
      </trkpt>
      <trkpt lat="40.47702773474156856536865234375" lon="-1.71298432163894176483154296875">
        <ele>1618.800048828125</ele>
        <time>2022-08-24T13:47:43.000Z</time>
      </trkpt>
      <trkpt lat="40.47701030038297176361083984375" lon="-1.71299614012241363525390625">
        <ele>1619</ele>
        <time>2022-08-24T13:47:44.000Z</time>
      </trkpt>
      <trkpt lat="40.47690686769783496856689453125" lon="-1.71306361444294452667236328125">
        <ele>1620</ele>
        <time>2022-08-24T13:47:50.000Z</time>
      </trkpt>
      <trkpt lat="40.4768878407776355743408203125" lon="-1.71307350508868694305419921875">
        <ele>1620</ele>
        <time>2022-08-24T13:47:51.000Z</time>
      </trkpt>
      <trkpt lat="40.476783402264118194580078125" lon="-1.713135950267314910888671875">
        <ele>1621</ele>
        <time>2022-08-24T13:47:57.000Z</time>
      </trkpt>
      <trkpt lat="40.4767302609980106353759765625" lon="-1.71316511929035186767578125">
        <ele>1621.199951171875</ele>
        <time>2022-08-24T13:48:00.000Z</time>
      </trkpt>
      <trkpt lat="40.47662255354225635528564453125" lon="-1.71322085894644260406494140625">
        <ele>1622.199951171875</ele>
        <time>2022-08-24T13:48:07.000Z</time>
      </trkpt>
      <trkpt lat="40.4766082204878330230712890625" lon="-1.7132289893925189971923828125">
        <ele>1622.4000244140625</ele>
        <time>2022-08-24T13:48:08.000Z</time>
      </trkpt>
      <trkpt lat="40.47653965651988983154296875" lon="-1.713285148143768310546875">
        <ele>1622.5999755859375</ele>
        <time>2022-08-24T13:48:13.000Z</time>
      </trkpt>
      <trkpt lat="40.47647058963775634765625" lon="-1.71332965604960918426513671875">
        <ele>1623.199951171875</ele>
        <time>2022-08-24T13:48:17.000Z</time>
      </trkpt>
      <trkpt lat="40.47639993019402027130126953125" lon="-1.7133830487728118896484375">
        <ele>1624</ele>
        <time>2022-08-24T13:48:22.000Z</time>
      </trkpt>
      <trkpt lat="40.47633253969252109527587890625" lon="-1.7134378664195537567138671875">
        <ele>1624.4000244140625</ele>
        <time>2022-08-24T13:48:26.000Z</time>
      </trkpt>
      <trkpt lat="40.47629767097532749176025390625" lon="-1.713461838662624359130859375">
        <ele>1624.5999755859375</ele>
        <time>2022-08-24T13:48:28.000Z</time>
      </trkpt>
      <trkpt lat="40.47621309757232666015625" lon="-1.71350575983524322509765625">
        <ele>1625.5999755859375</ele>
        <time>2022-08-24T13:48:32.000Z</time>
      </trkpt>
      <trkpt lat="40.47614361159503459930419921875" lon="-1.713546998798847198486328125">
        <ele>1625.800048828125</ele>
        <time>2022-08-24T13:48:35.000Z</time>
      </trkpt>
      <trkpt lat="40.4760560207068920135498046875" lon="-1.713660322129726409912109375">
        <ele>1626.5999755859375</ele>
        <time>2022-08-24T13:48:41.000Z</time>
      </trkpt>
      <trkpt lat="40.47604822553694248199462890625" lon="-1.71369141899049282073974609375">
        <ele>1626.5999755859375</ele>
        <time>2022-08-24T13:48:42.000Z</time>
      </trkpt>
      <trkpt lat="40.47602291218936443328857421875" lon="-1.7138975299894809722900390625">
        <ele>1627</ele>
        <time>2022-08-24T13:48:49.000Z</time>
      </trkpt>
      <trkpt lat="40.47604688443243503570556640625" lon="-1.71406474895775318145751953125">
        <ele>1627.4000244140625</ele>
        <time>2022-08-24T13:48:55.000Z</time>
      </trkpt>
      <trkpt lat="40.47606063075363636016845703125" lon="-1.71412392519414424896240234375">
        <ele>1627.5999755859375</ele>
        <time>2022-08-24T13:48:57.000Z</time>
      </trkpt>
      <trkpt lat="40.47607965767383575439453125" lon="-1.71429441310465335845947265625">
        <ele>1628.199951171875</ele>
        <time>2022-08-24T13:49:03.000Z</time>
      </trkpt>
      <trkpt lat="40.47609767876565456390380859375" lon="-1.7144617997109889984130859375">
        <ele>1628.4000244140625</ele>
        <time>2022-08-24T13:49:10.000Z</time>
      </trkpt>
      <trkpt lat="40.47609885223209857940673828125" lon="-1.71449038200080394744873046875">
        <ele>1628.800048828125</ele>
        <time>2022-08-24T13:49:11.000Z</time>
      </trkpt>
      <trkpt lat="40.4761043004691600799560546875" lon="-1.7145949043333530426025390625">
        <ele>1629.800048828125</ele>
        <time>2022-08-24T13:49:16.000Z</time>
      </trkpt>
      <trkpt lat="40.4761036299169063568115234375" lon="-1.71461510471999645233154296875">
        <ele>1630</ele>
        <time>2022-08-24T13:49:17.000Z</time>
      </trkpt>
      <trkpt lat="40.4761017858982086181640625" lon="-1.71474435366690158843994140625">
        <ele>1630.4000244140625</ele>
        <time>2022-08-24T13:49:23.000Z</time>
      </trkpt>
      <trkpt lat="40.47609617002308368682861328125" lon="-1.7148326151072978973388671875">
        <ele>1630.800048828125</ele>
        <time>2022-08-24T13:49:27.000Z</time>
      </trkpt>
      <trkpt lat="40.47608225606381893157958984375" lon="-1.71487192623317241668701171875">
        <ele>1631</ele>
        <time>2022-08-24T13:49:29.000Z</time>
      </trkpt>
      <trkpt lat="40.47602609731256961822509765625" lon="-1.71501986682415008544921875">
        <ele>1631.5999755859375</ele>
        <time>2022-08-24T13:49:35.000Z</time>
      </trkpt>
      <trkpt lat="40.47602140344679355621337890625" lon="-1.7150445096194744110107421875">
        <ele>1631.800048828125</ele>
        <time>2022-08-24T13:49:37.000Z</time>
      </trkpt>
      <trkpt lat="40.47600883059203624725341796875" lon="-1.71512036584317684173583984375">
        <ele>1632</ele>
        <time>2022-08-24T13:49:39.000Z</time>
      </trkpt>
      <trkpt lat="40.4759732075035572052001953125" lon="-1.7152091301977634429931640625">
        <ele>1632.4000244140625</ele>
        <time>2022-08-24T13:49:44.000Z</time>
      </trkpt>
      <trkpt lat="40.475935824215412139892578125" lon="-1.71538330614566802978515625">
        <ele>1633</ele>
        <time>2022-08-24T13:49:51.000Z</time>
      </trkpt>
      <trkpt lat="40.47590338625013828277587890625" lon="-1.71551330946385860443115234375">
        <ele>1634.199951171875</ele>
        <time>2022-08-24T13:49:56.000Z</time>
      </trkpt>
      <trkpt lat="40.47590338625013828277587890625" lon="-1.71551330946385860443115234375">
        <ele>1634.4000244140625</ele>
        <time>2022-08-24T13:49:57.000Z</time>
      </trkpt>
      <trkpt lat="40.4758883826434612274169921875" lon="-1.71569310128688812255859375">
        <ele>1635.199951171875</ele>
        <time>2022-08-24T13:50:04.000Z</time>
      </trkpt>
      <trkpt lat="40.4758860357105731964111328125" lon="-1.7157472483813762664794921875">
        <ele>1635.199951171875</ele>
        <time>2022-08-24T13:50:05.000Z</time>
      </trkpt>
      <trkpt lat="40.47587924636900424957275390625" lon="-1.7159752361476421356201171875">
        <ele>1636.199951171875</ele>
        <time>2022-08-24T13:50:15.000Z</time>
      </trkpt>
      <trkpt lat="40.475874803960323333740234375" lon="-1.71621118672192096710205078125">
        <ele>1637.199951171875</ele>
        <time>2022-08-24T13:50:24.000Z</time>
      </trkpt>
      <trkpt lat="40.47587354667484760284423828125" lon="-1.71626231633126735687255859375">
        <ele>1637.199951171875</ele>
        <time>2022-08-24T13:50:25.000Z</time>
      </trkpt>
      <trkpt lat="40.47585829161107540130615234375" lon="-1.71641419641673564910888671875">
        <ele>1638</ele>
        <time>2022-08-24T13:50:32.000Z</time>
      </trkpt>
      <trkpt lat="40.47585560940206050872802734375" lon="-1.71646951697766780853271484375">
        <ele>1638.4000244140625</ele>
        <time>2022-08-24T13:50:34.000Z</time>
      </trkpt>
      <trkpt lat="40.4758303798735141754150390625" lon="-1.716638915240764617919921875">
        <ele>1639.199951171875</ele>
        <time>2022-08-24T13:50:40.000Z</time>
      </trkpt>
      <trkpt lat="40.4758255183696746826171875" lon="-1.71669867821037769317626953125">
        <ele>1639.4000244140625</ele>
        <time>2022-08-24T13:50:41.000Z</time>
      </trkpt>
      <trkpt lat="40.4758095927536487579345703125" lon="-1.71689213253557682037353515625">
        <ele>1640</ele>
        <time>2022-08-24T13:50:49.000Z</time>
      </trkpt>
      <trkpt lat="40.4757837764918804168701171875" lon="-1.7171014286577701568603515625">
        <ele>1640.199951171875</ele>
        <time>2022-08-24T13:50:55.000Z</time>
      </trkpt>
      <trkpt lat="40.4757530987262725830078125" lon="-1.71730083413422107696533203125">
        <ele>1640.5999755859375</ele>
        <time>2022-08-24T13:51:00.000Z</time>
      </trkpt>
      <trkpt lat="40.47573499381542205810546875" lon="-1.71736923046410083770751953125">
        <ele>1640.5999755859375</ele>
        <time>2022-08-24T13:51:02.000Z</time>
      </trkpt>
      <trkpt lat="40.47565452754497528076171875" lon="-1.717588417232036590576171875">
        <ele>1641</ele>
        <time>2022-08-24T13:51:08.000Z</time>
      </trkpt>
      <trkpt lat="40.4756375961005687713623046875" lon="-1.717630326747894287109375">
        <ele>1641</ele>
        <time>2022-08-24T13:51:09.000Z</time>
      </trkpt>
      <trkpt lat="40.47549485228955745697021484375" lon="-1.7179119586944580078125">
        <ele>1641</ele>
        <time>2022-08-24T13:51:16.000Z</time>
      </trkpt>
      <trkpt lat="40.475353784859180450439453125" lon="-1.7181461490690708160400390625">
        <ele>1641</ele>
        <time>2022-08-24T13:51:22.000Z</time>
      </trkpt>
      <trkpt lat="40.4753271304070949554443359375" lon="-1.7181974463164806365966796875">
        <ele>1641</ele>
        <time>2022-08-24T13:51:23.000Z</time>
      </trkpt>
      <trkpt lat="40.4752801917493343353271484375" lon="-1.71832091175019741058349609375">
        <ele>1640.800048828125</ele>
        <time>2022-08-24T13:51:25.000Z</time>
      </trkpt>
      <trkpt lat="40.47522671520709991455078125" lon="-1.71845502220094203948974609375">
        <ele>1640.5999755859375</ele>
        <time>2022-08-24T13:51:27.000Z</time>
      </trkpt>
      <trkpt lat="40.47505094669759273529052734375" lon="-1.7188294418156147003173828125">
        <ele>1640</ele>
        <time>2022-08-24T13:51:32.000Z</time>
      </trkpt>
      <trkpt lat="40.47501079738140106201171875" lon="-1.7189109139144420623779296875">
        <ele>1639.5999755859375</ele>
        <time>2022-08-24T13:51:33.000Z</time>
      </trkpt>
      <trkpt lat="40.47483452595770359039306640625" lon="-1.71928499825298786163330078125">
        <ele>1638.800048828125</ele>
        <time>2022-08-24T13:51:37.000Z</time>
      </trkpt>
      <trkpt lat="40.4747353680431842803955078125" lon="-1.71949513256549835205078125">
        <ele>1638.4000244140625</ele>
        <time>2022-08-24T13:51:39.000Z</time>
      </trkpt>
      <trkpt lat="40.474561192095279693603515625" lon="-1.7198181711137294769287109375">
        <ele>1637</ele>
        <time>2022-08-24T13:51:42.000Z</time>
      </trkpt>
      <trkpt lat="40.4744832403957843780517578125" lon="-1.71991079114377498626708984375">
        <ele>1636.5999755859375</ele>
        <time>2022-08-24T13:51:43.000Z</time>
      </trkpt>
      <trkpt lat="40.47430462203919887542724609375" lon="-1.72004439868032932281494140625">
        <ele>1635.800048828125</ele>
        <time>2022-08-24T13:51:45.000Z</time>
      </trkpt>
      <trkpt lat="40.47409214079380035400390625" lon="-1.720074824988842010498046875">
        <ele>1635.199951171875</ele>
        <time>2022-08-24T13:51:47.000Z</time>
      </trkpt>
      <trkpt lat="40.47398225404322147369384765625" lon="-1.72008396126329898834228515625">
        <ele>1635</ele>
        <time>2022-08-24T13:51:48.000Z</time>
      </trkpt>
      <trkpt lat="40.47386943362653255462646484375" lon="-1.72011145390570163726806640625">
        <ele>1634.800048828125</ele>
        <time>2022-08-24T13:51:49.000Z</time>
      </trkpt>
      <trkpt lat="40.4737593792378902435302734375" lon="-1.720165349543094635009765625">
        <ele>1634.199951171875</ele>
        <time>2022-08-24T13:51:50.000Z</time>
      </trkpt>
      <trkpt lat="40.4735847003757953643798828125" lon="-1.72036525793373584747314453125">
        <ele>1633.4000244140625</ele>
        <time>2022-08-24T13:51:52.000Z</time>
      </trkpt>
      <trkpt lat="40.473469197750091552734375" lon="-1.72077999450266361236572265625">
        <ele>1631.800048828125</ele>
        <time>2022-08-24T13:51:55.000Z</time>
      </trkpt>
      <trkpt lat="40.473451428115367889404296875" lon="-1.7209192179143428802490234375">
        <ele>1630.800048828125</ele>
        <time>2022-08-24T13:51:56.000Z</time>
      </trkpt>
      <trkpt lat="40.4734214209020137786865234375" lon="-1.7211938090622425079345703125">
        <ele>1629.199951171875</ele>
        <time>2022-08-24T13:51:58.000Z</time>
      </trkpt>
      <trkpt lat="40.4733972810208797454833984375" lon="-1.72132347710430622100830078125">
        <ele>1628.199951171875</ele>
        <time>2022-08-24T13:51:59.000Z</time>
      </trkpt>
      <trkpt lat="40.47335453331470489501953125" lon="-1.72144132666289806365966796875">
        <ele>1627.5999755859375</ele>
        <time>2022-08-24T13:52:00.000Z</time>
      </trkpt>
      <trkpt lat="40.47323249280452728271484375" lon="-1.72162723727524280548095703125">
        <ele>1626.4000244140625</ele>
        <time>2022-08-24T13:52:01.000Z</time>
      </trkpt>
      <trkpt lat="40.47323249280452728271484375" lon="-1.72162723727524280548095703125">
        <ele>1626</ele>
        <time>2022-08-24T13:52:02.000Z</time>
      </trkpt>
      <trkpt lat="40.4731501825153827667236328125" lon="-1.7216920293867588043212890625">
        <ele>1625.800048828125</ele>
        <time>2022-08-24T13:52:03.000Z</time>
      </trkpt>
      <trkpt lat="40.47296226024627685546875" lon="-1.72176335938274860382080078125">
        <ele>1624.800048828125</ele>
        <time>2022-08-24T13:52:05.000Z</time>
      </trkpt>
      <trkpt lat="40.47276587225496768951416015625" lon="-1.72178196720778942108154296875">
        <ele>1624.4000244140625</ele>
        <time>2022-08-24T13:52:07.000Z</time>
      </trkpt>
      <trkpt lat="40.47257107682526111602783203125" lon="-1.72178716398775577545166015625">
        <ele>1624</ele>
        <time>2022-08-24T13:52:09.000Z</time>
      </trkpt>
      <trkpt lat="40.47248206101357936859130859375" lon="-1.72178280539810657501220703125">
        <ele>1623.4000244140625</ele>
        <time>2022-08-24T13:52:10.000Z</time>
      </trkpt>
      <trkpt lat="40.47231853008270263671875" lon="-1.72179110348224639892578125">
        <ele>1622.199951171875</ele>
        <time>2022-08-24T13:52:12.000Z</time>
      </trkpt>
      <trkpt lat="40.47223739326000213623046875" lon="-1.72179621644318103790283203125">
        <ele>1621.800048828125</ele>
        <time>2022-08-24T13:52:13.000Z</time>
      </trkpt>
      <trkpt lat="40.4721540771424770355224609375" lon="-1.72179571352899074554443359375">
        <ele>1621.5999755859375</ele>
        <time>2022-08-24T13:52:14.000Z</time>
      </trkpt>
      <trkpt lat="40.471983253955841064453125" lon="-1.7217922769486904144287109375">
        <ele>1621.199951171875</ele>
        <time>2022-08-24T13:52:16.000Z</time>
      </trkpt>
      <trkpt lat="40.47173288650810718536376953125" lon="-1.72178029082715511322021484375">
        <ele>1619.800048828125</ele>
        <time>2022-08-24T13:52:19.000Z</time>
      </trkpt>
      <trkpt lat="40.47164001502096652984619140625" lon="-1.7217674665153026580810546875">
        <ele>1619.199951171875</ele>
        <time>2022-08-24T13:52:20.000Z</time>
      </trkpt>
      <trkpt lat="40.4714758135378360748291015625" lon="-1.72176159918308258056640625">
        <ele>1618.800048828125</ele>
        <time>2022-08-24T13:52:22.000Z</time>
      </trkpt>
      <trkpt lat="40.471099801361560821533203125" lon="-1.7216980643570423126220703125">
        <ele>1618.199951171875</ele>
        <time>2022-08-24T13:52:26.000Z</time>
      </trkpt>
      <trkpt lat="40.47083728015422821044921875" lon="-1.72159337438642978668212890625">
        <ele>1617.800048828125</ele>
        <time>2022-08-24T13:52:29.000Z</time>
      </trkpt>
      <trkpt lat="40.470680035650730133056640625" lon="-1.72152698971331119537353515625">
        <ele>1617</ele>
        <time>2022-08-24T13:52:31.000Z</time>
      </trkpt>
      <trkpt lat="40.47054517082870006561279296875" lon="-1.7214704118669033050537109375">
        <ele>1616.5999755859375</ele>
        <time>2022-08-24T13:52:33.000Z</time>
      </trkpt>
      <trkpt lat="40.4703462682664394378662109375" lon="-1.7213963158428668975830078125">
        <ele>1615.4000244140625</ele>
        <time>2022-08-24T13:52:36.000Z</time>
      </trkpt>
      <trkpt lat="40.47021760605275630950927734375" lon="-1.7213403247296810150146484375">
        <ele>1615.199951171875</ele>
        <time>2022-08-24T13:52:38.000Z</time>
      </trkpt>
      <trkpt lat="40.4698128439486026763916015625" lon="-1.72115164808928966522216796875">
        <ele>1614.800048828125</ele>
        <time>2022-08-24T13:52:45.000Z</time>
      </trkpt>
      <trkpt lat="40.46945317648351192474365234375" lon="-1.72089600004255771636962890625">
        <ele>1614.5999755859375</ele>
        <time>2022-08-24T13:52:52.000Z</time>
      </trkpt>
      <trkpt lat="40.4692240990698337554931640625" lon="-1.72072492539882659912109375">
        <ele>1614.4000244140625</ele>
        <time>2022-08-24T13:52:56.000Z</time>
      </trkpt>
      <trkpt lat="40.46902989037334918975830078125" lon="-1.72058670781552791595458984375">
        <ele>1613.800048828125</ele>
        <time>2022-08-24T13:52:59.000Z</time>
      </trkpt>
      <trkpt lat="40.46882587485015392303466796875" lon="-1.7204488255083560943603515625">
        <ele>1613.199951171875</ele>
        <time>2022-08-24T13:53:02.000Z</time>
      </trkpt>
      <trkpt lat="40.46851624734699726104736328125" lon="-1.72024455852806568145751953125">
        <ele>1612.4000244140625</ele>
        <time>2022-08-24T13:53:06.000Z</time>
      </trkpt>
      <trkpt lat="40.46824718825519084930419921875" lon="-1.720045991241931915283203125">
        <ele>1611.199951171875</ele>
        <time>2022-08-24T13:53:09.000Z</time>
      </trkpt>
      <trkpt lat="40.46806530095636844635009765625" lon="-1.7199080251157283782958984375">
        <ele>1610.199951171875</ele>
        <time>2022-08-24T13:53:11.000Z</time>
      </trkpt>
      <trkpt lat="40.46797226183116436004638671875" lon="-1.7198402993381023406982421875">
        <ele>1609.800048828125</ele>
        <time>2022-08-24T13:53:12.000Z</time>
      </trkpt>
      <trkpt lat="40.4677763767540454864501953125" lon="-1.71972102485597133636474609375">
        <ele>1608.800048828125</ele>
        <time>2022-08-24T13:53:14.000Z</time>
      </trkpt>
      <trkpt lat="40.46758300624787807464599609375" lon="-1.719674170017242431640625">
        <ele>1607.800048828125</ele>
        <time>2022-08-24T13:53:16.000Z</time>
      </trkpt>
      <trkpt lat="40.46742794103920459747314453125" lon="-1.719687916338443756103515625">
        <ele>1606.5999755859375</ele>
        <time>2022-08-24T13:53:18.000Z</time>
      </trkpt>
      <trkpt lat="40.46736557967960834503173828125" lon="-1.71970325522124767303466796875">
        <ele>1606.199951171875</ele>
        <time>2022-08-24T13:53:19.000Z</time>
      </trkpt>
      <trkpt lat="40.46731092967092990875244140625" lon="-1.71971884556114673614501953125">
        <ele>1605.800048828125</ele>
        <time>2022-08-24T13:53:20.000Z</time>
      </trkpt>
      <trkpt lat="40.46712770126760005950927734375" lon="-1.71976025216281414031982421875">
        <ele>1605.5999755859375</ele>
        <time>2022-08-24T13:53:24.000Z</time>
      </trkpt>
      <trkpt lat="40.4668416269123554229736328125" lon="-1.71978254802525043487548828125">
        <ele>1606.199951171875</ele>
        <time>2022-08-24T13:53:31.000Z</time>
      </trkpt>
      <trkpt lat="40.46668044291436672210693359375" lon="-1.71972035430371761322021484375">
        <ele>1607.800048828125</ele>
        <time>2022-08-24T13:53:37.000Z</time>
      </trkpt>
      <trkpt lat="40.46665127389132976531982421875" lon="-1.7196994833648204803466796875">
        <ele>1608</ele>
        <time>2022-08-24T13:53:38.000Z</time>
      </trkpt>
      <trkpt lat="40.46662244014441967010498046875" lon="-1.719674505293369293212890625">
        <ele>1608.199951171875</ele>
        <time>2022-08-24T13:53:39.000Z</time>
      </trkpt>
      <trkpt lat="40.466396547853946685791015625" lon="-1.71946294605731964111328125">
        <ele>1608.800048828125</ele>
        <time>2022-08-24T13:53:47.000Z</time>
      </trkpt>
      <trkpt lat="40.4661556519567966461181640625" lon="-1.71924325637519359588623046875">
        <ele>1608.800048828125</ele>
        <time>2022-08-24T13:53:55.000Z</time>
      </trkpt>
      <trkpt lat="40.465874858200550079345703125" lon="-1.71900118701159954071044921875">
        <ele>1608.5999755859375</ele>
        <time>2022-08-24T13:54:03.000Z</time>
      </trkpt>
      <trkpt lat="40.4655471257865428924560546875" lon="-1.71871284954249858856201171875">
        <ele>1607.5999755859375</ele>
        <time>2022-08-24T13:54:11.000Z</time>
      </trkpt>
      <trkpt lat="40.46545232646167278289794921875" lon="-1.7186209000647068023681640625">
        <ele>1607.4000244140625</ele>
        <time>2022-08-24T13:54:12.000Z</time>
      </trkpt>
      <trkpt lat="40.4653058946132659912109375" lon="-1.7184961773455142974853515625">
        <ele>1607.199951171875</ele>
        <time>2022-08-24T13:54:16.000Z</time>
      </trkpt>
      <trkpt lat="40.46516097150743007659912109375" lon="-1.71837153844535350799560546875">
        <ele>1606.5999755859375</ele>
        <time>2022-08-24T13:54:19.000Z</time>
      </trkpt>
      <trkpt lat="40.464905910193920135498046875" lon="-1.71813684515655040740966796875">
        <ele>1606.199951171875</ele>
        <time>2022-08-24T13:54:24.000Z</time>
      </trkpt>
      <trkpt lat="40.4646720550954341888427734375" lon="-1.71793752349913120269775390625">
        <ele>1605.800048828125</ele>
        <time>2022-08-24T13:54:28.000Z</time>
      </trkpt>
      <trkpt lat="40.4645345918834209442138671875" lon="-1.71783752739429473876953125">
        <ele>1605.199951171875</ele>
        <time>2022-08-24T13:54:30.000Z</time>
      </trkpt>
      <trkpt lat="40.4644598253071308135986328125" lon="-1.717797629535198211669921875">
        <ele>1605.199951171875</ele>
        <time>2022-08-24T13:54:31.000Z</time>
      </trkpt>
      <trkpt lat="40.46418548561632633209228515625" lon="-1.7177389562129974365234375">
        <ele>1604.5999755859375</ele>
        <time>2022-08-24T13:54:34.000Z</time>
      </trkpt>
      <trkpt lat="40.4638950526714324951171875" lon="-1.7177917622029781341552734375">
        <ele>1603.199951171875</ele>
        <time>2022-08-24T13:54:37.000Z</time>
      </trkpt>
      <trkpt lat="40.463794805109500885009765625" lon="-1.7178172431886196136474609375">
        <ele>1602.800048828125</ele>
        <time>2022-08-24T13:54:38.000Z</time>
      </trkpt>
      <trkpt lat="40.46359129250049591064453125" lon="-1.7178722284734249114990234375">
        <ele>1601.800048828125</ele>
        <time>2022-08-24T13:54:40.000Z</time>
      </trkpt>
      <trkpt lat="40.46339012682437896728515625" lon="-1.71793098561465740203857421875">
        <ele>1600.800048828125</ele>
        <time>2022-08-24T13:54:42.000Z</time>
      </trkpt>
      <trkpt lat="40.4631753824651241302490234375" lon="-1.71798504889011383056640625">
        <ele>1600</ele>
        <time>2022-08-24T13:54:44.000Z</time>
      </trkpt>
      <trkpt lat="40.46306650154292583465576171875" lon="-1.71801027841866016387939453125">
        <ele>1599.5999755859375</ele>
        <time>2022-08-24T13:54:45.000Z</time>
      </trkpt>
      <trkpt lat="40.46274279244244098663330078125" lon="-1.71808621846139430999755859375">
        <ele>1597.800048828125</ele>
        <time>2022-08-24T13:54:48.000Z</time>
      </trkpt>
      <trkpt lat="40.46252771280705928802490234375" lon="-1.718124859035015106201171875">
        <ele>1596.800048828125</ele>
        <time>2022-08-24T13:54:50.000Z</time>
      </trkpt>
      <trkpt lat="40.4623294807970523834228515625" lon="-1.7181749828159809112548828125">
        <ele>1595.800048828125</ele>
        <time>2022-08-24T13:54:52.000Z</time>
      </trkpt>
      <trkpt lat="40.46202966012060642242431640625" lon="-1.71823575161397457122802734375">
        <ele>1594.5999755859375</ele>
        <time>2022-08-24T13:54:55.000Z</time>
      </trkpt>
      <trkpt lat="40.46193578280508518218994140625" lon="-1.71825771220028400421142578125">
        <ele>1594.199951171875</ele>
        <time>2022-08-24T13:54:56.000Z</time>
      </trkpt>
      <trkpt lat="40.46168197877705097198486328125" lon="-1.71831990592181682586669921875">
        <ele>1593.4000244140625</ele>
        <time>2022-08-24T13:54:59.000Z</time>
      </trkpt>
      <trkpt lat="40.4616046138107776641845703125" lon="-1.71834354288876056671142578125">
        <ele>1593</ele>
        <time>2022-08-24T13:55:00.000Z</time>
      </trkpt>
      <trkpt lat="40.46125567518174648284912109375" lon="-1.71843993477523326873779296875">
        <ele>1592.199951171875</ele>
        <time>2022-08-24T13:55:05.000Z</time>
      </trkpt>
      <trkpt lat="40.46098778955638408660888671875" lon="-1.718495674431324005126953125">
        <ele>1591.199951171875</ele>
        <time>2022-08-24T13:55:09.000Z</time>
      </trkpt>
      <trkpt lat="40.4607997834682464599609375" lon="-1.71854437328875064849853515625">
        <ele>1591</ele>
        <time>2022-08-24T13:55:12.000Z</time>
      </trkpt>
      <trkpt lat="40.4603959433734416961669921875" lon="-1.7186480574309825897216796875">
        <ele>1590.199951171875</ele>
        <time>2022-08-24T13:55:18.000Z</time>
      </trkpt>
      <trkpt lat="40.46032662503421306610107421875" lon="-1.7186616361141204833984375">
        <ele>1590</ele>
        <time>2022-08-24T13:55:19.000Z</time>
      </trkpt>
      <trkpt lat="40.460049770772457122802734375" lon="-1.71873112209141254425048828125">
        <ele>1589.5999755859375</ele>
        <time>2022-08-24T13:55:23.000Z</time>
      </trkpt>
      <trkpt lat="40.459838546812534332275390625" lon="-1.7187858559191226959228515625">
        <ele>1589</ele>
        <time>2022-08-24T13:55:26.000Z</time>
      </trkpt>
      <trkpt lat="40.4595533944666385650634765625" lon="-1.71887394972145557403564453125">
        <ele>1588.4000244140625</ele>
        <time>2022-08-24T13:55:30.000Z</time>
      </trkpt>
      <trkpt lat="40.45933119021356105804443359375" lon="-1.71894066967070102691650390625">
        <ele>1588</ele>
        <time>2022-08-24T13:55:33.000Z</time>
      </trkpt>
      <trkpt lat="40.45901703648269176483154296875" lon="-1.71902365051209926605224609375">
        <ele>1587.4000244140625</ele>
        <time>2022-08-24T13:55:37.000Z</time>
      </trkpt>
      <trkpt lat="40.45884520746767520904541015625" lon="-1.71905902214348316192626953125">
        <ele>1586.800048828125</ele>
        <time>2022-08-24T13:55:39.000Z</time>
      </trkpt>
      <trkpt lat="40.4585898108780384063720703125" lon="-1.719122640788555145263671875">
        <ele>1585.5999755859375</ele>
        <time>2022-08-24T13:55:42.000Z</time>
      </trkpt>
      <trkpt lat="40.45849987305700778961181640625" lon="-1.71914384700357913970947265625">
        <ele>1585.4000244140625</ele>
        <time>2022-08-24T13:55:43.000Z</time>
      </trkpt>
      <trkpt lat="40.45832050032913684844970703125" lon="-1.71919405460357666015625">
        <ele>1584.800048828125</ele>
        <time>2022-08-24T13:55:45.000Z</time>
      </trkpt>
      <trkpt lat="40.45823919586837291717529296875" lon="-1.71924141235649585723876953125">
        <ele>1584.5999755859375</ele>
        <time>2022-08-24T13:55:46.000Z</time>
      </trkpt>
      <trkpt lat="40.45816786587238311767578125" lon="-1.71930746175348758697509765625">
        <ele>1584.199951171875</ele>
        <time>2022-08-24T13:55:47.000Z</time>
      </trkpt>
      <trkpt lat="40.45806837268173694610595703125" lon="-1.71947962604463100433349609375">
        <ele>1583.4000244140625</ele>
        <time>2022-08-24T13:55:49.000Z</time>
      </trkpt>
      <trkpt lat="40.45803509652614593505859375" lon="-1.7195730842649936676025390625">
        <ele>1583.199951171875</ele>
        <time>2022-08-24T13:55:50.000Z</time>
      </trkpt>
      <trkpt lat="40.45800316147506237030029296875" lon="-1.71986904926598072052001953125">
        <ele>1582</ele>
        <time>2022-08-24T13:55:53.000Z</time>
      </trkpt>
      <trkpt lat="40.45800517313182353973388671875" lon="-1.719963513314723968505859375">
        <ele>1581.4000244140625</ele>
        <time>2022-08-24T13:55:54.000Z</time>
      </trkpt>
      <trkpt lat="40.45801556669175624847412109375" lon="-1.72016032040119171142578125">
        <ele>1581.199951171875</ele>
        <time>2022-08-24T13:55:56.000Z</time>
      </trkpt>
      <trkpt lat="40.45803367160260677337646484375" lon="-1.720564663410186767578125">
        <ele>1580.800048828125</ele>
        <time>2022-08-24T13:56:00.000Z</time>
      </trkpt>
      <trkpt lat="40.4580624215304851531982421875" lon="-1.7213004268705844879150390625">
        <ele>1580.199951171875</ele>
        <time>2022-08-24T13:56:07.000Z</time>
      </trkpt>
      <trkpt lat="40.45806325972080230712890625" lon="-1.72140394337475299835205078125">
        <ele>1580.199951171875</ele>
        <time>2022-08-24T13:56:08.000Z</time>
      </trkpt>
      <trkpt lat="40.458061583340167999267578125" lon="-1.72150486148893833160400390625">
        <ele>1580</ele>
        <time>2022-08-24T13:56:09.000Z</time>
      </trkpt>
      <trkpt lat="40.4580547101795673370361328125" lon="-1.7217963002622127532958984375">
        <ele>1579.800048828125</ele>
        <time>2022-08-24T13:56:12.000Z</time>
      </trkpt>
      <trkpt lat="40.45801154337823390960693359375" lon="-1.72196955420076847076416015625">
        <ele>1579.5999755859375</ele>
        <time>2022-08-24T13:56:14.000Z</time>
      </trkpt>
      <trkpt lat="40.4579353518784046173095703125" lon="-1.7221215181052684783935546875">
        <ele>1579.5999755859375</ele>
        <time>2022-08-24T13:56:16.000Z</time>
      </trkpt>
      <trkpt lat="40.45785848982632160186767578125" lon="-1.72226996161043643951416015625">
        <ele>1579.4000244140625</ele>
        <time>2022-08-24T13:56:18.000Z</time>
      </trkpt>
      <trkpt lat="40.45781238935887813568115234375" lon="-1.72233366407454013824462890625">
        <ele>1579.199951171875</ele>
        <time>2022-08-24T13:56:19.000Z</time>
      </trkpt>
      <trkpt lat="40.4576520435512065887451171875" lon="-1.72246827743947505950927734375">
        <ele>1579</ele>
        <time>2022-08-24T13:56:22.000Z</time>
      </trkpt>
      <trkpt lat="40.45759395696222782135009765625" lon="-1.722488142549991607666015625">
        <ele>1579</ele>
        <time>2022-08-24T13:56:23.000Z</time>
      </trkpt>
      <trkpt lat="40.45737585984170436859130859375" lon="-1.72250901348888874053955078125">
        <ele>1578.800048828125</ele>
        <time>2022-08-24T13:56:27.000Z</time>
      </trkpt>
      <trkpt lat="40.4573201201856136322021484375" lon="-1.72250381670892238616943359375">
        <ele>1578.800048828125</ele>
        <time>2022-08-24T13:56:28.000Z</time>
      </trkpt>
      <trkpt lat="40.4569543339312076568603515625" lon="-1.7224678583443164825439453125">
        <ele>1578.4000244140625</ele>
        <time>2022-08-24T13:56:36.000Z</time>
      </trkpt>
      <trkpt lat="40.45682114548981189727783203125" lon="-1.7224353365600109100341796875">
        <ele>1578.4000244140625</ele>
        <time>2022-08-24T13:56:39.000Z</time>
      </trkpt>
      <trkpt lat="40.4567353986203670501708984375" lon="-1.72238647006452083587646484375">
        <ele>1578.4000244140625</ele>
        <time>2022-08-24T13:56:41.000Z</time>
      </trkpt>
      <trkpt lat="40.45661545358598232269287109375" lon="-1.72227658331394195556640625">
        <ele>1578.800048828125</ele>
        <time>2022-08-24T13:56:44.000Z</time>
      </trkpt>
      <trkpt lat="40.45650414191186428070068359375" lon="-1.722156219184398651123046875">
        <ele>1578.800048828125</ele>
        <time>2022-08-24T13:56:47.000Z</time>
      </trkpt>
      <trkpt lat="40.4563944227993488311767578125" lon="-1.72202604822814464569091796875">
        <ele>1578.800048828125</ele>
        <time>2022-08-24T13:56:51.000Z</time>
      </trkpt>
      <trkpt lat="40.45639551244676113128662109375" lon="-1.7220212705433368682861328125">
        <ele>1578.800048828125</ele>
        <time>2022-08-24T13:56:53.000Z</time>
      </trkpt>
      <trkpt lat="40.4563102684915065765380859375" lon="-1.721883304417133331298828125">
        <ele>1578.199951171875</ele>
        <time>2022-08-24T13:57:50.000Z</time>
      </trkpt>
      <trkpt lat="40.45629476197063922882080078125" lon="-1.7218561470508575439453125">
        <ele>1578.199951171875</ele>
        <time>2022-08-24T13:57:51.000Z</time>
      </trkpt>
      <trkpt lat="40.45616132207214832305908203125" lon="-1.7216568253934383392333984375">
        <ele>1578.4000244140625</ele>
        <time>2022-08-24T13:57:56.000Z</time>
      </trkpt>
      <trkpt lat="40.4558296501636505126953125" lon="-1.72125876881182193756103515625">
        <ele>1578</ele>
        <time>2022-08-24T13:58:05.000Z</time>
      </trkpt>
      <trkpt lat="40.45558154582977294921875" lon="-1.72101016156375408172607421875">
        <ele>1577.5999755859375</ele>
        <time>2022-08-24T13:58:11.000Z</time>
      </trkpt>
      <trkpt lat="40.4555292427539825439453125" lon="-1.72097495757043361663818359375">
        <ele>1577.4000244140625</ele>
        <time>2022-08-24T13:58:12.000Z</time>
      </trkpt>
      <trkpt lat="40.45530058443546295166015625" lon="-1.7208588682115077972412109375">
        <ele>1576.4000244140625</ele>
        <time>2022-08-24T13:58:16.000Z</time>
      </trkpt>
      <trkpt lat="40.45523864217102527618408203125" lon="-1.720835231244564056396484375">
        <ele>1576.199951171875</ele>
        <time>2022-08-24T13:58:17.000Z</time>
      </trkpt>
      <trkpt lat="40.45476322062313556671142578125" lon="-1.7207123525440692901611328125">
        <ele>1575.4000244140625</ele>
        <time>2022-08-24T13:58:25.000Z</time>
      </trkpt>
      <trkpt lat="40.45463933609426021575927734375" lon="-1.7206885479390621185302734375">
        <ele>1575.199951171875</ele>
        <time>2022-08-24T13:58:27.000Z</time>
      </trkpt>
      <trkpt lat="40.4543331451714038848876953125" lon="-1.7206278629601001739501953125">
        <ele>1574.199951171875</ele>
        <time>2022-08-24T13:58:32.000Z</time>
      </trkpt>
      <trkpt lat="40.45402158983051776885986328125" lon="-1.72054597176611423492431640625">
        <ele>1573</ele>
        <time>2022-08-24T13:58:36.000Z</time>
      </trkpt>
      <trkpt lat="40.45369251631200313568115234375" lon="-1.720462739467620849609375">
        <ele>1572.4000244140625</ele>
        <time>2022-08-24T13:58:42.000Z</time>
      </trkpt>
      <trkpt lat="40.45355538837611675262451171875" lon="-1.72042678110301494598388671875">
        <ele>1571.800048828125</ele>
        <time>2022-08-24T13:58:44.000Z</time>
      </trkpt>
      <trkpt lat="40.4533427394926548004150390625" lon="-1.72037648968398571014404296875">
        <ele>1570.4000244140625</ele>
        <time>2022-08-24T13:58:47.000Z</time>
      </trkpt>
      <trkpt lat="40.45312204398214817047119140625" lon="-1.72033290378749370574951171875">
        <ele>1569.5999755859375</ele>
        <time>2022-08-24T13:58:50.000Z</time>
      </trkpt>
      <trkpt lat="40.4530483670532703399658203125" lon="-1.7203299701213836669921875">
        <ele>1569.199951171875</ele>
        <time>2022-08-24T13:58:51.000Z</time>
      </trkpt>
      <trkpt lat="40.4527759552001953125" lon="-1.72037749551236629486083984375">
        <ele>1567.800048828125</ele>
        <time>2022-08-24T13:58:54.000Z</time>
      </trkpt>
      <trkpt lat="40.45252575539052486419677734375" lon="-1.72042024321854114532470703125">
        <ele>1567</ele>
        <time>2022-08-24T13:58:58.000Z</time>
      </trkpt>
      <trkpt lat="40.45227882452309131622314453125" lon="-1.72042191959917545318603515625">
        <ele>1566.4000244140625</ele>
        <time>2022-08-24T13:59:02.000Z</time>
      </trkpt>
      <trkpt lat="40.45173500664532184600830078125" lon="-1.72036458738148212432861328125">
        <ele>1565.4000244140625</ele>
        <time>2022-08-24T13:59:11.000Z</time>
      </trkpt>
      <trkpt lat="40.45144147239625453948974609375" lon="-1.7203405313193798065185546875">
        <ele>1564.4000244140625</ele>
        <time>2022-08-24T13:59:14.000Z</time>
      </trkpt>
      <trkpt lat="40.45136578381061553955078125" lon="-1.7203331552445888519287109375">
        <ele>1563.4000244140625</ele>
        <time>2022-08-24T13:59:16.000Z</time>
      </trkpt>
      <trkpt lat="40.45113377273082733154296875" lon="-1.720310188829898834228515625">
        <ele>1562.5999755859375</ele>
        <time>2022-08-24T13:59:18.000Z</time>
      </trkpt>
      <trkpt lat="40.451054312288761138916015625" lon="-1.7203043214976787567138671875">
        <ele>1562.199951171875</ele>
        <time>2022-08-24T13:59:19.000Z</time>
      </trkpt>
      <trkpt lat="40.45089907944202423095703125" lon="-1.72029166482388973236083984375">
        <ele>1561.199951171875</ele>
        <time>2022-08-24T13:59:21.000Z</time>
      </trkpt>
      <trkpt lat="40.45074828900396823883056640625" lon="-1.720277331769466400146484375">
        <ele>1560</ele>
        <time>2022-08-24T13:59:23.000Z</time>
      </trkpt>
      <trkpt lat="40.45037495903670787811279296875" lon="-1.720265932381153106689453125">
        <ele>1559</ele>
        <time>2022-08-24T13:59:28.000Z</time>
      </trkpt>
      <trkpt lat="40.45008745975792407989501953125" lon="-1.72030725516378879547119140625">
        <ele>1557.4000244140625</ele>
        <time>2022-08-24T13:59:33.000Z</time>
      </trkpt>
      <trkpt lat="40.44988193549215793609619140625" lon="-1.72035000286996364593505859375">
        <ele>1557</ele>
        <time>2022-08-24T13:59:35.000Z</time>
      </trkpt>
      <trkpt lat="40.4497348330914974212646484375" lon="-1.72037581913173198699951171875">
        <ele>1556.4000244140625</ele>
        <time>2022-08-24T13:59:38.000Z</time>
      </trkpt>
      <trkpt lat="40.44958085753023624420166015625" lon="-1.72041906975209712982177734375">
        <ele>1556</ele>
        <time>2022-08-24T13:59:40.000Z</time>
      </trkpt>
      <trkpt lat="40.44950743205845355987548828125" lon="-1.7204582132399082183837890625">
        <ele>1555.5999755859375</ele>
        <time>2022-08-24T13:59:41.000Z</time>
      </trkpt>
      <trkpt lat="40.449374578893184661865234375" lon="-1.72056474722921848297119140625">
        <ele>1555.199951171875</ele>
        <time>2022-08-24T13:59:42.000Z</time>
      </trkpt>
      <trkpt lat="40.44925061054527759552001953125" lon="-1.72068159095942974090576171875">
        <ele>1554.800048828125</ele>
        <time>2022-08-24T13:59:45.000Z</time>
      </trkpt>
      <trkpt lat="40.44913980178534984588623046875" lon="-1.720807738602161407470703125">
        <ele>1554.4000244140625</ele>
        <time>2022-08-24T13:59:46.000Z</time>
      </trkpt>
      <trkpt lat="40.449039302766323089599609375" lon="-1.72093723900616168975830078125">
        <ele>1554.4000244140625</ele>
        <time>2022-08-24T13:59:48.000Z</time>
      </trkpt>
      <trkpt lat="40.448944084346294403076171875" lon="-1.72106246463954448699951171875">
        <ele>1554</ele>
        <time>2022-08-24T13:59:50.000Z</time>
      </trkpt>
      <trkpt lat="40.44864091090857982635498046875" lon="-1.7214224673807621002197265625">
        <ele>1553.4000244140625</ele>
        <time>2022-08-24T13:59:57.000Z</time>
      </trkpt>
      <trkpt lat="40.44864091090857982635498046875" lon="-1.7214224673807621002197265625">
        <ele>1553.4000244140625</ele>
        <time>2022-08-24T13:59:58.000Z</time>
      </trkpt>
      <trkpt lat="40.448502860963344573974609375" lon="-1.7216122336685657501220703125">
        <ele>1553.199951171875</ele>
        <time>2022-08-24T14:00:02.000Z</time>
      </trkpt>
      <trkpt lat="40.44842164032161235809326171875" lon="-1.72168758697807788848876953125">
        <ele>1553</ele>
        <time>2022-08-24T14:00:04.000Z</time>
      </trkpt>
      <trkpt lat="40.4483115859329700469970703125" lon="-1.72181281261146068572998046875">
        <ele>1553</ele>
        <time>2022-08-24T14:00:06.000Z</time>
      </trkpt>
      <trkpt lat="40.4481540061533451080322265625" lon="-1.72195999883115291595458984375">
        <ele>1553</ele>
        <time>2022-08-24T14:00:10.000Z</time>
      </trkpt>
      <trkpt lat="40.44806490652263164520263671875" lon="-1.722007356584072113037109375">
        <ele>1552.4000244140625</ele>
        <time>2022-08-24T14:00:12.000Z</time>
      </trkpt>
      <trkpt lat="40.44792358763515949249267578125" lon="-1.722044907510280609130859375">
        <ele>1551.800048828125</ele>
        <time>2022-08-24T14:00:15.000Z</time>
      </trkpt>
      <trkpt lat="40.44774773530662059783935546875" lon="-1.7220608331263065338134765625">
        <ele>1551.4000244140625</ele>
        <time>2022-08-24T14:00:19.000Z</time>
      </trkpt>
      <trkpt lat="40.4475575499236583709716796875" lon="-1.72205588780343532562255859375">
        <ele>1551</ele>
        <time>2022-08-24T14:00:23.000Z</time>
      </trkpt>
      <trkpt lat="40.44715647585690021514892578125" lon="-1.7220625095069408416748046875">
        <ele>1550.800048828125</ele>
        <time>2022-08-24T14:00:31.000Z</time>
      </trkpt>
      <trkpt lat="40.44681348837912082672119140625" lon="-1.72205823473632335662841796875">
        <ele>1550.4000244140625</ele>
        <time>2022-08-24T14:00:38.000Z</time>
      </trkpt>
      <trkpt lat="40.44671357609331607818603515625" lon="-1.72205689363181591033935546875">
        <ele>1550.5999755859375</ele>
        <time>2022-08-24T14:00:40.000Z</time>
      </trkpt>
      <trkpt lat="40.44629506766796112060546875" lon="-1.72205521725118160247802734375">
        <ele>1550</ele>
        <time>2022-08-24T14:00:48.000Z</time>
      </trkpt>
      <trkpt lat="40.4461433552205562591552734375" lon="-1.72205991111695766448974609375">
        <ele>1549.4000244140625</ele>
        <time>2022-08-24T14:00:51.000Z</time>
      </trkpt>
      <trkpt lat="40.445952750742435455322265625" lon="-1.7220561392605304718017578125">
        <ele>1549</ele>
        <time>2022-08-24T14:00:56.000Z</time>
      </trkpt>
      <trkpt lat="40.4455138742923736572265625" lon="-1.722055971622467041015625">
        <ele>1548.800048828125</ele>
        <time>2022-08-24T14:01:06.000Z</time>
      </trkpt>
      <trkpt lat="40.445431731641292572021484375" lon="-1.722054295241832733154296875">
        <ele>1548.5999755859375</ele>
        <time>2022-08-24T14:01:08.000Z</time>
      </trkpt>
      <trkpt lat="40.44523182325065135955810546875" lon="-1.72206158749759197235107421875">
        <ele>1548.5999755859375</ele>
        <time>2022-08-24T14:01:13.000Z</time>
      </trkpt>
      <trkpt lat="40.44478171505033969879150390625" lon="-1.722063012421131134033203125">
        <ele>1548.800048828125</ele>
        <time>2022-08-24T14:01:23.000Z</time>
      </trkpt>
      <trkpt lat="40.444366224110126495361328125" lon="-1.7220534570515155792236328125">
        <ele>1549</ele>
        <time>2022-08-24T14:01:34.000Z</time>
      </trkpt>
      <trkpt lat="40.443996749818325042724609375" lon="-1.722115986049175262451171875">
        <ele>1549.4000244140625</ele>
        <time>2022-08-24T14:01:42.000Z</time>
      </trkpt>
      <trkpt lat="40.44378091581165790557861328125" lon="-1.7221513576805591583251953125">
        <ele>1550</ele>
        <time>2022-08-24T14:01:49.000Z</time>
      </trkpt>
      <trkpt lat="40.44356332160532474517822265625" lon="-1.7221480049192905426025390625">
        <ele>1550.5999755859375</ele>
        <time>2022-08-24T14:01:56.000Z</time>
      </trkpt>
      <trkpt lat="40.443293340504169464111328125" lon="-1.72214842401444911956787109375">
        <ele>1550.800048828125</ele>
        <time>2022-08-24T14:02:03.000Z</time>
      </trkpt>
      <trkpt lat="40.44306845404207706451416015625" lon="-1.72215261496603488922119140625">
        <ele>1551.199951171875</ele>
        <time>2022-08-24T14:02:11.000Z</time>
      </trkpt>
      <trkpt lat="40.4429739899933338165283203125" lon="-1.72215730883181095123291015625">
        <ele>1551.4000244140625</ele>
        <time>2022-08-24T14:02:13.000Z</time>
      </trkpt>
      <trkpt lat="40.44278212822973728179931640625" lon="-1.72217139042913913726806640625">
        <ele>1551.5999755859375</ele>
        <time>2022-08-24T14:02:19.000Z</time>
      </trkpt>
      <trkpt lat="40.4426876641809940338134765625" lon="-1.72217742539942264556884765625">
        <ele>1551.5999755859375</ele>
        <time>2022-08-24T14:02:23.000Z</time>
      </trkpt>
      <trkpt lat="40.4424124024808406829833984375" lon="-1.7221902497112751007080078125">
        <ele>1551.800048828125</ele>
        <time>2022-08-24T14:02:32.000Z</time>
      </trkpt>
      <trkpt lat="40.442137308418750762939453125" lon="-1.72218949533998966217041015625">
        <ele>1552.199951171875</ele>
        <time>2022-08-24T14:02:41.000Z</time>
      </trkpt>
      <trkpt lat="40.44177914969623088836669921875" lon="-1.72220793552696704864501953125">
        <ele>1552.4000244140625</ele>
        <time>2022-08-24T14:02:52.000Z</time>
      </trkpt>
      <trkpt lat="40.4414632357656955718994140625" lon="-1.722216904163360595703125">
        <ele>1552.5999755859375</ele>
        <time>2022-08-24T14:03:02.000Z</time>
      </trkpt>
      <trkpt lat="40.4411366768181324005126953125" lon="-1.7222324945032596588134765625">
        <ele>1552.5999755859375</ele>
        <time>2022-08-24T14:03:12.000Z</time>
      </trkpt>
      <trkpt lat="40.44094649143517017364501953125" lon="-1.7222345061600208282470703125">
        <ele>1552.800048828125</ele>
        <time>2022-08-24T14:03:18.000Z</time>
      </trkpt>
      <trkpt lat="40.4408241994678974151611328125" lon="-1.722238361835479736328125">
        <ele>1552.800048828125</ele>
        <time>2022-08-24T14:03:23.000Z</time>
      </trkpt>
      <trkpt lat="40.4404336027801036834716796875" lon="-1.72225252725183963775634765625">
        <ele>1553.199951171875</ele>
        <time>2022-08-24T14:03:35.000Z</time>
      </trkpt>
      <trkpt lat="40.4401010088622570037841796875" lon="-1.72226208262145519256591796875">
        <ele>1554.199951171875</ele>
        <time>2022-08-24T14:03:46.000Z</time>
      </trkpt>
      <trkpt lat="40.439847372472286224365234375" lon="-1.7222606576979160308837890625">
        <ele>1554.4000244140625</ele>
        <time>2022-08-24T14:03:55.000Z</time>
      </trkpt>
      <trkpt lat="40.4395940713584423065185546875" lon="-1.72226878814399242401123046875">
        <ele>1554.800048828125</ele>
        <time>2022-08-24T14:04:05.000Z</time>
      </trkpt>
      <trkpt lat="40.4392866231501102447509765625" lon="-1.72227867878973484039306640625">
        <ele>1555</ele>
        <time>2022-08-24T14:04:14.000Z</time>
      </trkpt>
      <trkpt lat="40.43925426900386810302734375" lon="-1.722277589142322540283203125">
        <ele>1555</ele>
        <time>2022-08-24T14:04:15.000Z</time>
      </trkpt>
      <trkpt lat="40.43905838392674922943115234375" lon="-1.72228504903614521026611328125">
        <ele>1555.199951171875</ele>
        <time>2022-08-24T14:04:23.000Z</time>
      </trkpt>
      <trkpt lat="40.43887934647500514984130859375" lon="-1.72229393385350704193115234375">
        <ele>1555.199951171875</ele>
        <time>2022-08-24T14:04:29.000Z</time>
      </trkpt>
      <trkpt lat="40.438761077821254730224609375" lon="-1.7223008908331394195556640625">
        <ele>1555.4000244140625</ele>
        <time>2022-08-24T14:04:33.000Z</time>
      </trkpt>
      <trkpt lat="40.43861615471541881561279296875" lon="-1.7223013937473297119140625">
        <ele>1555.4000244140625</ele>
        <time>2022-08-24T14:04:39.000Z</time>
      </trkpt>
      <trkpt lat="40.43826998211443424224853515625" lon="-1.72230097465217113494873046875">
        <ele>1555.5999755859375</ele>
        <time>2022-08-24T14:04:49.000Z</time>
      </trkpt>
      <trkpt lat="40.43792632408440113067626953125" lon="-1.72231539152562618255615234375">
        <ele>1554.4000244140625</ele>
        <time>2022-08-24T14:05:00.000Z</time>
      </trkpt>
      <trkpt lat="40.4376444406807422637939453125" lon="-1.7223240248858928680419921875">
        <ele>1554.4000244140625</ele>
        <time>2022-08-24T14:05:09.000Z</time>
      </trkpt>
      <trkpt lat="40.43736926279962062835693359375" lon="-1.72235478647053241729736328125">
        <ele>1554.4000244140625</ele>
        <time>2022-08-24T14:05:18.000Z</time>
      </trkpt>
      <trkpt lat="40.43728946708142757415771484375" lon="-1.7223850451409816741943359375">
        <ele>1554.5999755859375</ele>
        <time>2022-08-24T14:05:22.000Z</time>
      </trkpt>
      <trkpt lat="40.4372612200677394866943359375" lon="-1.72241605818271636962890625">
        <ele>1554.5999755859375</ele>
        <time>2022-08-24T14:05:25.000Z</time>
      </trkpt>
      <trkpt lat="40.43724068440496921539306640625" lon="-1.7224963568150997161865234375">
        <ele>1554.800048828125</ele>
        <time>2022-08-24T14:05:29.000Z</time>
      </trkpt>
      <trkpt lat="40.4372451268136501312255859375" lon="-1.72251957468688488006591796875">
        <ele>1554.800048828125</ele>
        <time>2022-08-24T14:05:30.000Z</time>
      </trkpt>
      <trkpt lat="40.4372907243669033050537109375" lon="-1.72273700125515460968017578125">
        <ele>1555.4000244140625</ele>
        <time>2022-08-24T14:05:40.000Z</time>
      </trkpt>
      <trkpt lat="40.4373081587255001068115234375" lon="-1.72282367013394832611083984375">
        <ele>1556</ele>
        <time>2022-08-24T14:05:44.000Z</time>
      </trkpt>
      <trkpt lat="40.43734495528042316436767578125" lon="-1.7229799926280975341796875">
        <ele>1556.5999755859375</ele>
        <time>2022-08-24T14:05:51.000Z</time>
      </trkpt>
      <trkpt lat="40.4373664967715740203857421875" lon="-1.72307345084846019744873046875">
        <ele>1557</ele>
        <time>2022-08-24T14:05:54.000Z</time>
      </trkpt>
      <trkpt lat="40.43739038519561290740966796875" lon="-1.7231883667409420013427734375">
        <ele>1557.4000244140625</ele>
        <time>2022-08-24T14:06:00.000Z</time>
      </trkpt>
      <trkpt lat="40.43742835521697998046875" lon="-1.72337226569652557373046875">
        <ele>1558</ele>
        <time>2022-08-24T14:06:08.000Z</time>
      </trkpt>
      <trkpt lat="40.43744377791881561279296875" lon="-1.723443679511547088623046875">
        <ele>1558.4000244140625</ele>
        <time>2022-08-24T14:06:11.000Z</time>
      </trkpt>
      <trkpt lat="40.437502451241016387939453125" lon="-1.72370351850986480712890625">
        <ele>1559.199951171875</ele>
        <time>2022-08-24T14:06:21.000Z</time>
      </trkpt>
      <trkpt lat="40.4375096596777439117431640625" lon="-1.72372438944876194000244140625">
        <ele>1559.4000244140625</ele>
        <time>2022-08-24T14:06:22.000Z</time>
      </trkpt>
      <trkpt lat="40.43752550147473812103271484375" lon="-1.72387978993356227874755859375">
        <ele>1560.4000244140625</ele>
        <time>2022-08-24T14:06:30.000Z</time>
      </trkpt>
      <trkpt lat="40.4375173710286617279052734375" lon="-1.72389688901603221893310546875">
        <ele>1560.4000244140625</ele>
        <time>2022-08-24T14:06:31.000Z</time>
      </trkpt>
      <trkpt lat="40.437469594180583953857421875" lon="-1.723941229283809661865234375">
        <ele>1560.5999755859375</ele>
        <time>2022-08-24T14:06:34.000Z</time>
      </trkpt>
      <trkpt lat="40.437437407672405242919921875" lon="-1.72394366003572940826416015625">
        <ele>1560.800048828125</ele>
        <time>2022-08-24T14:06:37.000Z</time>
      </trkpt>
      <trkpt lat="40.43739818036556243896484375" lon="-1.72392991371452808380126953125">
        <ele>1561.4000244140625</ele>
        <time>2022-08-24T14:06:40.000Z</time>
      </trkpt>
      <trkpt lat="40.43739357031881809234619140625" lon="-1.7239320091903209686279296875">
        <ele>1561.5999755859375</ele>
        <time>2022-08-24T14:06:42.000Z</time>
      </trkpt>
      <trkpt lat="40.43731813319027423858642578125" lon="-1.72386269085109233856201171875">
        <ele>1562</ele>
        <time>2022-08-24T14:08:11.000Z</time>
      </trkpt>
      <trkpt lat="40.43724906630814075469970703125" lon="-1.72384860925376415252685546875">
        <ele>1562.199951171875</ele>
        <time>2022-08-24T14:08:13.000Z</time>
      </trkpt>
      <trkpt lat="40.4370486550033092498779296875" lon="-1.72382287681102752685546875">
        <ele>1562.199951171875</ele>
        <time>2022-08-24T14:08:22.000Z</time>
      </trkpt>
      <trkpt lat="40.436800383031368255615234375" lon="-1.723750121891498565673828125">
        <ele>1562</ele>
        <time>2022-08-24T14:08:32.000Z</time>
      </trkpt>
      <trkpt lat="40.4365393705666065216064453125" lon="-1.72363621182739734649658203125">
        <ele>1562.199951171875</ele>
        <time>2022-08-24T14:08:41.000Z</time>
      </trkpt>
      <trkpt lat="40.43631096370518207550048828125" lon="-1.72347980551421642303466796875">
        <ele>1562.800048828125</ele>
        <time>2022-08-24T14:08:51.000Z</time>
      </trkpt>
      <trkpt lat="40.43626083992421627044677734375" lon="-1.7234428413212299346923828125">
        <ele>1563.199951171875</ele>
        <time>2022-08-24T14:08:53.000Z</time>
      </trkpt>
      <trkpt lat="40.436019860208034515380859375" lon="-1.72323279082775115966796875">
        <ele>1563.199951171875</ele>
        <time>2022-08-24T14:09:02.000Z</time>
      </trkpt>
      <trkpt lat="40.43577150441706180572509765625" lon="-1.72300279140472412109375">
        <ele>1563.4000244140625</ele>
        <time>2022-08-24T14:09:15.000Z</time>
      </trkpt>
      <trkpt lat="40.43554971925914287567138671875" lon="-1.7228396795690059661865234375">
        <ele>1564</ele>
        <time>2022-08-24T14:09:26.000Z</time>
      </trkpt>
      <trkpt lat="40.4354024492204189300537109375" lon="-1.72273448668420314788818359375">
        <ele>1564.4000244140625</ele>
        <time>2022-08-24T14:09:32.000Z</time>
      </trkpt>
      <trkpt lat="40.43532424606382846832275390625" lon="-1.7226626537740230560302734375">
        <ele>1564.5999755859375</ele>
        <time>2022-08-24T14:09:37.000Z</time>
      </trkpt>
      <trkpt lat="40.43515442870557308197021484375" lon="-1.7225352488458156585693359375">
        <ele>1565</ele>
        <time>2022-08-24T14:09:45.000Z</time>
      </trkpt>
      <trkpt lat="40.4349942505359649658203125" lon="-1.72240524552762508392333984375">
        <ele>1565.4000244140625</ele>
        <time>2022-08-24T14:09:53.000Z</time>
      </trkpt>
      <trkpt lat="40.4349540174007415771484375" lon="-1.72237356193363666534423828125">
        <ele>1565.5999755859375</ele>
        <time>2022-08-24T14:09:55.000Z</time>
      </trkpt>
      <trkpt lat="40.4347694478929042816162109375" lon="-1.72220961190760135650634765625">
        <ele>1566.4000244140625</ele>
        <time>2022-08-24T14:10:04.000Z</time>
      </trkpt>
      <trkpt lat="40.43474824167788028717041015625" lon="-1.72219066880643367767333984375">
        <ele>1566.5999755859375</ele>
        <time>2022-08-24T14:10:05.000Z</time>
      </trkpt>
      <trkpt lat="40.4345498420298099517822265625" lon="-1.72203090973198413848876953125">
        <ele>1567</ele>
        <time>2022-08-24T14:10:14.000Z</time>
      </trkpt>
      <trkpt lat="40.43432830832898616790771484375" lon="-1.7218177579343318939208984375">
        <ele>1567.4000244140625</ele>
        <time>2022-08-24T14:10:24.000Z</time>
      </trkpt>
      <trkpt lat="40.43422906659543514251708984375" lon="-1.7216705717146396636962890625">
        <ele>1567.5999755859375</ele>
        <time>2022-08-24T14:10:29.000Z</time>
      </trkpt>
      <trkpt lat="40.43416771106421947479248046875" lon="-1.7215465195477008819580078125">
        <ele>1568.199951171875</ele>
        <time>2022-08-24T14:10:32.000Z</time>
      </trkpt>
      <trkpt lat="40.4340662062168121337890625" lon="-1.7213138379156589508056640625">
        <ele>1568.5999755859375</ele>
        <time>2022-08-24T14:10:40.000Z</time>
      </trkpt>
      <trkpt lat="40.43395380489528179168701171875" lon="-1.7210623808205127716064453125">
        <ele>1568.800048828125</ele>
        <time>2022-08-24T14:10:50.000Z</time>
      </trkpt>
      <trkpt lat="40.43394341133534908294677734375" lon="-1.72103614546358585357666015625">
        <ele>1568.800048828125</ele>
        <time>2022-08-24T14:10:51.000Z</time>
      </trkpt>
      <trkpt lat="40.43386797420680522918701171875" lon="-1.72085710801184177398681640625">
        <ele>1569.199951171875</ele>
        <time>2022-08-24T14:10:59.000Z</time>
      </trkpt>
      <trkpt lat="40.4338055290281772613525390625" lon="-1.72071930952370166778564453125">
        <ele>1570</ele>
        <time>2022-08-24T14:11:06.000Z</time>
      </trkpt>
      <trkpt lat="40.43379790149629116058349609375" lon="-1.72069944441318511962890625">
        <ele>1570.199951171875</ele>
        <time>2022-08-24T14:11:07.000Z</time>
      </trkpt>
      <trkpt lat="40.4337535612285137176513671875" lon="-1.7205651663243770599365234375">
        <ele>1571.199951171875</ele>
        <time>2022-08-24T14:11:13.000Z</time>
      </trkpt>
      <trkpt lat="40.43374476023018360137939453125" lon="-1.7205420322716236114501953125">
        <ele>1571.4000244140625</ele>
        <time>2022-08-24T14:11:14.000Z</time>
      </trkpt>
      <trkpt lat="40.43371140025556087493896484375" lon="-1.7204712890088558197021484375">
        <ele>1572.4000244140625</ele>
        <time>2022-08-24T14:11:17.000Z</time>
      </trkpt>
      <trkpt lat="40.4337009228765964508056640625" lon="-1.7204488255083560943603515625">
        <ele>1572.5999755859375</ele>
        <time>2022-08-24T14:11:18.000Z</time>
      </trkpt>
      <trkpt lat="40.43366697616875171661376953125" lon="-1.72036391682922840118408203125">
        <ele>1573.199951171875</ele>
        <time>2022-08-24T14:11:22.000Z</time>
      </trkpt>
      <trkpt lat="40.4336459375917911529541015625" lon="-1.720318906009197235107421875">
        <ele>1573.5999755859375</ele>
        <time>2022-08-24T14:11:24.000Z</time>
      </trkpt>
      <trkpt lat="40.433581732213497161865234375" lon="-1.720173396170139312744140625">
        <ele>1574.199951171875</ele>
        <time>2022-08-24T14:11:30.000Z</time>
      </trkpt>
      <trkpt lat="40.4335148446261882781982421875" lon="-1.72005127184092998504638671875">
        <ele>1574.5999755859375</ele>
        <time>2022-08-24T14:11:35.000Z</time>
      </trkpt>
      <trkpt lat="40.43342851102352142333984375" lon="-1.71992705203592777252197265625">
        <ele>1575.199951171875</ele>
        <time>2022-08-24T14:11:40.000Z</time>
      </trkpt>
      <trkpt lat="40.43335818685591220855712890625" lon="-1.71984155662357807159423828125">
        <ele>1575.800048828125</ele>
        <time>2022-08-24T14:11:44.000Z</time>
      </trkpt>
      <trkpt lat="40.4333032853901386260986328125" lon="-1.71977316029369831085205078125">
        <ele>1575.800048828125</ele>
        <time>2022-08-24T14:11:48.000Z</time>
      </trkpt>
      <trkpt lat="40.433225333690643310546875" lon="-1.7196619324386119842529296875">
        <ele>1575.800048828125</ele>
        <time>2022-08-24T14:11:55.000Z</time>
      </trkpt>
      <trkpt lat="40.4331006109714508056640625" lon="-1.71942807734012603759765625">
        <ele>1576</ele>
        <time>2022-08-24T14:12:04.000Z</time>
      </trkpt>
      <trkpt lat="40.43298737145960330963134765625" lon="-1.71909816563129425048828125">
        <ele>1575.800048828125</ele>
        <time>2022-08-24T14:12:14.000Z</time>
      </trkpt>
      <trkpt lat="40.4329214058816432952880859375" lon="-1.7189253307878971099853515625">
        <ele>1575.4000244140625</ele>
        <time>2022-08-24T14:12:20.000Z</time>
      </trkpt>
      <trkpt lat="40.43285476975142955780029296875" lon="-1.71872693113982677459716796875">
        <ele>1575.4000244140625</ele>
        <time>2022-08-24T14:12:27.000Z</time>
      </trkpt>
      <trkpt lat="40.4328074119985103607177734375" lon="-1.718586869537830352783203125">
        <ele>1575.5999755859375</ele>
        <time>2022-08-24T14:12:32.000Z</time>
      </trkpt>
      <trkpt lat="40.432801209390163421630859375" lon="-1.718535907566547393798828125">
        <ele>1575.800048828125</ele>
        <time>2022-08-24T14:12:34.000Z</time>
      </trkpt>
      <trkpt lat="40.4327443800866603851318359375" lon="-1.718415878713130950927734375">
        <ele>1576.5999755859375</ele>
        <time>2022-08-24T14:12:40.000Z</time>
      </trkpt>
      <trkpt lat="40.43273784220218658447265625" lon="-1.71839333139359951019287109375">
        <ele>1577</ele>
        <time>2022-08-24T14:12:41.000Z</time>
      </trkpt>
      <trkpt lat="40.43268512003123760223388671875" lon="-1.7182883061468601226806640625">
        <ele>1577.800048828125</ele>
        <time>2022-08-24T14:12:46.000Z</time>
      </trkpt>
      <trkpt lat="40.4326702840626239776611328125" lon="-1.7182339914143085479736328125">
        <ele>1578</ele>
        <time>2022-08-24T14:12:48.000Z</time>
      </trkpt>
      <trkpt lat="40.43263013474643230438232421875" lon="-1.71807465143501758575439453125">
        <ele>1579.199951171875</ele>
        <time>2022-08-24T14:12:52.000Z</time>
      </trkpt>
      <trkpt lat="40.4326230101287364959716796875" lon="-1.718042381107807159423828125">
        <ele>1579.5999755859375</ele>
        <time>2022-08-24T14:12:53.000Z</time>
      </trkpt>
      <trkpt lat="40.43260666541755199432373046875" lon="-1.7179775051772594451904296875">
        <ele>1580.199951171875</ele>
        <time>2022-08-24T14:12:55.000Z</time>
      </trkpt>
      <trkpt lat="40.432506166398525238037109375" lon="-1.71780341304838657379150390625">
        <ele>1581</ele>
        <time>2022-08-24T14:13:01.000Z</time>
      </trkpt>
      <trkpt lat="40.4324667714536190032958984375" lon="-1.71774138696491718292236328125">
        <ele>1581.199951171875</ele>
        <time>2022-08-24T14:13:04.000Z</time>
      </trkpt>
      <trkpt lat="40.4324137978255748748779296875" lon="-1.7176772654056549072265625">
        <ele>1581.4000244140625</ele>
        <time>2022-08-24T14:13:07.000Z</time>
      </trkpt>
      <trkpt lat="40.43224456720054149627685546875" lon="-1.71751499176025390625">
        <ele>1581.800048828125</ele>
        <time>2022-08-24T14:13:14.000Z</time>
      </trkpt>
      <trkpt lat="40.43212152086198329925537109375" lon="-1.71734576113522052764892578125">
        <ele>1581.800048828125</ele>
        <time>2022-08-24T14:13:21.000Z</time>
      </trkpt>
      <trkpt lat="40.4319776035845279693603515625" lon="-1.7171010933816432952880859375">
        <ele>1581.800048828125</ele>
        <time>2022-08-24T14:13:28.000Z</time>
      </trkpt>
      <trkpt lat="40.43181675486266613006591796875" lon="-1.71678752638399600982666015625">
        <ele>1581.4000244140625</ele>
        <time>2022-08-24T14:13:37.000Z</time>
      </trkpt>
      <trkpt lat="40.431647188961505889892578125" lon="-1.71651788055896759033203125">
        <ele>1581.4000244140625</ele>
        <time>2022-08-24T14:13:46.000Z</time>
      </trkpt>
      <trkpt lat="40.43145465664565563201904296875" lon="-1.7163199000060558319091796875">
        <ele>1581.800048828125</ele>
        <time>2022-08-24T14:13:55.000Z</time>
      </trkpt>
      <trkpt lat="40.4313197918236255645751953125" lon="-1.71622962690889835357666015625">
        <ele>1582.4000244140625</ele>
        <time>2022-08-24T14:14:02.000Z</time>
      </trkpt>
      <trkpt lat="40.43130160309374332427978515625" lon="-1.71622124500572681427001953125">
        <ele>1582.5999755859375</ele>
        <time>2022-08-24T14:14:03.000Z</time>
      </trkpt>
      <trkpt lat="40.4311729408800601959228515625" lon="-1.7161297984421253204345703125">
        <ele>1583.199951171875</ele>
        <time>2022-08-24T14:14:11.000Z</time>
      </trkpt>
      <trkpt lat="40.431110747158527374267578125" lon="-1.71606215648353099822998046875">
        <ele>1583.5999755859375</ele>
        <time>2022-08-24T14:14:15.000Z</time>
      </trkpt>
      <trkpt lat="40.43104075826704502105712890625" lon="-1.7159893177449703216552734375">
        <ele>1584.4000244140625</ele>
        <time>2022-08-24T14:14:20.000Z</time>
      </trkpt>
      <trkpt lat="40.43101410381495952606201171875" lon="-1.71595922671258449554443359375">
        <ele>1584.800048828125</ele>
        <time>2022-08-24T14:14:22.000Z</time>
      </trkpt>
      <trkpt lat="40.43091251514852046966552734375" lon="-1.715843975543975830078125">
        <ele>1586</ele>
        <time>2022-08-24T14:14:29.000Z</time>
      </trkpt>
      <trkpt lat="40.43088451959192752838134765625" lon="-1.71581019647419452667236328125">
        <ele>1586.4000244140625</ele>
        <time>2022-08-24T14:14:31.000Z</time>
      </trkpt>
      <trkpt lat="40.43085761368274688720703125" lon="-1.7157784290611743927001953125">
        <ele>1587</ele>
        <time>2022-08-24T14:14:34.000Z</time>
      </trkpt>
      <trkpt lat="40.4307374171912670135498046875" lon="-1.7156656086444854736328125">
        <ele>1588.199951171875</ele>
        <time>2022-08-24T14:14:41.000Z</time>
      </trkpt>
      <trkpt lat="40.4307374171912670135498046875" lon="-1.7156656086444854736328125">
        <ele>1588.199951171875</ele>
        <time>2022-08-24T14:14:42.000Z</time>
      </trkpt>
      <trkpt lat="40.430643372237682342529296875" lon="-1.71562059782445430755615234375">
        <ele>1589.199951171875</ele>
        <time>2022-08-24T14:14:47.000Z</time>
      </trkpt>
      <trkpt lat="40.430607497692108154296875" lon="-1.71561070717871189117431640625">
        <ele>1589.800048828125</ele>
        <time>2022-08-24T14:14:50.000Z</time>
      </trkpt>
      <trkpt lat="40.43044664897024631500244140625" lon="-1.7155571468174457550048828125">
        <ele>1590.199951171875</ele>
        <time>2022-08-24T14:14:58.000Z</time>
      </trkpt>
      <trkpt lat="40.4303969442844390869140625" lon="-1.71553677879273891448974609375">
        <ele>1590.4000244140625</ele>
        <time>2022-08-24T14:15:01.000Z</time>
      </trkpt>
      <trkpt lat="40.43027423322200775146484375" lon="-1.71546905301511287689208984375">
        <ele>1591</ele>
        <time>2022-08-24T14:15:10.000Z</time>
      </trkpt>
      <trkpt lat="40.430206842720508575439453125" lon="-1.71545363031327724456787109375">
        <ele>1591.5999755859375</ele>
        <time>2022-08-24T14:15:15.000Z</time>
      </trkpt>
      <trkpt lat="40.43018245138227939605712890625" lon="-1.7154398001730442047119140625">
        <ele>1591.800048828125</ele>
        <time>2022-08-24T14:15:17.000Z</time>
      </trkpt>
      <trkpt lat="40.4301288910210132598876953125" lon="-1.71543401665985584259033203125">
        <ele>1592.5999755859375</ele>
        <time>2022-08-24T14:15:21.000Z</time>
      </trkpt>
      <trkpt lat="40.43007348664104938507080078125" lon="-1.71542127616703510284423828125">
        <ele>1593.4000244140625</ele>
        <time>2022-08-24T14:15:25.000Z</time>
      </trkpt>
      <trkpt lat="40.4300454072654247283935546875" lon="-1.7154196836054325103759765625">
        <ele>1593.800048828125</ele>
        <time>2022-08-24T14:15:27.000Z</time>
      </trkpt>
      <trkpt lat="40.429952703416347503662109375" lon="-1.71539110131561756134033203125">
        <ele>1594.800048828125</ele>
        <time>2022-08-24T14:15:34.000Z</time>
      </trkpt>
      <trkpt lat="40.42994105257093906402587890625" lon="-1.71538271941244602203369140625">
        <ele>1594.800048828125</ele>
        <time>2022-08-24T14:15:35.000Z</time>
      </trkpt>
      <trkpt lat="40.42988640256226062774658203125" lon="-1.71533410437405109405517578125">
        <ele>1596</ele>
        <time>2022-08-24T14:15:41.000Z</time>
      </trkpt>
      <trkpt lat="40.42986092157661914825439453125" lon="-1.715316586196422576904296875">
        <ele>1596.5999755859375</ele>
        <time>2022-08-24T14:15:43.000Z</time>
      </trkpt>
      <trkpt lat="40.42980778031051158905029296875" lon="-1.71527693979442119598388671875">
        <ele>1597.199951171875</ele>
        <time>2022-08-24T14:15:48.000Z</time>
      </trkpt>
      <trkpt lat="40.4297587461769580841064453125" lon="-1.71525615267455577850341796875">
        <ele>1597.5999755859375</ele>
        <time>2022-08-24T14:15:52.000Z</time>
      </trkpt>
      <trkpt lat="40.429711639881134033203125" lon="-1.71524357981979846954345703125">
        <ele>1598.4000244140625</ele>
        <time>2022-08-24T14:15:56.000Z</time>
      </trkpt>
      <trkpt lat="40.429677106440067291259765625" lon="-1.715226732194423675537109375">
        <ele>1599</ele>
        <time>2022-08-24T14:15:59.000Z</time>
      </trkpt>
      <trkpt lat="40.42965254746377468109130859375" lon="-1.71521374024450778961181640625">
        <ele>1599.4000244140625</ele>
        <time>2022-08-24T14:16:01.000Z</time>
      </trkpt>
      <trkpt lat="40.42962740175426006317138671875" lon="-1.7152041010558605194091796875">
        <ele>1599.5999755859375</ele>
        <time>2022-08-24T14:16:03.000Z</time>
      </trkpt>
      <trkpt lat="40.42952463962137699127197265625" lon="-1.7151699028909206390380859375">
        <ele>1600.4000244140625</ele>
        <time>2022-08-24T14:16:10.000Z</time>
      </trkpt>
      <trkpt lat="40.42951005510985851287841796875" lon="-1.7151667177677154541015625">
        <ele>1600.5999755859375</ele>
        <time>2022-08-24T14:16:11.000Z</time>
      </trkpt>
      <trkpt lat="40.42942238040268421173095703125" lon="-1.71515255235135555267333984375">
        <ele>1601.800048828125</ele>
        <time>2022-08-24T14:16:18.000Z</time>
      </trkpt>
      <trkpt lat="40.42936102487146854400634765625" lon="-1.71513662673532962799072265625">
        <ele>1602.199951171875</ele>
        <time>2022-08-24T14:16:22.000Z</time>
      </trkpt>
      <trkpt lat="40.42930955998599529266357421875" lon="-1.7151172645390033721923828125">
        <ele>1602.800048828125</ele>
        <time>2022-08-24T14:16:25.000Z</time>
      </trkpt>
      <trkpt lat="40.4291703365743160247802734375" lon="-1.71508013270795345306396484375">
        <ele>1604</ele>
        <time>2022-08-24T14:16:32.000Z</time>
      </trkpt>
      <trkpt lat="40.4290073923766613006591796875" lon="-1.71498441137373447418212890625">
        <ele>1604.5999755859375</ele>
        <time>2022-08-24T14:16:39.000Z</time>
      </trkpt>
      <trkpt lat="40.4287760518491268157958984375" lon="-1.71488114632666110992431640625">
        <ele>1604.5999755859375</ele>
        <time>2022-08-24T14:16:44.000Z</time>
      </trkpt>
      <trkpt lat="40.42846214957535266876220703125" lon="-1.7147147655487060546875">
        <ele>1604</ele>
        <time>2022-08-24T14:16:49.000Z</time>
      </trkpt>
      <trkpt lat="40.4282728023827075958251953125" lon="-1.7145687527954578399658203125">
        <ele>1603.199951171875</ele>
        <time>2022-08-24T14:16:53.000Z</time>
      </trkpt>
      <trkpt lat="40.42823952622711658477783203125" lon="-1.71453413553535938262939453125">
        <ele>1602.5999755859375</ele>
        <time>2022-08-24T14:16:54.000Z</time>
      </trkpt>
      <trkpt lat="40.428202562034130096435546875" lon="-1.71450220048427581787109375">
        <ele>1602.4000244140625</ele>
        <time>2022-08-24T14:16:55.000Z</time>
      </trkpt>
      <trkpt lat="40.42811798863112926483154296875" lon="-1.71443070285022258758544921875">
        <ele>1601.4000244140625</ele>
        <time>2022-08-24T14:16:57.000Z</time>
      </trkpt>
      <trkpt lat="40.4279703833162784576416015625" lon="-1.7142911441624164581298828125">
        <ele>1600</ele>
        <time>2022-08-24T14:17:00.000Z</time>
      </trkpt>
      <trkpt lat="40.42786896228790283203125" lon="-1.71419852413237094879150390625">
        <ele>1599.199951171875</ele>
        <time>2022-08-24T14:17:02.000Z</time>
      </trkpt>
      <trkpt lat="40.42782805860042572021484375" lon="-1.71416223049163818359375">
        <ele>1599</ele>
        <time>2022-08-24T14:17:03.000Z</time>
      </trkpt>
      <trkpt lat="40.4277387075126171112060546875" lon="-1.7140933312475681304931640625">
        <ele>1597.5999755859375</ele>
        <time>2022-08-24T14:17:06.000Z</time>
      </trkpt>
      <trkpt lat="40.42766352184116840362548828125" lon="-1.71394790522754192352294921875">
        <ele>1596.5999755859375</ele>
        <time>2022-08-24T14:17:10.000Z</time>
      </trkpt>
      <trkpt lat="40.42765497229993343353271484375" lon="-1.71389560215175151824951171875">
        <ele>1596.4000244140625</ele>
        <time>2022-08-24T14:17:11.000Z</time>
      </trkpt>
      <trkpt lat="40.427574925124645233154296875" lon="-1.7136658541858196258544921875">
        <ele>1595.5999755859375</ele>
        <time>2022-08-24T14:17:16.000Z</time>
      </trkpt>
      <trkpt lat="40.42745062150061130523681640625" lon="-1.71360894106328487396240234375">
        <ele>1595.4000244140625</ele>
        <time>2022-08-24T14:17:19.000Z</time>
      </trkpt>
      <trkpt lat="40.42721777223050594329833984375" lon="-1.7135243676602840423583984375">
        <ele>1595.4000244140625</ele>
        <time>2022-08-24T14:17:25.000Z</time>
      </trkpt>
      <trkpt lat="40.42702264152467250823974609375" lon="-1.71339050866663455963134765625">
        <ele>1594.5999755859375</ele>
        <time>2022-08-24T14:17:30.000Z</time>
      </trkpt>
      <trkpt lat="40.4269491322338581085205078125" lon="-1.7133584059774875640869140625">
        <ele>1593.5999755859375</ele>
        <time>2022-08-24T14:17:33.000Z</time>
      </trkpt>
      <trkpt lat="40.42691350914537906646728515625" lon="-1.7133480124175548553466796875">
        <ele>1593.4000244140625</ele>
        <time>2022-08-24T14:17:34.000Z</time>
      </trkpt>
      <trkpt lat="40.42676389217376708984375" lon="-1.7132789455354213714599609375">
        <ele>1592.4000244140625</ele>
        <time>2022-08-24T14:17:39.000Z</time>
      </trkpt>
      <trkpt lat="40.42674084194004535675048828125" lon="-1.71313762664794921875">
        <ele>1591.5999755859375</ele>
        <time>2022-08-24T14:17:43.000Z</time>
      </trkpt>
      <trkpt lat="40.42673950083553791046142578125" lon="-1.71309269964694976806640625">
        <ele>1591.4000244140625</ele>
        <time>2022-08-24T14:17:44.000Z</time>
      </trkpt>
      <trkpt lat="40.42674017138779163360595703125" lon="-1.71304634772241115570068359375">
        <ele>1591.199951171875</ele>
        <time>2022-08-24T14:17:45.000Z</time>
      </trkpt>
      <trkpt lat="40.4267303645610809326171875" lon="-1.7129326052963733673095703125">
        <ele>1590</ele>
        <time>2022-08-24T14:17:48.000Z</time>
      </trkpt>
      <trkpt lat="40.4266953282058238983154296875" lon="-1.71273923479020595550537109375">
        <ele>1589.199951171875</ele>
        <time>2022-08-24T14:17:53.000Z</time>
      </trkpt>
      <trkpt lat="40.42668602429330348968505859375" lon="-1.712708808481693267822265625">
        <ele>1589</ele>
        <time>2022-08-24T14:17:54.000Z</time>
      </trkpt>
      <trkpt lat="40.42665082029998302459716796875" lon="-1.7126120813190937042236328125">
        <ele>1587.800048828125</ele>
        <time>2022-08-24T14:17:58.000Z</time>
      </trkpt>
      <trkpt lat="40.42654152028262615203857421875" lon="-1.71244234777987003326416015625">
        <ele>1587</ele>
        <time>2022-08-24T14:19:33.000Z</time>
      </trkpt>
      <trkpt lat="40.42652048170566558837890625" lon="-1.71236389316618442535400390625">
        <ele>1587</ele>
        <time>2022-08-24T14:19:36.000Z</time>
      </trkpt>
      <trkpt lat="40.42649458162486553192138671875" lon="-1.71228342689573764801025390625">
        <ele>1587</ele>
        <time>2022-08-24T14:19:39.000Z</time>
      </trkpt>
      <trkpt lat="40.42643959634006023406982421875" lon="-1.71214185655117034912109375">
        <ele>1586.5999755859375</ele>
        <time>2022-08-24T14:19:45.000Z</time>
      </trkpt>
      <trkpt lat="40.42634873650968074798583984375" lon="-1.71195921488106250762939453125">
        <ele>1586</ele>
        <time>2022-08-24T14:19:53.000Z</time>
      </trkpt>
      <trkpt lat="40.4263285361230373382568359375" lon="-1.71194764785468578338623046875">
        <ele>1585.800048828125</ele>
        <time>2022-08-24T14:19:54.000Z</time>
      </trkpt>
      <trkpt lat="40.4262282885611057281494140625" lon="-1.7119078338146209716796875">
        <ele>1585.5999755859375</ele>
        <time>2022-08-24T14:19:58.000Z</time>
      </trkpt>
      <trkpt lat="40.4260893166065216064453125" lon="-1.71195837669074535369873046875">
        <ele>1585.199951171875</ele>
        <time>2022-08-24T14:20:01.000Z</time>
      </trkpt>
      <trkpt lat="40.42600424028933048248291015625" lon="-1.712003387510776519775390625">
        <ele>1584.800048828125</ele>
        <time>2022-08-24T14:20:03.000Z</time>
      </trkpt>
      <trkpt lat="40.42590818367898464202880859375" lon="-1.712013445794582366943359375">
        <ele>1584.4000244140625</ele>
        <time>2022-08-24T14:20:05.000Z</time>
      </trkpt>
      <trkpt lat="40.4257806949317455291748046875" lon="-1.71198452822864055633544921875">
        <ele>1583.800048828125</ele>
        <time>2022-08-24T14:20:08.000Z</time>
      </trkpt>
      <trkpt lat="40.425720848143100738525390625" lon="-1.71196860261261463165283203125">
        <ele>1583.4000244140625</ele>
        <time>2022-08-24T14:20:10.000Z</time>
      </trkpt>
      <trkpt lat="40.4255636036396026611328125" lon="-1.71193188987672328948974609375">
        <ele>1583.4000244140625</ele>
        <time>2022-08-24T14:20:16.000Z</time>
      </trkpt>
      <trkpt lat="40.42546897195279598236083984375" lon="-1.71188193373382091522216796875">
        <ele>1583.5999755859375</ele>
        <time>2022-08-24T14:20:21.000Z</time>
      </trkpt>
      <trkpt lat="40.42536252178251743316650390625" lon="-1.711819656193256378173828125">
        <ele>1583.800048828125</ele>
        <time>2022-08-24T14:20:26.000Z</time>
      </trkpt>
      <trkpt lat="40.425345003604888916015625" lon="-1.71180884353816509246826171875">
        <ele>1583.800048828125</ele>
        <time>2022-08-24T14:20:27.000Z</time>
      </trkpt>
      <trkpt lat="40.42523712851107120513916015625" lon="-1.711725778877735137939453125">
        <ele>1584.800048828125</ele>
        <time>2022-08-24T14:20:33.000Z</time>
      </trkpt>
      <trkpt lat="40.4251983202993869781494140625" lon="-1.7116904072463512420654296875">
        <ele>1585</ele>
        <time>2022-08-24T14:20:35.000Z</time>
      </trkpt>
      <trkpt lat="40.42508809827268123626708984375" lon="-1.71158974058926105499267578125">
        <ele>1585.800048828125</ele>
        <time>2022-08-24T14:20:41.000Z</time>
      </trkpt>
      <trkpt lat="40.42507150210440158843994140625" lon="-1.71157012693583965301513671875">
        <ele>1586</ele>
        <time>2022-08-24T14:20:42.000Z</time>
      </trkpt>
      <trkpt lat="40.424970500171184539794921875" lon="-1.711436100304126739501953125">
        <ele>1586.5999755859375</ele>
        <time>2022-08-24T14:20:49.000Z</time>
      </trkpt>
      <trkpt lat="40.424922890961170196533203125" lon="-1.71140198595821857452392578125">
        <ele>1587</ele>
        <time>2022-08-24T14:20:52.000Z</time>
      </trkpt>
      <trkpt lat="40.424855165183544158935546875" lon="-1.71135303564369678497314453125">
        <ele>1587.5999755859375</ele>
        <time>2022-08-24T14:20:56.000Z</time>
      </trkpt>
      <trkpt lat="40.42481602169573307037353515625" lon="-1.71130676753818988800048828125">
        <ele>1588</ele>
        <time>2022-08-24T14:20:59.000Z</time>
      </trkpt>
      <trkpt lat="40.42475684545934200286865234375" lon="-1.7112441547214984893798828125">
        <ele>1589</ele>
        <time>2022-08-24T14:21:03.000Z</time>
      </trkpt>
      <trkpt lat="40.42470437474548816680908203125" lon="-1.71119411475956439971923828125">
        <ele>1590.199951171875</ele>
        <time>2022-08-24T14:21:07.000Z</time>
      </trkpt>
      <trkpt lat="40.42468576692044734954833984375" lon="-1.71116863377392292022705078125">
        <ele>1590.800048828125</ele>
        <time>2022-08-24T14:21:09.000Z</time>
      </trkpt>
      <trkpt lat="40.42464427649974822998046875" lon="-1.7111509479582309722900390625">
        <ele>1591.199951171875</ele>
        <time>2022-08-24T14:21:11.000Z</time>
      </trkpt>
      <trkpt lat="40.42457311414182186126708984375" lon="-1.71110945753753185272216796875">
        <ele>1592</ele>
        <time>2022-08-24T14:21:15.000Z</time>
      </trkpt>
      <trkpt lat="40.42453925125300884246826171875" lon="-1.7110781930387020111083984375">
        <ele>1592.199951171875</ele>
        <time>2022-08-24T14:21:17.000Z</time>
      </trkpt>
      <trkpt lat="40.4244798235595226287841796875" lon="-1.71098037622869014739990234375">
        <ele>1592.800048828125</ele>
        <time>2022-08-24T14:21:22.000Z</time>
      </trkpt>
      <trkpt lat="40.4244198091328144073486328125" lon="-1.710835285484790802001953125">
        <ele>1593.199951171875</ele>
        <time>2022-08-24T14:21:29.000Z</time>
      </trkpt>
      <trkpt lat="40.42441955767571926116943359375" lon="-1.71082112006843090057373046875">
        <ele>1593.199951171875</ele>
        <time>2022-08-24T14:21:30.000Z</time>
      </trkpt>
      <trkpt lat="40.42441838420927524566650390625" lon="-1.71081173233687877655029296875">
        <ele>1593.199951171875</ele>
        <time>2022-08-24T14:21:32.000Z</time>
      </trkpt>
      <trkpt lat="40.424237586557865142822265625" lon="-1.71124876476824283599853515625">
        <ele>1588</ele>
        <time>2022-08-25T06:51:01.000Z</time>
      </trkpt>
      <trkpt lat="40.42409283109009265899658203125" lon="-1.7114652693271636962890625">
        <ele>1588</ele>
        <time>2022-08-25T06:51:07.000Z</time>
      </trkpt>
      <trkpt lat="40.42395838536322116851806640625" lon="-1.71163198538124561309814453125">
        <ele>1587.5999755859375</ele>
        <time>2022-08-25T06:51:13.000Z</time>
      </trkpt>
      <trkpt lat="40.4239467345178127288818359375" lon="-1.71164321713149547576904296875">
        <ele>1587.199951171875</ele>
        <time>2022-08-25T06:51:16.000Z</time>
      </trkpt>
      <trkpt lat="40.4239381849765777587890625" lon="-1.711687557399272918701171875">
        <ele>1587.5999755859375</ele>
        <time>2022-08-25T06:52:26.000Z</time>
      </trkpt>
      <trkpt lat="40.42385227046906948089599609375" lon="-1.71176626347005367279052734375">
        <ele>1587.4000244140625</ele>
        <time>2022-08-25T06:52:32.000Z</time>
      </trkpt>
      <trkpt lat="40.423715896904468536376953125" lon="-1.71189777553081512451171875">
        <ele>1587.4000244140625</ele>
        <time>2022-08-25T06:52:39.000Z</time>
      </trkpt>
      <trkpt lat="40.4235628433525562286376953125" lon="-1.7120540142059326171875">
        <ele>1587.4000244140625</ele>
        <time>2022-08-25T06:52:46.000Z</time>
      </trkpt>
      <trkpt lat="40.423376597464084625244140625" lon="-1.71216608025133609771728515625">
        <ele>1587.199951171875</ele>
        <time>2022-08-25T06:52:53.000Z</time>
      </trkpt>
      <trkpt lat="40.423248521983623504638671875" lon="-1.71215954236686229705810546875">
        <ele>1587.5999755859375</ele>
        <time>2022-08-25T06:52:59.000Z</time>
      </trkpt>
      <trkpt lat="40.423061437904834747314453125" lon="-1.7121209017932415008544921875">
        <ele>1587.800048828125</ele>
        <time>2022-08-25T06:53:06.000Z</time>
      </trkpt>
      <trkpt lat="40.4229110665619373321533203125" lon="-1.71209315769374370574951171875">
        <ele>1587.800048828125</ele>
        <time>2022-08-25T06:53:11.000Z</time>
      </trkpt>
      <trkpt lat="40.42285851202905178070068359375" lon="-1.7120793275535106658935546875">
        <ele>1587.800048828125</ele>
        <time>2022-08-25T06:53:13.000Z</time>
      </trkpt>
      <trkpt lat="40.42281827889382839202880859375" lon="-1.7120540142059326171875">
        <ele>1588</ele>
        <time>2022-08-25T06:53:17.000Z</time>
      </trkpt>
      <trkpt lat="40.422765724360942840576171875" lon="-1.7120109312236309051513671875">
        <ele>1587.800048828125</ele>
        <time>2022-08-25T06:55:21.000Z</time>
      </trkpt>
      <trkpt lat="40.4227213002741336822509765625" lon="-1.711988635361194610595703125">
        <ele>1588</ele>
        <time>2022-08-25T06:55:23.000Z</time>
      </trkpt>
      <trkpt lat="40.4226250760257244110107421875" lon="-1.7119499109685420989990234375">
        <ele>1588</ele>
        <time>2022-08-25T06:55:26.000Z</time>
      </trkpt>
      <trkpt lat="40.42254804633557796478271484375" lon="-1.71192669309675693511962890625">
        <ele>1587.800048828125</ele>
        <time>2022-08-25T06:55:28.000Z</time>
      </trkpt>
      <trkpt lat="40.422271527349948883056640625" lon="-1.71179442666471004486083984375">
        <ele>1588</ele>
        <time>2022-08-25T06:55:34.000Z</time>
      </trkpt>
      <trkpt lat="40.4217942617833614349365234375" lon="-1.71153710223734378814697265625">
        <ele>1587.5999755859375</ele>
        <time>2022-08-25T06:55:43.000Z</time>
      </trkpt>
      <trkpt lat="40.421579182147979736328125" lon="-1.7113899998366832733154296875">
        <ele>1586.800048828125</ele>
        <time>2022-08-25T06:55:47.000Z</time>
      </trkpt>
      <trkpt lat="40.4213530384004116058349609375" lon="-1.71121741645038127899169921875">
        <ele>1585.5999755859375</ele>
        <time>2022-08-25T06:55:51.000Z</time>
      </trkpt>
      <trkpt lat="40.42113100178539752960205078125" lon="-1.7110429890453815460205078125">
        <ele>1584.5999755859375</ele>
        <time>2022-08-25T06:55:55.000Z</time>
      </trkpt>
      <trkpt lat="40.42087803594768047332763671875" lon="-1.71083486638963222503662109375">
        <ele>1583.800048828125</ele>
        <time>2022-08-25T06:56:00.000Z</time>
      </trkpt>
      <trkpt lat="40.42082975618541240692138671875" lon="-1.71079463325440883636474609375">
        <ele>1583.199951171875</ele>
        <time>2022-08-25T06:56:01.000Z</time>
      </trkpt>
      <trkpt lat="40.42057209648191928863525390625" lon="-1.71057737432420253753662109375">
        <ele>1582.800048828125</ele>
        <time>2022-08-25T06:56:07.000Z</time>
      </trkpt>
      <trkpt lat="40.420201532542705535888671875" lon="-1.71029557473957538604736328125">
        <ele>1582.5999755859375</ele>
        <time>2022-08-25T06:56:16.000Z</time>
      </trkpt>
      <trkpt lat="40.4198617301881313323974609375" lon="-1.71004545874893665313720703125">
        <ele>1582.5999755859375</ele>
        <time>2022-08-25T06:56:24.000Z</time>
      </trkpt>
      <trkpt lat="40.4198194853961467742919921875" lon="-1.71001494862139225006103515625">
        <ele>1582.5999755859375</ele>
        <time>2022-08-25T06:56:25.000Z</time>
      </trkpt>
      <trkpt lat="40.41963181458413600921630859375" lon="-1.70984588563442230224609375">
        <ele>1582.800048828125</ele>
        <time>2022-08-25T06:56:30.000Z</time>
      </trkpt>
      <trkpt lat="40.419311039149761199951171875" lon="-1.7095979489386081695556640625">
        <ele>1582.800048828125</ele>
        <time>2022-08-25T06:56:39.000Z</time>
      </trkpt>
      <trkpt lat="40.41911431588232517242431640625" lon="-1.70944849960505962371826171875">
        <ele>1583.199951171875</ele>
        <time>2022-08-25T06:56:46.000Z</time>
      </trkpt>
      <trkpt lat="40.41898037306964397430419921875" lon="-1.7093431390821933746337890625">
        <ele>1584</ele>
        <time>2022-08-25T06:56:51.000Z</time>
      </trkpt>
      <trkpt lat="40.41889387182891368865966796875" lon="-1.7092821188271045684814453125">
        <ele>1584.4000244140625</ele>
        <time>2022-08-25T06:56:54.000Z</time>
      </trkpt>
      <trkpt lat="40.41877049021422863006591796875" lon="-1.7092336714267730712890625">
        <ele>1585.199951171875</ele>
        <time>2022-08-25T06:56:58.000Z</time>
      </trkpt>
      <trkpt lat="40.418669320642948150634765625" lon="-1.709213219583034515380859375">
        <ele>1585.800048828125</ele>
        <time>2022-08-25T06:57:01.000Z</time>
      </trkpt>
      <trkpt lat="40.418436639010906219482421875" lon="-1.70915161259472370147705078125">
        <ele>1586</ele>
        <time>2022-08-25T06:57:07.000Z</time>
      </trkpt>
      <trkpt lat="40.41838877834379673004150390625" lon="-1.70913987793028354644775390625">
        <ele>1586</ele>
        <time>2022-08-25T06:57:08.000Z</time>
      </trkpt>
      <trkpt lat="40.4182438552379608154296875" lon="-1.7090970464050769805908203125">
        <ele>1586</ele>
        <time>2022-08-25T06:57:11.000Z</time>
      </trkpt>
      <trkpt lat="40.41811787523329257965087890625" lon="-1.70904834754765033721923828125">
        <ele>1586</ele>
        <time>2022-08-25T06:57:14.000Z</time>
      </trkpt>
      <trkpt lat="40.4178326390683650970458984375" lon="-1.70894038863480091094970703125">
        <ele>1585.800048828125</ele>
        <time>2022-08-25T06:57:22.000Z</time>
      </trkpt>
      <trkpt lat="40.417549498379230499267578125" lon="-1.70881734229624271392822265625">
        <ele>1586.199951171875</ele>
        <time>2022-08-25T06:57:30.000Z</time>
      </trkpt>
      <trkpt lat="40.41730172932147979736328125" lon="-1.70878834091126918792724609375">
        <ele>1586.800048828125</ele>
        <time>2022-08-25T06:57:36.000Z</time>
      </trkpt>
      <trkpt lat="40.41699872352182865142822265625" lon="-1.7087852396070957183837890625">
        <ele>1587</ele>
        <time>2022-08-25T06:57:42.000Z</time>
      </trkpt>
      <trkpt lat="40.41667685844004154205322265625" lon="-1.708702929317951202392578125">
        <ele>1586</ele>
        <time>2022-08-25T06:57:48.000Z</time>
      </trkpt>
      <trkpt lat="40.41652548126876354217529296875" lon="-1.7086246423423290252685546875">
        <ele>1585.5999755859375</ele>
        <time>2022-08-25T06:57:51.000Z</time>
      </trkpt>
      <trkpt lat="40.4162702523171901702880859375" lon="-1.70845516026020050048828125">
        <ele>1584.5999755859375</ele>
        <time>2022-08-25T06:57:56.000Z</time>
      </trkpt>
      <trkpt lat="40.41579701006412506103515625" lon="-1.708159111440181732177734375">
        <ele>1583.199951171875</ele>
        <time>2022-08-25T06:58:05.000Z</time>
      </trkpt>
      <trkpt lat="40.4157428629696369171142578125" lon="-1.708127595484256744384765625">
        <ele>1583</ele>
        <time>2022-08-25T06:58:06.000Z</time>
      </trkpt>
      <trkpt lat="40.41546332649886608123779296875" lon="-1.707970015704631805419921875">
        <ele>1582.4000244140625</ele>
        <time>2022-08-25T06:58:12.000Z</time>
      </trkpt>
      <trkpt lat="40.415167696774005889892578125" lon="-1.707809753715991973876953125">
        <ele>1582.4000244140625</ele>
        <time>2022-08-25T06:58:20.000Z</time>
      </trkpt>
      <trkpt lat="40.41482982225716114044189453125" lon="-1.707630716264247894287109375">
        <ele>1582.800048828125</ele>
        <time>2022-08-25T06:58:28.000Z</time>
      </trkpt>
      <trkpt lat="40.41447468101978302001953125" lon="-1.70743315480649471282958984375">
        <ele>1582.5999755859375</ele>
        <time>2022-08-25T06:58:36.000Z</time>
      </trkpt>
      <trkpt lat="40.41410177014768123626708984375" lon="-1.70724187977612018585205078125">
        <ele>1582.199951171875</ele>
        <time>2022-08-25T06:58:44.000Z</time>
      </trkpt>
      <trkpt lat="40.4140569269657135009765625" lon="-1.7072171531617641448974609375">
        <ele>1582.199951171875</ele>
        <time>2022-08-25T06:58:45.000Z</time>
      </trkpt>
      <trkpt lat="40.4137892089784145355224609375" lon="-1.7070691287517547607421875">
        <ele>1582.199951171875</ele>
        <time>2022-08-25T06:58:51.000Z</time>
      </trkpt>
      <trkpt lat="40.4135097563266754150390625" lon="-1.7069026641547679901123046875">
        <ele>1582.4000244140625</ele>
        <time>2022-08-25T06:58:58.000Z</time>
      </trkpt>
      <trkpt lat="40.4132601432502269744873046875" lon="-1.70673586428165435791015625">
        <ele>1582.5999755859375</ele>
        <time>2022-08-25T06:59:04.000Z</time>
      </trkpt>
      <trkpt lat="40.4131555370986461639404296875" lon="-1.7066669650375843048095703125">
        <ele>1582.5999755859375</ele>
        <time>2022-08-25T06:59:07.000Z</time>
      </trkpt>
      <trkpt lat="40.4131260327994823455810546875" lon="-1.70665045268833637237548828125">
        <ele>1582.5999755859375</ele>
        <time>2022-08-25T06:59:08.000Z</time>
      </trkpt>
      <trkpt lat="40.41294724680483341217041015625" lon="-1.7065667174756526947021484375">
        <ele>1582.199951171875</ele>
        <time>2022-08-25T06:59:13.000Z</time>
      </trkpt>
      <trkpt lat="40.4128242842853069305419921875" lon="-1.7065117321908473968505859375">
        <ele>1582</ele>
        <time>2022-08-25T06:59:16.000Z</time>
      </trkpt>
      <trkpt lat="40.41268707253038883209228515625" lon="-1.70651994645595550537109375">
        <ele>1581.800048828125</ele>
        <time>2022-08-25T06:59:19.000Z</time>
      </trkpt>
      <trkpt lat="40.41253586299717426300048828125" lon="-1.706600077450275421142578125">
        <ele>1581.5999755859375</ele>
        <time>2022-08-25T06:59:22.000Z</time>
      </trkpt>
      <trkpt lat="40.4124843142926692962646484375" lon="-1.706645004451274871826171875">
        <ele>1581.4000244140625</ele>
        <time>2022-08-25T06:59:23.000Z</time>
      </trkpt>
      <trkpt lat="40.4123307578265666961669921875" lon="-1.7068304121494293212890625">
        <ele>1581</ele>
        <time>2022-08-25T06:59:26.000Z</time>
      </trkpt>
      <trkpt lat="40.41227803565561771392822265625" lon="-1.706904508173465728759765625">
        <ele>1580.800048828125</ele>
        <time>2022-08-25T06:59:27.000Z</time>
      </trkpt>
      <trkpt lat="40.41216622106730937957763671875" lon="-1.70706032775342464447021484375">
        <ele>1580.5999755859375</ele>
        <time>2022-08-25T06:59:29.000Z</time>
      </trkpt>
      <trkpt lat="40.41203177534043788909912109375" lon="-1.7072020657360553741455078125">
        <ele>1579.4000244140625</ele>
        <time>2022-08-25T06:59:31.000Z</time>
      </trkpt>
      <trkpt lat="40.41195742785930633544921875" lon="-1.707265265285968780517578125">
        <ele>1579</ele>
        <time>2022-08-25T06:59:32.000Z</time>
      </trkpt>
      <trkpt lat="40.41188056580722332000732421875" lon="-1.70731924474239349365234375">
        <ele>1578.5999755859375</ele>
        <time>2022-08-25T06:59:33.000Z</time>
      </trkpt>
      <trkpt lat="40.4118016920983791351318359375" lon="-1.70736090280115604400634765625">
        <ele>1578</ele>
        <time>2022-08-25T06:59:34.000Z</time>
      </trkpt>
      <trkpt lat="40.41164092719554901123046875" lon="-1.70741253532469272613525390625">
        <ele>1577</ele>
        <time>2022-08-25T06:59:36.000Z</time>
      </trkpt>
      <trkpt lat="40.4115592874586582183837890625" lon="-1.70742745511233806610107421875">
        <ele>1576.800048828125</ele>
        <time>2022-08-25T06:59:37.000Z</time>
      </trkpt>
      <trkpt lat="40.41147622279822826385498046875" lon="-1.70743533410131931304931640625">
        <ele>1576.5999755859375</ele>
        <time>2022-08-25T06:59:38.000Z</time>
      </trkpt>
      <trkpt lat="40.41131327860057353973388671875" lon="-1.707432903349399566650390625">
        <ele>1575.800048828125</ele>
        <time>2022-08-25T06:59:40.000Z</time>
      </trkpt>
      <trkpt lat="40.41123323142528533935546875" lon="-1.70742779038846492767333984375">
        <ele>1575.4000244140625</ele>
        <time>2022-08-25T06:59:41.000Z</time>
      </trkpt>
      <trkpt lat="40.41107053868472576141357421875" lon="-1.70741387642920017242431640625">
        <ele>1574.800048828125</ele>
        <time>2022-08-25T06:59:43.000Z</time>
      </trkpt>
      <trkpt lat="40.41073006577789783477783203125" lon="-1.70739007182419300079345703125">
        <ele>1573.5999755859375</ele>
        <time>2022-08-25T06:59:47.000Z</time>
      </trkpt>
      <trkpt lat="40.4105472564697265625" lon="-1.70737699605524539947509765625">
        <ele>1572.4000244140625</ele>
        <time>2022-08-25T06:59:49.000Z</time>
      </trkpt>
      <trkpt lat="40.4104535467922687530517578125" lon="-1.70737029053270816802978515625">
        <ele>1571.800048828125</ele>
        <time>2022-08-25T06:59:50.000Z</time>
      </trkpt>
      <trkpt lat="40.410263277590274810791015625" lon="-1.70735679566860198974609375">
        <ele>1570.800048828125</ele>
        <time>2022-08-25T06:59:52.000Z</time>
      </trkpt>
      <trkpt lat="40.41007325984537601470947265625" lon="-1.70731723308563232421875">
        <ele>1569.5999755859375</ele>
        <time>2022-08-25T06:59:54.000Z</time>
      </trkpt>
      <trkpt lat="40.40988366119563579559326171875" lon="-1.7072610743343830108642578125">
        <ele>1568.199951171875</ele>
        <time>2022-08-25T06:59:56.000Z</time>
      </trkpt>
      <trkpt lat="40.4097895324230194091796875" lon="-1.70723668299615383148193359375">
        <ele>1566.800048828125</ele>
        <time>2022-08-25T06:59:57.000Z</time>
      </trkpt>
      <trkpt lat="40.40960286743938922882080078125" lon="-1.707192175090312957763671875">
        <ele>1565.199951171875</ele>
        <time>2022-08-25T06:59:59.000Z</time>
      </trkpt>
      <trkpt lat="40.409341268241405487060546875" lon="-1.70710810460150241851806640625">
        <ele>1564</ele>
        <time>2022-08-25T07:00:02.000Z</time>
      </trkpt>
      <trkpt lat="40.4091828502714633941650390625" lon="-1.70703224837779998779296875">
        <ele>1562.5999755859375</ele>
        <time>2022-08-25T07:00:04.000Z</time>
      </trkpt>
      <trkpt lat="40.40896416641771793365478515625" lon="-1.70691465027630329132080078125">
        <ele>1561.199951171875</ele>
        <time>2022-08-25T07:00:07.000Z</time>
      </trkpt>
      <trkpt lat="40.40889476425945758819580078125" lon="-1.7068751715123653411865234375">
        <ele>1561</ele>
        <time>2022-08-25T07:00:08.000Z</time>
      </trkpt>
      <trkpt lat="40.408631823956966400146484375" lon="-1.7067095451056957244873046875">
        <ele>1560.199951171875</ele>
        <time>2022-08-25T07:00:12.000Z</time>
      </trkpt>
      <trkpt lat="40.4083704762160778045654296875" lon="-1.7065466009080410003662109375">
        <ele>1559.4000244140625</ele>
        <time>2022-08-25T07:00:16.000Z</time>
      </trkpt>
      <trkpt lat="40.40812857449054718017578125" lon="-1.7063652165234088897705078125">
        <ele>1559</ele>
        <time>2022-08-25T07:00:20.000Z</time>
      </trkpt>
      <trkpt lat="40.40801499970257282257080078125" lon="-1.7062813974916934967041015625">
        <ele>1559</ele>
        <time>2022-08-25T07:00:22.000Z</time>
      </trkpt>
      <trkpt lat="40.40770721621811389923095703125" lon="-1.70599532313644886016845703125">
        <ele>1559</ele>
        <time>2022-08-25T07:00:28.000Z</time>
      </trkpt>
      <trkpt lat="40.407476462423801422119140625" lon="-1.705724336206912994384765625">
        <ele>1559.199951171875</ele>
        <time>2022-08-25T07:00:34.000Z</time>
      </trkpt>
      <trkpt lat="40.407355763018131256103515625" lon="-1.7056185565888881683349609375">
        <ele>1559.4000244140625</ele>
        <time>2022-08-25T07:00:37.000Z</time>
      </trkpt>
      <trkpt lat="40.40726917795836925506591796875" lon="-1.70557446777820587158203125">
        <ele>1559.4000244140625</ele>
        <time>2022-08-25T07:00:39.000Z</time>
      </trkpt>
      <trkpt lat="40.40709584020078182220458984375" lon="-1.7056011222302913665771484375">
        <ele>1559.5999755859375</ele>
        <time>2022-08-25T07:00:43.000Z</time>
      </trkpt>
      <trkpt lat="40.40693356655538082122802734375" lon="-1.70573246665298938751220703125">
        <ele>1560</ele>
        <time>2022-08-25T07:00:47.000Z</time>
      </trkpt>
      <trkpt lat="40.4068922437727451324462890625" lon="-1.70577286742627620697021484375">
        <ele>1560</ele>
        <time>2022-08-25T07:00:48.000Z</time>
      </trkpt>
      <trkpt lat="40.40684790350496768951416015625" lon="-1.70581519603729248046875">
        <ele>1560</ele>
        <time>2022-08-25T07:00:49.000Z</time>
      </trkpt>
      <trkpt lat="40.40655839256942272186279296875" lon="-1.70606933534145355224609375">
        <ele>1560</ele>
        <time>2022-08-25T07:00:55.000Z</time>
      </trkpt>
      <trkpt lat="40.40630190633237361907958984375" lon="-1.70629254542291164398193359375">
        <ele>1558.4000244140625</ele>
        <time>2022-08-25T07:01:01.000Z</time>
      </trkpt>
      <trkpt lat="40.4062597453594207763671875" lon="-1.706327833235263824462890625">
        <ele>1558</ele>
        <time>2022-08-25T07:01:02.000Z</time>
      </trkpt>
      <trkpt lat="40.40617584250867366790771484375" lon="-1.706404946744441986083984375">
        <ele>1557.4000244140625</ele>
        <time>2022-08-25T07:01:04.000Z</time>
      </trkpt>
      <trkpt lat="40.40589152835309505462646484375" lon="-1.70665229670703411102294921875">
        <ele>1556.800048828125</ele>
        <time>2022-08-25T07:01:10.000Z</time>
      </trkpt>
      <trkpt lat="40.40564912371337413787841796875" lon="-1.70683988370001316070556640625">
        <ele>1556.4000244140625</ele>
        <time>2022-08-25T07:01:14.000Z</time>
      </trkpt>
      <trkpt lat="40.4055112414062023162841796875" lon="-1.70693879015743732452392578125">
        <ele>1556</ele>
        <time>2022-08-25T07:01:16.000Z</time>
      </trkpt>
      <trkpt lat="40.40529557503759860992431640625" lon="-1.707098968327045440673828125">
        <ele>1555</ele>
        <time>2022-08-25T07:01:19.000Z</time>
      </trkpt>
      <trkpt lat="40.40506683290004730224609375" lon="-1.70725763775408267974853515625">
        <ele>1553.800048828125</ele>
        <time>2022-08-25T07:01:22.000Z</time>
      </trkpt>
      <trkpt lat="40.40498904883861541748046875" lon="-1.70731279067695140838623046875">
        <ele>1553.4000244140625</ele>
        <time>2022-08-25T07:01:23.000Z</time>
      </trkpt>
      <trkpt lat="40.40475008077919483184814453125" lon="-1.70747020281851291656494140625">
        <ele>1552.5999755859375</ele>
        <time>2022-08-25T07:01:26.000Z</time>
      </trkpt>
      <trkpt lat="40.404414050281047821044921875" lon="-1.70763197354972362518310546875">
        <ele>1551.4000244140625</ele>
        <time>2022-08-25T07:01:30.000Z</time>
      </trkpt>
      <trkpt lat="40.40423526428639888763427734375" lon="-1.70766147784888744354248046875">
        <ele>1550.800048828125</ele>
        <time>2022-08-25T07:01:32.000Z</time>
      </trkpt>
      <trkpt lat="40.40405941195785999298095703125" lon="-1.70766214840114116668701171875">
        <ele>1550.199951171875</ele>
        <time>2022-08-25T07:01:34.000Z</time>
      </trkpt>
      <trkpt lat="40.4037091322243213653564453125" lon="-1.7076243460178375244140625">
        <ele>1549</ele>
        <time>2022-08-25T07:01:38.000Z</time>
      </trkpt>
      <trkpt lat="40.4035445116460323333740234375" lon="-1.70759174041450023651123046875">
        <ele>1548.4000244140625</ele>
        <time>2022-08-25T07:01:40.000Z</time>
      </trkpt>
      <trkpt lat="40.40339506231248378753662109375" lon="-1.70755921863019466400146484375">
        <ele>1547.800048828125</ele>
        <time>2022-08-25T07:01:42.000Z</time>
      </trkpt>
      <trkpt lat="40.40313354693353176116943359375" lon="-1.707483194768428802490234375">
        <ele>1547</ele>
        <time>2022-08-25T07:01:46.000Z</time>
      </trkpt>
      <trkpt lat="40.40289533324539661407470703125" lon="-1.70741924084722995758056640625">
        <ele>1547</ele>
        <time>2022-08-25T07:01:51.000Z</time>
      </trkpt>
      <trkpt lat="40.402722246944904327392578125" lon="-1.70736341737210750579833984375">
        <ele>1547.199951171875</ele>
        <time>2022-08-25T07:01:57.000Z</time>
      </trkpt>
      <trkpt lat="40.40258402936160564422607421875" lon="-1.70733123086392879486083984375">
        <ele>1548.199951171875</ele>
        <time>2022-08-25T07:02:03.000Z</time>
      </trkpt>
      <trkpt lat="40.40256056003272533416748046875" lon="-1.70732536353170871734619140625">
        <ele>1548.5999755859375</ele>
        <time>2022-08-25T07:02:04.000Z</time>
      </trkpt>
      <trkpt lat="40.40243349038064479827880859375" lon="-1.70730675570666790008544921875">
        <ele>1549.5999755859375</ele>
        <time>2022-08-25T07:02:09.000Z</time>
      </trkpt>
      <trkpt lat="40.4023552872240543365478515625" lon="-1.70728571712970733642578125">
        <ele>1550.199951171875</ele>
        <time>2022-08-25T07:02:12.000Z</time>
      </trkpt>
      <trkpt lat="40.40230373851954936981201171875" lon="-1.70727976597845554351806640625">
        <ele>1551</ele>
        <time>2022-08-25T07:02:14.000Z</time>
      </trkpt>
      <trkpt lat="40.40219846181571483612060546875" lon="-1.707275994122028350830078125">
        <ele>1551.800048828125</ele>
        <time>2022-08-25T07:02:18.000Z</time>
      </trkpt>
      <trkpt lat="40.4021728970110416412353515625" lon="-1.70727825723588466644287109375">
        <ele>1552</ele>
        <time>2022-08-25T07:02:19.000Z</time>
      </trkpt>
      <trkpt lat="40.40214733220636844635009765625" lon="-1.70728077180683612823486328125">
        <ele>1552.199951171875</ele>
        <time>2022-08-25T07:02:20.000Z</time>
      </trkpt>
      <trkpt lat="40.4019143991172313690185546875" lon="-1.7073489166796207427978515625">
        <ele>1553</ele>
        <time>2022-08-25T07:02:29.000Z</time>
      </trkpt>
      <trkpt lat="40.40174625813961029052734375" lon="-1.70747489668428897857666015625">
        <ele>1554.199951171875</ele>
        <time>2022-08-25T07:02:36.000Z</time>
      </trkpt>
      <trkpt lat="40.40165715850889682769775390625" lon="-1.70755636878311634063720703125">
        <ele>1554.5999755859375</ele>
        <time>2022-08-25T07:02:40.000Z</time>
      </trkpt>
      <trkpt lat="40.401612818241119384765625" lon="-1.70758922584354877471923828125">
        <ele>1555</ele>
        <time>2022-08-25T07:02:42.000Z</time>
      </trkpt>
      <trkpt lat="40.40150628425180912017822265625" lon="-1.70767773874104022979736328125">
        <ele>1555.4000244140625</ele>
        <time>2022-08-25T07:02:47.000Z</time>
      </trkpt>
      <trkpt lat="40.40137535892426967620849609375" lon="-1.70777329243719577789306640625">
        <ele>1556.199951171875</ele>
        <time>2022-08-25T07:02:53.000Z</time>
      </trkpt>
      <trkpt lat="40.40134258568286895751953125" lon="-1.707798354327678680419921875">
        <ele>1556.4000244140625</ele>
        <time>2022-08-25T07:02:55.000Z</time>
      </trkpt>
      <trkpt lat="40.40132054127752780914306640625" lon="-1.707816459238529205322265625">
        <ele>1556.5999755859375</ele>
        <time>2022-08-25T07:02:59.000Z</time>
      </trkpt>
      <trkpt lat="40.40127326734364032745361328125" lon="-1.70787773095071315765380859375">
        <ele>1557.5999755859375</ele>
        <time>2022-08-25T07:03:37.000Z</time>
      </trkpt>
      <trkpt lat="40.4011851735413074493408203125" lon="-1.70807487331330776214599609375">
        <ele>1557.5999755859375</ele>
        <time>2022-08-25T07:03:43.000Z</time>
      </trkpt>
      <trkpt lat="40.40102449245750904083251953125" lon="-1.70840009115636348724365234375">
        <ele>1557.5999755859375</ele>
        <time>2022-08-25T07:03:50.000Z</time>
      </trkpt>
      <trkpt lat="40.40091938339173793792724609375" lon="-1.708593629300594329833984375">
        <ele>1557.5999755859375</ele>
        <time>2022-08-25T07:03:53.000Z</time>
      </trkpt>
      <trkpt lat="40.400827936828136444091796875" lon="-1.70873276889324188232421875">
        <ele>1557.4000244140625</ele>
        <time>2022-08-25T07:03:55.000Z</time>
      </trkpt>
      <trkpt lat="40.4006544314324855804443359375" lon="-1.7089300788938999176025390625">
        <ele>1557</ele>
        <time>2022-08-25T07:03:58.000Z</time>
      </trkpt>
      <trkpt lat="40.40058444254100322723388671875" lon="-1.70897291041910648345947265625">
        <ele>1556.800048828125</ele>
        <time>2022-08-25T07:03:59.000Z</time>
      </trkpt>
      <trkpt lat="40.40043205954134464263916015625" lon="-1.708991937339305877685546875">
        <ele>1556.4000244140625</ele>
        <time>2022-08-25T07:04:01.000Z</time>
      </trkpt>
      <trkpt lat="40.40035863406956195831298828125" lon="-1.70897827483713626861572265625">
        <ele>1556</ele>
        <time>2022-08-25T07:04:02.000Z</time>
      </trkpt>
      <trkpt lat="40.4002259485423564910888671875" lon="-1.70893955044448375701904296875">
        <ele>1554.800048828125</ele>
        <time>2022-08-25T07:04:04.000Z</time>
      </trkpt>
      <trkpt lat="40.40004414506256580352783203125" lon="-1.70887886546552181243896484375">
        <ele>1554</ele>
        <time>2022-08-25T07:04:07.000Z</time>
      </trkpt>
      <trkpt lat="40.39966243319213390350341796875" lon="-1.70880543999373912811279296875">
        <ele>1553.800048828125</ele>
        <time>2022-08-25T07:04:14.000Z</time>
      </trkpt>
      <trkpt lat="40.39930678904056549072265625" lon="-1.70880921185016632080078125">
        <ele>1554.199951171875</ele>
        <time>2022-08-25T07:04:21.000Z</time>
      </trkpt>
      <trkpt lat="40.39925741963088512420654296875" lon="-1.70881851576268672943115234375">
        <ele>1554.199951171875</ele>
        <time>2022-08-25T07:04:22.000Z</time>
      </trkpt>
      <trkpt lat="40.3990781307220458984375" lon="-1.70893033035099506378173828125">
        <ele>1554.5999755859375</ele>
        <time>2022-08-25T07:04:26.000Z</time>
      </trkpt>
      <trkpt lat="40.39899992756545543670654296875" lon="-1.7090108804404735565185546875">
        <ele>1554.800048828125</ele>
        <time>2022-08-25T07:04:28.000Z</time>
      </trkpt>
      <trkpt lat="40.39893119595944881439208984375" lon="-1.7091030813753604888916015625">
        <ele>1554.800048828125</ele>
        <time>2022-08-25T07:04:30.000Z</time>
      </trkpt>
      <trkpt lat="40.39887897670269012451171875" lon="-1.7092137224972248077392578125">
        <ele>1554.800048828125</ele>
        <time>2022-08-25T07:04:32.000Z</time>
      </trkpt>
      <trkpt lat="40.39884679019451141357421875" lon="-1.70933836139738559722900390625">
        <ele>1555</ele>
        <time>2022-08-25T07:04:34.000Z</time>
      </trkpt>
      <trkpt lat="40.3987978398799896240234375" lon="-1.7095466516911983489990234375">
        <ele>1555</ele>
        <time>2022-08-25T07:04:37.000Z</time>
      </trkpt>
      <trkpt lat="40.39867269806563854217529296875" lon="-1.710088960826396942138671875">
        <ele>1554.800048828125</ele>
        <time>2022-08-25T07:04:44.000Z</time>
      </trkpt>
      <trkpt lat="40.39862508885562419891357421875" lon="-1.7102339677512645721435546875">
        <ele>1554.5999755859375</ele>
        <time>2022-08-25T07:04:46.000Z</time>
      </trkpt>
      <trkpt lat="40.398549735546112060546875" lon="-1.7103462852537631988525390625">
        <ele>1554.199951171875</ele>
        <time>2022-08-25T07:04:48.000Z</time>
      </trkpt>
      <trkpt lat="40.39840313605964183807373046875" lon="-1.71039364300668239593505859375">
        <ele>1553.4000244140625</ele>
        <time>2022-08-25T07:04:51.000Z</time>
      </trkpt>
      <trkpt lat="40.3983239270746707916259765625" lon="-1.71038693748414516448974609375">
        <ele>1553.199951171875</ele>
        <time>2022-08-25T07:04:53.000Z</time>
      </trkpt>
      <trkpt lat="40.398242957890033721923828125" lon="-1.71038224361836910247802734375">
        <ele>1553.199951171875</ele>
        <time>2022-08-25T07:04:56.000Z</time>
      </trkpt>
      <trkpt lat="40.3981710411608219146728515625" lon="-1.71037000603973865509033203125">
        <ele>1553.199951171875</ele>
        <time>2022-08-25T07:05:01.000Z</time>
      </trkpt>
      <trkpt lat="40.39803667925298213958740234375" lon="-1.710314936935901641845703125">
        <ele>1554</ele>
        <time>2022-08-25T07:05:10.000Z</time>
      </trkpt>
      <trkpt lat="40.39790407754480838775634765625" lon="-1.7103596962988376617431640625">
        <ele>1554.199951171875</ele>
        <time>2022-08-25T07:05:16.000Z</time>
      </trkpt>
      <trkpt lat="40.3978537023067474365234375" lon="-1.71038358472287654876708984375">
        <ele>1554.4000244140625</ele>
        <time>2022-08-25T07:05:18.000Z</time>
      </trkpt>
      <trkpt lat="40.39772386662662029266357421875" lon="-1.710424236953258514404296875">
        <ele>1554.5999755859375</ele>
        <time>2022-08-25T07:05:22.000Z</time>
      </trkpt>
      <trkpt lat="40.3974431566894054412841796875" lon="-1.7105855047702789306640625">
        <ele>1555</ele>
        <time>2022-08-25T07:05:29.000Z</time>
      </trkpt>
      <trkpt lat="40.3971575014293193817138671875" lon="-1.71083872206509113311767578125">
        <ele>1555</ele>
        <time>2022-08-25T07:05:35.000Z</time>
      </trkpt>
      <trkpt lat="40.39672113955020904541015625" lon="-1.71111465431749820709228515625">
        <ele>1554.199951171875</ele>
        <time>2022-08-25T07:05:42.000Z</time>
      </trkpt>
      <trkpt lat="40.3964547626674175262451171875" lon="-1.71126334927976131439208984375">
        <ele>1553</ele>
        <time>2022-08-25T07:05:46.000Z</time>
      </trkpt>
      <trkpt lat="40.39631285704672336578369140625" lon="-1.71131045557558536529541015625">
        <ele>1552.5999755859375</ele>
        <time>2022-08-25T07:05:48.000Z</time>
      </trkpt>
      <trkpt lat="40.3962465561926364898681640625" lon="-1.71131699346005916595458984375">
        <ele>1552.4000244140625</ele>
        <time>2022-08-25T07:05:49.000Z</time>
      </trkpt>
      <trkpt lat="40.3960745595395565032958984375" lon="-1.711287908256053924560546875">
        <ele>1551.800048828125</ele>
        <time>2022-08-25T07:05:52.000Z</time>
      </trkpt>
      <trkpt lat="40.396028794348239898681640625" lon="-1.711270473897457122802734375">
        <ele>1551.4000244140625</ele>
        <time>2022-08-25T07:05:53.000Z</time>
      </trkpt>
      <trkpt lat="40.3958153910934925079345703125" lon="-1.7111871577799320220947265625">
        <ele>1551.4000244140625</ele>
        <time>2022-08-25T07:05:59.000Z</time>
      </trkpt>
      <trkpt lat="40.39572947658598423004150390625" lon="-1.71113192103803157806396484375">
        <ele>1551.4000244140625</ele>
        <time>2022-08-25T07:06:02.000Z</time>
      </trkpt>
      <trkpt lat="40.395581535995006561279296875" lon="-1.71107542701065540313720703125">
        <ele>1552.199951171875</ele>
        <time>2022-08-25T07:06:07.000Z</time>
      </trkpt>
      <trkpt lat="40.39548874832689762115478515625" lon="-1.71105363406240940093994140625">
        <ele>1552.800048828125</ele>
        <time>2022-08-25T07:06:10.000Z</time>
      </trkpt>
      <trkpt lat="40.39533033035695552825927734375" lon="-1.71103812754154205322265625">
        <ele>1553.800048828125</ele>
        <time>2022-08-25T07:06:15.000Z</time>
      </trkpt>
      <trkpt lat="40.39514668285846710205078125" lon="-1.7110396362841129302978515625">
        <ele>1555.199951171875</ele>
        <time>2022-08-25T07:06:21.000Z</time>
      </trkpt>
      <trkpt lat="40.39502204395830631256103515625" lon="-1.7110543884336948394775390625">
        <ele>1555.5999755859375</ele>
        <time>2022-08-25T07:06:25.000Z</time>
      </trkpt>
      <trkpt lat="40.39493101648986339569091796875" lon="-1.71109470538794994354248046875">
        <ele>1556.199951171875</ele>
        <time>2022-08-25T07:06:28.000Z</time>
      </trkpt>
      <trkpt lat="40.39485004730522632598876953125" lon="-1.7111667059361934661865234375">
        <ele>1556.4000244140625</ele>
        <time>2022-08-25T07:06:31.000Z</time>
      </trkpt>
      <trkpt lat="40.39476807229220867156982421875" lon="-1.71128162182867527008056640625">
        <ele>1557</ele>
        <time>2022-08-25T07:06:35.000Z</time>
      </trkpt>
      <trkpt lat="40.39469875395298004150390625" lon="-1.71141053549945354461669921875">
        <ele>1557.5999755859375</ele>
        <time>2022-08-25T07:06:39.000Z</time>
      </trkpt>
      <trkpt lat="40.39463362656533718109130859375" lon="-1.71154816634953022003173828125">
        <ele>1558.199951171875</ele>
        <time>2022-08-25T07:06:43.000Z</time>
      </trkpt>
      <trkpt lat="40.3945550881326198577880859375" lon="-1.7117386870086193084716796875">
        <ele>1558.800048828125</ele>
        <time>2022-08-25T07:06:48.000Z</time>
      </trkpt>
      <trkpt lat="40.39451879449188709259033203125" lon="-1.71186634339392185211181640625">
        <ele>1559.199951171875</ele>
        <time>2022-08-25T07:06:51.000Z</time>
      </trkpt>
      <trkpt lat="40.39447520859539508819580078125" lon="-1.71208410523831844329833984375">
        <ele>1559.5999755859375</ele>
        <time>2022-08-25T07:06:56.000Z</time>
      </trkpt>
      <trkpt lat="40.39443053305149078369140625" lon="-1.71247176826000213623046875">
        <ele>1560.199951171875</ele>
        <time>2022-08-25T07:07:04.000Z</time>
      </trkpt>
      <trkpt lat="40.39441502653062343597412109375" lon="-1.7126191221177577972412109375">
        <ele>1560.199951171875</ele>
        <time>2022-08-25T07:07:07.000Z</time>
      </trkpt>
      <trkpt lat="40.3943532519042491912841796875" lon="-1.71293671242892742156982421875">
        <ele>1560.4000244140625</ele>
        <time>2022-08-25T07:07:13.000Z</time>
      </trkpt>
      <trkpt lat="40.3942047245800495147705078125" lon="-1.713258326053619384765625">
        <ele>1560.800048828125</ele>
        <time>2022-08-25T07:07:19.000Z</time>
      </trkpt>
      <trkpt lat="40.39409701712429523468017578125" lon="-1.71341322362422943115234375">
        <ele>1560.5999755859375</ele>
        <time>2022-08-25T07:07:22.000Z</time>
      </trkpt>
      <trkpt lat="40.3940008766949176788330078125" lon="-1.71350098215043544769287109375">
        <ele>1560.4000244140625</ele>
        <time>2022-08-25T07:07:24.000Z</time>
      </trkpt>
      <trkpt lat="40.3937145508825778961181640625" lon="-1.71362268738448619842529296875">
        <ele>1559.800048828125</ele>
        <time>2022-08-25T07:07:29.000Z</time>
      </trkpt>
      <trkpt lat="40.3933749161660671234130859375" lon="-1.71368186362087726593017578125">
        <ele>1559</ele>
        <time>2022-08-25T07:07:34.000Z</time>
      </trkpt>
      <trkpt lat="40.39330123923718929290771484375" lon="-1.71369024552404880523681640625">
        <ele>1558.800048828125</ele>
        <time>2022-08-25T07:07:35.000Z</time>
      </trkpt>
      <trkpt lat="40.39287761785089969635009765625" lon="-1.71374581754207611083984375">
        <ele>1557.800048828125</ele>
        <time>2022-08-25T07:07:41.000Z</time>
      </trkpt>
      <trkpt lat="40.392814837396144866943359375" lon="-1.71375579200685024261474609375">
        <ele>1557.4000244140625</ele>
        <time>2022-08-25T07:07:42.000Z</time>
      </trkpt>
      <trkpt lat="40.39263085462152957916259765625" lon="-1.71378445811569690704345703125">
        <ele>1556.5999755859375</ele>
        <time>2022-08-25T07:07:45.000Z</time>
      </trkpt>
      <trkpt lat="40.39223916828632354736328125" lon="-1.71384179033339023590087890625">
        <ele>1556.199951171875</ele>
        <time>2022-08-25T07:07:52.000Z</time>
      </trkpt>
      <trkpt lat="40.392191894352436065673828125" lon="-1.71386240981519222259521484375">
        <ele>1556.199951171875</ele>
        <time>2022-08-25T07:07:53.000Z</time>
      </trkpt>
      <trkpt lat="40.39207094348967075347900390625" lon="-1.71397623606026172637939453125">
        <ele>1556.199951171875</ele>
        <time>2022-08-25T07:07:56.000Z</time>
      </trkpt>
      <trkpt lat="40.39203473366796970367431640625" lon="-1.71403155662119388580322265625">
        <ele>1556.199951171875</ele>
        <time>2022-08-25T07:07:57.000Z</time>
      </trkpt>
      <trkpt lat="40.39199642837047576904296875" lon="-1.71408645808696746826171875">
        <ele>1556.199951171875</ele>
        <time>2022-08-25T07:07:58.000Z</time>
      </trkpt>
      <trkpt lat="40.3917793370783329010009765625" lon="-1.714405976235866546630859375">
        <ele>1556.4000244140625</ele>
        <time>2022-08-25T07:08:03.000Z</time>
      </trkpt>
      <trkpt lat="40.3914118744432926177978515625" lon="-1.71489070169627666473388671875">
        <ele>1555.5999755859375</ele>
        <time>2022-08-25T07:08:10.000Z</time>
      </trkpt>
      <trkpt lat="40.391161926090717315673828125" lon="-1.71518725343048572540283203125">
        <ele>1554.4000244140625</ele>
        <time>2022-08-25T07:08:14.000Z</time>
      </trkpt>
      <trkpt lat="40.3909823857247829437255859375" lon="-1.71544156037271022796630859375">
        <ele>1553.4000244140625</ele>
        <time>2022-08-25T07:08:17.000Z</time>
      </trkpt>
      <trkpt lat="40.390808545053005218505859375" lon="-1.7157073505222797393798828125">
        <ele>1552</ele>
        <time>2022-08-25T07:08:20.000Z</time>
      </trkpt>
      <trkpt lat="40.39070092141628265380859375" lon="-1.71589418314397335052490234375">
        <ele>1550.5999755859375</ele>
        <time>2022-08-25T07:08:22.000Z</time>
      </trkpt>
      <trkpt lat="40.39059899747371673583984375" lon="-1.71608495526015758514404296875">
        <ele>1549.5999755859375</ele>
        <time>2022-08-25T07:08:24.000Z</time>
      </trkpt>
      <trkpt lat="40.39044770412147045135498046875" lon="-1.71634680591523647308349609375">
        <ele>1548.199951171875</ele>
        <time>2022-08-25T07:08:27.000Z</time>
      </trkpt>
      <trkpt lat="40.390329100191593170166015625" lon="-1.71649935655295848846435546875">
        <ele>1547.4000244140625</ele>
        <time>2022-08-25T07:08:29.000Z</time>
      </trkpt>
      <trkpt lat="40.39026330225169658660888671875" lon="-1.7165649868547916412353515625">
        <ele>1547</ele>
        <time>2022-08-25T07:08:30.000Z</time>
      </trkpt>
      <trkpt lat="40.39013489149510860443115234375" lon="-1.7166741192340850830078125">
        <ele>1545.800048828125</ele>
        <time>2022-08-25T07:08:32.000Z</time>
      </trkpt>
      <trkpt lat="40.39007253013551235198974609375" lon="-1.71671234071254730224609375">
        <ele>1545</ele>
        <time>2022-08-25T07:08:33.000Z</time>
      </trkpt>
      <trkpt lat="40.3900189697742462158203125" lon="-1.716747544705867767333984375">
        <ele>1544.199951171875</ele>
        <time>2022-08-25T07:08:34.000Z</time>
      </trkpt>
      <trkpt lat="40.38993523456156253814697265625" lon="-1.71679808758199214935302734375">
        <ele>1543</ele>
        <time>2022-08-25T07:08:36.000Z</time>
      </trkpt>
      <trkpt lat="40.38990388624370098114013671875" lon="-1.71681560575962066650390625">
        <ele>1542.4000244140625</ele>
        <time>2022-08-25T07:08:37.000Z</time>
      </trkpt>
      <trkpt lat="40.38987739942967891693115234375" lon="-1.716832034289836883544921875">
        <ele>1541.5999755859375</ele>
        <time>2022-08-25T07:08:38.000Z</time>
      </trkpt>
      <trkpt lat="40.38985175080597400665283203125" lon="-1.7168439365923404693603515625">
        <ele>1540</ele>
        <time>2022-08-25T07:08:40.000Z</time>
      </trkpt>
      <trkpt lat="40.38985007442533969879150390625" lon="-1.7168422602117061614990234375">
        <ele>1539.199951171875</ele>
        <time>2022-08-25T07:08:41.000Z</time>
      </trkpt>
      <trkpt lat="40.38984823040664196014404296875" lon="-1.716841757297515869140625">
        <ele>1538.4000244140625</ele>
        <time>2022-08-25T07:08:42.000Z</time>
      </trkpt>
      <trkpt lat="40.38975854404270648956298828125" lon="-1.71689464710652828216552734375">
        <ele>1533.4000244140625</ele>
        <time>2022-08-25T07:09:18.000Z</time>
      </trkpt>
      <trkpt lat="40.38976809941232204437255859375" lon="-1.716939993202686309814453125">
        <ele>1533.4000244140625</ele>
        <time>2022-08-25T07:09:19.000Z</time>
      </trkpt>
      <trkpt lat="40.38986817933619022369384765625" lon="-1.71715934760868549346923828125">
        <ele>1533</ele>
        <time>2022-08-25T07:09:23.000Z</time>
      </trkpt>
      <trkpt lat="40.3899664990603923797607421875" lon="-1.71733251772820949554443359375">
        <ele>1532.4000244140625</ele>
        <time>2022-08-25T07:09:26.000Z</time>
      </trkpt>
      <trkpt lat="40.39007621817290782928466796875" lon="-1.717575006186962127685546875">
        <ele>1531.5999755859375</ele>
        <time>2022-08-25T07:09:30.000Z</time>
      </trkpt>
      <trkpt lat="40.39020127616822719573974609375" lon="-1.717991419136524200439453125">
        <ele>1531.5999755859375</ele>
        <time>2022-08-25T07:09:37.000Z</time>
      </trkpt>
      <trkpt lat="40.39030755870044231414794921875" lon="-1.71837656758725643157958984375">
        <ele>1531.800048828125</ele>
        <time>2022-08-25T07:09:45.000Z</time>
      </trkpt>
      <trkpt lat="40.3903649747371673583984375" lon="-1.71858477406203746795654296875">
        <ele>1533</ele>
        <time>2022-08-25T07:09:51.000Z</time>
      </trkpt>
      <trkpt lat="40.390365310013294219970703125" lon="-1.71859667636454105377197265625">
        <ele>1533.199951171875</ele>
        <time>2022-08-25T07:09:54.000Z</time>
      </trkpt>
      <trkpt lat="40.39037461392581462860107421875" lon="-1.71862936578691005706787109375">
        <ele>1533</ele>
        <time>2022-08-25T07:10:29.000Z</time>
      </trkpt>
      <trkpt lat="40.39038584567606449127197265625" lon="-1.7186795733869075775146484375">
        <ele>1533.199951171875</ele>
        <time>2022-08-25T07:10:31.000Z</time>
      </trkpt>
      <trkpt lat="40.39043798111379146575927734375" lon="-1.7189682461321353912353515625">
        <ele>1533.4000244140625</ele>
        <time>2022-08-25T07:10:39.000Z</time>
      </trkpt>
      <trkpt lat="40.39045440964400768280029296875" lon="-1.71911618672311305999755859375">
        <ele>1534</ele>
        <time>2022-08-25T07:10:43.000Z</time>
      </trkpt>
      <trkpt lat="40.39048190228641033172607421875" lon="-1.7194004170596599578857421875">
        <ele>1535.199951171875</ele>
        <time>2022-08-25T07:10:51.000Z</time>
      </trkpt>
      <trkpt lat="40.3904985822737216949462890625" lon="-1.71958087943494319915771484375">
        <ele>1536.199951171875</ele>
        <time>2022-08-25T07:10:56.000Z</time>
      </trkpt>
      <trkpt lat="40.39052917622029781341552734375" lon="-1.7197611741721630096435546875">
        <ele>1537.199951171875</ele>
        <time>2022-08-25T07:11:01.000Z</time>
      </trkpt>
      <trkpt lat="40.39053571410477161407470703125" lon="-1.7197973839938640594482421875">
        <ele>1537.4000244140625</ele>
        <time>2022-08-25T07:11:02.000Z</time>
      </trkpt>
      <trkpt lat="40.3905867598950862884521484375" lon="-1.72006116248667240142822265625">
        <ele>1538.4000244140625</ele>
        <time>2022-08-25T07:11:09.000Z</time>
      </trkpt>
      <trkpt lat="40.39062355645000934600830078125" lon="-1.72021471895277500152587890625">
        <ele>1539</ele>
        <time>2022-08-25T07:11:13.000Z</time>
      </trkpt>
      <trkpt lat="40.390674769878387451171875" lon="-1.7204535193741321563720703125">
        <ele>1539.5999755859375</ele>
        <time>2022-08-25T07:11:19.000Z</time>
      </trkpt>
      <trkpt lat="40.39067887701094150543212890625" lon="-1.7205365002155303955078125">
        <ele>1539.5999755859375</ele>
        <time>2022-08-25T07:11:21.000Z</time>
      </trkpt>
      <trkpt lat="40.39064166136085987091064453125" lon="-1.72071662731468677520751953125">
        <ele>1539.800048828125</ele>
        <time>2022-08-25T07:11:25.000Z</time>
      </trkpt>
      <trkpt lat="40.39061768911778926849365234375" lon="-1.720770187675952911376953125">
        <ele>1539.800048828125</ele>
        <time>2022-08-25T07:11:26.000Z</time>
      </trkpt>
      <trkpt lat="40.39047963917255401611328125" lon="-1.721009910106658935546875">
        <ele>1539.800048828125</ele>
        <time>2022-08-25T07:11:31.000Z</time>
      </trkpt>
      <trkpt lat="40.3902933932840824127197265625" lon="-1.721144355833530426025390625">
        <ele>1539.4000244140625</ele>
        <time>2022-08-25T07:11:35.000Z</time>
      </trkpt>
      <trkpt lat="40.39017462171614170074462890625" lon="-1.72120369970798492431640625">
        <ele>1538.199951171875</ele>
        <time>2022-08-25T07:11:37.000Z</time>
      </trkpt>
      <trkpt lat="40.38998544216156005859375" lon="-1.72125943936407566070556640625">
        <ele>1537.199951171875</ele>
        <time>2022-08-25T07:11:40.000Z</time>
      </trkpt>
      <trkpt lat="40.3899195604026317596435546875" lon="-1.7212531529366970062255859375">
        <ele>1537</ele>
        <time>2022-08-25T07:11:41.000Z</time>
      </trkpt>
      <trkpt lat="40.38972183130681514739990234375" lon="-1.7211990058422088623046875">
        <ele>1536.4000244140625</ele>
        <time>2022-08-25T07:11:44.000Z</time>
      </trkpt>
      <trkpt lat="40.38966315798461437225341796875" lon="-1.72118970192968845367431640625">
        <ele>1536.199951171875</ele>
        <time>2022-08-25T07:11:45.000Z</time>
      </trkpt>
      <trkpt lat="40.3895651735365390777587890625" lon="-1.72118919901549816131591796875">
        <ele>1535.800048828125</ele>
        <time>2022-08-25T07:11:47.000Z</time>
      </trkpt>
      <trkpt lat="40.389524437487125396728515625" lon="-1.72119288705289363861083984375">
        <ele>1535.5999755859375</ele>
        <time>2022-08-25T07:11:48.000Z</time>
      </trkpt>
      <trkpt lat="40.38947238586843013763427734375" lon="-1.72118098475039005279541015625">
        <ele>1535.4000244140625</ele>
        <time>2022-08-25T07:11:50.000Z</time>
      </trkpt>
      <trkpt lat="40.38946283049881458282470703125" lon="-1.72115768305957317352294921875">
        <ele>1535.199951171875</ele>
        <time>2022-08-25T07:11:51.000Z</time>
      </trkpt>
      <trkpt lat="40.389489568769931793212890625" lon="-1.72112599946558475494384765625">
        <ele>1534.800048828125</ele>
        <time>2022-08-25T07:11:53.000Z</time>
      </trkpt>
      <trkpt lat="40.38951337337493896484375" lon="-1.721123568713665008544921875">
        <ele>1534.199951171875</ele>
        <time>2022-08-25T07:11:54.000Z</time>
      </trkpt>
      <trkpt lat="40.38953818380832672119140625" lon="-1.72112432308495044708251953125">
        <ele>1533.5999755859375</ele>
        <time>2022-08-25T07:11:55.000Z</time>
      </trkpt>
      <trkpt lat="40.38961906917393207550048828125" lon="-1.72113136388361454010009765625">
        <ele>1532.5999755859375</ele>
        <time>2022-08-25T07:11:58.000Z</time>
      </trkpt>
      <trkpt lat="40.389700792729854583740234375" lon="-1.7211458645761013031005859375">
        <ele>1532.4000244140625</ele>
        <time>2022-08-25T07:12:01.000Z</time>
      </trkpt>
      <trkpt lat="40.3899250924587249755859375" lon="-1.72119925729930400848388671875">
        <ele>1533.4000244140625</ele>
        <time>2022-08-25T07:12:09.000Z</time>
      </trkpt>
      <trkpt lat="40.38995501585304737091064453125" lon="-1.721196658909320831298828125">
        <ele>1533.5999755859375</ele>
        <time>2022-08-25T07:12:10.000Z</time>
      </trkpt>
      <trkpt lat="40.390149056911468505859375" lon="-1.7211586050689220428466796875">
        <ele>1534.5999755859375</ele>
        <time>2022-08-25T07:12:16.000Z</time>
      </trkpt>
      <trkpt lat="40.3902112506330013275146484375" lon="-1.721137650310993194580078125">
        <ele>1534.800048828125</ele>
        <time>2022-08-25T07:12:18.000Z</time>
      </trkpt>
      <trkpt lat="40.390414260327816009521484375" lon="-1.7210529930889606475830078125">
        <ele>1535</ele>
        <time>2022-08-25T07:12:25.000Z</time>
      </trkpt>
      <trkpt lat="40.3904950618743896484375" lon="-1.72097797505557537078857421875">
        <ele>1535.5999755859375</ele>
        <time>2022-08-25T07:12:29.000Z</time>
      </trkpt>
      <trkpt lat="40.3905146755278110504150390625" lon="-1.72098468057811260223388671875">
        <ele>1535.800048828125</ele>
        <time>2022-08-25T07:12:30.000Z</time>
      </trkpt>
      <trkpt lat="40.39055071771144866943359375" lon="-1.72104008495807647705078125">
        <ele>1536.4000244140625</ele>
        <time>2022-08-25T07:12:34.000Z</time>
      </trkpt>
      <trkpt lat="40.3905487060546875" lon="-1.72104218043386936187744140625">
        <ele>1536.5999755859375</ele>
        <time>2022-08-25T07:12:35.000Z</time>
      </trkpt>
      <trkpt lat="40.39045072160661220550537109375" lon="-1.7209587804973125457763671875">
        <ele>1536.4000244140625</ele>
        <time>2022-08-25T07:15:26.000Z</time>
      </trkpt>
      <trkpt lat="40.39039640687406063079833984375" lon="-1.7210164479911327362060546875">
        <ele>1536.4000244140625</ele>
        <time>2022-08-25T07:15:28.000Z</time>
      </trkpt>
      <trkpt lat="40.39026062004268169403076171875" lon="-1.72111694701015949249267578125">
        <ele>1536.4000244140625</ele>
        <time>2022-08-25T07:15:31.000Z</time>
      </trkpt>
      <trkpt lat="40.39020747877657413482666015625" lon="-1.721144020557403564453125">
        <ele>1536.4000244140625</ele>
        <time>2022-08-25T07:15:32.000Z</time>
      </trkpt>
      <trkpt lat="40.39004101417958736419677734375" lon="-1.72119431197643280029296875">
        <ele>1536.4000244140625</ele>
        <time>2022-08-25T07:15:35.000Z</time>
      </trkpt>
      <trkpt lat="40.38998208940029144287109375" lon="-1.7211951501667499542236328125">
        <ele>1536.4000244140625</ele>
        <time>2022-08-25T07:15:36.000Z</time>
      </trkpt>
      <trkpt lat="40.389924757182598114013671875" lon="-1.72118936665356159210205078125">
        <ele>1536.199951171875</ele>
        <time>2022-08-25T07:15:37.000Z</time>
      </trkpt>
      <trkpt lat="40.3898072429001331329345703125" lon="-1.7211663164198398590087890625">
        <ele>1536</ele>
        <time>2022-08-25T07:15:39.000Z</time>
      </trkpt>
      <trkpt lat="40.389616973698139190673828125" lon="-1.72114578075706958770751953125">
        <ele>1535.800048828125</ele>
        <time>2022-08-25T07:15:42.000Z</time>
      </trkpt>
      <trkpt lat="40.38955050520598888397216796875" lon="-1.721151061356067657470703125">
        <ele>1535.5999755859375</ele>
        <time>2022-08-25T07:15:43.000Z</time>
      </trkpt>
      <trkpt lat="40.389480851590633392333984375" lon="-1.7211582697927951812744140625">
        <ele>1535.4000244140625</ele>
        <time>2022-08-25T07:15:44.000Z</time>
      </trkpt>
      <trkpt lat="40.38933056406676769256591796875" lon="-1.72115734778344631195068359375">
        <ele>1535.199951171875</ele>
        <time>2022-08-25T07:15:46.000Z</time>
      </trkpt>
      <trkpt lat="40.38917298428714275360107421875" lon="-1.72112667001783847808837890625">
        <ele>1534.5999755859375</ele>
        <time>2022-08-25T07:15:48.000Z</time>
      </trkpt>
      <trkpt lat="40.38901791907846927642822265625" lon="-1.7210724391043186187744140625">
        <ele>1534.199951171875</ele>
        <time>2022-08-25T07:15:50.000Z</time>
      </trkpt>
      <trkpt lat="40.38878993131220340728759765625" lon="-1.72095048241317272186279296875">
        <ele>1533.4000244140625</ele>
        <time>2022-08-25T07:15:53.000Z</time>
      </trkpt>
      <trkpt lat="40.38872354663908481597900390625" lon="-1.7209068126976490020751953125">
        <ele>1533</ele>
        <time>2022-08-25T07:15:54.000Z</time>
      </trkpt>
      <trkpt lat="40.38855456747114658355712890625" lon="-1.72080514021217823028564453125">
        <ele>1531.4000244140625</ele>
        <time>2022-08-25T07:15:57.000Z</time>
      </trkpt>
      <trkpt lat="40.3884513862431049346923828125" lon="-1.72078770585358142852783203125">
        <ele>1529.800048828125</ele>
        <time>2022-08-25T07:15:59.000Z</time>
      </trkpt>
      <trkpt lat="40.38835373707115650177001953125" lon="-1.72082810662686824798583984375">
        <ele>1528.199951171875</ele>
        <time>2022-08-25T07:16:01.000Z</time>
      </trkpt>
      <trkpt lat="40.38829958997666835784912109375" lon="-1.72094595618546009063720703125">
        <ele>1526.199951171875</ele>
        <time>2022-08-25T07:16:03.000Z</time>
      </trkpt>
      <trkpt lat="40.38829405792057514190673828125" lon="-1.72102374024689197540283203125">
        <ele>1525</ele>
        <time>2022-08-25T07:16:04.000Z</time>
      </trkpt>
      <trkpt lat="40.38830193690955638885498046875" lon="-1.72111392952501773834228515625">
        <ele>1524</ele>
        <time>2022-08-25T07:16:05.000Z</time>
      </trkpt>
      <trkpt lat="40.3883162699639797210693359375" lon="-1.7212105728685855865478515625">
        <ele>1523</ele>
        <time>2022-08-25T07:16:06.000Z</time>
      </trkpt>
      <trkpt lat="40.38833261467516422271728515625" lon="-1.72130637802183628082275390625">
        <ele>1522</ele>
        <time>2022-08-25T07:16:07.000Z</time>
      </trkpt>
      <trkpt lat="40.3883481211960315704345703125" lon="-1.72139891423285007476806640625">
        <ele>1521.4000244140625</ele>
        <time>2022-08-25T07:16:08.000Z</time>
      </trkpt>
      <trkpt lat="40.3883675672113895416259765625" lon="-1.72148843295872211456298828125">
        <ele>1520.5999755859375</ele>
        <time>2022-08-25T07:16:09.000Z</time>
      </trkpt>
      <trkpt lat="40.3884175233542919158935546875" lon="-1.7217517085373401641845703125">
        <ele>1519.199951171875</ele>
        <time>2022-08-25T07:16:12.000Z</time>
      </trkpt>
      <trkpt lat="40.3884322755038738250732421875" lon="-1.721838377416133880615234375">
        <ele>1519</ele>
        <time>2022-08-25T07:16:13.000Z</time>
      </trkpt>
      <trkpt lat="40.38851316086947917938232421875" lon="-1.7222147248685359954833984375">
        <ele>1518.199951171875</ele>
        <time>2022-08-25T07:16:18.000Z</time>
      </trkpt>
      <trkpt lat="40.38855389691889286041259765625" lon="-1.7223592288792133331298828125">
        <ele>1518</ele>
        <time>2022-08-25T07:16:20.000Z</time>
      </trkpt>
      <trkpt lat="40.3886800445616245269775390625" lon="-1.72289944253861904144287109375">
        <ele>1517.5999755859375</ele>
        <time>2022-08-25T07:16:28.000Z</time>
      </trkpt>
      <trkpt lat="40.38874550722539424896240234375" lon="-1.7232440225780010223388671875">
        <ele>1517.800048828125</ele>
        <time>2022-08-25T07:16:35.000Z</time>
      </trkpt>
      <trkpt lat="40.388821028172969818115234375" lon="-1.72353914938867092132568359375">
        <ele>1518.800048828125</ele>
        <time>2022-08-25T07:16:43.000Z</time>
      </trkpt>
      <trkpt lat="40.388840474188327789306640625" lon="-1.7236409895122051239013671875">
        <ele>1519</ele>
        <time>2022-08-25T07:16:46.000Z</time>
      </trkpt>
      <trkpt lat="40.3888865746557712554931640625" lon="-1.72385984100401401519775390625">
        <ele>1520</ele>
        <time>2022-08-25T07:16:53.000Z</time>
      </trkpt>
      <trkpt lat="40.3888969682157039642333984375" lon="-1.7239229567348957061767578125">
        <ele>1520.199951171875</ele>
        <time>2022-08-25T07:16:55.000Z</time>
      </trkpt>
      <trkpt lat="40.38891482166945934295654296875" lon="-1.72406402416527271270751953125">
        <ele>1521</ele>
        <time>2022-08-25T07:17:00.000Z</time>
      </trkpt>
      <trkpt lat="40.3889150731265544891357421875" lon="-1.72421154566109180450439453125">
        <ele>1521.800048828125</ele>
        <time>2022-08-25T07:17:05.000Z</time>
      </trkpt>
      <trkpt lat="40.3889100439846515655517578125" lon="-1.7242716439068317413330078125">
        <ele>1522.199951171875</ele>
        <time>2022-08-25T07:17:07.000Z</time>
      </trkpt>
      <trkpt lat="40.3888768516480922698974609375" lon="-1.72445009462535381317138671875">
        <ele>1522.800048828125</ele>
        <time>2022-08-25T07:17:14.000Z</time>
      </trkpt>
      <trkpt lat="40.38886570371687412261962890625" lon="-1.72452771104872226715087890625">
        <ele>1523.199951171875</ele>
        <time>2022-08-25T07:17:17.000Z</time>
      </trkpt>
      <trkpt lat="40.38883334957063198089599609375" lon="-1.72465511597692966461181640625">
        <ele>1524</ele>
        <time>2022-08-25T07:17:22.000Z</time>
      </trkpt>
      <trkpt lat="40.38882337510585784912109375" lon="-1.72470591031014919281005859375">
        <ele>1524.199951171875</ele>
        <time>2022-08-25T07:17:24.000Z</time>
      </trkpt>
      <trkpt lat="40.38876042701303958892822265625" lon="-1.7249143682420253753662109375">
        <ele>1525.4000244140625</ele>
        <time>2022-08-25T07:17:32.000Z</time>
      </trkpt>
      <trkpt lat="40.388720445334911346435546875" lon="-1.72506968490779399871826171875">
        <ele>1526.4000244140625</ele>
        <time>2022-08-25T07:17:38.000Z</time>
      </trkpt>
      <trkpt lat="40.38868582807481288909912109375" lon="-1.725202538073062896728515625">
        <ele>1527.199951171875</ele>
        <time>2022-08-25T07:17:43.000Z</time>
      </trkpt>
      <trkpt lat="40.38866654969751834869384765625" lon="-1.7252866923809051513671875">
        <ele>1527.4000244140625</ele>
        <time>2022-08-25T07:17:46.000Z</time>
      </trkpt>
      <trkpt lat="40.388630926609039306640625" lon="-1.7254172824323177337646484375">
        <ele>1528</ele>
        <time>2022-08-25T07:17:51.000Z</time>
      </trkpt>
      <trkpt lat="40.38860938511788845062255859375" lon="-1.7255262471735477447509765625">
        <ele>1528.5999755859375</ele>
        <time>2022-08-25T07:17:55.000Z</time>
      </trkpt>
      <trkpt lat="40.3885569982230663299560546875" lon="-1.72567368485033512115478515625">
        <ele>1529.4000244140625</ele>
        <time>2022-08-25T07:18:01.000Z</time>
      </trkpt>
      <trkpt lat="40.38853763602674007415771484375" lon="-1.72572162933647632598876953125">
        <ele>1529.800048828125</ele>
        <time>2022-08-25T07:18:03.000Z</time>
      </trkpt>
      <trkpt lat="40.38843822665512561798095703125" lon="-1.72592438757419586181640625">
        <ele>1530.5999755859375</ele>
        <time>2022-08-25T07:18:11.000Z</time>
      </trkpt>
      <trkpt lat="40.38840922527015209197998046875" lon="-1.72596386633813381195068359375">
        <ele>1531</ele>
        <time>2022-08-25T07:18:13.000Z</time>
      </trkpt>
      <trkpt lat="40.3883390687406063079833984375" lon="-1.72605983912944793701171875">
        <ele>1531.800048828125</ele>
        <time>2022-08-25T07:18:18.000Z</time>
      </trkpt>
      <trkpt lat="40.3882713429629802703857421875" lon="-1.7261548899114131927490234375">
        <ele>1532.199951171875</ele>
        <time>2022-08-25T07:18:23.000Z</time>
      </trkpt>
      <trkpt lat="40.3882106579840183258056640625" lon="-1.72622345387935638427734375">
        <ele>1532.800048828125</ele>
        <time>2022-08-25T07:18:27.000Z</time>
      </trkpt>
      <trkpt lat="40.38812608458101749420166015625" lon="-1.726335100829601287841796875">
        <ele>1533.800048828125</ele>
        <time>2022-08-25T07:18:33.000Z</time>
      </trkpt>
      <trkpt lat="40.3879890404641628265380859375" lon="-1.7265231907367706298828125">
        <ele>1534.800048828125</ele>
        <time>2022-08-25T07:18:42.000Z</time>
      </trkpt>
      <trkpt lat="40.387971438467502593994140625" lon="-1.7265417985618114471435546875">
        <ele>1535</ele>
        <time>2022-08-25T07:18:43.000Z</time>
      </trkpt>
      <trkpt lat="40.3878190554678440093994140625" lon="-1.7267355881631374359130859375">
        <ele>1535.800048828125</ele>
        <time>2022-08-25T07:18:52.000Z</time>
      </trkpt>
      <trkpt lat="40.38780279457569122314453125" lon="-1.726757548749446868896484375">
        <ele>1536</ele>
        <time>2022-08-25T07:18:53.000Z</time>
      </trkpt>
      <trkpt lat="40.387692153453826904296875" lon="-1.7268951795995235443115234375">
        <ele>1536.800048828125</ele>
        <time>2022-08-25T07:19:00.000Z</time>
      </trkpt>
      <trkpt lat="40.38767463527619838714599609375" lon="-1.7269142903387546539306640625">
        <ele>1537</ele>
        <time>2022-08-25T07:19:01.000Z</time>
      </trkpt>
      <trkpt lat="40.38757220841944217681884765625" lon="-1.727053262293338775634765625">
        <ele>1537.800048828125</ele>
        <time>2022-08-25T07:19:08.000Z</time>
      </trkpt>
      <trkpt lat="40.38754873909056186676025390625" lon="-1.7270923219621181488037109375">
        <ele>1538.199951171875</ele>
        <time>2022-08-25T07:19:10.000Z</time>
      </trkpt>
      <trkpt lat="40.38746776990592479705810546875" lon="-1.72719282098114490509033203125">
        <ele>1539</ele>
        <time>2022-08-25T07:19:16.000Z</time>
      </trkpt>
      <trkpt lat="40.38740406744182109832763671875" lon="-1.72726926393806934356689453125">
        <ele>1539.5999755859375</ele>
        <time>2022-08-25T07:19:21.000Z</time>
      </trkpt>
      <trkpt lat="40.38737908937036991119384765625" lon="-1.72729725949466228485107421875">
        <ele>1540</ele>
        <time>2022-08-25T07:19:23.000Z</time>
      </trkpt>
      <trkpt lat="40.38732469081878662109375" lon="-1.7273788154125213623046875">
        <ele>1541</ele>
        <time>2022-08-25T07:19:28.000Z</time>
      </trkpt>
      <trkpt lat="40.3872799314558506011962890625" lon="-1.72745785675942897796630859375">
        <ele>1542</ele>
        <time>2022-08-25T07:19:32.000Z</time>
      </trkpt>
      <trkpt lat="40.38726006634533405303955078125" lon="-1.727497167885303497314453125">
        <ele>1542.199951171875</ele>
        <time>2022-08-25T07:19:34.000Z</time>
      </trkpt>
      <trkpt lat="40.38722938857972621917724609375" lon="-1.727621555328369140625">
        <ele>1543.199951171875</ele>
        <time>2022-08-25T07:19:40.000Z</time>
      </trkpt>
      <trkpt lat="40.3872209228575229644775390625" lon="-1.72764259390532970428466796875">
        <ele>1543.199951171875</ele>
        <time>2022-08-25T07:19:41.000Z</time>
      </trkpt>
      <trkpt lat="40.3872031532227993011474609375" lon="-1.72778810374438762664794921875">
        <ele>1544.4000244140625</ele>
        <time>2022-08-25T07:19:47.000Z</time>
      </trkpt>
      <trkpt lat="40.3872068412601947784423828125" lon="-1.7279206216335296630859375">
        <ele>1545.199951171875</ele>
        <time>2022-08-25T07:19:52.000Z</time>
      </trkpt>
      <trkpt lat="40.38720910437405109405517578125" lon="-1.72799882479012012481689453125">
        <ele>1545.5999755859375</ele>
        <time>2022-08-25T07:19:55.000Z</time>
      </trkpt>
      <trkpt lat="40.387199632823467254638671875" lon="-1.7281481064856052398681640625">
        <ele>1546.4000244140625</ele>
        <time>2022-08-25T07:20:01.000Z</time>
      </trkpt>
      <trkpt lat="40.38719854317605495452880859375" lon="-1.7281749285757541656494140625">
        <ele>1546.4000244140625</ele>
        <time>2022-08-25T07:20:02.000Z</time>
      </trkpt>
      <trkpt lat="40.38722083903849124908447265625" lon="-1.72833460383117198944091796875">
        <ele>1547.4000244140625</ele>
        <time>2022-08-25T07:20:08.000Z</time>
      </trkpt>
      <trkpt lat="40.38723818957805633544921875" lon="-1.7284082807600498199462890625">
        <ele>1547.5999755859375</ele>
        <time>2022-08-25T07:20:11.000Z</time>
      </trkpt>
      <trkpt lat="40.3872453980147838592529296875" lon="-1.72856175340712070465087890625">
        <ele>1548.4000244140625</ele>
        <time>2022-08-25T07:20:17.000Z</time>
      </trkpt>
      <trkpt lat="40.387252606451511383056640625" lon="-1.72860835678875446319580078125">
        <ele>1548.800048828125</ele>
        <time>2022-08-25T07:20:19.000Z</time>
      </trkpt>
      <trkpt lat="40.38726291619241237640380859375" lon="-1.72868094407021999359130859375">
        <ele>1549.4000244140625</ele>
        <time>2022-08-25T07:20:22.000Z</time>
      </trkpt>
      <trkpt lat="40.38729644380509853363037109375" lon="-1.728851683437824249267578125">
        <ele>1550.5999755859375</ele>
        <time>2022-08-25T07:20:29.000Z</time>
      </trkpt>
      <trkpt lat="40.3873034007847309112548828125" lon="-1.72887406311929225921630859375">
        <ele>1550.5999755859375</ele>
        <time>2022-08-25T07:20:30.000Z</time>
      </trkpt>
      <trkpt lat="40.3873453103005886077880859375" lon="-1.72899744473397731781005859375">
        <ele>1551.5999755859375</ele>
        <time>2022-08-25T07:20:35.000Z</time>
      </trkpt>
      <trkpt lat="40.38740180432796478271484375" lon="-1.729156114161014556884765625">
        <ele>1552.4000244140625</ele>
        <time>2022-08-25T07:20:41.000Z</time>
      </trkpt>
      <trkpt lat="40.38741177879273891448974609375" lon="-1.72918436117470264434814453125">
        <ele>1552.5999755859375</ele>
        <time>2022-08-25T07:20:42.000Z</time>
      </trkpt>
      <trkpt lat="40.38747883401811122894287109375" lon="-1.7293742112815380096435546875">
        <ele>1552.800048828125</ele>
        <time>2022-08-25T07:20:48.000Z</time>
      </trkpt>
      <trkpt lat="40.3875835239887237548828125" lon="-1.72969884239137172698974609375">
        <ele>1553.199951171875</ele>
        <time>2022-08-25T07:20:56.000Z</time>
      </trkpt>
      <trkpt lat="40.38772769272327423095703125" lon="-1.73011776991188526153564453125">
        <ele>1553.199951171875</ele>
        <time>2022-08-25T07:21:05.000Z</time>
      </trkpt>
      <trkpt lat="40.38775761611759662628173828125" lon="-1.73022103495895862579345703125">
        <ele>1553.199951171875</ele>
        <time>2022-08-25T07:21:07.000Z</time>
      </trkpt>
      <trkpt lat="40.38778401911258697509765625" lon="-1.730453968048095703125">
        <ele>1553</ele>
        <time>2022-08-25T07:21:11.000Z</time>
      </trkpt>
      <trkpt lat="40.38778360001742839813232421875" lon="-1.7305101267993450164794921875">
        <ele>1553</ele>
        <time>2022-08-25T07:21:12.000Z</time>
      </trkpt>
      <trkpt lat="40.3877416066825389862060546875" lon="-1.7308762483298778533935546875">
        <ele>1552.800048828125</ele>
        <time>2022-08-25T07:21:19.000Z</time>
      </trkpt>
      <trkpt lat="40.38770447485148906707763671875" lon="-1.731132566928863525390625">
        <ele>1553</ele>
        <time>2022-08-25T07:21:26.000Z</time>
      </trkpt>
      <trkpt lat="40.3876768983900547027587890625" lon="-1.7312758974730968475341796875">
        <ele>1553.5999755859375</ele>
        <time>2022-08-25T07:21:32.000Z</time>
      </trkpt>
      <trkpt lat="40.38765661418437957763671875" lon="-1.73138402402400970458984375">
        <ele>1554.4000244140625</ele>
        <time>2022-08-25T07:21:37.000Z</time>
      </trkpt>
      <trkpt lat="40.38764948956668376922607421875" lon="-1.73143154941499233245849609375">
        <ele>1554.800048828125</ele>
        <time>2022-08-25T07:21:39.000Z</time>
      </trkpt>
      <trkpt lat="40.38763842545449733734130859375" lon="-1.73155342228710651397705078125">
        <ele>1555.800048828125</ele>
        <time>2022-08-25T07:21:44.000Z</time>
      </trkpt>
      <trkpt lat="40.38761881180107593536376953125" lon="-1.73166741617023944854736328125">
        <ele>1556.800048828125</ele>
        <time>2022-08-25T07:21:49.000Z</time>
      </trkpt>
      <trkpt lat="40.3876021318137645721435546875" lon="-1.7317883670330047607421875">
        <ele>1558</ele>
        <time>2022-08-25T07:21:54.000Z</time>
      </trkpt>
      <trkpt lat="40.3876061551272869110107421875" lon="-1.73186489380896091461181640625">
        <ele>1558.800048828125</ele>
        <time>2022-08-25T07:21:57.000Z</time>
      </trkpt>
      <trkpt lat="40.38760707713663578033447265625" lon="-1.73188962042331695556640625">
        <ele>1559</ele>
        <time>2022-08-25T07:21:58.000Z</time>
      </trkpt>
      <trkpt lat="40.38761562667787075042724609375" lon="-1.73202331177890300750732421875">
        <ele>1560</ele>
        <time>2022-08-25T07:22:03.000Z</time>
      </trkpt>
      <trkpt lat="40.38762669079005718231201171875" lon="-1.73210042528808116912841796875">
        <ele>1560.4000244140625</ele>
        <time>2022-08-25T07:22:06.000Z</time>
      </trkpt>
      <trkpt lat="40.3876413591206073760986328125" lon="-1.73220612108707427978515625">
        <ele>1561</ele>
        <time>2022-08-25T07:22:10.000Z</time>
      </trkpt>
      <trkpt lat="40.38767094723880290985107421875" lon="-1.73236043192446231842041015625">
        <ele>1562</ele>
        <time>2022-08-25T07:22:16.000Z</time>
      </trkpt>
      <trkpt lat="40.38767631165683269500732421875" lon="-1.73238524235785007476806640625">
        <ele>1562.199951171875</ele>
        <time>2022-08-25T07:22:17.000Z</time>
      </trkpt>
      <trkpt lat="40.38771159946918487548828125" lon="-1.73258691094815731048583984375">
        <ele>1563.199951171875</ele>
        <time>2022-08-25T07:22:25.000Z</time>
      </trkpt>
      <trkpt lat="40.38774386979639530181884765625" lon="-1.7328010685741901397705078125">
        <ele>1564.199951171875</ele>
        <time>2022-08-25T07:22:33.000Z</time>
      </trkpt>
      <trkpt lat="40.3877463005483150482177734375" lon="-1.7328302375972270965576171875">
        <ele>1564.4000244140625</ele>
        <time>2022-08-25T07:22:34.000Z</time>
      </trkpt>
      <trkpt lat="40.38774722255766391754150390625" lon="-1.7330371029675006866455078125">
        <ele>1565</ele>
        <time>2022-08-25T07:22:41.000Z</time>
      </trkpt>
      <trkpt lat="40.38773280568420886993408203125" lon="-1.7331611551344394683837890625">
        <ele>1565.4000244140625</ele>
        <time>2022-08-25T07:22:45.000Z</time>
      </trkpt>
      <trkpt lat="40.38772207684814929962158203125" lon="-1.73324455507099628448486328125">
        <ele>1565.5999755859375</ele>
        <time>2022-08-25T07:22:48.000Z</time>
      </trkpt>
      <trkpt lat="40.38765468634665012359619140625" lon="-1.73354856669902801513671875">
        <ele>1566</ele>
        <time>2022-08-25T07:22:58.000Z</time>
      </trkpt>
      <trkpt lat="40.3876356594264507293701171875" lon="-1.7336127720773220062255859375">
        <ele>1566.199951171875</ele>
        <time>2022-08-25T07:23:00.000Z</time>
      </trkpt>
      <trkpt lat="40.3875816799700260162353515625" lon="-1.73374864272773265838623046875">
        <ele>1566.5999755859375</ele>
        <time>2022-08-25T07:23:05.000Z</time>
      </trkpt>
      <trkpt lat="40.38744430057704448699951171875" lon="-1.733846962451934814453125">
        <ele>1567</ele>
        <time>2022-08-25T07:23:11.000Z</time>
      </trkpt>
      <trkpt lat="40.3873329050838947296142578125" lon="-1.73386313952505588531494140625">
        <ele>1567.4000244140625</ele>
        <time>2022-08-25T07:23:16.000Z</time>
      </trkpt>
      <trkpt lat="40.3872977010905742645263671875" lon="-1.7338561825454235076904296875">
        <ele>1567.5999755859375</ele>
        <time>2022-08-25T07:23:18.000Z</time>
      </trkpt>
      <trkpt lat="40.38722184486687183380126953125" lon="-1.73381502740085124969482421875">
        <ele>1568.4000244140625</ele>
        <time>2022-08-25T07:23:24.000Z</time>
      </trkpt>
      <trkpt lat="40.38720994256436824798583984375" lon="-1.73379893414676189422607421875">
        <ele>1568.4000244140625</ele>
        <time>2022-08-25T07:23:25.000Z</time>
      </trkpt>
      <trkpt lat="40.3871417976915836334228515625" lon="-1.73371125943958759307861328125">
        <ele>1569.199951171875</ele>
        <time>2022-08-25T07:23:30.000Z</time>
      </trkpt>
      <trkpt lat="40.38710600696504116058349609375" lon="-1.73366063274443149566650390625">
        <ele>1569.800048828125</ele>
        <time>2022-08-25T07:23:33.000Z</time>
      </trkpt>
      <trkpt lat="40.38707130588591098785400390625" lon="-1.73362576402723789215087890625">
        <ele>1570.4000244140625</ele>
        <time>2022-08-25T07:23:35.000Z</time>
      </trkpt>
      <trkpt lat="40.386973321437835693359375" lon="-1.73355971463024616241455078125">
        <ele>1571.199951171875</ele>
        <time>2022-08-25T07:23:40.000Z</time>
      </trkpt>
      <trkpt lat="40.38693769834935665130615234375" lon="-1.73354194499552249908447265625">
        <ele>1571.5999755859375</ele>
        <time>2022-08-25T07:23:42.000Z</time>
      </trkpt>
      <trkpt lat="40.38682051934301853179931640625" lon="-1.7334937490522861480712890625">
        <ele>1572</ele>
        <time>2022-08-25T07:23:47.000Z</time>
      </trkpt>
      <trkpt lat="40.386726893484592437744140625" lon="-1.73341982066631317138671875">
        <ele>1572.4000244140625</ele>
        <time>2022-08-25T07:23:52.000Z</time>
      </trkpt>
      <trkpt lat="40.3866901807487010955810546875" lon="-1.73340163193643093109130859375">
        <ele>1572.5999755859375</ele>
        <time>2022-08-25T07:23:54.000Z</time>
      </trkpt>
      <trkpt lat="40.38661985658109188079833984375" lon="-1.73336156643927097320556640625">
        <ele>1573.199951171875</ele>
        <time>2022-08-25T07:24:01.000Z</time>
      </trkpt>
      <trkpt lat="40.3865865804255008697509765625" lon="-1.733339019119739532470703125">
        <ele>1573.5999755859375</ele>
        <time>2022-08-25T07:24:03.000Z</time>
      </trkpt>
      <trkpt lat="40.3865320980548858642578125" lon="-1.7333234287798404693603515625">
        <ele>1574</ele>
        <time>2022-08-25T07:24:07.000Z</time>
      </trkpt>
      <trkpt lat="40.386390276253223419189453125" lon="-1.7332340776920318603515625">
        <ele>1574.800048828125</ele>
        <time>2022-08-25T07:24:13.000Z</time>
      </trkpt>
      <trkpt lat="40.3862422518432140350341796875" lon="-1.733122430741786956787109375">
        <ele>1575.5999755859375</ele>
        <time>2022-08-25T07:24:19.000Z</time>
      </trkpt>
      <trkpt lat="40.38622003979980945587158203125" lon="-1.73311128281056880950927734375">
        <ele>1575.800048828125</ele>
        <time>2022-08-25T07:24:20.000Z</time>
      </trkpt>
      <trkpt lat="40.386112667620182037353515625" lon="-1.733064763247966766357421875">
        <ele>1576.5999755859375</ele>
        <time>2022-08-25T07:24:25.000Z</time>
      </trkpt>
      <trkpt lat="40.38607679307460784912109375" lon="-1.73303668387234210968017578125">
        <ele>1577</ele>
        <time>2022-08-25T07:24:27.000Z</time>
      </trkpt>
      <trkpt lat="40.3859768807888031005859375" lon="-1.73300768248736858367919921875">
        <ele>1577.800048828125</ele>
        <time>2022-08-25T07:24:32.000Z</time>
      </trkpt>
      <trkpt lat="40.38593656383454799652099609375" lon="-1.732999049127101898193359375">
        <ele>1578.199951171875</ele>
        <time>2022-08-25T07:24:34.000Z</time>
      </trkpt>
      <trkpt lat="40.38585274480283260345458984375" lon="-1.73296912573277950286865234375">
        <ele>1578.800048828125</ele>
        <time>2022-08-25T07:24:38.000Z</time>
      </trkpt>
      <trkpt lat="40.385761298239231109619140625" lon="-1.732940711081027984619140625">
        <ele>1579.199951171875</ele>
        <time>2022-08-25T07:24:42.000Z</time>
      </trkpt>
      <trkpt lat="40.38565644063055515289306640625" lon="-1.73294699750840663909912109375">
        <ele>1580</ele>
        <time>2022-08-25T07:24:47.000Z</time>
      </trkpt>
      <trkpt lat="40.385634899139404296875" lon="-1.7329445667564868927001953125">
        <ele>1580.199951171875</ele>
        <time>2022-08-25T07:24:48.000Z</time>
      </trkpt>
      <trkpt lat="40.38552551530301570892333984375" lon="-1.7329609952867031097412109375">
        <ele>1581.199951171875</ele>
        <time>2022-08-25T07:24:53.000Z</time>
      </trkpt>
      <trkpt lat="40.38546198047697544097900390625" lon="-1.73298203386366367340087890625">
        <ele>1581.5999755859375</ele>
        <time>2022-08-25T07:24:56.000Z</time>
      </trkpt>
      <trkpt lat="40.38529702462255954742431640625" lon="-1.733065433800220489501953125">
        <ele>1582</ele>
        <time>2022-08-25T07:25:03.000Z</time>
      </trkpt>
      <trkpt lat="40.38524455390870571136474609375" lon="-1.7330934293568134307861328125">
        <ele>1582</ele>
        <time>2022-08-25T07:25:05.000Z</time>
      </trkpt>
      <trkpt lat="40.38501019589602947235107421875" lon="-1.733200885355472564697265625">
        <ele>1583</ele>
        <time>2022-08-25T07:25:13.000Z</time>
      </trkpt>
      <trkpt lat="40.3849457390606403350830078125" lon="-1.7332272045314311981201171875">
        <ele>1583.199951171875</ele>
        <time>2022-08-25T07:25:15.000Z</time>
      </trkpt>
      <trkpt lat="40.3847187571227550506591796875" lon="-1.733321249485015869140625">
        <ele>1583.5999755859375</ele>
        <time>2022-08-25T07:25:22.000Z</time>
      </trkpt>
      <trkpt lat="40.38453108631074428558349609375" lon="-1.733308844268321990966796875">
        <ele>1584</ele>
        <time>2022-08-25T07:25:27.000Z</time>
      </trkpt>
      <trkpt lat="40.3843227960169315338134765625" lon="-1.73313206993043422698974609375">
        <ele>1584</ele>
        <time>2022-08-25T07:25:33.000Z</time>
      </trkpt>
      <trkpt lat="40.38425632752478122711181640625" lon="-1.7330615781247615814208984375">
        <ele>1584</ele>
        <time>2022-08-25T07:25:35.000Z</time>
      </trkpt>
      <trkpt lat="40.384074859321117401123046875" lon="-1.7328758351504802703857421875">
        <ele>1584</ele>
        <time>2022-08-25T07:25:41.000Z</time>
      </trkpt>
      <trkpt lat="40.3838953189551830291748046875" lon="-1.7326475121080875396728515625">
        <ele>1583.800048828125</ele>
        <time>2022-08-25T07:25:47.000Z</time>
      </trkpt>
      <trkpt lat="40.38373254239559173583984375" lon="-1.73243343830108642578125">
        <ele>1583.800048828125</ele>
        <time>2022-08-25T07:25:53.000Z</time>
      </trkpt>
      <trkpt lat="40.38356163538992404937744140625" lon="-1.73226487822830677032470703125">
        <ele>1584</ele>
        <time>2022-08-25T07:25:59.000Z</time>
      </trkpt>
      <trkpt lat="40.38342408835887908935546875" lon="-1.73207913525402545928955078125">
        <ele>1584.5999755859375</ele>
        <time>2022-08-25T07:26:06.000Z</time>
      </trkpt>
      <trkpt lat="40.38335024379193782806396484375" lon="-1.731996238231658935546875">
        <ele>1584.800048828125</ele>
        <time>2022-08-25T07:26:09.000Z</time>
      </trkpt>
      <trkpt lat="40.38325888104736804962158203125" lon="-1.73189096152782440185546875">
        <ele>1585</ele>
        <time>2022-08-25T07:26:13.000Z</time>
      </trkpt>
      <trkpt lat="40.3831556998193264007568359375" lon="-1.7317312024533748626708984375">
        <ele>1585.4000244140625</ele>
        <time>2022-08-25T07:26:20.000Z</time>
      </trkpt>
      <trkpt lat="40.38306643255054950714111328125" lon="-1.73161963932216167449951171875">
        <ele>1585.800048828125</ele>
        <time>2022-08-25T07:26:24.000Z</time>
      </trkpt>
      <trkpt lat="40.3829915821552276611328125" lon="-1.7315270192921161651611328125">
        <ele>1586.199951171875</ele>
        <time>2022-08-25T07:26:27.000Z</time>
      </trkpt>
      <trkpt lat="40.382770635187625885009765625" lon="-1.7313030548393726348876953125">
        <ele>1586.800048828125</ele>
        <time>2022-08-25T07:26:34.000Z</time>
      </trkpt>
      <trkpt lat="40.38274322636425495147705078125" lon="-1.73126894049346446990966796875">
        <ele>1586.800048828125</ele>
        <time>2022-08-25T07:26:35.000Z</time>
      </trkpt>
      <trkpt lat="40.38260073401033878326416015625" lon="-1.73105805180966854095458984375">
        <ele>1587.4000244140625</ele>
        <time>2022-08-25T07:26:41.000Z</time>
      </trkpt>
      <trkpt lat="40.3824605047702789306640625" lon="-1.73087197355926036834716796875">
        <ele>1587.800048828125</ele>
        <time>2022-08-25T07:26:47.000Z</time>
      </trkpt>
      <trkpt lat="40.38241599686443805694580078125" lon="-1.730802319943904876708984375">
        <ele>1588</ele>
        <time>2022-08-25T07:26:49.000Z</time>
      </trkpt>
      <trkpt lat="40.382297895848751068115234375" lon="-1.73060995526611804962158203125">
        <ele>1588.4000244140625</ele>
        <time>2022-08-25T07:26:55.000Z</time>
      </trkpt>
      <trkpt lat="40.38223318755626678466796875" lon="-1.73047182150185108184814453125">
        <ele>1588.800048828125</ele>
        <time>2022-08-25T07:26:59.000Z</time>
      </trkpt>
      <trkpt lat="40.38219873793423175811767578125" lon="-1.73040074296295642852783203125">
        <ele>1588.800048828125</ele>
        <time>2022-08-25T07:27:01.000Z</time>
      </trkpt>
      <trkpt lat="40.38209438323974609375" lon="-1.73017811961472034454345703125">
        <ele>1589.5999755859375</ele>
        <time>2022-08-25T07:27:08.000Z</time>
      </trkpt>
      <trkpt lat="40.3820660524070262908935546875" lon="-1.7301074601709842681884765625">
        <ele>1589.800048828125</ele>
        <time>2022-08-25T07:27:10.000Z</time>
      </trkpt>
      <trkpt lat="40.38196496665477752685546875" lon="-1.7299575917422771453857421875">
        <ele>1590.199951171875</ele>
        <time>2022-08-25T07:27:15.000Z</time>
      </trkpt>
      <trkpt lat="40.3818655572831630706787109375" lon="-1.72973237000405788421630859375">
        <ele>1590.800048828125</ele>
        <time>2022-08-25T07:27:21.000Z</time>
      </trkpt>
      <trkpt lat="40.38185088895261287689208984375" lon="-1.72970236279070377349853515625">
        <ele>1590.800048828125</ele>
        <time>2022-08-25T07:27:22.000Z</time>
      </trkpt>
      <trkpt lat="40.38176916539669036865234375" lon="-1.72951108776032924652099609375">
        <ele>1591.199951171875</ele>
        <time>2022-08-25T07:27:27.000Z</time>
      </trkpt>
      <trkpt lat="40.38163932971656322479248046875" lon="-1.729263402521610260009765625">
        <ele>1591.4000244140625</ele>
        <time>2022-08-25T07:27:33.000Z</time>
      </trkpt>
      <trkpt lat="40.38153187371790409088134765625" lon="-1.7290610633790493011474609375">
        <ele>1591.800048828125</ele>
        <time>2022-08-25T07:27:38.000Z</time>
      </trkpt>
      <trkpt lat="40.381478480994701385498046875" lon="-1.7289541102945804595947265625">
        <ele>1592</ele>
        <time>2022-08-25T07:27:41.000Z</time>
      </trkpt>
      <trkpt lat="40.381311513483524322509765625" lon="-1.7286885716021060943603515625">
        <ele>1592</ele>
        <time>2022-08-25T07:27:48.000Z</time>
      </trkpt>
      <trkpt lat="40.38121989928185939788818359375" lon="-1.72845664434134960174560546875">
        <ele>1591.800048828125</ele>
        <time>2022-08-25T07:27:52.000Z</time>
      </trkpt>
      <trkpt lat="40.38117849268019199371337890625" lon="-1.72839294187724590301513671875">
        <ele>1591.800048828125</ele>
        <time>2022-08-25T07:27:53.000Z</time>
      </trkpt>
      <trkpt lat="40.38102325983345508575439453125" lon="-1.72814534045755863189697265625">
        <ele>1591.800048828125</ele>
        <time>2022-08-25T07:27:58.000Z</time>
      </trkpt>
      <trkpt lat="40.3807961940765380859375" lon="-1.72780034132301807403564453125">
        <ele>1592</ele>
        <time>2022-08-25T07:28:05.000Z</time>
      </trkpt>
      <trkpt lat="40.3807095251977443695068359375" lon="-1.72765784896910190582275390625">
        <ele>1592</ele>
        <time>2022-08-25T07:28:08.000Z</time>
      </trkpt>
      <trkpt lat="40.38062880747020244598388671875" lon="-1.72750747762620449066162109375">
        <ele>1592</ele>
        <time>2022-08-25T07:28:11.000Z</time>
      </trkpt>
      <trkpt lat="40.38041523657739162445068359375" lon="-1.727192066609859466552734375">
        <ele>1591.5999755859375</ele>
        <time>2022-08-25T07:28:18.000Z</time>
      </trkpt>
      <trkpt lat="40.3803326748311519622802734375" lon="-1.7270990274846553802490234375">
        <ele>1591.5999755859375</ele>
        <time>2022-08-25T07:28:20.000Z</time>
      </trkpt>
      <trkpt lat="40.3801234625279903411865234375" lon="-1.7268584668636322021484375">
        <ele>1591.5999755859375</ele>
        <time>2022-08-25T07:28:25.000Z</time>
      </trkpt>
      <trkpt lat="40.3798882663249969482421875" lon="-1.726500727236270904541015625">
        <ele>1591.5999755859375</ele>
        <time>2022-08-25T07:28:32.000Z</time>
      </trkpt>
      <trkpt lat="40.37977552972733974456787109375" lon="-1.72631733119487762451171875">
        <ele>1591.4000244140625</ele>
        <time>2022-08-25T07:28:36.000Z</time>
      </trkpt>
      <trkpt lat="40.379710234701633453369140625" lon="-1.72623108141124248504638671875">
        <ele>1591.199951171875</ele>
        <time>2022-08-25T07:28:38.000Z</time>
      </trkpt>
      <trkpt lat="40.37943824194371700286865234375" lon="-1.7259678058326244354248046875">
        <ele>1590.800048828125</ele>
        <time>2022-08-25T07:28:45.000Z</time>
      </trkpt>
      <trkpt lat="40.3792499005794525146484375" lon="-1.7257730104029178619384765625">
        <ele>1590.4000244140625</ele>
        <time>2022-08-25T07:28:51.000Z</time>
      </trkpt>
      <trkpt lat="40.37914353422820568084716796875" lon="-1.7256710864603519439697265625">
        <ele>1590.199951171875</ele>
        <time>2022-08-25T07:28:55.000Z</time>
      </trkpt>
      <trkpt lat="40.37897162139415740966796875" lon="-1.72556036151945590972900390625">
        <ele>1589.800048828125</ele>
        <time>2022-08-25T07:28:59.000Z</time>
      </trkpt>
      <trkpt lat="40.3788963519036769866943359375" lon="-1.72553437761962413787841796875">
        <ele>1589.800048828125</ele>
        <time>2022-08-25T07:29:01.000Z</time>
      </trkpt>
      <trkpt lat="40.3786646761000156402587890625" lon="-1.72543077729642391204833984375">
        <ele>1589.800048828125</ele>
        <time>2022-08-25T07:29:07.000Z</time>
      </trkpt>
      <trkpt lat="40.378487147390842437744140625" lon="-1.72535534016788005828857421875">
        <ele>1590</ele>
        <time>2022-08-25T07:29:13.000Z</time>
      </trkpt>
      <trkpt lat="40.3783498518168926239013671875" lon="-1.72527051530778408050537109375">
        <ele>1590.4000244140625</ele>
        <time>2022-08-25T07:29:19.000Z</time>
      </trkpt>
      <trkpt lat="40.37832076661288738250732421875" lon="-1.72525249421596527099609375">
        <ele>1591.199951171875</ele>
        <time>2022-08-25T07:29:24.000Z</time>
      </trkpt>
      <trkpt lat="40.3782145678997039794921875" lon="-1.7251794040203094482421875">
        <ele>1591.4000244140625</ele>
        <time>2022-08-25T07:29:35.000Z</time>
      </trkpt>
      <trkpt lat="40.37815279327332973480224609375" lon="-1.72513489611446857452392578125">
        <ele>1591.4000244140625</ele>
        <time>2022-08-25T07:29:37.000Z</time>
      </trkpt>
      <trkpt lat="40.37800124846398830413818359375" lon="-1.72498653642833232879638671875">
        <ele>1591.800048828125</ele>
        <time>2022-08-25T07:29:44.000Z</time>
      </trkpt>
      <trkpt lat="40.37790737114846706390380859375" lon="-1.72484815120697021484375">
        <ele>1592.199951171875</ele>
        <time>2022-08-25T07:29:50.000Z</time>
      </trkpt>
      <trkpt lat="40.3778516314923763275146484375" lon="-1.72476123087108135223388671875">
        <ele>1592.4000244140625</ele>
        <time>2022-08-25T07:29:54.000Z</time>
      </trkpt>
      <trkpt lat="40.3778046928346157073974609375" lon="-1.72468981705605983734130859375">
        <ele>1592.800048828125</ele>
        <time>2022-08-25T07:29:57.000Z</time>
      </trkpt>
      <trkpt lat="40.377708971500396728515625" lon="-1.7245195806026458740234375">
        <ele>1594</ele>
        <time>2022-08-25T07:30:04.000Z</time>
      </trkpt>
      <trkpt lat="40.3773456998169422149658203125" lon="-1.72415077686309814453125">
        <ele>1595</ele>
        <time>2022-08-25T07:30:11.000Z</time>
      </trkpt>
      <trkpt lat="40.377395488321781158447265625" lon="-1.72419578768312931060791015625">
        <ele>1595.199951171875</ele>
        <time>2022-08-25T07:30:12.000Z</time>
      </trkpt>
      <trkpt lat="40.377392806112766265869140625" lon="-1.72408749349415302276611328125">
        <ele>1595.4000244140625</ele>
        <time>2022-08-25T07:30:21.000Z</time>
      </trkpt>
      <trkpt lat="40.377353914082050323486328125" lon="-1.72405891120433807373046875">
        <ele>1595.800048828125</ele>
        <time>2022-08-25T07:30:28.000Z</time>
      </trkpt>
      <trkpt lat="40.37734595127403736114501953125" lon="-1.7240356095135211944580078125">
        <ele>1595.800048828125</ele>
        <time>2022-08-25T07:30:29.000Z</time>
      </trkpt>
      <trkpt lat="40.3772933967411518096923828125" lon="-1.72389839775860309600830078125">
        <ele>1596</ele>
        <time>2022-08-25T07:30:34.000Z</time>
      </trkpt>
      <trkpt lat="40.37725022993981838226318359375" lon="-1.72370351850986480712890625">
        <ele>1596.4000244140625</ele>
        <time>2022-08-25T07:30:40.000Z</time>
      </trkpt>
      <trkpt lat="40.3771934844553470611572265625" lon="-1.72348064370453357696533203125">
        <ele>1597</ele>
        <time>2022-08-25T07:30:46.000Z</time>
      </trkpt>
      <trkpt lat="40.37717009894549846649169921875" lon="-1.72339313663542270660400390625">
        <ele>1597.199951171875</ele>
        <time>2022-08-25T07:30:49.000Z</time>
      </trkpt>
      <trkpt lat="40.37714160047471523284912109375" lon="-1.723227761685848236083984375">
        <ele>1597.4000244140625</ele>
        <time>2022-08-25T07:30:55.000Z</time>
      </trkpt>
      <trkpt lat="40.3771136887371540069580078125" lon="-1.72308904118835926055908203125">
        <ele>1598</ele>
        <time>2022-08-25T07:30:59.000Z</time>
      </trkpt>
      <trkpt lat="40.377105139195919036865234375" lon="-1.72293263487517833709716796875">
        <ele>1598.4000244140625</ele>
        <time>2022-08-25T07:31:03.000Z</time>
      </trkpt>
      <trkpt lat="40.37709918804466724395751953125" lon="-1.722621917724609375">
        <ele>1599</ele>
        <time>2022-08-25T07:31:08.000Z</time>
      </trkpt>
      <trkpt lat="40.3771143592894077301025390625" lon="-1.72207516618072986602783203125">
        <ele>1599</ele>
        <time>2022-08-25T07:31:15.000Z</time>
      </trkpt>
      <trkpt lat="40.3770110942423343658447265625" lon="-1.72177375294268131256103515625">
        <ele>1598.4000244140625</ele>
        <time>2022-08-25T07:31:20.000Z</time>
      </trkpt>
      <trkpt lat="40.3769802488386631011962890625" lon="-1.7217309214174747467041015625">
        <ele>1598.4000244140625</ele>
        <time>2022-08-25T07:31:21.000Z</time>
      </trkpt>
      <trkpt lat="40.37688243202865123748779296875" lon="-1.721618436276912689208984375">
        <ele>1598.4000244140625</ele>
        <time>2022-08-25T07:31:24.000Z</time>
      </trkpt>
      <trkpt lat="40.3767696954309940338134765625" lon="-1.721529252827167510986328125">
        <ele>1598.4000244140625</ele>
        <time>2022-08-25T07:31:27.000Z</time>
      </trkpt>
      <trkpt lat="40.37642142735421657562255859375" lon="-1.72129933722317218780517578125">
        <ele>1598.4000244140625</ele>
        <time>2022-08-25T07:31:35.000Z</time>
      </trkpt>
      <trkpt lat="40.37608413957059383392333984375" lon="-1.721053160727024078369140625">
        <ele>1598.5999755859375</ele>
        <time>2022-08-25T07:31:43.000Z</time>
      </trkpt>
      <trkpt lat="40.37586294114589691162109375" lon="-1.72089231200516223907470703125">
        <ele>1598.5999755859375</ele>
        <time>2022-08-25T07:31:50.000Z</time>
      </trkpt>
      <trkpt lat="40.37569169886410236358642578125" lon="-1.72076205722987651824951171875">
        <ele>1599.5999755859375</ele>
        <time>2022-08-25T07:31:57.000Z</time>
      </trkpt>
      <trkpt lat="40.375644005835056304931640625" lon="-1.72072014771401882171630859375">
        <ele>1600</ele>
        <time>2022-08-25T07:31:59.000Z</time>
      </trkpt>
      <trkpt lat="40.37544183433055877685546875" lon="-1.720563657581806182861328125">
        <ele>1601</ele>
        <time>2022-08-25T07:32:07.000Z</time>
      </trkpt>
      <trkpt lat="40.3753152675926685333251953125" lon="-1.7204672656953334808349609375">
        <ele>1601.800048828125</ele>
        <time>2022-08-25T07:32:12.000Z</time>
      </trkpt>
      <trkpt lat="40.37523689679801464080810546875" lon="-1.72041102312505245208740234375">
        <ele>1602.4000244140625</ele>
        <time>2022-08-25T07:32:15.000Z</time>
      </trkpt>
      <trkpt lat="40.37503807805478572845458984375" lon="-1.7202422954142093658447265625">
        <ele>1602.800048828125</ele>
        <time>2022-08-25T07:32:22.000Z</time>
      </trkpt>
      <trkpt lat="40.3749853558838367462158203125" lon="-1.72019309364259243011474609375">
        <ele>1603</ele>
        <time>2022-08-25T07:32:24.000Z</time>
      </trkpt>
      <trkpt lat="40.3748834319412708282470703125" lon="-1.7200857214629650115966796875">
        <ele>1603.199951171875</ele>
        <time>2022-08-25T07:32:29.000Z</time>
      </trkpt>
      <trkpt lat="40.374774299561977386474609375" lon="-1.7199891619384288787841796875">
        <ele>1603.199951171875</ele>
        <time>2022-08-25T07:32:35.000Z</time>
      </trkpt>
      <trkpt lat="40.37464932538568973541259765625" lon="-1.719805933535099029541015625">
        <ele>1603.4000244140625</ele>
        <time>2022-08-25T07:32:41.000Z</time>
      </trkpt>
      <trkpt lat="40.37449995987117290496826171875" lon="-1.719636283814907073974609375">
        <ele>1604</ele>
        <time>2022-08-25T07:32:47.000Z</time>
      </trkpt>
      <trkpt lat="40.37445117719471454620361328125" lon="-1.71958372928202152252197265625">
        <ele>1604.199951171875</ele>
        <time>2022-08-25T07:32:49.000Z</time>
      </trkpt>
      <trkpt lat="40.3742588125169277191162109375" lon="-1.7193900234997272491455078125">
        <ele>1605</ele>
        <time>2022-08-25T07:32:56.000Z</time>
      </trkpt>
      <trkpt lat="40.37406343035399913787841796875" lon="-1.719159521162509918212890625">
        <ele>1605.800048828125</ele>
        <time>2022-08-25T07:33:03.000Z</time>
      </trkpt>
      <trkpt lat="40.37375765852630138397216796875" lon="-1.718819551169872283935546875">
        <ele>1605.800048828125</ele>
        <time>2022-08-25T07:33:12.000Z</time>
      </trkpt>
      <trkpt lat="40.373449958860874176025390625" lon="-1.71851704828441143035888671875">
        <ele>1605.199951171875</ele>
        <time>2022-08-25T07:33:20.000Z</time>
      </trkpt>
      <trkpt lat="40.37310034967958927154541015625" lon="-1.71819652430713176727294921875">
        <ele>1603.800048828125</ele>
        <time>2022-08-25T07:33:29.000Z</time>
      </trkpt>
      <trkpt lat="40.3730645589530467987060546875" lon="-1.71816148795187473297119140625">
        <ele>1603.800048828125</ele>
        <time>2022-08-25T07:33:30.000Z</time>
      </trkpt>
      <trkpt lat="40.372871942818164825439453125" lon="-1.71798127703368663787841796875">
        <ele>1603.800048828125</ele>
        <time>2022-08-25T07:33:35.000Z</time>
      </trkpt>
      <trkpt lat="40.37253742106258869171142578125" lon="-1.7176945321261882781982421875">
        <ele>1603.5999755859375</ele>
        <time>2022-08-25T07:33:43.000Z</time>
      </trkpt>
      <trkpt lat="40.37216023541986942291259765625" lon="-1.7174873314797878265380859375">
        <ele>1603.4000244140625</ele>
        <time>2022-08-25T07:33:52.000Z</time>
      </trkpt>
      <trkpt lat="40.37174315191805362701416015625" lon="-1.71729597263038158416748046875">
        <ele>1603.4000244140625</ele>
        <time>2022-08-25T07:34:02.000Z</time>
      </trkpt>
      <trkpt lat="40.3714284114539623260498046875" lon="-1.71714979223906993865966796875">
        <ele>1603.800048828125</ele>
        <time>2022-08-25T07:34:11.000Z</time>
      </trkpt>
      <trkpt lat="40.37119447253644466400146484375" lon="-1.71706496737897396087646484375">
        <ele>1604.5999755859375</ele>
        <time>2022-08-25T07:34:18.000Z</time>
      </trkpt>
      <trkpt lat="40.37116362713277339935302734375" lon="-1.717050634324550628662109375">
        <ele>1604.800048828125</ele>
        <time>2022-08-25T07:34:19.000Z</time>
      </trkpt>
      <trkpt lat="40.37089909426867961883544921875" lon="-1.7169611155986785888671875">
        <ele>1605.5999755859375</ele>
        <time>2022-08-25T07:34:27.000Z</time>
      </trkpt>
      <trkpt lat="40.37083379924297332763671875" lon="-1.71694309450685977935791015625">
        <ele>1605.800048828125</ele>
        <time>2022-08-25T07:34:29.000Z</time>
      </trkpt>
      <trkpt lat="40.3707179613411426544189453125" lon="-1.716883666813373565673828125">
        <ele>1606.199951171875</ele>
        <time>2022-08-25T07:34:34.000Z</time>
      </trkpt>
      <trkpt lat="40.370645709335803985595703125" lon="-1.71681753359735012054443359375">
        <ele>1606.5999755859375</ele>
        <time>2022-08-25T07:34:40.000Z</time>
      </trkpt>
      <trkpt lat="40.37058376707136631011962890625" lon="-1.716741509735584259033203125">
        <ele>1607</ele>
        <time>2022-08-25T07:34:46.000Z</time>
      </trkpt>
      <trkpt lat="40.3705141134560108184814453125" lon="-1.71662491746246814727783203125">
        <ele>1607.4000244140625</ele>
        <time>2022-08-25T07:34:52.000Z</time>
      </trkpt>
      <trkpt lat="40.37046222947537899017333984375" lon="-1.7165512405335903167724609375">
        <ele>1607.5999755859375</ele>
        <time>2022-08-25T07:34:55.000Z</time>
      </trkpt>
      <trkpt lat="40.3703384287655353546142578125" lon="-1.71641285531222820281982421875">
        <ele>1608</ele>
        <time>2022-08-25T07:35:00.000Z</time>
      </trkpt>
      <trkpt lat="40.37022954784333705902099609375" lon="-1.71629081480205059051513671875">
        <ele>1608.5999755859375</ele>
        <time>2022-08-25T07:35:05.000Z</time>
      </trkpt>
      <trkpt lat="40.37018361501395702362060546875" lon="-1.71625494025647640228271484375">
        <ele>1608.800048828125</ele>
        <time>2022-08-25T07:35:07.000Z</time>
      </trkpt>
      <trkpt lat="40.36995193921029567718505859375" lon="-1.71607288531959056854248046875">
        <ele>1609.800048828125</ele>
        <time>2022-08-25T07:35:16.000Z</time>
      </trkpt>
      <trkpt lat="40.3697942756116390228271484375" lon="-1.71593659557402133941650390625">
        <ele>1610</ele>
        <time>2022-08-25T07:35:23.000Z</time>
      </trkpt>
      <trkpt lat="40.36968648433685302734375" lon="-1.715832240879535675048828125">
        <ele>1610.5999755859375</ele>
        <time>2022-08-25T07:35:28.000Z</time>
      </trkpt>
      <trkpt lat="40.3696407191455364227294921875" lon="-1.71578974463045597076416015625">
        <ele>1610.800048828125</ele>
        <time>2022-08-25T07:35:30.000Z</time>
      </trkpt>
      <trkpt lat="40.36944148130714893341064453125" lon="-1.71557650901377201080322265625">
        <ele>1611.800048828125</ele>
        <time>2022-08-25T07:35:39.000Z</time>
      </trkpt>
      <trkpt lat="40.36930150352418422698974609375" lon="-1.715409122407436370849609375">
        <ele>1612.4000244140625</ele>
        <time>2022-08-25T07:35:47.000Z</time>
      </trkpt>
      <trkpt lat="40.36923059262335300445556640625" lon="-1.71532697975635528564453125">
        <ele>1612.800048828125</ele>
        <time>2022-08-25T07:35:51.000Z</time>
      </trkpt>
      <trkpt lat="40.369158089160919189453125" lon="-1.715230755507946014404296875">
        <ele>1613.199951171875</ele>
        <time>2022-08-25T07:35:56.000Z</time>
      </trkpt>
      <trkpt lat="40.36905524320900440216064453125" lon="-1.7151135765016078948974609375">
        <ele>1613.800048828125</ele>
        <time>2022-08-25T07:36:03.000Z</time>
      </trkpt>
      <trkpt lat="40.36904166452586650848388671875" lon="-1.71509890817105770111083984375">
        <ele>1613.800048828125</ele>
        <time>2022-08-25T07:36:04.000Z</time>
      </trkpt>
      <trkpt lat="40.36894108168780803680419921875" lon="-1.7149633727967739105224609375">
        <ele>1614.800048828125</ele>
        <time>2022-08-25T07:36:11.000Z</time>
      </trkpt>
      <trkpt lat="40.368801020085811614990234375" lon="-1.7148426733911037445068359375">
        <ele>1615.5999755859375</ele>
        <time>2022-08-25T07:36:19.000Z</time>
      </trkpt>
      <trkpt lat="40.36877059377729892730712890625" lon="-1.71480939723551273345947265625">
        <ele>1615.800048828125</ele>
        <time>2022-08-25T07:36:21.000Z</time>
      </trkpt>
      <trkpt lat="40.368685685098171234130859375" lon="-1.71471820212900638580322265625">
        <ele>1616.5999755859375</ele>
        <time>2022-08-25T07:36:26.000Z</time>
      </trkpt>
      <trkpt lat="40.36864235065877437591552734375" lon="-1.71466053463518619537353515625">
        <ele>1616.800048828125</ele>
        <time>2022-08-25T07:36:29.000Z</time>
      </trkpt>
      <trkpt lat="40.36856356076896190643310546875" lon="-1.71458744443953037261962890625">
        <ele>1617.4000244140625</ele>
        <time>2022-08-25T07:36:33.000Z</time>
      </trkpt>
      <trkpt lat="40.36850723437964916229248046875" lon="-1.71452826820313930511474609375">
        <ele>1617.800048828125</ele>
        <time>2022-08-25T07:36:36.000Z</time>
      </trkpt>
      <trkpt lat="40.368402712047100067138671875" lon="-1.7144333012402057647705078125">
        <ele>1619</ele>
        <time>2022-08-25T07:36:43.000Z</time>
      </trkpt>
      <trkpt lat="40.36830305121839046478271484375" lon="-1.7143665812909603118896484375">
        <ele>1620.199951171875</ele>
        <time>2022-08-25T07:36:49.000Z</time>
      </trkpt>
      <trkpt lat="40.3682654164731502532958984375" lon="-1.7143330536782741546630859375">
        <ele>1620.4000244140625</ele>
        <time>2022-08-25T07:36:51.000Z</time>
      </trkpt>
      <trkpt lat="40.36820263601839542388916015625" lon="-1.7142841033637523651123046875">
        <ele>1621.199951171875</ele>
        <time>2022-08-25T07:36:55.000Z</time>
      </trkpt>
      <trkpt lat="40.3681534342467784881591796875" lon="-1.71424814499914646148681640625">
        <ele>1621.800048828125</ele>
        <time>2022-08-25T07:36:58.000Z</time>
      </trkpt>
      <trkpt lat="40.3681212477385997772216796875" lon="-1.7142237536609172821044921875">
        <ele>1622.199951171875</ele>
        <time>2022-08-25T07:37:00.000Z</time>
      </trkpt>
      <trkpt lat="40.368040613830089569091796875" lon="-1.71414420939981937408447265625">
        <ele>1623.4000244140625</ele>
        <time>2022-08-25T07:37:05.000Z</time>
      </trkpt>
      <trkpt lat="40.368023850023746490478515625" lon="-1.7141313850879669189453125">
        <ele>1623.5999755859375</ele>
        <time>2022-08-25T07:37:06.000Z</time>
      </trkpt>
      <trkpt lat="40.36793139763176441192626953125" lon="-1.71406994573771953582763671875">
        <ele>1624.199951171875</ele>
        <time>2022-08-25T07:37:11.000Z</time>
      </trkpt>
      <trkpt lat="40.36787331104278564453125" lon="-1.7140323109924793243408203125">
        <ele>1624.5999755859375</ele>
        <time>2022-08-25T07:37:14.000Z</time>
      </trkpt>
      <trkpt lat="40.3678047470748424530029296875" lon="-1.71397841535508632659912109375">
        <ele>1625.199951171875</ele>
        <time>2022-08-25T07:37:18.000Z</time>
      </trkpt>
      <trkpt lat="40.3677256219089031219482421875" lon="-1.7138993740081787109375">
        <ele>1626.199951171875</ele>
        <time>2022-08-25T07:37:23.000Z</time>
      </trkpt>
      <trkpt lat="40.367706678807735443115234375" lon="-1.71388353221118450164794921875">
        <ele>1626.4000244140625</ele>
        <time>2022-08-25T07:37:24.000Z</time>
      </trkpt>
      <trkpt lat="40.36759360693395137786865234375" lon="-1.71381890773773193359375">
        <ele>1627.199951171875</ele>
        <time>2022-08-25T07:37:30.000Z</time>
      </trkpt>
      <trkpt lat="40.3675760887563228607177734375" lon="-1.71380943618714809417724609375">
        <ele>1627.5999755859375</ele>
        <time>2022-08-25T07:37:31.000Z</time>
      </trkpt>
      <trkpt lat="40.3674416430294513702392578125" lon="-1.71375713311135768890380859375">
        <ele>1628.5999755859375</ele>
        <time>2022-08-25T07:37:38.000Z</time>
      </trkpt>
      <trkpt lat="40.367420352995395660400390625" lon="-1.7137543670833110809326171875">
        <ele>1628.800048828125</ele>
        <time>2022-08-25T07:37:39.000Z</time>
      </trkpt>
      <trkpt lat="40.36731868050992488861083984375" lon="-1.713739447295665740966796875">
        <ele>1629.4000244140625</ele>
        <time>2022-08-25T07:37:44.000Z</time>
      </trkpt>
      <trkpt lat="40.36726118065416812896728515625" lon="-1.713749505579471588134765625">
        <ele>1629.800048828125</ele>
        <time>2022-08-25T07:37:47.000Z</time>
      </trkpt>
      <trkpt lat="40.367164202034473419189453125" lon="-1.713782362639904022216796875">
        <ele>1630.4000244140625</ele>
        <time>2022-08-25T07:37:53.000Z</time>
      </trkpt>
      <trkpt lat="40.3671234659850597381591796875" lon="-1.71380373649299144744873046875">
        <ele>1630.800048828125</ele>
        <time>2022-08-25T07:37:56.000Z</time>
      </trkpt>
      <trkpt lat="40.3670678101480007171630859375" lon="-1.71386743895709514617919921875">
        <ele>1631.4000244140625</ele>
        <time>2022-08-25T07:38:01.000Z</time>
      </trkpt>
      <trkpt lat="40.3670565783977508544921875" lon="-1.7138873040676116943359375">
        <ele>1631.5999755859375</ele>
        <time>2022-08-25T07:38:02.000Z</time>
      </trkpt>
      <trkpt lat="40.36702514626085758209228515625" lon="-1.71390851028263568878173828125">
        <ele>1631.800048828125</ele>
        <time>2022-08-25T07:38:04.000Z</time>
      </trkpt>
      <trkpt lat="40.366964377462863922119140625" lon="-1.7139409482479095458984375">
        <ele>1632</ele>
        <time>2022-08-25T07:38:08.000Z</time>
      </trkpt>
      <trkpt lat="40.36693009547889232635498046875" lon="-1.71398009173572063446044921875">
        <ele>1632.199951171875</ele>
        <time>2022-08-25T07:38:11.000Z</time>
      </trkpt>
      <trkpt lat="40.3668763674795627593994140625" lon="-1.714010350406169891357421875">
        <ele>1632.5999755859375</ele>
        <time>2022-08-25T07:38:14.000Z</time>
      </trkpt>
      <trkpt lat="40.36686337552964687347412109375" lon="-1.714017055928707122802734375">
        <ele>1632.800048828125</ele>
        <time>2022-08-25T07:38:15.000Z</time>
      </trkpt>
      <trkpt lat="40.3667347133159637451171875" lon="-1.7140869610011577606201171875">
        <ele>1633.199951171875</ele>
        <time>2022-08-25T07:38:22.000Z</time>
      </trkpt>
      <trkpt lat="40.3666892834007740020751953125" lon="-1.71411654911935329437255859375">
        <ele>1633.4000244140625</ele>
        <time>2022-08-25T07:38:24.000Z</time>
      </trkpt>
      <trkpt lat="40.36659548990428447723388671875" lon="-1.71418678946793079376220703125">
        <ele>1634.4000244140625</ele>
        <time>2022-08-25T07:38:29.000Z</time>
      </trkpt>
      <trkpt lat="40.36657369695603847503662109375" lon="-1.71419651247560977935791015625">
        <ele>1634.5999755859375</ele>
        <time>2022-08-25T07:38:30.000Z</time>
      </trkpt>
      <trkpt lat="40.366452075541019439697265625" lon="-1.71431587077677249908447265625">
        <ele>1635.800048828125</ele>
        <time>2022-08-25T07:38:37.000Z</time>
      </trkpt>
      <trkpt lat="40.36634185351431369781494140625" lon="-1.7143957503139972686767578125">
        <ele>1636.4000244140625</ele>
        <time>2022-08-25T07:38:43.000Z</time>
      </trkpt>
      <trkpt lat="40.3662993572652339935302734375" lon="-1.7144162021577358245849609375">
        <ele>1636.800048828125</ele>
        <time>2022-08-25T07:38:45.000Z</time>
      </trkpt>
      <trkpt lat="40.3661984391510486602783203125" lon="-1.7144812457263469696044921875">
        <ele>1637.199951171875</ele>
        <time>2022-08-25T07:38:50.000Z</time>
      </trkpt>
      <trkpt lat="40.36611604504287242889404296875" lon="-1.71451485715806484222412109375">
        <ele>1637.800048828125</ele>
        <time>2022-08-25T07:38:54.000Z</time>
      </trkpt>
      <trkpt lat="40.36600054241716861724853515625" lon="-1.71455986797809600830078125">
        <ele>1639</ele>
        <time>2022-08-25T07:39:00.000Z</time>
      </trkpt>
      <trkpt lat="40.3658514283597469329833984375" lon="-1.71459565870463848114013671875">
        <ele>1639.4000244140625</ele>
        <time>2022-08-25T07:39:07.000Z</time>
      </trkpt>
      <trkpt lat="40.3656469099223613739013671875" lon="-1.7146700061857700347900390625">
        <ele>1639.800048828125</ele>
        <time>2022-08-25T07:39:15.000Z</time>
      </trkpt>
      <trkpt lat="40.36541498266160488128662109375" lon="-1.714702360332012176513671875">
        <ele>1640.5999755859375</ele>
        <time>2022-08-25T07:39:23.000Z</time>
      </trkpt>
      <trkpt lat="40.3651902638375759124755859375" lon="-1.71466539613902568817138671875">
        <ele>1640.800048828125</ele>
        <time>2022-08-25T07:39:30.000Z</time>
      </trkpt>
      <trkpt lat="40.3649783693253993988037109375" lon="-1.7145372368395328521728515625">
        <ele>1640.800048828125</ele>
        <time>2022-08-25T07:39:36.000Z</time>
      </trkpt>
      <trkpt lat="40.36478198133409023284912109375" lon="-1.7143191397190093994140625">
        <ele>1640</ele>
        <time>2022-08-25T07:39:42.000Z</time>
      </trkpt>
      <trkpt lat="40.3646454401314258575439453125" lon="-1.7141469754278659820556640625">
        <ele>1639.800048828125</ele>
        <time>2022-08-25T07:39:45.000Z</time>
      </trkpt>
      <trkpt lat="40.364473275840282440185546875" lon="-1.71398059464991092681884765625">
        <ele>1639.4000244140625</ele>
        <time>2022-08-25T07:39:48.000Z</time>
      </trkpt>
      <trkpt lat="40.36432969383895397186279296875" lon="-1.7138980329036712646484375">
        <ele>1639</ele>
        <time>2022-08-25T07:39:50.000Z</time>
      </trkpt>
      <trkpt lat="40.3642590343952178955078125" lon="-1.7138629965484142303466796875">
        <ele>1638</ele>
        <time>2022-08-25T07:39:51.000Z</time>
      </trkpt>
      <trkpt lat="40.36387975327670574188232421875" lon="-1.71368471346795558929443359375">
        <ele>1636.800048828125</ele>
        <time>2022-08-25T07:39:56.000Z</time>
      </trkpt>
      <trkpt lat="40.3638069145381450653076171875" lon="-1.71365772373974323272705078125">
        <ele>1636.5999755859375</ele>
        <time>2022-08-25T07:39:57.000Z</time>
      </trkpt>
      <trkpt lat="40.36357616074383258819580078125" lon="-1.71360366046428680419921875">
        <ele>1636</ele>
        <time>2022-08-25T07:40:01.000Z</time>
      </trkpt>
      <trkpt lat="40.363482534885406494140625" lon="-1.713580526411533355712890625">
        <ele>1635.800048828125</ele>
        <time>2022-08-25T07:40:03.000Z</time>
      </trkpt>
      <trkpt lat="40.363293103873729705810546875" lon="-1.7135790176689624786376953125">
        <ele>1635.5999755859375</ele>
        <time>2022-08-25T07:40:08.000Z</time>
      </trkpt>
      <trkpt lat="40.36300267092883586883544921875" lon="-1.71358865685760974884033203125">
        <ele>1635.800048828125</ele>
        <time>2022-08-25T07:40:17.000Z</time>
      </trkpt>
      <trkpt lat="40.362761355936527252197265625" lon="-1.71357591636478900909423828125">
        <ele>1635.5999755859375</ele>
        <time>2022-08-25T07:40:24.000Z</time>
      </trkpt>
      <trkpt lat="40.3624631278216838836669921875" lon="-1.71354389749467372894287109375">
        <ele>1635.5999755859375</ele>
        <time>2022-08-25T07:40:32.000Z</time>
      </trkpt>
      <trkpt lat="40.36212743259966373443603515625" lon="-1.71346343122422695159912109375">
        <ele>1635.4000244140625</ele>
        <time>2022-08-25T07:40:40.000Z</time>
      </trkpt>
      <trkpt lat="40.361793078482151031494140625" lon="-1.7133463360369205474853515625">
        <ele>1635.199951171875</ele>
        <time>2022-08-25T07:40:46.000Z</time>
      </trkpt>
      <trkpt lat="40.36150063388049602508544921875" lon="-1.713243909180164337158203125">
        <ele>1634.199951171875</ele>
        <time>2022-08-25T07:40:51.000Z</time>
      </trkpt>
      <trkpt lat="40.3613885678350925445556640625" lon="-1.71320862136781215667724609375">
        <ele>1634</ele>
        <time>2022-08-25T07:40:53.000Z</time>
      </trkpt>
      <trkpt lat="40.36110819317400455474853515625" lon="-1.71311876736581325531005859375">
        <ele>1633.199951171875</ele>
        <time>2022-08-25T07:40:58.000Z</time>
      </trkpt>
      <trkpt lat="40.3609952889382839202880859375" lon="-1.71310418285429477691650390625">
        <ele>1632.800048828125</ele>
        <time>2022-08-25T07:41:00.000Z</time>
      </trkpt>
      <trkpt lat="40.360826142132282257080078125" lon="-1.71311390586197376251220703125">
        <ele>1632.199951171875</ele>
        <time>2022-08-25T07:41:03.000Z</time>
      </trkpt>
      <trkpt lat="40.360685326159000396728515625" lon="-1.71311474405229091644287109375">
        <ele>1631.800048828125</ele>
        <time>2022-08-25T07:41:06.000Z</time>
      </trkpt>
      <trkpt lat="40.36040646024048328399658203125" lon="-1.713081300258636474609375">
        <ele>1631.5999755859375</ele>
        <time>2022-08-25T07:41:13.000Z</time>
      </trkpt>
      <trkpt lat="40.3601591102778911590576171875" lon="-1.71307870186865329742431640625">
        <ele>1632</ele>
        <time>2022-08-25T07:41:20.000Z</time>
      </trkpt>
      <trkpt lat="40.35981553606688976287841796875" lon="-1.712983734905719757080078125">
        <ele>1632.199951171875</ele>
        <time>2022-08-25T07:41:29.000Z</time>
      </trkpt>
      <trkpt lat="40.3596598841249942779541015625" lon="-1.712927408516407012939453125">
        <ele>1632.199951171875</ele>
        <time>2022-08-25T07:41:34.000Z</time>
      </trkpt>
      <trkpt lat="40.35960179753601551055908203125" lon="-1.7129067890346050262451171875">
        <ele>1632</ele>
        <time>2022-08-25T07:41:39.000Z</time>
      </trkpt>
      <trkpt lat="40.35960204899311065673828125" lon="-1.71292481012642383575439453125">
        <ele>1631.199951171875</ele>
        <time>2022-08-25T07:41:42.000Z</time>
      </trkpt>
      <trkpt lat="40.3596970997750759124755859375" lon="-1.71297962777316570281982421875">
        <ele>1631</ele>
        <time>2022-08-25T07:42:02.000Z</time>
      </trkpt>
      <trkpt lat="40.359711684286594390869140625" lon="-1.71298935078084468841552734375">
        <ele>1631</ele>
        <time>2022-08-25T07:42:03.000Z</time>
      </trkpt>
      <trkpt lat="40.3598637320101261138916015625" lon="-1.71304014511406421661376953125">
        <ele>1631.4000244140625</ele>
        <time>2022-08-25T07:42:10.000Z</time>
      </trkpt>
      <trkpt lat="40.359876640141010284423828125" lon="-1.71306394971907138824462890625">
        <ele>1631.800048828125</ele>
        <time>2022-08-25T07:42:15.000Z</time>
      </trkpt>
      <trkpt lat="40.35984671674668788909912109375" lon="-1.713054142892360687255859375">
        <ele>1632.199951171875</ele>
        <time>2022-08-25T07:45:32.000Z</time>
      </trkpt>
      <trkpt lat="40.35978988744318485260009765625" lon="-1.71304383315145969390869140625">
        <ele>1632.199951171875</ele>
        <time>2022-08-25T07:45:35.000Z</time>
      </trkpt>
      <trkpt lat="40.359635911881923675537109375" lon="-1.7129681445658206939697265625">
        <ele>1632.199951171875</ele>
        <time>2022-08-25T07:45:41.000Z</time>
      </trkpt>
      <trkpt lat="40.359432399272918701171875" lon="-1.712857671082019805908203125">
        <ele>1631.800048828125</ele>
        <time>2022-08-25T07:45:48.000Z</time>
      </trkpt>
      <trkpt lat="40.35923936404287815093994140625" lon="-1.71271107159554958343505859375">
        <ele>1631.4000244140625</ele>
        <time>2022-08-25T07:45:54.000Z</time>
      </trkpt>
      <trkpt lat="40.35913039930164813995361328125" lon="-1.7126234807074069976806640625">
        <ele>1631</ele>
        <time>2022-08-25T07:45:57.000Z</time>
      </trkpt>
      <trkpt lat="40.35898371599614620208740234375" lon="-1.7125068046152591705322265625">
        <ele>1630.5999755859375</ele>
        <time>2022-08-25T07:46:01.000Z</time>
      </trkpt>
      <trkpt lat="40.35873125307261943817138671875" lon="-1.71230907551944255828857421875">
        <ele>1630.4000244140625</ele>
        <time>2022-08-25T07:46:08.000Z</time>
      </trkpt>
      <trkpt lat="40.3584270738065242767333984375" lon="-1.71203666366636753082275390625">
        <ele>1630</ele>
        <time>2022-08-25T07:46:15.000Z</time>
      </trkpt>
      <trkpt lat="40.358285419642925262451171875" lon="-1.71185913495719432830810546875">
        <ele>1630</ele>
        <time>2022-08-25T07:46:18.000Z</time>
      </trkpt>
      <trkpt lat="40.35813513211905956268310546875" lon="-1.71164439059793949127197265625">
        <ele>1629.4000244140625</ele>
        <time>2022-08-25T07:46:21.000Z</time>
      </trkpt>
      <trkpt lat="40.3579117543995380401611328125" lon="-1.71133191324770450592041015625">
        <ele>1628.800048828125</ele>
        <time>2022-08-25T07:46:25.000Z</time>
      </trkpt>
      <trkpt lat="40.35774067975580692291259765625" lon="-1.711106188595294952392578125">
        <ele>1627.800048828125</ele>
        <time>2022-08-25T07:46:28.000Z</time>
      </trkpt>
      <trkpt lat="40.35768569447100162506103515625" lon="-1.71102882362902164459228515625">
        <ele>1627.4000244140625</ele>
        <time>2022-08-25T07:46:29.000Z</time>
      </trkpt>
      <trkpt lat="40.35755627788603305816650390625" lon="-1.71064275316894054412841796875">
        <ele>1626.4000244140625</ele>
        <time>2022-08-25T07:46:33.000Z</time>
      </trkpt>
      <trkpt lat="40.3575349040329456329345703125" lon="-1.7105440981686115264892578125">
        <ele>1626</ele>
        <time>2022-08-25T07:46:34.000Z</time>
      </trkpt>
      <trkpt lat="40.35743859596550464630126953125" lon="-1.71017705462872982025146484375">
        <ele>1625.199951171875</ele>
        <time>2022-08-25T07:46:38.000Z</time>
      </trkpt>
      <trkpt lat="40.357331223785877227783203125" lon="-1.7098413594067096710205078125">
        <ele>1624.5999755859375</ele>
        <time>2022-08-25T07:46:42.000Z</time>
      </trkpt>
      <trkpt lat="40.35727129317820072174072265625" lon="-1.70968268997967243194580078125">
        <ele>1624.199951171875</ele>
        <time>2022-08-25T07:46:44.000Z</time>
      </trkpt>
      <trkpt lat="40.35709510557353496551513671875" lon="-1.7091604135930538177490234375">
        <ele>1623.5999755859375</ele>
        <time>2022-08-25T07:46:51.000Z</time>
      </trkpt>
      <trkpt lat="40.3569391183555126190185546875" lon="-1.70876093208789825439453125">
        <ele>1623.5999755859375</ele>
        <time>2022-08-25T07:46:57.000Z</time>
      </trkpt>
      <trkpt lat="40.35688899457454681396484375" lon="-1.70869831927120685577392578125">
        <ele>1623.5999755859375</ele>
        <time>2022-08-25T07:46:58.000Z</time>
      </trkpt>
      <trkpt lat="40.356690175831317901611328125" lon="-1.70853420160710811614990234375">
        <ele>1623.4000244140625</ele>
        <time>2022-08-25T07:47:01.000Z</time>
      </trkpt>
      <trkpt lat="40.3563839010894298553466796875" lon="-1.70847267843782901763916015625">
        <ele>1623</ele>
        <time>2022-08-25T07:47:05.000Z</time>
      </trkpt>
      <trkpt lat="40.35630603320896625518798828125" lon="-1.70847502537071704864501953125">
        <ele>1622.5999755859375</ele>
        <time>2022-08-25T07:47:06.000Z</time>
      </trkpt>
      <trkpt lat="40.35614325664937496185302734375" lon="-1.7084630392491817474365234375">
        <ele>1621.5999755859375</ele>
        <time>2022-08-25T07:47:08.000Z</time>
      </trkpt>
      <trkpt lat="40.35589347593486309051513671875" lon="-1.708405204117298126220703125">
        <ele>1620.5999755859375</ele>
        <time>2022-08-25T07:47:11.000Z</time>
      </trkpt>
      <trkpt lat="40.355809740722179412841796875" lon="-1.70837997458875179290771484375">
        <ele>1620.4000244140625</ele>
        <time>2022-08-25T07:47:12.000Z</time>
      </trkpt>
      <trkpt lat="40.3554749675095081329345703125" lon="-1.7082420922815799713134765625">
        <ele>1619.4000244140625</ele>
        <time>2022-08-25T07:47:16.000Z</time>
      </trkpt>
      <trkpt lat="40.3552396036684513092041015625" lon="-1.70810823328793048858642578125">
        <ele>1618.4000244140625</ele>
        <time>2022-08-25T07:47:19.000Z</time>
      </trkpt>
      <trkpt lat="40.35516307689249515533447265625" lon="-1.70806598849594593048095703125">
        <ele>1618.199951171875</ele>
        <time>2022-08-25T07:47:20.000Z</time>
      </trkpt>
      <trkpt lat="40.35493408329784870147705078125" lon="-1.70793154276907444000244140625">
        <ele>1617</ele>
        <time>2022-08-25T07:47:23.000Z</time>
      </trkpt>
      <trkpt lat="40.35469654016196727752685546875" lon="-1.70780246146023273468017578125">
        <ele>1615.800048828125</ele>
        <time>2022-08-25T07:47:26.000Z</time>
      </trkpt>
      <trkpt lat="40.35444684326648712158203125" lon="-1.70768477953970432281494140625">
        <ele>1615</ele>
        <time>2022-08-25T07:47:29.000Z</time>
      </trkpt>
      <trkpt lat="40.35420452244579792022705078125" lon="-1.7076082527637481689453125">
        <ele>1614</ele>
        <time>2022-08-25T07:47:32.000Z</time>
      </trkpt>
      <trkpt lat="40.35396496765315532684326171875" lon="-1.70755033381283283233642578125">
        <ele>1613</ele>
        <time>2022-08-25T07:47:35.000Z</time>
      </trkpt>
      <trkpt lat="40.35388483665883541107177734375" lon="-1.70753440819680690765380859375">
        <ele>1612.5999755859375</ele>
        <time>2022-08-25T07:47:36.000Z</time>
      </trkpt>
      <trkpt lat="40.353647209703922271728515625" lon="-1.70749224722385406494140625">
        <ele>1611.5999755859375</ele>
        <time>2022-08-25T07:47:39.000Z</time>
      </trkpt>
      <trkpt lat="40.3531816788017749786376953125" lon="-1.70739426277577877044677734375">
        <ele>1610.800048828125</ele>
        <time>2022-08-25T07:47:45.000Z</time>
      </trkpt>
      <trkpt lat="40.35310414619743824005126953125" lon="-1.70737112872302532196044921875">
        <ele>1610.5999755859375</ele>
        <time>2022-08-25T07:47:46.000Z</time>
      </trkpt>
      <trkpt lat="40.35267365165054798126220703125" lon="-1.7072168178856372833251953125">
        <ele>1609.4000244140625</ele>
        <time>2022-08-25T07:47:52.000Z</time>
      </trkpt>
      <trkpt lat="40.35260927863419055938720703125" lon="-1.70718421228229999542236328125">
        <ele>1609</ele>
        <time>2022-08-25T07:47:53.000Z</time>
      </trkpt>
      <trkpt lat="40.35237005911767482757568359375" lon="-1.707037277519702911376953125">
        <ele>1608.4000244140625</ele>
        <time>2022-08-25T07:47:57.000Z</time>
      </trkpt>
      <trkpt lat="40.35225086845457553863525390625" lon="-1.7069556377828121185302734375">
        <ele>1608</ele>
        <time>2022-08-25T07:47:59.000Z</time>
      </trkpt>
      <trkpt lat="40.3521426580846309661865234375" lon="-1.70686905272305011749267578125">
        <ele>1607.199951171875</ele>
        <time>2022-08-25T07:48:01.000Z</time>
      </trkpt>
      <trkpt lat="40.3517500497400760650634765625" lon="-1.70656931586563587188720703125">
        <ele>1606</ele>
        <time>2022-08-25T07:48:08.000Z</time>
      </trkpt>
      <trkpt lat="40.35169095732271671295166015625" lon="-1.70651902444660663604736328125">
        <ele>1605.800048828125</ele>
        <time>2022-08-25T07:48:09.000Z</time>
      </trkpt>
      <trkpt lat="40.3514774702489376068115234375" lon="-1.70636127702891826629638671875">
        <ele>1605.4000244140625</ele>
        <time>2022-08-25T07:48:13.000Z</time>
      </trkpt>
      <trkpt lat="40.35142340697348117828369140625" lon="-1.706347279250621795654296875">
        <ele>1605.199951171875</ele>
        <time>2022-08-25T07:48:14.000Z</time>
      </trkpt>
      <trkpt lat="40.351282842457294464111328125" lon="-1.70639765448868274688720703125">
        <ele>1604.4000244140625</ele>
        <time>2022-08-25T07:48:17.000Z</time>
      </trkpt>
      <trkpt lat="40.3511495701968669891357421875" lon="-1.70645892620086669921875">
        <ele>1603.199951171875</ele>
        <time>2022-08-25T07:48:20.000Z</time>
      </trkpt>
      <trkpt lat="40.3510067425668239593505859375" lon="-1.706516928970813751220703125">
        <ele>1602.199951171875</ele>
        <time>2022-08-25T07:48:24.000Z</time>
      </trkpt>
      <trkpt lat="40.3509510867297649383544921875" lon="-1.70654517598450183868408203125">
        <ele>1602.199951171875</ele>
        <time>2022-08-25T07:48:26.000Z</time>
      </trkpt>
      <trkpt lat="40.35081203095614910125732421875" lon="-1.706613488495349884033203125">
        <ele>1602.199951171875</ele>
        <time>2022-08-25T07:48:31.000Z</time>
      </trkpt>
      <trkpt lat="40.3507556207478046417236328125" lon="-1.706640310585498809814453125">
        <ele>1602.4000244140625</ele>
        <time>2022-08-25T07:48:34.000Z</time>
      </trkpt>
      <trkpt lat="40.35060164518654346466064453125" lon="-1.7067061923444271087646484375">
        <ele>1603</ele>
        <time>2022-08-25T07:48:41.000Z</time>
      </trkpt>
      <trkpt lat="40.3503687120974063873291015625" lon="-1.7067970521748065948486328125">
        <ele>1604.199951171875</ele>
        <time>2022-08-25T07:48:49.000Z</time>
      </trkpt>
      <trkpt lat="40.35034331493079662322998046875" lon="-1.70680300332605838775634765625">
        <ele>1604.199951171875</ele>
        <time>2022-08-25T07:48:50.000Z</time>
      </trkpt>
      <trkpt lat="40.3501050174236297607421875" lon="-1.7068369500339031219482421875">
        <ele>1605.199951171875</ele>
        <time>2022-08-25T07:48:58.000Z</time>
      </trkpt>
      <trkpt lat="40.35006947815418243408203125" lon="-1.70683686621487140655517578125">
        <ele>1605.199951171875</ele>
        <time>2022-08-25T07:48:59.000Z</time>
      </trkpt>
      <trkpt lat="40.349708385765552520751953125" lon="-1.7068543843924999237060546875">
        <ele>1605.4000244140625</ele>
        <time>2022-08-25T07:49:08.000Z</time>
      </trkpt>
      <trkpt lat="40.3496632911264896392822265625" lon="-1.70685195364058017730712890625">
        <ele>1605.4000244140625</ele>
        <time>2022-08-25T07:49:09.000Z</time>
      </trkpt>
      <trkpt lat="40.3494614548981189727783203125" lon="-1.70684927143156528472900390625">
        <ele>1605.4000244140625</ele>
        <time>2022-08-25T07:49:13.000Z</time>
      </trkpt>
      <trkpt lat="40.3490884602069854736328125" lon="-1.70681742019951343536376953125">
        <ele>1604</ele>
        <time>2022-08-25T07:49:20.000Z</time>
      </trkpt>
      <trkpt lat="40.34877933561801910400390625" lon="-1.70677718706429004669189453125">
        <ele>1603.800048828125</ele>
        <time>2022-08-25T07:49:26.000Z</time>
      </trkpt>
      <trkpt lat="40.34831405617296695709228515625" lon="-1.70679043047130107879638671875">
        <ele>1603.800048828125</ele>
        <time>2022-08-25T07:49:36.000Z</time>
      </trkpt>
      <trkpt lat="40.34802957437932491302490234375" lon="-1.7068302445113658905029296875">
        <ele>1604.199951171875</ele>
        <time>2022-08-25T07:49:43.000Z</time>
      </trkpt>
      <trkpt lat="40.3479905985295772552490234375" lon="-1.7068295739591121673583984375">
        <ele>1604.199951171875</ele>
        <time>2022-08-25T07:49:44.000Z</time>
      </trkpt>
      <trkpt lat="40.34765951335430145263671875" lon="-1.70685446821153163909912109375">
        <ele>1604.4000244140625</ele>
        <time>2022-08-25T07:49:52.000Z</time>
      </trkpt>
      <trkpt lat="40.3476147539913654327392578125" lon="-1.70685798861086368560791015625">
        <ele>1604.4000244140625</ele>
        <time>2022-08-25T07:49:53.000Z</time>
      </trkpt>
      <trkpt lat="40.347313843667507171630859375" lon="-1.7068617604672908782958984375">
        <ele>1604.4000244140625</ele>
        <time>2022-08-25T07:50:01.000Z</time>
      </trkpt>
      <trkpt lat="40.3472082316875457763671875" lon="-1.70684809796512126922607421875">
        <ele>1604.800048828125</ele>
        <time>2022-08-25T07:50:06.000Z</time>
      </trkpt>
      <trkpt lat="40.3471604548394680023193359375" lon="-1.70685145072638988494873046875">
        <ele>1605.199951171875</ele>
        <time>2022-08-25T07:50:09.000Z</time>
      </trkpt>
      <trkpt lat="40.3470779769122600555419921875" lon="-1.70685916207730770111083984375">
        <ele>1606</ele>
        <time>2022-08-25T07:50:14.000Z</time>
      </trkpt>
      <trkpt lat="40.34700773656368255615234375" lon="-1.7068614251911640167236328125">
        <ele>1606.800048828125</ele>
        <time>2022-08-25T07:50:18.000Z</time>
      </trkpt>
      <trkpt lat="40.3469901345670223236083984375" lon="-1.70686167664825916290283203125">
        <ele>1607</ele>
        <time>2022-08-25T07:50:19.000Z</time>
      </trkpt>
      <trkpt lat="40.346879325807094573974609375" lon="-1.70688179321587085723876953125">
        <ele>1608.199951171875</ele>
        <time>2022-08-25T07:50:25.000Z</time>
      </trkpt>
      <trkpt lat="40.34682006575167179107666015625" lon="-1.7068869061768054962158203125">
        <ele>1608.5999755859375</ele>
        <time>2022-08-25T07:50:28.000Z</time>
      </trkpt>
      <trkpt lat="40.346722416579723358154296875" lon="-1.70689671300351619720458984375">
        <ele>1609.199951171875</ele>
        <time>2022-08-25T07:50:33.000Z</time>
      </trkpt>
      <trkpt lat="40.346618480980396270751953125" lon="-1.70690157450735569000244140625">
        <ele>1609.800048828125</ele>
        <time>2022-08-25T07:50:38.000Z</time>
      </trkpt>
      <trkpt lat="40.3465415351092815399169921875" lon="-1.7069063521921634674072265625">
        <ele>1610.199951171875</ele>
        <time>2022-08-25T07:50:42.000Z</time>
      </trkpt>
      <trkpt lat="40.3464553691446781158447265625" lon="-1.7069395445287227630615234375">
        <ele>1610.800048828125</ele>
        <time>2022-08-25T07:50:47.000Z</time>
      </trkpt>
      <trkpt lat="40.346353948116302490234375" lon="-1.707013808190822601318359375">
        <ele>1611.4000244140625</ele>
        <time>2022-08-25T07:50:53.000Z</time>
      </trkpt>
      <trkpt lat="40.34626132808625698089599609375" lon="-1.707086898386478424072265625">
        <ele>1612.199951171875</ele>
        <time>2022-08-25T07:50:59.000Z</time>
      </trkpt>
      <trkpt lat="40.34618974663317203521728515625" lon="-1.70715252868831157684326171875">
        <ele>1612.5999755859375</ele>
        <time>2022-08-25T07:51:04.000Z</time>
      </trkpt>
      <trkpt lat="40.34611129201948642730712890625" lon="-1.70722377486526966094970703125">
        <ele>1613.199951171875</ele>
        <time>2022-08-25T07:51:09.000Z</time>
      </trkpt>
      <trkpt lat="40.34596293233335018157958984375" lon="-1.7072979547083377838134765625">
        <ele>1613.5999755859375</ele>
        <time>2022-08-25T07:51:16.000Z</time>
      </trkpt>
      <trkpt lat="40.34592119045555591583251953125" lon="-1.70731429941952228546142578125">
        <ele>1613.5999755859375</ele>
        <time>2022-08-25T07:51:18.000Z</time>
      </trkpt>
      <trkpt lat="40.3457117266952991485595703125" lon="-1.7073951847851276397705078125">
        <ele>1614.4000244140625</ele>
        <time>2022-08-25T07:51:27.000Z</time>
      </trkpt>
      <trkpt lat="40.34561541862785816192626953125" lon="-1.7074350826442241668701171875">
        <ele>1614.5999755859375</ele>
        <time>2022-08-25T07:51:31.000Z</time>
      </trkpt>
      <trkpt lat="40.345548279583454132080078125" lon="-1.70746450312435626983642578125">
        <ele>1614.800048828125</ele>
        <time>2022-08-25T07:51:35.000Z</time>
      </trkpt>
      <trkpt lat="40.3454554080963134765625" lon="-1.70748763717710971832275390625">
        <ele>1615.5999755859375</ele>
        <time>2022-08-25T07:51:41.000Z</time>
      </trkpt>
      <trkpt lat="40.34542196430265903472900390625" lon="-1.7074954323470592498779296875">
        <ele>1615.800048828125</ele>
        <time>2022-08-25T07:51:43.000Z</time>
      </trkpt>
      <trkpt lat="40.3453000076115131378173828125" lon="-1.7075551114976406097412109375">
        <ele>1616.800048828125</ele>
        <time>2022-08-25T07:51:50.000Z</time>
      </trkpt>
      <trkpt lat="40.34527259878814220428466796875" lon="-1.70756525360047817230224609375">
        <ele>1617</ele>
        <time>2022-08-25T07:51:52.000Z</time>
      </trkpt>
      <trkpt lat="40.3451373986899852752685546875" lon="-1.70760691165924072265625">
        <ele>1617.5999755859375</ele>
        <time>2022-08-25T07:52:00.000Z</time>
      </trkpt>
      <trkpt lat="40.3449999354779720306396484375" lon="-1.70765242539346218109130859375">
        <ele>1618.5999755859375</ele>
        <time>2022-08-25T07:52:07.000Z</time>
      </trkpt>
      <trkpt lat="40.344980992376804351806640625" lon="-1.70765795744955539703369140625">
        <ele>1618.800048828125</ele>
        <time>2022-08-25T07:52:08.000Z</time>
      </trkpt>
      <trkpt lat="40.34478862769901752471923828125" lon="-1.70769517309963703155517578125">
        <ele>1619.800048828125</ele>
        <time>2022-08-25T07:52:15.000Z</time>
      </trkpt>
      <trkpt lat="40.3447642363607883453369140625" lon="-1.70769651420414447784423828125">
        <ele>1620</ele>
        <time>2022-08-25T07:52:16.000Z</time>
      </trkpt>
      <trkpt lat="40.344646386802196502685546875" lon="-1.70768863521516323089599609375">
        <ele>1620.800048828125</ele>
        <time>2022-08-25T07:52:21.000Z</time>
      </trkpt>
      <trkpt lat="40.344556532800197601318359375" lon="-1.70766784809529781341552734375">
        <ele>1621.199951171875</ele>
        <time>2022-08-25T07:52:25.000Z</time>
      </trkpt>
      <trkpt lat="40.344495512545108795166015625" lon="-1.7076422832906246185302734375">
        <ele>1622</ele>
        <time>2022-08-25T07:52:28.000Z</time>
      </trkpt>
      <trkpt lat="40.34439585171639919281005859375" lon="-1.7076027207076549530029296875">
        <ele>1622.800048828125</ele>
        <time>2022-08-25T07:52:33.000Z</time>
      </trkpt>
      <trkpt lat="40.34429736435413360595703125" lon="-1.7075519263744354248046875">
        <ele>1623.4000244140625</ele>
        <time>2022-08-25T07:52:38.000Z</time>
      </trkpt>
      <trkpt lat="40.34425755031406879425048828125" lon="-1.70752921141684055328369140625">
        <ele>1623.800048828125</ele>
        <time>2022-08-25T07:52:40.000Z</time>
      </trkpt>
      <trkpt lat="40.34415763802826404571533203125" lon="-1.70744790695607662200927734375">
        <ele>1624.5999755859375</ele>
        <time>2022-08-25T07:52:44.000Z</time>
      </trkpt>
      <trkpt lat="40.34408270381391048431396484375" lon="-1.70740733854472637176513671875">
        <ele>1625</ele>
        <time>2022-08-25T07:52:47.000Z</time>
      </trkpt>
      <trkpt lat="40.34392244182527065277099609375" lon="-1.707310862839221954345703125">
        <ele>1625.4000244140625</ele>
        <time>2022-08-25T07:52:53.000Z</time>
      </trkpt>
      <trkpt lat="40.343666039407253265380859375" lon="-1.70714632607996463775634765625">
        <ele>1625.5999755859375</ele>
        <time>2022-08-25T07:53:00.000Z</time>
      </trkpt>
      <trkpt lat="40.34331995062530040740966796875" lon="-1.70695086009800434112548828125">
        <ele>1625</ele>
        <time>2022-08-25T07:53:07.000Z</time>
      </trkpt>
      <trkpt lat="40.34294377081096172332763671875" lon="-1.7066900990903377532958984375">
        <ele>1623.5999755859375</ele>
        <time>2022-08-25T07:53:14.000Z</time>
      </trkpt>
      <trkpt lat="40.342658869922161102294921875" lon="-1.70652790926396846771240234375">
        <ele>1623</ele>
        <time>2022-08-25T07:53:21.000Z</time>
      </trkpt>
      <trkpt lat="40.3424421139061450958251953125" lon="-1.7063786275684833526611328125">
        <ele>1623.5999755859375</ele>
        <time>2022-08-25T07:53:29.000Z</time>
      </trkpt>
      <trkpt lat="40.3421799279749393463134765625" lon="-1.70622331090271472930908203125">
        <ele>1624.5999755859375</ele>
        <time>2022-08-25T07:53:39.000Z</time>
      </trkpt>
      <trkpt lat="40.34215671010315418243408203125" lon="-1.70620420016348361968994140625">
        <ele>1624.800048828125</ele>
        <time>2022-08-25T07:53:40.000Z</time>
      </trkpt>
      <trkpt lat="40.34187373705208301544189453125" lon="-1.70601443387567996978759765625">
        <ele>1625.5999755859375</ele>
        <time>2022-08-25T07:53:51.000Z</time>
      </trkpt>
      <trkpt lat="40.3418185003101825714111328125" lon="-1.70598325319588184356689453125">
        <ele>1626</ele>
        <time>2022-08-25T07:53:53.000Z</time>
      </trkpt>
      <trkpt lat="40.34154952503740787506103515625" lon="-1.70583254657685756683349609375">
        <ele>1626.800048828125</ele>
        <time>2022-08-25T07:54:03.000Z</time>
      </trkpt>
      <trkpt lat="40.341497473418712615966796875" lon="-1.70580438338220119476318359375">
        <ele>1627</ele>
        <time>2022-08-25T07:54:05.000Z</time>
      </trkpt>
      <trkpt lat="40.341280214488506317138671875" lon="-1.705678068101406097412109375">
        <ele>1627.800048828125</ele>
        <time>2022-08-25T07:54:14.000Z</time>
      </trkpt>
      <trkpt lat="40.34120745956897735595703125" lon="-1.70563339255750179290771484375">
        <ele>1628.199951171875</ele>
        <time>2022-08-25T07:54:17.000Z</time>
      </trkpt>
      <trkpt lat="40.34108567051589488983154296875" lon="-1.705549322068691253662109375">
        <ele>1628.800048828125</ele>
        <time>2022-08-25T07:54:22.000Z</time>
      </trkpt>
      <trkpt lat="40.3409152664244174957275390625" lon="-1.70540825463831424713134765625">
        <ele>1629.5999755859375</ele>
        <time>2022-08-25T07:54:29.000Z</time>
      </trkpt>
      <trkpt lat="40.34086120314896106719970703125" lon="-1.7053684405982494354248046875">
        <ele>1629.800048828125</ele>
        <time>2022-08-25T07:54:31.000Z</time>
      </trkpt>
      <trkpt lat="40.340690128505229949951171875" lon="-1.70525553636252880096435546875">
        <ele>1630</ele>
        <time>2022-08-25T07:54:36.000Z</time>
      </trkpt>
      <trkpt lat="40.3404036350548267364501953125" lon="-1.7050854675471782684326171875">
        <ele>1630</ele>
        <time>2022-08-25T07:54:42.000Z</time>
      </trkpt>
      <trkpt lat="40.33998680301010608673095703125" lon="-1.7048661969602108001708984375">
        <ele>1629</ele>
        <time>2022-08-25T07:54:49.000Z</time>
      </trkpt>
      <trkpt lat="40.33982402645051479339599609375" lon="-1.704674921929836273193359375">
        <ele>1628.4000244140625</ele>
        <time>2022-08-25T07:54:52.000Z</time>
      </trkpt>
      <trkpt lat="40.33976937644183635711669921875" lon="-1.7045962996780872344970703125">
        <ele>1628.199951171875</ele>
        <time>2022-08-25T07:54:53.000Z</time>
      </trkpt>
      <trkpt lat="40.33961699344217777252197265625" lon="-1.70433805324137210845947265625">
        <ele>1627.4000244140625</ele>
        <time>2022-08-25T07:54:56.000Z</time>
      </trkpt>
      <trkpt lat="40.3394635207951068878173828125" lon="-1.70408994890749454498291015625">
        <ele>1626.4000244140625</ele>
        <time>2022-08-25T07:54:59.000Z</time>
      </trkpt>
      <trkpt lat="40.33941046334803104400634765625" lon="-1.7040072195231914520263671875">
        <ele>1625.800048828125</ele>
        <time>2022-08-25T07:55:00.000Z</time>
      </trkpt>
      <trkpt lat="40.339308120310306549072265625" lon="-1.7038456164300441741943359375">
        <ele>1625.199951171875</ele>
        <time>2022-08-25T07:55:02.000Z</time>
      </trkpt>
      <trkpt lat="40.33921164460480213165283203125" lon="-1.70368979685008525848388671875">
        <ele>1624.199951171875</ele>
        <time>2022-08-25T07:55:04.000Z</time>
      </trkpt>
      <trkpt lat="40.33907267265021800994873046875" lon="-1.70346759259700775146484375">
        <ele>1623.199951171875</ele>
        <time>2022-08-25T07:55:07.000Z</time>
      </trkpt>
      <trkpt lat="40.33878198824822902679443359375" lon="-1.70288982801139354705810546875">
        <ele>1622.800048828125</ele>
        <time>2022-08-25T07:55:15.000Z</time>
      </trkpt>
      <trkpt lat="40.33847889862954616546630859375" lon="-1.70233301818370819091796875">
        <ele>1623</ele>
        <time>2022-08-25T07:55:24.000Z</time>
      </trkpt>
      <trkpt lat="40.33809869550168514251708984375" lon="-1.7017612047493457794189453125">
        <ele>1622.199951171875</ele>
        <time>2022-08-25T07:55:33.000Z</time>
      </trkpt>
      <trkpt lat="40.3380590490996837615966796875" lon="-1.70169691555202007293701171875">
        <ele>1622</ele>
        <time>2022-08-25T07:55:34.000Z</time>
      </trkpt>
      <trkpt lat="40.33781471662223339080810546875" lon="-1.7012713663280010223388671875">
        <ele>1621.199951171875</ele>
        <time>2022-08-25T07:55:41.000Z</time>
      </trkpt>
      <trkpt lat="40.33775520510971546173095703125" lon="-1.7011580429971218109130859375">
        <ele>1621</ele>
        <time>2022-08-25T07:55:43.000Z</time>
      </trkpt>
      <trkpt lat="40.33762763254344463348388671875" lon="-1.70096199028193950653076171875">
        <ele>1620.800048828125</ele>
        <time>2022-08-25T07:55:47.000Z</time>
      </trkpt>
      <trkpt lat="40.33738128840923309326171875" lon="-1.70056820847094058990478515625">
        <ele>1620.5999755859375</ele>
        <time>2022-08-25T07:55:56.000Z</time>
      </trkpt>
      <trkpt lat="40.3371460922062397003173828125" lon="-1.7001797072589397430419921875">
        <ele>1621</ele>
        <time>2022-08-25T07:56:05.000Z</time>
      </trkpt>
      <trkpt lat="40.3369380533695220947265625" lon="-1.69981718994677066802978515625">
        <ele>1621.5999755859375</ele>
        <time>2022-08-25T07:56:14.000Z</time>
      </trkpt>
      <trkpt lat="40.3368419967591762542724609375" lon="-1.69969498179852962493896484375">
        <ele>1622</ele>
        <time>2022-08-25T07:56:17.000Z</time>
      </trkpt>
      <trkpt lat="40.33666103146970272064208984375" lon="-1.69950420968234539031982421875">
        <ele>1622.4000244140625</ele>
        <time>2022-08-25T07:56:22.000Z</time>
      </trkpt>
      <trkpt lat="40.33623942174017429351806640625" lon="-1.69904622249305248260498046875">
        <ele>1621.5999755859375</ele>
        <time>2022-08-25T07:56:34.000Z</time>
      </trkpt>
      <trkpt lat="40.3359846957027912139892578125" lon="-1.6987289674580097198486328125">
        <ele>1621</ele>
        <time>2022-08-25T07:56:42.000Z</time>
      </trkpt>
      <trkpt lat="40.33591571263968944549560546875" lon="-1.69864389114081859588623046875">
        <ele>1620.800048828125</ele>
        <time>2022-08-25T07:56:44.000Z</time>
      </trkpt>
      <trkpt lat="40.335680432617664337158203125" lon="-1.69839687645435333251953125">
        <ele>1620</ele>
        <time>2022-08-25T07:56:50.000Z</time>
      </trkpt>
      <trkpt lat="40.33557079732418060302734375" lon="-1.6983350180089473724365234375">
        <ele>1619.4000244140625</ele>
        <time>2022-08-25T07:56:52.000Z</time>
      </trkpt>
      <trkpt lat="40.33522881567478179931640625" lon="-1.69825614430010318756103515625">
        <ele>1618.800048828125</ele>
        <time>2022-08-25T07:56:57.000Z</time>
      </trkpt>
      <trkpt lat="40.334740318357944488525390625" lon="-1.6982760094106197357177734375">
        <ele>1617.5999755859375</ele>
        <time>2022-08-25T07:57:03.000Z</time>
      </trkpt>
      <trkpt lat="40.3344950638711452484130859375" lon="-1.698267795145511627197265625">
        <ele>1616.4000244140625</ele>
        <time>2022-08-25T07:57:06.000Z</time>
      </trkpt>
      <trkpt lat="40.33424838446080684661865234375" lon="-1.698251701891422271728515625">
        <ele>1615.199951171875</ele>
        <time>2022-08-25T07:57:09.000Z</time>
      </trkpt>
      <trkpt lat="40.3341661579906940460205078125" lon="-1.69824399054050445556640625">
        <ele>1614.800048828125</ele>
        <time>2022-08-25T07:57:10.000Z</time>
      </trkpt>
      <trkpt lat="40.3339204005897045135498046875" lon="-1.69822479598224163055419921875">
        <ele>1614</ele>
        <time>2022-08-25T07:57:13.000Z</time>
      </trkpt>
      <trkpt lat="40.33368126489222049713134765625" lon="-1.6982044279575347900390625">
        <ele>1613</ele>
        <time>2022-08-25T07:57:16.000Z</time>
      </trkpt>
      <trkpt lat="40.3333695419132709503173828125" lon="-1.69817970134317874908447265625">
        <ele>1611.800048828125</ele>
        <time>2022-08-25T07:57:20.000Z</time>
      </trkpt>
      <trkpt lat="40.3330734930932521820068359375" lon="-1.69814248569309711456298828125">
        <ele>1610.800048828125</ele>
        <time>2022-08-25T07:57:24.000Z</time>
      </trkpt>
      <trkpt lat="40.33279865048825740814208984375" lon="-1.69811147265136241912841796875">
        <ele>1609.800048828125</ele>
        <time>2022-08-25T07:57:28.000Z</time>
      </trkpt>
      <trkpt lat="40.33273109234869480133056640625" lon="-1.69810627587139606475830078125">
        <ele>1609.5999755859375</ele>
        <time>2022-08-25T07:57:29.000Z</time>
      </trkpt>
      <trkpt lat="40.33219766803085803985595703125" lon="-1.698059253394603729248046875">
        <ele>1608.800048828125</ele>
        <time>2022-08-25T07:57:37.000Z</time>
      </trkpt>
      <trkpt lat="40.3320042975246906280517578125" lon="-1.69803746044635772705078125">
        <ele>1608.4000244140625</ele>
        <time>2022-08-25T07:57:40.000Z</time>
      </trkpt>
      <trkpt lat="40.33168653957545757293701171875" lon="-1.69801424257457256317138671875">
        <ele>1608.4000244140625</ele>
        <time>2022-08-25T07:57:46.000Z</time>
      </trkpt>
      <trkpt lat="40.3314165584743022918701171875" lon="-1.69804424978792667388916015625">
        <ele>1608.800048828125</ele>
        <time>2022-08-25T07:57:53.000Z</time>
      </trkpt>
      <trkpt lat="40.331091172993183135986328125" lon="-1.69817785732448101043701171875">
        <ele>1609.199951171875</ele>
        <time>2022-08-25T07:58:00.000Z</time>
      </trkpt>
      <trkpt lat="40.33075078390538692474365234375" lon="-1.6983222775161266326904296875">
        <ele>1608.800048828125</ele>
        <time>2022-08-25T07:58:05.000Z</time>
      </trkpt>
      <trkpt lat="40.330497063696384429931640625" lon="-1.6983868181705474853515625">
        <ele>1608</ele>
        <time>2022-08-25T07:58:08.000Z</time>
      </trkpt>
      <trkpt lat="40.3304060362279415130615234375" lon="-1.69838522560894489288330078125">
        <ele>1607.5999755859375</ele>
        <time>2022-08-25T07:58:09.000Z</time>
      </trkpt>
      <trkpt lat="40.3303155116736888885498046875" lon="-1.698354296386241912841796875">
        <ele>1607.199951171875</ele>
        <time>2022-08-25T07:58:10.000Z</time>
      </trkpt>
      <trkpt lat="40.3301493823528289794921875" lon="-1.698227562010288238525390625">
        <ele>1606.4000244140625</ele>
        <time>2022-08-25T07:58:12.000Z</time>
      </trkpt>
      <trkpt lat="40.33007604070007801055908203125" lon="-1.6981455869972705841064453125">
        <ele>1606</ele>
        <time>2022-08-25T07:58:13.000Z</time>
      </trkpt>
      <trkpt lat="40.32994352281093597412109375" lon="-1.6979549825191497802734375">
        <ele>1604.800048828125</ele>
        <time>2022-08-25T07:58:15.000Z</time>
      </trkpt>
      <trkpt lat="40.3298786468803882598876953125" lon="-1.6978522203862667083740234375">
        <ele>1604.4000244140625</ele>
        <time>2022-08-25T07:58:16.000Z</time>
      </trkpt>
      <trkpt lat="40.32975031994283199310302734375" lon="-1.6976212151348590850830078125">
        <ele>1602.800048828125</ele>
        <time>2022-08-25T07:58:18.000Z</time>
      </trkpt>
      <trkpt lat="40.32962291501462459564208984375" lon="-1.6973902098834514617919921875">
        <ele>1601.5999755859375</ele>
        <time>2022-08-25T07:58:20.000Z</time>
      </trkpt>
      <trkpt lat="40.32950372435152530670166015625" lon="-1.69714638032019138336181640625">
        <ele>1600.5999755859375</ele>
        <time>2022-08-25T07:58:22.000Z</time>
      </trkpt>
      <trkpt lat="40.32938168384134769439697265625" lon="-1.69690649025142192840576171875">
        <ele>1599.5999755859375</ele>
        <time>2022-08-25T07:58:24.000Z</time>
      </trkpt>
      <trkpt lat="40.3293197415769100189208984375" lon="-1.69678176753222942352294921875">
        <ele>1598.800048828125</ele>
        <time>2022-08-25T07:58:25.000Z</time>
      </trkpt>
      <trkpt lat="40.32926886342465877532958984375" lon="-1.6966418735682964324951171875">
        <ele>1598.199951171875</ele>
        <time>2022-08-25T07:58:26.000Z</time>
      </trkpt>
      <trkpt lat="40.3291514329612255096435546875" lon="-1.696371138095855712890625">
        <ele>1596.800048828125</ele>
        <time>2022-08-25T07:58:28.000Z</time>
      </trkpt>
      <trkpt lat="40.32903492450714111328125" lon="-1.69611297547817230224609375">
        <ele>1595.800048828125</ele>
        <time>2022-08-25T07:58:30.000Z</time>
      </trkpt>
      <trkpt lat="40.3289770893752574920654296875" lon="-1.6959916055202484130859375">
        <ele>1595.199951171875</ele>
        <time>2022-08-25T07:58:31.000Z</time>
      </trkpt>
      <trkpt lat="40.3289288096129894256591796875" lon="-1.69586663134396076202392578125">
        <ele>1594.5999755859375</ele>
        <time>2022-08-25T07:58:32.000Z</time>
      </trkpt>
      <trkpt lat="40.32880961894989013671875" lon="-1.69562791474163532257080078125">
        <ele>1593</ele>
        <time>2022-08-25T07:58:34.000Z</time>
      </trkpt>
      <trkpt lat="40.328675843775272369384765625" lon="-1.695391796529293060302734375">
        <ele>1591.4000244140625</ele>
        <time>2022-08-25T07:58:36.000Z</time>
      </trkpt>
      <trkpt lat="40.32855774275958538055419921875" lon="-1.69513120315968990325927734375">
        <ele>1589.4000244140625</ele>
        <time>2022-08-25T07:58:38.000Z</time>
      </trkpt>
      <trkpt lat="40.3284557349979877471923828125" lon="-1.6948471404612064361572265625">
        <ele>1587.4000244140625</ele>
        <time>2022-08-25T07:58:40.000Z</time>
      </trkpt>
      <trkpt lat="40.32840804196894168853759765625" lon="-1.69470347464084625244140625">
        <ele>1586.4000244140625</ele>
        <time>2022-08-25T07:58:41.000Z</time>
      </trkpt>
      <trkpt lat="40.32832749187946319580078125" lon="-1.69441421516239643096923828125">
        <ele>1584.800048828125</ele>
        <time>2022-08-25T07:58:43.000Z</time>
      </trkpt>
      <trkpt lat="40.32825498841702938079833984375" lon="-1.6941274702548980712890625">
        <ele>1583</ele>
        <time>2022-08-25T07:58:45.000Z</time>
      </trkpt>
      <trkpt lat="40.32817485742270946502685546875" lon="-1.69384810142219066619873046875">
        <ele>1580.4000244140625</ele>
        <time>2022-08-25T07:58:47.000Z</time>
      </trkpt>
      <trkpt lat="40.32810478471219539642333984375" lon="-1.6935694031417369842529296875">
        <ele>1579</ele>
        <time>2022-08-25T07:58:49.000Z</time>
      </trkpt>
      <trkpt lat="40.32807561568915843963623046875" lon="-1.69343202374875545501708984375">
        <ele>1578</ele>
        <time>2022-08-25T07:58:50.000Z</time>
      </trkpt>
      <trkpt lat="40.32804854214191436767578125" lon="-1.69329808093607425689697265625">
        <ele>1577</ele>
        <time>2022-08-25T07:58:51.000Z</time>
      </trkpt>
      <trkpt lat="40.3280245698988437652587890625" lon="-1.693172268569469451904296875">
        <ele>1576</ele>
        <time>2022-08-25T07:58:52.000Z</time>
      </trkpt>
      <trkpt lat="40.327973775565624237060546875" lon="-1.692958362400531768798828125">
        <ele>1574.800048828125</ele>
        <time>2022-08-25T07:58:54.000Z</time>
      </trkpt>
      <trkpt lat="40.3279283456504344940185546875" lon="-1.6928837634623050689697265625">
        <ele>1574.199951171875</ele>
        <time>2022-08-25T07:58:55.000Z</time>
      </trkpt>
      <trkpt lat="40.3278106637299060821533203125" lon="-1.69279600493609905242919921875">
        <ele>1573.800048828125</ele>
        <time>2022-08-25T07:58:57.000Z</time>
      </trkpt>
      <trkpt lat="40.32774637453258037567138671875" lon="-1.69279298745095729827880859375">
        <ele>1573.5999755859375</ele>
        <time>2022-08-25T07:58:58.000Z</time>
      </trkpt>
      <trkpt lat="40.3275608830153942108154296875" lon="-1.6929025389254093170166015625">
        <ele>1572.199951171875</ele>
        <time>2022-08-25T07:59:01.000Z</time>
      </trkpt>
      <trkpt lat="40.32743054442107677459716796875" lon="-1.6930604539811611175537109375">
        <ele>1570.800048828125</ele>
        <time>2022-08-25T07:59:03.000Z</time>
      </trkpt>
      <trkpt lat="40.3272919915616512298583984375" lon="-1.693237982690334320068359375">
        <ele>1569.5999755859375</ele>
        <time>2022-08-25T07:59:05.000Z</time>
      </trkpt>
      <trkpt lat="40.32713524997234344482421875" lon="-1.693392880260944366455078125">
        <ele>1568.4000244140625</ele>
        <time>2022-08-25T07:59:07.000Z</time>
      </trkpt>
      <trkpt lat="40.3269748203456401824951171875" lon="-1.693531684577465057373046875">
        <ele>1567.5999755859375</ele>
        <time>2022-08-25T07:59:09.000Z</time>
      </trkpt>
      <trkpt lat="40.326897203922271728515625" lon="-1.69359614141285419464111328125">
        <ele>1566.800048828125</ele>
        <time>2022-08-25T07:59:10.000Z</time>
      </trkpt>
      <trkpt lat="40.3267441503703594207763671875" lon="-1.693716756999492645263671875">
        <ele>1565.5999755859375</ele>
        <time>2022-08-25T07:59:12.000Z</time>
      </trkpt>
      <trkpt lat="40.32658799551427364349365234375" lon="-1.693810634315013885498046875">
        <ele>1564.199951171875</ele>
        <time>2022-08-25T07:59:14.000Z</time>
      </trkpt>
      <trkpt lat="40.32650786451995372772216796875" lon="-1.6938538849353790283203125">
        <ele>1563.199951171875</ele>
        <time>2022-08-25T07:59:15.000Z</time>
      </trkpt>
      <trkpt lat="40.32627434469759464263916015625" lon="-1.69398061931133270263671875">
        <ele>1562.199951171875</ele>
        <time>2022-08-25T07:59:18.000Z</time>
      </trkpt>
      <trkpt lat="40.32597561366856098175048828125" lon="-1.6941301524639129638671875">
        <ele>1561.5999755859375</ele>
        <time>2022-08-25T07:59:22.000Z</time>
      </trkpt>
      <trkpt lat="40.32583345659077167510986328125" lon="-1.69418991543352603912353515625">
        <ele>1561.199951171875</ele>
        <time>2022-08-25T07:59:24.000Z</time>
      </trkpt>
      <trkpt lat="40.32542441971600055694580078125" lon="-1.69436157681047916412353515625">
        <ele>1560</ele>
        <time>2022-08-25T07:59:30.000Z</time>
      </trkpt>
      <trkpt lat="40.32508830539882183074951171875" lon="-1.694492585957050323486328125">
        <ele>1559.4000244140625</ele>
        <time>2022-08-25T07:59:36.000Z</time>
      </trkpt>
      <trkpt lat="40.3247313201427459716796875" lon="-1.69462258927524089813232421875">
        <ele>1559.199951171875</ele>
        <time>2022-08-25T07:59:43.000Z</time>
      </trkpt>
      <trkpt lat="40.32442026771605014801025390625" lon="-1.694754101336002349853515625">
        <ele>1559.199951171875</ele>
        <time>2022-08-25T07:59:49.000Z</time>
      </trkpt>
      <trkpt lat="40.32437215559184551239013671875" lon="-1.69478821568191051483154296875">
        <ele>1559.199951171875</ele>
        <time>2022-08-25T07:59:50.000Z</time>
      </trkpt>
      <trkpt lat="40.32394836656749248504638671875" lon="-1.6950332187116146087646484375">
        <ele>1559</ele>
        <time>2022-08-25T07:59:58.000Z</time>
      </trkpt>
      <trkpt lat="40.32383345067501068115234375" lon="-1.69508300721645355224609375">
        <ele>1559</ele>
        <time>2022-08-25T08:00:00.000Z</time>
      </trkpt>
      <trkpt lat="40.32342416234314441680908203125" lon="-1.6952293552458286285400390625">
        <ele>1558.5999755859375</ele>
        <time>2022-08-25T08:00:07.000Z</time>
      </trkpt>
      <trkpt lat="40.32319969497621059417724609375" lon="-1.695292554795742034912109375">
        <ele>1557.800048828125</ele>
        <time>2022-08-25T08:00:11.000Z</time>
      </trkpt>
      <trkpt lat="40.3230363316833972930908203125" lon="-1.695329435169696807861328125">
        <ele>1557.5999755859375</ele>
        <time>2022-08-25T08:00:14.000Z</time>
      </trkpt>
      <trkpt lat="40.32277037389576435089111328125" lon="-1.69531862251460552215576171875">
        <ele>1557.5999755859375</ele>
        <time>2022-08-25T08:00:19.000Z</time>
      </trkpt>
      <trkpt lat="40.32272008247673511505126953125" lon="-1.69530504383146762847900390625">
        <ele>1557.5999755859375</ele>
        <time>2022-08-25T08:00:20.000Z</time>
      </trkpt>
      <trkpt lat="40.32267146743834018707275390625" lon="-1.6953027807176113128662109375">
        <ele>1557.5999755859375</ele>
        <time>2022-08-25T08:00:21.000Z</time>
      </trkpt>
      <trkpt lat="40.32258085906505584716796875" lon="-1.6953138448297977447509765625">
        <ele>1557.5999755859375</ele>
        <time>2022-08-25T08:00:23.000Z</time>
      </trkpt>
      <trkpt lat="40.32254003919661045074462890625" lon="-1.69533505104482173919677734375">
        <ele>1557.5999755859375</ele>
        <time>2022-08-25T08:00:24.000Z</time>
      </trkpt>
      <trkpt lat="40.32241783104836940765380859375" lon="-1.69554166495800018310546875">
        <ele>1557.5999755859375</ele>
        <time>2022-08-25T08:00:28.000Z</time>
      </trkpt>
      <trkpt lat="40.3223952837288379669189453125" lon="-1.69561249203979969024658203125">
        <ele>1557.5999755859375</ele>
        <time>2022-08-25T08:00:29.000Z</time>
      </trkpt>
      <trkpt lat="40.3222853131592273712158203125" lon="-1.69607416726648807525634765625">
        <ele>1557.4000244140625</ele>
        <time>2022-08-25T08:00:35.000Z</time>
      </trkpt>
      <trkpt lat="40.3221666254103183746337890625" lon="-1.696446575224399566650390625">
        <ele>1556.4000244140625</ele>
        <time>2022-08-25T08:00:40.000Z</time>
      </trkpt>
      <trkpt lat="40.32206629402935504913330078125" lon="-1.6966324858367443084716796875">
        <ele>1556.4000244140625</ele>
        <time>2022-08-25T08:00:43.000Z</time>
      </trkpt>
      <trkpt lat="40.32197375781834125518798828125" lon="-1.696741282939910888671875">
        <ele>1556.4000244140625</ele>
        <time>2022-08-25T08:00:45.000Z</time>
      </trkpt>
      <trkpt lat="40.32154728658497333526611328125" lon="-1.6971410997211933135986328125">
        <ele>1556</ele>
        <time>2022-08-25T08:00:54.000Z</time>
      </trkpt>
      <trkpt lat="40.3214427642524242401123046875" lon="-1.6971985995769500732421875">
        <ele>1556</ele>
        <time>2022-08-25T08:00:56.000Z</time>
      </trkpt>
      <trkpt lat="40.3212952427566051483154296875" lon="-1.69725291430950164794921875">
        <ele>1555.800048828125</ele>
        <time>2022-08-25T08:00:59.000Z</time>
      </trkpt>
      <trkpt lat="40.3210089169442653656005859375" lon="-1.6973556764423847198486328125">
        <ele>1555.5999755859375</ele>
        <time>2022-08-25T08:01:06.000Z</time>
      </trkpt>
      <trkpt lat="40.3209722042083740234375" lon="-1.6973702609539031982421875">
        <ele>1555.4000244140625</ele>
        <time>2022-08-25T08:01:07.000Z</time>
      </trkpt>
      <trkpt lat="40.32074698247015476226806640625" lon="-1.69745785184204578399658203125">
        <ele>1555.199951171875</ele>
        <time>2022-08-25T08:01:14.000Z</time>
      </trkpt>
      <trkpt lat="40.32066802494227886199951171875" lon="-1.6973917186260223388671875">
        <ele>1555</ele>
        <time>2022-08-25T08:01:18.000Z</time>
      </trkpt>
      <trkpt lat="40.3206498362123966217041015625" lon="-1.69727965258061885833740234375">
        <ele>1554.5999755859375</ele>
        <time>2022-08-25T08:01:22.000Z</time>
      </trkpt>
      <trkpt lat="40.3206897340714931488037109375" lon="-1.69718409888446331024169921875">
        <ele>1554.4000244140625</ele>
        <time>2022-08-25T08:01:26.000Z</time>
      </trkpt>
      <trkpt lat="40.32070322893559932708740234375" lon="-1.69718225486576557159423828125">
        <ele>1554.4000244140625</ele>
        <time>2022-08-25T08:01:27.000Z</time>
      </trkpt>
      <trkpt lat="40.320712029933929443359375" lon="-1.69718242250382900238037109375">
        <ele>1554.4000244140625</ele>
        <time>2022-08-25T08:01:29.000Z</time>
      </trkpt>
      <trkpt lat="40.32071127556264400482177734375" lon="-1.697175800800323486328125">
        <ele>1554.4000244140625</ele>
        <time>2022-08-25T08:01:30.000Z</time>
      </trkpt>
      <trkpt lat="40.3205873072147369384765625" lon="-1.69747964479029178619384765625">
        <ele>1563</ele>
        <time>2022-08-25T08:11:59.000Z</time>
      </trkpt>
      <trkpt lat="40.32057146541774272918701171875" lon="-1.6974840871989727020263671875">
        <ele>1557.800048828125</ele>
        <time>2022-08-25T08:12:00.000Z</time>
      </trkpt>
      <trkpt lat="40.32055403105914592742919921875" lon="-1.6974904574453830718994140625">
        <ele>1555.199951171875</ele>
        <time>2022-08-25T08:12:01.000Z</time>
      </trkpt>
      <trkpt lat="40.32053223811089992523193359375" lon="-1.697495318949222564697265625">
        <ele>1553.800048828125</ele>
        <time>2022-08-25T08:12:02.000Z</time>
      </trkpt>
      <trkpt lat="40.3204966150224208831787109375" lon="-1.69749489985406398773193359375">
        <ele>1553.199951171875</ele>
        <time>2022-08-25T08:12:03.000Z</time>
      </trkpt>
      <trkpt lat="40.3204577229917049407958984375" lon="-1.69750847853720188140869140625">
        <ele>1552.800048828125</ele>
        <time>2022-08-25T08:12:04.000Z</time>
      </trkpt>
      <trkpt lat="40.32037599943578243255615234375" lon="-1.6975487954914569854736328125">
        <ele>1552.5999755859375</ele>
        <time>2022-08-25T08:12:07.000Z</time>
      </trkpt>
      <trkpt lat="40.32010786235332489013671875" lon="-1.69762951321899890899658203125">
        <ele>1552.800048828125</ele>
        <time>2022-08-25T08:12:17.000Z</time>
      </trkpt>
      <trkpt lat="40.31986118294298648834228515625" lon="-1.697701178491115570068359375">
        <ele>1553.800048828125</ele>
        <time>2022-08-25T08:12:27.000Z</time>
      </trkpt>
      <trkpt lat="40.3198414854705333709716796875" lon="-1.6977026872336864471435546875">
        <ele>1553.800048828125</ele>
        <time>2022-08-25T08:12:28.000Z</time>
      </trkpt>
      <trkpt lat="40.31970561482012271881103515625" lon="-1.69772339053452014923095703125">
        <ele>1555</ele>
        <time>2022-08-25T08:12:35.000Z</time>
      </trkpt>
      <trkpt lat="40.31963503919541835784912109375" lon="-1.69773797504603862762451171875">
        <ele>1555.5999755859375</ele>
        <time>2022-08-25T08:12:39.000Z</time>
      </trkpt>
      <trkpt lat="40.319601930677890777587890625" lon="-1.69774333946406841278076171875">
        <ele>1556</ele>
        <time>2022-08-25T08:12:41.000Z</time>
      </trkpt>
      <trkpt lat="40.31954803504049777984619140625" lon="-1.69777653180062770843505859375">
        <ele>1557</ele>
        <time>2022-08-25T08:12:45.000Z</time>
      </trkpt>
      <trkpt lat="40.319542922079563140869140625" lon="-1.69779497198760509490966796875">
        <ele>1557.199951171875</ele>
        <time>2022-08-25T08:12:46.000Z</time>
      </trkpt>
      <trkpt lat="40.31956412829458713531494140625" lon="-1.6978958062827587127685546875">
        <ele>1558.199951171875</ele>
        <time>2022-08-25T08:12:50.000Z</time>
      </trkpt>
      <trkpt lat="40.3195866756141185760498046875" lon="-1.69795741327106952667236328125">
        <ele>1558.5999755859375</ele>
        <time>2022-08-25T08:12:52.000Z</time>
      </trkpt>
      <trkpt lat="40.319651551544666290283203125" lon="-1.6980936191976070404052734375">
        <ele>1559.4000244140625</ele>
        <time>2022-08-25T08:12:56.000Z</time>
      </trkpt>
      <trkpt lat="40.319776274263858795166015625" lon="-1.698372066020965576171875">
        <ele>1560.199951171875</ele>
        <time>2022-08-25T08:13:04.000Z</time>
      </trkpt>
      <trkpt lat="40.31981550157070159912109375" lon="-1.6984788514673709869384765625">
        <ele>1560.4000244140625</ele>
        <time>2022-08-25T08:13:07.000Z</time>
      </trkpt>
      <trkpt lat="40.31994349323213100433349609375" lon="-1.69878847897052764892578125">
        <ele>1561.199951171875</ele>
        <time>2022-08-25T08:13:15.000Z</time>
      </trkpt>
      <trkpt lat="40.319995880126953125" lon="-1.6989083401858806610107421875">
        <ele>1561.4000244140625</ele>
        <time>2022-08-25T08:13:18.000Z</time>
      </trkpt>
      <trkpt lat="40.32013845629990100860595703125" lon="-1.69915971346199512481689453125">
        <ele>1561.4000244140625</ele>
        <time>2022-08-25T08:13:24.000Z</time>
      </trkpt>
      <trkpt lat="40.32037164084613323211669921875" lon="-1.6995192132890224456787109375">
        <ele>1561.199951171875</ele>
        <time>2022-08-25T08:13:32.000Z</time>
      </trkpt>
      <trkpt lat="40.32063265331089496612548828125" lon="-1.69996856711804866790771484375">
        <ele>1560.800048828125</ele>
        <time>2022-08-25T08:13:39.000Z</time>
      </trkpt>
      <trkpt lat="40.32075435854494571685791015625" lon="-1.70018364675343036651611328125">
        <ele>1560.4000244140625</ele>
        <time>2022-08-25T08:13:42.000Z</time>
      </trkpt>
      <trkpt lat="40.32095937989652156829833984375" lon="-1.70057575218379497528076171875">
        <ele>1559.4000244140625</ele>
        <time>2022-08-25T08:13:47.000Z</time>
      </trkpt>
      <trkpt lat="40.3209981881082057952880859375" lon="-1.7006584815680980682373046875">
        <ele>1559.199951171875</ele>
        <time>2022-08-25T08:13:48.000Z</time>
      </trkpt>
      <trkpt lat="40.32118619419634342193603515625" lon="-1.701184026896953582763671875">
        <ele>1558.199951171875</ele>
        <time>2022-08-25T08:13:54.000Z</time>
      </trkpt>
      <trkpt lat="40.32124201767146587371826171875" lon="-1.70136532746255397796630859375">
        <ele>1558</ele>
        <time>2022-08-25T08:13:56.000Z</time>
      </trkpt>
      <trkpt lat="40.32143287360668182373046875" lon="-1.7020458541810512542724609375">
        <ele>1557.4000244140625</ele>
        <time>2022-08-25T08:14:04.000Z</time>
      </trkpt>
      <trkpt lat="40.321456007659435272216796875" lon="-1.70212573371827602386474609375">
        <ele>1557.199951171875</ele>
        <time>2022-08-25T08:14:05.000Z</time>
      </trkpt>
      <trkpt lat="40.321573354303836822509765625" lon="-1.7025407217442989349365234375">
        <ele>1557.199951171875</ele>
        <time>2022-08-25T08:14:11.000Z</time>
      </trkpt>
      <trkpt lat="40.321594141423702239990234375" lon="-1.70265354216098785400390625">
        <ele>1557</ele>
        <time>2022-08-25T08:14:15.000Z</time>
      </trkpt>
      <trkpt lat="40.32166295684874057769775390625" lon="-1.70286015607416629791259765625">
        <ele>1556.199951171875</ele>
        <time>2022-08-25T08:14:21.000Z</time>
      </trkpt>
      <trkpt lat="40.3218973986804485321044921875" lon="-1.7034865356981754302978515625">
        <ele>1556.5999755859375</ele>
        <time>2022-08-25T08:14:33.000Z</time>
      </trkpt>
      <trkpt lat="40.32204466871917247772216796875" lon="-1.70393756590783596038818359375">
        <ele>1557</ele>
        <time>2022-08-25T08:14:41.000Z</time>
      </trkpt>
      <trkpt lat="40.322215072810649871826171875" lon="-1.7044191062450408935546875">
        <ele>1557.199951171875</ele>
        <time>2022-08-25T08:14:49.000Z</time>
      </trkpt>
      <trkpt lat="40.32237106002867221832275390625" lon="-1.70477458275854587554931640625">
        <ele>1557.4000244140625</ele>
        <time>2022-08-25T08:14:55.000Z</time>
      </trkpt>
      <trkpt lat="40.3226004727184772491455078125" lon="-1.705195941030979156494140625">
        <ele>1557.5999755859375</ele>
        <time>2022-08-25T08:15:03.000Z</time>
      </trkpt>
      <trkpt lat="40.322746150195598602294921875" lon="-1.70543557964265346527099609375">
        <ele>1558</ele>
        <time>2022-08-25T08:15:08.000Z</time>
      </trkpt>
      <trkpt lat="40.3230229206383228302001953125" lon="-1.7058549262583255767822265625">
        <ele>1559</ele>
        <time>2022-08-25T08:15:17.000Z</time>
      </trkpt>
      <trkpt lat="40.32330572605133056640625" lon="-1.70632590539753437042236328125">
        <ele>1560</ele>
        <time>2022-08-25T08:15:27.000Z</time>
      </trkpt>
      <trkpt lat="40.3233635611832141876220703125" lon="-1.706415675580501556396484375">
        <ele>1560.199951171875</ele>
        <time>2022-08-25T08:15:29.000Z</time>
      </trkpt>
      <trkpt lat="40.3237045370042324066162109375" lon="-1.70689688064157962799072265625">
        <ele>1561.199951171875</ele>
        <time>2022-08-25T08:15:40.000Z</time>
      </trkpt>
      <trkpt lat="40.32405984587967395782470703125" lon="-1.70732553116977214813232421875">
        <ele>1562</ele>
        <time>2022-08-25T08:15:50.000Z</time>
      </trkpt>
      <trkpt lat="40.32423737458884716033935546875" lon="-1.707554273307323455810546875">
        <ele>1562.199951171875</ele>
        <time>2022-08-25T08:15:55.000Z</time>
      </trkpt>
      <trkpt lat="40.3243968822062015533447265625" lon="-1.70774462632834911346435546875">
        <ele>1562.199951171875</ele>
        <time>2022-08-25T08:15:59.000Z</time>
      </trkpt>
      <trkpt lat="40.324848331511020660400390625" lon="-1.70823077671229839324951171875">
        <ele>1561.800048828125</ele>
        <time>2022-08-25T08:16:09.000Z</time>
      </trkpt>
      <trkpt lat="40.3248940967023372650146484375" lon="-1.7082853429019451141357421875">
        <ele>1561.800048828125</ele>
        <time>2022-08-25T08:16:10.000Z</time>
      </trkpt>
      <trkpt lat="40.32531562261283397674560546875" lon="-1.70869932509958744049072265625">
        <ele>1561</ele>
        <time>2022-08-25T08:16:18.000Z</time>
      </trkpt>
      <trkpt lat="40.32536960206925868988037109375" lon="-1.7087497003376483917236328125">
        <ele>1561</ele>
        <time>2022-08-25T08:16:19.000Z</time>
      </trkpt>
      <trkpt lat="40.32582356594502925872802734375" lon="-1.70913820154964923858642578125">
        <ele>1560.199951171875</ele>
        <time>2022-08-25T08:16:27.000Z</time>
      </trkpt>
      <trkpt lat="40.3260182775557041168212890625" lon="-1.70928806997835636138916015625">
        <ele>1559.800048828125</ele>
        <time>2022-08-25T08:16:30.000Z</time>
      </trkpt>
      <trkpt lat="40.32635070383548736572265625" lon="-1.7095220088958740234375">
        <ele>1559.199951171875</ele>
        <time>2022-08-25T08:16:35.000Z</time>
      </trkpt>
      <trkpt lat="40.32670802436769008636474609375" lon="-1.70974119566380977630615234375">
        <ele>1558.800048828125</ele>
        <time>2022-08-25T08:16:40.000Z</time>
      </trkpt>
      <trkpt lat="40.3270378522574901580810546875" lon="-1.70994722284376621246337890625">
        <ele>1557.800048828125</ele>
        <time>2022-08-25T08:16:45.000Z</time>
      </trkpt>
      <trkpt lat="40.32716182060539722442626953125" lon="-1.7100220732390880584716796875">
        <ele>1557.800048828125</ele>
        <time>2022-08-25T08:16:47.000Z</time>
      </trkpt>
      <trkpt lat="40.327482931315898895263671875" lon="-1.71027914620935916900634765625">
        <ele>1557.5999755859375</ele>
        <time>2022-08-25T08:16:53.000Z</time>
      </trkpt>
      <trkpt lat="40.3279524855315685272216796875" lon="-1.710682399570941925048828125">
        <ele>1557.4000244140625</ele>
        <time>2022-08-25T08:17:02.000Z</time>
      </trkpt>
      <trkpt lat="40.32800604589283466339111328125" lon="-1.7107330262660980224609375">
        <ele>1557.4000244140625</ele>
        <time>2022-08-25T08:17:03.000Z</time>
      </trkpt>
      <trkpt lat="40.32846671529114246368408203125" lon="-1.71115505509078502655029296875">
        <ele>1557.199951171875</ele>
        <time>2022-08-25T08:17:11.000Z</time>
      </trkpt>
      <trkpt lat="40.32852706499397754669189453125" lon="-1.71121113002300262451171875">
        <ele>1556.800048828125</ele>
        <time>2022-08-25T08:17:12.000Z</time>
      </trkpt>
      <trkpt lat="40.3285931982100009918212890625" lon="-1.71126343309879302978515625">
        <ele>1556.4000244140625</ele>
        <time>2022-08-25T08:17:13.000Z</time>
      </trkpt>
      <trkpt lat="40.32894683070480823516845703125" lon="-1.71161614358425140380859375">
        <ele>1555.4000244140625</ele>
        <time>2022-08-25T08:17:19.000Z</time>
      </trkpt>
      <trkpt lat="40.32907121814787387847900390625" lon="-1.71173491515219211578369140625">
        <ele>1555.199951171875</ele>
        <time>2022-08-25T08:17:21.000Z</time>
      </trkpt>
      <trkpt lat="40.32940163277089595794677734375" lon="-1.71205812133848667144775390625">
        <ele>1554.199951171875</ele>
        <time>2022-08-25T08:17:26.000Z</time>
      </trkpt>
      <trkpt lat="40.32946835272014141082763671875" lon="-1.71212517656385898590087890625">
        <ele>1554</ele>
        <time>2022-08-25T08:17:27.000Z</time>
      </trkpt>
      <trkpt lat="40.3297224082052707672119140625" lon="-1.712395660579204559326171875">
        <ele>1552.800048828125</ele>
        <time>2022-08-25T08:17:31.000Z</time>
      </trkpt>
      <trkpt lat="40.3300831653177738189697265625" lon="-1.71270453371107578277587890625">
        <ele>1552</ele>
        <time>2022-08-25T08:17:36.000Z</time>
      </trkpt>
      <trkpt lat="40.33016346395015716552734375" lon="-1.7127528972923755645751953125">
        <ele>1551.5999755859375</ele>
        <time>2022-08-25T08:17:37.000Z</time>
      </trkpt>
      <trkpt lat="40.3307287395000457763671875" lon="-1.7130449227988719940185546875">
        <ele>1550.800048828125</ele>
        <time>2022-08-25T08:17:44.000Z</time>
      </trkpt>
      <trkpt lat="40.3307892568409442901611328125" lon="-1.71309261582791805267333984375">
        <ele>1550.5999755859375</ele>
        <time>2022-08-25T08:17:45.000Z</time>
      </trkpt>
      <trkpt lat="40.3311687894165515899658203125" lon="-1.71342529356479644775390625">
        <ele>1549.5999755859375</ele>
        <time>2022-08-25T08:17:52.000Z</time>
      </trkpt>
      <trkpt lat="40.331215895712375640869140625" lon="-1.71347566880285739898681640625">
        <ele>1549.5999755859375</ele>
        <time>2022-08-25T08:17:53.000Z</time>
      </trkpt>
      <trkpt lat="40.33160154707729816436767578125" lon="-1.7139173112809658050537109375">
        <ele>1549.5999755859375</ele>
        <time>2022-08-25T08:18:02.000Z</time>
      </trkpt>
      <trkpt lat="40.33198560588061809539794921875" lon="-1.714471690356731414794921875">
        <ele>1550.4000244140625</ele>
        <time>2022-08-25T08:18:12.000Z</time>
      </trkpt>
      <trkpt lat="40.332025922834873199462890625" lon="-1.71452105976641178131103515625">
        <ele>1550.5999755859375</ele>
        <time>2022-08-25T08:18:13.000Z</time>
      </trkpt>
      <trkpt lat="40.33218006603419780731201171875" lon="-1.7147303558886051177978515625">
        <ele>1550.800048828125</ele>
        <time>2022-08-25T08:18:17.000Z</time>
      </trkpt>
      <trkpt lat="40.33244426362216472625732421875" lon="-1.71508801169693470001220703125">
        <ele>1551</ele>
        <time>2022-08-25T08:18:24.000Z</time>
      </trkpt>
      <trkpt lat="40.33276562578976154327392578125" lon="-1.7155641876161098480224609375">
        <ele>1551.4000244140625</ele>
        <time>2022-08-25T08:18:33.000Z</time>
      </trkpt>
      <trkpt lat="40.33290677703917026519775390625" lon="-1.715768873691558837890625">
        <ele>1551.5999755859375</ele>
        <time>2022-08-25T08:18:37.000Z</time>
      </trkpt>
      <trkpt lat="40.333206765353679656982421875" lon="-1.71615737490355968475341796875">
        <ele>1552.4000244140625</ele>
        <time>2022-08-25T08:18:45.000Z</time>
      </trkpt>
      <trkpt lat="40.333350598812103271484375" lon="-1.71636164188385009765625">
        <ele>1552.5999755859375</ele>
        <time>2022-08-25T08:18:49.000Z</time>
      </trkpt>
      <trkpt lat="40.33365176059305667877197265625" lon="-1.71668979339301586151123046875">
        <ele>1553.199951171875</ele>
        <time>2022-08-25T08:18:56.000Z</time>
      </trkpt>
      <trkpt lat="40.3340645693242549896240234375" lon="-1.71700947917997837066650390625">
        <ele>1553.199951171875</ele>
        <time>2022-08-25T08:19:05.000Z</time>
      </trkpt>
      <trkpt lat="40.3343926370143890380859375" lon="-1.71727828681468963623046875">
        <ele>1553</ele>
        <time>2022-08-25T08:19:12.000Z</time>
      </trkpt>
      <trkpt lat="40.3348162584006786346435546875" lon="-1.71758078970015048980712890625">
        <ele>1552.800048828125</ele>
        <time>2022-08-25T08:19:19.000Z</time>
      </trkpt>
      <trkpt lat="40.3353366069495677947998046875" lon="-1.71795512549579143524169921875">
        <ele>1552</ele>
        <time>2022-08-25T08:19:26.000Z</time>
      </trkpt>
      <trkpt lat="40.33540047705173492431640625" lon="-1.7180163972079753875732421875">
        <ele>1552</ele>
        <time>2022-08-25T08:19:27.000Z</time>
      </trkpt>
      <trkpt lat="40.33551975153386592864990234375" lon="-1.71815335750579833984375">
        <ele>1551.800048828125</ele>
        <time>2022-08-25T08:19:29.000Z</time>
      </trkpt>
      <trkpt lat="40.335646905004978179931640625" lon="-1.718296520411968231201171875">
        <ele>1551.5999755859375</ele>
        <time>2022-08-25T08:19:31.000Z</time>
      </trkpt>
      <trkpt lat="40.3358438797295093536376953125" lon="-1.7185062356293201446533203125">
        <ele>1551.199951171875</ele>
        <time>2022-08-25T08:19:34.000Z</time>
      </trkpt>
      <trkpt lat="40.33615954220294952392578125" lon="-1.71887420117855072021484375">
        <ele>1550.5999755859375</ele>
        <time>2022-08-25T08:19:39.000Z</time>
      </trkpt>
      <trkpt lat="40.336380489170551300048828125" lon="-1.71914376318454742431640625">
        <ele>1550.199951171875</ele>
        <time>2022-08-25T08:19:43.000Z</time>
      </trkpt>
      <trkpt lat="40.33676211722195148468017578125" lon="-1.7196227051317691802978515625">
        <ele>1549.5999755859375</ele>
        <time>2022-08-25T08:19:51.000Z</time>
      </trkpt>
      <trkpt lat="40.33713192678987979888916015625" lon="-1.72011874616146087646484375">
        <ele>1549.5999755859375</ele>
        <time>2022-08-25T08:20:00.000Z</time>
      </trkpt>
      <trkpt lat="40.33752235583961009979248046875" lon="-1.720676310360431671142578125">
        <ele>1549.800048828125</ele>
        <time>2022-08-25T08:20:10.000Z</time>
      </trkpt>
      <trkpt lat="40.33760466612875461578369140625" lon="-1.720792986452579498291015625">
        <ele>1550</ele>
        <time>2022-08-25T08:20:12.000Z</time>
      </trkpt>
      <trkpt lat="40.33797548152506351470947265625" lon="-1.7214082181453704833984375">
        <ele>1550.4000244140625</ele>
        <time>2022-08-25T08:20:22.000Z</time>
      </trkpt>
      <trkpt lat="40.33824630081653594970703125" lon="-1.72206309624016284942626953125">
        <ele>1550.4000244140625</ele>
        <time>2022-08-25T08:20:31.000Z</time>
      </trkpt>
      <trkpt lat="40.3384794853627681732177734375" lon="-1.72275611199438571929931640625">
        <ele>1550.4000244140625</ele>
        <time>2022-08-25T08:20:40.000Z</time>
      </trkpt>
      <trkpt lat="40.33872314728796482086181640625" lon="-1.72333999536931514739990234375">
        <ele>1550</ele>
        <time>2022-08-25T08:20:48.000Z</time>
      </trkpt>
      <trkpt lat="40.338972844183444976806640625" lon="-1.72405446879565715789794921875">
        <ele>1549.5999755859375</ele>
        <time>2022-08-25T08:20:57.000Z</time>
      </trkpt>
      <trkpt lat="40.33899589441716670989990234375" lon="-1.72414063476026058197021484375">
        <ele>1549.5999755859375</ele>
        <time>2022-08-25T08:20:58.000Z</time>
      </trkpt>
      <trkpt lat="40.33908004872500896453857421875" lon="-1.72439284622669219970703125">
        <ele>1549.199951171875</ele>
        <time>2022-08-25T08:21:01.000Z</time>
      </trkpt>
      <trkpt lat="40.33926947973668575286865234375" lon="-1.724881343543529510498046875">
        <ele>1549</ele>
        <time>2022-08-25T08:21:07.000Z</time>
      </trkpt>
      <trkpt lat="40.3395208530128002166748046875" lon="-1.72557813115417957305908203125">
        <ele>1548.4000244140625</ele>
        <time>2022-08-25T08:21:16.000Z</time>
      </trkpt>
      <trkpt lat="40.3395902551710605621337890625" lon="-1.72580980695784091949462890625">
        <ele>1548.4000244140625</ele>
        <time>2022-08-25T08:21:19.000Z</time>
      </trkpt>
      <trkpt lat="40.339607857167720794677734375" lon="-1.726138293743133544921875">
        <ele>1548.4000244140625</ele>
        <time>2022-08-25T08:21:23.000Z</time>
      </trkpt>
      <trkpt lat="40.33964213915169239044189453125" lon="-1.72687925398349761962890625">
        <ele>1548.5999755859375</ele>
        <time>2022-08-25T08:21:32.000Z</time>
      </trkpt>
      <trkpt lat="40.3396846354007720947265625" lon="-1.72746238298714160919189453125">
        <ele>1548.800048828125</ele>
        <time>2022-08-25T08:21:39.000Z</time>
      </trkpt>
      <trkpt lat="40.339760743081569671630859375" lon="-1.7282302491366863250732421875">
        <ele>1549.199951171875</ele>
        <time>2022-08-25T08:21:48.000Z</time>
      </trkpt>
      <trkpt lat="40.33979938365519046783447265625" lon="-1.72848162241280078887939453125">
        <ele>1549.199951171875</ele>
        <time>2022-08-25T08:21:51.000Z</time>
      </trkpt>
      <trkpt lat="40.33997590653598308563232421875" lon="-1.7290355823934078216552734375">
        <ele>1549</ele>
        <time>2022-08-25T08:21:58.000Z</time>
      </trkpt>
      <trkpt lat="40.340249575674533843994140625" lon="-1.7295009456574916839599609375">
        <ele>1549</ele>
        <time>2022-08-25T08:22:05.000Z</time>
      </trkpt>
      <trkpt lat="40.34056062810122966766357421875" lon="-1.72994040884077548980712890625">
        <ele>1549</ele>
        <time>2022-08-25T08:22:12.000Z</time>
      </trkpt>
      <trkpt lat="40.3409487940371036529541015625" lon="-1.73053233884274959564208984375">
        <ele>1548.800048828125</ele>
        <time>2022-08-25T08:22:21.000Z</time>
      </trkpt>
      <trkpt lat="40.34120075404644012451171875" lon="-1.73088186420500278472900390625">
        <ele>1548.199951171875</ele>
        <time>2022-08-25T08:22:26.000Z</time>
      </trkpt>
      <trkpt lat="40.3413601778447628021240234375" lon="-1.73111571930348873138427734375">
        <ele>1548</ele>
        <time>2022-08-25T08:22:29.000Z</time>
      </trkpt>
      <trkpt lat="40.34168665297329425811767578125" lon="-1.73160656355321407318115234375">
        <ele>1547.199951171875</ele>
        <time>2022-08-25T08:22:35.000Z</time>
      </trkpt>
      <trkpt lat="40.34187943674623966217041015625" lon="-1.7318331263959407806396484375">
        <ele>1546.4000244140625</ele>
        <time>2022-08-25T08:22:38.000Z</time>
      </trkpt>
      <trkpt lat="40.34200633876025676727294921875" lon="-1.73197989352047443389892578125">
        <ele>1546.199951171875</ele>
        <time>2022-08-25T08:22:40.000Z</time>
      </trkpt>
      <trkpt lat="40.342346392571926116943359375" lon="-1.73234182409942150115966796875">
        <ele>1545</ele>
        <time>2022-08-25T08:22:45.000Z</time>
      </trkpt>
      <trkpt lat="40.34241436980664730072021484375" lon="-1.73241508193314075469970703125">
        <ele>1544.5999755859375</ele>
        <time>2022-08-25T08:22:46.000Z</time>
      </trkpt>
      <trkpt lat="40.342614613473415374755859375" lon="-1.73261742107570171356201171875">
        <ele>1543.5999755859375</ele>
        <time>2022-08-25T08:22:49.000Z</time>
      </trkpt>
      <trkpt lat="40.34292943775653839111328125" lon="-1.73294146545231342315673828125">
        <ele>1542.5999755859375</ele>
        <time>2022-08-25T08:22:54.000Z</time>
      </trkpt>
      <trkpt lat="40.34299355931580066680908203125" lon="-1.733007095754146575927734375">
        <ele>1542.5999755859375</ele>
        <time>2022-08-25T08:22:55.000Z</time>
      </trkpt>
      <trkpt lat="40.34338884986937046051025390625" lon="-1.73336642794311046600341796875">
        <ele>1541.4000244140625</ele>
        <time>2022-08-25T08:23:01.000Z</time>
      </trkpt>
      <trkpt lat="40.3434590063989162445068359375" lon="-1.73343616537749767303466796875">
        <ele>1541.199951171875</ele>
        <time>2022-08-25T08:23:02.000Z</time>
      </trkpt>
      <trkpt lat="40.34366595558822154998779296875" lon="-1.7336308769881725311279296875">
        <ele>1540.199951171875</ele>
        <time>2022-08-25T08:23:05.000Z</time>
      </trkpt>
      <trkpt lat="40.344009697437286376953125" lon="-1.7339440248906612396240234375">
        <ele>1539.199951171875</ele>
        <time>2022-08-25T08:23:10.000Z</time>
      </trkpt>
      <trkpt lat="40.3441409580409526824951171875" lon="-1.73407067544758319854736328125">
        <ele>1539</ele>
        <time>2022-08-25T08:23:12.000Z</time>
      </trkpt>
      <trkpt lat="40.34457706846296787261962890625" lon="-1.73453704454004764556884765625">
        <ele>1538.199951171875</ele>
        <time>2022-08-25T08:23:19.000Z</time>
      </trkpt>
      <trkpt lat="40.3446247614920139312744140625" lon="-1.73461818136274814605712890625">
        <ele>1538.199951171875</ele>
        <time>2022-08-25T08:23:20.000Z</time>
      </trkpt>
      <trkpt lat="40.34478376619517803192138671875" lon="-1.7349917627871036529541015625">
        <ele>1537.800048828125</ele>
        <time>2022-08-25T08:23:24.000Z</time>
      </trkpt>
      <trkpt lat="40.34481511451303958892822265625" lon="-1.7350933514535427093505859375">
        <ele>1537.5999755859375</ele>
        <time>2022-08-25T08:23:25.000Z</time>
      </trkpt>
      <trkpt lat="40.3448862768709659576416015625" lon="-1.73549182713031768798828125">
        <ele>1537.4000244140625</ele>
        <time>2022-08-25T08:23:29.000Z</time>
      </trkpt>
      <trkpt lat="40.34489574842154979705810546875" lon="-1.735687963664531707763671875">
        <ele>1537</ele>
        <time>2022-08-25T08:23:31.000Z</time>
      </trkpt>
      <trkpt lat="40.3448852710425853729248046875" lon="-1.7360877804458141326904296875">
        <ele>1536.199951171875</ele>
        <time>2022-08-25T08:23:35.000Z</time>
      </trkpt>
      <trkpt lat="40.34488032571971416473388671875" lon="-1.7361856810748577117919921875">
        <ele>1536</ele>
        <time>2022-08-25T08:23:36.000Z</time>
      </trkpt>
      <trkpt lat="40.34487328492105007171630859375" lon="-1.73666487447917461395263671875">
        <ele>1534.800048828125</ele>
        <time>2022-08-25T08:23:41.000Z</time>
      </trkpt>
      <trkpt lat="40.34486741758882999420166015625" lon="-1.73722193576395511627197265625">
        <ele>1533.800048828125</ele>
        <time>2022-08-25T08:23:47.000Z</time>
      </trkpt>
      <trkpt lat="40.34486440010368824005126953125" lon="-1.73731229268014430999755859375">
        <ele>1533.800048828125</ele>
        <time>2022-08-25T08:23:48.000Z</time>
      </trkpt>
      <trkpt lat="40.3448587842285633087158203125" lon="-1.73779659904539585113525390625">
        <ele>1533.4000244140625</ele>
        <time>2022-08-25T08:23:54.000Z</time>
      </trkpt>
      <trkpt lat="40.3448483906686305999755859375" lon="-1.73823698423802852630615234375">
        <ele>1533.800048828125</ele>
        <time>2022-08-25T08:24:01.000Z</time>
      </trkpt>
      <trkpt lat="40.3448081575334072113037109375" lon="-1.7386482842266559600830078125">
        <ele>1534.4000244140625</ele>
        <time>2022-08-25T08:24:09.000Z</time>
      </trkpt>
      <trkpt lat="40.34479357302188873291015625" lon="-1.73880276270210742950439453125">
        <ele>1534.800048828125</ele>
        <time>2022-08-25T08:24:12.000Z</time>
      </trkpt>
      <trkpt lat="40.34478376619517803192138671875" lon="-1.73896168358623981475830078125">
        <ele>1536</ele>
        <time>2022-08-25T08:24:15.000Z</time>
      </trkpt>
      <trkpt lat="40.3447685949504375457763671875" lon="-1.73928153701126575469970703125">
        <ele>1537.199951171875</ele>
        <time>2022-08-25T08:24:21.000Z</time>
      </trkpt>
      <trkpt lat="40.34476381726562976837158203125" lon="-1.73933635465800762176513671875">
        <ele>1537.199951171875</ele>
        <time>2022-08-25T08:24:22.000Z</time>
      </trkpt>
      <trkpt lat="40.3447454608976840972900390625" lon="-1.739974133670330047607421875">
        <ele>1538.4000244140625</ele>
        <time>2022-08-25T08:24:34.000Z</time>
      </trkpt>
      <trkpt lat="40.34474403597414493560791015625" lon="-1.7401302047073841094970703125">
        <ele>1538.5999755859375</ele>
        <time>2022-08-25T08:24:37.000Z</time>
      </trkpt>
      <trkpt lat="40.34473062492907047271728515625" lon="-1.740729510784149169921875">
        <ele>1539.5999755859375</ele>
        <time>2022-08-25T08:24:48.000Z</time>
      </trkpt>
      <trkpt lat="40.34473054111003875732421875" lon="-1.7407856695353984832763671875">
        <ele>1539.5999755859375</ele>
        <time>2022-08-25T08:24:49.000Z</time>
      </trkpt>
      <trkpt lat="40.34472710452973842620849609375" lon="-1.74136443994939327239990234375">
        <ele>1540.4000244140625</ele>
        <time>2022-08-25T08:24:59.000Z</time>
      </trkpt>
      <trkpt lat="40.3447240032255649566650390625" lon="-1.7414230294525623321533203125">
        <ele>1540.5999755859375</ele>
        <time>2022-08-25T08:25:00.000Z</time>
      </trkpt>
      <trkpt lat="40.34470279701054096221923828125" lon="-1.7420620657503604888916015625">
        <ele>1541.199951171875</ele>
        <time>2022-08-25T08:25:11.000Z</time>
      </trkpt>
      <trkpt lat="40.34473598934710025787353515625" lon="-1.7423386685550212860107421875">
        <ele>1541.5999755859375</ele>
        <time>2022-08-25T08:25:16.000Z</time>
      </trkpt>
      <trkpt lat="40.344757698476314544677734375" lon="-1.74244570545852184295654296875">
        <ele>1541.5999755859375</ele>
        <time>2022-08-25T08:25:18.000Z</time>
      </trkpt>
      <trkpt lat="40.3449364006519317626953125" lon="-1.74286119639873504638671875">
        <ele>1541.5999755859375</ele>
        <time>2022-08-25T08:25:25.000Z</time>
      </trkpt>
      <trkpt lat="40.34518324770033359527587890625" lon="-1.74321524798870086669921875">
        <ele>1541.199951171875</ele>
        <time>2022-08-25T08:25:31.000Z</time>
      </trkpt>
      <trkpt lat="40.34539849497377872467041015625" lon="-1.74338883720338344573974609375">
        <ele>1540.4000244140625</ele>
        <time>2022-08-25T08:25:35.000Z</time>
      </trkpt>
      <trkpt lat="40.3455769456923007965087890625" lon="-1.74350224435329437255859375">
        <ele>1540</ele>
        <time>2022-08-25T08:25:38.000Z</time>
      </trkpt>
      <trkpt lat="40.34609100781381130218505859375" lon="-1.74388823099434375762939453125">
        <ele>1539.5999755859375</ele>
        <time>2022-08-25T08:25:48.000Z</time>
      </trkpt>
      <trkpt lat="40.3461898304522037506103515625" lon="-1.74396551214158535003662109375">
        <ele>1539.5999755859375</ele>
        <time>2022-08-25T08:25:50.000Z</time>
      </trkpt>
      <trkpt lat="40.34665770828723907470703125" lon="-1.744350492954254150390625">
        <ele>1539.5999755859375</ele>
        <time>2022-08-25T08:25:59.000Z</time>
      </trkpt>
      <trkpt lat="40.34676625393331050872802734375" lon="-1.74445451237261295318603515625">
        <ele>1539.4000244140625</ele>
        <time>2022-08-25T08:26:01.000Z</time>
      </trkpt>
      <trkpt lat="40.3471577726304531097412109375" lon="-1.74479498527944087982177734375">
        <ele>1538.800048828125</ele>
        <time>2022-08-25T08:26:08.000Z</time>
      </trkpt>
      <trkpt lat="40.3474337048828601837158203125" lon="-1.74502917565405368804931640625">
        <ele>1538.4000244140625</ele>
        <time>2022-08-25T08:26:13.000Z</time>
      </trkpt>
      <trkpt lat="40.3476700745522975921630859375" lon="-1.74521743319928646087646484375">
        <ele>1538.199951171875</ele>
        <time>2022-08-25T08:26:17.000Z</time>
      </trkpt>
      <trkpt lat="40.34822202287614345550537109375" lon="-1.7455891706049442291259765625">
        <ele>1537.5999755859375</ele>
        <time>2022-08-25T08:26:25.000Z</time>
      </trkpt>
      <trkpt lat="40.3483615815639495849609375" lon="-1.745699308812618255615234375">
        <ele>1537</ele>
        <time>2022-08-25T08:26:27.000Z</time>
      </trkpt>
      <trkpt lat="40.34854556433856487274169921875" lon="-1.74588748253881931304931640625">
        <ele>1536.4000244140625</ele>
        <time>2022-08-25T08:26:30.000Z</time>
      </trkpt>
      <trkpt lat="40.3485944308340549468994140625" lon="-1.745960153639316558837890625">
        <ele>1536.199951171875</ele>
        <time>2022-08-25T08:26:31.000Z</time>
      </trkpt>
      <trkpt lat="40.34863910637795925140380859375" lon="-1.74603416584432125091552734375">
        <ele>1535.800048828125</ele>
        <time>2022-08-25T08:26:32.000Z</time>
      </trkpt>
      <trkpt lat="40.3487694449722766876220703125" lon="-1.7463452182710170745849609375">
        <ele>1534.800048828125</ele>
        <time>2022-08-25T08:26:36.000Z</time>
      </trkpt>
      <trkpt lat="40.34882786683738231658935546875" lon="-1.746687702834606170654296875">
        <ele>1534.5999755859375</ele>
        <time>2022-08-25T08:26:41.000Z</time>
      </trkpt>
      <trkpt lat="40.3488271124660968780517578125" lon="-1.74674277193844318389892578125">
        <ele>1534.5999755859375</ele>
        <time>2022-08-25T08:26:42.000Z</time>
      </trkpt>
      <trkpt lat="40.34879635088145732879638671875" lon="-1.74693136475980281829833984375">
        <ele>1534.5999755859375</ele>
        <time>2022-08-25T08:26:46.000Z</time>
      </trkpt>
      <trkpt lat="40.34868034534156322479248046875" lon="-1.7472417466342449188232421875">
        <ele>1535</ele>
        <time>2022-08-25T08:26:54.000Z</time>
      </trkpt>
      <trkpt lat="40.348475910723209381103515625" lon="-1.74753871746361255645751953125">
        <ele>1535.800048828125</ele>
        <time>2022-08-25T08:27:03.000Z</time>
      </trkpt>
      <trkpt lat="40.34821297042071819305419921875" lon="-1.7477399669587612152099609375">
        <ele>1536.800048828125</ele>
        <time>2022-08-25T08:27:11.000Z</time>
      </trkpt>
      <trkpt lat="40.34811205230653285980224609375" lon="-1.74777810461819171905517578125">
        <ele>1537.199951171875</ele>
        <time>2022-08-25T08:27:14.000Z</time>
      </trkpt>
      <trkpt lat="40.34792832098901271820068359375" lon="-1.747811548411846160888671875">
        <ele>1537.800048828125</ele>
        <time>2022-08-25T08:27:20.000Z</time>
      </trkpt>
      <trkpt lat="40.34786964766681194305419921875" lon="-1.74781381152570247650146484375">
        <ele>1538</ele>
        <time>2022-08-25T08:27:22.000Z</time>
      </trkpt>
      <trkpt lat="40.34770469181239604949951171875" lon="-1.74779369495809078216552734375">
        <ele>1539</ele>
        <time>2022-08-25T08:27:28.000Z</time>
      </trkpt>
      <trkpt lat="40.34767820499837398529052734375" lon="-1.7477915994822978973388671875">
        <ele>1539.199951171875</ele>
        <time>2022-08-25T08:27:29.000Z</time>
      </trkpt>
      <trkpt lat="40.3474806435406208038330078125" lon="-1.747759245336055755615234375">
        <ele>1540.199951171875</ele>
        <time>2022-08-25T08:27:37.000Z</time>
      </trkpt>
      <trkpt lat="40.34742691554129123687744140625" lon="-1.74774155952036380767822265625">
        <ele>1540.5999755859375</ele>
        <time>2022-08-25T08:27:39.000Z</time>
      </trkpt>
      <trkpt lat="40.34731091000139713287353515625" lon="-1.7477322556078433990478515625">
        <ele>1541.199951171875</ele>
        <time>2022-08-25T08:27:44.000Z</time>
      </trkpt>
      <trkpt lat="40.347245447337627410888671875" lon="-1.747733764350414276123046875">
        <ele>1541.800048828125</ele>
        <time>2022-08-25T08:27:47.000Z</time>
      </trkpt>
      <trkpt lat="40.34716338850557804107666015625" lon="-1.74773133359849452972412109375">
        <ele>1542.199951171875</ele>
        <time>2022-08-25T08:27:51.000Z</time>
      </trkpt>
      <trkpt lat="40.34704453311860561370849609375" lon="-1.74774147570133209228515625">
        <ele>1543</ele>
        <time>2022-08-25T08:27:57.000Z</time>
      </trkpt>
      <trkpt lat="40.34698753617703914642333984375" lon="-1.74775195308029651641845703125">
        <ele>1543.4000244140625</ele>
        <time>2022-08-25T08:28:00.000Z</time>
      </trkpt>
      <trkpt lat="40.346891395747661590576171875" lon="-1.74777139909565448760986328125">
        <ele>1544</ele>
        <time>2022-08-25T08:28:05.000Z</time>
      </trkpt>
      <trkpt lat="40.34682844765484333038330078125" lon="-1.74779780209064483642578125">
        <ele>1544.4000244140625</ele>
        <time>2022-08-25T08:28:08.000Z</time>
      </trkpt>
      <trkpt lat="40.34669928252696990966796875" lon="-1.74784800969064235687255859375">
        <ele>1545.199951171875</ele>
        <time>2022-08-25T08:28:14.000Z</time>
      </trkpt>
      <trkpt lat="40.34667941741645336151123046875" lon="-1.74785756506025791168212890625">
        <ele>1545.4000244140625</ele>
        <time>2022-08-25T08:28:15.000Z</time>
      </trkpt>
      <trkpt lat="40.34658151678740978240966796875" lon="-1.7479138076305389404296875">
        <ele>1546.5999755859375</ele>
        <time>2022-08-25T08:28:20.000Z</time>
      </trkpt>
      <trkpt lat="40.34650356508791446685791015625" lon="-1.7479629255831241607666015625">
        <ele>1547.199951171875</ele>
        <time>2022-08-25T08:28:24.000Z</time>
      </trkpt>
      <trkpt lat="40.34643785096704959869384765625" lon="-1.74798580817878246307373046875">
        <ele>1547.5999755859375</ele>
        <time>2022-08-25T08:28:27.000Z</time>
      </trkpt>
      <trkpt lat="40.34629368223249912261962890625" lon="-1.74809150397777557373046875">
        <ele>1548.4000244140625</ele>
        <time>2022-08-25T08:28:34.000Z</time>
      </trkpt>
      <trkpt lat="40.3462729789316654205322265625" lon="-1.74810868687927722930908203125">
        <ele>1548.4000244140625</ele>
        <time>2022-08-25T08:28:35.000Z</time>
      </trkpt>
      <trkpt lat="40.34615722484886646270751953125" lon="-1.7481979541480541229248046875">
        <ele>1549.5999755859375</ele>
        <time>2022-08-25T08:28:41.000Z</time>
      </trkpt>
      <trkpt lat="40.34604658372700214385986328125" lon="-1.7482961900532245635986328125">
        <ele>1551</ele>
        <time>2022-08-25T08:28:47.000Z</time>
      </trkpt>
      <trkpt lat="40.346009619534015655517578125" lon="-1.7483313940465450286865234375">
        <ele>1551.199951171875</ele>
        <time>2022-08-25T08:28:49.000Z</time>
      </trkpt>
      <trkpt lat="40.3459558077156543731689453125" lon="-1.748390235006809234619140625">
        <ele>1551.800048828125</ele>
        <time>2022-08-25T08:28:52.000Z</time>
      </trkpt>
      <trkpt lat="40.34585765562951564788818359375" lon="-1.74849811010062694549560546875">
        <ele>1553.199951171875</ele>
        <time>2022-08-25T08:28:58.000Z</time>
      </trkpt>
      <trkpt lat="40.345812141895294189453125" lon="-1.7485483177006244659423828125">
        <ele>1553.5999755859375</ele>
        <time>2022-08-25T08:29:01.000Z</time>
      </trkpt>
      <trkpt lat="40.34573997370898723602294921875" lon="-1.7486435361206531524658203125">
        <ele>1554.199951171875</ele>
        <time>2022-08-25T08:29:06.000Z</time>
      </trkpt>
      <trkpt lat="40.3456678055226802825927734375" lon="-1.74874604679644107818603515625">
        <ele>1554.800048828125</ele>
        <time>2022-08-25T08:29:11.000Z</time>
      </trkpt>
      <trkpt lat="40.345644839107990264892578125" lon="-1.748787201941013336181640625">
        <ele>1555.199951171875</ele>
        <time>2022-08-25T08:29:13.000Z</time>
      </trkpt>
      <trkpt lat="40.34563184715807437896728515625" lon="-1.748801954090595245361328125">
        <ele>1555.4000244140625</ele>
        <time>2022-08-25T08:29:14.000Z</time>
      </trkpt>
      <trkpt lat="40.34552170895040035247802734375" lon="-1.74900555051863193511962890625">
        <ele>1556.199951171875</ele>
        <time>2022-08-25T08:29:23.000Z</time>
      </trkpt>
      <trkpt lat="40.345359183847904205322265625" lon="-1.74920017831027507781982421875">
        <ele>1557.4000244140625</ele>
        <time>2022-08-25T08:29:33.000Z</time>
      </trkpt>
      <trkpt lat="40.34523068927228450775146484375" lon="-1.749393045902252197265625">
        <ele>1558.4000244140625</ele>
        <time>2022-08-25T08:29:43.000Z</time>
      </trkpt>
      <trkpt lat="40.3452178649604320526123046875" lon="-1.74941115081310272216796875">
        <ele>1558.4000244140625</ele>
        <time>2022-08-25T08:29:44.000Z</time>
      </trkpt>
      <trkpt lat="40.345099680125713348388671875" lon="-1.7495997436344623565673828125">
        <ele>1559.199951171875</ele>
        <time>2022-08-25T08:29:52.000Z</time>
      </trkpt>
      <trkpt lat="40.34507495351135730743408203125" lon="-1.74964249134063720703125">
        <ele>1559.5999755859375</ele>
        <time>2022-08-25T08:29:54.000Z</time>
      </trkpt>
      <trkpt lat="40.3450089879333972930908203125" lon="-1.7497645318508148193359375">
        <ele>1560</ele>
        <time>2022-08-25T08:30:00.000Z</time>
      </trkpt>
      <trkpt lat="40.344929359853267669677734375" lon="-1.74991515465080738067626953125">
        <ele>1560.5999755859375</ele>
        <time>2022-08-25T08:30:06.000Z</time>
      </trkpt>
      <trkpt lat="40.34488434903323650360107421875" lon="-1.75001867115497589111328125">
        <ele>1561.4000244140625</ele>
        <time>2022-08-25T08:30:10.000Z</time>
      </trkpt>
      <trkpt lat="40.34487429074943065643310546875" lon="-1.75004540942609310150146484375">
        <ele>1561.5999755859375</ele>
        <time>2022-08-25T08:30:11.000Z</time>
      </trkpt>
      <trkpt lat="40.34483925439417362213134765625" lon="-1.75020583905279636383056640625">
        <ele>1562.5999755859375</ele>
        <time>2022-08-25T08:30:18.000Z</time>
      </trkpt>
      <trkpt lat="40.34477236680686473846435546875" lon="-1.7504270374774932861328125">
        <ele>1563.5999755859375</ele>
        <time>2022-08-25T08:30:26.000Z</time>
      </trkpt>
      <trkpt lat="40.34476297907531261444091796875" lon="-1.75047942437231540679931640625">
        <ele>1563.800048828125</ele>
        <time>2022-08-25T08:30:28.000Z</time>
      </trkpt>
      <trkpt lat="40.34475727938115596771240234375" lon="-1.7505589686334133148193359375">
        <ele>1564.199951171875</ele>
        <time>2022-08-25T08:30:31.000Z</time>
      </trkpt>
      <trkpt lat="40.34471738152205944061279296875" lon="-1.7507054843008518218994140625">
        <ele>1565</ele>
        <time>2022-08-25T08:30:36.000Z</time>
      </trkpt>
      <trkpt lat="40.3446817584335803985595703125" lon="-1.7508355714380741119384765625">
        <ele>1565.5999755859375</ele>
        <time>2022-08-25T08:30:40.000Z</time>
      </trkpt>
      <trkpt lat="40.34466214478015899658203125" lon="-1.75089919008314609527587890625">
        <ele>1565.800048828125</ele>
        <time>2022-08-25T08:30:42.000Z</time>
      </trkpt>
      <trkpt lat="40.34461193718016147613525390625" lon="-1.7510840110480785369873046875">
        <ele>1566.5999755859375</ele>
        <time>2022-08-25T08:30:48.000Z</time>
      </trkpt>
      <trkpt lat="40.34460271708667278289794921875" lon="-1.7511136829853057861328125">
        <ele>1567</ele>
        <time>2022-08-25T08:30:49.000Z</time>
      </trkpt>
      <trkpt lat="40.34455611370503902435302734375" lon="-1.75127721391618251800537109375">
        <ele>1567.800048828125</ele>
        <time>2022-08-25T08:30:55.000Z</time>
      </trkpt>
      <trkpt lat="40.3445536829531192779541015625" lon="-1.751302443444728851318359375">
        <ele>1568</ele>
        <time>2022-08-25T08:30:56.000Z</time>
      </trkpt>
      <trkpt lat="40.34452778287231922149658203125" lon="-1.75144954584538936614990234375">
        <ele>1569</ele>
        <time>2022-08-25T08:31:02.000Z</time>
      </trkpt>
      <trkpt lat="40.3445228375494480133056640625" lon="-1.75147217698395252227783203125">
        <ele>1569.199951171875</ele>
        <time>2022-08-25T08:31:03.000Z</time>
      </trkpt>
      <trkpt lat="40.34448503516614437103271484375" lon="-1.75157795660197734832763671875">
        <ele>1570.199951171875</ele>
        <time>2022-08-25T08:31:07.000Z</time>
      </trkpt>
      <trkpt lat="40.34444312565028667449951171875" lon="-1.75166328437626361846923828125">
        <ele>1570.5999755859375</ele>
        <time>2022-08-25T08:31:10.000Z</time>
      </trkpt>
      <trkpt lat="40.34440758638083934783935546875" lon="-1.7517394758760929107666015625">
        <ele>1571</ele>
        <time>2022-08-25T08:31:13.000Z</time>
      </trkpt>
      <trkpt lat="40.3443409502506256103515625" lon="-1.75187065266072750091552734375">
        <ele>1571.800048828125</ele>
        <time>2022-08-25T08:31:19.000Z</time>
      </trkpt>
      <trkpt lat="40.34431605599820613861083984375" lon="-1.7519161663949489593505859375">
        <ele>1572.199951171875</ele>
        <time>2022-08-25T08:31:21.000Z</time>
      </trkpt>
      <trkpt lat="40.34411623142659664154052734375" lon="-1.752149350941181182861328125">
        <ele>1573.199951171875</ele>
        <time>2022-08-25T08:31:30.000Z</time>
      </trkpt>
      <trkpt lat="40.34409007988870143890380859375" lon="-1.75217449665069580078125">
        <ele>1573.199951171875</ele>
        <time>2022-08-25T08:31:31.000Z</time>
      </trkpt>
      <trkpt lat="40.3438791073858737945556640625" lon="-1.752333082258701324462890625">
        <ele>1574</ele>
        <time>2022-08-25T08:31:39.000Z</time>
      </trkpt>
      <trkpt lat="40.343853794038295745849609375" lon="-1.7523537017405033111572265625">
        <ele>1574</ele>
        <time>2022-08-25T08:31:40.000Z</time>
      </trkpt>
      <trkpt lat="40.34366863779723644256591796875" lon="-1.75251203589141368865966796875">
        <ele>1575</ele>
        <time>2022-08-25T08:31:48.000Z</time>
      </trkpt>
      <trkpt lat="40.34364332444965839385986328125" lon="-1.75253131426870822906494140625">
        <ele>1575.199951171875</ele>
        <time>2022-08-25T08:31:49.000Z</time>
      </trkpt>
      <trkpt lat="40.34344165585935115814208984375" lon="-1.75268755294382572174072265625">
        <ele>1576.199951171875</ele>
        <time>2022-08-25T08:31:58.000Z</time>
      </trkpt>
      <trkpt lat="40.34327653236687183380126953125" lon="-1.7528230883181095123291015625">
        <ele>1577.4000244140625</ele>
        <time>2022-08-25T08:32:05.000Z</time>
      </trkpt>
      <trkpt lat="40.3432531468570232391357421875" lon="-1.75283876247704029083251953125">
        <ele>1577.5999755859375</ele>
        <time>2022-08-25T08:32:06.000Z</time>
      </trkpt>
      <trkpt lat="40.3431468643248081207275390625" lon="-1.7529094219207763671875">
        <ele>1578.199951171875</ele>
        <time>2022-08-25T08:32:11.000Z</time>
      </trkpt>
      <trkpt lat="40.343049131333827972412109375" lon="-1.75299231894314289093017578125">
        <ele>1578.800048828125</ele>
        <time>2022-08-25T08:32:16.000Z</time>
      </trkpt>
      <trkpt lat="40.3430132567882537841796875" lon="-1.75302718766033649444580078125">
        <ele>1579.199951171875</ele>
        <time>2022-08-25T08:32:18.000Z</time>
      </trkpt>
      <trkpt lat="40.3429059684276580810546875" lon="-1.75311838276684284210205078125">
        <ele>1580.4000244140625</ele>
        <time>2022-08-25T08:32:24.000Z</time>
      </trkpt>
      <trkpt lat="40.34286481328308582305908203125" lon="-1.75314738415181636810302734375">
        <ele>1580.800048828125</ele>
        <time>2022-08-25T08:32:26.000Z</time>
      </trkpt>
      <trkpt lat="40.34276691265404224395751953125" lon="-1.7532257549464702606201171875">
        <ele>1581.5999755859375</ele>
        <time>2022-08-25T08:32:31.000Z</time>
      </trkpt>
      <trkpt lat="40.34268426708877086639404296875" lon="-1.75330144353210926055908203125">
        <ele>1582.199951171875</ele>
        <time>2022-08-25T08:32:36.000Z</time>
      </trkpt>
      <trkpt lat="40.3426107577979564666748046875" lon="-1.7533759586513042449951171875">
        <ele>1582.5999755859375</ele>
        <time>2022-08-25T08:32:41.000Z</time>
      </trkpt>
      <trkpt lat="40.34253171645104885101318359375" lon="-1.75343446433544158935546875">
        <ele>1583</ele>
        <time>2022-08-25T08:32:45.000Z</time>
      </trkpt>
      <trkpt lat="40.3423928283154964447021484375" lon="-1.7534792236983776092529296875">
        <ele>1583.5999755859375</ele>
        <time>2022-08-25T08:32:52.000Z</time>
      </trkpt>
      <trkpt lat="40.34237430430948734283447265625" lon="-1.75348316319286823272705078125">
        <ele>1583.800048828125</ele>
        <time>2022-08-25T08:32:53.000Z</time>
      </trkpt>
      <trkpt lat="40.34222929738461971282958984375" lon="-1.75351853482425212860107421875">
        <ele>1584.4000244140625</ele>
        <time>2022-08-25T08:33:02.000Z</time>
      </trkpt>
      <trkpt lat="40.34220415167510509490966796875" lon="-1.75352641381323337554931640625">
        <ele>1584.5999755859375</ele>
        <time>2022-08-25T08:33:03.000Z</time>
      </trkpt>
      <trkpt lat="40.342007763683795928955078125" lon="-1.75359933637082576751708984375">
        <ele>1585</ele>
        <time>2022-08-25T08:33:09.000Z</time>
      </trkpt>
      <trkpt lat="40.34187675453722476959228515625" lon="-1.75363026559352874755859375">
        <ele>1585.5999755859375</ele>
        <time>2022-08-25T08:33:13.000Z</time>
      </trkpt>
      <trkpt lat="40.34172554500401020050048828125" lon="-1.75366203300654888153076171875">
        <ele>1586.5999755859375</ele>
        <time>2022-08-25T08:33:18.000Z</time>
      </trkpt>
      <trkpt lat="40.341606773436069488525390625" lon="-1.75366572104394435882568359375">
        <ele>1587.5999755859375</ele>
        <time>2022-08-25T08:33:24.000Z</time>
      </trkpt>
      <trkpt lat="40.34156151115894317626953125" lon="-1.75366370938718318939208984375">
        <ele>1587.800048828125</ele>
        <time>2022-08-25T08:33:26.000Z</time>
      </trkpt>
      <trkpt lat="40.34139127470552921295166015625" lon="-1.7536254040896892547607421875">
        <ele>1588.5999755859375</ele>
        <time>2022-08-25T08:33:33.000Z</time>
      </trkpt>
      <trkpt lat="40.3413652069866657257080078125" lon="-1.75361895002424716949462890625">
        <ele>1588.5999755859375</ele>
        <time>2022-08-25T08:33:34.000Z</time>
      </trkpt>
      <trkpt lat="40.3411667235195636749267578125" lon="-1.7535751126706600189208984375">
        <ele>1589.800048828125</ele>
        <time>2022-08-25T08:33:41.000Z</time>
      </trkpt>
      <trkpt lat="40.3409353829920291900634765625" lon="-1.75348249264061450958251953125">
        <ele>1590.800048828125</ele>
        <time>2022-08-25T08:33:49.000Z</time>
      </trkpt>
      <trkpt lat="40.34076564945280551910400390625" lon="-1.75342775881290435791015625">
        <ele>1591.800048828125</ele>
        <time>2022-08-25T08:33:56.000Z</time>
      </trkpt>
      <trkpt lat="40.34057311713695526123046875" lon="-1.7534074746072292327880859375">
        <ele>1592.800048828125</ele>
        <time>2022-08-25T08:34:02.000Z</time>
      </trkpt>
      <trkpt lat="40.34054352901875972747802734375" lon="-1.7534011043608188629150390625">
        <ele>1592.800048828125</ele>
        <time>2022-08-25T08:34:03.000Z</time>
      </trkpt>
      <trkpt lat="40.340308248996734619140625" lon="-1.75336397252976894378662109375">
        <ele>1594</ele>
        <time>2022-08-25T08:34:10.000Z</time>
      </trkpt>
      <trkpt lat="40.34027446992695331573486328125" lon="-1.753362715244293212890625">
        <ele>1594</ele>
        <time>2022-08-25T08:34:11.000Z</time>
      </trkpt>
      <trkpt lat="40.3400056622922420501708984375" lon="-1.7533605359494686126708984375">
        <ele>1595</ele>
        <time>2022-08-25T08:34:19.000Z</time>
      </trkpt>
      <trkpt lat="40.33997959457337856292724609375" lon="-1.7533632181584835052490234375">
        <ele>1595.199951171875</ele>
        <time>2022-08-25T08:34:20.000Z</time>
      </trkpt>
      <trkpt lat="40.33983291126787662506103515625" lon="-1.753379143774509429931640625">
        <ele>1596</ele>
        <time>2022-08-25T08:34:25.000Z</time>
      </trkpt>
      <trkpt lat="40.33966426737606525421142578125" lon="-1.7533880285918712615966796875">
        <ele>1597</ele>
        <time>2022-08-25T08:34:32.000Z</time>
      </trkpt>
      <trkpt lat="40.3395263850688934326171875" lon="-1.75337067805230617523193359375">
        <ele>1598.199951171875</ele>
        <time>2022-08-25T08:34:39.000Z</time>
      </trkpt>
      <trkpt lat="40.3395054303109645843505859375" lon="-1.75337067805230617523193359375">
        <ele>1598.4000244140625</ele>
        <time>2022-08-25T08:34:40.000Z</time>
      </trkpt>
      <trkpt lat="40.33940107561647891998291015625" lon="-1.7533571831881999969482421875">
        <ele>1599.199951171875</ele>
        <time>2022-08-25T08:34:45.000Z</time>
      </trkpt>
      <trkpt lat="40.339338965713977813720703125" lon="-1.75334930419921875">
        <ele>1599.800048828125</ele>
        <time>2022-08-25T08:34:48.000Z</time>
      </trkpt>
      <trkpt lat="40.33927333541214466094970703125" lon="-1.7533565126359462738037109375">
        <ele>1600.4000244140625</ele>
        <time>2022-08-25T08:34:51.000Z</time>
      </trkpt>
      <trkpt lat="40.33916001208126544952392578125" lon="-1.7533752880990505218505859375">
        <ele>1600.800048828125</ele>
        <time>2022-08-25T08:34:55.000Z</time>
      </trkpt>
      <trkpt lat="40.3389689885079860687255859375" lon="-1.75338593311607837677001953125">
        <ele>1601.5999755859375</ele>
        <time>2022-08-25T08:35:01.000Z</time>
      </trkpt>
      <trkpt lat="40.3388774581253528594970703125" lon="-1.7534081451594829559326171875">
        <ele>1602</ele>
        <time>2022-08-25T08:35:04.000Z</time>
      </trkpt>
      <trkpt lat="40.33870160579681396484375" lon="-1.753383167088031768798828125">
        <ele>1602.4000244140625</ele>
        <time>2022-08-25T08:35:11.000Z</time>
      </trkpt>
      <trkpt lat="40.33859088085591793060302734375" lon="-1.7533814907073974609375">
        <ele>1602.5999755859375</ele>
        <time>2022-08-25T08:35:16.000Z</time>
      </trkpt>
      <trkpt lat="40.33854980953037738800048828125" lon="-1.75338425673544406890869140625">
        <ele>1602.800048828125</ele>
        <time>2022-08-25T08:35:18.000Z</time>
      </trkpt>
      <trkpt lat="40.33834914676845073699951171875" lon="-1.7534627951681613922119140625">
        <ele>1602.800048828125</ele>
        <time>2022-08-25T08:35:25.000Z</time>
      </trkpt>
      <trkpt lat="40.33830623142421245574951171875" lon="-1.75352322869002819061279296875">
        <ele>1602.800048828125</ele>
        <time>2022-08-25T08:35:27.000Z</time>
      </trkpt>
      <trkpt lat="40.33826096914708614349365234375" lon="-1.75363319925963878631591796875">
        <ele>1602.800048828125</ele>
        <time>2022-08-25T08:35:29.000Z</time>
      </trkpt>
      <trkpt lat="40.338201709091663360595703125" lon="-1.75397719256579875946044921875">
        <ele>1602.4000244140625</ele>
        <time>2022-08-25T08:35:33.000Z</time>
      </trkpt>
      <trkpt lat="40.33824722282588481903076171875" lon="-1.754281707108020782470703125">
        <ele>1602</ele>
        <time>2022-08-25T08:35:36.000Z</time>
      </trkpt>
      <trkpt lat="40.33831796608865261077880859375" lon="-1.75446535460650920867919921875">
        <ele>1601.4000244140625</ele>
        <time>2022-08-25T08:35:38.000Z</time>
      </trkpt>
      <trkpt lat="40.33842575736343860626220703125" lon="-1.75472519360482692718505859375">
        <ele>1600.4000244140625</ele>
        <time>2022-08-25T08:35:41.000Z</time>
      </trkpt>
      <trkpt lat="40.33859557472169399261474609375" lon="-1.75507153384387493133544921875">
        <ele>1599.199951171875</ele>
        <time>2022-08-25T08:35:45.000Z</time>
      </trkpt>
      <trkpt lat="40.33875080756843090057373046875" lon="-1.75543480552732944488525390625">
        <ele>1598.5999755859375</ele>
        <time>2022-08-25T08:35:49.000Z</time>
      </trkpt>
      <trkpt lat="40.338864885270595550537109375" lon="-1.755722053349018096923828125">
        <ele>1598.4000244140625</ele>
        <time>2022-08-25T08:35:52.000Z</time>
      </trkpt>
      <trkpt lat="40.33890285529196262359619140625" lon="-1.7558224685490131378173828125">
        <ele>1598.199951171875</ele>
        <time>2022-08-25T08:35:53.000Z</time>
      </trkpt>
      <trkpt lat="40.33895499072968959808349609375" lon="-1.755907796323299407958984375">
        <ele>1598</ele>
        <time>2022-08-25T08:35:54.000Z</time>
      </trkpt>
      <trkpt lat="40.339138470590114593505859375" lon="-1.7561295814812183380126953125">
        <ele>1597.199951171875</ele>
        <time>2022-08-25T08:35:57.000Z</time>
      </trkpt>
      <trkpt lat="40.33920728601515293121337890625" lon="-1.75619604997336864471435546875">
        <ele>1597</ele>
        <time>2022-08-25T08:35:58.000Z</time>
      </trkpt>
      <trkpt lat="40.33928121440112590789794921875" lon="-1.7562553100287914276123046875">
        <ele>1596.5999755859375</ele>
        <time>2022-08-25T08:35:59.000Z</time>
      </trkpt>
      <trkpt lat="40.33941247500479221343994140625" lon="-1.7563790269196033477783203125">
        <ele>1596.199951171875</ele>
        <time>2022-08-25T08:36:01.000Z</time>
      </trkpt>
      <trkpt lat="40.33963392488658428192138671875" lon="-1.7566760815680027008056640625">
        <ele>1595</ele>
        <time>2022-08-25T08:36:05.000Z</time>
      </trkpt>
      <trkpt lat="40.3398158960044384002685546875" lon="-1.7570472322404384613037109375">
        <ele>1594</ele>
        <time>2022-08-25T08:36:09.000Z</time>
      </trkpt>
      <trkpt lat="40.33986032009124755859375" lon="-1.757143624126911163330078125">
        <ele>1593.800048828125</ele>
        <time>2022-08-25T08:36:10.000Z</time>
      </trkpt>
      <trkpt lat="40.340170450508594512939453125" lon="-1.75769775174558162689208984375">
        <ele>1592.5999755859375</ele>
        <time>2022-08-25T08:36:16.000Z</time>
      </trkpt>
      <trkpt lat="40.340269692242145538330078125" lon="-1.75787595100700855255126953125">
        <ele>1592</ele>
        <time>2022-08-25T08:36:18.000Z</time>
      </trkpt>
      <trkpt lat="40.3404103405773639678955078125" lon="-1.7581335268914699554443359375">
        <ele>1591.4000244140625</ele>
        <time>2022-08-25T08:36:21.000Z</time>
      </trkpt>
      <trkpt lat="40.340688787400722503662109375" lon="-1.75861355848610401153564453125">
        <ele>1590.199951171875</ele>
        <time>2022-08-25T08:36:27.000Z</time>
      </trkpt>
      <trkpt lat="40.340896658599376678466796875" lon="-1.75898906774818897247314453125">
        <ele>1589.4000244140625</ele>
        <time>2022-08-25T08:36:32.000Z</time>
      </trkpt>
      <trkpt lat="40.34092389978468418121337890625" lon="-1.7590664327144622802734375">
        <ele>1589.199951171875</ele>
        <time>2022-08-25T08:36:33.000Z</time>
      </trkpt>
      <trkpt lat="40.34094502218067646026611328125" lon="-1.75914094783365726470947265625">
        <ele>1589</ele>
        <time>2022-08-25T08:36:34.000Z</time>
      </trkpt>
      <trkpt lat="40.340903699398040771484375" lon="-1.75934211350977420806884765625">
        <ele>1588.800048828125</ele>
        <time>2022-08-25T08:36:37.000Z</time>
      </trkpt>
      <trkpt lat="40.34077227115631103515625" lon="-1.759413778781890869140625">
        <ele>1588.4000244140625</ele>
        <time>2022-08-25T08:36:40.000Z</time>
      </trkpt>
      <trkpt lat="40.340681411325931549072265625" lon="-1.75934647209942340850830078125">
        <ele>1588.199951171875</ele>
        <time>2022-08-25T08:36:42.000Z</time>
      </trkpt>
      <trkpt lat="40.34064025618135929107666015625" lon="-1.75929509103298187255859375">
        <ele>1588</ele>
        <time>2022-08-25T08:36:43.000Z</time>
      </trkpt>
      <trkpt lat="40.3405481390655040740966796875" lon="-1.759174056351184844970703125">
        <ele>1588</ele>
        <time>2022-08-25T08:36:45.000Z</time>
      </trkpt>
      <trkpt lat="40.340308248996734619140625" lon="-1.7589660175144672393798828125">
        <ele>1587.5999755859375</ele>
        <time>2022-08-25T08:36:49.000Z</time>
      </trkpt>
      <trkpt lat="40.339788235723972320556640625" lon="-1.75856527872383594512939453125">
        <ele>1587.4000244140625</ele>
        <time>2022-08-25T08:36:57.000Z</time>
      </trkpt>
      <trkpt lat="40.3395832143723964691162109375" lon="-1.75843301229178905487060546875">
        <ele>1587</ele>
        <time>2022-08-25T08:37:00.000Z</time>
      </trkpt>
      <trkpt lat="40.33924517221748828887939453125" lon="-1.75822631455957889556884765625">
        <ele>1586.4000244140625</ele>
        <time>2022-08-25T08:37:05.000Z</time>
      </trkpt>
      <trkpt lat="40.33881886862218379974365234375" lon="-1.75793345086276531219482421875">
        <ele>1586</ele>
        <time>2022-08-25T08:37:12.000Z</time>
      </trkpt>
      <trkpt lat="40.33846758306026458740234375" lon="-1.75754964351654052734375">
        <ele>1585.5999755859375</ele>
        <time>2022-08-25T08:37:19.000Z</time>
      </trkpt>
      <trkpt lat="40.33804153092205524444580078125" lon="-1.7572591267526149749755859375">
        <ele>1585.4000244140625</ele>
        <time>2022-08-25T08:37:27.000Z</time>
      </trkpt>
      <trkpt lat="40.33752889372408390045166015625" lon="-1.75692267715930938720703125">
        <ele>1585</ele>
        <time>2022-08-25T08:37:36.000Z</time>
      </trkpt>
      <trkpt lat="40.3374699689447879791259765625" lon="-1.756886802613735198974609375">
        <ele>1585</ele>
        <time>2022-08-25T08:37:37.000Z</time>
      </trkpt>
      <trkpt lat="40.33714299090206623077392578125" lon="-1.756650768220424652099609375">
        <ele>1585</ele>
        <time>2022-08-25T08:37:43.000Z</time>
      </trkpt>
      <trkpt lat="40.33706746995449066162109375" lon="-1.75653803162276744842529296875">
        <ele>1585</ele>
        <time>2022-08-25T08:37:45.000Z</time>
      </trkpt>
      <trkpt lat="40.33700502477586269378662109375" lon="-1.75641180016100406646728515625">
        <ele>1585</ele>
        <time>2022-08-25T08:37:47.000Z</time>
      </trkpt>
      <trkpt lat="40.336931012570858001708984375" lon="-1.75631021149456501007080078125">
        <ele>1584.800048828125</ele>
        <time>2022-08-25T08:37:49.000Z</time>
      </trkpt>
      <trkpt lat="40.33688935451209545135498046875" lon="-1.756268553435802459716796875">
        <ele>1584.5999755859375</ele>
        <time>2022-08-25T08:37:50.000Z</time>
      </trkpt>
      <trkpt lat="40.33670176751911640167236328125" lon="-1.75618113018572330474853515625">
        <ele>1584.5999755859375</ele>
        <time>2022-08-25T08:37:53.000Z</time>
      </trkpt>
      <trkpt lat="40.33664275892078876495361328125" lon="-1.75615330226719379425048828125">
        <ele>1584.5999755859375</ele>
        <time>2022-08-25T08:37:54.000Z</time>
      </trkpt>
      <trkpt lat="40.33618007786571979522705078125" lon="-1.7558982409536838531494140625">
        <ele>1584.5999755859375</ele>
        <time>2022-08-25T08:38:02.000Z</time>
      </trkpt>
      <trkpt lat="40.3358368389308452606201171875" lon="-1.755677796900272369384765625">
        <ele>1584.4000244140625</ele>
        <time>2022-08-25T08:38:09.000Z</time>
      </trkpt>
      <trkpt lat="40.33568101935088634490966796875" lon="-1.755600012838840484619140625">
        <ele>1584.5999755859375</ele>
        <time>2022-08-25T08:38:14.000Z</time>
      </trkpt>
      <trkpt lat="40.33550483174622058868408203125" lon="-1.75552063621580600738525390625">
        <ele>1585.800048828125</ele>
        <time>2022-08-25T08:38:21.000Z</time>
      </trkpt>
      <trkpt lat="40.3354789316654205322265625" lon="-1.75551292486488819122314453125">
        <ele>1586.199951171875</ele>
        <time>2022-08-25T08:38:22.000Z</time>
      </trkpt>
      <trkpt lat="40.33540181815624237060546875" lon="-1.75548861734569072723388671875">
        <ele>1587</ele>
        <time>2022-08-25T08:38:25.000Z</time>
      </trkpt>
      <trkpt lat="40.33524625003337860107421875" lon="-1.7554700933396816253662109375">
        <ele>1588</ele>
        <time>2022-08-25T08:38:31.000Z</time>
      </trkpt>
      <trkpt lat="40.3351213596761226654052734375" lon="-1.75543966703116893768310546875">
        <ele>1589.4000244140625</ele>
        <time>2022-08-25T08:38:37.000Z</time>
      </trkpt>
      <trkpt lat="40.33507081679999828338623046875" lon="-1.75540664233267307281494140625">
        <ele>1589.800048828125</ele>
        <time>2022-08-25T08:38:40.000Z</time>
      </trkpt>
      <trkpt lat="40.33497526310384273529052734375" lon="-1.75533288158476352691650390625">
        <ele>1590.4000244140625</ele>
        <time>2022-08-25T08:38:45.000Z</time>
      </trkpt>
      <trkpt lat="40.3348923660814762115478515625" lon="-1.7552806623280048370361328125">
        <ele>1591</ele>
        <time>2022-08-25T08:38:49.000Z</time>
      </trkpt>
      <trkpt lat="40.33483453094959259033203125" lon="-1.75524520687758922576904296875">
        <ele>1591.4000244140625</ele>
        <time>2022-08-25T08:38:52.000Z</time>
      </trkpt>
      <trkpt lat="40.33469212241470813751220703125" lon="-1.75519726239144802093505859375">
        <ele>1592.199951171875</ele>
        <time>2022-08-25T08:38:58.000Z</time>
      </trkpt>
      <trkpt lat="40.3346474468708038330078125" lon="-1.75518787465989589691162109375">
        <ele>1592.5999755859375</ele>
        <time>2022-08-25T08:39:00.000Z</time>
      </trkpt>
      <trkpt lat="40.33453269861638545989990234375" lon="-1.75517865456640720367431640625">
        <ele>1593.800048828125</ele>
        <time>2022-08-25T08:39:06.000Z</time>
      </trkpt>
      <trkpt lat="40.33444602973759174346923828125" lon="-1.75528108142316341400146484375">
        <ele>1594.800048828125</ele>
        <time>2022-08-25T08:39:11.000Z</time>
      </trkpt>
      <trkpt lat="40.33443831838667392730712890625" lon="-1.7553148604929447174072265625">
        <ele>1595</ele>
        <time>2022-08-25T08:39:12.000Z</time>
      </trkpt>
      <trkpt lat="40.33442926593124866485595703125" lon="-1.75551108084619045257568359375">
        <ele>1596</ele>
        <time>2022-08-25T08:39:17.000Z</time>
      </trkpt>
      <trkpt lat="40.334433205425739288330078125" lon="-1.75555198453366756439208984375">
        <ele>1596</ele>
        <time>2022-08-25T08:39:18.000Z</time>
      </trkpt>
      <trkpt lat="40.334500260651111602783203125" lon="-1.7557969875633716583251953125">
        <ele>1596.199951171875</ele>
        <time>2022-08-25T08:39:24.000Z</time>
      </trkpt>
      <trkpt lat="40.33464468084275722503662109375" lon="-1.75612933002412319183349609375">
        <ele>1596.199951171875</ele>
        <time>2022-08-25T08:39:31.000Z</time>
      </trkpt>
      <trkpt lat="40.3347978182137012481689453125" lon="-1.75650383345782756805419921875">
        <ele>1596.199951171875</ele>
        <time>2022-08-25T08:39:38.000Z</time>
      </trkpt>
      <trkpt lat="40.33481215126812458038330078125" lon="-1.75655923783779144287109375">
        <ele>1596.199951171875</ele>
        <time>2022-08-25T08:39:39.000Z</time>
      </trkpt>
      <trkpt lat="40.33484836108982563018798828125" lon="-1.75681496970355510711669921875">
        <ele>1596.199951171875</ele>
        <time>2022-08-25T08:39:44.000Z</time>
      </trkpt>
      <trkpt lat="40.33487585373222827911376953125" lon="-1.7571176402270793914794921875">
        <ele>1596.4000244140625</ele>
        <time>2022-08-25T08:39:51.000Z</time>
      </trkpt>
      <trkpt lat="40.3348471038043498992919921875" lon="-1.75740974955260753631591796875">
        <ele>1597</ele>
        <time>2022-08-25T08:39:58.000Z</time>
      </trkpt>
      <trkpt lat="40.33483595587313175201416015625" lon="-1.757556684315204620361328125">
        <ele>1597.199951171875</ele>
        <time>2022-08-25T08:40:01.000Z</time>
      </trkpt>
      <trkpt lat="40.33482757396996021270751953125" lon="-1.75780235789716243743896484375">
        <ele>1597.5999755859375</ele>
        <time>2022-08-25T08:40:06.000Z</time>
      </trkpt>
      <trkpt lat="40.334877781569957733154296875" lon="-1.75811835564672946929931640625">
        <ele>1598</ele>
        <time>2022-08-25T08:40:13.000Z</time>
      </trkpt>
      <trkpt lat="40.3349929489195346832275390625" lon="-1.75850274972617626190185546875">
        <ele>1598</ele>
        <time>2022-08-25T08:40:21.000Z</time>
      </trkpt>
      <trkpt lat="40.33504013903439044952392578125" lon="-1.7586283944547176361083984375">
        <ele>1598.199951171875</ele>
        <time>2022-08-25T08:40:24.000Z</time>
      </trkpt>
      <trkpt lat="40.335101075470447540283203125" lon="-1.75874314270913600921630859375">
        <ele>1598.199951171875</ele>
        <time>2022-08-25T08:40:27.000Z</time>
      </trkpt>
      <trkpt lat="40.335300900042057037353515625" lon="-1.75907246768474578857421875">
        <ele>1598.5999755859375</ele>
        <time>2022-08-25T08:40:35.000Z</time>
      </trkpt>
      <trkpt lat="40.33549410291016101837158203125" lon="-1.75933800637722015380859375">
        <ele>1599</ele>
        <time>2022-08-25T08:40:42.000Z</time>
      </trkpt>
      <trkpt lat="40.33563810400664806365966796875" lon="-1.759604550898075103759765625">
        <ele>1599.199951171875</ele>
        <time>2022-08-25T08:40:48.000Z</time>
      </trkpt>
      <trkpt lat="40.335760898888111114501953125" lon="-1.75997612066566944122314453125">
        <ele>1599.800048828125</ele>
        <time>2022-08-25T08:40:55.000Z</time>
      </trkpt>
      <trkpt lat="40.33594094216823577880859375" lon="-1.76037736237049102783203125">
        <ele>1600</ele>
        <time>2022-08-25T08:41:03.000Z</time>
      </trkpt>
      <trkpt lat="40.3361248411238193511962890625" lon="-1.76075010560452938079833984375">
        <ele>1600.199951171875</ele>
        <time>2022-08-25T08:41:11.000Z</time>
      </trkpt>
      <trkpt lat="40.33614386804401874542236328125" lon="-1.7607952840626239776611328125">
        <ele>1600.199951171875</ele>
        <time>2022-08-25T08:41:12.000Z</time>
      </trkpt>
      <trkpt lat="40.33622232265770435333251953125" lon="-1.7610561288893222808837890625">
        <ele>1600.5999755859375</ele>
        <time>2022-08-25T08:41:18.000Z</time>
      </trkpt>
      <trkpt lat="40.33637135289609432220458984375" lon="-1.7613578774034976959228515625">
        <ele>1601.199951171875</ele>
        <time>2022-08-25T08:41:26.000Z</time>
      </trkpt>
      <trkpt lat="40.336406640708446502685546875" lon="-1.7614401876926422119140625">
        <ele>1601.199951171875</ele>
        <time>2022-08-25T08:41:28.000Z</time>
      </trkpt>
      <trkpt lat="40.336521975696086883544921875" lon="-1.76173129118978977203369140625">
        <ele>1601.5999755859375</ele>
        <time>2022-08-25T08:41:35.000Z</time>
      </trkpt>
      <trkpt lat="40.33657385967671871185302734375" lon="-1.7619070596992969512939453125">
        <ele>1602.199951171875</ele>
        <time>2022-08-25T08:41:39.000Z</time>
      </trkpt>
      <trkpt lat="40.3366012685000896453857421875" lon="-1.76202599890530109405517578125">
        <ele>1602.4000244140625</ele>
        <time>2022-08-25T08:41:42.000Z</time>
      </trkpt>
      <trkpt lat="40.3366371430456638336181640625" lon="-1.76235725171864032745361328125">
        <ele>1603.4000244140625</ele>
        <time>2022-08-25T08:41:51.000Z</time>
      </trkpt>
      <trkpt lat="40.336641333997249603271484375" lon="-1.7623950541019439697265625">
        <ele>1603.5999755859375</ele>
        <time>2022-08-25T08:41:52.000Z</time>
      </trkpt>
      <trkpt lat="40.336648710072040557861328125" lon="-1.76264584064483642578125">
        <ele>1604.5999755859375</ele>
        <time>2022-08-25T08:41:58.000Z</time>
      </trkpt>
      <trkpt lat="40.336648039519786834716796875" lon="-1.76268934272229671478271484375">
        <ele>1604.800048828125</ele>
        <time>2022-08-25T08:41:59.000Z</time>
      </trkpt>
      <trkpt lat="40.33663697540760040283203125" lon="-1.76303182728588581085205078125">
        <ele>1605.800048828125</ele>
        <time>2022-08-25T08:42:07.000Z</time>
      </trkpt>
      <trkpt lat="40.3366358019411563873291015625" lon="-1.76307541318237781524658203125">
        <ele>1605.800048828125</ele>
        <time>2022-08-25T08:42:08.000Z</time>
      </trkpt>
      <trkpt lat="40.33662222325801849365234375" lon="-1.76334681920707225799560546875">
        <ele>1606.4000244140625</ele>
        <time>2022-08-25T08:42:15.000Z</time>
      </trkpt>
      <trkpt lat="40.336639992892742156982421875" lon="-1.76347120665013790130615234375">
        <ele>1606.800048828125</ele>
        <time>2022-08-25T08:42:18.000Z</time>
      </trkpt>
      <trkpt lat="40.33666572533547878265380859375" lon="-1.76355955190956592559814453125">
        <ele>1606.800048828125</ele>
        <time>2022-08-25T08:42:20.000Z</time>
      </trkpt>
      <trkpt lat="40.3367943875491619110107421875" lon="-1.76371143199503421783447265625">
        <ele>1607</ele>
        <time>2022-08-25T08:42:25.000Z</time>
      </trkpt>
      <trkpt lat="40.33703134395182132720947265625" lon="-1.76384747028350830078125">
        <ele>1607</ele>
        <time>2022-08-25T08:42:31.000Z</time>
      </trkpt>
      <trkpt lat="40.33734197728335857391357421875" lon="-1.76401418633759021759033203125">
        <ele>1606.800048828125</ele>
        <time>2022-08-25T08:42:38.000Z</time>
      </trkpt>
      <trkpt lat="40.33765755593776702880859375" lon="-1.76420026458799839019775390625">
        <ele>1606.4000244140625</ele>
        <time>2022-08-25T08:42:45.000Z</time>
      </trkpt>
      <trkpt lat="40.3376959450542926788330078125" lon="-1.76424317993223667144775390625">
        <ele>1606.4000244140625</ele>
        <time>2022-08-25T08:42:46.000Z</time>
      </trkpt>
      <trkpt lat="40.3377194143831729888916015625" lon="-1.7644095607101917266845703125">
        <ele>1605.800048828125</ele>
        <time>2022-08-25T08:42:49.000Z</time>
      </trkpt>
      <trkpt lat="40.337697453796863555908203125" lon="-1.764453314244747161865234375">
        <ele>1605.5999755859375</ele>
        <time>2022-08-25T08:42:50.000Z</time>
      </trkpt>
      <trkpt lat="40.3376406244933605194091796875" lon="-1.7645108141005039215087890625">
        <ele>1605.5999755859375</ele>
        <time>2022-08-25T08:42:52.000Z</time>
      </trkpt>
      <trkpt lat="40.33752386458218097686767578125" lon="-1.764564625918865203857421875">
        <ele>1605.5999755859375</ele>
        <time>2022-08-25T08:42:55.000Z</time>
      </trkpt>
      <trkpt lat="40.337437950074672698974609375" lon="-1.764595471322536468505859375">
        <ele>1605.5999755859375</ele>
        <time>2022-08-25T08:42:57.000Z</time>
      </trkpt>
      <trkpt lat="40.337077192962169647216796875" lon="-1.76471809856593608856201171875">
        <ele>1606</ele>
        <time>2022-08-25T08:43:05.000Z</time>
      </trkpt>
      <trkpt lat="40.33671081997454166412353515625" lon="-1.7648923583328723907470703125">
        <ele>1606.4000244140625</ele>
        <time>2022-08-25T08:43:12.000Z</time>
      </trkpt>
      <trkpt lat="40.33661954104900360107421875" lon="-1.76495228894054889678955078125">
        <ele>1606.5999755859375</ele>
        <time>2022-08-25T08:43:14.000Z</time>
      </trkpt>
      <trkpt lat="40.3364621289074420928955078125" lon="-1.76510483957827091217041015625">
        <ele>1607</ele>
        <time>2022-08-25T08:43:18.000Z</time>
      </trkpt>
      <trkpt lat="40.33622601069509983062744140625" lon="-1.765428967773914337158203125">
        <ele>1607.5999755859375</ele>
        <time>2022-08-25T08:43:25.000Z</time>
      </trkpt>
      <trkpt lat="40.336006321012973785400390625" lon="-1.76575963385403156280517578125">
        <ele>1608.199951171875</ele>
        <time>2022-08-25T08:43:32.000Z</time>
      </trkpt>
      <trkpt lat="40.335945971310138702392578125" lon="-1.76585376262664794921875">
        <ele>1608.4000244140625</ele>
        <time>2022-08-25T08:43:34.000Z</time>
      </trkpt>
      <trkpt lat="40.33584983088076114654541015625" lon="-1.765974126756191253662109375">
        <ele>1608.5999755859375</ele>
        <time>2022-08-25T08:43:37.000Z</time>
      </trkpt>
      <trkpt lat="40.33582158386707305908203125" lon="-1.766012012958526611328125">
        <ele>1608.5999755859375</ele>
        <time>2022-08-25T08:43:38.000Z</time>
      </trkpt>
      <trkpt lat="40.33557347953319549560546875" lon="-1.766277216374874114990234375">
        <ele>1609.4000244140625</ele>
        <time>2022-08-25T08:43:45.000Z</time>
      </trkpt>
      <trkpt lat="40.3355002216994762420654296875" lon="-1.7663518153131008148193359375">
        <ele>1609.5999755859375</ele>
        <time>2022-08-25T08:43:47.000Z</time>
      </trkpt>
      <trkpt lat="40.33525253646075725555419921875" lon="-1.76656831987202167510986328125">
        <ele>1610.4000244140625</ele>
        <time>2022-08-25T08:43:54.000Z</time>
      </trkpt>
      <trkpt lat="40.33515363000333309173583984375" lon="-1.76664560101926326751708984375">
        <ele>1610.800048828125</ele>
        <time>2022-08-25T08:43:57.000Z</time>
      </trkpt>
      <trkpt lat="40.33498029224574565887451171875" lon="-1.76674417220056056976318359375">
        <ele>1611.199951171875</ele>
        <time>2022-08-25T08:44:02.000Z</time>
      </trkpt>
      <trkpt lat="40.334764458239078521728515625" lon="-1.7668004147708415985107421875">
        <ele>1611.5999755859375</ele>
        <time>2022-08-25T08:44:08.000Z</time>
      </trkpt>
      <trkpt lat="40.334645099937915802001953125" lon="-1.766807623207569122314453125">
        <ele>1611.800048828125</ele>
        <time>2022-08-25T08:44:11.000Z</time>
      </trkpt>
      <trkpt lat="40.33442541025578975677490234375" lon="-1.766798906028270721435546875">
        <ele>1612.199951171875</ele>
        <time>2022-08-25T08:44:16.000Z</time>
      </trkpt>
      <trkpt lat="40.3341118432581424713134765625" lon="-1.7667655460536479949951171875">
        <ele>1612.800048828125</ele>
        <time>2022-08-25T08:44:23.000Z</time>
      </trkpt>
      <trkpt lat="40.33406700007617473602294921875" lon="-1.7667598463594913482666015625">
        <ele>1613</ele>
        <time>2022-08-25T08:44:24.000Z</time>
      </trkpt>
      <trkpt lat="40.33375896513462066650390625" lon="-1.76669438369572162628173828125">
        <ele>1613.5999755859375</ele>
        <time>2022-08-25T08:44:32.000Z</time>
      </trkpt>
      <trkpt lat="40.33359811641275882720947265625" lon="-1.76669958047568798065185546875">
        <ele>1614</ele>
        <time>2022-08-25T08:44:37.000Z</time>
      </trkpt>
      <trkpt lat="40.3335314802825450897216796875" lon="-1.76672489382326602935791015625">
        <ele>1614</ele>
        <time>2022-08-25T08:44:39.000Z</time>
      </trkpt>
      <trkpt lat="40.33339510671794414520263671875" lon="-1.7668721638619899749755859375">
        <ele>1614.199951171875</ele>
        <time>2022-08-25T08:44:44.000Z</time>
      </trkpt>
      <trkpt lat="40.3333618305623531341552734375" lon="-1.76709772087633609771728515625">
        <ele>1614.800048828125</ele>
        <time>2022-08-25T08:44:49.000Z</time>
      </trkpt>
      <trkpt lat="40.333409942686557769775390625" lon="-1.76733811385929584503173828125">
        <ele>1615.4000244140625</ele>
        <time>2022-08-25T08:44:54.000Z</time>
      </trkpt>
      <trkpt lat="40.3334298916161060333251953125" lon="-1.76743970252573490142822265625">
        <ele>1615.4000244140625</ele>
        <time>2022-08-25T08:44:56.000Z</time>
      </trkpt>
      <trkpt lat="40.3335584700107574462890625" lon="-1.7679437063634395599365234375">
        <ele>1615.4000244140625</ele>
        <time>2022-08-25T08:45:05.000Z</time>
      </trkpt>
      <trkpt lat="40.3336282074451446533203125" lon="-1.768342517316341400146484375">
        <ele>1614.800048828125</ele>
        <time>2022-08-25T08:45:11.000Z</time>
      </trkpt>
      <trkpt lat="40.3336273692548274993896484375" lon="-1.76841728389263153076171875">
        <ele>1615</ele>
        <time>2022-08-25T08:45:12.000Z</time>
      </trkpt>
      <trkpt lat="40.333621501922607421875" lon="-1.76889010705053806304931640625">
        <ele>1614.4000244140625</ele>
        <time>2022-08-25T08:45:18.000Z</time>
      </trkpt>
      <trkpt lat="40.33366315998136997222900390625" lon="-1.76956468261778354644775390625">
        <ele>1613.4000244140625</ele>
        <time>2022-08-25T08:45:26.000Z</time>
      </trkpt>
      <trkpt lat="40.33375737257301807403564453125" lon="-1.77009039558470249176025390625">
        <ele>1612.4000244140625</ele>
        <time>2022-08-25T08:45:32.000Z</time>
      </trkpt>
      <trkpt lat="40.33377363346517086029052734375" lon="-1.77018192596733570098876953125">
        <ele>1612.199951171875</ele>
        <time>2022-08-25T08:45:33.000Z</time>
      </trkpt>
      <trkpt lat="40.3337832726538181304931640625" lon="-1.77027563564479351043701171875">
        <ele>1612</ele>
        <time>2022-08-25T08:45:34.000Z</time>
      </trkpt>
      <trkpt lat="40.333731807768344879150390625" lon="-1.7705407552421092987060546875">
        <ele>1611.4000244140625</ele>
        <time>2022-08-25T08:45:37.000Z</time>
      </trkpt>
      <trkpt lat="40.3336850367486476898193359375" lon="-1.7706114985048770904541015625">
        <ele>1611</ele>
        <time>2022-08-25T08:45:38.000Z</time>
      </trkpt>
      <trkpt lat="40.3335676901042461395263671875" lon="-1.77070998586714267730712890625">
        <ele>1610.800048828125</ele>
        <time>2022-08-25T08:45:40.000Z</time>
      </trkpt>
      <trkpt lat="40.33337197266519069671630859375" lon="-1.77078609354794025421142578125">
        <ele>1610.199951171875</ele>
        <time>2022-08-25T08:45:43.000Z</time>
      </trkpt>
      <trkpt lat="40.33330491743981838226318359375" lon="-1.7708029411733150482177734375">
        <ele>1610</ele>
        <time>2022-08-25T08:45:44.000Z</time>
      </trkpt>
      <trkpt lat="40.33323903568089008331298828125" lon="-1.7708150111138820648193359375">
        <ele>1609.800048828125</ele>
        <time>2022-08-25T08:45:45.000Z</time>
      </trkpt>
      <trkpt lat="40.332868136465549468994140625" lon="-1.77084602415561676025390625">
        <ele>1609.199951171875</ele>
        <time>2022-08-25T08:45:51.000Z</time>
      </trkpt>
      <trkpt lat="40.3327207826077938079833984375" lon="-1.7709618620574474334716796875">
        <ele>1609.199951171875</ele>
        <time>2022-08-25T08:45:54.000Z</time>
      </trkpt>
      <trkpt lat="40.332571752369403839111328125" lon="-1.77128951065242290496826171875">
        <ele>1609.199951171875</ele>
        <time>2022-08-25T08:45:59.000Z</time>
      </trkpt>
      <trkpt lat="40.33241459168493747711181640625" lon="-1.77167457528412342071533203125">
        <ele>1609.199951171875</ele>
        <time>2022-08-25T08:46:05.000Z</time>
      </trkpt>
      <trkpt lat="40.332158021628856658935546875" lon="-1.7720810137689113616943359375">
        <ele>1609.199951171875</ele>
        <time>2022-08-25T08:46:12.000Z</time>
      </trkpt>
      <trkpt lat="40.3320886194705963134765625" lon="-1.77219710312783718109130859375">
        <ele>1609.199951171875</ele>
        <time>2022-08-25T08:46:14.000Z</time>
      </trkpt>
      <trkpt lat="40.33204310573637485504150390625" lon="-1.77241134457290172576904296875">
        <ele>1609.199951171875</ele>
        <time>2022-08-25T08:46:17.000Z</time>
      </trkpt>
      <trkpt lat="40.33211284317076206207275390625" lon="-1.77271560765802860260009765625">
        <ele>1609</ele>
        <time>2022-08-25T08:46:21.000Z</time>
      </trkpt>
      <trkpt lat="40.33215844072401523590087890625" lon="-1.77288341335952281951904296875">
        <ele>1609</ele>
        <time>2022-08-25T08:46:23.000Z</time>
      </trkpt>
      <trkpt lat="40.33214938826858997344970703125" lon="-1.7730595171451568603515625">
        <ele>1609</ele>
        <time>2022-08-25T08:46:25.000Z</time>
      </trkpt>
      <trkpt lat="40.332099013030529022216796875" lon="-1.773149706423282623291015625">
        <ele>1609</ele>
        <time>2022-08-25T08:46:26.000Z</time>
      </trkpt>
      <trkpt lat="40.33204863779246807098388671875" lon="-1.77323050796985626220703125">
        <ele>1609</ele>
        <time>2022-08-25T08:46:27.000Z</time>
      </trkpt>
      <trkpt lat="40.33190480433404445648193359375" lon="-1.7733936198055744171142578125">
        <ele>1608.4000244140625</ele>
        <time>2022-08-25T08:46:29.000Z</time>
      </trkpt>
      <trkpt lat="40.33183473162353038787841796875" lon="-1.77346746437251567840576171875">
        <ele>1608.199951171875</ele>
        <time>2022-08-25T08:46:30.000Z</time>
      </trkpt>
      <trkpt lat="40.3317531757056713104248046875" lon="-1.77353686653077602386474609375">
        <ele>1607.800048828125</ele>
        <time>2022-08-25T08:46:31.000Z</time>
      </trkpt>
      <trkpt lat="40.33155628480017185211181640625" lon="-1.77362655289471149444580078125">
        <ele>1607</ele>
        <time>2022-08-25T08:46:33.000Z</time>
      </trkpt>
      <trkpt lat="40.3314470686018466949462890625" lon="-1.7736589908599853515625">
        <ele>1606.5999755859375</ele>
        <time>2022-08-25T08:46:34.000Z</time>
      </trkpt>
      <trkpt lat="40.33133684657514095306396484375" lon="-1.77369453012943267822265625">
        <ele>1605.800048828125</ele>
        <time>2022-08-25T08:46:35.000Z</time>
      </trkpt>
      <trkpt lat="40.33110952936112880706787109375" lon="-1.773798801004886627197265625">
        <ele>1604.5999755859375</ele>
        <time>2022-08-25T08:46:37.000Z</time>
      </trkpt>
      <trkpt lat="40.331003665924072265625" lon="-1.77383643575012683868408203125">
        <ele>1604.199951171875</ele>
        <time>2022-08-25T08:46:38.000Z</time>
      </trkpt>
      <trkpt lat="40.330898053944110870361328125" lon="-1.77385303191840648651123046875">
        <ele>1603.5999755859375</ele>
        <time>2022-08-25T08:46:39.000Z</time>
      </trkpt>
      <trkpt lat="40.33069479279220104217529296875" lon="-1.773871220648288726806640625">
        <ele>1602.4000244140625</ele>
        <time>2022-08-25T08:46:41.000Z</time>
      </trkpt>
      <trkpt lat="40.330574177205562591552734375" lon="-1.7740001343190670013427734375">
        <ele>1601</ele>
        <time>2022-08-25T08:46:43.000Z</time>
      </trkpt>
      <trkpt lat="40.3305704891681671142578125" lon="-1.77417330443859100341796875">
        <ele>1599.5999755859375</ele>
        <time>2022-08-25T08:46:45.000Z</time>
      </trkpt>
      <trkpt lat="40.3306524641811847686767578125" lon="-1.7743159644305706024169921875">
        <ele>1598</ele>
        <time>2022-08-25T08:46:47.000Z</time>
      </trkpt>
      <trkpt lat="40.330723710358142852783203125" lon="-1.77437983453273773193359375">
        <ele>1597.199951171875</ele>
        <time>2022-08-25T08:46:48.000Z</time>
      </trkpt>
      <trkpt lat="40.33079512417316436767578125" lon="-1.77444663830101490020751953125">
        <ele>1596.4000244140625</ele>
        <time>2022-08-25T08:46:49.000Z</time>
      </trkpt>
      <trkpt lat="40.33088187687098979949951171875" lon="-1.7745067365467548370361328125">
        <ele>1595.4000244140625</ele>
        <time>2022-08-25T08:46:50.000Z</time>
      </trkpt>
      <trkpt lat="40.3310718946158885955810546875" lon="-1.7746026255190372467041015625">
        <ele>1593.5999755859375</ele>
        <time>2022-08-25T08:46:52.000Z</time>
      </trkpt>
      <trkpt lat="40.331291668117046356201171875" lon="-1.77463053725659847259521484375">
        <ele>1592.4000244140625</ele>
        <time>2022-08-25T08:46:54.000Z</time>
      </trkpt>
      <trkpt lat="40.33140138722956180572509765625" lon="-1.77463171072304248809814453125">
        <ele>1592</ele>
        <time>2022-08-25T08:46:55.000Z</time>
      </trkpt>
      <trkpt lat="40.33151521347463130950927734375" lon="-1.77462819032371044158935546875">
        <ele>1591.5999755859375</ele>
        <time>2022-08-25T08:46:56.000Z</time>
      </trkpt>
      <trkpt lat="40.33185602165758609771728515625" lon="-1.7746063135564327239990234375">
        <ele>1590.199951171875</ele>
        <time>2022-08-25T08:46:59.000Z</time>
      </trkpt>
      <trkpt lat="40.33196615986526012420654296875" lon="-1.7745851911604404449462890625">
        <ele>1589.5999755859375</ele>
        <time>2022-08-25T08:47:00.000Z</time>
      </trkpt>
      <trkpt lat="40.3320743702352046966552734375" lon="-1.77455409429967403411865234375">
        <ele>1589</ele>
        <time>2022-08-25T08:47:01.000Z</time>
      </trkpt>
      <trkpt lat="40.33229959197342395782470703125" lon="-1.7745027132332324981689453125">
        <ele>1587</ele>
        <time>2022-08-25T08:47:03.000Z</time>
      </trkpt>
      <trkpt lat="40.332416854798793792724609375" lon="-1.7745064012706279754638671875">
        <ele>1586.199951171875</ele>
        <time>2022-08-25T08:47:04.000Z</time>
      </trkpt>
      <trkpt lat="40.3325370512902736663818359375" lon="-1.77452559582889080047607421875">
        <ele>1585.5999755859375</ele>
        <time>2022-08-25T08:47:05.000Z</time>
      </trkpt>
      <trkpt lat="40.33277853392064571380615234375" lon="-1.77459533326327800750732421875">
        <ele>1584.4000244140625</ele>
        <time>2022-08-25T08:47:07.000Z</time>
      </trkpt>
      <trkpt lat="40.3328981436789035797119140625" lon="-1.774637997150421142578125">
        <ele>1583.800048828125</ele>
        <time>2022-08-25T08:47:08.000Z</time>
      </trkpt>
      <trkpt lat="40.33301322720944881439208984375" lon="-1.77469097077846527099609375">
        <ele>1583</ele>
        <time>2022-08-25T08:47:09.000Z</time>
      </trkpt>
      <trkpt lat="40.3332277201116085052490234375" lon="-1.77480136044323444366455078125">
        <ele>1581.800048828125</ele>
        <time>2022-08-25T08:47:11.000Z</time>
      </trkpt>
      <trkpt lat="40.33342276699841022491455078125" lon="-1.774900518357753753662109375">
        <ele>1580.800048828125</ele>
        <time>2022-08-25T08:47:13.000Z</time>
      </trkpt>
      <trkpt lat="40.3335824422538280487060546875" lon="-1.77500336430966854095458984375">
        <ele>1579.4000244140625</ele>
        <time>2022-08-25T08:47:15.000Z</time>
      </trkpt>
      <trkpt lat="40.33364706672728061676025390625" lon="-1.7750646360218524932861328125">
        <ele>1578.5999755859375</ele>
        <time>2022-08-25T08:47:16.000Z</time>
      </trkpt>
      <trkpt lat="40.3336910717189311981201171875" lon="-1.775139905512332916259765625">
        <ele>1577.5999755859375</ele>
        <time>2022-08-25T08:47:17.000Z</time>
      </trkpt>
      <trkpt lat="40.333705656230449676513671875" lon="-1.775225736200809478759765625">
        <ele>1576.5999755859375</ele>
        <time>2022-08-25T08:47:18.000Z</time>
      </trkpt>
      <trkpt lat="40.33368998207151889801025390625" lon="-1.7753125727176666259765625">
        <ele>1575.4000244140625</ele>
        <time>2022-08-25T08:47:19.000Z</time>
      </trkpt>
      <trkpt lat="40.33364186994731426239013671875" lon="-1.77537417970597743988037109375">
        <ele>1574.4000244140625</ele>
        <time>2022-08-25T08:47:20.000Z</time>
      </trkpt>
      <trkpt lat="40.33356894738972187042236328125" lon="-1.77541625685989856719970703125">
        <ele>1573.4000244140625</ele>
        <time>2022-08-25T08:47:21.000Z</time>
      </trkpt>
      <trkpt lat="40.33348965458571910858154296875" lon="-1.77544123493134975433349609375">
        <ele>1572.199951171875</ele>
        <time>2022-08-25T08:47:22.000Z</time>
      </trkpt>
      <trkpt lat="40.3334037400782108306884765625" lon="-1.77544944919645786285400390625">
        <ele>1571.199951171875</ele>
        <time>2022-08-25T08:47:23.000Z</time>
      </trkpt>
      <trkpt lat="40.3333135508000850677490234375" lon="-1.77545146085321903228759765625">
        <ele>1570.199951171875</ele>
        <time>2022-08-25T08:47:24.000Z</time>
      </trkpt>
      <trkpt lat="40.33321850001811981201171875" lon="-1.775458417832851409912109375">
        <ele>1569.199951171875</ele>
        <time>2022-08-25T08:47:25.000Z</time>
      </trkpt>
      <trkpt lat="40.3331180848181247711181640625" lon="-1.77548113279044628143310546875">
        <ele>1568.4000244140625</ele>
        <time>2022-08-25T08:47:26.000Z</time>
      </trkpt>
      <trkpt lat="40.3330154903233051300048828125" lon="-1.77552320994436740875244140625">
        <ele>1567.5999755859375</ele>
        <time>2022-08-25T08:47:27.000Z</time>
      </trkpt>
      <trkpt lat="40.33291750587522983551025390625" lon="-1.7755829729139804840087890625">
        <ele>1567</ele>
        <time>2022-08-25T08:47:28.000Z</time>
      </trkpt>
      <trkpt lat="40.33282019197940826416015625" lon="-1.7756523750722408294677734375">
        <ele>1566.5999755859375</ele>
        <time>2022-08-25T08:47:29.000Z</time>
      </trkpt>
      <trkpt lat="40.3326181881129741668701171875" lon="-1.77580769173800945281982421875">
        <ele>1565.199951171875</ele>
        <time>2022-08-25T08:47:31.000Z</time>
      </trkpt>
      <trkpt lat="40.3323090635240077972412109375" lon="-1.7760915867984294891357421875">
        <ele>1563.5999755859375</ele>
        <time>2022-08-25T08:47:34.000Z</time>
      </trkpt>
      <trkpt lat="40.33222214318811893463134765625" lon="-1.77621538750827312469482421875">
        <ele>1563.199951171875</ele>
        <time>2022-08-25T08:47:35.000Z</time>
      </trkpt>
      <trkpt lat="40.332143940031528472900390625" lon="-1.7763520963490009307861328125">
        <ele>1562.4000244140625</ele>
        <time>2022-08-25T08:47:36.000Z</time>
      </trkpt>
      <trkpt lat="40.3320027887821197509765625" lon="-1.77665191702544689178466796875">
        <ele>1560.4000244140625</ele>
        <time>2022-08-25T08:47:38.000Z</time>
      </trkpt>
      <trkpt lat="40.33192743547260761260986328125" lon="-1.77679491229355335235595703125">
        <ele>1559.199951171875</ele>
        <time>2022-08-25T08:47:39.000Z</time>
      </trkpt>
      <trkpt lat="40.33175862394273281097412109375" lon="-1.77704729139804840087890625">
        <ele>1557.4000244140625</ele>
        <time>2022-08-25T08:47:41.000Z</time>
      </trkpt>
      <trkpt lat="40.3316152095794677734375" lon="-1.77727402187883853912353515625">
        <ele>1555.4000244140625</ele>
        <time>2022-08-25T08:47:43.000Z</time>
      </trkpt>
      <trkpt lat="40.33156315796077251434326171875" lon="-1.77739857695996761322021484375">
        <ele>1554.4000244140625</ele>
        <time>2022-08-25T08:47:44.000Z</time>
      </trkpt>
      <trkpt lat="40.3315124474465847015380859375" lon="-1.7776767723262310028076171875">
        <ele>1552.5999755859375</ele>
        <time>2022-08-25T08:47:46.000Z</time>
      </trkpt>
      <trkpt lat="40.331505574285984039306640625" lon="-1.777822785079479217529296875">
        <ele>1551.5999755859375</ele>
        <time>2022-08-25T08:47:47.000Z</time>
      </trkpt>
      <trkpt lat="40.331500880420207977294921875" lon="-1.7779711447656154632568359375">
        <ele>1550.5999755859375</ele>
        <time>2022-08-25T08:47:48.000Z</time>
      </trkpt>
      <trkpt lat="40.33149576745927333831787109375" lon="-1.77812126465141773223876953125">
        <ele>1549.4000244140625</ele>
        <time>2022-08-25T08:47:49.000Z</time>
      </trkpt>
      <trkpt lat="40.33148772083222866058349609375" lon="-1.77827197127044200897216796875">
        <ele>1547.800048828125</ele>
        <time>2022-08-25T08:47:50.000Z</time>
      </trkpt>
      <trkpt lat="40.3314743936061859130859375" lon="-1.7784200794994831085205078125">
        <ele>1546</ele>
        <time>2022-08-25T08:47:51.000Z</time>
      </trkpt>
      <trkpt lat="40.33146299421787261962890625" lon="-1.77856416441500186920166015625">
        <ele>1544.800048828125</ele>
        <time>2022-08-25T08:47:52.000Z</time>
      </trkpt>
      <trkpt lat="40.33145318739116191864013671875" lon="-1.778705902397632598876953125">
        <ele>1543.800048828125</ele>
        <time>2022-08-25T08:47:53.000Z</time>
      </trkpt>
      <trkpt lat="40.33144614659249782562255859375" lon="-1.77897001616656780242919921875">
        <ele>1542.199951171875</ele>
        <time>2022-08-25T08:47:55.000Z</time>
      </trkpt>
      <trkpt lat="40.3314557857811450958251953125" lon="-1.7791949026286602020263671875">
        <ele>1540.800048828125</ele>
        <time>2022-08-25T08:47:57.000Z</time>
      </trkpt>
      <trkpt lat="40.331456623971462249755859375" lon="-1.77939229644834995269775390625">
        <ele>1539</ele>
        <time>2022-08-25T08:47:59.000Z</time>
      </trkpt>
      <trkpt lat="40.33144983462989330291748046875" lon="-1.77948835305869579315185546875">
        <ele>1536.800048828125</ele>
        <time>2022-08-25T08:48:00.000Z</time>
      </trkpt>
      <trkpt lat="40.3314341604709625244140625" lon="-1.7795826494693756103515625">
        <ele>1535.800048828125</ele>
        <time>2022-08-25T08:48:01.000Z</time>
      </trkpt>
      <trkpt lat="40.33140624873340129852294921875" lon="-1.7796736769378185272216796875">
        <ele>1534.5999755859375</ele>
        <time>2022-08-25T08:48:02.000Z</time>
      </trkpt>
      <trkpt lat="40.3313671052455902099609375" lon="-1.77976093254983425140380859375">
        <ele>1533.5999755859375</ele>
        <time>2022-08-25T08:48:03.000Z</time>
      </trkpt>
      <trkpt lat="40.3312573023140430450439453125" lon="-1.77991935051977634429931640625">
        <ele>1531.5999755859375</ele>
        <time>2022-08-25T08:48:05.000Z</time>
      </trkpt>
      <trkpt lat="40.33113249577581882476806640625" lon="-1.78004524670541286468505859375">
        <ele>1530</ele>
        <time>2022-08-25T08:48:07.000Z</time>
      </trkpt>
      <trkpt lat="40.33101934008300304412841796875" lon="-1.7801350168883800506591796875">
        <ele>1528.5999755859375</ele>
        <time>2022-08-25T08:48:09.000Z</time>
      </trkpt>
      <trkpt lat="40.330976508557796478271484375" lon="-1.78017851896584033966064453125">
        <ele>1528.199951171875</ele>
        <time>2022-08-25T08:48:10.000Z</time>
      </trkpt>
      <trkpt lat="40.33094172365963459014892578125" lon="-1.78028597496449947357177734375">
        <ele>1527.5999755859375</ele>
        <time>2022-08-25T08:48:12.000Z</time>
      </trkpt>
      <trkpt lat="40.33099218271672725677490234375" lon="-1.78039711900055408477783203125">
        <ele>1526.5999755859375</ele>
        <time>2022-08-25T08:48:14.000Z</time>
      </trkpt>
      <trkpt lat="40.33104381524026393890380859375" lon="-1.78044439293444156646728515625">
        <ele>1525.800048828125</ele>
        <time>2022-08-25T08:48:15.000Z</time>
      </trkpt>
      <trkpt lat="40.33110533840954303741455078125" lon="-1.7804816924035549163818359375">
        <ele>1524.800048828125</ele>
        <time>2022-08-25T08:48:16.000Z</time>
      </trkpt>
      <trkpt lat="40.3312469087541103363037109375" lon="-1.78054279647767543792724609375">
        <ele>1522.800048828125</ele>
        <time>2022-08-25T08:48:18.000Z</time>
      </trkpt>
      <trkpt lat="40.33132192678749561309814453125" lon="-1.7805755697190761566162109375">
        <ele>1522</ele>
        <time>2022-08-25T08:48:19.000Z</time>
      </trkpt>
      <trkpt lat="40.33139862120151519775390625" lon="-1.78061119280755519866943359375">
        <ele>1521.199951171875</ele>
        <time>2022-08-25T08:48:20.000Z</time>
      </trkpt>
      <trkpt lat="40.33156097866594791412353515625" lon="-1.78068445064127445220947265625">
        <ele>1520</ele>
        <time>2022-08-25T08:48:22.000Z</time>
      </trkpt>
      <trkpt lat="40.33173817209899425506591796875" lon="-1.780754439532756805419921875">
        <ele>1518.800048828125</ele>
        <time>2022-08-25T08:48:24.000Z</time>
      </trkpt>
      <trkpt lat="40.33183003775775432586669921875" lon="-1.7807794176042079925537109375">
        <ele>1518.4000244140625</ele>
        <time>2022-08-25T08:48:25.000Z</time>
      </trkpt>
      <trkpt lat="40.3320220671594142913818359375" lon="-1.7807787470519542694091796875">
        <ele>1517.5999755859375</ele>
        <time>2022-08-25T08:48:27.000Z</time>
      </trkpt>
      <trkpt lat="40.33210898749530315399169921875" lon="-1.78073541261255741119384765625">
        <ele>1516.800048828125</ele>
        <time>2022-08-25T08:48:28.000Z</time>
      </trkpt>
      <trkpt lat="40.33218392170965671539306640625" lon="-1.7806577123701572418212890625">
        <ele>1516.4000244140625</ele>
        <time>2022-08-25T08:48:29.000Z</time>
      </trkpt>
      <trkpt lat="40.33223421312868595123291015625" lon="-1.78055687807500362396240234375">
        <ele>1516</ele>
        <time>2022-08-25T08:48:30.000Z</time>
      </trkpt>
      <trkpt lat="40.33227612264454364776611328125" lon="-1.7803095281124114990234375">
        <ele>1515.199951171875</ele>
        <time>2022-08-25T08:48:32.000Z</time>
      </trkpt>
      <trkpt lat="40.3322876058518886566162109375" lon="-1.78018170408904552459716796875">
        <ele>1514.5999755859375</ele>
        <time>2022-08-25T08:48:33.000Z</time>
      </trkpt>
      <trkpt lat="40.33230629749596118927001953125" lon="-1.78005731664597988128662109375">
        <ele>1514</ele>
        <time>2022-08-25T08:48:34.000Z</time>
      </trkpt>
      <trkpt lat="40.3323925472795963287353515625" lon="-1.7798428237438201904296875">
        <ele>1512.4000244140625</ele>
        <time>2022-08-25T08:48:36.000Z</time>
      </trkpt>
      <trkpt lat="40.33246018923819065093994140625" lon="-1.77977518178522586822509765625">
        <ele>1511.4000244140625</ele>
        <time>2022-08-25T08:48:37.000Z</time>
      </trkpt>
      <trkpt lat="40.33254166133701801300048828125" lon="-1.77974483929574489593505859375">
        <ele>1510.199951171875</ele>
        <time>2022-08-25T08:48:38.000Z</time>
      </trkpt>
      <trkpt lat="40.33271784894168376922607421875" lon="-1.77974903024733066558837890625">
        <ele>1508.800048828125</ele>
        <time>2022-08-25T08:48:40.000Z</time>
      </trkpt>
      <trkpt lat="40.3328163363039493560791015625" lon="-1.77976596169173717498779296875">
        <ele>1508.199951171875</ele>
        <time>2022-08-25T08:48:41.000Z</time>
      </trkpt>
      <trkpt lat="40.33291675150394439697265625" lon="-1.77978155203163623809814453125">
        <ele>1507.5999755859375</ele>
        <time>2022-08-25T08:48:42.000Z</time>
      </trkpt>
      <trkpt lat="40.333029069006443023681640625" lon="-1.7797809652984142303466796875">
        <ele>1506.5999755859375</ele>
        <time>2022-08-25T08:48:43.000Z</time>
      </trkpt>
      <trkpt lat="40.3331402130424976348876953125" lon="-1.779778786003589630126953125">
        <ele>1505.5999755859375</ele>
        <time>2022-08-25T08:48:44.000Z</time>
      </trkpt>
      <trkpt lat="40.33324875868856906890869140625" lon="-1.7797719128429889678955078125">
        <ele>1504.800048828125</ele>
        <time>2022-08-25T08:48:45.000Z</time>
      </trkpt>
      <trkpt lat="40.33335520885884761810302734375" lon="-1.77975741215050220489501953125">
        <ele>1504.199951171875</ele>
        <time>2022-08-25T08:48:46.000Z</time>
      </trkpt>
      <trkpt lat="40.3334587253630161285400390625" lon="-1.779726482927799224853515625">
        <ele>1503.5999755859375</ele>
        <time>2022-08-25T08:48:47.000Z</time>
      </trkpt>
      <trkpt lat="40.33356023021042346954345703125" lon="-1.77968298085033893585205078125">
        <ele>1503</ele>
        <time>2022-08-25T08:48:48.000Z</time>
      </trkpt>
      <trkpt lat="40.33367137424647808074951171875" lon="-1.7796424962580204010009765625">
        <ele>1502.5999755859375</ele>
        <time>2022-08-25T08:48:49.000Z</time>
      </trkpt>
      <trkpt lat="40.333779416978359222412109375" lon="-1.779606454074382781982421875">
        <ele>1502</ele>
        <time>2022-08-25T08:48:50.000Z</time>
      </trkpt>
      <trkpt lat="40.3338856995105743408203125" lon="-1.77955222316086292266845703125">
        <ele>1501.4000244140625</ele>
        <time>2022-08-25T08:48:51.000Z</time>
      </trkpt>
      <trkpt lat="40.3339841030538082122802734375" lon="-1.7794735170900821685791015625">
        <ele>1500.5999755859375</ele>
        <time>2022-08-25T08:48:52.000Z</time>
      </trkpt>
      <trkpt lat="40.334185771644115447998046875" lon="-1.779295317828655242919921875">
        <ele>1499.4000244140625</ele>
        <time>2022-08-25T08:48:54.000Z</time>
      </trkpt>
      <trkpt lat="40.3343757055699825286865234375" lon="-1.779167912900447845458984375">
        <ele>1496.4000244140625</ele>
        <time>2022-08-25T08:48:56.000Z</time>
      </trkpt>
      <trkpt lat="40.3344581834971904754638671875" lon="-1.7791342176496982574462890625">
        <ele>1495.5999755859375</ele>
        <time>2022-08-25T08:48:57.000Z</time>
      </trkpt>
      <trkpt lat="40.334541499614715576171875" lon="-1.7791248299181461334228515625">
        <ele>1494.5999755859375</ele>
        <time>2022-08-25T08:48:58.000Z</time>
      </trkpt>
      <trkpt lat="40.33462221734225749969482421875" lon="-1.77914586849510669708251953125">
        <ele>1493.4000244140625</ele>
        <time>2022-08-25T08:48:59.000Z</time>
      </trkpt>
      <trkpt lat="40.3346932120621204376220703125" lon="-1.77919666282832622528076171875">
        <ele>1492.4000244140625</ele>
        <time>2022-08-25T08:49:00.000Z</time>
      </trkpt>
      <trkpt lat="40.33482514321804046630859375" lon="-1.779337227344512939453125">
        <ele>1490.5999755859375</ele>
        <time>2022-08-25T08:49:02.000Z</time>
      </trkpt>
      <trkpt lat="40.33489731140434741973876953125" lon="-1.77939631976187229156494140625">
        <ele>1489.4000244140625</ele>
        <time>2022-08-25T08:49:03.000Z</time>
      </trkpt>
      <trkpt lat="40.33496604301035404205322265625" lon="-1.779453568160533905029296875">
        <ele>1488</ele>
        <time>2022-08-25T08:49:04.000Z</time>
      </trkpt>
      <trkpt lat="40.33501549623906612396240234375" lon="-1.779529340565204620361328125">
        <ele>1486.800048828125</ele>
        <time>2022-08-25T08:49:05.000Z</time>
      </trkpt>
      <trkpt lat="40.335062853991985321044921875" lon="-1.779605448246002197265625">
        <ele>1485.800048828125</ele>
        <time>2022-08-25T08:49:06.000Z</time>
      </trkpt>
      <trkpt lat="40.3350938670337200164794921875" lon="-1.77976839244365692138671875">
        <ele>1484.4000244140625</ele>
        <time>2022-08-25T08:49:08.000Z</time>
      </trkpt>
      <trkpt lat="40.3350593335926532745361328125" lon="-1.7798347771167755126953125">
        <ele>1484</ele>
        <time>2022-08-25T08:49:09.000Z</time>
      </trkpt>
      <trkpt lat="40.33490871079266071319580078125" lon="-1.7798932828009128570556640625">
        <ele>1483</ele>
        <time>2022-08-25T08:49:11.000Z</time>
      </trkpt>
      <trkpt lat="40.33483193255960941314697265625" lon="-1.779898144304752349853515625">
        <ele>1482.5999755859375</ele>
        <time>2022-08-25T08:49:12.000Z</time>
      </trkpt>
      <trkpt lat="40.3347431682050228118896484375" lon="-1.7799291573464870452880859375">
        <ele>1481.800048828125</ele>
        <time>2022-08-25T08:49:13.000Z</time>
      </trkpt>
      <trkpt lat="40.33466328866779804229736328125" lon="-1.77997416816651821136474609375">
        <ele>1481</ele>
        <time>2022-08-25T08:49:14.000Z</time>
      </trkpt>
      <trkpt lat="40.33461685292422771453857421875" lon="-1.78005144931375980377197265625">
        <ele>1480.4000244140625</ele>
        <time>2022-08-25T08:49:15.000Z</time>
      </trkpt>
      <trkpt lat="40.33457561396062374114990234375" lon="-1.78016644902527332305908203125">
        <ele>1479.800048828125</ele>
        <time>2022-08-25T08:49:16.000Z</time>
      </trkpt>
      <trkpt lat="40.33453588373959064483642578125" lon="-1.7803036607801914215087890625">
        <ele>1479.4000244140625</ele>
        <time>2022-08-25T08:49:17.000Z</time>
      </trkpt>
      <trkpt lat="40.3345052897930145263671875" lon="-1.780440621078014373779296875">
        <ele>1478.800048828125</ele>
        <time>2022-08-25T08:49:18.000Z</time>
      </trkpt>
      <trkpt lat="40.3344623744487762451171875" lon="-1.780582778155803680419921875">
        <ele>1478.199951171875</ele>
        <time>2022-08-25T08:49:19.000Z</time>
      </trkpt>
      <trkpt lat="40.33441451378166675567626953125" lon="-1.7807110212743282318115234375">
        <ele>1477.800048828125</ele>
        <time>2022-08-25T08:49:20.000Z</time>
      </trkpt>
      <trkpt lat="40.33435265533626079559326171875" lon="-1.78081939928233623504638671875">
        <ele>1477.199951171875</ele>
        <time>2022-08-25T08:49:21.000Z</time>
      </trkpt>
      <trkpt lat="40.33420328982174396514892578125" lon="-1.78096826188266277313232421875">
        <ele>1475.4000244140625</ele>
        <time>2022-08-25T08:49:23.000Z</time>
      </trkpt>
      <trkpt lat="40.33413891680538654327392578125" lon="-1.78104084916412830352783203125">
        <ele>1475</ele>
        <time>2022-08-25T08:49:24.000Z</time>
      </trkpt>
      <trkpt lat="40.33405308611690998077392578125" lon="-1.78125165402889251708984375">
        <ele>1474</ele>
        <time>2022-08-25T08:49:26.000Z</time>
      </trkpt>
      <trkpt lat="40.33393641002476215362548828125" lon="-1.78162976168096065521240234375">
        <ele>1473</ele>
        <time>2022-08-25T08:49:29.000Z</time>
      </trkpt>
      <trkpt lat="40.333882682025432586669921875" lon="-1.781751215457916259765625">
        <ele>1472.199951171875</ele>
        <time>2022-08-25T08:49:30.000Z</time>
      </trkpt>
      <trkpt lat="40.333818979561328887939453125" lon="-1.7818620242178440093994140625">
        <ele>1471.4000244140625</ele>
        <time>2022-08-25T08:49:31.000Z</time>
      </trkpt>
      <trkpt lat="40.33373977057635784149169921875" lon="-1.7819565720856189727783203125">
        <ele>1470.199951171875</ele>
        <time>2022-08-25T08:49:32.000Z</time>
      </trkpt>
      <trkpt lat="40.333654694259166717529296875" lon="-1.78203812800347805023193359375">
        <ele>1469</ele>
        <time>2022-08-25T08:49:33.000Z</time>
      </trkpt>
      <trkpt lat="40.33357112668454647064208984375" lon="-1.78210853599011898040771484375">
        <ele>1468.199951171875</ele>
        <time>2022-08-25T08:49:34.000Z</time>
      </trkpt>
      <trkpt lat="40.3334956057369709014892578125" lon="-1.78218464367091655731201171875">
        <ele>1467.4000244140625</ele>
        <time>2022-08-25T08:49:35.000Z</time>
      </trkpt>
      <trkpt lat="40.333439446985721588134765625" lon="-1.7822809517383575439453125">
        <ele>1466.800048828125</ele>
        <time>2022-08-25T08:49:36.000Z</time>
      </trkpt>
      <trkpt lat="40.33340181224048137664794921875" lon="-1.7823962867259979248046875">
        <ele>1466.199951171875</ele>
        <time>2022-08-25T08:49:37.000Z</time>
      </trkpt>
      <trkpt lat="40.3333400376141071319580078125" lon="-1.7826512642204761505126953125">
        <ele>1464.4000244140625</ele>
        <time>2022-08-25T08:49:39.000Z</time>
      </trkpt>
      <trkpt lat="40.33330022357404232025146484375" lon="-1.78278160281479358673095703125">
        <ele>1463.800048828125</ele>
        <time>2022-08-25T08:49:40.000Z</time>
      </trkpt>
      <trkpt lat="40.333244316279888153076171875" lon="-1.78290347568690776824951171875">
        <ele>1463.199951171875</ele>
        <time>2022-08-25T08:49:41.000Z</time>
      </trkpt>
      <trkpt lat="40.33316896297037601470947265625" lon="-1.78301461972296237945556640625">
        <ele>1462.4000244140625</ele>
        <time>2022-08-25T08:49:42.000Z</time>
      </trkpt>
      <trkpt lat="40.33307768404483795166015625" lon="-1.78311134688556194305419921875">
        <ele>1461.4000244140625</ele>
        <time>2022-08-25T08:49:43.000Z</time>
      </trkpt>
      <trkpt lat="40.332980118691921234130859375" lon="-1.7831960879266262054443359375">
        <ele>1460.199951171875</ele>
        <time>2022-08-25T08:49:44.000Z</time>
      </trkpt>
      <trkpt lat="40.33288179896771907806396484375" lon="-1.78327328525483608245849609375">
        <ele>1459.4000244140625</ele>
        <time>2022-08-25T08:49:45.000Z</time>
      </trkpt>
      <trkpt lat="40.33278758637607097625732421875" lon="-1.7833493091166019439697265625">
        <ele>1458.4000244140625</ele>
        <time>2022-08-25T08:49:46.000Z</time>
      </trkpt>
      <trkpt lat="40.33269421197474002838134765625" lon="-1.78342751227319240570068359375">
        <ele>1457.4000244140625</ele>
        <time>2022-08-25T08:49:47.000Z</time>
      </trkpt>
      <trkpt lat="40.332502685487270355224609375" lon="-1.7835920490324497222900390625">
        <ele>1455.800048828125</ele>
        <time>2022-08-25T08:49:49.000Z</time>
      </trkpt>
      <trkpt lat="40.3324072994291782379150390625" lon="-1.7836792208254337310791015625">
        <ele>1455</ele>
        <time>2022-08-25T08:49:50.000Z</time>
      </trkpt>
      <trkpt lat="40.33230730332434177398681640625" lon="-1.7837570048868656158447265625">
        <ele>1454.4000244140625</ele>
        <time>2022-08-25T08:49:51.000Z</time>
      </trkpt>
      <trkpt lat="40.33220169134438037872314453125" lon="-1.7838230542838573455810546875">
        <ele>1452.800048828125</ele>
        <time>2022-08-25T08:49:52.000Z</time>
      </trkpt>
      <trkpt lat="40.332097001373767852783203125" lon="-1.7838683165609836578369140625">
        <ele>1451.800048828125</ele>
        <time>2022-08-25T08:49:53.000Z</time>
      </trkpt>
      <trkpt lat="40.332001782953739166259765625" lon="-1.78388130851089954376220703125">
        <ele>1451</ele>
        <time>2022-08-25T08:49:54.000Z</time>
      </trkpt>
      <trkpt lat="40.33191435970366001129150390625" lon="-1.7838431708514690399169921875">
        <ele>1449.800048828125</ele>
        <time>2022-08-25T08:49:55.000Z</time>
      </trkpt>
      <trkpt lat="40.33181662671267986297607421875" lon="-1.783807463943958282470703125">
        <ele>1449</ele>
        <time>2022-08-25T08:49:56.000Z</time>
      </trkpt>
      <trkpt lat="40.33171453513205051422119140625" lon="-1.78377737291157245635986328125">
        <ele>1448</ele>
        <time>2022-08-25T08:49:57.000Z</time>
      </trkpt>
      <trkpt lat="40.3315989486873149871826171875" lon="-1.78378106094896793365478515625">
        <ele>1447.199951171875</ele>
        <time>2022-08-25T08:49:58.000Z</time>
      </trkpt>
      <trkpt lat="40.331492163240909576416015625" lon="-1.78380888886749744415283203125">
        <ele>1446</ele>
        <time>2022-08-25T08:49:59.000Z</time>
      </trkpt>
      <trkpt lat="40.331389568746089935302734375" lon="-1.7838542349636554718017578125">
        <ele>1444.800048828125</ele>
        <time>2022-08-25T08:50:00.000Z</time>
      </trkpt>
      <trkpt lat="40.33128756098449230194091796875" lon="-1.7839055322110652923583984375">
        <ele>1443.5999755859375</ele>
        <time>2022-08-25T08:50:01.000Z</time>
      </trkpt>
      <trkpt lat="40.3311860561370849609375" lon="-1.7839585058391094207763671875">
        <ele>1442.5999755859375</ele>
        <time>2022-08-25T08:50:02.000Z</time>
      </trkpt>
      <trkpt lat="40.33108253963291645050048828125" lon="-1.78401432931423187255859375">
        <ele>1441.5999755859375</ele>
        <time>2022-08-25T08:50:03.000Z</time>
      </trkpt>
      <trkpt lat="40.33098329789936542510986328125" lon="-1.784081049263477325439453125">
        <ele>1440.800048828125</ele>
        <time>2022-08-25T08:50:04.000Z</time>
      </trkpt>
      <trkpt lat="40.3308915160596370697021484375" lon="-1.78416545502841472625732421875">
        <ele>1439.5999755859375</ele>
        <time>2022-08-25T08:50:05.000Z</time>
      </trkpt>
      <trkpt lat="40.33080945722758769989013671875" lon="-1.78426687605679035186767578125">
        <ele>1438.5999755859375</ele>
        <time>2022-08-25T08:50:06.000Z</time>
      </trkpt>
      <trkpt lat="40.33064533956348896026611328125" lon="-1.7844728194177150726318359375">
        <ele>1437</ele>
        <time>2022-08-25T08:50:08.000Z</time>
      </trkpt>
      <trkpt lat="40.330444090068340301513671875" lon="-1.78462629206478595733642578125">
        <ele>1435.5999755859375</ele>
        <time>2022-08-25T08:50:10.000Z</time>
      </trkpt>
      <trkpt lat="40.3303492069244384765625" lon="-1.784722097218036651611328125">
        <ele>1434.800048828125</ele>
        <time>2022-08-25T08:50:11.000Z</time>
      </trkpt>
      <trkpt lat="40.33026295714080333709716796875" lon="-1.78483936004340648651123046875">
        <ele>1434</ele>
        <time>2022-08-25T08:50:12.000Z</time>
      </trkpt>
      <trkpt lat="40.33008526079356670379638671875" lon="-1.785074137151241302490234375">
        <ele>1432.4000244140625</ele>
        <time>2022-08-25T08:50:14.000Z</time>
      </trkpt>
      <trkpt lat="40.3299852646887302398681640625" lon="-1.78517279215157032012939453125">
        <ele>1431.5999755859375</ele>
        <time>2022-08-25T08:50:15.000Z</time>
      </trkpt>
      <trkpt lat="40.32989121973514556884765625" lon="-1.78526583127677440643310546875">
        <ele>1430.5999755859375</ele>
        <time>2022-08-25T08:50:16.000Z</time>
      </trkpt>
      <trkpt lat="40.3297348134219646453857421875" lon="-1.78543388843536376953125">
        <ele>1428.5999755859375</ele>
        <time>2022-08-25T08:50:18.000Z</time>
      </trkpt>
      <trkpt lat="40.32967790029942989349365234375" lon="-1.7855259217321872711181640625">
        <ele>1427.199951171875</ele>
        <time>2022-08-25T08:50:19.000Z</time>
      </trkpt>
      <trkpt lat="40.32963733188807964324951171875" lon="-1.78563572466373443603515625">
        <ele>1424.800048828125</ele>
        <time>2022-08-25T08:50:20.000Z</time>
      </trkpt>
      <trkpt lat="40.3296196460723876953125" lon="-1.78576103411614894866943359375">
        <ele>1423.800048828125</ele>
        <time>2022-08-25T08:50:21.000Z</time>
      </trkpt>
      <trkpt lat="40.32962341792881488800048828125" lon="-1.7858964018523693084716796875">
        <ele>1422.5999755859375</ele>
        <time>2022-08-25T08:50:22.000Z</time>
      </trkpt>
      <trkpt lat="40.32964185811579227447509765625" lon="-1.7860378883779048919677734375">
        <ele>1421.4000244140625</ele>
        <time>2022-08-25T08:50:23.000Z</time>
      </trkpt>
      <trkpt lat="40.32966750673949718475341796875" lon="-1.78618331439793109893798828125">
        <ele>1420.199951171875</ele>
        <time>2022-08-25T08:50:24.000Z</time>
      </trkpt>
      <trkpt lat="40.32969064079225063323974609375" lon="-1.78633485920727252960205078125">
        <ele>1418.800048828125</ele>
        <time>2022-08-25T08:50:25.000Z</time>
      </trkpt>
      <trkpt lat="40.329716205596923828125" lon="-1.78648958913981914520263671875">
        <ele>1417.5999755859375</ele>
        <time>2022-08-25T08:50:26.000Z</time>
      </trkpt>
      <trkpt lat="40.3297458775341510772705078125" lon="-1.78664867766201496124267578125">
        <ele>1416.4000244140625</ele>
        <time>2022-08-25T08:50:27.000Z</time>
      </trkpt>
      <trkpt lat="40.32978921197354793548583984375" lon="-1.78680659271776676177978515625">
        <ele>1415.199951171875</ele>
        <time>2022-08-25T08:50:28.000Z</time>
      </trkpt>
      <trkpt lat="40.3298514895141124725341796875" lon="-1.786957718431949615478515625">
        <ele>1414</ele>
        <time>2022-08-25T08:50:29.000Z</time>
      </trkpt>
      <trkpt lat="40.33000160939991474151611328125" lon="-1.787245385348796844482421875">
        <ele>1412</ele>
        <time>2022-08-25T08:50:31.000Z</time>
      </trkpt>
      <trkpt lat="40.33008157275617122650146484375" lon="-1.787375472486019134521484375">
        <ele>1411</ele>
        <time>2022-08-25T08:50:32.000Z</time>
      </trkpt>
      <trkpt lat="40.33015633933246135711669921875" lon="-1.787496171891689300537109375">
        <ele>1410.199951171875</ele>
        <time>2022-08-25T08:50:33.000Z</time>
      </trkpt>
      <trkpt lat="40.33022649586200714111328125" lon="-1.78761578164994716644287109375">
        <ele>1409</ele>
        <time>2022-08-25T08:50:34.000Z</time>
      </trkpt>
      <trkpt lat="40.33028592355549335479736328125" lon="-1.7877419292926788330078125">
        <ele>1407.800048828125</ele>
        <time>2022-08-25T08:50:35.000Z</time>
      </trkpt>
      <trkpt lat="40.33033085055649280548095703125" lon="-1.78787360899150371551513671875">
        <ele>1406.5999755859375</ele>
        <time>2022-08-25T08:50:36.000Z</time>
      </trkpt>
      <trkpt lat="40.33036052249372005462646484375" lon="-1.78801459260284900665283203125">
        <ele>1405.4000244140625</ele>
        <time>2022-08-25T08:50:37.000Z</time>
      </trkpt>
      <trkpt lat="40.330375693738460540771484375" lon="-1.7881648801267147064208984375">
        <ele>1404.199951171875</ele>
        <time>2022-08-25T08:50:38.000Z</time>
      </trkpt>
      <trkpt lat="40.33038214780390262603759765625" lon="-1.78832120262086391448974609375">
        <ele>1403</ele>
        <time>2022-08-25T08:50:39.000Z</time>
      </trkpt>
      <trkpt lat="40.330378375947475433349609375" lon="-1.78847995586693286895751953125">
        <ele>1401.800048828125</ele>
        <time>2022-08-25T08:50:40.000Z</time>
      </trkpt>
      <trkpt lat="40.33037125132977962493896484375" lon="-1.788640804588794708251953125">
        <ele>1401</ele>
        <time>2022-08-25T08:50:41.000Z</time>
      </trkpt>
      <trkpt lat="40.33036387525498867034912109375" lon="-1.78879670798778533935546875">
        <ele>1400.4000244140625</ele>
        <time>2022-08-25T08:50:42.000Z</time>
      </trkpt>
      <trkpt lat="40.33032615669071674346923828125" lon="-1.78910440765321254730224609375">
        <ele>1399</ele>
        <time>2022-08-25T08:50:44.000Z</time>
      </trkpt>
      <trkpt lat="40.33027117140591144561767578125" lon="-1.789408586919307708740234375">
        <ele>1397</ele>
        <time>2022-08-25T08:50:46.000Z</time>
      </trkpt>
      <trkpt lat="40.33021987415850162506103515625" lon="-1.78969533182680606842041015625">
        <ele>1395.800048828125</ele>
        <time>2022-08-25T08:50:48.000Z</time>
      </trkpt>
      <trkpt lat="40.33018735237419605255126953125" lon="-1.78994192741811275482177734375">
        <ele>1394.4000244140625</ele>
        <time>2022-08-25T08:50:50.000Z</time>
      </trkpt>
      <trkpt lat="40.330166481435298919677734375" lon="-1.79005340673029422760009765625">
        <ele>1394</ele>
        <time>2022-08-25T08:50:51.000Z</time>
      </trkpt>
      <trkpt lat="40.330128930509090423583984375" lon="-1.79014912806451320648193359375">
        <ele>1393</ele>
        <time>2022-08-25T08:50:52.000Z</time>
      </trkpt>
      <trkpt lat="40.33006497658789157867431640625" lon="-1.7902248166501522064208984375">
        <ele>1392.199951171875</ele>
        <time>2022-08-25T08:50:53.000Z</time>
      </trkpt>
      <trkpt lat="40.32998568378388881683349609375" lon="-1.790283657610416412353515625">
        <ele>1391.5999755859375</ele>
        <time>2022-08-25T08:50:54.000Z</time>
      </trkpt>
      <trkpt lat="40.32989532686769962310791015625" lon="-1.79033755324780941009521484375">
        <ele>1390.5999755859375</ele>
        <time>2022-08-25T08:50:55.000Z</time>
      </trkpt>
      <trkpt lat="40.32980329357087612152099609375" lon="-1.79039924405515193939208984375">
        <ele>1389.4000244140625</ele>
        <time>2022-08-25T08:50:56.000Z</time>
      </trkpt>
      <trkpt lat="40.329714529216289520263671875" lon="-1.79046948440372943878173828125">
        <ele>1388</ele>
        <time>2022-08-25T08:50:57.000Z</time>
      </trkpt>
      <trkpt lat="40.32962568104267120361328125" lon="-1.79054492153227329254150390625">
        <ele>1386.5999755859375</ele>
        <time>2022-08-25T08:50:58.000Z</time>
      </trkpt>
      <trkpt lat="40.32953741960227489471435546875" lon="-1.79062622599303722381591796875">
        <ele>1385.5999755859375</ele>
        <time>2022-08-25T08:50:59.000Z</time>
      </trkpt>
      <trkpt lat="40.32936844043433666229248046875" lon="-1.79081548936665058135986328125">
        <ele>1384.4000244140625</ele>
        <time>2022-08-25T08:51:01.000Z</time>
      </trkpt>
      <trkpt lat="40.32919258810579776763916015625" lon="-1.79102973081171512603759765625">
        <ele>1383.199951171875</ele>
        <time>2022-08-25T08:51:03.000Z</time>
      </trkpt>
      <trkpt lat="40.3290146403014659881591796875" lon="-1.7912403680384159088134765625">
        <ele>1382</ele>
        <time>2022-08-25T08:51:05.000Z</time>
      </trkpt>
      <trkpt lat="40.32893274910748004913330078125" lon="-1.7913506738841533660888671875">
        <ele>1381.4000244140625</ele>
        <time>2022-08-25T08:51:06.000Z</time>
      </trkpt>
      <trkpt lat="40.32886854372918605804443359375" lon="-1.79146843962371349334716796875">
        <ele>1380.5999755859375</ele>
        <time>2022-08-25T08:51:07.000Z</time>
      </trkpt>
      <trkpt lat="40.32879176549613475799560546875" lon="-1.79170430637896060943603515625">
        <ele>1379</ele>
        <time>2022-08-25T08:51:09.000Z</time>
      </trkpt>
      <trkpt lat="40.32879662699997425079345703125" lon="-1.79193447344005107879638671875">
        <ele>1377.5999755859375</ele>
        <time>2022-08-25T08:51:11.000Z</time>
      </trkpt>
      <trkpt lat="40.3288268856704235076904296875" lon="-1.79203413426876068115234375">
        <ele>1376.800048828125</ele>
        <time>2022-08-25T08:51:12.000Z</time>
      </trkpt>
      <trkpt lat="40.32887575216591358184814453125" lon="-1.79211619310081005096435546875">
        <ele>1375.800048828125</ele>
        <time>2022-08-25T08:51:13.000Z</time>
      </trkpt>
      <trkpt lat="40.32895672135055065155029296875" lon="-1.792174279689788818359375">
        <ele>1374.5999755859375</ele>
        <time>2022-08-25T08:51:14.000Z</time>
      </trkpt>
      <trkpt lat="40.3290443122386932373046875" lon="-1.79221644066274166107177734375">
        <ele>1373.4000244140625</ele>
        <time>2022-08-25T08:51:15.000Z</time>
      </trkpt>
      <trkpt lat="40.3291276283562183380126953125" lon="-1.79225181229412555694580078125">
        <ele>1372</ele>
        <time>2022-08-25T08:51:16.000Z</time>
      </trkpt>
      <trkpt lat="40.32920918427407741546630859375" lon="-1.79228969849646091461181640625">
        <ele>1369.4000244140625</ele>
        <time>2022-08-25T08:51:17.000Z</time>
      </trkpt>
      <trkpt lat="40.32928713597357273101806640625" lon="-1.79233915172517299652099609375">
        <ele>1368.5999755859375</ele>
        <time>2022-08-25T08:51:18.000Z</time>
      </trkpt>
      <trkpt lat="40.3294109366834163665771484375" lon="-1.792495809495449066162109375">
        <ele>1367.4000244140625</ele>
        <time>2022-08-25T08:51:20.000Z</time>
      </trkpt>
      <trkpt lat="40.32946550287306308746337890625" lon="-1.792676188051700592041015625">
        <ele>1366.199951171875</ele>
        <time>2022-08-25T08:51:22.000Z</time>
      </trkpt>
      <trkpt lat="40.32943968661129474639892578125" lon="-1.79276193492114543914794921875">
        <ele>1365.800048828125</ele>
        <time>2022-08-25T08:51:23.000Z</time>
      </trkpt>
      <trkpt lat="40.32928998582065105438232421875" lon="-1.7929588258266448974609375">
        <ele>1365.4000244140625</ele>
        <time>2022-08-25T08:51:25.000Z</time>
      </trkpt>
      <trkpt lat="40.32920331694185733795166015625" lon="-1.7930575646460056304931640625">
        <ele>1365</ele>
        <time>2022-08-25T08:51:26.000Z</time>
      </trkpt>
      <trkpt lat="40.3290330804884433746337890625" lon="-1.79323266260325908660888671875">
        <ele>1364.5999755859375</ele>
        <time>2022-08-25T08:51:28.000Z</time>
      </trkpt>
      <trkpt lat="40.3288580663502216339111328125" lon="-1.79337666369974613189697265625">
        <ele>1363.800048828125</ele>
        <time>2022-08-25T08:51:30.000Z</time>
      </trkpt>
      <trkpt lat="40.32868154346942901611328125" lon="-1.7935286276042461395263671875">
        <ele>1362.5999755859375</ele>
        <time>2022-08-25T08:51:32.000Z</time>
      </trkpt>
      <trkpt lat="40.32853611744940280914306640625" lon="-1.7937321402132511138916015625">
        <ele>1361.5999755859375</ele>
        <time>2022-08-25T08:51:34.000Z</time>
      </trkpt>
      <trkpt lat="40.32847794704139232635498046875" lon="-1.7938451282680034637451171875">
        <ele>1361.199951171875</ele>
        <time>2022-08-25T08:51:35.000Z</time>
      </trkpt>
      <trkpt lat="40.3284247219562530517578125" lon="-1.793960630893707275390625">
        <ele>1360.4000244140625</ele>
        <time>2022-08-25T08:51:36.000Z</time>
      </trkpt>
      <trkpt lat="40.3283849917352199554443359375" lon="-1.79408024065196514129638671875">
        <ele>1360</ele>
        <time>2022-08-25T08:51:37.000Z</time>
      </trkpt>
      <trkpt lat="40.32832422293722629547119140625" lon="-1.7943426780402660369873046875">
        <ele>1358.800048828125</ele>
        <time>2022-08-25T08:51:39.000Z</time>
      </trkpt>
      <trkpt lat="40.3282793797552585601806640625" lon="-1.79462087340652942657470703125">
        <ele>1357.4000244140625</ele>
        <time>2022-08-25T08:51:41.000Z</time>
      </trkpt>
      <trkpt lat="40.3281821496784687042236328125" lon="-1.7950454168021678924560546875">
        <ele>1355.4000244140625</ele>
        <time>2022-08-25T08:51:44.000Z</time>
      </trkpt>
      <trkpt lat="40.3281331993639469146728515625" lon="-1.795341968536376953125">
        <ele>1353.5999755859375</ele>
        <time>2022-08-25T08:51:46.000Z</time>
      </trkpt>
      <trkpt lat="40.32809824682772159576416015625" lon="-1.7956385202705860137939453125">
        <ele>1352.4000244140625</ele>
        <time>2022-08-25T08:51:48.000Z</time>
      </trkpt>
      <trkpt lat="40.32808165065944194793701171875" lon="-1.79578511975705623626708984375">
        <ele>1351.800048828125</ele>
        <time>2022-08-25T08:51:49.000Z</time>
      </trkpt>
      <trkpt lat="40.32806622795760631561279296875" lon="-1.79593180306255817413330078125">
        <ele>1351</ele>
        <time>2022-08-25T08:51:50.000Z</time>
      </trkpt>
      <trkpt lat="40.32804225571453571319580078125" lon="-1.7962311208248138427734375">
        <ele>1349.5999755859375</ele>
        <time>2022-08-25T08:51:52.000Z</time>
      </trkpt>
      <trkpt lat="40.3280470333993434906005859375" lon="-1.7965370602905750274658203125">
        <ele>1348.4000244140625</ele>
        <time>2022-08-25T08:51:54.000Z</time>
      </trkpt>
      <trkpt lat="40.3280691616237163543701171875" lon="-1.7968414910137653350830078125">
        <ele>1346.5999755859375</ele>
        <time>2022-08-25T08:51:56.000Z</time>
      </trkpt>
      <trkpt lat="40.328099168837070465087890625" lon="-1.79711214266717433929443359375">
        <ele>1345</ele>
        <time>2022-08-25T08:51:58.000Z</time>
      </trkpt>
      <trkpt lat="40.3281026892364025115966796875" lon="-1.7972404696047306060791015625">
        <ele>1344.199951171875</ele>
        <time>2022-08-25T08:51:59.000Z</time>
      </trkpt>
      <trkpt lat="40.3280842490494251251220703125" lon="-1.7973695509135723114013671875">
        <ele>1343.4000244140625</ele>
        <time>2022-08-25T08:52:00.000Z</time>
      </trkpt>
      <trkpt lat="40.32804208807647228240966796875" lon="-1.79748664610087871551513671875">
        <ele>1342.5999755859375</ele>
        <time>2022-08-25T08:52:01.000Z</time>
      </trkpt>
      <trkpt lat="40.32798006199300289154052734375" lon="-1.7975941859185695648193359375">
        <ele>1341.800048828125</ele>
        <time>2022-08-25T08:52:02.000Z</time>
      </trkpt>
      <trkpt lat="40.32790848053991794586181640625" lon="-1.7976987920701503753662109375">
        <ele>1340.800048828125</ele>
        <time>2022-08-25T08:52:03.000Z</time>
      </trkpt>
      <trkpt lat="40.32783270813524723052978515625" lon="-1.79780465550720691680908203125">
        <ele>1340.199951171875</ele>
        <time>2022-08-25T08:52:04.000Z</time>
      </trkpt>
      <trkpt lat="40.3276748768985271453857421875" lon="-1.79801680147647857666015625">
        <ele>1338.4000244140625</ele>
        <time>2022-08-25T08:52:06.000Z</time>
      </trkpt>
      <trkpt lat="40.32752391882240772247314453125" lon="-1.79822425357997417449951171875">
        <ele>1336.800048828125</ele>
        <time>2022-08-25T08:52:08.000Z</time>
      </trkpt>
      <trkpt lat="40.32746457494795322418212890625" lon="-1.79833422414958477020263671875">
        <ele>1336</ele>
        <time>2022-08-25T08:52:09.000Z</time>
      </trkpt>
      <trkpt lat="40.32742534764111042022705078125" lon="-1.79845676757395267486572265625">
        <ele>1335.5999755859375</ele>
        <time>2022-08-25T08:52:10.000Z</time>
      </trkpt>
      <trkpt lat="40.3273867070674896240234375" lon="-1.79872448556125164031982421875">
        <ele>1334.5999755859375</ele>
        <time>2022-08-25T08:52:12.000Z</time>
      </trkpt>
      <trkpt lat="40.32737941481173038482666015625" lon="-1.79886211641132831573486328125">
        <ele>1333.4000244140625</ele>
        <time>2022-08-25T08:52:13.000Z</time>
      </trkpt>
      <trkpt lat="40.32736013643443584442138671875" lon="-1.799142323434352874755859375">
        <ele>1332</ele>
        <time>2022-08-25T08:52:15.000Z</time>
      </trkpt>
      <trkpt lat="40.32734035514295101165771484375" lon="-1.7992853187024593353271484375">
        <ele>1330.800048828125</ele>
        <time>2022-08-25T08:52:16.000Z</time>
      </trkpt>
      <trkpt lat="40.32731755636632442474365234375" lon="-1.799430660903453826904296875">
        <ele>1329.5999755859375</ele>
        <time>2022-08-25T08:52:17.000Z</time>
      </trkpt>
      <trkpt lat="40.3272883035242557525634765625" lon="-1.79957382380962371826171875">
        <ele>1328.5999755859375</ele>
        <time>2022-08-25T08:52:18.000Z</time>
      </trkpt>
      <trkpt lat="40.32724983058869838714599609375" lon="-1.79971187375485897064208984375">
        <ele>1327.800048828125</ele>
        <time>2022-08-25T08:52:19.000Z</time>
      </trkpt>
      <trkpt lat="40.3271394409239292144775390625" lon="-1.79997288621962070465087890625">
        <ele>1326.4000244140625</ele>
        <time>2022-08-25T08:52:21.000Z</time>
      </trkpt>
      <trkpt lat="40.32702351920306682586669921875" lon="-1.8002462200820446014404296875">
        <ele>1325.199951171875</ele>
        <time>2022-08-25T08:52:23.000Z</time>
      </trkpt>
      <trkpt lat="40.326918661594390869140625" lon="-1.80052877403795719146728515625">
        <ele>1323.800048828125</ele>
        <time>2022-08-25T08:52:25.000Z</time>
      </trkpt>
      <trkpt lat="40.32680408097803592681884765625" lon="-1.80080738849937915802001953125">
        <ele>1323.199951171875</ele>
        <time>2022-08-25T08:52:27.000Z</time>
      </trkpt>
      <trkpt lat="40.3267421387135982513427734375" lon="-1.800945438444614410400390625">
        <ele>1322.5999755859375</ele>
        <time>2022-08-25T08:52:28.000Z</time>
      </trkpt>
      <trkpt lat="40.326608531177043914794921875" lon="-1.8012165091931819915771484375">
        <ele>1320.800048828125</ele>
        <time>2022-08-25T08:52:30.000Z</time>
      </trkpt>
      <trkpt lat="40.3264450840651988983154296875" lon="-1.80146268568933010101318359375">
        <ele>1319</ele>
        <time>2022-08-25T08:52:32.000Z</time>
      </trkpt>
      <trkpt lat="40.32626143656671047210693359375" lon="-1.8016788549721240997314453125">
        <ele>1317.5999755859375</ele>
        <time>2022-08-25T08:52:34.000Z</time>
      </trkpt>
      <trkpt lat="40.32609279267489910125732421875" lon="-1.80186979472637176513671875">
        <ele>1316</ele>
        <time>2022-08-25T08:52:36.000Z</time>
      </trkpt>
      <trkpt lat="40.325941331684589385986328125" lon="-1.80204438976943492889404296875">
        <ele>1314.5999755859375</ele>
        <time>2022-08-25T08:52:38.000Z</time>
      </trkpt>
      <trkpt lat="40.32573513686656951904296875" lon="-1.80231344886124134063720703125">
        <ele>1312.4000244140625</ele>
        <time>2022-08-25T08:52:41.000Z</time>
      </trkpt>
      <trkpt lat="40.32567218877375125885009765625" lon="-1.80240883491933345794677734375">
        <ele>1311.5999755859375</ele>
        <time>2022-08-25T08:52:42.000Z</time>
      </trkpt>
      <trkpt lat="40.3256082348525524139404296875" lon="-1.80250841192901134490966796875">
        <ele>1310.4000244140625</ele>
        <time>2022-08-25T08:52:43.000Z</time>
      </trkpt>
      <trkpt lat="40.3254774771630764007568359375" lon="-1.8027138523757457733154296875">
        <ele>1308.800048828125</ele>
        <time>2022-08-25T08:52:45.000Z</time>
      </trkpt>
      <trkpt lat="40.325339846312999725341796875" lon="-1.80292658507823944091796875">
        <ele>1307.5999755859375</ele>
        <time>2022-08-25T08:52:47.000Z</time>
      </trkpt>
      <trkpt lat="40.3252085857093334197998046875" lon="-1.80313822813332080841064453125">
        <ele>1306.4000244140625</ele>
        <time>2022-08-25T08:52:49.000Z</time>
      </trkpt>
      <trkpt lat="40.32500582747161388397216796875" lon="-1.8034568242728710174560546875">
        <ele>1304.800048828125</ele>
        <time>2022-08-25T08:52:52.000Z</time>
      </trkpt>
      <trkpt lat="40.3248659335076808929443359375" lon="-1.8036680482327938079833984375">
        <ele>1303.4000244140625</ele>
        <time>2022-08-25T08:52:54.000Z</time>
      </trkpt>
      <trkpt lat="40.3246540389955043792724609375" lon="-1.8039909191429615020751953125">
        <ele>1302.199951171875</ele>
        <time>2022-08-25T08:52:57.000Z</time>
      </trkpt>
      <trkpt lat="40.32458539120852947235107421875" lon="-1.8041012249886989593505859375">
        <ele>1301.5999755859375</ele>
        <time>2022-08-25T08:52:58.000Z</time>
      </trkpt>
      <trkpt lat="40.324515737593173980712890625" lon="-1.804213039577007293701171875">
        <ele>1301.199951171875</ele>
        <time>2022-08-25T08:52:59.000Z</time>
      </trkpt>
      <trkpt lat="40.3243767656385898590087890625" lon="-1.80443474091589450836181640625">
        <ele>1300</ele>
        <time>2022-08-25T08:53:01.000Z</time>
      </trkpt>
      <trkpt lat="40.3242376260459423065185546875" lon="-1.8046544305980205535888671875">
        <ele>1298.800048828125</ele>
        <time>2022-08-25T08:53:03.000Z</time>
      </trkpt>
      <trkpt lat="40.324091278016567230224609375" lon="-1.80486154742538928985595703125">
        <ele>1297.4000244140625</ele>
        <time>2022-08-25T08:53:05.000Z</time>
      </trkpt>
      <trkpt lat="40.323935709893703460693359375" lon="-1.80505357682704925537109375">
        <ele>1296.4000244140625</ele>
        <time>2022-08-25T08:53:07.000Z</time>
      </trkpt>
      <trkpt lat="40.32385532744228839874267578125" lon="-1.8051466159522533416748046875">
        <ele>1295.800048828125</ele>
        <time>2022-08-25T08:53:08.000Z</time>
      </trkpt>
      <trkpt lat="40.32369305379688739776611328125" lon="-1.8053372204303741455078125">
        <ele>1294.800048828125</ele>
        <time>2022-08-25T08:53:10.000Z</time>
      </trkpt>
      <trkpt lat="40.3235425986349582672119140625" lon="-1.80554718710482120513916015625">
        <ele>1293.4000244140625</ele>
        <time>2022-08-25T08:53:12.000Z</time>
      </trkpt>
      <trkpt lat="40.323476381599903106689453125" lon="-1.80566403083503246307373046875">
        <ele>1292.5999755859375</ele>
        <time>2022-08-25T08:53:13.000Z</time>
      </trkpt>
      <trkpt lat="40.32341829501092433929443359375" lon="-1.80578975938260555267333984375">
        <ele>1291.800048828125</ele>
        <time>2022-08-25T08:53:14.000Z</time>
      </trkpt>
      <trkpt lat="40.3233109228312969207763671875" lon="-1.80605269968509674072265625">
        <ele>1290.199951171875</ele>
        <time>2022-08-25T08:53:16.000Z</time>
      </trkpt>
      <trkpt lat="40.32326188869774341583251953125" lon="-1.80618722923099994659423828125">
        <ele>1289.5999755859375</ele>
        <time>2022-08-25T08:53:17.000Z</time>
      </trkpt>
      <trkpt lat="40.323211513459682464599609375" lon="-1.8063200823962688446044921875">
        <ele>1288.800048828125</ele>
        <time>2022-08-25T08:53:18.000Z</time>
      </trkpt>
      <trkpt lat="40.32310766167938709259033203125" lon="-1.806582771241664886474609375">
        <ele>1287.4000244140625</ele>
        <time>2022-08-25T08:53:20.000Z</time>
      </trkpt>
      <trkpt lat="40.3230061568319797515869140625" lon="-1.80684554390609264373779296875">
        <ele>1286.199951171875</ele>
        <time>2022-08-25T08:53:22.000Z</time>
      </trkpt>
      <trkpt lat="40.32289945520460605621337890625" lon="-1.8071089871227741241455078125">
        <ele>1284.800048828125</ele>
        <time>2022-08-25T08:53:24.000Z</time>
      </trkpt>
      <trkpt lat="40.3228445537388324737548828125" lon="-1.80724033154547214508056640625">
        <ele>1284</ele>
        <time>2022-08-25T08:53:25.000Z</time>
      </trkpt>
      <trkpt lat="40.32279132865369319915771484375" lon="-1.80737192742526531219482421875">
        <ele>1283.4000244140625</ele>
        <time>2022-08-25T08:53:26.000Z</time>
      </trkpt>
      <trkpt lat="40.3226856328547000885009765625" lon="-1.807634197175502777099609375">
        <ele>1282</ele>
        <time>2022-08-25T08:53:28.000Z</time>
      </trkpt>
      <trkpt lat="40.32255847938358783721923828125" lon="-1.8078787811100482940673828125">
        <ele>1281</ele>
        <time>2022-08-25T08:53:30.000Z</time>
      </trkpt>
      <trkpt lat="40.32248354516923427581787109375" lon="-1.8079845607280731201171875">
        <ele>1280.4000244140625</ele>
        <time>2022-08-25T08:53:31.000Z</time>
      </trkpt>
      <trkpt lat="40.32240207307040691375732421875" lon="-1.808075420558452606201171875">
        <ele>1279.5999755859375</ele>
        <time>2022-08-25T08:53:32.000Z</time>
      </trkpt>
      <trkpt lat="40.322219766676425933837890625" lon="-1.8082241155207157135009765625">
        <ele>1278.5999755859375</ele>
        <time>2022-08-25T08:53:34.000Z</time>
      </trkpt>
      <trkpt lat="40.32203637063503265380859375" lon="-1.80837540887296199798583984375">
        <ele>1277</ele>
        <time>2022-08-25T08:53:36.000Z</time>
      </trkpt>
      <trkpt lat="40.321954898536205291748046875" lon="-1.8084661848843097686767578125">
        <ele>1275.5999755859375</ele>
        <time>2022-08-25T08:53:37.000Z</time>
      </trkpt>
      <trkpt lat="40.3218816407024860382080078125" lon="-1.80856735445559024810791015625">
        <ele>1274.800048828125</ele>
        <time>2022-08-25T08:53:38.000Z</time>
      </trkpt>
      <trkpt lat="40.321815423667430877685546875" lon="-1.80867732502520084381103515625">
        <ele>1274.199951171875</ele>
        <time>2022-08-25T08:53:39.000Z</time>
      </trkpt>
      <trkpt lat="40.32171425409615039825439453125" lon="-1.80892400443553924560546875">
        <ele>1272.800048828125</ele>
        <time>2022-08-25T08:53:41.000Z</time>
      </trkpt>
      <trkpt lat="40.32166329212486743927001953125" lon="-1.80919733829796314239501953125">
        <ele>1271.199951171875</ele>
        <time>2022-08-25T08:53:43.000Z</time>
      </trkpt>
      <trkpt lat="40.321650803089141845703125" lon="-1.80933681316673755645751953125">
        <ele>1270.800048828125</ele>
        <time>2022-08-25T08:53:44.000Z</time>
      </trkpt>
      <trkpt lat="40.32163077034056186676025390625" lon="-1.8096161819994449615478515625">
        <ele>1270.4000244140625</ele>
        <time>2022-08-25T08:53:46.000Z</time>
      </trkpt>
      <trkpt lat="40.3215959854423999786376953125" lon="-1.81002463214099407196044921875">
        <ele>1269</ele>
        <time>2022-08-25T08:53:49.000Z</time>
      </trkpt>
      <trkpt lat="40.321568660438060760498046875" lon="-1.81015337817370891571044921875">
        <ele>1268.5999755859375</ele>
        <time>2022-08-25T08:53:50.000Z</time>
      </trkpt>
      <trkpt lat="40.32152851112186908721923828125" lon="-1.81027357466518878936767578125">
        <ele>1268</ele>
        <time>2022-08-25T08:53:51.000Z</time>
      </trkpt>
      <trkpt lat="40.32147268764674663543701171875" lon="-1.81038002483546733856201171875">
        <ele>1267.5999755859375</ele>
        <time>2022-08-25T08:53:52.000Z</time>
      </trkpt>
      <trkpt lat="40.32133120112121105194091796875" lon="-1.8105567991733551025390625">
        <ele>1266.5999755859375</ele>
        <time>2022-08-25T08:53:54.000Z</time>
      </trkpt>
      <trkpt lat="40.32115970738232135772705078125" lon="-1.810685209929943084716796875">
        <ele>1265.199951171875</ele>
        <time>2022-08-25T08:53:56.000Z</time>
      </trkpt>
      <trkpt lat="40.3210672549903392791748046875" lon="-1.8107366748154163360595703125">
        <ele>1264.5999755859375</ele>
        <time>2022-08-25T08:53:57.000Z</time>
      </trkpt>
      <trkpt lat="40.3209722042083740234375" lon="-1.81078922934830188751220703125">
        <ele>1264</ele>
        <time>2022-08-25T08:53:58.000Z</time>
      </trkpt>
      <trkpt lat="40.320796184241771697998046875" lon="-1.81091018021106719970703125">
        <ele>1263.199951171875</ele>
        <time>2022-08-25T08:54:00.000Z</time>
      </trkpt>
      <trkpt lat="40.32072183676064014434814453125" lon="-1.81098184548318386077880859375">
        <ele>1262.5999755859375</ele>
        <time>2022-08-25T08:54:01.000Z</time>
      </trkpt>
      <trkpt lat="40.32060214318335056304931640625" lon="-1.81114847771823406219482421875">
        <ele>1261.4000244140625</ele>
        <time>2022-08-25T08:54:03.000Z</time>
      </trkpt>
      <trkpt lat="40.32055185176432132720947265625" lon="-1.81123875081539154052734375">
        <ele>1260.800048828125</ele>
        <time>2022-08-25T08:54:04.000Z</time>
      </trkpt>
      <trkpt lat="40.32050541602075099945068359375" lon="-1.81132860481739044189453125">
        <ele>1260.4000244140625</ele>
        <time>2022-08-25T08:54:05.000Z</time>
      </trkpt>
      <trkpt lat="40.3204639256000518798828125" lon="-1.81141753681004047393798828125">
        <ele>1259.199951171875</ele>
        <time>2022-08-25T08:54:06.000Z</time>
      </trkpt>
      <trkpt lat="40.32039083540439605712890625" lon="-1.811591126024723052978515625">
        <ele>1258</ele>
        <time>2022-08-25T08:54:08.000Z</time>
      </trkpt>
      <trkpt lat="40.32032939605414867401123046875" lon="-1.81175415404140949249267578125">
        <ele>1257</ele>
        <time>2022-08-25T08:54:10.000Z</time>
      </trkpt>
      <trkpt lat="40.32025077380239963531494140625" lon="-1.81197091005742549896240234375">
        <ele>1255.5999755859375</ele>
        <time>2022-08-25T08:54:13.000Z</time>
      </trkpt>
      <trkpt lat="40.32021288760006427764892578125" lon="-1.81208658032119274139404296875">
        <ele>1254.800048828125</ele>
        <time>2022-08-25T08:54:15.000Z</time>
      </trkpt>
      <trkpt lat="40.32019897364079952239990234375" lon="-1.81213368661701679229736328125">
        <ele>1254.4000244140625</ele>
        <time>2022-08-25T08:54:16.000Z</time>
      </trkpt>
      <trkpt lat="40.32016812823712825775146484375" lon="-1.8122450821101665496826171875">
        <ele>1253</ele>
        <time>2022-08-25T08:54:19.000Z</time>
      </trkpt>
      <trkpt lat="40.32016091980040073394775390625" lon="-1.8122816272079944610595703125">
        <ele>1252.4000244140625</ele>
        <time>2022-08-25T08:54:20.000Z</time>
      </trkpt>
      <trkpt lat="40.32013812102377414703369140625" lon="-1.8123458325862884521484375">
        <ele>1251.5999755859375</ele>
        <time>2022-08-25T08:54:22.000Z</time>
      </trkpt>
      <trkpt lat="40.3200937807559967041015625" lon="-1.81236469186842441558837890625">
        <ele>1250.800048828125</ele>
        <time>2022-08-25T08:54:24.000Z</time>
      </trkpt>
      <trkpt lat="40.32007559202611446380615234375" lon="-1.81236050091683864593505859375">
        <ele>1250.5999755859375</ele>
        <time>2022-08-25T08:54:25.000Z</time>
      </trkpt>
      <trkpt lat="40.3200708143413066864013671875" lon="-1.81235027499496936798095703125">
        <ele>1250.199951171875</ele>
        <time>2022-08-25T08:54:28.000Z</time>
      </trkpt>
      <trkpt lat="40.32004608772695064544677734375" lon="-1.81228187866508960723876953125">
        <ele>1248.800048828125</ele>
        <time>2022-08-25T08:56:12.000Z</time>
      </trkpt>
      <trkpt lat="40.32000199891626834869384765625" lon="-1.81226201355457305908203125">
        <ele>1248.800048828125</ele>
        <time>2022-08-25T08:56:14.000Z</time>
      </trkpt>
      <trkpt lat="40.31977518461644649505615234375" lon="-1.81216687895357608795166015625">
        <ele>1248.800048828125</ele>
        <time>2022-08-25T08:56:21.000Z</time>
      </trkpt>
      <trkpt lat="40.31946681439876556396484375" lon="-1.8120073713362216949462890625">
        <ele>1249</ele>
        <time>2022-08-25T08:56:29.000Z</time>
      </trkpt>
      <trkpt lat="40.319137237966060638427734375" lon="-1.8117860890924930572509765625">
        <ele>1249</ele>
        <time>2022-08-25T08:56:37.000Z</time>
      </trkpt>
      <trkpt lat="40.318704731762409210205078125" lon="-1.81145844049751758575439453125">
        <ele>1248.5999755859375</ele>
        <time>2022-08-25T08:56:46.000Z</time>
      </trkpt>
      <trkpt lat="40.31855829991400241851806640625" lon="-1.81133690290153026580810546875">
        <ele>1248.5999755859375</ele>
        <time>2022-08-25T08:56:49.000Z</time>
      </trkpt>
      <trkpt lat="40.31834858469665050506591796875" lon="-1.811192817986011505126953125">
        <ele>1248.199951171875</ele>
        <time>2022-08-25T08:56:53.000Z</time>
      </trkpt>
      <trkpt lat="40.3180794417858123779296875" lon="-1.81100967340171337127685546875">
        <ele>1247.800048828125</ele>
        <time>2022-08-25T08:56:59.000Z</time>
      </trkpt>
      <trkpt lat="40.31773720867931842803955078125" lon="-1.81086030788719654083251953125">
        <ele>1247.800048828125</ele>
        <time>2022-08-25T08:57:06.000Z</time>
      </trkpt>
      <trkpt lat="40.31728215515613555908203125" lon="-1.8107101880013942718505859375">
        <ele>1247.800048828125</ele>
        <time>2022-08-25T08:57:13.000Z</time>
      </trkpt>
      <trkpt lat="40.316842608153820037841796875" lon="-1.8105482496321201324462890625">
        <ele>1247.199951171875</ele>
        <time>2022-08-25T08:57:19.000Z</time>
      </trkpt>
      <trkpt lat="40.3167659975588321685791015625" lon="-1.8105165660381317138671875">
        <ele>1247</ele>
        <time>2022-08-25T08:57:20.000Z</time>
      </trkpt>
      <trkpt lat="40.31653515994548797607421875" lon="-1.81041992269456386566162109375">
        <ele>1246.199951171875</ele>
        <time>2022-08-25T08:57:23.000Z</time>
      </trkpt>
      <trkpt lat="40.3162228502333164215087890625" lon="-1.8103155680000782012939453125">
        <ele>1245</ele>
        <time>2022-08-25T08:57:27.000Z</time>
      </trkpt>
      <trkpt lat="40.3157846443355083465576171875" lon="-1.81014751084148883819580078125">
        <ele>1243.800048828125</ele>
        <time>2022-08-25T08:57:33.000Z</time>
      </trkpt>
      <trkpt lat="40.31555741094052791595458984375" lon="-1.81005857884883880615234375">
        <ele>1243</ele>
        <time>2022-08-25T08:57:36.000Z</time>
      </trkpt>
      <trkpt lat="40.31548314727842807769775390625" lon="-1.81002664379775524139404296875">
        <ele>1242.800048828125</ele>
        <time>2022-08-25T08:57:37.000Z</time>
      </trkpt>
      <trkpt lat="40.315113924443721771240234375" lon="-1.80986956693232059478759765625">
        <ele>1242</ele>
        <time>2022-08-25T08:57:42.000Z</time>
      </trkpt>
      <trkpt lat="40.31496732495725154876708984375" lon="-1.80980921722948551177978515625">
        <ele>1241.5999755859375</ele>
        <time>2022-08-25T08:57:44.000Z</time>
      </trkpt>
      <trkpt lat="40.31448855064809322357177734375" lon="-1.80961668491363525390625">
        <ele>1241</ele>
        <time>2022-08-25T08:57:51.000Z</time>
      </trkpt>
      <trkpt lat="40.3144244290888309478759765625" lon="-1.80959145538508892059326171875">
        <ele>1240.800048828125</ele>
        <time>2022-08-25T08:57:52.000Z</time>
      </trkpt>
      <trkpt lat="40.3139013983309268951416015625" lon="-1.809402443468570709228515625">
        <ele>1240.5999755859375</ele>
        <time>2022-08-25T08:58:00.000Z</time>
      </trkpt>
      <trkpt lat="40.31355882994830608367919921875" lon="-1.80927445180714130401611328125">
        <ele>1240.4000244140625</ele>
        <time>2022-08-25T08:58:06.000Z</time>
      </trkpt>
      <trkpt lat="40.3132637031376361846923828125" lon="-1.8091461248695850372314453125">
        <ele>1240.5999755859375</ele>
        <time>2022-08-25T08:58:12.000Z</time>
      </trkpt>
      <trkpt lat="40.31311936676502227783203125" lon="-1.80909692309796810150146484375">
        <ele>1240.4000244140625</ele>
        <time>2022-08-25T08:58:16.000Z</time>
      </trkpt>
      <trkpt lat="40.313111655414104461669921875" lon="-1.809093654155731201171875">
        <ele>1240.4000244140625</ele>
        <time>2022-08-25T08:58:19.000Z</time>
      </trkpt>
      <trkpt lat="40.3130662254989147186279296875" lon="-1.80906406603753566741943359375">
        <ele>1239.4000244140625</ele>
        <time>2022-08-25T08:58:32.000Z</time>
      </trkpt>
      <trkpt lat="40.3129213862121105194091796875" lon="-1.8089872039854526519775390625">
        <ele>1239.4000244140625</ele>
        <time>2022-08-25T08:58:37.000Z</time>
      </trkpt>
      <trkpt lat="40.312758944928646087646484375" lon="-1.80891461670398712158203125">
        <ele>1239.4000244140625</ele>
        <time>2022-08-25T08:58:41.000Z</time>
      </trkpt>
      <trkpt lat="40.31267009675502777099609375" lon="-1.80886440910398960113525390625">
        <ele>1239.199951171875</ele>
        <time>2022-08-25T08:58:43.000Z</time>
      </trkpt>
      <trkpt lat="40.31242023222148418426513671875" lon="-1.80872627533972263336181640625">
        <ele>1239.199951171875</ele>
        <time>2022-08-25T08:58:48.000Z</time>
      </trkpt>
      <trkpt lat="40.31231193803250789642333984375" lon="-1.80867648683488368988037109375">
        <ele>1239</ele>
        <time>2022-08-25T08:58:50.000Z</time>
      </trkpt>
      <trkpt lat="40.31210482120513916015625" lon="-1.80857640691101551055908203125">
        <ele>1238.5999755859375</ele>
        <time>2022-08-25T08:58:54.000Z</time>
      </trkpt>
      <trkpt lat="40.31187155283987522125244140625" lon="-1.80847733281552791595458984375">
        <ele>1238</ele>
        <time>2022-08-25T08:58:58.000Z</time>
      </trkpt>
      <trkpt lat="40.31175009906291961669921875" lon="-1.808422096073627471923828125">
        <ele>1237.800048828125</ele>
        <time>2022-08-25T08:59:00.000Z</time>
      </trkpt>
      <trkpt lat="40.31162269413471221923828125" lon="-1.80837155319750308990478515625">
        <ele>1237.4000244140625</ele>
        <time>2022-08-25T08:59:02.000Z</time>
      </trkpt>
      <trkpt lat="40.31150341965258121490478515625" lon="-1.80830852128565311431884765625">
        <ele>1237.4000244140625</ele>
        <time>2022-08-25T08:59:04.000Z</time>
      </trkpt>
      <trkpt lat="40.311160348355770111083984375" lon="-1.808101236820220947265625">
        <ele>1237.4000244140625</ele>
        <time>2022-08-25T08:59:10.000Z</time>
      </trkpt>
      <trkpt lat="40.3108473680913448333740234375" lon="-1.8078338541090488433837890625">
        <ele>1237.4000244140625</ele>
        <time>2022-08-25T08:59:16.000Z</time>
      </trkpt>
      <trkpt lat="40.31051167286932468414306640625" lon="-1.8074642121791839599609375">
        <ele>1237.5999755859375</ele>
        <time>2022-08-25T08:59:23.000Z</time>
      </trkpt>
      <trkpt lat="40.31008637510240077972412109375" lon="-1.80693455971777439117431640625">
        <ele>1237.5999755859375</ele>
        <time>2022-08-25T08:59:32.000Z</time>
      </trkpt>
      <trkpt lat="40.30978026799857616424560546875" lon="-1.80662761442363262176513671875">
        <ele>1237.5999755859375</ele>
        <time>2022-08-25T08:59:38.000Z</time>
      </trkpt>
      <trkpt lat="40.309486649930477142333984375" lon="-1.806405745446681976318359375">
        <ele>1237.5999755859375</ele>
        <time>2022-08-25T08:59:44.000Z</time>
      </trkpt>
      <trkpt lat="40.30939646065235137939453125" lon="-1.8063430488109588623046875">
        <ele>1237.5999755859375</ele>
        <time>2022-08-25T08:59:46.000Z</time>
      </trkpt>
      <trkpt lat="40.30925564467906951904296875" lon="-1.8063135445117950439453125">
        <ele>1237.5999755859375</ele>
        <time>2022-08-25T08:59:49.000Z</time>
      </trkpt>
      <trkpt lat="40.30919252894818782806396484375" lon="-1.80630926974117755889892578125">
        <ele>1237.4000244140625</ele>
        <time>2022-08-25T08:59:52.000Z</time>
      </trkpt>
      <trkpt lat="40.30918448232114315032958984375" lon="-1.80631480179727077484130859375">
        <ele>1237.4000244140625</ele>
        <time>2022-08-25T08:59:54.000Z</time>
      </trkpt>
      <trkpt lat="40.3090067021548748016357421875" lon="-1.8061728961765766143798828125">
        <ele>1236.4000244140625</ele>
        <time>2022-08-25T09:03:20.000Z</time>
      </trkpt>
      <trkpt lat="40.3089872561395168304443359375" lon="-1.8061480857431888580322265625">
        <ele>1236.4000244140625</ele>
        <time>2022-08-25T09:03:22.000Z</time>
      </trkpt>
      <trkpt lat="40.308938808739185333251953125" lon="-1.8061179108917713165283203125">
        <ele>1236.4000244140625</ele>
        <time>2022-08-25T09:03:26.000Z</time>
      </trkpt>
      <trkpt lat="40.30890695750713348388671875" lon="-1.80610307492315769195556640625">
        <ele>1236.4000244140625</ele>
        <time>2022-08-25T09:03:28.000Z</time>
      </trkpt>
      <trkpt lat="40.30889530666172504425048828125" lon="-1.80605848319828510284423828125">
        <ele>1236.4000244140625</ele>
        <time>2022-08-25T09:03:32.000Z</time>
      </trkpt>
      <trkpt lat="40.3088913671672344207763671875" lon="-1.80603870190680027008056640625">
        <ele>1236.4000244140625</ele>
        <time>2022-08-25T09:03:33.000Z</time>
      </trkpt>
      <trkpt lat="40.30881232582032680511474609375" lon="-1.8059673719108104705810546875">
        <ele>1236.4000244140625</ele>
        <time>2022-08-25T09:03:37.000Z</time>
      </trkpt>
      <trkpt lat="40.3086301870644092559814453125" lon="-1.80582202970981597900390625">
        <ele>1236.4000244140625</ele>
        <time>2022-08-25T09:03:42.000Z</time>
      </trkpt>
      <trkpt lat="40.308353416621685028076171875" lon="-1.8056349456310272216796875">
        <ele>1236.5999755859375</ele>
        <time>2022-08-25T09:03:48.000Z</time>
      </trkpt>
      <trkpt lat="40.30802442692220211029052734375" lon="-1.805359683930873870849609375">
        <ele>1236.5999755859375</ele>
        <time>2022-08-25T09:03:55.000Z</time>
      </trkpt>
      <trkpt lat="40.307654701173305511474609375" lon="-1.8050108291208744049072265625">
        <ele>1237</ele>
        <time>2022-08-25T09:04:03.000Z</time>
      </trkpt>
      <trkpt lat="40.3073467500507831573486328125" lon="-1.80462970398366451263427734375">
        <ele>1237.199951171875</ele>
        <time>2022-08-25T09:04:10.000Z</time>
      </trkpt>
      <trkpt lat="40.306979455053806304931640625" lon="-1.80417724885046482086181640625">
        <ele>1237.4000244140625</ele>
        <time>2022-08-25T09:04:18.000Z</time>
      </trkpt>
      <trkpt lat="40.3068736754357814788818359375" lon="-1.80407515726983547210693359375">
        <ele>1237.4000244140625</ele>
        <time>2022-08-25T09:04:20.000Z</time>
      </trkpt>
      <trkpt lat="40.306714586913585662841796875" lon="-1.8039241991937160491943359375">
        <ele>1237.199951171875</ele>
        <time>2022-08-25T09:04:23.000Z</time>
      </trkpt>
      <trkpt lat="40.30629440210759639739990234375" lon="-1.8035495281219482421875">
        <ele>1236.5999755859375</ele>
        <time>2022-08-25T09:04:30.000Z</time>
      </trkpt>
      <trkpt lat="40.3057903982698917388916015625" lon="-1.80315482430160045623779296875">
        <ele>1235.800048828125</ele>
        <time>2022-08-25T09:04:37.000Z</time>
      </trkpt>
      <trkpt lat="40.30556551180779933929443359375" lon="-1.80297444574534893035888671875">
        <ele>1235.5999755859375</ele>
        <time>2022-08-25T09:04:40.000Z</time>
      </trkpt>
      <trkpt lat="40.305341966450214385986328125" lon="-1.802792809903621673583984375">
        <ele>1234.5999755859375</ele>
        <time>2022-08-25T09:04:43.000Z</time>
      </trkpt>
      <trkpt lat="40.30503929592669010162353515625" lon="-1.80257764644920825958251953125">
        <ele>1233.4000244140625</ele>
        <time>2022-08-25T09:04:47.000Z</time>
      </trkpt>
      <trkpt lat="40.30456739477813243865966796875" lon="-1.80220264010131359100341796875">
        <ele>1232.5999755859375</ele>
        <time>2022-08-25T09:04:54.000Z</time>
      </trkpt>
      <trkpt lat="40.3045029379427433013916015625" lon="-1.80214480496942996978759765625">
        <ele>1232.5999755859375</ele>
        <time>2022-08-25T09:04:55.000Z</time>
      </trkpt>
      <trkpt lat="40.304021649062633514404296875" lon="-1.8017725646495819091796875">
        <ele>1231.800048828125</ele>
        <time>2022-08-25T09:05:02.000Z</time>
      </trkpt>
      <trkpt lat="40.303707160055637359619140625" lon="-1.80160702206194400787353515625">
        <ele>1231.4000244140625</ele>
        <time>2022-08-25T09:05:06.000Z</time>
      </trkpt>
      <trkpt lat="40.3035383485257625579833984375" lon="-1.80153996683657169342041015625">
        <ele>1231.199951171875</ele>
        <time>2022-08-25T09:05:08.000Z</time>
      </trkpt>
      <trkpt lat="40.30300584621727466583251953125" lon="-1.8013750948011875152587890625">
        <ele>1230.4000244140625</ele>
        <time>2022-08-25T09:05:14.000Z</time>
      </trkpt>
      <trkpt lat="40.3024875931441783905029296875" lon="-1.801249869167804718017578125">
        <ele>1229.199951171875</ele>
        <time>2022-08-25T09:05:20.000Z</time>
      </trkpt>
      <trkpt lat="40.30232079327106475830078125" lon="-1.8012093007564544677734375">
        <ele>1228.800048828125</ele>
        <time>2022-08-25T09:05:22.000Z</time>
      </trkpt>
      <trkpt lat="40.30177135951817035675048828125" lon="-1.801086924970149993896484375">
        <ele>1228.4000244140625</ele>
        <time>2022-08-25T09:05:29.000Z</time>
      </trkpt>
      <trkpt lat="40.3016938269138336181640625" lon="-1.8010733462870121002197265625">
        <ele>1228.199951171875</ele>
        <time>2022-08-25T09:05:30.000Z</time>
      </trkpt>
      <trkpt lat="40.30161763541400432586669921875" lon="-1.80105767212808132171630859375">
        <ele>1228.199951171875</ele>
        <time>2022-08-25T09:05:31.000Z</time>
      </trkpt>
      <trkpt lat="40.30123240314424037933349609375" lon="-1.800983659923076629638671875">
        <ele>1227.199951171875</ele>
        <time>2022-08-25T09:05:36.000Z</time>
      </trkpt>
      <trkpt lat="40.30062572099268436431884765625" lon="-1.80088031105697154998779296875">
        <ele>1226.5999755859375</ele>
        <time>2022-08-25T09:05:44.000Z</time>
      </trkpt>
      <trkpt lat="40.3000705875456333160400390625" lon="-1.80077721364796161651611328125">
        <ele>1226.199951171875</ele>
        <time>2022-08-25T09:05:52.000Z</time>
      </trkpt>
      <trkpt lat="40.30000059865415096282958984375" lon="-1.80077067576348781585693359375">
        <ele>1226.199951171875</ele>
        <time>2022-08-25T09:05:53.000Z</time>
      </trkpt>
      <trkpt lat="40.29973505996167659759521484375" lon="-1.80076983757317066192626953125">
        <ele>1225.800048828125</ele>
        <time>2022-08-25T09:05:57.000Z</time>
      </trkpt>
      <trkpt lat="40.2996813319623470306396484375" lon="-1.800746284425258636474609375">
        <ele>1225.5999755859375</ele>
        <time>2022-08-25T09:05:58.000Z</time>
      </trkpt>
      <trkpt lat="40.29960748739540576934814453125" lon="-1.80057940073311328887939453125">
        <ele>1225.4000244140625</ele>
        <time>2022-08-25T09:06:01.000Z</time>
      </trkpt>
      <trkpt lat="40.29959835112094879150390625" lon="-1.80051653645932674407958984375">
        <ele>1225.4000244140625</ele>
        <time>2022-08-25T09:06:02.000Z</time>
      </trkpt>
      <trkpt lat="40.29957094229757785797119140625" lon="-1.8003940768539905548095703125">
        <ele>1225.4000244140625</ele>
        <time>2022-08-25T09:06:04.000Z</time>
      </trkpt>
      <trkpt lat="40.2994992770254611968994140625" lon="-1.80016634054481983184814453125">
        <ele>1225.4000244140625</ele>
        <time>2022-08-25T09:06:08.000Z</time>
      </trkpt>
      <trkpt lat="40.29942191205918788909912109375" lon="-1.80002887733280658721923828125">
        <ele>1225.5999755859375</ele>
        <time>2022-08-25T09:06:11.000Z</time>
      </trkpt>
      <trkpt lat="40.29935519210994243621826171875" lon="-1.79995444603264331817626953125">
        <ele>1225.800048828125</ele>
        <time>2022-08-25T09:06:13.000Z</time>
      </trkpt>
      <trkpt lat="40.29918671585619449615478515625" lon="-1.79976970888674259185791015625">
        <ele>1226.4000244140625</ele>
        <time>2022-08-25T09:06:18.000Z</time>
      </trkpt>
      <trkpt lat="40.2990785054862499237060546875" lon="-1.79965856485068798065185546875">
        <ele>1227</ele>
        <time>2022-08-25T09:06:21.000Z</time>
      </trkpt>
      <trkpt lat="40.29900650493800640106201171875" lon="-1.79958547465503215789794921875">
        <ele>1227.199951171875</ele>
        <time>2022-08-25T09:06:23.000Z</time>
      </trkpt>
      <trkpt lat="40.29889703728258609771728515625" lon="-1.7994784377515316009521484375">
        <ele>1227.5999755859375</ele>
        <time>2022-08-25T09:06:26.000Z</time>
      </trkpt>
      <trkpt lat="40.2988270483911037445068359375" lon="-1.79940174333751201629638671875">
        <ele>1227.800048828125</ele>
        <time>2022-08-25T09:06:28.000Z</time>
      </trkpt>
      <trkpt lat="40.29864155687391757965087890625" lon="-1.79923318326473236083984375">
        <ele>1228.4000244140625</ele>
        <time>2022-08-25T09:06:33.000Z</time>
      </trkpt>
      <trkpt lat="40.29860517941415309906005859375" lon="-1.799201332032680511474609375">
        <ele>1228.5999755859375</ele>
        <time>2022-08-25T09:06:34.000Z</time>
      </trkpt>
      <trkpt lat="40.29850275255739688873291015625" lon="-1.799096725881099700927734375">
        <ele>1228.800048828125</ele>
        <time>2022-08-25T09:06:37.000Z</time>
      </trkpt>
      <trkpt lat="40.29836160130798816680908203125" lon="-1.79897879250347614288330078125">
        <ele>1229.800048828125</ele>
        <time>2022-08-25T09:06:41.000Z</time>
      </trkpt>
      <trkpt lat="40.29829052276909351348876953125" lon="-1.7989342845976352691650390625">
        <ele>1230</ele>
        <time>2022-08-25T09:06:43.000Z</time>
      </trkpt>
      <trkpt lat="40.29805180616676807403564453125" lon="-1.7989181913435459136962890625">
        <ele>1231</ele>
        <time>2022-08-25T09:06:48.000Z</time>
      </trkpt>
      <trkpt lat="40.29773153364658355712890625" lon="-1.7989902757108211517333984375">
        <ele>1231.199951171875</ele>
        <time>2022-08-25T09:06:55.000Z</time>
      </trkpt>
      <trkpt lat="40.29751050285995006561279296875" lon="-1.7989725060760974884033203125">
        <ele>1231.800048828125</ele>
        <time>2022-08-25T09:07:00.000Z</time>
      </trkpt>
      <trkpt lat="40.297425426542758941650390625" lon="-1.79892481304705142974853515625">
        <ele>1232</ele>
        <time>2022-08-25T09:07:02.000Z</time>
      </trkpt>
      <trkpt lat="40.2973384223878383636474609375" lon="-1.798849962651729583740234375">
        <ele>1232.4000244140625</ele>
        <time>2022-08-25T09:07:04.000Z</time>
      </trkpt>
      <trkpt lat="40.29728922061622142791748046875" lon="-1.79880763404071331024169921875">
        <ele>1232.4000244140625</ele>
        <time>2022-08-25T09:07:05.000Z</time>
      </trkpt>
      <trkpt lat="40.2970269508659839630126953125" lon="-1.7985396645963191986083984375">
        <ele>1232.4000244140625</ele>
        <time>2022-08-25T09:07:10.000Z</time>
      </trkpt>
      <trkpt lat="40.2965746633708477020263671875" lon="-1.798048317432403564453125">
        <ele>1231.4000244140625</ele>
        <time>2022-08-25T09:07:17.000Z</time>
      </trkpt>
      <trkpt lat="40.29650232754647731781005859375" lon="-1.7979730479419231414794921875">
        <ele>1231</ele>
        <time>2022-08-25T09:07:18.000Z</time>
      </trkpt>
      <trkpt lat="40.2962082065641880035400390625" lon="-1.797656379640102386474609375">
        <ele>1230</ele>
        <time>2022-08-25T09:07:22.000Z</time>
      </trkpt>
      <trkpt lat="40.29597661457955837249755859375" lon="-1.79742763750255107879638671875">
        <ele>1228.5999755859375</ele>
        <time>2022-08-25T09:07:25.000Z</time>
      </trkpt>
      <trkpt lat="40.29574359767138957977294921875" lon="-1.79723518900573253631591796875">
        <ele>1227.4000244140625</ele>
        <time>2022-08-25T09:07:28.000Z</time>
      </trkpt>
      <trkpt lat="40.2955805696547031402587890625" lon="-1.7971405573189258575439453125">
        <ele>1226.5999755859375</ele>
        <time>2022-08-25T09:07:30.000Z</time>
      </trkpt>
      <trkpt lat="40.2955004386603832244873046875" lon="-1.797101832926273345947265625">
        <ele>1226.199951171875</ele>
        <time>2022-08-25T09:07:31.000Z</time>
      </trkpt>
      <trkpt lat="40.29518050141632556915283203125" lon="-1.7969672195613384246826171875">
        <ele>1225</ele>
        <time>2022-08-25T09:07:35.000Z</time>
      </trkpt>
      <trkpt lat="40.29510372318327426910400390625" lon="-1.7969373799860477447509765625">
        <ele>1224.800048828125</ele>
        <time>2022-08-25T09:07:36.000Z</time>
      </trkpt>
      <trkpt lat="40.294728465378284454345703125" lon="-1.7967878468334674835205078125">
        <ele>1224</ele>
        <time>2022-08-25T09:07:41.000Z</time>
      </trkpt>
      <trkpt lat="40.2945834584534168243408203125" lon="-1.7967298440635204315185546875">
        <ele>1223.5999755859375</ele>
        <time>2022-08-25T09:07:43.000Z</time>
      </trkpt>
      <trkpt lat="40.29405766166746616363525390625" lon="-1.79652406834065914154052734375">
        <ele>1223.199951171875</ele>
        <time>2022-08-25T09:07:51.000Z</time>
      </trkpt>
      <trkpt lat="40.29399345628917217254638671875" lon="-1.79650931619107723236083984375">
        <ele>1223</ele>
        <time>2022-08-25T09:07:52.000Z</time>
      </trkpt>
      <trkpt lat="40.2937204577028751373291015625" lon="-1.79649733006954193115234375">
        <ele>1222.5999755859375</ele>
        <time>2022-08-25T09:07:56.000Z</time>
      </trkpt>
      <trkpt lat="40.2933268435299396514892578125" lon="-1.796508729457855224609375">
        <ele>1222.5999755859375</ele>
        <time>2022-08-25T09:08:02.000Z</time>
      </trkpt>
      <trkpt lat="40.2929617278277873992919921875" lon="-1.79647587239742279052734375">
        <ele>1222.5999755859375</ele>
        <time>2022-08-25T09:08:08.000Z</time>
      </trkpt>
      <trkpt lat="40.29251891188323497772216796875" lon="-1.79641962982714176177978515625">
        <ele>1222.4000244140625</ele>
        <time>2022-08-25T09:08:15.000Z</time>
      </trkpt>
      <trkpt lat="40.2921825461089611053466796875" lon="-1.7965001799166202545166015625">
        <ele>1222.4000244140625</ele>
        <time>2022-08-25T09:08:20.000Z</time>
      </trkpt>
      <trkpt lat="40.291983224451541900634765625" lon="-1.79659212939441204071044921875">
        <ele>1222.199951171875</ele>
        <time>2022-08-25T09:08:23.000Z</time>
      </trkpt>
      <trkpt lat="40.2917745150625705718994140625" lon="-1.7966644652187824249267578125">
        <ele>1222</ele>
        <time>2022-08-25T09:08:26.000Z</time>
      </trkpt>
      <trkpt lat="40.29170435853302478790283203125" lon="-1.79666991345584392547607421875">
        <ele>1221.800048828125</ele>
        <time>2022-08-25T09:08:27.000Z</time>
      </trkpt>
      <trkpt lat="40.29143865220248699188232421875" lon="-1.79655943997204303741455078125">
        <ele>1221.5999755859375</ele>
        <time>2022-08-25T09:08:31.000Z</time>
      </trkpt>
      <trkpt lat="40.29124888591468334197998046875" lon="-1.7962654866278171539306640625">
        <ele>1221.199951171875</ele>
        <time>2022-08-25T09:08:35.000Z</time>
      </trkpt>
      <trkpt lat="40.29120915569365024566650390625" lon="-1.7961830087006092071533203125">
        <ele>1221.199951171875</ele>
        <time>2022-08-25T09:08:36.000Z</time>
      </trkpt>
      <trkpt lat="40.29101519845426082611083984375" lon="-1.795694343745708465576171875">
        <ele>1220.4000244140625</ele>
        <time>2022-08-25T09:08:42.000Z</time>
      </trkpt>
      <trkpt lat="40.29095082543790340423583984375" lon="-1.795274913311004638671875">
        <ele>1220.4000244140625</ele>
        <time>2022-08-25T09:08:47.000Z</time>
      </trkpt>
      <trkpt lat="40.29091469943523406982421875" lon="-1.79455130361020565032958984375">
        <ele>1221</ele>
        <time>2022-08-25T09:08:56.000Z</time>
      </trkpt>
      <trkpt lat="40.2909138612449169158935546875" lon="-1.79446949623525142669677734375">
        <ele>1221</ele>
        <time>2022-08-25T09:08:57.000Z</time>
      </trkpt>
      <trkpt lat="40.29086901806294918060302734375" lon="-1.79375167004764080047607421875">
        <ele>1221.4000244140625</ele>
        <time>2022-08-25T09:09:06.000Z</time>
      </trkpt>
      <trkpt lat="40.2908468060195446014404296875" lon="-1.793598197400569915771484375">
        <ele>1221.5999755859375</ele>
        <time>2022-08-25T09:09:08.000Z</time>
      </trkpt>
      <trkpt lat="40.29069735668599605560302734375" lon="-1.7930820398032665252685546875">
        <ele>1222.4000244140625</ele>
        <time>2022-08-25T09:09:15.000Z</time>
      </trkpt>
      <trkpt lat="40.2906677685678005218505859375" lon="-1.793011464178562164306640625">
        <ele>1222.4000244140625</ele>
        <time>2022-08-25T09:09:16.000Z</time>
      </trkpt>
      <trkpt lat="40.29035453684628009796142578125" lon="-1.792348287999629974365234375">
        <ele>1223</ele>
        <time>2022-08-25T09:09:26.000Z</time>
      </trkpt>
      <trkpt lat="40.2900568954646587371826171875" lon="-1.7916901409626007080078125">
        <ele>1223.4000244140625</ele>
        <time>2022-08-25T09:09:36.000Z</time>
      </trkpt>
      <trkpt lat="40.29000165872275829315185546875" lon="-1.79156768135726451873779296875">
        <ele>1223.4000244140625</ele>
        <time>2022-08-25T09:09:38.000Z</time>
      </trkpt>
      <trkpt lat="40.2898895926773548126220703125" lon="-1.7913362570106983184814453125">
        <ele>1223.5999755859375</ele>
        <time>2022-08-25T09:09:42.000Z</time>
      </trkpt>
      <trkpt lat="40.28975640423595905303955078125" lon="-1.79107717238366603851318359375">
        <ele>1224</ele>
        <time>2022-08-25T09:09:47.000Z</time>
      </trkpt>
      <trkpt lat="40.28968733735382556915283203125" lon="-1.7909178324043750762939453125">
        <ele>1224.5999755859375</ele>
        <time>2022-08-25T09:09:50.000Z</time>
      </trkpt>
      <trkpt lat="40.2895526401698589324951171875" lon="-1.79063293151557445526123046875">
        <ele>1225.4000244140625</ele>
        <time>2022-08-25T09:09:55.000Z</time>
      </trkpt>
      <trkpt lat="40.28931903652846813201904296875" lon="-1.79010101594030857086181640625">
        <ele>1225.4000244140625</ele>
        <time>2022-08-25T09:10:03.000Z</time>
      </trkpt>
      <trkpt lat="40.28905651532113552093505859375" lon="-1.78950925357639789581298828125">
        <ele>1225.199951171875</ele>
        <time>2022-08-25T09:10:10.000Z</time>
      </trkpt>
      <trkpt lat="40.2888301201164722442626953125" lon="-1.7891428805887699127197265625">
        <ele>1224</ele>
        <time>2022-08-25T09:10:15.000Z</time>
      </trkpt>
      <trkpt lat="40.28877421282231807708740234375" lon="-1.78908546455204486846923828125">
        <ele>1223.800048828125</ele>
        <time>2022-08-25T09:10:16.000Z</time>
      </trkpt>
      <trkpt lat="40.28853692114353179931640625" lon="-1.7888944409787654876708984375">
        <ele>1223.199951171875</ele>
        <time>2022-08-25T09:10:20.000Z</time>
      </trkpt>
      <trkpt lat="40.2882350049912929534912109375" lon="-1.788660921156406402587890625">
        <ele>1223</ele>
        <time>2022-08-25T09:10:26.000Z</time>
      </trkpt>
      <trkpt lat="40.28793015517294406890869140625" lon="-1.78841843269765377044677734375">
        <ele>1223</ele>
        <time>2022-08-25T09:10:33.000Z</time>
      </trkpt>
      <trkpt lat="40.28763477690517902374267578125" lon="-1.78818105719983577728271484375">
        <ele>1224</ele>
        <time>2022-08-25T09:10:40.000Z</time>
      </trkpt>
      <trkpt lat="40.28727854602038860321044921875" lon="-1.787914931774139404296875">
        <ele>1224.4000244140625</ele>
        <time>2022-08-25T09:10:48.000Z</time>
      </trkpt>
      <trkpt lat="40.28700781054794788360595703125" lon="-1.787711419165134429931640625">
        <ele>1225.199951171875</ele>
        <time>2022-08-25T09:10:55.000Z</time>
      </trkpt>
      <trkpt lat="40.2869720198214054107666015625" lon="-1.78768493235111236572265625">
        <ele>1225.199951171875</ele>
        <time>2022-08-25T09:10:56.000Z</time>
      </trkpt>
      <trkpt lat="40.286776386201381683349609375" lon="-1.7875184677541255950927734375">
        <ele>1226.199951171875</ele>
        <time>2022-08-25T09:11:02.000Z</time>
      </trkpt>
      <trkpt lat="40.2866897173225879669189453125" lon="-1.7874227464199066162109375">
        <ele>1227</ele>
        <time>2022-08-25T09:11:05.000Z</time>
      </trkpt>
      <trkpt lat="40.28663381002843379974365234375" lon="-1.787351667881011962890625">
        <ele>1227.199951171875</ele>
        <time>2022-08-25T09:11:07.000Z</time>
      </trkpt>
      <trkpt lat="40.28651998378336429595947265625" lon="-1.78714823909103870391845703125">
        <ele>1228.199951171875</ele>
        <time>2022-08-25T09:11:12.000Z</time>
      </trkpt>
      <trkpt lat="40.286497436463832855224609375" lon="-1.7871057428419589996337890625">
        <ele>1228.4000244140625</ele>
        <time>2022-08-25T09:11:13.000Z</time>
      </trkpt>
      <trkpt lat="40.28625561855733394622802734375" lon="-1.78662152029573917388916015625">
        <ele>1229.4000244140625</ele>
        <time>2022-08-25T09:11:24.000Z</time>
      </trkpt>
      <trkpt lat="40.28617012314498424530029296875" lon="-1.78646578453481197357177734375">
        <ele>1229.5999755859375</ele>
        <time>2022-08-25T09:11:28.000Z</time>
      </trkpt>
      <trkpt lat="40.28609217144548892974853515625" lon="-1.7863242141902446746826171875">
        <ele>1230</ele>
        <time>2022-08-25T09:11:32.000Z</time>
      </trkpt>
      <trkpt lat="40.2859527803957462310791015625" lon="-1.78607426583766937255859375">
        <ele>1230.5999755859375</ele>
        <time>2022-08-25T09:11:40.000Z</time>
      </trkpt>
      <trkpt lat="40.2859380282461643218994140625" lon="-1.7860442586243152618408203125">
        <ele>1230.800048828125</ele>
        <time>2022-08-25T09:11:41.000Z</time>
      </trkpt>
      <trkpt lat="40.28583526611328125" lon="-1.78583915345370769500732421875">
        <ele>1231.5999755859375</ele>
        <time>2022-08-25T09:11:48.000Z</time>
      </trkpt>
      <trkpt lat="40.2857727371156215667724609375" lon="-1.7857244051992893218994140625">
        <ele>1232.4000244140625</ele>
        <time>2022-08-25T09:11:52.000Z</time>
      </trkpt>
      <trkpt lat="40.285732336342334747314453125" lon="-1.7856761254370212554931640625">
        <ele>1232.800048828125</ele>
        <time>2022-08-25T09:11:54.000Z</time>
      </trkpt>
      <trkpt lat="40.28559361584484577178955078125" lon="-1.78555659949779510498046875">
        <ele>1234.199951171875</ele>
        <time>2022-08-25T09:12:00.000Z</time>
      </trkpt>
      <trkpt lat="40.285433940589427947998046875" lon="-1.7853971756994724273681640625">
        <ele>1235.199951171875</ele>
        <time>2022-08-25T09:12:07.000Z</time>
      </trkpt>
      <trkpt lat="40.28537266887724399566650390625" lon="-1.7853163741528987884521484375">
        <ele>1235.800048828125</ele>
        <time>2022-08-25T09:12:10.000Z</time>
      </trkpt>
      <trkpt lat="40.28530376963317394256591796875" lon="-1.78519584238529205322265625">
        <ele>1236.4000244140625</ele>
        <time>2022-08-25T09:12:14.000Z</time>
      </trkpt>
      <trkpt lat="40.28524610213935375213623046875" lon="-1.78505460731685161590576171875">
        <ele>1237</ele>
        <time>2022-08-25T09:12:18.000Z</time>
      </trkpt>
      <trkpt lat="40.28520301915705204010009765625" lon="-1.78495955653488636016845703125">
        <ele>1237.4000244140625</ele>
        <time>2022-08-25T09:12:21.000Z</time>
      </trkpt>
      <trkpt lat="40.28513160534203052520751953125" lon="-1.784804575145244598388671875">
        <ele>1237.5999755859375</ele>
        <time>2022-08-25T09:12:25.000Z</time>
      </trkpt>
      <trkpt lat="40.284924991428852081298828125" lon="-1.78435991518199443817138671875">
        <ele>1238</ele>
        <time>2022-08-25T09:12:35.000Z</time>
      </trkpt>
      <trkpt lat="40.284743607044219970703125" lon="-1.78416612558066844940185546875">
        <ele>1238</ele>
        <time>2022-08-25T09:12:41.000Z</time>
      </trkpt>
      <trkpt lat="40.2846193872392177581787109375" lon="-1.7840483598411083221435546875">
        <ele>1238.4000244140625</ele>
        <time>2022-08-25T09:12:45.000Z</time>
      </trkpt>
      <trkpt lat="40.28448971919715404510498046875" lon="-1.78393512032926082611083984375">
        <ele>1239</ele>
        <time>2022-08-25T09:12:49.000Z</time>
      </trkpt>
      <trkpt lat="40.2843887172639369964599609375" lon="-1.783857084810733795166015625">
        <ele>1239.5999755859375</ele>
        <time>2022-08-25T09:12:52.000Z</time>
      </trkpt>
      <trkpt lat="40.28417699038982391357421875" lon="-1.78369740955531597137451171875">
        <ele>1240.199951171875</ele>
        <time>2022-08-25T09:12:58.000Z</time>
      </trkpt>
      <trkpt lat="40.2840314805507659912109375" lon="-1.783600263297557830810546875">
        <ele>1240.5999755859375</ele>
        <time>2022-08-25T09:13:02.000Z</time>
      </trkpt>
      <trkpt lat="40.283918492496013641357421875" lon="-1.7835427634418010711669921875">
        <ele>1240.800048828125</ele>
        <time>2022-08-25T09:13:05.000Z</time>
      </trkpt>
      <trkpt lat="40.28361867181956768035888671875" lon="-1.78346908651292324066162109375">
        <ele>1241.4000244140625</ele>
        <time>2022-08-25T09:13:13.000Z</time>
      </trkpt>
      <trkpt lat="40.2835379540920257568359375" lon="-1.78346338681876659393310546875">
        <ele>1241.800048828125</ele>
        <time>2022-08-25T09:13:15.000Z</time>
      </trkpt>
      <trkpt lat="40.28330552391707897186279296875" lon="-1.7834213934838771820068359375">
        <ele>1242.800048828125</ele>
        <time>2022-08-25T09:13:21.000Z</time>
      </trkpt>
      <trkpt lat="40.2831673063337802886962890625" lon="-1.78335241042077541351318359375">
        <ele>1244</ele>
        <time>2022-08-25T09:13:25.000Z</time>
      </trkpt>
      <trkpt lat="40.28306814841926097869873046875" lon="-1.78328317590057849884033203125">
        <ele>1244.199951171875</ele>
        <time>2022-08-25T09:13:28.000Z</time>
      </trkpt>
      <trkpt lat="40.2828011848032474517822265625" lon="-1.783054433763027191162109375">
        <ele>1244.199951171875</ele>
        <time>2022-08-25T09:13:35.000Z</time>
      </trkpt>
      <trkpt lat="40.28251267969608306884765625" lon="-1.78288185037672519683837890625">
        <ele>1243.800048828125</ele>
        <time>2022-08-25T09:13:41.000Z</time>
      </trkpt>
      <trkpt lat="40.282067768275737762451171875" lon="-1.78268529474735260009765625">
        <ele>1243.199951171875</ele>
        <time>2022-08-25T09:13:49.000Z</time>
      </trkpt>
      <trkpt lat="40.28201068751513957977294921875" lon="-1.7826613225042819976806640625">
        <ele>1243</ele>
        <time>2022-08-25T09:13:50.000Z</time>
      </trkpt>
      <trkpt lat="40.2816052548587322235107421875" lon="-1.78251204080879688262939453125">
        <ele>1242.5999755859375</ele>
        <time>2022-08-25T09:13:57.000Z</time>
      </trkpt>
      <trkpt lat="40.28136947192251682281494140625" lon="-1.78242470137774944305419921875">
        <ele>1242</ele>
        <time>2022-08-25T09:14:01.000Z</time>
      </trkpt>
      <trkpt lat="40.2811429090797901153564453125" lon="-1.78233970887959003448486328125">
        <ele>1241.800048828125</ele>
        <time>2022-08-25T09:14:05.000Z</time>
      </trkpt>
      <trkpt lat="40.28071920387446880340576171875" lon="-1.78218330256640911102294921875">
        <ele>1241.5999755859375</ele>
        <time>2022-08-25T09:14:12.000Z</time>
      </trkpt>
      <trkpt lat="40.28019701130688190460205078125" lon="-1.7818499542772769927978515625">
        <ele>1241.199951171875</ele>
        <time>2022-08-25T09:14:21.000Z</time>
      </trkpt>
      <trkpt lat="40.28006608597934246063232421875" lon="-1.78175850771367549896240234375">
        <ele>1240.800048828125</ele>
        <time>2022-08-25T09:14:23.000Z</time>
      </trkpt>
      <trkpt lat="40.279711447656154632568359375" lon="-1.78155449219048023223876953125">
        <ele>1240.199951171875</ele>
        <time>2022-08-25T09:14:28.000Z</time>
      </trkpt>
      <trkpt lat="40.27963827364146709442138671875" lon="-1.78152884356677532196044921875">
        <ele>1240</ele>
        <time>2022-08-25T09:14:29.000Z</time>
      </trkpt>
      <trkpt lat="40.27933618985116481781005859375" lon="-1.781465224921703338623046875">
        <ele>1239.199951171875</ele>
        <time>2022-08-25T09:14:33.000Z</time>
      </trkpt>
      <trkpt lat="40.27918539941310882568359375" lon="-1.78143781609833240509033203125">
        <ele>1238.800048828125</ele>
        <time>2022-08-25T09:14:35.000Z</time>
      </trkpt>
      <trkpt lat="40.27884383685886859893798828125" lon="-1.78136204369366168975830078125">
        <ele>1238.199951171875</ele>
        <time>2022-08-25T09:14:40.000Z</time>
      </trkpt>
      <trkpt lat="40.27865298092365264892578125" lon="-1.7812840081751346588134765625">
        <ele>1237.800048828125</ele>
        <time>2022-08-25T09:14:43.000Z</time>
      </trkpt>
      <trkpt lat="40.27859522961080074310302734375" lon="-1.781247295439243316650390625">
        <ele>1237.800048828125</ele>
        <time>2022-08-25T09:14:44.000Z</time>
      </trkpt>
      <trkpt lat="40.2785356342792510986328125" lon="-1.78121007978916168212890625">
        <ele>1237.800048828125</ele>
        <time>2022-08-25T09:14:45.000Z</time>
      </trkpt>
      <trkpt lat="40.27808577753603458404541015625" lon="-1.7809386737644672393798828125">
        <ele>1237.800048828125</ele>
        <time>2022-08-25T09:14:53.000Z</time>
      </trkpt>
      <trkpt lat="40.27779358439147472381591796875" lon="-1.78085946477949619293212890625">
        <ele>1238</ele>
        <time>2022-08-25T09:14:58.000Z</time>
      </trkpt>
      <trkpt lat="40.27737784199416637420654296875" lon="-1.7807810939848423004150390625">
        <ele>1238</ele>
        <time>2022-08-25T09:15:05.000Z</time>
      </trkpt>
      <trkpt lat="40.2770872414112091064453125" lon="-1.780707500874996185302734375">
        <ele>1237.199951171875</ele>
        <time>2022-08-25T09:15:11.000Z</time>
      </trkpt>
      <trkpt lat="40.27685849927365779876708984375" lon="-1.7806389369070529937744140625">
        <ele>1237.199951171875</ele>
        <time>2022-08-25T09:15:17.000Z</time>
      </trkpt>
      <trkpt lat="40.27662397362291812896728515625" lon="-1.780550591647624969482421875">
        <ele>1237.800048828125</ele>
        <time>2022-08-25T09:15:23.000Z</time>
      </trkpt>
      <trkpt lat="40.2764111571013927459716796875" lon="-1.7804676108062267303466796875">
        <ele>1238.5999755859375</ele>
        <time>2022-08-25T09:15:30.000Z</time>
      </trkpt>
      <trkpt lat="40.27620119042694568634033203125" lon="-1.78036375902593135833740234375">
        <ele>1239.800048828125</ele>
        <time>2022-08-25T09:15:38.000Z</time>
      </trkpt>
      <trkpt lat="40.276056267321109771728515625" lon="-1.78025831468403339385986328125">
        <ele>1240.800048828125</ele>
        <time>2022-08-25T09:15:44.000Z</time>
      </trkpt>
      <trkpt lat="40.2760358154773712158203125" lon="-1.7802349291741847991943359375">
        <ele>1240.800048828125</ele>
        <time>2022-08-25T09:15:45.000Z</time>
      </trkpt>
      <trkpt lat="40.275912098586559295654296875" lon="-1.7801497690379619598388671875">
        <ele>1241.800048828125</ele>
        <time>2022-08-25T09:15:50.000Z</time>
      </trkpt>
      <trkpt lat="40.27588485740125179290771484375" lon="-1.780138872563838958740234375">
        <ele>1241.800048828125</ele>
        <time>2022-08-25T09:15:51.000Z</time>
      </trkpt>
      <trkpt lat="40.2757057361304759979248046875" lon="-1.78012856282293796539306640625">
        <ele>1242.5999755859375</ele>
        <time>2022-08-25T09:15:57.000Z</time>
      </trkpt>
      <trkpt lat="40.27565435506403446197509765625" lon="-1.78011917509138584136962890625">
        <ele>1243.199951171875</ele>
        <time>2022-08-25T09:15:59.000Z</time>
      </trkpt>
      <trkpt lat="40.27556852437555789947509765625" lon="-1.78013007156550884246826171875">
        <ele>1243.5999755859375</ele>
        <time>2022-08-25T09:16:02.000Z</time>
      </trkpt>
      <trkpt lat="40.2754723839461803436279296875" lon="-1.78014658391475677490234375">
        <ele>1244.199951171875</ele>
        <time>2022-08-25T09:16:06.000Z</time>
      </trkpt>
      <trkpt lat="40.2753389440476894378662109375" lon="-1.780213974416255950927734375">
        <ele>1244.800048828125</ele>
        <time>2022-08-25T09:16:10.000Z</time>
      </trkpt>
      <trkpt lat="40.275216735899448394775390625" lon="-1.780250184237957000732421875">
        <ele>1245.4000244140625</ele>
        <time>2022-08-25T09:16:14.000Z</time>
      </trkpt>
      <trkpt lat="40.27509368956089019775390625" lon="-1.78027256391942501068115234375">
        <ele>1246</ele>
        <time>2022-08-25T09:16:18.000Z</time>
      </trkpt>
      <trkpt lat="40.27501012198626995086669921875" lon="-1.7802654393017292022705078125">
        <ele>1246.4000244140625</ele>
        <time>2022-08-25T09:16:21.000Z</time>
      </trkpt>
      <trkpt lat="40.27491138316690921783447265625" lon="-1.78022311069071292877197265625">
        <ele>1247</ele>
        <time>2022-08-25T09:16:25.000Z</time>
      </trkpt>
      <trkpt lat="40.27471038512885570526123046875" lon="-1.780143566429615020751953125">
        <ele>1247.5999755859375</ele>
        <time>2022-08-25T09:16:32.000Z</time>
      </trkpt>
      <trkpt lat="40.27449999935925006866455078125" lon="-1.78006217814981937408447265625">
        <ele>1248.4000244140625</ele>
        <time>2022-08-25T09:16:40.000Z</time>
      </trkpt>
      <trkpt lat="40.2744467742741107940673828125" lon="-1.7800451628863811492919921875">
        <ele>1248.5999755859375</ele>
        <time>2022-08-25T09:16:42.000Z</time>
      </trkpt>
      <trkpt lat="40.2743116579949855804443359375" lon="-1.78000568412244319915771484375">
        <ele>1249.4000244140625</ele>
        <time>2022-08-25T09:16:47.000Z</time>
      </trkpt>
      <trkpt lat="40.27417193166911602020263671875" lon="-1.78002010099589824676513671875">
        <ele>1249.800048828125</ele>
        <time>2022-08-25T09:16:51.000Z</time>
      </trkpt>
      <trkpt lat="40.2740682475268840789794921875" lon="-1.780043654143810272216796875">
        <ele>1250.199951171875</ele>
        <time>2022-08-25T09:16:54.000Z</time>
      </trkpt>
      <trkpt lat="40.273876301944255828857421875" lon="-1.7800914309918880462646484375">
        <ele>1250.800048828125</ele>
        <time>2022-08-25T09:16:59.000Z</time>
      </trkpt>
      <trkpt lat="40.2737477235496044158935546875" lon="-1.78012311458587646484375">
        <ele>1251</ele>
        <time>2022-08-25T09:17:02.000Z</time>
      </trkpt>
      <trkpt lat="40.273484699428081512451171875" lon="-1.78019209764897823333740234375">
        <ele>1251.199951171875</ele>
        <time>2022-08-25T09:17:08.000Z</time>
      </trkpt>
      <trkpt lat="40.27312905527651309967041015625" lon="-1.7802773416042327880859375">
        <ele>1251.199951171875</ele>
        <time>2022-08-25T09:17:16.000Z</time>
      </trkpt>
      <trkpt lat="40.27279947884380817413330078125" lon="-1.78035990335047245025634765625">
        <ele>1251</ele>
        <time>2022-08-25T09:17:23.000Z</time>
      </trkpt>
      <trkpt lat="40.27254047803580760955810546875" lon="-1.78038856945931911468505859375">
        <ele>1250.800048828125</ele>
        <time>2022-08-25T09:17:28.000Z</time>
      </trkpt>
      <trkpt lat="40.2724887616932392120361328125" lon="-1.7803792655467987060546875">
        <ele>1250.800048828125</ele>
        <time>2022-08-25T09:17:29.000Z</time>
      </trkpt>
      <trkpt lat="40.27220453135669231414794921875" lon="-1.78024942986667156219482421875">
        <ele>1250.4000244140625</ele>
        <time>2022-08-25T09:17:35.000Z</time>
      </trkpt>
      <trkpt lat="40.2718933112919330596923828125" lon="-1.78002982400357723236083984375">
        <ele>1250.199951171875</ele>
        <time>2022-08-25T09:17:42.000Z</time>
      </trkpt>
      <trkpt lat="40.2716852724552154541015625" lon="-1.779791526496410369873046875">
        <ele>1250.199951171875</ele>
        <time>2022-08-25T09:17:46.000Z</time>
      </trkpt>
      <trkpt lat="40.27156390249729156494140625" lon="-1.7796502076089382171630859375">
        <ele>1250</ele>
        <time>2022-08-25T09:17:48.000Z</time>
      </trkpt>
      <trkpt lat="40.2713561989367008209228515625" lon="-1.77947142161428928375244140625">
        <ele>1249.5999755859375</ele>
        <time>2022-08-25T09:17:51.000Z</time>
      </trkpt>
      <trkpt lat="40.27121060527861118316650390625" lon="-1.779377795755863189697265625">
        <ele>1249</ele>
        <time>2022-08-25T09:17:53.000Z</time>
      </trkpt>
      <trkpt lat="40.2709327451884746551513671875" lon="-1.7791938968002796173095703125">
        <ele>1247.800048828125</ele>
        <time>2022-08-25T09:17:57.000Z</time>
      </trkpt>
      <trkpt lat="40.27065840549767017364501953125" lon="-1.77900002337992191314697265625">
        <ele>1247.800048828125</ele>
        <time>2022-08-25T09:18:02.000Z</time>
      </trkpt>
      <trkpt lat="40.27020527981221675872802734375" lon="-1.77874672226607799530029296875">
        <ele>1247.800048828125</ele>
        <time>2022-08-25T09:18:10.000Z</time>
      </trkpt>
      <trkpt lat="40.26983127929270267486572265625" lon="-1.77857615053653717041015625">
        <ele>1247.800048828125</ele>
        <time>2022-08-25T09:18:17.000Z</time>
      </trkpt>
      <trkpt lat="40.26949399150907993316650390625" lon="-1.77836157381534576416015625">
        <ele>1248</ele>
        <time>2022-08-25T09:18:24.000Z</time>
      </trkpt>
      <trkpt lat="40.2691953442990779876708984375" lon="-1.77804867736995220184326171875">
        <ele>1248.199951171875</ele>
        <time>2022-08-25T09:18:31.000Z</time>
      </trkpt>
      <trkpt lat="40.26907883584499359130859375" lon="-1.77792093716561794281005859375">
        <ele>1248.199951171875</ele>
        <time>2022-08-25T09:18:34.000Z</time>
      </trkpt>
      <trkpt lat="40.2689375169575214385986328125" lon="-1.7777136527001857757568359375">
        <ele>1248.5999755859375</ele>
        <time>2022-08-25T09:18:38.000Z</time>
      </trkpt>
      <trkpt lat="40.268771387636661529541015625" lon="-1.77751910872757434844970703125">
        <ele>1248.800048828125</ele>
        <time>2022-08-25T09:18:43.000Z</time>
      </trkpt>
      <trkpt lat="40.26873157359659671783447265625" lon="-1.777490861713886260986328125">
        <ele>1248.800048828125</ele>
        <time>2022-08-25T09:18:44.000Z</time>
      </trkpt>
      <trkpt lat="40.2685724012553691864013671875" lon="-1.77737929858267307281494140625">
        <ele>1248.800048828125</ele>
        <time>2022-08-25T09:18:48.000Z</time>
      </trkpt>
      <trkpt lat="40.26849545538425445556640625" lon="-1.77732649259269237518310546875">
        <ele>1248.800048828125</ele>
        <time>2022-08-25T09:18:50.000Z</time>
      </trkpt>
      <trkpt lat="40.26841138489544391632080078125" lon="-1.7772620357573032379150390625">
        <ele>1249</ele>
        <time>2022-08-25T09:18:52.000Z</time>
      </trkpt>
      <trkpt lat="40.26828766800463199615478515625" lon="-1.7771926335990428924560546875">
        <ele>1249.5999755859375</ele>
        <time>2022-08-25T09:18:55.000Z</time>
      </trkpt>
      <trkpt lat="40.268243663012981414794921875" lon="-1.777162961661815643310546875">
        <ele>1249.5999755859375</ele>
        <time>2022-08-25T09:18:56.000Z</time>
      </trkpt>
      <trkpt lat="40.26795859448611736297607421875" lon="-1.77695852704346179962158203125">
        <ele>1250</ele>
        <time>2022-08-25T09:19:02.000Z</time>
      </trkpt>
      <trkpt lat="40.267906375229358673095703125" lon="-1.776915527880191802978515625">
        <ele>1250.199951171875</ele>
        <time>2022-08-25T09:19:03.000Z</time>
      </trkpt>
      <trkpt lat="40.26762767694890499114990234375" lon="-1.77660615183413028717041015625">
        <ele>1250.5999755859375</ele>
        <time>2022-08-25T09:19:10.000Z</time>
      </trkpt>
      <trkpt lat="40.2674807421863079071044921875" lon="-1.776411272585391998291015625">
        <ele>1251.199951171875</ele>
        <time>2022-08-25T09:19:14.000Z</time>
      </trkpt>
      <trkpt lat="40.26732492260634899139404296875" lon="-1.7761717177927494049072265625">
        <ele>1251.4000244140625</ele>
        <time>2022-08-25T09:19:19.000Z</time>
      </trkpt>
      <trkpt lat="40.2670884691178798675537109375" lon="-1.77590257488191127777099609375">
        <ele>1251.5999755859375</ele>
        <time>2022-08-25T09:19:25.000Z</time>
      </trkpt>
      <trkpt lat="40.26664934121072292327880859375" lon="-1.77553988993167877197265625">
        <ele>1251.800048828125</ele>
        <time>2022-08-25T09:19:35.000Z</time>
      </trkpt>
      <trkpt lat="40.2663391269743442535400390625" lon="-1.77530544809997081756591796875">
        <ele>1252</ele>
        <time>2022-08-25T09:19:43.000Z</time>
      </trkpt>
      <trkpt lat="40.26630065403878688812255859375" lon="-1.7752708308398723602294921875">
        <ele>1252.199951171875</ele>
        <time>2022-08-25T09:19:44.000Z</time>
      </trkpt>
      <trkpt lat="40.2661359496414661407470703125" lon="-1.77504963241517543792724609375">
        <ele>1252.4000244140625</ele>
        <time>2022-08-25T09:19:49.000Z</time>
      </trkpt>
      <trkpt lat="40.265872590243816375732421875" lon="-1.77465953864157199859619140625">
        <ele>1252.5999755859375</ele>
        <time>2022-08-25T09:19:56.000Z</time>
      </trkpt>
      <trkpt lat="40.26556380093097686767578125" lon="-1.7741577140986919403076171875">
        <ele>1252.199951171875</ele>
        <time>2022-08-25T09:20:04.000Z</time>
      </trkpt>
      <trkpt lat="40.2652199752628803253173828125" lon="-1.773574836552143096923828125">
        <ele>1252</ele>
        <time>2022-08-25T09:20:14.000Z</time>
      </trkpt>
      <trkpt lat="40.26494882069528102874755859375" lon="-1.77326361648738384246826171875">
        <ele>1252</ele>
        <time>2022-08-25T09:20:21.000Z</time>
      </trkpt>
      <trkpt lat="40.26470549404621124267578125" lon="-1.77302523516118526458740234375">
        <ele>1252.199951171875</ele>
        <time>2022-08-25T09:20:28.000Z</time>
      </trkpt>
      <trkpt lat="40.26446283794939517974853515625" lon="-1.77280529402196407318115234375">
        <ele>1253.4000244140625</ele>
        <time>2022-08-25T09:20:34.000Z</time>
      </trkpt>
      <trkpt lat="40.26436661370098590850830078125" lon="-1.77273170091211795806884765625">
        <ele>1253.800048828125</ele>
        <time>2022-08-25T09:20:36.000Z</time>
      </trkpt>
      <trkpt lat="40.2638912759721279144287109375" lon="-1.77238837815821170806884765625">
        <ele>1254.199951171875</ele>
        <time>2022-08-25T09:20:45.000Z</time>
      </trkpt>
      <trkpt lat="40.2633571811020374298095703125" lon="-1.7720233462750911712646484375">
        <ele>1253.5999755859375</ele>
        <time>2022-08-25T09:20:54.000Z</time>
      </trkpt>
      <trkpt lat="40.26301461271941661834716796875" lon="-1.77182679064571857452392578125">
        <ele>1252.800048828125</ele>
        <time>2022-08-25T09:21:01.000Z</time>
      </trkpt>
      <trkpt lat="40.2627964317798614501953125" lon="-1.77158623002469539642333984375">
        <ele>1252.800048828125</ele>
        <time>2022-08-25T09:21:07.000Z</time>
      </trkpt>
      <trkpt lat="40.26276332326233386993408203125" lon="-1.7715365253388881683349609375">
        <ele>1253</ele>
        <time>2022-08-25T09:21:08.000Z</time>
      </trkpt>
      <trkpt lat="40.26245084591209888458251953125" lon="-1.771022714674472808837890625">
        <ele>1253.800048828125</ele>
        <time>2022-08-25T09:21:18.000Z</time>
      </trkpt>
      <trkpt lat="40.26210333220660686492919921875" lon="-1.77045970223844051361083984375">
        <ele>1254.5999755859375</ele>
        <time>2022-08-25T09:21:28.000Z</time>
      </trkpt>
      <trkpt lat="40.26175062172114849090576171875" lon="-1.7698824405670166015625">
        <ele>1254.199951171875</ele>
        <time>2022-08-25T09:21:38.000Z</time>
      </trkpt>
      <trkpt lat="40.2613988332450389862060546875" lon="-1.769316829741001129150390625">
        <ele>1253.5999755859375</ele>
        <time>2022-08-25T09:21:48.000Z</time>
      </trkpt>
      <trkpt lat="40.26136505417525768280029296875" lon="-1.7692623473703861236572265625">
        <ele>1253.5999755859375</ele>
        <time>2022-08-25T09:21:49.000Z</time>
      </trkpt>
      <trkpt lat="40.2610307000577449798583984375" lon="-1.76875851117074489593505859375">
        <ele>1253.4000244140625</ele>
        <time>2022-08-25T09:21:59.000Z</time>
      </trkpt>
      <trkpt lat="40.26074546389281749725341796875" lon="-1.76839322783052921295166015625">
        <ele>1253.199951171875</ele>
        <time>2022-08-25T09:22:07.000Z</time>
      </trkpt>
      <trkpt lat="40.26046701706945896148681640625" lon="-1.76806951873004436492919921875">
        <ele>1253.199951171875</ele>
        <time>2022-08-25T09:22:14.000Z</time>
      </trkpt>
      <trkpt lat="40.26021086610853672027587890625" lon="-1.76775477826595306396484375">
        <ele>1253.4000244140625</ele>
        <time>2022-08-25T09:22:21.000Z</time>
      </trkpt>
      <trkpt lat="40.25985295884311199188232421875" lon="-1.7673034965991973876953125">
        <ele>1253.800048828125</ele>
        <time>2022-08-25T09:22:32.000Z</time>
      </trkpt>
      <trkpt lat="40.25945699773728847503662109375" lon="-1.76681709475815296173095703125">
        <ele>1254.199951171875</ele>
        <time>2022-08-25T09:22:44.000Z</time>
      </trkpt>
      <trkpt lat="40.25927376933395862579345703125" lon="-1.76660788245499134063720703125">
        <ele>1255</ele>
        <time>2022-08-25T09:22:50.000Z</time>
      </trkpt>
      <trkpt lat="40.25918894447386264801025390625" lon="-1.7664966545999050140380859375">
        <ele>1255.199951171875</ele>
        <time>2022-08-25T09:22:53.000Z</time>
      </trkpt>
      <trkpt lat="40.25899297557771205902099609375" lon="-1.76625634543597698211669921875">
        <ele>1256.199951171875</ele>
        <time>2022-08-25T09:23:00.000Z</time>
      </trkpt>
      <trkpt lat="40.2589099109172821044921875" lon="-1.7661617137491703033447265625">
        <ele>1256.800048828125</ele>
        <time>2022-08-25T09:23:03.000Z</time>
      </trkpt>
      <trkpt lat="40.25882282294332981109619140625" lon="-1.76607546396553516387939453125">
        <ele>1257.199951171875</ele>
        <time>2022-08-25T09:23:06.000Z</time>
      </trkpt>
      <trkpt lat="40.258654765784740447998046875" lon="-1.76593246869742870330810546875">
        <ele>1257.800048828125</ele>
        <time>2022-08-25T09:23:11.000Z</time>
      </trkpt>
      <trkpt lat="40.258544124662876129150390625" lon="-1.765862815082073211669921875">
        <ele>1258.4000244140625</ele>
        <time>2022-08-25T09:23:14.000Z</time>
      </trkpt>
      <trkpt lat="40.2583300508558750152587890625" lon="-1.76576248370110988616943359375">
        <ele>1259</ele>
        <time>2022-08-25T09:23:19.000Z</time>
      </trkpt>
      <trkpt lat="40.25788505561649799346923828125" lon="-1.7655709572136402130126953125">
        <ele>1259</ele>
        <time>2022-08-25T09:23:28.000Z</time>
      </trkpt>
      <trkpt lat="40.25746143423020839691162109375" lon="-1.7654475755989551544189453125">
        <ele>1258.5999755859375</ele>
        <time>2022-08-25T09:23:36.000Z</time>
      </trkpt>
      <trkpt lat="40.2571569196879863739013671875" lon="-1.765473894774913787841796875">
        <ele>1258.4000244140625</ele>
        <time>2022-08-25T09:23:41.000Z</time>
      </trkpt>
      <trkpt lat="40.25681334547698497772216796875" lon="-1.76555980928242206573486328125">
        <ele>1257.4000244140625</ele>
        <time>2022-08-25T09:23:47.000Z</time>
      </trkpt>
      <trkpt lat="40.2565933205187320709228515625" lon="-1.76561362110078334808349609375">
        <ele>1257.199951171875</ele>
        <time>2022-08-25T09:23:51.000Z</time>
      </trkpt>
      <trkpt lat="40.2560994587838649749755859375" lon="-1.76569283008575439453125">
        <ele>1257</ele>
        <time>2022-08-25T09:24:00.000Z</time>
      </trkpt>
      <trkpt lat="40.25589854456484317779541015625" lon="-1.76563273184001445770263671875">
        <ele>1257.199951171875</ele>
        <time>2022-08-25T09:24:05.000Z</time>
      </trkpt>
      <trkpt lat="40.25566100142896175384521484375" lon="-1.765511445701122283935546875">
        <ele>1257.5999755859375</ele>
        <time>2022-08-25T09:24:12.000Z</time>
      </trkpt>
      <trkpt lat="40.25534651242196559906005859375" lon="-1.7654036544263362884521484375">
        <ele>1258.199951171875</ele>
        <time>2022-08-25T09:24:19.000Z</time>
      </trkpt>
      <trkpt lat="40.25530435144901275634765625" lon="-1.7653754912316799163818359375">
        <ele>1258.199951171875</ele>
        <time>2022-08-25T09:24:20.000Z</time>
      </trkpt>
      <trkpt lat="40.25518742389976978302001953125" lon="-1.7652578093111515045166015625">
        <ele>1258.199951171875</ele>
        <time>2022-08-25T09:24:23.000Z</time>
      </trkpt>
      <trkpt lat="40.25511165149509906768798828125" lon="-1.76516912877559661865234375">
        <ele>1258.4000244140625</ele>
        <time>2022-08-25T09:24:25.000Z</time>
      </trkpt>
      <trkpt lat="40.2550312690436840057373046875" lon="-1.7650713957846164703369140625">
        <ele>1258.5999755859375</ele>
        <time>2022-08-25T09:24:27.000Z</time>
      </trkpt>
      <trkpt lat="40.2547928877174854278564453125" lon="-1.7648162506520748138427734375">
        <ele>1258.800048828125</ele>
        <time>2022-08-25T09:24:33.000Z</time>
      </trkpt>
      <trkpt lat="40.2545947395265102386474609375" lon="-1.7645366303622722625732421875">
        <ele>1258.800048828125</ele>
        <time>2022-08-25T09:24:39.000Z</time>
      </trkpt>
      <trkpt lat="40.25443799793720245361328125" lon="-1.76413387991487979888916015625">
        <ele>1259</ele>
        <time>2022-08-25T09:24:46.000Z</time>
      </trkpt>
      <trkpt lat="40.25432559661567211151123046875" lon="-1.7636860348284244537353515625">
        <ele>1259.199951171875</ele>
        <time>2022-08-25T09:24:54.000Z</time>
      </trkpt>
      <trkpt lat="40.2542249299585819244384765625" lon="-1.7632733099162578582763671875">
        <ele>1259.5999755859375</ele>
        <time>2022-08-25T09:25:02.000Z</time>
      </trkpt>
      <trkpt lat="40.25416885502636432647705078125" lon="-1.76289453171193599700927734375">
        <ele>1260.4000244140625</ele>
        <time>2022-08-25T09:25:09.000Z</time>
      </trkpt>
      <trkpt lat="40.25416147895157337188720703125" lon="-1.76284340210258960723876953125">
        <ele>1260.800048828125</ele>
        <time>2022-08-25T09:25:10.000Z</time>
      </trkpt>
      <trkpt lat="40.25412158109247684478759765625" lon="-1.7625088803470134735107421875">
        <ele>1261.4000244140625</ele>
        <time>2022-08-25T09:25:17.000Z</time>
      </trkpt>
      <trkpt lat="40.2540926635265350341796875" lon="-1.762216351926326751708984375">
        <ele>1261.4000244140625</ele>
        <time>2022-08-25T09:25:22.000Z</time>
      </trkpt>
      <trkpt lat="40.25405838154256343841552734375" lon="-1.76210210658609867095947265625">
        <ele>1261.4000244140625</ele>
        <time>2022-08-25T09:25:24.000Z</time>
      </trkpt>
      <trkpt lat="40.25393768213689327239990234375" lon="-1.76191158592700958251953125">
        <ele>1261.4000244140625</ele>
        <time>2022-08-25T09:25:28.000Z</time>
      </trkpt>
      <trkpt lat="40.25389845483005046844482421875" lon="-1.7618695087730884552001953125">
        <ele>1261.4000244140625</ele>
        <time>2022-08-25T09:25:29.000Z</time>
      </trkpt>
      <trkpt lat="40.253563262522220611572265625" lon="-1.76154420711100101470947265625">
        <ele>1260.5999755859375</ele>
        <time>2022-08-25T09:25:37.000Z</time>
      </trkpt>
      <trkpt lat="40.25331675074994564056396484375" lon="-1.76139987073838710784912109375">
        <ele>1260.4000244140625</ele>
        <time>2022-08-25T09:25:42.000Z</time>
      </trkpt>
      <trkpt lat="40.2532640285789966583251953125" lon="-1.76138327457010746002197265625">
        <ele>1260.4000244140625</ele>
        <time>2022-08-25T09:25:43.000Z</time>
      </trkpt>
      <trkpt lat="40.25285004638135433197021484375" lon="-1.76128235645592212677001953125">
        <ele>1260.5999755859375</ele>
        <time>2022-08-25T09:25:51.000Z</time>
      </trkpt>
      <trkpt lat="40.25242022238671779632568359375" lon="-1.7612046562135219573974609375">
        <ele>1261</ele>
        <time>2022-08-25T09:25:59.000Z</time>
      </trkpt>
      <trkpt lat="40.2519718743860721588134765625" lon="-1.76114053465425968170166015625">
        <ele>1261.199951171875</ele>
        <time>2022-08-25T09:26:08.000Z</time>
      </trkpt>
      <trkpt lat="40.25178085081279277801513671875" lon="-1.76110650412738323211669921875">
        <ele>1262.199951171875</ele>
        <time>2022-08-25T09:26:12.000Z</time>
      </trkpt>
      <trkpt lat="40.25155571289360523223876953125" lon="-1.76102436147630214691162109375">
        <ele>1262.800048828125</ele>
        <time>2022-08-25T09:26:17.000Z</time>
      </trkpt>
      <trkpt lat="40.25141648948192596435546875" lon="-1.76087214611470699310302734375">
        <ele>1263</ele>
        <time>2022-08-25T09:26:21.000Z</time>
      </trkpt>
      <trkpt lat="40.2513849735260009765625" lon="-1.76082889549434185028076171875">
        <ele>1263</ele>
        <time>2022-08-25T09:26:22.000Z</time>
      </trkpt>
      <trkpt lat="40.251324959099292755126953125" lon="-1.7607372812926769256591796875">
        <ele>1263.4000244140625</ele>
        <time>2022-08-25T09:26:24.000Z</time>
      </trkpt>
      <trkpt lat="40.2511692233383655548095703125" lon="-1.76049395464360713958740234375">
        <ele>1264</ele>
        <time>2022-08-25T09:26:29.000Z</time>
      </trkpt>
      <trkpt lat="40.25087476707994937896728515625" lon="-1.76003747619688510894775390625">
        <ele>1263.800048828125</ele>
        <time>2022-08-25T09:26:38.000Z</time>
      </trkpt>
      <trkpt lat="40.25057695806026458740234375" lon="-1.7596610449254512786865234375">
        <ele>1263.800048828125</ele>
        <time>2022-08-25T09:26:46.000Z</time>
      </trkpt>
      <trkpt lat="40.25020170025527477264404296875" lon="-1.7593834362924098968505859375">
        <ele>1263.800048828125</ele>
        <time>2022-08-25T09:26:55.000Z</time>
      </trkpt>
      <trkpt lat="40.249802805483341217041015625" lon="-1.7591671831905841827392578125">
        <ele>1264.199951171875</ele>
        <time>2022-08-25T09:27:04.000Z</time>
      </trkpt>
      <trkpt lat="40.24976248852908611297607421875" lon="-1.75914178602397441864013671875">
        <ele>1264.4000244140625</ele>
        <time>2022-08-25T09:27:05.000Z</time>
      </trkpt>
      <trkpt lat="40.24949133396148681640625" lon="-1.7589110322296619415283203125">
        <ele>1265.199951171875</ele>
        <time>2022-08-25T09:27:12.000Z</time>
      </trkpt>
      <trkpt lat="40.24934641085565090179443359375" lon="-1.7587591521441936492919921875">
        <ele>1265.800048828125</ele>
        <time>2022-08-25T09:27:16.000Z</time>
      </trkpt>
      <trkpt lat="40.24917357601225376129150390625" lon="-1.75858153961598873138427734375">
        <ele>1266</ele>
        <time>2022-08-25T09:27:21.000Z</time>
      </trkpt>
      <trkpt lat="40.2488816343247890472412109375" lon="-1.75828381441533565521240234375">
        <ele>1266.5999755859375</ele>
        <time>2022-08-25T09:27:29.000Z</time>
      </trkpt>
      <trkpt lat="40.248566307127475738525390625" lon="-1.7579786293208599090576171875">
        <ele>1266.5999755859375</ele>
        <time>2022-08-25T09:27:37.000Z</time>
      </trkpt>
      <trkpt lat="40.24841752834618091583251953125" lon="-1.7577834986150264739990234375">
        <ele>1266.800048828125</ele>
        <time>2022-08-25T09:27:41.000Z</time>
      </trkpt>
      <trkpt lat="40.2483525685966014862060546875" lon="-1.75767369568347930908203125">
        <ele>1266.800048828125</ele>
        <time>2022-08-25T09:27:43.000Z</time>
      </trkpt>
      <trkpt lat="40.24816255085170269012451171875" lon="-1.75733330659568309783935546875">
        <ele>1267</ele>
        <time>2022-08-25T09:27:50.000Z</time>
      </trkpt>
      <trkpt lat="40.24800740182399749755859375" lon="-1.7570385150611400604248046875">
        <ele>1267.5999755859375</ele>
        <time>2022-08-25T09:27:56.000Z</time>
      </trkpt>
      <trkpt lat="40.2479046396911144256591796875" lon="-1.75685025751590728759765625">
        <ele>1267.800048828125</ele>
        <time>2022-08-25T09:28:00.000Z</time>
      </trkpt>
      <trkpt lat="40.247788466513156890869140625" lon="-1.7566428892314434051513671875">
        <ele>1268.5999755859375</ele>
        <time>2022-08-25T09:28:05.000Z</time>
      </trkpt>
      <trkpt lat="40.2476139552891254425048828125" lon="-1.7562445811927318572998046875">
        <ele>1268.5999755859375</ele>
        <time>2022-08-25T09:28:13.000Z</time>
      </trkpt>
      <trkpt lat="40.2474620752036571502685546875" lon="-1.75579707138240337371826171875">
        <ele>1268.5999755859375</ele>
        <time>2022-08-25T09:28:20.000Z</time>
      </trkpt>
      <trkpt lat="40.24742536246776580810546875" lon="-1.755728758871555328369140625">
        <ele>1268.5999755859375</ele>
        <time>2022-08-25T09:28:21.000Z</time>
      </trkpt>
      <trkpt lat="40.2472557127475738525390625" lon="-1.75559758208692073822021484375">
        <ele>1268.5999755859375</ele>
        <time>2022-08-25T09:28:24.000Z</time>
      </trkpt>
      <trkpt lat="40.24704717099666595458984375" lon="-1.7555901221930980682373046875">
        <ele>1268.4000244140625</ele>
        <time>2022-08-25T09:28:27.000Z</time>
      </trkpt>
      <trkpt lat="40.2469822950661182403564453125" lon="-1.755591295659542083740234375">
        <ele>1268.199951171875</ele>
        <time>2022-08-25T09:28:28.000Z</time>
      </trkpt>
      <trkpt lat="40.2467328496277332305908203125" lon="-1.755610071122646331787109375">
        <ele>1267</ele>
        <time>2022-08-25T09:28:32.000Z</time>
      </trkpt>
      <trkpt lat="40.2465695701539516448974609375" lon="-1.75561417825520038604736328125">
        <ele>1266.4000244140625</ele>
        <time>2022-08-25T09:28:35.000Z</time>
      </trkpt>
      <trkpt lat="40.24642892181873321533203125" lon="-1.7556052096188068389892578125">
        <ele>1266.4000244140625</ele>
        <time>2022-08-25T09:28:38.000Z</time>
      </trkpt>
      <trkpt lat="40.2462909556925296783447265625" lon="-1.7555629648268222808837890625">
        <ele>1266.4000244140625</ele>
        <time>2022-08-25T09:28:41.000Z</time>
      </trkpt>
      <trkpt lat="40.246120132505893707275390625" lon="-1.75545819103717803955078125">
        <ele>1266.800048828125</ele>
        <time>2022-08-25T09:28:45.000Z</time>
      </trkpt>
      <trkpt lat="40.2460441924631595611572265625" lon="-1.75538099370896816253662109375">
        <ele>1267</ele>
        <time>2022-08-25T09:28:47.000Z</time>
      </trkpt>
      <trkpt lat="40.2457582019269466400146484375" lon="-1.75514026544988155364990234375">
        <ele>1267.4000244140625</ele>
        <time>2022-08-25T09:28:53.000Z</time>
      </trkpt>
      <trkpt lat="40.24543927051126956939697265625" lon="-1.75499492324888706207275390625">
        <ele>1267.199951171875</ele>
        <time>2022-08-25T09:28:59.000Z</time>
      </trkpt>
      <trkpt lat="40.24505839683115482330322265625" lon="-1.75487237982451915740966796875">
        <ele>1266.800048828125</ele>
        <time>2022-08-25T09:29:07.000Z</time>
      </trkpt>
      <trkpt lat="40.24463008157908916473388671875" lon="-1.7547572962939739227294921875">
        <ele>1267.4000244140625</ele>
        <time>2022-08-25T09:29:16.000Z</time>
      </trkpt>
      <trkpt lat="40.2441642992198467254638671875" lon="-1.75463282503187656402587890625">
        <ele>1267.800048828125</ele>
        <time>2022-08-25T09:29:26.000Z</time>
      </trkpt>
      <trkpt lat="40.24397528730332851409912109375" lon="-1.75457767210900783538818359375">
        <ele>1268.199951171875</ele>
        <time>2022-08-25T09:29:30.000Z</time>
      </trkpt>
      <trkpt lat="40.24382307194173336029052734375" lon="-1.75453819334506988525390625">
        <ele>1268.4000244140625</ele>
        <time>2022-08-25T09:29:33.000Z</time>
      </trkpt>
      <trkpt lat="40.243370868265628814697265625" lon="-1.7543982155621051788330078125">
        <ele>1268.5999755859375</ele>
        <time>2022-08-25T09:29:42.000Z</time>
      </trkpt>
      <trkpt lat="40.24293509311974048614501953125" lon="-1.7542563937604427337646484375">
        <ele>1268.5999755859375</ele>
        <time>2022-08-25T09:29:52.000Z</time>
      </trkpt>
      <trkpt lat="40.242625884711742401123046875" lon="-1.75412370823323726654052734375">
        <ele>1269</ele>
        <time>2022-08-25T09:30:01.000Z</time>
      </trkpt>
      <trkpt lat="40.24253544397652149200439453125" lon="-1.7540783621370792388916015625">
        <ele>1269.199951171875</ele>
        <time>2022-08-25T09:30:04.000Z</time>
      </trkpt>
      <trkpt lat="40.2423727512359619140625" lon="-1.753967888653278350830078125">
        <ele>1269.5999755859375</ele>
        <time>2022-08-25T09:30:09.000Z</time>
      </trkpt>
      <trkpt lat="40.2420815639197826385498046875" lon="-1.753758676350116729736328125">
        <ele>1270</ele>
        <time>2022-08-25T09:30:18.000Z</time>
      </trkpt>
      <trkpt lat="40.24194829165935516357421875" lon="-1.75366505049169063568115234375">
        <ele>1270.4000244140625</ele>
        <time>2022-08-25T09:30:23.000Z</time>
      </trkpt>
      <trkpt lat="40.2418978326022624969482421875" lon="-1.75362817011773586273193359375">
        <ele>1270.5999755859375</ele>
        <time>2022-08-25T09:30:25.000Z</time>
      </trkpt>
      <trkpt lat="40.24171150289475917816162109375" lon="-1.753501854836940765380859375">
        <ele>1271.5999755859375</ele>
        <time>2022-08-25T09:30:32.000Z</time>
      </trkpt>
      <trkpt lat="40.24164293892681598663330078125" lon="-1.75344251096248626708984375">
        <ele>1272</ele>
        <time>2022-08-25T09:30:35.000Z</time>
      </trkpt>
      <trkpt lat="40.24155174382030963897705078125" lon="-1.7533712647855281829833984375">
        <ele>1272.800048828125</ele>
        <time>2022-08-25T09:30:39.000Z</time>
      </trkpt>
      <trkpt lat="40.24140271358191967010498046875" lon="-1.753254421055316925048828125">
        <ele>1273.800048828125</ele>
        <time>2022-08-25T09:30:45.000Z</time>
      </trkpt>
      <trkpt lat="40.24137823842465877532958984375" lon="-1.7532361485064029693603515625">
        <ele>1274</ele>
        <time>2022-08-25T09:30:46.000Z</time>
      </trkpt>
      <trkpt lat="40.24121445603668689727783203125" lon="-1.7531157843768596649169921875">
        <ele>1275.199951171875</ele>
        <time>2022-08-25T09:30:52.000Z</time>
      </trkpt>
      <trkpt lat="40.241098366677761077880859375" lon="-1.7530339770019054412841796875">
        <ele>1275.4000244140625</ele>
        <time>2022-08-25T09:30:56.000Z</time>
      </trkpt>
      <trkpt lat="40.2408222667872905731201171875" lon="-1.75289207138121128082275390625">
        <ele>1276</ele>
        <time>2022-08-25T09:31:04.000Z</time>
      </trkpt>
      <trkpt lat="40.24078412912786006927490234375" lon="-1.752878241240978240966796875">
        <ele>1276.4000244140625</ele>
        <time>2022-08-25T09:31:05.000Z</time>
      </trkpt>
      <trkpt lat="40.24055127985775470733642578125" lon="-1.7528468929231166839599609375">
        <ele>1276.800048828125</ele>
        <time>2022-08-25T09:31:11.000Z</time>
      </trkpt>
      <trkpt lat="40.24015347473323345184326171875" lon="-1.75280372612178325653076171875">
        <ele>1277</ele>
        <time>2022-08-25T09:31:21.000Z</time>
      </trkpt>
      <trkpt lat="40.23982121609151363372802734375" lon="-1.7527456395328044891357421875">
        <ele>1277.4000244140625</ele>
        <time>2022-08-25T09:31:29.000Z</time>
      </trkpt>
      <trkpt lat="40.23955048061907291412353515625" lon="-1.75261781550943851470947265625">
        <ele>1277.800048828125</ele>
        <time>2022-08-25T09:31:36.000Z</time>
      </trkpt>
      <trkpt lat="40.2393038012087345123291015625" lon="-1.7523912526667118072509765625">
        <ele>1278.4000244140625</ele>
        <time>2022-08-25T09:31:43.000Z</time>
      </trkpt>
      <trkpt lat="40.23927220143377780914306640625" lon="-1.75234808586537837982177734375">
        <ele>1278.4000244140625</ele>
        <time>2022-08-25T09:31:44.000Z</time>
      </trkpt>
      <trkpt lat="40.2391797490417957305908203125" lon="-1.7522133886814117431640625">
        <ele>1278.4000244140625</ele>
        <time>2022-08-25T09:31:47.000Z</time>
      </trkpt>
      <trkpt lat="40.2391264401376247406005859375" lon="-1.75211942754685878753662109375">
        <ele>1278.4000244140625</ele>
        <time>2022-08-25T09:31:49.000Z</time>
      </trkpt>
      <trkpt lat="40.2390935830771923065185546875" lon="-1.75207986496388912200927734375">
        <ele>1278.4000244140625</ele>
        <time>2022-08-25T09:31:50.000Z</time>
      </trkpt>
      <trkpt lat="40.23877255618572235107421875" lon="-1.75166060216724872589111328125">
        <ele>1278.199951171875</ele>
        <time>2022-08-25T09:31:59.000Z</time>
      </trkpt>
      <trkpt lat="40.2385068498551845550537109375" lon="-1.75140042789280414581298828125">
        <ele>1277.5999755859375</ele>
        <time>2022-08-25T09:32:05.000Z</time>
      </trkpt>
      <trkpt lat="40.2384163253009319305419921875" lon="-1.75131551921367645263671875">
        <ele>1277.5999755859375</ele>
        <time>2022-08-25T09:32:07.000Z</time>
      </trkpt>
      <trkpt lat="40.2380260638892650604248046875" lon="-1.7509017884731292724609375">
        <ele>1277.4000244140625</ele>
        <time>2022-08-25T09:32:16.000Z</time>
      </trkpt>
      <trkpt lat="40.2379321865737438201904296875" lon="-1.7508023791015148162841796875">
        <ele>1276.800048828125</ele>
        <time>2022-08-25T09:32:18.000Z</time>
      </trkpt>
      <trkpt lat="40.2377928793430328369140625" lon="-1.75066173076629638671875">
        <ele>1276.4000244140625</ele>
        <time>2022-08-25T09:32:21.000Z</time>
      </trkpt>
      <trkpt lat="40.2376458607614040374755859375" lon="-1.7505358345806598663330078125">
        <ele>1276</ele>
        <time>2022-08-25T09:32:24.000Z</time>
      </trkpt>
      <trkpt lat="40.237306393682956695556640625" lon="-1.7502910830080509185791015625">
        <ele>1276</ele>
        <time>2022-08-25T09:32:31.000Z</time>
      </trkpt>
      <trkpt lat="40.23688889108598232269287109375" lon="-1.75007508136332035064697265625">
        <ele>1276.4000244140625</ele>
        <time>2022-08-25T09:32:40.000Z</time>
      </trkpt>
      <trkpt lat="40.23650340735912322998046875" lon="-1.7499068565666675567626953125">
        <ele>1277.4000244140625</ele>
        <time>2022-08-25T09:32:48.000Z</time>
      </trkpt>
      <trkpt lat="40.2364504337310791015625" lon="-1.749888248741626739501953125">
        <ele>1277.5999755859375</ele>
        <time>2022-08-25T09:32:49.000Z</time>
      </trkpt>
      <trkpt lat="40.2360279858112335205078125" lon="-1.74972455017268657684326171875">
        <ele>1277.5999755859375</ele>
        <time>2022-08-25T09:32:57.000Z</time>
      </trkpt>
      <trkpt lat="40.2354809828102588653564453125" lon="-1.74949228763580322265625">
        <ele>1277.5999755859375</ele>
        <time>2022-08-25T09:33:07.000Z</time>
      </trkpt>
      <trkpt lat="40.23542507551610469818115234375" lon="-1.74947376362979412078857421875">
        <ele>1277.5999755859375</ele>
        <time>2022-08-25T09:33:08.000Z</time>
      </trkpt>
      <trkpt lat="40.23501737974584102630615234375" lon="-1.74939413554966449737548828125">
        <ele>1277.199951171875</ele>
        <time>2022-08-25T09:33:16.000Z</time>
      </trkpt>
      <trkpt lat="40.23464907892048358917236328125" lon="-1.74937033094465732574462890625">
        <ele>1277.199951171875</ele>
        <time>2022-08-25T09:33:24.000Z</time>
      </trkpt>
      <trkpt lat="40.23442612029612064361572265625" lon="-1.74924309365451335906982421875">
        <ele>1278.199951171875</ele>
        <time>2022-08-25T09:33:30.000Z</time>
      </trkpt>
      <trkpt lat="40.2343956939876079559326171875" lon="-1.74920872785151004791259765625">
        <ele>1278.5999755859375</ele>
        <time>2022-08-25T09:33:31.000Z</time>
      </trkpt>
      <trkpt lat="40.23424406535923480987548828125" lon="-1.748987697064876556396484375">
        <ele>1279.5999755859375</ele>
        <time>2022-08-25T09:33:37.000Z</time>
      </trkpt>
      <trkpt lat="40.23407391272485256195068359375" lon="-1.74872073344886302947998046875">
        <ele>1280.800048828125</ele>
        <time>2022-08-25T09:33:44.000Z</time>
      </trkpt>
      <trkpt lat="40.233991853892803192138671875" lon="-1.7484234273433685302734375">
        <ele>1281.800048828125</ele>
        <time>2022-08-25T09:33:50.000Z</time>
      </trkpt>
      <trkpt lat="40.23398137651383876800537109375" lon="-1.74837456084787845611572265625">
        <ele>1282.199951171875</ele>
        <time>2022-08-25T09:33:51.000Z</time>
      </trkpt>
      <trkpt lat="40.23391247726976871490478515625" lon="-1.748033501207828521728515625">
        <ele>1282.800048828125</ele>
        <time>2022-08-25T09:33:58.000Z</time>
      </trkpt>
      <trkpt lat="40.2338968031108379364013671875" lon="-1.747985221445560455322265625">
        <ele>1283</ele>
        <time>2022-08-25T09:33:59.000Z</time>
      </trkpt>
      <trkpt lat="40.23374048061668872833251953125" lon="-1.74766327254474163055419921875">
        <ele>1283</ele>
        <time>2022-08-25T09:34:06.000Z</time>
      </trkpt>
      <trkpt lat="40.23365079425275325775146484375" lon="-1.747544668614864349365234375">
        <ele>1283.199951171875</ele>
        <time>2022-08-25T09:34:09.000Z</time>
      </trkpt>
      <trkpt lat="40.23353344760835170745849609375" lon="-1.74745925702154636383056640625">
        <ele>1283.5999755859375</ele>
        <time>2022-08-25T09:34:12.000Z</time>
      </trkpt>
      <trkpt lat="40.23340637795627117156982421875" lon="-1.747391112148761749267578125">
        <ele>1283.800048828125</ele>
        <time>2022-08-25T09:34:15.000Z</time>
      </trkpt>
      <trkpt lat="40.23327629081904888153076171875" lon="-1.74734643660485744476318359375">
        <ele>1284</ele>
        <time>2022-08-25T09:34:18.000Z</time>
      </trkpt>
      <trkpt lat="40.2332322858273983001708984375" lon="-1.7473329417407512664794921875">
        <ele>1284</ele>
        <time>2022-08-25T09:34:19.000Z</time>
      </trkpt>
      <trkpt lat="40.23288753814995288848876953125" lon="-1.74723914824426174163818359375">
        <ele>1284.4000244140625</ele>
        <time>2022-08-25T09:34:26.000Z</time>
      </trkpt>
      <trkpt lat="40.23251186124980449676513671875" lon="-1.747081317007541656494140625">
        <ele>1284.5999755859375</ele>
        <time>2022-08-25T09:34:33.000Z</time>
      </trkpt>
      <trkpt lat="40.231995619833469390869140625" lon="-1.746750734746456146240234375">
        <ele>1284</ele>
        <time>2022-08-25T09:34:43.000Z</time>
      </trkpt>
      <trkpt lat="40.23152614943683147430419921875" lon="-1.74640816636383533477783203125">
        <ele>1283.800048828125</ele>
        <time>2022-08-25T09:34:52.000Z</time>
      </trkpt>
      <trkpt lat="40.2310954034328460693359375" lon="-1.7460163123905658721923828125">
        <ele>1283</ele>
        <time>2022-08-25T09:35:00.000Z</time>
      </trkpt>
      <trkpt lat="40.231039412319660186767578125" lon="-1.74597566016018390655517578125">
        <ele>1282.800048828125</ele>
        <time>2022-08-25T09:35:01.000Z</time>
      </trkpt>
      <trkpt lat="40.23074738681316375732421875" lon="-1.74582495354115962982177734375">
        <ele>1282</ele>
        <time>2022-08-25T09:35:06.000Z</time>
      </trkpt>
      <trkpt lat="40.23057346232235431671142578125" lon="-1.74573912285268306732177734375">
        <ele>1281.800048828125</ele>
        <time>2022-08-25T09:35:09.000Z</time>
      </trkpt>
      <trkpt lat="40.23010767996311187744140625" lon="-1.7455486021935939788818359375">
        <ele>1281.800048828125</ele>
        <time>2022-08-25T09:35:17.000Z</time>
      </trkpt>
      <trkpt lat="40.2295714057981967926025390625" lon="-1.74537987448275089263916015625">
        <ele>1282</ele>
        <time>2022-08-25T09:35:26.000Z</time>
      </trkpt>
      <trkpt lat="40.22951181046664714813232421875" lon="-1.745380796492099761962890625">
        <ele>1282</ele>
        <time>2022-08-25T09:35:27.000Z</time>
      </trkpt>
      <trkpt lat="40.22928969003260135650634765625" lon="-1.74540787003934383392333984375">
        <ele>1282.4000244140625</ele>
        <time>2022-08-25T09:35:31.000Z</time>
      </trkpt>
      <trkpt lat="40.2289040386676788330078125" lon="-1.74548230133950710296630859375">
        <ele>1282.800048828125</ele>
        <time>2022-08-25T09:35:39.000Z</time>
      </trkpt>
      <trkpt lat="40.22885642945766448974609375" lon="-1.74548364244401454925537109375">
        <ele>1283</ele>
        <time>2022-08-25T09:35:40.000Z</time>
      </trkpt>
      <trkpt lat="40.22860690020024776458740234375" lon="-1.7454346083104610443115234375">
        <ele>1283.5999755859375</ele>
        <time>2022-08-25T09:35:45.000Z</time>
      </trkpt>
      <trkpt lat="40.22828252054750919342041015625" lon="-1.745253391563892364501953125">
        <ele>1283.800048828125</ele>
        <time>2022-08-25T09:35:52.000Z</time>
      </trkpt>
      <trkpt lat="40.22792167961597442626953125" lon="-1.7450205422937870025634765625">
        <ele>1283.5999755859375</ele>
        <time>2022-08-25T09:36:00.000Z</time>
      </trkpt>
      <trkpt lat="40.227726213634014129638671875" lon="-1.744878552854061126708984375">
        <ele>1283.5999755859375</ele>
        <time>2022-08-25T09:36:06.000Z</time>
      </trkpt>
      <trkpt lat="40.2276207692921161651611328125" lon="-1.74475575797259807586669921875">
        <ele>1284.199951171875</ele>
        <time>2022-08-25T09:36:10.000Z</time>
      </trkpt>
      <trkpt lat="40.22754658944904804229736328125" lon="-1.7446433566510677337646484375">
        <ele>1284.5999755859375</ele>
        <time>2022-08-25T09:36:13.000Z</time>
      </trkpt>
      <trkpt lat="40.2274561487138271331787109375" lon="-1.74448435194790363311767578125">
        <ele>1285.199951171875</ele>
        <time>2022-08-25T09:36:17.000Z</time>
      </trkpt>
      <trkpt lat="40.2273478545248508453369140625" lon="-1.74429944716393947601318359375">
        <ele>1285.4000244140625</ele>
        <time>2022-08-25T09:36:22.000Z</time>
      </trkpt>
      <trkpt lat="40.227170996367931365966796875" lon="-1.744087971746921539306640625">
        <ele>1286.199951171875</ele>
        <time>2022-08-25T09:36:29.000Z</time>
      </trkpt>
      <trkpt lat="40.22714207880198955535888671875" lon="-1.744063831865787506103515625">
        <ele>1286.4000244140625</ele>
        <time>2022-08-25T09:36:30.000Z</time>
      </trkpt>
      <trkpt lat="40.2270256541669368743896484375" lon="-1.7439818568527698516845703125">
        <ele>1287.4000244140625</ele>
        <time>2022-08-25T09:36:34.000Z</time>
      </trkpt>
      <trkpt lat="40.22690646350383758544921875" lon="-1.74392209388315677642822265625">
        <ele>1287.800048828125</ele>
        <time>2022-08-25T09:36:38.000Z</time>
      </trkpt>
      <trkpt lat="40.2267158590257167816162109375" lon="-1.7438289709389209747314453125">
        <ele>1288.199951171875</ele>
        <time>2022-08-25T09:36:46.000Z</time>
      </trkpt>
      <trkpt lat="40.22667135111987590789794921875" lon="-1.743811033666133880615234375">
        <ele>1288.4000244140625</ele>
        <time>2022-08-25T09:36:48.000Z</time>
      </trkpt>
      <trkpt lat="40.22656640969216823577880859375" lon="-1.74376149661839008331298828125">
        <ele>1289.5999755859375</ele>
        <time>2022-08-25T09:36:53.000Z</time>
      </trkpt>
      <trkpt lat="40.22652869112789630889892578125" lon="-1.74373961985111236572265625">
        <ele>1289.800048828125</ele>
        <time>2022-08-25T09:36:55.000Z</time>
      </trkpt>
      <trkpt lat="40.22643011994659900665283203125" lon="-1.74368086270987987518310546875">
        <ele>1290.800048828125</ele>
        <time>2022-08-25T09:37:00.000Z</time>
      </trkpt>
      <trkpt lat="40.22632098756730556488037109375" lon="-1.74363509751856327056884765625">
        <ele>1291.5999755859375</ele>
        <time>2022-08-25T09:37:05.000Z</time>
      </trkpt>
      <trkpt lat="40.2262994460761547088623046875" lon="-1.7436251230537891387939453125">
        <ele>1291.800048828125</ele>
        <time>2022-08-25T09:37:06.000Z</time>
      </trkpt>
      <trkpt lat="40.2261981926858425140380859375" lon="-1.74353267066180706024169921875">
        <ele>1292.800048828125</ele>
        <time>2022-08-25T09:37:12.000Z</time>
      </trkpt>
      <trkpt lat="40.22618050687015056610107421875" lon="-1.74351657740771770477294921875">
        <ele>1293</ele>
        <time>2022-08-25T09:37:13.000Z</time>
      </trkpt>
      <trkpt lat="40.2261083386838436126708984375" lon="-1.743448264896869659423828125">
        <ele>1293.800048828125</ele>
        <time>2022-08-25T09:37:17.000Z</time>
      </trkpt>
      <trkpt lat="40.22601236589252948760986328125" lon="-1.7433173395693302154541015625">
        <ele>1294.5999755859375</ele>
        <time>2022-08-25T09:37:23.000Z</time>
      </trkpt>
      <trkpt lat="40.2259990386664867401123046875" lon="-1.743294708430767059326171875">
        <ele>1294.800048828125</ele>
        <time>2022-08-25T09:37:24.000Z</time>
      </trkpt>
      <trkpt lat="40.22586601786315441131591796875" lon="-1.7430799640715122222900390625">
        <ele>1295.800048828125</ele>
        <time>2022-08-25T09:37:34.000Z</time>
      </trkpt>
      <trkpt lat="40.225852020084857940673828125" lon="-1.74306102097034454345703125">
        <ele>1295.800048828125</ele>
        <time>2022-08-25T09:37:35.000Z</time>
      </trkpt>
      <trkpt lat="40.22576509974896907806396484375" lon="-1.74292632378637790679931640625">
        <ele>1296.5999755859375</ele>
        <time>2022-08-25T09:37:42.000Z</time>
      </trkpt>
      <trkpt lat="40.2257153950631618499755859375" lon="-1.742832027375698089599609375">
        <ele>1297</ele>
        <time>2022-08-25T09:37:46.000Z</time>
      </trkpt>
      <trkpt lat="40.22564557380974292755126953125" lon="-1.7427237331867218017578125">
        <ele>1297.5999755859375</ele>
        <time>2022-08-25T09:37:51.000Z</time>
      </trkpt>
      <trkpt lat="40.225600562989711761474609375" lon="-1.74265961162745952606201171875">
        <ele>1298</ele>
        <time>2022-08-25T09:37:54.000Z</time>
      </trkpt>
      <trkpt lat="40.2254994772374629974365234375" lon="-1.7425279319286346435546875">
        <ele>1299</ele>
        <time>2022-08-25T09:38:00.000Z</time>
      </trkpt>
      <trkpt lat="40.22547039203345775604248046875" lon="-1.7424888722598552703857421875">
        <ele>1299.4000244140625</ele>
        <time>2022-08-25T09:38:02.000Z</time>
      </trkpt>
      <trkpt lat="40.225380621850490570068359375" lon="-1.74235903657972812652587890625">
        <ele>1300</ele>
        <time>2022-08-25T09:38:08.000Z</time>
      </trkpt>
      <trkpt lat="40.225328989326953887939453125" lon="-1.7422731220722198486328125">
        <ele>1300.5999755859375</ele>
        <time>2022-08-25T09:38:12.000Z</time>
      </trkpt>
      <trkpt lat="40.22528917528688907623291015625" lon="-1.74220749177038669586181640625">
        <ele>1301.199951171875</ele>
        <time>2022-08-25T09:38:15.000Z</time>
      </trkpt>
      <trkpt lat="40.22522664628922939300537109375" lon="-1.74212895333766937255859375">
        <ele>1302</ele>
        <time>2022-08-25T09:38:20.000Z</time>
      </trkpt>
      <trkpt lat="40.22524726577103137969970703125" lon="-1.74210992641746997833251953125">
        <ele>1302.199951171875</ele>
        <time>2022-08-25T09:38:21.000Z</time>
      </trkpt>
      <trkpt lat="40.22529236041009426116943359375" lon="-1.74213540740311145782470703125">
        <ele>1302.5999755859375</ele>
        <time>2022-08-25T09:38:23.000Z</time>
      </trkpt>
      <trkpt lat="40.22537014447152614593505859375" lon="-1.742255687713623046875">
        <ele>1302.800048828125</ele>
        <time>2022-08-25T09:38:26.000Z</time>
      </trkpt>
      <trkpt lat="40.22539696656167507171630859375" lon="-1.7423064820468425750732421875">
        <ele>1303</ele>
        <time>2022-08-25T09:38:27.000Z</time>
      </trkpt>
      <trkpt lat="40.22566099651157855987548828125" lon="-1.7427151836454868316650390625">
        <ele>1302.800048828125</ele>
        <time>2022-08-25T09:38:35.000Z</time>
      </trkpt>
      <trkpt lat="40.22573760710656642913818359375" lon="-1.74287854693830013275146484375">
        <ele>1301.800048828125</ele>
        <time>2022-08-25T09:38:39.000Z</time>
      </trkpt>
      <trkpt lat="40.22571765817701816558837890625" lon="-1.74300377257168292999267578125">
        <ele>1300.5999755859375</ele>
        <time>2022-08-25T09:38:42.000Z</time>
      </trkpt>
      <trkpt lat="40.22569469176232814788818359375" lon="-1.74308692105114459991455078125">
        <ele>1299.800048828125</ele>
        <time>2022-08-25T09:38:44.000Z</time>
      </trkpt>
      <trkpt lat="40.2256828732788562774658203125" lon="-1.74312463961541652679443359375">
        <ele>1299.4000244140625</ele>
        <time>2022-08-25T09:38:45.000Z</time>
      </trkpt>
      <trkpt lat="40.2256225235760211944580078125" lon="-1.74333393573760986328125">
        <ele>1298.5999755859375</ele>
        <time>2022-08-25T09:38:52.000Z</time>
      </trkpt>
      <trkpt lat="40.2255604974925518035888671875" lon="-1.7435188405215740203857421875">
        <ele>1299.4000244140625</ele>
        <time>2022-08-25T09:39:00.000Z</time>
      </trkpt>
      <trkpt lat="40.22549000568687915802001953125" lon="-1.74362470395863056182861328125">
        <ele>1300.4000244140625</ele>
        <time>2022-08-25T09:39:05.000Z</time>
      </trkpt>
      <trkpt lat="40.22540518082678318023681640625" lon="-1.74373031593859195709228515625">
        <ele>1301.5999755859375</ele>
        <time>2022-08-25T09:39:10.000Z</time>
      </trkpt>
      <trkpt lat="40.22530308924615383148193359375" lon="-1.7438182421028614044189453125">
        <ele>1303</ele>
        <time>2022-08-25T09:39:15.000Z</time>
      </trkpt>
      <trkpt lat="40.2252211980521678924560546875" lon="-1.74387666396796703338623046875">
        <ele>1304.199951171875</ele>
        <time>2022-08-25T09:39:19.000Z</time>
      </trkpt>
      <trkpt lat="40.22514232434332370758056640625" lon="-1.74389116466045379638671875">
        <ele>1305.4000244140625</ele>
        <time>2022-08-25T09:39:23.000Z</time>
      </trkpt>
      <trkpt lat="40.22508398629724979400634765625" lon="-1.74388387240469455718994140625">
        <ele>1306</ele>
        <time>2022-08-25T09:39:26.000Z</time>
      </trkpt>
      <trkpt lat="40.22504459135234355926513671875" lon="-1.74388370476663112640380859375">
        <ele>1306.4000244140625</ele>
        <time>2022-08-25T09:39:28.000Z</time>
      </trkpt>
      <trkpt lat="40.224935375154018402099609375" lon="-1.743881441652774810791015625">
        <ele>1307.5999755859375</ele>
        <time>2022-08-25T09:39:34.000Z</time>
      </trkpt>
      <trkpt lat="40.224918611347675323486328125" lon="-1.74387901090085506439208984375">
        <ele>1307.5999755859375</ele>
        <time>2022-08-25T09:39:35.000Z</time>
      </trkpt>
      <trkpt lat="40.2248081378638744354248046875" lon="-1.7438663542270660400390625">
        <ele>1308.5999755859375</ele>
        <time>2022-08-25T09:39:41.000Z</time>
      </trkpt>
      <trkpt lat="40.22477905265986919403076171875" lon="-1.743850596249103546142578125">
        <ele>1309</ele>
        <time>2022-08-25T09:39:43.000Z</time>
      </trkpt>
      <trkpt lat="40.2247010171413421630859375" lon="-1.743768788874149322509765625">
        <ele>1309.800048828125</ele>
        <time>2022-08-25T09:39:49.000Z</time>
      </trkpt>
      <trkpt lat="40.22468701936304569244384765625" lon="-1.7437666095793247222900390625">
        <ele>1310</ele>
        <time>2022-08-25T09:39:50.000Z</time>
      </trkpt>
      <trkpt lat="40.2246086485683917999267578125" lon="-1.743723861873149871826171875">
        <ele>1311</ele>
        <time>2022-08-25T09:39:56.000Z</time>
      </trkpt>
      <trkpt lat="40.22459381259977817535400390625" lon="-1.743714809417724609375">
        <ele>1311.4000244140625</ele>
        <time>2022-08-25T09:39:57.000Z</time>
      </trkpt>
      <trkpt lat="40.22453497163951396942138671875" lon="-1.74367834813892841339111328125">
        <ele>1312.199951171875</ele>
        <time>2022-08-25T09:40:01.000Z</time>
      </trkpt>
      <trkpt lat="40.22451049648225307464599609375" lon="-1.74367365427315235137939453125">
        <ele>1312.800048828125</ele>
        <time>2022-08-25T09:40:04.000Z</time>
      </trkpt>
      <trkpt lat="40.2244933135807514190673828125" lon="-1.74365621991455554962158203125">
        <ele>1313.199951171875</ele>
        <time>2022-08-25T09:40:06.000Z</time>
      </trkpt>
      <trkpt lat="40.22445098496973514556884765625" lon="-1.74363610334694385528564453125">
        <ele>1314.4000244140625</ele>
        <time>2022-08-25T09:40:09.000Z</time>
      </trkpt>
      <trkpt lat="40.2243521623313426971435546875" lon="-1.743568293750286102294921875">
        <ele>1315.4000244140625</ele>
        <time>2022-08-25T09:40:15.000Z</time>
      </trkpt>
      <trkpt lat="40.2242396771907806396484375" lon="-1.74351925961673259735107421875">
        <ele>1316</ele>
        <time>2022-08-25T09:40:23.000Z</time>
      </trkpt>
      <trkpt lat="40.22418729029595851898193359375" lon="-1.7434789426624774932861328125">
        <ele>1316.4000244140625</ele>
        <time>2022-08-25T09:40:27.000Z</time>
      </trkpt>
      <trkpt lat="40.2241664193570613861083984375" lon="-1.74347667954862117767333984375">
        <ele>1316.5999755859375</ele>
        <time>2022-08-25T09:40:28.000Z</time>
      </trkpt>
      <trkpt lat="40.2241459675133228302001953125" lon="-1.74347399733960628509521484375">
        <ele>1316.800048828125</ele>
        <time>2022-08-25T09:40:29.000Z</time>
      </trkpt>
      <trkpt lat="40.2241037227213382720947265625" lon="-1.74348036758601665496826171875">
        <ele>1317.199951171875</ele>
        <time>2022-08-25T09:40:31.000Z</time>
      </trkpt>
      <trkpt lat="40.2240715362131595611572265625" lon="-1.74349092878401279449462890625">
        <ele>1317.5999755859375</ele>
        <time>2022-08-25T09:40:33.000Z</time>
      </trkpt>
      <trkpt lat="40.22406575269997119903564453125" lon="-1.74350417219102382659912109375">
        <ele>1317.5999755859375</ele>
        <time>2022-08-25T09:40:34.000Z</time>
      </trkpt>
      <trkpt lat="40.22406055592000484466552734375" lon="-1.7435203492641448974609375">
        <ele>1317.800048828125</ele>
        <time>2022-08-25T09:40:35.000Z</time>
      </trkpt>
      <trkpt lat="40.22403826005756855010986328125" lon="-1.74357357434928417205810546875">
        <ele>1317.800048828125</ele>
        <time>2022-08-25T09:40:38.000Z</time>
      </trkpt>
      <trkpt lat="40.2240135334432125091552734375" lon="-1.743660159409046173095703125">
        <ele>1318</ele>
        <time>2022-08-25T09:40:42.000Z</time>
      </trkpt>
      <trkpt lat="40.22399484179913997650146484375" lon="-1.74369947053492069244384765625">
        <ele>1318</ele>
        <time>2022-08-25T09:40:46.000Z</time>
      </trkpt>
      <trkpt lat="40.22396986372768878936767578125" lon="-1.74364096485078334808349609375">
        <ele>1317.199951171875</ele>
        <time>2022-08-25T09:42:45.000Z</time>
      </trkpt>
      <trkpt lat="40.2240182273089885711669921875" lon="-1.74347952939569950103759765625">
        <ele>1317.199951171875</ele>
        <time>2022-08-25T09:42:51.000Z</time>
      </trkpt>
      <trkpt lat="40.22402836941182613372802734375" lon="-1.7434598319232463836669921875">
        <ele>1317.199951171875</ele>
        <time>2022-08-25T09:42:52.000Z</time>
      </trkpt>
      <trkpt lat="40.2240973524749279022216796875" lon="-1.7433941178023815155029296875">
        <ele>1317.4000244140625</ele>
        <time>2022-08-25T09:42:56.000Z</time>
      </trkpt>
      <trkpt lat="40.2241540141403675079345703125" lon="-1.74330619163811206817626953125">
        <ele>1317.5999755859375</ele>
        <time>2022-08-25T09:43:01.000Z</time>
      </trkpt>
      <trkpt lat="40.22419885732233524322509765625" lon="-1.74322874285280704498291015625">
        <ele>1317.5999755859375</ele>
        <time>2022-08-25T09:43:04.000Z</time>
      </trkpt>
      <trkpt lat="40.22424965165555477142333984375" lon="-1.7431590892374515533447265625">
        <ele>1317.800048828125</ele>
        <time>2022-08-25T09:43:08.000Z</time>
      </trkpt>
      <trkpt lat="40.22424512542784214019775390625" lon="-1.743141151964664459228515625">
        <ele>1318.4000244140625</ele>
        <time>2022-08-25T09:43:12.000Z</time>
      </trkpt>
      <trkpt lat="40.22425535134971141815185546875" lon="-1.74314542673528194427490234375">
        <ele>1318.5999755859375</ele>
        <time>2022-08-25T09:43:13.000Z</time>
      </trkpt>
      <trkpt lat="40.22429776377975940704345703125" lon="-1.74315221607685089111328125">
        <ele>1319</ele>
        <time>2022-08-25T09:43:16.000Z</time>
      </trkpt>
      <trkpt lat="40.2243132703006267547607421875" lon="-1.7431554012000560760498046875">
        <ele>1319</ele>
        <time>2022-08-25T09:43:18.000Z</time>
      </trkpt>
      <trkpt lat="40.22432978264987468719482421875" lon="-1.74315229989588260650634765625">
        <ele>1319</ele>
        <time>2022-08-25T09:43:22.000Z</time>
      </trkpt>
      <trkpt lat="40.2242825925350189208984375" lon="-1.74311391077935695648193359375">
        <ele>1320.4000244140625</ele>
        <time>2022-08-25T09:55:45.000Z</time>
      </trkpt>
      <trkpt lat="40.22424462251365184783935546875" lon="-1.7431461811065673828125">
        <ele>1320.199951171875</ele>
        <time>2022-08-25T09:55:47.000Z</time>
      </trkpt>
      <trkpt lat="40.22416315041482448577880859375" lon="-1.743068732321262359619140625">
        <ele>1320.199951171875</ele>
        <time>2022-08-25T09:55:54.000Z</time>
      </trkpt>
      <trkpt lat="40.22410087287425994873046875" lon="-1.74297074787318706512451171875">
        <ele>1320.199951171875</ele>
        <time>2022-08-25T09:56:00.000Z</time>
      </trkpt>
      <trkpt lat="40.224088132381439208984375" lon="-1.7429525591433048248291015625">
        <ele>1320.199951171875</ele>
        <time>2022-08-25T09:56:01.000Z</time>
      </trkpt>
      <trkpt lat="40.2240546047687530517578125" lon="-1.7429589293897151947021484375">
        <ele>1320.199951171875</ele>
        <time>2022-08-25T09:56:04.000Z</time>
      </trkpt>
      <trkpt lat="40.22403490729629993438720703125" lon="-1.742954738438129425048828125">
        <ele>1320</ele>
        <time>2022-08-25T09:56:06.000Z</time>
      </trkpt>
      <trkpt lat="40.22395729087293148040771484375" lon="-1.74290277063846588134765625">
        <ele>1319.4000244140625</ele>
        <time>2022-08-25T09:56:10.000Z</time>
      </trkpt>
      <trkpt lat="40.22392979823052883148193359375" lon="-1.74288022331893444061279296875">
        <ele>1319.199951171875</ele>
        <time>2022-08-25T09:56:11.000Z</time>
      </trkpt>
      <trkpt lat="40.2238857932388782501220703125" lon="-1.74285725690424442291259765625">
        <ele>1318.199951171875</ele>
        <time>2022-08-25T09:56:13.000Z</time>
      </trkpt>
      <trkpt lat="40.2238666824996471405029296875" lon="-1.74283026717603206634521484375">
        <ele>1317</ele>
        <time>2022-08-25T09:56:15.000Z</time>
      </trkpt>
      <trkpt lat="40.223781354725360870361328125" lon="-1.74266430549323558807373046875">
        <ele>1316</ele>
        <time>2022-08-25T09:56:21.000Z</time>
      </trkpt>
      <trkpt lat="40.22373475134372711181640625" lon="-1.7425656504929065704345703125">
        <ele>1314.800048828125</ele>
        <time>2022-08-25T09:56:24.000Z</time>
      </trkpt>
      <trkpt lat="40.22372293286025524139404296875" lon="-1.74250312149524688720703125">
        <ele>1314</ele>
        <time>2022-08-25T09:56:26.000Z</time>
      </trkpt>
      <trkpt lat="40.22371639497578144073486328125" lon="-1.7424751259386539459228515625">
        <ele>1313.800048828125</ele>
        <time>2022-08-25T09:56:27.000Z</time>
      </trkpt>
      <trkpt lat="40.22364900447428226470947265625" lon="-1.7423101700842380523681640625">
        <ele>1313.4000244140625</ele>
        <time>2022-08-25T09:56:33.000Z</time>
      </trkpt>
      <trkpt lat="40.22363416850566864013671875" lon="-1.7422290332615375518798828125">
        <ele>1313.199951171875</ele>
        <time>2022-08-25T09:56:35.000Z</time>
      </trkpt>
      <trkpt lat="40.22362385876476764678955078125" lon="-1.74212534911930561065673828125">
        <ele>1312.5999755859375</ele>
        <time>2022-08-25T09:56:37.000Z</time>
      </trkpt>
      <trkpt lat="40.22357541136443614959716796875" lon="-1.7420236766338348388671875">
        <ele>1311.5999755859375</ele>
        <time>2022-08-25T09:56:40.000Z</time>
      </trkpt>
      <trkpt lat="40.22355479188263416290283203125" lon="-1.74201236106455326080322265625">
        <ele>1311.4000244140625</ele>
        <time>2022-08-25T09:56:41.000Z</time>
      </trkpt>
      <trkpt lat="40.223516486585140228271484375" lon="-1.7419190704822540283203125">
        <ele>1310.4000244140625</ele>
        <time>2022-08-25T09:56:45.000Z</time>
      </trkpt>
      <trkpt lat="40.22351657040417194366455078125" lon="-1.741889230906963348388671875">
        <ele>1310</ele>
        <time>2022-08-25T09:56:46.000Z</time>
      </trkpt>
      <trkpt lat="40.22350802086293697357177734375" lon="-1.74183818511664867401123046875">
        <ele>1309.5999755859375</ele>
        <time>2022-08-25T09:56:48.000Z</time>
      </trkpt>
      <trkpt lat="40.22350408136844635009765625" lon="-1.74181806854903697967529296875">
        <ele>1309.4000244140625</ele>
        <time>2022-08-25T09:56:49.000Z</time>
      </trkpt>
      <trkpt lat="40.22348823957145214080810546875" lon="-1.741818822920322418212890625">
        <ele>1309.4000244140625</ele>
        <time>2022-08-25T09:56:50.000Z</time>
      </trkpt>
      <trkpt lat="40.223464854061603546142578125" lon="-1.7418220080435276031494140625">
        <ele>1309.4000244140625</ele>
        <time>2022-08-25T09:56:51.000Z</time>
      </trkpt>
      <trkpt lat="40.22332848049700260162353515625" lon="-1.74184153787791728973388671875">
        <ele>1309.199951171875</ele>
        <time>2022-08-25T09:56:54.000Z</time>
      </trkpt>
      <trkpt lat="40.2232782728970050811767578125" lon="-1.74184329807758331298828125">
        <ele>1309.199951171875</ele>
        <time>2022-08-25T09:56:55.000Z</time>
      </trkpt>
      <trkpt lat="40.2229892648756504058837890625" lon="-1.74181505106389522552490234375">
        <ele>1308.4000244140625</ele>
        <time>2022-08-25T09:57:01.000Z</time>
      </trkpt>
      <trkpt lat="40.222915001213550567626953125" lon="-1.74182108603417873382568359375">
        <ele>1308</ele>
        <time>2022-08-25T09:57:05.000Z</time>
      </trkpt>
      <trkpt lat="40.22290385328233242034912109375" lon="-1.741816811263561248779296875">
        <ele>1307.199951171875</ele>
        <time>2022-08-25T09:57:09.000Z</time>
      </trkpt>
      <trkpt lat="40.2228424139320850372314453125" lon="-1.7418702878057956695556640625">
        <ele>1306.800048828125</ele>
        <time>2022-08-25T09:57:24.000Z</time>
      </trkpt>
      <trkpt lat="40.22282875142991542816162109375" lon="-1.741897948086261749267578125">
        <ele>1306.5999755859375</ele>
        <time>2022-08-25T09:57:25.000Z</time>
      </trkpt>
      <trkpt lat="40.22271291352808475494384765625" lon="-1.742160134017467498779296875">
        <ele>1306.4000244140625</ele>
        <time>2022-08-25T09:57:31.000Z</time>
      </trkpt>
      <trkpt lat="40.2226620353758335113525390625" lon="-1.74225711263716220855712890625">
        <ele>1306.199951171875</ele>
        <time>2022-08-25T09:57:33.000Z</time>
      </trkpt>
      <trkpt lat="40.22243044339120388031005859375" lon="-1.74258115701377391815185546875">
        <ele>1306</ele>
        <time>2022-08-25T09:57:40.000Z</time>
      </trkpt>
      <trkpt lat="40.2223897911608219146728515625" lon="-1.7426112480461597442626953125">
        <ele>1306</ele>
        <time>2022-08-25T09:57:41.000Z</time>
      </trkpt>
      <trkpt lat="40.22222994826734066009521484375" lon="-1.74265458248555660247802734375">
        <ele>1306.199951171875</ele>
        <time>2022-08-25T09:57:45.000Z</time>
      </trkpt>
      <trkpt lat="40.2220644056797027587890625" lon="-1.74260127358138561248779296875">
        <ele>1306.199951171875</ele>
        <time>2022-08-25T09:57:49.000Z</time>
      </trkpt>
      <trkpt lat="40.2219629846513271331787109375" lon="-1.74255752004683017730712890625">
        <ele>1306.199951171875</ele>
        <time>2022-08-25T09:57:51.000Z</time>
      </trkpt>
      <trkpt lat="40.2215857990086078643798828125" lon="-1.74242190085351467132568359375">
        <ele>1306.199951171875</ele>
        <time>2022-08-25T09:57:57.000Z</time>
      </trkpt>
      <trkpt lat="40.22151882760226726531982421875" lon="-1.742397509515285491943359375">
        <ele>1306</ele>
        <time>2022-08-25T09:57:58.000Z</time>
      </trkpt>
      <trkpt lat="40.22122562862932682037353515625" lon="-1.74227873794734477996826171875">
        <ele>1305</ele>
        <time>2022-08-25T09:58:02.000Z</time>
      </trkpt>
      <trkpt lat="40.22114717401564121246337890625" lon="-1.74224160611629486083984375">
        <ele>1304.800048828125</ele>
        <time>2022-08-25T09:58:03.000Z</time>
      </trkpt>
      <trkpt lat="40.22083662450313568115234375" lon="-1.742028035223484039306640625">
        <ele>1304</ele>
        <time>2022-08-25T09:58:07.000Z</time>
      </trkpt>
      <trkpt lat="40.220763199031352996826171875" lon="-1.74196458421647548675537109375">
        <ele>1303.5999755859375</ele>
        <time>2022-08-25T09:58:08.000Z</time>
      </trkpt>
      <trkpt lat="40.22054753266274929046630859375" lon="-1.74178370274603366851806640625">
        <ele>1302.4000244140625</ele>
        <time>2022-08-25T09:58:11.000Z</time>
      </trkpt>
      <trkpt lat="40.22025316022336483001708984375" lon="-1.741619668900966644287109375">
        <ele>1301.4000244140625</ele>
        <time>2022-08-25T09:58:15.000Z</time>
      </trkpt>
      <trkpt lat="40.22010572254657745361328125" lon="-1.74156543798744678497314453125">
        <ele>1300.4000244140625</ele>
        <time>2022-08-25T09:58:17.000Z</time>
      </trkpt>
      <trkpt lat="40.21982484497129917144775390625" lon="-1.7414582334458827972412109375">
        <ele>1299.4000244140625</ele>
        <time>2022-08-25T09:58:21.000Z</time>
      </trkpt>
      <trkpt lat="40.21970272064208984375" lon="-1.74140919931232929229736328125">
        <ele>1299.199951171875</ele>
        <time>2022-08-25T09:58:23.000Z</time>
      </trkpt>
      <trkpt lat="40.21916770376265048980712890625" lon="-1.741160340607166290283203125">
        <ele>1299</ele>
        <time>2022-08-25T09:58:33.000Z</time>
      </trkpt>
      <trkpt lat="40.21874676458537578582763671875" lon="-1.74086093902587890625">
        <ele>1298.4000244140625</ele>
        <time>2022-08-25T09:58:42.000Z</time>
      </trkpt>
      <trkpt lat="40.21870971657335758209228515625" lon="-1.74082196317613124847412109375">
        <ele>1298.4000244140625</ele>
        <time>2022-08-25T09:58:43.000Z</time>
      </trkpt>
      <trkpt lat="40.21846127696335315704345703125" lon="-1.740535385906696319580078125">
        <ele>1297.800048828125</ele>
        <time>2022-08-25T09:58:50.000Z</time>
      </trkpt>
      <trkpt lat="40.21814779378473758697509765625" lon="-1.74016415141522884368896484375">
        <ele>1297.5999755859375</ele>
        <time>2022-08-25T09:59:00.000Z</time>
      </trkpt>
      <trkpt lat="40.2178307063877582550048828125" lon="-1.7398562841117382049560546875">
        <ele>1298.4000244140625</ele>
        <time>2022-08-25T09:59:10.000Z</time>
      </trkpt>
      <trkpt lat="40.21754312328994274139404296875" lon="-1.739632822573184967041015625">
        <ele>1298.5999755859375</ele>
        <time>2022-08-25T09:59:19.000Z</time>
      </trkpt>
      <trkpt lat="40.217223353683948516845703125" lon="-1.73939016647636890411376953125">
        <ele>1299</ele>
        <time>2022-08-25T09:59:29.000Z</time>
      </trkpt>
      <trkpt lat="40.21715202368795871734619140625" lon="-1.73934540711343288421630859375">
        <ele>1299.199951171875</ele>
        <time>2022-08-25T09:59:31.000Z</time>
      </trkpt>
      <trkpt lat="40.21707993932068347930908203125" lon="-1.739302910864353179931640625">
        <ele>1299.5999755859375</ele>
        <time>2022-08-25T09:59:33.000Z</time>
      </trkpt>
      <trkpt lat="40.2168020792305469512939453125" lon="-1.73917257227003574371337890625">
        <ele>1300.199951171875</ele>
        <time>2022-08-25T09:59:40.000Z</time>
      </trkpt>
      <trkpt lat="40.21639580838382244110107421875" lon="-1.73899613320827484130859375">
        <ele>1300.4000244140625</ele>
        <time>2022-08-25T09:59:50.000Z</time>
      </trkpt>
      <trkpt lat="40.21599465049803256988525390625" lon="-1.7387894354760646820068359375">
        <ele>1300.4000244140625</ele>
        <time>2022-08-25T10:00:01.000Z</time>
      </trkpt>
      <trkpt lat="40.21592893637716770172119140625" lon="-1.73874157480895519256591796875">
        <ele>1300.5999755859375</ele>
        <time>2022-08-25T10:00:03.000Z</time>
      </trkpt>
      <trkpt lat="40.2156634815037250518798828125" lon="-1.7385235615074634552001953125">
        <ele>1301</ele>
        <time>2022-08-25T10:00:12.000Z</time>
      </trkpt>
      <trkpt lat="40.21543071605265140533447265625" lon="-1.73834837973117828369140625">
        <ele>1301.5999755859375</ele>
        <time>2022-08-25T10:00:20.000Z</time>
      </trkpt>
      <trkpt lat="40.21529610268771648406982421875" lon="-1.738244108855724334716796875">
        <ele>1301.800048828125</ele>
        <time>2022-08-25T10:00:25.000Z</time>
      </trkpt>
      <trkpt lat="40.21511857397854328155517578125" lon="-1.738134138286113739013671875">
        <ele>1302.800048828125</ele>
        <time>2022-08-25T10:00:31.000Z</time>
      </trkpt>
      <trkpt lat="40.21491028368473052978515625" lon="-1.73801503144204616546630859375">
        <ele>1303.199951171875</ele>
        <time>2022-08-25T10:00:38.000Z</time>
      </trkpt>
      <trkpt lat="40.2147334255278110504150390625" lon="-1.7379066534340381622314453125">
        <ele>1303.800048828125</ele>
        <time>2022-08-25T10:00:44.000Z</time>
      </trkpt>
      <trkpt lat="40.2146132290363311767578125" lon="-1.7378302104771137237548828125">
        <ele>1304.4000244140625</ele>
        <time>2022-08-25T10:00:48.000Z</time>
      </trkpt>
      <trkpt lat="40.21449479274451732635498046875" lon="-1.737763993442058563232421875">
        <ele>1304.800048828125</ele>
        <time>2022-08-25T10:00:52.000Z</time>
      </trkpt>
      <trkpt lat="40.21430737338960170745849609375" lon="-1.73765963874757289886474609375">
        <ele>1305.5999755859375</ele>
        <time>2022-08-25T10:00:58.000Z</time>
      </trkpt>
      <trkpt lat="40.21396019496023654937744140625" lon="-1.73751262016594409942626953125">
        <ele>1305.800048828125</ele>
        <time>2022-08-25T10:01:07.000Z</time>
      </trkpt>
      <trkpt lat="40.21369901485741138458251953125" lon="-1.737483702600002288818359375">
        <ele>1305.800048828125</ele>
        <time>2022-08-25T10:01:15.000Z</time>
      </trkpt>
      <trkpt lat="40.21364252083003520965576171875" lon="-1.73747263848781585693359375">
        <ele>1305.800048828125</ele>
        <time>2022-08-25T10:01:17.000Z</time>
      </trkpt>
      <trkpt lat="40.2135002799332141876220703125" lon="-1.73739661462604999542236328125">
        <ele>1306.4000244140625</ele>
        <time>2022-08-25T10:01:22.000Z</time>
      </trkpt>
      <trkpt lat="40.21344470791518688201904296875" lon="-1.73733894713222980499267578125">
        <ele>1307</ele>
        <time>2022-08-25T10:01:24.000Z</time>
      </trkpt>
      <trkpt lat="40.213325433433055877685546875" lon="-1.73716695047914981842041015625">
        <ele>1307.4000244140625</ele>
        <time>2022-08-25T10:01:28.000Z</time>
      </trkpt>
      <trkpt lat="40.21309803240001201629638671875" lon="-1.736927144229412078857421875">
        <ele>1307.5999755859375</ele>
        <time>2022-08-25T10:01:34.000Z</time>
      </trkpt>
      <trkpt lat="40.21278337575495243072509765625" lon="-1.7367821373045444488525390625">
        <ele>1307.4000244140625</ele>
        <time>2022-08-25T10:01:41.000Z</time>
      </trkpt>
      <trkpt lat="40.21252722479403018951416015625" lon="-1.73656932078301906585693359375">
        <ele>1307.4000244140625</ele>
        <time>2022-08-25T10:01:48.000Z</time>
      </trkpt>
      <trkpt lat="40.21221139468252658843994140625" lon="-1.73632306046783924102783203125">
        <ele>1307.800048828125</ele>
        <time>2022-08-25T10:01:57.000Z</time>
      </trkpt>
      <trkpt lat="40.21217417903244495391845703125" lon="-1.73629741184413433074951171875">
        <ele>1308</ele>
        <time>2022-08-25T10:01:58.000Z</time>
      </trkpt>
      <trkpt lat="40.21205632947385311126708984375" lon="-1.73622943460941314697265625">
        <ele>1308</ele>
        <time>2022-08-25T10:02:01.000Z</time>
      </trkpt>
      <trkpt lat="40.2118855901062488555908203125" lon="-1.73617176711559295654296875">
        <ele>1308.199951171875</ele>
        <time>2022-08-25T10:02:05.000Z</time>
      </trkpt>
      <trkpt lat="40.21160655654966831207275390625" lon="-1.736075878143310546875">
        <ele>1308.800048828125</ele>
        <time>2022-08-25T10:02:12.000Z</time>
      </trkpt>
      <trkpt lat="40.21147814579308032989501953125" lon="-1.7360257543623447418212890625">
        <ele>1308.800048828125</ele>
        <time>2022-08-25T10:02:15.000Z</time>
      </trkpt>
      <trkpt lat="40.2110700309276580810546875" lon="-1.73588611185550689697265625">
        <ele>1308.4000244140625</ele>
        <time>2022-08-25T10:02:24.000Z</time>
      </trkpt>
      <trkpt lat="40.21065470762550830841064453125" lon="-1.735822744667530059814453125">
        <ele>1308.5999755859375</ele>
        <time>2022-08-25T10:02:33.000Z</time>
      </trkpt>
      <trkpt lat="40.2103335969150066375732421875" lon="-1.73570011742413043975830078125">
        <ele>1309</ele>
        <time>2022-08-25T10:02:41.000Z</time>
      </trkpt>
      <trkpt lat="40.2102933637797832489013671875" lon="-1.73568033613264560699462890625">
        <ele>1309</ele>
        <time>2022-08-25T10:02:42.000Z</time>
      </trkpt>
      <trkpt lat="40.209866054356098175048828125" lon="-1.735488139092922210693359375">
        <ele>1309.5999755859375</ele>
        <time>2022-08-25T10:02:52.000Z</time>
      </trkpt>
      <trkpt lat="40.20940496586263179779052734375" lon="-1.73541110940277576446533203125">
        <ele>1309</ele>
        <time>2022-08-25T10:03:02.000Z</time>
      </trkpt>
      <trkpt lat="40.2090176381170749664306640625" lon="-1.7353290505707263946533203125">
        <ele>1309.4000244140625</ele>
        <time>2022-08-25T10:03:11.000Z</time>
      </trkpt>
      <trkpt lat="40.20877682603895664215087890625" lon="-1.735119335353374481201171875">
        <ele>1309.800048828125</ele>
        <time>2022-08-25T10:03:18.000Z</time>
      </trkpt>
      <trkpt lat="40.2084537036716938018798828125" lon="-1.73486419022083282470703125">
        <ele>1310</ele>
        <time>2022-08-25T10:03:28.000Z</time>
      </trkpt>
      <trkpt lat="40.20828229375183582305908203125" lon="-1.7347496934235095977783203125">
        <ele>1310.199951171875</ele>
        <time>2022-08-25T10:03:34.000Z</time>
      </trkpt>
      <trkpt lat="40.20817793905735015869140625" lon="-1.73468356020748615264892578125">
        <ele>1311.199951171875</ele>
        <time>2022-08-25T10:03:38.000Z</time>
      </trkpt>
      <trkpt lat="40.208151452243328094482421875" lon="-1.7346663773059844970703125">
        <ele>1311.4000244140625</ele>
        <time>2022-08-25T10:03:39.000Z</time>
      </trkpt>
      <trkpt lat="40.20795439369976520538330078125" lon="-1.7345374636352062225341796875">
        <ele>1312.4000244140625</ele>
        <time>2022-08-25T10:03:47.000Z</time>
      </trkpt>
      <trkpt lat="40.20787744782865047454833984375" lon="-1.73449681140482425689697265625">
        <ele>1312.800048828125</ele>
        <time>2022-08-25T10:03:50.000Z</time>
      </trkpt>
      <trkpt lat="40.2077828161418437957763671875" lon="-1.7344308458268642425537109375">
        <ele>1313.4000244140625</ele>
        <time>2022-08-25T10:03:54.000Z</time>
      </trkpt>
      <trkpt lat="40.20769338123500347137451171875" lon="-1.73436261713504791259765625">
        <ele>1314</ele>
        <time>2022-08-25T10:03:58.000Z</time>
      </trkpt>
      <trkpt lat="40.2076453529298305511474609375" lon="-1.73432640731334686279296875">
        <ele>1314.4000244140625</ele>
        <time>2022-08-25T10:04:00.000Z</time>
      </trkpt>
      <trkpt lat="40.20760285668075084686279296875" lon="-1.734287850558757781982421875">
        <ele>1314.5999755859375</ele>
        <time>2022-08-25T10:04:02.000Z</time>
      </trkpt>
      <trkpt lat="40.2074544131755828857421875" lon="-1.7341057956218719482421875">
        <ele>1315.4000244140625</ele>
        <time>2022-08-25T10:04:09.000Z</time>
      </trkpt>
      <trkpt lat="40.2073147706687450408935546875" lon="-1.733906976878643035888671875">
        <ele>1315.5999755859375</ele>
        <time>2022-08-25T10:04:15.000Z</time>
      </trkpt>
      <trkpt lat="40.20723673515021800994873046875" lon="-1.73378384672105312347412109375">
        <ele>1315.5999755859375</ele>
        <time>2022-08-25T10:04:18.000Z</time>
      </trkpt>
      <trkpt lat="40.20702651701867580413818359375" lon="-1.73355929553508758544921875">
        <ele>1315.4000244140625</ele>
        <time>2022-08-25T10:04:24.000Z</time>
      </trkpt>
      <trkpt lat="40.20665109157562255859375" lon="-1.73325142823159694671630859375">
        <ele>1315.199951171875</ele>
        <time>2022-08-25T10:04:34.000Z</time>
      </trkpt>
      <trkpt lat="40.20627868361771106719970703125" lon="-1.7329321615397930145263671875">
        <ele>1315.5999755859375</ele>
        <time>2022-08-25T10:04:44.000Z</time>
      </trkpt>
      <trkpt lat="40.2059337683022022247314453125" lon="-1.732644326984882354736328125">
        <ele>1315.5999755859375</ele>
        <time>2022-08-25T10:04:53.000Z</time>
      </trkpt>
      <trkpt lat="40.20561416633427143096923828125" lon="-1.73235959373414516448974609375">
        <ele>1315.199951171875</ele>
        <time>2022-08-25T10:05:02.000Z</time>
      </trkpt>
      <trkpt lat="40.205223821103572845458984375" lon="-1.732077039778232574462890625">
        <ele>1315.5999755859375</ele>
        <time>2022-08-25T10:05:13.000Z</time>
      </trkpt>
      <trkpt lat="40.20497194491326808929443359375" lon="-1.7318633012473583221435546875">
        <ele>1316.199951171875</ele>
        <time>2022-08-25T10:05:21.000Z</time>
      </trkpt>
      <trkpt lat="40.20468662492930889129638671875" lon="-1.731562726199626922607421875">
        <ele>1316.4000244140625</ele>
        <time>2022-08-25T10:05:30.000Z</time>
      </trkpt>
      <trkpt lat="40.20455905236303806304931640625" lon="-1.73142559826374053955078125">
        <ele>1316.5999755859375</ele>
        <time>2022-08-25T10:05:34.000Z</time>
      </trkpt>
      <trkpt lat="40.204383619129657745361328125" lon="-1.7312872968614101409912109375">
        <ele>1316.5999755859375</ele>
        <time>2022-08-25T10:05:39.000Z</time>
      </trkpt>
      <trkpt lat="40.2040180005133152008056640625" lon="-1.73106442205607891082763671875">
        <ele>1316.5999755859375</ele>
        <time>2022-08-25T10:05:48.000Z</time>
      </trkpt>
      <trkpt lat="40.20369521342217922210693359375" lon="-1.73080005683004856109619140625">
        <ele>1316.800048828125</ele>
        <time>2022-08-25T10:05:57.000Z</time>
      </trkpt>
      <trkpt lat="40.20339564420282840728759765625" lon="-1.73051037825644016265869140625">
        <ele>1317.4000244140625</ele>
        <time>2022-08-25T10:06:06.000Z</time>
      </trkpt>
      <trkpt lat="40.2033613622188568115234375" lon="-1.730489842593669891357421875">
        <ele>1317.199951171875</ele>
        <time>2022-08-25T10:06:07.000Z</time>
      </trkpt>
      <trkpt lat="40.2031950652599334716796875" lon="-1.730483807623386383056640625">
        <ele>1317</ele>
        <time>2022-08-25T10:06:12.000Z</time>
      </trkpt>
      <trkpt lat="40.20313178189098834991455078125" lon="-1.73050367273390293121337890625">
        <ele>1316.5999755859375</ele>
        <time>2022-08-25T10:06:16.000Z</time>
      </trkpt>
      <trkpt lat="40.20313044078648090362548828125" lon="-1.730505265295505523681640625">
        <ele>1316.199951171875</ele>
        <time>2022-08-25T10:06:18.000Z</time>
      </trkpt>
      <trkpt lat="40.20304008387029170989990234375" lon="-1.7305084504187107086181640625">
        <ele>1315.199951171875</ele>
        <time>2022-08-25T10:06:51.000Z</time>
      </trkpt>
      <trkpt lat="40.2029819972813129425048828125" lon="-1.73051708377897739410400390625">
        <ele>1315.199951171875</ele>
        <time>2022-08-25T10:06:53.000Z</time>
      </trkpt>
      <trkpt lat="40.20273800007998943328857421875" lon="-1.7305899225175380706787109375">
        <ele>1315.5999755859375</ele>
        <time>2022-08-25T10:07:00.000Z</time>
      </trkpt>
      <trkpt lat="40.2025333978235721588134765625" lon="-1.73079016618430614471435546875">
        <ele>1315.800048828125</ele>
        <time>2022-08-25T10:07:06.000Z</time>
      </trkpt>
      <trkpt lat="40.20238679833710193634033203125" lon="-1.73085428774356842041015625">
        <ele>1316</ele>
        <time>2022-08-25T10:07:10.000Z</time>
      </trkpt>
      <trkpt lat="40.2021521888673305511474609375" lon="-1.73075948841869831085205078125">
        <ele>1316.199951171875</ele>
        <time>2022-08-25T10:07:16.000Z</time>
      </trkpt>
      <trkpt lat="40.20211103372275829315185546875" lon="-1.73074163496494293212890625">
        <ele>1316.199951171875</ele>
        <time>2022-08-25T10:07:17.000Z</time>
      </trkpt>
      <trkpt lat="40.20183426328003406524658203125" lon="-1.73062370158731937408447265625">
        <ele>1317.199951171875</ele>
        <time>2022-08-25T10:07:24.000Z</time>
      </trkpt>
      <trkpt lat="40.20175941288471221923828125" lon="-1.7305838875472545623779296875">
        <ele>1317.5999755859375</ele>
        <time>2022-08-25T10:07:26.000Z</time>
      </trkpt>
      <trkpt lat="40.20137317478656768798828125" lon="-1.7304333485662937164306640625">
        <ele>1317.5999755859375</ele>
        <time>2022-08-25T10:07:36.000Z</time>
      </trkpt>
      <trkpt lat="40.2009126730263233184814453125" lon="-1.73036989755928516387939453125">
        <ele>1317.800048828125</ele>
        <time>2022-08-25T10:07:47.000Z</time>
      </trkpt>
      <trkpt lat="40.20062659867107868194580078125" lon="-1.73044231720268726348876953125">
        <ele>1317.5999755859375</ele>
        <time>2022-08-25T10:07:54.000Z</time>
      </trkpt>
      <trkpt lat="40.20027807913720607757568359375" lon="-1.7306170798838138580322265625">
        <ele>1318</ele>
        <time>2022-08-25T10:08:03.000Z</time>
      </trkpt>
      <trkpt lat="40.2001355029642581939697265625" lon="-1.73069880343973636627197265625">
        <ele>1318.199951171875</ele>
        <time>2022-08-25T10:08:07.000Z</time>
      </trkpt>
      <trkpt lat="40.19985043443739414215087890625" lon="-1.7308849655091762542724609375">
        <ele>1318.800048828125</ele>
        <time>2022-08-25T10:08:15.000Z</time>
      </trkpt>
      <trkpt lat="40.19966670311987400054931640625" lon="-1.73099552281200885772705078125">
        <ele>1319.199951171875</ele>
        <time>2022-08-25T10:08:20.000Z</time>
      </trkpt>
      <trkpt lat="40.1995692215859889984130859375" lon="-1.73105704598128795623779296875">
        <ele>1319.4000244140625</ele>
        <time>2022-08-25T10:08:23.000Z</time>
      </trkpt>
      <trkpt lat="40.19929672591388225555419921875" lon="-1.73112745396792888641357421875">
        <ele>1319.5999755859375</ele>
        <time>2022-08-25T10:08:30.000Z</time>
      </trkpt>
      <trkpt lat="40.19893093965947628021240234375" lon="-1.73112795688211917877197265625">
        <ele>1320.199951171875</ele>
        <time>2022-08-25T10:08:39.000Z</time>
      </trkpt>
      <trkpt lat="40.19884921610355377197265625" lon="-1.7311273701488971710205078125">
        <ele>1320.4000244140625</ele>
        <time>2022-08-25T10:08:41.000Z</time>
      </trkpt>
      <trkpt lat="40.19847571849822998046875" lon="-1.73110934905707836151123046875">
        <ele>1321.199951171875</ele>
        <time>2022-08-25T10:08:51.000Z</time>
      </trkpt>
      <trkpt lat="40.19810196943581104278564453125" lon="-1.73106928355991840362548828125">
        <ele>1321.800048828125</ele>
        <time>2022-08-25T10:09:02.000Z</time>
      </trkpt>
      <trkpt lat="40.197734422981739044189453125" lon="-1.73104816116392612457275390625">
        <ele>1322.199951171875</ele>
        <time>2022-08-25T10:09:12.000Z</time>
      </trkpt>
      <trkpt lat="40.1976930163800716400146484375" lon="-1.731047071516513824462890625">
        <ele>1322.4000244140625</ele>
        <time>2022-08-25T10:09:13.000Z</time>
      </trkpt>
      <trkpt lat="40.19738665781915187835693359375" lon="-1.73100440762937068939208984375">
        <ele>1323.4000244140625</ele>
        <time>2022-08-25T10:09:21.000Z</time>
      </trkpt>
      <trkpt lat="40.1972700655460357666015625" lon="-1.73098663799464702606201171875">
        <ele>1323.4000244140625</ele>
        <time>2022-08-25T10:09:24.000Z</time>
      </trkpt>
      <trkpt lat="40.1970724202692508697509765625" lon="-1.73100960440933704376220703125">
        <ele>1323.800048828125</ele>
        <time>2022-08-25T10:09:29.000Z</time>
      </trkpt>
      <trkpt lat="40.19670185633003711700439453125" lon="-1.73101882450282573699951171875">
        <ele>1324</ele>
        <time>2022-08-25T10:09:39.000Z</time>
      </trkpt>
      <trkpt lat="40.19628477282822132110595703125" lon="-1.7310147173702716827392578125">
        <ele>1324</ele>
        <time>2022-08-25T10:09:50.000Z</time>
      </trkpt>
      <trkpt lat="40.196021161973476409912109375" lon="-1.731074564158916473388671875">
        <ele>1324.4000244140625</ele>
        <time>2022-08-25T10:09:58.000Z</time>
      </trkpt>
      <trkpt lat="40.195756964385509490966796875" lon="-1.731179840862751007080078125">
        <ele>1324.800048828125</ele>
        <time>2022-08-25T10:10:07.000Z</time>
      </trkpt>
      <trkpt lat="40.19568731077015399932861328125" lon="-1.731202639639377593994140625">
        <ele>1325.4000244140625</ele>
        <time>2022-08-25T10:10:10.000Z</time>
      </trkpt>
      <trkpt lat="40.1956193335354328155517578125" lon="-1.7312246002256870269775390625">
        <ele>1325.800048828125</ele>
        <time>2022-08-25T10:10:13.000Z</time>
      </trkpt>
      <trkpt lat="40.195502825081348419189453125" lon="-1.731299199163913726806640625">
        <ele>1326.5999755859375</ele>
        <time>2022-08-25T10:10:19.000Z</time>
      </trkpt>
      <trkpt lat="40.19541925750672817230224609375" lon="-1.7313563637435436248779296875">
        <ele>1327.199951171875</ele>
        <time>2022-08-25T10:10:23.000Z</time>
      </trkpt>
      <trkpt lat="40.19535320810973644256591796875" lon="-1.73140279948711395263671875">
        <ele>1327.5999755859375</ele>
        <time>2022-08-25T10:10:26.000Z</time>
      </trkpt>
      <trkpt lat="40.1952176727354526519775390625" lon="-1.7315032146871089935302734375">
        <ele>1328.800048828125</ele>
        <time>2022-08-25T10:10:32.000Z</time>
      </trkpt>
      <trkpt lat="40.1951952092349529266357421875" lon="-1.7315196432173252105712890625">
        <ele>1328.800048828125</ele>
        <time>2022-08-25T10:10:33.000Z</time>
      </trkpt>
      <trkpt lat="40.19504944793879985809326171875" lon="-1.73164277337491512298583984375">
        <ele>1329.800048828125</ele>
        <time>2022-08-25T10:10:39.000Z</time>
      </trkpt>
      <trkpt lat="40.19498993642628192901611328125" lon="-1.73172726295888423919677734375">
        <ele>1330</ele>
        <time>2022-08-25T10:10:42.000Z</time>
      </trkpt>
      <trkpt lat="40.1949420757591724395751953125" lon="-1.7318190447986125946044921875">
        <ele>1330.5999755859375</ele>
        <time>2022-08-25T10:10:45.000Z</time>
      </trkpt>
      <trkpt lat="40.19492858089506626129150390625" lon="-1.7318498902022838592529296875">
        <ele>1330.800048828125</ele>
        <time>2022-08-25T10:10:46.000Z</time>
      </trkpt>
      <trkpt lat="40.19486320205032825469970703125" lon="-1.73202984966337680816650390625">
        <ele>1331.5999755859375</ele>
        <time>2022-08-25T10:10:52.000Z</time>
      </trkpt>
      <trkpt lat="40.1948314346373081207275390625" lon="-1.73211668618023395538330078125">
        <ele>1331.800048828125</ele>
        <time>2022-08-25T10:10:55.000Z</time>
      </trkpt>
      <trkpt lat="40.194762535393238067626953125" lon="-1.7322844080626964569091796875">
        <ele>1333</ele>
        <time>2022-08-25T10:11:01.000Z</time>
      </trkpt>
      <trkpt lat="40.19475155510008335113525390625" lon="-1.7323100566864013671875">
        <ele>1333.199951171875</ele>
        <time>2022-08-25T10:11:02.000Z</time>
      </trkpt>
      <trkpt lat="40.19470294006168842315673828125" lon="-1.73243033699691295623779296875">
        <ele>1334</ele>
        <time>2022-08-25T10:11:07.000Z</time>
      </trkpt>
      <trkpt lat="40.1946155168116092681884765625" lon="-1.7326069436967372894287109375">
        <ele>1335.199951171875</ele>
        <time>2022-08-25T10:11:15.000Z</time>
      </trkpt>
      <trkpt lat="40.194558687508106231689453125" lon="-1.732748262584209442138671875">
        <ele>1336.199951171875</ele>
        <time>2022-08-25T10:11:21.000Z</time>
      </trkpt>
      <trkpt lat="40.19450646825134754180908203125" lon="-1.732872985303401947021484375">
        <ele>1337</ele>
        <time>2022-08-25T10:11:26.000Z</time>
      </trkpt>
      <trkpt lat="40.19448517821729183197021484375" lon="-1.73292587511241436004638671875">
        <ele>1337.199951171875</ele>
        <time>2022-08-25T10:11:28.000Z</time>
      </trkpt>
      <trkpt lat="40.19443136639893054962158203125" lon="-1.73304540105164051055908203125">
        <ele>1338.4000244140625</ele>
        <time>2022-08-25T10:11:33.000Z</time>
      </trkpt>
      <trkpt lat="40.1943908818066120147705078125" lon="-1.7331536114215850830078125">
        <ele>1339</ele>
        <time>2022-08-25T10:11:38.000Z</time>
      </trkpt>
      <trkpt lat="40.19436598755419254302978515625" lon="-1.733202897012233734130859375">
        <ele>1339.199951171875</ele>
        <time>2022-08-25T10:11:40.000Z</time>
      </trkpt>
      <trkpt lat="40.19430345855653285980224609375" lon="-1.7333851195871829986572265625">
        <ele>1340.4000244140625</ele>
        <time>2022-08-25T10:11:47.000Z</time>
      </trkpt>
      <trkpt lat="40.1942262612283229827880859375" lon="-1.73356306739151477813720703125">
        <ele>1341.4000244140625</ele>
        <time>2022-08-25T10:11:55.000Z</time>
      </trkpt>
      <trkpt lat="40.194194577634334564208984375" lon="-1.73364873044192790985107421875">
        <ele>1341.800048828125</ele>
        <time>2022-08-25T10:11:58.000Z</time>
      </trkpt>
      <trkpt lat="40.19409575499594211578369140625" lon="-1.73390035517513751983642578125">
        <ele>1342.5999755859375</ele>
        <time>2022-08-25T10:12:07.000Z</time>
      </trkpt>
      <trkpt lat="40.19408083520829677581787109375" lon="-1.73392348922789096832275390625">
        <ele>1342.5999755859375</ele>
        <time>2022-08-25T10:12:08.000Z</time>
      </trkpt>
      <trkpt lat="40.1939969323575496673583984375" lon="-1.7341304384171962738037109375">
        <ele>1343.5999755859375</ele>
        <time>2022-08-25T10:12:16.000Z</time>
      </trkpt>
      <trkpt lat="40.1939647458493709564208984375" lon="-1.73419858328998088836669921875">
        <ele>1344</ele>
        <time>2022-08-25T10:12:19.000Z</time>
      </trkpt>
      <trkpt lat="40.19391822628676891326904296875" lon="-1.734294556081295013427734375">
        <ele>1344.800048828125</ele>
        <time>2022-08-25T10:12:23.000Z</time>
      </trkpt>
      <trkpt lat="40.193855278193950653076171875" lon="-1.7344281636178493499755859375">
        <ele>1345.800048828125</ele>
        <time>2022-08-25T10:12:28.000Z</time>
      </trkpt>
      <trkpt lat="40.1938410289585590362548828125" lon="-1.7344496212899684906005859375">
        <ele>1345.800048828125</ele>
        <time>2022-08-25T10:12:29.000Z</time>
      </trkpt>
      <trkpt lat="40.19372946582734584808349609375" lon="-1.73461206257343292236328125">
        <ele>1346.800048828125</ele>
        <time>2022-08-25T10:12:36.000Z</time>
      </trkpt>
      <trkpt lat="40.19356501288712024688720703125" lon="-1.7348254658281803131103515625">
        <ele>1347.800048828125</ele>
        <time>2022-08-25T10:12:45.000Z</time>
      </trkpt>
      <trkpt lat="40.1935215108096599578857421875" lon="-1.73485974781215190887451171875">
        <ele>1348</ele>
        <time>2022-08-25T10:12:47.000Z</time>
      </trkpt>
      <trkpt lat="40.1933501847088336944580078125" lon="-1.73500827513635158538818359375">
        <ele>1349</ele>
        <time>2022-08-25T10:12:56.000Z</time>
      </trkpt>
      <trkpt lat="40.19328673370182514190673828125" lon="-1.73505320213735103607177734375">
        <ele>1349.199951171875</ele>
        <time>2022-08-25T10:12:59.000Z</time>
      </trkpt>
      <trkpt lat="40.19312362186610698699951171875" lon="-1.73517658375203609466552734375">
        <ele>1349.800048828125</ele>
        <time>2022-08-25T10:13:06.000Z</time>
      </trkpt>
      <trkpt lat="40.19308255054056644439697265625" lon="-1.73520843498408794403076171875">
        <ele>1350</ele>
        <time>2022-08-25T10:13:08.000Z</time>
      </trkpt>
      <trkpt lat="40.19290669821202754974365234375" lon="-1.73533902503550052642822265625">
        <ele>1350.800048828125</ele>
        <time>2022-08-25T10:13:17.000Z</time>
      </trkpt>
      <trkpt lat="40.192781053483486175537109375" lon="-1.73542200587689876556396484375">
        <ele>1352</ele>
        <time>2022-08-25T10:13:24.000Z</time>
      </trkpt>
      <trkpt lat="40.1927292533218860626220703125" lon="-1.735455282032489776611328125">
        <ele>1352.4000244140625</ele>
        <time>2022-08-25T10:13:27.000Z</time>
      </trkpt>
      <trkpt lat="40.19268147647380828857421875" lon="-1.7354978621006011962890625">
        <ele>1353</ele>
        <time>2022-08-25T10:13:30.000Z</time>
      </trkpt>
      <trkpt lat="40.192574523389339447021484375" lon="-1.73557908274233341217041015625">
        <ele>1354</ele>
        <time>2022-08-25T10:13:36.000Z</time>
      </trkpt>
      <trkpt lat="40.19255666993558406829833984375" lon="-1.7355952598154544830322265625">
        <ele>1354.199951171875</ele>
        <time>2022-08-25T10:13:37.000Z</time>
      </trkpt>
      <trkpt lat="40.1924291811883449554443359375" lon="-1.73567715100944042205810546875">
        <ele>1355</ele>
        <time>2022-08-25T10:13:43.000Z</time>
      </trkpt>
      <trkpt lat="40.192369334399700164794921875" lon="-1.7357223294675350189208984375">
        <ele>1355.4000244140625</ele>
        <time>2022-08-25T10:13:46.000Z</time>
      </trkpt>
      <trkpt lat="40.1922704279422760009765625" lon="-1.73579650931060314178466796875">
        <ele>1356.199951171875</ele>
        <time>2022-08-25T10:13:51.000Z</time>
      </trkpt>
      <trkpt lat="40.19217127002775669097900390625" lon="-1.7358748801052570343017578125">
        <ele>1356.800048828125</ele>
        <time>2022-08-25T10:13:57.000Z</time>
      </trkpt>
      <trkpt lat="40.19212366081774234771728515625" lon="-1.73591335304081439971923828125">
        <ele>1357.199951171875</ele>
        <time>2022-08-25T10:14:00.000Z</time>
      </trkpt>
      <trkpt lat="40.1920382492244243621826171875" lon="-1.73598241992294788360595703125">
        <ele>1358.199951171875</ele>
        <time>2022-08-25T10:14:05.000Z</time>
      </trkpt>
      <trkpt lat="40.191906988620758056640625" lon="-1.73607210628688335418701171875">
        <ele>1359.4000244140625</ele>
        <time>2022-08-25T10:14:12.000Z</time>
      </trkpt>
      <trkpt lat="40.19182853400707244873046875" lon="-1.73611753620207309722900390625">
        <ele>1360.199951171875</ele>
        <time>2022-08-25T10:14:16.000Z</time>
      </trkpt>
      <trkpt lat="40.191781930625438690185546875" lon="-1.73615139909088611602783203125">
        <ele>1360.5999755859375</ele>
        <time>2022-08-25T10:14:18.000Z</time>
      </trkpt>
      <trkpt lat="40.19163181073963642120361328125" lon="-1.73625499941408634185791015625">
        <ele>1361.5999755859375</ele>
        <time>2022-08-25T10:14:24.000Z</time>
      </trkpt>
      <trkpt lat="40.19156031310558319091796875" lon="-1.7362864315509796142578125">
        <ele>1361.800048828125</ele>
        <time>2022-08-25T10:14:27.000Z</time>
      </trkpt>
      <trkpt lat="40.19142645411193370819091796875" lon="-1.7363248206675052642822265625">
        <ele>1362.5999755859375</ele>
        <time>2022-08-25T10:14:33.000Z</time>
      </trkpt>
      <trkpt lat="40.191362835466861724853515625" lon="-1.73633999191224575042724609375">
        <ele>1362.800048828125</ele>
        <time>2022-08-25T10:14:36.000Z</time>
      </trkpt>
      <trkpt lat="40.191247500479221343994140625" lon="-1.736404113471508026123046875">
        <ele>1363.5999755859375</ele>
        <time>2022-08-25T10:14:42.000Z</time>
      </trkpt>
      <trkpt lat="40.19122445024549961090087890625" lon="-1.73641107045114040374755859375">
        <ele>1363.5999755859375</ele>
        <time>2022-08-25T10:14:43.000Z</time>
      </trkpt>
      <trkpt lat="40.191113390028476715087890625" lon="-1.736443005502223968505859375">
        <ele>1364.4000244140625</ele>
        <time>2022-08-25T10:14:48.000Z</time>
      </trkpt>
      <trkpt lat="40.19106133840978145599365234375" lon="-1.73647661693394184112548828125">
        <ele>1364.800048828125</ele>
        <time>2022-08-25T10:14:51.000Z</time>
      </trkpt>
      <trkpt lat="40.19097953103482723236083984375" lon="-1.73652808181941509246826171875">
        <ele>1365.4000244140625</ele>
        <time>2022-08-25T10:14:56.000Z</time>
      </trkpt>
      <trkpt lat="40.19094918854534626007080078125" lon="-1.73654417507350444793701171875">
        <ele>1365.800048828125</ele>
        <time>2022-08-25T10:14:58.000Z</time>
      </trkpt>
      <trkpt lat="40.19079680554568767547607421875" lon="-1.7366212047636508941650390625">
        <ele>1366.4000244140625</ele>
        <time>2022-08-25T10:15:05.000Z</time>
      </trkpt>
      <trkpt lat="40.19072086550295352935791015625" lon="-1.7366718314588069915771484375">
        <ele>1367</ele>
        <time>2022-08-25T10:15:09.000Z</time>
      </trkpt>
      <trkpt lat="40.19056345336139202117919921875" lon="-1.73676797188818454742431640625">
        <ele>1367.800048828125</ele>
        <time>2022-08-25T10:15:16.000Z</time>
      </trkpt>
      <trkpt lat="40.19051483832299709320068359375" lon="-1.7367989011108875274658203125">
        <ele>1368.199951171875</ele>
        <time>2022-08-25T10:15:18.000Z</time>
      </trkpt>
      <trkpt lat="40.19030730240046977996826171875" lon="-1.73696394078433513641357421875">
        <ele>1368.800048828125</ele>
        <time>2022-08-25T10:15:26.000Z</time>
      </trkpt>
      <trkpt lat="40.19020319916307926177978515625" lon="-1.73705077730119228363037109375">
        <ele>1369.199951171875</ele>
        <time>2022-08-25T10:15:30.000Z</time>
      </trkpt>
      <trkpt lat="40.1899592019617557525634765625" lon="-1.7372247017920017242431640625">
        <ele>1370</ele>
        <time>2022-08-25T10:15:39.000Z</time>
      </trkpt>
      <trkpt lat="40.18991268239915370941162109375" lon="-1.73726367764174938201904296875">
        <ele>1370.199951171875</ele>
        <time>2022-08-25T10:15:41.000Z</time>
      </trkpt>
      <trkpt lat="40.189841687679290771484375" lon="-1.7373128794133663177490234375">
        <ele>1371</ele>
        <time>2022-08-25T10:15:44.000Z</time>
      </trkpt>
      <trkpt lat="40.18973649479448795318603515625" lon="-1.737389825284481048583984375">
        <ele>1371.4000244140625</ele>
        <time>2022-08-25T10:15:48.000Z</time>
      </trkpt>
      <trkpt lat="40.1895077526569366455078125" lon="-1.7375623248517513275146484375">
        <ele>1372.199951171875</ele>
        <time>2022-08-25T10:15:57.000Z</time>
      </trkpt>
      <trkpt lat="40.1894851215183734893798828125" lon="-1.73758126795291900634765625">
        <ele>1372.199951171875</ele>
        <time>2022-08-25T10:15:58.000Z</time>
      </trkpt>
      <trkpt lat="40.1892980374395847320556640625" lon="-1.7377235926687717437744140625">
        <ele>1373</ele>
        <time>2022-08-25T10:16:06.000Z</time>
      </trkpt>
      <trkpt lat="40.18903476186096668243408203125" lon="-1.73791361041367053985595703125">
        <ele>1373.199951171875</ele>
        <time>2022-08-25T10:16:15.000Z</time>
      </trkpt>
      <trkpt lat="40.18872697837650775909423828125" lon="-1.7381540872156620025634765625">
        <ele>1373.4000244140625</ele>
        <time>2022-08-25T10:16:25.000Z</time>
      </trkpt>
      <trkpt lat="40.188378877937793731689453125" lon="-1.738539822399616241455078125">
        <ele>1373.4000244140625</ele>
        <time>2022-08-25T10:16:37.000Z</time>
      </trkpt>
      <trkpt lat="40.18807788379490375518798828125" lon="-1.73892530612647533416748046875">
        <ele>1374.199951171875</ele>
        <time>2022-08-25T10:16:48.000Z</time>
      </trkpt>
      <trkpt lat="40.1880531571805477142333984375" lon="-1.73895816318690776824951171875">
        <ele>1374.199951171875</ele>
        <time>2022-08-25T10:16:49.000Z</time>
      </trkpt>
      <trkpt lat="40.18780563957989215850830078125" lon="-1.73924096859991550445556640625">
        <ele>1375.199951171875</ele>
        <time>2022-08-25T10:16:58.000Z</time>
      </trkpt>
      <trkpt lat="40.18777881748974323272705078125" lon="-1.7392735742032527923583984375">
        <ele>1375.199951171875</ele>
        <time>2022-08-25T10:16:59.000Z</time>
      </trkpt>
      <trkpt lat="40.18757647834718227386474609375" lon="-1.73954674042761325836181640625">
        <ele>1376</ele>
        <time>2022-08-25T10:17:08.000Z</time>
      </trkpt>
      <trkpt lat="40.18748327158391475677490234375" lon="-1.73965788446366786956787109375">
        <ele>1376.4000244140625</ele>
        <time>2022-08-25T10:17:13.000Z</time>
      </trkpt>
      <trkpt lat="40.1874157972633838653564453125" lon="-1.73974354751408100128173828125">
        <ele>1376.4000244140625</ele>
        <time>2022-08-25T10:17:16.000Z</time>
      </trkpt>
      <trkpt lat="40.1871821098029613494873046875" lon="-1.74008309841156005859375">
        <ele>1377</ele>
        <time>2022-08-25T10:17:25.000Z</time>
      </trkpt>
      <trkpt lat="40.1870419643819332122802734375" lon="-1.74028015695512294769287109375">
        <ele>1377.199951171875</ele>
        <time>2022-08-25T10:17:30.000Z</time>
      </trkpt>
      <trkpt lat="40.18685077317059040069580078125" lon="-1.74056396819651126861572265625">
        <ele>1377.5999755859375</ele>
        <time>2022-08-25T10:17:37.000Z</time>
      </trkpt>
      <trkpt lat="40.18655556254088878631591796875" lon="-1.741011142730712890625">
        <ele>1378</ele>
        <time>2022-08-25T10:17:47.000Z</time>
      </trkpt>
      <trkpt lat="40.1863097213208675384521484375" lon="-1.74144322983920574188232421875">
        <ele>1377.800048828125</ele>
        <time>2022-08-25T10:17:56.000Z</time>
      </trkpt>
      <trkpt lat="40.18598190508782863616943359375" lon="-1.74202107824385166168212890625">
        <ele>1377</ele>
        <time>2022-08-25T10:18:06.000Z</time>
      </trkpt>
      <trkpt lat="40.18575056456029415130615234375" lon="-1.74239910207688808441162109375">
        <ele>1376.5999755859375</ele>
        <time>2022-08-25T10:18:13.000Z</time>
      </trkpt>
      <trkpt lat="40.18566758371889591217041015625" lon="-1.74246850423514842987060546875">
        <ele>1376.5999755859375</ele>
        <time>2022-08-25T10:18:15.000Z</time>
      </trkpt>
      <trkpt lat="40.1854862831532955169677734375" lon="-1.74254712648689746856689453125">
        <ele>1376.5999755859375</ele>
        <time>2022-08-25T10:18:19.000Z</time>
      </trkpt>
      <trkpt lat="40.1854426972568035125732421875" lon="-1.74255819059908390045166015625">
        <ele>1376.5999755859375</ele>
        <time>2022-08-25T10:18:20.000Z</time>
      </trkpt>
      <trkpt lat="40.1851974427700042724609375" lon="-1.74250471405684947967529296875">
        <ele>1377</ele>
        <time>2022-08-25T10:18:27.000Z</time>
      </trkpt>
      <trkpt lat="40.185032151639461517333984375" lon="-1.74232014454901218414306640625">
        <ele>1378.199951171875</ele>
        <time>2022-08-25T10:18:33.000Z</time>
      </trkpt>
      <trkpt lat="40.1848422177135944366455078125" lon="-1.74200364388525485992431640625">
        <ele>1378.800048828125</ele>
        <time>2022-08-25T10:18:42.000Z</time>
      </trkpt>
      <trkpt lat="40.1846387051045894622802734375" lon="-1.74165495671331882476806640625">
        <ele>1378.800048828125</ele>
        <time>2022-08-25T10:18:49.000Z</time>
      </trkpt>
      <trkpt lat="40.1844499446451663970947265625" lon="-1.74132152460515499114990234375">
        <ele>1378.4000244140625</ele>
        <time>2022-08-25T10:18:54.000Z</time>
      </trkpt>
      <trkpt lat="40.184163115918636322021484375" lon="-1.74087074585258960723876953125">
        <ele>1377.199951171875</ele>
        <time>2022-08-25T10:19:00.000Z</time>
      </trkpt>
      <trkpt lat="40.18410838209092617034912109375" lon="-1.74079346470534801483154296875">
        <ele>1376.800048828125</ele>
        <time>2022-08-25T10:19:01.000Z</time>
      </trkpt>
      <trkpt lat="40.18393873237073421478271484375" lon="-1.7405492998659610748291015625">
        <ele>1375.800048828125</ele>
        <time>2022-08-25T10:19:04.000Z</time>
      </trkpt>
      <trkpt lat="40.18383379094302654266357421875" lon="-1.7403672449290752410888671875">
        <ele>1374.800048828125</ele>
        <time>2022-08-25T10:19:06.000Z</time>
      </trkpt>
      <trkpt lat="40.183778889477252960205078125" lon="-1.74027512781322002410888671875">
        <ele>1374.5999755859375</ele>
        <time>2022-08-25T10:19:07.000Z</time>
      </trkpt>
      <trkpt lat="40.18361250869929790496826171875" lon="-1.739986203610897064208984375">
        <ele>1373.199951171875</ele>
        <time>2022-08-25T10:19:10.000Z</time>
      </trkpt>
      <trkpt lat="40.18339776434004306793212890625" lon="-1.7395962774753570556640625">
        <ele>1372.199951171875</ele>
        <time>2022-08-25T10:19:14.000Z</time>
      </trkpt>
      <trkpt lat="40.183345377445220947265625" lon="-1.73949879594147205352783203125">
        <ele>1371.800048828125</ele>
        <time>2022-08-25T10:19:15.000Z</time>
      </trkpt>
      <trkpt lat="40.18323029391467571258544921875" lon="-1.739304251968860626220703125">
        <ele>1371</ele>
        <time>2022-08-25T10:19:17.000Z</time>
      </trkpt>
      <trkpt lat="40.1830374263226985931396484375" lon="-1.7389996536076068878173828125">
        <ele>1369.5999755859375</ele>
        <time>2022-08-25T10:19:20.000Z</time>
      </trkpt>
      <trkpt lat="40.182964503765106201171875" lon="-1.7389191873371601104736328125">
        <ele>1369.199951171875</ele>
        <time>2022-08-25T10:19:21.000Z</time>
      </trkpt>
      <trkpt lat="40.18287087790668010711669921875" lon="-1.73886068165302276611328125">
        <ele>1368.800048828125</ele>
        <time>2022-08-25T10:19:22.000Z</time>
      </trkpt>
      <trkpt lat="40.18277649767696857452392578125" lon="-1.73881776630878448486328125">
        <ele>1368.5999755859375</ele>
        <time>2022-08-25T10:19:23.000Z</time>
      </trkpt>
      <trkpt lat="40.1825727336108684539794921875" lon="-1.73876814544200897216796875">
        <ele>1367.4000244140625</ele>
        <time>2022-08-25T10:19:25.000Z</time>
      </trkpt>
      <trkpt lat="40.182249359786510467529296875" lon="-1.7387835681438446044921875">
        <ele>1366.4000244140625</ele>
        <time>2022-08-25T10:19:28.000Z</time>
      </trkpt>
      <trkpt lat="40.18214165233075618743896484375" lon="-1.73879940994083881378173828125">
        <ele>1365.5999755859375</ele>
        <time>2022-08-25T10:19:29.000Z</time>
      </trkpt>
      <trkpt lat="40.1820336095988750457763671875" lon="-1.73882522620260715484619140625">
        <ele>1365</ele>
        <time>2022-08-25T10:19:30.000Z</time>
      </trkpt>
      <trkpt lat="40.1817348785698413848876953125" lon="-1.73892647959291934967041015625">
        <ele>1363.5999755859375</ele>
        <time>2022-08-25T10:19:33.000Z</time>
      </trkpt>
      <trkpt lat="40.18164477311074733734130859375" lon="-1.7389755137264728546142578125">
        <ele>1363.4000244140625</ele>
        <time>2022-08-25T10:19:34.000Z</time>
      </trkpt>
      <trkpt lat="40.1814864389598369598388671875" lon="-1.73907601274549961090087890625">
        <ele>1362.5999755859375</ele>
        <time>2022-08-25T10:19:36.000Z</time>
      </trkpt>
      <trkpt lat="40.18134914338588714599609375" lon="-1.73917525447905063629150390625">
        <ele>1362</ele>
        <time>2022-08-25T10:19:38.000Z</time>
      </trkpt>
      <trkpt lat="40.18128636293113231658935546875" lon="-1.73922370187938213348388671875">
        <ele>1361.5999755859375</ele>
        <time>2022-08-25T10:19:39.000Z</time>
      </trkpt>
      <trkpt lat="40.181080587208271026611328125" lon="-1.73937742598354816436767578125">
        <ele>1361</ele>
        <time>2022-08-25T10:19:43.000Z</time>
      </trkpt>
      <trkpt lat="40.18085285089910030364990234375" lon="-1.73956668935716152191162109375">
        <ele>1361</ele>
        <time>2022-08-25T10:19:49.000Z</time>
      </trkpt>
      <trkpt lat="40.18059787340462207794189453125" lon="-1.73975092358887195587158203125">
        <ele>1361.5999755859375</ele>
        <time>2022-08-25T10:19:57.000Z</time>
      </trkpt>
      <trkpt lat="40.18056929111480712890625" lon="-1.7397714592516422271728515625">
        <ele>1361.800048828125</ele>
        <time>2022-08-25T10:19:58.000Z</time>
      </trkpt>
      <trkpt lat="40.18040056340396404266357421875" lon="-1.73985720612108707427978515625">
        <ele>1362.5999755859375</ele>
        <time>2022-08-25T10:20:05.000Z</time>
      </trkpt>
      <trkpt lat="40.18035848625004291534423828125" lon="-1.73989525996148586273193359375">
        <ele>1362.800048828125</ele>
        <time>2022-08-25T10:20:11.000Z</time>
      </trkpt>
      <trkpt lat="40.18024315126240253448486328125" lon="-1.73993867821991443634033203125">
        <ele>1362.800048828125</ele>
        <time>2022-08-25T10:21:11.000Z</time>
      </trkpt>
      <trkpt lat="40.18019537441432476043701171875" lon="-1.739955358207225799560546875">
        <ele>1362.800048828125</ele>
        <time>2022-08-25T10:21:13.000Z</time>
      </trkpt>
      <trkpt lat="40.17995707690715789794921875" lon="-1.74002484418451786041259765625">
        <ele>1363.4000244140625</ele>
        <time>2022-08-25T10:21:20.000Z</time>
      </trkpt>
      <trkpt lat="40.1799188554286956787109375" lon="-1.74003909341990947723388671875">
        <ele>1363.4000244140625</ele>
        <time>2022-08-25T10:21:21.000Z</time>
      </trkpt>
      <trkpt lat="40.179609395563602447509765625" lon="-1.74010363407433032989501953125">
        <ele>1364.199951171875</ele>
        <time>2022-08-25T10:21:29.000Z</time>
      </trkpt>
      <trkpt lat="40.1795750297605991363525390625" lon="-1.740112602710723876953125">
        <ele>1364.4000244140625</ele>
        <time>2022-08-25T10:21:30.000Z</time>
      </trkpt>
      <trkpt lat="40.17923681996762752532958984375" lon="-1.74014168791472911834716796875">
        <ele>1365.4000244140625</ele>
        <time>2022-08-25T10:21:40.000Z</time>
      </trkpt>
      <trkpt lat="40.17904001288115978240966796875" lon="-1.74010296352207660675048828125">
        <ele>1366.5999755859375</ele>
        <time>2022-08-25T10:21:46.000Z</time>
      </trkpt>
      <trkpt lat="40.17892350442707538604736328125" lon="-1.74005770124495029449462890625">
        <ele>1367.4000244140625</ele>
        <time>2022-08-25T10:21:50.000Z</time>
      </trkpt>
      <trkpt lat="40.178867764770984649658203125" lon="-1.740032471716403961181640625">
        <ele>1367.800048828125</ele>
        <time>2022-08-25T10:21:52.000Z</time>
      </trkpt>
      <trkpt lat="40.1786329038441181182861328125" lon="-1.7399588786065578460693359375">
        <ele>1368.800048828125</ele>
        <time>2022-08-25T10:22:00.000Z</time>
      </trkpt>
      <trkpt lat="40.1783351786434650421142578125" lon="-1.73984496854245662689208984375">
        <ele>1370</ele>
        <time>2022-08-25T10:22:10.000Z</time>
      </trkpt>
      <trkpt lat="40.1783050037920475006103515625" lon="-1.739831306040287017822265625">
        <ele>1370</ele>
        <time>2022-08-25T10:22:11.000Z</time>
      </trkpt>
      <trkpt lat="40.1780535466969013214111328125" lon="-1.7396748997271060943603515625">
        <ele>1370.4000244140625</ele>
        <time>2022-08-25T10:22:21.000Z</time>
      </trkpt>
      <trkpt lat="40.17785514704883098602294921875" lon="-1.73953793942928314208984375">
        <ele>1370.800048828125</ele>
        <time>2022-08-25T10:22:29.000Z</time>
      </trkpt>
      <trkpt lat="40.1778265647590160369873046875" lon="-1.73952176235616207122802734375">
        <ele>1371</ele>
        <time>2022-08-25T10:22:30.000Z</time>
      </trkpt>
      <trkpt lat="40.17759530805051326751708984375" lon="-1.739344485104084014892578125">
        <ele>1372.199951171875</ele>
        <time>2022-08-25T10:22:39.000Z</time>
      </trkpt>
      <trkpt lat="40.17745616845786571502685546875" lon="-1.7391709797084331512451171875">
        <ele>1372.5999755859375</ele>
        <time>2022-08-25T10:22:46.000Z</time>
      </trkpt>
      <trkpt lat="40.1773886941373348236083984375" lon="-1.7389885894954204559326171875">
        <ele>1373.4000244140625</ele>
        <time>2022-08-25T10:22:53.000Z</time>
      </trkpt>
      <trkpt lat="40.1773761212825775146484375" lon="-1.738925389945507049560546875">
        <ele>1373.5999755859375</ele>
        <time>2022-08-25T10:22:55.000Z</time>
      </trkpt>
      <trkpt lat="40.17736245878040790557861328125" lon="-1.7388018406927585601806640625">
        <ele>1374.199951171875</ele>
        <time>2022-08-25T10:22:59.000Z</time>
      </trkpt>
      <trkpt lat="40.1773296855390071868896484375" lon="-1.7386673949658870697021484375">
        <ele>1375</ele>
        <time>2022-08-25T10:23:04.000Z</time>
      </trkpt>
      <trkpt lat="40.17730361782014369964599609375" lon="-1.73860578797757625579833984375">
        <ele>1375.5999755859375</ele>
        <time>2022-08-25T10:23:06.000Z</time>
      </trkpt>
      <trkpt lat="40.177203118801116943359375" lon="-1.73845424316823482513427734375">
        <ele>1376.5999755859375</ele>
        <time>2022-08-25T10:23:12.000Z</time>
      </trkpt>
      <trkpt lat="40.1770165376365184783935546875" lon="-1.73824352212250232696533203125">
        <ele>1377.5999755859375</ele>
        <time>2022-08-25T10:23:20.000Z</time>
      </trkpt>
      <trkpt lat="40.1768224127590656280517578125" lon="-1.738025508821010589599609375">
        <ele>1378.5999755859375</ele>
        <time>2022-08-25T10:23:29.000Z</time>
      </trkpt>
      <trkpt lat="40.17677522264420986175537109375" lon="-1.737981922924518585205078125">
        <ele>1379</ele>
        <time>2022-08-25T10:23:31.000Z</time>
      </trkpt>
      <trkpt lat="40.1767520047724246978759765625" lon="-1.7379629798233509063720703125">
        <ele>1379</ele>
        <time>2022-08-25T10:23:32.000Z</time>
      </trkpt>
      <trkpt lat="40.17664882354438304901123046875" lon="-1.73790204338729381561279296875">
        <ele>1379.5999755859375</ele>
        <time>2022-08-25T10:23:36.000Z</time>
      </trkpt>
      <trkpt lat="40.17655461095273494720458984375" lon="-1.73784303478896617889404296875">
        <ele>1380</ele>
        <time>2022-08-25T10:23:40.000Z</time>
      </trkpt>
      <trkpt lat="40.1764214225113391876220703125" lon="-1.73774429596960544586181640625">
        <ele>1380.5999755859375</ele>
        <time>2022-08-25T10:23:46.000Z</time>
      </trkpt>
      <trkpt lat="40.1762817800045013427734375" lon="-1.7376806773245334625244140625">
        <ele>1381.199951171875</ele>
        <time>2022-08-25T10:23:52.000Z</time>
      </trkpt>
      <trkpt lat="40.1761625893414020538330078125" lon="-1.73760532401502132415771484375">
        <ele>1381.5999755859375</ele>
        <time>2022-08-25T10:23:57.000Z</time>
      </trkpt>
      <trkpt lat="40.1760070212185382843017578125" lon="-1.73752837814390659332275390625">
        <ele>1382</ele>
        <time>2022-08-25T10:24:04.000Z</time>
      </trkpt>
      <trkpt lat="40.175941474735736846923828125" lon="-1.73750004731118679046630859375">
        <ele>1382.4000244140625</ele>
        <time>2022-08-25T10:24:07.000Z</time>
      </trkpt>
      <trkpt lat="40.17576478421688079833984375" lon="-1.7374265380203723907470703125">
        <ele>1383.4000244140625</ele>
        <time>2022-08-25T10:24:15.000Z</time>
      </trkpt>
      <trkpt lat="40.1757414825260639190673828125" lon="-1.73741891048848628997802734375">
        <ele>1383.5999755859375</ele>
        <time>2022-08-25T10:24:16.000Z</time>
      </trkpt>
      <trkpt lat="40.17553252167999744415283203125" lon="-1.737375073134899139404296875">
        <ele>1384.5999755859375</ele>
        <time>2022-08-25T10:24:25.000Z</time>
      </trkpt>
      <trkpt lat="40.17537963576614856719970703125" lon="-1.73735336400568485260009765625">
        <ele>1385.4000244140625</ele>
        <time>2022-08-25T10:24:32.000Z</time>
      </trkpt>
      <trkpt lat="40.17533588223159313201904296875" lon="-1.73735059797763824462890625">
        <ele>1385.5999755859375</ele>
        <time>2022-08-25T10:24:34.000Z</time>
      </trkpt>
      <trkpt lat="40.17518735490739345550537109375" lon="-1.737360320985317230224609375">
        <ele>1386.4000244140625</ele>
        <time>2022-08-25T10:24:41.000Z</time>
      </trkpt>
      <trkpt lat="40.1751292683184146881103515625" lon="-1.7373645119369029998779296875">
        <ele>1386.800048828125</ele>
        <time>2022-08-25T10:24:44.000Z</time>
      </trkpt>
      <trkpt lat="40.17505592666566371917724609375" lon="-1.7373581416904926300048828125">
        <ele>1387.199951171875</ele>
        <time>2022-08-25T10:24:48.000Z</time>
      </trkpt>
      <trkpt lat="40.17494344152510166168212890625" lon="-1.7373738996684551239013671875">
        <ele>1388.199951171875</ele>
        <time>2022-08-25T10:24:55.000Z</time>
      </trkpt>
      <trkpt lat="40.17492986284196376800537109375" lon="-1.73738353885710239410400390625">
        <ele>1388.4000244140625</ele>
        <time>2022-08-25T10:24:56.000Z</time>
      </trkpt>
      <trkpt lat="40.1748025417327880859375" lon="-1.73742444254457950592041015625">
        <ele>1389.4000244140625</ele>
        <time>2022-08-25T10:25:03.000Z</time>
      </trkpt>
      <trkpt lat="40.17476373352110385894775390625" lon="-1.7374412901699542999267578125">
        <ele>1389.800048828125</ele>
        <time>2022-08-25T10:25:05.000Z</time>
      </trkpt>
      <trkpt lat="40.17465300858020782470703125" lon="-1.7374966107308864593505859375">
        <ele>1390.4000244140625</ele>
        <time>2022-08-25T10:25:11.000Z</time>
      </trkpt>
      <trkpt lat="40.17456315457820892333984375" lon="-1.73753843642771244049072265625">
        <ele>1391</ele>
        <time>2022-08-25T10:25:16.000Z</time>
      </trkpt>
      <trkpt lat="40.174525268375873565673828125" lon="-1.73755821771919727325439453125">
        <ele>1391.4000244140625</ele>
        <time>2022-08-25T10:25:18.000Z</time>
      </trkpt>
      <trkpt lat="40.17442543990910053253173828125" lon="-1.73760465346276760101318359375">
        <ele>1392.5999755859375</ele>
        <time>2022-08-25T10:25:23.000Z</time>
      </trkpt>
      <trkpt lat="40.17436441965401172637939453125" lon="-1.7376357503235340118408203125">
        <ele>1393.199951171875</ele>
        <time>2022-08-25T10:25:26.000Z</time>
      </trkpt>
      <trkpt lat="40.17430775798857212066650390625" lon="-1.73767573200166225433349609375">
        <ele>1393.800048828125</ele>
        <time>2022-08-25T10:25:29.000Z</time>
      </trkpt>
      <trkpt lat="40.1741925068199634552001953125" lon="-1.73776491545140743255615234375">
        <ele>1394.5999755859375</ele>
        <time>2022-08-25T10:25:36.000Z</time>
      </trkpt>
      <trkpt lat="40.1741777546703815460205078125" lon="-1.73777547664940357208251953125">
        <ele>1394.800048828125</ele>
        <time>2022-08-25T10:25:37.000Z</time>
      </trkpt>
      <trkpt lat="40.17409066669642925262451171875" lon="-1.73784068785607814788818359375">
        <ele>1395.800048828125</ele>
        <time>2022-08-25T10:25:43.000Z</time>
      </trkpt>
      <trkpt lat="40.174055881798267364501953125" lon="-1.73786046914756298065185546875">
        <ele>1396</ele>
        <time>2022-08-25T10:25:45.000Z</time>
      </trkpt>
      <trkpt lat="40.17397935502231121063232421875" lon="-1.7379133589565753936767578125">
        <ele>1396.800048828125</ele>
        <time>2022-08-25T10:25:49.000Z</time>
      </trkpt>
      <trkpt lat="40.1738575659692287445068359375" lon="-1.7379646562039852142333984375">
        <ele>1397.800048828125</ele>
        <time>2022-08-25T10:25:55.000Z</time>
      </trkpt>
      <trkpt lat="40.1738361082971096038818359375" lon="-1.73797479830682277679443359375">
        <ele>1397.800048828125</ele>
        <time>2022-08-25T10:25:56.000Z</time>
      </trkpt>
      <trkpt lat="40.17378020100295543670654296875" lon="-1.73798200674355030059814453125">
        <ele>1398.199951171875</ele>
        <time>2022-08-25T10:25:59.000Z</time>
      </trkpt>
      <trkpt lat="40.17376746051013469696044921875" lon="-1.73797479830682277679443359375">
        <ele>1398.199951171875</ele>
        <time>2022-08-25T10:26:00.000Z</time>
      </trkpt>
      <trkpt lat="40.17374315299093723297119140625" lon="-1.737953089177608489990234375">
        <ele>1398.4000244140625</ele>
        <time>2022-08-25T10:26:02.000Z</time>
      </trkpt>
      <trkpt lat="40.173721946775913238525390625" lon="-1.737932302057743072509765625">
        <ele>1398.800048828125</ele>
        <time>2022-08-25T10:26:04.000Z</time>
      </trkpt>
      <trkpt lat="40.17371314577758312225341796875" lon="-1.7378778196871280670166015625">
        <ele>1399.199951171875</ele>
        <time>2022-08-25T10:26:08.000Z</time>
      </trkpt>
      <trkpt lat="40.17371213994920253753662109375" lon="-1.73783532343804836273193359375">
        <ele>1399.4000244140625</ele>
        <time>2022-08-25T10:26:10.000Z</time>
      </trkpt>
      <trkpt lat="40.1737144030630588531494140625" lon="-1.737752594053745269775390625">
        <ele>1399.800048828125</ele>
        <time>2022-08-25T10:26:13.000Z</time>
      </trkpt>
      <trkpt lat="40.17373510636389255523681640625" lon="-1.7375834472477436065673828125">
        <ele>1400.4000244140625</ele>
        <time>2022-08-25T10:26:19.000Z</time>
      </trkpt>
      <trkpt lat="40.1737365312874317169189453125" lon="-1.73755754716694355010986328125">
        <ele>1400.5999755859375</ele>
        <time>2022-08-25T10:26:20.000Z</time>
      </trkpt>
      <trkpt lat="40.17375958152115345001220703125" lon="-1.73737297765910625457763671875">
        <ele>1401.800048828125</ele>
        <time>2022-08-25T10:26:27.000Z</time>
      </trkpt>
      <trkpt lat="40.173768214881420135498046875" lon="-1.737323105335235595703125">
        <ele>1402</ele>
        <time>2022-08-25T10:26:29.000Z</time>
      </trkpt>
      <trkpt lat="40.1737791113555431365966796875" lon="-1.737220175564289093017578125">
        <ele>1402.800048828125</ele>
        <time>2022-08-25T10:26:33.000Z</time>
      </trkpt>
      <trkpt lat="40.1737881638109683990478515625" lon="-1.73707894049584865570068359375">
        <ele>1403.800048828125</ele>
        <time>2022-08-25T10:26:39.000Z</time>
      </trkpt>
      <trkpt lat="40.1738112978637218475341796875" lon="-1.7369631864130496978759765625">
        <ele>1405</ele>
        <time>2022-08-25T10:26:44.000Z</time>
      </trkpt>
      <trkpt lat="40.1738677918910980224609375" lon="-1.73683720640838146209716796875">
        <ele>1405.800048828125</ele>
        <time>2022-08-25T10:26:49.000Z</time>
      </trkpt>
      <trkpt lat="40.1738733239471912384033203125" lon="-1.73676612786948680877685546875">
        <ele>1406</ele>
        <time>2022-08-25T10:26:52.000Z</time>
      </trkpt>
      <trkpt lat="40.1738994754850864410400390625" lon="-1.736641488969326019287109375">
        <ele>1407</ele>
        <time>2022-08-25T10:26:57.000Z</time>
      </trkpt>
      <trkpt lat="40.17389989458024501800537109375" lon="-1.7365910299122333526611328125">
        <ele>1407.4000244140625</ele>
        <time>2022-08-25T10:26:59.000Z</time>
      </trkpt>
      <trkpt lat="40.1738984696567058563232421875" lon="-1.7364874295890331268310546875">
        <ele>1408.199951171875</ele>
        <time>2022-08-25T10:27:03.000Z</time>
      </trkpt>
      <trkpt lat="40.17391095869243144989013671875" lon="-1.7363533191382884979248046875">
        <ele>1409</ele>
        <time>2022-08-25T10:27:08.000Z</time>
      </trkpt>
      <trkpt lat="40.17391079105436801910400390625" lon="-1.7363266646862030029296875">
        <ele>1409.199951171875</ele>
        <time>2022-08-25T10:27:09.000Z</time>
      </trkpt>
      <trkpt lat="40.1738944463431835174560546875" lon="-1.736197583377361297607421875">
        <ele>1410.4000244140625</ele>
        <time>2022-08-25T10:27:14.000Z</time>
      </trkpt>
      <trkpt lat="40.1738838851451873779296875" lon="-1.7361223138868808746337890625">
        <ele>1411</ele>
        <time>2022-08-25T10:27:17.000Z</time>
      </trkpt>
      <trkpt lat="40.17387474887073040008544921875" lon="-1.7360542528331279754638671875">
        <ele>1411.5999755859375</ele>
        <time>2022-08-25T10:27:20.000Z</time>
      </trkpt>
      <trkpt lat="40.17382546328008174896240234375" lon="-1.73596431501209735870361328125">
        <ele>1412.199951171875</ele>
        <time>2022-08-25T10:27:25.000Z</time>
      </trkpt>
      <trkpt lat="40.1738133095204830169677734375" lon="-1.735948137938976287841796875">
        <ele>1412.5999755859375</ele>
        <time>2022-08-25T10:27:26.000Z</time>
      </trkpt>
      <trkpt lat="40.173722617328166961669921875" lon="-1.7358668334782123565673828125">
        <ele>1413.5999755859375</ele>
        <time>2022-08-25T10:27:31.000Z</time>
      </trkpt>
      <trkpt lat="40.17366637475788593292236328125" lon="-1.73581612296402454376220703125">
        <ele>1414</ele>
        <time>2022-08-25T10:27:34.000Z</time>
      </trkpt>
      <trkpt lat="40.17356897704303264617919921875" lon="-1.7357340641319751739501953125">
        <ele>1414.5999755859375</ele>
        <time>2022-08-25T10:27:39.000Z</time>
      </trkpt>
      <trkpt lat="40.173493959009647369384765625" lon="-1.73567128367722034454345703125">
        <ele>1415</ele>
        <time>2022-08-25T10:27:42.000Z</time>
      </trkpt>
      <trkpt lat="40.17322934232652187347412109375" lon="-1.73549911938607692718505859375">
        <ele>1415.4000244140625</ele>
        <time>2022-08-25T10:27:52.000Z</time>
      </trkpt>
      <trkpt lat="40.17297285608947277069091796875" lon="-1.7353357560932636260986328125">
        <ele>1415</ele>
        <time>2022-08-25T10:28:00.000Z</time>
      </trkpt>
      <trkpt lat="40.17263154499232769012451171875" lon="-1.73509662039577960968017578125">
        <ele>1414.199951171875</ele>
        <time>2022-08-25T10:28:09.000Z</time>
      </trkpt>
      <trkpt lat="40.17219920642673969268798828125" lon="-1.73475983552634716033935546875">
        <ele>1414.199951171875</ele>
        <time>2022-08-25T10:28:20.000Z</time>
      </trkpt>
      <trkpt lat="40.17188488505780696868896484375" lon="-1.734535954892635345458984375">
        <ele>1414</ele>
        <time>2022-08-25T10:28:27.000Z</time>
      </trkpt>
      <trkpt lat="40.1714757643640041351318359375" lon="-1.734236888587474822998046875">
        <ele>1413.4000244140625</ele>
        <time>2022-08-25T10:28:37.000Z</time>
      </trkpt>
      <trkpt lat="40.1710321940481662750244140625" lon="-1.7339128442108631134033203125">
        <ele>1413</ele>
        <time>2022-08-25T10:28:48.000Z</time>
      </trkpt>
      <trkpt lat="40.1707542501389980316162109375" lon="-1.7337472178041934967041015625">
        <ele>1412.4000244140625</ele>
        <time>2022-08-25T10:28:55.000Z</time>
      </trkpt>
      <trkpt lat="40.17063095234334468841552734375" lon="-1.73365987837314605712890625">
        <ele>1412.199951171875</ele>
        <time>2022-08-25T10:28:58.000Z</time>
      </trkpt>
      <trkpt lat="40.17030204646289348602294921875" lon="-1.73339576460421085357666015625">
        <ele>1411.4000244140625</ele>
        <time>2022-08-25T10:29:05.000Z</time>
      </trkpt>
      <trkpt lat="40.17025125212967395782470703125" lon="-1.73336617648601531982421875">
        <ele>1411.199951171875</ele>
        <time>2022-08-25T10:29:06.000Z</time>
      </trkpt>
      <trkpt lat="40.1699603162705898284912109375" lon="-1.7331469058990478515625">
        <ele>1410.4000244140625</ele>
        <time>2022-08-25T10:29:13.000Z</time>
      </trkpt>
      <trkpt lat="40.1698801852762699127197265625" lon="-1.733092255890369415283203125">
        <ele>1410.199951171875</ele>
        <time>2022-08-25T10:29:15.000Z</time>
      </trkpt>
      <trkpt lat="40.16968715004622936248779296875" lon="-1.73294113017618656158447265625">
        <ele>1409.199951171875</ele>
        <time>2022-08-25T10:29:20.000Z</time>
      </trkpt>
      <trkpt lat="40.16949621029198169708251953125" lon="-1.73279360868036746978759765625">
        <ele>1408.5999755859375</ele>
        <time>2022-08-25T10:29:25.000Z</time>
      </trkpt>
      <trkpt lat="40.16946167685091495513916015625" lon="-1.73276075161993503570556640625">
        <ele>1408.4000244140625</ele>
        <time>2022-08-25T10:29:26.000Z</time>
      </trkpt>
      <trkpt lat="40.16932572238147258758544921875" lon="-1.7326223663985729217529296875">
        <ele>1408</ele>
        <time>2022-08-25T10:29:30.000Z</time>
      </trkpt>
      <trkpt lat="40.16925372183322906494140625" lon="-1.73255304805934429168701171875">
        <ele>1407.800048828125</ele>
        <time>2022-08-25T10:29:32.000Z</time>
      </trkpt>
      <trkpt lat="40.16917753033339977264404296875" lon="-1.73247593455016613006591796875">
        <ele>1407.5999755859375</ele>
        <time>2022-08-25T10:29:34.000Z</time>
      </trkpt>
      <trkpt lat="40.168956331908702850341796875" lon="-1.7322743497788906097412109375">
        <ele>1407</ele>
        <time>2022-08-25T10:29:39.000Z</time>
      </trkpt>
      <trkpt lat="40.1689112372696399688720703125" lon="-1.7322267405688762664794921875">
        <ele>1406.800048828125</ele>
        <time>2022-08-25T10:29:40.000Z</time>
      </trkpt>
      <trkpt lat="40.16862197779119014739990234375" lon="-1.73189766705036163330078125">
        <ele>1406.4000244140625</ele>
        <time>2022-08-25T10:29:46.000Z</time>
      </trkpt>
      <trkpt lat="40.16845819540321826934814453125" lon="-1.7317305319011211395263671875">
        <ele>1405.4000244140625</ele>
        <time>2022-08-25T10:29:49.000Z</time>
      </trkpt>
      <trkpt lat="40.16829709522426128387451171875" lon="-1.73156700097024440765380859375">
        <ele>1404.199951171875</ele>
        <time>2022-08-25T10:29:52.000Z</time>
      </trkpt>
      <trkpt lat="40.16808972693979740142822265625" lon="-1.7313644103705883026123046875">
        <ele>1403</ele>
        <time>2022-08-25T10:29:56.000Z</time>
      </trkpt>
      <trkpt lat="40.167899541556835174560546875" lon="-1.73114622943103313446044921875">
        <ele>1402.4000244140625</ele>
        <time>2022-08-25T10:30:00.000Z</time>
      </trkpt>
      <trkpt lat="40.1677136309444904327392578125" lon="-1.73081967048346996307373046875">
        <ele>1402</ele>
        <time>2022-08-25T10:30:05.000Z</time>
      </trkpt>
      <trkpt lat="40.16753551550209522247314453125" lon="-1.7303133197128772735595703125">
        <ele>1400.5999755859375</ele>
        <time>2022-08-25T10:30:11.000Z</time>
      </trkpt>
      <trkpt lat="40.16740375198423862457275390625" lon="-1.72994325868785381317138671875">
        <ele>1399.4000244140625</ele>
        <time>2022-08-25T10:30:15.000Z</time>
      </trkpt>
      <trkpt lat="40.16730115748941898345947265625" lon="-1.7296122573316097259521484375">
        <ele>1398.4000244140625</ele>
        <time>2022-08-25T10:30:19.000Z</time>
      </trkpt>
      <trkpt lat="40.1672851480543613433837890625" lon="-1.7295391671359539031982421875">
        <ele>1398.199951171875</ele>
        <time>2022-08-25T10:30:20.000Z</time>
      </trkpt>
      <trkpt lat="40.167241059243679046630859375" lon="-1.72922375611960887908935546875">
        <ele>1398</ele>
        <time>2022-08-25T10:30:25.000Z</time>
      </trkpt>
      <trkpt lat="40.1672224514186382293701171875" lon="-1.728965342044830322265625">
        <ele>1398.199951171875</ele>
        <time>2022-08-25T10:30:31.000Z</time>
      </trkpt>
      <trkpt lat="40.167186073958873748779296875" lon="-1.728811450302600860595703125">
        <ele>1399.4000244140625</ele>
        <time>2022-08-25T10:30:35.000Z</time>
      </trkpt>
      <trkpt lat="40.167129077017307281494140625" lon="-1.72870743088424205780029296875">
        <ele>1400.199951171875</ele>
        <time>2022-08-25T10:30:38.000Z</time>
      </trkpt>
      <trkpt lat="40.167094878852367401123046875" lon="-1.72865328378975391387939453125">
        <ele>1400.5999755859375</ele>
        <time>2022-08-25T10:30:40.000Z</time>
      </trkpt>
      <trkpt lat="40.16702740453183650970458984375" lon="-1.72855555079877376556396484375">
        <ele>1401.5999755859375</ele>
        <time>2022-08-25T10:30:44.000Z</time>
      </trkpt>
      <trkpt lat="40.166994966566562652587890625" lon="-1.7285172455012798309326171875">
        <ele>1402</ele>
        <time>2022-08-25T10:30:46.000Z</time>
      </trkpt>
      <trkpt lat="40.16694836318492889404296875" lon="-1.728431917726993560791015625">
        <ele>1402.800048828125</ele>
        <time>2022-08-25T10:30:50.000Z</time>
      </trkpt>
      <trkpt lat="40.16685842536389827728271484375" lon="-1.72830996103584766387939453125">
        <ele>1403.800048828125</ele>
        <time>2022-08-25T10:30:56.000Z</time>
      </trkpt>
      <trkpt lat="40.16671366989612579345703125" lon="-1.72814601100981235504150390625">
        <ele>1404.800048828125</ele>
        <time>2022-08-25T10:31:05.000Z</time>
      </trkpt>
      <trkpt lat="40.1666736043989658355712890625" lon="-1.72809806652367115020751953125">
        <ele>1405.4000244140625</ele>
        <time>2022-08-25T10:31:08.000Z</time>
      </trkpt>
      <trkpt lat="40.16662574373185634613037109375" lon="-1.7280029319226741790771484375">
        <ele>1406</ele>
        <time>2022-08-25T10:31:13.000Z</time>
      </trkpt>
      <trkpt lat="40.166567154228687286376953125" lon="-1.72792003490030765533447265625">
        <ele>1406.800048828125</ele>
        <time>2022-08-25T10:31:18.000Z</time>
      </trkpt>
      <trkpt lat="40.16653823666274547576904296875" lon="-1.72788667492568492889404296875">
        <ele>1407</ele>
        <time>2022-08-25T10:31:20.000Z</time>
      </trkpt>
      <trkpt lat="40.1664355583488941192626953125" lon="-1.72777636907994747161865234375">
        <ele>1407.5999755859375</ele>
        <time>2022-08-25T10:31:26.000Z</time>
      </trkpt>
      <trkpt lat="40.16641837544739246368408203125" lon="-1.72774803824722766876220703125">
        <ele>1408.199951171875</ele>
        <time>2022-08-25T10:31:28.000Z</time>
      </trkpt>
      <trkpt lat="40.1663400046527385711669921875" lon="-1.72765365801751613616943359375">
        <ele>1408.800048828125</ele>
        <time>2022-08-25T10:31:33.000Z</time>
      </trkpt>
      <trkpt lat="40.1663218997418880462646484375" lon="-1.7276337929069995880126953125">
        <ele>1409.199951171875</ele>
        <time>2022-08-25T10:31:34.000Z</time>
      </trkpt>
      <trkpt lat="40.1661958359181880950927734375" lon="-1.72748350538313388824462890625">
        <ele>1410.199951171875</ele>
        <time>2022-08-25T10:31:42.000Z</time>
      </trkpt>
      <trkpt lat="40.166180245578289031982421875" lon="-1.7274621315300464630126953125">
        <ele>1410.4000244140625</ele>
        <time>2022-08-25T10:31:43.000Z</time>
      </trkpt>
      <trkpt lat="40.16610472463071346282958984375" lon="-1.7272918112576007843017578125">
        <ele>1411.199951171875</ele>
        <time>2022-08-25T10:31:50.000Z</time>
      </trkpt>
      <trkpt lat="40.16609005630016326904296875" lon="-1.72725417651236057281494140625">
        <ele>1411.5999755859375</ele>
        <time>2022-08-25T10:31:52.000Z</time>
      </trkpt>
      <trkpt lat="40.16604705713689327239990234375" lon="-1.72715443186461925506591796875">
        <ele>1412.4000244140625</ele>
        <time>2022-08-25T10:31:57.000Z</time>
      </trkpt>
      <trkpt lat="40.1659820973873138427734375" lon="-1.7269706167280673980712890625">
        <ele>1413.4000244140625</ele>
        <time>2022-08-25T10:32:04.000Z</time>
      </trkpt>
      <trkpt lat="40.165904648602008819580078125" lon="-1.72682686708867549896240234375">
        <ele>1414.5999755859375</ele>
        <time>2022-08-25T10:32:09.000Z</time>
      </trkpt>
      <trkpt lat="40.16582719981670379638671875" lon="-1.7267104424536228179931640625">
        <ele>1415.4000244140625</ele>
        <time>2022-08-25T10:32:14.000Z</time>
      </trkpt>
      <trkpt lat="40.165791325271129608154296875" lon="-1.72665520571172237396240234375">
        <ele>1415.5999755859375</ele>
        <time>2022-08-25T10:32:16.000Z</time>
      </trkpt>
      <trkpt lat="40.16572049818933010101318359375" lon="-1.72652721405029296875">
        <ele>1416.4000244140625</ele>
        <time>2022-08-25T10:32:21.000Z</time>
      </trkpt>
      <trkpt lat="40.16568982042372226715087890625" lon="-1.72647499479353427886962890625">
        <ele>1417</ele>
        <time>2022-08-25T10:32:23.000Z</time>
      </trkpt>
      <trkpt lat="40.16567875631153583526611328125" lon="-1.72644532285630702972412109375">
        <ele>1417.199951171875</ele>
        <time>2022-08-25T10:32:24.000Z</time>
      </trkpt>
      <trkpt lat="40.16562846489250659942626953125" lon="-1.72635530121624469757080078125">
        <ele>1417.5999755859375</ele>
        <time>2022-08-25T10:32:28.000Z</time>
      </trkpt>
      <trkpt lat="40.16551380045711994171142578125" lon="-1.7262356914579868316650390625">
        <ele>1418.199951171875</ele>
        <time>2022-08-25T10:32:35.000Z</time>
      </trkpt>
      <trkpt lat="40.1654684543609619140625" lon="-1.7261867411434650421142578125">
        <ele>1418.5999755859375</ele>
        <time>2022-08-25T10:32:38.000Z</time>
      </trkpt>
      <trkpt lat="40.165354795753955841064453125" lon="-1.7260539717972278594970703125">
        <ele>1419.5999755859375</ele>
        <time>2022-08-25T10:32:46.000Z</time>
      </trkpt>
      <trkpt lat="40.16533392481505870819091796875" lon="-1.72604483552277088165283203125">
        <ele>1419.800048828125</ele>
        <time>2022-08-25T10:32:47.000Z</time>
      </trkpt>
      <trkpt lat="40.16521456651389598846435546875" lon="-1.72597023658454418182373046875">
        <ele>1420.800048828125</ele>
        <time>2022-08-25T10:32:53.000Z</time>
      </trkpt>
      <trkpt lat="40.16510241664946079254150390625" lon="-1.72589899040758609771728515625">
        <ele>1421.800048828125</ele>
        <time>2022-08-25T10:32:59.000Z</time>
      </trkpt>
      <trkpt lat="40.16495539806783199310302734375" lon="-1.72583444975316524505615234375">
        <ele>1423</ele>
        <time>2022-08-25T10:33:06.000Z</time>
      </trkpt>
      <trkpt lat="40.16485431231558322906494140625" lon="-1.72578918747603893280029296875">
        <ele>1423.800048828125</ele>
        <time>2022-08-25T10:33:11.000Z</time>
      </trkpt>
      <trkpt lat="40.164834447205066680908203125" lon="-1.725783906877040863037109375">
        <ele>1424</ele>
        <time>2022-08-25T10:33:12.000Z</time>
      </trkpt>
      <trkpt lat="40.164688937366008758544921875" lon="-1.72578223049640655517578125">
        <ele>1424.5999755859375</ele>
        <time>2022-08-25T10:33:20.000Z</time>
      </trkpt>
      <trkpt lat="40.164605118334293365478515625" lon="-1.7257869243621826171875">
        <ele>1425</ele>
        <time>2022-08-25T10:33:24.000Z</time>
      </trkpt>
      <trkpt lat="40.164521634578704833984375" lon="-1.7257907800376415252685546875">
        <ele>1425.5999755859375</ele>
        <time>2022-08-25T10:33:28.000Z</time>
      </trkpt>
      <trkpt lat="40.164422057569026947021484375" lon="-1.7257989943027496337890625">
        <ele>1426.199951171875</ele>
        <time>2022-08-25T10:33:33.000Z</time>
      </trkpt>
      <trkpt lat="40.16430244781076908111572265625" lon="-1.725804693996906280517578125">
        <ele>1426.800048828125</ele>
        <time>2022-08-25T10:33:39.000Z</time>
      </trkpt>
      <trkpt lat="40.1642428524792194366455078125" lon="-1.725806705653667449951171875">
        <ele>1427.199951171875</ele>
        <time>2022-08-25T10:33:42.000Z</time>
      </trkpt>
      <trkpt lat="40.1640829257667064666748046875" lon="-1.7258497886359691619873046875">
        <ele>1428</ele>
        <time>2022-08-25T10:33:50.000Z</time>
      </trkpt>
      <trkpt lat="40.16404579393565654754638671875" lon="-1.7258715815842151641845703125">
        <ele>1428.199951171875</ele>
        <time>2022-08-25T10:33:52.000Z</time>
      </trkpt>
      <trkpt lat="40.1639709435403347015380859375" lon="-1.72592195682227611541748046875">
        <ele>1429.4000244140625</ele>
        <time>2022-08-25T10:33:57.000Z</time>
      </trkpt>
      <trkpt lat="40.16393247060477733612060546875" lon="-1.72595498152077198028564453125">
        <ele>1430.199951171875</ele>
        <time>2022-08-25T10:34:00.000Z</time>
      </trkpt>
      <trkpt lat="40.16390003263950347900390625" lon="-1.725978367030620574951171875">
        <ele>1430.4000244140625</ele>
        <time>2022-08-25T10:34:02.000Z</time>
      </trkpt>
      <trkpt lat="40.16378067433834075927734375" lon="-1.726073920726776123046875">
        <ele>1431.4000244140625</ele>
        <time>2022-08-25T10:34:09.000Z</time>
      </trkpt>
      <trkpt lat="40.16376416198909282684326171875" lon="-1.72609026543796062469482421875">
        <ele>1431.800048828125</ele>
        <time>2022-08-25T10:34:10.000Z</time>
      </trkpt>
      <trkpt lat="40.16369526274502277374267578125" lon="-1.7261683009564876556396484375">
        <ele>1432.5999755859375</ele>
        <time>2022-08-25T10:34:14.000Z</time>
      </trkpt>
      <trkpt lat="40.1635907404124736785888671875" lon="-1.72624633647501468658447265625">
        <ele>1433.199951171875</ele>
        <time>2022-08-25T10:34:19.000Z</time>
      </trkpt>
      <trkpt lat="40.1634794287383556365966796875" lon="-1.72626846469938755035400390625">
        <ele>1433.5999755859375</ele>
        <time>2022-08-25T10:34:24.000Z</time>
      </trkpt>
      <trkpt lat="40.16341346316039562225341796875" lon="-1.72624667175114154815673828125">
        <ele>1433.800048828125</ele>
        <time>2022-08-25T10:34:27.000Z</time>
      </trkpt>
      <trkpt lat="40.1633252017199993133544921875" lon="-1.7262051813304424285888671875">
        <ele>1434.199951171875</ele>
        <time>2022-08-25T10:34:31.000Z</time>
      </trkpt>
      <trkpt lat="40.16325957141816616058349609375" lon="-1.72616687603294849395751953125">
        <ele>1434.5999755859375</ele>
        <time>2022-08-25T10:34:34.000Z</time>
      </trkpt>
      <trkpt lat="40.16312177293002605438232421875" lon="-1.726094372570514678955078125">
        <ele>1435.199951171875</ele>
        <time>2022-08-25T10:34:40.000Z</time>
      </trkpt>
      <trkpt lat="40.1630506105720996856689453125" lon="-1.7260814644396305084228515625">
        <ele>1435.5999755859375</ele>
        <time>2022-08-25T10:34:43.000Z</time>
      </trkpt>
      <trkpt lat="40.16293653286993503570556640625" lon="-1.72605849802494049072265625">
        <ele>1436.5999755859375</ele>
        <time>2022-08-25T10:34:49.000Z</time>
      </trkpt>
      <trkpt lat="40.16273595392704010009765625" lon="-1.726041398942470550537109375">
        <ele>1437.199951171875</ele>
        <time>2022-08-25T10:34:58.000Z</time>
      </trkpt>
      <trkpt lat="40.1625775359570980072021484375" lon="-1.725995801389217376708984375">
        <ele>1437.5999755859375</ele>
        <time>2022-08-25T10:35:05.000Z</time>
      </trkpt>
      <trkpt lat="40.162554569542407989501953125" lon="-1.7259909398853778839111328125">
        <ele>1437.5999755859375</ele>
        <time>2022-08-25T10:35:06.000Z</time>
      </trkpt>
      <trkpt lat="40.1624115742743015289306640625" lon="-1.7259626090526580810546875">
        <ele>1438.800048828125</ele>
        <time>2022-08-25T10:35:12.000Z</time>
      </trkpt>
      <trkpt lat="40.16234041191637516021728515625" lon="-1.72595866955816745758056640625">
        <ele>1439.4000244140625</ele>
        <time>2022-08-25T10:35:15.000Z</time>
      </trkpt>
      <trkpt lat="40.1622932218015193939208984375" lon="-1.72595732845366001129150390625">
        <ele>1440</ele>
        <time>2022-08-25T10:35:17.000Z</time>
      </trkpt>
      <trkpt lat="40.16217897646129131317138671875" lon="-1.72596218995749950408935546875">
        <ele>1441</ele>
        <time>2022-08-25T10:35:22.000Z</time>
      </trkpt>
      <trkpt lat="40.1621376536786556243896484375" lon="-1.72596788965165615081787109375">
        <ele>1441.199951171875</ele>
        <time>2022-08-25T10:35:24.000Z</time>
      </trkpt>
      <trkpt lat="40.16203128732740879058837890625" lon="-1.72599085606634616851806640625">
        <ele>1442.199951171875</ele>
        <time>2022-08-25T10:35:29.000Z</time>
      </trkpt>
      <trkpt lat="40.161923579871654510498046875" lon="-1.726018600165843963623046875">
        <ele>1443.199951171875</ele>
        <time>2022-08-25T10:35:35.000Z</time>
      </trkpt>
      <trkpt lat="40.16189265064895153045654296875" lon="-1.72602505423128604888916015625">
        <ele>1443.800048828125</ele>
        <time>2022-08-25T10:35:37.000Z</time>
      </trkpt>
      <trkpt lat="40.1617879606783390045166015625" lon="-1.7260402254760265350341796875">
        <ele>1444.4000244140625</ele>
        <time>2022-08-25T10:35:43.000Z</time>
      </trkpt>
      <trkpt lat="40.1616974361240863800048828125" lon="-1.72605489380657672882080078125">
        <ele>1444.5999755859375</ele>
        <time>2022-08-25T10:35:47.000Z</time>
      </trkpt>
      <trkpt lat="40.1616230048239231109619140625" lon="-1.726061515510082244873046875">
        <ele>1445.4000244140625</ele>
        <time>2022-08-25T10:35:51.000Z</time>
      </trkpt>
      <trkpt lat="40.16152770258486270904541015625" lon="-1.7260752618312835693359375">
        <ele>1445.800048828125</ele>
        <time>2022-08-25T10:35:55.000Z</time>
      </trkpt>
      <trkpt lat="40.1614030636847019195556640625" lon="-1.726091019809246063232421875">
        <ele>1446.4000244140625</ele>
        <time>2022-08-25T10:36:00.000Z</time>
      </trkpt>
      <trkpt lat="40.1613225974142551422119140625" lon="-1.7261049337685108184814453125">
        <ele>1446.5999755859375</ele>
        <time>2022-08-25T10:36:03.000Z</time>
      </trkpt>
      <trkpt lat="40.16101791523396968841552734375" lon="-1.72613091766834259033203125">
        <ele>1447.199951171875</ele>
        <time>2022-08-25T10:36:14.000Z</time>
      </trkpt>
      <trkpt lat="40.16093124635517597198486328125" lon="-1.7261342704296112060546875">
        <ele>1447.4000244140625</ele>
        <time>2022-08-25T10:36:17.000Z</time>
      </trkpt>
      <trkpt lat="40.160823203623294830322265625" lon="-1.72614810056984424591064453125">
        <ele>1447.5999755859375</ele>
        <time>2022-08-25T10:36:22.000Z</time>
      </trkpt>
      <trkpt lat="40.16079344786703586578369140625" lon="-1.7261552251875400543212890625">
        <ele>1447.5999755859375</ele>
        <time>2022-08-25T10:36:26.000Z</time>
      </trkpt>
      <trkpt lat="40.16074575483798980712890625" lon="-1.72615832649171352386474609375">
        <ele>1447.800048828125</ele>
        <time>2022-08-25T10:36:42.000Z</time>
      </trkpt>
      <trkpt lat="40.16058088280260562896728515625" lon="-1.72616234980523586273193359375">
        <ele>1447.800048828125</ele>
        <time>2022-08-25T10:36:48.000Z</time>
      </trkpt>
      <trkpt lat="40.1602762006223201751708984375" lon="-1.72620560042560100555419921875">
        <ele>1448.199951171875</ele>
        <time>2022-08-25T10:36:58.000Z</time>
      </trkpt>
      <trkpt lat="40.16021375544369220733642578125" lon="-1.7262165807187557220458984375">
        <ele>1448.4000244140625</ele>
        <time>2022-08-25T10:37:00.000Z</time>
      </trkpt>
      <trkpt lat="40.16006086952984333038330078125" lon="-1.7262440733611583709716796875">
        <ele>1448.800048828125</ele>
        <time>2022-08-25T10:37:05.000Z</time>
      </trkpt>
      <trkpt lat="40.15994486398994922637939453125" lon="-1.72625555656850337982177734375">
        <ele>1449.4000244140625</ele>
        <time>2022-08-25T10:37:09.000Z</time>
      </trkpt>
      <trkpt lat="40.1598872803151607513427734375" lon="-1.7262615077197551727294921875">
        <ele>1449.800048828125</ele>
        <time>2022-08-25T10:37:11.000Z</time>
      </trkpt>
      <trkpt lat="40.15961118042469024658203125" lon="-1.72627600841224193572998046875">
        <ele>1450.5999755859375</ele>
        <time>2022-08-25T10:37:20.000Z</time>
      </trkpt>
      <trkpt lat="40.15951872803270816802978515625" lon="-1.72626494430005550384521484375">
        <ele>1451.199951171875</ele>
        <time>2022-08-25T10:37:23.000Z</time>
      </trkpt>
      <trkpt lat="40.15934161841869354248046875" lon="-1.7262192629277706146240234375">
        <ele>1451.5999755859375</ele>
        <time>2022-08-25T10:37:29.000Z</time>
      </trkpt>
      <trkpt lat="40.15922963619232177734375" lon="-1.72617760486900806427001953125">
        <ele>1452</ele>
        <time>2022-08-25T10:37:33.000Z</time>
      </trkpt>
      <trkpt lat="40.15909158624708652496337890625" lon="-1.726113818585872650146484375">
        <ele>1452.5999755859375</ele>
        <time>2022-08-25T10:37:38.000Z</time>
      </trkpt>
      <trkpt lat="40.1588988862931728363037109375" lon="-1.726008541882038116455078125">
        <ele>1453.4000244140625</ele>
        <time>2022-08-25T10:37:45.000Z</time>
      </trkpt>
      <trkpt lat="40.1587607525289058685302734375" lon="-1.72592975199222564697265625">
        <ele>1453.4000244140625</ele>
        <time>2022-08-25T10:37:52.000Z</time>
      </trkpt>
      <trkpt lat="40.15863158740103244781494140625" lon="-1.72585808672010898590087890625">
        <ele>1453.5999755859375</ele>
        <time>2022-08-25T10:37:59.000Z</time>
      </trkpt>
      <trkpt lat="40.15850686468183994293212890625" lon="-1.7257944680750370025634765625">
        <ele>1453.4000244140625</ele>
        <time>2022-08-25T10:38:06.000Z</time>
      </trkpt>
      <trkpt lat="40.1584288291633129119873046875" lon="-1.72574996016919612884521484375">
        <ele>1453.4000244140625</ele>
        <time>2022-08-25T10:38:10.000Z</time>
      </trkpt>
      <trkpt lat="40.158374011516571044921875" lon="-1.7257287539541721343994140625">
        <ele>1453.800048828125</ele>
        <time>2022-08-25T10:38:13.000Z</time>
      </trkpt>
      <trkpt lat="40.15829228796064853668212890625" lon="-1.72569363377988338470458984375">
        <ele>1454.5999755859375</ele>
        <time>2022-08-25T10:38:17.000Z</time>
      </trkpt>
      <trkpt lat="40.1582065410912036895751953125" lon="-1.7256353795528411865234375">
        <ele>1455</ele>
        <time>2022-08-25T10:38:21.000Z</time>
      </trkpt>
      <trkpt lat="40.1581368036568164825439453125" lon="-1.72558450140058994293212890625">
        <ele>1455.5999755859375</ele>
        <time>2022-08-25T10:38:26.000Z</time>
      </trkpt>
      <trkpt lat="40.1580573432147502899169921875" lon="-1.7255294322967529296875">
        <ele>1455.5999755859375</ele>
        <time>2022-08-25T10:38:30.000Z</time>
      </trkpt>
      <trkpt lat="40.1579745300114154815673828125" lon="-1.7254246585071086883544921875">
        <ele>1455.5999755859375</ele>
        <time>2022-08-25T10:38:38.000Z</time>
      </trkpt>
      <trkpt lat="40.1578477956354618072509765625" lon="-1.725289039313793182373046875">
        <ele>1455.4000244140625</ele>
        <time>2022-08-25T10:38:43.000Z</time>
      </trkpt>
      <trkpt lat="40.15771108679473400115966796875" lon="-1.725124418735504150390625">
        <ele>1455.4000244140625</ele>
        <time>2022-08-25T10:38:49.000Z</time>
      </trkpt>
      <trkpt lat="40.1575805805623531341552734375" lon="-1.7249307967722415924072265625">
        <ele>1455.199951171875</ele>
        <time>2022-08-25T10:38:55.000Z</time>
      </trkpt>
      <trkpt lat="40.15729836188256740570068359375" lon="-1.72455905936658382415771484375">
        <ele>1455.199951171875</ele>
        <time>2022-08-25T10:39:06.000Z</time>
      </trkpt>
      <trkpt lat="40.15714497305452823638916015625" lon="-1.72436845488846302032470703125">
        <ele>1455.199951171875</ele>
        <time>2022-08-25T10:39:13.000Z</time>
      </trkpt>
      <trkpt lat="40.15695034526288509368896484375" lon="-1.72413744963705539703369140625">
        <ele>1455.199951171875</ele>
        <time>2022-08-25T10:39:21.000Z</time>
      </trkpt>
      <trkpt lat="40.15669972635805606842041015625" lon="-1.723877526819705963134765625">
        <ele>1454.4000244140625</ele>
        <time>2022-08-25T10:39:28.000Z</time>
      </trkpt>
      <trkpt lat="40.15666418708860874176025390625" lon="-1.72383838333189487457275390625">
        <ele>1454.199951171875</ele>
        <time>2022-08-25T10:39:29.000Z</time>
      </trkpt>
      <trkpt lat="40.15645958483219146728515625" lon="-1.7236500419676303863525390625">
        <ele>1453.5999755859375</ele>
        <time>2022-08-25T10:39:35.000Z</time>
      </trkpt>
      <trkpt lat="40.15637065283954143524169921875" lon="-1.7235890217125415802001953125">
        <ele>1453.199951171875</ele>
        <time>2022-08-25T10:39:38.000Z</time>
      </trkpt>
      <trkpt lat="40.15629705972969532012939453125" lon="-1.72353009693324565887451171875">
        <ele>1453.199951171875</ele>
        <time>2022-08-25T10:39:41.000Z</time>
      </trkpt>
      <trkpt lat="40.15613730065524578094482421875" lon="-1.72342046163976192474365234375">
        <ele>1453.4000244140625</ele>
        <time>2022-08-25T10:39:49.000Z</time>
      </trkpt>
      <trkpt lat="40.15601609833538532257080078125" lon="-1.72333295457065105438232421875">
        <ele>1453.5999755859375</ele>
        <time>2022-08-25T10:39:55.000Z</time>
      </trkpt>
      <trkpt lat="40.155887603759765625" lon="-1.72322985716164112091064453125">
        <ele>1454</ele>
        <time>2022-08-25T10:40:02.000Z</time>
      </trkpt>
      <trkpt lat="40.155755840241909027099609375" lon="-1.723118126392364501953125">
        <ele>1453.800048828125</ele>
        <time>2022-08-25T10:40:09.000Z</time>
      </trkpt>
      <trkpt lat="40.1556282676756381988525390625" lon="-1.72302517108619213104248046875">
        <ele>1453.5999755859375</ele>
        <time>2022-08-25T10:40:14.000Z</time>
      </trkpt>
      <trkpt lat="40.1554572768509387969970703125" lon="-1.72291788272559642791748046875">
        <ele>1453.4000244140625</ele>
        <time>2022-08-25T10:40:20.000Z</time>
      </trkpt>
      <trkpt lat="40.1552856154739856719970703125" lon="-1.72282375395298004150390625">
        <ele>1454.199951171875</ele>
        <time>2022-08-25T10:40:26.000Z</time>
      </trkpt>
      <trkpt lat="40.1552604697644710540771484375" lon="-1.72280657105147838592529296875">
        <ele>1454.4000244140625</ele>
        <time>2022-08-25T10:40:27.000Z</time>
      </trkpt>
      <trkpt lat="40.15514790080487728118896484375" lon="-1.72274018637835979461669921875">
        <ele>1455.199951171875</ele>
        <time>2022-08-25T10:40:31.000Z</time>
      </trkpt>
      <trkpt lat="40.155035667121410369873046875" lon="-1.722654439508914947509765625">
        <ele>1456</ele>
        <time>2022-08-25T10:40:35.000Z</time>
      </trkpt>
      <trkpt lat="40.15500758774578571319580078125" lon="-1.72262929379940032958984375">
        <ele>1456.199951171875</ele>
        <time>2022-08-25T10:40:36.000Z</time>
      </trkpt>
      <trkpt lat="40.15484430827200412750244140625" lon="-1.722469031810760498046875">
        <ele>1457.199951171875</ele>
        <time>2022-08-25T10:40:42.000Z</time>
      </trkpt>
      <trkpt lat="40.15481430105865001678466796875" lon="-1.72244061715900897979736328125">
        <ele>1457.4000244140625</ele>
        <time>2022-08-25T10:40:43.000Z</time>
      </trkpt>
      <trkpt lat="40.15459033660590648651123046875" lon="-1.722230650484561920166015625">
        <ele>1457.5999755859375</ele>
        <time>2022-08-25T10:40:51.000Z</time>
      </trkpt>
      <trkpt lat="40.154465027153491973876953125" lon="-1.72210768796503543853759765625">
        <ele>1458.4000244140625</ele>
        <time>2022-08-25T10:40:56.000Z</time>
      </trkpt>
      <trkpt lat="40.1543562300503253936767578125" lon="-1.7220045067369937896728515625">
        <ele>1459</ele>
        <time>2022-08-25T10:41:00.000Z</time>
      </trkpt>
      <trkpt lat="40.15426528640091419219970703125" lon="-1.72191641293466091156005859375">
        <ele>1459.5999755859375</ele>
        <time>2022-08-25T10:41:03.000Z</time>
      </trkpt>
      <trkpt lat="40.15410351566970348358154296875" lon="-1.72176402993500232696533203125">
        <ele>1460</ele>
        <time>2022-08-25T10:41:08.000Z</time>
      </trkpt>
      <trkpt lat="40.15370571054518222808837890625" lon="-1.721442751586437225341796875">
        <ele>1460.199951171875</ele>
        <time>2022-08-25T10:41:19.000Z</time>
      </trkpt>
      <trkpt lat="40.15333405695855617523193359375" lon="-1.72112415544688701629638671875">
        <ele>1459.800048828125</ele>
        <time>2022-08-25T10:41:28.000Z</time>
      </trkpt>
      <trkpt lat="40.15293373726308345794677734375" lon="-1.72070757485926151275634765625">
        <ele>1459.800048828125</ele>
        <time>2022-08-25T10:41:39.000Z</time>
      </trkpt>
      <trkpt lat="40.1525148935616016387939453125" lon="-1.72024942003190517425537109375">
        <ele>1460</ele>
        <time>2022-08-25T10:41:49.000Z</time>
      </trkpt>
      <trkpt lat="40.1521494425833225250244140625" lon="-1.71981163322925567626953125">
        <ele>1459</ele>
        <time>2022-08-25T10:41:56.000Z</time>
      </trkpt>
      <trkpt lat="40.15197702683508396148681640625" lon="-1.719605438411235809326171875">
        <ele>1458.5999755859375</ele>
        <time>2022-08-25T10:41:59.000Z</time>
      </trkpt>
      <trkpt lat="40.15180922113358974456787109375" lon="-1.71940796077251434326171875">
        <ele>1457.4000244140625</ele>
        <time>2022-08-25T10:42:02.000Z</time>
      </trkpt>
      <trkpt lat="40.1514882780611515045166015625" lon="-1.7190332897007465362548828125">
        <ele>1456.4000244140625</ele>
        <time>2022-08-25T10:42:08.000Z</time>
      </trkpt>
      <trkpt lat="40.15108033083379268646240234375" lon="-1.71852341853082180023193359375">
        <ele>1455.5999755859375</ele>
        <time>2022-08-25T10:42:16.000Z</time>
      </trkpt>
      <trkpt lat="40.15103288926184177398681640625" lon="-1.71845954842865467071533203125">
        <ele>1455.199951171875</ele>
        <time>2022-08-25T10:42:17.000Z</time>
      </trkpt>
      <trkpt lat="40.1508911512792110443115234375" lon="-1.7182634957134723663330078125">
        <ele>1454.199951171875</ele>
        <time>2022-08-25T10:42:20.000Z</time>
      </trkpt>
      <trkpt lat="40.15058864839375019073486328125" lon="-1.717776171863079071044921875">
        <ele>1453.5999755859375</ele>
        <time>2022-08-25T10:42:27.000Z</time>
      </trkpt>
      <trkpt lat="40.15034054405987262725830078125" lon="-1.71731642447412014007568359375">
        <ele>1453.199951171875</ele>
        <time>2022-08-25T10:42:33.000Z</time>
      </trkpt>
      <trkpt lat="40.15020467340946197509765625" lon="-1.7169907875359058380126953125">
        <ele>1453</ele>
        <time>2022-08-25T10:42:37.000Z</time>
      </trkpt>
      <trkpt lat="40.15006209723651409149169921875" lon="-1.71656842343509197235107421875">
        <ele>1452.199951171875</ele>
        <time>2022-08-25T10:42:42.000Z</time>
      </trkpt>
      <trkpt lat="40.14999210834503173828125" lon="-1.716324426233768463134765625">
        <ele>1451</ele>
        <time>2022-08-25T10:42:45.000Z</time>
      </trkpt>
      <trkpt lat="40.1498165912926197052001953125" lon="-1.71573593281209468841552734375">
        <ele>1450</ele>
        <time>2022-08-25T10:42:52.000Z</time>
      </trkpt>
      <trkpt lat="40.1497146673500537872314453125" lon="-1.7154025845229625701904296875">
        <ele>1449.199951171875</ele>
        <time>2022-08-25T10:42:56.000Z</time>
      </trkpt>
      <trkpt lat="40.14968658797442913055419921875" lon="-1.715323291718959808349609375">
        <ele>1448.800048828125</ele>
        <time>2022-08-25T10:42:57.000Z</time>
      </trkpt>
      <trkpt lat="40.1495818980038166046142578125" lon="-1.7150954715907573699951171875">
        <ele>1447.800048828125</ele>
        <time>2022-08-25T10:43:00.000Z</time>
      </trkpt>
      <trkpt lat="40.149517692625522613525390625" lon="-1.714923642575740814208984375">
        <ele>1447.4000244140625</ele>
        <time>2022-08-25T10:43:02.000Z</time>
      </trkpt>
      <trkpt lat="40.1495017670094966888427734375" lon="-1.71462348662316799163818359375">
        <ele>1446.5999755859375</ele>
        <time>2022-08-25T10:43:05.000Z</time>
      </trkpt>
      <trkpt lat="40.149594135582447052001953125" lon="-1.7142515815794467926025390625">
        <ele>1445.5999755859375</ele>
        <time>2022-08-25T10:43:09.000Z</time>
      </trkpt>
      <trkpt lat="40.14973084442317485809326171875" lon="-1.713929213583469390869140625">
        <ele>1444.4000244140625</ele>
        <time>2022-08-25T10:43:13.000Z</time>
      </trkpt>
      <trkpt lat="40.1498276554048061370849609375" lon="-1.71372293494641780853271484375">
        <ele>1444</ele>
        <time>2022-08-25T10:43:16.000Z</time>
      </trkpt>
      <trkpt lat="40.14997425489127635955810546875" lon="-1.71349176205694675445556640625">
        <ele>1443.199951171875</ele>
        <time>2022-08-25T10:43:20.000Z</time>
      </trkpt>
      <trkpt lat="40.1500801183283329010009765625" lon="-1.71333418227732181549072265625">
        <ele>1442.800048828125</ele>
        <time>2022-08-25T10:43:23.000Z</time>
      </trkpt>
      <trkpt lat="40.15034959651529788970947265625" lon="-1.7130026780068874359130859375">
        <ele>1442.199951171875</ele>
        <time>2022-08-25T10:43:29.000Z</time>
      </trkpt>
      <trkpt lat="40.15044196508824825286865234375" lon="-1.712888181209564208984375">
        <ele>1441.800048828125</ele>
        <time>2022-08-25T10:43:31.000Z</time>
      </trkpt>
      <trkpt lat="40.15084865503013134002685546875" lon="-1.712372861802577972412109375">
        <ele>1441</ele>
        <time>2022-08-25T10:43:40.000Z</time>
      </trkpt>
      <trkpt lat="40.15088997781276702880859375" lon="-1.7123155295848846435546875">
        <ele>1441</ele>
        <time>2022-08-25T10:43:41.000Z</time>
      </trkpt>
      <trkpt lat="40.150931216776371002197265625" lon="-1.712257862091064453125">
        <ele>1441</ele>
        <time>2022-08-25T10:43:42.000Z</time>
      </trkpt>
      <trkpt lat="40.15135710127651691436767578125" lon="-1.711708344519138336181640625">
        <ele>1440.5999755859375</ele>
        <time>2022-08-25T10:43:52.000Z</time>
      </trkpt>
      <trkpt lat="40.15145500190556049346923828125" lon="-1.71158605255186557769775390625">
        <ele>1440.4000244140625</ele>
        <time>2022-08-25T10:43:54.000Z</time>
      </trkpt>
      <trkpt lat="40.15162062831223011016845703125" lon="-1.7113873176276683807373046875">
        <ele>1440</ele>
        <time>2022-08-25T10:43:57.000Z</time>
      </trkpt>
      <trkpt lat="40.15179413370788097381591796875" lon="-1.71113728545606136322021484375">
        <ele>1439.199951171875</ele>
        <time>2022-08-25T10:44:00.000Z</time>
      </trkpt>
      <trkpt lat="40.15184291638433933258056640625" lon="-1.71103502623736858367919921875">
        <ele>1439</ele>
        <time>2022-08-25T10:44:01.000Z</time>
      </trkpt>
      <trkpt lat="40.1519067026674747467041015625" lon="-1.71079597435891628265380859375">
        <ele>1438.4000244140625</ele>
        <time>2022-08-25T10:44:03.000Z</time>
      </trkpt>
      <trkpt lat="40.1518617756664752960205078125" lon="-1.71039129607379436492919921875">
        <ele>1437.5999755859375</ele>
        <time>2022-08-25T10:44:06.000Z</time>
      </trkpt>
      <trkpt lat="40.15178491361439228057861328125" lon="-1.71013028360903263092041015625">
        <ele>1436.199951171875</ele>
        <time>2022-08-25T10:44:08.000Z</time>
      </trkpt>
      <trkpt lat="40.15169707126915454864501953125" lon="-1.70987832359969615936279296875">
        <ele>1435.199951171875</ele>
        <time>2022-08-25T10:44:10.000Z</time>
      </trkpt>
      <trkpt lat="40.15154938213527202606201171875" lon="-1.70948705635964870452880859375">
        <ele>1433.800048828125</ele>
        <time>2022-08-25T10:44:13.000Z</time>
      </trkpt>
      <trkpt lat="40.1514490507543087005615234375" lon="-1.70921229757368564605712890625">
        <ele>1432.5999755859375</ele>
        <time>2022-08-25T10:44:15.000Z</time>
      </trkpt>
      <trkpt lat="40.15129390172660350799560546875" lon="-1.70876570977270603179931640625">
        <ele>1431.4000244140625</ele>
        <time>2022-08-25T10:44:18.000Z</time>
      </trkpt>
      <trkpt lat="40.15119901858270168304443359375" lon="-1.70845381915569305419921875">
        <ele>1430</ele>
        <time>2022-08-25T10:44:20.000Z</time>
      </trkpt>
      <trkpt lat="40.1510960049927234649658203125" lon="-1.7081435211002826690673828125">
        <ele>1428.4000244140625</ele>
        <time>2022-08-25T10:44:22.000Z</time>
      </trkpt>
      <trkpt lat="40.15096851624548435211181640625" lon="-1.7078313790261745452880859375">
        <ele>1427</ele>
        <time>2022-08-25T10:44:24.000Z</time>
      </trkpt>
      <trkpt lat="40.15083373524248600006103515625" lon="-1.7075098492205142974853515625">
        <ele>1425.5999755859375</ele>
        <time>2022-08-25T10:44:26.000Z</time>
      </trkpt>
      <trkpt lat="40.1506997086107730865478515625" lon="-1.70719427056610584259033203125">
        <ele>1424</ele>
        <time>2022-08-25T10:44:28.000Z</time>
      </trkpt>
      <trkpt lat="40.1505746506154537200927734375" lon="-1.70688112266361713409423828125">
        <ele>1422</ele>
        <time>2022-08-25T10:44:30.000Z</time>
      </trkpt>
      <trkpt lat="40.15051069669425487518310546875" lon="-1.70672915875911712646484375">
        <ele>1420.800048828125</ele>
        <time>2022-08-25T10:44:31.000Z</time>
      </trkpt>
      <trkpt lat="40.1504459045827388763427734375" lon="-1.70657853595912456512451171875">
        <ele>1419.4000244140625</ele>
        <time>2022-08-25T10:44:32.000Z</time>
      </trkpt>
      <trkpt lat="40.15038396231830120086669921875" lon="-1.70642749406397342681884765625">
        <ele>1418.4000244140625</ele>
        <time>2022-08-25T10:44:33.000Z</time>
      </trkpt>
      <trkpt lat="40.1503218524158000946044921875" lon="-1.7062777094542980194091796875">
        <ele>1415.800048828125</ele>
        <time>2022-08-25T10:44:34.000Z</time>
      </trkpt>
      <trkpt lat="40.15020207501947879791259765625" lon="-1.70598886907100677490234375">
        <ele>1413.800048828125</ele>
        <time>2022-08-25T10:44:36.000Z</time>
      </trkpt>
      <trkpt lat="40.15013770200312137603759765625" lon="-1.7058567702770233154296875">
        <ele>1412.5999755859375</ele>
        <time>2022-08-25T10:44:37.000Z</time>
      </trkpt>
      <trkpt lat="40.1500754244625568389892578125" lon="-1.70573003590106964111328125">
        <ele>1411.800048828125</ele>
        <time>2022-08-25T10:44:38.000Z</time>
      </trkpt>
      <trkpt lat="40.1500033400952816009521484375" lon="-1.70561746694147586822509765625">
        <ele>1411.199951171875</ele>
        <time>2022-08-25T10:44:39.000Z</time>
      </trkpt>
      <trkpt lat="40.14991910196840763092041015625" lon="-1.70552945695817470550537109375">
        <ele>1410.199951171875</ele>
        <time>2022-08-25T10:44:40.000Z</time>
      </trkpt>
      <trkpt lat="40.14983117580413818359375" lon="-1.70546474866569042205810546875">
        <ele>1409.199951171875</ele>
        <time>2022-08-25T10:44:41.000Z</time>
      </trkpt>
      <trkpt lat="40.1497270725667476654052734375" lon="-1.70544035732746124267578125">
        <ele>1408.4000244140625</ele>
        <time>2022-08-25T10:44:42.000Z</time>
      </trkpt>
      <trkpt lat="40.14953051693737506866455078125" lon="-1.70542719773948192596435546875">
        <ele>1407</ele>
        <time>2022-08-25T10:44:44.000Z</time>
      </trkpt>
      <trkpt lat="40.14933790080249309539794921875" lon="-1.70540758408606052398681640625">
        <ele>1405.5999755859375</ele>
        <time>2022-08-25T10:44:46.000Z</time>
      </trkpt>
      <trkpt lat="40.1490488089621067047119140625" lon="-1.70533700846135616302490234375">
        <ele>1404.5999755859375</ele>
        <time>2022-08-25T10:44:49.000Z</time>
      </trkpt>
      <trkpt lat="40.14858336187899112701416015625" lon="-1.70515361241996288299560546875">
        <ele>1403.800048828125</ele>
        <time>2022-08-25T10:44:54.000Z</time>
      </trkpt>
      <trkpt lat="40.14849803410470485687255859375" lon="-1.70507381670176982879638671875">
        <ele>1403.5999755859375</ele>
        <time>2022-08-25T10:44:55.000Z</time>
      </trkpt>
      <trkpt lat="40.14824624173343181610107421875" lon="-1.7047910951077938079833984375">
        <ele>1402.199951171875</ele>
        <time>2022-08-25T10:44:58.000Z</time>
      </trkpt>
      <trkpt lat="40.1480664499104022979736328125" lon="-1.70459437184035778045654296875">
        <ele>1401.199951171875</ele>
        <time>2022-08-25T10:45:00.000Z</time>
      </trkpt>
      <trkpt lat="40.1479759253561496734619140625" lon="-1.70449680648744106292724609375">
        <ele>1401</ele>
        <time>2022-08-25T10:45:01.000Z</time>
      </trkpt>
      <trkpt lat="40.14788598753511905670166015625" lon="-1.70439739711582660675048828125">
        <ele>1399.800048828125</ele>
        <time>2022-08-25T10:45:02.000Z</time>
      </trkpt>
      <trkpt lat="40.1477113924920558929443359375" lon="-1.7041911184787750244140625">
        <ele>1398.199951171875</ele>
        <time>2022-08-25T10:45:04.000Z</time>
      </trkpt>
      <trkpt lat="40.14753327704966068267822265625" lon="-1.70398802496492862701416015625">
        <ele>1397.199951171875</ele>
        <time>2022-08-25T10:45:06.000Z</time>
      </trkpt>
      <trkpt lat="40.1473519764840602874755859375" lon="-1.7037996836006641387939453125">
        <ele>1395.4000244140625</ele>
        <time>2022-08-25T10:45:08.000Z</time>
      </trkpt>
      <trkpt lat="40.14725818298757076263427734375" lon="-1.70373086817562580108642578125">
        <ele>1394.4000244140625</ele>
        <time>2022-08-25T10:45:09.000Z</time>
      </trkpt>
      <trkpt lat="40.1471598632633686065673828125" lon="-1.7036934010684490203857421875">
        <ele>1393.5999755859375</ele>
        <time>2022-08-25T10:45:10.000Z</time>
      </trkpt>
      <trkpt lat="40.147064141929149627685546875" lon="-1.70369021594524383544921875">
        <ele>1392.5999755859375</ele>
        <time>2022-08-25T10:45:11.000Z</time>
      </trkpt>
      <trkpt lat="40.1469754613935947418212890625" lon="-1.7037255875766277313232421875">
        <ele>1392</ele>
        <time>2022-08-25T10:45:12.000Z</time>
      </trkpt>
      <trkpt lat="40.14680002816021442413330078125" lon="-1.70381653122603893280029296875">
        <ele>1390.5999755859375</ele>
        <time>2022-08-25T10:45:14.000Z</time>
      </trkpt>
      <trkpt lat="40.1466157101094722747802734375" lon="-1.7038556747138500213623046875">
        <ele>1388.800048828125</ele>
        <time>2022-08-25T10:45:16.000Z</time>
      </trkpt>
      <trkpt lat="40.146518312394618988037109375" lon="-1.70384687371551990509033203125">
        <ele>1387.800048828125</ele>
        <time>2022-08-25T10:45:17.000Z</time>
      </trkpt>
      <trkpt lat="40.14642217196524143218994140625" lon="-1.703821308910846710205078125">
        <ele>1386.800048828125</ele>
        <time>2022-08-25T10:45:18.000Z</time>
      </trkpt>
      <trkpt lat="40.14623232185840606689453125" lon="-1.703738830983638763427734375">
        <ele>1385.5999755859375</ele>
        <time>2022-08-25T10:45:20.000Z</time>
      </trkpt>
      <trkpt lat="40.14614104293286800384521484375" lon="-1.70368577353656291961669921875">
        <ele>1385.4000244140625</ele>
        <time>2022-08-25T10:45:21.000Z</time>
      </trkpt>
      <trkpt lat="40.14586393721401691436767578125" lon="-1.7034955881536006927490234375">
        <ele>1384.199951171875</ele>
        <time>2022-08-25T10:45:24.000Z</time>
      </trkpt>
      <trkpt lat="40.14556135050952434539794921875" lon="-1.7032971046864986419677734375">
        <ele>1383.4000244140625</ele>
        <time>2022-08-25T10:45:27.000Z</time>
      </trkpt>
      <trkpt lat="40.145454816520214080810546875" lon="-1.70323834754526615142822265625">
        <ele>1383</ele>
        <time>2022-08-25T10:45:28.000Z</time>
      </trkpt>
      <trkpt lat="40.145345516502857208251953125" lon="-1.70318570919334888458251953125">
        <ele>1381.4000244140625</ele>
        <time>2022-08-25T10:45:29.000Z</time>
      </trkpt>
      <trkpt lat="40.14513353817164897918701171875" lon="-1.70309250243008136749267578125">
        <ele>1379.5999755859375</ele>
        <time>2022-08-25T10:45:31.000Z</time>
      </trkpt>
      <trkpt lat="40.14493622817099094390869140625" lon="-1.70298521406948566436767578125">
        <ele>1377.800048828125</ele>
        <time>2022-08-25T10:45:33.000Z</time>
      </trkpt>
      <trkpt lat="40.1447599567472934722900390625" lon="-1.7028247006237506866455078125">
        <ele>1376.5999755859375</ele>
        <time>2022-08-25T10:45:35.000Z</time>
      </trkpt>
      <trkpt lat="40.14467990957200527191162109375" lon="-1.7027214355766773223876953125">
        <ele>1376</ele>
        <time>2022-08-25T10:45:36.000Z</time>
      </trkpt>
      <trkpt lat="40.1446017064154148101806640625" lon="-1.70261037535965442657470703125">
        <ele>1375.4000244140625</ele>
        <time>2022-08-25T10:45:37.000Z</time>
      </trkpt>
      <trkpt lat="40.14436148107051849365234375" lon="-1.702287085354328155517578125">
        <ele>1374</ele>
        <time>2022-08-25T10:45:40.000Z</time>
      </trkpt>
      <trkpt lat="40.14422225765883922576904296875" lon="-1.70205985195934772491455078125">
        <ele>1372.5999755859375</ele>
        <time>2022-08-25T10:45:42.000Z</time>
      </trkpt>
      <trkpt lat="40.14410792849957942962646484375" lon="-1.7018148489296436309814453125">
        <ele>1371.199951171875</ele>
        <time>2022-08-25T10:45:44.000Z</time>
      </trkpt>
      <trkpt lat="40.1440206728875637054443359375" lon="-1.70156196691095829010009765625">
        <ele>1370.199951171875</ele>
        <time>2022-08-25T10:45:46.000Z</time>
      </trkpt>
      <trkpt lat="40.143992342054843902587890625" lon="-1.701427437365055084228515625">
        <ele>1369.5999755859375</ele>
        <time>2022-08-25T10:45:47.000Z</time>
      </trkpt>
      <trkpt lat="40.14399074949324131011962890625" lon="-1.70114974491298198699951171875">
        <ele>1367.800048828125</ele>
        <time>2022-08-25T10:45:49.000Z</time>
      </trkpt>
      <trkpt lat="40.1440454833209514617919921875" lon="-1.70090432278811931610107421875">
        <ele>1366.800048828125</ele>
        <time>2022-08-25T10:45:51.000Z</time>
      </trkpt>
      <trkpt lat="40.14405839145183563232421875" lon="-1.70078563503921031951904296875">
        <ele>1366.5999755859375</ele>
        <time>2022-08-25T10:45:52.000Z</time>
      </trkpt>
      <trkpt lat="40.1439683698117733001708984375" lon="-1.70060089789330959320068359375">
        <ele>1366</ele>
        <time>2022-08-25T10:45:54.000Z</time>
      </trkpt>
      <trkpt lat="40.14389502815902233123779296875" lon="-1.70053920708596706390380859375">
        <ele>1365.199951171875</ele>
        <time>2022-08-25T10:45:55.000Z</time>
      </trkpt>
      <trkpt lat="40.1438136398792266845703125" lon="-1.70049562118947505950927734375">
        <ele>1363.800048828125</ele>
        <time>2022-08-25T10:45:56.000Z</time>
      </trkpt>
      <trkpt lat="40.14372579753398895263671875" lon="-1.7004601657390594482421875">
        <ele>1363</ele>
        <time>2022-08-25T10:45:57.000Z</time>
      </trkpt>
      <trkpt lat="40.1436354406177997589111328125" lon="-1.70042152516543865203857421875">
        <ele>1361.800048828125</ele>
        <time>2022-08-25T10:45:58.000Z</time>
      </trkpt>
      <trkpt lat="40.143544413149356842041015625" lon="-1.70038011856377124786376953125">
        <ele>1360.800048828125</ele>
        <time>2022-08-25T10:45:59.000Z</time>
      </trkpt>
      <trkpt lat="40.14344642870128154754638671875" lon="-1.70034273527562618255615234375">
        <ele>1359.5999755859375</ele>
        <time>2022-08-25T10:46:00.000Z</time>
      </trkpt>
      <trkpt lat="40.1432388089597225189208984375" lon="-1.7002779431641101837158203125">
        <ele>1358</ele>
        <time>2022-08-25T10:46:02.000Z</time>
      </trkpt>
      <trkpt lat="40.1428130082786083221435546875" lon="-1.70013687573373317718505859375">
        <ele>1356.800048828125</ele>
        <time>2022-08-25T10:46:06.000Z</time>
      </trkpt>
      <trkpt lat="40.14261326752603054046630859375" lon="-1.7000417411327362060546875">
        <ele>1355.5999755859375</ele>
        <time>2022-08-25T10:46:08.000Z</time>
      </trkpt>
      <trkpt lat="40.14241780154407024383544921875" lon="-1.69994509778916835784912109375">
        <ele>1354.5999755859375</ele>
        <time>2022-08-25T10:46:10.000Z</time>
      </trkpt>
      <trkpt lat="40.14223641715943813323974609375" lon="-1.69982724823057651519775390625">
        <ele>1353.199951171875</ele>
        <time>2022-08-25T10:46:12.000Z</time>
      </trkpt>
      <trkpt lat="40.14206090010702610015869140625" lon="-1.69967897236347198486328125">
        <ele>1352</ele>
        <time>2022-08-25T10:46:14.000Z</time>
      </trkpt>
      <trkpt lat="40.1417885720729827880859375" lon="-1.69943748973309993743896484375">
        <ele>1350.800048828125</ele>
        <time>2022-08-25T10:46:17.000Z</time>
      </trkpt>
      <trkpt lat="40.14151029288768768310546875" lon="-1.69917446561157703399658203125">
        <ele>1349.4000244140625</ele>
        <time>2022-08-25T10:46:20.000Z</time>
      </trkpt>
      <trkpt lat="40.14141976833343505859375" lon="-1.69908410869538784027099609375">
        <ele>1349</ele>
        <time>2022-08-25T10:46:21.000Z</time>
      </trkpt>
      <trkpt lat="40.14123260043561458587646484375" lon="-1.69891261495649814605712890625">
        <ele>1347.5999755859375</ele>
        <time>2022-08-25T10:46:23.000Z</time>
      </trkpt>
      <trkpt lat="40.1410554908215999603271484375" lon="-1.69873726554214954376220703125">
        <ele>1346.199951171875</ele>
        <time>2022-08-25T10:46:25.000Z</time>
      </trkpt>
      <trkpt lat="40.14090034179389476776123046875" lon="-1.6985455714166164398193359375">
        <ele>1345</ele>
        <time>2022-08-25T10:46:27.000Z</time>
      </trkpt>
      <trkpt lat="40.1407768763601779937744140625" lon="-1.69833007268607616424560546875">
        <ele>1343.5999755859375</ele>
        <time>2022-08-25T10:46:29.000Z</time>
      </trkpt>
      <trkpt lat="40.14073471538722515106201171875" lon="-1.69820769689977169036865234375">
        <ele>1343</ele>
        <time>2022-08-25T10:46:30.000Z</time>
      </trkpt>
      <trkpt lat="40.14071493409574031829833984375" lon="-1.6980778612196445465087890625">
        <ele>1342.199951171875</ele>
        <time>2022-08-25T10:46:31.000Z</time>
      </trkpt>
      <trkpt lat="40.14075282029807567596435546875" lon="-1.6978297568857669830322265625">
        <ele>1341</ele>
        <time>2022-08-25T10:46:33.000Z</time>
      </trkpt>
      <trkpt lat="40.14085943810641765594482421875" lon="-1.69761308468878269195556640625">
        <ele>1339.5999755859375</ele>
        <time>2022-08-25T10:46:35.000Z</time>
      </trkpt>
      <trkpt lat="40.14094007201492786407470703125" lon="-1.6975169442594051361083984375">
        <ele>1339</ele>
        <time>2022-08-25T10:46:36.000Z</time>
      </trkpt>
      <trkpt lat="40.1410162635147571563720703125" lon="-1.69742055237293243408203125">
        <ele>1338.199951171875</ele>
        <time>2022-08-25T10:46:37.000Z</time>
      </trkpt>
      <trkpt lat="40.1411604322493076324462890625" lon="-1.697223074734210968017578125">
        <ele>1337</ele>
        <time>2022-08-25T10:46:39.000Z</time>
      </trkpt>
      <trkpt lat="40.14130535535514354705810546875" lon="-1.69702182523906230926513671875">
        <ele>1335.5999755859375</ele>
        <time>2022-08-25T10:46:41.000Z</time>
      </trkpt>
      <trkpt lat="40.141440890729427337646484375" lon="-1.69681177474558353424072265625">
        <ele>1334.199951171875</ele>
        <time>2022-08-25T10:46:43.000Z</time>
      </trkpt>
      <trkpt lat="40.14150895178318023681640625" lon="-1.696704737842082977294921875">
        <ele>1333.5999755859375</ele>
        <time>2022-08-25T10:46:44.000Z</time>
      </trkpt>
      <trkpt lat="40.14157324098050594329833984375" lon="-1.69659652747213840484619140625">
        <ele>1333</ele>
        <time>2022-08-25T10:46:45.000Z</time>
      </trkpt>
      <trkpt lat="40.1417015679180622100830078125" lon="-1.69638228602707386016845703125">
        <ele>1331.800048828125</ele>
        <time>2022-08-25T10:46:47.000Z</time>
      </trkpt>
      <trkpt lat="40.1418283022940158843994140625" lon="-1.69617374427616596221923828125">
        <ele>1330.4000244140625</ele>
        <time>2022-08-25T10:46:49.000Z</time>
      </trkpt>
      <trkpt lat="40.141892842948436737060546875" lon="-1.69607198797166347503662109375">
        <ele>1329.199951171875</ele>
        <time>2022-08-25T10:46:50.000Z</time>
      </trkpt>
      <trkpt lat="40.14202334918081760406494140625" lon="-1.69586311094462871551513671875">
        <ele>1328</ele>
        <time>2022-08-25T10:46:52.000Z</time>
      </trkpt>
      <trkpt lat="40.1420891471207141876220703125" lon="-1.695752553641796112060546875">
        <ele>1327.4000244140625</ele>
        <time>2022-08-25T10:46:53.000Z</time>
      </trkpt>
      <trkpt lat="40.14215511269867420196533203125" lon="-1.69563948176801204681396484375">
        <ele>1326.5999755859375</ele>
        <time>2022-08-25T10:46:54.000Z</time>
      </trkpt>
      <trkpt lat="40.1422909833490848541259765625" lon="-1.695403866469860076904296875">
        <ele>1325.4000244140625</ele>
        <time>2022-08-25T10:46:56.000Z</time>
      </trkpt>
      <trkpt lat="40.14240321703255176544189453125" lon="-1.6951418481767177581787109375">
        <ele>1323.800048828125</ele>
        <time>2022-08-25T10:46:58.000Z</time>
      </trkpt>
      <trkpt lat="40.1424431987106800079345703125" lon="-1.69499851763248443603515625">
        <ele>1323.199951171875</ele>
        <time>2022-08-25T10:46:59.000Z</time>
      </trkpt>
      <trkpt lat="40.1424727030098438262939453125" lon="-1.694855354726314544677734375">
        <ele>1322.4000244140625</ele>
        <time>2022-08-25T10:47:00.000Z</time>
      </trkpt>
      <trkpt lat="40.14252291060984134674072265625" lon="-1.694607920944690704345703125">
        <ele>1320.800048828125</ele>
        <time>2022-08-25T10:47:02.000Z</time>
      </trkpt>
      <trkpt lat="40.14255057089030742645263671875" lon="-1.694408096373081207275390625">
        <ele>1318.800048828125</ele>
        <time>2022-08-25T10:47:04.000Z</time>
      </trkpt>
      <trkpt lat="40.14256347902119159698486328125" lon="-1.69423517771065235137939453125">
        <ele>1317.199951171875</ele>
        <time>2022-08-25T10:47:06.000Z</time>
      </trkpt>
      <trkpt lat="40.14256230555474758148193359375" lon="-1.69406703673303127288818359375">
        <ele>1315.5999755859375</ele>
        <time>2022-08-25T10:47:08.000Z</time>
      </trkpt>
      <trkpt lat="40.14254562556743621826171875" lon="-1.69390149414539337158203125">
        <ele>1313.5999755859375</ele>
        <time>2022-08-25T10:47:10.000Z</time>
      </trkpt>
      <trkpt lat="40.14253414236009120941162109375" lon="-1.6938242129981517791748046875">
        <ele>1312.4000244140625</ele>
        <time>2022-08-25T10:47:11.000Z</time>
      </trkpt>
      <trkpt lat="40.14250564388930797576904296875" lon="-1.69369228184223175048828125">
        <ele>1310.5999755859375</ele>
        <time>2022-08-25T10:47:13.000Z</time>
      </trkpt>
      <trkpt lat="40.14247991144657135009765625" lon="-1.6935881786048412322998046875">
        <ele>1309.199951171875</ele>
        <time>2022-08-25T10:47:15.000Z</time>
      </trkpt>
      <trkpt lat="40.14247060753405094146728515625" lon="-1.693506203591823577880859375">
        <ele>1306.5999755859375</ele>
        <time>2022-08-25T10:47:17.000Z</time>
      </trkpt>
      <trkpt lat="40.142482258379459381103515625" lon="-1.6934758611023426055908203125">
        <ele>1305.5999755859375</ele>
        <time>2022-08-25T10:47:18.000Z</time>
      </trkpt>
      <trkpt lat="40.1425048895180225372314453125" lon="-1.69345230795443058013916015625">
        <ele>1304.800048828125</ele>
        <time>2022-08-25T10:47:19.000Z</time>
      </trkpt>
      <trkpt lat="40.1425662450492382049560546875" lon="-1.69342313893139362335205078125">
        <ele>1303.5999755859375</ele>
        <time>2022-08-25T10:47:21.000Z</time>
      </trkpt>
      <trkpt lat="40.14260019175708293914794921875" lon="-1.69340939261019229888916015625">
        <ele>1303</ele>
        <time>2022-08-25T10:47:22.000Z</time>
      </trkpt>
      <trkpt lat="40.1426369883120059967041015625" lon="-1.69339816085994243621826171875">
        <ele>1302.4000244140625</ele>
        <time>2022-08-25T10:47:23.000Z</time>
      </trkpt>
      <trkpt lat="40.142674036324024200439453125" lon="-1.693388521671295166015625">
        <ele>1302</ele>
        <time>2022-08-25T10:47:24.000Z</time>
      </trkpt>
      <trkpt lat="40.14271519146859645843505859375" lon="-1.69338357634842395782470703125">
        <ele>1301.800048828125</ele>
        <time>2022-08-25T10:47:25.000Z</time>
      </trkpt>
      <trkpt lat="40.14290965162217617034912109375" lon="-1.69336345978081226348876953125">
        <ele>1301.4000244140625</ele>
        <time>2022-08-25T10:47:29.000Z</time>
      </trkpt>
      <trkpt lat="40.1432012580335140228271484375" lon="-1.693355329334735870361328125">
        <ele>1301.4000244140625</ele>
        <time>2022-08-25T10:47:34.000Z</time>
      </trkpt>
      <trkpt lat="40.143331177532672882080078125" lon="-1.69335021637380123138427734375">
        <ele>1301.4000244140625</ele>
        <time>2022-08-25T10:47:36.000Z</time>
      </trkpt>
      <trkpt lat="40.14369788579642772674560546875" lon="-1.69333211146295070648193359375">
        <ele>1300.5999755859375</ele>
        <time>2022-08-25T10:47:41.000Z</time>
      </trkpt>
      <trkpt lat="40.14385194517672061920166015625" lon="-1.693294979631900787353515625">
        <ele>1300.199951171875</ele>
        <time>2022-08-25T10:47:43.000Z</time>
      </trkpt>
      <trkpt lat="40.144011117517948150634765625" lon="-1.6932421736419200897216796875">
        <ele>1299.4000244140625</ele>
        <time>2022-08-25T10:47:45.000Z</time>
      </trkpt>
      <trkpt lat="40.14424740336835384368896484375" lon="-1.693122647702693939208984375">
        <ele>1299</ele>
        <time>2022-08-25T10:47:48.000Z</time>
      </trkpt>
      <trkpt lat="40.144617967307567596435546875" lon="-1.6928448714315891265869140625">
        <ele>1298.4000244140625</ele>
        <time>2022-08-25T10:47:53.000Z</time>
      </trkpt>
      <trkpt lat="40.14468661509454250335693359375" lon="-1.6927758045494556427001953125">
        <ele>1298</ele>
        <time>2022-08-25T10:47:54.000Z</time>
      </trkpt>
      <trkpt lat="40.14501686207950115203857421875" lon="-1.69238378293812274932861328125">
        <ele>1297.199951171875</ele>
        <time>2022-08-25T10:47:59.000Z</time>
      </trkpt>
      <trkpt lat="40.1450824923813343048095703125" lon="-1.6922982037067413330078125">
        <ele>1296.800048828125</ele>
        <time>2022-08-25T10:48:00.000Z</time>
      </trkpt>
      <trkpt lat="40.14539957977831363677978515625" lon="-1.691849939525127410888671875">
        <ele>1295.800048828125</ele>
        <time>2022-08-25T10:48:05.000Z</time>
      </trkpt>
      <trkpt lat="40.14549245126545429229736328125" lon="-1.69164835475385189056396484375">
        <ele>1295</ele>
        <time>2022-08-25T10:48:07.000Z</time>
      </trkpt>
      <trkpt lat="40.14552824199199676513671875" lon="-1.6915346123278141021728515625">
        <ele>1294.5999755859375</ele>
        <time>2022-08-25T10:48:08.000Z</time>
      </trkpt>
      <trkpt lat="40.14557383954524993896484375" lon="-1.6911674849689006805419921875">
        <ele>1293.5999755859375</ele>
        <time>2022-08-25T10:48:11.000Z</time>
      </trkpt>
      <trkpt lat="40.14557518064975738525390625" lon="-1.6910471208393573760986328125">
        <ele>1292.199951171875</ele>
        <time>2022-08-25T10:48:12.000Z</time>
      </trkpt>
      <trkpt lat="40.14555565081536769866943359375" lon="-1.69081033207476139068603515625">
        <ele>1291</ele>
        <time>2022-08-25T10:48:14.000Z</time>
      </trkpt>
      <trkpt lat="40.14553436078131198883056640625" lon="-1.690693907439708709716796875">
        <ele>1290.4000244140625</ele>
        <time>2022-08-25T10:48:15.000Z</time>
      </trkpt>
      <trkpt lat="40.14550720341503620147705078125" lon="-1.69058050028979778289794921875">
        <ele>1290</ele>
        <time>2022-08-25T10:48:16.000Z</time>
      </trkpt>
      <trkpt lat="40.1454177685081958770751953125" lon="-1.69027036987245082855224609375">
        <ele>1288.4000244140625</ele>
        <time>2022-08-25T10:48:19.000Z</time>
      </trkpt>
      <trkpt lat="40.14539144933223724365234375" lon="-1.69018931686878204345703125">
        <ele>1288</ele>
        <time>2022-08-25T10:48:20.000Z</time>
      </trkpt>
      <trkpt lat="40.14536454342305660247802734375" lon="-1.690057218074798583984375">
        <ele>1287.4000244140625</ele>
        <time>2022-08-25T10:48:22.000Z</time>
      </trkpt>
      <trkpt lat="40.1453715004026889801025390625" lon="-1.68999745510518550872802734375">
        <ele>1287</ele>
        <time>2022-08-25T10:48:23.000Z</time>
      </trkpt>
      <trkpt lat="40.14542539604008197784423828125" lon="-1.68984867632389068603515625">
        <ele>1286</ele>
        <time>2022-08-25T10:48:26.000Z</time>
      </trkpt>
      <trkpt lat="40.1454425789415836334228515625" lon="-1.6898055933415889739990234375">
        <ele>1285.5999755859375</ele>
        <time>2022-08-25T10:48:27.000Z</time>
      </trkpt>
      <trkpt lat="40.145480297505855560302734375" lon="-1.689728312194347381591796875">
        <ele>1284.4000244140625</ele>
        <time>2022-08-25T10:48:29.000Z</time>
      </trkpt>
      <trkpt lat="40.145510137081146240234375" lon="-1.6896523721516132354736328125">
        <ele>1283.199951171875</ele>
        <time>2022-08-25T10:48:31.000Z</time>
      </trkpt>
      <trkpt lat="40.14553436078131198883056640625" lon="-1.68960166163742542266845703125">
        <ele>1282.5999755859375</ele>
        <time>2022-08-25T10:48:33.000Z</time>
      </trkpt>
      <trkpt lat="40.1455864124000072479248046875" lon="-1.68958741240203380584716796875">
        <ele>1282.199951171875</ele>
        <time>2022-08-25T10:48:36.000Z</time>
      </trkpt>
      <trkpt lat="40.14559504576027393341064453125" lon="-1.68958959169685840606689453125">
        <ele>1282.199951171875</ele>
        <time>2022-08-25T10:48:37.000Z</time>
      </trkpt>
      <trkpt lat="40.14559571631252765655517578125" lon="-1.68959696777164936065673828125">
        <ele>1282</ele>
        <time>2022-08-25T10:48:39.000Z</time>
      </trkpt>
      <trkpt lat="40.14554324559867382049560546875" lon="-1.689747087657451629638671875">
        <ele>1282.199951171875</ele>
        <time>2022-08-25T10:53:24.000Z</time>
      </trkpt>
      <trkpt lat="40.14552698470652103424072265625" lon="-1.6897817887365818023681640625">
        <ele>1282.199951171875</ele>
        <time>2022-08-25T10:53:25.000Z</time>
      </trkpt>
      <trkpt lat="40.1454207859933376312255859375" lon="-1.6899383626878261566162109375">
        <ele>1282.199951171875</ele>
        <time>2022-08-25T10:53:31.000Z</time>
      </trkpt>
      <trkpt lat="40.14533638022840023040771484375" lon="-1.689997874200344085693359375">
        <ele>1282.199951171875</ele>
        <time>2022-08-25T10:53:35.000Z</time>
      </trkpt>
      <trkpt lat="40.14529128558933734893798828125" lon="-1.68996426276862621307373046875">
        <ele>1282.199951171875</ele>
        <time>2022-08-25T10:53:37.000Z</time>
      </trkpt>
      <trkpt lat="40.1452263258397579193115234375" lon="-1.68979813344776630401611328125">
        <ele>1282.4000244140625</ele>
        <time>2022-08-25T10:53:41.000Z</time>
      </trkpt>
      <trkpt lat="40.1452164351940155029296875" lon="-1.689755134284496307373046875">
        <ele>1282.4000244140625</ele>
        <time>2022-08-25T10:53:42.000Z</time>
      </trkpt>
      <trkpt lat="40.14510269276797771453857421875" lon="-1.6893885098397731781005859375">
        <ele>1282.4000244140625</ele>
        <time>2022-08-25T10:53:50.000Z</time>
      </trkpt>
      <trkpt lat="40.145029686391353607177734375" lon="-1.6890562511980533599853515625">
        <ele>1282</ele>
        <time>2022-08-25T10:53:56.000Z</time>
      </trkpt>
      <trkpt lat="40.14505005441606044769287109375" lon="-1.68887863866984844207763671875">
        <ele>1281.4000244140625</ele>
        <time>2022-08-25T10:54:00.000Z</time>
      </trkpt>
      <trkpt lat="40.1450700871646404266357421875" lon="-1.6888292692601680755615234375">
        <ele>1281.199951171875</ele>
        <time>2022-08-25T10:54:01.000Z</time>
      </trkpt>
      <trkpt lat="40.145155079662799835205078125" lon="-1.6886669956147670745849609375">
        <ele>1280.199951171875</ele>
        <time>2022-08-25T10:54:04.000Z</time>
      </trkpt>
      <trkpt lat="40.14522557146847248077392578125" lon="-1.6885493136942386627197265625">
        <ele>1280</ele>
        <time>2022-08-25T10:54:06.000Z</time>
      </trkpt>
      <trkpt lat="40.1454952172935009002685546875" lon="-1.688218899071216583251953125">
        <ele>1279.199951171875</ele>
        <time>2022-08-25T10:54:12.000Z</time>
      </trkpt>
      <trkpt lat="40.14571138657629489898681640625" lon="-1.68805385939776897430419921875">
        <ele>1278</ele>
        <time>2022-08-25T10:54:16.000Z</time>
      </trkpt>
      <trkpt lat="40.1458284817636013031005859375" lon="-1.68796534650027751922607421875">
        <ele>1277.800048828125</ele>
        <time>2022-08-25T10:54:18.000Z</time>
      </trkpt>
      <trkpt lat="40.14609175734221935272216796875" lon="-1.68778647668659687042236328125">
        <ele>1277.199951171875</ele>
        <time>2022-08-25T10:54:23.000Z</time>
      </trkpt>
      <trkpt lat="40.146221257746219635009765625" lon="-1.68769243173301219940185546875">
        <ele>1276.5999755859375</ele>
        <time>2022-08-25T10:54:26.000Z</time>
      </trkpt>
      <trkpt lat="40.14639283530414104461669921875" lon="-1.68757659383118152618408203125">
        <ele>1275.5999755859375</ele>
        <time>2022-08-25T10:54:30.000Z</time>
      </trkpt>
      <trkpt lat="40.14646676369011402130126953125" lon="-1.68752093799412250518798828125">
        <ele>1275</ele>
        <time>2022-08-25T10:54:32.000Z</time>
      </trkpt>
      <trkpt lat="40.14649542979896068572998046875" lon="-1.6874821297824382781982421875">
        <ele>1274.800048828125</ele>
        <time>2022-08-25T10:54:33.000Z</time>
      </trkpt>
      <trkpt lat="40.14651286415755748748779296875" lon="-1.68743309564888477325439453125">
        <ele>1274.4000244140625</ele>
        <time>2022-08-25T10:54:34.000Z</time>
      </trkpt>
      <trkpt lat="40.14650766737759113311767578125" lon="-1.6872802935540676116943359375">
        <ele>1273.4000244140625</ele>
        <time>2022-08-25T10:54:37.000Z</time>
      </trkpt>
      <trkpt lat="40.14648838900029659271240234375" lon="-1.68723125942051410675048828125">
        <ele>1273</ele>
        <time>2022-08-25T10:54:38.000Z</time>
      </trkpt>
      <trkpt lat="40.1464363373816013336181640625" lon="-1.68714107014238834381103515625">
        <ele>1272.4000244140625</ele>
        <time>2022-08-25T10:54:40.000Z</time>
      </trkpt>
      <trkpt lat="40.14640725217759609222412109375" lon="-1.68709279038012027740478515625">
        <ele>1272</ele>
        <time>2022-08-25T10:54:41.000Z</time>
      </trkpt>
      <trkpt lat="40.14635712839663028717041015625" lon="-1.6869983263313770294189453125">
        <ele>1271.5999755859375</ele>
        <time>2022-08-25T10:54:43.000Z</time>
      </trkpt>
      <trkpt lat="40.1463156379759311676025390625" lon="-1.686906628310680389404296875">
        <ele>1271</ele>
        <time>2022-08-25T10:54:45.000Z</time>
      </trkpt>
      <trkpt lat="40.1462690345942974090576171875" lon="-1.68680093251168727874755859375">
        <ele>1269.800048828125</ele>
        <time>2022-08-25T10:54:48.000Z</time>
      </trkpt>
      <trkpt lat="40.146261155605316162109375" lon="-1.6867777146399021148681640625">
        <ele>1269.5999755859375</ele>
        <time>2022-08-25T10:54:49.000Z</time>
      </trkpt>
      <trkpt lat="40.14625118114054203033447265625" lon="-1.6867663152515888214111328125">
        <ele>1269.4000244140625</ele>
        <time>2022-08-25T10:54:50.000Z</time>
      </trkpt>
      <trkpt lat="40.14624246396124362945556640625" lon="-1.68676237575709819793701171875">
        <ele>1268.800048828125</ele>
        <time>2022-08-25T10:54:52.000Z</time>
      </trkpt>
      <trkpt lat="40.14624430797994136810302734375" lon="-1.68676279485225677490234375">
        <ele>1268.4000244140625</ele>
        <time>2022-08-25T10:54:53.000Z</time>
      </trkpt>
      <trkpt lat="40.1461476646363735198974609375" lon="-1.68683412484824657440185546875">
        <ele>1266.199951171875</ele>
        <time>2022-08-25T10:55:37.000Z</time>
      </trkpt>
      <trkpt lat="40.14609410427510738372802734375" lon="-1.686851978302001953125">
        <ele>1266.4000244140625</ele>
        <time>2022-08-25T10:55:40.000Z</time>
      </trkpt>
      <trkpt lat="40.1459894143044948577880859375" lon="-1.6869270801544189453125">
        <ele>1267.199951171875</ele>
        <time>2022-08-25T10:55:47.000Z</time>
      </trkpt>
      <trkpt lat="40.14594088308513164520263671875" lon="-1.68699539266526699066162109375">
        <ele>1268.4000244140625</ele>
        <time>2022-08-25T10:55:53.000Z</time>
      </trkpt>
      <trkpt lat="40.1459223590791225433349609375" lon="-1.68701148591935634613037109375">
        <ele>1268.5999755859375</ele>
        <time>2022-08-25T10:55:54.000Z</time>
      </trkpt>
      <trkpt lat="40.1458157412707805633544921875" lon="-1.687064878642559051513671875">
        <ele>1268.5999755859375</ele>
        <time>2022-08-25T10:55:57.000Z</time>
      </trkpt>
      <trkpt lat="40.14570585452020168304443359375" lon="-1.68709807097911834716796875">
        <ele>1268.5999755859375</ele>
        <time>2022-08-25T10:56:01.000Z</time>
      </trkpt>
      <trkpt lat="40.1456829719245433807373046875" lon="-1.6870727576315402984619140625">
        <ele>1268.5999755859375</ele>
        <time>2022-08-25T10:56:02.000Z</time>
      </trkpt>
      <trkpt lat="40.1455951295793056488037109375" lon="-1.68699187226593494415283203125">
        <ele>1268.4000244140625</ele>
        <time>2022-08-25T10:56:06.000Z</time>
      </trkpt>
      <trkpt lat="40.14556185342371463775634765625" lon="-1.68702020309865474700927734375">
        <ele>1268.199951171875</ele>
        <time>2022-08-25T10:56:08.000Z</time>
      </trkpt>
      <trkpt lat="40.14549513347446918487548828125" lon="-1.6871015913784503936767578125">
        <ele>1267.4000244140625</ele>
        <time>2022-08-25T10:56:12.000Z</time>
      </trkpt>
      <trkpt lat="40.14546127058565616607666015625" lon="-1.687165461480617523193359375">
        <ele>1267</ele>
        <time>2022-08-25T10:56:14.000Z</time>
      </trkpt>
      <trkpt lat="40.14544375240802764892578125" lon="-1.687200330197811126708984375">
        <ele>1266.800048828125</ele>
        <time>2022-08-25T10:56:15.000Z</time>
      </trkpt>
      <trkpt lat="40.14538633637130260467529296875" lon="-1.68729445897042751312255859375">
        <ele>1266.4000244140625</ele>
        <time>2022-08-25T10:56:18.000Z</time>
      </trkpt>
      <trkpt lat="40.14533923007547855377197265625" lon="-1.6873577423393726348876953125">
        <ele>1266.4000244140625</ele>
        <time>2022-08-25T10:56:21.000Z</time>
      </trkpt>
      <trkpt lat="40.1452553272247314453125" lon="-1.687396131455898284912109375">
        <ele>1266.4000244140625</ele>
        <time>2022-08-25T10:56:26.000Z</time>
      </trkpt>
      <trkpt lat="40.145232863724231719970703125" lon="-1.68740392662584781646728515625">
        <ele>1266.4000244140625</ele>
        <time>2022-08-25T10:56:27.000Z</time>
      </trkpt>
      <trkpt lat="40.145118199288845062255859375" lon="-1.687398813664913177490234375">
        <ele>1266.5999755859375</ele>
        <time>2022-08-25T10:56:34.000Z</time>
      </trkpt>
      <trkpt lat="40.14510638080537319183349609375" lon="-1.687335111200809478759765625">
        <ele>1266.5999755859375</ele>
        <time>2022-08-25T10:56:38.000Z</time>
      </trkpt>
      <trkpt lat="40.145107805728912353515625" lon="-1.6873389668762683868408203125">
        <ele>1266.4000244140625</ele>
        <time>2022-08-25T10:56:40.000Z</time>
      </trkpt>
      <trkpt lat="40.14514091424643993377685546875" lon="-1.68724416755139827728271484375">
        <ele>1265.800048828125</ele>
        <time>2022-08-25T10:57:19.000Z</time>
      </trkpt>
      <trkpt lat="40.1451520621776580810546875" lon="-1.687196306884288787841796875">
        <ele>1265.800048828125</ele>
        <time>2022-08-25T10:57:21.000Z</time>
      </trkpt>
      <trkpt lat="40.1451958157122135162353515625" lon="-1.687095053493976593017578125">
        <ele>1265.5999755859375</ele>
        <time>2022-08-25T10:57:24.000Z</time>
      </trkpt>
      <trkpt lat="40.1452367193996906280517578125" lon="-1.68698734603822231292724609375">
        <ele>1265.4000244140625</ele>
        <time>2022-08-25T10:57:27.000Z</time>
      </trkpt>
      <trkpt lat="40.14528742991387844085693359375" lon="-1.6868652217090129852294921875">
        <ele>1264.5999755859375</ele>
        <time>2022-08-25T10:57:33.000Z</time>
      </trkpt>
      <trkpt lat="40.14530955813825130462646484375" lon="-1.68684032745659351348876953125">
        <ele>1264.4000244140625</ele>
        <time>2022-08-25T10:57:35.000Z</time>
      </trkpt>
      <trkpt lat="40.14535213820636272430419921875" lon="-1.6867512278258800506591796875">
        <ele>1264.199951171875</ele>
        <time>2022-08-25T10:57:39.000Z</time>
      </trkpt>
      <trkpt lat="40.1454583369195461273193359375" lon="-1.6865678317844867706298828125">
        <ele>1264</ele>
        <time>2022-08-25T10:57:46.000Z</time>
      </trkpt>
      <trkpt lat="40.145546011626720428466796875" lon="-1.68640748597681522369384765625">
        <ele>1264.199951171875</ele>
        <time>2022-08-25T10:57:52.000Z</time>
      </trkpt>
      <trkpt lat="40.14560527168214321136474609375" lon="-1.6862452961504459381103515625">
        <ele>1264.199951171875</ele>
        <time>2022-08-25T10:57:57.000Z</time>
      </trkpt>
      <trkpt lat="40.14558549039065837860107421875" lon="-1.6861537657678127288818359375">
        <ele>1264</ele>
        <time>2022-08-25T10:58:02.000Z</time>
      </trkpt>
      <trkpt lat="40.145577527582645416259765625" lon="-1.6861420311033725738525390625">
        <ele>1263.800048828125</ele>
        <time>2022-08-25T10:58:03.000Z</time>
      </trkpt>
      <trkpt lat="40.14557861723005771636962890625" lon="-1.68612040579319000244140625">
        <ele>1263.5999755859375</ele>
        <time>2022-08-25T10:58:05.000Z</time>
      </trkpt>
      <trkpt lat="40.14555481262505054473876953125" lon="-1.68609903194010257720947265625">
        <ele>1262.4000244140625</ele>
        <time>2022-08-25T10:58:08.000Z</time>
      </trkpt>
      <trkpt lat="40.14554089866578578948974609375" lon="-1.6860927455127239227294921875">
        <ele>1262.4000244140625</ele>
        <time>2022-08-25T10:58:09.000Z</time>
      </trkpt>
      <trkpt lat="40.1454865001142024993896484375" lon="-1.68605930171906948089599609375">
        <ele>1261.800048828125</ele>
        <time>2022-08-25T10:58:15.000Z</time>
      </trkpt>
      <trkpt lat="40.1454472728073596954345703125" lon="-1.68614588677883148193359375">
        <ele>1261.4000244140625</ele>
        <time>2022-08-25T10:58:23.000Z</time>
      </trkpt>
      <trkpt lat="40.145439393818378448486328125" lon="-1.68615384958684444427490234375">
        <ele>1261.4000244140625</ele>
        <time>2022-08-25T10:58:29.000Z</time>
      </trkpt>
      <trkpt lat="40.144235081970691680908203125" lon="-1.686690710484981536865234375">
        <ele>1809.800048828125</ele>
        <time>2022-08-25T11:13:17.000Z</time>
      </trkpt>
      <trkpt lat="40.1442315615713596343994140625" lon="-1.68670252896845340728759765625">
        <ele>1533</ele>
        <time>2022-08-25T11:13:18.000Z</time>
      </trkpt>
      <trkpt lat="40.1443499140441417694091796875" lon="-1.68670722283422946929931640625">
        <ele>1254.4000244140625</ele>
        <time>2022-08-25T11:13:43.000Z</time>
      </trkpt>
      <trkpt lat="40.1443934999406337738037109375" lon="-1.686613596975803375244140625">
        <ele>1254.5999755859375</ele>
        <time>2022-08-25T11:13:47.000Z</time>
      </trkpt>
      <trkpt lat="40.14441378414630889892578125" lon="-1.68656674213707447052001953125">
        <ele>1255</ele>
        <time>2022-08-25T11:13:49.000Z</time>
      </trkpt>
      <trkpt lat="40.144453011453151702880859375" lon="-1.6863328032195568084716796875">
        <ele>1255.199951171875</ele>
        <time>2022-08-25T11:13:57.000Z</time>
      </trkpt>
      <trkpt lat="40.1444680988788604736328125" lon="-1.686205230653285980224609375">
        <ele>1255.4000244140625</ele>
        <time>2022-08-25T11:14:01.000Z</time>
      </trkpt>
      <trkpt lat="40.1444796659052371978759765625" lon="-1.68616608716547489166259765625">
        <ele>1255.4000244140625</ele>
        <time>2022-08-25T11:14:02.000Z</time>
      </trkpt>
      <trkpt lat="40.1445995271205902099609375" lon="-1.6858603991568088531494140625">
        <ele>1255.4000244140625</ele>
        <time>2022-08-25T11:14:10.000Z</time>
      </trkpt>
      <trkpt lat="40.14471678994596004486083984375" lon="-1.6854929365217685699462890625">
        <ele>1255</ele>
        <time>2022-08-25T11:14:18.000Z</time>
      </trkpt>
      <trkpt lat="40.14478920958936214447021484375" lon="-1.68528699316084384918212890625">
        <ele>1254.4000244140625</ele>
        <time>2022-08-25T11:14:23.000Z</time>
      </trkpt>
      <trkpt lat="40.14480882324278354644775390625" lon="-1.685251705348491668701171875">
        <ele>1254.199951171875</ele>
        <time>2022-08-25T11:14:24.000Z</time>
      </trkpt>
      <trkpt lat="40.14490504749119281768798828125" lon="-1.685131005942821502685546875">
        <ele>1253.800048828125</ele>
        <time>2022-08-25T11:14:29.000Z</time>
      </trkpt>
      <trkpt lat="40.1450382359325885772705078125" lon="-1.6851301677525043487548828125">
        <ele>1253.800048828125</ele>
        <time>2022-08-25T11:14:35.000Z</time>
      </trkpt>
      <trkpt lat="40.1452263258397579193115234375" lon="-1.68520099483430385589599609375">
        <ele>1253.800048828125</ele>
        <time>2022-08-25T11:14:42.000Z</time>
      </trkpt>
      <trkpt lat="40.14532506465911865234375" lon="-1.68534248135983943939208984375">
        <ele>1254.5999755859375</ele>
        <time>2022-08-25T11:14:51.000Z</time>
      </trkpt>
      <trkpt lat="40.14536420814692974090576171875" lon="-1.68540014885365962982177734375">
        <ele>1255.800048828125</ele>
        <time>2022-08-25T11:14:54.000Z</time>
      </trkpt>
      <trkpt lat="40.14542522840201854705810546875" lon="-1.6854919306933879852294921875">
        <ele>1257</ele>
        <time>2022-08-25T11:14:59.000Z</time>
      </trkpt>
      <trkpt lat="40.14544534496963024139404296875" lon="-1.68559142388403415679931640625">
        <ele>1257.800048828125</ele>
        <time>2022-08-25T11:15:04.000Z</time>
      </trkpt>
      <trkpt lat="40.1454794593155384063720703125" lon="-1.685631908476352691650390625">
        <ele>1258</ele>
        <time>2022-08-25T11:15:06.000Z</time>
      </trkpt>
      <trkpt lat="40.14549328945577144622802734375" lon="-1.685655377805233001708984375">
        <ele>1258</ele>
        <time>2022-08-25T11:15:07.000Z</time>
      </trkpt>
      <trkpt lat="40.1455780304968357086181640625" lon="-1.6858285479247570037841796875">
        <ele>1258.4000244140625</ele>
        <time>2022-08-25T11:15:14.000Z</time>
      </trkpt>
      <trkpt lat="40.14569127000868320465087890625" lon="-1.68598285876214504241943359375">
        <ele>1259</ele>
        <time>2022-08-25T11:15:21.000Z</time>
      </trkpt>
      <trkpt lat="40.145765282213687896728515625" lon="-1.68605309911072254180908203125">
        <ele>1259.800048828125</ele>
        <time>2022-08-25T11:15:25.000Z</time>
      </trkpt>
      <trkpt lat="40.145813561975955963134765625" lon="-1.68607614934444427490234375">
        <ele>1260.199951171875</ele>
        <time>2022-08-25T11:15:27.000Z</time>
      </trkpt>
      <trkpt lat="40.14595328830182552337646484375" lon="-1.68610087595880031585693359375">
        <ele>1260.800048828125</ele>
        <time>2022-08-25T11:15:33.000Z</time>
      </trkpt>
      <trkpt lat="40.14611086808145046234130859375" lon="-1.686168350279331207275390625">
        <ele>1261</ele>
        <time>2022-08-25T11:15:41.000Z</time>
      </trkpt>
      <trkpt lat="40.14612712897360324859619140625" lon="-1.686188466846942901611328125">
        <ele>1261.199951171875</ele>
        <time>2022-08-25T11:15:42.000Z</time>
      </trkpt>
      <trkpt lat="40.14623911119997501373291015625" lon="-1.686320565640926361083984375">
        <ele>1262.199951171875</ele>
        <time>2022-08-25T11:15:48.000Z</time>
      </trkpt>
      <trkpt lat="40.14630633406341075897216796875" lon="-1.6863995231688022613525390625">
        <ele>1263</ele>
        <time>2022-08-25T11:15:52.000Z</time>
      </trkpt>
      <trkpt lat="40.146456621587276458740234375" lon="-1.6864551790058612823486328125">
        <ele>1263.4000244140625</ele>
        <time>2022-08-25T11:15:57.000Z</time>
      </trkpt>
      <trkpt lat="40.14648721553385257720947265625" lon="-1.6864840127527713775634765625">
        <ele>1263.4000244140625</ele>
        <time>2022-08-25T11:15:59.000Z</time>
      </trkpt>
      <trkpt lat="40.1464805938303470611572265625" lon="-1.68649599887430667877197265625">
        <ele>1263.4000244140625</ele>
        <time>2022-08-25T11:16:00.000Z</time>
      </trkpt>
      <trkpt lat="40.14646525494754314422607421875" lon="-1.68650153093039989471435546875">
        <ele>1263.4000244140625</ele>
        <time>2022-08-25T11:16:01.000Z</time>
      </trkpt>
      <trkpt lat="40.14642544090747833251953125" lon="-1.6865259222686290740966796875">
        <ele>1263.4000244140625</ele>
        <time>2022-08-25T11:16:04.000Z</time>
      </trkpt>
      <trkpt lat="40.14642217196524143218994140625" lon="-1.6865475475788116455078125">
        <ele>1263.4000244140625</ele>
        <time>2022-08-25T11:16:05.000Z</time>
      </trkpt>
      <trkpt lat="40.1464252732694149017333984375" lon="-1.68657101690769195556640625">
        <ele>1263.4000244140625</ele>
        <time>2022-08-25T11:16:06.000Z</time>
      </trkpt>
      <trkpt lat="40.146468691527843475341796875" lon="-1.6866831667721271514892578125">
        <ele>1263.4000244140625</ele>
        <time>2022-08-25T11:16:10.000Z</time>
      </trkpt>
      <trkpt lat="40.14653532765805721282958984375" lon="-1.6868855059146881103515625">
        <ele>1264.199951171875</ele>
        <time>2022-08-25T11:16:18.000Z</time>
      </trkpt>
      <trkpt lat="40.14657287858426570892333984375" lon="-1.68653304688632488250732421875">
        <ele>1264.4000244140625</ele>
        <time>2022-08-25T11:20:47.000Z</time>
      </trkpt>
      <trkpt lat="40.14658503234386444091796875" lon="-1.6865420155227184295654296875">
        <ele>1264.4000244140625</ele>
        <time>2022-08-25T11:20:48.000Z</time>
      </trkpt>
      <trkpt lat="40.14664471149444580078125" lon="-1.68660026974976062774658203125">
        <ele>1264</ele>
        <time>2022-08-25T11:20:51.000Z</time>
      </trkpt>
      <trkpt lat="40.146755017340183258056640625" lon="-1.68670889921486377716064453125">
        <ele>1264.199951171875</ele>
        <time>2022-08-25T11:20:54.000Z</time>
      </trkpt>
      <trkpt lat="40.14680606313049793243408203125" lon="-1.6867458634078502655029296875">
        <ele>1264.199951171875</ele>
        <time>2022-08-25T11:20:55.000Z</time>
      </trkpt>
      <trkpt lat="40.14712776057422161102294921875" lon="-1.68692196719348430633544921875">
        <ele>1263.4000244140625</ele>
        <time>2022-08-25T11:21:00.000Z</time>
      </trkpt>
      <trkpt lat="40.14722398482263088226318359375" lon="-1.6869118250906467437744140625">
        <ele>1263.199951171875</ele>
        <time>2022-08-25T11:21:01.000Z</time>
      </trkpt>
      <trkpt lat="40.14740436337888240814208984375" lon="-1.68682440184056758880615234375">
        <ele>1262.4000244140625</ele>
        <time>2022-08-25T11:21:03.000Z</time>
      </trkpt>
      <trkpt lat="40.14748767949640750885009765625" lon="-1.68675852008163928985595703125">
        <ele>1262</ele>
        <time>2022-08-25T11:21:04.000Z</time>
      </trkpt>
      <trkpt lat="40.1476946286857128143310546875" lon="-1.68653069995343685150146484375">
        <ele>1260.800048828125</ele>
        <time>2022-08-25T11:21:07.000Z</time>
      </trkpt>
      <trkpt lat="40.14780049212276935577392578125" lon="-1.68636758811771869659423828125">
        <ele>1260.199951171875</ele>
        <time>2022-08-25T11:21:09.000Z</time>
      </trkpt>
      <trkpt lat="40.1479967124760150909423828125" lon="-1.68608025647699832916259765625">
        <ele>1260</ele>
        <time>2022-08-25T11:21:13.000Z</time>
      </trkpt>
      <trkpt lat="40.1481668651103973388671875" lon="-1.685839109122753143310546875">
        <ele>1259.5999755859375</ele>
        <time>2022-08-25T11:21:17.000Z</time>
      </trkpt>
      <trkpt lat="40.14836560003459453582763671875" lon="-1.68557315133512020111083984375">
        <ele>1259.5999755859375</ele>
        <time>2022-08-25T11:21:22.000Z</time>
      </trkpt>
      <trkpt lat="40.14867539517581462860107421875" lon="-1.68535404838621616363525390625">
        <ele>1259.5999755859375</ele>
        <time>2022-08-25T11:21:28.000Z</time>
      </trkpt>
      <trkpt lat="40.148973874747753143310546875" lon="-1.68528464622795581817626953125">
        <ele>1259.5999755859375</ele>
        <time>2022-08-25T11:21:33.000Z</time>
      </trkpt>
      <trkpt lat="40.14927352778613567352294921875" lon="-1.68530459515750408172607421875">
        <ele>1259.4000244140625</ele>
        <time>2022-08-25T11:21:38.000Z</time>
      </trkpt>
      <trkpt lat="40.14932901598513126373291015625" lon="-1.6853289864957332611083984375">
        <ele>1259.4000244140625</ele>
        <time>2022-08-25T11:21:39.000Z</time>
      </trkpt>
      <trkpt lat="40.14952330850064754486083984375" lon="-1.6855167411267757415771484375">
        <ele>1259.5999755859375</ele>
        <time>2022-08-25T11:21:43.000Z</time>
      </trkpt>
      <trkpt lat="40.1495674811303615570068359375" lon="-1.68558086268603801727294921875">
        <ele>1259.5999755859375</ele>
        <time>2022-08-25T11:21:44.000Z</time>
      </trkpt>
      <trkpt lat="40.14970653690397739410400390625" lon="-1.68574799783527851104736328125">
        <ele>1259.800048828125</ele>
        <time>2022-08-25T11:21:47.000Z</time>
      </trkpt>
      <trkpt lat="40.14981902204453945159912109375" lon="-1.68580650351941585540771484375">
        <ele>1259.800048828125</ele>
        <time>2022-08-25T11:21:49.000Z</time>
      </trkpt>
      <trkpt lat="40.14999906532466411590576171875" lon="-1.68581522069871425628662109375">
        <ele>1259.800048828125</ele>
        <time>2022-08-25T11:21:52.000Z</time>
      </trkpt>
      <trkpt lat="40.15011440031230449676513671875" lon="-1.68581069447100162506103515625">
        <ele>1260</ele>
        <time>2022-08-25T11:21:54.000Z</time>
      </trkpt>
      <trkpt lat="40.150660313665866851806640625" lon="-1.68580298312008380889892578125">
        <ele>1260.4000244140625</ele>
        <time>2022-08-25T11:22:04.000Z</time>
      </trkpt>
      <trkpt lat="40.151244699954986572265625" lon="-1.68582041747868061065673828125">
        <ele>1260.5999755859375</ele>
        <time>2022-08-25T11:22:15.000Z</time>
      </trkpt>
      <trkpt lat="40.15134067274630069732666015625" lon="-1.6858493350446224212646484375">
        <ele>1260.800048828125</ele>
        <time>2022-08-25T11:22:17.000Z</time>
      </trkpt>
      <trkpt lat="40.151788182556629180908203125" lon="-1.68597565032541751861572265625">
        <ele>1261.199951171875</ele>
        <time>2022-08-25T11:22:26.000Z</time>
      </trkpt>
      <trkpt lat="40.15193176455795764923095703125" lon="-1.68602116405963897705078125">
        <ele>1262</ele>
        <time>2022-08-25T11:22:29.000Z</time>
      </trkpt>
      <trkpt lat="40.15225849114358425140380859375" lon="-1.686122082173824310302734375">
        <ele>1263</ele>
        <time>2022-08-25T11:22:36.000Z</time>
      </trkpt>
      <trkpt lat="40.152305848896503448486328125" lon="-1.68613515794277191162109375">
        <ele>1263.199951171875</ele>
        <time>2022-08-25T11:22:37.000Z</time>
      </trkpt>
      <trkpt lat="40.152832567691802978515625" lon="-1.68629785068333148956298828125">
        <ele>1263.800048828125</ele>
        <time>2022-08-25T11:22:48.000Z</time>
      </trkpt>
      <trkpt lat="40.152981095016002655029296875" lon="-1.68634160421788692474365234375">
        <ele>1264</ele>
        <time>2022-08-25T11:22:51.000Z</time>
      </trkpt>
      <trkpt lat="40.1532149501144886016845703125" lon="-1.6864786483347415924072265625">
        <ele>1264.5999755859375</ele>
        <time>2022-08-25T11:22:56.000Z</time>
      </trkpt>
      <trkpt lat="40.1534519903361797332763671875" lon="-1.686738319694995880126953125">
        <ele>1265</ele>
        <time>2022-08-25T11:23:02.000Z</time>
      </trkpt>
      <trkpt lat="40.1534898765385150909423828125" lon="-1.6867887787520885467529296875">
        <ele>1265.4000244140625</ele>
        <time>2022-08-25T11:23:03.000Z</time>
      </trkpt>
      <trkpt lat="40.1539027690887451171875" lon="-1.6872645355761051177978515625">
        <ele>1265.800048828125</ele>
        <time>2022-08-25T11:23:13.000Z</time>
      </trkpt>
      <trkpt lat="40.15395314432680606842041015625" lon="-1.687290854752063751220703125">
        <ele>1265.800048828125</ele>
        <time>2022-08-25T11:23:14.000Z</time>
      </trkpt>
      <trkpt lat="40.154115669429302215576171875" lon="-1.687257327139377593994140625">
        <ele>1265.800048828125</ele>
        <time>2022-08-25T11:23:17.000Z</time>
      </trkpt>
      <trkpt lat="40.1543045975267887115478515625" lon="-1.68701534159481525421142578125">
        <ele>1265.800048828125</ele>
        <time>2022-08-25T11:23:21.000Z</time>
      </trkpt>
      <trkpt lat="40.1546465791761875152587890625" lon="-1.68645090423524379730224609375">
        <ele>1265.5999755859375</ele>
        <time>2022-08-25T11:23:29.000Z</time>
      </trkpt>
      <trkpt lat="40.15469024889171123504638671875" lon="-1.68639206327497959136962890625">
        <ele>1265.5999755859375</ele>
        <time>2022-08-25T11:23:30.000Z</time>
      </trkpt>
      <trkpt lat="40.154897533357143402099609375" lon="-1.68622710742056369781494140625">
        <ele>1265.5999755859375</ele>
        <time>2022-08-25T11:23:34.000Z</time>
      </trkpt>
      <trkpt lat="40.1549526862800121307373046875" lon="-1.6862030513584613800048828125">
        <ele>1265.5999755859375</ele>
        <time>2022-08-25T11:23:35.000Z</time>
      </trkpt>
      <trkpt lat="40.1552272774279117584228515625" lon="-1.6861678473651409149169921875">
        <ele>1265.800048828125</ele>
        <time>2022-08-25T11:23:40.000Z</time>
      </trkpt>
      <trkpt lat="40.1554753817617893218994140625" lon="-1.68626482598483562469482421875">
        <ele>1266</ele>
        <time>2022-08-25T11:23:45.000Z</time>
      </trkpt>
      <trkpt lat="40.1557332091033458709716796875" lon="-1.68641704134643077850341796875">
        <ele>1266.199951171875</ele>
        <time>2022-08-25T11:23:50.000Z</time>
      </trkpt>
      <trkpt lat="40.15589288435876369476318359375" lon="-1.6864964179694652557373046875">
        <ele>1266.4000244140625</ele>
        <time>2022-08-25T11:23:53.000Z</time>
      </trkpt>
      <trkpt lat="40.1560969837009906768798828125" lon="-1.68646113015711307525634765625">
        <ele>1266.4000244140625</ele>
        <time>2022-08-25T11:23:57.000Z</time>
      </trkpt>
      <trkpt lat="40.15619136393070220947265625" lon="-1.68638166971504688262939453125">
        <ele>1266.4000244140625</ele>
        <time>2022-08-25T11:23:59.000Z</time>
      </trkpt>
      <trkpt lat="40.15637643635272979736328125" lon="-1.6862203180789947509765625">
        <ele>1267</ele>
        <time>2022-08-25T11:24:03.000Z</time>
      </trkpt>
      <trkpt lat="40.15674113295972347259521484375" lon="-1.68605343438684940338134765625">
        <ele>1267.5999755859375</ele>
        <time>2022-08-25T11:24:10.000Z</time>
      </trkpt>
      <trkpt lat="40.15704162418842315673828125" lon="-1.6858262009918689727783203125">
        <ele>1268.199951171875</ele>
        <time>2022-08-25T11:24:16.000Z</time>
      </trkpt>
      <trkpt lat="40.15748997218906879425048828125" lon="-1.6853360272943973541259765625">
        <ele>1269</ele>
        <time>2022-08-25T11:24:26.000Z</time>
      </trkpt>
      <trkpt lat="40.15753305517137050628662109375" lon="-1.68529436923563480377197265625">
        <ele>1269.199951171875</ele>
        <time>2022-08-25T11:24:27.000Z</time>
      </trkpt>
      <trkpt lat="40.15761838294565677642822265625" lon="-1.68521725572645664215087890625">
        <ele>1269.199951171875</ele>
        <time>2022-08-25T11:24:29.000Z</time>
      </trkpt>
      <trkpt lat="40.15792247839272022247314453125" lon="-1.6850054450333118438720703125">
        <ele>1270</ele>
        <time>2022-08-25T11:24:36.000Z</time>
      </trkpt>
      <trkpt lat="40.15800529159605503082275390625" lon="-1.68496630154550075531005859375">
        <ele>1270.4000244140625</ele>
        <time>2022-08-25T11:24:38.000Z</time>
      </trkpt>
      <trkpt lat="40.158185921609401702880859375" lon="-1.68492958880960941314697265625">
        <ele>1270.5999755859375</ele>
        <time>2022-08-25T11:24:42.000Z</time>
      </trkpt>
      <trkpt lat="40.15854726545512676239013671875" lon="-1.684976778924465179443359375">
        <ele>1271.199951171875</ele>
        <time>2022-08-25T11:24:50.000Z</time>
      </trkpt>
      <trkpt lat="40.15863259322941303253173828125" lon="-1.6849953867495059967041015625">
        <ele>1271.4000244140625</ele>
        <time>2022-08-25T11:24:52.000Z</time>
      </trkpt>
      <trkpt lat="40.15893417410552501678466796875" lon="-1.68504777364432811737060546875">
        <ele>1272</ele>
        <time>2022-08-25T11:25:00.000Z</time>
      </trkpt>
      <trkpt lat="40.1590578071773052215576171875" lon="-1.68507761321961879730224609375">
        <ele>1272.4000244140625</ele>
        <time>2022-08-25T11:25:04.000Z</time>
      </trkpt>
      <trkpt lat="40.15919937752187252044677734375" lon="-1.6850929521024227142333984375">
        <ele>1272.800048828125</ele>
        <time>2022-08-25T11:25:09.000Z</time>
      </trkpt>
      <trkpt lat="40.1592267863452434539794921875" lon="-1.6851125657558441162109375">
        <ele>1273.4000244140625</ele>
        <time>2022-08-25T11:25:13.000Z</time>
      </trkpt>
      <trkpt lat="40.15930063091218471527099609375" lon="-1.68511751107871532440185546875">
        <ele>1274.5999755859375</ele>
        <time>2022-08-25T11:25:47.000Z</time>
      </trkpt>
      <trkpt lat="40.1593454740941524505615234375" lon="-1.68512404896318912506103515625">
        <ele>1275</ele>
        <time>2022-08-25T11:25:49.000Z</time>
      </trkpt>
      <trkpt lat="40.1595476455986499786376953125" lon="-1.6851382143795490264892578125">
        <ele>1275.800048828125</ele>
        <time>2022-08-25T11:25:57.000Z</time>
      </trkpt>
      <trkpt lat="40.15964479185640811920166015625" lon="-1.68514098040759563446044921875">
        <ele>1276.199951171875</ele>
        <time>2022-08-25T11:26:01.000Z</time>
      </trkpt>
      <trkpt lat="40.159714780747890472412109375" lon="-1.685153134167194366455078125">
        <ele>1276.800048828125</ele>
        <time>2022-08-25T11:26:04.000Z</time>
      </trkpt>
      <trkpt lat="40.15982802025973796844482421875" lon="-1.68515254743397235870361328125">
        <ele>1277.800048828125</ele>
        <time>2022-08-25T11:26:09.000Z</time>
      </trkpt>
      <trkpt lat="40.15989574603736400604248046875" lon="-1.6851120628416538238525390625">
        <ele>1278.5999755859375</ele>
        <time>2022-08-25T11:26:12.000Z</time>
      </trkpt>
      <trkpt lat="40.15993463806807994842529296875" lon="-1.6850694827735424041748046875">
        <ele>1279</ele>
        <time>2022-08-25T11:26:14.000Z</time>
      </trkpt>
      <trkpt lat="40.159988701343536376953125" lon="-1.68495406396687030792236328125">
        <ele>1279.800048828125</ele>
        <time>2022-08-25T11:26:18.000Z</time>
      </trkpt>
      <trkpt lat="40.15999934636056423187255859375" lon="-1.6849172674119472503662109375">
        <ele>1280</ele>
        <time>2022-08-25T11:26:19.000Z</time>
      </trkpt>
      <trkpt lat="40.1600133441388607025146484375" lon="-1.6846755333244800567626953125">
        <ele>1281.199951171875</ele>
        <time>2022-08-25T11:26:25.000Z</time>
      </trkpt>
      <trkpt lat="40.15995047986507415771484375" lon="-1.68433330021798610687255859375">
        <ele>1281.800048828125</ele>
        <time>2022-08-25T11:26:31.000Z</time>
      </trkpt>
      <trkpt lat="40.159936733543872833251953125" lon="-1.683949492871761322021484375">
        <ele>1282</ele>
        <time>2022-08-25T11:26:37.000Z</time>
      </trkpt>
      <trkpt lat="40.16004527918994426727294921875" lon="-1.68356132693588733673095703125">
        <ele>1282.199951171875</ele>
        <time>2022-08-25T11:26:44.000Z</time>
      </trkpt>
      <trkpt lat="40.16029782593250274658203125" lon="-1.68298347853124141693115234375">
        <ele>1282.800048828125</ele>
        <time>2022-08-25T11:26:55.000Z</time>
      </trkpt>
      <trkpt lat="40.160509385168552398681640625" lon="-1.6825686581432819366455078125">
        <ele>1283</ele>
        <time>2022-08-25T11:27:03.000Z</time>
      </trkpt>
      <trkpt lat="40.16057820059359073638916015625" lon="-1.68248844332993030548095703125">
        <ele>1283</ele>
        <time>2022-08-25T11:27:05.000Z</time>
      </trkpt>
      <trkpt lat="40.160617344081401824951171875" lon="-1.68245541863143444061279296875">
        <ele>1283</ele>
        <time>2022-08-25T11:27:06.000Z</time>
      </trkpt>
      <trkpt lat="40.16083871014416217803955078125" lon="-1.68231979943811893463134765625">
        <ele>1283.4000244140625</ele>
        <time>2022-08-25T11:27:11.000Z</time>
      </trkpt>
      <trkpt lat="40.16106569208204746246337890625" lon="-1.68215601705014705657958984375">
        <ele>1283.800048828125</ele>
        <time>2022-08-25T11:27:16.000Z</time>
      </trkpt>
      <trkpt lat="40.16113375313580036163330078125" lon="-1.6820494830608367919921875">
        <ele>1283.800048828125</ele>
        <time>2022-08-25T11:27:18.000Z</time>
      </trkpt>
      <trkpt lat="40.16120064072310924530029296875" lon="-1.68185443617403507232666015625">
        <ele>1283.800048828125</ele>
        <time>2022-08-25T11:27:21.000Z</time>
      </trkpt>
      <trkpt lat="40.16123349778354167938232421875" lon="-1.68171730823814868927001953125">
        <ele>1283.800048828125</ele>
        <time>2022-08-25T11:27:23.000Z</time>
      </trkpt>
      <trkpt lat="40.1613343320786952972412109375" lon="-1.6811618395149707794189453125">
        <ele>1284</ele>
        <time>2022-08-25T11:27:31.000Z</time>
      </trkpt>
      <trkpt lat="40.1613792590796947479248046875" lon="-1.68096729554235935211181640625">
        <ele>1284</ele>
        <time>2022-08-25T11:27:34.000Z</time>
      </trkpt>
      <trkpt lat="40.1614892296493053436279296875" lon="-1.68072589673101902008056640625">
        <ele>1284.199951171875</ele>
        <time>2022-08-25T11:27:38.000Z</time>
      </trkpt>
      <trkpt lat="40.16157011501491069793701171875" lon="-1.680630929768085479736328125">
        <ele>1284.4000244140625</ele>
        <time>2022-08-25T11:27:40.000Z</time>
      </trkpt>
      <trkpt lat="40.16194738447666168212890625" lon="-1.68031518347561359405517578125">
        <ele>1284.5999755859375</ele>
        <time>2022-08-25T11:27:48.000Z</time>
      </trkpt>
      <trkpt lat="40.16240067780017852783203125" lon="-1.6799172945320606231689453125">
        <ele>1285</ele>
        <time>2022-08-25T11:27:58.000Z</time>
      </trkpt>
      <trkpt lat="40.16243948601186275482177734375" lon="-1.67987823486328125">
        <ele>1285</ele>
        <time>2022-08-25T11:27:59.000Z</time>
      </trkpt>
      <trkpt lat="40.162773840129375457763671875" lon="-1.67949241586029529571533203125">
        <ele>1286</ele>
        <time>2022-08-25T11:28:08.000Z</time>
      </trkpt>
      <trkpt lat="40.16280728392302989959716796875" lon="-1.679445393383502960205078125">
        <ele>1286.199951171875</ele>
        <time>2022-08-25T11:28:09.000Z</time>
      </trkpt>
      <trkpt lat="40.1630113832652568817138671875" lon="-1.67916518636047840118408203125">
        <ele>1287.4000244140625</ele>
        <time>2022-08-25T11:28:15.000Z</time>
      </trkpt>
      <trkpt lat="40.16324984841048717498779296875" lon="-1.6788172535598278045654296875">
        <ele>1288</ele>
        <time>2022-08-25T11:28:22.000Z</time>
      </trkpt>
      <trkpt lat="40.16335244290530681610107421875" lon="-1.67867249809205532073974609375">
        <ele>1288.4000244140625</ele>
        <time>2022-08-25T11:28:25.000Z</time>
      </trkpt>
      <trkpt lat="40.1636333204805850982666015625" lon="-1.6782700829207897186279296875">
        <ele>1289.4000244140625</ele>
        <time>2022-08-25T11:28:34.000Z</time>
      </trkpt>
      <trkpt lat="40.16383004374802112579345703125" lon="-1.67800630442798137664794921875">
        <ele>1290.4000244140625</ele>
        <time>2022-08-25T11:28:41.000Z</time>
      </trkpt>
      <trkpt lat="40.1639816723763942718505859375" lon="-1.67783648706972599029541015625">
        <ele>1291.199951171875</ele>
        <time>2022-08-25T11:28:46.000Z</time>
      </trkpt>
      <trkpt lat="40.16405082307755947113037109375" lon="-1.67777513153851032257080078125">
        <ele>1291.5999755859375</ele>
        <time>2022-08-25T11:28:48.000Z</time>
      </trkpt>
      <trkpt lat="40.16429641284048557281494140625" lon="-1.6774939186871051788330078125">
        <ele>1292.199951171875</ele>
        <time>2022-08-25T11:28:55.000Z</time>
      </trkpt>
      <trkpt lat="40.16461794264614582061767578125" lon="-1.6770483367145061492919921875">
        <ele>1292.5999755859375</ele>
        <time>2022-08-25T11:29:04.000Z</time>
      </trkpt>
      <trkpt lat="40.16469103284180164337158203125" lon="-1.67695169337093830108642578125">
        <ele>1292.5999755859375</ele>
        <time>2022-08-25T11:29:06.000Z</time>
      </trkpt>
      <trkpt lat="40.16495221294462680816650390625" lon="-1.67671968229115009307861328125">
        <ele>1293.199951171875</ele>
        <time>2022-08-25T11:29:12.000Z</time>
      </trkpt>
      <trkpt lat="40.1653371937572956085205078125" lon="-1.6765517927706241607666015625">
        <ele>1293.199951171875</ele>
        <time>2022-08-25T11:29:19.000Z</time>
      </trkpt>
      <trkpt lat="40.1657412014901638031005859375" lon="-1.67637216858565807342529296875">
        <ele>1293.199951171875</ele>
        <time>2022-08-25T11:29:27.000Z</time>
      </trkpt>
      <trkpt lat="40.16593448817729949951171875" lon="-1.67623839341104030609130859375">
        <ele>1293.5999755859375</ele>
        <time>2022-08-25T11:29:32.000Z</time>
      </trkpt>
      <trkpt lat="40.16601135022938251495361328125" lon="-1.6761809773743152618408203125">
        <ele>1293.800048828125</ele>
        <time>2022-08-25T11:29:34.000Z</time>
      </trkpt>
      <trkpt lat="40.16608594916760921478271484375" lon="-1.67611937038600444793701171875">
        <ele>1294.199951171875</ele>
        <time>2022-08-25T11:29:36.000Z</time>
      </trkpt>
      <trkpt lat="40.16642021946609020233154296875" lon="-1.67587570846080780029296875">
        <ele>1294.5999755859375</ele>
        <time>2022-08-25T11:29:44.000Z</time>
      </trkpt>
      <trkpt lat="40.16650470905005931854248046875" lon="-1.67581535875797271728515625">
        <ele>1294.800048828125</ele>
        <time>2022-08-25T11:29:46.000Z</time>
      </trkpt>
      <trkpt lat="40.16676672734320163726806640625" lon="-1.67562802322208881378173828125">
        <ele>1295.800048828125</ele>
        <time>2022-08-25T11:29:52.000Z</time>
      </trkpt>
      <trkpt lat="40.16712530516088008880615234375" lon="-1.67537807486951351165771484375">
        <ele>1296.5999755859375</ele>
        <time>2022-08-25T11:30:00.000Z</time>
      </trkpt>
      <trkpt lat="40.167393274605274200439453125" lon="-1.675174646079540252685546875">
        <ele>1296.800048828125</ele>
        <time>2022-08-25T11:30:06.000Z</time>
      </trkpt>
      <trkpt lat="40.16776316799223423004150390625" lon="-1.67490617372095584869384765625">
        <ele>1297</ele>
        <time>2022-08-25T11:30:14.000Z</time>
      </trkpt>
      <trkpt lat="40.1682537607848644256591796875" lon="-1.67455832473933696746826171875">
        <ele>1297.5999755859375</ele>
        <time>2022-08-25T11:30:25.000Z</time>
      </trkpt>
      <trkpt lat="40.168426595628261566162109375" lon="-1.674429662525653839111328125">
        <ele>1298</ele>
        <time>2022-08-25T11:30:29.000Z</time>
      </trkpt>
      <trkpt lat="40.16880336217582225799560546875" lon="-1.67417049407958984375">
        <ele>1298</ele>
        <time>2022-08-25T11:30:37.000Z</time>
      </trkpt>
      <trkpt lat="40.16932488419115543365478515625" lon="-1.67380009777843952178955078125">
        <ele>1298</ele>
        <time>2022-08-25T11:30:48.000Z</time>
      </trkpt>
      <trkpt lat="40.16973626799881458282470703125" lon="-1.67349130846560001373291015625">
        <ele>1298.4000244140625</ele>
        <time>2022-08-25T11:30:56.000Z</time>
      </trkpt>
      <trkpt lat="40.17018587328493595123291015625" lon="-1.67315066792070865631103515625">
        <ele>1298.5999755859375</ele>
        <time>2022-08-25T11:31:06.000Z</time>
      </trkpt>
      <trkpt lat="40.170396678149700164794921875" lon="-1.67298319749534130096435546875">
        <ele>1299</ele>
        <time>2022-08-25T11:31:13.000Z</time>
      </trkpt>
      <trkpt lat="40.17042048275470733642578125" lon="-1.67296819388866424560546875">
        <ele>1299.4000244140625</ele>
        <time>2022-08-25T11:31:14.000Z</time>
      </trkpt>
      <trkpt lat="40.17060731537640094757080078125" lon="-1.67289912700653076171875">
        <ele>1300.4000244140625</ele>
        <time>2022-08-25T11:31:22.000Z</time>
      </trkpt>
      <trkpt lat="40.17062642611563205718994140625" lon="-1.67289602570235729217529296875">
        <ele>1300.4000244140625</ele>
        <time>2022-08-25T11:31:23.000Z</time>
      </trkpt>
      <trkpt lat="40.170771516859531402587890625" lon="-1.67289921082556247711181640625">
        <ele>1301.199951171875</ele>
        <time>2022-08-25T11:31:29.000Z</time>
      </trkpt>
      <trkpt lat="40.17088450491428375244140625" lon="-1.67289854027330875396728515625">
        <ele>1301.5999755859375</ele>
        <time>2022-08-25T11:31:33.000Z</time>
      </trkpt>
      <trkpt lat="40.1711324416100978851318359375" lon="-1.67290784418582916259765625">
        <ele>1302.5999755859375</ele>
        <time>2022-08-25T11:31:42.000Z</time>
      </trkpt>
      <trkpt lat="40.171189606189727783203125" lon="-1.67291044257581233978271484375">
        <ele>1303</ele>
        <time>2022-08-25T11:31:44.000Z</time>
      </trkpt>
      <trkpt lat="40.171328745782375335693359375" lon="-1.67291362769901752471923828125">
        <ele>1303.5999755859375</ele>
        <time>2022-08-25T11:31:49.000Z</time>
      </trkpt>
      <trkpt lat="40.17154022119939327239990234375" lon="-1.67290675453841686248779296875">
        <ele>1304.800048828125</ele>
        <time>2022-08-25T11:31:57.000Z</time>
      </trkpt>
      <trkpt lat="40.17156553454697132110595703125" lon="-1.67290675453841686248779296875">
        <ele>1304.800048828125</ele>
        <time>2022-08-25T11:31:58.000Z</time>
      </trkpt>
      <trkpt lat="40.17172814346849918365478515625" lon="-1.67290658690035343170166015625">
        <ele>1305.800048828125</ele>
        <time>2022-08-25T11:32:05.000Z</time>
      </trkpt>
      <trkpt lat="40.17186929471790790557861328125" lon="-1.6729096882045269012451171875">
        <ele>1307</ele>
        <time>2022-08-25T11:32:11.000Z</time>
      </trkpt>
      <trkpt lat="40.1719780080020427703857421875" lon="-1.6729026474058628082275390625">
        <ele>1308</ele>
        <time>2022-08-25T11:32:15.000Z</time>
      </trkpt>
      <trkpt lat="40.17219551838934421539306640625" lon="-1.67284523136913776397705078125">
        <ele>1309.4000244140625</ele>
        <time>2022-08-25T11:32:23.000Z</time>
      </trkpt>
      <trkpt lat="40.17238176427781581878662109375" lon="-1.672784127295017242431640625">
        <ele>1310.4000244140625</ele>
        <time>2022-08-25T11:32:30.000Z</time>
      </trkpt>
      <trkpt lat="40.17243758775293827056884765625" lon="-1.67276300489902496337890625">
        <ele>1310.5999755859375</ele>
        <time>2022-08-25T11:32:32.000Z</time>
      </trkpt>
      <trkpt lat="40.1725865341722965240478515625" lon="-1.67271145619451999664306640625">
        <ele>1311</ele>
        <time>2022-08-25T11:32:37.000Z</time>
      </trkpt>
      <trkpt lat="40.17270547337830066680908203125" lon="-1.67267943732440471649169921875">
        <ele>1311.4000244140625</ele>
        <time>2022-08-25T11:32:41.000Z</time>
      </trkpt>
      <trkpt lat="40.172882080078125" lon="-1.6726153157651424407958984375">
        <ele>1312</ele>
        <time>2022-08-25T11:32:47.000Z</time>
      </trkpt>
      <trkpt lat="40.17303186468780040740966796875" lon="-1.672566197812557220458984375">
        <ele>1312.5999755859375</ele>
        <time>2022-08-25T11:32:52.000Z</time>
      </trkpt>
      <trkpt lat="40.1732865907251834869384765625" lon="-1.67247600853443145751953125">
        <ele>1313.800048828125</ele>
        <time>2022-08-25T11:33:00.000Z</time>
      </trkpt>
      <trkpt lat="40.1736771874129772186279296875" lon="-1.672346927225589752197265625">
        <ele>1315</ele>
        <time>2022-08-25T11:33:12.000Z</time>
      </trkpt>
      <trkpt lat="40.17377634532749652862548828125" lon="-1.6723125614225864410400390625">
        <ele>1315.4000244140625</ele>
        <time>2022-08-25T11:33:15.000Z</time>
      </trkpt>
      <trkpt lat="40.1740003935992717742919921875" lon="-1.672238968312740325927734375">
        <ele>1316</ele>
        <time>2022-08-25T11:33:22.000Z</time>
      </trkpt>
      <trkpt lat="40.17413727007806301116943359375" lon="-1.67219261638820171356201171875">
        <ele>1316.5999755859375</ele>
        <time>2022-08-25T11:33:27.000Z</time>
      </trkpt>
      <trkpt lat="40.17419627867639064788818359375" lon="-1.67217501439154148101806640625">
        <ele>1316.800048828125</ele>
        <time>2022-08-25T11:33:29.000Z</time>
      </trkpt>
      <trkpt lat="40.1743222586810588836669921875" lon="-1.67212790809571743011474609375">
        <ele>1317</ele>
        <time>2022-08-25T11:33:34.000Z</time>
      </trkpt>
      <trkpt lat="40.1743702031672000885009765625" lon="-1.67211525142192840576171875">
        <ele>1317.199951171875</ele>
        <time>2022-08-25T11:33:36.000Z</time>
      </trkpt>
      <trkpt lat="40.17453323118388652801513671875" lon="-1.6720604337751865386962890625">
        <ele>1318.199951171875</ele>
        <time>2022-08-25T11:33:42.000Z</time>
      </trkpt>
      <trkpt lat="40.1745948381721973419189453125" lon="-1.67203637771308422088623046875">
        <ele>1318.4000244140625</ele>
        <time>2022-08-25T11:33:45.000Z</time>
      </trkpt>
      <trkpt lat="40.17469148151576519012451171875" lon="-1.67201475240290164947509765625">
        <ele>1319.199951171875</ele>
        <time>2022-08-25T11:33:50.000Z</time>
      </trkpt>
      <trkpt lat="40.17479206435382366180419921875" lon="-1.67200083844363689422607421875">
        <ele>1319.800048828125</ele>
        <time>2022-08-25T11:33:54.000Z</time>
      </trkpt>
      <trkpt lat="40.17512013204395771026611328125" lon="-1.671909056603908538818359375">
        <ele>1320.199951171875</ele>
        <time>2022-08-25T11:34:04.000Z</time>
      </trkpt>
      <trkpt lat="40.17550167627632617950439453125" lon="-1.671772263944149017333984375">
        <ele>1320.4000244140625</ele>
        <time>2022-08-25T11:34:14.000Z</time>
      </trkpt>
      <trkpt lat="40.175835192203521728515625" lon="-1.67169548571109771728515625">
        <ele>1320.800048828125</ele>
        <time>2022-08-25T11:34:24.000Z</time>
      </trkpt>
      <trkpt lat="40.175982378423213958740234375" lon="-1.671730689704418182373046875">
        <ele>1320.800048828125</ele>
        <time>2022-08-25T11:34:28.000Z</time>
      </trkpt>
      <trkpt lat="40.17606678418815135955810546875" lon="-1.6717824898660182952880859375">
        <ele>1320.800048828125</ele>
        <time>2022-08-25T11:34:30.000Z</time>
      </trkpt>
      <trkpt lat="40.17633743584156036376953125" lon="-1.67199052870273590087890625">
        <ele>1320.5999755859375</ele>
        <time>2022-08-25T11:34:36.000Z</time>
      </trkpt>
      <trkpt lat="40.1763811893761157989501953125" lon="-1.67200519703328609466552734375">
        <ele>1320.4000244140625</ele>
        <time>2022-08-25T11:34:37.000Z</time>
      </trkpt>
      <trkpt lat="40.17646693624556064605712890625" lon="-1.67197644710540771484375">
        <ele>1319.4000244140625</ele>
        <time>2022-08-25T11:34:40.000Z</time>
      </trkpt>
      <trkpt lat="40.176478922367095947265625" lon="-1.6719496250152587890625">
        <ele>1319</ele>
        <time>2022-08-25T11:34:41.000Z</time>
      </trkpt>
      <trkpt lat="40.17648939974606037139892578125" lon="-1.67182666249573230743408203125">
        <ele>1317.800048828125</ele>
        <time>2022-08-25T11:34:45.000Z</time>
      </trkpt>
      <trkpt lat="40.1764811016619205474853515625" lon="-1.67176044546067714691162109375">
        <ele>1317.199951171875</ele>
        <time>2022-08-25T11:34:48.000Z</time>
      </trkpt>
      <trkpt lat="40.17648520879447460174560546875" lon="-1.6717653907835483551025390625">
        <ele>1317.199951171875</ele>
        <time>2022-08-25T11:34:50.000Z</time>
      </trkpt>
      <trkpt lat="40.17646190710365772247314453125" lon="-1.67180704884231090545654296875">
        <ele>1317</ele>
        <time>2022-08-25T11:34:53.000Z</time>
      </trkpt>
      <trkpt lat="40.176410190761089324951171875" lon="-1.67181224562227725982666015625">
        <ele>1316.800048828125</ele>
        <time>2022-08-25T11:34:56.000Z</time>
      </trkpt>
      <trkpt lat="40.17633919604122638702392578125" lon="-1.67173705995082855224609375">
        <ele>1316.800048828125</ele>
        <time>2022-08-25T11:34:59.000Z</time>
      </trkpt>
      <trkpt lat="40.17626090906560420989990234375" lon="-1.67156145907938480377197265625">
        <ele>1316.800048828125</ele>
        <time>2022-08-25T11:35:03.000Z</time>
      </trkpt>
      <trkpt lat="40.17622788436710834503173828125" lon="-1.6714680008590221405029296875">
        <ele>1317</ele>
        <time>2022-08-25T11:35:05.000Z</time>
      </trkpt>
      <trkpt lat="40.1760395430028438568115234375" lon="-1.6711766459047794342041015625">
        <ele>1317.4000244140625</ele>
        <time>2022-08-25T11:35:12.000Z</time>
      </trkpt>
      <trkpt lat="40.1759386248886585235595703125" lon="-1.67108000256121158599853515625">
        <ele>1317.199951171875</ele>
        <time>2022-08-25T11:35:17.000Z</time>
      </trkpt>
      <trkpt lat="40.175940133631229400634765625" lon="-1.67110129259526729583740234375">
        <ele>1317.4000244140625</ele>
        <time>2022-08-25T11:35:21.000Z</time>
      </trkpt>
      <trkpt lat="40.175961591303348541259765625" lon="-1.67111084796488285064697265625">
        <ele>1317.4000244140625</ele>
        <time>2022-08-25T11:35:22.000Z</time>
      </trkpt>
      <trkpt lat="40.17604800872504711151123046875" lon="-1.6711977683007717132568359375">
        <ele>1317.5999755859375</ele>
        <time>2022-08-25T11:35:26.000Z</time>
      </trkpt>
      <trkpt lat="40.17620600759983062744140625" lon="-1.671473868191242218017578125">
        <ele>1317.4000244140625</ele>
        <time>2022-08-25T11:35:33.000Z</time>
      </trkpt>
      <trkpt lat="40.1763020642101764678955078125" lon="-1.671764552593231201171875">
        <ele>1316.800048828125</ele>
        <time>2022-08-25T11:35:39.000Z</time>
      </trkpt>
      <trkpt lat="40.1763547025620937347412109375" lon="-1.671833284199237823486328125">
        <ele>1316.5999755859375</ele>
        <time>2022-08-25T11:35:41.000Z</time>
      </trkpt>
      <trkpt lat="40.176418907940387725830078125" lon="-1.671846695244312286376953125">
        <ele>1316.5999755859375</ele>
        <time>2022-08-25T11:35:43.000Z</time>
      </trkpt>
      <trkpt lat="40.17644346691668033599853515625" lon="-1.67181895114481449127197265625">
        <ele>1316.5999755859375</ele>
        <time>2022-08-25T11:35:44.000Z</time>
      </trkpt>
      <trkpt lat="40.17647917382419109344482421875" lon="-1.67163555510342121124267578125">
        <ele>1316.4000244140625</ele>
        <time>2022-08-25T11:35:47.000Z</time>
      </trkpt>
      <trkpt lat="40.176485963165760040283203125" lon="-1.671558357775211334228515625">
        <ele>1316.4000244140625</ele>
        <time>2022-08-25T11:35:48.000Z</time>
      </trkpt>
      <trkpt lat="40.1765191555023193359375" lon="-1.67120464146137237548828125">
        <ele>1316.199951171875</ele>
        <time>2022-08-25T11:35:52.000Z</time>
      </trkpt>
      <trkpt lat="40.17655628733336925506591796875" lon="-1.6709101013839244842529296875">
        <ele>1315.800048828125</ele>
        <time>2022-08-25T11:35:55.000Z</time>
      </trkpt>
      <trkpt lat="40.17662803642451763153076171875" lon="-1.67048840783536434173583984375">
        <ele>1314.5999755859375</ele>
        <time>2022-08-25T11:35:59.000Z</time>
      </trkpt>
      <trkpt lat="40.17675041221082210540771484375" lon="-1.6702090390026569366455078125">
        <ele>1314</ele>
        <time>2022-08-25T11:36:02.000Z</time>
      </trkpt>
      <trkpt lat="40.17680103890597820281982421875" lon="-1.67013485915958881378173828125">
        <ele>1313.4000244140625</ele>
        <time>2022-08-25T11:36:03.000Z</time>
      </trkpt>
      <trkpt lat="40.17691553570330142974853515625" lon="-1.67002002708613872528076171875">
        <ele>1312</ele>
        <time>2022-08-25T11:36:05.000Z</time>
      </trkpt>
      <trkpt lat="40.17697571776807308197021484375" lon="-1.6699740104377269744873046875">
        <ele>1311.5999755859375</ele>
        <time>2022-08-25T11:36:06.000Z</time>
      </trkpt>
      <trkpt lat="40.17703221179544925689697265625" lon="-1.66992967016994953155517578125">
        <ele>1311.4000244140625</ele>
        <time>2022-08-25T11:36:07.000Z</time>
      </trkpt>
      <trkpt lat="40.17712491564452648162841796875" lon="-1.66982221417129039764404296875">
        <ele>1311</ele>
        <time>2022-08-25T11:36:09.000Z</time>
      </trkpt>
      <trkpt lat="40.177152492105960845947265625" lon="-1.6697584278881549835205078125">
        <ele>1310.800048828125</ele>
        <time>2022-08-25T11:36:10.000Z</time>
      </trkpt>
      <trkpt lat="40.1771285198628902435302734375" lon="-1.66954712010920047760009765625">
        <ele>1310.5999755859375</ele>
        <time>2022-08-25T11:36:13.000Z</time>
      </trkpt>
      <trkpt lat="40.17706540413200855255126953125" lon="-1.66939490474760532379150390625">
        <ele>1310.4000244140625</ele>
        <time>2022-08-25T11:36:15.000Z</time>
      </trkpt>
      <trkpt lat="40.17694906331598758697509765625" lon="-1.66914344765245914459228515625">
        <ele>1310</ele>
        <time>2022-08-25T11:36:18.000Z</time>
      </trkpt>
      <trkpt lat="40.176660977303981781005859375" lon="-1.6685229353606700897216796875">
        <ele>1309.199951171875</ele>
        <time>2022-08-25T11:36:25.000Z</time>
      </trkpt>
      <trkpt lat="40.1766138710081577301025390625" lon="-1.6684364341199398040771484375">
        <ele>1308.800048828125</ele>
        <time>2022-08-25T11:36:26.000Z</time>
      </trkpt>
      <trkpt lat="40.17642620019614696502685546875" lon="-1.66812035255134105682373046875">
        <ele>1307.800048828125</ele>
        <time>2022-08-25T11:36:30.000Z</time>
      </trkpt>
      <trkpt lat="40.176329724490642547607421875" lon="-1.6679787822067737579345703125">
        <ele>1307.4000244140625</ele>
        <time>2022-08-25T11:36:32.000Z</time>
      </trkpt>
      <trkpt lat="40.17596050165593624114990234375" lon="-1.6675201244652271270751953125">
        <ele>1307</ele>
        <time>2022-08-25T11:36:40.000Z</time>
      </trkpt>
      <trkpt lat="40.175716839730739593505859375" lon="-1.667204797267913818359375">
        <ele>1307</ele>
        <time>2022-08-25T11:36:47.000Z</time>
      </trkpt>
      <trkpt lat="40.175465382635593414306640625" lon="-1.66689240373671054840087890625">
        <ele>1307.4000244140625</ele>
        <time>2022-08-25T11:36:56.000Z</time>
      </trkpt>
      <trkpt lat="40.1753572560846805572509765625" lon="-1.66676114313304424285888671875">
        <ele>1308</ele>
        <time>2022-08-25T11:37:02.000Z</time>
      </trkpt>
      <trkpt lat="40.17535574734210968017578125" lon="-1.66676751337945461273193359375">
        <ele>1308</ele>
        <time>2022-08-25T11:37:04.000Z</time>
      </trkpt>
      <trkpt lat="40.17532716505229473114013671875" lon="-1.66671051643788814544677734375">
        <ele>1308</ele>
        <time>2022-08-25T11:37:54.000Z</time>
      </trkpt>
      <trkpt lat="40.175313167273998260498046875" lon="-1.66669207625091075897216796875">
        <ele>1308</ele>
        <time>2022-08-25T11:37:55.000Z</time>
      </trkpt>
      <trkpt lat="40.17516640014946460723876953125" lon="-1.6665059141814708709716796875">
        <ele>1308.4000244140625</ele>
        <time>2022-08-25T11:38:02.000Z</time>
      </trkpt>
      <trkpt lat="40.17506338655948638916015625" lon="-1.6663637571036815643310546875">
        <ele>1309</ele>
        <time>2022-08-25T11:38:07.000Z</time>
      </trkpt>
      <trkpt lat="40.17492701299488544464111328125" lon="-1.66618354618549346923828125">
        <ele>1310</ele>
        <time>2022-08-25T11:38:14.000Z</time>
      </trkpt>
      <trkpt lat="40.17488745041191577911376953125" lon="-1.66613258421421051025390625">
        <ele>1310.4000244140625</ele>
        <time>2022-08-25T11:38:16.000Z</time>
      </trkpt>
      <trkpt lat="40.1746756397187709808349609375" lon="-1.6657843999564647674560546875">
        <ele>1311.199951171875</ele>
        <time>2022-08-25T11:38:27.000Z</time>
      </trkpt>
      <trkpt lat="40.17453499138355255126953125" lon="-1.665557585656642913818359375">
        <ele>1312</ele>
        <time>2022-08-25T11:38:36.000Z</time>
      </trkpt>
      <trkpt lat="40.17451982013881206512451171875" lon="-1.66552933864295482635498046875">
        <ele>1312.199951171875</ele>
        <time>2022-08-25T11:38:37.000Z</time>
      </trkpt>
      <trkpt lat="40.1743624918162822723388671875" lon="-1.66527017019689083099365234375">
        <ele>1313</ele>
        <time>2022-08-25T11:38:46.000Z</time>
      </trkpt>
      <trkpt lat="40.17434966750442981719970703125" lon="-1.6652427613735198974609375">
        <ele>1313.4000244140625</ele>
        <time>2022-08-25T11:38:47.000Z</time>
      </trkpt>
      <trkpt lat="40.17424774356186389923095703125" lon="-1.66501385159790515899658203125">
        <ele>1314.4000244140625</ele>
        <time>2022-08-25T11:38:55.000Z</time>
      </trkpt>
      <trkpt lat="40.1742407865822315216064453125" lon="-1.66498350910842418670654296875">
        <ele>1314.4000244140625</ele>
        <time>2022-08-25T11:38:56.000Z</time>
      </trkpt>
      <trkpt lat="40.17416409216821193695068359375" lon="-1.664797849953174591064453125">
        <ele>1315.4000244140625</ele>
        <time>2022-08-25T11:39:02.000Z</time>
      </trkpt>
      <trkpt lat="40.174116231501102447509765625" lon="-1.66467103175818920135498046875">
        <ele>1315.800048828125</ele>
        <time>2022-08-25T11:39:06.000Z</time>
      </trkpt>
      <trkpt lat="40.17409242689609527587890625" lon="-1.66457480750977993011474609375">
        <ele>1316.800048828125</ele>
        <time>2022-08-25T11:39:10.000Z</time>
      </trkpt>
      <trkpt lat="40.17405353486537933349609375" lon="-1.66451948694884777069091796875">
        <ele>1317.199951171875</ele>
        <time>2022-08-25T11:39:12.000Z</time>
      </trkpt>
      <trkpt lat="40.17398589290678501129150390625" lon="-1.6643755696713924407958984375">
        <ele>1317.800048828125</ele>
        <time>2022-08-25T11:39:17.000Z</time>
      </trkpt>
      <trkpt lat="40.1739494316279888153076171875" lon="-1.6642803512513637542724609375">
        <ele>1317.800048828125</ele>
        <time>2022-08-25T11:39:20.000Z</time>
      </trkpt>
      <trkpt lat="40.173898637294769287109375" lon="-1.66413056664168834686279296875">
        <ele>1318.4000244140625</ele>
        <time>2022-08-25T11:39:26.000Z</time>
      </trkpt>
      <trkpt lat="40.17387189902365207672119140625" lon="-1.664079688489437103271484375">
        <ele>1318.800048828125</ele>
        <time>2022-08-25T11:39:28.000Z</time>
      </trkpt>
      <trkpt lat="40.17380970530211925506591796875" lon="-1.66390744037926197052001953125">
        <ele>1319.4000244140625</ele>
        <time>2022-08-25T11:39:34.000Z</time>
      </trkpt>
      <trkpt lat="40.17376947216689586639404296875" lon="-1.66381138376891613006591796875">
        <ele>1319.800048828125</ele>
        <time>2022-08-25T11:39:38.000Z</time>
      </trkpt>
      <trkpt lat="40.17367827706038951873779296875" lon="-1.66358423419296741485595703125">
        <ele>1321</ele>
        <time>2022-08-25T11:39:46.000Z</time>
      </trkpt>
      <trkpt lat="40.17361273057758808135986328125" lon="-1.66341072879731655120849609375">
        <ele>1322.199951171875</ele>
        <time>2022-08-25T11:39:52.000Z</time>
      </trkpt>
      <trkpt lat="40.1735618524253368377685546875" lon="-1.6632674820721149444580078125">
        <ele>1323.199951171875</ele>
        <time>2022-08-25T11:39:58.000Z</time>
      </trkpt>
      <trkpt lat="40.1735481061041355133056640625" lon="-1.663221381604671478271484375">
        <ele>1323.199951171875</ele>
        <time>2022-08-25T11:40:00.000Z</time>
      </trkpt>
      <trkpt lat="40.17352136783301830291748046875" lon="-1.6631343774497509002685546875">
        <ele>1324.4000244140625</ele>
        <time>2022-08-25T11:40:04.000Z</time>
      </trkpt>
      <trkpt lat="40.17347157932817935943603515625" lon="-1.6630052961409091949462890625">
        <ele>1325.4000244140625</ele>
        <time>2022-08-25T11:40:10.000Z</time>
      </trkpt>
      <trkpt lat="40.17345347441732883453369140625" lon="-1.66296782903373241424560546875">
        <ele>1325.800048828125</ele>
        <time>2022-08-25T11:40:12.000Z</time>
      </trkpt>
      <trkpt lat="40.1734163425862789154052734375" lon="-1.66286573745310306549072265625">
        <ele>1326.5999755859375</ele>
        <time>2022-08-25T11:40:17.000Z</time>
      </trkpt>
      <trkpt lat="40.1734082959592342376708984375" lon="-1.66284344159066677093505859375">
        <ele>1326.800048828125</ele>
        <time>2022-08-25T11:40:18.000Z</time>
      </trkpt>
      <trkpt lat="40.17336496151983737945556640625" lon="-1.6626311279833316802978515625">
        <ele>1327.800048828125</ele>
        <time>2022-08-25T11:40:27.000Z</time>
      </trkpt>
      <trkpt lat="40.17333394847810268402099609375" lon="-1.66252040304243564605712890625">
        <ele>1328.800048828125</ele>
        <time>2022-08-25T11:40:32.000Z</time>
      </trkpt>
      <trkpt lat="40.17329254187643527984619140625" lon="-1.662438176572322845458984375">
        <ele>1329.800048828125</ele>
        <time>2022-08-25T11:40:36.000Z</time>
      </trkpt>
      <trkpt lat="40.17328483052551746368408203125" lon="-1.66241462342441082000732421875">
        <ele>1330.199951171875</ele>
        <time>2022-08-25T11:40:37.000Z</time>
      </trkpt>
      <trkpt lat="40.17323403619229793548583984375" lon="-1.662236340343952178955078125">
        <ele>1330.800048828125</ele>
        <time>2022-08-25T11:40:45.000Z</time>
      </trkpt>
      <trkpt lat="40.1732309348881244659423828125" lon="-1.66221848689019680023193359375">
        <ele>1331</ele>
        <time>2022-08-25T11:40:46.000Z</time>
      </trkpt>
      <trkpt lat="40.173229090869426727294921875" lon="-1.66219644248485565185546875">
        <ele>1331.199951171875</ele>
        <time>2022-08-25T11:40:47.000Z</time>
      </trkpt>
      <trkpt lat="40.173214338719844818115234375" lon="-1.66211622767150402069091796875">
        <ele>1332</ele>
        <time>2022-08-25T11:40:51.000Z</time>
      </trkpt>
      <trkpt lat="40.17321023158729076385498046875" lon="-1.6620631702244281768798828125">
        <ele>1332.4000244140625</ele>
        <time>2022-08-25T11:40:54.000Z</time>
      </trkpt>
      <trkpt lat="40.1731972396373748779296875" lon="-1.66198899038136005401611328125">
        <ele>1333</ele>
        <time>2022-08-25T11:40:58.000Z</time>
      </trkpt>
      <trkpt lat="40.173188857734203338623046875" lon="-1.66194993071258068084716796875">
        <ele>1333.5999755859375</ele>
        <time>2022-08-25T11:41:00.000Z</time>
      </trkpt>
      <trkpt lat="40.17316731624305248260498046875" lon="-1.6618831269443035125732421875">
        <ele>1334</ele>
        <time>2022-08-25T11:41:03.000Z</time>
      </trkpt>
      <trkpt lat="40.17314694821834564208984375" lon="-1.6618086956441402435302734375">
        <ele>1334.5999755859375</ele>
        <time>2022-08-25T11:41:07.000Z</time>
      </trkpt>
      <trkpt lat="40.17313797958195209503173828125" lon="-1.66162890382111072540283203125">
        <ele>1335.4000244140625</ele>
        <time>2022-08-25T11:41:15.000Z</time>
      </trkpt>
      <trkpt lat="40.1731223054230213165283203125" lon="-1.66154609061777591705322265625">
        <ele>1335.800048828125</ele>
        <time>2022-08-25T11:41:18.000Z</time>
      </trkpt>
      <trkpt lat="40.17307528294622898101806640625" lon="-1.6612980701029300689697265625">
        <ele>1336.5999755859375</ele>
        <time>2022-08-25T11:41:27.000Z</time>
      </trkpt>
      <trkpt lat="40.17306941561400890350341796875" lon="-1.66127032600343227386474609375">
        <ele>1336.800048828125</ele>
        <time>2022-08-25T11:41:28.000Z</time>
      </trkpt>
      <trkpt lat="40.173039324581623077392578125" lon="-1.6610714234411716461181640625">
        <ele>1338</ele>
        <time>2022-08-25T11:41:35.000Z</time>
      </trkpt>
      <trkpt lat="40.17304024659097194671630859375" lon="-1.66098601184785366058349609375">
        <ele>1338.199951171875</ele>
        <time>2022-08-25T11:41:38.000Z</time>
      </trkpt>
      <trkpt lat="40.1730233989655971527099609375" lon="-1.660794317722320556640625">
        <ele>1338.800048828125</ele>
        <time>2022-08-25T11:41:46.000Z</time>
      </trkpt>
      <trkpt lat="40.1730210520327091217041015625" lon="-1.66077394969761371612548828125">
        <ele>1339</ele>
        <time>2022-08-25T11:41:47.000Z</time>
      </trkpt>
      <trkpt lat="40.172979645431041717529296875" lon="-1.66059709154069423675537109375">
        <ele>1339.800048828125</ele>
        <time>2022-08-25T11:41:55.000Z</time>
      </trkpt>
      <trkpt lat="40.172950141131877899169921875" lon="-1.66051930747926235198974609375">
        <ele>1340.4000244140625</ele>
        <time>2022-08-25T11:41:59.000Z</time>
      </trkpt>
      <trkpt lat="40.17291954718530178070068359375" lon="-1.6604092530906200408935546875">
        <ele>1341.199951171875</ele>
        <time>2022-08-25T11:42:04.000Z</time>
      </trkpt>
      <trkpt lat="40.17287948168814182281494140625" lon="-1.660288386046886444091796875">
        <ele>1342.4000244140625</ele>
        <time>2022-08-25T11:42:10.000Z</time>
      </trkpt>
      <trkpt lat="40.1728497259318828582763671875" lon="-1.660139523446559906005859375">
        <ele>1343.5999755859375</ele>
        <time>2022-08-25T11:42:17.000Z</time>
      </trkpt>
      <trkpt lat="40.17282919026911258697509765625" lon="-1.6600357554852962493896484375">
        <ele>1344.5999755859375</ele>
        <time>2022-08-25T11:42:22.000Z</time>
      </trkpt>
      <trkpt lat="40.17282642424106597900390625" lon="-1.6600139625370502471923828125">
        <ele>1344.5999755859375</ele>
        <time>2022-08-25T11:42:23.000Z</time>
      </trkpt>
      <trkpt lat="40.17281644977629184722900390625" lon="-1.65990575216710567474365234375">
        <ele>1345.800048828125</ele>
        <time>2022-08-25T11:42:28.000Z</time>
      </trkpt>
      <trkpt lat="40.1728007756173610687255859375" lon="-1.659798882901668548583984375">
        <ele>1346.800048828125</ele>
        <time>2022-08-25T11:42:33.000Z</time>
      </trkpt>
      <trkpt lat="40.17279264517128467559814453125" lon="-1.65974088013172149658203125">
        <ele>1347.4000244140625</ele>
        <time>2022-08-25T11:42:36.000Z</time>
      </trkpt>
      <trkpt lat="40.1727860234677791595458984375" lon="-1.65970140136778354644775390625">
        <ele>1348</ele>
        <time>2022-08-25T11:42:38.000Z</time>
      </trkpt>
      <trkpt lat="40.1727712713181972503662109375" lon="-1.65957869030535221099853515625">
        <ele>1349.199951171875</ele>
        <time>2022-08-25T11:42:44.000Z</time>
      </trkpt>
      <trkpt lat="40.17274805344641208648681640625" lon="-1.65950727649033069610595703125">
        <ele>1350.199951171875</ele>
        <time>2022-08-25T11:42:48.000Z</time>
      </trkpt>
      <trkpt lat="40.17274017445743083953857421875" lon="-1.65949068032205104827880859375">
        <ele>1350.5999755859375</ele>
        <time>2022-08-25T11:42:49.000Z</time>
      </trkpt>
      <trkpt lat="40.1727320440113544464111328125" lon="-1.65941608138382434844970703125">
        <ele>1351.4000244140625</ele>
        <time>2022-08-25T11:42:53.000Z</time>
      </trkpt>
      <trkpt lat="40.17273196019232273101806640625" lon="-1.65937450714409351348876953125">
        <ele>1352</ele>
        <time>2022-08-25T11:42:56.000Z</time>
      </trkpt>
      <trkpt lat="40.172723829746246337890625" lon="-1.6593481041491031646728515625">
        <ele>1352.5999755859375</ele>
        <time>2022-08-25T11:42:58.000Z</time>
      </trkpt>
      <trkpt lat="40.172716118395328521728515625" lon="-1.6592880897223949432373046875">
        <ele>1353.5999755859375</ele>
        <time>2022-08-25T11:43:03.000Z</time>
      </trkpt>
      <trkpt lat="40.17271704040467739105224609375" lon="-1.6592756845057010650634765625">
        <ele>1353.800048828125</ele>
        <time>2022-08-25T11:43:04.000Z</time>
      </trkpt>
      <trkpt lat="40.1727172918617725372314453125" lon="-1.65924324654042720794677734375">
        <ele>1354.199951171875</ele>
        <time>2022-08-25T11:43:06.000Z</time>
      </trkpt>
      <trkpt lat="40.1727146096527576446533203125" lon="-1.65922991931438446044921875">
        <ele>1354.4000244140625</ele>
        <time>2022-08-25T11:43:07.000Z</time>
      </trkpt>
      <trkpt lat="40.172698013484477996826171875" lon="-1.659163869917392730712890625">
        <ele>1355</ele>
        <time>2022-08-25T11:43:11.000Z</time>
      </trkpt>
      <trkpt lat="40.17268560826778411865234375" lon="-1.65910519659519195556640625">
        <ele>1355.5999755859375</ele>
        <time>2022-08-25T11:43:15.000Z</time>
      </trkpt>
      <trkpt lat="40.17266121692955493927001953125" lon="-1.65902984328567981719970703125">
        <ele>1356.5999755859375</ele>
        <time>2022-08-25T11:43:20.000Z</time>
      </trkpt>
      <trkpt lat="40.172657109797000885009765625" lon="-1.65901240892708301544189453125">
        <ele>1356.5999755859375</ele>
        <time>2022-08-25T11:43:21.000Z</time>
      </trkpt>
      <trkpt lat="40.17262551002204418182373046875" lon="-1.658906377851963043212890625">
        <ele>1358</ele>
        <time>2022-08-25T11:43:27.000Z</time>
      </trkpt>
      <trkpt lat="40.1726110093295574188232421875" lon="-1.65884410031139850616455078125">
        <ele>1358.5999755859375</ele>
        <time>2022-08-25T11:43:31.000Z</time>
      </trkpt>
      <trkpt lat="40.1726053096354007720947265625" lon="-1.65881409309804439544677734375">
        <ele>1359</ele>
        <time>2022-08-25T11:43:33.000Z</time>
      </trkpt>
      <trkpt lat="40.17259516753256320953369140625" lon="-1.65871853940188884735107421875">
        <ele>1360.199951171875</ele>
        <time>2022-08-25T11:43:38.000Z</time>
      </trkpt>
      <trkpt lat="40.17258234322071075439453125" lon="-1.6586906276643276214599609375">
        <ele>1360.4000244140625</ele>
        <time>2022-08-25T11:43:40.000Z</time>
      </trkpt>
      <trkpt lat="40.17256549559533596038818359375" lon="-1.65864846669137477874755859375">
        <ele>1361</ele>
        <time>2022-08-25T11:43:43.000Z</time>
      </trkpt>
      <trkpt lat="40.1725642383098602294921875" lon="-1.65858342312276363372802734375">
        <ele>1362.199951171875</ele>
        <time>2022-08-25T11:43:47.000Z</time>
      </trkpt>
      <trkpt lat="40.17255015671253204345703125" lon="-1.65853531099855899810791015625">
        <ele>1362.800048828125</ele>
        <time>2022-08-25T11:43:50.000Z</time>
      </trkpt>
      <trkpt lat="40.172521658241748809814453125" lon="-1.65848451666533946990966796875">
        <ele>1363.4000244140625</ele>
        <time>2022-08-25T11:43:53.000Z</time>
      </trkpt>
      <trkpt lat="40.17251051031053066253662109375" lon="-1.65837571956217288970947265625">
        <ele>1364.5999755859375</ele>
        <time>2022-08-25T11:44:00.000Z</time>
      </trkpt>
      <trkpt lat="40.1724913157522678375244140625" lon="-1.658271364867687225341796875">
        <ele>1365.800048828125</ele>
        <time>2022-08-25T11:44:06.000Z</time>
      </trkpt>
      <trkpt lat="40.1724810898303985595703125" lon="-1.65820204652845859527587890625">
        <ele>1366.4000244140625</ele>
        <time>2022-08-25T11:44:10.000Z</time>
      </trkpt>
      <trkpt lat="40.1724782399833202362060546875" lon="-1.65816835127770900726318359375">
        <ele>1366.800048828125</ele>
        <time>2022-08-25T11:44:12.000Z</time>
      </trkpt>
      <trkpt lat="40.172462649643421173095703125" lon="-1.65811403654515743255615234375">
        <ele>1367.800048828125</ele>
        <time>2022-08-25T11:44:16.000Z</time>
      </trkpt>
      <trkpt lat="40.172437839210033416748046875" lon="-1.65805100463330745697021484375">
        <ele>1368.5999755859375</ele>
        <time>2022-08-25T11:44:20.000Z</time>
      </trkpt>
      <trkpt lat="40.1724252663552761077880859375" lon="-1.65801596827805042266845703125">
        <ele>1369</ele>
        <time>2022-08-25T11:44:22.000Z</time>
      </trkpt>
      <trkpt lat="40.1724014617502689361572265625" lon="-1.6579310595989227294921875">
        <ele>1370.199951171875</ele>
        <time>2022-08-25T11:44:27.000Z</time>
      </trkpt>
      <trkpt lat="40.17241059802472591400146484375" lon="-1.6578400321304798126220703125">
        <ele>1371</ele>
        <time>2022-08-25T11:44:32.000Z</time>
      </trkpt>
      <trkpt lat="40.17239165492355823516845703125" lon="-1.6577567160129547119140625">
        <ele>1372</ele>
        <time>2022-08-25T11:44:37.000Z</time>
      </trkpt>
      <trkpt lat="40.17239324748516082763671875" lon="-1.6576847992837429046630859375">
        <ele>1373</ele>
        <time>2022-08-25T11:44:41.000Z</time>
      </trkpt>
      <trkpt lat="40.172390230000019073486328125" lon="-1.6576727293431758880615234375">
        <ele>1373.199951171875</ele>
        <time>2022-08-25T11:44:42.000Z</time>
      </trkpt>
      <trkpt lat="40.17234303988516330718994140625" lon="-1.65760827250778675079345703125">
        <ele>1374.199951171875</ele>
        <time>2022-08-25T11:44:47.000Z</time>
      </trkpt>
      <trkpt lat="40.17233415506780147552490234375" lon="-1.6575761698186397552490234375">
        <ele>1374.5999755859375</ele>
        <time>2022-08-25T11:44:49.000Z</time>
      </trkpt>
      <trkpt lat="40.17235410399734973907470703125" lon="-1.65749587118625640869140625">
        <ele>1375.4000244140625</ele>
        <time>2022-08-25T11:44:54.000Z</time>
      </trkpt>
      <trkpt lat="40.17236399464309215545654296875" lon="-1.65748204104602336883544921875">
        <ele>1375.5999755859375</ele>
        <time>2022-08-25T11:44:56.000Z</time>
      </trkpt>
      <trkpt lat="40.1723394356667995452880859375" lon="-1.65743459947407245635986328125">
        <ele>1376.5999755859375</ele>
        <time>2022-08-25T11:45:00.000Z</time>
      </trkpt>
      <trkpt lat="40.17232527025043964385986328125" lon="-1.65737207047641277313232421875">
        <ele>1377</ele>
        <time>2022-08-25T11:45:04.000Z</time>
      </trkpt>
      <trkpt lat="40.172315128147602081298828125" lon="-1.65728439576923847198486328125">
        <ele>1377.5999755859375</ele>
        <time>2022-08-25T11:45:09.000Z</time>
      </trkpt>
      <trkpt lat="40.1723330654203891754150390625" lon="-1.65718649514019489288330078125">
        <ele>1378.4000244140625</ele>
        <time>2022-08-25T11:45:14.000Z</time>
      </trkpt>
      <trkpt lat="40.1723384298384189605712890625" lon="-1.657168306410312652587890625">
        <ele>1378.5999755859375</ele>
        <time>2022-08-25T11:45:15.000Z</time>
      </trkpt>
      <trkpt lat="40.17233801074326038360595703125" lon="-1.657138131558895111083984375">
        <ele>1378.800048828125</ele>
        <time>2022-08-25T11:45:17.000Z</time>
      </trkpt>
      <trkpt lat="40.17231957055628299713134765625" lon="-1.65710334666073322296142578125">
        <ele>1379.199951171875</ele>
        <time>2022-08-25T11:45:20.000Z</time>
      </trkpt>
      <trkpt lat="40.17231755889952182769775390625" lon="-1.65708574466407299041748046875">
        <ele>1379.5999755859375</ele>
        <time>2022-08-25T11:45:21.000Z</time>
      </trkpt>
      <trkpt lat="40.172328539192676544189453125" lon="-1.656978540122509002685546875">
        <ele>1380.5999755859375</ele>
        <time>2022-08-25T11:45:27.000Z</time>
      </trkpt>
      <trkpt lat="40.172323174774646759033203125" lon="-1.656964123249053955078125">
        <ele>1381</ele>
        <time>2022-08-25T11:45:28.000Z</time>
      </trkpt>
      <trkpt lat="40.1723032258450984954833984375" lon="-1.65688089095056056976318359375">
        <ele>1381.800048828125</ele>
        <time>2022-08-25T11:45:32.000Z</time>
      </trkpt>
      <trkpt lat="40.1723126135766506195068359375" lon="-1.65677628479897975921630859375">
        <ele>1383</ele>
        <time>2022-08-25T11:45:37.000Z</time>
      </trkpt>
      <trkpt lat="40.17231571488082408905029296875" lon="-1.656680814921855926513671875">
        <ele>1384.199951171875</ele>
        <time>2022-08-25T11:45:42.000Z</time>
      </trkpt>
      <trkpt lat="40.17233935184776782989501953125" lon="-1.6565502248704433441162109375">
        <ele>1385.199951171875</ele>
        <time>2022-08-25T11:45:49.000Z</time>
      </trkpt>
      <trkpt lat="40.17238494940102100372314453125" lon="-1.65639054961502552032470703125">
        <ele>1386.5999755859375</ele>
        <time>2022-08-25T11:45:57.000Z</time>
      </trkpt>
      <trkpt lat="40.17240908928215503692626953125" lon="-1.6563410125672817230224609375">
        <ele>1387.199951171875</ele>
        <time>2022-08-25T11:46:00.000Z</time>
      </trkpt>
      <trkpt lat="40.17242400906980037689208984375" lon="-1.65630656294524669647216796875">
        <ele>1387.5999755859375</ele>
        <time>2022-08-25T11:46:02.000Z</time>
      </trkpt>
      <trkpt lat="40.17248553223907947540283203125" lon="-1.6561921499669551849365234375">
        <ele>1388.800048828125</ele>
        <time>2022-08-25T11:46:09.000Z</time>
      </trkpt>
      <trkpt lat="40.172512941062450408935546875" lon="-1.65615887381136417388916015625">
        <ele>1389.199951171875</ele>
        <time>2022-08-25T11:46:12.000Z</time>
      </trkpt>
      <trkpt lat="40.17260623164474964141845703125" lon="-1.65610916912555694580078125">
        <ele>1389.800048828125</ele>
        <time>2022-08-25T11:46:19.000Z</time>
      </trkpt>
      <trkpt lat="40.17264939844608306884765625" lon="-1.65607832372188568115234375">
        <ele>1390</ele>
        <time>2022-08-25T11:46:22.000Z</time>
      </trkpt>
      <trkpt lat="40.172732211649417877197265625" lon="-1.65602811612188816070556640625">
        <ele>1391</ele>
        <time>2022-08-25T11:46:28.000Z</time>
      </trkpt>
      <trkpt lat="40.172822065651416778564453125" lon="-1.65599643252789974212646484375">
        <ele>1392</ele>
        <time>2022-08-25T11:46:34.000Z</time>
      </trkpt>
      <trkpt lat="40.1728765480220317840576171875" lon="-1.65595938451588153839111328125">
        <ele>1392.4000244140625</ele>
        <time>2022-08-25T11:46:38.000Z</time>
      </trkpt>
      <trkpt lat="40.1729596965014934539794921875" lon="-1.6559178940951824188232421875">
        <ele>1393.4000244140625</ele>
        <time>2022-08-25T11:46:44.000Z</time>
      </trkpt>
      <trkpt lat="40.172989368438720703125" lon="-1.655907332897186279296875">
        <ele>1393.800048828125</ele>
        <time>2022-08-25T11:46:46.000Z</time>
      </trkpt>
      <trkpt lat="40.17305550165474414825439453125" lon="-1.65587187744677066802978515625">
        <ele>1394.4000244140625</ele>
        <time>2022-08-25T11:46:51.000Z</time>
      </trkpt>
      <trkpt lat="40.17314921133220195770263671875" lon="-1.65583248250186443328857421875">
        <ele>1395.4000244140625</ele>
        <time>2022-08-25T11:46:58.000Z</time>
      </trkpt>
      <trkpt lat="40.1732349582016468048095703125" lon="-1.65578470565378665924072265625">
        <ele>1396.5999755859375</ele>
        <time>2022-08-25T11:47:04.000Z</time>
      </trkpt>
      <trkpt lat="40.17332405783236026763916015625" lon="-1.6557405330240726470947265625">
        <ele>1397.800048828125</ele>
        <time>2022-08-25T11:47:10.000Z</time>
      </trkpt>
      <trkpt lat="40.1733626984059810638427734375" lon="-1.65571488440036773681640625">
        <ele>1398</ele>
        <time>2022-08-25T11:47:13.000Z</time>
      </trkpt>
      <trkpt lat="40.17342782579362392425537109375" lon="-1.6556754894554615020751953125">
        <ele>1398.800048828125</ele>
        <time>2022-08-25T11:47:18.000Z</time>
      </trkpt>
      <trkpt lat="40.1734968088567256927490234375" lon="-1.65563869290053844451904296875">
        <ele>1400.199951171875</ele>
        <time>2022-08-25T11:47:23.000Z</time>
      </trkpt>
      <trkpt lat="40.17355355434119701385498046875" lon="-1.65561052970588207244873046875">
        <ele>1401</ele>
        <time>2022-08-25T11:47:27.000Z</time>
      </trkpt>
      <trkpt lat="40.17356939613819122314453125" lon="-1.655605249106884002685546875">
        <ele>1401.4000244140625</ele>
        <time>2022-08-25T11:47:28.000Z</time>
      </trkpt>
      <trkpt lat="40.17362949438393115997314453125" lon="-1.65558270178735256195068359375">
        <ele>1402.5999755859375</ele>
        <time>2022-08-25T11:47:32.000Z</time>
      </trkpt>
      <trkpt lat="40.17371817491948604583740234375" lon="-1.655541546642780303955078125">
        <ele>1403.5999755859375</ele>
        <time>2022-08-25T11:47:38.000Z</time>
      </trkpt>
      <trkpt lat="40.17374373972415924072265625" lon="-1.65552604012191295623779296875">
        <ele>1404</ele>
        <time>2022-08-25T11:47:40.000Z</time>
      </trkpt>
      <trkpt lat="40.17381037585437297821044921875" lon="-1.6554964520037174224853515625">
        <ele>1404.5999755859375</ele>
        <time>2022-08-25T11:47:45.000Z</time>
      </trkpt>
      <trkpt lat="40.17386686988174915313720703125" lon="-1.65548480115830898284912109375">
        <ele>1405.800048828125</ele>
        <time>2022-08-25T11:47:49.000Z</time>
      </trkpt>
      <trkpt lat="40.17391137778759002685546875" lon="-1.65547725744545459747314453125">
        <ele>1406.199951171875</ele>
        <time>2022-08-25T11:47:52.000Z</time>
      </trkpt>
      <trkpt lat="40.17395789735019207000732421875" lon="-1.65547759272158145904541015625">
        <ele>1406.800048828125</ele>
        <time>2022-08-25T11:47:55.000Z</time>
      </trkpt>
      <trkpt lat="40.1740126311779022216796875" lon="-1.65547993965446949005126953125">
        <ele>1408</ele>
        <time>2022-08-25T11:47:59.000Z</time>
      </trkpt>
      <trkpt lat="40.1740459911525249481201171875" lon="-1.6554897464811801910400390625">
        <ele>1408.5999755859375</ele>
        <time>2022-08-25T11:48:02.000Z</time>
      </trkpt>
      <trkpt lat="40.17408194951713085174560546875" lon="-1.65550206787884235382080078125">
        <ele>1409</ele>
        <time>2022-08-25T11:48:05.000Z</time>
      </trkpt>
      <trkpt lat="40.17412033863365650177001953125" lon="-1.6555393673479557037353515625">
        <ele>1409.800048828125</ele>
        <time>2022-08-25T11:48:10.000Z</time>
      </trkpt>
      <trkpt lat="40.1741623319685459136962890625" lon="-1.65557012893259525299072265625">
        <ele>1410.199951171875</ele>
        <time>2022-08-25T11:48:14.000Z</time>
      </trkpt>
      <trkpt lat="40.174205414950847625732421875" lon="-1.6555977053940296173095703125">
        <ele>1411</ele>
        <time>2022-08-25T11:48:18.000Z</time>
      </trkpt>
      <trkpt lat="40.17426014877855777740478515625" lon="-1.65562771260738372802734375">
        <ele>1411.4000244140625</ele>
        <time>2022-08-25T11:48:22.000Z</time>
      </trkpt>
      <trkpt lat="40.1743286289274692535400390625" lon="-1.65567490272223949432373046875">
        <ele>1412</ele>
        <time>2022-08-25T11:48:27.000Z</time>
      </trkpt>
      <trkpt lat="40.17436726950109004974365234375" lon="-1.6556979529559612274169921875">
        <ele>1412.5999755859375</ele>
        <time>2022-08-25T11:48:30.000Z</time>
      </trkpt>
      <trkpt lat="40.17442409880459308624267578125" lon="-1.655756123363971710205078125">
        <ele>1413.4000244140625</ele>
        <time>2022-08-25T11:48:35.000Z</time>
      </trkpt>
      <trkpt lat="40.17444773577153682708740234375" lon="-1.65577732957899570465087890625">
        <ele>1413.5999755859375</ele>
        <time>2022-08-25T11:48:37.000Z</time>
      </trkpt>
      <trkpt lat="40.17455913126468658447265625" lon="-1.6558699496090412139892578125">
        <ele>1414.800048828125</ele>
        <time>2022-08-25T11:48:46.000Z</time>
      </trkpt>
      <trkpt lat="40.17457044683396816253662109375" lon="-1.65587858296930789947509765625">
        <ele>1414.800048828125</ele>
        <time>2022-08-25T11:48:47.000Z</time>
      </trkpt>
      <trkpt lat="40.17462509684264659881591796875" lon="-1.65592099539935588836669921875">
        <ele>1415.800048828125</ele>
        <time>2022-08-25T11:48:52.000Z</time>
      </trkpt>
      <trkpt lat="40.17468527890741825103759765625" lon="-1.6559775732457637786865234375">
        <ele>1416.800048828125</ele>
        <time>2022-08-25T11:48:57.000Z</time>
      </trkpt>
      <trkpt lat="40.17471511848270893096923828125" lon="-1.655998192727565765380859375">
        <ele>1417.199951171875</ele>
        <time>2022-08-25T11:48:59.000Z</time>
      </trkpt>
      <trkpt lat="40.17479038797318935394287109375" lon="-1.6560561954975128173828125">
        <ele>1418</ele>
        <time>2022-08-25T11:49:04.000Z</time>
      </trkpt>
      <trkpt lat="40.17485543154180049896240234375" lon="-1.65609885938465595245361328125">
        <ele>1419</ele>
        <time>2022-08-25T11:49:09.000Z</time>
      </trkpt>
      <trkpt lat="40.17493195831775665283203125" lon="-1.65616256184875965118408203125">
        <ele>1420.199951171875</ele>
        <time>2022-08-25T11:49:15.000Z</time>
      </trkpt>
      <trkpt lat="40.17499507404863834381103515625" lon="-1.656211428344249725341796875">
        <ele>1420.800048828125</ele>
        <time>2022-08-25T11:49:20.000Z</time>
      </trkpt>
      <trkpt lat="40.17503044568002223968505859375" lon="-1.6562404297292232513427734375">
        <ele>1421.199951171875</ele>
        <time>2022-08-25T11:49:23.000Z</time>
      </trkpt>
      <trkpt lat="40.175089873373508453369140625" lon="-1.6562877036631107330322265625">
        <ele>1422.199951171875</ele>
        <time>2022-08-25T11:49:28.000Z</time>
      </trkpt>
      <trkpt lat="40.175126753747463226318359375" lon="-1.65630740113556385040283203125">
        <ele>1422.800048828125</ele>
        <time>2022-08-25T11:49:31.000Z</time>
      </trkpt>
      <trkpt lat="40.17515064217150211334228515625" lon="-1.65632517077028751373291015625">
        <ele>1423.4000244140625</ele>
        <time>2022-08-25T11:49:33.000Z</time>
      </trkpt>
      <trkpt lat="40.17522205598652362823486328125" lon="-1.65637462399899959564208984375">
        <ele>1424.5999755859375</ele>
        <time>2022-08-25T11:49:39.000Z</time>
      </trkpt>
      <trkpt lat="40.17526321113109588623046875" lon="-1.656411923468112945556640625">
        <ele>1425.4000244140625</ele>
        <time>2022-08-25T11:49:43.000Z</time>
      </trkpt>
      <trkpt lat="40.17527469433844089508056640625" lon="-1.6564187966287136077880859375">
        <ele>1425.5999755859375</ele>
        <time>2022-08-25T11:49:44.000Z</time>
      </trkpt>
      <trkpt lat="40.1753354631364345550537109375" lon="-1.65646514855325222015380859375">
        <ele>1426.800048828125</ele>
        <time>2022-08-25T11:49:49.000Z</time>
      </trkpt>
      <trkpt lat="40.17539975233376026153564453125" lon="-1.6565148532390594482421875">
        <ele>1427.800048828125</ele>
        <time>2022-08-25T11:49:54.000Z</time>
      </trkpt>
      <trkpt lat="40.17541131936013698577880859375" lon="-1.6565260849893093109130859375">
        <ele>1428</ele>
        <time>2022-08-25T11:49:55.000Z</time>
      </trkpt>
      <trkpt lat="40.1754746027290821075439453125" lon="-1.6565891169011592864990234375">
        <ele>1429.199951171875</ele>
        <time>2022-08-25T11:50:01.000Z</time>
      </trkpt>
      <trkpt lat="40.17550134100019931793212890625" lon="-1.65660462342202663421630859375">
        <ele>1429.4000244140625</ele>
        <time>2022-08-25T11:50:03.000Z</time>
      </trkpt>
      <trkpt lat="40.175550542771816253662109375" lon="-1.65665172971785068511962890625">
        <ele>1430.199951171875</ele>
        <time>2022-08-25T11:50:08.000Z</time>
      </trkpt>
      <trkpt lat="40.17559186555445194244384765625" lon="-1.6567037813365459442138671875">
        <ele>1431</ele>
        <time>2022-08-25T11:50:13.000Z</time>
      </trkpt>
      <trkpt lat="40.1756026782095432281494140625" lon="-1.656711660325527191162109375">
        <ele>1431.199951171875</ele>
        <time>2022-08-25T11:50:14.000Z</time>
      </trkpt>
      <trkpt lat="40.175665877759456634521484375" lon="-1.65675013326108455657958984375">
        <ele>1432.199951171875</ele>
        <time>2022-08-25T11:50:19.000Z</time>
      </trkpt>
      <trkpt lat="40.17573058605194091796875" lon="-1.65679438970983028411865234375">
        <ele>1433</ele>
        <time>2022-08-25T11:50:24.000Z</time>
      </trkpt>
      <trkpt lat="40.17577241174876689910888671875" lon="-1.65680863894522190093994140625">
        <ele>1433.199951171875</ele>
        <time>2022-08-25T11:50:27.000Z</time>
      </trkpt>
      <trkpt lat="40.17588104121387004852294921875" lon="-1.65684367530047893524169921875">
        <ele>1434.4000244140625</ele>
        <time>2022-08-25T11:50:34.000Z</time>
      </trkpt>
      <trkpt lat="40.17589713446795940399169921875" lon="-1.6568445973098278045654296875">
        <ele>1434.5999755859375</ele>
        <time>2022-08-25T11:50:35.000Z</time>
      </trkpt>
      <trkpt lat="40.1759969629347324371337890625" lon="-1.6568412445485591888427734375">
        <ele>1435.4000244140625</ele>
        <time>2022-08-25T11:50:41.000Z</time>
      </trkpt>
      <trkpt lat="40.17605287022888660430908203125" lon="-1.65684434585273265838623046875">
        <ele>1436.4000244140625</ele>
        <time>2022-08-25T11:50:44.000Z</time>
      </trkpt>
      <trkpt lat="40.17607047222554683685302734375" lon="-1.65683814324438571929931640625">
        <ele>1436.5999755859375</ele>
        <time>2022-08-25T11:50:45.000Z</time>
      </trkpt>
      <trkpt lat="40.17615663819015026092529296875" lon="-1.6567916236817836761474609375">
        <ele>1437.5999755859375</ele>
        <time>2022-08-25T11:50:51.000Z</time>
      </trkpt>
      <trkpt lat="40.1762333326041698455810546875" lon="-1.656745858490467071533203125">
        <ele>1438.5999755859375</ele>
        <time>2022-08-25T11:50:57.000Z</time>
      </trkpt>
      <trkpt lat="40.1762953586876392364501953125" lon="-1.6567218862473964691162109375">
        <ele>1439</ele>
        <time>2022-08-25T11:51:01.000Z</time>
      </trkpt>
      <trkpt lat="40.176446735858917236328125" lon="-1.65665038861334323883056640625">
        <ele>1439.5999755859375</ele>
        <time>2022-08-25T11:51:11.000Z</time>
      </trkpt>
      <trkpt lat="40.17650465480983257293701171875" lon="-1.65663379244506359100341796875">
        <ele>1440</ele>
        <time>2022-08-25T11:51:15.000Z</time>
      </trkpt>
      <trkpt lat="40.17654907889664173126220703125" lon="-1.65660998784005641937255859375">
        <ele>1440.5999755859375</ele>
        <time>2022-08-25T11:51:18.000Z</time>
      </trkpt>
      <trkpt lat="40.17669039778411388397216796875" lon="-1.65656154043972492218017578125">
        <ele>1441.5999755859375</ele>
        <time>2022-08-25T11:51:27.000Z</time>
      </trkpt>
      <trkpt lat="40.17672526650130748748779296875" lon="-1.65655014105141162872314453125">
        <ele>1441.800048828125</ele>
        <time>2022-08-25T11:51:29.000Z</time>
      </trkpt>
      <trkpt lat="40.1768331415951251983642578125" lon="-1.65650772862136363983154296875">
        <ele>1442.4000244140625</ele>
        <time>2022-08-25T11:51:35.000Z</time>
      </trkpt>
      <trkpt lat="40.17699164338409900665283203125" lon="-1.65646950714290142059326171875">
        <ele>1442.800048828125</ele>
        <time>2022-08-25T11:51:44.000Z</time>
      </trkpt>
      <trkpt lat="40.17702483572065830230712890625" lon="-1.65645777247846126556396484375">
        <ele>1443.199951171875</ele>
        <time>2022-08-25T11:51:46.000Z</time>
      </trkpt>
      <trkpt lat="40.17715861089527606964111328125" lon="-1.65640697814524173736572265625">
        <ele>1444</ele>
        <time>2022-08-25T11:51:54.000Z</time>
      </trkpt>
      <trkpt lat="40.17722331918776035308837890625" lon="-1.65636372752487659454345703125">
        <ele>1444.4000244140625</ele>
        <time>2022-08-25T11:51:58.000Z</time>
      </trkpt>
      <trkpt lat="40.17734820954501628875732421875" lon="-1.656303964555263519287109375">
        <ele>1445</ele>
        <time>2022-08-25T11:52:05.000Z</time>
      </trkpt>
      <trkpt lat="40.1774507202208042144775390625" lon="-1.65625660680234432220458984375">
        <ele>1445.800048828125</ele>
        <time>2022-08-25T11:52:11.000Z</time>
      </trkpt>
      <trkpt lat="40.17748584039509296417236328125" lon="-1.656236909329891204833984375">
        <ele>1446</ele>
        <time>2022-08-25T11:52:13.000Z</time>
      </trkpt>
      <trkpt lat="40.177616514265537261962890625" lon="-1.6561991907656192779541015625">
        <ele>1447</ele>
        <time>2022-08-25T11:52:20.000Z</time>
      </trkpt>
      <trkpt lat="40.1776344515383243560791015625" lon="-1.656194664537906646728515625">
        <ele>1447.199951171875</ele>
        <time>2022-08-25T11:52:21.000Z</time>
      </trkpt>
      <trkpt lat="40.17774618230760097503662109375" lon="-1.65616725571453571319580078125">
        <ele>1448.199951171875</ele>
        <time>2022-08-25T11:52:28.000Z</time>
      </trkpt>
      <trkpt lat="40.1777618564665317535400390625" lon="-1.65616415441036224365234375">
        <ele>1448.4000244140625</ele>
        <time>2022-08-25T11:52:29.000Z</time>
      </trkpt>
      <trkpt lat="40.1778517104685306549072265625" lon="-1.656134314835071563720703125">
        <ele>1449.4000244140625</ele>
        <time>2022-08-25T11:52:34.000Z</time>
      </trkpt>
      <trkpt lat="40.1779288239777088165283203125" lon="-1.6560939140617847442626953125">
        <ele>1449.199951171875</ele>
        <time>2022-08-25T11:52:38.000Z</time>
      </trkpt>
      <trkpt lat="40.17812370322644710540771484375" lon="-1.6560590453445911407470703125">
        <ele>1450.199951171875</ele>
        <time>2022-08-25T11:52:47.000Z</time>
      </trkpt>
      <trkpt lat="40.17827935516834259033203125" lon="-1.655991487205028533935546875">
        <ele>1451</ele>
        <time>2022-08-25T11:52:56.000Z</time>
      </trkpt>
      <trkpt lat="40.17833258025348186492919921875" lon="-1.65596676059067249298095703125">
        <ele>1451.199951171875</ele>
        <time>2022-08-25T11:52:59.000Z</time>
      </trkpt>
      <trkpt lat="40.17843366600573062896728515625" lon="-1.65593189187347888946533203125">
        <ele>1451.800048828125</ele>
        <time>2022-08-25T11:53:04.000Z</time>
      </trkpt>
      <trkpt lat="40.1785014756023883819580078125" lon="-1.6558979451656341552734375">
        <ele>1452.199951171875</ele>
        <time>2022-08-25T11:53:08.000Z</time>
      </trkpt>
      <trkpt lat="40.1785698719322681427001953125" lon="-1.65587036870419979095458984375">
        <ele>1452.800048828125</ele>
        <time>2022-08-25T11:53:12.000Z</time>
      </trkpt>
      <trkpt lat="40.1786637492477893829345703125" lon="-1.65583633817732334136962890625">
        <ele>1453.199951171875</ele>
        <time>2022-08-25T11:53:17.000Z</time>
      </trkpt>
      <trkpt lat="40.17870976589620113372802734375" lon="-1.65582217276096343994140625">
        <ele>1453.4000244140625</ele>
        <time>2022-08-25T11:53:19.000Z</time>
      </trkpt>
      <trkpt lat="40.1788246817886829376220703125" lon="-1.6557737253606319427490234375">
        <ele>1454.199951171875</ele>
        <time>2022-08-25T11:53:25.000Z</time>
      </trkpt>
      <trkpt lat="40.17888193018734455108642578125" lon="-1.6557559557259082794189453125">
        <ele>1454.4000244140625</ele>
        <time>2022-08-25T11:53:28.000Z</time>
      </trkpt>
      <trkpt lat="40.17896424047648906707763671875" lon="-1.6557043232023715972900390625">
        <ele>1455.4000244140625</ele>
        <time>2022-08-25T11:53:33.000Z</time>
      </trkpt>
      <trkpt lat="40.17901855520904064178466796875" lon="-1.655680350959300994873046875">
        <ele>1456.5999755859375</ele>
        <time>2022-08-25T11:53:36.000Z</time>
      </trkpt>
      <trkpt lat="40.17904621548950672149658203125" lon="-1.65566870011389255523681640625">
        <ele>1457</ele>
        <time>2022-08-25T11:53:38.000Z</time>
      </trkpt>
      <trkpt lat="40.17916708253324031829833984375" lon="-1.65559544228017330169677734375">
        <ele>1457.5999755859375</ele>
        <time>2022-08-25T11:53:46.000Z</time>
      </trkpt>
      <trkpt lat="40.179199017584323883056640625" lon="-1.65557968430221080780029296875">
        <ele>1457.800048828125</ele>
        <time>2022-08-25T11:53:48.000Z</time>
      </trkpt>
      <trkpt lat="40.17935047857463359832763671875" lon="-1.655510365962982177734375">
        <ele>1458.800048828125</ele>
        <time>2022-08-25T11:53:58.000Z</time>
      </trkpt>
      <trkpt lat="40.17939825542271137237548828125" lon="-1.65549703873693943023681640625">
        <ele>1459.199951171875</ele>
        <time>2022-08-25T11:54:01.000Z</time>
      </trkpt>
      <trkpt lat="40.17945759929716587066650390625" lon="-1.65547323413193225860595703125">
        <ele>1459.5999755859375</ele>
        <time>2022-08-25T11:54:05.000Z</time>
      </trkpt>
      <trkpt lat="40.17954133450984954833984375" lon="-1.65545747615396976470947265625">
        <ele>1460.5999755859375</ele>
        <time>2022-08-25T11:54:11.000Z</time>
      </trkpt>
      <trkpt lat="40.17957092262804508209228515625" lon="-1.65545127354562282562255859375">
        <ele>1461.199951171875</ele>
        <time>2022-08-25T11:54:13.000Z</time>
      </trkpt>
      <trkpt lat="40.179613418877124786376953125" lon="-1.6554312407970428466796875">
        <ele>1461.800048828125</ele>
        <time>2022-08-25T11:54:16.000Z</time>
      </trkpt>
      <trkpt lat="40.1796829886734485626220703125" lon="-1.65540165267884731292724609375">
        <ele>1462.800048828125</ele>
        <time>2022-08-25T11:54:21.000Z</time>
      </trkpt>
      <trkpt lat="40.17972640693187713623046875" lon="-1.65538488887250423431396484375">
        <ele>1464</ele>
        <time>2022-08-25T11:54:24.000Z</time>
      </trkpt>
      <trkpt lat="40.17977041192352771759033203125" lon="-1.65536577813327312469482421875">
        <ele>1464.5999755859375</ele>
        <time>2022-08-25T11:54:27.000Z</time>
      </trkpt>
      <trkpt lat="40.179811902344226837158203125" lon="-1.65534876286983489990234375">
        <ele>1465</ele>
        <time>2022-08-25T11:54:30.000Z</time>
      </trkpt>
      <trkpt lat="40.17991625703871250152587890625" lon="-1.6553083620965480804443359375">
        <ele>1466.199951171875</ele>
        <time>2022-08-25T11:54:38.000Z</time>
      </trkpt>
      <trkpt lat="40.1799294166266918182373046875" lon="-1.65530006401240825653076171875">
        <ele>1466.4000244140625</ele>
        <time>2022-08-25T11:54:39.000Z</time>
      </trkpt>
      <trkpt lat="40.1799429953098297119140625" lon="-1.65529511868953704833984375">
        <ele>1466.5999755859375</ele>
        <time>2022-08-25T11:54:40.000Z</time>
      </trkpt>
      <trkpt lat="40.179981552064418792724609375" lon="-1.65528430603444576263427734375">
        <ele>1467.4000244140625</ele>
        <time>2022-08-25T11:54:43.000Z</time>
      </trkpt>
      <trkpt lat="40.18000669777393341064453125" lon="-1.65526695549488067626953125">
        <ele>1467.5999755859375</ele>
        <time>2022-08-25T11:54:45.000Z</time>
      </trkpt>
      <trkpt lat="40.18005941994488239288330078125" lon="-1.6552480123937129974365234375">
        <ele>1468.5999755859375</ele>
        <time>2022-08-25T11:54:49.000Z</time>
      </trkpt>
      <trkpt lat="40.18013167195022106170654296875" lon="-1.65522135794162750244140625">
        <ele>1469.5999755859375</ele>
        <time>2022-08-25T11:54:54.000Z</time>
      </trkpt>
      <trkpt lat="40.18014608882367610931396484375" lon="-1.6552166640758514404296875">
        <ele>1469.800048828125</ele>
        <time>2022-08-25T11:54:55.000Z</time>
      </trkpt>
      <trkpt lat="40.18021347932517528533935546875" lon="-1.655179448425769805908203125">
        <ele>1470.800048828125</ele>
        <time>2022-08-25T11:55:00.000Z</time>
      </trkpt>
      <trkpt lat="40.18029679544270038604736328125" lon="-1.6551665402948856353759765625">
        <ele>1471.4000244140625</ele>
        <time>2022-08-25T11:55:05.000Z</time>
      </trkpt>
      <trkpt lat="40.18032462336122989654541015625" lon="-1.6551487706601619720458984375">
        <ele>1471.800048828125</ele>
        <time>2022-08-25T11:55:07.000Z</time>
      </trkpt>
      <trkpt lat="40.18041933886706829071044921875" lon="-1.65513024665415287017822265625">
        <ele>1472.5999755859375</ele>
        <time>2022-08-25T11:55:13.000Z</time>
      </trkpt>
      <trkpt lat="40.180433504283428192138671875" lon="-1.6551266424357891082763671875">
        <ele>1472.800048828125</ele>
        <time>2022-08-25T11:55:14.000Z</time>
      </trkpt>
      <trkpt lat="40.1805315725505352020263671875" lon="-1.65508062578737735748291015625">
        <ele>1474</ele>
        <time>2022-08-25T11:55:21.000Z</time>
      </trkpt>
      <trkpt lat="40.1805630885064601898193359375" lon="-1.65506972931325435638427734375">
        <ele>1474.4000244140625</ele>
        <time>2022-08-25T11:55:23.000Z</time>
      </trkpt>
      <trkpt lat="40.18061966635286808013916015625" lon="-1.65504743345081806182861328125">
        <ele>1475</ele>
        <time>2022-08-25T11:55:27.000Z</time>
      </trkpt>
      <trkpt lat="40.1807327382266521453857421875" lon="-1.654994376003742218017578125">
        <ele>1476.199951171875</ele>
        <time>2022-08-25T11:55:35.000Z</time>
      </trkpt>
      <trkpt lat="40.180757045745849609375" lon="-1.65498557500541210174560546875">
        <ele>1476.199951171875</ele>
        <time>2022-08-25T11:55:37.000Z</time>
      </trkpt>
      <trkpt lat="40.180792920291423797607421875" lon="-1.65496948175132274627685546875">
        <ele>1477</ele>
        <time>2022-08-25T11:55:41.000Z</time>
      </trkpt>
      <trkpt lat="40.180866010487079620361328125" lon="-1.6549439169466495513916015625">
        <ele>1478</ele>
        <time>2022-08-25T11:55:47.000Z</time>
      </trkpt>
      <trkpt lat="40.18089241348206996917724609375" lon="-1.65493302047252655029296875">
        <ele>1478</ele>
        <time>2022-08-25T11:55:49.000Z</time>
      </trkpt>
      <trkpt lat="40.1809925772249698638916015625" lon="-1.65488448925316333770751953125">
        <ele>1479.199951171875</ele>
        <time>2022-08-25T11:55:57.000Z</time>
      </trkpt>
      <trkpt lat="40.18101981841027736663818359375" lon="-1.65487895719707012176513671875">
        <ele>1479.4000244140625</ele>
        <time>2022-08-25T11:55:59.000Z</time>
      </trkpt>
      <trkpt lat="40.18107446841895580291748046875" lon="-1.65485699661076068878173828125">
        <ele>1480.199951171875</ele>
        <time>2022-08-25T11:56:03.000Z</time>
      </trkpt>
      <trkpt lat="40.18115091137588024139404296875" lon="-1.654807291924953460693359375">
        <ele>1481.199951171875</ele>
        <time>2022-08-25T11:56:09.000Z</time>
      </trkpt>
      <trkpt lat="40.181161053478717803955078125" lon="-1.6548010893166065216064453125">
        <ele>1481.5999755859375</ele>
        <time>2022-08-25T11:56:10.000Z</time>
      </trkpt>
      <trkpt lat="40.1812983490526676177978515625" lon="-1.654756329953670501708984375">
        <ele>1482.800048828125</ele>
        <time>2022-08-25T11:56:21.000Z</time>
      </trkpt>
      <trkpt lat="40.18131134100258350372314453125" lon="-1.65475557558238506317138671875">
        <ele>1483</ele>
        <time>2022-08-25T11:56:22.000Z</time>
      </trkpt>
      <trkpt lat="40.181422568857669830322265625" lon="-1.6547179408371448516845703125">
        <ele>1484</ele>
        <time>2022-08-25T11:56:31.000Z</time>
      </trkpt>
      <trkpt lat="40.1814884506165981292724609375" lon="-1.65468634106218814849853515625">
        <ele>1485.199951171875</ele>
        <time>2022-08-25T11:56:36.000Z</time>
      </trkpt>
      <trkpt lat="40.18155173398554325103759765625" lon="-1.65467628277838230133056640625">
        <ele>1485.4000244140625</ele>
        <time>2022-08-25T11:56:40.000Z</time>
      </trkpt>
      <trkpt lat="40.18159984610974788665771484375" lon="-1.654669828712940216064453125">
        <ele>1486</ele>
        <time>2022-08-25T11:56:43.000Z</time>
      </trkpt>
      <trkpt lat="40.181716270744800567626953125" lon="-1.65461844764649868011474609375">
        <ele>1487.199951171875</ele>
        <time>2022-08-25T11:56:51.000Z</time>
      </trkpt>
      <trkpt lat="40.18180838786065578460693359375" lon="-1.6545791365206241607666015625">
        <ele>1488.199951171875</ele>
        <time>2022-08-25T11:56:57.000Z</time>
      </trkpt>
      <trkpt lat="40.18186354078352451324462890625" lon="-1.6545650549232959747314453125">
        <ele>1488.5999755859375</ele>
        <time>2022-08-25T11:57:01.000Z</time>
      </trkpt>
      <trkpt lat="40.18191684968769550323486328125" lon="-1.6545395739376544952392578125">
        <ele>1489.199951171875</ele>
        <time>2022-08-25T11:57:05.000Z</time>
      </trkpt>
      <trkpt lat="40.18202497623860836029052734375" lon="-1.65450076572597026824951171875">
        <ele>1490.199951171875</ele>
        <time>2022-08-25T11:57:12.000Z</time>
      </trkpt>
      <trkpt lat="40.182097814977169036865234375" lon="-1.654448546469211578369140625">
        <ele>1491.199951171875</ele>
        <time>2022-08-25T11:57:18.000Z</time>
      </trkpt>
      <trkpt lat="40.18214986659586429595947265625" lon="-1.65442851372063159942626953125">
        <ele>1492.199951171875</ele>
        <time>2022-08-25T11:57:22.000Z</time>
      </trkpt>
      <trkpt lat="40.1821767725050449371337890625" lon="-1.65441694669425487518310546875">
        <ele>1492.4000244140625</ele>
        <time>2022-08-25T11:57:24.000Z</time>
      </trkpt>
      <trkpt lat="40.18224692903459072113037109375" lon="-1.65439791977405548095703125">
        <ele>1493.5999755859375</ele>
        <time>2022-08-25T11:57:29.000Z</time>
      </trkpt>
      <trkpt lat="40.1823025010526180267333984375" lon="-1.654375456273555755615234375">
        <ele>1494</ele>
        <time>2022-08-25T11:57:33.000Z</time>
      </trkpt>
      <trkpt lat="40.18236109055578708648681640625" lon="-1.654353328049182891845703125">
        <ele>1494.5999755859375</ele>
        <time>2022-08-25T11:57:37.000Z</time>
      </trkpt>
      <trkpt lat="40.1824439875781536102294921875" lon="-1.65432491339743137359619140625">
        <ele>1495.800048828125</ele>
        <time>2022-08-25T11:57:43.000Z</time>
      </trkpt>
      <trkpt lat="40.18248246051371097564697265625" lon="-1.65432424284517765045166015625">
        <ele>1496.4000244140625</ele>
        <time>2022-08-25T11:57:46.000Z</time>
      </trkpt>
      <trkpt lat="40.18250291235744953155517578125" lon="-1.6543169505894184112548828125">
        <ele>1497</ele>
        <time>2022-08-25T11:57:48.000Z</time>
      </trkpt>
      <trkpt lat="40.18257491290569305419921875" lon="-1.65428518317639827728271484375">
        <ele>1498</ele>
        <time>2022-08-25T11:57:55.000Z</time>
      </trkpt>
      <trkpt lat="40.1825864799320697784423828125" lon="-1.6542834229767322540283203125">
        <ele>1498.199951171875</ele>
        <time>2022-08-25T11:57:56.000Z</time>
      </trkpt>
      <trkpt lat="40.1826505176723003387451171875" lon="-1.6542616300284862518310546875">
        <ele>1499</ele>
        <time>2022-08-25T11:58:01.000Z</time>
      </trkpt>
      <trkpt lat="40.18272134475409984588623046875" lon="-1.654233299195766448974609375">
        <ele>1500</ele>
        <time>2022-08-25T11:58:06.000Z</time>
      </trkpt>
      <trkpt lat="40.182906500995159149169921875" lon="-1.6541332192718982696533203125">
        <ele>1501</ele>
        <time>2022-08-25T11:58:18.000Z</time>
      </trkpt>
      <trkpt lat="40.1829247735440731048583984375" lon="-1.65413028560578823089599609375">
        <ele>1501.199951171875</ele>
        <time>2022-08-25T11:58:19.000Z</time>
      </trkpt>
      <trkpt lat="40.183031558990478515625" lon="-1.65409642271697521209716796875">
        <ele>1502.199951171875</ele>
        <time>2022-08-25T11:58:25.000Z</time>
      </trkpt>
      <trkpt lat="40.18310724757611751556396484375" lon="-1.65406021289527416229248046875">
        <ele>1503.199951171875</ele>
        <time>2022-08-25T11:58:30.000Z</time>
      </trkpt>
      <trkpt lat="40.18313574604690074920654296875" lon="-1.6540440358221530914306640625">
        <ele>1503.4000244140625</ele>
        <time>2022-08-25T11:58:32.000Z</time>
      </trkpt>
      <trkpt lat="40.18324605189263820648193359375" lon="-1.65397589094936847686767578125">
        <ele>1504.4000244140625</ele>
        <time>2022-08-25T11:58:39.000Z</time>
      </trkpt>
      <trkpt lat="40.18334093503654003143310546875" lon="-1.65392182767391204833984375">
        <ele>1505.5999755859375</ele>
        <time>2022-08-25T11:58:45.000Z</time>
      </trkpt>
      <trkpt lat="40.18342844210565090179443359375" lon="-1.6538717038929462432861328125">
        <ele>1507</ele>
        <time>2022-08-25T11:58:50.000Z</time>
      </trkpt>
      <trkpt lat="40.18350220285356044769287109375" lon="-1.6538324765861034393310546875">
        <ele>1507.800048828125</ele>
        <time>2022-08-25T11:58:54.000Z</time>
      </trkpt>
      <trkpt lat="40.18353925086557865142822265625" lon="-1.6538133658468723297119140625">
        <ele>1508</ele>
        <time>2022-08-25T11:58:56.000Z</time>
      </trkpt>
      <trkpt lat="40.18367738462984561920166015625" lon="-1.65371890179812908172607421875">
        <ele>1509</ele>
        <time>2022-08-25T11:59:04.000Z</time>
      </trkpt>
      <trkpt lat="40.18369448371231555938720703125" lon="-1.65370984934270381927490234375">
        <ele>1509.199951171875</ele>
        <time>2022-08-25T11:59:05.000Z</time>
      </trkpt>
      <trkpt lat="40.18381484784185886383056640625" lon="-1.653636507689952850341796875">
        <ele>1510.199951171875</ele>
        <time>2022-08-25T11:59:12.000Z</time>
      </trkpt>
      <trkpt lat="40.183903612196445465087890625" lon="-1.65356501005589962005615234375">
        <ele>1511.199951171875</ele>
        <time>2022-08-25T11:59:18.000Z</time>
      </trkpt>
      <trkpt lat="40.184009559452533721923828125" lon="-1.65344833396375179290771484375">
        <ele>1512.199951171875</ele>
        <time>2022-08-25T11:59:25.000Z</time>
      </trkpt>
      <trkpt lat="40.1840432547032833099365234375" lon="-1.65340826846659183502197265625">
        <ele>1512.5999755859375</ele>
        <time>2022-08-25T11:59:27.000Z</time>
      </trkpt>
      <trkpt lat="40.18414375372231006622314453125" lon="-1.65329276584088802337646484375">
        <ele>1513.4000244140625</ele>
        <time>2022-08-25T11:59:33.000Z</time>
      </trkpt>
      <trkpt lat="40.18420577980577945709228515625" lon="-1.65321028791368007659912109375">
        <ele>1513.800048828125</ele>
        <time>2022-08-25T11:59:37.000Z</time>
      </trkpt>
      <trkpt lat="40.18424903042614459991455078125" lon="-1.65315312333405017852783203125">
        <ele>1514.4000244140625</ele>
        <time>2022-08-25T11:59:40.000Z</time>
      </trkpt>
      <trkpt lat="40.184333436191082000732421875" lon="-1.65305421687662601470947265625">
        <ele>1515</ele>
        <time>2022-08-25T11:59:46.000Z</time>
      </trkpt>
      <trkpt lat="40.18438481725752353668212890625" lon="-1.6529983095824718475341796875">
        <ele>1515.4000244140625</ele>
        <time>2022-08-25T11:59:49.000Z</time>
      </trkpt>
      <trkpt lat="40.1845193468034267425537109375" lon="-1.65282572619616985321044921875">
        <ele>1516.4000244140625</ele>
        <time>2022-08-25T11:59:57.000Z</time>
      </trkpt>
      <trkpt lat="40.18471489660441875457763671875" lon="-1.65258181281387805938720703125">
        <ele>1517.4000244140625</ele>
        <time>2022-08-25T12:00:08.000Z</time>
      </trkpt>
      <trkpt lat="40.18478572368621826171875" lon="-1.6525021009147167205810546875">
        <ele>1517.800048828125</ele>
        <time>2022-08-25T12:00:12.000Z</time>
      </trkpt>
      <trkpt lat="40.18486442975699901580810546875" lon="-1.6524135880172252655029296875">
        <ele>1518.4000244140625</ele>
        <time>2022-08-25T12:00:16.000Z</time>
      </trkpt>
      <trkpt lat="40.18494506366550922393798828125" lon="-1.65229565463960170745849609375">
        <ele>1519</ele>
        <time>2022-08-25T12:00:22.000Z</time>
      </trkpt>
      <trkpt lat="40.18494623713195323944091796875" lon="-1.6522943973541259765625">
        <ele>1519.199951171875</ele>
        <time>2022-08-25T12:00:25.000Z</time>
      </trkpt>
      <trkpt lat="40.18502368591725826263427734375" lon="-1.6522311978042125701904296875">
        <ele>1520</ele>
        <time>2022-08-25T12:00:47.000Z</time>
      </trkpt>
      <trkpt lat="40.1850393600761890411376953125" lon="-1.65221787057816982269287109375">
        <ele>1520</ele>
        <time>2022-08-25T12:00:48.000Z</time>
      </trkpt>
      <trkpt lat="40.185210518538951873779296875" lon="-1.652092225849628448486328125">
        <ele>1519.800048828125</ele>
        <time>2022-08-25T12:00:55.000Z</time>
      </trkpt>
      <trkpt lat="40.1854312978684902191162109375" lon="-1.6520263440907001495361328125">
        <ele>1519.5999755859375</ele>
        <time>2022-08-25T12:01:00.000Z</time>
      </trkpt>
      <trkpt lat="40.18579968251287937164306640625" lon="-1.6519944928586483001708984375">
        <ele>1518.800048828125</ele>
        <time>2022-08-25T12:01:05.000Z</time>
      </trkpt>
      <trkpt lat="40.18606455065310001373291015625" lon="-1.65198862552642822265625">
        <ele>1517.5999755859375</ele>
        <time>2022-08-25T12:01:08.000Z</time>
      </trkpt>
      <trkpt lat="40.1862694881856441497802734375" lon="-1.6519857756793498992919921875">
        <ele>1517</ele>
        <time>2022-08-25T12:01:10.000Z</time>
      </trkpt>
      <trkpt lat="40.186381638050079345703125" lon="-1.65198795497417449951171875">
        <ele>1516.4000244140625</ele>
        <time>2022-08-25T12:01:11.000Z</time>
      </trkpt>
      <trkpt lat="40.1866171695291996002197265625" lon="-1.651988290250301361083984375">
        <ele>1515.4000244140625</ele>
        <time>2022-08-25T12:01:13.000Z</time>
      </trkpt>
      <trkpt lat="40.1868692971765995025634765625" lon="-1.651981584727764129638671875">
        <ele>1514.4000244140625</ele>
        <time>2022-08-25T12:01:15.000Z</time>
      </trkpt>
      <trkpt lat="40.18700215034186840057373046875" lon="-1.6519783996045589447021484375">
        <ele>1513.800048828125</ele>
        <time>2022-08-25T12:01:16.000Z</time>
      </trkpt>
      <trkpt lat="40.1872868835926055908203125" lon="-1.65196909569203853607177734375">
        <ele>1512.4000244140625</ele>
        <time>2022-08-25T12:01:18.000Z</time>
      </trkpt>
      <trkpt lat="40.1876127719879150390625" lon="-1.651953756809234619140625">
        <ele>1510.199951171875</ele>
        <time>2022-08-25T12:01:20.000Z</time>
      </trkpt>
      <trkpt lat="40.18778434954583644866943359375" lon="-1.65194864384829998016357421875">
        <ele>1509.199951171875</ele>
        <time>2022-08-25T12:01:21.000Z</time>
      </trkpt>
      <trkpt lat="40.187955759465694427490234375" lon="-1.651937998831272125244140625">
        <ele>1507.800048828125</ele>
        <time>2022-08-25T12:01:22.000Z</time>
      </trkpt>
      <trkpt lat="40.18813638947904109954833984375" lon="-1.6519274376332759857177734375">
        <ele>1506.4000244140625</ele>
        <time>2022-08-25T12:01:23.000Z</time>
      </trkpt>
      <trkpt lat="40.188317857682704925537109375" lon="-1.65192425251007080078125">
        <ele>1504.800048828125</ele>
        <time>2022-08-25T12:01:24.000Z</time>
      </trkpt>
      <trkpt lat="40.1885020919144153594970703125" lon="-1.65192349813878536224365234375">
        <ele>1503</ele>
        <time>2022-08-25T12:01:25.000Z</time>
      </trkpt>
      <trkpt lat="40.1886901818215847015380859375" lon="-1.6519230790436267852783203125">
        <ele>1501.5999755859375</ele>
        <time>2022-08-25T12:01:26.000Z</time>
      </trkpt>
      <trkpt lat="40.18888271413743495941162109375" lon="-1.65192760527133941650390625">
        <ele>1500.4000244140625</ele>
        <time>2022-08-25T12:01:27.000Z</time>
      </trkpt>
      <trkpt lat="40.18907482735812664031982421875" lon="-1.6519314609467983245849609375">
        <ele>1499</ele>
        <time>2022-08-25T12:01:28.000Z</time>
      </trkpt>
      <trkpt lat="40.18926911987364292144775390625" lon="-1.651937328279018402099609375">
        <ele>1497.199951171875</ele>
        <time>2022-08-25T12:01:29.000Z</time>
      </trkpt>
      <trkpt lat="40.1894639991223812103271484375" lon="-1.65194235742092132568359375">
        <ele>1494.800048828125</ele>
        <time>2022-08-25T12:01:30.000Z</time>
      </trkpt>
      <trkpt lat="40.18965862691402435302734375" lon="-1.6519475542008876800537109375">
        <ele>1493</ele>
        <time>2022-08-25T12:01:31.000Z</time>
      </trkpt>
      <trkpt lat="40.18985250033438205718994140625" lon="-1.65195652283728122711181640625">
        <ele>1490.800048828125</ele>
        <time>2022-08-25T12:01:32.000Z</time>
      </trkpt>
      <trkpt lat="40.190047882497310638427734375" lon="-1.65196607820689678192138671875">
        <ele>1488.4000244140625</ele>
        <time>2022-08-25T12:01:33.000Z</time>
      </trkpt>
      <trkpt lat="40.19024276174604892730712890625" lon="-1.65197764523327350616455078125">
        <ele>1486.4000244140625</ele>
        <time>2022-08-25T12:01:34.000Z</time>
      </trkpt>
      <trkpt lat="40.19043244421482086181640625" lon="-1.6520062275230884552001953125">
        <ele>1484.4000244140625</ele>
        <time>2022-08-25T12:01:35.000Z</time>
      </trkpt>
      <trkpt lat="40.19060871563851833343505859375" lon="-1.65206649340689182281494140625">
        <ele>1482.4000244140625</ele>
        <time>2022-08-25T12:01:36.000Z</time>
      </trkpt>
      <trkpt lat="40.19077300094068050384521484375" lon="-1.6521537490189075469970703125">
        <ele>1480.800048828125</ele>
        <time>2022-08-25T12:01:37.000Z</time>
      </trkpt>
      <trkpt lat="40.19092454575002193450927734375" lon="-1.65225961245596408843994140625">
        <ele>1478.5999755859375</ele>
        <time>2022-08-25T12:01:38.000Z</time>
      </trkpt>
      <trkpt lat="40.19106946885585784912109375" lon="-1.65236807428300380706787109375">
        <ele>1476.4000244140625</ele>
        <time>2022-08-25T12:01:39.000Z</time>
      </trkpt>
      <trkpt lat="40.19121296703815460205078125" lon="-1.65247200988233089447021484375">
        <ele>1474.199951171875</ele>
        <time>2022-08-25T12:01:40.000Z</time>
      </trkpt>
      <trkpt lat="40.19135403446853160858154296875" lon="-1.65257125161588191986083984375">
        <ele>1472</ele>
        <time>2022-08-25T12:01:41.000Z</time>
      </trkpt>
      <trkpt lat="40.19148998893797397613525390625" lon="-1.6526697389781475067138671875">
        <ele>1470.5999755859375</ele>
        <time>2022-08-25T12:01:42.000Z</time>
      </trkpt>
      <trkpt lat="40.1916235126554965972900390625" lon="-1.65276571176946163177490234375">
        <ele>1469.199951171875</ele>
        <time>2022-08-25T12:01:43.000Z</time>
      </trkpt>
      <trkpt lat="40.1917529292404651641845703125" lon="-1.65285564959049224853515625">
        <ele>1467.4000244140625</ele>
        <time>2022-08-25T12:01:44.000Z</time>
      </trkpt>
      <trkpt lat="40.19187974743545055389404296875" lon="-1.65294089354574680328369140625">
        <ele>1466.4000244140625</ele>
        <time>2022-08-25T12:01:45.000Z</time>
      </trkpt>
      <trkpt lat="40.1920037157833576202392578125" lon="-1.65302135981619358062744140625">
        <ele>1465</ele>
        <time>2022-08-25T12:01:46.000Z</time>
      </trkpt>
      <trkpt lat="40.19212231971323490142822265625" lon="-1.65309964679181575775146484375">
        <ele>1463.5999755859375</ele>
        <time>2022-08-25T12:01:47.000Z</time>
      </trkpt>
      <trkpt lat="40.19223564304411411285400390625" lon="-1.653179861605167388916015625">
        <ele>1462</ele>
        <time>2022-08-25T12:01:48.000Z</time>
      </trkpt>
      <trkpt lat="40.1923450268805027008056640625" lon="-1.65325689129531383514404296875">
        <ele>1460.5999755859375</ele>
        <time>2022-08-25T12:01:49.000Z</time>
      </trkpt>
      <trkpt lat="40.1924499683082103729248046875" lon="-1.653330065310001373291015625">
        <ele>1459</ele>
        <time>2022-08-25T12:01:50.000Z</time>
      </trkpt>
      <trkpt lat="40.1926528103649616241455078125" lon="-1.65345646440982818603515625">
        <ele>1457.5999755859375</ele>
        <time>2022-08-25T12:01:52.000Z</time>
      </trkpt>
      <trkpt lat="40.19275397993624210357666015625" lon="-1.6534982062876224517822265625">
        <ele>1457.199951171875</ele>
        <time>2022-08-25T12:01:53.000Z</time>
      </trkpt>
      <trkpt lat="40.19302840344607830047607421875" lon="-1.653490327298641204833984375">
        <ele>1456.4000244140625</ele>
        <time>2022-08-25T12:01:56.000Z</time>
      </trkpt>
      <trkpt lat="40.193237364292144775390625" lon="-1.65334322489798069000244140625">
        <ele>1455.800048828125</ele>
        <time>2022-08-25T12:01:59.000Z</time>
      </trkpt>
      <trkpt lat="40.1934237778186798095703125" lon="-1.65318883024156093597412109375">
        <ele>1455.800048828125</ele>
        <time>2022-08-25T12:02:03.000Z</time>
      </trkpt>
      <trkpt lat="40.1935771666467189788818359375" lon="-1.65304969064891338348388671875">
        <ele>1455.800048828125</ele>
        <time>2022-08-25T12:02:08.000Z</time>
      </trkpt>
      <trkpt lat="40.1937360875308513641357421875" lon="-1.65290501900017261505126953125">
        <ele>1457</ele>
        <time>2022-08-25T12:02:16.000Z</time>
      </trkpt>
      <trkpt lat="40.19376902841031551361083984375" lon="-1.65287283249199390411376953125">
        <ele>1457.199951171875</ele>
        <time>2022-08-25T12:02:18.000Z</time>
      </trkpt>
      <trkpt lat="40.19386022351682186126708984375" lon="-1.65279689244925975799560546875">
        <ele>1458.4000244140625</ele>
        <time>2022-08-25T12:02:23.000Z</time>
      </trkpt>
      <trkpt lat="40.19387816078960895538330078125" lon="-1.65278314612805843353271484375">
        <ele>1458.4000244140625</ele>
        <time>2022-08-25T12:02:24.000Z</time>
      </trkpt>
      <trkpt lat="40.1939942501485347747802734375" lon="-1.65271290577948093414306640625">
        <ele>1459.199951171875</ele>
        <time>2022-08-25T12:02:30.000Z</time>
      </trkpt>
      <trkpt lat="40.19402953796088695526123046875" lon="-1.65268407203257083892822265625">
        <ele>1459.5999755859375</ele>
        <time>2022-08-25T12:02:32.000Z</time>
      </trkpt>
      <trkpt lat="40.194063819944858551025390625" lon="-1.65267300792038440704345703125">
        <ele>1459.800048828125</ele>
        <time>2022-08-25T12:02:34.000Z</time>
      </trkpt>
      <trkpt lat="40.19415224902331829071044921875" lon="-1.652575694024562835693359375">
        <ele>1460.4000244140625</ele>
        <time>2022-08-25T12:02:40.000Z</time>
      </trkpt>
      <trkpt lat="40.19417806528508663177490234375" lon="-1.65254719555377960205078125">
        <ele>1460.5999755859375</ele>
        <time>2022-08-25T12:02:42.000Z</time>
      </trkpt>
      <trkpt lat="40.19428065977990627288818359375" lon="-1.65246044285595417022705078125">
        <ele>1461.4000244140625</ele>
        <time>2022-08-25T12:02:49.000Z</time>
      </trkpt>
      <trkpt lat="40.194309242069721221923828125" lon="-1.65242657996714115142822265625">
        <ele>1461.5999755859375</ele>
        <time>2022-08-25T12:02:51.000Z</time>
      </trkpt>
      <trkpt lat="40.1943865232169628143310546875" lon="-1.652353070676326751708984375">
        <ele>1462.4000244140625</ele>
        <time>2022-08-25T12:02:57.000Z</time>
      </trkpt>
      <trkpt lat="40.1944344677031040191650390625" lon="-1.65231040678918361663818359375">
        <ele>1462.5999755859375</ele>
        <time>2022-08-25T12:03:00.000Z</time>
      </trkpt>
      <trkpt lat="40.19453764893114566802978515625" lon="-1.65224008262157440185546875">
        <ele>1463.4000244140625</ele>
        <time>2022-08-25T12:03:06.000Z</time>
      </trkpt>
      <trkpt lat="40.19457335583865642547607421875" lon="-1.6522234864532947540283203125">
        <ele>1463.5999755859375</ele>
        <time>2022-08-25T12:03:08.000Z</time>
      </trkpt>
      <trkpt lat="40.1946688257157802581787109375" lon="-1.65214486420154571533203125">
        <ele>1464.4000244140625</ele>
        <time>2022-08-25T12:03:15.000Z</time>
      </trkpt>
      <trkpt lat="40.19468500278890132904052734375" lon="-1.6521363146603107452392578125">
        <ele>1464.5999755859375</ele>
        <time>2022-08-25T12:03:16.000Z</time>
      </trkpt>
      <trkpt lat="40.194812826812267303466796875" lon="-1.65205903351306915283203125">
        <ele>1465.4000244140625</ele>
        <time>2022-08-25T12:03:24.000Z</time>
      </trkpt>
      <trkpt lat="40.19482992589473724365234375" lon="-1.652046628296375274658203125">
        <ele>1465.5999755859375</ele>
        <time>2022-08-25T12:03:25.000Z</time>
      </trkpt>
      <trkpt lat="40.19498507492244243621826171875" lon="-1.65189416147768497467041015625">
        <ele>1466.199951171875</ele>
        <time>2022-08-25T12:03:35.000Z</time>
      </trkpt>
      <trkpt lat="40.1950151659548282623291015625" lon="-1.6518647409975528717041015625">
        <ele>1466.4000244140625</ele>
        <time>2022-08-25T12:03:37.000Z</time>
      </trkpt>
      <trkpt lat="40.195131003856658935546875" lon="-1.65177061222493648529052734375">
        <ele>1467</ele>
        <time>2022-08-25T12:03:44.000Z</time>
      </trkpt>
      <trkpt lat="40.1951690576970577239990234375" lon="-1.65172250010073184967041015625">
        <ele>1467.199951171875</ele>
        <time>2022-08-25T12:03:47.000Z</time>
      </trkpt>
      <trkpt lat="40.19524072296917438507080078125" lon="-1.6516186483204364776611328125">
        <ele>1467.5999755859375</ele>
        <time>2022-08-25T12:03:53.000Z</time>
      </trkpt>
      <trkpt lat="40.19531314261257648468017578125" lon="-1.65152334608137607574462890625">
        <ele>1468</ele>
        <time>2022-08-25T12:03:59.000Z</time>
      </trkpt>
      <trkpt lat="40.19535639323294162750244140625" lon="-1.65145997889339923858642578125">
        <ele>1469</ele>
        <time>2022-08-25T12:04:03.000Z</time>
      </trkpt>
      <trkpt lat="40.19536796025931835174560546875" lon="-1.65144472382962703704833984375">
        <ele>1469.199951171875</ele>
        <time>2022-08-25T12:04:04.000Z</time>
      </trkpt>
      <trkpt lat="40.1954342611134052276611328125" lon="-1.65137314237654209136962890625">
        <ele>1469.5999755859375</ele>
        <time>2022-08-25T12:04:11.000Z</time>
      </trkpt>
      <trkpt lat="40.1954684592783451080322265625" lon="-1.65131145156919956207275390625">
        <ele>1470</ele>
        <time>2022-08-25T12:04:16.000Z</time>
      </trkpt>
      <trkpt lat="40.1954972930252552032470703125" lon="-1.6512451507151126861572265625">
        <ele>1471</ele>
        <time>2022-08-25T12:04:21.000Z</time>
      </trkpt>
      <trkpt lat="40.19550223834812641143798828125" lon="-1.6512327454984188079833984375">
        <ele>1471</ele>
        <time>2022-08-25T12:04:22.000Z</time>
      </trkpt>
      <trkpt lat="40.19558119587600231170654296875" lon="-1.65111464448273181915283203125">
        <ele>1471.4000244140625</ele>
        <time>2022-08-25T12:04:30.000Z</time>
      </trkpt>
      <trkpt lat="40.195662416517734527587890625" lon="-1.65095555596053600311279296875">
        <ele>1472</ele>
        <time>2022-08-25T12:04:38.000Z</time>
      </trkpt>
      <trkpt lat="40.19573810510337352752685546875" lon="-1.65084558539092540740966796875">
        <ele>1472.4000244140625</ele>
        <time>2022-08-25T12:04:44.000Z</time>
      </trkpt>
      <trkpt lat="40.195771045982837677001953125" lon="-1.650768555700778961181640625">
        <ele>1473</ele>
        <time>2022-08-25T12:04:48.000Z</time>
      </trkpt>
      <trkpt lat="40.19581572152674198150634765625" lon="-1.650702171027660369873046875">
        <ele>1473.199951171875</ele>
        <time>2022-08-25T12:04:51.000Z</time>
      </trkpt>
      <trkpt lat="40.1958821900188922882080078125" lon="-1.6505898535251617431640625">
        <ele>1474</ele>
        <time>2022-08-25T12:04:57.000Z</time>
      </trkpt>
      <trkpt lat="40.195921249687671661376953125" lon="-1.65051600895822048187255859375">
        <ele>1474</ele>
        <time>2022-08-25T12:05:01.000Z</time>
      </trkpt>
      <trkpt lat="40.19599241204559803009033203125" lon="-1.6504046134650707244873046875">
        <ele>1474.800048828125</ele>
        <time>2022-08-25T12:05:07.000Z</time>
      </trkpt>
      <trkpt lat="40.19602593965828418731689453125" lon="-1.65033973753452301025390625">
        <ele>1475</ele>
        <time>2022-08-25T12:05:10.000Z</time>
      </trkpt>
      <trkpt lat="40.19615837372839450836181640625" lon="-1.650183498859405517578125">
        <ele>1475.5999755859375</ele>
        <time>2022-08-25T12:05:20.000Z</time>
      </trkpt>
      <trkpt lat="40.19625945948064327239990234375" lon="-1.65008333511650562286376953125">
        <ele>1476.199951171875</ele>
        <time>2022-08-25T12:05:28.000Z</time>
      </trkpt>
      <trkpt lat="40.1963098347187042236328125" lon="-1.65003664791584014892578125">
        <ele>1476.5999755859375</ele>
        <time>2022-08-25T12:05:32.000Z</time>
      </trkpt>
      <trkpt lat="40.196370519697666168212890625" lon="-1.64999482221901416778564453125">
        <ele>1477.199951171875</ele>
        <time>2022-08-25T12:05:36.000Z</time>
      </trkpt>
      <trkpt lat="40.1964833401143550872802734375" lon="-1.64990614168345928192138671875">
        <ele>1477.199951171875</ele>
        <time>2022-08-25T12:05:43.000Z</time>
      </trkpt>
      <trkpt lat="40.19652650691568851470947265625" lon="-1.64986322633922100067138671875">
        <ele>1477.5999755859375</ele>
        <time>2022-08-25T12:05:46.000Z</time>
      </trkpt>
      <trkpt lat="40.19657042808830738067626953125" lon="-1.64979499764740467071533203125">
        <ele>1478</ele>
        <time>2022-08-25T12:05:50.000Z</time>
      </trkpt>
      <trkpt lat="40.196611247956752777099609375" lon="-1.64973397739231586456298828125">
        <ele>1478.800048828125</ele>
        <time>2022-08-25T12:05:54.000Z</time>
      </trkpt>
      <trkpt lat="40.19666983745992183685302734375" lon="-1.64962626993656158447265625">
        <ele>1479.4000244140625</ele>
        <time>2022-08-25T12:05:59.000Z</time>
      </trkpt>
      <trkpt lat="40.196703784167766571044921875" lon="-1.64955980144441127777099609375">
        <ele>1479.800048828125</ele>
        <time>2022-08-25T12:06:02.000Z</time>
      </trkpt>
      <trkpt lat="40.196769498288631439208984375" lon="-1.64944279007613658905029296875">
        <ele>1480.4000244140625</ele>
        <time>2022-08-25T12:06:07.000Z</time>
      </trkpt>
      <trkpt lat="40.1967934705317020416259765625" lon="-1.64938151836395263671875">
        <ele>1480.800048828125</ele>
        <time>2022-08-25T12:06:10.000Z</time>
      </trkpt>
      <trkpt lat="40.19682523794472217559814453125" lon="-1.64929878897964954376220703125">
        <ele>1481.4000244140625</ele>
        <time>2022-08-25T12:06:14.000Z</time>
      </trkpt>
      <trkpt lat="40.196831189095973968505859375" lon="-1.64927917532622814178466796875">
        <ele>1481.5999755859375</ele>
        <time>2022-08-25T12:06:15.000Z</time>
      </trkpt>
      <trkpt lat="40.19685893319547176361083984375" lon="-1.64918160997331142425537109375">
        <ele>1481.800048828125</ele>
        <time>2022-08-25T12:06:20.000Z</time>
      </trkpt>
      <trkpt lat="40.196876786649227142333984375" lon="-1.64908354170620441436767578125">
        <ele>1482.800048828125</ele>
        <time>2022-08-25T12:06:25.000Z</time>
      </trkpt>
      <trkpt lat="40.1969312690198421478271484375" lon="-1.64889134466648101806640625">
        <ele>1483.4000244140625</ele>
        <time>2022-08-25T12:06:34.000Z</time>
      </trkpt>
      <trkpt lat="40.19693789072334766387939453125" lon="-1.6488512791693210601806640625">
        <ele>1483.5999755859375</ele>
        <time>2022-08-25T12:06:36.000Z</time>
      </trkpt>
      <trkpt lat="40.19695884548127651214599609375" lon="-1.64872261695563793182373046875">
        <ele>1484.800048828125</ele>
        <time>2022-08-25T12:06:42.000Z</time>
      </trkpt>
      <trkpt lat="40.19696773029863834381103515625" lon="-1.6486967168748378753662109375">
        <ele>1485</ele>
        <time>2022-08-25T12:06:43.000Z</time>
      </trkpt>
      <trkpt lat="40.196997821331024169921875" lon="-1.648603342473506927490234375">
        <ele>1485.800048828125</ele>
        <time>2022-08-25T12:06:47.000Z</time>
      </trkpt>
      <trkpt lat="40.1970144174993038177490234375" lon="-1.64852547459304332733154296875">
        <ele>1486.4000244140625</ele>
        <time>2022-08-25T12:06:50.000Z</time>
      </trkpt>
      <trkpt lat="40.1970516331493854522705078125" lon="-1.64843964390456676483154296875">
        <ele>1486.5999755859375</ele>
        <time>2022-08-25T12:06:53.000Z</time>
      </trkpt>
      <trkpt lat="40.19710955210030078887939453125" lon="-1.64831466972827911376953125">
        <ele>1487.5999755859375</ele>
        <time>2022-08-25T12:06:58.000Z</time>
      </trkpt>
      <trkpt lat="40.197118856012821197509765625" lon="-1.64829446934163570404052734375">
        <ele>1487.800048828125</ele>
        <time>2022-08-25T12:06:59.000Z</time>
      </trkpt>
      <trkpt lat="40.19719169475138187408447265625" lon="-1.648149378597736358642578125">
        <ele>1488.4000244140625</ele>
        <time>2022-08-25T12:07:06.000Z</time>
      </trkpt>
      <trkpt lat="40.19723947159945964813232421875" lon="-1.648062877357006072998046875">
        <ele>1488.800048828125</ele>
        <time>2022-08-25T12:07:11.000Z</time>
      </trkpt>
      <trkpt lat="40.19725489430129528045654296875" lon="-1.6480305232107639312744140625">
        <ele>1489</ele>
        <time>2022-08-25T12:07:13.000Z</time>
      </trkpt>
      <trkpt lat="40.197331421077251434326171875" lon="-1.64792231284081935882568359375">
        <ele>1489.800048828125</ele>
        <time>2022-08-25T12:07:20.000Z</time>
      </trkpt>
      <trkpt lat="40.197356231510639190673828125" lon="-1.6478913836181163787841796875">
        <ele>1490.199951171875</ele>
        <time>2022-08-25T12:07:23.000Z</time>
      </trkpt>
      <trkpt lat="40.1974120549857616424560546875" lon="-1.647800020873546600341796875">
        <ele>1490.800048828125</ele>
        <time>2022-08-25T12:07:30.000Z</time>
      </trkpt>
      <trkpt lat="40.19742303527891635894775390625" lon="-1.6477810777723789215087890625">
        <ele>1490.800048828125</ele>
        <time>2022-08-25T12:07:31.000Z</time>
      </trkpt>
      <trkpt lat="40.19750450737774372100830078125" lon="-1.64765241555869579315185546875">
        <ele>1491.199951171875</ele>
        <time>2022-08-25T12:07:38.000Z</time>
      </trkpt>
      <trkpt lat="40.1975689642131328582763671875" lon="-1.64754680357873439788818359375">
        <ele>1491.5999755859375</ele>
        <time>2022-08-25T12:07:44.000Z</time>
      </trkpt>
      <trkpt lat="40.19759184680879116058349609375" lon="-1.64752266369760036468505859375">
        <ele>1491.800048828125</ele>
        <time>2022-08-25T12:07:46.000Z</time>
      </trkpt>
      <trkpt lat="40.1976480893790721893310546875" lon="-1.64740674197673797607421875">
        <ele>1492.199951171875</ele>
        <time>2022-08-25T12:07:52.000Z</time>
      </trkpt>
      <trkpt lat="40.19771975465118885040283203125" lon="-1.64728478528559207916259765625">
        <ele>1492.5999755859375</ele>
        <time>2022-08-25T12:07:58.000Z</time>
      </trkpt>
      <trkpt lat="40.19776652567088603973388671875" lon="-1.64722024463117122650146484375">
        <ele>1493.199951171875</ele>
        <time>2022-08-25T12:08:02.000Z</time>
      </trkpt>
      <trkpt lat="40.19783609546720981597900390625" lon="-1.64710407145321369171142578125">
        <ele>1493.5999755859375</ele>
        <time>2022-08-25T12:08:08.000Z</time>
      </trkpt>
      <trkpt lat="40.19784766249358654022216796875" lon="-1.6470842063426971435546875">
        <ele>1493.800048828125</ele>
        <time>2022-08-25T12:08:09.000Z</time>
      </trkpt>
      <trkpt lat="40.197903402149677276611328125" lon="-1.6469549573957920074462890625">
        <ele>1494.800048828125</ele>
        <time>2022-08-25T12:08:16.000Z</time>
      </trkpt>
      <trkpt lat="40.19790709018707275390625" lon="-1.646933667361736297607421875">
        <ele>1494.800048828125</ele>
        <time>2022-08-25T12:08:17.000Z</time>
      </trkpt>
      <trkpt lat="40.197949670255184173583984375" lon="-1.6467685438692569732666015625">
        <ele>1495.5999755859375</ele>
        <time>2022-08-25T12:08:26.000Z</time>
      </trkpt>
      <trkpt lat="40.19795469939708709716796875" lon="-1.64674960076808929443359375">
        <ele>1495.5999755859375</ele>
        <time>2022-08-25T12:08:27.000Z</time>
      </trkpt>
      <trkpt lat="40.19797842018306255340576171875" lon="-1.646628566086292266845703125">
        <ele>1496.199951171875</ele>
        <time>2022-08-25T12:08:33.000Z</time>
      </trkpt>
      <trkpt lat="40.19799434579908847808837890625" lon="-1.6465499438345432281494140625">
        <ele>1496.5999755859375</ele>
        <time>2022-08-25T12:08:37.000Z</time>
      </trkpt>
      <trkpt lat="40.19801094196736812591552734375" lon="-1.64645723998546600341796875">
        <ele>1496.800048828125</ele>
        <time>2022-08-25T12:08:41.000Z</time>
      </trkpt>
      <trkpt lat="40.198027789592742919921875" lon="-1.6462753526866436004638671875">
        <ele>1497.5999755859375</ele>
        <time>2022-08-25T12:08:49.000Z</time>
      </trkpt>
      <trkpt lat="40.19803122617304325103759765625" lon="-1.6462518833577632904052734375">
        <ele>1497.5999755859375</ele>
        <time>2022-08-25T12:08:50.000Z</time>
      </trkpt>
      <trkpt lat="40.198026113212108612060546875" lon="-1.6460822336375713348388671875">
        <ele>1498.4000244140625</ele>
        <time>2022-08-25T12:08:57.000Z</time>
      </trkpt>
      <trkpt lat="40.19801580347120761871337890625" lon="-1.64598190225660800933837890625">
        <ele>1498.5999755859375</ele>
        <time>2022-08-25T12:09:01.000Z</time>
      </trkpt>
      <trkpt lat="40.19800306297838687896728515625" lon="-1.6458653099834918975830078125">
        <ele>1499</ele>
        <time>2022-08-25T12:09:05.000Z</time>
      </trkpt>
      <trkpt lat="40.19797808490693569183349609375" lon="-1.64577537216246128082275390625">
        <ele>1499.5999755859375</ele>
        <time>2022-08-25T12:09:09.000Z</time>
      </trkpt>
      <trkpt lat="40.1979733072221279144287109375" lon="-1.64570731110870838165283203125">
        <ele>1500.199951171875</ele>
        <time>2022-08-25T12:09:12.000Z</time>
      </trkpt>
      <trkpt lat="40.1979585550725460052490234375" lon="-1.64566867053508758544921875">
        <ele>1500.5999755859375</ele>
        <time>2022-08-25T12:09:14.000Z</time>
      </trkpt>
      <trkpt lat="40.19792410545051097869873046875" lon="-1.64555660448968410491943359375">
        <ele>1501.4000244140625</ele>
        <time>2022-08-25T12:09:20.000Z</time>
      </trkpt>
      <trkpt lat="40.19792075268924236297607421875" lon="-1.64554051123559474945068359375">
        <ele>1501.5999755859375</ele>
        <time>2022-08-25T12:09:21.000Z</time>
      </trkpt>
      <trkpt lat="40.1979136280715465545654296875" lon="-1.64546549320220947265625">
        <ele>1502.5999755859375</ele>
        <time>2022-08-25T12:09:26.000Z</time>
      </trkpt>
      <trkpt lat="40.19790415652096271514892578125" lon="-1.64540539495646953582763671875">
        <ele>1503.4000244140625</ele>
        <time>2022-08-25T12:09:30.000Z</time>
      </trkpt>
      <trkpt lat="40.1979092694818973541259765625" lon="-1.645355187356472015380859375">
        <ele>1503.5999755859375</ele>
        <time>2022-08-25T12:09:33.000Z</time>
      </trkpt>
      <trkpt lat="40.1979136280715465545654296875" lon="-1.6452799178659915924072265625">
        <ele>1504.199951171875</ele>
        <time>2022-08-25T12:09:37.000Z</time>
      </trkpt>
      <trkpt lat="40.1979106105864048004150390625" lon="-1.64526374079287052154541015625">
        <ele>1504.199951171875</ele>
        <time>2022-08-25T12:09:38.000Z</time>
      </trkpt>
      <trkpt lat="40.197896696627140045166015625" lon="-1.6452004574239253997802734375">
        <ele>1504.4000244140625</ele>
        <time>2022-08-25T12:09:42.000Z</time>
      </trkpt>
      <trkpt lat="40.19789636135101318359375" lon="-1.64518050849437713623046875">
        <ele>1504.5999755859375</ele>
        <time>2022-08-25T12:09:43.000Z</time>
      </trkpt>
      <trkpt lat="40.19789242185652256011962890625" lon="-1.6450774110853672027587890625">
        <ele>1505.4000244140625</ele>
        <time>2022-08-25T12:09:49.000Z</time>
      </trkpt>
      <trkpt lat="40.1978918351233005523681640625" lon="-1.64504849351942539215087890625">
        <ele>1505.5999755859375</ele>
        <time>2022-08-25T12:09:51.000Z</time>
      </trkpt>
      <trkpt lat="40.19789879210293292999267578125" lon="-1.64488823153078556060791015625">
        <ele>1506.199951171875</ele>
        <time>2022-08-25T12:09:59.000Z</time>
      </trkpt>
      <trkpt lat="40.19789359532296657562255859375" lon="-1.64476920850574970245361328125">
        <ele>1507</ele>
        <time>2022-08-25T12:10:06.000Z</time>
      </trkpt>
      <trkpt lat="40.1978995464742183685302734375" lon="-1.644726879894733428955078125">
        <ele>1507.199951171875</ele>
        <time>2022-08-25T12:10:08.000Z</time>
      </trkpt>
      <trkpt lat="40.19790784455835819244384765625" lon="-1.64461632259190082550048828125">
        <ele>1507.800048828125</ele>
        <time>2022-08-25T12:10:14.000Z</time>
      </trkpt>
      <trkpt lat="40.197902731597423553466796875" lon="-1.64451473392546176910400390625">
        <ele>1508.199951171875</ele>
        <time>2022-08-25T12:10:20.000Z</time>
      </trkpt>
      <trkpt lat="40.19790415652096271514892578125" lon="-1.64447701536118984222412109375">
        <ele>1508.4000244140625</ele>
        <time>2022-08-25T12:10:22.000Z</time>
      </trkpt>
      <trkpt lat="40.19791446626186370849609375" lon="-1.64433083496987819671630859375">
        <ele>1509</ele>
        <time>2022-08-25T12:10:29.000Z</time>
      </trkpt>
      <trkpt lat="40.1979218423366546630859375" lon="-1.64422388188540935516357421875">
        <ele>1509</ele>
        <time>2022-08-25T12:10:33.000Z</time>
      </trkpt>
      <trkpt lat="40.197920836508274078369140625" lon="-1.644166298210620880126953125">
        <ele>1509.4000244140625</ele>
        <time>2022-08-25T12:10:36.000Z</time>
      </trkpt>
      <trkpt lat="40.19790315069258213043212890625" lon="-1.64398491382598876953125">
        <ele>1510</ele>
        <time>2022-08-25T12:10:45.000Z</time>
      </trkpt>
      <trkpt lat="40.1978606544435024261474609375" lon="-1.643826328217983245849609375">
        <ele>1510.800048828125</ele>
        <time>2022-08-25T12:10:54.000Z</time>
      </trkpt>
      <trkpt lat="40.1978264562785625457763671875" lon="-1.6437450237572193145751953125">
        <ele>1511</ele>
        <time>2022-08-25T12:10:59.000Z</time>
      </trkpt>
      <trkpt lat="40.1978019811213016510009765625" lon="-1.6437044553458690643310546875">
        <ele>1511.4000244140625</ele>
        <time>2022-08-25T12:11:02.000Z</time>
      </trkpt>
      <trkpt lat="40.197765268385410308837890625" lon="-1.64365089498460292816162109375">
        <ele>1512</ele>
        <time>2022-08-25T12:11:06.000Z</time>
      </trkpt>
      <trkpt lat="40.19772805273532867431640625" lon="-1.64361921139061450958251953125">
        <ele>1512.4000244140625</ele>
        <time>2022-08-25T12:11:09.000Z</time>
      </trkpt>
      <trkpt lat="40.19766770303249359130859375" lon="-1.64359155111014842987060546875">
        <ele>1513.199951171875</ele>
        <time>2022-08-25T12:11:13.000Z</time>
      </trkpt>
      <trkpt lat="40.1976179145276546478271484375" lon="-1.64357746951282024383544921875">
        <ele>1513.5999755859375</ele>
        <time>2022-08-25T12:11:17.000Z</time>
      </trkpt>
      <trkpt lat="40.19756787456572055816650390625" lon="-1.6435257531702518463134765625">
        <ele>1514.199951171875</ele>
        <time>2022-08-25T12:11:23.000Z</time>
      </trkpt>
      <trkpt lat="40.19754574634134769439697265625" lon="-1.64351058192551136016845703125">
        <ele>1514.4000244140625</ele>
        <time>2022-08-25T12:11:25.000Z</time>
      </trkpt>
      <trkpt lat="40.19747793674468994140625" lon="-1.6434412635862827301025390625">
        <ele>1515.199951171875</ele>
        <time>2022-08-25T12:11:31.000Z</time>
      </trkpt>
      <trkpt lat="40.197444744408130645751953125" lon="-1.64342232048511505126953125">
        <ele>1515.800048828125</ele>
        <time>2022-08-25T12:11:34.000Z</time>
      </trkpt>
      <trkpt lat="40.19741096533834934234619140625" lon="-1.643401198089122772216796875">
        <ele>1516.4000244140625</ele>
        <time>2022-08-25T12:11:37.000Z</time>
      </trkpt>
      <trkpt lat="40.1973513700067996978759765625" lon="-1.643351577222347259521484375">
        <ele>1517</ele>
        <time>2022-08-25T12:11:42.000Z</time>
      </trkpt>
      <trkpt lat="40.1972816325724124908447265625" lon="-1.64331042207777500152587890625">
        <ele>1517.199951171875</ele>
        <time>2022-08-25T12:11:47.000Z</time>
      </trkpt>
      <trkpt lat="40.1972145773470401763916015625" lon="-1.643293239176273345947265625">
        <ele>1517.5999755859375</ele>
        <time>2022-08-25T12:11:51.000Z</time>
      </trkpt>
      <trkpt lat="40.19716336391866207122802734375" lon="-1.643237583339214324951171875">
        <ele>1518.199951171875</ele>
        <time>2022-08-25T12:11:56.000Z</time>
      </trkpt>
      <trkpt lat="40.19712111912667751312255859375" lon="-1.64321444928646087646484375">
        <ele>1518.5999755859375</ele>
        <time>2022-08-25T12:11:59.000Z</time>
      </trkpt>
      <trkpt lat="40.197051465511322021484375" lon="-1.6431448794901371002197265625">
        <ele>1519.199951171875</ele>
        <time>2022-08-25T12:12:05.000Z</time>
      </trkpt>
      <trkpt lat="40.19700310193002223968505859375" lon="-1.643102467060089111328125">
        <ele>1519.5999755859375</ele>
        <time>2022-08-25T12:12:09.000Z</time>
      </trkpt>
      <trkpt lat="40.1969557441771030426025390625" lon="-1.643076650798320770263671875">
        <ele>1520.4000244140625</ele>
        <time>2022-08-25T12:12:13.000Z</time>
      </trkpt>
      <trkpt lat="40.19691132009029388427734375" lon="-1.64303381927311420440673828125">
        <ele>1521</ele>
        <time>2022-08-25T12:12:17.000Z</time>
      </trkpt>
      <trkpt lat="40.196898244321346282958984375" lon="-1.64300858974456787109375">
        <ele>1521.4000244140625</ele>
        <time>2022-08-25T12:12:19.000Z</time>
      </trkpt>
      <trkpt lat="40.19683697260916233062744140625" lon="-1.6429343260824680328369140625">
        <ele>1522.199951171875</ele>
        <time>2022-08-25T12:12:25.000Z</time>
      </trkpt>
      <trkpt lat="40.1967542432248592376708984375" lon="-1.64277590811252593994140625">
        <ele>1523.199951171875</ele>
        <time>2022-08-25T12:12:34.000Z</time>
      </trkpt>
      <trkpt lat="40.19674795679748058319091796875" lon="-1.642760820686817169189453125">
        <ele>1523.199951171875</ele>
        <time>2022-08-25T12:12:35.000Z</time>
      </trkpt>
      <trkpt lat="40.1966888643801212310791015625" lon="-1.64263903163373470306396484375">
        <ele>1524.199951171875</ele>
        <time>2022-08-25T12:12:43.000Z</time>
      </trkpt>
      <trkpt lat="40.19668157212436199188232421875" lon="-1.64262310601770877838134765625">
        <ele>1524.4000244140625</ele>
        <time>2022-08-25T12:12:44.000Z</time>
      </trkpt>
      <trkpt lat="40.1966419257223606109619140625" lon="-1.64251129142940044403076171875">
        <ele>1525.199951171875</ele>
        <time>2022-08-25T12:12:51.000Z</time>
      </trkpt>
      <trkpt lat="40.19663429819047451019287109375" lon="-1.6424934379756450653076171875">
        <ele>1525.199951171875</ele>
        <time>2022-08-25T12:12:52.000Z</time>
      </trkpt>
      <trkpt lat="40.1965668238699436187744140625" lon="-1.6424225270748138427734375">
        <ele>1526.199951171875</ele>
        <time>2022-08-25T12:12:59.000Z</time>
      </trkpt>
      <trkpt lat="40.1965597830712795257568359375" lon="-1.6424112953245639801025390625">
        <ele>1526.4000244140625</ele>
        <time>2022-08-25T12:13:00.000Z</time>
      </trkpt>
      <trkpt lat="40.196477472782135009765625" lon="-1.64230559952557086944580078125">
        <ele>1527.199951171875</ele>
        <time>2022-08-25T12:13:07.000Z</time>
      </trkpt>
      <trkpt lat="40.19646950997412204742431640625" lon="-1.642295457422733306884765625">
        <ele>1527.4000244140625</ele>
        <time>2022-08-25T12:13:08.000Z</time>
      </trkpt>
      <trkpt lat="40.19639960490167140960693359375" lon="-1.64222463034093379974365234375">
        <ele>1528.199951171875</ele>
        <time>2022-08-25T12:13:14.000Z</time>
      </trkpt>
      <trkpt lat="40.196379907429218292236328125" lon="-1.6421729139983654022216796875">
        <ele>1528.5999755859375</ele>
        <time>2022-08-25T12:13:17.000Z</time>
      </trkpt>
      <trkpt lat="40.19634068012237548828125" lon="-1.6420555673539638519287109375">
        <ele>1529.4000244140625</ele>
        <time>2022-08-25T12:13:24.000Z</time>
      </trkpt>
      <trkpt lat="40.19633824937045574188232421875" lon="-1.6420362889766693115234375">
        <ele>1529.5999755859375</ele>
        <time>2022-08-25T12:13:25.000Z</time>
      </trkpt>
      <trkpt lat="40.19628209061920642852783203125" lon="-1.64183973334729671478271484375">
        <ele>1530.5999755859375</ele>
        <time>2022-08-25T12:13:34.000Z</time>
      </trkpt>
      <trkpt lat="40.196204222738742828369140625" lon="-1.64170847274363040924072265625">
        <ele>1531.5999755859375</ele>
        <time>2022-08-25T12:13:43.000Z</time>
      </trkpt>
      <trkpt lat="40.1961463876068592071533203125" lon="-1.641612835228443145751953125">
        <ele>1532.5999755859375</ele>
        <time>2022-08-25T12:13:50.000Z</time>
      </trkpt>
      <trkpt lat="40.1961349882185459136962890625" lon="-1.6416039504110813140869140625">
        <ele>1532.800048828125</ele>
        <time>2022-08-25T12:13:51.000Z</time>
      </trkpt>
      <trkpt lat="40.19609056413173675537109375" lon="-1.641520299017429351806640625">
        <ele>1533.199951171875</ele>
        <time>2022-08-25T12:13:58.000Z</time>
      </trkpt>
      <trkpt lat="40.19608997739851474761962890625" lon="-1.64150454103946685791015625">
        <ele>1533.4000244140625</ele>
        <time>2022-08-25T12:13:59.000Z</time>
      </trkpt>
      <trkpt lat="40.196075476706027984619140625" lon="-1.64148434065282344818115234375">
        <ele>1534</ele>
        <time>2022-08-25T12:14:02.000Z</time>
      </trkpt>
      <trkpt lat="40.1960484869778156280517578125" lon="-1.64145634509623050689697265625">
        <ele>1534.5999755859375</ele>
        <time>2022-08-25T12:14:05.000Z</time>
      </trkpt>
      <trkpt lat="40.1960404403507709503173828125" lon="-1.64144997484982013702392578125">
        <ele>1534.800048828125</ele>
        <time>2022-08-25T12:14:06.000Z</time>
      </trkpt>
      <trkpt lat="40.1959931664168834686279296875" lon="-1.64142164401710033416748046875">
        <ele>1535.4000244140625</ele>
        <time>2022-08-25T12:14:10.000Z</time>
      </trkpt>
      <trkpt lat="40.19597497768700122833251953125" lon="-1.64140932261943817138671875">
        <ele>1535.800048828125</ele>
        <time>2022-08-25T12:14:12.000Z</time>
      </trkpt>
      <trkpt lat="40.19596290774643421173095703125" lon="-1.64139448665082454681396484375">
        <ele>1536.199951171875</ele>
        <time>2022-08-25T12:14:14.000Z</time>
      </trkpt>
      <trkpt lat="40.19595452584326267242431640625" lon="-1.64139146916568279266357421875">
        <ele>1536.4000244140625</ele>
        <time>2022-08-25T12:14:15.000Z</time>
      </trkpt>
      <trkpt lat="40.19593323580920696258544921875" lon="-1.64137252606451511383056640625">
        <ele>1537</ele>
        <time>2022-08-25T12:14:18.000Z</time>
      </trkpt>
      <trkpt lat="40.19587674178183078765869140625" lon="-1.64134754799306392669677734375">
        <ele>1538</ele>
        <time>2022-08-25T12:14:23.000Z</time>
      </trkpt>
      <trkpt lat="40.1958657614886760711669921875" lon="-1.6413394175469875335693359375">
        <ele>1538.199951171875</ele>
        <time>2022-08-25T12:14:24.000Z</time>
      </trkpt>
      <trkpt lat="40.19580616615712642669677734375" lon="-1.64128988049924373626708984375">
        <ele>1539</ele>
        <time>2022-08-25T12:14:29.000Z</time>
      </trkpt>
      <trkpt lat="40.195782445371150970458984375" lon="-1.64126590825617313385009765625">
        <ele>1539.4000244140625</ele>
        <time>2022-08-25T12:14:31.000Z</time>
      </trkpt>
      <trkpt lat="40.1957293041050434112548828125" lon="-1.64119851775467395782470703125">
        <ele>1540</ele>
        <time>2022-08-25T12:14:36.000Z</time>
      </trkpt>
      <trkpt lat="40.19568898715078830718994140625" lon="-1.641175635159015655517578125">
        <ele>1540.5999755859375</ele>
        <time>2022-08-25T12:14:39.000Z</time>
      </trkpt>
      <trkpt lat="40.19565763883292675018310546875" lon="-1.64115409366786479949951171875">
        <ele>1541.199951171875</ele>
        <time>2022-08-25T12:14:41.000Z</time>
      </trkpt>
      <trkpt lat="40.19561824388802051544189453125" lon="-1.6411003656685352325439453125">
        <ele>1542</ele>
        <time>2022-08-25T12:14:45.000Z</time>
      </trkpt>
      <trkpt lat="40.19560332410037517547607421875" lon="-1.64107295684516429901123046875">
        <ele>1542.199951171875</ele>
        <time>2022-08-25T12:14:47.000Z</time>
      </trkpt>
      <trkpt lat="40.19555051811039447784423828125" lon="-1.64101696573197841644287109375">
        <ele>1543</ele>
        <time>2022-08-25T12:14:52.000Z</time>
      </trkpt>
      <trkpt lat="40.1955400407314300537109375" lon="-1.64098394103348255157470703125">
        <ele>1543.4000244140625</ele>
        <time>2022-08-25T12:14:54.000Z</time>
      </trkpt>
      <trkpt lat="40.19549184478819370269775390625" lon="-1.640901379287242889404296875">
        <ele>1544.199951171875</ele>
        <time>2022-08-25T12:15:00.000Z</time>
      </trkpt>
      <trkpt lat="40.19542914815247058868408203125" lon="-1.6407654248178005218505859375">
        <ele>1545.4000244140625</ele>
        <time>2022-08-25T12:15:08.000Z</time>
      </trkpt>
      <trkpt lat="40.195409618318080902099609375" lon="-1.64068780839443206787109375">
        <ele>1546.5999755859375</ele>
        <time>2022-08-25T12:15:12.000Z</time>
      </trkpt>
      <trkpt lat="40.195392183959484100341796875" lon="-1.6406281292438507080078125">
        <ele>1546.800048828125</ele>
        <time>2022-08-25T12:15:15.000Z</time>
      </trkpt>
      <trkpt lat="40.19535371102392673492431640625" lon="-1.6405055858194828033447265625">
        <ele>1547.5999755859375</ele>
        <time>2022-08-25T12:15:22.000Z</time>
      </trkpt>
      <trkpt lat="40.19531674683094024658203125" lon="-1.64035244844853878021240234375">
        <ele>1547.5999755859375</ele>
        <time>2022-08-25T12:15:31.000Z</time>
      </trkpt>
      <trkpt lat="40.19529822282493114471435546875" lon="-1.6402216069400310516357421875">
        <ele>1548.4000244140625</ele>
        <time>2022-08-25T12:15:38.000Z</time>
      </trkpt>
      <trkpt lat="40.19529436714947223663330078125" lon="-1.6402045078575611114501953125">
        <ele>1548.5999755859375</ele>
        <time>2022-08-25T12:15:39.000Z</time>
      </trkpt>
      <trkpt lat="40.1952709816396236419677734375" lon="-1.64005279541015625">
        <ele>1549.4000244140625</ele>
        <time>2022-08-25T12:15:47.000Z</time>
      </trkpt>
      <trkpt lat="40.19527123309671878814697265625" lon="-1.6400326788425445556640625">
        <ele>1549.4000244140625</ele>
        <time>2022-08-25T12:15:48.000Z</time>
      </trkpt>
      <trkpt lat="40.19528464414179325103759765625" lon="-1.6398977302014827728271484375">
        <ele>1550</ele>
        <time>2022-08-25T12:15:55.000Z</time>
      </trkpt>
      <trkpt lat="40.19528313539922237396240234375" lon="-1.63985087536275386810302734375">
        <ele>1550.4000244140625</ele>
        <time>2022-08-25T12:15:58.000Z</time>
      </trkpt>
      <trkpt lat="40.19528212957084178924560546875" lon="-1.639741994440555572509765625">
        <ele>1551</ele>
        <time>2022-08-25T12:16:05.000Z</time>
      </trkpt>
      <trkpt lat="40.19529721699655055999755859375" lon="-1.63965323008596897125244140625">
        <ele>1551.4000244140625</ele>
        <time>2022-08-25T12:16:10.000Z</time>
      </trkpt>
      <trkpt lat="40.1952894218266010284423828125" lon="-1.63957544602453708648681640625">
        <ele>1552.4000244140625</ele>
        <time>2022-08-25T12:16:15.000Z</time>
      </trkpt>
      <trkpt lat="40.19528581760823726654052734375" lon="-1.6395611129701137542724609375">
        <ele>1552.5999755859375</ele>
        <time>2022-08-25T12:16:16.000Z</time>
      </trkpt>
      <trkpt lat="40.195280201733112335205078125" lon="-1.63946874439716339111328125">
        <ele>1553.4000244140625</ele>
        <time>2022-08-25T12:16:22.000Z</time>
      </trkpt>
      <trkpt lat="40.19527894444763660430908203125" lon="-1.63945089094340801239013671875">
        <ele>1553.5999755859375</ele>
        <time>2022-08-25T12:16:23.000Z</time>
      </trkpt>
      <trkpt lat="40.19528129138052463531494140625" lon="-1.63935349322855472564697265625">
        <ele>1554.199951171875</ele>
        <time>2022-08-25T12:16:29.000Z</time>
      </trkpt>
      <trkpt lat="40.19529126584529876708984375" lon="-1.639299429953098297119140625">
        <ele>1554.4000244140625</ele>
        <time>2022-08-25T12:16:32.000Z</time>
      </trkpt>
      <trkpt lat="40.19529755227267742156982421875" lon="-1.63916825316846370697021484375">
        <ele>1555.199951171875</ele>
        <time>2022-08-25T12:16:39.000Z</time>
      </trkpt>
      <trkpt lat="40.19529604353010654449462890625" lon="-1.63914143107831478118896484375">
        <ele>1555.5999755859375</ele>
        <time>2022-08-25T12:16:41.000Z</time>
      </trkpt>
      <trkpt lat="40.19529126584529876708984375" lon="-1.6390330530703067779541015625">
        <ele>1556.5999755859375</ele>
        <time>2022-08-25T12:16:47.000Z</time>
      </trkpt>
      <trkpt lat="40.19529436714947223663330078125" lon="-1.63899843581020832061767578125">
        <ele>1556.800048828125</ele>
        <time>2022-08-25T12:16:49.000Z</time>
      </trkpt>
      <trkpt lat="40.195283554494380950927734375" lon="-1.63892165757715702056884765625">
        <ele>1557</ele>
        <time>2022-08-25T12:16:54.000Z</time>
      </trkpt>
      <trkpt lat="40.19530358724296092987060546875" lon="-1.6388201527297496795654296875">
        <ele>1557.5999755859375</ele>
        <time>2022-08-25T12:17:00.000Z</time>
      </trkpt>
      <trkpt lat="40.1953024975955486297607421875" lon="-1.63878687657415866851806640625">
        <ele>1557.800048828125</ele>
        <time>2022-08-25T12:17:02.000Z</time>
      </trkpt>
      <trkpt lat="40.195331834256649017333984375" lon="-1.63862560875713825225830078125">
        <ele>1558.5999755859375</ele>
        <time>2022-08-25T12:17:11.000Z</time>
      </trkpt>
      <trkpt lat="40.19536100327968597412109375" lon="-1.63849619217216968536376953125">
        <ele>1559.4000244140625</ele>
        <time>2022-08-25T12:17:18.000Z</time>
      </trkpt>
      <trkpt lat="40.19536259584128856658935546875" lon="-1.638483703136444091796875">
        <ele>1559.5999755859375</ele>
        <time>2022-08-25T12:17:19.000Z</time>
      </trkpt>
      <trkpt lat="40.19536779262125492095947265625" lon="-1.63840684108436107635498046875">
        <ele>1560.199951171875</ele>
        <time>2022-08-25T12:17:24.000Z</time>
      </trkpt>
      <trkpt lat="40.19537148065865039825439453125" lon="-1.6383683681488037109375">
        <ele>1560.5999755859375</ele>
        <time>2022-08-25T12:17:26.000Z</time>
      </trkpt>
      <trkpt lat="40.19537500105798244476318359375" lon="-1.63829703815281391143798828125">
        <ele>1561.800048828125</ele>
        <time>2022-08-25T12:17:31.000Z</time>
      </trkpt>
      <trkpt lat="40.195372402667999267578125" lon="-1.63821749389171600341796875">
        <ele>1563</ele>
        <time>2022-08-25T12:17:36.000Z</time>
      </trkpt>
      <trkpt lat="40.1953729055821895599365234375" lon="-1.63819142617285251617431640625">
        <ele>1563.199951171875</ele>
        <time>2022-08-25T12:17:38.000Z</time>
      </trkpt>
      <trkpt lat="40.19538992084562778472900390625" lon="-1.638156473636627197265625">
        <ele>1564</ele>
        <time>2022-08-25T12:17:41.000Z</time>
      </trkpt>
      <trkpt lat="40.19541062414646148681640625" lon="-1.63809872232377529144287109375">
        <ele>1565</ele>
        <time>2022-08-25T12:17:45.000Z</time>
      </trkpt>
      <trkpt lat="40.19541154615581035614013671875" lon="-1.638095788657665252685546875">
        <ele>1565.199951171875</ele>
        <time>2022-08-25T12:17:46.000Z</time>
      </trkpt>
      <trkpt lat="40.19540819339454174041748046875" lon="-1.6379705630242824554443359375">
        <ele>1566.4000244140625</ele>
        <time>2022-08-25T12:17:53.000Z</time>
      </trkpt>
      <trkpt lat="40.19541104324162006378173828125" lon="-1.6379480995237827301025390625">
        <ele>1566.5999755859375</ele>
        <time>2022-08-25T12:17:54.000Z</time>
      </trkpt>
      <trkpt lat="40.19542529247701168060302734375" lon="-1.63785162381827831268310546875">
        <ele>1567.5999755859375</ele>
        <time>2022-08-25T12:17:59.000Z</time>
      </trkpt>
      <trkpt lat="40.19542730413377285003662109375" lon="-1.63779060356318950653076171875">
        <ele>1568.199951171875</ele>
        <time>2022-08-25T12:18:02.000Z</time>
      </trkpt>
      <trkpt lat="40.19542696885764598846435546875" lon="-1.63772690109908580780029296875">
        <ele>1568.5999755859375</ele>
        <time>2022-08-25T12:18:05.000Z</time>
      </trkpt>
      <trkpt lat="40.1954178325831890106201171875" lon="-1.63763252086937427520751953125">
        <ele>1569.800048828125</ele>
        <time>2022-08-25T12:18:10.000Z</time>
      </trkpt>
      <trkpt lat="40.195412971079349517822265625" lon="-1.63750536739826202392578125">
        <ele>1571</ele>
        <time>2022-08-25T12:18:17.000Z</time>
      </trkpt>
      <trkpt lat="40.19540685229003429412841796875" lon="-1.637486927211284637451171875">
        <ele>1571</ele>
        <time>2022-08-25T12:18:18.000Z</time>
      </trkpt>
      <trkpt lat="40.195379443466663360595703125" lon="-1.63740855641663074493408203125">
        <ele>1572</ele>
        <time>2022-08-25T12:18:23.000Z</time>
      </trkpt>
      <trkpt lat="40.1953683793544769287109375" lon="-1.63736161775887012481689453125">
        <ele>1572.4000244140625</ele>
        <time>2022-08-25T12:18:26.000Z</time>
      </trkpt>
      <trkpt lat="40.19536544568836688995361328125" lon="-1.6372860968112945556640625">
        <ele>1573.199951171875</ele>
        <time>2022-08-25T12:18:30.000Z</time>
      </trkpt>
      <trkpt lat="40.19535304047167301177978515625" lon="-1.63721057586371898651123046875">
        <ele>1574</ele>
        <time>2022-08-25T12:18:34.000Z</time>
      </trkpt>
      <trkpt lat="40.19534759223461151123046875" lon="-1.63719691336154937744140625">
        <ele>1574.4000244140625</ele>
        <time>2022-08-25T12:18:35.000Z</time>
      </trkpt>
      <trkpt lat="40.19533325918018817901611328125" lon="-1.637127511203289031982421875">
        <ele>1575.199951171875</ele>
        <time>2022-08-25T12:18:39.000Z</time>
      </trkpt>
      <trkpt lat="40.1953252963721752166748046875" lon="-1.63708803243935108184814453125">
        <ele>1575.5999755859375</ele>
        <time>2022-08-25T12:18:41.000Z</time>
      </trkpt>
      <trkpt lat="40.19531213678419589996337890625" lon="-1.6370063088834285736083984375">
        <ele>1576.4000244140625</ele>
        <time>2022-08-25T12:18:45.000Z</time>
      </trkpt>
      <trkpt lat="40.1952934451401233673095703125" lon="-1.63691955618560314178466796875">
        <ele>1577.199951171875</ele>
        <time>2022-08-25T12:18:50.000Z</time>
      </trkpt>
      <trkpt lat="40.19526754505932331085205078125" lon="-1.63682903163135051727294921875">
        <ele>1578.199951171875</ele>
        <time>2022-08-25T12:18:55.000Z</time>
      </trkpt>
      <trkpt lat="40.1952444948256015777587890625" lon="-1.636763401329517364501953125">
        <ele>1579</ele>
        <time>2022-08-25T12:18:59.000Z</time>
      </trkpt>
      <trkpt lat="40.195244662463665008544921875" lon="-1.636641360819339752197265625">
        <ele>1579.4000244140625</ele>
        <time>2022-08-25T12:19:04.000Z</time>
      </trkpt>
      <trkpt lat="40.1952396333217620849609375" lon="-1.63659819401800632476806640625">
        <ele>1579.5999755859375</ele>
        <time>2022-08-25T12:19:06.000Z</time>
      </trkpt>
      <trkpt lat="40.19521859474480152130126953125" lon="-1.63636685349047183990478515625">
        <ele>1580.4000244140625</ele>
        <time>2022-08-25T12:19:15.000Z</time>
      </trkpt>
      <trkpt lat="40.19520719535648822784423828125" lon="-1.63627088069915771484375">
        <ele>1580.5999755859375</ele>
        <time>2022-08-25T12:19:18.000Z</time>
      </trkpt>
      <trkpt lat="40.19518800079822540283203125" lon="-1.63610315881669521331787109375">
        <ele>1581</ele>
        <time>2022-08-25T12:19:24.000Z</time>
      </trkpt>
      <trkpt lat="40.19512765109539031982421875" lon="-1.63595194928348064422607421875">
        <ele>1581.199951171875</ele>
        <time>2022-08-25T12:19:30.000Z</time>
      </trkpt>
      <trkpt lat="40.19499328918755054473876953125" lon="-1.63573603145778179168701171875">
        <ele>1581.4000244140625</ele>
        <time>2022-08-25T12:19:38.000Z</time>
      </trkpt>
      <trkpt lat="40.19478994421660900115966796875" lon="-1.635626815259456634521484375">
        <ele>1581.4000244140625</ele>
        <time>2022-08-25T12:19:43.000Z</time>
      </trkpt>
      <trkpt lat="40.194737724959850311279296875" lon="-1.63559320382773876190185546875">
        <ele>1581.4000244140625</ele>
        <time>2022-08-25T12:19:44.000Z</time>
      </trkpt>
      <trkpt lat="40.1945756189525127410888671875" lon="-1.63541215471923351287841796875">
        <ele>1581.199951171875</ele>
        <time>2022-08-25T12:19:47.000Z</time>
      </trkpt>
      <trkpt lat="40.19452205859124660491943359375" lon="-1.63532732985913753509521484375">
        <ele>1581.199951171875</ele>
        <time>2022-08-25T12:19:48.000Z</time>
      </trkpt>
      <trkpt lat="40.194281749427318572998046875" lon="-1.63493053056299686431884765625">
        <ele>1580.800048828125</ele>
        <time>2022-08-25T12:19:52.000Z</time>
      </trkpt>
      <trkpt lat="40.1940324716269969940185546875" lon="-1.63466633297502994537353515625">
        <ele>1579.4000244140625</ele>
        <time>2022-08-25T12:19:55.000Z</time>
      </trkpt>
      <trkpt lat="40.193934738636016845703125" lon="-1.63460229523479938507080078125">
        <ele>1578.800048828125</ele>
        <time>2022-08-25T12:19:56.000Z</time>
      </trkpt>
      <trkpt lat="40.1938336528837680816650390625" lon="-1.63454152643680572509765625">
        <ele>1578</ele>
        <time>2022-08-25T12:19:57.000Z</time>
      </trkpt>
      <trkpt lat="40.19363575614988803863525390625" lon="-1.634399704635143280029296875">
        <ele>1576.800048828125</ele>
        <time>2022-08-25T12:19:59.000Z</time>
      </trkpt>
      <trkpt lat="40.1935392804443836212158203125" lon="-1.6343143768608570098876953125">
        <ele>1576.4000244140625</ele>
        <time>2022-08-25T12:20:00.000Z</time>
      </trkpt>
      <trkpt lat="40.19334959797561168670654296875" lon="-1.6341138817369937896728515625">
        <ele>1575.4000244140625</ele>
        <time>2022-08-25T12:20:02.000Z</time>
      </trkpt>
      <trkpt lat="40.19316016696393489837646484375" lon="-1.6338667832314968109130859375">
        <ele>1575</ele>
        <time>2022-08-25T12:20:04.000Z</time>
      </trkpt>
      <trkpt lat="40.192995965480804443359375" lon="-1.6335620172321796417236328125">
        <ele>1574</ele>
        <time>2022-08-25T12:20:06.000Z</time>
      </trkpt>
      <trkpt lat="40.192898400127887725830078125" lon="-1.63341156207025051116943359375">
        <ele>1573.5999755859375</ele>
        <time>2022-08-25T12:20:07.000Z</time>
      </trkpt>
      <trkpt lat="40.192789770662784576416015625" lon="-1.63327108137309551239013671875">
        <ele>1572.800048828125</ele>
        <time>2022-08-25T12:20:08.000Z</time>
      </trkpt>
      <trkpt lat="40.19267384894192218780517578125" lon="-1.63313780911266803741455078125">
        <ele>1570.800048828125</ele>
        <time>2022-08-25T12:20:09.000Z</time>
      </trkpt>
      <trkpt lat="40.1925542391836643218994140625" lon="-1.63301308639347553253173828125">
        <ele>1569.199951171875</ele>
        <time>2022-08-25T12:20:10.000Z</time>
      </trkpt>
      <trkpt lat="40.19243605434894561767578125" lon="-1.63289154879748821258544921875">
        <ele>1567.5999755859375</ele>
        <time>2022-08-25T12:20:11.000Z</time>
      </trkpt>
      <trkpt lat="40.19231895916163921356201171875" lon="-1.6327704302966594696044921875">
        <ele>1566</ele>
        <time>2022-08-25T12:20:12.000Z</time>
      </trkpt>
      <trkpt lat="40.19219993613660335540771484375" lon="-1.632652916014194488525390625">
        <ele>1564.800048828125</ele>
        <time>2022-08-25T12:20:13.000Z</time>
      </trkpt>
      <trkpt lat="40.19208057783544063568115234375" lon="-1.63254319690167903900146484375">
        <ele>1563.4000244140625</ele>
        <time>2022-08-25T12:20:14.000Z</time>
      </trkpt>
      <trkpt lat="40.19195971079170703887939453125" lon="-1.6324378363788127899169921875">
        <ele>1562.199951171875</ele>
        <time>2022-08-25T12:20:15.000Z</time>
      </trkpt>
      <trkpt lat="40.19183733500540256500244140625" lon="-1.63233616389334201812744140625">
        <ele>1561</ele>
        <time>2022-08-25T12:20:16.000Z</time>
      </trkpt>
      <trkpt lat="40.19171454012393951416015625" lon="-1.6322366707026958465576171875">
        <ele>1559.5999755859375</ele>
        <time>2022-08-25T12:20:17.000Z</time>
      </trkpt>
      <trkpt lat="40.19158990122377872467041015625" lon="-1.63214053027331829071044921875">
        <ele>1558</ele>
        <time>2022-08-25T12:20:18.000Z</time>
      </trkpt>
      <trkpt lat="40.19146484322845935821533203125" lon="-1.6320425458252429962158203125">
        <ele>1556.4000244140625</ele>
        <time>2022-08-25T12:20:19.000Z</time>
      </trkpt>
      <trkpt lat="40.1912070997059345245361328125" lon="-1.63186007179319858551025390625">
        <ele>1555</ele>
        <time>2022-08-25T12:20:21.000Z</time>
      </trkpt>
      <trkpt lat="40.19107575528323650360107421875" lon="-1.63176652975380420684814453125">
        <ele>1554.199951171875</ele>
        <time>2022-08-25T12:20:22.000Z</time>
      </trkpt>
      <trkpt lat="40.19094340503215789794921875" lon="-1.63166762329638004302978515625">
        <ele>1553.4000244140625</ele>
        <time>2022-08-25T12:20:23.000Z</time>
      </trkpt>
      <trkpt lat="40.19081256352365016937255859375" lon="-1.63155756890773773193359375">
        <ele>1552</ele>
        <time>2022-08-25T12:20:24.000Z</time>
      </trkpt>
      <trkpt lat="40.1906927861273288726806640625" lon="-1.63143284618854522705078125">
        <ele>1549.800048828125</ele>
        <time>2022-08-25T12:20:25.000Z</time>
      </trkpt>
      <trkpt lat="40.19058189354836940765380859375" lon="-1.63129471242427825927734375">
        <ele>1547.4000244140625</ele>
        <time>2022-08-25T12:20:26.000Z</time>
      </trkpt>
      <trkpt lat="40.19047963432967662811279296875" lon="-1.63114828057587146759033203125">
        <ele>1545.800048828125</ele>
        <time>2022-08-25T12:20:27.000Z</time>
      </trkpt>
      <trkpt lat="40.19037771038711071014404296875" lon="-1.6309991665184497833251953125">
        <ele>1544.5999755859375</ele>
        <time>2022-08-25T12:20:28.000Z</time>
      </trkpt>
      <trkpt lat="40.19027821719646453857421875" lon="-1.63084954954683780670166015625">
        <ele>1542.5999755859375</ele>
        <time>2022-08-25T12:20:29.000Z</time>
      </trkpt>
      <trkpt lat="40.19018023274838924407958984375" lon="-1.6307011060416698455810546875">
        <ele>1540.4000244140625</ele>
        <time>2022-08-25T12:20:30.000Z</time>
      </trkpt>
      <trkpt lat="40.19008853472769260406494140625" lon="-1.63055249489843845367431640625">
        <ele>1538.4000244140625</ele>
        <time>2022-08-25T12:20:31.000Z</time>
      </trkpt>
      <trkpt lat="40.19000538624823093414306640625" lon="-1.630408577620983123779296875">
        <ele>1536.199951171875</ele>
        <time>2022-08-25T12:20:32.000Z</time>
      </trkpt>
      <trkpt lat="40.18993623554706573486328125" lon="-1.63026784546673297882080078125">
        <ele>1534.5999755859375</ele>
        <time>2022-08-25T12:20:33.000Z</time>
      </trkpt>
      <trkpt lat="40.18988217227160930633544921875" lon="-1.63013105280697345733642578125">
        <ele>1532.800048828125</ele>
        <time>2022-08-25T12:20:34.000Z</time>
      </trkpt>
      <trkpt lat="40.189840681850910186767578125" lon="-1.62999660708010196685791015625">
        <ele>1530.4000244140625</ele>
        <time>2022-08-25T12:20:35.000Z</time>
      </trkpt>
      <trkpt lat="40.18980757333338260650634765625" lon="-1.62986333481967449188232421875">
        <ele>1528</ele>
        <time>2022-08-25T12:20:36.000Z</time>
      </trkpt>
      <trkpt lat="40.18979097716510295867919921875" lon="-1.629723273217678070068359375">
        <ele>1525.4000244140625</ele>
        <time>2022-08-25T12:20:37.000Z</time>
      </trkpt>
      <trkpt lat="40.18978779204189777374267578125" lon="-1.629573404788970947265625">
        <ele>1521</ele>
        <time>2022-08-25T12:20:38.000Z</time>
      </trkpt>
      <trkpt lat="40.18979533575475215911865234375" lon="-1.62941842339932918548583984375">
        <ele>1519</ele>
        <time>2022-08-25T12:20:39.000Z</time>
      </trkpt>
      <trkpt lat="40.1898163743317127227783203125" lon="-1.62925279699265956878662109375">
        <ele>1517</ele>
        <time>2022-08-25T12:20:40.000Z</time>
      </trkpt>
      <trkpt lat="40.18985149450600147247314453125" lon="-1.62907443009316921234130859375">
        <ele>1514.800048828125</ele>
        <time>2022-08-25T12:20:41.000Z</time>
      </trkpt>
      <trkpt lat="40.1898804120719432830810546875" lon="-1.628896482288837432861328125">
        <ele>1512.5999755859375</ele>
        <time>2022-08-25T12:20:42.000Z</time>
      </trkpt>
      <trkpt lat="40.18991343677043914794921875" lon="-1.6287166066467761993408203125">
        <ele>1510.4000244140625</ele>
        <time>2022-08-25T12:20:43.000Z</time>
      </trkpt>
      <trkpt lat="40.18994855694472789764404296875" lon="-1.628529690206050872802734375">
        <ele>1508.800048828125</ele>
        <time>2022-08-25T12:20:44.000Z</time>
      </trkpt>
      <trkpt lat="40.1899944059550762176513671875" lon="-1.62833984009921550750732421875">
        <ele>1507.199951171875</ele>
        <time>2022-08-25T12:20:45.000Z</time>
      </trkpt>
      <trkpt lat="40.19005282782018184661865234375" lon="-1.62814839743077754974365234375">
        <ele>1505.5999755859375</ele>
        <time>2022-08-25T12:20:46.000Z</time>
      </trkpt>
      <trkpt lat="40.19012189470231533050537109375" lon="-1.62795963697135448455810546875">
        <ele>1504</ele>
        <time>2022-08-25T12:20:47.000Z</time>
      </trkpt>
      <trkpt lat="40.1901985891163349151611328125" lon="-1.62778277881443500518798828125">
        <ele>1502.5999755859375</ele>
        <time>2022-08-25T12:20:48.000Z</time>
      </trkpt>
      <trkpt lat="40.190277211368083953857421875" lon="-1.62761472165584564208984375">
        <ele>1501.4000244140625</ele>
        <time>2022-08-25T12:20:49.000Z</time>
      </trkpt>
      <trkpt lat="40.1903581805527210235595703125" lon="-1.627451442182064056396484375">
        <ele>1500</ele>
        <time>2022-08-25T12:20:50.000Z</time>
      </trkpt>
      <trkpt lat="40.19044342450797557830810546875" lon="-1.62729511968791484832763671875">
        <ele>1498.4000244140625</ele>
        <time>2022-08-25T12:20:51.000Z</time>
      </trkpt>
      <trkpt lat="40.19052556715905666351318359375" lon="-1.6271558962762355804443359375">
        <ele>1497</ele>
        <time>2022-08-25T12:20:52.000Z</time>
      </trkpt>
      <trkpt lat="40.19060804508626461029052734375" lon="-1.62703008390963077545166015625">
        <ele>1495.800048828125</ele>
        <time>2022-08-25T12:20:53.000Z</time>
      </trkpt>
      <trkpt lat="40.19069035537540912628173828125" lon="-1.62693318910896778106689453125">
        <ele>1495.199951171875</ele>
        <time>2022-08-25T12:20:54.000Z</time>
      </trkpt>
      <trkpt lat="40.1907712407410144805908203125" lon="-1.6268621943891048431396484375">
        <ele>1493.800048828125</ele>
        <time>2022-08-25T12:20:55.000Z</time>
      </trkpt>
      <trkpt lat="40.1908493600785732269287109375" lon="-1.62681651301681995391845703125">
        <ele>1492.199951171875</ele>
        <time>2022-08-25T12:20:56.000Z</time>
      </trkpt>
      <trkpt lat="40.190924294292926788330078125" lon="-1.6267914511263370513916015625">
        <ele>1490.4000244140625</ele>
        <time>2022-08-25T12:20:57.000Z</time>
      </trkpt>
      <trkpt lat="40.19099126569926738739013671875" lon="-1.6267766989767551422119140625">
        <ele>1489</ele>
        <time>2022-08-25T12:20:58.000Z</time>
      </trkpt>
      <trkpt lat="40.1910522021353244781494140625" lon="-1.62676538340747356414794921875">
        <ele>1487.800048828125</ele>
        <time>2022-08-25T12:20:59.000Z</time>
      </trkpt>
      <trkpt lat="40.1911534555256366729736328125" lon="-1.62674493156373500823974609375">
        <ele>1486.5999755859375</ele>
        <time>2022-08-25T12:21:01.000Z</time>
      </trkpt>
      <trkpt lat="40.1911930181086063385009765625" lon="-1.6267378069460391998291015625">
        <ele>1486.4000244140625</ele>
        <time>2022-08-25T12:21:02.000Z</time>
      </trkpt>
      <trkpt lat="40.191298462450504302978515625" lon="-1.626727245748043060302734375">
        <ele>1486.199951171875</ele>
        <time>2022-08-25T12:21:06.000Z</time>
      </trkpt>
      <trkpt lat="40.19144900143146514892578125" lon="-1.62667955271899700164794921875">
        <ele>1487.5999755859375</ele>
        <time>2022-08-25T12:21:13.000Z</time>
      </trkpt>
      <trkpt lat="40.191496945917606353759765625" lon="-1.6266580112278461456298828125">
        <ele>1488</ele>
        <time>2022-08-25T12:21:15.000Z</time>
      </trkpt>
      <trkpt lat="40.1916171424090862274169921875" lon="-1.62658332847058773040771484375">
        <ele>1488.5999755859375</ele>
        <time>2022-08-25T12:21:20.000Z</time>
      </trkpt>
      <trkpt lat="40.19171395339071750640869140625" lon="-1.62652172148227691650390625">
        <ele>1489</ele>
        <time>2022-08-25T12:21:23.000Z</time>
      </trkpt>
      <trkpt lat="40.19176960922777652740478515625" lon="-1.626490540802478790283203125">
        <ele>1489</ele>
        <time>2022-08-25T12:21:25.000Z</time>
      </trkpt>
      <trkpt lat="40.19181872718036174774169921875" lon="-1.6264642216265201568603515625">
        <ele>1489</ele>
        <time>2022-08-25T12:21:27.000Z</time>
      </trkpt>
      <trkpt lat="40.191995166242122650146484375" lon="-1.62636171095073223114013671875">
        <ele>1489.4000244140625</ele>
        <time>2022-08-25T12:21:35.000Z</time>
      </trkpt>
      <trkpt lat="40.19222508184611797332763671875" lon="-1.62625123746693134307861328125">
        <ele>1489.800048828125</ele>
        <time>2022-08-25T12:21:45.000Z</time>
      </trkpt>
      <trkpt lat="40.19226414151489734649658203125" lon="-1.626229695975780487060546875">
        <ele>1490</ele>
        <time>2022-08-25T12:21:47.000Z</time>
      </trkpt>
      <trkpt lat="40.192360617220401763916015625" lon="-1.626168005168437957763671875">
        <ele>1491</ele>
        <time>2022-08-25T12:21:52.000Z</time>
      </trkpt>
      <trkpt lat="40.1924037002027034759521484375" lon="-1.62615115754306316375732421875">
        <ele>1491.4000244140625</ele>
        <time>2022-08-25T12:21:54.000Z</time>
      </trkpt>
      <trkpt lat="40.1925404928624629974365234375" lon="-1.62607974372804164886474609375">
        <ele>1492</ele>
        <time>2022-08-25T12:22:01.000Z</time>
      </trkpt>
      <trkpt lat="40.1925984956324100494384765625" lon="-1.62606264464557170867919921875">
        <ele>1492.4000244140625</ele>
        <time>2022-08-25T12:22:04.000Z</time>
      </trkpt>
      <trkpt lat="40.19267099909484386444091796875" lon="-1.62603632546961307525634765625">
        <ele>1493.4000244140625</ele>
        <time>2022-08-25T12:22:08.000Z</time>
      </trkpt>
      <trkpt lat="40.19270217977464199066162109375" lon="-1.6260280273854732513427734375">
        <ele>1493.800048828125</ele>
        <time>2022-08-25T12:22:10.000Z</time>
      </trkpt>
      <trkpt lat="40.19280075095593929290771484375" lon="-1.6259847767651081085205078125">
        <ele>1494.199951171875</ele>
        <time>2022-08-25T12:22:16.000Z</time>
      </trkpt>
      <trkpt lat="40.1928573288023471832275390625" lon="-1.62595979869365692138671875">
        <ele>1494.5999755859375</ele>
        <time>2022-08-25T12:22:19.000Z</time>
      </trkpt>
      <trkpt lat="40.192952714860439300537109375" lon="-1.625933311879634857177734375">
        <ele>1495</ele>
        <time>2022-08-25T12:22:24.000Z</time>
      </trkpt>
      <trkpt lat="40.19302622415125370025634765625" lon="-1.6258962638676166534423828125">
        <ele>1495.5999755859375</ele>
        <time>2022-08-25T12:22:28.000Z</time>
      </trkpt>
      <trkpt lat="40.19312596879899501800537109375" lon="-1.62585561163723468780517578125">
        <ele>1496.199951171875</ele>
        <time>2022-08-25T12:22:33.000Z</time>
      </trkpt>
      <trkpt lat="40.19318439066410064697265625" lon="-1.62583197467029094696044921875">
        <ele>1496.800048828125</ele>
        <time>2022-08-25T12:22:36.000Z</time>
      </trkpt>
      <trkpt lat="40.1933082751929759979248046875" lon="-1.6257847845554351806640625">
        <ele>1497.800048828125</ele>
        <time>2022-08-25T12:22:42.000Z</time>
      </trkpt>
      <trkpt lat="40.19344230182468891143798828125" lon="-1.62573223002254962921142578125">
        <ele>1498.800048828125</ele>
        <time>2022-08-25T12:22:49.000Z</time>
      </trkpt>
      <trkpt lat="40.19347867928445339202880859375" lon="-1.625715382397174835205078125">
        <ele>1499.4000244140625</ele>
        <time>2022-08-25T12:22:51.000Z</time>
      </trkpt>
      <trkpt lat="40.19354246556758880615234375" lon="-1.6256950981914997100830078125">
        <ele>1500.199951171875</ele>
        <time>2022-08-25T12:22:54.000Z</time>
      </trkpt>
      <trkpt lat="40.19363391213119029998779296875" lon="-1.62563684396445751190185546875">
        <ele>1500.4000244140625</ele>
        <time>2022-08-25T12:22:59.000Z</time>
      </trkpt>
      <trkpt lat="40.193746984004974365234375" lon="-1.62556392140686511993408203125">
        <ele>1501.199951171875</ele>
        <time>2022-08-25T12:23:05.000Z</time>
      </trkpt>
      <trkpt lat="40.19376567564904689788818359375" lon="-1.625549085438251495361328125">
        <ele>1501.5999755859375</ele>
        <time>2022-08-25T12:23:06.000Z</time>
      </trkpt>
      <trkpt lat="40.1938701979815959930419921875" lon="-1.6254723072052001953125">
        <ele>1502.4000244140625</ele>
        <time>2022-08-25T12:23:12.000Z</time>
      </trkpt>
      <trkpt lat="40.19394337199628353118896484375" lon="-1.62543886341154575347900390625">
        <ele>1502.800048828125</ele>
        <time>2022-08-25T12:23:15.000Z</time>
      </trkpt>
      <trkpt lat="40.1940200664103031158447265625" lon="-1.6254091076552867889404296875">
        <ele>1503.4000244140625</ele>
        <time>2022-08-25T12:23:18.000Z</time>
      </trkpt>
      <trkpt lat="40.19409776665270328521728515625" lon="-1.62536996416747570037841796875">
        <ele>1503.4000244140625</ele>
        <time>2022-08-25T12:23:21.000Z</time>
      </trkpt>
      <trkpt lat="40.194219388067722320556640625" lon="-1.62530927918851375579833984375">
        <ele>1503.800048828125</ele>
        <time>2022-08-25T12:23:26.000Z</time>
      </trkpt>
      <trkpt lat="40.19443253986537456512451171875" lon="-1.6252424754202365875244140625">
        <ele>1504.5999755859375</ele>
        <time>2022-08-25T12:23:34.000Z</time>
      </trkpt>
      <trkpt lat="40.19445852376520633697509765625" lon="-1.62523367442190647125244140625">
        <ele>1504.5999755859375</ele>
        <time>2022-08-25T12:23:35.000Z</time>
      </trkpt>
      <trkpt lat="40.19464376382529735565185546875" lon="-1.6251811198890209197998046875">
        <ele>1505.4000244140625</ele>
        <time>2022-08-25T12:23:43.000Z</time>
      </trkpt>
      <trkpt lat="40.19479363225400447845458984375" lon="-1.6251308284699916839599609375">
        <ele>1505.4000244140625</ele>
        <time>2022-08-25T12:23:47.000Z</time>
      </trkpt>
      <trkpt lat="40.19484258256852626800537109375" lon="-1.62512253038585186004638671875">
        <ele>1505.4000244140625</ele>
        <time>2022-08-25T12:23:48.000Z</time>
      </trkpt>
      <trkpt lat="40.19515623338520526885986328125" lon="-1.6250258870422840118408203125">
        <ele>1505.199951171875</ele>
        <time>2022-08-25T12:23:53.000Z</time>
      </trkpt>
      <trkpt lat="40.1952263899147510528564453125" lon="-1.62499009631574153900146484375">
        <ele>1505</ele>
        <time>2022-08-25T12:23:54.000Z</time>
      </trkpt>
      <trkpt lat="40.19535052590072154998779296875" lon="-1.62487995810806751251220703125">
        <ele>1504.4000244140625</ele>
        <time>2022-08-25T12:23:56.000Z</time>
      </trkpt>
      <trkpt lat="40.19544037990272045135498046875" lon="-1.62462447769939899444580078125">
        <ele>1503.5999755859375</ele>
        <time>2022-08-25T12:23:59.000Z</time>
      </trkpt>
      <trkpt lat="40.1954376138746738433837890625" lon="-1.624525487422943115234375">
        <ele>1503.4000244140625</ele>
        <time>2022-08-25T12:24:00.000Z</time>
      </trkpt>
      <trkpt lat="40.1953832991421222686767578125" lon="-1.6243231482803821563720703125">
        <ele>1502.800048828125</ele>
        <time>2022-08-25T12:24:02.000Z</time>
      </trkpt>
      <trkpt lat="40.19518020562827587127685546875" lon="-1.62405367009341716766357421875">
        <ele>1502.4000244140625</ele>
        <time>2022-08-25T12:24:05.000Z</time>
      </trkpt>
      <trkpt lat="40.1949870027601718902587890625" lon="-1.62389717996120452880859375">
        <ele>1502.199951171875</ele>
        <time>2022-08-25T12:24:07.000Z</time>
      </trkpt>
      <trkpt lat="40.1947700791060924530029296875" lon="-1.623731218278408050537109375">
        <ele>1501.800048828125</ele>
        <time>2022-08-25T12:24:09.000Z</time>
      </trkpt>
      <trkpt lat="40.194535553455352783203125" lon="-1.62355788052082061767578125">
        <ele>1500.800048828125</ele>
        <time>2022-08-25T12:24:11.000Z</time>
      </trkpt>
      <trkpt lat="40.1942923106253147125244140625" lon="-1.623378507792949676513671875">
        <ele>1499.199951171875</ele>
        <time>2022-08-25T12:24:13.000Z</time>
      </trkpt>
      <trkpt lat="40.194167084991931915283203125" lon="-1.62328840233385562896728515625">
        <ele>1498.5999755859375</ele>
        <time>2022-08-25T12:24:14.000Z</time>
      </trkpt>
      <trkpt lat="40.19404144026339054107666015625" lon="-1.62319712340831756591796875">
        <ele>1497.800048828125</ele>
        <time>2022-08-25T12:24:15.000Z</time>
      </trkpt>
      <trkpt lat="40.1937917433679103851318359375" lon="-1.62301339209079742431640625">
        <ele>1496.199951171875</ele>
        <time>2022-08-25T12:24:17.000Z</time>
      </trkpt>
      <trkpt lat="40.19366727210581302642822265625" lon="-1.62292194552719593048095703125">
        <ele>1495</ele>
        <time>2022-08-25T12:24:18.000Z</time>
      </trkpt>
      <trkpt lat="40.19354380667209625244140625" lon="-1.6228304989635944366455078125">
        <ele>1493.4000244140625</ele>
        <time>2022-08-25T12:24:19.000Z</time>
      </trkpt>
      <trkpt lat="40.1934192515909671783447265625" lon="-1.62273938767611980438232421875">
        <ele>1492.199951171875</ele>
        <time>2022-08-25T12:24:20.000Z</time>
      </trkpt>
      <trkpt lat="40.19329478032886981964111328125" lon="-1.62264836020767688751220703125">
        <ele>1491</ele>
        <time>2022-08-25T12:24:21.000Z</time>
      </trkpt>
      <trkpt lat="40.19317206926643848419189453125" lon="-1.62255180068314075469970703125">
        <ele>1489.800048828125</ele>
        <time>2022-08-25T12:24:22.000Z</time>
      </trkpt>
      <trkpt lat="40.19305505789816379547119140625" lon="-1.6224395669996738433837890625">
        <ele>1488.199951171875</ele>
        <time>2022-08-25T12:24:23.000Z</time>
      </trkpt>
      <trkpt lat="40.1929465122520923614501953125" lon="-1.6223101504147052764892578125">
        <ele>1486.5999755859375</ele>
        <time>2022-08-25T12:24:24.000Z</time>
      </trkpt>
      <trkpt lat="40.19284534268081188201904296875" lon="-1.62216472439467906951904296875">
        <ele>1485.4000244140625</ele>
        <time>2022-08-25T12:24:25.000Z</time>
      </trkpt>
      <trkpt lat="40.19274744205176830291748046875" lon="-1.6220120899379253387451171875">
        <ele>1484.4000244140625</ele>
        <time>2022-08-25T12:24:26.000Z</time>
      </trkpt>
      <trkpt lat="40.19264996051788330078125" lon="-1.621856354176998138427734375">
        <ele>1483.199951171875</ele>
        <time>2022-08-25T12:24:27.000Z</time>
      </trkpt>
      <trkpt lat="40.19255247898399829864501953125" lon="-1.621698774397373199462890625">
        <ele>1481.5999755859375</ele>
        <time>2022-08-25T12:24:28.000Z</time>
      </trkpt>
      <trkpt lat="40.192457847297191619873046875" lon="-1.6215383447706699371337890625">
        <ele>1480.199951171875</ele>
        <time>2022-08-25T12:24:29.000Z</time>
      </trkpt>
      <trkpt lat="40.19236539490520954132080078125" lon="-1.62138336338102817535400390625">
        <ele>1479</ele>
        <time>2022-08-25T12:24:30.000Z</time>
      </trkpt>
      <trkpt lat="40.1922789774835109710693359375" lon="-1.6212389431893825531005859375">
        <ele>1477.4000244140625</ele>
        <time>2022-08-25T12:24:31.000Z</time>
      </trkpt>
      <trkpt lat="40.19220211543142795562744140625" lon="-1.6211105324327945709228515625">
        <ele>1476</ele>
        <time>2022-08-25T12:24:32.000Z</time>
      </trkpt>
      <trkpt lat="40.19213489256799221038818359375" lon="-1.6209943592548370361328125">
        <ele>1474.199951171875</ele>
        <time>2022-08-25T12:24:33.000Z</time>
      </trkpt>
      <trkpt lat="40.19208057783544063568115234375" lon="-1.62089218385517597198486328125">
        <ele>1472.4000244140625</ele>
        <time>2022-08-25T12:24:34.000Z</time>
      </trkpt>
      <trkpt lat="40.1920432783663272857666015625" lon="-1.62080266512930393218994140625">
        <ele>1471</ele>
        <time>2022-08-25T12:24:35.000Z</time>
      </trkpt>
      <trkpt lat="40.19203841686248779296875" lon="-1.62071683444082736968994140625">
        <ele>1467.199951171875</ele>
        <time>2022-08-25T12:24:36.000Z</time>
      </trkpt>
      <trkpt lat="40.19205610267817974090576171875" lon="-1.62064022384583950042724609375">
        <ele>1464.800048828125</ele>
        <time>2022-08-25T12:24:37.000Z</time>
      </trkpt>
      <trkpt lat="40.19209667108952999114990234375" lon="-1.62058775313198566436767578125">
        <ele>1462.199951171875</ele>
        <time>2022-08-25T12:24:38.000Z</time>
      </trkpt>
      <trkpt lat="40.19215978682041168212890625" lon="-1.6205583326518535614013671875">
        <ele>1459.800048828125</ele>
        <time>2022-08-25T12:24:39.000Z</time>
      </trkpt>
      <trkpt lat="40.192243270576000213623046875" lon="-1.62055523134768009185791015625">
        <ele>1457.800048828125</ele>
        <time>2022-08-25T12:24:40.000Z</time>
      </trkpt>
      <trkpt lat="40.19233144819736480712890625" lon="-1.62057551555335521697998046875">
        <ele>1456</ele>
        <time>2022-08-25T12:24:41.000Z</time>
      </trkpt>
      <trkpt lat="40.19242054782807826995849609375" lon="-1.62061214447021484375">
        <ele>1454.4000244140625</ele>
        <time>2022-08-25T12:24:42.000Z</time>
      </trkpt>
      <trkpt lat="40.19250621087849140167236328125" lon="-1.620662771165370941162109375">
        <ele>1452.800048828125</ele>
        <time>2022-08-25T12:24:43.000Z</time>
      </trkpt>
      <trkpt lat="40.192593969404697418212890625" lon="-1.62072253413498401641845703125">
        <ele>1451.199951171875</ele>
        <time>2022-08-25T12:24:44.000Z</time>
      </trkpt>
      <trkpt lat="40.19268323667347431182861328125" lon="-1.620786152780055999755859375">
        <ele>1450.199951171875</ele>
        <time>2022-08-25T12:24:45.000Z</time>
      </trkpt>
      <trkpt lat="40.19286562688648700714111328125" lon="-1.62091548554599285125732421875">
        <ele>1448.800048828125</ele>
        <time>2022-08-25T12:24:47.000Z</time>
      </trkpt>
      <trkpt lat="40.1930427365005016326904296875" lon="-1.62104205228388309478759765625">
        <ele>1447</ele>
        <time>2022-08-25T12:24:49.000Z</time>
      </trkpt>
      <trkpt lat="40.1932103745639324188232421875" lon="-1.6211418807506561279296875">
        <ele>1445.4000244140625</ele>
        <time>2022-08-25T12:24:51.000Z</time>
      </trkpt>
      <trkpt lat="40.19336543977260589599609375" lon="-1.6211960278451442718505859375">
        <ele>1443.5999755859375</ele>
        <time>2022-08-25T12:24:53.000Z</time>
      </trkpt>
      <trkpt lat="40.193511284887790679931640625" lon="-1.62120549939572811126708984375">
        <ele>1441.800048828125</ele>
        <time>2022-08-25T12:24:55.000Z</time>
      </trkpt>
      <trkpt lat="40.1936301402747631072998046875" lon="-1.6211601532995700836181640625">
        <ele>1440</ele>
        <time>2022-08-25T12:24:57.000Z</time>
      </trkpt>
      <trkpt lat="40.193673558533191680908203125" lon="-1.6211177408695220947265625">
        <ele>1439.4000244140625</ele>
        <time>2022-08-25T12:24:58.000Z</time>
      </trkpt>
      <trkpt lat="40.19370817579329013824462890625" lon="-1.62106703035533428192138671875">
        <ele>1439</ele>
        <time>2022-08-25T12:24:59.000Z</time>
      </trkpt>
      <trkpt lat="40.1937572099268436431884765625" lon="-1.62094809114933013916015625">
        <ele>1437.4000244140625</ele>
        <time>2022-08-25T12:25:01.000Z</time>
      </trkpt>
      <trkpt lat="40.1937746442854404449462890625" lon="-1.62088715471327304840087890625">
        <ele>1436.800048828125</ele>
        <time>2022-08-25T12:25:02.000Z</time>
      </trkpt>
      <trkpt lat="40.1937910728156566619873046875" lon="-1.620826385915279388427734375">
        <ele>1436.4000244140625</ele>
        <time>2022-08-25T12:25:03.000Z</time>
      </trkpt>
      <trkpt lat="40.1938229240477085113525390625" lon="-1.62070945836603641510009765625">
        <ele>1435</ele>
        <time>2022-08-25T12:25:05.000Z</time>
      </trkpt>
      <trkpt lat="40.1938395202159881591796875" lon="-1.6206585802137851715087890625">
        <ele>1433.5999755859375</ele>
        <time>2022-08-25T12:25:06.000Z</time>
      </trkpt>
      <trkpt lat="40.1938866265118122100830078125" lon="-1.6205546446144580841064453125">
        <ele>1432</ele>
        <time>2022-08-25T12:25:08.000Z</time>
      </trkpt>
      <trkpt lat="40.19394119270145893096923828125" lon="-1.6204543970525264739990234375">
        <ele>1430.199951171875</ele>
        <time>2022-08-25T12:25:10.000Z</time>
      </trkpt>
      <trkpt lat="40.19398243166506290435791015625" lon="-1.6203655488789081573486328125">
        <ele>1429</ele>
        <time>2022-08-25T12:25:12.000Z</time>
      </trkpt>
      <trkpt lat="40.19401713274419307708740234375" lon="-1.6202914528548717498779296875">
        <ele>1427.5999755859375</ele>
        <time>2022-08-25T12:25:14.000Z</time>
      </trkpt>
      <trkpt lat="40.1940616406500339508056640625" lon="-1.62019665353000164031982421875">
        <ele>1426.199951171875</ele>
        <time>2022-08-25T12:25:17.000Z</time>
      </trkpt>
      <trkpt lat="40.19409659318625926971435546875" lon="-1.62011015228927135467529296875">
        <ele>1425</ele>
        <time>2022-08-25T12:25:20.000Z</time>
      </trkpt>
      <trkpt lat="40.1941380836069583892822265625" lon="-1.62001560442149639129638671875">
        <ele>1423.5999755859375</ele>
        <time>2022-08-25T12:25:23.000Z</time>
      </trkpt>
      <trkpt lat="40.1941887103021144866943359375" lon="-1.61991720087826251983642578125">
        <ele>1422.4000244140625</ele>
        <time>2022-08-25T12:25:26.000Z</time>
      </trkpt>
      <trkpt lat="40.19420094788074493408203125" lon="-1.61987897939980030059814453125">
        <ele>1422.199951171875</ele>
        <time>2022-08-25T12:25:27.000Z</time>
      </trkpt>
      <trkpt lat="40.19425048492848873138427734375" lon="-1.61973061971366405487060546875">
        <ele>1421.199951171875</ele>
        <time>2022-08-25T12:25:31.000Z</time>
      </trkpt>
      <trkpt lat="40.19427068531513214111328125" lon="-1.6196564398705959320068359375">
        <ele>1420.800048828125</ele>
        <time>2022-08-25T12:25:33.000Z</time>
      </trkpt>
      <trkpt lat="40.19429155625402927398681640625" lon="-1.61957773379981517791748046875">
        <ele>1420</ele>
        <time>2022-08-25T12:25:35.000Z</time>
      </trkpt>
      <trkpt lat="40.194299183785915374755859375" lon="-1.61947530694305896759033203125">
        <ele>1418.800048828125</ele>
        <time>2022-08-25T12:25:38.000Z</time>
      </trkpt>
      <trkpt lat="40.1942852698266506195068359375" lon="-1.619458459317684173583984375">
        <ele>1418.4000244140625</ele>
        <time>2022-08-25T12:25:39.000Z</time>
      </trkpt>
      <trkpt lat="40.19424646161496639251708984375" lon="-1.6194572858512401580810546875">
        <ele>1417.5999755859375</ele>
        <time>2022-08-25T12:25:42.000Z</time>
      </trkpt>
      <trkpt lat="40.194238834083080291748046875" lon="-1.61946441046893596649169921875">
        <ele>1417.4000244140625</ele>
        <time>2022-08-25T12:25:43.000Z</time>
      </trkpt>
      <trkpt lat="40.1942329667508602142333984375" lon="-1.61947497166693210601806640625">
        <ele>1417.199951171875</ele>
        <time>2022-08-25T12:25:44.000Z</time>
      </trkpt>
      <trkpt lat="40.19421461038291454315185546875" lon="-1.61949022673070430755615234375">
        <ele>1417</ele>
        <time>2022-08-25T12:25:50.000Z</time>
      </trkpt>
      <trkpt lat="40.19422500394284725189208984375" lon="-1.61948519758880138397216796875">
        <ele>1417</ele>
        <time>2022-08-25T12:25:51.000Z</time>
      </trkpt>
      <trkpt lat="40.19428937695920467376708984375" lon="-1.615202128887176513671875">
        <ele>1406.4000244140625</ele>
        <time>2022-08-25T13:22:45.000Z</time>
      </trkpt>
      <trkpt lat="40.194293819367885589599609375" lon="-1.615170277655124664306640625">
        <ele>1406.199951171875</ele>
        <time>2022-08-25T13:22:48.000Z</time>
      </trkpt>
      <trkpt lat="40.19435517489910125732421875" lon="-1.61505267955362796783447265625">
        <ele>1406.199951171875</ele>
        <time>2022-08-25T13:22:56.000Z</time>
      </trkpt>
      <trkpt lat="40.19439549185335636138916015625" lon="-1.61492125131189823150634765625">
        <ele>1406.199951171875</ele>
        <time>2022-08-25T13:23:03.000Z</time>
      </trkpt>
      <trkpt lat="40.1943989284336566925048828125" lon="-1.61490448750555515289306640625">
        <ele>1406.199951171875</ele>
        <time>2022-08-25T13:23:04.000Z</time>
      </trkpt>
      <trkpt lat="40.19402735866606235504150390625" lon="-1.6171891428530216217041015625">
        <ele>1410.199951171875</ele>
        <time>2022-08-25T15:46:46.000Z</time>
      </trkpt>
      <trkpt lat="40.1940219104290008544921875" lon="-1.6171856224536895751953125">
        <ele>1410.199951171875</ele>
        <time>2022-08-25T15:46:47.000Z</time>
      </trkpt>
      <trkpt lat="40.19400020129978656768798828125" lon="-1.6170996241271495819091796875">
        <ele>1410.199951171875</ele>
        <time>2022-08-25T15:46:50.000Z</time>
      </trkpt>
      <trkpt lat="40.19400036893784999847412109375" lon="-1.6170501708984375">
        <ele>1410.199951171875</ele>
        <time>2022-08-25T15:46:51.000Z</time>
      </trkpt>
      <trkpt lat="40.194042362272739410400390625" lon="-1.61675504408776760101318359375">
        <ele>1410.199951171875</ele>
        <time>2022-08-25T15:46:55.000Z</time>
      </trkpt>
      <trkpt lat="40.1941345632076263427734375" lon="-1.61626906134188175201416015625">
        <ele>1409.800048828125</ele>
        <time>2022-08-25T15:47:00.000Z</time>
      </trkpt>
      <trkpt lat="40.19419801421463489532470703125" lon="-1.61598642356693744659423828125">
        <ele>1408.800048828125</ele>
        <time>2022-08-25T15:47:03.000Z</time>
      </trkpt>
      <trkpt lat="40.19422776997089385986328125" lon="-1.61582699976861476898193359375">
        <ele>1408</ele>
        <time>2022-08-25T15:47:05.000Z</time>
      </trkpt>
      <trkpt lat="40.19423740915954113006591796875" lon="-1.61575810052454471588134765625">
        <ele>1407</ele>
        <time>2022-08-25T15:47:06.000Z</time>
      </trkpt>
      <trkpt lat="40.1942567713558673858642578125" lon="-1.61563388071954250335693359375">
        <ele>1405.199951171875</ele>
        <time>2022-08-25T15:47:08.000Z</time>
      </trkpt>
      <trkpt lat="40.19427361898124217987060546875" lon="-1.6155387461185455322265625">
        <ele>1403.4000244140625</ele>
        <time>2022-08-25T15:47:10.000Z</time>
      </trkpt>
      <trkpt lat="40.19428820349276065826416015625" lon="-1.61546842195093631744384765625">
        <ele>1402.199951171875</ele>
        <time>2022-08-25T15:47:12.000Z</time>
      </trkpt>
      <trkpt lat="40.19433044828474521636962890625" lon="-1.61537580192089080810546875">
        <ele>1401</ele>
        <time>2022-08-25T15:47:15.000Z</time>
      </trkpt>
      <trkpt lat="40.1943442784249782562255859375" lon="-1.61534151993691921234130859375">
        <ele>1400.800048828125</ele>
        <time>2022-08-25T15:47:16.000Z</time>
      </trkpt>
      <trkpt lat="40.19442382268607616424560546875" lon="-1.6150988638401031494140625">
        <ele>1400.5999755859375</ele>
        <time>2022-08-25T15:47:23.000Z</time>
      </trkpt>
      <trkpt lat="40.19448392093181610107421875" lon="-1.614799462258815765380859375">
        <ele>1400.5999755859375</ele>
        <time>2022-08-25T15:47:31.000Z</time>
      </trkpt>
      <trkpt lat="40.19457050599157810211181640625" lon="-1.61443300545215606689453125">
        <ele>1401.5999755859375</ele>
        <time>2022-08-25T15:47:40.000Z</time>
      </trkpt>
      <trkpt lat="40.1946549117565155029296875" lon="-1.61411340348422527313232421875">
        <ele>1402</ele>
        <time>2022-08-25T15:47:48.000Z</time>
      </trkpt>
      <trkpt lat="40.19466706551611423492431640625" lon="-1.61403411068022251129150390625">
        <ele>1402.199951171875</ele>
        <time>2022-08-25T15:47:50.000Z</time>
      </trkpt>
      <trkpt lat="40.1947166025638580322265625" lon="-1.6138041950762271881103515625">
        <ele>1402.5999755859375</ele>
        <time>2022-08-25T15:47:56.000Z</time>
      </trkpt>
      <trkpt lat="40.19475172273814678192138671875" lon="-1.61366262473165988922119140625">
        <ele>1403.5999755859375</ele>
        <time>2022-08-25T15:48:00.000Z</time>
      </trkpt>
      <trkpt lat="40.1947908662259578704833984375" lon="-1.61354628391563892364501953125">
        <ele>1404</ele>
        <time>2022-08-25T15:48:04.000Z</time>
      </trkpt>
      <trkpt lat="40.194879882037639617919921875" lon="-1.613372862339019775390625">
        <ele>1404.4000244140625</ele>
        <time>2022-08-25T15:48:11.000Z</time>
      </trkpt>
      <trkpt lat="40.19498725421726703643798828125" lon="-1.61321234889328479766845703125">
        <ele>1404.5999755859375</ele>
        <time>2022-08-25T15:48:17.000Z</time>
      </trkpt>
      <trkpt lat="40.1950218714773654937744140625" lon="-1.61315015517175197601318359375">
        <ele>1404.800048828125</ele>
        <time>2022-08-25T15:48:19.000Z</time>
      </trkpt>
      <trkpt lat="40.1951774396002292633056640625" lon="-1.6129123605787754058837890625">
        <ele>1405.4000244140625</ele>
        <time>2022-08-25T15:48:27.000Z</time>
      </trkpt>
      <trkpt lat="40.195231921970844268798828125" lon="-1.612825691699981689453125">
        <ele>1405.5999755859375</ele>
        <time>2022-08-25T15:48:30.000Z</time>
      </trkpt>
      <trkpt lat="40.195289589464664459228515625" lon="-1.61269552074372768402099609375">
        <ele>1406.199951171875</ele>
        <time>2022-08-25T15:48:34.000Z</time>
      </trkpt>
      <trkpt lat="40.1953635178506374359130859375" lon="-1.61252352409064769744873046875">
        <ele>1406.5999755859375</ele>
        <time>2022-08-25T15:48:40.000Z</time>
      </trkpt>
      <trkpt lat="40.19537667743861675262451171875" lon="-1.612468622624874114990234375">
        <ele>1406.5999755859375</ele>
        <time>2022-08-25T15:48:42.000Z</time>
      </trkpt>
      <trkpt lat="40.19542529247701168060302734375" lon="-1.6123388707637786865234375">
        <ele>1406.800048828125</ele>
        <time>2022-08-25T15:48:47.000Z</time>
      </trkpt>
      <trkpt lat="40.19553073681890964508056640625" lon="-1.61213326267898082733154296875">
        <ele>1407</ele>
        <time>2022-08-25T15:48:55.000Z</time>
      </trkpt>
      <trkpt lat="40.19563014619052410125732421875" lon="-1.6119799576699733734130859375">
        <ele>1408</ele>
        <time>2022-08-25T15:49:01.000Z</time>
      </trkpt>
      <trkpt lat="40.19566350616514682769775390625" lon="-1.6119346953928470611572265625">
        <ele>1408.4000244140625</ele>
        <time>2022-08-25T15:49:03.000Z</time>
      </trkpt>
      <trkpt lat="40.19578990526497364044189453125" lon="-1.61176898516714572906494140625">
        <ele>1409</ele>
        <time>2022-08-25T15:49:11.000Z</time>
      </trkpt>
      <trkpt lat="40.19584790803492069244384765625" lon="-1.61166002042591571807861328125">
        <ele>1409.199951171875</ele>
        <time>2022-08-25T15:49:16.000Z</time>
      </trkpt>
      <trkpt lat="40.19585830159485340118408203125" lon="-1.6116091422736644744873046875">
        <ele>1409.199951171875</ele>
        <time>2022-08-25T15:49:18.000Z</time>
      </trkpt>
      <trkpt lat="40.19588076509535312652587890625" lon="-1.611485593020915985107421875">
        <ele>1410.199951171875</ele>
        <time>2022-08-25T15:49:23.000Z</time>
      </trkpt>
      <trkpt lat="40.19589467905461788177490234375" lon="-1.61135877482593059539794921875">
        <ele>1411</ele>
        <time>2022-08-25T15:49:28.000Z</time>
      </trkpt>
      <trkpt lat="40.19591680727899074554443359375" lon="-1.61118744872510433197021484375">
        <ele>1411.199951171875</ele>
        <time>2022-08-25T15:49:35.000Z</time>
      </trkpt>
      <trkpt lat="40.1959277875721454620361328125" lon="-1.6111125983297824859619140625">
        <ele>1411.4000244140625</ele>
        <time>2022-08-25T15:49:38.000Z</time>
      </trkpt>
      <trkpt lat="40.19594312645494937896728515625" lon="-1.6109523363411426544189453125">
        <ele>1412.199951171875</ele>
        <time>2022-08-25T15:49:44.000Z</time>
      </trkpt>
      <trkpt lat="40.19595687277615070343017578125" lon="-1.61082451231777667999267578125">
        <ele>1412.5999755859375</ele>
        <time>2022-08-25T15:49:49.000Z</time>
      </trkpt>
      <trkpt lat="40.19598268903791904449462890625" lon="-1.610640026628971099853515625">
        <ele>1413.199951171875</ele>
        <time>2022-08-25T15:49:56.000Z</time>
      </trkpt>
      <trkpt lat="40.19599995575845241546630859375" lon="-1.61055746488273143768310546875">
        <ele>1413.5999755859375</ele>
        <time>2022-08-25T15:49:59.000Z</time>
      </trkpt>
      <trkpt lat="40.196025185286998748779296875" lon="-1.61032713018357753753662109375">
        <ele>1414.5999755859375</ele>
        <time>2022-08-25T15:50:08.000Z</time>
      </trkpt>
      <trkpt lat="40.19602845422923564910888671875" lon="-1.6103025712072849273681640625">
        <ele>1414.5999755859375</ele>
        <time>2022-08-25T15:50:09.000Z</time>
      </trkpt>
      <trkpt lat="40.1960444636642932891845703125" lon="-1.6101191751658916473388671875">
        <ele>1415.4000244140625</ele>
        <time>2022-08-25T15:50:18.000Z</time>
      </trkpt>
      <trkpt lat="40.1960468105971813201904296875" lon="-1.6100135631859302520751953125">
        <ele>1415.800048828125</ele>
        <time>2022-08-25T15:50:23.000Z</time>
      </trkpt>
      <trkpt lat="40.19603733904659748077392578125" lon="-1.6099022515118122100830078125">
        <ele>1416.4000244140625</ele>
        <time>2022-08-25T15:50:28.000Z</time>
      </trkpt>
      <trkpt lat="40.19603281281888484954833984375" lon="-1.60980963148176670074462890625">
        <ele>1417</ele>
        <time>2022-08-25T15:50:32.000Z</time>
      </trkpt>
      <trkpt lat="40.19602954387664794921875" lon="-1.6096779517829418182373046875">
        <ele>1417.5999755859375</ele>
        <time>2022-08-25T15:50:38.000Z</time>
      </trkpt>
      <trkpt lat="40.19603281281888484954833984375" lon="-1.60963461734354496002197265625">
        <ele>1418</ele>
        <time>2022-08-25T15:50:40.000Z</time>
      </trkpt>
      <trkpt lat="40.196034573018550872802734375" lon="-1.60949413664638996124267578125">
        <ele>1419.4000244140625</ele>
        <time>2022-08-25T15:50:48.000Z</time>
      </trkpt>
      <trkpt lat="40.19603214226663112640380859375" lon="-1.60948005504906177520751953125">
        <ele>1419.800048828125</ele>
        <time>2022-08-25T15:50:49.000Z</time>
      </trkpt>
      <trkpt lat="40.19603834487497806549072265625" lon="-1.60938701592385768890380859375">
        <ele>1420.5999755859375</ele>
        <time>2022-08-25T15:50:54.000Z</time>
      </trkpt>
      <trkpt lat="40.196041949093341827392578125" lon="-1.60926816053688526153564453125">
        <ele>1421.5999755859375</ele>
        <time>2022-08-25T15:51:00.000Z</time>
      </trkpt>
      <trkpt lat="40.1960414461791515350341796875" lon="-1.60923480056226253509521484375">
        <ele>1421.800048828125</ele>
        <time>2022-08-25T15:51:02.000Z</time>
      </trkpt>
      <trkpt lat="40.196039266884326934814453125" lon="-1.60912684164941310882568359375">
        <ele>1423</ele>
        <time>2022-08-25T15:51:10.000Z</time>
      </trkpt>
      <trkpt lat="40.19603817723691463470458984375" lon="-1.60911074839532375335693359375">
        <ele>1423.199951171875</ele>
        <time>2022-08-25T15:51:11.000Z</time>
      </trkpt>
      <trkpt lat="40.19603398628532886505126953125" lon="-1.60902542062103748321533203125">
        <ele>1424</ele>
        <time>2022-08-25T15:51:16.000Z</time>
      </trkpt>
      <trkpt lat="40.1960220001637935638427734375" lon="-1.6089225746691226959228515625">
        <ele>1425</ele>
        <time>2022-08-25T15:51:22.000Z</time>
      </trkpt>
      <trkpt lat="40.19602023996412754058837890625" lon="-1.60886951722204685211181640625">
        <ele>1425.5999755859375</ele>
        <time>2022-08-25T15:51:25.000Z</time>
      </trkpt>
      <trkpt lat="40.1960226707160472869873046875" lon="-1.6088037192821502685546875">
        <ele>1426.199951171875</ele>
        <time>2022-08-25T15:51:29.000Z</time>
      </trkpt>
      <trkpt lat="40.19601688720285892486572265625" lon="-1.60869031213223934173583984375">
        <ele>1427.4000244140625</ele>
        <time>2022-08-25T15:51:36.000Z</time>
      </trkpt>
      <trkpt lat="40.1960126124322414398193359375" lon="-1.60867589525878429412841796875">
        <ele>1427.800048828125</ele>
        <time>2022-08-25T15:51:37.000Z</time>
      </trkpt>
      <trkpt lat="40.1960065774619579315185546875" lon="-1.60858905874192714691162109375">
        <ele>1428.4000244140625</ele>
        <time>2022-08-25T15:51:42.000Z</time>
      </trkpt>
      <trkpt lat="40.1960106007754802703857421875" lon="-1.60851739346981048583984375">
        <ele>1429.4000244140625</ele>
        <time>2022-08-25T15:51:47.000Z</time>
      </trkpt>
      <trkpt lat="40.19601504318416118621826171875" lon="-1.60846911370754241943359375">
        <ele>1430.4000244140625</ele>
        <time>2022-08-25T15:51:50.000Z</time>
      </trkpt>
      <trkpt lat="40.19601739011704921722412109375" lon="-1.60845293663442134857177734375">
        <ele>1430.5999755859375</ele>
        <time>2022-08-25T15:51:51.000Z</time>
      </trkpt>
      <trkpt lat="40.19603281281888484954833984375" lon="-1.60835218615829944610595703125">
        <ele>1431.800048828125</ele>
        <time>2022-08-25T15:51:57.000Z</time>
      </trkpt>
      <trkpt lat="40.196032226085662841796875" lon="-1.60827188752591609954833984375">
        <ele>1433</ele>
        <time>2022-08-25T15:52:02.000Z</time>
      </trkpt>
      <trkpt lat="40.196029879152774810791015625" lon="-1.608257554471492767333984375">
        <ele>1433.199951171875</ele>
        <time>2022-08-25T15:52:03.000Z</time>
      </trkpt>
      <trkpt lat="40.19600565545260906219482421875" lon="-1.60818471573293209075927734375">
        <ele>1434.199951171875</ele>
        <time>2022-08-25T15:52:08.000Z</time>
      </trkpt>
      <trkpt lat="40.196005403995513916015625" lon="-1.60816962830722332000732421875">
        <ele>1434.199951171875</ele>
        <time>2022-08-25T15:52:09.000Z</time>
      </trkpt>
      <trkpt lat="40.19599408842623233795166015625" lon="-1.608113385736942291259765625">
        <ele>1435</ele>
        <time>2022-08-25T15:52:13.000Z</time>
      </trkpt>
      <trkpt lat="40.19598637707531452178955078125" lon="-1.608086563646793365478515625">
        <ele>1435.4000244140625</ele>
        <time>2022-08-25T15:52:15.000Z</time>
      </trkpt>
      <trkpt lat="40.19598185084760189056396484375" lon="-1.608075164258480072021484375">
        <ele>1435.5999755859375</ele>
        <time>2022-08-25T15:52:16.000Z</time>
      </trkpt>
      <trkpt lat="40.195958800613880157470703125" lon="-1.6080153174698352813720703125">
        <ele>1436.5999755859375</ele>
        <time>2022-08-25T15:52:20.000Z</time>
      </trkpt>
      <trkpt lat="40.19591152667999267578125" lon="-1.607928313314914703369140625">
        <ele>1437.5999755859375</ele>
        <time>2022-08-25T15:52:26.000Z</time>
      </trkpt>
      <trkpt lat="40.1958902366459369659423828125" lon="-1.6078885830938816070556640625">
        <ele>1438.199951171875</ele>
        <time>2022-08-25T15:52:29.000Z</time>
      </trkpt>
      <trkpt lat="40.1958607323467731475830078125" lon="-1.60782546736299991607666015625">
        <ele>1438.5999755859375</ele>
        <time>2022-08-25T15:52:34.000Z</time>
      </trkpt>
      <trkpt lat="40.19581857137382030487060546875" lon="-1.6077514551579952239990234375">
        <ele>1440</ele>
        <time>2022-08-25T15:52:41.000Z</time>
      </trkpt>
      <trkpt lat="40.1958050765097141265869140625" lon="-1.607727818191051483154296875">
        <ele>1440.5999755859375</ele>
        <time>2022-08-25T15:52:43.000Z</time>
      </trkpt>
      <trkpt lat="40.1957839541137218475341796875" lon="-1.6076770238578319549560546875">
        <ele>1441</ele>
        <time>2022-08-25T15:52:46.000Z</time>
      </trkpt>
      <trkpt lat="40.195753611624240875244140625" lon="-1.60756981931626796722412109375">
        <ele>1442.199951171875</ele>
        <time>2022-08-25T15:52:52.000Z</time>
      </trkpt>
      <trkpt lat="40.19574196077883243560791015625" lon="-1.60752790980041027069091796875">
        <ele>1442.5999755859375</ele>
        <time>2022-08-25T15:52:57.000Z</time>
      </trkpt>
      <trkpt lat="40.1957588084042072296142578125" lon="-1.60748683847486972808837890625">
        <ele>1443.800048828125</ele>
        <time>2022-08-25T15:54:09.000Z</time>
      </trkpt>
      <trkpt lat="40.19575621001422405242919921875" lon="-1.6074647940695285797119140625">
        <ele>1443.800048828125</ele>
        <time>2022-08-25T15:54:10.000Z</time>
      </trkpt>
      <trkpt lat="40.19563685171306133270263671875" lon="-1.60728097893297672271728515625">
        <ele>1444.800048828125</ele>
        <time>2022-08-25T15:54:20.000Z</time>
      </trkpt>
      <trkpt lat="40.1956109516322612762451171875" lon="-1.60724644549190998077392578125">
        <ele>1445</ele>
        <time>2022-08-25T15:54:22.000Z</time>
      </trkpt>
      <trkpt lat="40.1955278031527996063232421875" lon="-1.60716664977371692657470703125">
        <ele>1446</ele>
        <time>2022-08-25T15:54:28.000Z</time>
      </trkpt>
      <trkpt lat="40.19546200521290302276611328125" lon="-1.60712189041078090667724609375">
        <ele>1447</ele>
        <time>2022-08-25T15:54:33.000Z</time>
      </trkpt>
      <trkpt lat="40.195447839796543121337890625" lon="-1.60711317323148250579833984375">
        <ele>1447.199951171875</ele>
        <time>2022-08-25T15:54:34.000Z</time>
      </trkpt>
      <trkpt lat="40.19531498663127422332763671875" lon="-1.60701845772564411163330078125">
        <ele>1448.5999755859375</ele>
        <time>2022-08-25T15:54:43.000Z</time>
      </trkpt>
      <trkpt lat="40.19527307711541652679443359375" lon="-1.6069910489022731781005859375">
        <ele>1449</ele>
        <time>2022-08-25T15:54:46.000Z</time>
      </trkpt>
      <trkpt lat="40.19520434550940990447998046875" lon="-1.6069467924535274505615234375">
        <ele>1449.5999755859375</ele>
        <time>2022-08-25T15:54:50.000Z</time>
      </trkpt>
      <trkpt lat="40.195105858147144317626953125" lon="-1.60688702948391437530517578125">
        <ele>1450.4000244140625</ele>
        <time>2022-08-25T15:54:55.000Z</time>
      </trkpt>
      <trkpt lat="40.19504425115883350372314453125" lon="-1.60683690570294857025146484375">
        <ele>1450.5999755859375</ele>
        <time>2022-08-25T15:54:58.000Z</time>
      </trkpt>
      <trkpt lat="40.194938220083713531494140625" lon="-1.60668678581714630126953125">
        <ele>1451</ele>
        <time>2022-08-25T15:55:05.000Z</time>
      </trkpt>
      <trkpt lat="40.19484643824398517608642578125" lon="-1.606463827192783355712890625">
        <ele>1451.5999755859375</ele>
        <time>2022-08-25T15:55:13.000Z</time>
      </trkpt>
      <trkpt lat="40.19482967443764209747314453125" lon="-1.60640381276607513427734375">
        <ele>1451.800048828125</ele>
        <time>2022-08-25T15:55:15.000Z</time>
      </trkpt>
      <trkpt lat="40.1947791315615177154541015625" lon="-1.60617582499980926513671875">
        <ele>1453</ele>
        <time>2022-08-25T15:55:23.000Z</time>
      </trkpt>
      <trkpt lat="40.19473546184599399566650390625" lon="-1.60606962628662586212158203125">
        <ele>1453.199951171875</ele>
        <time>2022-08-25T15:55:27.000Z</time>
      </trkpt>
      <trkpt lat="40.19459950737655162811279296875" lon="-1.60583786666393280029296875">
        <ele>1453.4000244140625</ele>
        <time>2022-08-25T15:55:35.000Z</time>
      </trkpt>
      <trkpt lat="40.1944555900990962982177734375" lon="-1.60571875981986522674560546875">
        <ele>1453.4000244140625</ele>
        <time>2022-08-25T15:55:41.000Z</time>
      </trkpt>
      <trkpt lat="40.19426666200160980224609375" lon="-1.6056076996028423309326171875">
        <ele>1453.800048828125</ele>
        <time>2022-08-25T15:55:52.000Z</time>
      </trkpt>
      <trkpt lat="40.19420941360294818878173828125" lon="-1.60556017421185970306396484375">
        <ele>1454.4000244140625</ele>
        <time>2022-08-25T15:55:55.000Z</time>
      </trkpt>
      <trkpt lat="40.19409625791013240814208984375" lon="-1.6054536402225494384765625">
        <ele>1455.4000244140625</ele>
        <time>2022-08-25T15:56:01.000Z</time>
      </trkpt>
      <trkpt lat="40.19403842277824878692626953125" lon="-1.60539396107196807861328125">
        <ele>1455.800048828125</ele>
        <time>2022-08-25T15:56:04.000Z</time>
      </trkpt>
      <trkpt lat="40.19387329928576946258544921875" lon="-1.605185754597187042236328125">
        <ele>1456.199951171875</ele>
        <time>2022-08-25T15:56:13.000Z</time>
      </trkpt>
      <trkpt lat="40.193782858550548553466796875" lon="-1.605097912251949310302734375">
        <ele>1456.4000244140625</ele>
        <time>2022-08-25T15:56:17.000Z</time>
      </trkpt>
      <trkpt lat="40.1936764083802700042724609375" lon="-1.6049995087087154388427734375">
        <ele>1456.4000244140625</ele>
        <time>2022-08-25T15:56:22.000Z</time>
      </trkpt>
      <trkpt lat="40.19354875199496746063232421875" lon="-1.60485810600221157073974609375">
        <ele>1457</ele>
        <time>2022-08-25T15:56:30.000Z</time>
      </trkpt>
      <trkpt lat="40.19349644891917705535888671875" lon="-1.60479448735713958740234375">
        <ele>1457.4000244140625</ele>
        <time>2022-08-25T15:56:33.000Z</time>
      </trkpt>
      <trkpt lat="40.19341564737260341644287109375" lon="-1.60470488481223583221435546875">
        <ele>1457.800048828125</ele>
        <time>2022-08-25T15:56:38.000Z</time>
      </trkpt>
      <trkpt lat="40.19327826797962188720703125" lon="-1.60451017320156097412109375">
        <ele>1458.4000244140625</ele>
        <time>2022-08-25T15:56:47.000Z</time>
      </trkpt>
      <trkpt lat="40.19322202540934085845947265625" lon="-1.6044424474239349365234375">
        <ele>1458.800048828125</ele>
        <time>2022-08-25T15:56:50.000Z</time>
      </trkpt>
      <trkpt lat="40.19310451112687587738037109375" lon="-1.6042981110513210296630859375">
        <ele>1459.5999755859375</ele>
        <time>2022-08-25T15:56:57.000Z</time>
      </trkpt>
      <trkpt lat="40.1929753459990024566650390625" lon="-1.6041381843388080596923828125">
        <ele>1459.800048828125</ele>
        <time>2022-08-25T15:57:04.000Z</time>
      </trkpt>
      <trkpt lat="40.19287115894258022308349609375" lon="-1.60401941277086734771728515625">
        <ele>1460.4000244140625</ele>
        <time>2022-08-25T15:57:10.000Z</time>
      </trkpt>
      <trkpt lat="40.19266001880168914794921875" lon="-1.603750772774219512939453125">
        <ele>1460.800048828125</ele>
        <time>2022-08-25T15:57:21.000Z</time>
      </trkpt>
      <trkpt lat="40.19252330996096134185791015625" lon="-1.60350970923900604248046875">
        <ele>1460.800048828125</ele>
        <time>2022-08-25T15:57:28.000Z</time>
      </trkpt>
      <trkpt lat="40.19246413372457027435302734375" lon="-1.60343335010111331939697265625">
        <ele>1460.5999755859375</ele>
        <time>2022-08-25T15:57:30.000Z</time>
      </trkpt>
      <trkpt lat="40.1923453621566295623779296875" lon="-1.60330317914485931396484375">
        <ele>1460.4000244140625</ele>
        <time>2022-08-25T15:57:34.000Z</time>
      </trkpt>
      <trkpt lat="40.19222860224545001983642578125" lon="-1.60320905037224292755126953125">
        <ele>1459.199951171875</ele>
        <time>2022-08-25T15:57:40.000Z</time>
      </trkpt>
      <trkpt lat="40.19219960086047649383544921875" lon="-1.603186167776584625244140625">
        <ele>1459</ele>
        <time>2022-08-25T15:57:42.000Z</time>
      </trkpt>
      <trkpt lat="40.1921381615102291107177734375" lon="-1.60313411615788936614990234375">
        <ele>1459</ele>
        <time>2022-08-25T15:57:48.000Z</time>
      </trkpt>
      <trkpt lat="40.19206666387617588043212890625" lon="-1.60308717750012874603271484375">
        <ele>1460.4000244140625</ele>
        <time>2022-08-25T15:57:53.000Z</time>
      </trkpt>
      <trkpt lat="40.19200899638235569000244140625" lon="-1.603049375116825103759765625">
        <ele>1460.800048828125</ele>
        <time>2022-08-25T15:57:57.000Z</time>
      </trkpt>
      <trkpt lat="40.19193003885447978973388671875" lon="-1.60299179144203662872314453125">
        <ele>1461.4000244140625</ele>
        <time>2022-08-25T15:58:03.000Z</time>
      </trkpt>
      <trkpt lat="40.191874466836452484130859375" lon="-1.60292104817926883697509765625">
        <ele>1462.5999755859375</ele>
        <time>2022-08-25T15:58:09.000Z</time>
      </trkpt>
      <trkpt lat="40.1918454654514789581298828125" lon="-1.60283756442368030548095703125">
        <ele>1463.5999755859375</ele>
        <time>2022-08-25T15:58:15.000Z</time>
      </trkpt>
      <trkpt lat="40.1918407715857028961181640625" lon="-1.6028064675629138946533203125">
        <ele>1464</ele>
        <time>2022-08-25T15:58:18.000Z</time>
      </trkpt>
      <trkpt lat="40.19182660616934299468994140625" lon="-1.60276866517961025238037109375">
        <ele>1464.800048828125</ele>
        <time>2022-08-25T15:58:22.000Z</time>
      </trkpt>
      <trkpt lat="40.19178955815732479095458984375" lon="-1.60273245535790920257568359375">
        <ele>1465.5999755859375</ele>
        <time>2022-08-25T15:58:26.000Z</time>
      </trkpt>
      <trkpt lat="40.19178025424480438232421875" lon="-1.60272289998829364776611328125">
        <ele>1465.800048828125</ele>
        <time>2022-08-25T15:58:27.000Z</time>
      </trkpt>
      <trkpt lat="40.1917535997927188873291015625" lon="-1.6026934795081615447998046875">
        <ele>1466.800048828125</ele>
        <time>2022-08-25T15:58:32.000Z</time>
      </trkpt>
      <trkpt lat="40.19174245186150074005126953125" lon="-1.602681241929531097412109375">
        <ele>1467.199951171875</ele>
        <time>2022-08-25T15:58:34.000Z</time>
      </trkpt>
      <trkpt lat="40.19168277271091938018798828125" lon="-1.6026217304170131683349609375">
        <ele>1468</ele>
        <time>2022-08-25T15:58:40.000Z</time>
      </trkpt>
      <trkpt lat="40.19164212048053741455078125" lon="-1.60256632603704929351806640625">
        <ele>1468.800048828125</ele>
        <time>2022-08-25T15:58:44.000Z</time>
      </trkpt>
      <trkpt lat="40.19163449294865131378173828125" lon="-1.60255425609648227691650390625">
        <ele>1469</ele>
        <time>2022-08-25T15:58:45.000Z</time>
      </trkpt>
      <trkpt lat="40.191624350845813751220703125" lon="-1.60254453308880329132080078125">
        <ele>1469.199951171875</ele>
        <time>2022-08-25T15:58:46.000Z</time>
      </trkpt>
      <trkpt lat="40.19159509800374507904052734375" lon="-1.602510921657085418701171875">
        <ele>1470</ele>
        <time>2022-08-25T15:58:50.000Z</time>
      </trkpt>
      <trkpt lat="40.19159006886184215545654296875" lon="-1.60249675624072551727294921875">
        <ele>1470.199951171875</ele>
        <time>2022-08-25T15:58:52.000Z</time>
      </trkpt>
      <trkpt lat="40.191531814634799957275390625" lon="-1.60246406681835651397705078125">
        <ele>1471.4000244140625</ele>
        <time>2022-08-25T15:58:57.000Z</time>
      </trkpt>
      <trkpt lat="40.1915236003696918487548828125" lon="-1.60245803184807300567626953125">
        <ele>1471.5999755859375</ele>
        <time>2022-08-25T15:58:58.000Z</time>
      </trkpt>
      <trkpt lat="40.1914186589419841766357421875" lon="-1.6024175472557544708251953125">
        <ele>1472.800048828125</ele>
        <time>2022-08-25T15:59:05.000Z</time>
      </trkpt>
      <trkpt lat="40.19132268615067005157470703125" lon="-1.6023310460150241851806640625">
        <ele>1473.800048828125</ele>
        <time>2022-08-25T15:59:12.000Z</time>
      </trkpt>
      <trkpt lat="40.1912919245660305023193359375" lon="-1.60226809792220592498779296875">
        <ele>1474.800048828125</ele>
        <time>2022-08-25T15:59:17.000Z</time>
      </trkpt>
      <trkpt lat="40.19127407111227512359619140625" lon="-1.60224228166043758392333984375">
        <ele>1475.199951171875</ele>
        <time>2022-08-25T15:59:19.000Z</time>
      </trkpt>
      <trkpt lat="40.19125496037304401397705078125" lon="-1.6022093407809734344482421875">
        <ele>1475.800048828125</ele>
        <time>2022-08-25T15:59:23.000Z</time>
      </trkpt>
      <trkpt lat="40.1912211813032627105712890625" lon="-1.60217262804508209228515625">
        <ele>1476.5999755859375</ele>
        <time>2022-08-25T15:59:27.000Z</time>
      </trkpt>
      <trkpt lat="40.19117047078907489776611328125" lon="-1.602105237543582916259765625">
        <ele>1477.199951171875</ele>
        <time>2022-08-25T15:59:33.000Z</time>
      </trkpt>
      <trkpt lat="40.19112889654934406280517578125" lon="-1.60203541629016399383544921875">
        <ele>1477.4000244140625</ele>
        <time>2022-08-25T15:59:38.000Z</time>
      </trkpt>
      <trkpt lat="40.1910776831209659576416015625" lon="-1.60199216566979885101318359375">
        <ele>1478</ele>
        <time>2022-08-25T15:59:45.000Z</time>
      </trkpt>
      <trkpt lat="40.191054046154022216796875" lon="-1.6019793413579463958740234375">
        <ele>1478.199951171875</ele>
        <time>2022-08-25T15:59:47.000Z</time>
      </trkpt>
      <trkpt lat="40.1909422315657138824462890625" lon="-1.60189443267881870269775390625">
        <ele>1479.4000244140625</ele>
        <time>2022-08-25T15:59:55.000Z</time>
      </trkpt>
      <trkpt lat="40.19089437089860439300537109375" lon="-1.60184330306947231292724609375">
        <ele>1480.4000244140625</ele>
        <time>2022-08-25T16:00:00.000Z</time>
      </trkpt>
      <trkpt lat="40.19086235202848911285400390625" lon="-1.60180122591555118560791015625">
        <ele>1481</ele>
        <time>2022-08-25T16:00:04.000Z</time>
      </trkpt>
      <trkpt lat="40.19083284772932529449462890625" lon="-1.60173408687114715576171875">
        <ele>1481.4000244140625</ele>
        <time>2022-08-25T16:00:08.000Z</time>
      </trkpt>
      <trkpt lat="40.19081658683717250823974609375" lon="-1.6016943566501140594482421875">
        <ele>1481.800048828125</ele>
        <time>2022-08-25T16:00:10.000Z</time>
      </trkpt>
      <trkpt lat="40.1907871663570404052734375" lon="-1.60165672190487384796142578125">
        <ele>1482</ele>
        <time>2022-08-25T16:00:12.000Z</time>
      </trkpt>
      <trkpt lat="40.1906934566795825958251953125" lon="-1.60153551958501338958740234375">
        <ele>1482.4000244140625</ele>
        <time>2022-08-25T16:00:19.000Z</time>
      </trkpt>
      <trkpt lat="40.1906763575971126556396484375" lon="-1.60150668583810329437255859375">
        <ele>1482.5999755859375</ele>
        <time>2022-08-25T16:00:21.000Z</time>
      </trkpt>
      <trkpt lat="40.19059714861214160919189453125" lon="-1.60136117599904537200927734375">
        <ele>1483.199951171875</ele>
        <time>2022-08-25T16:00:29.000Z</time>
      </trkpt>
      <trkpt lat="40.190525986254215240478515625" lon="-1.6013040952384471893310546875">
        <ele>1483.5999755859375</ele>
        <time>2022-08-25T16:00:32.000Z</time>
      </trkpt>
      <trkpt lat="40.19046655856072902679443359375" lon="-1.6012387163937091827392578125">
        <ele>1484</ele>
        <time>2022-08-25T16:00:36.000Z</time>
      </trkpt>
      <trkpt lat="40.190287940204143524169921875" lon="-1.6011136583983898162841796875">
        <ele>1484.4000244140625</ele>
        <time>2022-08-25T16:00:44.000Z</time>
      </trkpt>
      <trkpt lat="40.190159864723682403564453125" lon="-1.60102858208119869232177734375">
        <ele>1484.5999755859375</ele>
        <time>2022-08-25T16:00:51.000Z</time>
      </trkpt>
      <trkpt lat="40.1900949887931346893310546875" lon="-1.60100243054330348968505859375">
        <ele>1484.800048828125</ele>
        <time>2022-08-25T16:00:54.000Z</time>
      </trkpt>
      <trkpt lat="40.18997219391167163848876953125" lon="-1.6009768657386302947998046875">
        <ele>1485.199951171875</ele>
        <time>2022-08-25T16:00:59.000Z</time>
      </trkpt>
      <trkpt lat="40.18987362273037433624267578125" lon="-1.600978039205074310302734375">
        <ele>1485.800048828125</ele>
        <time>2022-08-25T16:01:03.000Z</time>
      </trkpt>
      <trkpt lat="40.18977857194840908050537109375" lon="-1.60099538974463939666748046875">
        <ele>1486.4000244140625</ele>
        <time>2022-08-25T16:01:07.000Z</time>
      </trkpt>
      <trkpt lat="40.1897104270756244659423828125" lon="-1.60100159235298633575439453125">
        <ele>1486.800048828125</ele>
        <time>2022-08-25T16:01:10.000Z</time>
      </trkpt>
      <trkpt lat="40.1896249316632747650146484375" lon="-1.60098952241241931915283203125">
        <ele>1488</ele>
        <time>2022-08-25T16:01:14.000Z</time>
      </trkpt>
      <trkpt lat="40.189579837024211883544921875" lon="-1.60097912885248661041259765625">
        <ele>1488.199951171875</ele>
        <time>2022-08-25T16:01:16.000Z</time>
      </trkpt>
      <trkpt lat="40.1894603110849857330322265625" lon="-1.6009406559169292449951171875">
        <ele>1489</ele>
        <time>2022-08-25T16:01:22.000Z</time>
      </trkpt>
      <trkpt lat="40.18944413401186466217041015625" lon="-1.60092380829155445098876953125">
        <ele>1489.4000244140625</ele>
        <time>2022-08-25T16:01:24.000Z</time>
      </trkpt>
      <trkpt lat="40.1893146336078643798828125" lon="-1.600877456367015838623046875">
        <ele>1489.5999755859375</ele>
        <time>2022-08-25T16:01:30.000Z</time>
      </trkpt>
      <trkpt lat="40.189136601984500885009765625" lon="-1.60079522989690303802490234375">
        <ele>1489.800048828125</ele>
        <time>2022-08-25T16:01:37.000Z</time>
      </trkpt>
      <trkpt lat="40.18885153345763683319091796875" lon="-1.60072415135800838470458984375">
        <ele>1489.800048828125</ele>
        <time>2022-08-25T16:01:47.000Z</time>
      </trkpt>
      <trkpt lat="40.18858213908970355987548828125" lon="-1.60062340088188648223876953125">
        <ele>1490.199951171875</ele>
        <time>2022-08-25T16:01:56.000Z</time>
      </trkpt>
      <trkpt lat="40.18852497451007366180419921875" lon="-1.60060730762779712677001953125">
        <ele>1490.4000244140625</ele>
        <time>2022-08-25T16:01:58.000Z</time>
      </trkpt>
      <trkpt lat="40.18825507722795009613037109375" lon="-1.60051175393164157867431640625">
        <ele>1491.199951171875</ele>
        <time>2022-08-25T16:02:10.000Z</time>
      </trkpt>
      <trkpt lat="40.18823169171810150146484375" lon="-1.60050840117037296295166015625">
        <ele>1491.4000244140625</ele>
        <time>2022-08-25T16:02:11.000Z</time>
      </trkpt>
      <trkpt lat="40.18805692903697490692138671875" lon="-1.600493900477886199951171875">
        <ele>1492.4000244140625</ele>
        <time>2022-08-25T16:02:19.000Z</time>
      </trkpt>
      <trkpt lat="40.18803630955517292022705078125" lon="-1.60049356520175933837890625">
        <ele>1492.5999755859375</ele>
        <time>2022-08-25T16:02:20.000Z</time>
      </trkpt>
      <trkpt lat="40.1878771372139453887939453125" lon="-1.60046582110226154327392578125">
        <ele>1493.5999755859375</ele>
        <time>2022-08-25T16:02:27.000Z</time>
      </trkpt>
      <trkpt lat="40.18776758573949337005615234375" lon="-1.60046380944550037384033203125">
        <ele>1494.5999755859375</ele>
        <time>2022-08-25T16:02:33.000Z</time>
      </trkpt>
      <trkpt lat="40.1876759715378284454345703125" lon="-1.60042860545217990875244140625">
        <ele>1495.199951171875</ele>
        <time>2022-08-25T16:02:37.000Z</time>
      </trkpt>
      <trkpt lat="40.18756759352982044219970703125" lon="-1.60038049332797527313232421875">
        <ele>1495.5999755859375</ele>
        <time>2022-08-25T16:02:43.000Z</time>
      </trkpt>
      <trkpt lat="40.1875425316393375396728515625" lon="-1.6003708541393280029296875">
        <ele>1495.800048828125</ele>
        <time>2022-08-25T16:02:45.000Z</time>
      </trkpt>
      <trkpt lat="40.1874181441962718963623046875" lon="-1.600339002907276153564453125">
        <ele>1496.199951171875</ele>
        <time>2022-08-25T16:02:54.000Z</time>
      </trkpt>
      <trkpt lat="40.1872619055211544036865234375" lon="-1.60024277865886688232421875">
        <ele>1496.5999755859375</ele>
        <time>2022-08-25T16:03:00.000Z</time>
      </trkpt>
      <trkpt lat="40.1871914975345134735107421875" lon="-1.600209586322307586669921875">
        <ele>1496.5999755859375</ele>
        <time>2022-08-25T16:03:03.000Z</time>
      </trkpt>
      <trkpt lat="40.18700483255088329315185546875" lon="-1.60010875202715396881103515625">
        <ele>1497</ele>
        <time>2022-08-25T16:03:10.000Z</time>
      </trkpt>
      <trkpt lat="40.18676192499697208404541015625" lon="-1.59992803819477558135986328125">
        <ele>1496.800048828125</ele>
        <time>2022-08-25T16:03:19.000Z</time>
      </trkpt>
      <trkpt lat="40.186538882553577423095703125" lon="-1.5997212566435337066650390625">
        <ele>1496.199951171875</ele>
        <time>2022-08-25T16:03:27.000Z</time>
      </trkpt>
      <trkpt lat="40.18636596389114856719970703125" lon="-1.599564515054225921630859375">
        <ele>1496</ele>
        <time>2022-08-25T16:03:33.000Z</time>
      </trkpt>
      <trkpt lat="40.18622900359332561492919921875" lon="-1.59943317063152790069580078125">
        <ele>1495.800048828125</ele>
        <time>2022-08-25T16:03:38.000Z</time>
      </trkpt>
      <trkpt lat="40.1861952245235443115234375" lon="-1.5994025766849517822265625">
        <ele>1495.5999755859375</ele>
        <time>2022-08-25T16:03:39.000Z</time>
      </trkpt>
      <trkpt lat="40.1859948970377445220947265625" lon="-1.59920501522719860076904296875">
        <ele>1495.4000244140625</ele>
        <time>2022-08-25T16:03:45.000Z</time>
      </trkpt>
      <trkpt lat="40.18580303527414798736572265625" lon="-1.599022038280963897705078125">
        <ele>1494.5999755859375</ele>
        <time>2022-08-25T16:03:50.000Z</time>
      </trkpt>
      <trkpt lat="40.1856753788888454437255859375" lon="-1.5989036858081817626953125">
        <ele>1494</ele>
        <time>2022-08-25T16:03:53.000Z</time>
      </trkpt>
      <trkpt lat="40.185418389737606048583984375" lon="-1.59866337664425373077392578125">
        <ele>1493.4000244140625</ele>
        <time>2022-08-25T16:03:59.000Z</time>
      </trkpt>
      <trkpt lat="40.185349322855472564697265625" lon="-1.5985858440399169921875">
        <ele>1492.800048828125</ele>
        <time>2022-08-25T16:04:01.000Z</time>
      </trkpt>
      <trkpt lat="40.18524798564612865447998046875" lon="-1.59847520291805267333984375">
        <ele>1492.4000244140625</ele>
        <time>2022-08-25T16:04:04.000Z</time>
      </trkpt>
      <trkpt lat="40.18503575585782527923583984375" lon="-1.5982644818723201751708984375">
        <ele>1491.4000244140625</ele>
        <time>2022-08-25T16:04:09.000Z</time>
      </trkpt>
      <trkpt lat="40.1849840395152568817138671875" lon="-1.5982168726623058319091796875">
        <ele>1491.199951171875</ele>
        <time>2022-08-25T16:04:10.000Z</time>
      </trkpt>
      <trkpt lat="40.184793770313262939453125" lon="-1.5980314649641513824462890625">
        <ele>1490</ele>
        <time>2022-08-25T16:04:14.000Z</time>
      </trkpt>
      <trkpt lat="40.1847074367105960845947265625" lon="-1.5979362465441226959228515625">
        <ele>1489.4000244140625</ele>
        <time>2022-08-25T16:04:16.000Z</time>
      </trkpt>
      <trkpt lat="40.18452144227921962738037109375" lon="-1.5977464802563190460205078125">
        <ele>1489.199951171875</ele>
        <time>2022-08-25T16:04:20.000Z</time>
      </trkpt>
      <trkpt lat="40.1843252219259738922119140625" lon="-1.5975754894316196441650390625">
        <ele>1488</ele>
        <time>2022-08-25T16:04:24.000Z</time>
      </trkpt>
      <trkpt lat="40.18427417613565921783447265625" lon="-1.5975365974009037017822265625">
        <ele>1487.5999755859375</ele>
        <time>2022-08-25T16:04:25.000Z</time>
      </trkpt>
      <trkpt lat="40.184080302715301513671875" lon="-1.59739100374281406402587890625">
        <ele>1486.800048828125</ele>
        <time>2022-08-25T16:04:29.000Z</time>
      </trkpt>
      <trkpt lat="40.183904953300952911376953125" lon="-1.59725270234048366546630859375">
        <ele>1486.199951171875</ele>
        <time>2022-08-25T16:04:33.000Z</time>
      </trkpt>
      <trkpt lat="40.1837515644729137420654296875" lon="-1.5971067734062671661376953125">
        <ele>1485.800048828125</ele>
        <time>2022-08-25T16:04:37.000Z</time>
      </trkpt>
      <trkpt lat="40.18370722420513629913330078125" lon="-1.597073078155517578125">
        <ele>1485.800048828125</ele>
        <time>2022-08-25T16:04:38.000Z</time>
      </trkpt>
      <trkpt lat="40.18366388976573944091796875" lon="-1.597040556371212005615234375">
        <ele>1485.800048828125</ele>
        <time>2022-08-25T16:04:39.000Z</time>
      </trkpt>
      <trkpt lat="40.183336324989795684814453125" lon="-1.5967651270329952239990234375">
        <ele>1484.800048828125</ele>
        <time>2022-08-25T16:04:47.000Z</time>
      </trkpt>
      <trkpt lat="40.1832976005971431732177734375" lon="-1.5967336110770702362060546875">
        <ele>1484.5999755859375</ele>
        <time>2022-08-25T16:04:48.000Z</time>
      </trkpt>
      <trkpt lat="40.18308226950466632843017578125" lon="-1.59656857140362262725830078125">
        <ele>1483.800048828125</ele>
        <time>2022-08-25T16:04:54.000Z</time>
      </trkpt>
      <trkpt lat="40.1829717122018337249755859375" lon="-1.5964875183999538421630859375">
        <ele>1483.5999755859375</ele>
        <time>2022-08-25T16:04:57.000Z</time>
      </trkpt>
      <trkpt lat="40.18267340026795864105224609375" lon="-1.596244610846042633056640625">
        <ele>1482.800048828125</ele>
        <time>2022-08-25T16:05:04.000Z</time>
      </trkpt>
      <trkpt lat="40.182583294808864593505859375" lon="-1.59617110155522823333740234375">
        <ele>1482.5999755859375</ele>
        <time>2022-08-25T16:05:06.000Z</time>
      </trkpt>
      <trkpt lat="40.182375423610210418701171875" lon="-1.59598351456224918365478515625">
        <ele>1481.4000244140625</ele>
        <time>2022-08-25T16:05:11.000Z</time>
      </trkpt>
      <trkpt lat="40.1821921952068805694580078125" lon="-1.59582920372486114501953125">
        <ele>1480</ele>
        <time>2022-08-25T16:05:15.000Z</time>
      </trkpt>
      <trkpt lat="40.18209479749202728271484375" lon="-1.59575150348246097564697265625">
        <ele>1479</ele>
        <time>2022-08-25T16:05:17.000Z</time>
      </trkpt>
      <trkpt lat="40.18204576335847377777099609375" lon="-1.595715545117855072021484375">
        <ele>1478.800048828125</ele>
        <time>2022-08-25T16:05:18.000Z</time>
      </trkpt>
      <trkpt lat="40.1818103156983852386474609375" lon="-1.5955235995352268218994140625">
        <ele>1477.800048828125</ele>
        <time>2022-08-25T16:05:23.000Z</time>
      </trkpt>
      <trkpt lat="40.181730687618255615234375" lon="-1.59544338472187519073486328125">
        <ele>1477.4000244140625</ele>
        <time>2022-08-25T16:05:25.000Z</time>
      </trkpt>
      <trkpt lat="40.18164745531976222991943359375" lon="-1.5953807719051837921142578125">
        <ele>1476.800048828125</ele>
        <time>2022-08-25T16:05:27.000Z</time>
      </trkpt>
      <trkpt lat="40.181492306292057037353515625" lon="-1.59528496675193309783935546875">
        <ele>1476</ele>
        <time>2022-08-25T16:05:31.000Z</time>
      </trkpt>
      <trkpt lat="40.18145911395549774169921875" lon="-1.5952627547085285186767578125">
        <ele>1475.5999755859375</ele>
        <time>2022-08-25T16:05:32.000Z</time>
      </trkpt>
      <trkpt lat="40.1813603751361370086669921875" lon="-1.59517533145844936370849609375">
        <ele>1474.199951171875</ele>
        <time>2022-08-25T16:05:36.000Z</time>
      </trkpt>
      <trkpt lat="40.18133749254047870635986328125" lon="-1.59515731036663055419921875">
        <ele>1473.800048828125</ele>
        <time>2022-08-25T16:05:37.000Z</time>
      </trkpt>
      <trkpt lat="40.18124009482562541961669921875" lon="-1.59511079080402851104736328125">
        <ele>1472.800048828125</ele>
        <time>2022-08-25T16:05:40.000Z</time>
      </trkpt>
      <trkpt lat="40.18112727440893650054931640625" lon="-1.59506142139434814453125">
        <ele>1471.5999755859375</ele>
        <time>2022-08-25T16:05:43.000Z</time>
      </trkpt>
      <trkpt lat="40.18101252615451812744140625" lon="-1.5950206853449344635009765625">
        <ele>1470.5999755859375</ele>
        <time>2022-08-25T16:05:46.000Z</time>
      </trkpt>
      <trkpt lat="40.1808457262814044952392578125" lon="-1.594953797757625579833984375">
        <ele>1469.4000244140625</ele>
        <time>2022-08-25T16:05:50.000Z</time>
      </trkpt>
      <trkpt lat="40.18080465495586395263671875" lon="-1.59493468701839447021484375">
        <ele>1469</ele>
        <time>2022-08-25T16:05:51.000Z</time>
      </trkpt>
      <trkpt lat="40.180679261684417724609375" lon="-1.59486419521272182464599609375">
        <ele>1468.199951171875</ele>
        <time>2022-08-25T16:05:54.000Z</time>
      </trkpt>
      <trkpt lat="40.18056585453450679779052734375" lon="-1.59478205256164073944091796875">
        <ele>1467</ele>
        <time>2022-08-25T16:05:57.000Z</time>
      </trkpt>
      <trkpt lat="40.18053232692182064056396484375" lon="-1.594753302633762359619140625">
        <ele>1466.5999755859375</ele>
        <time>2022-08-25T16:05:58.000Z</time>
      </trkpt>
      <trkpt lat="40.18043719232082366943359375" lon="-1.59465364180505275726318359375">
        <ele>1466</ele>
        <time>2022-08-25T16:06:01.000Z</time>
      </trkpt>
      <trkpt lat="40.180330909788608551025390625" lon="-1.594532690942287445068359375">
        <ele>1465.800048828125</ele>
        <time>2022-08-25T16:06:04.000Z</time>
      </trkpt>
      <trkpt lat="40.18008842132985591888427734375" lon="-1.5942176990211009979248046875">
        <ele>1464.800048828125</ele>
        <time>2022-08-25T16:06:11.000Z</time>
      </trkpt>
      <trkpt lat="40.1800601743161678314208984375" lon="-1.5941764600574970245361328125">
        <ele>1464.800048828125</ele>
        <time>2022-08-25T16:06:12.000Z</time>
      </trkpt>
      <trkpt lat="40.1798087172210216522216796875" lon="-1.593913100659847259521484375">
        <ele>1464.199951171875</ele>
        <time>2022-08-25T16:06:20.000Z</time>
      </trkpt>
      <trkpt lat="40.17969153821468353271484375" lon="-1.59383338876068592071533203125">
        <ele>1463.800048828125</ele>
        <time>2022-08-25T16:06:23.000Z</time>
      </trkpt>
      <trkpt lat="40.17954644747078418731689453125" lon="-1.59369542263448238372802734375">
        <ele>1463.5999755859375</ele>
        <time>2022-08-25T16:06:27.000Z</time>
      </trkpt>
      <trkpt lat="40.17934687435626983642578125" lon="-1.593390405178070068359375">
        <ele>1463.4000244140625</ele>
        <time>2022-08-25T16:06:33.000Z</time>
      </trkpt>
      <trkpt lat="40.17922139726579189300537109375" lon="-1.5931310690939426422119140625">
        <ele>1462.5999755859375</ele>
        <time>2022-08-25T16:06:38.000Z</time>
      </trkpt>
      <trkpt lat="40.17919398844242095947265625" lon="-1.59308739937841892242431640625">
        <ele>1462.5999755859375</ele>
        <time>2022-08-25T16:06:39.000Z</time>
      </trkpt>
      <trkpt lat="40.17907588742673397064208984375" lon="-1.59293719567358493804931640625">
        <ele>1461.5999755859375</ele>
        <time>2022-08-25T16:06:43.000Z</time>
      </trkpt>
      <trkpt lat="40.17899894155561923980712890625" lon="-1.592875756323337554931640625">
        <ele>1461.4000244140625</ele>
        <time>2022-08-25T16:06:45.000Z</time>
      </trkpt>
      <trkpt lat="40.1789049804210662841796875" lon="-1.5928209386765956878662109375">
        <ele>1461.199951171875</ele>
        <time>2022-08-25T16:06:47.000Z</time>
      </trkpt>
      <trkpt lat="40.178752429783344268798828125" lon="-1.592762432992458343505859375">
        <ele>1460.5999755859375</ele>
        <time>2022-08-25T16:06:50.000Z</time>
      </trkpt>
      <trkpt lat="40.17870205454528331756591796875" lon="-1.5927471779286861419677734375">
        <ele>1460.4000244140625</ele>
        <time>2022-08-25T16:06:51.000Z</time>
      </trkpt>
      <trkpt lat="40.1784377731382846832275390625" lon="-1.59267199225723743438720703125">
        <ele>1459</ele>
        <time>2022-08-25T16:06:56.000Z</time>
      </trkpt>
      <trkpt lat="40.1783187501132488250732421875" lon="-1.5926321782171726226806640625">
        <ele>1458</ele>
        <time>2022-08-25T16:06:58.000Z</time>
      </trkpt>
      <trkpt lat="40.17825697548687458038330078125" lon="-1.5926083736121654510498046875">
        <ele>1457.4000244140625</ele>
        <time>2022-08-25T16:06:59.000Z</time>
      </trkpt>
      <trkpt lat="40.17819830216467380523681640625" lon="-1.5925844013690948486328125">
        <ele>1456.800048828125</ele>
        <time>2022-08-25T16:07:00.000Z</time>
      </trkpt>
      <trkpt lat="40.17802295275032520294189453125" lon="-1.5925178490579128265380859375">
        <ele>1455.5999755859375</ele>
        <time>2022-08-25T16:07:03.000Z</time>
      </trkpt>
      <trkpt lat="40.1778570748865604400634765625" lon="-1.59244165755808353424072265625">
        <ele>1454.199951171875</ele>
        <time>2022-08-25T16:07:06.000Z</time>
      </trkpt>
      <trkpt lat="40.1778007484972476959228515625" lon="-1.5924172662198543548583984375">
        <ele>1453.5999755859375</ele>
        <time>2022-08-25T16:07:07.000Z</time>
      </trkpt>
      <trkpt lat="40.17768952064216136932373046875" lon="-1.5923689864575862884521484375">
        <ele>1452.800048828125</ele>
        <time>2022-08-25T16:07:09.000Z</time>
      </trkpt>
      <trkpt lat="40.17757686786353588104248046875" lon="-1.59231475554406642913818359375">
        <ele>1451.5999755859375</ele>
        <time>2022-08-25T16:07:11.000Z</time>
      </trkpt>
      <trkpt lat="40.1774104870855808258056640625" lon="-1.5922392345964908599853515625">
        <ele>1450.4000244140625</ele>
        <time>2022-08-25T16:07:14.000Z</time>
      </trkpt>
      <trkpt lat="40.1773575134575366973876953125" lon="-1.592209227383136749267578125">
        <ele>1450</ele>
        <time>2022-08-25T16:07:15.000Z</time>
      </trkpt>
      <trkpt lat="40.177304036915302276611328125" lon="-1.592180393636226654052734375">
        <ele>1449.4000244140625</ele>
        <time>2022-08-25T16:07:16.000Z</time>
      </trkpt>
      <trkpt lat="40.177149139344692230224609375" lon="-1.59211032092571258544921875">
        <ele>1448</ele>
        <time>2022-08-25T16:07:19.000Z</time>
      </trkpt>
      <trkpt lat="40.17698728479444980621337890625" lon="-1.5920558385550975799560546875">
        <ele>1447</ele>
        <time>2022-08-25T16:07:22.000Z</time>
      </trkpt>
      <trkpt lat="40.17693565227091312408447265625" lon="-1.5920434333384037017822265625">
        <ele>1446.4000244140625</ele>
        <time>2022-08-25T16:07:23.000Z</time>
      </trkpt>
      <trkpt lat="40.17688318155705928802490234375" lon="-1.59203630872070789337158203125">
        <ele>1445.800048828125</ele>
        <time>2022-08-25T16:07:24.000Z</time>
      </trkpt>
      <trkpt lat="40.176838003098964691162109375" lon="-1.59203496761620044708251953125">
        <ele>1445.4000244140625</ele>
        <time>2022-08-25T16:07:25.000Z</time>
      </trkpt>
      <trkpt lat="40.17674538306891918182373046875" lon="-1.592035554349422454833984375">
        <ele>1444.199951171875</ele>
        <time>2022-08-25T16:07:27.000Z</time>
      </trkpt>
      <trkpt lat="40.1766997016966342926025390625" lon="-1.5920249931514263153076171875">
        <ele>1443.5999755859375</ele>
        <time>2022-08-25T16:07:28.000Z</time>
      </trkpt>
      <trkpt lat="40.1766551099717617034912109375" lon="-1.59200948663055896759033203125">
        <ele>1443</ele>
        <time>2022-08-25T16:07:29.000Z</time>
      </trkpt>
      <trkpt lat="40.1765580475330352783203125" lon="-1.59190555103123188018798828125">
        <ele>1441.5999755859375</ele>
        <time>2022-08-25T16:07:32.000Z</time>
      </trkpt>
      <trkpt lat="40.17654136754572391510009765625" lon="-1.59174445085227489471435546875">
        <ele>1440.4000244140625</ele>
        <time>2022-08-25T16:07:35.000Z</time>
      </trkpt>
      <trkpt lat="40.17655394040048122406005859375" lon="-1.5916880406439304351806640625">
        <ele>1440</ele>
        <time>2022-08-25T16:07:36.000Z</time>
      </trkpt>
      <trkpt lat="40.1765620708465576171875" lon="-1.591632552444934844970703125">
        <ele>1439.5999755859375</ele>
        <time>2022-08-25T16:07:37.000Z</time>
      </trkpt>
      <trkpt lat="40.17656818963587284088134765625" lon="-1.5915767289698123931884765625">
        <ele>1439</ele>
        <time>2022-08-25T16:07:38.000Z</time>
      </trkpt>
      <trkpt lat="40.1765823550522327423095703125" lon="-1.5914610587060451507568359375">
        <ele>1437.4000244140625</ele>
        <time>2022-08-25T16:07:40.000Z</time>
      </trkpt>
      <trkpt lat="40.17660833895206451416015625" lon="-1.59134144894778728485107421875">
        <ele>1436</ele>
        <time>2022-08-25T16:07:42.000Z</time>
      </trkpt>
      <trkpt lat="40.1766373403370380401611328125" lon="-1.591214127838611602783203125">
        <ele>1435</ele>
        <time>2022-08-25T16:07:44.000Z</time>
      </trkpt>
      <trkpt lat="40.1766530983150005340576171875" lon="-1.591148078441619873046875">
        <ele>1434.4000244140625</ele>
        <time>2022-08-25T16:07:45.000Z</time>
      </trkpt>
      <trkpt lat="40.17667229287326335906982421875" lon="-1.59100818447768688201904296875">
        <ele>1433.5999755859375</ele>
        <time>2022-08-25T16:07:47.000Z</time>
      </trkpt>
      <trkpt lat="40.176648236811161041259765625" lon="-1.590866781771183013916015625">
        <ele>1433</ele>
        <time>2022-08-25T16:07:49.000Z</time>
      </trkpt>
      <trkpt lat="40.17661630176007747650146484375" lon="-1.59080467186868190765380859375">
        <ele>1432.5999755859375</ele>
        <time>2022-08-25T16:07:50.000Z</time>
      </trkpt>
      <trkpt lat="40.1765277050435543060302734375" lon="-1.59072655253112316131591796875">
        <ele>1431.4000244140625</ele>
        <time>2022-08-25T16:07:52.000Z</time>
      </trkpt>
      <trkpt lat="40.17642620019614696502685546875" lon="-1.5907325036823749542236328125">
        <ele>1430</ele>
        <time>2022-08-25T16:07:54.000Z</time>
      </trkpt>
      <trkpt lat="40.17637507058680057525634765625" lon="-1.5907542966306209564208984375">
        <ele>1429.4000244140625</ele>
        <time>2022-08-25T16:07:55.000Z</time>
      </trkpt>
      <trkpt lat="40.1763273775577545166015625" lon="-1.59078002907335758209228515625">
        <ele>1428.5999755859375</ele>
        <time>2022-08-25T16:07:56.000Z</time>
      </trkpt>
      <trkpt lat="40.17623626627027988433837890625" lon="-1.590843312442302703857421875">
        <ele>1427.199951171875</ele>
        <time>2022-08-25T16:07:58.000Z</time>
      </trkpt>
      <trkpt lat="40.17615864984691143035888671875" lon="-1.59090558998286724090576171875">
        <ele>1426</ele>
        <time>2022-08-25T16:08:00.000Z</time>
      </trkpt>
      <trkpt lat="40.17612679861485958099365234375" lon="-1.59094364382326602935791015625">
        <ele>1425.4000244140625</ele>
        <time>2022-08-25T16:08:01.000Z</time>
      </trkpt>
      <trkpt lat="40.17609561793506145477294921875" lon="-1.59098605625331401824951171875">
        <ele>1425</ele>
        <time>2022-08-25T16:08:02.000Z</time>
      </trkpt>
      <trkpt lat="40.176039040088653564453125" lon="-1.591080687940120697021484375">
        <ele>1423.4000244140625</ele>
        <time>2022-08-25T16:08:04.000Z</time>
      </trkpt>
      <trkpt lat="40.1760174147784709930419921875" lon="-1.59113123081624507904052734375">
        <ele>1422.5999755859375</ele>
        <time>2022-08-25T16:08:05.000Z</time>
      </trkpt>
      <trkpt lat="40.17599687911570072174072265625" lon="-1.5911842882633209228515625">
        <ele>1421.800048828125</ele>
        <time>2022-08-25T16:08:06.000Z</time>
      </trkpt>
      <trkpt lat="40.1759590767323970794677734375" lon="-1.59131144173443317413330078125">
        <ele>1420.4000244140625</ele>
        <time>2022-08-25T16:08:08.000Z</time>
      </trkpt>
      <trkpt lat="40.175910294055938720703125" lon="-1.5914556942880153656005859375">
        <ele>1419</ele>
        <time>2022-08-25T16:08:10.000Z</time>
      </trkpt>
      <trkpt lat="40.17588414251804351806640625" lon="-1.591528952121734619140625">
        <ele>1418.4000244140625</ele>
        <time>2022-08-25T16:08:11.000Z</time>
      </trkpt>
      <trkpt lat="40.175854302942752838134765625" lon="-1.59160363487899303436279296875">
        <ele>1417.5999755859375</ele>
        <time>2022-08-25T16:08:12.000Z</time>
      </trkpt>
      <trkpt lat="40.1757786981761455535888671875" lon="-1.59182625822722911834716796875">
        <ele>1416</ele>
        <time>2022-08-25T16:08:15.000Z</time>
      </trkpt>
      <trkpt lat="40.1757609285414218902587890625" lon="-1.59190270118415355682373046875">
        <ele>1415.4000244140625</ele>
        <time>2022-08-25T16:08:16.000Z</time>
      </trkpt>
      <trkpt lat="40.1757475174963474273681640625" lon="-1.5919817425310611724853515625">
        <ele>1414.5999755859375</ele>
        <time>2022-08-25T16:08:17.000Z</time>
      </trkpt>
      <trkpt lat="40.17573083750903606414794921875" lon="-1.5920635499060153961181640625">
        <ele>1414</ele>
        <time>2022-08-25T16:08:18.000Z</time>
      </trkpt>
      <trkpt lat="40.1757092960178852081298828125" lon="-1.5921446867287158966064453125">
        <ele>1413.199951171875</ele>
        <time>2022-08-25T16:08:19.000Z</time>
      </trkpt>
      <trkpt lat="40.17565053887665271759033203125" lon="-1.5923005901277065277099609375">
        <ele>1412</ele>
        <time>2022-08-25T16:08:21.000Z</time>
      </trkpt>
      <trkpt lat="40.17558935098350048065185546875" lon="-1.59244358539581298828125">
        <ele>1410.5999755859375</ele>
        <time>2022-08-25T16:08:23.000Z</time>
      </trkpt>
      <trkpt lat="40.175555236637592315673828125" lon="-1.59250192344188690185546875">
        <ele>1409.800048828125</ele>
        <time>2022-08-25T16:08:24.000Z</time>
      </trkpt>
      <trkpt lat="40.1755173504352569580078125" lon="-1.59256436862051486968994140625">
        <ele>1409.199951171875</ele>
        <time>2022-08-25T16:08:25.000Z</time>
      </trkpt>
      <trkpt lat="40.17539556138217449188232421875" lon="-1.59274273552000522613525390625">
        <ele>1407.800048828125</ele>
        <time>2022-08-25T16:08:28.000Z</time>
      </trkpt>
      <trkpt lat="40.175262205302715301513671875" lon="-1.59290584735572338104248046875">
        <ele>1406.5999755859375</ele>
        <time>2022-08-25T16:08:31.000Z</time>
      </trkpt>
      <trkpt lat="40.17517008818686008453369140625" lon="-1.59300944767892360687255859375">
        <ele>1405.199951171875</ele>
        <time>2022-08-25T16:08:33.000Z</time>
      </trkpt>
      <trkpt lat="40.175087191164493560791015625" lon="-1.5931127965450286865234375">
        <ele>1404</ele>
        <time>2022-08-25T16:08:35.000Z</time>
      </trkpt>
      <trkpt lat="40.17505106516182422637939453125" lon="-1.59316333942115306854248046875">
        <ele>1403</ele>
        <time>2022-08-25T16:08:36.000Z</time>
      </trkpt>
      <trkpt lat="40.1750203035771846771240234375" lon="-1.59321136772632598876953125">
        <ele>1402.4000244140625</ele>
        <time>2022-08-25T16:08:37.000Z</time>
      </trkpt>
      <trkpt lat="40.1749569363892078399658203125" lon="-1.59329175017774105072021484375">
        <ele>1401.199951171875</ele>
        <time>2022-08-25T16:08:39.000Z</time>
      </trkpt>
      <trkpt lat="40.1749217323958873748779296875" lon="-1.59333064220845699310302734375">
        <ele>1399.800048828125</ele>
        <time>2022-08-25T16:08:40.000Z</time>
      </trkpt>
      <trkpt lat="40.1748509891331195831298828125" lon="-1.5934100188314914703369140625">
        <ele>1398.4000244140625</ele>
        <time>2022-08-25T16:08:42.000Z</time>
      </trkpt>
      <trkpt lat="40.1747738756239414215087890625" lon="-1.59347263164818286895751953125">
        <ele>1397</ele>
        <time>2022-08-25T16:08:44.000Z</time>
      </trkpt>
      <trkpt lat="40.17468963749706745147705078125" lon="-1.59347279928624629974365234375">
        <ele>1396</ele>
        <time>2022-08-25T16:08:46.000Z</time>
      </trkpt>
      <trkpt lat="40.17466197721660137176513671875" lon="-1.59346542321145534515380859375">
        <ele>1395.199951171875</ele>
        <time>2022-08-25T16:08:47.000Z</time>
      </trkpt>
      <trkpt lat="40.17462727613747119903564453125" lon="-1.593435667455196380615234375">
        <ele>1393.5999755859375</ele>
        <time>2022-08-25T16:08:49.000Z</time>
      </trkpt>
      <trkpt lat="40.17462082207202911376953125" lon="-1.5934127010405063629150390625">
        <ele>1392.5999755859375</ele>
        <time>2022-08-25T16:08:50.000Z</time>
      </trkpt>
      <trkpt lat="40.1746213249862194061279296875" lon="-1.593396104872226715087890625">
        <ele>1391.800048828125</ele>
        <time>2022-08-25T16:08:51.000Z</time>
      </trkpt>
      <trkpt lat="40.17462484538555145263671875" lon="-1.59338763915002346038818359375">
        <ele>1390.5999755859375</ele>
        <time>2022-08-25T16:08:53.000Z</time>
      </trkpt>
      <trkpt lat="40.1746295392513275146484375" lon="-1.593373976647853851318359375">
        <ele>1389.800048828125</ele>
        <time>2022-08-25T16:08:55.000Z</time>
      </trkpt>
      <trkpt lat="40.1747141964733600616455078125" lon="-1.5933515131473541259765625">
        <ele>1389.199951171875</ele>
        <time>2022-08-25T16:09:57.000Z</time>
      </trkpt>
      <trkpt lat="40.174724757671356201171875" lon="-1.59320273436605930328369140625">
        <ele>1389.199951171875</ele>
        <time>2022-08-25T16:10:01.000Z</time>
      </trkpt>
      <trkpt lat="40.17473422922194004058837890625" lon="-1.5931583940982818603515625">
        <ele>1389.199951171875</ele>
        <time>2022-08-25T16:10:02.000Z</time>
      </trkpt>
      <trkpt lat="40.174792818725109100341796875" lon="-1.59283393062651157379150390625">
        <ele>1389</ele>
        <time>2022-08-25T16:10:08.000Z</time>
      </trkpt>
      <trkpt lat="40.17481704242527484893798828125" lon="-1.59270652569830417633056640625">
        <ele>1388.199951171875</ele>
        <time>2022-08-25T16:10:10.000Z</time>
      </trkpt>
      <trkpt lat="40.174831040203571319580078125" lon="-1.59258448518812656402587890625">
        <ele>1387.5999755859375</ele>
        <time>2022-08-25T16:10:12.000Z</time>
      </trkpt>
      <trkpt lat="40.17483464442193508148193359375" lon="-1.592524386942386627197265625">
        <ele>1387.199951171875</ele>
        <time>2022-08-25T16:10:13.000Z</time>
      </trkpt>
      <trkpt lat="40.1748449541628360748291015625" lon="-1.59240595065057277679443359375">
        <ele>1385.800048828125</ele>
        <time>2022-08-25T16:10:15.000Z</time>
      </trkpt>
      <trkpt lat="40.1748610474169254302978515625" lon="-1.59228466451168060302734375">
        <ele>1384.199951171875</ele>
        <time>2022-08-25T16:10:17.000Z</time>
      </trkpt>
      <trkpt lat="40.17487085424363613128662109375" lon="-1.59222029149532318115234375">
        <ele>1383</ele>
        <time>2022-08-25T16:10:18.000Z</time>
      </trkpt>
      <trkpt lat="40.1748814992606639862060546875" lon="-1.5920736081898212432861328125">
        <ele>1381.199951171875</ele>
        <time>2022-08-25T16:10:20.000Z</time>
      </trkpt>
      <trkpt lat="40.17487831413745880126953125" lon="-1.59199590794742107391357421875">
        <ele>1380.4000244140625</ele>
        <time>2022-08-25T16:10:21.000Z</time>
      </trkpt>
      <trkpt lat="40.17486951313912868499755859375" lon="-1.5919180400669574737548828125">
        <ele>1379.5999755859375</ele>
        <time>2022-08-25T16:10:22.000Z</time>
      </trkpt>
      <trkpt lat="40.1748342253267765045166015625" lon="-1.59176959656178951263427734375">
        <ele>1378.199951171875</ele>
        <time>2022-08-25T16:10:24.000Z</time>
      </trkpt>
      <trkpt lat="40.174817629158496856689453125" lon="-1.5917004458606243133544921875">
        <ele>1377.5999755859375</ele>
        <time>2022-08-25T16:10:25.000Z</time>
      </trkpt>
      <trkpt lat="40.174810253083705902099609375" lon="-1.59163699485361576080322265625">
        <ele>1376.800048828125</ele>
        <time>2022-08-25T16:10:26.000Z</time>
      </trkpt>
      <trkpt lat="40.17480589449405670166015625" lon="-1.5915814228355884552001953125">
        <ele>1375.800048828125</ele>
        <time>2022-08-25T16:10:27.000Z</time>
      </trkpt>
      <trkpt lat="40.1748360693454742431640625" lon="-1.5914892219007015228271484375">
        <ele>1373.800048828125</ele>
        <time>2022-08-25T16:10:29.000Z</time>
      </trkpt>
      <trkpt lat="40.17488879151642322540283203125" lon="-1.5914100967347621917724609375">
        <ele>1372.5999755859375</ele>
        <time>2022-08-25T16:10:31.000Z</time>
      </trkpt>
      <trkpt lat="40.17495299689471721649169921875" lon="-1.5913331508636474609375">
        <ele>1371.5999755859375</ele>
        <time>2022-08-25T16:10:33.000Z</time>
      </trkpt>
      <trkpt lat="40.17498384229838848114013671875" lon="-1.59129501320421695709228515625">
        <ele>1371.4000244140625</ele>
        <time>2022-08-25T16:10:34.000Z</time>
      </trkpt>
      <trkpt lat="40.17506967298686504364013671875" lon="-1.59118437208235263824462890625">
        <ele>1370.199951171875</ele>
        <time>2022-08-25T16:10:37.000Z</time>
      </trkpt>
      <trkpt lat="40.17513572238385677337646484375" lon="-1.59108898602426052093505859375">
        <ele>1367.800048828125</ele>
        <time>2022-08-25T16:10:40.000Z</time>
      </trkpt>
      <trkpt lat="40.1751525700092315673828125" lon="-1.59105914644896984100341796875">
        <ele>1367.199951171875</ele>
        <time>2022-08-25T16:10:41.000Z</time>
      </trkpt>
      <trkpt lat="40.17516505904495716094970703125" lon="-1.5910275466740131378173828125">
        <ele>1366.199951171875</ele>
        <time>2022-08-25T16:10:42.000Z</time>
      </trkpt>
      <trkpt lat="40.17520026303827762603759765625" lon="-1.5909457392990589141845703125">
        <ele>1365</ele>
        <time>2022-08-25T16:10:44.000Z</time>
      </trkpt>
      <trkpt lat="40.17522926442325115203857421875" lon="-1.59085026942193508148193359375">
        <ele>1363.5999755859375</ele>
        <time>2022-08-25T16:10:46.000Z</time>
      </trkpt>
      <trkpt lat="40.175262875854969024658203125" lon="-1.5907546319067478179931640625">
        <ele>1362.4000244140625</ele>
        <time>2022-08-25T16:10:48.000Z</time>
      </trkpt>
      <trkpt lat="40.175319872796535491943359375" lon="-1.5905915200710296630859375">
        <ele>1361.199951171875</ele>
        <time>2022-08-25T16:10:51.000Z</time>
      </trkpt>
      <trkpt lat="40.17533906735479831695556640625" lon="-1.5905380435287952423095703125">
        <ele>1360.5999755859375</ele>
        <time>2022-08-25T16:10:52.000Z</time>
      </trkpt>
      <trkpt lat="40.17535281367599964141845703125" lon="-1.5904850699007511138916015625">
        <ele>1360</ele>
        <time>2022-08-25T16:10:53.000Z</time>
      </trkpt>
      <trkpt lat="40.1753666438162326812744140625" lon="-1.59038691781461238861083984375">
        <ele>1359</ele>
        <time>2022-08-25T16:10:55.000Z</time>
      </trkpt>
      <trkpt lat="40.17536823637783527374267578125" lon="-1.5903412364423274993896484375">
        <ele>1358.4000244140625</ele>
        <time>2022-08-25T16:10:56.000Z</time>
      </trkpt>
      <trkpt lat="40.1753777079284191131591796875" lon="-1.5902993269264698028564453125">
        <ele>1357.800048828125</ele>
        <time>2022-08-25T16:10:57.000Z</time>
      </trkpt>
      <trkpt lat="40.17538600601255893707275390625" lon="-1.5902433358132839202880859375">
        <ele>1356.4000244140625</ele>
        <time>2022-08-25T16:10:59.000Z</time>
      </trkpt>
      <trkpt lat="40.1753921248018741607666015625" lon="-1.5902282483875751495361328125">
        <ele>1355.800048828125</ele>
        <time>2022-08-25T16:11:00.000Z</time>
      </trkpt>
      <trkpt lat="40.1753938011825084686279296875" lon="-1.590187847614288330078125">
        <ele>1353.5999755859375</ele>
        <time>2022-08-25T16:11:04.000Z</time>
      </trkpt>
      <trkpt lat="40.17538466490805149078369140625" lon="-1.59017552621662616729736328125">
        <ele>1352.800048828125</ele>
        <time>2022-08-25T16:11:05.000Z</time>
      </trkpt>
      <trkpt lat="40.17537896521389484405517578125" lon="-1.590162031352519989013671875">
        <ele>1352.199951171875</ele>
        <time>2022-08-25T16:11:06.000Z</time>
      </trkpt>
      <trkpt lat="40.17537276260554790496826171875" lon="-1.5901487879455089569091796875">
        <ele>1351.4000244140625</ele>
        <time>2022-08-25T16:11:07.000Z</time>
      </trkpt>
      <trkpt lat="40.1753673143684864044189453125" lon="-1.5901269949972629547119140625">
        <ele>1351</ele>
        <time>2022-08-25T16:11:08.000Z</time>
      </trkpt>
      <trkpt lat="40.1753636263310909271240234375" lon="-1.590102016925811767578125">
        <ele>1349.800048828125</ele>
        <time>2022-08-25T16:11:09.000Z</time>
      </trkpt>
      <trkpt lat="40.17535834573209285736083984375" lon="-1.58998760394752025604248046875">
        <ele>1348.800048828125</ele>
        <time>2022-08-25T16:11:12.000Z</time>
      </trkpt>
      <trkpt lat="40.17536647617816925048828125" lon="-1.58984385430812835693359375">
        <ele>1347.4000244140625</ele>
        <time>2022-08-25T16:11:15.000Z</time>
      </trkpt>
      <trkpt lat="40.17536069266498088836669921875" lon="-1.5897286869585514068603515625">
        <ele>1346.800048828125</ele>
        <time>2022-08-25T16:11:17.000Z</time>
      </trkpt>
      <trkpt lat="40.17535164020955562591552734375" lon="-1.58954478800296783447265625">
        <ele>1346.4000244140625</ele>
        <time>2022-08-25T16:11:20.000Z</time>
      </trkpt>
      <trkpt lat="40.17533957026898860931396484375" lon="-1.589349322021007537841796875">
        <ele>1344.800048828125</ele>
        <time>2022-08-25T16:11:23.000Z</time>
      </trkpt>
      <trkpt lat="40.17533152364194393157958984375" lon="-1.58923088572919368743896484375">
        <ele>1343.5999755859375</ele>
        <time>2022-08-25T16:11:25.000Z</time>
      </trkpt>
      <trkpt lat="40.17533353529870510101318359375" lon="-1.5891248546540737152099609375">
        <ele>1342.4000244140625</ele>
        <time>2022-08-25T16:11:27.000Z</time>
      </trkpt>
      <trkpt lat="40.17533487640321254730224609375" lon="-1.58894657157361507415771484375">
        <ele>1341.199951171875</ele>
        <time>2022-08-25T16:11:30.000Z</time>
      </trkpt>
      <trkpt lat="40.17531149089336395263671875" lon="-1.5888063423335552215576171875">
        <ele>1340.199951171875</ele>
        <time>2022-08-25T16:11:32.000Z</time>
      </trkpt>
      <trkpt lat="40.1752938888967037200927734375" lon="-1.5887285582721233367919921875">
        <ele>1339.800048828125</ele>
        <time>2022-08-25T16:11:33.000Z</time>
      </trkpt>
      <trkpt lat="40.17517344094812870025634765625" lon="-1.58836050890386104583740234375">
        <ele>1338.5999755859375</ele>
        <time>2022-08-25T16:11:38.000Z</time>
      </trkpt>
      <trkpt lat="40.17513454891741275787353515625" lon="-1.588259674608707427978515625">
        <ele>1337</ele>
        <time>2022-08-25T16:11:40.000Z</time>
      </trkpt>
      <trkpt lat="40.17509632743895053863525390625" lon="-1.58818314783275127410888671875">
        <ele>1336.4000244140625</ele>
        <time>2022-08-25T16:11:42.000Z</time>
      </trkpt>
      <trkpt lat="40.17508006654679775238037109375" lon="-1.58814978785812854766845703125">
        <ele>1336</ele>
        <time>2022-08-25T16:11:43.000Z</time>
      </trkpt>
      <trkpt lat="40.174997337162494659423828125" lon="-1.587999165058135986328125">
        <ele>1335</ele>
        <time>2022-08-25T16:11:49.000Z</time>
      </trkpt>
      <trkpt lat="40.17498585395514965057373046875" lon="-1.58798835240304470062255859375">
        <ele>1334.800048828125</ele>
        <time>2022-08-25T16:11:50.000Z</time>
      </trkpt>
      <trkpt lat="40.1749535836279392242431640625" lon="-1.58797443844377994537353515625">
        <ele>1334.199951171875</ele>
        <time>2022-08-25T16:11:53.000Z</time>
      </trkpt>
      <trkpt lat="40.17491586506366729736328125" lon="-1.587956249713897705078125">
        <ele>1333.800048828125</ele>
        <time>2022-08-25T16:11:55.000Z</time>
      </trkpt>
      <trkpt lat="40.1748905517160892486572265625" lon="-1.5879490412771701812744140625">
        <ele>1333.5999755859375</ele>
        <time>2022-08-25T16:11:56.000Z</time>
      </trkpt>
      <trkpt lat="40.17480882816016674041748046875" lon="-1.5878959000110626220703125">
        <ele>1333.199951171875</ele>
        <time>2022-08-25T16:12:01.000Z</time>
      </trkpt>
      <trkpt lat="40.17479692585766315460205078125" lon="-1.587883494794368743896484375">
        <ele>1332.5999755859375</ele>
        <time>2022-08-25T16:12:04.000Z</time>
      </trkpt>
      <trkpt lat="40.17486222088336944580078125" lon="-1.58798818476498126983642578125">
        <ele>1331.800048828125</ele>
        <time>2022-08-25T16:16:03.000Z</time>
      </trkpt>
      <trkpt lat="40.17487538047134876251220703125" lon="-1.5880050323903560638427734375">
        <ele>1331.800048828125</ele>
        <time>2022-08-25T16:16:04.000Z</time>
      </trkpt>
      <trkpt lat="40.17494293861091136932373046875" lon="-1.5880352072417736053466796875">
        <ele>1331.800048828125</ele>
        <time>2022-08-25T16:16:08.000Z</time>
      </trkpt>
      <trkpt lat="40.17497353255748748779296875" lon="-1.587994135916233062744140625">
        <ele>1331.800048828125</ele>
        <time>2022-08-25T16:16:11.000Z</time>
      </trkpt>
      <trkpt lat="40.17497981898486614227294921875" lon="-1.5879413299262523651123046875">
        <ele>1332</ele>
        <time>2022-08-25T16:16:13.000Z</time>
      </trkpt>
      <trkpt lat="40.17496171407401561737060546875" lon="-1.587822474539279937744140625">
        <ele>1332.800048828125</ele>
        <time>2022-08-25T16:16:17.000Z</time>
      </trkpt>
      <trkpt lat="40.1749663241207599639892578125" lon="-1.58758300356566905975341796875">
        <ele>1333.199951171875</ele>
        <time>2022-08-25T16:16:25.000Z</time>
      </trkpt>
      <trkpt lat="40.1750836707651615142822265625" lon="-1.58742944709956645965576171875">
        <ele>1333.5999755859375</ele>
        <time>2022-08-25T16:16:32.000Z</time>
      </trkpt>
      <trkpt lat="40.1751182042062282562255859375" lon="-1.5873800776898860931396484375">
        <ele>1333.800048828125</ele>
        <time>2022-08-25T16:16:35.000Z</time>
      </trkpt>
      <trkpt lat="40.17517260275781154632568359375" lon="-1.5873224101960659027099609375">
        <ele>1334.4000244140625</ele>
        <time>2022-08-25T16:16:39.000Z</time>
      </trkpt>
      <trkpt lat="40.17522440291941165924072265625" lon="-1.58727086149156093597412109375">
        <ele>1335</ele>
        <time>2022-08-25T16:16:43.000Z</time>
      </trkpt>
      <trkpt lat="40.17526782117784023284912109375" lon="-1.58723398111760616302490234375">
        <ele>1335.800048828125</ele>
        <time>2022-08-25T16:16:47.000Z</time>
      </trkpt>
      <trkpt lat="40.1752791367471218109130859375" lon="-1.587228365242481231689453125">
        <ele>1336</ele>
        <time>2022-08-25T16:16:48.000Z</time>
      </trkpt>
      <trkpt lat="40.17533806152641773223876953125" lon="-1.587211601436138153076171875">
        <ele>1337.199951171875</ele>
        <time>2022-08-25T16:16:53.000Z</time>
      </trkpt>
      <trkpt lat="40.17536153085529804229736328125" lon="-1.587196178734302520751953125">
        <ele>1337.800048828125</ele>
        <time>2022-08-25T16:16:55.000Z</time>
      </trkpt>
      <trkpt lat="40.1753939688205718994140625" lon="-1.58716625533998012542724609375">
        <ele>1338.4000244140625</ele>
        <time>2022-08-25T16:16:58.000Z</time>
      </trkpt>
      <trkpt lat="40.1754440926015377044677734375" lon="-1.58715116791427135467529296875">
        <ele>1339.4000244140625</ele>
        <time>2022-08-25T16:17:02.000Z</time>
      </trkpt>
      <trkpt lat="40.17545507289469242095947265625" lon="-1.5871541015803813934326171875">
        <ele>1339.800048828125</ele>
        <time>2022-08-25T16:17:03.000Z</time>
      </trkpt>
      <trkpt lat="40.17548792995512485504150390625" lon="-1.58715351484715938568115234375">
        <ele>1340.5999755859375</ele>
        <time>2022-08-25T16:17:06.000Z</time>
      </trkpt>
      <trkpt lat="40.17554484307765960693359375" lon="-1.587159298360347747802734375">
        <ele>1341</ele>
        <time>2022-08-25T16:17:10.000Z</time>
      </trkpt>
      <trkpt lat="40.1756003312766551971435546875" lon="-1.58719760365784168243408203125">
        <ele>1341.800048828125</ele>
        <time>2022-08-25T16:17:14.000Z</time>
      </trkpt>
      <trkpt lat="40.17564802430570125579833984375" lon="-1.58725711517035961151123046875">
        <ele>1342</ele>
        <time>2022-08-25T16:17:18.000Z</time>
      </trkpt>
      <trkpt lat="40.1757418178021907806396484375" lon="-1.58740379847586154937744140625">
        <ele>1342.800048828125</ele>
        <time>2022-08-25T16:17:26.000Z</time>
      </trkpt>
      <trkpt lat="40.1757533848285675048828125" lon="-1.5874286927282810211181640625">
        <ele>1342.800048828125</ele>
        <time>2022-08-25T16:17:27.000Z</time>
      </trkpt>
      <trkpt lat="40.17586109228432178497314453125" lon="-1.58765978179872035980224609375">
        <ele>1342.800048828125</ele>
        <time>2022-08-25T16:17:34.000Z</time>
      </trkpt>
      <trkpt lat="40.1760392077267169952392578125" lon="-1.5879577584564685821533203125">
        <ele>1341.5999755859375</ele>
        <time>2022-08-25T16:17:43.000Z</time>
      </trkpt>
      <trkpt lat="40.1760618388652801513671875" lon="-1.5879879333078861236572265625">
        <ele>1340.4000244140625</ele>
        <time>2022-08-25T16:17:44.000Z</time>
      </trkpt>
      <trkpt lat="40.17610886134207248687744140625" lon="-1.5880402363836765289306640625">
        <ele>1339</ele>
        <time>2022-08-25T16:17:46.000Z</time>
      </trkpt>
      <trkpt lat="40.17616418190300464630126953125" lon="-1.5880930423736572265625">
        <ele>1337.4000244140625</ele>
        <time>2022-08-25T16:17:48.000Z</time>
      </trkpt>
      <trkpt lat="40.17619804479181766510009765625" lon="-1.5881250612437725067138671875">
        <ele>1336.800048828125</ele>
        <time>2022-08-25T16:17:49.000Z</time>
      </trkpt>
      <trkpt lat="40.17623207531869411468505859375" lon="-1.58816101960837841033935546875">
        <ele>1336.199951171875</ele>
        <time>2022-08-25T16:17:50.000Z</time>
      </trkpt>
      <trkpt lat="40.17630868591368198394775390625" lon="-1.5882434137165546417236328125">
        <ele>1334.4000244140625</ele>
        <time>2022-08-25T16:17:52.000Z</time>
      </trkpt>
      <trkpt lat="40.17645000480115413665771484375" lon="-1.5883721597492694854736328125">
        <ele>1333.199951171875</ele>
        <time>2022-08-25T16:17:55.000Z</time>
      </trkpt>
      <trkpt lat="40.176559723913669586181640625" lon="-1.58846058882772922515869140625">
        <ele>1332.199951171875</ele>
        <time>2022-08-25T16:17:57.000Z</time>
      </trkpt>
      <trkpt lat="40.176671035587787628173828125" lon="-1.58851255662739276885986328125">
        <ele>1330.800048828125</ele>
        <time>2022-08-25T16:17:59.000Z</time>
      </trkpt>
      <trkpt lat="40.17671839334070682525634765625" lon="-1.58852018415927886962890625">
        <ele>1329.800048828125</ele>
        <time>2022-08-25T16:18:00.000Z</time>
      </trkpt>
      <trkpt lat="40.1767506636679172515869140625" lon="-1.5885250456631183624267578125">
        <ele>1329</ele>
        <time>2022-08-25T16:18:01.000Z</time>
      </trkpt>
      <trkpt lat="40.176792405545711517333984375" lon="-1.58853351138532161712646484375">
        <ele>1327.5999755859375</ele>
        <time>2022-08-25T16:18:03.000Z</time>
      </trkpt>
      <trkpt lat="40.17680875025689601898193359375" lon="-1.58854004926979541778564453125">
        <ele>1327.199951171875</ele>
        <time>2022-08-25T16:18:04.000Z</time>
      </trkpt>
      <trkpt lat="40.17684035003185272216796875" lon="-1.58855949528515338897705078125">
        <ele>1326.4000244140625</ele>
        <time>2022-08-25T16:18:06.000Z</time>
      </trkpt>
      <trkpt lat="40.1769541762769222259521484375" lon="-1.5886051766574382781982421875">
        <ele>1325.4000244140625</ele>
        <time>2022-08-25T16:18:11.000Z</time>
      </trkpt>
      <trkpt lat="40.1769809983670711517333984375" lon="-1.58860794268548488616943359375">
        <ele>1325.4000244140625</ele>
        <time>2022-08-25T16:18:12.000Z</time>
      </trkpt>
      <trkpt lat="40.177122987806797027587890625" lon="-1.58862386830151081085205078125">
        <ele>1325.4000244140625</ele>
        <time>2022-08-25T16:18:17.000Z</time>
      </trkpt>
      <trkpt lat="40.17730596475303173065185546875" lon="-1.5885894186794757843017578125">
        <ele>1325.5999755859375</ele>
        <time>2022-08-25T16:18:23.000Z</time>
      </trkpt>
      <trkpt lat="40.17732859589159488677978515625" lon="-1.5885790251195430755615234375">
        <ele>1325.5999755859375</ele>
        <time>2022-08-25T16:18:27.000Z</time>
      </trkpt>
      <trkpt lat="40.17736095003783702850341796875" lon="-1.58856133930385112762451171875">
        <ele>1324.5999755859375</ele>
        <time>2022-08-25T16:18:48.000Z</time>
      </trkpt>
      <trkpt lat="40.1773967407643795013427734375" lon="-1.588500402867794036865234375">
        <ele>1324.5999755859375</ele>
        <time>2022-08-25T16:18:50.000Z</time>
      </trkpt>
      <trkpt lat="40.17747938632965087890625" lon="-1.58826361410319805145263671875">
        <ele>1324.199951171875</ele>
        <time>2022-08-25T16:18:55.000Z</time>
      </trkpt>
      <trkpt lat="40.17751400358974933624267578125" lon="-1.58817929215729236602783203125">
        <ele>1324</ele>
        <time>2022-08-25T16:18:57.000Z</time>
      </trkpt>
      <trkpt lat="40.17760268412530422210693359375" lon="-1.5880630351603031158447265625">
        <ele>1323</ele>
        <time>2022-08-25T16:19:01.000Z</time>
      </trkpt>
      <trkpt lat="40.17775456421077251434326171875" lon="-1.58789464272558689117431640625">
        <ele>1322.4000244140625</ele>
        <time>2022-08-25T16:19:07.000Z</time>
      </trkpt>
      <trkpt lat="40.17792220227420330047607421875" lon="-1.587570346891880035400390625">
        <ele>1322.5999755859375</ele>
        <time>2022-08-25T16:19:14.000Z</time>
      </trkpt>
      <trkpt lat="40.1779965497553348541259765625" lon="-1.58726013265550136566162109375">
        <ele>1323.800048828125</ele>
        <time>2022-08-25T16:19:21.000Z</time>
      </trkpt>
      <trkpt lat="40.17807475291192531585693359375" lon="-1.5869356691837310791015625">
        <ele>1324.4000244140625</ele>
        <time>2022-08-25T16:19:28.000Z</time>
      </trkpt>
      <trkpt lat="40.17821003682911396026611328125" lon="-1.58661958761513233184814453125">
        <ele>1324.4000244140625</ele>
        <time>2022-08-25T16:19:34.000Z</time>
      </trkpt>
      <trkpt lat="40.17824792303144931793212890625" lon="-1.586584635078907012939453125">
        <ele>1324.199951171875</ele>
        <time>2022-08-25T16:19:35.000Z</time>
      </trkpt>
      <trkpt lat="40.17838505096733570098876953125" lon="-1.58655974082648754119873046875">
        <ele>1322.5999755859375</ele>
        <time>2022-08-25T16:19:39.000Z</time>
      </trkpt>
      <trkpt lat="40.17843760550022125244140625" lon="-1.586581952869892120361328125">
        <ele>1321.199951171875</ele>
        <time>2022-08-25T16:19:41.000Z</time>
      </trkpt>
      <trkpt lat="40.1784947700798511505126953125" lon="-1.586643643677234649658203125">
        <ele>1319.5999755859375</ele>
        <time>2022-08-25T16:19:44.000Z</time>
      </trkpt>
      <trkpt lat="40.17851362936198711395263671875" lon="-1.58666585572063922882080078125">
        <ele>1319.4000244140625</ele>
        <time>2022-08-25T16:19:45.000Z</time>
      </trkpt>
      <trkpt lat="40.17860247753560543060302734375" lon="-1.5868724696338176727294921875">
        <ele>1319.199951171875</ele>
        <time>2022-08-25T16:19:50.000Z</time>
      </trkpt>
      <trkpt lat="40.178759135305881500244140625" lon="-1.58710171468555927276611328125">
        <ele>1319.4000244140625</ele>
        <time>2022-08-25T16:19:56.000Z</time>
      </trkpt>
      <trkpt lat="40.17896055243909358978271484375" lon="-1.5872764773666858673095703125">
        <ele>1320.199951171875</ele>
        <time>2022-08-25T16:20:01.000Z</time>
      </trkpt>
      <trkpt lat="40.1791566051542758941650390625" lon="-1.58731310628354549407958984375">
        <ele>1320.199951171875</ele>
        <time>2022-08-25T16:20:05.000Z</time>
      </trkpt>
      <trkpt lat="40.179345868527889251708984375" lon="-1.58737957477569580078125">
        <ele>1320.4000244140625</ele>
        <time>2022-08-25T16:20:10.000Z</time>
      </trkpt>
      <trkpt lat="40.17943580634891986846923828125" lon="-1.587414108216762542724609375">
        <ele>1320.199951171875</ele>
        <time>2022-08-25T16:20:12.000Z</time>
      </trkpt>
      <trkpt lat="40.17955650575459003448486328125" lon="-1.5874491445720195770263671875">
        <ele>1320.199951171875</ele>
        <time>2022-08-25T16:20:14.000Z</time>
      </trkpt>
      <trkpt lat="40.17995296977460384368896484375" lon="-1.58754562027752399444580078125">
        <ele>1319.800048828125</ele>
        <time>2022-08-25T16:20:20.000Z</time>
      </trkpt>
      <trkpt lat="40.180066712200641632080078125" lon="-1.587548889219760894775390625">
        <ele>1318.5999755859375</ele>
        <time>2022-08-25T16:20:22.000Z</time>
      </trkpt>
      <trkpt lat="40.18022353760898113250732421875" lon="-1.5875336341559886932373046875">
        <ele>1317.5999755859375</ele>
        <time>2022-08-25T16:20:25.000Z</time>
      </trkpt>
      <trkpt lat="40.1802703924477100372314453125" lon="-1.587525419890880584716796875">
        <ele>1317.4000244140625</ele>
        <time>2022-08-25T16:20:26.000Z</time>
      </trkpt>
      <trkpt lat="40.1804182492196559906005859375" lon="-1.5874478034675121307373046875">
        <ele>1316.5999755859375</ele>
        <time>2022-08-25T16:20:30.000Z</time>
      </trkpt>
      <trkpt lat="40.18044180236756801605224609375" lon="-1.58741737715899944305419921875">
        <ele>1316.4000244140625</ele>
        <time>2022-08-25T16:20:31.000Z</time>
      </trkpt>
      <trkpt lat="40.1804775930941104888916015625" lon="-1.58734898082911968231201171875">
        <ele>1315.199951171875</ele>
        <time>2022-08-25T16:20:33.000Z</time>
      </trkpt>
      <trkpt lat="40.18052763305604457855224609375" lon="-1.587232388556003570556640625">
        <ele>1314.199951171875</ele>
        <time>2022-08-25T16:20:37.000Z</time>
      </trkpt>
      <trkpt lat="40.18055520951747894287109375" lon="-1.58718955703079700469970703125">
        <ele>1314</ele>
        <time>2022-08-25T16:20:39.000Z</time>
      </trkpt>
      <trkpt lat="40.18066392280161380767822265625" lon="-1.58704698085784912109375">
        <ele>1313.800048828125</ele>
        <time>2022-08-25T16:20:45.000Z</time>
      </trkpt>
      <trkpt lat="40.18075226806104183197021484375" lon="-1.58692896366119384765625">
        <ele>1313.800048828125</ele>
        <time>2022-08-25T16:20:48.000Z</time>
      </trkpt>
      <trkpt lat="40.180784203112125396728515625" lon="-1.5868798457086086273193359375">
        <ele>1313.800048828125</ele>
        <time>2022-08-25T16:20:49.000Z</time>
      </trkpt>
      <trkpt lat="40.180813372135162353515625" lon="-1.58683307468891143798828125">
        <ele>1314</ele>
        <time>2022-08-25T16:20:50.000Z</time>
      </trkpt>
      <trkpt lat="40.18095578067004680633544921875" lon="-1.5866176597774028778076171875">
        <ele>1314</ele>
        <time>2022-08-25T16:20:55.000Z</time>
      </trkpt>
      <trkpt lat="40.18117823638021945953369140625" lon="-1.5864295698702335357666015625">
        <ele>1314</ele>
        <time>2022-08-25T16:21:01.000Z</time>
      </trkpt>
      <trkpt lat="40.18144813366234302520751953125" lon="-1.58633460290729999542236328125">
        <ele>1313.800048828125</ele>
        <time>2022-08-25T16:21:07.000Z</time>
      </trkpt>
      <trkpt lat="40.18152885138988494873046875" lon="-1.586283557116985321044921875">
        <ele>1313.199951171875</ele>
        <time>2022-08-25T16:21:11.000Z</time>
      </trkpt>
      <trkpt lat="40.1815246604382991790771484375" lon="-1.586276851594448089599609375">
        <ele>1312.5999755859375</ele>
        <time>2022-08-25T16:21:14.000Z</time>
      </trkpt>
      <trkpt lat="40.18153849057853221893310546875" lon="-1.58627509139478206634521484375">
        <ele>1312.199951171875</ele>
        <time>2022-08-25T16:21:47.000Z</time>
      </trkpt>
      <trkpt lat="40.18154821358621120452880859375" lon="-1.58626838587224483489990234375">
        <ele>1312.199951171875</ele>
        <time>2022-08-25T16:21:48.000Z</time>
      </trkpt>
      <trkpt lat="40.18157034181058406829833984375" lon="-1.5862535499036312103271484375">
        <ele>1312.199951171875</ele>
        <time>2022-08-25T16:21:52.000Z</time>
      </trkpt>
      <trkpt lat="40.18174636177718639373779296875" lon="-1.586266122758388519287109375">
        <ele>1311</ele>
        <time>2022-08-25T16:30:04.000Z</time>
      </trkpt>
      <trkpt lat="40.18177184276282787322998046875" lon="-1.58625732176005840301513671875">
        <ele>1311</ele>
        <time>2022-08-25T16:30:05.000Z</time>
      </trkpt>
      <trkpt lat="40.18195666372776031494140625" lon="-1.586119271814823150634765625">
        <ele>1311.4000244140625</ele>
        <time>2022-08-25T16:30:13.000Z</time>
      </trkpt>
      <trkpt lat="40.18203402869403362274169921875" lon="-1.58598423935472965240478515625">
        <ele>1312</ele>
        <time>2022-08-25T16:30:17.000Z</time>
      </trkpt>
      <trkpt lat="40.18208549357950687408447265625" lon="-1.58584426157176494598388671875">
        <ele>1312.199951171875</ele>
        <time>2022-08-25T16:30:20.000Z</time>
      </trkpt>
      <trkpt lat="40.18231197260320186614990234375" lon="-1.585457436740398406982421875">
        <ele>1312.5999755859375</ele>
        <time>2022-08-25T16:30:30.000Z</time>
      </trkpt>
      <trkpt lat="40.1823309995234012603759765625" lon="-1.58541946671903133392333984375">
        <ele>1312.800048828125</ele>
        <time>2022-08-25T16:30:31.000Z</time>
      </trkpt>
      <trkpt lat="40.1824979670345783233642578125" lon="-1.58511771820485591888427734375">
        <ele>1313</ele>
        <time>2022-08-25T16:30:38.000Z</time>
      </trkpt>
      <trkpt lat="40.18266535364091396331787109375" lon="-1.58482619561254978179931640625">
        <ele>1312.800048828125</ele>
        <time>2022-08-25T16:30:45.000Z</time>
      </trkpt>
      <trkpt lat="40.18286056816577911376953125" lon="-1.5844960324466228485107421875">
        <ele>1312.800048828125</ele>
        <time>2022-08-25T16:30:53.000Z</time>
      </trkpt>
      <trkpt lat="40.18314622342586517333984375" lon="-1.58410635776817798614501953125">
        <ele>1313</ele>
        <time>2022-08-25T16:31:01.000Z</time>
      </trkpt>
      <trkpt lat="40.183353424072265625" lon="-1.583791784942150115966796875">
        <ele>1312</ele>
        <time>2022-08-25T16:31:08.000Z</time>
      </trkpt>
      <trkpt lat="40.18338837660849094390869140625" lon="-1.583746187388896942138671875">
        <ele>1312</ele>
        <time>2022-08-25T16:31:09.000Z</time>
      </trkpt>
      <trkpt lat="40.18353120423853397369384765625" lon="-1.5836115740239620208740234375">
        <ele>1311.800048828125</ele>
        <time>2022-08-25T16:31:13.000Z</time>
      </trkpt>
      <trkpt lat="40.1836841739714145660400390625" lon="-1.5834756195545196533203125">
        <ele>1311.5999755859375</ele>
        <time>2022-08-25T16:31:18.000Z</time>
      </trkpt>
      <trkpt lat="40.18374435603618621826171875" lon="-1.5834335424005985260009765625">
        <ele>1311.5999755859375</ele>
        <time>2022-08-25T16:31:20.000Z</time>
      </trkpt>
      <trkpt lat="40.18381702713668346405029296875" lon="-1.58333119936287403106689453125">
        <ele>1311.5999755859375</ele>
        <time>2022-08-25T16:31:23.000Z</time>
      </trkpt>
      <trkpt lat="40.1838320307433605194091796875" lon="-1.5832796506583690643310546875">
        <ele>1311.5999755859375</ele>
        <time>2022-08-25T16:31:24.000Z</time>
      </trkpt>
      <trkpt lat="40.183853320777416229248046875" lon="-1.5831403434276580810546875">
        <ele>1311.4000244140625</ele>
        <time>2022-08-25T16:31:28.000Z</time>
      </trkpt>
      <trkpt lat="40.183855332434177398681640625" lon="-1.58292165957391262054443359375">
        <ele>1311</ele>
        <time>2022-08-25T16:31:35.000Z</time>
      </trkpt>
      <trkpt lat="40.183776877820491790771484375" lon="-1.582673303782939910888671875">
        <ele>1311</ele>
        <time>2022-08-25T16:31:43.000Z</time>
      </trkpt>
      <trkpt lat="40.183558948338031768798828125" lon="-1.5825772471725940704345703125">
        <ele>1311</ele>
        <time>2022-08-25T16:31:48.000Z</time>
      </trkpt>
      <trkpt lat="40.18325175158679485321044921875" lon="-1.58252771012485027313232421875">
        <ele>1311</ele>
        <time>2022-08-25T16:31:53.000Z</time>
      </trkpt>
      <trkpt lat="40.182830058038234710693359375" lon="-1.58254765905439853668212890625">
        <ele>1310</ele>
        <time>2022-08-25T16:32:00.000Z</time>
      </trkpt>
      <trkpt lat="40.1826560497283935546875" lon="-1.58251580782234668731689453125">
        <ele>1309</ele>
        <time>2022-08-25T16:32:03.000Z</time>
      </trkpt>
      <trkpt lat="40.18260173499584197998046875" lon="-1.5824910812079906463623046875">
        <ele>1308.5999755859375</ele>
        <time>2022-08-25T16:32:04.000Z</time>
      </trkpt>
      <trkpt lat="40.18251313827931880950927734375" lon="-1.5824062563478946685791015625">
        <ele>1307.800048828125</ele>
        <time>2022-08-25T16:32:06.000Z</time>
      </trkpt>
      <trkpt lat="40.1823936961591243743896484375" lon="-1.58212671987712383270263671875">
        <ele>1307</ele>
        <time>2022-08-25T16:32:10.000Z</time>
      </trkpt>
      <trkpt lat="40.18230937421321868896484375" lon="-1.58191381953656673431396484375">
        <ele>1306.800048828125</ele>
        <time>2022-08-25T16:32:13.000Z</time>
      </trkpt>
      <trkpt lat="40.18220099620521068572998046875" lon="-1.58174031414091587066650390625">
        <ele>1306.5999755859375</ele>
        <time>2022-08-25T16:32:16.000Z</time>
      </trkpt>
      <trkpt lat="40.182140059769153594970703125" lon="-1.5816156752407550811767578125">
        <ele>1306.5999755859375</ele>
        <time>2022-08-25T16:32:18.000Z</time>
      </trkpt>
      <trkpt lat="40.1820996589958667755126953125" lon="-1.5814748592674732208251953125">
        <ele>1305.800048828125</ele>
        <time>2022-08-25T16:32:20.000Z</time>
      </trkpt>
      <trkpt lat="40.18206370063126087188720703125" lon="-1.58126212656497955322265625">
        <ele>1304.800048828125</ele>
        <time>2022-08-25T16:32:23.000Z</time>
      </trkpt>
      <trkpt lat="40.18203084357082843780517578125" lon="-1.58099952153861522674560546875">
        <ele>1304.4000244140625</ele>
        <time>2022-08-25T16:32:27.000Z</time>
      </trkpt>
      <trkpt lat="40.18203176558017730712890625" lon="-1.58080212771892547607421875">
        <ele>1304</ele>
        <time>2022-08-25T16:32:30.000Z</time>
      </trkpt>
      <trkpt lat="40.1820419915020465850830078125" lon="-1.58066692762076854705810546875">
        <ele>1303.800048828125</ele>
        <time>2022-08-25T16:32:32.000Z</time>
      </trkpt>
      <trkpt lat="40.18204760737717151641845703125" lon="-1.5805981121957302093505859375">
        <ele>1303.800048828125</ele>
        <time>2022-08-25T16:32:33.000Z</time>
      </trkpt>
      <trkpt lat="40.1821397244930267333984375" lon="-1.58019804395735263824462890625">
        <ele>1303.5999755859375</ele>
        <time>2022-08-25T16:32:39.000Z</time>
      </trkpt>
      <trkpt lat="40.18217249773442745208740234375" lon="-1.57983879558742046356201171875">
        <ele>1303.4000244140625</ele>
        <time>2022-08-25T16:32:45.000Z</time>
      </trkpt>
      <trkpt lat="40.18212656490504741668701171875" lon="-1.57940872013568878173828125">
        <ele>1303</ele>
        <time>2022-08-25T16:32:52.000Z</time>
      </trkpt>
      <trkpt lat="40.18205733038485050201416015625" lon="-1.579163968563079833984375">
        <ele>1303</ele>
        <time>2022-08-25T16:32:56.000Z</time>
      </trkpt>
      <trkpt lat="40.1819997467100620269775390625" lon="-1.579040251672267913818359375">
        <ele>1303</ele>
        <time>2022-08-25T16:32:58.000Z</time>
      </trkpt>
      <trkpt lat="40.181928165256977081298828125" lon="-1.57892525196075439453125">
        <ele>1303</ele>
        <time>2022-08-25T16:33:00.000Z</time>
      </trkpt>
      <trkpt lat="40.1817454397678375244140625" lon="-1.57865359447896480560302734375">
        <ele>1303</ele>
        <time>2022-08-25T16:33:05.000Z</time>
      </trkpt>
      <trkpt lat="40.18166623078286647796630859375" lon="-1.5785566158592700958251953125">
        <ele>1303</ele>
        <time>2022-08-25T16:33:07.000Z</time>
      </trkpt>
      <trkpt lat="40.18153983168303966522216796875" lon="-1.57845519483089447021484375">
        <ele>1302.800048828125</ele>
        <time>2022-08-25T16:33:10.000Z</time>
      </trkpt>
      <trkpt lat="40.18146003596484661102294921875" lon="-1.57838679850101470947265625">
        <ele>1302.5999755859375</ele>
        <time>2022-08-25T16:33:12.000Z</time>
      </trkpt>
      <trkpt lat="40.1813654042780399322509765625" lon="-1.57822729088366031646728515625">
        <ele>1302.4000244140625</ele>
        <time>2022-08-25T16:33:15.000Z</time>
      </trkpt>
      <trkpt lat="40.18133933655917644500732421875" lon="-1.57816844992339611053466796875">
        <ele>1302.4000244140625</ele>
        <time>2022-08-25T16:33:16.000Z</time>
      </trkpt>
      <trkpt lat="40.18130899406969547271728515625" lon="-1.57811128534376621246337890625">
        <ele>1302.4000244140625</ele>
        <time>2022-08-25T16:33:17.000Z</time>
      </trkpt>
      <trkpt lat="40.18118477426469326019287109375" lon="-1.578025035560131072998046875">
        <ele>1302.199951171875</ele>
        <time>2022-08-25T16:33:20.000Z</time>
      </trkpt>
      <trkpt lat="40.1810985244810581207275390625" lon="-1.5780355967581272125244140625">
        <ele>1302.199951171875</ele>
        <time>2022-08-25T16:33:22.000Z</time>
      </trkpt>
      <trkpt lat="40.18099869601428508758544921875" lon="-1.57800248824059963226318359375">
        <ele>1301.5999755859375</ele>
        <time>2022-08-25T16:33:25.000Z</time>
      </trkpt>
      <trkpt lat="40.18084220588207244873046875" lon="-1.57777869142591953277587890625">
        <ele>1300.800048828125</ele>
        <time>2022-08-25T16:33:32.000Z</time>
      </trkpt>
      <trkpt lat="40.180699713528156280517578125" lon="-1.5776409767568111419677734375">
        <ele>1300.800048828125</ele>
        <time>2022-08-25T16:33:38.000Z</time>
      </trkpt>
      <trkpt lat="40.18047340214252471923828125" lon="-1.57745498232543468475341796875">
        <ele>1302</ele>
        <time>2022-08-25T16:33:48.000Z</time>
      </trkpt>
      <trkpt lat="40.180314816534519195556640625" lon="-1.57730863429605960845947265625">
        <ele>1303</ele>
        <time>2022-08-25T16:33:58.000Z</time>
      </trkpt>
      <trkpt lat="40.1802278123795986175537109375" lon="-1.57719614915549755096435546875">
        <ele>1304.199951171875</ele>
        <time>2022-08-25T16:34:06.000Z</time>
      </trkpt>
      <trkpt lat="40.1802194304764270782470703125" lon="-1.5771471150219440460205078125">
        <ele>1304.5999755859375</ele>
        <time>2022-08-25T16:34:09.000Z</time>
      </trkpt>
      <trkpt lat="40.18018372356891632080078125" lon="-1.5771085582673549652099609375">
        <ele>1305.199951171875</ele>
        <time>2022-08-25T16:34:12.000Z</time>
      </trkpt>
      <trkpt lat="40.18011406995356082916259765625" lon="-1.57703739590942859649658203125">
        <ele>1306</ele>
        <time>2022-08-25T16:34:17.000Z</time>
      </trkpt>
      <trkpt lat="40.1801173388957977294921875" lon="-1.5770156867802143096923828125">
        <ele>1306</ele>
        <time>2022-08-25T16:34:18.000Z</time>
      </trkpt>
      <trkpt lat="40.18010300584137439727783203125" lon="-1.577003784477710723876953125">
        <ele>1306.4000244140625</ele>
        <time>2022-08-25T16:34:19.000Z</time>
      </trkpt>
      <trkpt lat="40.18007182516157627105712890625" lon="-1.576969586312770843505859375">
        <ele>1307.199951171875</ele>
        <time>2022-08-25T16:34:22.000Z</time>
      </trkpt>
      <trkpt lat="40.180046260356903076171875" lon="-1.57695190049707889556884765625">
        <ele>1307.5999755859375</ele>
        <time>2022-08-25T16:34:24.000Z</time>
      </trkpt>
      <trkpt lat="40.1800437457859516143798828125" lon="-1.5769348852336406707763671875">
        <ele>1307.800048828125</ele>
        <time>2022-08-25T16:34:25.000Z</time>
      </trkpt>
      <trkpt lat="40.17998482100665569305419921875" lon="-1.57690580002963542938232421875">
        <ele>1308.199951171875</ele>
        <time>2022-08-25T16:34:28.000Z</time>
      </trkpt>
      <trkpt lat="40.17993436194956302642822265625" lon="-1.57685601152479648590087890625">
        <ele>1308.800048828125</ele>
        <time>2022-08-25T16:34:31.000Z</time>
      </trkpt>
      <trkpt lat="40.1799220405519008636474609375" lon="-1.57683757133781909942626953125">
        <ele>1309</ele>
        <time>2022-08-25T16:34:32.000Z</time>
      </trkpt>
      <trkpt lat="40.17989044077694416046142578125" lon="-1.57680320553481578826904296875">
        <ele>1309.5999755859375</ele>
        <time>2022-08-25T16:34:35.000Z</time>
      </trkpt>
      <trkpt lat="40.17986160703003406524658203125" lon="-1.57678359188139438629150390625">
        <ele>1309.800048828125</ele>
        <time>2022-08-25T16:34:37.000Z</time>
      </trkpt>
      <trkpt lat="40.1797859184443950653076171875" lon="-1.57670446671545505523681640625">
        <ele>1310.800048828125</ele>
        <time>2022-08-25T16:34:44.000Z</time>
      </trkpt>
      <trkpt lat="40.17977108247578144073486328125" lon="-1.576694659888744354248046875">
        <ele>1311</ele>
        <time>2022-08-25T16:34:45.000Z</time>
      </trkpt>
      <trkpt lat="40.1797577552497386932373046875" lon="-1.57668669708073139190673828125">
        <ele>1311</ele>
        <time>2022-08-25T16:34:46.000Z</time>
      </trkpt>
      <trkpt lat="40.1797031052410602569580078125" lon="-1.5766629762947559356689453125">
        <ele>1312</ele>
        <time>2022-08-25T16:34:50.000Z</time>
      </trkpt>
      <trkpt lat="40.17962188459932804107666015625" lon="-1.57663892023265361785888671875">
        <ele>1313</ele>
        <time>2022-08-25T16:34:55.000Z</time>
      </trkpt>
      <trkpt lat="40.17960897646844387054443359375" lon="-1.576632298529148101806640625">
        <ele>1313.199951171875</ele>
        <time>2022-08-25T16:34:56.000Z</time>
      </trkpt>
      <trkpt lat="40.17956019379198551177978515625" lon="-1.57659432850778102874755859375">
        <ele>1314.4000244140625</ele>
        <time>2022-08-25T16:35:00.000Z</time>
      </trkpt>
      <trkpt lat="40.1795260794460773468017578125" lon="-1.57655225135385990142822265625">
        <ele>1315.199951171875</ele>
        <time>2022-08-25T16:35:04.000Z</time>
      </trkpt>
      <trkpt lat="40.179508812725543975830078125" lon="-1.57651704736053943634033203125">
        <ele>1315.5999755859375</ele>
        <time>2022-08-25T16:35:06.000Z</time>
      </trkpt>
      <trkpt lat="40.17943027429282665252685546875" lon="-1.57643239013850688934326171875">
        <ele>1316.199951171875</ele>
        <time>2022-08-25T16:35:11.000Z</time>
      </trkpt>
      <trkpt lat="40.17930773086845874786376953125" lon="-1.576317809522151947021484375">
        <ele>1316.4000244140625</ele>
        <time>2022-08-25T16:35:18.000Z</time>
      </trkpt>
      <trkpt lat="40.17927520908415317535400390625" lon="-1.57628352753818035125732421875">
        <ele>1316.5999755859375</ele>
        <time>2022-08-25T16:35:20.000Z</time>
      </trkpt>
      <trkpt lat="40.17923153936862945556640625" lon="-1.57626039348542690277099609375">
        <ele>1317</ele>
        <time>2022-08-25T16:35:22.000Z</time>
      </trkpt>
      <trkpt lat="40.17921016551554203033447265625" lon="-1.5762484073638916015625">
        <ele>1317.199951171875</ele>
        <time>2022-08-25T16:35:23.000Z</time>
      </trkpt>
      <trkpt lat="40.1790094189345836639404296875" lon="-1.57615696080029010772705078125">
        <ele>1317.800048828125</ele>
        <time>2022-08-25T16:35:32.000Z</time>
      </trkpt>
      <trkpt lat="40.17882392741739749908447265625" lon="-1.57602771185338497161865234375">
        <ele>1318.5999755859375</ele>
        <time>2022-08-25T16:35:40.000Z</time>
      </trkpt>
      <trkpt lat="40.178774558007717132568359375" lon="-1.57600633800029754638671875">
        <ele>1319</ele>
        <time>2022-08-25T16:35:42.000Z</time>
      </trkpt>
      <trkpt lat="40.17865008674561977386474609375" lon="-1.5759411267936229705810546875">
        <ele>1319.800048828125</ele>
        <time>2022-08-25T16:35:48.000Z</time>
      </trkpt>
      <trkpt lat="40.17863298766314983367919921875" lon="-1.57592260278761386871337890625">
        <ele>1320</ele>
        <time>2022-08-25T16:35:49.000Z</time>
      </trkpt>
      <trkpt lat="40.17853374592959880828857421875" lon="-1.5758341737091541290283203125">
        <ele>1320.800048828125</ele>
        <time>2022-08-25T16:35:55.000Z</time>
      </trkpt>
      <trkpt lat="40.17851446755230426788330078125" lon="-1.57582067884504795074462890625">
        <ele>1321</ele>
        <time>2022-08-25T16:35:56.000Z</time>
      </trkpt>
      <trkpt lat="40.17838605679571628570556640625" lon="-1.575757227838039398193359375">
        <ele>1322.199951171875</ele>
        <time>2022-08-25T16:36:03.000Z</time>
      </trkpt>
      <trkpt lat="40.17818874679505825042724609375" lon="-1.575634516775608062744140625">
        <ele>1323.199951171875</ele>
        <time>2022-08-25T16:36:12.000Z</time>
      </trkpt>
      <trkpt lat="40.17814256250858306884765625" lon="-1.5756038390100002288818359375">
        <ele>1323.4000244140625</ele>
        <time>2022-08-25T16:36:14.000Z</time>
      </trkpt>
      <trkpt lat="40.17806771211326122283935546875" lon="-1.57548154704272747039794921875">
        <ele>1323.800048828125</ele>
        <time>2022-08-25T16:36:19.000Z</time>
      </trkpt>
      <trkpt lat="40.1779499463737010955810546875" lon="-1.57532748766243457794189453125">
        <ele>1324.199951171875</ele>
        <time>2022-08-25T16:36:25.000Z</time>
      </trkpt>
      <trkpt lat="40.1777367107570171356201171875" lon="-1.5751736797392368316650390625">
        <ele>1324.199951171875</ele>
        <time>2022-08-25T16:36:31.000Z</time>
      </trkpt>
      <trkpt lat="40.177595727145671844482421875" lon="-1.5750305168330669403076171875">
        <ele>1324.4000244140625</ele>
        <time>2022-08-25T16:36:34.000Z</time>
      </trkpt>
      <trkpt lat="40.17749086953699588775634765625" lon="-1.5749064646661281585693359375">
        <ele>1324.199951171875</ele>
        <time>2022-08-25T16:36:36.000Z</time>
      </trkpt>
      <trkpt lat="40.1772314496338367462158203125" lon="-1.57462223432958126068115234375">
        <ele>1323.199951171875</ele>
        <time>2022-08-25T16:36:42.000Z</time>
      </trkpt>
      <trkpt lat="40.17711267806589603424072265625" lon="-1.574512012302875518798828125">
        <ele>1323</ele>
        <time>2022-08-25T16:36:47.000Z</time>
      </trkpt>
      <trkpt lat="40.176975466310977935791015625" lon="-1.574408747255802154541015625">
        <ele>1324.199951171875</ele>
        <time>2022-08-25T16:36:55.000Z</time>
      </trkpt>
      <trkpt lat="40.176928527653217315673828125" lon="-1.57439374364912509918212890625">
        <ele>1324.5999755859375</ele>
        <time>2022-08-25T16:36:58.000Z</time>
      </trkpt>
      <trkpt lat="40.1768301241099834442138671875" lon="-1.5743797458708286285400390625">
        <ele>1325.800048828125</ele>
        <time>2022-08-25T16:37:04.000Z</time>
      </trkpt>
      <trkpt lat="40.17675376497209072113037109375" lon="-1.57435099594295024871826171875">
        <ele>1327</ele>
        <time>2022-08-25T16:37:09.000Z</time>
      </trkpt>
      <trkpt lat="40.1767218299210071563720703125" lon="-1.5743158757686614990234375">
        <ele>1327.800048828125</ele>
        <time>2022-08-25T16:37:12.000Z</time>
      </trkpt>
      <trkpt lat="40.1767033897340297698974609375" lon="-1.57428980804979801177978515625">
        <ele>1328.199951171875</ele>
        <time>2022-08-25T16:37:14.000Z</time>
      </trkpt>
      <trkpt lat="40.176659636199474334716796875" lon="-1.5742488205432891845703125">
        <ele>1328.800048828125</ele>
        <time>2022-08-25T16:37:17.000Z</time>
      </trkpt>
      <trkpt lat="40.17664597369730472564697265625" lon="-1.57423934899270534515380859375">
        <ele>1329.4000244140625</ele>
        <time>2022-08-25T16:37:18.000Z</time>
      </trkpt>
      <trkpt lat="40.17655846662819385528564453125" lon="-1.57419475726783275604248046875">
        <ele>1330.4000244140625</ele>
        <time>2022-08-25T16:37:23.000Z</time>
      </trkpt>
      <trkpt lat="40.176476575434207916259765625" lon="-1.57413859851658344268798828125">
        <ele>1331.199951171875</ele>
        <time>2022-08-25T16:37:27.000Z</time>
      </trkpt>
      <trkpt lat="40.17643592320382595062255859375" lon="-1.57409283332526683807373046875">
        <ele>1331.5999755859375</ele>
        <time>2022-08-25T16:37:29.000Z</time>
      </trkpt>
      <trkpt lat="40.176336430013179779052734375" lon="-1.573964171111583709716796875">
        <ele>1332.5999755859375</ele>
        <time>2022-08-25T16:37:34.000Z</time>
      </trkpt>
      <trkpt lat="40.17628974281251430511474609375" lon="-1.573909185826778411865234375">
        <ele>1332.800048828125</ele>
        <time>2022-08-25T16:37:36.000Z</time>
      </trkpt>
      <trkpt lat="40.17614104785025119781494140625" lon="-1.573725454509258270263671875">
        <ele>1333.199951171875</ele>
        <time>2022-08-25T16:37:42.000Z</time>
      </trkpt>
      <trkpt lat="40.175891183316707611083984375" lon="-1.5734503604471683502197265625">
        <ele>1333.199951171875</ele>
        <time>2022-08-25T16:37:50.000Z</time>
      </trkpt>
      <trkpt lat="40.1756740920245647430419921875" lon="-1.57322865910828113555908203125">
        <ele>1333.199951171875</ele>
        <time>2022-08-25T16:37:59.000Z</time>
      </trkpt>
      <trkpt lat="40.17550469376146793365478515625" lon="-1.573094464838504791259765625">
        <ele>1334.199951171875</ele>
        <time>2022-08-25T16:38:05.000Z</time>
      </trkpt>
      <trkpt lat="40.17541207373142242431640625" lon="-1.57301089726388454437255859375">
        <ele>1334.800048828125</ele>
        <time>2022-08-25T16:38:08.000Z</time>
      </trkpt>
      <trkpt lat="40.17519615590572357177734375" lon="-1.5728783793747425079345703125">
        <ele>1335.199951171875</ele>
        <time>2022-08-25T16:38:14.000Z</time>
      </trkpt>
      <trkpt lat="40.1749200560152530670166015625" lon="-1.57281442545354366302490234375">
        <ele>1335.199951171875</ele>
        <time>2022-08-25T16:38:20.000Z</time>
      </trkpt>
      <trkpt lat="40.17487227916717529296875" lon="-1.572798080742359161376953125">
        <ele>1335.199951171875</ele>
        <time>2022-08-25T16:38:21.000Z</time>
      </trkpt>
      <trkpt lat="40.17471293918788433074951171875" lon="-1.57268048264086246490478515625">
        <ele>1335.199951171875</ele>
        <time>2022-08-25T16:38:25.000Z</time>
      </trkpt>
      <trkpt lat="40.17468309961259365081787109375" lon="-1.57264494337141513824462890625">
        <ele>1335.199951171875</ele>
        <time>2022-08-25T16:38:26.000Z</time>
      </trkpt>
      <trkpt lat="40.1745277829468250274658203125" lon="-1.57238158397376537322998046875">
        <ele>1335.5999755859375</ele>
        <time>2022-08-25T16:38:33.000Z</time>
      </trkpt>
      <trkpt lat="40.17438705079257488250732421875" lon="-1.5722064860165119171142578125">
        <ele>1336.199951171875</ele>
        <time>2022-08-25T16:38:40.000Z</time>
      </trkpt>
      <trkpt lat="40.17427238635718822479248046875" lon="-1.57219399698078632354736328125">
        <ele>1336.4000244140625</ele>
        <time>2022-08-25T16:38:46.000Z</time>
      </trkpt>
      <trkpt lat="40.17423131503164768218994140625" lon="-1.57220774330198764801025390625">
        <ele>1336.800048828125</ele>
        <time>2022-08-25T16:38:48.000Z</time>
      </trkpt>
      <trkpt lat="40.1740711368620395660400390625" lon="-1.57223221845924854278564453125">
        <ele>1338</ele>
        <time>2022-08-25T16:38:55.000Z</time>
      </trkpt>
      <trkpt lat="40.17403551377356052398681640625" lon="-1.572230793535709381103515625">
        <ele>1338.4000244140625</ele>
        <time>2022-08-25T16:38:57.000Z</time>
      </trkpt>
      <trkpt lat="40.17399712465703487396240234375" lon="-1.57223707996308803558349609375">
        <ele>1339</ele>
        <time>2022-08-25T16:38:59.000Z</time>
      </trkpt>
      <trkpt lat="40.173915736377239227294921875" lon="-1.5722141973674297332763671875">
        <ele>1340</ele>
        <time>2022-08-25T16:39:04.000Z</time>
      </trkpt>
      <trkpt lat="40.173840634524822235107421875" lon="-1.57220371998846530914306640625">
        <ele>1340.800048828125</ele>
        <time>2022-08-25T16:39:08.000Z</time>
      </trkpt>
      <trkpt lat="40.1738247089087963104248046875" lon="-1.572193913161754608154296875">
        <ele>1341</ele>
        <time>2022-08-25T16:39:09.000Z</time>
      </trkpt>
      <trkpt lat="40.17371029593050479888916015625" lon="-1.5721699409186840057373046875">
        <ele>1342.199951171875</ele>
        <time>2022-08-25T16:39:16.000Z</time>
      </trkpt>
      <trkpt lat="40.1736637763679027557373046875" lon="-1.5721427835524082183837890625">
        <ele>1342.800048828125</ele>
        <time>2022-08-25T16:39:19.000Z</time>
      </trkpt>
      <trkpt lat="40.17364759929478168487548828125" lon="-1.5721354074776172637939453125">
        <ele>1343.199951171875</ele>
        <time>2022-08-25T16:39:20.000Z</time>
      </trkpt>
      <trkpt lat="40.1735968887805938720703125" lon="-1.57208519987761974334716796875">
        <ele>1344.199951171875</ele>
        <time>2022-08-25T16:39:24.000Z</time>
      </trkpt>
      <trkpt lat="40.173569731414318084716796875" lon="-1.5720576234161853790283203125">
        <ele>1344.5999755859375</ele>
        <time>2022-08-25T16:39:26.000Z</time>
      </trkpt>
      <trkpt lat="40.17353762872517108917236328125" lon="-1.57201680354773998260498046875">
        <ele>1345.4000244140625</ele>
        <time>2022-08-25T16:39:29.000Z</time>
      </trkpt>
      <trkpt lat="40.1734466850757598876953125" lon="-1.5719152987003326416015625">
        <ele>1346.5999755859375</ele>
        <time>2022-08-25T16:39:36.000Z</time>
      </trkpt>
      <trkpt lat="40.17341776750981807708740234375" lon="-1.5718916617333889007568359375">
        <ele>1347</ele>
        <time>2022-08-25T16:39:38.000Z</time>
      </trkpt>
      <trkpt lat="40.1733368821442127227783203125" lon="-1.5717961080372333526611328125">
        <ele>1347.5999755859375</ele>
        <time>2022-08-25T16:39:44.000Z</time>
      </trkpt>
      <trkpt lat="40.1733040250837802886962890625" lon="-1.57175713218748569488525390625">
        <ele>1347.800048828125</ele>
        <time>2022-08-25T16:39:46.000Z</time>
      </trkpt>
      <trkpt lat="40.1732135005295276641845703125" lon="-1.571690328419208526611328125">
        <ele>1348</ele>
        <time>2022-08-25T16:39:52.000Z</time>
      </trkpt>
      <trkpt lat="40.17309389077126979827880859375" lon="-1.57163023017346858978271484375">
        <ele>1348.5999755859375</ele>
        <time>2022-08-25T16:39:59.000Z</time>
      </trkpt>
      <trkpt lat="40.17299883998930454254150390625" lon="-1.57160039059817790985107421875">
        <ele>1349.5999755859375</ele>
        <time>2022-08-25T16:40:03.000Z</time>
      </trkpt>
      <trkpt lat="40.1729724369943141937255859375" lon="-1.57159410417079925537109375">
        <ele>1349.800048828125</ele>
        <time>2022-08-25T16:40:04.000Z</time>
      </trkpt>
      <trkpt lat="40.17276247031986713409423828125" lon="-1.57157356850802898406982421875">
        <ele>1351</ele>
        <time>2022-08-25T16:40:13.000Z</time>
      </trkpt>
      <trkpt lat="40.172720141708850860595703125" lon="-1.5715674497187137603759765625">
        <ele>1351.199951171875</ele>
        <time>2022-08-25T16:40:15.000Z</time>
      </trkpt>
      <trkpt lat="40.1725536771118640899658203125" lon="-1.57154104672372341156005859375">
        <ele>1352.199951171875</ele>
        <time>2022-08-25T16:40:23.000Z</time>
      </trkpt>
      <trkpt lat="40.17251436598598957061767578125" lon="-1.5715389512479305267333984375">
        <ele>1352.4000244140625</ele>
        <time>2022-08-25T16:40:25.000Z</time>
      </trkpt>
      <trkpt lat="40.17234471626579761505126953125" lon="-1.57148052938282489776611328125">
        <ele>1353.199951171875</ele>
        <time>2022-08-25T16:40:33.000Z</time>
      </trkpt>
      <trkpt lat="40.172278918325901031494140625" lon="-1.57145253382623195648193359375">
        <ele>1353.4000244140625</ele>
        <time>2022-08-25T16:40:36.000Z</time>
      </trkpt>
      <trkpt lat="40.172104574739933013916015625" lon="-1.57137575559318065643310546875">
        <ele>1354.199951171875</ele>
        <time>2022-08-25T16:40:43.000Z</time>
      </trkpt>
      <trkpt lat="40.17203626222908496856689453125" lon="-1.5713508613407611846923828125">
        <ele>1354.4000244140625</ele>
        <time>2022-08-25T16:40:46.000Z</time>
      </trkpt>
      <trkpt lat="40.17176292836666107177734375" lon="-1.57125203870236873626708984375">
        <ele>1355.199951171875</ele>
        <time>2022-08-25T16:40:56.000Z</time>
      </trkpt>
      <trkpt lat="40.1717356033623218536376953125" lon="-1.57123594544827938079833984375">
        <ele>1355.199951171875</ele>
        <time>2022-08-25T16:40:57.000Z</time>
      </trkpt>
      <trkpt lat="40.1715884171426296234130859375" lon="-1.57109110616147518157958984375">
        <ele>1355.800048828125</ele>
        <time>2022-08-25T16:41:04.000Z</time>
      </trkpt>
      <trkpt lat="40.17151524312794208526611328125" lon="-1.5709253959357738494873046875">
        <ele>1356.4000244140625</ele>
        <time>2022-08-25T16:41:10.000Z</time>
      </trkpt>
      <trkpt lat="40.171474926173686981201171875" lon="-1.570846773684024810791015625">
        <ele>1356.5999755859375</ele>
        <time>2022-08-25T16:41:13.000Z</time>
      </trkpt>
      <trkpt lat="40.17138917930424213409423828125" lon="-1.57071308232843875885009765625">
        <ele>1357.4000244140625</ele>
        <time>2022-08-25T16:41:19.000Z</time>
      </trkpt>
      <trkpt lat="40.17134316265583038330078125" lon="-1.57064728438854217529296875">
        <ele>1357.800048828125</ele>
        <time>2022-08-25T16:41:22.000Z</time>
      </trkpt>
      <trkpt lat="40.1712648756802082061767578125" lon="-1.570557095110416412353515625">
        <ele>1358.5999755859375</ele>
        <time>2022-08-25T16:41:27.000Z</time>
      </trkpt>
      <trkpt lat="40.171200335025787353515625" lon="-1.57048626802861690521240234375">
        <ele>1359.199951171875</ele>
        <time>2022-08-25T16:41:31.000Z</time>
      </trkpt>
      <trkpt lat="40.17114392481744289398193359375" lon="-1.5704305283725261688232421875">
        <ele>1359.5999755859375</ele>
        <time>2022-08-25T16:41:34.000Z</time>
      </trkpt>
      <trkpt lat="40.17106044106185436248779296875" lon="-1.57033991999924182891845703125">
        <ele>1360.5999755859375</ele>
        <time>2022-08-25T16:41:39.000Z</time>
      </trkpt>
      <trkpt lat="40.1710442639887332916259765625" lon="-1.57031795941293239593505859375">
        <ele>1360.5999755859375</ele>
        <time>2022-08-25T16:41:40.000Z</time>
      </trkpt>
      <trkpt lat="40.1710311882197856903076171875" lon="-1.57029918394982814788818359375">
        <ele>1360.800048828125</ele>
        <time>2022-08-25T16:41:41.000Z</time>
      </trkpt>
      <trkpt lat="40.17093638889491558074951171875" lon="-1.5701691806316375732421875">
        <ele>1361.800048828125</ele>
        <time>2022-08-25T16:41:47.000Z</time>
      </trkpt>
      <trkpt lat="40.1709259115159511566162109375" lon="-1.5701405145227909088134765625">
        <ele>1362</ele>
        <time>2022-08-25T16:41:48.000Z</time>
      </trkpt>
      <trkpt lat="40.17088894732296466827392578125" lon="-1.56998611986637115478515625">
        <ele>1363.199951171875</ele>
        <time>2022-08-25T16:41:53.000Z</time>
      </trkpt>
      <trkpt lat="40.17090269364416599273681640625" lon="-1.56987749040126800537109375">
        <ele>1363.5999755859375</ele>
        <time>2022-08-25T16:41:56.000Z</time>
      </trkpt>
      <trkpt lat="40.17088928259909152984619140625" lon="-1.56967791728675365447998046875">
        <ele>1364.199951171875</ele>
        <time>2022-08-25T16:42:01.000Z</time>
      </trkpt>
      <trkpt lat="40.1708327047526836395263671875" lon="-1.569376923143863677978515625">
        <ele>1364.4000244140625</ele>
        <time>2022-08-25T16:42:08.000Z</time>
      </trkpt>
      <trkpt lat="40.17077922821044921875" lon="-1.56917299143970012664794921875">
        <ele>1364.4000244140625</ele>
        <time>2022-08-25T16:42:13.000Z</time>
      </trkpt>
      <trkpt lat="40.17071477137506008148193359375" lon="-1.56884693540632724761962890625">
        <ele>1364.4000244140625</ele>
        <time>2022-08-25T16:42:19.000Z</time>
      </trkpt>
      <trkpt lat="40.1707089878618717193603515625" lon="-1.568623222410678863525390625">
        <ele>1364</ele>
        <time>2022-08-25T16:42:24.000Z</time>
      </trkpt>
      <trkpt lat="40.17066699452698230743408203125" lon="-1.56825249083340167999267578125">
        <ele>1363.800048828125</ele>
        <time>2022-08-25T16:42:31.000Z</time>
      </trkpt>
      <trkpt lat="40.17059206031262874603271484375" lon="-1.56789005734026432037353515625">
        <ele>1364</ele>
        <time>2022-08-25T16:42:38.000Z</time>
      </trkpt>
      <trkpt lat="40.1705872826278209686279296875" lon="-1.567622087895870208740234375">
        <ele>1364</ele>
        <time>2022-08-25T16:42:45.000Z</time>
      </trkpt>
      <trkpt lat="40.1705859415233135223388671875" lon="-1.567433662712574005126953125">
        <ele>1365.199951171875</ele>
        <time>2022-08-25T16:42:50.000Z</time>
      </trkpt>
      <trkpt lat="40.17055752687156200408935546875" lon="-1.567343808710575103759765625">
        <ele>1366.5999755859375</ele>
        <time>2022-08-25T16:42:53.000Z</time>
      </trkpt>
      <trkpt lat="40.170429535210132598876953125" lon="-1.56723551452159881591796875">
        <ele>1368</ele>
        <time>2022-08-25T16:42:59.000Z</time>
      </trkpt>
      <trkpt lat="40.1704095862805843353271484375" lon="-1.56722746789455413818359375">
        <ele>1368</ele>
        <time>2022-08-25T16:43:00.000Z</time>
      </trkpt>
      <trkpt lat="40.17024622298777103424072265625" lon="-1.56722218729555606842041015625">
        <ele>1368.800048828125</ele>
        <time>2022-08-25T16:43:07.000Z</time>
      </trkpt>
      <trkpt lat="40.170224346220493316650390625" lon="-1.56722235493361949920654296875">
        <ele>1369.199951171875</ele>
        <time>2022-08-25T16:43:08.000Z</time>
      </trkpt>
      <trkpt lat="40.17010037787258625030517578125" lon="-1.56720760278403759002685546875">
        <ele>1370.199951171875</ele>
        <time>2022-08-25T16:43:13.000Z</time>
      </trkpt>
      <trkpt lat="40.17003650777041912078857421875" lon="-1.567188240587711334228515625">
        <ele>1370.5999755859375</ele>
        <time>2022-08-25T16:43:15.000Z</time>
      </trkpt>
      <trkpt lat="40.16977113671600818634033203125" lon="-1.56714557670056819915771484375">
        <ele>1371</ele>
        <time>2022-08-25T16:43:22.000Z</time>
      </trkpt>
      <trkpt lat="40.169513560831546783447265625" lon="-1.56710718758404254913330078125">
        <ele>1370.5999755859375</ele>
        <time>2022-08-25T16:43:29.000Z</time>
      </trkpt>
      <trkpt lat="40.16936327330768108367919921875" lon="-1.566964946687221527099609375">
        <ele>1370.199951171875</ele>
        <time>2022-08-25T16:43:34.000Z</time>
      </trkpt>
      <trkpt lat="40.16915489919483661651611328125" lon="-1.56678951345384120941162109375">
        <ele>1370</ele>
        <time>2022-08-25T16:43:42.000Z</time>
      </trkpt>
      <trkpt lat="40.1689809747040271759033203125" lon="-1.5667439997196197509765625">
        <ele>1370.5999755859375</ele>
        <time>2022-08-25T16:43:48.000Z</time>
      </trkpt>
      <trkpt lat="40.1688099838793277740478515625" lon="-1.56662053428590297698974609375">
        <ele>1371</ele>
        <time>2022-08-25T16:43:53.000Z</time>
      </trkpt>
      <trkpt lat="40.1686899550259113311767578125" lon="-1.56639866530895233154296875">
        <ele>1371.199951171875</ele>
        <time>2022-08-25T16:43:58.000Z</time>
      </trkpt>
      <trkpt lat="40.1686755381524562835693359375" lon="-1.566352061927318572998046875">
        <ele>1371.4000244140625</ele>
        <time>2022-08-25T16:43:59.000Z</time>
      </trkpt>
      <trkpt lat="40.1685816608369350433349609375" lon="-1.5661346353590488433837890625">
        <ele>1371.4000244140625</ele>
        <time>2022-08-25T16:44:05.000Z</time>
      </trkpt>
      <trkpt lat="40.1685451157391071319580078125" lon="-1.5660132654011249542236328125">
        <ele>1371.800048828125</ele>
        <time>2022-08-25T16:44:10.000Z</time>
      </trkpt>
      <trkpt lat="40.168566741049289703369140625" lon="-1.56582291238009929656982421875">
        <ele>1372</ele>
        <time>2022-08-25T16:44:15.000Z</time>
      </trkpt>
      <trkpt lat="40.1685135997831821441650390625" lon="-1.56561973504722118377685546875">
        <ele>1371.4000244140625</ele>
        <time>2022-08-25T16:44:20.000Z</time>
      </trkpt>
      <trkpt lat="40.16851653344929218292236328125" lon="-1.5655522607266902923583984375">
        <ele>1370.199951171875</ele>
        <time>2022-08-25T16:44:22.000Z</time>
      </trkpt>
      <trkpt lat="40.16852742992341518402099609375" lon="-1.565468274056911468505859375">
        <ele>1369.199951171875</ele>
        <time>2022-08-25T16:44:25.000Z</time>
      </trkpt>
      <trkpt lat="40.16857285983860492706298828125" lon="-1.5653272904455661773681640625">
        <ele>1368.199951171875</ele>
        <time>2022-08-25T16:44:31.000Z</time>
      </trkpt>
      <trkpt lat="40.1685830019414424896240234375" lon="-1.56530834734439849853515625">
        <ele>1368.199951171875</ele>
        <time>2022-08-25T16:44:32.000Z</time>
      </trkpt>
      <trkpt lat="40.16859398223459720611572265625" lon="-1.56528814695775508880615234375">
        <ele>1368</ele>
        <time>2022-08-25T16:44:33.000Z</time>
      </trkpt>
      <trkpt lat="40.16862113960087299346923828125" lon="-1.56521706841886043548583984375">
        <ele>1375.4000244140625</ele>
        <time>2022-08-26T06:52:07.000Z</time>
      </trkpt>
      <trkpt lat="40.16857168637216091156005859375" lon="-1.5653212554752826690673828125">
        <ele>1376</ele>
        <time>2022-08-26T06:52:13.000Z</time>
      </trkpt>
      <trkpt lat="40.16856313683092594146728515625" lon="-1.56534162349998950958251953125">
        <ele>1376.199951171875</ele>
        <time>2022-08-26T06:52:14.000Z</time>
      </trkpt>
      <trkpt lat="40.16855324618518352508544921875" lon="-1.5654037334024906158447265625">
        <ele>1376.4000244140625</ele>
        <time>2022-08-26T06:52:17.000Z</time>
      </trkpt>
      <trkpt lat="40.16854100860655307769775390625" lon="-1.5654600597918033599853515625">
        <ele>1377.199951171875</ele>
        <time>2022-08-26T06:52:21.000Z</time>
      </trkpt>
      <trkpt lat="40.1685337163507938385009765625" lon="-1.56548579223453998565673828125">
        <ele>1377.5999755859375</ele>
        <time>2022-08-26T06:52:23.000Z</time>
      </trkpt>
      <trkpt lat="40.16854025423526763916015625" lon="-1.56557665206491947174072265625">
        <ele>1377.800048828125</ele>
        <time>2022-08-26T06:52:28.000Z</time>
      </trkpt>
      <trkpt lat="40.16860219649970531463623046875" lon="-1.56575719825923442840576171875">
        <ele>1378.199951171875</ele>
        <time>2022-08-26T06:52:36.000Z</time>
      </trkpt>
      <trkpt lat="40.168576128780841827392578125" lon="-1.56590044498443603515625">
        <ele>1378.4000244140625</ele>
        <time>2022-08-26T06:52:44.000Z</time>
      </trkpt>
      <trkpt lat="40.168568752706050872802734375" lon="-1.56591461040079593658447265625">
        <ele>1378.800048828125</ele>
        <time>2022-08-26T06:52:45.000Z</time>
      </trkpt>
      <trkpt lat="40.168549306690692901611328125" lon="-1.565994657576084136962890625">
        <ele>1380</ele>
        <time>2022-08-26T06:52:50.000Z</time>
      </trkpt>
      <trkpt lat="40.16852776519954204559326171875" lon="-1.56601619906723499298095703125">
        <ele>1380.800048828125</ele>
        <time>2022-08-26T06:52:53.000Z</time>
      </trkpt>
      <trkpt lat="40.16851519234478473663330078125" lon="-1.56601251102983951568603515625">
        <ele>1381</ele>
        <time>2022-08-26T06:52:54.000Z</time>
      </trkpt>
      <trkpt lat="40.16849356703460216522216796875" lon="-1.5659991838037967681884765625">
        <ele>1381.4000244140625</ele>
        <time>2022-08-26T06:52:56.000Z</time>
      </trkpt>
      <trkpt lat="40.16846138052642345428466796875" lon="-1.5659770555794239044189453125">
        <ele>1382</ele>
        <time>2022-08-26T06:52:59.000Z</time>
      </trkpt>
      <trkpt lat="40.16837420873343944549560546875" lon="-1.56591930426657199859619140625">
        <ele>1382.800048828125</ele>
        <time>2022-08-26T06:53:05.000Z</time>
      </trkpt>
      <trkpt lat="40.168260298669338226318359375" lon="-1.56586029566824436187744140625">
        <ele>1382.800048828125</ele>
        <time>2022-08-26T06:53:13.000Z</time>
      </trkpt>
      <trkpt lat="40.168218724429607391357421875" lon="-1.56580732204020023345947265625">
        <ele>1382.800048828125</ele>
        <time>2022-08-26T06:53:17.000Z</time>
      </trkpt>
      <trkpt lat="40.1682145334780216217041015625" lon="-1.56576105393469333648681640625">
        <ele>1383</ele>
        <time>2022-08-26T06:53:19.000Z</time>
      </trkpt>
      <trkpt lat="40.16820305027067661285400390625" lon="-1.56566885299980640411376953125">
        <ele>1382.800048828125</ele>
        <time>2022-08-26T06:53:22.000Z</time>
      </trkpt>
      <trkpt lat="40.168167091906070709228515625" lon="-1.5655230917036533355712890625">
        <ele>1383</ele>
        <time>2022-08-26T06:53:26.000Z</time>
      </trkpt>
      <trkpt lat="40.16808553598821163177490234375" lon="-1.565310023725032806396484375">
        <ele>1383.199951171875</ele>
        <time>2022-08-26T06:53:34.000Z</time>
      </trkpt>
      <trkpt lat="40.16804312355816364288330078125" lon="-1.5650986321270465850830078125">
        <ele>1383.199951171875</ele>
        <time>2022-08-26T06:53:40.000Z</time>
      </trkpt>
      <trkpt lat="40.16791555099189281463623046875" lon="-1.5648904256522655487060546875">
        <ele>1382.800048828125</ele>
        <time>2022-08-26T06:53:45.000Z</time>
      </trkpt>
      <trkpt lat="40.16771002672612667083740234375" lon="-1.5648149885237216949462890625">
        <ele>1382.5999755859375</ele>
        <time>2022-08-26T06:53:51.000Z</time>
      </trkpt>
      <trkpt lat="40.1674558036029338836669921875" lon="-1.56475522555410861968994140625">
        <ele>1383</ele>
        <time>2022-08-26T06:53:59.000Z</time>
      </trkpt>
      <trkpt lat="40.16725505702197551727294921875" lon="-1.56462580896914005279541015625">
        <ele>1383.800048828125</ele>
        <time>2022-08-26T06:54:06.000Z</time>
      </trkpt>
      <trkpt lat="40.16701449640095233917236328125" lon="-1.5644636191427707672119140625">
        <ele>1383.800048828125</ele>
        <time>2022-08-26T06:54:13.000Z</time>
      </trkpt>
      <trkpt lat="40.1668764464557170867919921875" lon="-1.56435255892574787139892578125">
        <ele>1383.199951171875</ele>
        <time>2022-08-26T06:54:19.000Z</time>
      </trkpt>
      <trkpt lat="40.1667988300323486328125" lon="-1.5642788819968700408935546875">
        <ele>1382.800048828125</ele>
        <time>2022-08-26T06:54:22.000Z</time>
      </trkpt>
      <trkpt lat="40.16675918363034725189208984375" lon="-1.56421668827533721923828125">
        <ele>1382.800048828125</ele>
        <time>2022-08-26T06:54:24.000Z</time>
      </trkpt>
      <trkpt lat="40.1666446030139923095703125" lon="-1.56409255228936672210693359375">
        <ele>1382.800048828125</ele>
        <time>2022-08-26T06:54:31.000Z</time>
      </trkpt>
      <trkpt lat="40.16639716923236846923828125" lon="-1.56397352926433086395263671875">
        <ele>1384.199951171875</ele>
        <time>2022-08-26T06:54:40.000Z</time>
      </trkpt>
      <trkpt lat="40.166328437626361846923828125" lon="-1.563970930874347686767578125">
        <ele>1384.5999755859375</ele>
        <time>2022-08-26T06:54:42.000Z</time>
      </trkpt>
      <trkpt lat="40.16618837602436542510986328125" lon="-1.5640086494386196136474609375">
        <ele>1384.800048828125</ele>
        <time>2022-08-26T06:54:46.000Z</time>
      </trkpt>
      <trkpt lat="40.1659772358834743499755859375" lon="-1.5639952383935451507568359375">
        <ele>1384.800048828125</ele>
        <time>2022-08-26T06:54:51.000Z</time>
      </trkpt>
      <trkpt lat="40.1657755672931671142578125" lon="-1.563846208155155181884765625">
        <ele>1384.800048828125</ele>
        <time>2022-08-26T06:54:58.000Z</time>
      </trkpt>
      <trkpt lat="40.1655745692551136016845703125" lon="-1.5637323819100856781005859375">
        <ele>1384.5999755859375</ele>
        <time>2022-08-26T06:55:03.000Z</time>
      </trkpt>
      <trkpt lat="40.16543299891054630279541015625" lon="-1.56364495866000652313232421875">
        <ele>1384.5999755859375</ele>
        <time>2022-08-26T06:55:06.000Z</time>
      </trkpt>
      <trkpt lat="40.16536057926714420318603515625" lon="-1.56354001723229885101318359375">
        <ele>1384.199951171875</ele>
        <time>2022-08-26T06:55:08.000Z</time>
      </trkpt>
      <trkpt lat="40.16529989428818225860595703125" lon="-1.5633126161992549896240234375">
        <ele>1383.5999755859375</ele>
        <time>2022-08-26T06:55:11.000Z</time>
      </trkpt>
      <trkpt lat="40.165290422737598419189453125" lon="-1.56322619877755641937255859375">
        <ele>1383.4000244140625</ele>
        <time>2022-08-26T06:55:12.000Z</time>
      </trkpt>
      <trkpt lat="40.1652879081666469573974609375" lon="-1.56314439140260219573974609375">
        <ele>1383.4000244140625</ele>
        <time>2022-08-26T06:55:13.000Z</time>
      </trkpt>
      <trkpt lat="40.16528748907148838043212890625" lon="-1.562892012298107147216796875">
        <ele>1382.4000244140625</ele>
        <time>2022-08-26T06:55:17.000Z</time>
      </trkpt>
      <trkpt lat="40.16529235057532787322998046875" lon="-1.56280877999961376190185546875">
        <ele>1382</ele>
        <time>2022-08-26T06:55:19.000Z</time>
      </trkpt>
      <trkpt lat="40.1652781851589679718017578125" lon="-1.5626296587288379669189453125">
        <ele>1382</ele>
        <time>2022-08-26T06:55:24.000Z</time>
      </trkpt>
      <trkpt lat="40.1651809550821781158447265625" lon="-1.562341153621673583984375">
        <ele>1382.800048828125</ele>
        <time>2022-08-26T06:55:31.000Z</time>
      </trkpt>
      <trkpt lat="40.1651631854474544525146484375" lon="-1.56230201013386249542236328125">
        <ele>1383</ele>
        <time>2022-08-26T06:55:32.000Z</time>
      </trkpt>
      <trkpt lat="40.16502597369253635406494140625" lon="-1.562046445906162261962890625">
        <ele>1383.800048828125</ele>
        <time>2022-08-26T06:55:39.000Z</time>
      </trkpt>
      <trkpt lat="40.1649164222180843353271484375" lon="-1.56190839596092700958251953125">
        <ele>1384</ele>
        <time>2022-08-26T06:55:44.000Z</time>
      </trkpt>
      <trkpt lat="40.16488968394696712493896484375" lon="-1.5618870221078395843505859375">
        <ele>1384</ele>
        <time>2022-08-26T06:55:45.000Z</time>
      </trkpt>
      <trkpt lat="40.164709724485874176025390625" lon="-1.56181208789348602294921875">
        <ele>1384.199951171875</ele>
        <time>2022-08-26T06:55:51.000Z</time>
      </trkpt>
      <trkpt lat="40.16441635787487030029296875" lon="-1.56172399409115314483642578125">
        <ele>1383.4000244140625</ele>
        <time>2022-08-26T06:55:58.000Z</time>
      </trkpt>
      <trkpt lat="40.16431770287454128265380859375" lon="-1.56168845482170581817626953125">
        <ele>1382.5999755859375</ele>
        <time>2022-08-26T06:56:00.000Z</time>
      </trkpt>
      <trkpt lat="40.1641677506268024444580078125" lon="-1.56162860803306102752685546875">
        <ele>1381.4000244140625</ele>
        <time>2022-08-26T06:56:03.000Z</time>
      </trkpt>
      <trkpt lat="40.16407630406320095062255859375" lon="-1.56156725250184535980224609375">
        <ele>1380.4000244140625</ele>
        <time>2022-08-26T06:56:05.000Z</time>
      </trkpt>
      <trkpt lat="40.164033472537994384765625" lon="-1.5615271031856536865234375">
        <ele>1379.800048828125</ele>
        <time>2022-08-26T06:56:06.000Z</time>
      </trkpt>
      <trkpt lat="40.1639907248318195343017578125" lon="-1.56148192472755908966064453125">
        <ele>1379.199951171875</ele>
        <time>2022-08-26T06:56:07.000Z</time>
      </trkpt>
      <trkpt lat="40.163923166692256927490234375" lon="-1.56139676459133625030517578125">
        <ele>1377.800048828125</ele>
        <time>2022-08-26T06:56:09.000Z</time>
      </trkpt>
      <trkpt lat="40.16387245617806911468505859375" lon="-1.5613338164985179901123046875">
        <ele>1376.800048828125</ele>
        <time>2022-08-26T06:56:11.000Z</time>
      </trkpt>
      <trkpt lat="40.1637909002602100372314453125" lon="-1.5612402744591236114501953125">
        <ele>1376</ele>
        <time>2022-08-26T06:56:16.000Z</time>
      </trkpt>
      <trkpt lat="40.16369023360311985015869140625" lon="-1.56112384982407093048095703125">
        <ele>1376.5999755859375</ele>
        <time>2022-08-26T06:56:23.000Z</time>
      </trkpt>
      <trkpt lat="40.1636190712451934814453125" lon="-1.56103282235562801361083984375">
        <ele>1377.5999755859375</ele>
        <time>2022-08-26T06:56:29.000Z</time>
      </trkpt>
      <trkpt lat="40.16359283588826656341552734375" lon="-1.5609960258007049560546875">
        <ele>1377.800048828125</ele>
        <time>2022-08-26T06:56:31.000Z</time>
      </trkpt>
      <trkpt lat="40.163524858653545379638671875" lon="-1.56092100776731967926025390625">
        <ele>1378.5999755859375</ele>
        <time>2022-08-26T06:56:36.000Z</time>
      </trkpt>
      <trkpt lat="40.1634660176932811737060546875" lon="-1.56086920760571956634521484375">
        <ele>1378.800048828125</ele>
        <time>2022-08-26T06:56:40.000Z</time>
      </trkpt>
      <trkpt lat="40.1633687876164913177490234375" lon="-1.56076879240572452545166015625">
        <ele>1379.4000244140625</ele>
        <time>2022-08-26T06:56:47.000Z</time>
      </trkpt>
      <trkpt lat="40.16335395164787769317626953125" lon="-1.56075521372258663177490234375">
        <ele>1379.5999755859375</ele>
        <time>2022-08-26T06:56:48.000Z</time>
      </trkpt>
      <trkpt lat="40.1632797718048095703125" lon="-1.56067340634763240814208984375">
        <ele>1380.5999755859375</ele>
        <time>2022-08-26T06:56:55.000Z</time>
      </trkpt>
      <trkpt lat="40.1632665283977985382080078125" lon="-1.560659743845462799072265625">
        <ele>1380.5999755859375</ele>
        <time>2022-08-26T06:56:56.000Z</time>
      </trkpt>
      <trkpt lat="40.1631716452538967132568359375" lon="-1.56054834835231304168701171875">
        <ele>1381.4000244140625</ele>
        <time>2022-08-26T06:57:04.000Z</time>
      </trkpt>
      <trkpt lat="40.16314591281116008758544921875" lon="-1.560527645051479339599609375">
        <ele>1381.5999755859375</ele>
        <time>2022-08-26T06:57:06.000Z</time>
      </trkpt>
      <trkpt lat="40.16305605880916118621826171875" lon="-1.5604527108371257781982421875">
        <ele>1382.5999755859375</ele>
        <time>2022-08-26T06:57:13.000Z</time>
      </trkpt>
      <trkpt lat="40.163044743239879608154296875" lon="-1.56043971888720989227294921875">
        <ele>1382.800048828125</ele>
        <time>2022-08-26T06:57:14.000Z</time>
      </trkpt>
      <trkpt lat="40.1629493571817874908447265625" lon="-1.56031348742544651031494140625">
        <ele>1383.5999755859375</ele>
        <time>2022-08-26T06:57:22.000Z</time>
      </trkpt>
      <trkpt lat="40.1629386283457279205322265625" lon="-1.5603031776845455169677734375">
        <ele>1383.800048828125</ele>
        <time>2022-08-26T06:57:23.000Z</time>
      </trkpt>
      <trkpt lat="40.1628397218883037567138671875" lon="-1.56018122099339962005615234375">
        <ele>1384.4000244140625</ele>
        <time>2022-08-26T06:57:31.000Z</time>
      </trkpt>
      <trkpt lat="40.1627357862889766693115234375" lon="-1.560051552951335906982421875">
        <ele>1385.4000244140625</ele>
        <time>2022-08-26T06:57:40.000Z</time>
      </trkpt>
      <trkpt lat="40.16270519234240055084228515625" lon="-1.5600094757974147796630859375">
        <ele>1385.5999755859375</ele>
        <time>2022-08-26T06:57:42.000Z</time>
      </trkpt>
      <trkpt lat="40.16259840689599514007568359375" lon="-1.55992674641311168670654296875">
        <ele>1385.800048828125</ele>
        <time>2022-08-26T06:57:47.000Z</time>
      </trkpt>
      <trkpt lat="40.1624078862369060516357421875" lon="-1.5599226392805576324462890625">
        <ele>1386.4000244140625</ele>
        <time>2022-08-26T06:57:54.000Z</time>
      </trkpt>
      <trkpt lat="40.16228257678449153900146484375" lon="-1.55995356850326061248779296875">
        <ele>1386.5999755859375</ele>
        <time>2022-08-26T06:57:59.000Z</time>
      </trkpt>
      <trkpt lat="40.16215869225561618804931640625" lon="-1.5600041113793849945068359375">
        <ele>1387</ele>
        <time>2022-08-26T06:58:04.000Z</time>
      </trkpt>
      <trkpt lat="40.1619988493621349334716796875" lon="-1.56004057265818119049072265625">
        <ele>1387.5999755859375</ele>
        <time>2022-08-26T06:58:11.000Z</time>
      </trkpt>
      <trkpt lat="40.161909162998199462890625" lon="-1.560062952339649200439453125">
        <ele>1388</ele>
        <time>2022-08-26T06:58:15.000Z</time>
      </trkpt>
      <trkpt lat="40.16180715523660182952880859375" lon="-1.56009413301944732666015625">
        <ele>1388.5999755859375</ele>
        <time>2022-08-26T06:58:20.000Z</time>
      </trkpt>
      <trkpt lat="40.161749906837940216064453125" lon="-1.5601221285760402679443359375">
        <ele>1388.800048828125</ele>
        <time>2022-08-26T06:58:23.000Z</time>
      </trkpt>
      <trkpt lat="40.1615207456052303314208984375" lon="-1.56015372835099697113037109375">
        <ele>1389.4000244140625</ele>
        <time>2022-08-26T06:58:31.000Z</time>
      </trkpt>
      <trkpt lat="40.1613343320786952972412109375" lon="-1.5600755251944065093994140625">
        <ele>1389.4000244140625</ele>
        <time>2022-08-26T06:58:36.000Z</time>
      </trkpt>
      <trkpt lat="40.1611972041428089141845703125" lon="-1.55989388935267925262451171875">
        <ele>1389.199951171875</ele>
        <time>2022-08-26T06:58:41.000Z</time>
      </trkpt>
      <trkpt lat="40.1610334217548370361328125" lon="-1.55971996486186981201171875">
        <ele>1387.5999755859375</ele>
        <time>2022-08-26T06:58:47.000Z</time>
      </trkpt>
      <trkpt lat="40.16101590357720851898193359375" lon="-1.5596924722194671630859375">
        <ele>1387.4000244140625</ele>
        <time>2022-08-26T06:58:48.000Z</time>
      </trkpt>
      <trkpt lat="40.1609729044139385223388671875" lon="-1.55959884636104106903076171875">
        <ele>1386.199951171875</ele>
        <time>2022-08-26T06:58:51.000Z</time>
      </trkpt>
      <trkpt lat="40.160951949656009674072265625" lon="-1.55954034067690372467041015625">
        <ele>1386</ele>
        <time>2022-08-26T06:58:53.000Z</time>
      </trkpt>
      <trkpt lat="40.16088078729808330535888671875" lon="-1.55931754969060420989990234375">
        <ele>1386</ele>
        <time>2022-08-26T06:59:02.000Z</time>
      </trkpt>
      <trkpt lat="40.16086972318589687347412109375" lon="-1.55923993326723575592041015625">
        <ele>1386.4000244140625</ele>
        <time>2022-08-26T06:59:06.000Z</time>
      </trkpt>
      <trkpt lat="40.16086913645267486572265625" lon="-1.55921059660613536834716796875">
        <ele>1386.5999755859375</ele>
        <time>2022-08-26T06:59:09.000Z</time>
      </trkpt>
      <trkpt lat="40.1608964614570140838623046875" lon="-1.55911504290997982025146484375">
        <ele>1386.800048828125</ele>
        <time>2022-08-26T06:59:15.000Z</time>
      </trkpt>
      <trkpt lat="40.160880871117115020751953125" lon="-1.558918319642543792724609375">
        <ele>1387</ele>
        <time>2022-08-26T06:59:24.000Z</time>
      </trkpt>
      <trkpt lat="40.16087450087070465087890625" lon="-1.55889778397977352142333984375">
        <ele>1387</ele>
        <time>2022-08-26T06:59:25.000Z</time>
      </trkpt>
      <trkpt lat="40.160784982144832611083984375" lon="-1.55879803933203220367431640625">
        <ele>1387.4000244140625</ele>
        <time>2022-08-26T06:59:31.000Z</time>
      </trkpt>
      <trkpt lat="40.1606721617281436920166015625" lon="-1.5587464906275272369384765625">
        <ele>1388</ele>
        <time>2022-08-26T06:59:37.000Z</time>
      </trkpt>
      <trkpt lat="40.16060804016888141632080078125" lon="-1.558729223906993865966796875">
        <ele>1388.5999755859375</ele>
        <time>2022-08-26T06:59:40.000Z</time>
      </trkpt>
      <trkpt lat="40.16039966605603694915771484375" lon="-1.55874942429363727569580078125">
        <ele>1389</ele>
        <time>2022-08-26T06:59:48.000Z</time>
      </trkpt>
      <trkpt lat="40.16020168550312519073486328125" lon="-1.55879535712301731109619140625">
        <ele>1388.800048828125</ele>
        <time>2022-08-26T06:59:55.000Z</time>
      </trkpt>
      <trkpt lat="40.160072185099124908447265625" lon="-1.5588105283677577972412109375">
        <ele>1389</ele>
        <time>2022-08-26T06:59:59.000Z</time>
      </trkpt>
      <trkpt lat="40.15991829335689544677734375" lon="-1.55878529883921146392822265625">
        <ele>1389.199951171875</ele>
        <time>2022-08-26T07:00:04.000Z</time>
      </trkpt>
      <trkpt lat="40.1597397588193416595458984375" lon="-1.55873157083988189697265625">
        <ele>1390</ele>
        <time>2022-08-26T07:00:10.000Z</time>
      </trkpt>
      <trkpt lat="40.1596574485301971435546875" lon="-1.5587035752832889556884765625">
        <ele>1390.800048828125</ele>
        <time>2022-08-26T07:00:13.000Z</time>
      </trkpt>
      <trkpt lat="40.15958762727677822113037109375" lon="-1.55866309069097042083740234375">
        <ele>1391</ele>
        <time>2022-08-26T07:00:16.000Z</time>
      </trkpt>
      <trkpt lat="40.15951101668179035186767578125" lon="-1.55861967243254184722900390625">
        <ele>1391</ele>
        <time>2022-08-26T07:00:19.000Z</time>
      </trkpt>
      <trkpt lat="40.15932611189782619476318359375" lon="-1.5584591589868068695068359375">
        <ele>1391.800048828125</ele>
        <time>2022-08-26T07:00:28.000Z</time>
      </trkpt>
      <trkpt lat="40.15929392538964748382568359375" lon="-1.5584169141948223114013671875">
        <ele>1391.800048828125</ele>
        <time>2022-08-26T07:00:30.000Z</time>
      </trkpt>
      <trkpt lat="40.15917674638330936431884765625" lon="-1.558276601135730743408203125">
        <ele>1392.5999755859375</ele>
        <time>2022-08-26T07:00:37.000Z</time>
      </trkpt>
      <trkpt lat="40.1591238565742969512939453125" lon="-1.55822019092738628387451171875">
        <ele>1393</ele>
        <time>2022-08-26T07:00:40.000Z</time>
      </trkpt>
      <trkpt lat="40.15900977887213230133056640625" lon="-1.55814760364592075347900390625">
        <ele>1393.5999755859375</ele>
        <time>2022-08-26T07:00:46.000Z</time>
      </trkpt>
      <trkpt lat="40.15897910110652446746826171875" lon="-1.55811734497547149658203125">
        <ele>1394</ele>
        <time>2022-08-26T07:00:48.000Z</time>
      </trkpt>
      <trkpt lat="40.15885035507380962371826171875" lon="-1.5580558218061923980712890625">
        <ele>1394.4000244140625</ele>
        <time>2022-08-26T07:00:55.000Z</time>
      </trkpt>
      <trkpt lat="40.15878480859100818634033203125" lon="-1.5580616891384124755859375">
        <ele>1395.199951171875</ele>
        <time>2022-08-26T07:01:01.000Z</time>
      </trkpt>
      <trkpt lat="40.15873610973358154296875" lon="-1.55803109519183635711669921875">
        <ele>1395.5999755859375</ele>
        <time>2022-08-26T07:01:05.000Z</time>
      </trkpt>
      <trkpt lat="40.15863494016230106353759765625" lon="-1.5580176003277301788330078125">
        <ele>1395.5999755859375</ele>
        <time>2022-08-26T07:01:15.000Z</time>
      </trkpt>
      <trkpt lat="40.15860007144510746002197265625" lon="-1.5580005012452602386474609375">
        <ele>1396</ele>
        <time>2022-08-26T07:01:18.000Z</time>
      </trkpt>
      <trkpt lat="40.15848574228584766387939453125" lon="-1.55798717401921749114990234375">
        <ele>1397</ele>
        <time>2022-08-26T07:01:25.000Z</time>
      </trkpt>
      <trkpt lat="40.15846814028918743133544921875" lon="-1.55798549763858318328857421875">
        <ele>1397</ele>
        <time>2022-08-26T07:01:26.000Z</time>
      </trkpt>
      <trkpt lat="40.1583175174891948699951171875" lon="-1.55799890868365764617919921875">
        <ele>1397.5999755859375</ele>
        <time>2022-08-26T07:01:33.000Z</time>
      </trkpt>
      <trkpt lat="40.15824870206415653228759765625" lon="-1.558058671653270721435546875">
        <ele>1398.199951171875</ele>
        <time>2022-08-26T07:01:38.000Z</time>
      </trkpt>
      <trkpt lat="40.15821718610823154449462890625" lon="-1.55806914903223514556884765625">
        <ele>1398.199951171875</ele>
        <time>2022-08-26T07:01:40.000Z</time>
      </trkpt>
      <trkpt lat="40.15803135931491851806640625" lon="-1.55809882096946239471435546875">
        <ele>1398.800048828125</ele>
        <time>2022-08-26T07:01:49.000Z</time>
      </trkpt>
      <trkpt lat="40.1579891145229339599609375" lon="-1.55809898860752582550048828125">
        <ele>1399.199951171875</ele>
        <time>2022-08-26T07:01:51.000Z</time>
      </trkpt>
      <trkpt lat="40.1578286848962306976318359375" lon="-1.55809211544692516326904296875">
        <ele>1400.199951171875</ele>
        <time>2022-08-26T07:01:58.000Z</time>
      </trkpt>
      <trkpt lat="40.15780680812895298004150390625" lon="-1.55808641575276851654052734375">
        <ele>1400.4000244140625</ele>
        <time>2022-08-26T07:01:59.000Z</time>
      </trkpt>
      <trkpt lat="40.157713182270526885986328125" lon="-1.5580568276345729827880859375">
        <ele>1401.199951171875</ele>
        <time>2022-08-26T07:02:05.000Z</time>
      </trkpt>
      <trkpt lat="40.1576851867139339447021484375" lon="-1.5580477751791477203369140625">
        <ele>1401.4000244140625</ele>
        <time>2022-08-26T07:02:07.000Z</time>
      </trkpt>
      <trkpt lat="40.15754227526485919952392578125" lon="-1.55796722508966922760009765625">
        <ele>1402</ele>
        <time>2022-08-26T07:02:14.000Z</time>
      </trkpt>
      <trkpt lat="40.15744571574032306671142578125" lon="-1.5578814782202243804931640625">
        <ele>1402</ele>
        <time>2022-08-26T07:02:19.000Z</time>
      </trkpt>
      <trkpt lat="40.1573789119720458984375" lon="-1.5578274987637996673583984375">
        <ele>1402.5999755859375</ele>
        <time>2022-08-26T07:02:23.000Z</time>
      </trkpt>
      <trkpt lat="40.1572325639426708221435546875" lon="-1.5577138401567935943603515625">
        <ele>1403.199951171875</ele>
        <time>2022-08-26T07:02:30.000Z</time>
      </trkpt>
      <trkpt lat="40.1571376807987689971923828125" lon="-1.55765625648200511932373046875">
        <ele>1403.800048828125</ele>
        <time>2022-08-26T07:02:34.000Z</time>
      </trkpt>
      <trkpt lat="40.156982950866222381591796875" lon="-1.55757444910705089569091796875">
        <ele>1404.199951171875</ele>
        <time>2022-08-26T07:02:40.000Z</time>
      </trkpt>
      <trkpt lat="40.15691296197474002838134765625" lon="-1.5575478784739971160888671875">
        <ele>1404.4000244140625</ele>
        <time>2022-08-26T07:02:43.000Z</time>
      </trkpt>
      <trkpt lat="40.15681757591664791107177734375" lon="-1.55751829035580158233642578125">
        <ele>1405</ele>
        <time>2022-08-26T07:02:50.000Z</time>
      </trkpt>
      <trkpt lat="40.15681405551731586456298828125" lon="-1.55751862563192844390869140625">
        <ele>1405.199951171875</ele>
        <time>2022-08-26T07:02:51.000Z</time>
      </trkpt>
      <trkpt lat="40.15681271441280841827392578125" lon="-1.5575190447270870208740234375">
        <ele>1405.199951171875</ele>
        <time>2022-08-26T07:02:52.000Z</time>
      </trkpt>
      <trkpt lat="40.156454555690288543701171875" lon="-1.557465903460979461669921875">
        <ele>1407.199951171875</ele>
        <time>2022-08-26T07:04:25.000Z</time>
      </trkpt>
      <trkpt lat="40.1564077846705913543701171875" lon="-1.55745341442525386810302734375">
        <ele>1407.199951171875</ele>
        <time>2022-08-26T07:04:27.000Z</time>
      </trkpt>
      <trkpt lat="40.1562186889350414276123046875" lon="-1.5573705174028873443603515625">
        <ele>1407.199951171875</ele>
        <time>2022-08-26T07:04:33.000Z</time>
      </trkpt>
      <trkpt lat="40.1561368815600872039794921875" lon="-1.557309664785861968994140625">
        <ele>1407.199951171875</ele>
        <time>2022-08-26T07:04:35.000Z</time>
      </trkpt>
      <trkpt lat="40.1559534855186939239501953125" lon="-1.557227857410907745361328125">
        <ele>1407.199951171875</ele>
        <time>2022-08-26T07:04:39.000Z</time>
      </trkpt>
      <trkpt lat="40.1558125019073486328125" lon="-1.55716055072844028472900390625">
        <ele>1406.800048828125</ele>
        <time>2022-08-26T07:04:43.000Z</time>
      </trkpt>
      <trkpt lat="40.15576279722154140472412109375" lon="-1.55713004060089588165283203125">
        <ele>1406.4000244140625</ele>
        <time>2022-08-26T07:04:45.000Z</time>
      </trkpt>
      <trkpt lat="40.15570948831737041473388671875" lon="-1.557127274572849273681640625">
        <ele>1406.199951171875</ele>
        <time>2022-08-26T07:04:47.000Z</time>
      </trkpt>
      <trkpt lat="40.15565089881420135498046875" lon="-1.55712853185832500457763671875">
        <ele>1406</ele>
        <time>2022-08-26T07:04:49.000Z</time>
      </trkpt>
      <trkpt lat="40.15546314418315887451171875" lon="-1.55707505531609058380126953125">
        <ele>1405.4000244140625</ele>
        <time>2022-08-26T07:04:56.000Z</time>
      </trkpt>
      <trkpt lat="40.155176483094692230224609375" lon="-1.5568404458463191986083984375">
        <ele>1406.199951171875</ele>
        <time>2022-08-26T07:05:08.000Z</time>
      </trkpt>
      <trkpt lat="40.1550914905965328216552734375" lon="-1.55677489936351776123046875">
        <ele>1406.800048828125</ele>
        <time>2022-08-26T07:05:12.000Z</time>
      </trkpt>
      <trkpt lat="40.15502016060054302215576171875" lon="-1.5566952712833881378173828125">
        <ele>1407.199951171875</ele>
        <time>2022-08-26T07:05:16.000Z</time>
      </trkpt>
      <trkpt lat="40.154824443161487579345703125" lon="-1.55654783360660076141357421875">
        <ele>1407.4000244140625</ele>
        <time>2022-08-26T07:05:23.000Z</time>
      </trkpt>
      <trkpt lat="40.15457726083695888519287109375" lon="-1.55647072009742259979248046875">
        <ele>1407</ele>
        <time>2022-08-26T07:05:31.000Z</time>
      </trkpt>
      <trkpt lat="40.1543079502880573272705078125" lon="-1.55633493326604366302490234375">
        <ele>1407</ele>
        <time>2022-08-26T07:05:39.000Z</time>
      </trkpt>
      <trkpt lat="40.15407417900860309600830078125" lon="-1.5562801994383335113525390625">
        <ele>1407.199951171875</ele>
        <time>2022-08-26T07:05:46.000Z</time>
      </trkpt>
      <trkpt lat="40.15390704385936260223388671875" lon="-1.55630509369075298309326171875">
        <ele>1407.5999755859375</ele>
        <time>2022-08-26T07:05:52.000Z</time>
      </trkpt>
      <trkpt lat="40.15379070304334163665771484375" lon="-1.55628983862698078155517578125">
        <ele>1407.5999755859375</ele>
        <time>2022-08-26T07:05:56.000Z</time>
      </trkpt>
      <trkpt lat="40.1536347158253192901611328125" lon="-1.556228064000606536865234375">
        <ele>1408.4000244140625</ele>
        <time>2022-08-26T07:06:01.000Z</time>
      </trkpt>
      <trkpt lat="40.1535488851368427276611328125" lon="-1.5561662055552005767822265625">
        <ele>1408.5999755859375</ele>
        <time>2022-08-26T07:06:04.000Z</time>
      </trkpt>
      <trkpt lat="40.1533985137939453125" lon="-1.55608691275119781494140625">
        <ele>1408.5999755859375</ele>
        <time>2022-08-26T07:06:11.000Z</time>
      </trkpt>
      <trkpt lat="40.1533088274300098419189453125" lon="-1.555965207517147064208984375">
        <ele>1408.800048828125</ele>
        <time>2022-08-26T07:06:18.000Z</time>
      </trkpt>
      <trkpt lat="40.15319122932851314544677734375" lon="-1.55583151616156101226806640625">
        <ele>1409.199951171875</ele>
        <time>2022-08-26T07:06:24.000Z</time>
      </trkpt>
      <trkpt lat="40.1531180553138256072998046875" lon="-1.55577435158193111419677734375">
        <ele>1409.4000244140625</ele>
        <time>2022-08-26T07:06:27.000Z</time>
      </trkpt>
      <trkpt lat="40.15295050106942653656005859375" lon="-1.555692963302135467529296875">
        <ele>1410</ele>
        <time>2022-08-26T07:06:33.000Z</time>
      </trkpt>
      <trkpt lat="40.15292041003704071044921875" lon="-1.55567678622901439666748046875">
        <ele>1410.199951171875</ele>
        <time>2022-08-26T07:06:34.000Z</time>
      </trkpt>
      <trkpt lat="40.1526872254908084869384765625" lon="-1.5555707551538944244384765625">
        <ele>1411</ele>
        <time>2022-08-26T07:06:42.000Z</time>
      </trkpt>
      <trkpt lat="40.15257348306477069854736328125" lon="-1.55550889670848846435546875">
        <ele>1411</ele>
        <time>2022-08-26T07:06:47.000Z</time>
      </trkpt>
      <trkpt lat="40.15253408811986446380615234375" lon="-1.55550713650882244110107421875">
        <ele>1411.199951171875</ele>
        <time>2022-08-26T07:06:49.000Z</time>
      </trkpt>
      <trkpt lat="40.15245915390551090240478515625" lon="-1.55546539463102817535400390625">
        <ele>1411.4000244140625</ele>
        <time>2022-08-26T07:06:52.000Z</time>
      </trkpt>
      <trkpt lat="40.1523482613265514373779296875" lon="-1.55541778542101383209228515625">
        <ele>1412</ele>
        <time>2022-08-26T07:06:56.000Z</time>
      </trkpt>
      <trkpt lat="40.15228606760501861572265625" lon="-1.55539230443537235260009765625">
        <ele>1412.4000244140625</ele>
        <time>2022-08-26T07:06:58.000Z</time>
      </trkpt>
      <trkpt lat="40.15205011703073978424072265625" lon="-1.55529691837728023529052734375">
        <ele>1413</ele>
        <time>2022-08-26T07:07:05.000Z</time>
      </trkpt>
      <trkpt lat="40.15183604322373867034912109375" lon="-1.55520136468112468719482421875">
        <ele>1413</ele>
        <time>2022-08-26T07:07:11.000Z</time>
      </trkpt>
      <trkpt lat="40.15157469548285007476806640625" lon="-1.55506574548780918121337890625">
        <ele>1412.4000244140625</ele>
        <time>2022-08-26T07:07:18.000Z</time>
      </trkpt>
      <trkpt lat="40.1513632200658321380615234375" lon="-1.5548671782016754150390625">
        <ele>1412</ele>
        <time>2022-08-26T07:07:25.000Z</time>
      </trkpt>
      <trkpt lat="40.1511013694107532501220703125" lon="-1.5547660924494266510009765625">
        <ele>1412.4000244140625</ele>
        <time>2022-08-26T07:07:35.000Z</time>
      </trkpt>
      <trkpt lat="40.1509109325706958770751953125" lon="-1.5546842850744724273681640625">
        <ele>1413.199951171875</ele>
        <time>2022-08-26T07:07:42.000Z</time>
      </trkpt>
      <trkpt lat="40.150887966156005859375" lon="-1.554665677249431610107421875">
        <ele>1413.199951171875</ele>
        <time>2022-08-26T07:07:43.000Z</time>
      </trkpt>
      <trkpt lat="40.15075444243848323822021484375" lon="-1.55456249602138996124267578125">
        <ele>1414.199951171875</ele>
        <time>2022-08-26T07:07:49.000Z</time>
      </trkpt>
      <trkpt lat="40.15071018598973751068115234375" lon="-1.5545313991606235504150390625">
        <ele>1414.5999755859375</ele>
        <time>2022-08-26T07:07:51.000Z</time>
      </trkpt>
      <trkpt lat="40.15063039027154445648193359375" lon="-1.5544744022190570831298828125">
        <ele>1415.4000244140625</ele>
        <time>2022-08-26T07:07:55.000Z</time>
      </trkpt>
      <trkpt lat="40.150521509349346160888671875" lon="-1.55440248548984527587890625">
        <ele>1416</ele>
        <time>2022-08-26T07:07:59.000Z</time>
      </trkpt>
      <trkpt lat="40.1504214294254779815673828125" lon="-1.55432478524744510650634765625">
        <ele>1416.4000244140625</ele>
        <time>2022-08-26T07:08:02.000Z</time>
      </trkpt>
      <trkpt lat="40.15030936338007450103759765625" lon="-1.55424549244344234466552734375">
        <ele>1416.4000244140625</ele>
        <time>2022-08-26T07:08:05.000Z</time>
      </trkpt>
      <trkpt lat="40.1499719917774200439453125" lon="-1.55412747524678707122802734375">
        <ele>1416.4000244140625</ele>
        <time>2022-08-26T07:08:13.000Z</time>
      </trkpt>
      <trkpt lat="40.1496043615043163299560546875" lon="-1.554054133594036102294921875">
        <ele>1415.199951171875</ele>
        <time>2022-08-26T07:08:20.000Z</time>
      </trkpt>
      <trkpt lat="40.1492955721914768218994140625" lon="-1.55395262874662876129150390625">
        <ele>1413.800048828125</ele>
        <time>2022-08-26T07:08:26.000Z</time>
      </trkpt>
      <trkpt lat="40.1492104120552539825439453125" lon="-1.55391809530556201934814453125">
        <ele>1413</ele>
        <time>2022-08-26T07:08:28.000Z</time>
      </trkpt>
      <trkpt lat="40.14917328022420406341552734375" lon="-1.55390367843210697174072265625">
        <ele>1412.800048828125</ele>
        <time>2022-08-26T07:08:29.000Z</time>
      </trkpt>
      <trkpt lat="40.1491021178662776947021484375" lon="-1.55388892628252506256103515625">
        <ele>1412.4000244140625</ele>
        <time>2022-08-26T07:08:31.000Z</time>
      </trkpt>
      <trkpt lat="40.14885275624692440032958984375" lon="-1.55375196598470211029052734375">
        <ele>1412.199951171875</ele>
        <time>2022-08-26T07:08:39.000Z</time>
      </trkpt>
      <trkpt lat="40.14868386089801788330078125" lon="-1.55359455384314060211181640625">
        <ele>1412.4000244140625</ele>
        <time>2022-08-26T07:08:46.000Z</time>
      </trkpt>
      <trkpt lat="40.14845947735011577606201171875" lon="-1.55351643450558185577392578125">
        <ele>1413.199951171875</ele>
        <time>2022-08-26T07:08:55.000Z</time>
      </trkpt>
      <trkpt lat="40.1481938548386096954345703125" lon="-1.55349799431860446929931640625">
        <ele>1413.4000244140625</ele>
        <time>2022-08-26T07:09:03.000Z</time>
      </trkpt>
      <trkpt lat="40.14790375716984272003173828125" lon="-1.5534534864127635955810546875">
        <ele>1413.4000244140625</ele>
        <time>2022-08-26T07:09:12.000Z</time>
      </trkpt>
      <trkpt lat="40.1478047668933868408203125" lon="-1.55341015197336673736572265625">
        <ele>1413.800048828125</ele>
        <time>2022-08-26T07:09:15.000Z</time>
      </trkpt>
      <trkpt lat="40.14769068919122219085693359375" lon="-1.55334678478538990020751953125">
        <ele>1414.199951171875</ele>
        <time>2022-08-26T07:09:19.000Z</time>
      </trkpt>
      <trkpt lat="40.1474847458302974700927734375" lon="-1.55315391719341278076171875">
        <ele>1414.5999755859375</ele>
        <time>2022-08-26T07:09:26.000Z</time>
      </trkpt>
      <trkpt lat="40.14734853990375995635986328125" lon="-1.55299273319542407989501953125">
        <ele>1414.5999755859375</ele>
        <time>2022-08-26T07:09:32.000Z</time>
      </trkpt>
      <trkpt lat="40.14708953909575939178466796875" lon="-1.5527742169797420501708984375">
        <ele>1414.199951171875</ele>
        <time>2022-08-26T07:09:41.000Z</time>
      </trkpt>
      <trkpt lat="40.14685953967273235321044921875" lon="-1.552584953606128692626953125">
        <ele>1414.4000244140625</ele>
        <time>2022-08-26T07:09:49.000Z</time>
      </trkpt>
      <trkpt lat="40.14677387662231922149658203125" lon="-1.5525093488395214080810546875">
        <ele>1414.5999755859375</ele>
        <time>2022-08-26T07:09:52.000Z</time>
      </trkpt>
      <trkpt lat="40.146604143083095550537109375" lon="-1.55236828140914440155029296875">
        <ele>1414.800048828125</ele>
        <time>2022-08-26T07:09:58.000Z</time>
      </trkpt>
      <trkpt lat="40.1464148797094821929931640625" lon="-1.55225546099245548248291015625">
        <ele>1415</ele>
        <time>2022-08-26T07:10:05.000Z</time>
      </trkpt>
      <trkpt lat="40.1461808569729328155517578125" lon="-1.5521764196455478668212890625">
        <ele>1415</ele>
        <time>2022-08-26T07:10:13.000Z</time>
      </trkpt>
      <trkpt lat="40.1460936851799488067626953125" lon="-1.5521609969437122344970703125">
        <ele>1415.5999755859375</ele>
        <time>2022-08-26T07:10:17.000Z</time>
      </trkpt>
      <trkpt lat="40.1460048370063304901123046875" lon="-1.552137695252895355224609375">
        <ele>1416</ele>
        <time>2022-08-26T07:10:21.000Z</time>
      </trkpt>
      <trkpt lat="40.14586762525141239166259765625" lon="-1.55207776464521884918212890625">
        <ele>1416.5999755859375</ele>
        <time>2022-08-26T07:10:26.000Z</time>
      </trkpt>
      <trkpt lat="40.145776011049747467041015625" lon="-1.55205555260181427001953125">
        <ele>1416.800048828125</ele>
        <time>2022-08-26T07:10:29.000Z</time>
      </trkpt>
      <trkpt lat="40.1455887593328952789306640625" lon="-1.5519757568836212158203125">
        <ele>1417.199951171875</ele>
        <time>2022-08-26T07:10:36.000Z</time>
      </trkpt>
      <trkpt lat="40.145454145967960357666015625" lon="-1.55193896032869815826416015625">
        <ele>1417.4000244140625</ele>
        <time>2022-08-26T07:10:41.000Z</time>
      </trkpt>
      <trkpt lat="40.14534912072122097015380859375" lon="-1.55188246630132198333740234375">
        <ele>1418</ele>
        <time>2022-08-26T07:10:45.000Z</time>
      </trkpt>
      <trkpt lat="40.1452169381082057952880859375" lon="-1.55176662839949131011962890625">
        <ele>1418.5999755859375</ele>
        <time>2022-08-26T07:10:51.000Z</time>
      </trkpt>
      <trkpt lat="40.14514870941638946533203125" lon="-1.5516651235520839691162109375">
        <ele>1418.5999755859375</ele>
        <time>2022-08-26T07:10:57.000Z</time>
      </trkpt>
      <trkpt lat="40.1451461948454380035400390625" lon="-1.551655568182468414306640625">
        <ele>1418.5999755859375</ele>
        <time>2022-08-26T07:11:00.000Z</time>
      </trkpt>
      <trkpt lat="40.14504603110253810882568359375" lon="-1.5515578351914882659912109375">
        <ele>1418.5999755859375</ele>
        <time>2022-08-26T07:11:45.000Z</time>
      </trkpt>
      <trkpt lat="40.14502809382975101470947265625" lon="-1.55154400505125522613525390625">
        <ele>1418.5999755859375</ele>
        <time>2022-08-26T07:11:46.000Z</time>
      </trkpt>
      <trkpt lat="40.14485944993793964385986328125" lon="-1.55144308693706989288330078125">
        <ele>1418.800048828125</ele>
        <time>2022-08-26T07:11:53.000Z</time>
      </trkpt>
      <trkpt lat="40.144757442176342010498046875" lon="-1.55137829482555389404296875">
        <ele>1419.199951171875</ele>
        <time>2022-08-26T07:11:57.000Z</time>
      </trkpt>
      <trkpt lat="40.14467052184045314788818359375" lon="-1.5513107366859912872314453125">
        <ele>1419.5999755859375</ele>
        <time>2022-08-26T07:12:01.000Z</time>
      </trkpt>
      <trkpt lat="40.1445691846311092376708984375" lon="-1.55125466175377368927001953125">
        <ele>1419.800048828125</ele>
        <time>2022-08-26T07:12:07.000Z</time>
      </trkpt>
      <trkpt lat="40.144453011453151702880859375" lon="-1.55117168091237545013427734375">
        <ele>1419.800048828125</ele>
        <time>2022-08-26T07:12:13.000Z</time>
      </trkpt>
      <trkpt lat="40.14433139003813266754150390625" lon="-1.5510988421738147735595703125">
        <ele>1420</ele>
        <time>2022-08-26T07:12:19.000Z</time>
      </trkpt>
      <trkpt lat="40.14431294985115528106689453125" lon="-1.55105215497314929962158203125">
        <ele>1420</ele>
        <time>2022-08-26T07:12:21.000Z</time>
      </trkpt>
      <trkpt lat="40.14429601840674877166748046875" lon="-1.5509499795734882354736328125">
        <ele>1420.199951171875</ele>
        <time>2022-08-26T07:12:24.000Z</time>
      </trkpt>
      <trkpt lat="40.14429442584514617919921875" lon="-1.55073263682425022125244140625">
        <ele>1420.199951171875</ele>
        <time>2022-08-26T07:12:30.000Z</time>
      </trkpt>
      <trkpt lat="40.14423466287553310394287109375" lon="-1.5505674295127391815185546875">
        <ele>1420</ele>
        <time>2022-08-26T07:12:34.000Z</time>
      </trkpt>
      <trkpt lat="40.1441631652414798736572265625" lon="-1.55035729520022869110107421875">
        <ele>1419.5999755859375</ele>
        <time>2022-08-26T07:12:40.000Z</time>
      </trkpt>
      <trkpt lat="40.14419677667319774627685546875" lon="-1.55018395744264125823974609375">
        <ele>1419.5999755859375</ele>
        <time>2022-08-26T07:12:47.000Z</time>
      </trkpt>
      <trkpt lat="40.1442791707813739776611328125" lon="-1.55013374984264373779296875">
        <ele>1419.5999755859375</ele>
        <time>2022-08-26T07:12:51.000Z</time>
      </trkpt>
      <trkpt lat="40.14432552270591259002685546875" lon="-1.5501357614994049072265625">
        <ele>1420</ele>
        <time>2022-08-26T07:12:53.000Z</time>
      </trkpt>
      <trkpt lat="40.14451445080339908599853515625" lon="-1.55016501434147357940673828125">
        <ele>1420.4000244140625</ele>
        <time>2022-08-26T07:13:03.000Z</time>
      </trkpt>
      <trkpt lat="40.1445673406124114990234375" lon="-1.5501657687127590179443359375">
        <ele>1420.800048828125</ele>
        <time>2022-08-26T07:13:06.000Z</time>
      </trkpt>
      <trkpt lat="40.144662223756313323974609375" lon="-1.55016635544598102569580078125">
        <ele>1422</ele>
        <time>2022-08-26T07:13:12.000Z</time>
      </trkpt>
      <trkpt lat="40.14467538334429264068603515625" lon="-1.55016870237886905670166015625">
        <ele>1422.199951171875</ele>
        <time>2022-08-26T07:13:13.000Z</time>
      </trkpt>
      <trkpt lat="40.14472626149654388427734375" lon="-1.55018378980457782745361328125">
        <ele>1423</ele>
        <time>2022-08-26T07:13:16.000Z</time>
      </trkpt>
      <trkpt lat="40.1448196358978748321533203125" lon="-1.5501835383474826812744140625">
        <ele>1424</ele>
        <time>2022-08-26T07:13:22.000Z</time>
      </trkpt>
      <trkpt lat="40.1448514871299266815185546875" lon="-1.55019099824130535125732421875">
        <ele>1424.199951171875</ele>
        <time>2022-08-26T07:13:24.000Z</time>
      </trkpt>
      <trkpt lat="40.14493723399937152862548828125" lon="-1.55020491220057010650634765625">
        <ele>1425</ele>
        <time>2022-08-26T07:13:29.000Z</time>
      </trkpt>
      <trkpt lat="40.145061202347278594970703125" lon="-1.55020843259990215301513671875">
        <ele>1426</ele>
        <time>2022-08-26T07:13:37.000Z</time>
      </trkpt>
      <trkpt lat="40.14507360756397247314453125" lon="-1.5502063371241092681884765625">
        <ele>1426.199951171875</ele>
        <time>2022-08-26T07:13:38.000Z</time>
      </trkpt>
      <trkpt lat="40.145156085491180419921875" lon="-1.550210528075695037841796875">
        <ele>1427.199951171875</ele>
        <time>2022-08-26T07:13:43.000Z</time>
      </trkpt>
      <trkpt lat="40.14525038190186023712158203125" lon="-1.5502284653484821319580078125">
        <ele>1427.5999755859375</ele>
        <time>2022-08-26T07:13:48.000Z</time>
      </trkpt>
      <trkpt lat="40.1453547365963459014892578125" lon="-1.55022620223462581634521484375">
        <ele>1428.199951171875</ele>
        <time>2022-08-26T07:13:54.000Z</time>
      </trkpt>
      <trkpt lat="40.14544869773089885711669921875" lon="-1.55021782033145427703857421875">
        <ele>1428.5999755859375</ele>
        <time>2022-08-26T07:13:59.000Z</time>
      </trkpt>
      <trkpt lat="40.14552212320268154144287109375" lon="-1.5501987934112548828125">
        <ele>1429.199951171875</ele>
        <time>2022-08-26T07:14:03.000Z</time>
      </trkpt>
      <trkpt lat="40.1456085406243801116943359375" lon="-1.5501701273024082183837890625">
        <ele>1429.5999755859375</ele>
        <time>2022-08-26T07:14:08.000Z</time>
      </trkpt>
      <trkpt lat="40.1457869075238704681396484375" lon="-1.550188399851322174072265625">
        <ele>1429.800048828125</ele>
        <time>2022-08-26T07:14:17.000Z</time>
      </trkpt>
      <trkpt lat="40.145924203097820281982421875" lon="-1.55021421611309051513671875">
        <ele>1430</ele>
        <time>2022-08-26T07:14:24.000Z</time>
      </trkpt>
      <trkpt lat="40.14602185226976871490478515625" lon="-1.550213880836963653564453125">
        <ele>1430.199951171875</ele>
        <time>2022-08-26T07:14:29.000Z</time>
      </trkpt>
      <trkpt lat="40.14623768627643585205078125" lon="-1.55019083060324192047119140625">
        <ele>1430.800048828125</ele>
        <time>2022-08-26T07:14:40.000Z</time>
      </trkpt>
      <trkpt lat="40.14633885584771633148193359375" lon="-1.55015562660992145538330078125">
        <ele>1431</ele>
        <time>2022-08-26T07:14:46.000Z</time>
      </trkpt>
      <trkpt lat="40.14641948975622653961181640625" lon="-1.55013450421392917633056640625">
        <ele>1431.4000244140625</ele>
        <time>2022-08-26T07:14:51.000Z</time>
      </trkpt>
      <trkpt lat="40.1465355791151523590087890625" lon="-1.55011891387403011322021484375">
        <ele>1432</ele>
        <time>2022-08-26T07:14:57.000Z</time>
      </trkpt>
      <trkpt lat="40.14669022522866725921630859375" lon="-1.5500883199274539947509765625">
        <ele>1432.800048828125</ele>
        <time>2022-08-26T07:15:05.000Z</time>
      </trkpt>
      <trkpt lat="40.1467528380453586578369140625" lon="-1.5500735677778720855712890625">
        <ele>1433.199951171875</ele>
        <time>2022-08-26T07:15:08.000Z</time>
      </trkpt>
      <trkpt lat="40.14697873033583164215087890625" lon="-1.55000156722962856292724609375">
        <ele>1434</ele>
        <time>2022-08-26T07:15:19.000Z</time>
      </trkpt>
      <trkpt lat="40.14705752022564411163330078125" lon="-1.54999352060258388519287109375">
        <ele>1434.199951171875</ele>
        <time>2022-08-26T07:15:23.000Z</time>
      </trkpt>
      <trkpt lat="40.14714435674250125885009765625" lon="-1.54999234713613986968994140625">
        <ele>1434.4000244140625</ele>
        <time>2022-08-26T07:15:28.000Z</time>
      </trkpt>
      <trkpt lat="40.1472745276987552642822265625" lon="-1.549967788159847259521484375">
        <ele>1434.800048828125</ele>
        <time>2022-08-26T07:15:37.000Z</time>
      </trkpt>
      <trkpt lat="40.14729120768606662750244140625" lon="-1.54996016062796115875244140625">
        <ele>1435</ele>
        <time>2022-08-26T07:15:38.000Z</time>
      </trkpt>
      <trkpt lat="40.1473863422870635986328125" lon="-1.549917496740818023681640625">
        <ele>1436</ele>
        <time>2022-08-26T07:15:45.000Z</time>
      </trkpt>
      <trkpt lat="40.1474522240459918975830078125" lon="-1.54987684451043605804443359375">
        <ele>1436.800048828125</ele>
        <time>2022-08-26T07:15:50.000Z</time>
      </trkpt>
      <trkpt lat="40.147476531565189361572265625" lon="-1.54985823668539524078369140625">
        <ele>1437</ele>
        <time>2022-08-26T07:15:52.000Z</time>
      </trkpt>
      <trkpt lat="40.14758792705833911895751953125" lon="-1.5498043410480022430419921875">
        <ele>1438.199951171875</ele>
        <time>2022-08-26T07:16:00.000Z</time>
      </trkpt>
      <trkpt lat="40.1476919464766979217529296875" lon="-1.5497481822967529296875">
        <ele>1439.199951171875</ele>
        <time>2022-08-26T07:16:08.000Z</time>
      </trkpt>
      <trkpt lat="40.1477264799177646636962890625" lon="-1.5497175045311450958251953125">
        <ele>1439.800048828125</ele>
        <time>2022-08-26T07:16:11.000Z</time>
      </trkpt>
      <trkpt lat="40.1477600075304508209228515625" lon="-1.54969613067805767059326171875">
        <ele>1440.199951171875</ele>
        <time>2022-08-26T07:16:14.000Z</time>
      </trkpt>
      <trkpt lat="40.14785028062760829925537109375" lon="-1.5496695600450038909912109375">
        <ele>1441</ele>
        <time>2022-08-26T07:16:21.000Z</time>
      </trkpt>
      <trkpt lat="40.14786134473979473114013671875" lon="-1.54966662637889385223388671875">
        <ele>1441.199951171875</ele>
        <time>2022-08-26T07:16:22.000Z</time>
      </trkpt>
      <trkpt lat="40.1479269750416278839111328125" lon="-1.5496447496116161346435546875">
        <ele>1442</ele>
        <time>2022-08-26T07:16:28.000Z</time>
      </trkpt>
      <trkpt lat="40.14799361117184162139892578125" lon="-1.5496071986854076385498046875">
        <ele>1442.800048828125</ele>
        <time>2022-08-26T07:16:34.000Z</time>
      </trkpt>
      <trkpt lat="40.14801473356783390045166015625" lon="-1.5496001578867435455322265625">
        <ele>1443.199951171875</ele>
        <time>2022-08-26T07:16:36.000Z</time>
      </trkpt>
      <trkpt lat="40.1480858959257602691650390625" lon="-1.54958632774651050567626953125">
        <ele>1444.199951171875</ele>
        <time>2022-08-26T07:16:42.000Z</time>
      </trkpt>
      <trkpt lat="40.14814674854278564453125" lon="-1.54958766885101795196533203125">
        <ele>1445</ele>
        <time>2022-08-26T07:16:47.000Z</time>
      </trkpt>
      <trkpt lat="40.1481563039124011993408203125" lon="-1.5495847351849079132080078125">
        <ele>1445.4000244140625</ele>
        <time>2022-08-26T07:16:48.000Z</time>
      </trkpt>
      <trkpt lat="40.14822662808001041412353515625" lon="-1.5495562367141246795654296875">
        <ele>1446.4000244140625</ele>
        <time>2022-08-26T07:16:55.000Z</time>
      </trkpt>
      <trkpt lat="40.14825747348368167877197265625" lon="-1.54955447651445865631103515625">
        <ele>1446.5999755859375</ele>
        <time>2022-08-26T07:16:58.000Z</time>
      </trkpt>
      <trkpt lat="40.14829762279987335205078125" lon="-1.54955062083899974822998046875">
        <ele>1447.199951171875</ele>
        <time>2022-08-26T07:17:02.000Z</time>
      </trkpt>
      <trkpt lat="40.14835637994110584259033203125" lon="-1.54953234829008579254150390625">
        <ele>1447.800048828125</ele>
        <time>2022-08-26T07:17:07.000Z</time>
      </trkpt>
      <trkpt lat="40.1483873091638088226318359375" lon="-1.549520529806613922119140625">
        <ele>1448.5999755859375</ele>
        <time>2022-08-26T07:17:10.000Z</time>
      </trkpt>
      <trkpt lat="40.14846115373075008392333984375" lon="-1.5495089627802371978759765625">
        <ele>1449.199951171875</ele>
        <time>2022-08-26T07:17:16.000Z</time>
      </trkpt>
      <trkpt lat="40.148484706878662109375" lon="-1.54951013624668121337890625">
        <ele>1449.5999755859375</ele>
        <time>2022-08-26T07:17:18.000Z</time>
      </trkpt>
      <trkpt lat="40.14856844209134578704833984375" lon="-1.5495046041905879974365234375">
        <ele>1450.5999755859375</ele>
        <time>2022-08-26T07:17:25.000Z</time>
      </trkpt>
      <trkpt lat="40.14858000911772251129150390625" lon="-1.549499742686748504638671875">
        <ele>1450.5999755859375</ele>
        <time>2022-08-26T07:17:26.000Z</time>
      </trkpt>
      <trkpt lat="40.1486883871257305145263671875" lon="-1.54949027113616466522216796875">
        <ele>1451.800048828125</ele>
        <time>2022-08-26T07:17:35.000Z</time>
      </trkpt>
      <trkpt lat="40.14869861304759979248046875" lon="-1.54948893003165721893310546875">
        <ele>1452</ele>
        <time>2022-08-26T07:17:36.000Z</time>
      </trkpt>
      <trkpt lat="40.148751921951770782470703125" lon="-1.5494786202907562255859375">
        <ele>1452.800048828125</ele>
        <time>2022-08-26T07:17:41.000Z</time>
      </trkpt>
      <trkpt lat="40.14885409735143184661865234375" lon="-1.549452804028987884521484375">
        <ele>1453.800048828125</ele>
        <time>2022-08-26T07:17:49.000Z</time>
      </trkpt>
      <trkpt lat="40.148865245282649993896484375" lon="-1.54944919981062412261962890625">
        <ele>1454</ele>
        <time>2022-08-26T07:17:50.000Z</time>
      </trkpt>
      <trkpt lat="40.14895417727530002593994140625" lon="-1.54942707158625125885009765625">
        <ele>1455</ele>
        <time>2022-08-26T07:17:58.000Z</time>
      </trkpt>
      <trkpt lat="40.14899893663823604583740234375" lon="-1.5494224615395069122314453125">
        <ele>1455.4000244140625</ele>
        <time>2022-08-26T07:18:02.000Z</time>
      </trkpt>
      <trkpt lat="40.14904470182955265045166015625" lon="-1.54940008185803890228271484375">
        <ele>1456</ele>
        <time>2022-08-26T07:18:06.000Z</time>
      </trkpt>
      <trkpt lat="40.149113349616527557373046875" lon="-1.549386419355869293212890625">
        <ele>1457.199951171875</ele>
        <time>2022-08-26T07:18:12.000Z</time>
      </trkpt>
      <trkpt lat="40.1491259224712848663330078125" lon="-1.5493828989565372467041015625">
        <ele>1457.4000244140625</ele>
        <time>2022-08-26T07:18:13.000Z</time>
      </trkpt>
      <trkpt lat="40.14916992746293544769287109375" lon="-1.54936454258859157562255859375">
        <ele>1458.199951171875</ele>
        <time>2022-08-26T07:18:17.000Z</time>
      </trkpt>
      <trkpt lat="40.14926129020750522613525390625" lon="-1.5493282489478588104248046875">
        <ele>1459.4000244140625</ele>
        <time>2022-08-26T07:18:25.000Z</time>
      </trkpt>
      <trkpt lat="40.1494140923023223876953125" lon="-1.54925071634352207183837890625">
        <ele>1460.199951171875</ele>
        <time>2022-08-26T07:18:37.000Z</time>
      </trkpt>
      <trkpt lat="40.1494729332625865936279296875" lon="-1.54922523535788059234619140625">
        <ele>1460.800048828125</ele>
        <time>2022-08-26T07:18:41.000Z</time>
      </trkpt>
      <trkpt lat="40.14954811893403530120849609375" lon="-1.5491907857358455657958984375">
        <ele>1461.199951171875</ele>
        <time>2022-08-26T07:18:46.000Z</time>
      </trkpt>
      <trkpt lat="40.14967535622417926788330078125" lon="-1.54912649653851985931396484375">
        <ele>1461.5999755859375</ele>
        <time>2022-08-26T07:18:54.000Z</time>
      </trkpt>
      <trkpt lat="40.1497793756425380706787109375" lon="-1.549063883721828460693359375">
        <ele>1462.4000244140625</ele>
        <time>2022-08-26T07:19:02.000Z</time>
      </trkpt>
      <trkpt lat="40.1500046811997890472412109375" lon="-1.5488920547068119049072265625">
        <ele>1463.199951171875</ele>
        <time>2022-08-26T07:19:15.000Z</time>
      </trkpt>
      <trkpt lat="40.1500418968498706817626953125" lon="-1.5488588623702526092529296875">
        <ele>1463.4000244140625</ele>
        <time>2022-08-26T07:19:17.000Z</time>
      </trkpt>
      <trkpt lat="40.15017491765320301055908203125" lon="-1.5486685931682586669921875">
        <ele>1463.800048828125</ele>
        <time>2022-08-26T07:19:26.000Z</time>
      </trkpt>
      <trkpt lat="40.15030383132398128509521484375" lon="-1.5484716184437274932861328125">
        <ele>1464.199951171875</ele>
        <time>2022-08-26T07:19:36.000Z</time>
      </trkpt>
      <trkpt lat="40.1504016481339931488037109375" lon="-1.54833893291652202606201171875">
        <ele>1465.199951171875</ele>
        <time>2022-08-26T07:19:43.000Z</time>
      </trkpt>
      <trkpt lat="40.15049996785819530487060546875" lon="-1.54822041280567646026611328125">
        <ele>1465.5999755859375</ele>
        <time>2022-08-26T07:19:49.000Z</time>
      </trkpt>
      <trkpt lat="40.15071303583681583404541015625" lon="-1.54798186384141445159912109375">
        <ele>1466.199951171875</ele>
        <time>2022-08-26T07:20:00.000Z</time>
      </trkpt>
      <trkpt lat="40.15073264949023723602294921875" lon="-1.54796409420669078826904296875">
        <ele>1466.199951171875</ele>
        <time>2022-08-26T07:20:01.000Z</time>
      </trkpt>
      <trkpt lat="40.1508777402341365814208984375" lon="-1.547860242426395416259765625">
        <ele>1466.4000244140625</ele>
        <time>2022-08-26T07:20:10.000Z</time>
      </trkpt>
      <trkpt lat="40.15105468221008777618408203125" lon="-1.5477190911769866943359375">
        <ele>1466</ele>
        <time>2022-08-26T07:20:20.000Z</time>
      </trkpt>
      <trkpt lat="40.1512777246534824371337890625" lon="-1.5475814603269100189208984375">
        <ele>1465.4000244140625</ele>
        <time>2022-08-26T07:20:30.000Z</time>
      </trkpt>
      <trkpt lat="40.15133195556700229644775390625" lon="-1.54756419360637664794921875">
        <ele>1465.199951171875</ele>
        <time>2022-08-26T07:20:32.000Z</time>
      </trkpt>
      <trkpt lat="40.15149272046983242034912109375" lon="-1.54748884029686450958251953125">
        <ele>1465</ele>
        <time>2022-08-26T07:20:38.000Z</time>
      </trkpt>
      <trkpt lat="40.1517045311629772186279296875" lon="-1.54732271097600460052490234375">
        <ele>1464.199951171875</ele>
        <time>2022-08-26T07:20:46.000Z</time>
      </trkpt>
      <trkpt lat="40.15177099965512752532958984375" lon="-1.54728415422141551971435546875">
        <ele>1464</ele>
        <time>2022-08-26T07:20:48.000Z</time>
      </trkpt>
      <trkpt lat="40.15201776288449764251708984375" lon="-1.54711198993027210235595703125">
        <ele>1463</ele>
        <time>2022-08-26T07:20:56.000Z</time>
      </trkpt>
      <trkpt lat="40.15205514617264270782470703125" lon="-1.5470845811069011688232421875">
        <ele>1462.5999755859375</ele>
        <time>2022-08-26T07:20:58.000Z</time>
      </trkpt>
      <trkpt lat="40.1520587503910064697265625" lon="-1.54707578010857105255126953125">
        <ele>1461.800048828125</ele>
        <time>2022-08-26T07:21:02.000Z</time>
      </trkpt>
      <trkpt lat="40.15216494910418987274169921875" lon="-1.5471137501299381256103515625">
        <ele>1459.5999755859375</ele>
        <time>2022-08-26T07:28:47.000Z</time>
      </trkpt>
      <trkpt lat="40.15218389220535755157470703125" lon="-1.547080390155315399169921875">
        <ele>1459.5999755859375</ele>
        <time>2022-08-26T07:28:49.000Z</time>
      </trkpt>
      <trkpt lat="40.15226067043840885162353515625" lon="-1.5469793044030666351318359375">
        <ele>1459.199951171875</ele>
        <time>2022-08-26T07:28:56.000Z</time>
      </trkpt>
      <trkpt lat="40.1523247919976711273193359375" lon="-1.546916775405406951904296875">
        <ele>1458.5999755859375</ele>
        <time>2022-08-26T07:29:01.000Z</time>
      </trkpt>
      <trkpt lat="40.1524020731449127197265625" lon="-1.546845026314258575439453125">
        <ele>1457.5999755859375</ele>
        <time>2022-08-26T07:29:07.000Z</time>
      </trkpt>
      <trkpt lat="40.15241607092320919036865234375" lon="-1.546828262507915496826171875">
        <ele>1457.5999755859375</ele>
        <time>2022-08-26T07:29:08.000Z</time>
      </trkpt>
      <trkpt lat="40.1525138877332210540771484375" lon="-1.546692810952663421630859375">
        <ele>1456.4000244140625</ele>
        <time>2022-08-26T07:29:17.000Z</time>
      </trkpt>
      <trkpt lat="40.15256945975124835968017578125" lon="-1.5465799905359745025634765625">
        <ele>1455.4000244140625</ele>
        <time>2022-08-26T07:29:24.000Z</time>
      </trkpt>
      <trkpt lat="40.15260667540132999420166015625" lon="-1.54652173630893230438232421875">
        <ele>1455</ele>
        <time>2022-08-26T07:29:27.000Z</time>
      </trkpt>
      <trkpt lat="40.1526426337659358978271484375" lon="-1.546468175947666168212890625">
        <ele>1454.4000244140625</ele>
        <time>2022-08-26T07:29:30.000Z</time>
      </trkpt>
      <trkpt lat="40.15270172618329524993896484375" lon="-1.5463841892778873443603515625">
        <ele>1453</ele>
        <time>2022-08-26T07:29:35.000Z</time>
      </trkpt>
      <trkpt lat="40.15278420411050319671630859375" lon="-1.54631352983415126800537109375">
        <ele>1452</ele>
        <time>2022-08-26T07:29:41.000Z</time>
      </trkpt>
      <trkpt lat="40.1528097689151763916015625" lon="-1.54629542492330074310302734375">
        <ele>1451.4000244140625</ele>
        <time>2022-08-26T07:29:43.000Z</time>
      </trkpt>
      <trkpt lat="40.152837596833705902099609375" lon="-1.5462665073573589324951171875">
        <ele>1450.800048828125</ele>
        <time>2022-08-26T07:29:45.000Z</time>
      </trkpt>
      <trkpt lat="40.152919404208660125732421875" lon="-1.54621445573866367340087890625">
        <ele>1449.5999755859375</ele>
        <time>2022-08-26T07:29:50.000Z</time>
      </trkpt>
      <trkpt lat="40.15298302285373210906982421875" lon="-1.546178497374057769775390625">
        <ele>1448.5999755859375</ele>
        <time>2022-08-26T07:29:54.000Z</time>
      </trkpt>
      <trkpt lat="40.1530458033084869384765625" lon="-1.546113789081573486328125">
        <ele>1447.5999755859375</ele>
        <time>2022-08-26T07:29:58.000Z</time>
      </trkpt>
      <trkpt lat="40.15314714051783084869384765625" lon="-1.54603290371596813201904296875">
        <ele>1446.199951171875</ele>
        <time>2022-08-26T07:30:03.000Z</time>
      </trkpt>
      <trkpt lat="40.15324319712817668914794921875" lon="-1.54596291482448577880859375">
        <ele>1445</ele>
        <time>2022-08-26T07:30:07.000Z</time>
      </trkpt>
      <trkpt lat="40.15327085740864276885986328125" lon="-1.54594548046588897705078125">
        <ele>1444.800048828125</ele>
        <time>2022-08-26T07:30:08.000Z</time>
      </trkpt>
      <trkpt lat="40.15336976386606693267822265625" lon="-1.5458896569907665252685546875">
        <ele>1444</ele>
        <time>2022-08-26T07:30:11.000Z</time>
      </trkpt>
      <trkpt lat="40.15350957401096820831298828125" lon="-1.5458122082054615020751953125">
        <ele>1443.199951171875</ele>
        <time>2022-08-26T07:30:15.000Z</time>
      </trkpt>
      <trkpt lat="40.15353941358625888824462890625" lon="-1.54579527676105499267578125">
        <ele>1443</ele>
        <time>2022-08-26T07:30:16.000Z</time>
      </trkpt>
      <trkpt lat="40.153642594814300537109375" lon="-1.54574029147624969482421875">
        <ele>1441.5999755859375</ele>
        <time>2022-08-26T07:30:20.000Z</time>
      </trkpt>
      <trkpt lat="40.1536881923675537109375" lon="-1.54572176747024059295654296875">
        <ele>1441.4000244140625</ele>
        <time>2022-08-26T07:30:22.000Z</time>
      </trkpt>
      <trkpt lat="40.15385641716420650482177734375" lon="-1.545652113854885101318359375">
        <ele>1441</ele>
        <time>2022-08-26T07:30:29.000Z</time>
      </trkpt>
      <trkpt lat="40.15400930307805538177490234375" lon="-1.5456113778054714202880859375">
        <ele>1440.800048828125</ele>
        <time>2022-08-26T07:30:36.000Z</time>
      </trkpt>
      <trkpt lat="40.1541651226580142974853515625" lon="-1.5455929376184940338134765625">
        <ele>1440.800048828125</ele>
        <time>2022-08-26T07:30:42.000Z</time>
      </trkpt>
      <trkpt lat="40.15427098609507083892822265625" lon="-1.5456006489694118499755859375">
        <ele>1440.5999755859375</ele>
        <time>2022-08-26T07:30:46.000Z</time>
      </trkpt>
      <trkpt lat="40.154389254748821258544921875" lon="-1.5456063486635684967041015625">
        <ele>1440.5999755859375</ele>
        <time>2022-08-26T07:30:50.000Z</time>
      </trkpt>
      <trkpt lat="40.15466292388737201690673828125" lon="-1.54562872834503650665283203125">
        <ele>1439.5999755859375</ele>
        <time>2022-08-26T07:30:59.000Z</time>
      </trkpt>
      <trkpt lat="40.15492024831473827362060546875" lon="-1.545672900974750518798828125">
        <ele>1438.5999755859375</ele>
        <time>2022-08-26T07:31:07.000Z</time>
      </trkpt>
      <trkpt lat="40.15523004345595836639404296875" lon="-1.545752026140689849853515625">
        <ele>1437.800048828125</ele>
        <time>2022-08-26T07:31:16.000Z</time>
      </trkpt>
      <trkpt lat="40.15529341064393520355224609375" lon="-1.5457691252231597900390625">
        <ele>1437.4000244140625</ele>
        <time>2022-08-26T07:31:18.000Z</time>
      </trkpt>
      <trkpt lat="40.155414529144763946533203125" lon="-1.545787565410137176513671875">
        <ele>1437</ele>
        <time>2022-08-26T07:31:22.000Z</time>
      </trkpt>
      <trkpt lat="40.15561292879283428192138671875" lon="-1.54585017822682857513427734375">
        <ele>1436.199951171875</ele>
        <time>2022-08-26T07:31:29.000Z</time>
      </trkpt>
      <trkpt lat="40.15581912361085414886474609375" lon="-1.54591874219477176666259765625">
        <ele>1435.800048828125</ele>
        <time>2022-08-26T07:31:36.000Z</time>
      </trkpt>
      <trkpt lat="40.15599899925291538238525390625" lon="-1.545968949794769287109375">
        <ele>1435.800048828125</ele>
        <time>2022-08-26T07:31:42.000Z</time>
      </trkpt>
      <trkpt lat="40.15613964758813381195068359375" lon="-1.5460023097693920135498046875">
        <ele>1435.199951171875</ele>
        <time>2022-08-26T07:31:47.000Z</time>
      </trkpt>
      <trkpt lat="40.15620619989931583404541015625" lon="-1.546017229557037353515625">
        <ele>1435</ele>
        <time>2022-08-26T07:31:50.000Z</time>
      </trkpt>
      <trkpt lat="40.15630804002285003662109375" lon="-1.54603608883917331695556640625">
        <ele>1434.5999755859375</ele>
        <time>2022-08-26T07:31:55.000Z</time>
      </trkpt>
      <trkpt lat="40.1563447527587413787841796875" lon="-1.54604396782815456390380859375">
        <ele>1434.199951171875</ele>
        <time>2022-08-26T07:31:57.000Z</time>
      </trkpt>
      <trkpt lat="40.15639387071132659912109375" lon="-1.54605067335069179534912109375">
        <ele>1434</ele>
        <time>2022-08-26T07:32:02.000Z</time>
      </trkpt>
      <trkpt lat="40.156386829912662506103515625" lon="-1.5460445545613765716552734375">
        <ele>1433.5999755859375</ele>
        <time>2022-08-26T07:32:27.000Z</time>
      </trkpt>
      <trkpt lat="40.15638716518878936767578125" lon="-1.54604413546621799468994140625">
        <ele>1433.5999755859375</ele>
        <time>2022-08-26T07:32:28.000Z</time>
      </trkpt>
      <trkpt lat="40.1567051745951175689697265625" lon="-1.54580374248325824737548828125">
        <ele>1449.4000244140625</ele>
        <time>2022-08-26T07:44:46.000Z</time>
      </trkpt>
      <trkpt lat="40.156725458800792694091796875" lon="-1.54553367756307125091552734375">
        <ele>1448.4000244140625</ele>
        <time>2022-08-26T07:44:54.000Z</time>
      </trkpt>
      <trkpt lat="40.1567286439239978790283203125" lon="-1.54548875056207180023193359375">
        <ele>1448.199951171875</ele>
        <time>2022-08-26T07:44:55.000Z</time>
      </trkpt>
      <trkpt lat="40.15675890259444713592529296875" lon="-1.54522438533604145050048828125">
        <ele>1447</ele>
        <time>2022-08-26T07:45:01.000Z</time>
      </trkpt>
      <trkpt lat="40.15677399002015590667724609375" lon="-1.54514425434172153472900390625">
        <ele>1446.5999755859375</ele>
        <time>2022-08-26T07:45:03.000Z</time>
      </trkpt>
      <trkpt lat="40.156789831817150115966796875" lon="-1.5450678952038288116455078125">
        <ele>1445.5999755859375</ele>
        <time>2022-08-26T07:45:05.000Z</time>
      </trkpt>
      <trkpt lat="40.15681891702115535736083984375" lon="-1.54487192630767822265625">
        <ele>1444.4000244140625</ele>
        <time>2022-08-26T07:45:10.000Z</time>
      </trkpt>
      <trkpt lat="40.15682478435337543487548828125" lon="-1.54481367208063602447509765625">
        <ele>1444.199951171875</ele>
        <time>2022-08-26T07:45:12.000Z</time>
      </trkpt>
      <trkpt lat="40.156823359429836273193359375" lon="-1.54473739676177501678466796875">
        <ele>1443.5999755859375</ele>
        <time>2022-08-26T07:45:15.000Z</time>
      </trkpt>
      <trkpt lat="40.15682813711464405059814453125" lon="-1.54466112144291400909423828125">
        <ele>1442.5999755859375</ele>
        <time>2022-08-26T07:45:19.000Z</time>
      </trkpt>
      <trkpt lat="40.15683433972299098968505859375" lon="-1.5446399152278900146484375">
        <ele>1442.4000244140625</ele>
        <time>2022-08-26T07:45:20.000Z</time>
      </trkpt>
      <trkpt lat="40.15686250291764736175537109375" lon="-1.544538997113704681396484375">
        <ele>1441.4000244140625</ele>
        <time>2022-08-26T07:45:24.000Z</time>
      </trkpt>
      <trkpt lat="40.15688848681747913360595703125" lon="-1.54448459856212139129638671875">
        <ele>1441</ele>
        <time>2022-08-26T07:45:26.000Z</time>
      </trkpt>
      <trkpt lat="40.15694883652031421661376953125" lon="-1.54440321028232574462890625">
        <ele>1440</ele>
        <time>2022-08-26T07:45:30.000Z</time>
      </trkpt>
      <trkpt lat="40.15697901137173175811767578125" lon="-1.5443695150315761566162109375">
        <ele>1439</ele>
        <time>2022-08-26T07:45:32.000Z</time>
      </trkpt>
      <trkpt lat="40.1570156402885913848876953125" lon="-1.5443260967731475830078125">
        <ele>1437.5999755859375</ele>
        <time>2022-08-26T07:45:35.000Z</time>
      </trkpt>
      <trkpt lat="40.15705729834735393524169921875" lon="-1.54428242705762386322021484375">
        <ele>1436.4000244140625</ele>
        <time>2022-08-26T07:45:38.000Z</time>
      </trkpt>
      <trkpt lat="40.1570991240441799163818359375" lon="-1.54422777704894542694091796875">
        <ele>1435</ele>
        <time>2022-08-26T07:45:41.000Z</time>
      </trkpt>
      <trkpt lat="40.1571093499660491943359375" lon="-1.54420816339552402496337890625">
        <ele>1434.4000244140625</ele>
        <time>2022-08-26T07:45:42.000Z</time>
      </trkpt>
      <trkpt lat="40.157121755182743072509765625" lon="-1.5441834367811679840087890625">
        <ele>1434</ele>
        <time>2022-08-26T07:45:44.000Z</time>
      </trkpt>
      <trkpt lat="40.15714530833065509796142578125" lon="-1.54415301047265529632568359375">
        <ele>1432.5999755859375</ele>
        <time>2022-08-26T07:45:47.000Z</time>
      </trkpt>
      <trkpt lat="40.1571561209857463836669921875" lon="-1.54414303600788116455078125">
        <ele>1432</ele>
        <time>2022-08-26T07:45:48.000Z</time>
      </trkpt>
      <trkpt lat="40.15718570910394191741943359375" lon="-1.5441100113093852996826171875">
        <ele>1431.4000244140625</ele>
        <time>2022-08-26T07:45:50.000Z</time>
      </trkpt>
      <trkpt lat="40.157239772379398345947265625" lon="-1.5440023876726627349853515625">
        <ele>1430.800048828125</ele>
        <time>2022-08-26T07:45:53.000Z</time>
      </trkpt>
      <trkpt lat="40.1572872139513492584228515625" lon="-1.54377155005931854248046875">
        <ele>1430.4000244140625</ele>
        <time>2022-08-26T07:45:57.000Z</time>
      </trkpt>
      <trkpt lat="40.15729534439742565155029296875" lon="-1.5437140502035617828369140625">
        <ele>1430.4000244140625</ele>
        <time>2022-08-26T07:45:58.000Z</time>
      </trkpt>
      <trkpt lat="40.157302804291248321533203125" lon="-1.54349000193178653717041015625">
        <ele>1429.199951171875</ele>
        <time>2022-08-26T07:46:02.000Z</time>
      </trkpt>
      <trkpt lat="40.1573043130338191986083984375" lon="-1.54335974715650081634521484375">
        <ele>1428.4000244140625</ele>
        <time>2022-08-26T07:46:05.000Z</time>
      </trkpt>
      <trkpt lat="40.15728880651295185089111328125" lon="-1.5431031771004199981689453125">
        <ele>1428.4000244140625</ele>
        <time>2022-08-26T07:46:13.000Z</time>
      </trkpt>
      <trkpt lat="40.15728947706520557403564453125" lon="-1.542874686419963836669921875">
        <ele>1429.5999755859375</ele>
        <time>2022-08-26T07:46:22.000Z</time>
      </trkpt>
      <trkpt lat="40.15728034079074859619140625" lon="-1.5427293442189693450927734375">
        <ele>1430.199951171875</ele>
        <time>2022-08-26T07:46:28.000Z</time>
      </trkpt>
      <trkpt lat="40.1572640798985958099365234375" lon="-1.5426089800894260406494140625">
        <ele>1430.5999755859375</ele>
        <time>2022-08-26T07:46:33.000Z</time>
      </trkpt>
      <trkpt lat="40.157247148454189300537109375" lon="-1.542416699230670928955078125">
        <ele>1431.199951171875</ele>
        <time>2022-08-26T07:46:41.000Z</time>
      </trkpt>
      <trkpt lat="40.15723767690360546112060546875" lon="-1.54236867092549800872802734375">
        <ele>1431.199951171875</ele>
        <time>2022-08-26T07:46:46.000Z</time>
      </trkpt>
      <trkpt lat="40.157214291393756866455078125" lon="-1.5422581136226654052734375">
        <ele>1431.199951171875</ele>
        <time>2022-08-26T07:47:06.000Z</time>
      </trkpt>
      <trkpt lat="40.15720414929091930389404296875" lon="-1.54219935648143291473388671875">
        <ele>1431.199951171875</ele>
        <time>2022-08-26T07:47:09.000Z</time>
      </trkpt>
      <trkpt lat="40.15720180235803127288818359375" lon="-1.54217823408544063568115234375">
        <ele>1431.199951171875</ele>
        <time>2022-08-26T07:47:10.000Z</time>
      </trkpt>
      <trkpt lat="40.15721328556537628173828125" lon="-1.54202166013419628143310546875">
        <ele>1431.199951171875</ele>
        <time>2022-08-26T07:47:17.000Z</time>
      </trkpt>
      <trkpt lat="40.1572074182331562042236328125" lon="-1.5417996235191822052001953125">
        <ele>1431.199951171875</ele>
        <time>2022-08-26T07:47:24.000Z</time>
      </trkpt>
      <trkpt lat="40.1572218351066112518310546875" lon="-1.54174019582569599151611328125">
        <ele>1431.199951171875</ele>
        <time>2022-08-26T07:47:26.000Z</time>
      </trkpt>
      <trkpt lat="40.1572858728468418121337890625" lon="-1.54159602709114551544189453125">
        <ele>1431.4000244140625</ele>
        <time>2022-08-26T07:47:32.000Z</time>
      </trkpt>
      <trkpt lat="40.1572982780635356903076171875" lon="-1.5412871539592742919921875">
        <ele>1431.4000244140625</ele>
        <time>2022-08-26T07:47:41.000Z</time>
      </trkpt>
      <trkpt lat="40.15727137215435504913330078125" lon="-1.54104516841471195220947265625">
        <ele>1431.199951171875</ele>
        <time>2022-08-26T07:47:48.000Z</time>
      </trkpt>
      <trkpt lat="40.1572674326598644256591796875" lon="-1.5406648814678192138671875">
        <ele>1430.800048828125</ele>
        <time>2022-08-26T07:47:57.000Z</time>
      </trkpt>
      <trkpt lat="40.157329626381397247314453125" lon="-1.54038199223577976226806640625">
        <ele>1430.4000244140625</ele>
        <time>2022-08-26T07:48:03.000Z</time>
      </trkpt>
      <trkpt lat="40.15734496526420116424560546875" lon="-1.5402677468955516815185546875">
        <ele>1429.800048828125</ele>
        <time>2022-08-26T07:48:06.000Z</time>
      </trkpt>
      <trkpt lat="40.157367177307605743408203125" lon="-1.5401527471840381622314453125">
        <ele>1429.4000244140625</ele>
        <time>2022-08-26T07:48:09.000Z</time>
      </trkpt>
      <trkpt lat="40.1574231684207916259765625" lon="-1.5400689281523227691650390625">
        <ele>1429</ele>
        <time>2022-08-26T07:48:12.000Z</time>
      </trkpt>
      <trkpt lat="40.1574843563139438629150390625" lon="-1.53996390290558338165283203125">
        <ele>1428.199951171875</ele>
        <time>2022-08-26T07:48:16.000Z</time>
      </trkpt>
      <trkpt lat="40.15752576291561126708984375" lon="-1.53984772972762584686279296875">
        <ele>1428</ele>
        <time>2022-08-26T07:48:20.000Z</time>
      </trkpt>
      <trkpt lat="40.15761025249958038330078125" lon="-1.5395660139620304107666015625">
        <ele>1428.199951171875</ele>
        <time>2022-08-26T07:48:30.000Z</time>
      </trkpt>
      <trkpt lat="40.1576211489737033843994140625" lon="-1.53942109085619449615478515625">
        <ele>1429.4000244140625</ele>
        <time>2022-08-26T07:48:36.000Z</time>
      </trkpt>
      <trkpt lat="40.157602541148662567138671875" lon="-1.539300978183746337890625">
        <ele>1430.4000244140625</ele>
        <time>2022-08-26T07:48:41.000Z</time>
      </trkpt>
      <trkpt lat="40.1575785689055919647216796875" lon="-1.5391348488628864288330078125">
        <ele>1431.4000244140625</ele>
        <time>2022-08-26T07:48:49.000Z</time>
      </trkpt>
      <trkpt lat="40.15757177956402301788330078125" lon="-1.53909645974636077880859375">
        <ele>1431.800048828125</ele>
        <time>2022-08-26T07:48:51.000Z</time>
      </trkpt>
      <trkpt lat="40.1575465500354766845703125" lon="-1.53901331126689910888671875">
        <ele>1432.5999755859375</ele>
        <time>2022-08-26T07:48:55.000Z</time>
      </trkpt>
      <trkpt lat="40.157498605549335479736328125" lon="-1.538862101733684539794921875">
        <ele>1433.5999755859375</ele>
        <time>2022-08-26T07:49:01.000Z</time>
      </trkpt>
      <trkpt lat="40.15748728998005390167236328125" lon="-1.538836620748043060302734375">
        <ele>1433.800048828125</ele>
        <time>2022-08-26T07:49:02.000Z</time>
      </trkpt>
      <trkpt lat="40.15736441127955913543701171875" lon="-1.53859555721282958984375">
        <ele>1434.5999755859375</ele>
        <time>2022-08-26T07:49:12.000Z</time>
      </trkpt>
      <trkpt lat="40.15733934938907623291015625" lon="-1.538544595241546630859375">
        <ele>1434.800048828125</ele>
        <time>2022-08-26T07:49:14.000Z</time>
      </trkpt>
      <trkpt lat="40.15721538104116916656494140625" lon="-1.53830613009631633758544921875">
        <ele>1435.4000244140625</ele>
        <time>2022-08-26T07:49:24.000Z</time>
      </trkpt>
      <trkpt lat="40.15717464499175548553466796875" lon="-1.5382111631333827972412109375">
        <ele>1435.800048828125</ele>
        <time>2022-08-26T07:49:28.000Z</time>
      </trkpt>
      <trkpt lat="40.15710960142314434051513671875" lon="-1.53805014677345752716064453125">
        <ele>1436.5999755859375</ele>
        <time>2022-08-26T07:49:35.000Z</time>
      </trkpt>
      <trkpt lat="40.1570491679012775421142578125" lon="-1.53789617121219635009765625">
        <ele>1437</ele>
        <time>2022-08-26T07:49:41.000Z</time>
      </trkpt>
      <trkpt lat="40.1569975353777408599853515625" lon="-1.53777656145393848419189453125">
        <ele>1437.4000244140625</ele>
        <time>2022-08-26T07:49:46.000Z</time>
      </trkpt>
      <trkpt lat="40.15691824257373809814453125" lon="-1.53761185705661773681640625">
        <ele>1438</ele>
        <time>2022-08-26T07:49:53.000Z</time>
      </trkpt>
      <trkpt lat="40.15688731335103511810302734375" lon="-1.53750800527632236480712890625">
        <ele>1438.5999755859375</ele>
        <time>2022-08-26T07:49:57.000Z</time>
      </trkpt>
      <trkpt lat="40.15685412101447582244873046875" lon="-1.53728152625262737274169921875">
        <ele>1439</ele>
        <time>2022-08-26T07:50:05.000Z</time>
      </trkpt>
      <trkpt lat="40.1568446494638919830322265625" lon="-1.53720072470605373382568359375">
        <ele>1439.199951171875</ele>
        <time>2022-08-26T07:50:08.000Z</time>
      </trkpt>
      <trkpt lat="40.15685361810028553009033203125" lon="-1.53685606084764003753662109375">
        <ele>1440.199951171875</ele>
        <time>2022-08-26T07:50:20.000Z</time>
      </trkpt>
      <trkpt lat="40.15685579739511013031005859375" lon="-1.53682538308203220367431640625">
        <ele>1440.199951171875</ele>
        <time>2022-08-26T07:50:21.000Z</time>
      </trkpt>
      <trkpt lat="40.1568352617323398590087890625" lon="-1.53657694347202777862548828125">
        <ele>1440.4000244140625</ele>
        <time>2022-08-26T07:50:28.000Z</time>
      </trkpt>
      <trkpt lat="40.15667106024920940399169921875" lon="-1.53625541366636753082275390625">
        <ele>1440.199951171875</ele>
        <time>2022-08-26T07:50:37.000Z</time>
      </trkpt>
      <trkpt lat="40.156464278697967529296875" lon="-1.53593949973583221435546875">
        <ele>1439.5999755859375</ele>
        <time>2022-08-26T07:50:45.000Z</time>
      </trkpt>
      <trkpt lat="40.15636847354471683502197265625" lon="-1.5357958339154720306396484375">
        <ele>1439.4000244140625</ele>
        <time>2022-08-26T07:50:48.000Z</time>
      </trkpt>
      <trkpt lat="40.1563236303627490997314453125" lon="-1.53567488305270671844482421875">
        <ele>1439.4000244140625</ele>
        <time>2022-08-26T07:50:50.000Z</time>
      </trkpt>
      <trkpt lat="40.1562874205410480499267578125" lon="-1.53554789721965789794921875">
        <ele>1439</ele>
        <time>2022-08-26T07:50:52.000Z</time>
      </trkpt>
      <trkpt lat="40.15624391846358776092529296875" lon="-1.53543616645038127899169921875">
        <ele>1438.5999755859375</ele>
        <time>2022-08-26T07:50:54.000Z</time>
      </trkpt>
      <trkpt lat="40.15618407167494297027587890625" lon="-1.535343043506145477294921875">
        <ele>1438</ele>
        <time>2022-08-26T07:50:56.000Z</time>
      </trkpt>
      <trkpt lat="40.15614937059581279754638671875" lon="-1.53530440293252468109130859375">
        <ele>1437.800048828125</ele>
        <time>2022-08-26T07:50:57.000Z</time>
      </trkpt>
      <trkpt lat="40.1561160944402217864990234375" lon="-1.53526953421533107757568359375">
        <ele>1437.800048828125</ele>
        <time>2022-08-26T07:50:58.000Z</time>
      </trkpt>
      <trkpt lat="40.15605163760483264923095703125" lon="-1.5351893194019794464111328125">
        <ele>1437.199951171875</ele>
        <time>2022-08-26T07:51:00.000Z</time>
      </trkpt>
      <trkpt lat="40.1560285873711109161376953125" lon="-1.53514464385807514190673828125">
        <ele>1437</ele>
        <time>2022-08-26T07:51:01.000Z</time>
      </trkpt>
      <trkpt lat="40.1560098119080066680908203125" lon="-1.53509250842034816741943359375">
        <ele>1436.800048828125</ele>
        <time>2022-08-26T07:51:02.000Z</time>
      </trkpt>
      <trkpt lat="40.1559263281524181365966796875" lon="-1.534907519817352294921875">
        <ele>1435.4000244140625</ele>
        <time>2022-08-26T07:51:06.000Z</time>
      </trkpt>
      <trkpt lat="40.15589791350066661834716796875" lon="-1.5348711423575878143310546875">
        <ele>1435.199951171875</ele>
        <time>2022-08-26T07:51:07.000Z</time>
      </trkpt>
      <trkpt lat="40.15583320520818233489990234375" lon="-1.5348054282367229461669921875">
        <ele>1434.199951171875</ele>
        <time>2022-08-26T07:51:09.000Z</time>
      </trkpt>
      <trkpt lat="40.15576480887830257415771484375" lon="-1.5347350202500820159912109375">
        <ele>1433</ele>
        <time>2022-08-26T07:51:11.000Z</time>
      </trkpt>
      <trkpt lat="40.15565098263323307037353515625" lon="-1.534610800445079803466796875">
        <ele>1431.5999755859375</ele>
        <time>2022-08-26T07:51:14.000Z</time>
      </trkpt>
      <trkpt lat="40.1555410958826541900634765625" lon="-1.534471996128559112548828125">
        <ele>1430.4000244140625</ele>
        <time>2022-08-26T07:51:17.000Z</time>
      </trkpt>
      <trkpt lat="40.15542802400887012481689453125" lon="-1.53432212769985198974609375">
        <ele>1429.4000244140625</ele>
        <time>2022-08-26T07:51:20.000Z</time>
      </trkpt>
      <trkpt lat="40.15534856356680393218994140625" lon="-1.53422464616596698760986328125">
        <ele>1428.4000244140625</ele>
        <time>2022-08-26T07:51:22.000Z</time>
      </trkpt>
      <trkpt lat="40.15530816279351711273193359375" lon="-1.53418391011655330657958984375">
        <ele>1427.800048828125</ele>
        <time>2022-08-26T07:51:23.000Z</time>
      </trkpt>
      <trkpt lat="40.15522518195211887359619140625" lon="-1.53411584906280040740966796875">
        <ele>1427.199951171875</ele>
        <time>2022-08-26T07:51:25.000Z</time>
      </trkpt>
      <trkpt lat="40.15504078008234500885009765625" lon="-1.53396698646247386932373046875">
        <ele>1426.199951171875</ele>
        <time>2022-08-26T07:51:30.000Z</time>
      </trkpt>
      <trkpt lat="40.155005492269992828369140625" lon="-1.533938907086849212646484375">
        <ele>1426</ele>
        <time>2022-08-26T07:51:31.000Z</time>
      </trkpt>
      <trkpt lat="40.1547682844102382659912109375" lon="-1.53375676833093166351318359375">
        <ele>1426.199951171875</ele>
        <time>2022-08-26T07:51:38.000Z</time>
      </trkpt>
      <trkpt lat="40.15455110929906368255615234375" lon="-1.53355794958770275115966796875">
        <ele>1427.4000244140625</ele>
        <time>2022-08-26T07:51:46.000Z</time>
      </trkpt>
      <trkpt lat="40.15449914149940013885498046875" lon="-1.53351754881441593170166015625">
        <ele>1427.5999755859375</ele>
        <time>2022-08-26T07:51:48.000Z</time>
      </trkpt>
      <trkpt lat="40.1543294079601764678955078125" lon="-1.53340741060674190521240234375">
        <ele>1428.5999755859375</ele>
        <time>2022-08-26T07:51:54.000Z</time>
      </trkpt>
      <trkpt lat="40.15413972549140453338623046875" lon="-1.5332678519189357757568359375">
        <ele>1429.5999755859375</ele>
        <time>2022-08-26T07:52:01.000Z</time>
      </trkpt>
      <trkpt lat="40.154110975563526153564453125" lon="-1.533249579370021820068359375">
        <ele>1429.5999755859375</ele>
        <time>2022-08-26T07:52:02.000Z</time>
      </trkpt>
      <trkpt lat="40.15387619845569133758544921875" lon="-1.533043719828128814697265625">
        <ele>1430.4000244140625</ele>
        <time>2022-08-26T07:52:11.000Z</time>
      </trkpt>
      <trkpt lat="40.15367570333182811737060546875" lon="-1.5327904187142848968505859375">
        <ele>1430.5999755859375</ele>
        <time>2022-08-26T07:52:19.000Z</time>
      </trkpt>
      <trkpt lat="40.1536531560122966766357421875" lon="-1.532760746777057647705078125">
        <ele>1430.5999755859375</ele>
        <time>2022-08-26T07:52:20.000Z</time>
      </trkpt>
      <trkpt lat="40.15342868864536285400390625" lon="-1.5325097925961017608642578125">
        <ele>1431</ele>
        <time>2022-08-26T07:52:29.000Z</time>
      </trkpt>
      <trkpt lat="40.15321402810513973236083984375" lon="-1.53226244263350963592529296875">
        <ele>1431.199951171875</ele>
        <time>2022-08-26T07:52:37.000Z</time>
      </trkpt>
      <trkpt lat="40.1529447175562381744384765625" lon="-1.53196312487125396728515625">
        <ele>1431.199951171875</ele>
        <time>2022-08-26T07:52:47.000Z</time>
      </trkpt>
      <trkpt lat="40.15268898569047451019287109375" lon="-1.53170672245323657989501953125">
        <ele>1431.199951171875</ele>
        <time>2022-08-26T07:52:55.000Z</time>
      </trkpt>
      <trkpt lat="40.1524166576564311981201171875" lon="-1.53145928867161273956298828125">
        <ele>1431</ele>
        <time>2022-08-26T07:53:04.000Z</time>
      </trkpt>
      <trkpt lat="40.15218473039567470550537109375" lon="-1.5312468074262142181396484375">
        <ele>1430.800048828125</ele>
        <time>2022-08-26T07:53:13.000Z</time>
      </trkpt>
      <trkpt lat="40.152000077068805694580078125" lon="-1.531073637306690216064453125">
        <ele>1431</ele>
        <time>2022-08-26T07:53:21.000Z</time>
      </trkpt>
      <trkpt lat="40.15180218033492565155029296875" lon="-1.5308826975524425506591796875">
        <ele>1431</ele>
        <time>2022-08-26T07:53:29.000Z</time>
      </trkpt>
      <trkpt lat="40.15165868215262889862060546875" lon="-1.53069703839719295501708984375">
        <ele>1431</ele>
        <time>2022-08-26T07:53:35.000Z</time>
      </trkpt>
      <trkpt lat="40.15149104408919811248779296875" lon="-1.53051431290805339813232421875">
        <ele>1430.5999755859375</ele>
        <time>2022-08-26T07:53:42.000Z</time>
      </trkpt>
      <trkpt lat="40.15129105187952518463134765625" lon="-1.53036176227033138275146484375">
        <ele>1430.199951171875</ele>
        <time>2022-08-26T07:53:48.000Z</time>
      </trkpt>
      <trkpt lat="40.1510165445506572723388671875" lon="-1.53018456883728504180908203125">
        <ele>1429.800048828125</ele>
        <time>2022-08-26T07:53:57.000Z</time>
      </trkpt>
      <trkpt lat="40.15091571025550365447998046875" lon="-1.5300606004893779754638671875">
        <ele>1429.800048828125</ele>
        <time>2022-08-26T07:54:01.000Z</time>
      </trkpt>
      <trkpt lat="40.15084077604115009307861328125" lon="-1.52998960576951503753662109375">
        <ele>1429.5999755859375</ele>
        <time>2022-08-26T07:54:04.000Z</time>
      </trkpt>
      <trkpt lat="40.1506500877439975738525390625" lon="-1.52983856387436389923095703125">
        <ele>1429.199951171875</ele>
        <time>2022-08-26T07:54:10.000Z</time>
      </trkpt>
      <trkpt lat="40.150509774684906005859375" lon="-1.52967930771410465240478515625">
        <ele>1428.800048828125</ele>
        <time>2022-08-26T07:54:15.000Z</time>
      </trkpt>
      <trkpt lat="40.15046996064484119415283203125" lon="-1.52960521169006824493408203125">
        <ele>1428.5999755859375</ele>
        <time>2022-08-26T07:54:17.000Z</time>
      </trkpt>
      <trkpt lat="40.1502896659076213836669921875" lon="-1.52941770851612091064453125">
        <ele>1428.4000244140625</ele>
        <time>2022-08-26T07:54:23.000Z</time>
      </trkpt>
      <trkpt lat="40.15001557767391204833984375" lon="-1.529140435159206390380859375">
        <ele>1428</ele>
        <time>2022-08-26T07:54:31.000Z</time>
      </trkpt>
      <trkpt lat="40.14996168203651905059814453125" lon="-1.52904689311981201171875">
        <ele>1427.800048828125</ele>
        <time>2022-08-26T07:54:33.000Z</time>
      </trkpt>
      <trkpt lat="40.14982472173869609832763671875" lon="-1.52875746600329875946044921875">
        <ele>1426.800048828125</ele>
        <time>2022-08-26T07:54:39.000Z</time>
      </trkpt>
      <trkpt lat="40.14979907311499118804931640625" lon="-1.52871220372617244720458984375">
        <ele>1426.800048828125</ele>
        <time>2022-08-26T07:54:40.000Z</time>
      </trkpt>
      <trkpt lat="40.14974945224821567535400390625" lon="-1.52862939052283763885498046875">
        <ele>1426.5999755859375</ele>
        <time>2022-08-26T07:54:42.000Z</time>
      </trkpt>
      <trkpt lat="40.1496898569166660308837890625" lon="-1.52855613268911838531494140625">
        <ele>1426.5999755859375</ele>
        <time>2022-08-26T07:54:44.000Z</time>
      </trkpt>
      <trkpt lat="40.1494591869413852691650390625" lon="-1.5283392928540706634521484375">
        <ele>1426.4000244140625</ele>
        <time>2022-08-26T07:54:51.000Z</time>
      </trkpt>
      <trkpt lat="40.14924083836376667022705078125" lon="-1.52821817435324192047119140625">
        <ele>1426.199951171875</ele>
        <time>2022-08-26T07:54:57.000Z</time>
      </trkpt>
      <trkpt lat="40.1490412652492523193359375" lon="-1.52799705974757671356201171875">
        <ele>1425.800048828125</ele>
        <time>2022-08-26T07:55:04.000Z</time>
      </trkpt>
      <trkpt lat="40.14886616729199886322021484375" lon="-1.52787451632320880889892578125">
        <ele>1425.5999755859375</ele>
        <time>2022-08-26T07:55:09.000Z</time>
      </trkpt>
      <trkpt lat="40.14883029274642467498779296875" lon="-1.52785255573689937591552734375">
        <ele>1425.5999755859375</ele>
        <time>2022-08-26T07:55:10.000Z</time>
      </trkpt>
      <trkpt lat="40.14865896664559841156005859375" lon="-1.52766480110585689544677734375">
        <ele>1425.4000244140625</ele>
        <time>2022-08-26T07:55:16.000Z</time>
      </trkpt>
      <trkpt lat="40.1485338248312473297119140625" lon="-1.52742977254092693328857421875">
        <ele>1425.199951171875</ele>
        <time>2022-08-26T07:55:22.000Z</time>
      </trkpt>
      <trkpt lat="40.14836979098618030548095703125" lon="-1.52704403735697269439697265625">
        <ele>1425</ele>
        <time>2022-08-26T07:55:31.000Z</time>
      </trkpt>
      <trkpt lat="40.148235261440277099609375" lon="-1.52678637765347957611083984375">
        <ele>1424.5999755859375</ele>
        <time>2022-08-26T07:55:38.000Z</time>
      </trkpt>
      <trkpt lat="40.14821036718785762786865234375" lon="-1.52674748562276363372802734375">
        <ele>1424.800048828125</ele>
        <time>2022-08-26T07:55:39.000Z</time>
      </trkpt>
      <trkpt lat="40.14800953678786754608154296875" lon="-1.5264882333576679229736328125">
        <ele>1423.800048828125</ele>
        <time>2022-08-26T07:55:46.000Z</time>
      </trkpt>
      <trkpt lat="40.14797735027968883514404296875" lon="-1.52645043097436428070068359375">
        <ele>1423.800048828125</ele>
        <time>2022-08-26T07:55:47.000Z</time>
      </trkpt>
      <trkpt lat="40.14788900502026081085205078125" lon="-1.52632378041744232177734375">
        <ele>1423</ele>
        <time>2022-08-26T07:55:50.000Z</time>
      </trkpt>
      <trkpt lat="40.1478619314730167388916015625" lon="-1.52627340517938137054443359375">
        <ele>1422.800048828125</ele>
        <time>2022-08-26T07:55:51.000Z</time>
      </trkpt>
      <trkpt lat="40.14781993813812732696533203125" lon="-1.52615253813564777374267578125">
        <ele>1422.5999755859375</ele>
        <time>2022-08-26T07:55:53.000Z</time>
      </trkpt>
      <trkpt lat="40.14779462479054927825927734375" lon="-1.52602211572229862213134765625">
        <ele>1422</ele>
        <time>2022-08-26T07:55:55.000Z</time>
      </trkpt>
      <trkpt lat="40.1477811299264430999755859375" lon="-1.52596042491495609283447265625">
        <ele>1421.5999755859375</ele>
        <time>2022-08-26T07:55:56.000Z</time>
      </trkpt>
      <trkpt lat="40.14775908552110195159912109375" lon="-1.52590292505919933319091796875">
        <ele>1421.4000244140625</ele>
        <time>2022-08-26T07:55:57.000Z</time>
      </trkpt>
      <trkpt lat="40.1477234624326229095458984375" lon="-1.52579136192798614501953125">
        <ele>1421</ele>
        <time>2022-08-26T07:55:59.000Z</time>
      </trkpt>
      <trkpt lat="40.14768540859222412109375" lon="-1.5256765298545360565185546875">
        <ele>1420.4000244140625</ele>
        <time>2022-08-26T07:56:01.000Z</time>
      </trkpt>
      <trkpt lat="40.14762849546968936920166015625" lon="-1.52545742690563201904296875">
        <ele>1419.5999755859375</ele>
        <time>2022-08-26T07:56:05.000Z</time>
      </trkpt>
      <trkpt lat="40.1476077921688556671142578125" lon="-1.525335051119327545166015625">
        <ele>1419.199951171875</ele>
        <time>2022-08-26T07:56:09.000Z</time>
      </trkpt>
      <trkpt lat="40.14761793427169322967529296875" lon="-1.52531267143785953521728515625">
        <ele>1418.800048828125</ele>
        <time>2022-08-26T07:56:12.000Z</time>
      </trkpt>
      <trkpt lat="40.1476369611918926239013671875" lon="-1.525288783013820648193359375">
        <ele>1418.199951171875</ele>
        <time>2022-08-26T07:56:14.000Z</time>
      </trkpt>
      <trkpt lat="40.14764358289539813995361328125" lon="-1.52527310885488986968994140625">
        <ele>1418</ele>
        <time>2022-08-26T07:56:15.000Z</time>
      </trkpt>
      <trkpt lat="40.1476728357374668121337890625" lon="-1.5251343883574008941650390625">
        <ele>1417.5999755859375</ele>
        <time>2022-08-26T07:56:22.000Z</time>
      </trkpt>
      <trkpt lat="40.14765582047402858734130859375" lon="-1.524926684796810150146484375">
        <ele>1417.5999755859375</ele>
        <time>2022-08-26T07:56:28.000Z</time>
      </trkpt>
      <trkpt lat="40.147577784955501556396484375" lon="-1.52471655048429965972900390625">
        <ele>1418.199951171875</ele>
        <time>2022-08-26T07:56:34.000Z</time>
      </trkpt>
      <trkpt lat="40.14743328094482421875" lon="-1.524438522756099700927734375">
        <ele>1418.800048828125</ele>
        <time>2022-08-26T07:56:43.000Z</time>
      </trkpt>
      <trkpt lat="40.14734543859958648681640625" lon="-1.5242646820843219757080078125">
        <ele>1419.199951171875</ele>
        <time>2022-08-26T07:56:48.000Z</time>
      </trkpt>
      <trkpt lat="40.14729020185768604278564453125" lon="-1.52421154081821441650390625">
        <ele>1419.4000244140625</ele>
        <time>2022-08-26T07:56:50.000Z</time>
      </trkpt>
      <trkpt lat="40.14708048664033412933349609375" lon="-1.52408338151872158050537109375">
        <ele>1419.5999755859375</ele>
        <time>2022-08-26T07:56:56.000Z</time>
      </trkpt>
      <trkpt lat="40.1467136107385158538818359375" lon="-1.523871906101703643798828125">
        <ele>1419.800048828125</ele>
        <time>2022-08-26T07:57:06.000Z</time>
      </trkpt>
      <trkpt lat="40.146584697067737579345703125" lon="-1.5237272344529628753662109375">
        <ele>1419.5999755859375</ele>
        <time>2022-08-26T07:57:10.000Z</time>
      </trkpt>
      <trkpt lat="40.1465530134737491607666015625" lon="-1.5236806310713291168212890625">
        <ele>1419.4000244140625</ele>
        <time>2022-08-26T07:57:11.000Z</time>
      </trkpt>
      <trkpt lat="40.14636366628110408782958984375" lon="-1.52343881316483020782470703125">
        <ele>1419</ele>
        <time>2022-08-26T07:57:16.000Z</time>
      </trkpt>
      <trkpt lat="40.146295689046382904052734375" lon="-1.52333538047969341278076171875">
        <ele>1418.800048828125</ele>
        <time>2022-08-26T07:57:18.000Z</time>
      </trkpt>
      <trkpt lat="40.1462425477802753448486328125" lon="-1.52325424365699291229248046875">
        <ele>1418.199951171875</ele>
        <time>2022-08-26T07:57:20.000Z</time>
      </trkpt>
      <trkpt lat="40.1461798511445522308349609375" lon="-1.5231488831341266632080078125">
        <ele>1417.800048828125</ele>
        <time>2022-08-26T07:57:23.000Z</time>
      </trkpt>
      <trkpt lat="40.1459887437522411346435546875" lon="-1.522818468511104583740234375">
        <ele>1417.4000244140625</ele>
        <time>2022-08-26T07:57:31.000Z</time>
      </trkpt>
      <trkpt lat="40.1459475047886371612548828125" lon="-1.5227825939655303955078125">
        <ele>1417.4000244140625</ele>
        <time>2022-08-26T07:57:32.000Z</time>
      </trkpt>
      <trkpt lat="40.1457946188747882843017578125" lon="-1.52268662117421627044677734375">
        <ele>1417.4000244140625</ele>
        <time>2022-08-26T07:57:36.000Z</time>
      </trkpt>
      <trkpt lat="40.1457688026130199432373046875" lon="-1.5226784907281398773193359375">
        <ele>1417.199951171875</ele>
        <time>2022-08-26T07:57:37.000Z</time>
      </trkpt>
      <trkpt lat="40.14566679485142230987548828125" lon="-1.522638760507106781005859375">
        <ele>1416.199951171875</ele>
        <time>2022-08-26T07:57:42.000Z</time>
      </trkpt>
      <trkpt lat="40.1456544734537601470947265625" lon="-1.52262769639492034912109375">
        <ele>1416</ele>
        <time>2022-08-26T07:57:43.000Z</time>
      </trkpt>
      <trkpt lat="40.14563762582838535308837890625" lon="-1.52257799170911312103271484375">
        <ele>1415.4000244140625</ele>
        <time>2022-08-26T07:57:47.000Z</time>
      </trkpt>
      <trkpt lat="40.145639888942241668701171875" lon="-1.52256156317889690399169921875">
        <ele>1415.199951171875</ele>
        <time>2022-08-26T07:57:48.000Z</time>
      </trkpt>
      <trkpt lat="40.14563729055225849151611328125" lon="-1.5225209109485149383544921875">
        <ele>1415</ele>
        <time>2022-08-26T07:57:50.000Z</time>
      </trkpt>
      <trkpt lat="40.14561834745109081268310546875" lon="-1.52247053571045398712158203125">
        <ele>1414.800048828125</ele>
        <time>2022-08-26T07:57:53.000Z</time>
      </trkpt>
      <trkpt lat="40.1456065289676189422607421875" lon="-1.5224555321037769317626953125">
        <ele>1414.800048828125</ele>
        <time>2022-08-26T07:57:54.000Z</time>
      </trkpt>
      <trkpt lat="40.1455089636147022247314453125" lon="-1.5224260278046131134033203125">
        <ele>1414.199951171875</ele>
        <time>2022-08-26T07:57:59.000Z</time>
      </trkpt>
      <trkpt lat="40.14548792503774166107177734375" lon="-1.52242577634751796722412109375">
        <ele>1414.199951171875</ele>
        <time>2022-08-26T07:58:00.000Z</time>
      </trkpt>
      <trkpt lat="40.14537577517330646514892578125" lon="-1.52236307971179485321044921875">
        <ele>1414.199951171875</ele>
        <time>2022-08-26T07:58:08.000Z</time>
      </trkpt>
      <trkpt lat="40.14526295475661754608154296875" lon="-1.52225361205637454986572265625">
        <ele>1414.800048828125</ele>
        <time>2022-08-26T07:58:15.000Z</time>
      </trkpt>
      <trkpt lat="40.14514627866446971893310546875" lon="-1.52213014662265777587890625">
        <ele>1415.800048828125</ele>
        <time>2022-08-26T07:58:23.000Z</time>
      </trkpt>
      <trkpt lat="40.1451307721436023712158203125" lon="-1.5221155621111392974853515625">
        <ele>1415.800048828125</ele>
        <time>2022-08-26T07:58:24.000Z</time>
      </trkpt>
      <trkpt lat="40.1450405828654766082763671875" lon="-1.52200869284570217132568359375">
        <ele>1417</ele>
        <time>2022-08-26T07:58:31.000Z</time>
      </trkpt>
      <trkpt lat="40.1450003497302532196044921875" lon="-1.52196259237825870513916015625">
        <ele>1417.4000244140625</ele>
        <time>2022-08-26T07:58:34.000Z</time>
      </trkpt>
      <trkpt lat="40.14493413269519805908203125" lon="-1.52191649191081523895263671875">
        <ele>1418</ele>
        <time>2022-08-26T07:58:38.000Z</time>
      </trkpt>
      <trkpt lat="40.14485727064311504364013671875" lon="-1.52185915969312191009521484375">
        <ele>1418.800048828125</ele>
        <time>2022-08-26T07:58:43.000Z</time>
      </trkpt>
      <trkpt lat="40.1448270119726657867431640625" lon="-1.5218317508697509765625">
        <ele>1419.199951171875</ele>
        <time>2022-08-26T07:58:46.000Z</time>
      </trkpt>
      <trkpt lat="40.14475685544312000274658203125" lon="-1.5217658691108226776123046875">
        <ele>1419.800048828125</ele>
        <time>2022-08-26T07:58:52.000Z</time>
      </trkpt>
      <trkpt lat="40.14471628703176975250244140625" lon="-1.5217293240129947662353515625">
        <ele>1420.199951171875</ele>
        <time>2022-08-26T07:58:55.000Z</time>
      </trkpt>
      <trkpt lat="40.1446298696100711822509765625" lon="-1.52164357714354991912841796875">
        <ele>1421.199951171875</ele>
        <time>2022-08-26T07:59:01.000Z</time>
      </trkpt>
      <trkpt lat="40.1446167938411235809326171875" lon="-1.5216210298240184783935546875">
        <ele>1421.199951171875</ele>
        <time>2022-08-26T07:59:02.000Z</time>
      </trkpt>
      <trkpt lat="40.14453490264713764190673828125" lon="-1.52148985303938388824462890625">
        <ele>1422</ele>
        <time>2022-08-26T07:59:08.000Z</time>
      </trkpt>
      <trkpt lat="40.14449098147451877593994140625" lon="-1.5214258991181850433349609375">
        <ele>1422.4000244140625</ele>
        <time>2022-08-26T07:59:11.000Z</time>
      </trkpt>
      <trkpt lat="40.1443717069923877716064453125" lon="-1.521330513060092926025390625">
        <ele>1422.800048828125</ele>
        <time>2022-08-26T07:59:16.000Z</time>
      </trkpt>
      <trkpt lat="40.1441054977476596832275390625" lon="-1.521179974079132080078125">
        <ele>1423.199951171875</ele>
        <time>2022-08-26T07:59:24.000Z</time>
      </trkpt>
      <trkpt lat="40.14394716359674930572509765625" lon="-1.52096967212855815887451171875">
        <ele>1423.199951171875</ele>
        <time>2022-08-26T07:59:30.000Z</time>
      </trkpt>
      <trkpt lat="40.14382193796336650848388671875" lon="-1.52075626887381076812744140625">
        <ele>1422.5999755859375</ele>
        <time>2022-08-26T07:59:36.000Z</time>
      </trkpt>
      <trkpt lat="40.14377684332430362701416015625" lon="-1.5206235833466053009033203125">
        <ele>1421.4000244140625</ele>
        <time>2022-08-26T07:59:42.000Z</time>
      </trkpt>
      <trkpt lat="40.143793858587741851806640625" lon="-1.5204093419015407562255859375">
        <ele>1421.4000244140625</ele>
        <time>2022-08-26T07:59:51.000Z</time>
      </trkpt>
      <trkpt lat="40.14375119470059871673583984375" lon="-1.52019903995096683502197265625">
        <ele>1422.199951171875</ele>
        <time>2022-08-26T07:59:58.000Z</time>
      </trkpt>
      <trkpt lat="40.14360912144184112548828125" lon="-1.51996116153895854949951171875">
        <ele>1422.4000244140625</ele>
        <time>2022-08-26T08:00:05.000Z</time>
      </trkpt>
      <trkpt lat="40.1434097997844219207763671875" lon="-1.51969109661877155303955078125">
        <ele>1422</ele>
        <time>2022-08-26T08:00:12.000Z</time>
      </trkpt>
      <trkpt lat="40.14327443204820156097412109375" lon="-1.519495211541652679443359375">
        <ele>1421.199951171875</ele>
        <time>2022-08-26T08:00:18.000Z</time>
      </trkpt>
      <trkpt lat="40.14307276345789432525634765625" lon="-1.519291363656520843505859375">
        <ele>1420.800048828125</ele>
        <time>2022-08-26T08:00:24.000Z</time>
      </trkpt>
      <trkpt lat="40.1428059674799442291259765625" lon="-1.51911224238574504852294921875">
        <ele>1420.4000244140625</ele>
        <time>2022-08-26T08:00:31.000Z</time>
      </trkpt>
      <trkpt lat="40.14276850037276744842529296875" lon="-1.51909128762781620025634765625">
        <ele>1420.199951171875</ele>
        <time>2022-08-26T08:00:32.000Z</time>
      </trkpt>
      <trkpt lat="40.1426782272756099700927734375" lon="-1.51903755962848663330078125">
        <ele>1419.4000244140625</ele>
        <time>2022-08-26T08:00:35.000Z</time>
      </trkpt>
      <trkpt lat="40.14262248761951923370361328125" lon="-1.51898324489593505859375">
        <ele>1418.5999755859375</ele>
        <time>2022-08-26T08:00:38.000Z</time>
      </trkpt>
      <trkpt lat="40.1425809971988201141357421875" lon="-1.5189425088465213775634765625">
        <ele>1418.199951171875</ele>
        <time>2022-08-26T08:00:40.000Z</time>
      </trkpt>
      <trkpt lat="40.1424403488636016845703125" lon="-1.51879004202783107757568359375">
        <ele>1418</ele>
        <time>2022-08-26T08:00:46.000Z</time>
      </trkpt>
      <trkpt lat="40.1422923244535923004150390625" lon="-1.51857479475438594818115234375">
        <ele>1418.4000244140625</ele>
        <time>2022-08-26T08:00:52.000Z</time>
      </trkpt>
      <trkpt lat="40.142142288386821746826171875" lon="-1.5184788219630718231201171875">
        <ele>1418.800048828125</ele>
        <time>2022-08-26T08:00:57.000Z</time>
      </trkpt>
      <trkpt lat="40.14194321818649768829345703125" lon="-1.5183071605861186981201171875">
        <ele>1418.800048828125</ele>
        <time>2022-08-26T08:01:04.000Z</time>
      </trkpt>
      <trkpt lat="40.14179938472807407379150390625" lon="-1.51817061938345432281494140625">
        <ele>1418.199951171875</ele>
        <time>2022-08-26T08:01:10.000Z</time>
      </trkpt>
      <trkpt lat="40.14155010692775249481201171875" lon="-1.51793542318046092987060546875">
        <ele>1417.800048828125</ele>
        <time>2022-08-26T08:01:17.000Z</time>
      </trkpt>
      <trkpt lat="40.1414769329130649566650390625" lon="-1.51777935214340686798095703125">
        <ele>1417.5999755859375</ele>
        <time>2022-08-26T08:01:21.000Z</time>
      </trkpt>
      <trkpt lat="40.14148104004561901092529296875" lon="-1.51775353588163852691650390625">
        <ele>1417.5999755859375</ele>
        <time>2022-08-26T08:01:22.000Z</time>
      </trkpt>
      <trkpt lat="40.14151071198284626007080078125" lon="-1.5177212655544281005859375">
        <ele>1417.4000244140625</ele>
        <time>2022-08-26T08:01:24.000Z</time>
      </trkpt>
      <trkpt lat="40.1415282301604747772216796875" lon="-1.517712883651256561279296875">
        <ele>1417.199951171875</ele>
        <time>2022-08-26T08:01:25.000Z</time>
      </trkpt>
      <trkpt lat="40.14166577719151973724365234375" lon="-1.5177160687744617462158203125">
        <ele>1416.5999755859375</ele>
        <time>2022-08-26T08:01:31.000Z</time>
      </trkpt>
      <trkpt lat="40.1416915096342563629150390625" lon="-1.5177217684686183929443359375">
        <ele>1416.4000244140625</ele>
        <time>2022-08-26T08:01:32.000Z</time>
      </trkpt>
      <trkpt lat="40.141744650900363922119140625" lon="-1.5177251212298870086669921875">
        <ele>1416.4000244140625</ele>
        <time>2022-08-26T08:01:34.000Z</time>
      </trkpt>
      <trkpt lat="40.141870714724063873291015625" lon="-1.5177274681627750396728515625">
        <ele>1415.4000244140625</ele>
        <time>2022-08-26T08:01:38.000Z</time>
      </trkpt>
      <trkpt lat="40.141963921487331390380859375" lon="-1.51770994998514652252197265625">
        <ele>1414.4000244140625</ele>
        <time>2022-08-26T08:01:41.000Z</time>
      </trkpt>
      <trkpt lat="40.14201111160218715667724609375" lon="-1.51770207099616527557373046875">
        <ele>1413.199951171875</ele>
        <time>2022-08-26T08:01:43.000Z</time>
      </trkpt>
      <trkpt lat="40.14206157065927982330322265625" lon="-1.51770056225359439849853515625">
        <ele>1412</ele>
        <time>2022-08-26T08:01:46.000Z</time>
      </trkpt>
      <trkpt lat="40.14210750348865985870361328125" lon="-1.5176818706095218658447265625">
        <ele>1411.5999755859375</ele>
        <time>2022-08-26T08:01:48.000Z</time>
      </trkpt>
      <trkpt lat="40.14216701500117778778076171875" lon="-1.5176687948405742645263671875">
        <ele>1410.800048828125</ele>
        <time>2022-08-26T08:01:50.000Z</time>
      </trkpt>
      <trkpt lat="40.14228704385459423065185546875" lon="-1.51768882758915424346923828125">
        <ele>1409.5999755859375</ele>
        <time>2022-08-26T08:01:53.000Z</time>
      </trkpt>
      <trkpt lat="40.14242827892303466796875" lon="-1.517784297466278076171875">
        <ele>1408.199951171875</ele>
        <time>2022-08-26T08:01:57.000Z</time>
      </trkpt>
      <trkpt lat="40.14245367608964443206787109375" lon="-1.51780433021485805511474609375">
        <ele>1408</ele>
        <time>2022-08-26T08:01:58.000Z</time>
      </trkpt>
      <trkpt lat="40.142492987215518951416015625" lon="-1.517830900847911834716796875">
        <ele>1407.199951171875</ele>
        <time>2022-08-26T08:02:00.000Z</time>
      </trkpt>
      <trkpt lat="40.142549984157085418701171875" lon="-1.5178588964045047760009765625">
        <ele>1406.199951171875</ele>
        <time>2022-08-26T08:02:04.000Z</time>
      </trkpt>
      <trkpt lat="40.14256800524890422821044921875" lon="-1.517870128154754638671875">
        <ele>1405.800048828125</ele>
        <time>2022-08-26T08:02:05.000Z</time>
      </trkpt>
      <trkpt lat="40.142610333859920501708984375" lon="-1.517903320491313934326171875">
        <ele>1405</ele>
        <time>2022-08-26T08:02:10.000Z</time>
      </trkpt>
      <trkpt lat="40.14261536300182342529296875" lon="-1.5179051645100116729736328125">
        <ele>1405</ele>
        <time>2022-08-26T08:02:11.000Z</time>
      </trkpt>
      <trkpt lat="40.14269205741584300994873046875" lon="-1.5179685316979885101318359375">
        <ele>1402.5999755859375</ele>
        <time>2022-08-26T08:02:23.000Z</time>
      </trkpt>
      <trkpt lat="40.14275190420448780059814453125" lon="-1.5179909951984882354736328125">
        <ele>1402.5999755859375</ele>
        <time>2022-08-26T08:02:26.000Z</time>
      </trkpt>
      <trkpt lat="40.14288886450231075286865234375" lon="-1.517997197806835174560546875">
        <ele>1401.5999755859375</ele>
        <time>2022-08-26T08:02:32.000Z</time>
      </trkpt>
      <trkpt lat="40.1429955661296844482421875" lon="-1.518026031553745269775390625">
        <ele>1400.4000244140625</ele>
        <time>2022-08-26T08:02:36.000Z</time>
      </trkpt>
      <trkpt lat="40.1430547423660755157470703125" lon="-1.5180389396846294403076171875">
        <ele>1400</ele>
        <time>2022-08-26T08:02:38.000Z</time>
      </trkpt>
      <trkpt lat="40.1431301794946193695068359375" lon="-1.51805427856743335723876953125">
        <ele>1399.4000244140625</ele>
        <time>2022-08-26T08:02:40.000Z</time>
      </trkpt>
      <trkpt lat="40.14326219446957111358642578125" lon="-1.518086381256580352783203125">
        <ele>1398.4000244140625</ele>
        <time>2022-08-26T08:02:43.000Z</time>
      </trkpt>
      <trkpt lat="40.1433058641850948333740234375" lon="-1.5181019715964794158935546875">
        <ele>1397.5999755859375</ele>
        <time>2022-08-26T08:02:44.000Z</time>
      </trkpt>
      <trkpt lat="40.143350623548030853271484375" lon="-1.51811680756509304046630859375">
        <ele>1397.4000244140625</ele>
        <time>2022-08-26T08:02:45.000Z</time>
      </trkpt>
      <trkpt lat="40.1435509510338306427001953125" lon="-1.5181928314268589019775390625">
        <ele>1396.199951171875</ele>
        <time>2022-08-26T08:02:49.000Z</time>
      </trkpt>
      <trkpt lat="40.14366217888891696929931640625" lon="-1.518224179744720458984375">
        <ele>1395.199951171875</ele>
        <time>2022-08-26T08:02:51.000Z</time>
      </trkpt>
      <trkpt lat="40.1438396237790584564208984375" lon="-1.518277823925018310546875">
        <ele>1394</ele>
        <time>2022-08-26T08:02:54.000Z</time>
      </trkpt>
      <trkpt lat="40.14402662403881549835205078125" lon="-1.51833574287593364715576171875">
        <ele>1392.800048828125</ele>
        <time>2022-08-26T08:02:57.000Z</time>
      </trkpt>
      <trkpt lat="40.1441514305770397186279296875" lon="-1.51838251389563083648681640625">
        <ele>1392.199951171875</ele>
        <time>2022-08-26T08:02:59.000Z</time>
      </trkpt>
      <trkpt lat="40.1442714594304561614990234375" lon="-1.518410928547382354736328125">
        <ele>1391.800048828125</ele>
        <time>2022-08-26T08:03:01.000Z</time>
      </trkpt>
      <trkpt lat="40.14437355101108551025390625" lon="-1.51836575008928775787353515625">
        <ele>1391.4000244140625</ele>
        <time>2022-08-26T08:03:03.000Z</time>
      </trkpt>
      <trkpt lat="40.14443448744714260101318359375" lon="-1.51823985390365123748779296875">
        <ele>1390.4000244140625</ele>
        <time>2022-08-26T08:03:05.000Z</time>
      </trkpt>
      <trkpt lat="40.14443499036133289337158203125" lon="-1.51815150864422321319580078125">
        <ele>1390</ele>
        <time>2022-08-26T08:03:06.000Z</time>
      </trkpt>
      <trkpt lat="40.14436206780374050140380859375" lon="-1.51791681535542011260986328125">
        <ele>1389.199951171875</ele>
        <time>2022-08-26T08:03:09.000Z</time>
      </trkpt>
      <trkpt lat="40.14416442252695560455322265625" lon="-1.5177321620285511016845703125">
        <ele>1388.4000244140625</ele>
        <time>2022-08-26T08:03:12.000Z</time>
      </trkpt>
      <trkpt lat="40.14410038478672504425048828125" lon="-1.5176689624786376953125">
        <ele>1388</ele>
        <time>2022-08-26T08:03:13.000Z</time>
      </trkpt>
      <trkpt lat="40.14388178475201129913330078125" lon="-1.51746938936412334442138671875">
        <ele>1386.800048828125</ele>
        <time>2022-08-26T08:03:17.000Z</time>
      </trkpt>
      <trkpt lat="40.1438392885029315948486328125" lon="-1.51743829250335693359375">
        <ele>1386.4000244140625</ele>
        <time>2022-08-26T08:03:18.000Z</time>
      </trkpt>
      <trkpt lat="40.1437591575086116790771484375" lon="-1.51737366802990436553955078125">
        <ele>1385.4000244140625</ele>
        <time>2022-08-26T08:03:20.000Z</time>
      </trkpt>
      <trkpt lat="40.143719427287578582763671875" lon="-1.51733712293207645416259765625">
        <ele>1384.5999755859375</ele>
        <time>2022-08-26T08:03:21.000Z</time>
      </trkpt>
      <trkpt lat="40.14368263073265552520751953125" lon="-1.51729336939752101898193359375">
        <ele>1383.800048828125</ele>
        <time>2022-08-26T08:03:22.000Z</time>
      </trkpt>
      <trkpt lat="40.14360903762280941009521484375" lon="-1.51720787398517131805419921875">
        <ele>1382.4000244140625</ele>
        <time>2022-08-26T08:03:24.000Z</time>
      </trkpt>
      <trkpt lat="40.14357567764818668365478515625" lon="-1.517171077430248260498046875">
        <ele>1381.800048828125</ele>
        <time>2022-08-26T08:03:25.000Z</time>
      </trkpt>
      <trkpt lat="40.14355204068124294281005859375" lon="-1.51712715625762939453125">
        <ele>1381.199951171875</ele>
        <time>2022-08-26T08:03:26.000Z</time>
      </trkpt>
      <trkpt lat="40.14350225217640399932861328125" lon="-1.51702992618083953857421875">
        <ele>1380.199951171875</ele>
        <time>2022-08-26T08:03:28.000Z</time>
      </trkpt>
      <trkpt lat="40.14342681504786014556884765625" lon="-1.51681023649871349334716796875">
        <ele>1379</ele>
        <time>2022-08-26T08:03:32.000Z</time>
      </trkpt>
      <trkpt lat="40.1433957181870937347412109375" lon="-1.516759358346462249755859375">
        <ele>1378.800048828125</ele>
        <time>2022-08-26T08:03:33.000Z</time>
      </trkpt>
      <trkpt lat="40.14336579479277133941650390625" lon="-1.51671049185097217559814453125">
        <ele>1378.5999755859375</ele>
        <time>2022-08-26T08:03:34.000Z</time>
      </trkpt>
      <trkpt lat="40.143296308815479278564453125" lon="-1.51661041192710399627685546875">
        <ele>1378</ele>
        <time>2022-08-26T08:03:36.000Z</time>
      </trkpt>
      <trkpt lat="40.1431482844054698944091796875" lon="-1.5164004452526569366455078125">
        <ele>1377.199951171875</ele>
        <time>2022-08-26T08:03:40.000Z</time>
      </trkpt>
      <trkpt lat="40.143045522272586822509765625" lon="-1.51627765037119388580322265625">
        <ele>1376.800048828125</ele>
        <time>2022-08-26T08:03:43.000Z</time>
      </trkpt>
      <trkpt lat="40.1429239846765995025634765625" lon="-1.5161825157701969146728515625">
        <ele>1376</ele>
        <time>2022-08-26T08:03:46.000Z</time>
      </trkpt>
      <trkpt lat="40.1428775489330291748046875" lon="-1.5161530114710330963134765625">
        <ele>1375.4000244140625</ele>
        <time>2022-08-26T08:03:47.000Z</time>
      </trkpt>
      <trkpt lat="40.1427201367914676666259765625" lon="-1.51608402840793132781982421875">
        <ele>1374</ele>
        <time>2022-08-26T08:03:50.000Z</time>
      </trkpt>
      <trkpt lat="40.142664648592472076416015625" lon="-1.51606441475450992584228515625">
        <ele>1373.5999755859375</ele>
        <time>2022-08-26T08:03:51.000Z</time>
      </trkpt>
      <trkpt lat="40.14249659143388271331787109375" lon="-1.5159733034670352935791015625">
        <ele>1372.800048828125</ele>
        <time>2022-08-26T08:03:54.000Z</time>
      </trkpt>
      <trkpt lat="40.14238377101719379425048828125" lon="-1.5159027278423309326171875">
        <ele>1372</ele>
        <time>2022-08-26T08:03:56.000Z</time>
      </trkpt>
      <trkpt lat="40.14232610352337360382080078125" lon="-1.51586559601128101348876953125">
        <ele>1371.4000244140625</ele>
        <time>2022-08-26T08:03:57.000Z</time>
      </trkpt>
      <trkpt lat="40.1421518437564373016357421875" lon="-1.5157349221408367156982421875">
        <ele>1370.199951171875</ele>
        <time>2022-08-26T08:04:00.000Z</time>
      </trkpt>
      <trkpt lat="40.142027623951435089111328125" lon="-1.51563383638858795166015625">
        <ele>1369.5999755859375</ele>
        <time>2022-08-26T08:04:02.000Z</time>
      </trkpt>
      <trkpt lat="40.14197138138115406036376953125" lon="-1.51558446697890758514404296875">
        <ele>1369.199951171875</ele>
        <time>2022-08-26T08:04:03.000Z</time>
      </trkpt>
      <trkpt lat="40.14187934808433055877685546875" lon="-1.5154925175011157989501953125">
        <ele>1368.199951171875</ele>
        <time>2022-08-26T08:04:05.000Z</time>
      </trkpt>
      <trkpt lat="40.14181883074343204498291015625" lon="-1.515428982675075531005859375">
        <ele>1367.199951171875</ele>
        <time>2022-08-26T08:04:07.000Z</time>
      </trkpt>
      <trkpt lat="40.14179552905261516571044921875" lon="-1.5154086984694004058837890625">
        <ele>1366.800048828125</ele>
        <time>2022-08-26T08:04:08.000Z</time>
      </trkpt>
      <trkpt lat="40.14176853932440280914306640625" lon="-1.5153818763792514801025390625">
        <ele>1365.4000244140625</ele>
        <time>2022-08-26T08:04:11.000Z</time>
      </trkpt>
      <trkpt lat="40.14174305833876132965087890625" lon="-1.51538514532148838043212890625">
        <ele>1363.800048828125</ele>
        <time>2022-08-26T08:04:14.000Z</time>
      </trkpt>
      <trkpt lat="40.14172042720019817352294921875" lon="-1.5153729915618896484375">
        <ele>1363</ele>
        <time>2022-08-26T08:04:18.000Z</time>
      </trkpt>
      <trkpt lat="40.141743309795856475830078125" lon="-1.51532529853284358978271484375">
        <ele>1362.800048828125</ele>
        <time>2022-08-26T08:04:22.000Z</time>
      </trkpt>
      <trkpt lat="40.14177004806697368621826171875" lon="-1.51530249975621700286865234375">
        <ele>1362.800048828125</ele>
        <time>2022-08-26T08:04:23.000Z</time>
      </trkpt>
      <trkpt lat="40.14188102446496486663818359375" lon="-1.5151729993522167205810546875">
        <ele>1362.800048828125</ele>
        <time>2022-08-26T08:04:40.000Z</time>
      </trkpt>
      <trkpt lat="40.14179519377648830413818359375" lon="-1.5151086263358592987060546875">
        <ele>1362.5999755859375</ele>
        <time>2022-08-26T08:04:44.000Z</time>
      </trkpt>
      <trkpt lat="40.14162420295178890228271484375" lon="-1.51498532854020595550537109375">
        <ele>1362</ele>
        <time>2022-08-26T08:04:50.000Z</time>
      </trkpt>
      <trkpt lat="40.1415305770933628082275390625" lon="-1.51491994969546794891357421875">
        <ele>1361.4000244140625</ele>
        <time>2022-08-26T08:04:53.000Z</time>
      </trkpt>
      <trkpt lat="40.14142655767500400543212890625" lon="-1.51481433771550655364990234375">
        <ele>1360.5999755859375</ele>
        <time>2022-08-26T08:04:57.000Z</time>
      </trkpt>
      <trkpt lat="40.141352377831935882568359375" lon="-1.51477728970348834991455078125">
        <ele>1360.4000244140625</ele>
        <time>2022-08-26T08:04:59.000Z</time>
      </trkpt>
      <trkpt lat="40.1412226259708404541015625" lon="-1.51469212956726551055908203125">
        <ele>1360.199951171875</ele>
        <time>2022-08-26T08:05:02.000Z</time>
      </trkpt>
      <trkpt lat="40.1409637928009033203125" lon="-1.51445978321135044097900390625">
        <ele>1359.199951171875</ele>
        <time>2022-08-26T08:05:08.000Z</time>
      </trkpt>
      <trkpt lat="40.14091459102928638458251953125" lon="-1.5144219808280467987060546875">
        <ele>1359</ele>
        <time>2022-08-26T08:05:09.000Z</time>
      </trkpt>
      <trkpt lat="40.140793137252330780029296875" lon="-1.51429985649883747100830078125">
        <ele>1358.199951171875</ele>
        <time>2022-08-26T08:05:12.000Z</time>
      </trkpt>
      <trkpt lat="40.14066548086702823638916015625" lon="-1.51413221843540668487548828125">
        <ele>1357</ele>
        <time>2022-08-26T08:05:16.000Z</time>
      </trkpt>
      <trkpt lat="40.14054335653781890869140625" lon="-1.51401017792522907257080078125">
        <ele>1356</ele>
        <time>2022-08-26T08:05:19.000Z</time>
      </trkpt>
      <trkpt lat="40.14044604264199733734130859375" lon="-1.5139170549809932708740234375">
        <ele>1355.5999755859375</ele>
        <time>2022-08-26T08:05:21.000Z</time>
      </trkpt>
      <trkpt lat="40.14041888527572154998779296875" lon="-1.5138463117182254791259765625">
        <ele>1355.199951171875</ele>
        <time>2022-08-26T08:05:22.000Z</time>
      </trkpt>
      <trkpt lat="40.14038116671144962310791015625" lon="-1.51377716101706027984619140625">
        <ele>1354.800048828125</ele>
        <time>2022-08-26T08:05:23.000Z</time>
      </trkpt>
      <trkpt lat="40.140230543911457061767578125" lon="-1.51360298506915569305419921875">
        <ele>1354</ele>
        <time>2022-08-26T08:05:26.000Z</time>
      </trkpt>
      <trkpt lat="40.14018670655786991119384765625" lon="-1.51353961788117885589599609375">
        <ele>1353.4000244140625</ele>
        <time>2022-08-26T08:05:27.000Z</time>
      </trkpt>
      <trkpt lat="40.14005963690578937530517578125" lon="-1.51333878748118877410888671875">
        <ele>1352.199951171875</ele>
        <time>2022-08-26T08:05:30.000Z</time>
      </trkpt>
      <trkpt lat="40.140003226697444915771484375" lon="-1.51321138255298137664794921875">
        <ele>1351.199951171875</ele>
        <time>2022-08-26T08:05:32.000Z</time>
      </trkpt>
      <trkpt lat="40.14001470990478992462158203125" lon="-1.5131217800080776214599609375">
        <ele>1350.800048828125</ele>
        <time>2022-08-26T08:05:33.000Z</time>
      </trkpt>
      <trkpt lat="40.1399292983114719390869140625" lon="-1.51304005645215511322021484375">
        <ele>1350.4000244140625</ele>
        <time>2022-08-26T08:05:35.000Z</time>
      </trkpt>
      <trkpt lat="40.13981404714286327362060546875" lon="-1.5129256434738636016845703125">
        <ele>1350</ele>
        <time>2022-08-26T08:05:38.000Z</time>
      </trkpt>
      <trkpt lat="40.139782615005970001220703125" lon="-1.51288985274732112884521484375">
        <ele>1350</ele>
        <time>2022-08-26T08:05:39.000Z</time>
      </trkpt>
      <trkpt lat="40.1397080160677433013916015625" lon="-1.51281793601810932159423828125">
        <ele>1349</ele>
        <time>2022-08-26T08:05:42.000Z</time>
      </trkpt>
      <trkpt lat="40.13968102633953094482421875" lon="-1.51279362849891185760498046875">
        <ele>1348.5999755859375</ele>
        <time>2022-08-26T08:05:43.000Z</time>
      </trkpt>
      <trkpt lat="40.1396433077752590179443359375" lon="-1.51270947419106960296630859375">
        <ele>1347.5999755859375</ele>
        <time>2022-08-26T08:05:46.000Z</time>
      </trkpt>
      <trkpt lat="40.13959695585072040557861328125" lon="-1.5126478672027587890625">
        <ele>1347</ele>
        <time>2022-08-26T08:05:48.000Z</time>
      </trkpt>
      <trkpt lat="40.139520429074764251708984375" lon="-1.51256396435201168060302734375">
        <ele>1346.4000244140625</ele>
        <time>2022-08-26T08:05:50.000Z</time>
      </trkpt>
      <trkpt lat="40.1394092850387096405029296875" lon="-1.51250344701111316680908203125">
        <ele>1346</ele>
        <time>2022-08-26T08:05:52.000Z</time>
      </trkpt>
      <trkpt lat="40.13911181129515171051025390625" lon="-1.51236782781779766082763671875">
        <ele>1345.199951171875</ele>
        <time>2022-08-26T08:05:57.000Z</time>
      </trkpt>
      <trkpt lat="40.1390532217919826507568359375" lon="-1.51232139207422733306884765625">
        <ele>1344.800048828125</ele>
        <time>2022-08-26T08:05:58.000Z</time>
      </trkpt>
      <trkpt lat="40.13884124346077442169189453125" lon="-1.51221980340778827667236328125">
        <ele>1343.5999755859375</ele>
        <time>2022-08-26T08:06:01.000Z</time>
      </trkpt>
      <trkpt lat="40.1386706717312335968017578125" lon="-1.51218208484351634979248046875">
        <ele>1342.5999755859375</ele>
        <time>2022-08-26T08:06:03.000Z</time>
      </trkpt>
      <trkpt lat="40.13839851133525371551513671875" lon="-1.5121112577617168426513671875">
        <ele>1341.4000244140625</ele>
        <time>2022-08-26T08:06:06.000Z</time>
      </trkpt>
      <trkpt lat="40.1381637342274188995361328125" lon="-1.511996090412139892578125">
        <ele>1340</ele>
        <time>2022-08-26T08:06:09.000Z</time>
      </trkpt>
      <trkpt lat="40.1380152069032192230224609375" lon="-1.51193800382316112518310546875">
        <ele>1339</ele>
        <time>2022-08-26T08:06:11.000Z</time>
      </trkpt>
      <trkpt lat="40.13787380419671535491943359375" lon="-1.511883437633514404296875">
        <ele>1338.199951171875</ele>
        <time>2022-08-26T08:06:13.000Z</time>
      </trkpt>
      <trkpt lat="40.1377681083977222442626953125" lon="-1.5118175558745861053466796875">
        <ele>1337.5999755859375</ele>
        <time>2022-08-26T08:06:15.000Z</time>
      </trkpt>
      <trkpt lat="40.13768051750957965850830078125" lon="-1.51176969520747661590576171875">
        <ele>1337.4000244140625</ele>
        <time>2022-08-26T08:06:17.000Z</time>
      </trkpt>
      <trkpt lat="40.137541629374027252197265625" lon="-1.51158504188060760498046875">
        <ele>1336.199951171875</ele>
        <time>2022-08-26T08:06:22.000Z</time>
      </trkpt>
      <trkpt lat="40.13751648366451263427734375" lon="-1.5114836208522319793701171875">
        <ele>1335.4000244140625</ele>
        <time>2022-08-26T08:06:24.000Z</time>
      </trkpt>
      <trkpt lat="40.1374824531376361846923828125" lon="-1.51145160198211669921875">
        <ele>1335.199951171875</ele>
        <time>2022-08-26T08:06:25.000Z</time>
      </trkpt>
      <trkpt lat="40.137339793145656585693359375" lon="-1.51136375963687896728515625">
        <ele>1333.800048828125</ele>
        <time>2022-08-26T08:06:29.000Z</time>
      </trkpt>
      <trkpt lat="40.13729562051594257354736328125" lon="-1.511354036629199981689453125">
        <ele>1332.800048828125</ele>
        <time>2022-08-26T08:06:31.000Z</time>
      </trkpt>
      <trkpt lat="40.137229152023792266845703125" lon="-1.51132486760616302490234375">
        <ele>1331.5999755859375</ele>
        <time>2022-08-26T08:06:34.000Z</time>
      </trkpt>
      <trkpt lat="40.137208364903926849365234375" lon="-1.51130617596209049224853515625">
        <ele>1330.5999755859375</ele>
        <time>2022-08-26T08:06:35.000Z</time>
      </trkpt>
      <trkpt lat="40.137200318276882171630859375" lon="-1.51123593561351299285888671875">
        <ele>1329.4000244140625</ele>
        <time>2022-08-26T08:06:37.000Z</time>
      </trkpt>
      <trkpt lat="40.13728103600442409515380859375" lon="-1.511044912040233612060546875">
        <ele>1327.800048828125</ele>
        <time>2022-08-26T08:06:40.000Z</time>
      </trkpt>
      <trkpt lat="40.13729788362979888916015625" lon="-1.51099319569766521453857421875">
        <ele>1327.4000244140625</ele>
        <time>2022-08-26T08:06:41.000Z</time>
      </trkpt>
      <trkpt lat="40.13732411898672580718994140625" lon="-1.5109056048095226287841796875">
        <ele>1326.4000244140625</ele>
        <time>2022-08-26T08:06:43.000Z</time>
      </trkpt>
      <trkpt lat="40.1373429782688617706298828125" lon="-1.51081390678882598876953125">
        <ele>1325.199951171875</ele>
        <time>2022-08-26T08:06:46.000Z</time>
      </trkpt>
      <trkpt lat="40.13734641484916210174560546875" lon="-1.51078314520418643951416015625">
        <ele>1324.5999755859375</ele>
        <time>2022-08-26T08:06:47.000Z</time>
      </trkpt>
      <trkpt lat="40.1373238675296306610107421875" lon="-1.5107181854546070098876953125">
        <ele>1323.800048828125</ele>
        <time>2022-08-26T08:06:49.000Z</time>
      </trkpt>
      <trkpt lat="40.1372467540204524993896484375" lon="-1.51063160039484500885009765625">
        <ele>1322.800048828125</ele>
        <time>2022-08-26T08:06:52.000Z</time>
      </trkpt>
      <trkpt lat="40.13709160499274730682373046875" lon="-1.5105297602713108062744140625">
        <ele>1321.4000244140625</ele>
        <time>2022-08-26T08:06:57.000Z</time>
      </trkpt>
      <trkpt lat="40.13702572323381900787353515625" lon="-1.51050972752273082733154296875">
        <ele>1320.199951171875</ele>
        <time>2022-08-26T08:06:59.000Z</time>
      </trkpt>
      <trkpt lat="40.13696135021746158599853515625" lon="-1.51050821878015995025634765625">
        <ele>1319.199951171875</ele>
        <time>2022-08-26T08:07:01.000Z</time>
      </trkpt>
      <trkpt lat="40.13689731247723102569580078125" lon="-1.51048826985061168670654296875">
        <ele>1317.800048828125</ele>
        <time>2022-08-26T08:07:04.000Z</time>
      </trkpt>
      <trkpt lat="40.1368320174515247344970703125" lon="-1.510381400585174560546875">
        <ele>1316.5999755859375</ele>
        <time>2022-08-26T08:07:08.000Z</time>
      </trkpt>
      <trkpt lat="40.1368169300258159637451171875" lon="-1.51034913025796413421630859375">
        <ele>1316.4000244140625</ele>
        <time>2022-08-26T08:07:09.000Z</time>
      </trkpt>
      <trkpt lat="40.136722885072231292724609375" lon="-1.510255001485347747802734375">
        <ele>1315.4000244140625</ele>
        <time>2022-08-26T08:07:14.000Z</time>
      </trkpt>
      <trkpt lat="40.13662925921380519866943359375" lon="-1.51019825600087642669677734375">
        <ele>1314</ele>
        <time>2022-08-26T08:07:18.000Z</time>
      </trkpt>
      <trkpt lat="40.13660050928592681884765625" lon="-1.51017227210104465484619140625">
        <ele>1313.5999755859375</ele>
        <time>2022-08-26T08:07:20.000Z</time>
      </trkpt>
      <trkpt lat="40.13655751012265682220458984375" lon="-1.51014561764895915985107421875">
        <ele>1313</ele>
        <time>2022-08-26T08:07:22.000Z</time>
      </trkpt>
      <trkpt lat="40.136470757424831390380859375" lon="-1.5101270936429500579833984375">
        <ele>1311.800048828125</ele>
        <time>2022-08-26T08:07:25.000Z</time>
      </trkpt>
      <trkpt lat="40.1364518143236637115478515625" lon="-1.5101140178740024566650390625">
        <ele>1311.5999755859375</ele>
        <time>2022-08-26T08:07:26.000Z</time>
      </trkpt>
      <trkpt lat="40.1363659836351871490478515625" lon="-1.510075293481349945068359375">
        <ele>1310.5999755859375</ele>
        <time>2022-08-26T08:07:29.000Z</time>
      </trkpt>
      <trkpt lat="40.1363002695143222808837890625" lon="-1.510032378137111663818359375">
        <ele>1309.4000244140625</ele>
        <time>2022-08-26T08:07:32.000Z</time>
      </trkpt>
      <trkpt lat="40.13627336360514163970947265625" lon="-1.51001938618719577789306640625">
        <ele>1309</ele>
        <time>2022-08-26T08:07:33.000Z</time>
      </trkpt>
      <trkpt lat="40.1361641474068164825439453125" lon="-1.5099390037357807159423828125">
        <ele>1308.199951171875</ele>
        <time>2022-08-26T08:07:36.000Z</time>
      </trkpt>
      <trkpt lat="40.13610119931399822235107421875" lon="-1.50988980196416378021240234375">
        <ele>1307.5999755859375</ele>
        <time>2022-08-26T08:07:38.000Z</time>
      </trkpt>
      <trkpt lat="40.1360119320452213287353515625" lon="-1.509851999580860137939453125">
        <ele>1307</ele>
        <time>2022-08-26T08:07:41.000Z</time>
      </trkpt>
      <trkpt lat="40.13596348464488983154296875" lon="-1.5098115988075733184814453125">
        <ele>1306.5999755859375</ele>
        <time>2022-08-26T08:07:44.000Z</time>
      </trkpt>
      <trkpt lat="40.13596884906291961669921875" lon="-1.509771533310413360595703125">
        <ele>1305.5999755859375</ele>
        <time>2022-08-26T08:07:47.000Z</time>
      </trkpt>
      <trkpt lat="40.135716386139392852783203125" lon="-1.50976977311074733734130859375">
        <ele>1304.199951171875</ele>
        <time>2022-08-26T08:08:14.000Z</time>
      </trkpt>
      <trkpt lat="40.135696940124034881591796875" lon="-1.5097499080002307891845703125">
        <ele>1304.199951171875</ele>
        <time>2022-08-26T08:08:15.000Z</time>
      </trkpt>
      <trkpt lat="40.1355495862662792205810546875" lon="-1.50962728075683116912841796875">
        <ele>1303.199951171875</ele>
        <time>2022-08-26T08:08:21.000Z</time>
      </trkpt>
      <trkpt lat="40.1355254463851451873779296875" lon="-1.50960951112210750579833984375">
        <ele>1303</ele>
        <time>2022-08-26T08:08:22.000Z</time>
      </trkpt>
      <trkpt lat="40.13543701730668544769287109375" lon="-1.50953591801226139068603515625">
        <ele>1302</ele>
        <time>2022-08-26T08:08:26.000Z</time>
      </trkpt>
      <trkpt lat="40.13538002036511898040771484375" lon="-1.50949023663997650146484375">
        <ele>1301.5999755859375</ele>
        <time>2022-08-26T08:08:28.000Z</time>
      </trkpt>
      <trkpt lat="40.13530860655009746551513671875" lon="-1.50943902321159839630126953125">
        <ele>1300.800048828125</ele>
        <time>2022-08-26T08:08:30.000Z</time>
      </trkpt>
      <trkpt lat="40.1351418904960155487060546875" lon="-1.50932067073881626129150390625">
        <ele>1299.5999755859375</ele>
        <time>2022-08-26T08:08:34.000Z</time>
      </trkpt>
      <trkpt lat="40.134974755346775054931640625" lon="-1.5091891586780548095703125">
        <ele>1298.4000244140625</ele>
        <time>2022-08-26T08:08:38.000Z</time>
      </trkpt>
      <trkpt lat="40.13484374620020389556884765625" lon="-1.50912419892847537994384765625">
        <ele>1297.199951171875</ele>
        <time>2022-08-26T08:08:41.000Z</time>
      </trkpt>
      <trkpt lat="40.13476847670972347259521484375" lon="-1.5090763382613658905029296875">
        <ele>1296</ele>
        <time>2022-08-26T08:08:43.000Z</time>
      </trkpt>
      <trkpt lat="40.13467493467032909393310546875" lon="-1.50903015397489070892333984375">
        <ele>1295</ele>
        <time>2022-08-26T08:08:47.000Z</time>
      </trkpt>
      <trkpt lat="40.13457183726131916046142578125" lon="-1.50896376930177211761474609375">
        <ele>1293.800048828125</ele>
        <time>2022-08-26T08:08:52.000Z</time>
      </trkpt>
      <trkpt lat="40.13454099185764789581298828125" lon="-1.50893996469676494598388671875">
        <ele>1293.4000244140625</ele>
        <time>2022-08-26T08:08:54.000Z</time>
      </trkpt>
      <trkpt lat="40.13448826968669891357421875" lon="-1.508914567530155181884765625">
        <ele>1292.5999755859375</ele>
        <time>2022-08-26T08:08:57.000Z</time>
      </trkpt>
      <trkpt lat="40.1343952305614948272705078125" lon="-1.50887575931847095489501953125">
        <ele>1291.4000244140625</ele>
        <time>2022-08-26T08:09:01.000Z</time>
      </trkpt>
      <trkpt lat="40.13436765410006046295166015625" lon="-1.50886259973049163818359375">
        <ele>1290.5999755859375</ele>
        <time>2022-08-26T08:09:02.000Z</time>
      </trkpt>
      <trkpt lat="40.13434468768537044525146484375" lon="-1.5088530443608760833740234375">
        <ele>1290.4000244140625</ele>
        <time>2022-08-26T08:09:03.000Z</time>
      </trkpt>
      <trkpt lat="40.1342513971030712127685546875" lon="-1.50880820117890834808349609375">
        <ele>1289</ele>
        <time>2022-08-26T08:09:07.000Z</time>
      </trkpt>
      <trkpt lat="40.13420906849205493927001953125" lon="-1.5087873302400112152099609375">
        <ele>1288.4000244140625</ele>
        <time>2022-08-26T08:09:09.000Z</time>
      </trkpt>
      <trkpt lat="40.1341638900339603424072265625" lon="-1.50876428000628948211669921875">
        <ele>1287.800048828125</ele>
        <time>2022-08-26T08:09:11.000Z</time>
      </trkpt>
      <trkpt lat="40.1340572722256183624267578125" lon="-1.5086894296109676361083984375">
        <ele>1286.5999755859375</ele>
        <time>2022-08-26T08:09:15.000Z</time>
      </trkpt>
      <trkpt lat="40.13393498025834560394287109375" lon="-1.50860334746539592742919921875">
        <ele>1285</ele>
        <time>2022-08-26T08:09:19.000Z</time>
      </trkpt>
      <trkpt lat="40.1338711939752101898193359375" lon="-1.5085673891007900238037109375">
        <ele>1284</ele>
        <time>2022-08-26T08:09:22.000Z</time>
      </trkpt>
      <trkpt lat="40.133846886456012725830078125" lon="-1.50856646709144115447998046875">
        <ele>1283.4000244140625</ele>
        <time>2022-08-26T08:09:23.000Z</time>
      </trkpt>
      <trkpt lat="40.13382266275584697723388671875" lon="-1.508567892014980316162109375">
        <ele>1283</ele>
        <time>2022-08-26T08:09:24.000Z</time>
      </trkpt>
      <trkpt lat="40.1337712816894054412841796875" lon="-1.50855774991214275360107421875">
        <ele>1282</ele>
        <time>2022-08-26T08:09:26.000Z</time>
      </trkpt>
      <trkpt lat="40.1336988620460033416748046875" lon="-1.5085288323462009429931640625">
        <ele>1280.4000244140625</ele>
        <time>2022-08-26T08:09:29.000Z</time>
      </trkpt>
      <trkpt lat="40.13362987898290157318115234375" lon="-1.5084906108677387237548828125">
        <ele>1279.199951171875</ele>
        <time>2022-08-26T08:09:32.000Z</time>
      </trkpt>
      <trkpt lat="40.1335808448493480682373046875" lon="-1.5084607712924480438232421875">
        <ele>1278.199951171875</ele>
        <time>2022-08-26T08:09:34.000Z</time>
      </trkpt>
      <trkpt lat="40.13348805718123912811279296875" lon="-1.508410982787609100341796875">
        <ele>1276.800048828125</ele>
        <time>2022-08-26T08:09:38.000Z</time>
      </trkpt>
      <trkpt lat="40.13346877880394458770751953125" lon="-1.5083950571715831756591796875">
        <ele>1276.199951171875</ele>
        <time>2022-08-26T08:09:39.000Z</time>
      </trkpt>
      <trkpt lat="40.13344933278858661651611328125" lon="-1.50838038884103298187255859375">
        <ele>1275.5999755859375</ele>
        <time>2022-08-26T08:09:40.000Z</time>
      </trkpt>
      <trkpt lat="40.13340256176888942718505859375" lon="-1.50835004635155200958251953125">
        <ele>1274.4000244140625</ele>
        <time>2022-08-26T08:09:42.000Z</time>
      </trkpt>
      <trkpt lat="40.13333902694284915924072265625" lon="-1.50831115432083606719970703125">
        <ele>1273</ele>
        <time>2022-08-26T08:09:44.000Z</time>
      </trkpt>
      <trkpt lat="40.13323970139026641845703125" lon="-1.50828860700130462646484375">
        <ele>1271.800048828125</ele>
        <time>2022-08-26T08:09:47.000Z</time>
      </trkpt>
      <trkpt lat="40.13320039026439189910888671875" lon="-1.508274860680103302001953125">
        <ele>1271</ele>
        <time>2022-08-26T08:09:49.000Z</time>
      </trkpt>
      <trkpt lat="40.13318832032382488250732421875" lon="-1.50826756842434406280517578125">
        <ele>1270.5999755859375</ele>
        <time>2022-08-26T08:09:50.000Z</time>
      </trkpt>
      <trkpt lat="40.1331275515258312225341796875" lon="-1.50825885124504566192626953125">
        <ele>1269.4000244140625</ele>
        <time>2022-08-26T08:09:54.000Z</time>
      </trkpt>
      <trkpt lat="40.1331114582717418670654296875" lon="-1.50825583375990390777587890625">
        <ele>1269</ele>
        <time>2022-08-26T08:09:55.000Z</time>
      </trkpt>
      <trkpt lat="40.1330930180847644805908203125" lon="-1.50826237164437770843505859375">
        <ele>1268.199951171875</ele>
        <time>2022-08-26T08:09:57.000Z</time>
      </trkpt>
      <trkpt lat="40.13303141109645366668701171875" lon="-1.50823772884905338287353515625">
        <ele>1267.199951171875</ele>
        <time>2022-08-26T08:10:01.000Z</time>
      </trkpt>
      <trkpt lat="40.13299754820764064788818359375" lon="-1.50823295116424560546875">
        <ele>1266.800048828125</ele>
        <time>2022-08-26T08:10:02.000Z</time>
      </trkpt>
      <trkpt lat="40.13285882771015167236328125" lon="-1.50816614739596843719482421875">
        <ele>1265.800048828125</ele>
        <time>2022-08-26T08:10:06.000Z</time>
      </trkpt>
      <trkpt lat="40.13282655738294124603271484375" lon="-1.5081409178674221038818359375">
        <ele>1265.800048828125</ele>
        <time>2022-08-26T08:10:07.000Z</time>
      </trkpt>
      <trkpt lat="40.13273268006742000579833984375" lon="-1.50804813019931316375732421875">
        <ele>1264.199951171875</ele>
        <time>2022-08-26T08:10:11.000Z</time>
      </trkpt>
      <trkpt lat="40.13271264731884002685546875" lon="-1.5080343000590801239013671875">
        <ele>1263.4000244140625</ele>
        <time>2022-08-26T08:10:12.000Z</time>
      </trkpt>
      <trkpt lat="40.1326869986951351165771484375" lon="-1.5080170333385467529296875">
        <ele>1262.800048828125</ele>
        <time>2022-08-26T08:10:13.000Z</time>
      </trkpt>
      <trkpt lat="40.1326420716941356658935546875" lon="-1.50798912160098552703857421875">
        <ele>1261.5999755859375</ele>
        <time>2022-08-26T08:10:15.000Z</time>
      </trkpt>
      <trkpt lat="40.1325974799692630767822265625" lon="-1.50797344744205474853515625">
        <ele>1260.800048828125</ele>
        <time>2022-08-26T08:10:17.000Z</time>
      </trkpt>
      <trkpt lat="40.1325726695358753204345703125" lon="-1.5079702623188495635986328125">
        <ele>1260.4000244140625</ele>
        <time>2022-08-26T08:10:18.000Z</time>
      </trkpt>
      <trkpt lat="40.1324834860861301422119140625" lon="-1.5079491399228572845458984375">
        <ele>1259</ele>
        <time>2022-08-26T08:10:22.000Z</time>
      </trkpt>
      <trkpt lat="40.13242296874523162841796875" lon="-1.50793966837227344512939453125">
        <ele>1257.800048828125</ele>
        <time>2022-08-26T08:10:25.000Z</time>
      </trkpt>
      <trkpt lat="40.1323886029422283172607421875" lon="-1.5079327113926410675048828125">
        <ele>1257.199951171875</ele>
        <time>2022-08-26T08:10:27.000Z</time>
      </trkpt>
      <trkpt lat="40.132378377020359039306640625" lon="-1.50792592205107212066650390625">
        <ele>1256.800048828125</ele>
        <time>2022-08-26T08:10:28.000Z</time>
      </trkpt>
      <trkpt lat="40.13232012279331684112548828125" lon="-1.50789968669414520263671875">
        <ele>1255.5999755859375</ele>
        <time>2022-08-26T08:10:32.000Z</time>
      </trkpt>
      <trkpt lat="40.13229547999799251556396484375" lon="-1.5078995190560817718505859375">
        <ele>1255.199951171875</ele>
        <time>2022-08-26T08:10:33.000Z</time>
      </trkpt>
      <trkpt lat="40.1322725974023342132568359375" lon="-1.50790362618863582611083984375">
        <ele>1254.5999755859375</ele>
        <time>2022-08-26T08:10:34.000Z</time>
      </trkpt>
      <trkpt lat="40.13218483887612819671630859375" lon="-1.5079258382320404052734375">
        <ele>1253.4000244140625</ele>
        <time>2022-08-26T08:10:38.000Z</time>
      </trkpt>
      <trkpt lat="40.13214779086410999298095703125" lon="-1.5079317055642604827880859375">
        <ele>1253.199951171875</ele>
        <time>2022-08-26T08:10:40.000Z</time>
      </trkpt>
      <trkpt lat="40.1320509798824787139892578125" lon="-1.50794285349547863006591796875">
        <ele>1252.199951171875</ele>
        <time>2022-08-26T08:10:43.000Z</time>
      </trkpt>
      <trkpt lat="40.13200529851019382476806640625" lon="-1.50793413631618022918701171875">
        <ele>1252</ele>
        <time>2022-08-26T08:10:44.000Z</time>
      </trkpt>
      <trkpt lat="40.13192147947847843170166015625" lon="-1.50786976329982280731201171875">
        <ele>1251</ele>
        <time>2022-08-26T08:10:47.000Z</time>
      </trkpt>
      <trkpt lat="40.13190639205276966094970703125" lon="-1.5078495629131793975830078125">
        <ele>1250.800048828125</ele>
        <time>2022-08-26T08:10:48.000Z</time>
      </trkpt>
      <trkpt lat="40.1318055577576160430908203125" lon="-1.50782458484172821044921875">
        <ele>1249.4000244140625</ele>
        <time>2022-08-26T08:10:51.000Z</time>
      </trkpt>
      <trkpt lat="40.13173322193324565887451171875" lon="-1.5078224055469036102294921875">
        <ele>1248</ele>
        <time>2022-08-26T08:10:53.000Z</time>
      </trkpt>
      <trkpt lat="40.13169315643608570098876953125" lon="-1.5078217349946498870849609375">
        <ele>1247</ele>
        <time>2022-08-26T08:10:55.000Z</time>
      </trkpt>
      <trkpt lat="40.1316677592694759368896484375" lon="-1.5078185498714447021484375">
        <ele>1246.199951171875</ele>
        <time>2022-08-26T08:10:57.000Z</time>
      </trkpt>
      <trkpt lat="40.13164420612156391143798828125" lon="-1.50781259872019290924072265625">
        <ele>1246</ele>
        <time>2022-08-26T08:10:58.000Z</time>
      </trkpt>
      <trkpt lat="40.1315547712147235870361328125" lon="-1.5077858604490756988525390625">
        <ele>1244.800048828125</ele>
        <time>2022-08-26T08:11:01.000Z</time>
      </trkpt>
      <trkpt lat="40.1315219141542911529541015625" lon="-1.50778074748814105987548828125">
        <ele>1244.4000244140625</ele>
        <time>2022-08-26T08:11:02.000Z</time>
      </trkpt>
      <trkpt lat="40.13146097771823406219482421875" lon="-1.50777496397495269775390625">
        <ele>1243.5999755859375</ele>
        <time>2022-08-26T08:11:04.000Z</time>
      </trkpt>
      <trkpt lat="40.131280682981014251708984375" lon="-1.5077352337539196014404296875">
        <ele>1242.4000244140625</ele>
        <time>2022-08-26T08:11:09.000Z</time>
      </trkpt>
      <trkpt lat="40.1311561278998851776123046875" lon="-1.5076983533799648284912109375">
        <ele>1240.800048828125</ele>
        <time>2022-08-26T08:11:12.000Z</time>
      </trkpt>
      <trkpt lat="40.13106803409755229949951171875" lon="-1.50767429731786251068115234375">
        <ele>1239.800048828125</ele>
        <time>2022-08-26T08:11:14.000Z</time>
      </trkpt>
      <trkpt lat="40.13099695555865764617919921875" lon="-1.5076551027595996856689453125">
        <ele>1238.4000244140625</ele>
        <time>2022-08-26T08:11:16.000Z</time>
      </trkpt>
      <trkpt lat="40.1309445686638355255126953125" lon="-1.50763473473489284515380859375">
        <ele>1237.4000244140625</ele>
        <time>2022-08-26T08:11:18.000Z</time>
      </trkpt>
      <trkpt lat="40.13090190477669239044189453125" lon="-1.50761939585208892822265625">
        <ele>1236.199951171875</ele>
        <time>2022-08-26T08:11:20.000Z</time>
      </trkpt>
      <trkpt lat="40.13085312210023403167724609375" lon="-1.507614366710186004638671875">
        <ele>1234.5999755859375</ele>
        <time>2022-08-26T08:11:22.000Z</time>
      </trkpt>
      <trkpt lat="40.13081070967018604278564453125" lon="-1.507594250142574310302734375">
        <ele>1233.199951171875</ele>
        <time>2022-08-26T08:11:24.000Z</time>
      </trkpt>
      <trkpt lat="40.13075890950858592987060546875" lon="-1.50759383104741573333740234375">
        <ele>1232</ele>
        <time>2022-08-26T08:11:26.000Z</time>
      </trkpt>
      <trkpt lat="40.13067509047687053680419921875" lon="-1.50758964009582996368408203125">
        <ele>1231</ele>
        <time>2022-08-26T08:11:29.000Z</time>
      </trkpt>
      <trkpt lat="40.13058121316134929656982421875" lon="-1.5075994469225406646728515625">
        <ele>1229.5999755859375</ele>
        <time>2022-08-26T08:11:32.000Z</time>
      </trkpt>
      <trkpt lat="40.13046554289758205413818359375" lon="-1.5076346509158611297607421875">
        <ele>1228.4000244140625</ele>
        <time>2022-08-26T08:11:35.000Z</time>
      </trkpt>
      <trkpt lat="40.1304275728762149810791015625" lon="-1.5076495707035064697265625">
        <ele>1228.199951171875</ele>
        <time>2022-08-26T08:11:36.000Z</time>
      </trkpt>
      <trkpt lat="40.13031165115535259246826171875" lon="-1.50770011357963085174560546875">
        <ele>1227.199951171875</ele>
        <time>2022-08-26T08:11:39.000Z</time>
      </trkpt>
      <trkpt lat="40.13022649101912975311279296875" lon="-1.50772023014724254608154296875">
        <ele>1226.199951171875</ele>
        <time>2022-08-26T08:11:41.000Z</time>
      </trkpt>
      <trkpt lat="40.13013613410294055938720703125" lon="-1.50771587155759334564208984375">
        <ele>1225.4000244140625</ele>
        <time>2022-08-26T08:11:43.000Z</time>
      </trkpt>
      <trkpt lat="40.1300527341663837432861328125" lon="-1.5076772309839725494384765625">
        <ele>1225</ele>
        <time>2022-08-26T08:11:45.000Z</time>
      </trkpt>
      <trkpt lat="40.13001275248825550079345703125" lon="-1.5076524205505847930908203125">
        <ele>1224.800048828125</ele>
        <time>2022-08-26T08:11:46.000Z</time>
      </trkpt>
      <trkpt lat="40.1299345493316650390625" lon="-1.50758628733456134796142578125">
        <ele>1224.4000244140625</ele>
        <time>2022-08-26T08:11:48.000Z</time>
      </trkpt>
      <trkpt lat="40.12985316105186939239501953125" lon="-1.5075243450701236724853515625">
        <ele>1224</ele>
        <time>2022-08-26T08:11:50.000Z</time>
      </trkpt>
      <trkpt lat="40.12981359846889972686767578125" lon="-1.50750163011252880096435546875">
        <ele>1223.800048828125</ele>
        <time>2022-08-26T08:11:51.000Z</time>
      </trkpt>
      <trkpt lat="40.129683427512645721435546875" lon="-1.5074321441352367401123046875">
        <ele>1223.4000244140625</ele>
        <time>2022-08-26T08:11:54.000Z</time>
      </trkpt>
      <trkpt lat="40.12949206866323947906494140625" lon="-1.50731119327247142791748046875">
        <ele>1223</ele>
        <time>2022-08-26T08:11:59.000Z</time>
      </trkpt>
      <trkpt lat="40.1294549368321895599365234375" lon="-1.50729157961905002593994140625">
        <ele>1222.800048828125</ele>
        <time>2022-08-26T08:12:00.000Z</time>
      </trkpt>
      <trkpt lat="40.12918227352201938629150390625" lon="-1.507097370922565460205078125">
        <ele>1222.4000244140625</ele>
        <time>2022-08-26T08:12:07.000Z</time>
      </trkpt>
      <trkpt lat="40.1290588080883026123046875" lon="-1.5069533698260784149169921875">
        <ele>1222</ele>
        <time>2022-08-26T08:12:11.000Z</time>
      </trkpt>
      <trkpt lat="40.12892067432403564453125" lon="-1.506838537752628326416015625">
        <ele>1221.199951171875</ele>
        <time>2022-08-26T08:12:15.000Z</time>
      </trkpt>
      <trkpt lat="40.12885102070868015289306640625" lon="-1.50679252110421657562255859375">
        <ele>1220.800048828125</ele>
        <time>2022-08-26T08:12:17.000Z</time>
      </trkpt>
      <trkpt lat="40.12875848449766635894775390625" lon="-1.506758742034435272216796875">
        <ele>1220</ele>
        <time>2022-08-26T08:12:20.000Z</time>
      </trkpt>
      <trkpt lat="40.1287049241364002227783203125" lon="-1.5066995657980442047119140625">
        <ele>1219.800048828125</ele>
        <time>2022-08-26T08:12:22.000Z</time>
      </trkpt>
      <trkpt lat="40.128621943295001983642578125" lon="-1.506636701524257659912109375">
        <ele>1219.199951171875</ele>
        <time>2022-08-26T08:12:25.000Z</time>
      </trkpt>
      <trkpt lat="40.12838649563491344451904296875" lon="-1.5064828097820281982421875">
        <ele>1218.800048828125</ele>
        <time>2022-08-26T08:12:33.000Z</time>
      </trkpt>
      <trkpt lat="40.128124393522739410400390625" lon="-1.50632430799305438995361328125">
        <ele>1219</ele>
        <time>2022-08-26T08:12:42.000Z</time>
      </trkpt>
      <trkpt lat="40.12790470384061336517333984375" lon="-1.506194137036800384521484375">
        <ele>1219.5999755859375</ele>
        <time>2022-08-26T08:12:51.000Z</time>
      </trkpt>
      <trkpt lat="40.12774117290973663330078125" lon="-1.50606933049857616424560546875">
        <ele>1220.800048828125</ele>
        <time>2022-08-26T08:12:58.000Z</time>
      </trkpt>
      <trkpt lat="40.12771510519087314605712890625" lon="-1.50605189613997936248779296875">
        <ele>1221</ele>
        <time>2022-08-26T08:12:59.000Z</time>
      </trkpt>
      <trkpt lat="40.127581916749477386474609375" lon="-1.50597025640308856964111328125">
        <ele>1221.4000244140625</ele>
        <time>2022-08-26T08:13:05.000Z</time>
      </trkpt>
      <trkpt lat="40.1275264285504817962646484375" lon="-1.50595768354833126068115234375">
        <ele>1222</ele>
        <time>2022-08-26T08:13:09.000Z</time>
      </trkpt>
      <trkpt lat="40.12749114073812961578369140625" lon="-1.5059713460505008697509765625">
        <ele>1222</ele>
        <time>2022-08-26T08:13:11.000Z</time>
      </trkpt>
      <trkpt lat="40.127306990325450897216796875" lon="-1.5060729347169399261474609375">
        <ele>1222.199951171875</ele>
        <time>2022-08-26T08:13:16.000Z</time>
      </trkpt>
      <trkpt lat="40.1270446367561817169189453125" lon="-1.50625725276768207550048828125">
        <ele>1221.5999755859375</ele>
        <time>2022-08-26T08:13:21.000Z</time>
      </trkpt>
      <trkpt lat="40.12680985964834690093994140625" lon="-1.5064343623816967010498046875">
        <ele>1220.5999755859375</ele>
        <time>2022-08-26T08:13:25.000Z</time>
      </trkpt>
      <trkpt lat="40.12655521742999553680419921875" lon="-1.506627313792705535888671875">
        <ele>1219.800048828125</ele>
        <time>2022-08-26T08:13:29.000Z</time>
      </trkpt>
      <trkpt lat="40.12649201788008213043212890625" lon="-1.506674587726593017578125">
        <ele>1219.5999755859375</ele>
        <time>2022-08-26T08:13:30.000Z</time>
      </trkpt>
      <trkpt lat="40.126244165003299713134765625" lon="-1.50685739703476428985595703125">
        <ele>1218.199951171875</ele>
        <time>2022-08-26T08:13:34.000Z</time>
      </trkpt>
      <trkpt lat="40.1260803826153278350830078125" lon="-1.50699016638100147247314453125">
        <ele>1216.800048828125</ele>
        <time>2022-08-26T08:13:37.000Z</time>
      </trkpt>
      <trkpt lat="40.1259472779929637908935546875" lon="-1.5070968680083751678466796875">
        <ele>1215.199951171875</ele>
        <time>2022-08-26T08:13:40.000Z</time>
      </trkpt>
      <trkpt lat="40.12586974538862705230712890625" lon="-1.50715327821671962738037109375">
        <ele>1214</ele>
        <time>2022-08-26T08:13:42.000Z</time>
      </trkpt>
      <trkpt lat="40.12583948671817779541015625" lon="-1.50717171840369701385498046875">
        <ele>1213.4000244140625</ele>
        <time>2022-08-26T08:13:43.000Z</time>
      </trkpt>
      <trkpt lat="40.1258158497512340545654296875" lon="-1.5071847103536128997802734375">
        <ele>1212.5999755859375</ele>
        <time>2022-08-26T08:13:44.000Z</time>
      </trkpt>
      <trkpt lat="40.125798247754573822021484375" lon="-1.50719351135194301605224609375">
        <ele>1212</ele>
        <time>2022-08-26T08:13:45.000Z</time>
      </trkpt>
      <trkpt lat="40.12578357942402362823486328125" lon="-1.5071890689432621002197265625">
        <ele>1211.199951171875</ele>
        <time>2022-08-26T08:13:46.000Z</time>
      </trkpt>
      <trkpt lat="40.1257722638547420501708984375" lon="-1.50717171840369701385498046875">
        <ele>1210.5999755859375</ele>
        <time>2022-08-26T08:13:47.000Z</time>
      </trkpt>
      <trkpt lat="40.12577117420732975006103515625" lon="-1.50712125934660434722900390625">
        <ele>1209.5999755859375</ele>
        <time>2022-08-26T08:13:49.000Z</time>
      </trkpt>
      <trkpt lat="40.12579347006976604461669921875" lon="-1.50705269537866115570068359375">
        <ele>1208.5999755859375</ele>
        <time>2022-08-26T08:13:51.000Z</time>
      </trkpt>
      <trkpt lat="40.12581660412251949310302734375" lon="-1.50701715610921382904052734375">
        <ele>1208.199951171875</ele>
        <time>2022-08-26T08:13:52.000Z</time>
      </trkpt>
      <trkpt lat="40.12591567821800708770751953125" lon="-1.50689880363643169403076171875">
        <ele>1207.5999755859375</ele>
        <time>2022-08-26T08:13:55.000Z</time>
      </trkpt>
      <trkpt lat="40.12595239095389842987060546875" lon="-1.50685655884444713592529296875">
        <ele>1207.4000244140625</ele>
        <time>2022-08-26T08:13:56.000Z</time>
      </trkpt>
      <trkpt lat="40.12606169097125530242919921875" lon="-1.50670769624412059783935546875">
        <ele>1207</ele>
        <time>2022-08-26T08:13:59.000Z</time>
      </trkpt>
      <trkpt lat="40.126126818358898162841796875" lon="-1.50657869875431060791015625">
        <ele>1206.5999755859375</ele>
        <time>2022-08-26T08:14:01.000Z</time>
      </trkpt>
      <trkpt lat="40.1261507906019687652587890625" lon="-1.50650896131992340087890625">
        <ele>1206.5999755859375</ele>
        <time>2022-08-26T08:14:02.000Z</time>
      </trkpt>
      <trkpt lat="40.12621792964637279510498046875" lon="-1.50621869601309299468994140625">
        <ele>1206.199951171875</ele>
        <time>2022-08-26T08:14:06.000Z</time>
      </trkpt>
      <trkpt lat="40.12621725909411907196044921875" lon="-1.50606463663280010223388671875">
        <ele>1206</ele>
        <time>2022-08-26T08:14:08.000Z</time>
      </trkpt>
      <trkpt lat="40.1261947117745876312255859375" lon="-1.5059234015643596649169921875">
        <ele>1206</ele>
        <time>2022-08-26T08:14:10.000Z</time>
      </trkpt>
      <trkpt lat="40.12614794075489044189453125" lon="-1.50572919286787509918212890625">
        <ele>1205.800048828125</ele>
        <time>2022-08-26T08:14:13.000Z</time>
      </trkpt>
      <trkpt lat="40.12604056857526302337646484375" lon="-1.50517934001982212066650390625">
        <ele>1205.5999755859375</ele>
        <time>2022-08-26T08:14:22.000Z</time>
      </trkpt>
      <trkpt lat="40.12602682225406169891357421875" lon="-1.50485093705356121063232421875">
        <ele>1205.800048828125</ele>
        <time>2022-08-26T08:14:28.000Z</time>
      </trkpt>
      <trkpt lat="40.12608331628143787384033203125" lon="-1.5044729970395565032958984375">
        <ele>1205.800048828125</ele>
        <time>2022-08-26T08:14:35.000Z</time>
      </trkpt>
      <trkpt lat="40.126120112836360931396484375" lon="-1.50435539893805980682373046875">
        <ele>1205.800048828125</ele>
        <time>2022-08-26T08:14:37.000Z</time>
      </trkpt>
      <trkpt lat="40.12618121691048145294189453125" lon="-1.504151634871959686279296875">
        <ele>1205.800048828125</ele>
        <time>2022-08-26T08:14:41.000Z</time>
      </trkpt>
      <trkpt lat="40.1262946240603923797607421875" lon="-1.50389657355844974517822265625">
        <ele>1205.800048828125</ele>
        <time>2022-08-26T08:14:48.000Z</time>
      </trkpt>
      <trkpt lat="40.12634768150746822357177734375" lon="-1.5037682466208934783935546875">
        <ele>1205.800048828125</ele>
        <time>2022-08-26T08:14:54.000Z</time>
      </trkpt>
      <trkpt lat="40.1264444924890995025634765625" lon="-1.50370177812874317169189453125">
        <ele>1207.199951171875</ele>
        <time>2022-08-26T08:15:00.000Z</time>
      </trkpt>
      <trkpt lat="40.126463435590267181396484375" lon="-1.50369239039719104766845703125">
        <ele>1207.4000244140625</ele>
        <time>2022-08-26T08:15:01.000Z</time>
      </trkpt>
      <trkpt lat="40.12668815441429615020751953125" lon="-1.50360857136547565460205078125">
        <ele>1208</ele>
        <time>2022-08-26T08:15:09.000Z</time>
      </trkpt>
      <trkpt lat="40.1267127133905887603759765625" lon="-1.5036002732813358306884765625">
        <ele>1208.199951171875</ele>
        <time>2022-08-26T08:15:10.000Z</time>
      </trkpt>
      <trkpt lat="40.1268632523715496063232421875" lon="-1.50355693884193897247314453125">
        <ele>1209</ele>
        <time>2022-08-26T08:15:16.000Z</time>
      </trkpt>
      <trkpt lat="40.12693625874817371368408203125" lon="-1.503536738455295562744140625">
        <ele>1209.199951171875</ele>
        <time>2022-08-26T08:15:18.000Z</time>
      </trkpt>
      <trkpt lat="40.1271700300276279449462890625" lon="-1.5035127662122249603271484375">
        <ele>1209.4000244140625</ele>
        <time>2022-08-26T08:15:24.000Z</time>
      </trkpt>
      <trkpt lat="40.12746415100991725921630859375" lon="-1.50355777703225612640380859375">
        <ele>1210</ele>
        <time>2022-08-26T08:15:32.000Z</time>
      </trkpt>
      <trkpt lat="40.127695910632610321044921875" lon="-1.50347814895212650299072265625">
        <ele>1210.199951171875</ele>
        <time>2022-08-26T08:15:38.000Z</time>
      </trkpt>
      <trkpt lat="40.127891711890697479248046875" lon="-1.50319953449070453643798828125">
        <ele>1210.199951171875</ele>
        <time>2022-08-26T08:15:45.000Z</time>
      </trkpt>
      <trkpt lat="40.12803143821656703948974609375" lon="-1.5028723888099193572998046875">
        <ele>1210.199951171875</ele>
        <time>2022-08-26T08:15:52.000Z</time>
      </trkpt>
      <trkpt lat="40.12806680984795093536376953125" lon="-1.50249143131077289581298828125">
        <ele>1210.199951171875</ele>
        <time>2022-08-26T08:15:59.000Z</time>
      </trkpt>
      <trkpt lat="40.128081142902374267578125" lon="-1.50243074633181095123291015625">
        <ele>1210.4000244140625</ele>
        <time>2022-08-26T08:16:00.000Z</time>
      </trkpt>
      <trkpt lat="40.128067396581172943115234375" lon="-1.50202942080795764923095703125">
        <ele>1210.4000244140625</ele>
        <time>2022-08-26T08:16:08.000Z</time>
      </trkpt>
      <trkpt lat="40.1280548237264156341552734375" lon="-1.50166950188577175140380859375">
        <ele>1210.800048828125</ele>
        <time>2022-08-26T08:16:16.000Z</time>
      </trkpt>
      <trkpt lat="40.12806446291506290435791015625" lon="-1.5013948269188404083251953125">
        <ele>1211.199951171875</ele>
        <time>2022-08-26T08:16:23.000Z</time>
      </trkpt>
      <trkpt lat="40.128075443208217620849609375" lon="-1.501317210495471954345703125">
        <ele>1211.4000244140625</ele>
        <time>2022-08-26T08:16:25.000Z</time>
      </trkpt>
      <trkpt lat="40.12810905463993549346923828125" lon="-1.50119793601334095001220703125">
        <ele>1211.800048828125</ele>
        <time>2022-08-26T08:16:29.000Z</time>
      </trkpt>
      <trkpt lat="40.1281460188329219818115234375" lon="-1.5011061541736125946044921875">
        <ele>1212.199951171875</ele>
        <time>2022-08-26T08:16:36.000Z</time>
      </trkpt>
      <trkpt lat="40.1281550712883472442626953125" lon="-1.50107841007411479949951171875">
        <ele>1212.4000244140625</ele>
        <time>2022-08-26T08:16:38.000Z</time>
      </trkpt>
      <trkpt lat="40.12822254560887813568115234375" lon="-1.500970534980297088623046875">
        <ele>1212.5999755859375</ele>
        <time>2022-08-26T08:16:43.000Z</time>
      </trkpt>
      <trkpt lat="40.12833972461521625518798828125" lon="-1.50081069208681583404541015625">
        <ele>1212.800048828125</ele>
        <time>2022-08-26T08:16:53.000Z</time>
      </trkpt>
      <trkpt lat="40.1283518783748149871826171875" lon="-1.50080784223973751068115234375">
        <ele>1212.800048828125</ele>
        <time>2022-08-26T08:16:55.000Z</time>
      </trkpt>
      <trkpt lat="40.12838465161621570587158203125" lon="-1.50076978839933872222900390625">
        <ele>1213</ele>
        <time>2022-08-26T08:16:58.000Z</time>
      </trkpt>
      <trkpt lat="40.1284544728696346282958984375" lon="-1.50070792995393276214599609375">
        <ele>1213</ele>
        <time>2022-08-26T08:17:04.000Z</time>
      </trkpt>
      <trkpt lat="40.12858749367296695709228515625" lon="-1.50073274038732051849365234375">
        <ele>1213.199951171875</ele>
        <time>2022-08-26T08:17:09.000Z</time>
      </trkpt>
      <trkpt lat="40.12873870320618152618408203125" lon="-1.50069083087146282196044921875">
        <ele>1213.199951171875</ele>
        <time>2022-08-26T08:17:10.000Z</time>
      </trkpt>
      <trkpt lat="40.12892846949398517608642578125" lon="-1.50080650113523006439208984375">
        <ele>1213</ele>
        <time>2022-08-26T08:17:16.000Z</time>
      </trkpt>
      <trkpt lat="40.12883811257779598236083984375" lon="-1.5009509213268756866455078125">
        <ele>1213</ele>
        <time>2022-08-26T08:17:21.000Z</time>
      </trkpt>
      <trkpt lat="40.128825791180133819580078125" lon="-1.50099861435592174530029296875">
        <ele>1213.199951171875</ele>
        <time>2022-08-26T08:17:28.000Z</time>
      </trkpt>
      <trkpt lat="40.129119493067264556884765625" lon="-1.50093675591051578521728515625">
        <ele>1214</ele>
        <time>2022-08-26T08:17:36.000Z</time>
      </trkpt>
      <trkpt lat="40.12929123826324939727783203125" lon="-1.5009963512420654296875">
        <ele>1215</ele>
        <time>2022-08-26T08:17:44.000Z</time>
      </trkpt>
      <trkpt lat="40.129299871623516082763671875" lon="-1.5010434575378894805908203125">
        <ele>1215.199951171875</ele>
        <time>2022-08-26T08:17:46.000Z</time>
      </trkpt>
      <trkpt lat="40.129325687885284423828125" lon="-1.50114663876593112945556640625">
        <ele>1215.5999755859375</ele>
        <time>2022-08-26T08:17:50.000Z</time>
      </trkpt>
      <trkpt lat="40.12934605590999126434326171875" lon="-1.5012338943779468536376953125">
        <ele>1216</ele>
        <time>2022-08-26T08:17:54.000Z</time>
      </trkpt>
      <trkpt lat="40.1293359138071537017822265625" lon="-1.50134679861366748809814453125">
        <ele>1217</ele>
        <time>2022-08-26T08:17:59.000Z</time>
      </trkpt>
      <trkpt lat="40.1293271966278553009033203125" lon="-1.5013757161796092987060546875">
        <ele>1217.199951171875</ele>
        <time>2022-08-26T08:18:00.000Z</time>
      </trkpt>
      <trkpt lat="40.1293624006211757659912109375" lon="-1.5015436895191669464111328125">
        <ele>1217.5999755859375</ele>
        <time>2022-08-26T08:18:06.000Z</time>
      </trkpt>
      <trkpt lat="40.12941260822117328643798828125" lon="-1.50157545693218708038330078125">
        <ele>1218</ele>
        <time>2022-08-26T08:18:08.000Z</time>
      </trkpt>
      <trkpt lat="40.12943926267325878143310546875" lon="-1.5016821585595607757568359375">
        <ele>1219</ele>
        <time>2022-08-26T08:18:14.000Z</time>
      </trkpt>
      <trkpt lat="40.1295350678265094757080078125" lon="-1.50169682689011096954345703125">
        <ele>1219.5999755859375</ele>
        <time>2022-08-26T08:18:18.000Z</time>
      </trkpt>
      <trkpt lat="40.1296115107834339141845703125" lon="-1.50168894790112972259521484375">
        <ele>1219.800048828125</ele>
        <time>2022-08-26T08:18:20.000Z</time>
      </trkpt>
      <trkpt lat="40.13063485734164714813232421875" lon="-1.501159630715847015380859375">
        <ele>1220</ele>
        <time>2022-08-26T08:18:23.000Z</time>
      </trkpt>
      <trkpt lat="40.131197534501552581787109375" lon="-1.500900797545909881591796875">
        <ele>1219.800048828125</ele>
        <time>2022-08-26T08:18:26.000Z</time>
      </trkpt>
      <trkpt lat="40.13127691112458705902099609375" lon="-1.50087573565542697906494140625">
        <ele>1220</ele>
        <time>2022-08-26T08:18:27.000Z</time>
      </trkpt>
      <trkpt lat="40.131428204476833343505859375" lon="-1.50084438733756542205810546875">
        <ele>1220.199951171875</ele>
        <time>2022-08-26T08:18:30.000Z</time>
      </trkpt>
      <trkpt lat="40.13164521194994449615478515625" lon="-1.50084489025175571441650390625">
        <ele>1221</ele>
        <time>2022-08-26T08:18:37.000Z</time>
      </trkpt>
      <trkpt lat="40.13166524469852447509765625" lon="-1.50084405206143856048583984375">
        <ele>1221</ele>
        <time>2022-08-26T08:18:38.000Z</time>
      </trkpt>
      <trkpt lat="40.131739340722560882568359375" lon="-1.5008429624140262603759765625">
        <ele>1221.4000244140625</ele>
        <time>2022-08-26T08:18:43.000Z</time>
      </trkpt>
      <trkpt lat="40.13175535015761852264404296875" lon="-1.50084421969950199127197265625">
        <ele>1221.4000244140625</ele>
        <time>2022-08-26T08:18:44.000Z</time>
      </trkpt>
      <trkpt lat="40.13189264573156833648681640625" lon="-1.5008379332721233367919921875">
        <ele>1221.800048828125</ele>
        <time>2022-08-26T08:18:50.000Z</time>
      </trkpt>
      <trkpt lat="40.13194913975894451141357421875" lon="-1.5008335746824741363525390625">
        <ele>1221.800048828125</ele>
        <time>2022-08-26T08:18:52.000Z</time>
      </trkpt>
      <trkpt lat="40.132326073944568634033203125" lon="-1.500749252736568450927734375">
        <ele>1222.199951171875</ele>
        <time>2022-08-26T08:18:59.000Z</time>
      </trkpt>
      <trkpt lat="40.13248658739030361175537109375" lon="-1.500698290765285491943359375">
        <ele>1222.5999755859375</ele>
        <time>2022-08-26T08:19:04.000Z</time>
      </trkpt>
      <trkpt lat="40.13252028264105319976806640625" lon="-1.5006873942911624908447265625">
        <ele>1222.800048828125</ele>
        <time>2022-08-26T08:19:05.000Z</time>
      </trkpt>
      <trkpt lat="40.1326802931725978851318359375" lon="-1.50062017142772674560546875">
        <ele>1223.199951171875</ele>
        <time>2022-08-26T08:19:10.000Z</time>
      </trkpt>
      <trkpt lat="40.1329572312533855438232421875" lon="-1.500423364341259002685546875">
        <ele>1223.5999755859375</ele>
        <time>2022-08-26T08:19:18.000Z</time>
      </trkpt>
      <trkpt lat="40.13310383073985576629638671875" lon="-1.50031029246747493743896484375">
        <ele>1223.800048828125</ele>
        <time>2022-08-26T08:19:22.000Z</time>
      </trkpt>
      <trkpt lat="40.1332787610590457916259765625" lon="-1.500149108469486236572265625">
        <ele>1224</ele>
        <time>2022-08-26T08:19:27.000Z</time>
      </trkpt>
      <trkpt lat="40.13352267444133758544921875" lon="-1.499866805970668792724609375">
        <ele>1224.5999755859375</ele>
        <time>2022-08-26T08:19:35.000Z</time>
      </trkpt>
      <trkpt lat="40.1335836946964263916015625" lon="-1.49980234913527965545654296875">
        <ele>1224.800048828125</ele>
        <time>2022-08-26T08:19:37.000Z</time>
      </trkpt>
      <trkpt lat="40.13380204327404499053955078125" lon="-1.4996346272528171539306640625">
        <ele>1225.800048828125</ele>
        <time>2022-08-26T08:19:43.000Z</time>
      </trkpt>
      <trkpt lat="40.13391033746302127838134765625" lon="-1.499558351933956146240234375">
        <ele>1226</ele>
        <time>2022-08-26T08:19:46.000Z</time>
      </trkpt>
      <trkpt lat="40.13412491418421268463134765625" lon="-1.49939163587987422943115234375">
        <ele>1226.4000244140625</ele>
        <time>2022-08-26T08:19:52.000Z</time>
      </trkpt>
      <trkpt lat="40.13437771238386631011962890625" lon="-1.49918787181377410888671875">
        <ele>1226.4000244140625</ele>
        <time>2022-08-26T08:19:59.000Z</time>
      </trkpt>
      <trkpt lat="40.1346654631197452545166015625" lon="-1.4989805035293102264404296875">
        <ele>1226.4000244140625</ele>
        <time>2022-08-26T08:20:05.000Z</time>
      </trkpt>
      <trkpt lat="40.1347060315310955047607421875" lon="-1.49894781410694122314453125">
        <ele>1226.5999755859375</ele>
        <time>2022-08-26T08:20:06.000Z</time>
      </trkpt>
      <trkpt lat="40.1347978971898555755615234375" lon="-1.4988272823393344879150390625">
        <ele>1226.800048828125</ele>
        <time>2022-08-26T08:20:09.000Z</time>
      </trkpt>
      <trkpt lat="40.13483720831573009490966796875" lon="-1.498738937079906463623046875">
        <ele>1227</ele>
        <time>2022-08-26T08:20:11.000Z</time>
      </trkpt>
      <trkpt lat="40.13497970066964626312255859375" lon="-1.49851690046489238739013671875">
        <ele>1227.199951171875</ele>
        <time>2022-08-26T08:20:18.000Z</time>
      </trkpt>
      <trkpt lat="40.1350342668592929840087890625" lon="-1.498461328446865081787109375">
        <ele>1227.4000244140625</ele>
        <time>2022-08-26T08:20:20.000Z</time>
      </trkpt>
      <trkpt lat="40.135096125304698944091796875" lon="-1.4984093606472015380859375">
        <ele>1227.800048828125</ele>
        <time>2022-08-26T08:20:22.000Z</time>
      </trkpt>
      <trkpt lat="40.135127641260623931884765625" lon="-1.498386226594448089599609375">
        <ele>1227.800048828125</ele>
        <time>2022-08-26T08:20:23.000Z</time>
      </trkpt>
      <trkpt lat="40.13540047220885753631591796875" lon="-1.49826024658977985382080078125">
        <ele>1228.5999755859375</ele>
        <time>2022-08-26T08:20:30.000Z</time>
      </trkpt>
      <trkpt lat="40.135489404201507568359375" lon="-1.49824775755405426025390625">
        <ele>1228.800048828125</ele>
        <time>2022-08-26T08:20:32.000Z</time>
      </trkpt>
      <trkpt lat="40.13567087240517139434814453125" lon="-1.49821691215038299560546875">
        <ele>1229.199951171875</ele>
        <time>2022-08-26T08:20:36.000Z</time>
      </trkpt>
      <trkpt lat="40.13571864925324916839599609375" lon="-1.4982001483440399169921875">
        <ele>1229.4000244140625</ele>
        <time>2022-08-26T08:20:37.000Z</time>
      </trkpt>
      <trkpt lat="40.13588947243988513946533203125" lon="-1.49809747003018856048583984375">
        <ele>1229.800048828125</ele>
        <time>2022-08-26T08:20:41.000Z</time>
      </trkpt>
      <trkpt lat="40.13592266477644443511962890625" lon="-1.49806528352200984954833984375">
        <ele>1229.800048828125</ele>
        <time>2022-08-26T08:20:42.000Z</time>
      </trkpt>
      <trkpt lat="40.13595501892268657684326171875" lon="-1.49802655912935733795166015625">
        <ele>1229.800048828125</ele>
        <time>2022-08-26T08:20:43.000Z</time>
      </trkpt>
      <trkpt lat="40.13601033948361873626708984375" lon="-1.49793821386992931365966796875">
        <ele>1230.199951171875</ele>
        <time>2022-08-26T08:20:45.000Z</time>
      </trkpt>
      <trkpt lat="40.13607907108962535858154296875" lon="-1.49778784252703189849853515625">
        <ele>1230.5999755859375</ele>
        <time>2022-08-26T08:20:48.000Z</time>
      </trkpt>
      <trkpt lat="40.13615165837109088897705078125" lon="-1.4976427517831325531005859375">
        <ele>1231</ele>
        <time>2022-08-26T08:20:51.000Z</time>
      </trkpt>
      <trkpt lat="40.13632155954837799072265625" lon="-1.49727185256779193878173828125">
        <ele>1232</ele>
        <time>2022-08-26T08:20:59.000Z</time>
      </trkpt>
      <trkpt lat="40.13633790425956249237060546875" lon="-1.4972023665904998779296875">
        <ele>1232.5999755859375</ele>
        <time>2022-08-26T08:21:03.000Z</time>
      </trkpt>
      <trkpt lat="40.1363277621567249298095703125" lon="-1.49719306267797946929931640625">
        <ele>1232.800048828125</ele>
        <time>2022-08-26T08:21:05.000Z</time>
      </trkpt>
      <trkpt lat="40.1364736072719097137451171875" lon="-1.4970305375754833221435546875">
        <ele>1232</ele>
        <time>2022-08-26T08:22:46.000Z</time>
      </trkpt>
      <trkpt lat="40.13648810796439647674560546875" lon="-1.496971361339092254638671875">
        <ele>1232</ele>
        <time>2022-08-26T08:22:48.000Z</time>
      </trkpt>
      <trkpt lat="40.1365631259977817535400390625" lon="-1.49670674465596675872802734375">
        <ele>1232.5999755859375</ele>
        <time>2022-08-26T08:22:55.000Z</time>
      </trkpt>
      <trkpt lat="40.13657494448125362396240234375" lon="-1.496628038585186004638671875">
        <ele>1233</ele>
        <time>2022-08-26T08:22:57.000Z</time>
      </trkpt>
      <trkpt lat="40.13660763390362262725830078125" lon="-1.49632168002426624298095703125">
        <ele>1234</ele>
        <time>2022-08-26T08:23:04.000Z</time>
      </trkpt>
      <trkpt lat="40.13662624172866344451904296875" lon="-1.4962342567741870880126953125">
        <ele>1234.4000244140625</ele>
        <time>2022-08-26T08:23:06.000Z</time>
      </trkpt>
      <trkpt lat="40.136665888130664825439453125" lon="-1.49593678303062915802001953125">
        <ele>1235.199951171875</ele>
        <time>2022-08-26T08:23:12.000Z</time>
      </trkpt>
      <trkpt lat="40.13669128529727458953857421875" lon="-1.495780460536479949951171875">
        <ele>1235.4000244140625</ele>
        <time>2022-08-26T08:23:15.000Z</time>
      </trkpt>
      <trkpt lat="40.1367706619203090667724609375" lon="-1.4952897839248180389404296875">
        <ele>1236.199951171875</ele>
        <time>2022-08-26T08:23:24.000Z</time>
      </trkpt>
      <trkpt lat="40.1368561573326587677001953125" lon="-1.49474001489579677581787109375">
        <ele>1236.4000244140625</ele>
        <time>2022-08-26T08:23:34.000Z</time>
      </trkpt>
      <trkpt lat="40.1370066963136196136474609375" lon="-1.4941424690186977386474609375">
        <ele>1236.800048828125</ele>
        <time>2022-08-26T08:23:45.000Z</time>
      </trkpt>
      <trkpt lat="40.13718062080442905426025390625" lon="-1.493531428277492523193359375">
        <ele>1237.199951171875</ele>
        <time>2022-08-26T08:23:56.000Z</time>
      </trkpt>
      <trkpt lat="40.137356556951999664306640625" lon="-1.49296506308019161224365234375">
        <ele>1237.4000244140625</ele>
        <time>2022-08-26T08:24:06.000Z</time>
      </trkpt>
      <trkpt lat="40.137399472296237945556640625" lon="-1.4928607083857059478759765625">
        <ele>1237.5999755859375</ele>
        <time>2022-08-26T08:24:08.000Z</time>
      </trkpt>
      <trkpt lat="40.13749795965850353240966796875" lon="-1.49251964874565601348876953125">
        <ele>1238.5999755859375</ele>
        <time>2022-08-26T08:24:15.000Z</time>
      </trkpt>
      <trkpt lat="40.1375091075897216796875" lon="-1.49247488938271999359130859375">
        <ele>1238.5999755859375</ele>
        <time>2022-08-26T08:24:16.000Z</time>
      </trkpt>
      <trkpt lat="40.1375533640384674072265625" lon="-1.49217012338340282440185546875">
        <ele>1239.800048828125</ele>
        <time>2022-08-26T08:24:23.000Z</time>
      </trkpt>
      <trkpt lat="40.137568451464176177978515625" lon="-1.49208538234233856201171875">
        <ele>1240</ele>
        <time>2022-08-26T08:24:25.000Z</time>
      </trkpt>
      <trkpt lat="40.13761145062744617462158203125" lon="-1.4918086118996143341064453125">
        <ele>1240.800048828125</ele>
        <time>2022-08-26T08:24:31.000Z</time>
      </trkpt>
      <trkpt lat="40.13765771873295307159423828125" lon="-1.49162647314369678497314453125">
        <ele>1241.4000244140625</ele>
        <time>2022-08-26T08:24:35.000Z</time>
      </trkpt>
      <trkpt lat="40.13769996352493762969970703125" lon="-1.49149772711098194122314453125">
        <ele>1241.800048828125</ele>
        <time>2022-08-26T08:24:38.000Z</time>
      </trkpt>
      <trkpt lat="40.1378296315670013427734375" lon="-1.491174437105655670166015625">
        <ele>1243</ele>
        <time>2022-08-26T08:24:46.000Z</time>
      </trkpt>
      <trkpt lat="40.137841701507568359375" lon="-1.49113051593303680419921875">
        <ele>1243.199951171875</ele>
        <time>2022-08-26T08:24:47.000Z</time>
      </trkpt>
      <trkpt lat="40.13793264515697956085205078125" lon="-1.490845866501331329345703125">
        <ele>1244.4000244140625</ele>
        <time>2022-08-26T08:24:53.000Z</time>
      </trkpt>
      <trkpt lat="40.13800791464745998382568359375" lon="-1.49060019291937351226806640625">
        <ele>1245</ele>
        <time>2022-08-26T08:24:58.000Z</time>
      </trkpt>
      <trkpt lat="40.13816398568451404571533203125" lon="-1.49028251878917217254638671875">
        <ele>1245.4000244140625</ele>
        <time>2022-08-26T08:25:05.000Z</time>
      </trkpt>
      <trkpt lat="40.138209499418735504150390625" lon="-1.49019367061555385589599609375">
        <ele>1245.5999755859375</ele>
        <time>2022-08-26T08:25:07.000Z</time>
      </trkpt>
      <trkpt lat="40.138497836887836456298828125" lon="-1.48967617191374301910400390625">
        <ele>1246</ele>
        <time>2022-08-26T08:25:19.000Z</time>
      </trkpt>
      <trkpt lat="40.13882230035960674285888671875" lon="-1.48908239789307117462158203125">
        <ele>1246.5999755859375</ele>
        <time>2022-08-26T08:25:32.000Z</time>
      </trkpt>
      <trkpt lat="40.13887829147279262542724609375" lon="-1.48898868821561336517333984375">
        <ele>1246.5999755859375</ele>
        <time>2022-08-26T08:25:34.000Z</time>
      </trkpt>
      <trkpt lat="40.13911952264606952667236328125" lon="-1.48864536546170711517333984375">
        <ele>1246.800048828125</ele>
        <time>2022-08-26T08:25:42.000Z</time>
      </trkpt>
      <trkpt lat="40.139478184282779693603515625" lon="-1.48829868994653224945068359375">
        <ele>1247.4000244140625</ele>
        <time>2022-08-26T08:25:52.000Z</time>
      </trkpt>
      <trkpt lat="40.1395507715642452239990234375" lon="-1.4882288686931133270263671875">
        <ele>1247.800048828125</ele>
        <time>2022-08-26T08:25:54.000Z</time>
      </trkpt>
      <trkpt lat="40.13998470269143581390380859375" lon="-1.48783952929079532623291015625">
        <ele>1248.5999755859375</ele>
        <time>2022-08-26T08:26:05.000Z</time>
      </trkpt>
      <trkpt lat="40.1400986127555370330810546875" lon="-1.48773525841534137725830078125">
        <ele>1249</ele>
        <time>2022-08-26T08:26:08.000Z</time>
      </trkpt>
      <trkpt lat="40.14056607149541378021240234375" lon="-1.48729629814624786376953125">
        <ele>1249.800048828125</ele>
        <time>2022-08-26T08:26:20.000Z</time>
      </trkpt>
      <trkpt lat="40.1407564245164394378662109375" lon="-1.48712254129350185394287109375">
        <ele>1250</ele>
        <time>2022-08-26T08:26:25.000Z</time>
      </trkpt>
      <trkpt lat="40.141097567975521087646484375" lon="-1.48681542836129665374755859375">
        <ele>1250.800048828125</ele>
        <time>2022-08-26T08:26:34.000Z</time>
      </trkpt>
      <trkpt lat="40.141256488859653472900390625" lon="-1.486675702035427093505859375">
        <ele>1251.199951171875</ele>
        <time>2022-08-26T08:26:38.000Z</time>
      </trkpt>
      <trkpt lat="40.1416532881557941436767578125" lon="-1.48632357828319072723388671875">
        <ele>1251.800048828125</ele>
        <time>2022-08-26T08:26:48.000Z</time>
      </trkpt>
      <trkpt lat="40.1419687829911708831787109375" lon="-1.48600087501108646392822265625">
        <ele>1252.199951171875</ele>
        <time>2022-08-26T08:26:56.000Z</time>
      </trkpt>
      <trkpt lat="40.1420479081571102142333984375" lon="-1.485904566943645477294921875">
        <ele>1252.199951171875</ele>
        <time>2022-08-26T08:26:58.000Z</time>
      </trkpt>
      <trkpt lat="40.14233180321753025054931640625" lon="-1.48546979762613773345947265625">
        <ele>1253</ele>
        <time>2022-08-26T08:27:07.000Z</time>
      </trkpt>
      <trkpt lat="40.1426014490425586700439453125" lon="-1.48506662808358669281005859375">
        <ele>1253.4000244140625</ele>
        <time>2022-08-26T08:27:16.000Z</time>
      </trkpt>
      <trkpt lat="40.14271653257310390472412109375" lon="-1.484900414943695068359375">
        <ele>1253.5999755859375</ele>
        <time>2022-08-26T08:27:20.000Z</time>
      </trkpt>
      <trkpt lat="40.14296899549663066864013671875" lon="-1.48452113382518291473388671875">
        <ele>1254.199951171875</ele>
        <time>2022-08-26T08:27:29.000Z</time>
      </trkpt>
      <trkpt lat="40.1430872641503810882568359375" lon="-1.48435232229530811309814453125">
        <ele>1254.4000244140625</ele>
        <time>2022-08-26T08:27:33.000Z</time>
      </trkpt>
      <trkpt lat="40.14326990582048892974853515625" lon="-1.48413573391735553741455078125">
        <ele>1255</ele>
        <time>2022-08-26T08:27:39.000Z</time>
      </trkpt>
      <trkpt lat="40.14337233267724514007568359375" lon="-1.48399072699248790740966796875">
        <ele>1255.4000244140625</ele>
        <time>2022-08-26T08:27:43.000Z</time>
      </trkpt>
      <trkpt lat="40.1435546390712261199951171875" lon="-1.483722589910030364990234375">
        <ele>1256.800048828125</ele>
        <time>2022-08-26T08:27:50.000Z</time>
      </trkpt>
      <trkpt lat="40.14360903762280941009521484375" lon="-1.4836375974118709564208984375">
        <ele>1257.199951171875</ele>
        <time>2022-08-26T08:27:52.000Z</time>
      </trkpt>
      <trkpt lat="40.14366569928824901580810546875" lon="-1.483556292951107025146484375">
        <ele>1257.800048828125</ele>
        <time>2022-08-26T08:27:54.000Z</time>
      </trkpt>
      <trkpt lat="40.1438765041530132293701171875" lon="-1.48327893577516078948974609375">
        <ele>1258.800048828125</ele>
        <time>2022-08-26T08:28:01.000Z</time>
      </trkpt>
      <trkpt lat="40.144140534102916717529296875" lon="-1.482970230281352996826171875">
        <ele>1260</ele>
        <time>2022-08-26T08:28:10.000Z</time>
      </trkpt>
      <trkpt lat="40.14442727901041507720947265625" lon="-1.48272925056517124176025390625">
        <ele>1260.199951171875</ele>
        <time>2022-08-26T08:28:19.000Z</time>
      </trkpt>
      <trkpt lat="40.14471125788986682891845703125" lon="-1.48245885036885738372802734375">
        <ele>1260.199951171875</ele>
        <time>2022-08-26T08:28:28.000Z</time>
      </trkpt>
      <trkpt lat="40.145051814615726470947265625" lon="-1.4820926450192928314208984375">
        <ele>1260.199951171875</ele>
        <time>2022-08-26T08:28:38.000Z</time>
      </trkpt>
      <trkpt lat="40.1454583369195461273193359375" lon="-1.48173876106739044189453125">
        <ele>1260.4000244140625</ele>
        <time>2022-08-26T08:28:48.000Z</time>
      </trkpt>
      <trkpt lat="40.14578799717128276824951171875" lon="-1.4814673550426959991455078125">
        <ele>1260.800048828125</ele>
        <time>2022-08-26T08:28:57.000Z</time>
      </trkpt>
      <trkpt lat="40.14596167020499706268310546875" lon="-1.4813174866139888763427734375">
        <ele>1261.199951171875</ele>
        <time>2022-08-26T08:29:03.000Z</time>
      </trkpt>
      <trkpt lat="40.14606200158596038818359375" lon="-1.481246240437030792236328125">
        <ele>1261.5999755859375</ele>
        <time>2022-08-26T08:29:06.000Z</time>
      </trkpt>
      <trkpt lat="40.14627791941165924072265625" lon="-1.4811438135802745819091796875">
        <ele>1262.4000244140625</ele>
        <time>2022-08-26T08:29:11.000Z</time>
      </trkpt>
      <trkpt lat="40.14638478867709636688232421875" lon="-1.48110936395823955535888671875">
        <ele>1262.800048828125</ele>
        <time>2022-08-26T08:29:13.000Z</time>
      </trkpt>
      <trkpt lat="40.1464815996587276458740234375" lon="-1.481071226298809051513671875">
        <ele>1263.4000244140625</ele>
        <time>2022-08-26T08:29:15.000Z</time>
      </trkpt>
      <trkpt lat="40.14690153300762176513671875" lon="-1.480957232415676116943359375">
        <ele>1264.199951171875</ele>
        <time>2022-08-26T08:29:24.000Z</time>
      </trkpt>
      <trkpt lat="40.14732507057487964630126953125" lon="-1.48085036315023899078369140625">
        <ele>1264.199951171875</ele>
        <time>2022-08-26T08:29:33.000Z</time>
      </trkpt>
      <trkpt lat="40.14773192815482616424560546875" lon="-1.48067769594490528106689453125">
        <ele>1264.4000244140625</ele>
        <time>2022-08-26T08:29:42.000Z</time>
      </trkpt>
      <trkpt lat="40.1479782722890377044677734375" lon="-1.48049346171319484710693359375">
        <ele>1264.4000244140625</ele>
        <time>2022-08-26T08:29:48.000Z</time>
      </trkpt>
      <trkpt lat="40.14809352345764636993408203125" lon="-1.4803948067128658294677734375">
        <ele>1264.4000244140625</ele>
        <time>2022-08-26T08:29:51.000Z</time>
      </trkpt>
      <trkpt lat="40.14837733469903469085693359375" lon="-1.480186097323894500732421875">
        <ele>1264.800048828125</ele>
        <time>2022-08-26T08:29:59.000Z</time>
      </trkpt>
      <trkpt lat="40.1486008800566196441650390625" lon="-1.47999675013124942779541015625">
        <ele>1265.5999755859375</ele>
        <time>2022-08-26T08:30:06.000Z</time>
      </trkpt>
      <trkpt lat="40.14868847094476222991943359375" lon="-1.47992231883108615875244140625">
        <ele>1266.199951171875</ele>
        <time>2022-08-26T08:30:09.000Z</time>
      </trkpt>
      <trkpt lat="40.14880984090268611907958984375" lon="-1.47982173599302768707275390625">
        <ele>1266.5999755859375</ele>
        <time>2022-08-26T08:30:13.000Z</time>
      </trkpt>
      <trkpt lat="40.149060375988483428955078125" lon="-1.47965879179537296295166015625">
        <ele>1267.800048828125</ele>
        <time>2022-08-26T08:30:20.000Z</time>
      </trkpt>
      <trkpt lat="40.14927470125257968902587890625" lon="-1.47955007851123809814453125">
        <ele>1268.800048828125</ele>
        <time>2022-08-26T08:30:26.000Z</time>
      </trkpt>
      <trkpt lat="40.149447955191135406494140625" lon="-1.47944890893995761871337890625">
        <ele>1269.4000244140625</ele>
        <time>2022-08-26T08:30:31.000Z</time>
      </trkpt>
      <trkpt lat="40.14954862184822559356689453125" lon="-1.479397527873516082763671875">
        <ele>1270</ele>
        <time>2022-08-26T08:30:34.000Z</time>
      </trkpt>
      <trkpt lat="40.14983377419412136077880859375" lon="-1.47924589924514293670654296875">
        <ele>1270.800048828125</ele>
        <time>2022-08-26T08:30:42.000Z</time>
      </trkpt>
      <trkpt lat="40.14987207949161529541015625" lon="-1.4792230166494846343994140625">
        <ele>1271</ele>
        <time>2022-08-26T08:30:43.000Z</time>
      </trkpt>
      <trkpt lat="40.1501153223216533660888671875" lon="-1.47909033112227916717529296875">
        <ele>1272.199951171875</ele>
        <time>2022-08-26T08:30:49.000Z</time>
      </trkpt>
      <trkpt lat="40.15015966258943080902099609375" lon="-1.47906820289790630340576171875">
        <ele>1272.4000244140625</ele>
        <time>2022-08-26T08:30:50.000Z</time>
      </trkpt>
      <trkpt lat="40.15053232200443744659423828125" lon="-1.47888162173330783843994140625">
        <ele>1272.5999755859375</ele>
        <time>2022-08-26T08:30:59.000Z</time>
      </trkpt>
      <trkpt lat="40.15096868388354778289794921875" lon="-1.47863410413265228271484375">
        <ele>1272.5999755859375</ele>
        <time>2022-08-26T08:31:09.000Z</time>
      </trkpt>
      <trkpt lat="40.15125081874430179595947265625" lon="-1.4785011671483516693115234375">
        <ele>1272.5999755859375</ele>
        <time>2022-08-26T08:31:16.000Z</time>
      </trkpt>
      <trkpt lat="40.1515885256230831146240234375" lon="-1.47827602922916412353515625">
        <ele>1272.5999755859375</ele>
        <time>2022-08-26T08:31:24.000Z</time>
      </trkpt>
      <trkpt lat="40.1519868336617946624755859375" lon="-1.4779959060251712799072265625">
        <ele>1272.5999755859375</ele>
        <time>2022-08-26T08:31:33.000Z</time>
      </trkpt>
      <trkpt lat="40.15237013809382915496826171875" lon="-1.47770815528929233551025390625">
        <ele>1272.800048828125</ele>
        <time>2022-08-26T08:31:42.000Z</time>
      </trkpt>
      <trkpt lat="40.15270943753421306610107421875" lon="-1.47747983224689960479736328125">
        <ele>1273</ele>
        <time>2022-08-26T08:31:50.000Z</time>
      </trkpt>
      <trkpt lat="40.1529417000710964202880859375" lon="-1.47734262049198150634765625">
        <ele>1273.4000244140625</ele>
        <time>2022-08-26T08:31:55.000Z</time>
      </trkpt>
      <trkpt lat="40.153174884617328643798828125" lon="-1.47718302905559539794921875">
        <ele>1273.5999755859375</ele>
        <time>2022-08-26T08:32:00.000Z</time>
      </trkpt>
      <trkpt lat="40.15360127203166484832763671875" lon="-1.47683811374008655548095703125">
        <ele>1274.199951171875</ele>
        <time>2022-08-26T08:32:10.000Z</time>
      </trkpt>
      <trkpt lat="40.15385507605969905853271484375" lon="-1.47652815096080303192138671875">
        <ele>1274.4000244140625</ele>
        <time>2022-08-26T08:32:17.000Z</time>
      </trkpt>
      <trkpt lat="40.15388927422463893890380859375" lon="-1.476479955017566680908203125">
        <ele>1274.4000244140625</ele>
        <time>2022-08-26T08:32:18.000Z</time>
      </trkpt>
      <trkpt lat="40.15426151454448699951171875" lon="-1.47601467557251453399658203125">
        <ele>1275.4000244140625</ele>
        <time>2022-08-26T08:32:28.000Z</time>
      </trkpt>
      <trkpt lat="40.1543465070426464080810546875" lon="-1.475922055542469024658203125">
        <ele>1275.5999755859375</ele>
        <time>2022-08-26T08:32:30.000Z</time>
      </trkpt>
      <trkpt lat="40.15459653921425342559814453125" lon="-1.47561167366802692413330078125">
        <ele>1275.800048828125</ele>
        <time>2022-08-26T08:32:36.000Z</time>
      </trkpt>
      <trkpt lat="40.15488445758819580078125" lon="-1.47525108419358730316162109375">
        <ele>1276.4000244140625</ele>
        <time>2022-08-26T08:32:44.000Z</time>
      </trkpt>
      <trkpt lat="40.15490549616515636444091796875" lon="-1.47522325627505779266357421875">
        <ele>1276.5999755859375</ele>
        <time>2022-08-26T08:32:45.000Z</time>
      </trkpt>
      <trkpt lat="40.1548852957785129547119140625" lon="-1.47520397789776325225830078125">
        <ele>1276.800048828125</ele>
        <time>2022-08-26T08:32:48.000Z</time>
      </trkpt>
      <trkpt lat="40.15484363771975040435791015625" lon="-1.4752412773668766021728515625">
        <ele>1277</ele>
        <time>2022-08-26T08:32:55.000Z</time>
      </trkpt>
      <trkpt lat="40.15497892163693904876708984375" lon="-1.4751262776553630828857421875">
        <ele>1276.800048828125</ele>
        <time>2022-08-26T08:36:17.000Z</time>
      </trkpt>
      <trkpt lat="40.1549935899674892425537109375" lon="-1.47510943002998828887939453125">
        <ele>1276.800048828125</ele>
        <time>2022-08-26T08:36:18.000Z</time>
      </trkpt>
      <trkpt lat="40.1551313884556293487548828125" lon="-1.47494195960462093353271484375">
        <ele>1277.199951171875</ele>
        <time>2022-08-26T08:36:25.000Z</time>
      </trkpt>
      <trkpt lat="40.15521981753408908843994140625" lon="-1.47485260851681232452392578125">
        <ele>1277.5999755859375</ele>
        <time>2022-08-26T08:36:29.000Z</time>
      </trkpt>
      <trkpt lat="40.15530648641288280487060546875" lon="-1.474771387875080108642578125">
        <ele>1277.800048828125</ele>
        <time>2022-08-26T08:36:33.000Z</time>
      </trkpt>
      <trkpt lat="40.1554857753217220306396484375" lon="-1.4746367745101451873779296875">
        <ele>1278.4000244140625</ele>
        <time>2022-08-26T08:36:42.000Z</time>
      </trkpt>
      <trkpt lat="40.155661292374134063720703125" lon="-1.47447827272117137908935546875">
        <ele>1278.5999755859375</ele>
        <time>2022-08-26T08:36:51.000Z</time>
      </trkpt>
      <trkpt lat="40.15587888658046722412109375" lon="-1.474335193634033203125">
        <ele>1279.5999755859375</ele>
        <time>2022-08-26T08:36:58.000Z</time>
      </trkpt>
      <trkpt lat="40.15617468394339084625244140625" lon="-1.47413126192986965179443359375">
        <ele>1280.199951171875</ele>
        <time>2022-08-26T08:37:08.000Z</time>
      </trkpt>
      <trkpt lat="40.15643988735973834991455078125" lon="-1.4739538170397281646728515625">
        <ele>1280.4000244140625</ele>
        <time>2022-08-26T08:37:16.000Z</time>
      </trkpt>
      <trkpt lat="40.15647643245756626129150390625" lon="-1.47393009625375270843505859375">
        <ele>1280.5999755859375</ele>
        <time>2022-08-26T08:37:17.000Z</time>
      </trkpt>
      <trkpt lat="40.15676192007958889007568359375" lon="-1.4737539924681186676025390625">
        <ele>1281.4000244140625</ele>
        <time>2022-08-26T08:37:25.000Z</time>
      </trkpt>
      <trkpt lat="40.15690541826188564300537109375" lon="-1.47367729805409908294677734375">
        <ele>1281.5999755859375</ele>
        <time>2022-08-26T08:37:29.000Z</time>
      </trkpt>
      <trkpt lat="40.1569837890565395355224609375" lon="-1.47364242933690547943115234375">
        <ele>1281.800048828125</ele>
        <time>2022-08-26T08:37:31.000Z</time>
      </trkpt>
      <trkpt lat="40.15731386840343475341796875" lon="-1.473486609756946563720703125">
        <ele>1282.4000244140625</ele>
        <time>2022-08-26T08:37:39.000Z</time>
      </trkpt>
      <trkpt lat="40.15768057666718959808349609375" lon="-1.47332743741571903228759765625">
        <ele>1282.4000244140625</ele>
        <time>2022-08-26T08:37:47.000Z</time>
      </trkpt>
      <trkpt lat="40.15800361521542072296142578125" lon="-1.473170109093189239501953125">
        <ele>1282.5999755859375</ele>
        <time>2022-08-26T08:37:54.000Z</time>
      </trkpt>
      <trkpt lat="40.15836588107049465179443359375" lon="-1.47300682961940765380859375">
        <ele>1282.800048828125</ele>
        <time>2022-08-26T08:38:02.000Z</time>
      </trkpt>
      <trkpt lat="40.158411562442779541015625" lon="-1.47298327647149562835693359375">
        <ele>1282.800048828125</ele>
        <time>2022-08-26T08:38:03.000Z</time>
      </trkpt>
      <trkpt lat="40.158755220472812652587890625" lon="-1.47276434116065502166748046875">
        <ele>1283.4000244140625</ele>
        <time>2022-08-26T08:38:11.000Z</time>
      </trkpt>
      <trkpt lat="40.158997960388660430908203125" lon="-1.472502239048480987548828125">
        <ele>1283.800048828125</ele>
        <time>2022-08-26T08:38:18.000Z</time>
      </trkpt>
      <trkpt lat="40.159028470516204833984375" lon="-1.47246636450290679931640625">
        <ele>1284</ele>
        <time>2022-08-26T08:38:19.000Z</time>
      </trkpt>
      <trkpt lat="40.1592928357422351837158203125" lon="-1.47215665318071842193603515625">
        <ele>1285</ele>
        <time>2022-08-26T08:38:28.000Z</time>
      </trkpt>
      <trkpt lat="40.15932225622236728668212890625" lon="-1.4721232093870639801025390625">
        <ele>1285.199951171875</ele>
        <time>2022-08-26T08:38:29.000Z</time>
      </trkpt>
      <trkpt lat="40.15953415073454380035400390625" lon="-1.47190771065652370452880859375">
        <ele>1286.199951171875</ele>
        <time>2022-08-26T08:38:36.000Z</time>
      </trkpt>
      <trkpt lat="40.15964412130415439605712890625" lon="-1.47179321385920047760009765625">
        <ele>1286.800048828125</ele>
        <time>2022-08-26T08:38:40.000Z</time>
      </trkpt>
      <trkpt lat="40.15973397530615329742431640625" lon="-1.4716940559446811676025390625">
        <ele>1287.199951171875</ele>
        <time>2022-08-26T08:38:43.000Z</time>
      </trkpt>
      <trkpt lat="40.1599027030169963836669921875" lon="-1.47148224525153636932373046875">
        <ele>1288</ele>
        <time>2022-08-26T08:38:49.000Z</time>
      </trkpt>
      <trkpt lat="40.159928016364574432373046875" lon="-1.4714513160288333892822265625">
        <ele>1288.4000244140625</ele>
        <time>2022-08-26T08:38:50.000Z</time>
      </trkpt>
      <trkpt lat="40.16010629944503307342529296875" lon="-1.4712437801063060760498046875">
        <ele>1289.4000244140625</ele>
        <time>2022-08-26T08:38:56.000Z</time>
      </trkpt>
      <trkpt lat="40.16038575209677219390869140625" lon="-1.47097044624388217926025390625">
        <ele>1290.5999755859375</ele>
        <time>2022-08-26T08:39:04.000Z</time>
      </trkpt>
      <trkpt lat="40.160424895584583282470703125" lon="-1.47093188948929309844970703125">
        <ele>1290.800048828125</ele>
        <time>2022-08-26T08:39:05.000Z</time>
      </trkpt>
      <trkpt lat="40.16081674955785274505615234375" lon="-1.470569036900997161865234375">
        <ele>1291</ele>
        <time>2022-08-26T08:39:14.000Z</time>
      </trkpt>
      <trkpt lat="40.1611120440065860748291015625" lon="-1.4702449925243854522705078125">
        <ele>1291.4000244140625</ele>
        <time>2022-08-26T08:39:22.000Z</time>
      </trkpt>
      <trkpt lat="40.16135989688336849212646484375" lon="-1.4699191041290760040283203125">
        <ele>1291.4000244140625</ele>
        <time>2022-08-26T08:39:29.000Z</time>
      </trkpt>
      <trkpt lat="40.16168880276381969451904296875" lon="-1.4693883620202541351318359375">
        <ele>1291.4000244140625</ele>
        <time>2022-08-26T08:39:39.000Z</time>
      </trkpt>
      <trkpt lat="40.161968506872653961181640625" lon="-1.46897605620324611663818359375">
        <ele>1291.5999755859375</ele>
        <time>2022-08-26T08:39:47.000Z</time>
      </trkpt>
      <trkpt lat="40.16223882324993610382080078125" lon="-1.4687020517885684967041015625">
        <ele>1291.800048828125</ele>
        <time>2022-08-26T08:39:54.000Z</time>
      </trkpt>
      <trkpt lat="40.16227520070970058441162109375" lon="-1.4686665125191211700439453125">
        <ele>1292</ele>
        <time>2022-08-26T08:39:55.000Z</time>
      </trkpt>
      <trkpt lat="40.16268658451735973358154296875" lon="-1.46828454919159412384033203125">
        <ele>1292.5999755859375</ele>
        <time>2022-08-26T08:40:06.000Z</time>
      </trkpt>
      <trkpt lat="40.16294650733470916748046875" lon="-1.4680452458560466766357421875">
        <ele>1292.800048828125</ele>
        <time>2022-08-26T08:40:13.000Z</time>
      </trkpt>
      <trkpt lat="40.16313484869897365570068359375" lon="-1.467870734632015228271484375">
        <ele>1293.4000244140625</ele>
        <time>2022-08-26T08:40:18.000Z</time>
      </trkpt>
      <trkpt lat="40.1634418778121471405029296875" lon="-1.46758365444839000701904296875">
        <ele>1293.800048828125</ele>
        <time>2022-08-26T08:40:26.000Z</time>
      </trkpt>
      <trkpt lat="40.16347766853868961334228515625" lon="-1.46754191257059574127197265625">
        <ele>1294</ele>
        <time>2022-08-26T08:40:27.000Z</time>
      </trkpt>
      <trkpt lat="40.16372594051063060760498046875" lon="-1.46716237999498844146728515625">
        <ele>1294.5999755859375</ele>
        <time>2022-08-26T08:40:35.000Z</time>
      </trkpt>
      <trkpt lat="40.163775645196437835693359375" lon="-1.4670598693192005157470703125">
        <ele>1295</ele>
        <time>2022-08-26T08:40:37.000Z</time>
      </trkpt>
      <trkpt lat="40.16393414698541164398193359375" lon="-1.46662677638232707977294921875">
        <ele>1295.800048828125</ele>
        <time>2022-08-26T08:40:45.000Z</time>
      </trkpt>
      <trkpt lat="40.16402785666286945343017578125" lon="-1.46638236008584499359130859375">
        <ele>1296</ele>
        <time>2022-08-26T08:40:50.000Z</time>
      </trkpt>
      <trkpt lat="40.164119638502597808837890625" lon="-1.46615789271891117095947265625">
        <ele>1296.5999755859375</ele>
        <time>2022-08-26T08:40:55.000Z</time>
      </trkpt>
      <trkpt lat="40.16425383277237415313720703125" lon="-1.46580803208053112030029296875">
        <ele>1297.199951171875</ele>
        <time>2022-08-26T08:41:02.000Z</time>
      </trkpt>
      <trkpt lat="40.16434687189757823944091796875" lon="-1.46557702682912349700927734375">
        <ele>1297.5999755859375</ele>
        <time>2022-08-26T08:41:07.000Z</time>
      </trkpt>
      <trkpt lat="40.16448148526251316070556640625" lon="-1.46525130607187747955322265625">
        <ele>1298.199951171875</ele>
        <time>2022-08-26T08:41:14.000Z</time>
      </trkpt>
      <trkpt lat="40.1645140908658504486083984375" lon="-1.46515541709959506988525390625">
        <ele>1298.5999755859375</ele>
        <time>2022-08-26T08:41:16.000Z</time>
      </trkpt>
      <trkpt lat="40.1646076329052448272705078125" lon="-1.4648661576211452484130859375">
        <ele>1299.4000244140625</ele>
        <time>2022-08-26T08:41:22.000Z</time>
      </trkpt>
      <trkpt lat="40.164690278470516204833984375" lon="-1.46463054232299327850341796875">
        <ele>1300</ele>
        <time>2022-08-26T08:41:27.000Z</time>
      </trkpt>
      <trkpt lat="40.164820365607738494873046875" lon="-1.4642539434134960174560546875">
        <ele>1300.4000244140625</ele>
        <time>2022-08-26T08:41:35.000Z</time>
      </trkpt>
      <trkpt lat="40.16490728594362735748291015625" lon="-1.46401665173470973968505859375">
        <ele>1300.5999755859375</ele>
        <time>2022-08-26T08:41:40.000Z</time>
      </trkpt>
      <trkpt lat="40.165063440799713134765625" lon="-1.4635723270475864410400390625">
        <ele>1301.5999755859375</ele>
        <time>2022-08-26T08:41:49.000Z</time>
      </trkpt>
      <trkpt lat="40.1651289872825145721435546875" lon="-1.4633761905133724212646484375">
        <ele>1301.800048828125</ele>
        <time>2022-08-26T08:41:53.000Z</time>
      </trkpt>
      <trkpt lat="40.16531297005712985992431640625" lon="-1.4628722704946994781494140625">
        <ele>1302.5999755859375</ele>
        <time>2022-08-26T08:42:03.000Z</time>
      </trkpt>
      <trkpt lat="40.1653304882347583770751953125" lon="-1.4628199674189090728759765625">
        <ele>1302.5999755859375</ele>
        <time>2022-08-26T08:42:04.000Z</time>
      </trkpt>
      <trkpt lat="40.1655041612684726715087890625" lon="-1.46226860582828521728515625">
        <ele>1303.5999755859375</ele>
        <time>2022-08-26T08:42:15.000Z</time>
      </trkpt>
      <trkpt lat="40.165539868175983428955078125" lon="-1.4621755667030811309814453125">
        <ele>1303.800048828125</ele>
        <time>2022-08-26T08:42:17.000Z</time>
      </trkpt>
      <trkpt lat="40.165691077709197998046875" lon="-1.46172344684600830078125">
        <ele>1304.5999755859375</ele>
        <time>2022-08-26T08:42:26.000Z</time>
      </trkpt>
      <trkpt lat="40.165750086307525634765625" lon="-1.46152923814952373504638671875">
        <ele>1305</ele>
        <time>2022-08-26T08:42:30.000Z</time>
      </trkpt>
      <trkpt lat="40.16582376323640346527099609375" lon="-1.46129823289811611175537109375">
        <ele>1305.5999755859375</ele>
        <time>2022-08-26T08:42:35.000Z</time>
      </trkpt>
      <trkpt lat="40.1659188978374004364013671875" lon="-1.46102540194988250732421875">
        <ele>1306</ele>
        <time>2022-08-26T08:42:41.000Z</time>
      </trkpt>
      <trkpt lat="40.16601067967712879180908203125" lon="-1.46076950244605541229248046875">
        <ele>1306.800048828125</ele>
        <time>2022-08-26T08:42:47.000Z</time>
      </trkpt>
      <trkpt lat="40.1660476438701152801513671875" lon="-1.46063757129013538360595703125">
        <ele>1307</ele>
        <time>2022-08-26T08:42:50.000Z</time>
      </trkpt>
      <trkpt lat="40.166131965816020965576171875" lon="-1.46031989715993404388427734375">
        <ele>1307.199951171875</ele>
        <time>2022-08-26T08:42:58.000Z</time>
      </trkpt>
      <trkpt lat="40.166206397116184234619140625" lon="-1.46007548086345195770263671875">
        <ele>1307.800048828125</ele>
        <time>2022-08-26T08:43:04.000Z</time>
      </trkpt>
      <trkpt lat="40.16622743569314479827880859375" lon="-1.45994438789784908294677734375">
        <ele>1307.800048828125</ele>
        <time>2022-08-26T08:43:07.000Z</time>
      </trkpt>
      <trkpt lat="40.16624470241367816925048828125" lon="-1.45957927219569683074951171875">
        <ele>1308.199951171875</ele>
        <time>2022-08-26T08:43:15.000Z</time>
      </trkpt>
      <trkpt lat="40.16625761054456233978271484375" lon="-1.45930853672325611114501953125">
        <ele>1308.800048828125</ele>
        <time>2022-08-26T08:43:21.000Z</time>
      </trkpt>
      <trkpt lat="40.166270770132541656494140625" lon="-1.45913871936500072479248046875">
        <ele>1308.800048828125</ele>
        <time>2022-08-26T08:43:25.000Z</time>
      </trkpt>
      <trkpt lat="40.16631745733320713043212890625" lon="-1.45892665721476078033447265625">
        <ele>1309.5999755859375</ele>
        <time>2022-08-26T08:43:30.000Z</time>
      </trkpt>
      <trkpt lat="40.166353248059749603271484375" lon="-1.458810903131961822509765625">
        <ele>1310</ele>
        <time>2022-08-26T08:43:33.000Z</time>
      </trkpt>
      <trkpt lat="40.166383422911167144775390625" lon="-1.45861384458839893341064453125">
        <ele>1310.5999755859375</ele>
        <time>2022-08-26T08:43:38.000Z</time>
      </trkpt>
      <trkpt lat="40.16639322973787784576416015625" lon="-1.45852533169090747833251953125">
        <ele>1310.800048828125</ele>
        <time>2022-08-26T08:43:40.000Z</time>
      </trkpt>
      <trkpt lat="40.16639993526041507720947265625" lon="-1.4582474716007709503173828125">
        <ele>1311.4000244140625</ele>
        <time>2022-08-26T08:43:46.000Z</time>
      </trkpt>
      <trkpt lat="40.16641317866742610931396484375" lon="-1.4581596292555332183837890625">
        <ele>1311.5999755859375</ele>
        <time>2022-08-26T08:43:48.000Z</time>
      </trkpt>
      <trkpt lat="40.16649481840431690216064453125" lon="-1.45782150328159332275390625">
        <ele>1312.4000244140625</ele>
        <time>2022-08-26T08:43:56.000Z</time>
      </trkpt>
      <trkpt lat="40.1666025258600711822509765625" lon="-1.45749335177242755889892578125">
        <ele>1313.5999755859375</ele>
        <time>2022-08-26T08:44:04.000Z</time>
      </trkpt>
      <trkpt lat="40.16678986139595508575439453125" lon="-1.4572825469076633453369140625">
        <ele>1314.4000244140625</ele>
        <time>2022-08-26T08:44:11.000Z</time>
      </trkpt>
      <trkpt lat="40.166855156421661376953125" lon="-1.45723870955407619476318359375">
        <ele>1314.5999755859375</ele>
        <time>2022-08-26T08:44:13.000Z</time>
      </trkpt>
      <trkpt lat="40.1670776121318340301513671875" lon="-1.4571289904415607452392578125">
        <ele>1315</ele>
        <time>2022-08-26T08:44:19.000Z</time>
      </trkpt>
      <trkpt lat="40.1672258041799068450927734375" lon="-1.45705816335976123809814453125">
        <ele>1315.4000244140625</ele>
        <time>2022-08-26T08:44:23.000Z</time>
      </trkpt>
      <trkpt lat="40.16732865013182163238525390625" lon="-1.4569911919534206390380859375">
        <ele>1315.5999755859375</ele>
        <time>2022-08-26T08:44:26.000Z</time>
      </trkpt>
      <trkpt lat="40.16753400675952434539794921875" lon="-1.45680360496044158935546875">
        <ele>1316.199951171875</ele>
        <time>2022-08-26T08:44:33.000Z</time>
      </trkpt>
      <trkpt lat="40.16763509251177310943603515625" lon="-1.4566849172115325927734375">
        <ele>1316.4000244140625</ele>
        <time>2022-08-26T08:44:37.000Z</time>
      </trkpt>
      <trkpt lat="40.167719833552837371826171875" lon="-1.45655759610235691070556640625">
        <ele>1316.5999755859375</ele>
        <time>2022-08-26T08:44:41.000Z</time>
      </trkpt>
      <trkpt lat="40.167872048914432525634765625" lon="-1.45636984147131443023681640625">
        <ele>1317.4000244140625</ele>
        <time>2022-08-26T08:44:47.000Z</time>
      </trkpt>
      <trkpt lat="40.167959220707416534423828125" lon="-1.4562757126986980438232421875">
        <ele>1317.4000244140625</ele>
        <time>2022-08-26T08:44:50.000Z</time>
      </trkpt>
      <trkpt lat="40.16818888485431671142578125" lon="-1.45594487898051738739013671875">
        <ele>1318</ele>
        <time>2022-08-26T08:44:59.000Z</time>
      </trkpt>
      <trkpt lat="40.1683022081851959228515625" lon="-1.455739773809909820556640625">
        <ele>1318.4000244140625</ele>
        <time>2022-08-26T08:45:04.000Z</time>
      </trkpt>
      <trkpt lat="40.1683929003775119781494140625" lon="-1.4555578865110874176025390625">
        <ele>1318.5999755859375</ele>
        <time>2022-08-26T08:45:08.000Z</time>
      </trkpt>
      <trkpt lat="40.16854888759553432464599609375" lon="-1.455096714198589324951171875">
        <ele>1318.800048828125</ele>
        <time>2022-08-26T08:45:17.000Z</time>
      </trkpt>
      <trkpt lat="40.168620385229587554931640625" lon="-1.45459690131247043609619140625">
        <ele>1318.800048828125</ele>
        <time>2022-08-26T08:45:26.000Z</time>
      </trkpt>
      <trkpt lat="40.16866053454577922821044921875" lon="-1.45419188775122165679931640625">
        <ele>1319.199951171875</ele>
        <time>2022-08-26T08:45:34.000Z</time>
      </trkpt>
      <trkpt lat="40.16866187565028667449951171875" lon="-1.45415115170180797576904296875">
        <ele>1319.4000244140625</ele>
        <time>2022-08-26T08:45:35.000Z</time>
      </trkpt>
      <trkpt lat="40.1686906255781650543212890625" lon="-1.45380682311952114105224609375">
        <ele>1320.4000244140625</ele>
        <time>2022-08-26T08:45:44.000Z</time>
      </trkpt>
      <trkpt lat="40.16871619038283824920654296875" lon="-1.4536106027662754058837890625">
        <ele>1321.5999755859375</ele>
        <time>2022-08-26T08:45:50.000Z</time>
      </trkpt>
      <trkpt lat="40.16872842796146869659423828125" lon="-1.453543715178966522216796875">
        <ele>1321.800048828125</ele>
        <time>2022-08-26T08:45:52.000Z</time>
      </trkpt>
      <trkpt lat="40.1687643863260746002197265625" lon="-1.45342242904007434844970703125">
        <ele>1322.5999755859375</ele>
        <time>2022-08-26T08:45:56.000Z</time>
      </trkpt>
      <trkpt lat="40.16878844238817691802978515625" lon="-1.45330105908215045928955078125">
        <ele>1323</ele>
        <time>2022-08-26T08:45:59.000Z</time>
      </trkpt>
      <trkpt lat="40.168822892010211944580078125" lon="-1.4532129652798175811767578125">
        <ele>1323.4000244140625</ele>
        <time>2022-08-26T08:46:01.000Z</time>
      </trkpt>
      <trkpt lat="40.16886505298316478729248046875" lon="-1.45312923006713390350341796875">
        <ele>1323.800048828125</ele>
        <time>2022-08-26T08:46:03.000Z</time>
      </trkpt>
      <trkpt lat="40.1689152605831623077392578125" lon="-1.453036107122898101806640625">
        <ele>1324.4000244140625</ele>
        <time>2022-08-26T08:46:06.000Z</time>
      </trkpt>
      <trkpt lat="40.1689561642706394195556640625" lon="-1.45293510518968105316162109375">
        <ele>1324.800048828125</ele>
        <time>2022-08-26T08:46:09.000Z</time>
      </trkpt>
      <trkpt lat="40.16898122616112232208251953125" lon="-1.45290727727115154266357421875">
        <ele>1325</ele>
        <time>2022-08-26T08:46:10.000Z</time>
      </trkpt>
      <trkpt lat="40.1690604351460933685302734375" lon="-1.45284726284444332122802734375">
        <ele>1325.4000244140625</ele>
        <time>2022-08-26T08:46:13.000Z</time>
      </trkpt>
      <trkpt lat="40.1691251434385776519775390625" lon="-1.45282228477299213409423828125">
        <ele>1325.5999755859375</ele>
        <time>2022-08-26T08:46:15.000Z</time>
      </trkpt>
      <trkpt lat="40.16924567520618438720703125" lon="-1.45277400501072406768798828125">
        <ele>1326</ele>
        <time>2022-08-26T08:46:18.000Z</time>
      </trkpt>
      <trkpt lat="40.169324465095996856689453125" lon="-1.45273712463676929473876953125">
        <ele>1326</ele>
        <time>2022-08-26T08:46:20.000Z</time>
      </trkpt>
      <trkpt lat="40.16962026245892047882080078125" lon="-1.45261223427951335906982421875">
        <ele>1326.199951171875</ele>
        <time>2022-08-26T08:46:28.000Z</time>
      </trkpt>
      <trkpt lat="40.16981237567961215972900390625" lon="-1.45243369974195957183837890625">
        <ele>1326</ele>
        <time>2022-08-26T08:46:34.000Z</time>
      </trkpt>
      <trkpt lat="40.1699821092188358306884765625" lon="-1.45221727900207042694091796875">
        <ele>1325.800048828125</ele>
        <time>2022-08-26T08:46:40.000Z</time>
      </trkpt>
      <trkpt lat="40.17003114335238933563232421875" lon="-1.45211108028888702392578125">
        <ele>1325.800048828125</ele>
        <time>2022-08-26T08:46:42.000Z</time>
      </trkpt>
      <trkpt lat="40.17021252773702144622802734375" lon="-1.45162828266620635986328125">
        <ele>1326</ele>
        <time>2022-08-26T08:46:51.000Z</time>
      </trkpt>
      <trkpt lat="40.17035049386322498321533203125" lon="-1.4512817747890949249267578125">
        <ele>1326.199951171875</ele>
        <time>2022-08-26T08:46:59.000Z</time>
      </trkpt>
      <trkpt lat="40.17038167454302310943603515625" lon="-1.45117423497140407562255859375">
        <ele>1326.5999755859375</ele>
        <time>2022-08-26T08:47:04.000Z</time>
      </trkpt>
      <trkpt lat="40.17038620077073574066162109375" lon="-1.4511791802942752838134765625">
        <ele>1327</ele>
        <time>2022-08-26T08:47:08.000Z</time>
      </trkpt>
      <trkpt lat="40.17043665982782840728759765625" lon="-1.4510739035904407501220703125">
        <ele>1327</ele>
        <time>2022-08-26T08:47:47.000Z</time>
      </trkpt>
      <trkpt lat="40.170453004539012908935546875" lon="-1.45104683004319667816162109375">
        <ele>1327</ele>
        <time>2022-08-26T08:47:48.000Z</time>
      </trkpt>
      <trkpt lat="40.17057915218174457550048828125" lon="-1.4508325047791004180908203125">
        <ele>1327.5999755859375</ele>
        <time>2022-08-26T08:47:56.000Z</time>
      </trkpt>
      <trkpt lat="40.17064101062715053558349609375" lon="-1.45070250146090984344482421875">
        <ele>1328</ele>
        <time>2022-08-26T08:48:00.000Z</time>
      </trkpt>
      <trkpt lat="40.17070773057639598846435546875" lon="-1.45055380649864673614501953125">
        <ele>1328.5999755859375</ele>
        <time>2022-08-26T08:48:05.000Z</time>
      </trkpt>
      <trkpt lat="40.1707810722291469573974609375" lon="-1.45035146735608577728271484375">
        <ele>1329.199951171875</ele>
        <time>2022-08-26T08:48:12.000Z</time>
      </trkpt>
      <trkpt lat="40.17079104669392108917236328125" lon="-1.4503195323050022125244140625">
        <ele>1329.4000244140625</ele>
        <time>2022-08-26T08:48:13.000Z</time>
      </trkpt>
      <trkpt lat="40.1708742789924144744873046875" lon="-1.450100429356098175048828125">
        <ele>1330</ele>
        <time>2022-08-26T08:48:19.000Z</time>
      </trkpt>
      <trkpt lat="40.17092415131628513336181640625" lon="-1.449960954487323760986328125">
        <ele>1330.199951171875</ele>
        <time>2022-08-26T08:48:23.000Z</time>
      </trkpt>
      <trkpt lat="40.17099372111260890960693359375" lon="-1.44979658536612987518310546875">
        <ele>1330.5999755859375</ele>
        <time>2022-08-26T08:48:28.000Z</time>
      </trkpt>
      <trkpt lat="40.17110201530158519744873046875" lon="-1.449539847671985626220703125">
        <ele>1331.199951171875</ele>
        <time>2022-08-26T08:48:36.000Z</time>
      </trkpt>
      <trkpt lat="40.1711461879312992095947265625" lon="-1.4494424499571323394775390625">
        <ele>1331.4000244140625</ele>
        <time>2022-08-26T08:48:39.000Z</time>
      </trkpt>
      <trkpt lat="40.1712258160114288330078125" lon="-1.44925109110772609710693359375">
        <ele>1332.199951171875</ele>
        <time>2022-08-26T08:48:45.000Z</time>
      </trkpt>
      <trkpt lat="40.17131005413830280303955078125" lon="-1.44906065426766872406005859375">
        <ele>1333</ele>
        <time>2022-08-26T08:48:51.000Z</time>
      </trkpt>
      <trkpt lat="40.17136772163212299346923828125" lon="-1.44893023185431957244873046875">
        <ele>1333.4000244140625</ele>
        <time>2022-08-26T08:48:55.000Z</time>
      </trkpt>
      <trkpt lat="40.17141683958470821380615234375" lon="-1.4488429762423038482666015625">
        <ele>1333.4000244140625</ele>
        <time>2022-08-26T08:48:58.000Z</time>
      </trkpt>
      <trkpt lat="40.1715656183660030364990234375" lon="-1.44862278364598751068115234375">
        <ele>1334.4000244140625</ele>
        <time>2022-08-26T08:49:06.000Z</time>
      </trkpt>
      <trkpt lat="40.17158431001007556915283203125" lon="-1.4486034214496612548828125">
        <ele>1334.5999755859375</ele>
        <time>2022-08-26T08:49:07.000Z</time>
      </trkpt>
      <trkpt lat="40.17173250205814838409423828125" lon="-1.44844491966068744659423828125">
        <ele>1335.4000244140625</ele>
        <time>2022-08-26T08:49:14.000Z</time>
      </trkpt>
      <trkpt lat="40.1717795245349407196044921875" lon="-1.4483990706503391265869140625">
        <ele>1335.800048828125</ele>
        <time>2022-08-26T08:49:16.000Z</time>
      </trkpt>
      <trkpt lat="40.171965099871158599853515625" lon="-1.44822816364467144012451171875">
        <ele>1336.4000244140625</ele>
        <time>2022-08-26T08:49:24.000Z</time>
      </trkpt>
      <trkpt lat="40.1720117032527923583984375" lon="-1.44818700850009918212890625">
        <ele>1336.5999755859375</ele>
        <time>2022-08-26T08:49:26.000Z</time>
      </trkpt>
      <trkpt lat="40.17220524139702320098876953125" lon="-1.44801543094217777252197265625">
        <ele>1337.800048828125</ele>
        <time>2022-08-26T08:49:34.000Z</time>
      </trkpt>
      <trkpt lat="40.17246742732822895050048828125" lon="-1.4478978328406810760498046875">
        <ele>1338.5999755859375</ele>
        <time>2022-08-26T08:49:43.000Z</time>
      </trkpt>
      <trkpt lat="40.17253079451620578765869140625" lon="-1.44788702018558979034423828125">
        <ele>1338.800048828125</ele>
        <time>2022-08-26T08:49:45.000Z</time>
      </trkpt>
      <trkpt lat="40.17268602736294269561767578125" lon="-1.4479182846844196319580078125">
        <ele>1339.4000244140625</ele>
        <time>2022-08-26T08:49:50.000Z</time>
      </trkpt>
      <trkpt lat="40.172939412295818328857421875" lon="-1.44796379841864109039306640625">
        <ele>1339.800048828125</ele>
        <time>2022-08-26T08:49:58.000Z</time>
      </trkpt>
      <trkpt lat="40.17298039980232715606689453125" lon="-1.44796195439994335174560546875">
        <ele>1340</ele>
        <time>2022-08-26T08:49:59.000Z</time>
      </trkpt>
      <trkpt lat="40.173305533826351165771484375" lon="-1.44798324443399906158447265625">
        <ele>1340.800048828125</ele>
        <time>2022-08-26T08:50:08.000Z</time>
      </trkpt>
      <trkpt lat="40.17344777472317218780517578125" lon="-1.4480047859251499176025390625">
        <ele>1341</ele>
        <time>2022-08-26T08:50:12.000Z</time>
      </trkpt>
      <trkpt lat="40.17364407889544963836669921875" lon="-1.44803873263299465179443359375">
        <ele>1341.5999755859375</ele>
        <time>2022-08-26T08:50:18.000Z</time>
      </trkpt>
      <trkpt lat="40.17374030314385890960693359375" lon="-1.448060609400272369384765625">
        <ele>1342.199951171875</ele>
        <time>2022-08-26T08:50:21.000Z</time>
      </trkpt>
      <trkpt lat="40.17396359704434871673583984375" lon="-1.44811131991446018218994140625">
        <ele>1343</ele>
        <time>2022-08-26T08:50:27.000Z</time>
      </trkpt>
      <trkpt lat="40.174043811857700347900390625" lon="-1.448122300207614898681640625">
        <ele>1343.4000244140625</ele>
        <time>2022-08-26T08:50:29.000Z</time>
      </trkpt>
      <trkpt lat="40.17429619096219539642333984375" lon="-1.4481378905475139617919921875">
        <ele>1344.5999755859375</ele>
        <time>2022-08-26T08:50:36.000Z</time>
      </trkpt>
      <trkpt lat="40.17436542548239231109619140625" lon="-1.44814434461295604705810546875">
        <ele>1344.800048828125</ele>
        <time>2022-08-26T08:50:38.000Z</time>
      </trkpt>
      <trkpt lat="40.1746092550456523895263671875" lon="-1.44817602820694446563720703125">
        <ele>1345.5999755859375</ele>
        <time>2022-08-26T08:50:45.000Z</time>
      </trkpt>
      <trkpt lat="40.17471176572144031524658203125" lon="-1.448184661567211151123046875">
        <ele>1346</ele>
        <time>2022-08-26T08:50:48.000Z</time>
      </trkpt>
      <trkpt lat="40.17500345595180988311767578125" lon="-1.44826211035251617431640625">
        <ele>1346.800048828125</ele>
        <time>2022-08-26T08:50:57.000Z</time>
      </trkpt>
      <trkpt lat="40.175302438437938690185546875" lon="-1.4484094642102718353271484375">
        <ele>1347.199951171875</ele>
        <time>2022-08-26T08:51:05.000Z</time>
      </trkpt>
      <trkpt lat="40.1756539754569530487060546875" lon="-1.44855069927871227264404296875">
        <ele>1347.199951171875</ele>
        <time>2022-08-26T08:51:14.000Z</time>
      </trkpt>
      <trkpt lat="40.1758848130702972412109375" lon="-1.448588669300079345703125">
        <ele>1347.4000244140625</ele>
        <time>2022-08-26T08:51:20.000Z</time>
      </trkpt>
      <trkpt lat="40.17616971395909786224365234375" lon="-1.44860819913446903228759765625">
        <ele>1347.5999755859375</ele>
        <time>2022-08-26T08:51:28.000Z</time>
      </trkpt>
      <trkpt lat="40.1762262918055057525634765625" lon="-1.44860434345901012420654296875">
        <ele>1347.800048828125</ele>
        <time>2022-08-26T08:51:30.000Z</time>
      </trkpt>
      <trkpt lat="40.17639518715441226959228515625" lon="-1.44860275089740753173828125">
        <ele>1348.800048828125</ele>
        <time>2022-08-26T08:51:36.000Z</time>
      </trkpt>
      <trkpt lat="40.17645402811467647552490234375" lon="-1.44860115833580493927001953125">
        <ele>1349.199951171875</ele>
        <time>2022-08-26T08:51:38.000Z</time>
      </trkpt>
      <trkpt lat="40.17660121433436870574951171875" lon="-1.448592357337474822998046875">
        <ele>1350</ele>
        <time>2022-08-26T08:51:43.000Z</time>
      </trkpt>
      <trkpt lat="40.17677103169262409210205078125" lon="-1.4486049301922321319580078125">
        <ele>1351</ele>
        <time>2022-08-26T08:51:49.000Z</time>
      </trkpt>
      <trkpt lat="40.176800452172756195068359375" lon="-1.4486059360206127166748046875">
        <ele>1351</ele>
        <time>2022-08-26T08:51:50.000Z</time>
      </trkpt>
      <trkpt lat="40.17702047713100910186767578125" lon="-1.44864222966134548187255859375">
        <ele>1352.199951171875</ele>
        <time>2022-08-26T08:51:57.000Z</time>
      </trkpt>
      <trkpt lat="40.17711871303617954254150390625" lon="-1.44867056049406528472900390625">
        <ele>1352.4000244140625</ele>
        <time>2022-08-26T08:52:00.000Z</time>
      </trkpt>
      <trkpt lat="40.17746262252330780029296875" lon="-1.44875052385032176971435546875">
        <ele>1353</ele>
        <time>2022-08-26T08:52:08.000Z</time>
      </trkpt>
      <trkpt lat="40.1777387224137783050537109375" lon="-1.44883367232978343963623046875">
        <ele>1353</ele>
        <time>2022-08-26T08:52:15.000Z</time>
      </trkpt>
      <trkpt lat="40.17805882729589939117431640625" lon="-1.448781453073024749755859375">
        <ele>1353.199951171875</ele>
        <time>2022-08-26T08:52:22.000Z</time>
      </trkpt>
      <trkpt lat="40.17832436598837375640869140625" lon="-1.4486914314329624176025390625">
        <ele>1353.199951171875</ele>
        <time>2022-08-26T08:52:28.000Z</time>
      </trkpt>
      <trkpt lat="40.17845529131591320037841796875" lon="-1.448633261024951934814453125">
        <ele>1353.4000244140625</ele>
        <time>2022-08-26T08:52:31.000Z</time>
      </trkpt>
      <trkpt lat="40.178898274898529052734375" lon="-1.448481716215610504150390625">
        <ele>1353.5999755859375</ele>
        <time>2022-08-26T08:52:41.000Z</time>
      </trkpt>
      <trkpt lat="40.17929716967046260833740234375" lon="-1.448336541652679443359375">
        <ele>1354</ele>
        <time>2022-08-26T08:52:50.000Z</time>
      </trkpt>
      <trkpt lat="40.17969246022403240203857421875" lon="-1.44819161854684352874755859375">
        <ele>1354.199951171875</ele>
        <time>2022-08-26T08:52:59.000Z</time>
      </trkpt>
      <trkpt lat="40.18007115460932254791259765625" lon="-1.44803018309175968170166015625">
        <ele>1354.4000244140625</ele>
        <time>2022-08-26T08:53:08.000Z</time>
      </trkpt>
      <trkpt lat="40.180504582822322845458984375" lon="-1.4478720165789127349853515625">
        <ele>1354.5999755859375</ele>
        <time>2022-08-26T08:53:18.000Z</time>
      </trkpt>
      <trkpt lat="40.18082284368574619293212890625" lon="-1.44773480482399463653564453125">
        <ele>1355</ele>
        <time>2022-08-26T08:53:27.000Z</time>
      </trkpt>
      <trkpt lat="40.18094203434884548187255859375" lon="-1.447695158421993255615234375">
        <ele>1355.5999755859375</ele>
        <time>2022-08-26T08:53:31.000Z</time>
      </trkpt>
      <trkpt lat="40.1810670085251331329345703125" lon="-1.447656266391277313232421875">
        <ele>1356.199951171875</ele>
        <time>2022-08-26T08:53:35.000Z</time>
      </trkpt>
      <trkpt lat="40.1811902225017547607421875" lon="-1.44761008210480213165283203125">
        <ele>1356.800048828125</ele>
        <time>2022-08-26T08:53:39.000Z</time>
      </trkpt>
      <trkpt lat="40.1813793182373046875" lon="-1.44754956476390361785888671875">
        <ele>1357.4000244140625</ele>
        <time>2022-08-26T08:53:45.000Z</time>
      </trkpt>
      <trkpt lat="40.18153631128370761871337890625" lon="-1.4474924840033054351806640625">
        <ele>1357.800048828125</ele>
        <time>2022-08-26T08:53:50.000Z</time>
      </trkpt>
      <trkpt lat="40.181618370115756988525390625" lon="-1.44746138714253902435302734375">
        <ele>1358</ele>
        <time>2022-08-26T08:53:53.000Z</time>
      </trkpt>
      <trkpt lat="40.18184359185397624969482421875" lon="-1.44740137271583080291748046875">
        <ele>1359</ele>
        <time>2022-08-26T08:54:01.000Z</time>
      </trkpt>
      <trkpt lat="40.18190159462392330169677734375" lon="-1.44738326780498027801513671875">
        <ele>1359.199951171875</ele>
        <time>2022-08-26T08:54:03.000Z</time>
      </trkpt>
      <trkpt lat="40.1821378804743289947509765625" lon="-1.44729961641132831573486328125">
        <ele>1360</ele>
        <time>2022-08-26T08:54:11.000Z</time>
      </trkpt>
      <trkpt lat="40.1822019182145595550537109375" lon="-1.44728167913854122161865234375">
        <ele>1360.4000244140625</ele>
        <time>2022-08-26T08:54:13.000Z</time>
      </trkpt>
      <trkpt lat="40.182374753057956695556640625" lon="-1.4472333155572414398193359375">
        <ele>1361</ele>
        <time>2022-08-26T08:54:19.000Z</time>
      </trkpt>
      <trkpt lat="40.18240802921354770660400390625" lon="-1.44722250290215015411376953125">
        <ele>1361.199951171875</ele>
        <time>2022-08-26T08:54:20.000Z</time>
      </trkpt>
      <trkpt lat="40.1826324127614498138427734375" lon="-1.44714605994522571563720703125">
        <ele>1362.199951171875</ele>
        <time>2022-08-26T08:54:27.000Z</time>
      </trkpt>
      <trkpt lat="40.182664096355438232421875" lon="-1.44713080488145351409912109375">
        <ele>1362.199951171875</ele>
        <time>2022-08-26T08:54:28.000Z</time>
      </trkpt>
      <trkpt lat="40.182874314486980438232421875" lon="-1.44704095087945461273193359375">
        <ele>1363.4000244140625</ele>
        <time>2022-08-26T08:54:35.000Z</time>
      </trkpt>
      <trkpt lat="40.18300666473805904388427734375" lon="-1.44698931835591793060302734375">
        <ele>1364</ele>
        <time>2022-08-26T08:54:39.000Z</time>
      </trkpt>
      <trkpt lat="40.18315200693905353546142578125" lon="-1.44686996005475521087646484375">
        <ele>1364.5999755859375</ele>
        <time>2022-08-26T08:54:44.000Z</time>
      </trkpt>
      <trkpt lat="40.1831911504268646240234375" lon="-1.4468236081302165985107421875">
        <ele>1364.5999755859375</ele>
        <time>2022-08-26T08:54:46.000Z</time>
      </trkpt>
      <trkpt lat="40.18333942629396915435791015625" lon="-1.44671305082738399505615234375">
        <ele>1365.4000244140625</ele>
        <time>2022-08-26T08:54:52.000Z</time>
      </trkpt>
      <trkpt lat="40.18341444432735443115234375" lon="-1.44664566032588481903076171875">
        <ele>1365.4000244140625</ele>
        <time>2022-08-26T08:54:55.000Z</time>
      </trkpt>
      <trkpt lat="40.18363027833402156829833984375" lon="-1.44648405723273754119873046875">
        <ele>1366</ele>
        <time>2022-08-26T08:55:03.000Z</time>
      </trkpt>
      <trkpt lat="40.18392733298242092132568359375" lon="-1.44621801562607288360595703125">
        <ele>1366.4000244140625</ele>
        <time>2022-08-26T08:55:14.000Z</time>
      </trkpt>
      <trkpt lat="40.183952562510967254638671875" lon="-1.446190774440765380859375">
        <ele>1366.4000244140625</ele>
        <time>2022-08-26T08:55:15.000Z</time>
      </trkpt>
      <trkpt lat="40.18420393578708171844482421875" lon="-1.44588005729019641876220703125">
        <ele>1366.800048828125</ele>
        <time>2022-08-26T08:55:25.000Z</time>
      </trkpt>
      <trkpt lat="40.184413902461528778076171875" lon="-1.44555215723812580108642578125">
        <ele>1367</ele>
        <time>2022-08-26T08:55:35.000Z</time>
      </trkpt>
      <trkpt lat="40.184552036225795745849609375" lon="-1.44518888555467128753662109375">
        <ele>1367.4000244140625</ele>
        <time>2022-08-26T08:55:45.000Z</time>
      </trkpt>
      <trkpt lat="40.1846216060221195220947265625" lon="-1.4449383504688739776611328125">
        <ele>1368.199951171875</ele>
        <time>2022-08-26T08:55:53.000Z</time>
      </trkpt>
      <trkpt lat="40.1846400462090969085693359375" lon="-1.44487322308123111724853515625">
        <ele>1368.5999755859375</ele>
        <time>2022-08-26T08:55:55.000Z</time>
      </trkpt>
      <trkpt lat="40.18468522466719150543212890625" lon="-1.44472871907055377960205078125">
        <ele>1369</ele>
        <time>2022-08-26T08:56:00.000Z</time>
      </trkpt>
      <trkpt lat="40.1847200095653533935546875" lon="-1.44461506046354770660400390625">
        <ele>1369.5999755859375</ele>
        <time>2022-08-26T08:56:04.000Z</time>
      </trkpt>
      <trkpt lat="40.18477725796401500701904296875" lon="-1.44444155506789684295654296875">
        <ele>1370.5999755859375</ele>
        <time>2022-08-26T08:56:10.000Z</time>
      </trkpt>
      <trkpt lat="40.18478647805750370025634765625" lon="-1.44441657699644565582275390625">
        <ele>1370.800048828125</ele>
        <time>2022-08-26T08:56:11.000Z</time>
      </trkpt>
      <trkpt lat="40.184826292097568511962890625" lon="-1.44430275075137615203857421875">
        <ele>1371.800048828125</ele>
        <time>2022-08-26T08:56:16.000Z</time>
      </trkpt>
      <trkpt lat="40.18484414555132389068603515625" lon="-1.44422982819378376007080078125">
        <ele>1372.5999755859375</ele>
        <time>2022-08-26T08:56:19.000Z</time>
      </trkpt>
      <trkpt lat="40.18486593849956989288330078125" lon="-1.4441590011119842529296875">
        <ele>1373</ele>
        <time>2022-08-26T08:56:22.000Z</time>
      </trkpt>
      <trkpt lat="40.18489577807486057281494140625" lon="-1.44404173828661441802978515625">
        <ele>1374.199951171875</ele>
        <time>2022-08-26T08:56:27.000Z</time>
      </trkpt>
      <trkpt lat="40.18492813222110271453857421875" lon="-1.44395356066524982452392578125">
        <ele>1375.199951171875</ele>
        <time>2022-08-26T08:56:31.000Z</time>
      </trkpt>
      <trkpt lat="40.1849873922765254974365234375" lon="-1.4438185282051563262939453125">
        <ele>1376.4000244140625</ele>
        <time>2022-08-26T08:56:37.000Z</time>
      </trkpt>
      <trkpt lat="40.184993259608745574951171875" lon="-1.44379891455173492431640625">
        <ele>1376.4000244140625</ele>
        <time>2022-08-26T08:56:38.000Z</time>
      </trkpt>
      <trkpt lat="40.18503139726817607879638671875" lon="-1.4436622895300388336181640625">
        <ele>1377.199951171875</ele>
        <time>2022-08-26T08:56:45.000Z</time>
      </trkpt>
      <trkpt lat="40.18504681997001171112060546875" lon="-1.4436225593090057373046875">
        <ele>1377.5999755859375</ele>
        <time>2022-08-26T08:56:47.000Z</time>
      </trkpt>
      <trkpt lat="40.18507833592593669891357421875" lon="-1.4435496367514133453369140625">
        <ele>1378.4000244140625</ele>
        <time>2022-08-26T08:56:51.000Z</time>
      </trkpt>
      <trkpt lat="40.18513642251491546630859375" lon="-1.443451903760433197021484375">
        <ele>1379.5999755859375</ele>
        <time>2022-08-26T08:56:57.000Z</time>
      </trkpt>
      <trkpt lat="40.18514388240873813629150390625" lon="-1.44343388266861438751220703125">
        <ele>1379.800048828125</ele>
        <time>2022-08-26T08:56:58.000Z</time>
      </trkpt>
      <trkpt lat="40.1852033101022243499755859375" lon="-1.443330533802509307861328125">
        <ele>1380.800048828125</ele>
        <time>2022-08-26T08:57:03.000Z</time>
      </trkpt>
      <trkpt lat="40.1852489076554775238037109375" lon="-1.44326775334775447845458984375">
        <ele>1381.199951171875</ele>
        <time>2022-08-26T08:57:06.000Z</time>
      </trkpt>
      <trkpt lat="40.18528955988585948944091796875" lon="-1.44321620464324951171875">
        <ele>1381.800048828125</ele>
        <time>2022-08-26T08:57:09.000Z</time>
      </trkpt>
      <trkpt lat="40.18536441028118133544921875" lon="-1.4431141130626201629638671875">
        <ele>1382.4000244140625</ele>
        <time>2022-08-26T08:57:15.000Z</time>
      </trkpt>
      <trkpt lat="40.18549659289419651031494140625" lon="-1.44300204701721668243408203125">
        <ele>1383</ele>
        <time>2022-08-26T08:57:23.000Z</time>
      </trkpt>
      <trkpt lat="40.18563992343842983245849609375" lon="-1.44292049109935760498046875">
        <ele>1384</ele>
        <time>2022-08-26T08:57:31.000Z</time>
      </trkpt>
      <trkpt lat="40.18568451516330242156982421875" lon="-1.44288889132440090179443359375">
        <ele>1384.5999755859375</ele>
        <time>2022-08-26T08:57:34.000Z</time>
      </trkpt>
      <trkpt lat="40.18577386625111103057861328125" lon="-1.44283742643892765045166015625">
        <ele>1385</ele>
        <time>2022-08-26T08:57:39.000Z</time>
      </trkpt>
      <trkpt lat="40.18584989011287689208984375" lon="-1.442796774208545684814453125">
        <ele>1385.800048828125</ele>
        <time>2022-08-26T08:57:43.000Z</time>
      </trkpt>
      <trkpt lat="40.185900516808032989501953125" lon="-1.44277690909802913665771484375">
        <ele>1386</ele>
        <time>2022-08-26T08:57:46.000Z</time>
      </trkpt>
      <trkpt lat="40.18602498807013034820556640625" lon="-1.4427298866212368011474609375">
        <ele>1387</ele>
        <time>2022-08-26T08:57:53.000Z</time>
      </trkpt>
      <trkpt lat="40.186093635857105255126953125" lon="-1.44271236844360828399658203125">
        <ele>1387</ele>
        <time>2022-08-26T08:57:56.000Z</time>
      </trkpt>
      <trkpt lat="40.1862178556621074676513671875" lon="-1.442680098116397857666015625">
        <ele>1388</ele>
        <time>2022-08-26T08:58:02.000Z</time>
      </trkpt>
      <trkpt lat="40.18623922951519489288330078125" lon="-1.44267431460320949554443359375">
        <ele>1388.199951171875</ele>
        <time>2022-08-26T08:58:03.000Z</time>
      </trkpt>
      <trkpt lat="40.186261944472789764404296875" lon="-1.44266626797616481781005859375">
        <ele>1388.800048828125</ele>
        <time>2022-08-26T08:58:04.000Z</time>
      </trkpt>
      <trkpt lat="40.186327993869781494140625" lon="-1.442649923264980316162109375">
        <ele>1389.4000244140625</ele>
        <time>2022-08-26T08:58:07.000Z</time>
      </trkpt>
      <trkpt lat="40.18646989949047565460205078125" lon="-1.44261161796748638153076171875">
        <ele>1390.199951171875</ele>
        <time>2022-08-26T08:58:14.000Z</time>
      </trkpt>
      <trkpt lat="40.18648691475391387939453125" lon="-1.44260876812040805816650390625">
        <ele>1390.5999755859375</ele>
        <time>2022-08-26T08:58:15.000Z</time>
      </trkpt>
      <trkpt lat="40.18664918839931488037109375" lon="-1.44260667264461517333984375">
        <ele>1391.4000244140625</ele>
        <time>2022-08-26T08:58:24.000Z</time>
      </trkpt>
      <trkpt lat="40.18668615259230136871337890625" lon="-1.44260843284428119659423828125">
        <ele>1391.800048828125</ele>
        <time>2022-08-26T08:58:26.000Z</time>
      </trkpt>
      <trkpt lat="40.1867569796741008758544921875" lon="-1.442620418965816497802734375">
        <ele>1392.800048828125</ele>
        <time>2022-08-26T08:58:30.000Z</time>
      </trkpt>
      <trkpt lat="40.18686703406274318695068359375" lon="-1.44264464266598224639892578125">
        <ele>1393.199951171875</ele>
        <time>2022-08-26T08:58:36.000Z</time>
      </trkpt>
      <trkpt lat="40.186925120651721954345703125" lon="-1.4426490850746631622314453125">
        <ele>1393.800048828125</ele>
        <time>2022-08-26T08:58:39.000Z</time>
      </trkpt>
      <trkpt lat="40.187030397355556488037109375" lon="-1.44265453331172466278076171875">
        <ele>1394.5999755859375</ele>
        <time>2022-08-26T08:58:45.000Z</time>
      </trkpt>
      <trkpt lat="40.18708370625972747802734375" lon="-1.44266911782324314117431640625">
        <ele>1394.800048828125</ele>
        <time>2022-08-26T08:58:48.000Z</time>
      </trkpt>
      <trkpt lat="40.18717230297625064849853515625" lon="-1.44267397932708263397216796875">
        <ele>1395.5999755859375</ele>
        <time>2022-08-26T08:58:54.000Z</time>
      </trkpt>
      <trkpt lat="40.18724136985838413238525390625" lon="-1.4426604844629764556884765625">
        <ele>1396</ele>
        <time>2022-08-26T08:58:58.000Z</time>
      </trkpt>
      <trkpt lat="40.187279842793941497802734375" lon="-1.44266190938651561737060546875">
        <ele>1396.4000244140625</ele>
        <time>2022-08-26T08:59:00.000Z</time>
      </trkpt>
      <trkpt lat="40.18736525438725948333740234375" lon="-1.44267062656581401824951171875">
        <ele>1396.800048828125</ele>
        <time>2022-08-26T08:59:04.000Z</time>
      </trkpt>
      <trkpt lat="40.187401883304119110107421875" lon="-1.442674733698368072509765625">
        <ele>1397.199951171875</ele>
        <time>2022-08-26T08:59:06.000Z</time>
      </trkpt>
      <trkpt lat="40.1875043101608753204345703125" lon="-1.44267582334578037261962890625">
        <ele>1398.199951171875</ele>
        <time>2022-08-26T08:59:12.000Z</time>
      </trkpt>
      <trkpt lat="40.1875631511211395263671875" lon="-1.4426698721945285797119140625">
        <ele>1398.5999755859375</ele>
        <time>2022-08-26T08:59:15.000Z</time>
      </trkpt>
      <trkpt lat="40.18765635788440704345703125" lon="-1.44267297349870204925537109375">
        <ele>1399.199951171875</ele>
        <time>2022-08-26T08:59:20.000Z</time>
      </trkpt>
      <trkpt lat="40.18779273144900798797607421875" lon="-1.44265419803559780120849609375">
        <ele>1400.5999755859375</ele>
        <time>2022-08-26T08:59:26.000Z</time>
      </trkpt>
      <trkpt lat="40.18791996873915195465087890625" lon="-1.4426500909030437469482421875">
        <ele>1401.5999755859375</ele>
        <time>2022-08-26T08:59:31.000Z</time>
      </trkpt>
      <trkpt lat="40.18803865648806095123291015625" lon="-1.44265738315880298614501953125">
        <ele>1402.800048828125</ele>
        <time>2022-08-26T08:59:37.000Z</time>
      </trkpt>
      <trkpt lat="40.1880565099418163299560546875" lon="-1.442660652101039886474609375">
        <ele>1403</ele>
        <time>2022-08-26T08:59:38.000Z</time>
      </trkpt>
      <trkpt lat="40.18816706724464893341064453125" lon="-1.44267347641289234161376953125">
        <ele>1404</ele>
        <time>2022-08-26T08:59:44.000Z</time>
      </trkpt>
      <trkpt lat="40.1883785426616668701171875" lon="-1.4426353387534618377685546875">
        <ele>1405.199951171875</ele>
        <time>2022-08-26T08:59:56.000Z</time>
      </trkpt>
      <trkpt lat="40.18841550685465335845947265625" lon="-1.4426363445818424224853515625">
        <ele>1405.5999755859375</ele>
        <time>2022-08-26T08:59:58.000Z</time>
      </trkpt>
      <trkpt lat="40.18851474858820438385009765625" lon="-1.44264564849436283111572265625">
        <ele>1406.199951171875</ele>
        <time>2022-08-26T09:00:03.000Z</time>
      </trkpt>
      <trkpt lat="40.1886360347270965576171875" lon="-1.44264229573309421539306640625">
        <ele>1406.5999755859375</ele>
        <time>2022-08-26T09:00:09.000Z</time>
      </trkpt>
      <trkpt lat="40.18869563005864620208740234375" lon="-1.442655287683010101318359375">
        <ele>1407.4000244140625</ele>
        <time>2022-08-26T09:00:12.000Z</time>
      </trkpt>
      <trkpt lat="40.1888264715671539306640625" lon="-1.44265092909336090087890625">
        <ele>1408</ele>
        <time>2022-08-26T09:00:19.000Z</time>
      </trkpt>
      <trkpt lat="40.18889009021222591400146484375" lon="-1.44264581613242626190185546875">
        <ele>1408.4000244140625</ele>
        <time>2022-08-26T09:00:22.000Z</time>
      </trkpt>
      <trkpt lat="40.18904062919318675994873046875" lon="-1.44264028407633304595947265625">
        <ele>1409.4000244140625</ele>
        <time>2022-08-26T09:00:29.000Z</time>
      </trkpt>
      <trkpt lat="40.1890599913895130157470703125" lon="-1.4426433853805065155029296875">
        <ele>1409.5999755859375</ele>
        <time>2022-08-26T09:00:30.000Z</time>
      </trkpt>
      <trkpt lat="40.18921765498816967010498046875" lon="-1.4426832832396030426025390625">
        <ele>1410.4000244140625</ele>
        <time>2022-08-26T09:00:38.000Z</time>
      </trkpt>
      <trkpt lat="40.189258642494678497314453125" lon="-1.4426889829337596893310546875">
        <ele>1410.800048828125</ele>
        <time>2022-08-26T09:00:40.000Z</time>
      </trkpt>
      <trkpt lat="40.18932544626295566558837890625" lon="-1.44268839620053768157958984375">
        <ele>1411.5999755859375</ele>
        <time>2022-08-26T09:00:44.000Z</time>
      </trkpt>
      <trkpt lat="40.18942988477647304534912109375" lon="-1.4426960237324237823486328125">
        <ele>1412.199951171875</ele>
        <time>2022-08-26T09:00:50.000Z</time>
      </trkpt>
      <trkpt lat="40.18951253034174442291259765625" lon="-1.44269845448434352874755859375">
        <ele>1412.5999755859375</ele>
        <time>2022-08-26T09:00:54.000Z</time>
      </trkpt>
      <trkpt lat="40.189631469547748565673828125" lon="-1.44269929267466068267822265625">
        <ele>1413.5999755859375</ele>
        <time>2022-08-26T09:01:00.000Z</time>
      </trkpt>
      <trkpt lat="40.1896517537534236907958984375" lon="-1.442700885236263275146484375">
        <ele>1413.800048828125</ele>
        <time>2022-08-26T09:01:01.000Z</time>
      </trkpt>
      <trkpt lat="40.1897825114428997039794921875" lon="-1.442685462534427642822265625">
        <ele>1414.800048828125</ele>
        <time>2022-08-26T09:01:07.000Z</time>
      </trkpt>
      <trkpt lat="40.18982215784490108489990234375" lon="-1.442682109773159027099609375">
        <ele>1415.199951171875</ele>
        <time>2022-08-26T09:01:09.000Z</time>
      </trkpt>
      <trkpt lat="40.1899602077901363372802734375" lon="-1.44266895018517971038818359375">
        <ele>1416</ele>
        <time>2022-08-26T09:01:15.000Z</time>
      </trkpt>
      <trkpt lat="40.19002885557711124420166015625" lon="-1.44267347641289234161376953125">
        <ele>1416.4000244140625</ele>
        <time>2022-08-26T09:01:18.000Z</time>
      </trkpt>
      <trkpt lat="40.1901221461594104766845703125" lon="-1.4426772482693195343017578125">
        <ele>1417.199951171875</ele>
        <time>2022-08-26T09:01:23.000Z</time>
      </trkpt>
      <trkpt lat="40.19021728076040744781494140625" lon="-1.44268504343926906585693359375">
        <ele>1417.800048828125</ele>
        <time>2022-08-26T09:01:27.000Z</time>
      </trkpt>
      <trkpt lat="40.1902803964912891387939453125" lon="-1.44269292242825031280517578125">
        <ele>1418.4000244140625</ele>
        <time>2022-08-26T09:01:30.000Z</time>
      </trkpt>
      <trkpt lat="40.190421044826507568359375" lon="-1.44275578670203685760498046875">
        <ele>1419.4000244140625</ele>
        <time>2022-08-26T09:01:37.000Z</time>
      </trkpt>
      <trkpt lat="40.190442502498626708984375" lon="-1.44276634790003299713134765625">
        <ele>1419.4000244140625</ele>
        <time>2022-08-26T09:01:38.000Z</time>
      </trkpt>
      <trkpt lat="40.1906039379537105560302734375" lon="-1.4428515918552875518798828125">
        <ele>1420.800048828125</ele>
        <time>2022-08-26T09:01:45.000Z</time>
      </trkpt>
      <trkpt lat="40.190672837197780609130859375" lon="-1.442880593240261077880859375">
        <ele>1421</ele>
        <time>2022-08-26T09:01:48.000Z</time>
      </trkpt>
      <trkpt lat="40.190688930451869964599609375" lon="-1.4429025538265705108642578125">
        <ele>1421.5999755859375</ele>
        <time>2022-08-26T09:01:52.000Z</time>
      </trkpt>
      <trkpt lat="40.1906887628138065338134765625" lon="-1.4429052360355854034423828125">
        <ele>1421.800048828125</ele>
        <time>2022-08-26T09:01:53.000Z</time>
      </trkpt>
      <trkpt lat="40.19068582914769649505615234375" lon="-1.44290699623525142669677734375">
        <ele>1422</ele>
        <time>2022-08-26T09:01:54.000Z</time>
      </trkpt>
      <trkpt lat="40.1907779462635517120361328125" lon="-1.4429820142686367034912109375">
        <ele>1422.5999755859375</ele>
        <time>2022-08-26T09:02:25.000Z</time>
      </trkpt>
      <trkpt lat="40.19081474281847476959228515625" lon="-1.44300892017781734466552734375">
        <ele>1422.800048828125</ele>
        <time>2022-08-26T09:02:27.000Z</time>
      </trkpt>
      <trkpt lat="40.19083502702414989471435546875" lon="-1.443022750318050384521484375">
        <ele>1422.800048828125</ele>
        <time>2022-08-26T09:02:28.000Z</time>
      </trkpt>
      <trkpt lat="40.1910579018294811248779296875" lon="-1.44310916773974895477294921875">
        <ele>1423.4000244140625</ele>
        <time>2022-08-26T09:02:37.000Z</time>
      </trkpt>
      <trkpt lat="40.191204585134983062744140625" lon="-1.4431181363761425018310546875">
        <ele>1424</ele>
        <time>2022-08-26T09:02:42.000Z</time>
      </trkpt>
      <trkpt lat="40.19139342941343784332275390625" lon="-1.44311687909066677093505859375">
        <ele>1424.4000244140625</ele>
        <time>2022-08-26T09:02:49.000Z</time>
      </trkpt>
      <trkpt lat="40.19168897531926631927490234375" lon="-1.44312475807964801788330078125">
        <ele>1425</ele>
        <time>2022-08-26T09:03:00.000Z</time>
      </trkpt>
      <trkpt lat="40.19196993671357631683349609375" lon="-1.44315090961754322052001953125">
        <ele>1426.199951171875</ele>
        <time>2022-08-26T09:03:10.000Z</time>
      </trkpt>
      <trkpt lat="40.1919963397085666656494140625" lon="-1.44315208308398723602294921875">
        <ele>1426.199951171875</ele>
        <time>2022-08-26T09:03:11.000Z</time>
      </trkpt>
      <trkpt lat="40.19229029305279254913330078125" lon="-1.44315241836011409759521484375">
        <ele>1427.199951171875</ele>
        <time>2022-08-26T09:03:22.000Z</time>
      </trkpt>
      <trkpt lat="40.1925391517579555511474609375" lon="-1.44314940087497234344482421875">
        <ele>1428.4000244140625</ele>
        <time>2022-08-26T09:03:31.000Z</time>
      </trkpt>
      <trkpt lat="40.19270285032689571380615234375" lon="-1.443133056163787841796875">
        <ele>1429.4000244140625</ele>
        <time>2022-08-26T09:03:37.000Z</time>
      </trkpt>
      <trkpt lat="40.19275364466011524200439453125" lon="-1.44310958683490753173828125">
        <ele>1429.800048828125</ele>
        <time>2022-08-26T09:03:39.000Z</time>
      </trkpt>
      <trkpt lat="40.19294307567179203033447265625" lon="-1.4430386759340763092041015625">
        <ele>1430.4000244140625</ele>
        <time>2022-08-26T09:03:46.000Z</time>
      </trkpt>
      <trkpt lat="40.19306100904941558837890625" lon="-1.44300841726362705230712890625">
        <ele>1430.5999755859375</ele>
        <time>2022-08-26T09:03:50.000Z</time>
      </trkpt>
      <trkpt lat="40.19327365793287754058837890625" lon="-1.44292585551738739013671875">
        <ele>1431.4000244140625</ele>
        <time>2022-08-26T09:03:57.000Z</time>
      </trkpt>
      <trkpt lat="40.19337155856192111968994140625" lon="-1.4428903162479400634765625">
        <ele>1431.800048828125</ele>
        <time>2022-08-26T09:04:00.000Z</time>
      </trkpt>
      <trkpt lat="40.19363977946341037750244140625" lon="-1.44279199652373790740966796875">
        <ele>1432.5999755859375</ele>
        <time>2022-08-26T09:04:09.000Z</time>
      </trkpt>
      <trkpt lat="40.193965248763561248779296875" lon="-1.4426926709711551666259765625">
        <ele>1433.5999755859375</ele>
        <time>2022-08-26T09:04:19.000Z</time>
      </trkpt>
      <trkpt lat="40.19405803643167018890380859375" lon="-1.44266710616648197174072265625">
        <ele>1433.800048828125</ele>
        <time>2022-08-26T09:04:22.000Z</time>
      </trkpt>
      <trkpt lat="40.194092653691768646240234375" lon="-1.4425619132816791534423828125">
        <ele>1434</ele>
        <time>2022-08-26T09:04:25.000Z</time>
      </trkpt>
      <trkpt lat="40.1940862834453582763671875" lon="-1.44251547753810882568359375">
        <ele>1434.199951171875</ele>
        <time>2022-08-26T09:04:26.000Z</time>
      </trkpt>
      <trkpt lat="40.194049067795276641845703125" lon="-1.4423701353371143341064453125">
        <ele>1434.4000244140625</ele>
        <time>2022-08-26T09:04:29.000Z</time>
      </trkpt>
      <trkpt lat="40.19403330981731414794921875" lon="-1.44232093356549739837646484375">
        <ele>1434.4000244140625</ele>
        <time>2022-08-26T09:04:30.000Z</time>
      </trkpt>
      <trkpt lat="40.193934738636016845703125" lon="-1.441973336040973663330078125">
        <ele>1434.5999755859375</ele>
        <time>2022-08-26T09:04:38.000Z</time>
      </trkpt>
      <trkpt lat="40.1938950084149837493896484375" lon="-1.4418504573404788970947265625">
        <ele>1434.5999755859375</ele>
        <time>2022-08-26T09:04:41.000Z</time>
      </trkpt>
      <trkpt lat="40.19376567564904689788818359375" lon="-1.44153177738189697265625">
        <ele>1435.199951171875</ele>
        <time>2022-08-26T09:04:49.000Z</time>
      </trkpt>
      <trkpt lat="40.19366450607776641845703125" lon="-1.44125592894852161407470703125">
        <ele>1435.5999755859375</ele>
        <time>2022-08-26T09:04:57.000Z</time>
      </trkpt>
      <trkpt lat="40.19362050108611583709716796875" lon="-1.44112785346806049346923828125">
        <ele>1436</ele>
        <time>2022-08-26T09:05:01.000Z</time>
      </trkpt>
      <trkpt lat="40.19357825629413127899169921875" lon="-1.44099709577858448028564453125">
        <ele>1436.5999755859375</ele>
        <time>2022-08-26T09:05:05.000Z</time>
      </trkpt>
      <trkpt lat="40.1934983767569065093994140625" lon="-1.44079894758760929107666015625">
        <ele>1437.4000244140625</ele>
        <time>2022-08-26T09:05:11.000Z</time>
      </trkpt>
      <trkpt lat="40.1934836246073246002197265625" lon="-1.4407604746520519256591796875">
        <ele>1437.5999755859375</ele>
        <time>2022-08-26T09:05:12.000Z</time>
      </trkpt>
      <trkpt lat="40.19337289966642856597900390625" lon="-1.44040365703403949737548828125">
        <ele>1438.4000244140625</ele>
        <time>2022-08-26T09:05:20.000Z</time>
      </trkpt>
      <trkpt lat="40.1933485083281993865966796875" lon="-1.44006016664206981658935546875">
        <ele>1438</ele>
        <time>2022-08-26T09:05:26.000Z</time>
      </trkpt>
      <trkpt lat="40.1934303157031536102294921875" lon="-1.43961072899401187896728515625">
        <ele>1437</ele>
        <time>2022-08-26T09:05:33.000Z</time>
      </trkpt>
      <trkpt lat="40.19348957575857639312744140625" lon="-1.439323984086513519287109375">
        <ele>1436.4000244140625</ele>
        <time>2022-08-26T09:05:37.000Z</time>
      </trkpt>
      <trkpt lat="40.19355989992618560791015625" lon="-1.4390086568892002105712890625">
        <ele>1435.5999755859375</ele>
        <time>2022-08-26T09:05:41.000Z</time>
      </trkpt>
      <trkpt lat="40.1935989595949649810791015625" lon="-1.4388537593185901641845703125">
        <ele>1435.4000244140625</ele>
        <time>2022-08-26T09:05:43.000Z</time>
      </trkpt>
      <trkpt lat="40.193682610988616943359375" lon="-1.43844950012862682342529296875">
        <ele>1434.5999755859375</ele>
        <time>2022-08-26T09:05:48.000Z</time>
      </trkpt>
      <trkpt lat="40.19370214082300662994384765625" lon="-1.438274569809436798095703125">
        <ele>1434.199951171875</ele>
        <time>2022-08-26T09:05:50.000Z</time>
      </trkpt>
      <trkpt lat="40.19371253438293933868408203125" lon="-1.43793166615068912506103515625">
        <ele>1433.4000244140625</ele>
        <time>2022-08-26T09:05:54.000Z</time>
      </trkpt>
      <trkpt lat="40.1937008835375308990478515625" lon="-1.4376910217106342315673828125">
        <ele>1432.5999755859375</ele>
        <time>2022-08-26T09:05:57.000Z</time>
      </trkpt>
      <trkpt lat="40.19369878806173801422119140625" lon="-1.43761851824820041656494140625">
        <ele>1432.199951171875</ele>
        <time>2022-08-26T09:05:58.000Z</time>
      </trkpt>
      <trkpt lat="40.19371370784938335418701171875" lon="-1.4372839964926242828369140625">
        <ele>1431.199951171875</ele>
        <time>2022-08-26T09:06:03.000Z</time>
      </trkpt>
      <trkpt lat="40.1937431283295154571533203125" lon="-1.4371423423290252685546875">
        <ele>1431.199951171875</ele>
        <time>2022-08-26T09:06:05.000Z</time>
      </trkpt>
      <trkpt lat="40.193788222968578338623046875" lon="-1.43700680695474147796630859375">
        <ele>1431</ele>
        <time>2022-08-26T09:06:07.000Z</time>
      </trkpt>
      <trkpt lat="40.1938175596296787261962890625" lon="-1.43694494850933551788330078125">
        <ele>1430.800048828125</ele>
        <time>2022-08-26T09:06:08.000Z</time>
      </trkpt>
      <trkpt lat="40.19401864148676395416259765625" lon="-1.4366972632706165313720703125">
        <ele>1430.800048828125</ele>
        <time>2022-08-26T09:06:13.000Z</time>
      </trkpt>
      <trkpt lat="40.1944783888757228851318359375" lon="-1.43627473153173923492431640625">
        <ele>1430.800048828125</ele>
        <time>2022-08-26T09:06:24.000Z</time>
      </trkpt>
      <trkpt lat="40.19452750682830810546875" lon="-1.43606585450470447540283203125">
        <ele>1431.199951171875</ele>
        <time>2022-08-26T09:06:28.000Z</time>
      </trkpt>
      <trkpt lat="40.1944435201585292816162109375" lon="-1.4359328337013721466064453125">
        <ele>1431.4000244140625</ele>
        <time>2022-08-26T09:06:31.000Z</time>
      </trkpt>
      <trkpt lat="40.19426305778324604034423828125" lon="-1.435906849801540374755859375">
        <ele>1431.800048828125</ele>
        <time>2022-08-26T09:06:35.000Z</time>
      </trkpt>
      <trkpt lat="40.19408133812248706817626953125" lon="-1.4359777607023715972900390625">
        <ele>1432.199951171875</ele>
        <time>2022-08-26T09:06:39.000Z</time>
      </trkpt>
      <trkpt lat="40.19401042722165584564208984375" lon="-1.4360250346362590789794921875">
        <ele>1432.4000244140625</ele>
        <time>2022-08-26T09:06:41.000Z</time>
      </trkpt>
      <trkpt lat="40.19383356906473636627197265625" lon="-1.436144225299358367919921875">
        <ele>1433.199951171875</ele>
        <time>2022-08-26T09:06:48.000Z</time>
      </trkpt>
      <trkpt lat="40.19366274587810039520263671875" lon="-1.43622879870235919952392578125">
        <ele>1433.800048828125</ele>
        <time>2022-08-26T09:06:56.000Z</time>
      </trkpt>
      <trkpt lat="40.193617232143878936767578125" lon="-1.4362412877380847930908203125">
        <ele>1434</ele>
        <time>2022-08-26T09:06:58.000Z</time>
      </trkpt>
      <trkpt lat="40.19348303787410259246826171875" lon="-1.43625922501087188720703125">
        <ele>1434.5999755859375</ele>
        <time>2022-08-26T09:07:04.000Z</time>
      </trkpt>
      <trkpt lat="40.19339670427143573760986328125" lon="-1.4362671039998531341552734375">
        <ele>1435.199951171875</ele>
        <time>2022-08-26T09:07:08.000Z</time>
      </trkpt>
      <trkpt lat="40.1932479254901409149169921875" lon="-1.436293423175811767578125">
        <ele>1435.800048828125</ele>
        <time>2022-08-26T09:07:14.000Z</time>
      </trkpt>
      <trkpt lat="40.19296838901937007904052734375" lon="-1.43627758137881755828857421875">
        <ele>1436</ele>
        <time>2022-08-26T09:07:23.000Z</time>
      </trkpt>
      <trkpt lat="40.19275448285043239593505859375" lon="-1.4362464845180511474609375">
        <ele>1436.199951171875</ele>
        <time>2022-08-26T09:07:30.000Z</time>
      </trkpt>
      <trkpt lat="40.192674100399017333984375" lon="-1.43623642623424530029296875">
        <ele>1436.4000244140625</ele>
        <time>2022-08-26T09:07:33.000Z</time>
      </trkpt>
      <trkpt lat="40.19249774515628814697265625" lon="-1.43621924333274364471435546875">
        <ele>1437.4000244140625</ele>
        <time>2022-08-26T09:07:40.000Z</time>
      </trkpt>
      <trkpt lat="40.192417614161968231201171875" lon="-1.43621672876179218292236328125">
        <ele>1437.5999755859375</ele>
        <time>2022-08-26T09:07:43.000Z</time>
      </trkpt>
      <trkpt lat="40.19227621145546436309814453125" lon="-1.4361816085875034332275390625">
        <ele>1438.4000244140625</ele>
        <time>2022-08-26T09:07:49.000Z</time>
      </trkpt>
      <trkpt lat="40.192204378545284271240234375" lon="-1.43615352921187877655029296875">
        <ele>1439</ele>
        <time>2022-08-26T09:07:52.000Z</time>
      </trkpt>
      <trkpt lat="40.1921522431075572967529296875" lon="-1.4361215941607952117919921875">
        <ele>1439.5999755859375</ele>
        <time>2022-08-26T09:07:55.000Z</time>
      </trkpt>
      <trkpt lat="40.19200681708753108978271484375" lon="-1.4360713027417659759521484375">
        <ele>1440</ele>
        <time>2022-08-26T09:08:01.000Z</time>
      </trkpt>
      <trkpt lat="40.19185669720172882080078125" lon="-1.436059065163135528564453125">
        <ele>1440.5999755859375</ele>
        <time>2022-08-26T09:08:07.000Z</time>
      </trkpt>
      <trkpt lat="40.19176776520907878875732421875" lon="-1.43606266938149929046630859375">
        <ele>1441</ele>
        <time>2022-08-26T09:08:11.000Z</time>
      </trkpt>
      <trkpt lat="40.19166047684848308563232421875" lon="-1.436065770685672760009765625">
        <ele>1441.800048828125</ele>
        <time>2022-08-26T09:08:16.000Z</time>
      </trkpt>
      <trkpt lat="40.19155201502144336700439453125" lon="-1.4361014775931835174560546875">
        <ele>1442.4000244140625</ele>
        <time>2022-08-26T09:08:21.000Z</time>
      </trkpt>
      <trkpt lat="40.191478841006755828857421875" lon="-1.43613324500620365142822265625">
        <ele>1442.800048828125</ele>
        <time>2022-08-26T09:08:24.000Z</time>
      </trkpt>
      <trkpt lat="40.19139041192829608917236328125" lon="-1.43618806265294551849365234375">
        <ele>1443.5999755859375</ele>
        <time>2022-08-26T09:08:29.000Z</time>
      </trkpt>
      <trkpt lat="40.19136878661811351776123046875" lon="-1.43619946204125881195068359375">
        <ele>1443.800048828125</ele>
        <time>2022-08-26T09:08:30.000Z</time>
      </trkpt>
      <trkpt lat="40.19123819656670093536376953125" lon="-1.43627707846462726593017578125">
        <ele>1444.199951171875</ele>
        <time>2022-08-26T09:08:38.000Z</time>
      </trkpt>
      <trkpt lat="40.1911734044551849365234375" lon="-1.4363081753253936767578125">
        <ele>1444.800048828125</ele>
        <time>2022-08-26T09:08:42.000Z</time>
      </trkpt>
      <trkpt lat="40.19104826264083385467529296875" lon="-1.43635201267898082733154296875">
        <ele>1445.199951171875</ele>
        <time>2022-08-26T09:08:48.000Z</time>
      </trkpt>
      <trkpt lat="40.19093133509159088134765625" lon="-1.436331979930400848388671875">
        <ele>1446</ele>
        <time>2022-08-26T09:08:53.000Z</time>
      </trkpt>
      <trkpt lat="40.19084860570728778839111328125" lon="-1.43630825914442539215087890625">
        <ele>1446.5999755859375</ele>
        <time>2022-08-26T09:08:57.000Z</time>
      </trkpt>
      <trkpt lat="40.19077484495937824249267578125" lon="-1.43626769073307514190673828125">
        <ele>1447</ele>
        <time>2022-08-26T09:09:01.000Z</time>
      </trkpt>
      <trkpt lat="40.19070460461080074310302734375" lon="-1.43617817200720310211181640625">
        <ele>1447.800048828125</ele>
        <time>2022-08-26T09:09:06.000Z</time>
      </trkpt>
      <trkpt lat="40.1906921155750751495361328125" lon="-1.4361544512212276458740234375">
        <ele>1448.199951171875</ele>
        <time>2022-08-26T09:09:07.000Z</time>
      </trkpt>
      <trkpt lat="40.19062547944486141204833984375" lon="-1.4360414631664752960205078125">
        <ele>1449.199951171875</ele>
        <time>2022-08-26T09:09:12.000Z</time>
      </trkpt>
      <trkpt lat="40.1905888505280017852783203125" lon="-1.43594381399452686309814453125">
        <ele>1450</ele>
        <time>2022-08-26T09:09:16.000Z</time>
      </trkpt>
      <trkpt lat="40.19058122299611568450927734375" lon="-1.43592386506497859954833984375">
        <ele>1450.199951171875</ele>
        <time>2022-08-26T09:09:17.000Z</time>
      </trkpt>
      <trkpt lat="40.19053948111832141876220703125" lon="-1.4358010701835155487060546875">
        <ele>1451.199951171875</ele>
        <time>2022-08-26T09:09:23.000Z</time>
      </trkpt>
      <trkpt lat="40.1905231364071369171142578125" lon="-1.43576259724795818328857421875">
        <ele>1451.5999755859375</ele>
        <time>2022-08-26T09:09:25.000Z</time>
      </trkpt>
      <trkpt lat="40.19048516638576984405517578125" lon="-1.435660421848297119140625">
        <ele>1452.4000244140625</ele>
        <time>2022-08-26T09:09:30.000Z</time>
      </trkpt>
      <trkpt lat="40.1904909498989582061767578125" lon="-1.43555103801190853118896484375">
        <ele>1453</ele>
        <time>2022-08-26T09:09:34.000Z</time>
      </trkpt>
      <trkpt lat="40.19048935733735561370849609375" lon="-1.43547601997852325439453125">
        <ele>1453.4000244140625</ele>
        <time>2022-08-26T09:09:37.000Z</time>
      </trkpt>
      <trkpt lat="40.1904839091002941131591796875" lon="-1.43538339994847774505615234375">
        <ele>1454.4000244140625</ele>
        <time>2022-08-26T09:09:41.000Z</time>
      </trkpt>
      <trkpt lat="40.19048600457608699798583984375" lon="-1.43526068888604640960693359375">
        <ele>1455.4000244140625</ele>
        <time>2022-08-26T09:09:46.000Z</time>
      </trkpt>
      <trkpt lat="40.19047535955905914306640625" lon="-1.435118280351161956787109375">
        <ele>1456.4000244140625</ele>
        <time>2022-08-26T09:09:52.000Z</time>
      </trkpt>
      <trkpt lat="40.19043982028961181640625" lon="-1.43502348102629184722900390625">
        <ele>1457.4000244140625</ele>
        <time>2022-08-26T09:09:57.000Z</time>
      </trkpt>
      <trkpt lat="40.19043646752834320068359375" lon="-1.43500202335417270660400390625">
        <ele>1457.5999755859375</ele>
        <time>2022-08-26T09:09:58.000Z</time>
      </trkpt>
      <trkpt lat="40.190385170280933380126953125" lon="-1.43485064618289470672607421875">
        <ele>1458.800048828125</ele>
        <time>2022-08-26T09:10:05.000Z</time>
      </trkpt>
      <trkpt lat="40.19034921191632747650146484375" lon="-1.434737406671047210693359375">
        <ele>1459.4000244140625</ele>
        <time>2022-08-26T09:10:10.000Z</time>
      </trkpt>
      <trkpt lat="40.19033747725188732147216796875" lon="-1.43468786962330341339111328125">
        <ele>1459.800048828125</ele>
        <time>2022-08-26T09:10:12.000Z</time>
      </trkpt>
      <trkpt lat="40.19029187969863414764404296875" lon="-1.434553004801273345947265625">
        <ele>1460.800048828125</ele>
        <time>2022-08-26T09:10:18.000Z</time>
      </trkpt>
      <trkpt lat="40.19026656635105609893798828125" lon="-1.434480249881744384765625">
        <ele>1461.4000244140625</ele>
        <time>2022-08-26T09:10:21.000Z</time>
      </trkpt>
      <trkpt lat="40.19021459855139255523681640625" lon="-1.43439668230712413787841796875">
        <ele>1461.800048828125</ele>
        <time>2022-08-26T09:10:25.000Z</time>
      </trkpt>
      <trkpt lat="40.190168917179107666015625" lon="-1.4342738874256610870361328125">
        <ele>1462.5999755859375</ele>
        <time>2022-08-26T09:10:31.000Z</time>
      </trkpt>
      <trkpt lat="40.19013782031834125518798828125" lon="-1.43421345390379428863525390625">
        <ele>1462.800048828125</ele>
        <time>2022-08-26T09:10:34.000Z</time>
      </trkpt>
      <trkpt lat="40.19007059745490550994873046875" lon="-1.43404372036457061767578125">
        <ele>1463.5999755859375</ele>
        <time>2022-08-26T09:10:41.000Z</time>
      </trkpt>
      <trkpt lat="40.19004561938345432281494140625" lon="-1.4339761622250080108642578125">
        <ele>1464</ele>
        <time>2022-08-26T09:10:44.000Z</time>
      </trkpt>
      <trkpt lat="40.18997554667294025421142578125" lon="-1.43374524079263210296630859375">
        <ele>1465</ele>
        <time>2022-08-26T09:10:53.000Z</time>
      </trkpt>
      <trkpt lat="40.1899712719023227691650390625" lon="-1.43371724523603916168212890625">
        <ele>1465</ele>
        <time>2022-08-26T09:10:54.000Z</time>
      </trkpt>
      <trkpt lat="40.189923159778118133544921875" lon="-1.4334715716540813446044921875">
        <ele>1466</ele>
        <time>2022-08-26T09:11:03.000Z</time>
      </trkpt>
      <trkpt lat="40.1898564398288726806640625" lon="-1.4331979863345623016357421875">
        <ele>1467</ele>
        <time>2022-08-26T09:11:13.000Z</time>
      </trkpt>
      <trkpt lat="40.1898354850709438323974609375" lon="-1.4331423304975032806396484375">
        <ele>1467.199951171875</ele>
        <time>2022-08-26T09:11:15.000Z</time>
      </trkpt>
      <trkpt lat="40.1898006163537502288818359375" lon="-1.43287855200469493865966796875">
        <ele>1468</ele>
        <time>2022-08-26T09:11:24.000Z</time>
      </trkpt>
      <trkpt lat="40.18978997133672237396240234375" lon="-1.4328258298337459564208984375">
        <ele>1468.199951171875</ele>
        <time>2022-08-26T09:11:26.000Z</time>
      </trkpt>
      <trkpt lat="40.18982249312102794647216796875" lon="-1.432661376893520355224609375">
        <ele>1469</ele>
        <time>2022-08-26T09:11:32.000Z</time>
      </trkpt>
      <trkpt lat="40.18984512425959110260009765625" lon="-1.432615779340267181396484375">
        <ele>1469.199951171875</ele>
        <time>2022-08-26T09:11:34.000Z</time>
      </trkpt>
      <trkpt lat="40.189917124807834625244140625" lon="-1.4325317926704883575439453125">
        <ele>1470</ele>
        <time>2022-08-26T09:11:41.000Z</time>
      </trkpt>
      <trkpt lat="40.18992844037711620330810546875" lon="-1.43252785317599773406982421875">
        <ele>1470</ele>
        <time>2022-08-26T09:11:42.000Z</time>
      </trkpt>
      <trkpt lat="40.1900051347911357879638671875" lon="-1.43251729197800159454345703125">
        <ele>1470.4000244140625</ele>
        <time>2022-08-26T09:11:49.000Z</time>
      </trkpt>
      <trkpt lat="40.190214179456233978271484375" lon="-1.432479321956634521484375">
        <ele>1470.800048828125</ele>
        <time>2022-08-26T09:11:58.000Z</time>
      </trkpt>
      <trkpt lat="40.19033253192901611328125" lon="-1.43245560117065906524658203125">
        <ele>1471.199951171875</ele>
        <time>2022-08-26T09:12:03.000Z</time>
      </trkpt>
      <trkpt lat="40.19042171537876129150390625" lon="-1.4324265159666538238525390625">
        <ele>1471.4000244140625</ele>
        <time>2022-08-26T09:12:07.000Z</time>
      </trkpt>
      <trkpt lat="40.1905818097293376922607421875" lon="-1.43237630836665630340576171875">
        <ele>1472.199951171875</ele>
        <time>2022-08-26T09:12:13.000Z</time>
      </trkpt>
      <trkpt lat="40.1907152496278285980224609375" lon="-1.4323631487786769866943359375">
        <ele>1472.5999755859375</ele>
        <time>2022-08-26T09:12:18.000Z</time>
      </trkpt>
      <trkpt lat="40.1908302493393421173095703125" lon="-1.43238720484077930450439453125">
        <ele>1473</ele>
        <time>2022-08-26T09:12:23.000Z</time>
      </trkpt>
      <trkpt lat="40.19098699092864990234375" lon="-1.4324208162724971771240234375">
        <ele>1473.5999755859375</ele>
        <time>2022-08-26T09:12:29.000Z</time>
      </trkpt>
      <trkpt lat="40.191174410283565521240234375" lon="-1.43250949680805206298828125">
        <ele>1474.199951171875</ele>
        <time>2022-08-26T09:12:36.000Z</time>
      </trkpt>
      <trkpt lat="40.191278345882892608642578125" lon="-1.43258082680404186248779296875">
        <ele>1474.5999755859375</ele>
        <time>2022-08-26T09:12:40.000Z</time>
      </trkpt>
      <trkpt lat="40.1915316469967365264892578125" lon="-1.43276539631187915802001953125">
        <ele>1475</ele>
        <time>2022-08-26T09:12:50.000Z</time>
      </trkpt>
      <trkpt lat="40.19160599447786808013916015625" lon="-1.43284142017364501953125">
        <ele>1475</ele>
        <time>2022-08-26T09:12:57.000Z</time>
      </trkpt>
      <trkpt lat="40.19168746657669544219970703125" lon="-1.43296672962605953216552734375">
        <ele>1474.800048828125</ele>
        <time>2022-08-26T09:13:06.000Z</time>
      </trkpt>
      <trkpt lat="40.19191411323845386505126953125" lon="-1.4331932924687862396240234375">
        <ele>1474.800048828125</ele>
        <time>2022-08-26T09:13:13.000Z</time>
      </trkpt>
      <trkpt lat="40.192282497882843017578125" lon="-1.4334970526397228240966796875">
        <ele>1474.800048828125</ele>
        <time>2022-08-26T09:13:24.000Z</time>
      </trkpt>
      <trkpt lat="40.19258047454059123992919921875" lon="-1.43360911868512630462646484375">
        <ele>1474.800048828125</ele>
        <time>2022-08-26T09:13:32.000Z</time>
      </trkpt>
      <trkpt lat="40.192826651036739349365234375" lon="-1.433527059853076934814453125">
        <ele>1474.800048828125</ele>
        <time>2022-08-26T09:13:38.000Z</time>
      </trkpt>
      <trkpt lat="40.19318036735057830810546875" lon="-1.43331625498831272125244140625">
        <ele>1475.199951171875</ele>
        <time>2022-08-26T09:13:47.000Z</time>
      </trkpt>
      <trkpt lat="40.193294025957584381103515625" lon="-1.4332415722310543060302734375">
        <ele>1475.199951171875</ele>
        <time>2022-08-26T09:13:50.000Z</time>
      </trkpt>
      <trkpt lat="40.1933317445218563079833984375" lon="-1.4332191087305545806884765625">
        <ele>1475.4000244140625</ele>
        <time>2022-08-26T09:13:51.000Z</time>
      </trkpt>
      <trkpt lat="40.19359636120498180389404296875" lon="-1.43307452090084552764892578125">
        <ele>1475.5999755859375</ele>
        <time>2022-08-26T09:13:59.000Z</time>
      </trkpt>
      <trkpt lat="40.19376634620130062103271484375" lon="-1.43298282288014888763427734375">
        <ele>1475.800048828125</ele>
        <time>2022-08-26T09:14:07.000Z</time>
      </trkpt>
      <trkpt lat="40.193947143852710723876953125" lon="-1.43288341350853443145751953125">
        <ele>1476</ele>
        <time>2022-08-26T09:14:14.000Z</time>
      </trkpt>
      <trkpt lat="40.19421058706939220428466796875" lon="-1.43275282345712184906005859375">
        <ele>1476</ele>
        <time>2022-08-26T09:14:22.000Z</time>
      </trkpt>
      <trkpt lat="40.194422565400600433349609375" lon="-1.4326350577175617218017578125">
        <ele>1476.199951171875</ele>
        <time>2022-08-26T09:14:30.000Z</time>
      </trkpt>
      <trkpt lat="40.19444595091044902801513671875" lon="-1.43262038938701152801513671875">
        <ele>1476.199951171875</ele>
        <time>2022-08-26T09:14:31.000Z</time>
      </trkpt>
      <trkpt lat="40.194657929241657257080078125" lon="-1.43249214626848697662353515625">
        <ele>1477.199951171875</ele>
        <time>2022-08-26T09:14:41.000Z</time>
      </trkpt>
      <trkpt lat="40.19479648210108280181884765625" lon="-1.43237664364278316497802734375">
        <ele>1478.4000244140625</ele>
        <time>2022-08-26T09:14:50.000Z</time>
      </trkpt>
      <trkpt lat="40.19481073133647441864013671875" lon="-1.432362310588359832763671875">
        <ele>1478.5999755859375</ele>
        <time>2022-08-26T09:14:51.000Z</time>
      </trkpt>
      <trkpt lat="40.19488465972244739532470703125" lon="-1.43229366280138492584228515625">
        <ele>1479.4000244140625</ele>
        <time>2022-08-26T09:14:56.000Z</time>
      </trkpt>
      <trkpt lat="40.19497208297252655029296875" lon="-1.43222610466182231903076171875">
        <ele>1480.4000244140625</ele>
        <time>2022-08-26T09:15:02.000Z</time>
      </trkpt>
      <trkpt lat="40.19500049762427806854248046875" lon="-1.43221168778836727142333984375">
        <ele>1480.5999755859375</ele>
        <time>2022-08-26T09:15:04.000Z</time>
      </trkpt>
      <trkpt lat="40.19509010016918182373046875" lon="-1.43216751515865325927734375">
        <ele>1481.4000244140625</ele>
        <time>2022-08-26T09:15:10.000Z</time>
      </trkpt>
      <trkpt lat="40.19515539519488811492919921875" lon="-1.4321133680641651153564453125">
        <ele>1482.5999755859375</ele>
        <time>2022-08-26T09:15:15.000Z</time>
      </trkpt>
      <trkpt lat="40.19534935243427753448486328125" lon="-1.43207925371825695037841796875">
        <ele>1483.5999755859375</ele>
        <time>2022-08-26T09:15:26.000Z</time>
      </trkpt>
      <trkpt lat="40.19536796025931835174560546875" lon="-1.43208436667919158935546875">
        <ele>1483.5999755859375</ele>
        <time>2022-08-26T09:15:27.000Z</time>
      </trkpt>
      <trkpt lat="40.19555906765162944793701171875" lon="-1.43208461813628673553466796875">
        <ele>1484.5999755859375</ele>
        <time>2022-08-26T09:15:37.000Z</time>
      </trkpt>
      <trkpt lat="40.1956092752516269683837890625" lon="-1.43209333531558513641357421875">
        <ele>1484.800048828125</ele>
        <time>2022-08-26T09:15:40.000Z</time>
      </trkpt>
      <trkpt lat="40.1957651786506175994873046875" lon="-1.43212166614830493927001953125">
        <ele>1485.5999755859375</ele>
        <time>2022-08-26T09:15:49.000Z</time>
      </trkpt>
      <trkpt lat="40.195785127580165863037109375" lon="-1.43212032504379749298095703125">
        <ele>1485.5999755859375</ele>
        <time>2022-08-26T09:15:50.000Z</time>
      </trkpt>
      <trkpt lat="40.1959660090506076812744140625" lon="-1.43209685571491718292236328125">
        <ele>1486.5999755859375</ele>
        <time>2022-08-26T09:16:00.000Z</time>
      </trkpt>
      <trkpt lat="40.196002386510372161865234375" lon="-1.432090066373348236083984375">
        <ele>1486.800048828125</ele>
        <time>2022-08-26T09:16:02.000Z</time>
      </trkpt>
      <trkpt lat="40.1961061544716358184814453125" lon="-1.4320774935185909271240234375">
        <ele>1487.800048828125</ele>
        <time>2022-08-26T09:16:07.000Z</time>
      </trkpt>
      <trkpt lat="40.19622241146862506866455078125" lon="-1.43205880187451839447021484375">
        <ele>1488.5999755859375</ele>
        <time>2022-08-26T09:16:13.000Z</time>
      </trkpt>
      <trkpt lat="40.1962959207594394683837890625" lon="-1.43205326981842517852783203125">
        <ele>1489.4000244140625</ele>
        <time>2022-08-26T09:16:17.000Z</time>
      </trkpt>
      <trkpt lat="40.1963669992983341217041015625" lon="-1.43203751184046268463134765625">
        <ele>1489.5999755859375</ele>
        <time>2022-08-26T09:16:21.000Z</time>
      </trkpt>
      <trkpt lat="40.1964719407260417938232421875" lon="-1.4320112764835357666015625">
        <ele>1490.199951171875</ele>
        <time>2022-08-26T09:16:27.000Z</time>
      </trkpt>
      <trkpt lat="40.1965473778545856475830078125" lon="-1.43200180493295192718505859375">
        <ele>1490.800048828125</ele>
        <time>2022-08-26T09:16:31.000Z</time>
      </trkpt>
      <trkpt lat="40.19664200954139232635498046875" lon="-1.43198487348854541778564453125">
        <ele>1491.4000244140625</ele>
        <time>2022-08-26T09:16:37.000Z</time>
      </trkpt>
      <trkpt lat="40.19673454575240612030029296875" lon="-1.4319603145122528076171875">
        <ele>1492</ele>
        <time>2022-08-26T09:16:42.000Z</time>
      </trkpt>
      <trkpt lat="40.196841247379779815673828125" lon="-1.4319145493209362030029296875">
        <ele>1493</ele>
        <time>2022-08-26T09:16:48.000Z</time>
      </trkpt>
      <trkpt lat="40.1968578435480594635009765625" lon="-1.4319075085222721099853515625">
        <ele>1493.199951171875</ele>
        <time>2022-08-26T09:16:49.000Z</time>
      </trkpt>
      <trkpt lat="40.19699321128427982330322265625" lon="-1.43183802254498004913330078125">
        <ele>1494</ele>
        <time>2022-08-26T09:16:58.000Z</time>
      </trkpt>
      <trkpt lat="40.19704735837876796722412109375" lon="-1.43182477913796901702880859375">
        <ele>1494.199951171875</ele>
        <time>2022-08-26T09:17:02.000Z</time>
      </trkpt>
      <trkpt lat="40.19718599505722522735595703125" lon="-1.431771218776702880859375">
        <ele>1495.199951171875</ele>
        <time>2022-08-26T09:17:10.000Z</time>
      </trkpt>
      <trkpt lat="40.19734675996005535125732421875" lon="-1.4317016489803791046142578125">
        <ele>1496.5999755859375</ele>
        <time>2022-08-26T09:17:19.000Z</time>
      </trkpt>
      <trkpt lat="40.19738514907658100128173828125" lon="-1.43168077804148197174072265625">
        <ele>1496.5999755859375</ele>
        <time>2022-08-26T09:17:21.000Z</time>
      </trkpt>
      <trkpt lat="40.19753032363951206207275390625" lon="-1.43158254213631153106689453125">
        <ele>1497.5999755859375</ele>
        <time>2022-08-26T09:17:30.000Z</time>
      </trkpt>
      <trkpt lat="40.19759855233132839202880859375" lon="-1.4315397106111049652099609375">
        <ele>1498.199951171875</ele>
        <time>2022-08-26T09:17:34.000Z</time>
      </trkpt>
      <trkpt lat="40.197681449353694915771484375" lon="-1.43150861375033855438232421875">
        <ele>1498.5999755859375</ele>
        <time>2022-08-26T09:17:39.000Z</time>
      </trkpt>
      <trkpt lat="40.19775344990193843841552734375" lon="-1.43145798705518245697021484375">
        <ele>1499.4000244140625</ele>
        <time>2022-08-26T09:17:44.000Z</time>
      </trkpt>
      <trkpt lat="40.1977791823446750640869140625" lon="-1.431436948478221893310546875">
        <ele>1499.800048828125</ele>
        <time>2022-08-26T09:17:46.000Z</time>
      </trkpt>
      <trkpt lat="40.197939611971378326416015625" lon="-1.4313348568975925445556640625">
        <ele>1500.800048828125</ele>
        <time>2022-08-26T09:17:55.000Z</time>
      </trkpt>
      <trkpt lat="40.19807514734566211700439453125" lon="-1.43119848333299160003662109375">
        <ele>1501.4000244140625</ele>
        <time>2022-08-26T09:18:04.000Z</time>
      </trkpt>
      <trkpt lat="40.198140107095241546630859375" lon="-1.43114785663783550262451171875">
        <ele>1501.800048828125</ele>
        <time>2022-08-26T09:18:08.000Z</time>
      </trkpt>
      <trkpt lat="40.19832056947052478790283203125" lon="-1.43099245615303516387939453125">
        <ele>1502.800048828125</ele>
        <time>2022-08-26T09:18:19.000Z</time>
      </trkpt>
      <trkpt lat="40.19833532162010669708251953125" lon="-1.43097720108926296234130859375">
        <ele>1503</ele>
        <time>2022-08-26T09:18:20.000Z</time>
      </trkpt>
      <trkpt lat="40.198444537818431854248046875" lon="-1.43086454831063747406005859375">
        <ele>1503.800048828125</ele>
        <time>2022-08-26T09:18:28.000Z</time>
      </trkpt>
      <trkpt lat="40.19848736934363842010498046875" lon="-1.43082029186189174652099609375">
        <ele>1504.199951171875</ele>
        <time>2022-08-26T09:18:31.000Z</time>
      </trkpt>
      <trkpt lat="40.19857789389789104461669921875" lon="-1.43073949031531810760498046875">
        <ele>1505.199951171875</ele>
        <time>2022-08-26T09:18:39.000Z</time>
      </trkpt>
      <trkpt lat="40.19858879037201404571533203125" lon="-1.43072582781314849853515625">
        <ele>1505.199951171875</ele>
        <time>2022-08-26T09:18:40.000Z</time>
      </trkpt>
      <trkpt lat="40.19868266768753528594970703125" lon="-1.43063588999211788177490234375">
        <ele>1506.199951171875</ele>
        <time>2022-08-26T09:18:47.000Z</time>
      </trkpt>
      <trkpt lat="40.19875022582709789276123046875" lon="-1.430575288832187652587890625">
        <ele>1507</ele>
        <time>2022-08-26T09:18:52.000Z</time>
      </trkpt>
      <trkpt lat="40.1987806521356105804443359375" lon="-1.4305513165891170501708984375">
        <ele>1507.199951171875</ele>
        <time>2022-08-26T09:18:54.000Z</time>
      </trkpt>
      <trkpt lat="40.19887159578502178192138671875" lon="-1.43048602156341075897216796875">
        <ele>1508.4000244140625</ele>
        <time>2022-08-26T09:19:00.000Z</time>
      </trkpt>
      <trkpt lat="40.19896463491022586822509765625" lon="-1.43039449118077754974365234375">
        <ele>1509.5999755859375</ele>
        <time>2022-08-26T09:19:07.000Z</time>
      </trkpt>
      <trkpt lat="40.19903973676264286041259765625" lon="-1.4303270168602466583251953125">
        <ele>1510.5999755859375</ele>
        <time>2022-08-26T09:19:13.000Z</time>
      </trkpt>
      <trkpt lat="40.19915322773158550262451171875" lon="-1.43024244345724582672119140625">
        <ele>1511.800048828125</ele>
        <time>2022-08-26T09:19:21.000Z</time>
      </trkpt>
      <trkpt lat="40.19930108450353145599365234375" lon="-1.430120654404163360595703125">
        <ele>1513</ele>
        <time>2022-08-26T09:19:31.000Z</time>
      </trkpt>
      <trkpt lat="40.19933176226913928985595703125" lon="-1.43010179512202739715576171875">
        <ele>1513.5999755859375</ele>
        <time>2022-08-26T09:19:33.000Z</time>
      </trkpt>
      <trkpt lat="40.19934768788516521453857421875" lon="-1.43009140156209468841552734375">
        <ele>1513.5999755859375</ele>
        <time>2022-08-26T09:19:34.000Z</time>
      </trkpt>
      <trkpt lat="40.1994136534631252288818359375" lon="-1.4300380088388919830322265625">
        <ele>1514.199951171875</ele>
        <time>2022-08-26T09:19:39.000Z</time>
      </trkpt>
      <trkpt lat="40.1994855701923370361328125" lon="-1.42997615039348602294921875">
        <ele>1515</ele>
        <time>2022-08-26T09:19:45.000Z</time>
      </trkpt>
      <trkpt lat="40.1994984783232212066650390625" lon="-1.429965086281299591064453125">
        <ele>1515.199951171875</ele>
        <time>2022-08-26T09:19:46.000Z</time>
      </trkpt>
      <trkpt lat="40.1996161602437496185302734375" lon="-1.4298747293651103973388671875">
        <ele>1516.199951171875</ele>
        <time>2022-08-26T09:19:55.000Z</time>
      </trkpt>
      <trkpt lat="40.199645496904850006103515625" lon="-1.42985603772103786468505859375">
        <ele>1516.5999755859375</ele>
        <time>2022-08-26T09:19:57.000Z</time>
      </trkpt>
      <trkpt lat="40.19974398426711559295654296875" lon="-1.42976668663322925567626953125">
        <ele>1517.4000244140625</ele>
        <time>2022-08-26T09:20:04.000Z</time>
      </trkpt>
      <trkpt lat="40.1997754164040088653564453125" lon="-1.4297225140035152435302734375">
        <ele>1517.5999755859375</ele>
        <time>2022-08-26T09:20:07.000Z</time>
      </trkpt>
      <trkpt lat="40.199911706149578094482421875" lon="-1.42956845462322235107421875">
        <ele>1518.4000244140625</ele>
        <time>2022-08-26T09:20:18.000Z</time>
      </trkpt>
      <trkpt lat="40.19992436282336711883544921875" lon="-1.42955697141587734222412109375">
        <ele>1518.4000244140625</ele>
        <time>2022-08-26T09:20:19.000Z</time>
      </trkpt>
      <trkpt lat="40.1999844610691070556640625" lon="-1.4294784329831600189208984375">
        <ele>1519.4000244140625</ele>
        <time>2022-08-26T09:20:25.000Z</time>
      </trkpt>
      <trkpt lat="40.20000885240733623504638671875" lon="-1.42944113351404666900634765625">
        <ele>1520</ele>
        <time>2022-08-26T09:20:29.000Z</time>
      </trkpt>
      <trkpt lat="40.20000994205474853515625" lon="-1.4294388704001903533935546875">
        <ele>1520.199951171875</ele>
        <time>2022-08-26T09:20:30.000Z</time>
      </trkpt>
      <trkpt lat="40.20011798478662967681884765625" lon="-1.429303586483001708984375">
        <ele>1521.5999755859375</ele>
        <time>2022-08-26T09:22:47.000Z</time>
      </trkpt>
      <trkpt lat="40.20015134476125240325927734375" lon="-1.42924717627465724945068359375">
        <ele>1521.800048828125</ele>
        <time>2022-08-26T09:22:50.000Z</time>
      </trkpt>
      <trkpt lat="40.2002223394811153411865234375" lon="-1.42910853959619998931884765625">
        <ele>1522.5999755859375</ele>
        <time>2022-08-26T09:22:58.000Z</time>
      </trkpt>
      <trkpt lat="40.2002488262951374053955078125" lon="-1.4290647022426128387451171875">
        <ele>1523.199951171875</ele>
        <time>2022-08-26T09:23:01.000Z</time>
      </trkpt>
      <trkpt lat="40.20027841441333293914794921875" lon="-1.4290201105177402496337890625">
        <ele>1523.5999755859375</ele>
        <time>2022-08-26T09:23:04.000Z</time>
      </trkpt>
      <trkpt lat="40.20035938359797000885009765625" lon="-1.42888390459120273590087890625">
        <ele>1524.5999755859375</ele>
        <time>2022-08-26T09:23:12.000Z</time>
      </trkpt>
      <trkpt lat="40.20038369111716747283935546875" lon="-1.42885020934045314788818359375">
        <ele>1524.800048828125</ele>
        <time>2022-08-26T09:23:14.000Z</time>
      </trkpt>
      <trkpt lat="40.2004469744861125946044921875" lon="-1.4287562482059001922607421875">
        <ele>1525.5999755859375</ele>
        <time>2022-08-26T09:23:20.000Z</time>
      </trkpt>
      <trkpt lat="40.20048997364938259124755859375" lon="-1.42870612442493438720703125">
        <ele>1526.4000244140625</ele>
        <time>2022-08-26T09:23:24.000Z</time>
      </trkpt>
      <trkpt lat="40.200533978641033172607421875" lon="-1.428655497729778289794921875">
        <ele>1526.5999755859375</ele>
        <time>2022-08-26T09:23:28.000Z</time>
      </trkpt>
      <trkpt lat="40.20060581155121326446533203125" lon="-1.428576372563838958740234375">
        <ele>1527.4000244140625</ele>
        <time>2022-08-26T09:23:34.000Z</time>
      </trkpt>
      <trkpt lat="40.20066398195922374725341796875" lon="-1.4285228960216045379638671875">
        <ele>1527.800048828125</ele>
        <time>2022-08-26T09:23:38.000Z</time>
      </trkpt>
      <trkpt lat="40.20079256035387516021728515625" lon="-1.4284042082726955413818359375">
        <ele>1528.5999755859375</ele>
        <time>2022-08-26T09:23:46.000Z</time>
      </trkpt>
      <trkpt lat="40.20082659088075160980224609375" lon="-1.42838233150541782379150390625">
        <ele>1528.800048828125</ele>
        <time>2022-08-26T09:23:48.000Z</time>
      </trkpt>
      <trkpt lat="40.2009666524827480316162109375" lon="-1.42831376753747463226318359375">
        <ele>1529.5999755859375</ele>
        <time>2022-08-26T09:23:56.000Z</time>
      </trkpt>
      <trkpt lat="40.20100973546504974365234375" lon="-1.4282915554940700531005859375">
        <ele>1529.800048828125</ele>
        <time>2022-08-26T09:23:59.000Z</time>
      </trkpt>
      <trkpt lat="40.2011678181588649749755859375" lon="-1.42820849083364009857177734375">
        <ele>1530.5999755859375</ele>
        <time>2022-08-26T09:24:07.000Z</time>
      </trkpt>
      <trkpt lat="40.20123948343098163604736328125" lon="-1.42817504703998565673828125">
        <ele>1531</ele>
        <time>2022-08-26T09:24:11.000Z</time>
      </trkpt>
      <trkpt lat="40.20133562386035919189453125" lon="-1.428142525255680084228515625">
        <ele>1531.800048828125</ele>
        <time>2022-08-26T09:24:17.000Z</time>
      </trkpt>
      <trkpt lat="40.20135347731411457061767578125" lon="-1.42813607119023799896240234375">
        <ele>1532</ele>
        <time>2022-08-26T09:24:18.000Z</time>
      </trkpt>
      <trkpt lat="40.2014645375311374664306640625" lon="-1.42810706980526447296142578125">
        <ele>1532.800048828125</ele>
        <time>2022-08-26T09:24:24.000Z</time>
      </trkpt>
      <trkpt lat="40.20149932242929935455322265625" lon="-1.42810438759624958038330078125">
        <ele>1533.4000244140625</ele>
        <time>2022-08-26T09:24:27.000Z</time>
      </trkpt>
      <trkpt lat="40.20150334574282169342041015625" lon="-1.4281032979488372802734375">
        <ele>1533.5999755859375</ele>
        <time>2022-08-26T09:24:29.000Z</time>
      </trkpt>
      <trkpt lat="40.20162521861493587493896484375" lon="-1.42808762378990650177001953125">
        <ele>1534.4000244140625</ele>
        <time>2022-08-26T09:25:30.000Z</time>
      </trkpt>
      <trkpt lat="40.20167634822428226470947265625" lon="-1.42809994518756866455078125">
        <ele>1534.5999755859375</ele>
        <time>2022-08-26T09:25:33.000Z</time>
      </trkpt>
      <trkpt lat="40.20193266682326793670654296875" lon="-1.42812215723097324371337890625">
        <ele>1535.4000244140625</ele>
        <time>2022-08-26T09:25:46.000Z</time>
      </trkpt>
      <trkpt lat="40.20195093937218189239501953125" lon="-1.4281229116022586822509765625">
        <ele>1535.5999755859375</ele>
        <time>2022-08-26T09:25:47.000Z</time>
      </trkpt>
      <trkpt lat="40.20210617221891880035400390625" lon="-1.42815417610108852386474609375">
        <ele>1536.5999755859375</ele>
        <time>2022-08-26T09:25:56.000Z</time>
      </trkpt>
      <trkpt lat="40.20213760435581207275390625" lon="-1.42816423438489437103271484375">
        <ele>1536.800048828125</ele>
        <time>2022-08-26T09:25:58.000Z</time>
      </trkpt>
      <trkpt lat="40.20224330015480518341064453125" lon="-1.42818016000092029571533203125">
        <ele>1537.5999755859375</ele>
        <time>2022-08-26T09:26:04.000Z</time>
      </trkpt>
      <trkpt lat="40.202367268502712249755859375" lon="-1.42819155938923358917236328125">
        <ele>1538.800048828125</ele>
        <time>2022-08-26T09:26:11.000Z</time>
      </trkpt>
      <trkpt lat="40.20250800065696239471435546875" lon="-1.4281835965812206268310546875">
        <ele>1540</ele>
        <time>2022-08-26T09:26:19.000Z</time>
      </trkpt>
      <trkpt lat="40.20260430872440338134765625" lon="-1.42816591076552867889404296875">
        <ele>1540.800048828125</ele>
        <time>2022-08-26T09:26:24.000Z</time>
      </trkpt>
      <trkpt lat="40.2027203142642974853515625" lon="-1.428156606853008270263671875">
        <ele>1541.800048828125</ele>
        <time>2022-08-26T09:26:30.000Z</time>
      </trkpt>
      <trkpt lat="40.20280949771404266357421875" lon="-1.428163312375545501708984375">
        <ele>1542.5999755859375</ele>
        <time>2022-08-26T09:26:35.000Z</time>
      </trkpt>
      <trkpt lat="40.20283891819417476654052734375" lon="-1.42814814113080501556396484375">
        <ele>1543</ele>
        <time>2022-08-26T09:26:37.000Z</time>
      </trkpt>
      <trkpt lat="40.20288703031837940216064453125" lon="-1.42807588912546634674072265625">
        <ele>1543.800048828125</ele>
        <time>2022-08-26T09:26:41.000Z</time>
      </trkpt>
      <trkpt lat="40.20289071835577487945556640625" lon="-1.428034566342830657958984375">
        <ele>1544</ele>
        <time>2022-08-26T09:26:43.000Z</time>
      </trkpt>
      <trkpt lat="40.20284947939217090606689453125" lon="-1.4279294572770595550537109375">
        <ele>1544.800048828125</ele>
        <time>2022-08-26T09:26:48.000Z</time>
      </trkpt>
      <trkpt lat="40.20282232202589511871337890625" lon="-1.4278909005224704742431640625">
        <ele>1545.199951171875</ele>
        <time>2022-08-26T09:26:50.000Z</time>
      </trkpt>
      <trkpt lat="40.20271436311304569244384765625" lon="-1.427765004336833953857421875">
        <ele>1545.5999755859375</ele>
        <time>2022-08-26T09:26:55.000Z</time>
      </trkpt>
      <trkpt lat="40.2025759778916835784912109375" lon="-1.42755973152816295623779296875">
        <ele>1545.5999755859375</ele>
        <time>2022-08-26T09:27:03.000Z</time>
      </trkpt>
      <trkpt lat="40.2024297975003719329833984375" lon="-1.4272763393819332122802734375">
        <ele>1545.4000244140625</ele>
        <time>2022-08-26T09:27:11.000Z</time>
      </trkpt>
      <trkpt lat="40.2022229321300983428955078125" lon="-1.42704826779663562774658203125">
        <ele>1545.5999755859375</ele>
        <time>2022-08-26T09:27:20.000Z</time>
      </trkpt>
      <trkpt lat="40.2020569704473018646240234375" lon="-1.42696193419396877288818359375">
        <ele>1546</ele>
        <time>2022-08-26T09:27:27.000Z</time>
      </trkpt>
      <trkpt lat="40.202040039002895355224609375" lon="-1.426955647766590118408203125">
        <ele>1546.199951171875</ele>
        <time>2022-08-26T09:27:28.000Z</time>
      </trkpt>
      <trkpt lat="40.2020301483571529388427734375" lon="-1.4269460923969745635986328125">
        <ele>1546.5999755859375</ele>
        <time>2022-08-26T09:27:29.000Z</time>
      </trkpt>
      <trkpt lat="40.202036686241626739501953125" lon="-1.42693578265607357025146484375">
        <ele>1546.5999755859375</ele>
        <time>2022-08-26T09:27:32.000Z</time>
      </trkpt>
      <trkpt lat="40.2021116204559803009033203125" lon="-1.42698892392218112945556640625">
        <ele>1546.800048828125</ele>
        <time>2022-08-26T09:27:36.000Z</time>
      </trkpt>
      <trkpt lat="40.20217959769070148468017578125" lon="-1.42702228389680385589599609375">
        <ele>1546.800048828125</ele>
        <time>2022-08-26T09:27:38.000Z</time>
      </trkpt>
      <trkpt lat="40.20246759988367557525634765625" lon="-1.427222527563571929931640625">
        <ele>1546.5999755859375</ele>
        <time>2022-08-26T09:27:46.000Z</time>
      </trkpt>
      <trkpt lat="40.20261704921722412109375" lon="-1.42755034379661083221435546875">
        <ele>1546.199951171875</ele>
        <time>2022-08-26T09:27:54.000Z</time>
      </trkpt>
      <trkpt lat="40.20285165868699550628662109375" lon="-1.4279277808964252471923828125">
        <ele>1546.199951171875</ele>
        <time>2022-08-26T09:28:03.000Z</time>
      </trkpt>
      <trkpt lat="40.20302164368331432342529296875" lon="-1.42813037149608135223388671875">
        <ele>1546.5999755859375</ele>
        <time>2022-08-26T09:28:10.000Z</time>
      </trkpt>
      <trkpt lat="40.2032522298395633697509765625" lon="-1.42822290770709514617919921875">
        <ele>1546.800048828125</ele>
        <time>2022-08-26T09:28:18.000Z</time>
      </trkpt>
      <trkpt lat="40.2033377252519130706787109375" lon="-1.428267247974872589111328125">
        <ele>1547</ele>
        <time>2022-08-26T09:28:22.000Z</time>
      </trkpt>
      <trkpt lat="40.2034445106983184814453125" lon="-1.42836146056652069091796875">
        <ele>1547.5999755859375</ele>
        <time>2022-08-26T09:28:28.000Z</time>
      </trkpt>
      <trkpt lat="40.20347326062619686126708984375" lon="-1.42839959822595119476318359375">
        <ele>1548</ele>
        <time>2022-08-26T09:28:30.000Z</time>
      </trkpt>
      <trkpt lat="40.20359479822218418121337890625" lon="-1.4285306073725223541259765625">
        <ele>1549.199951171875</ele>
        <time>2022-08-26T09:28:37.000Z</time>
      </trkpt>
      <trkpt lat="40.20364341326057910919189453125" lon="-1.42859975807368755340576171875">
        <ele>1549.4000244140625</ele>
        <time>2022-08-26T09:28:40.000Z</time>
      </trkpt>
      <trkpt lat="40.20373360253870487213134765625" lon="-1.42872280441224575042724609375">
        <ele>1550.199951171875</ele>
        <time>2022-08-26T09:28:45.000Z</time>
      </trkpt>
      <trkpt lat="40.20385899581015110015869140625" lon="-1.42887149937450885772705078125">
        <ele>1551</ele>
        <time>2022-08-26T09:28:51.000Z</time>
      </trkpt>
      <trkpt lat="40.203920938074588775634765625" lon="-1.42894106917083263397216796875">
        <ele>1551.4000244140625</ele>
        <time>2022-08-26T09:28:54.000Z</time>
      </trkpt>
      <trkpt lat="40.2040994726121425628662109375" lon="-1.4291330985724925994873046875">
        <ele>1552.4000244140625</ele>
        <time>2022-08-26T09:29:02.000Z</time>
      </trkpt>
      <trkpt lat="40.20412101410329341888427734375" lon="-1.429156400263309478759765625">
        <ele>1552.4000244140625</ele>
        <time>2022-08-26T09:29:03.000Z</time>
      </trkpt>
      <trkpt lat="40.2042986266314983367919921875" lon="-1.42946183681488037109375">
        <ele>1553.199951171875</ele>
        <time>2022-08-26T09:29:13.000Z</time>
      </trkpt>
      <trkpt lat="40.20431228913366794586181640625" lon="-1.42948790453374385833740234375">
        <ele>1553.199951171875</ele>
        <time>2022-08-26T09:29:14.000Z</time>
      </trkpt>
      <trkpt lat="40.20435235463082790374755859375" lon="-1.4295689575374126434326171875">
        <ele>1553.5999755859375</ele>
        <time>2022-08-26T09:29:17.000Z</time>
      </trkpt>
      <trkpt lat="40.2044531889259815216064453125" lon="-1.42977096140384674072265625">
        <ele>1554.4000244140625</ele>
        <time>2022-08-26T09:29:24.000Z</time>
      </trkpt>
      <trkpt lat="40.204466767609119415283203125" lon="-1.429799459874629974365234375">
        <ele>1554.5999755859375</ele>
        <time>2022-08-26T09:29:25.000Z</time>
      </trkpt>
      <trkpt lat="40.2045420370995998382568359375" lon="-1.42999165691435337066650390625">
        <ele>1555.800048828125</ele>
        <time>2022-08-26T09:29:32.000Z</time>
      </trkpt>
      <trkpt lat="40.20456634461879730224609375" lon="-1.4300507493317127227783203125">
        <ele>1555.800048828125</ele>
        <time>2022-08-26T09:29:34.000Z</time>
      </trkpt>
      <trkpt lat="40.20459626801311969757080078125" lon="-1.43014647066593170166015625">
        <ele>1556.5999755859375</ele>
        <time>2022-08-26T09:29:37.000Z</time>
      </trkpt>
      <trkpt lat="40.20468411035835742950439453125" lon="-1.43039281480014324188232421875">
        <ele>1557.800048828125</ele>
        <time>2022-08-26T09:29:45.000Z</time>
      </trkpt>
      <trkpt lat="40.20473406650125980377197265625" lon="-1.43050781451165676116943359375">
        <ele>1558.5999755859375</ele>
        <time>2022-08-26T09:29:49.000Z</time>
      </trkpt>
      <trkpt lat="40.20474730990827083587646484375" lon="-1.43053539097309112548828125">
        <ele>1558.800048828125</ele>
        <time>2022-08-26T09:29:50.000Z</time>
      </trkpt>
      <trkpt lat="40.2048434503376483917236328125" lon="-1.430732868611812591552734375">
        <ele>1559.800048828125</ele>
        <time>2022-08-26T09:29:57.000Z</time>
      </trkpt>
      <trkpt lat="40.2048984356224536895751953125" lon="-1.4307947270572185516357421875">
        <ele>1560.4000244140625</ele>
        <time>2022-08-26T09:30:00.000Z</time>
      </trkpt>
      <trkpt lat="40.2049856074154376983642578125" lon="-1.43086262047290802001953125">
        <ele>1561</ele>
        <time>2022-08-26T09:30:04.000Z</time>
      </trkpt>
      <trkpt lat="40.20509465597569942474365234375" lon="-1.4308989979326725006103515625">
        <ele>1561</ele>
        <time>2022-08-26T09:30:08.000Z</time>
      </trkpt>
      <trkpt lat="40.2052568458020687103271484375" lon="-1.4308839105069637298583984375">
        <ele>1561.4000244140625</ele>
        <time>2022-08-26T09:30:14.000Z</time>
      </trkpt>
      <trkpt lat="40.20533706061542034149169921875" lon="-1.43085985444486141204833984375">
        <ele>1561.5999755859375</ele>
        <time>2022-08-26T09:30:17.000Z</time>
      </trkpt>
      <trkpt lat="40.20547854714095592498779296875" lon="-1.43080671317875385284423828125">
        <ele>1562</ele>
        <time>2022-08-26T09:30:22.000Z</time>
      </trkpt>
      <trkpt lat="40.2056809701025485992431640625" lon="-1.4307390712201595306396484375">
        <ele>1562.4000244140625</ele>
        <time>2022-08-26T09:30:29.000Z</time>
      </trkpt>
      <trkpt lat="40.20585807971656322479248046875" lon="-1.43068266101181507110595703125">
        <ele>1563</ele>
        <time>2022-08-26T09:30:36.000Z</time>
      </trkpt>
      <trkpt lat="40.20588993094861507415771484375" lon="-1.43067277036607265472412109375">
        <ele>1563.199951171875</ele>
        <time>2022-08-26T09:30:37.000Z</time>
      </trkpt>
      <trkpt lat="40.20622537471354007720947265625" lon="-1.43059163354337215423583984375">
        <ele>1564</ele>
        <time>2022-08-26T09:30:48.000Z</time>
      </trkpt>
      <trkpt lat="40.20652678795158863067626953125" lon="-1.430584676563739776611328125">
        <ele>1564.800048828125</ele>
        <time>2022-08-26T09:30:57.000Z</time>
      </trkpt>
      <trkpt lat="40.20666575990617275238037109375" lon="-1.43064812757074832916259765625">
        <ele>1565</ele>
        <time>2022-08-26T09:31:01.000Z</time>
      </trkpt>
      <trkpt lat="40.2067662589251995086669921875" lon="-1.43073521554470062255859375">
        <ele>1565.199951171875</ele>
        <time>2022-08-26T09:31:04.000Z</time>
      </trkpt>
      <trkpt lat="40.20697169937193393707275390625" lon="-1.43102631904184818267822265625">
        <ele>1565.800048828125</ele>
        <time>2022-08-26T09:31:13.000Z</time>
      </trkpt>
      <trkpt lat="40.20699030719697475433349609375" lon="-1.431056745350360870361328125">
        <ele>1566</ele>
        <time>2022-08-26T09:31:14.000Z</time>
      </trkpt>
      <trkpt lat="40.20714084617793560028076171875" lon="-1.431314907968044281005859375">
        <ele>1567</ele>
        <time>2022-08-26T09:31:22.000Z</time>
      </trkpt>
      <trkpt lat="40.2071602083742618560791015625" lon="-1.43134701065719127655029296875">
        <ele>1567.199951171875</ele>
        <time>2022-08-26T09:31:23.000Z</time>
      </trkpt>
      <trkpt lat="40.20726959221065044403076171875" lon="-1.43153241835534572601318359375">
        <ele>1568.199951171875</ele>
        <time>2022-08-26T09:31:29.000Z</time>
      </trkpt>
      <trkpt lat="40.2074143476784229278564453125" lon="-1.431746743619441986083984375">
        <ele>1569.4000244140625</ele>
        <time>2022-08-26T09:31:36.000Z</time>
      </trkpt>
      <trkpt lat="40.2075528167188167572021484375" lon="-1.4319531060755252838134765625">
        <ele>1570.4000244140625</ele>
        <time>2022-08-26T09:31:43.000Z</time>
      </trkpt>
      <trkpt lat="40.2076716721057891845703125" lon="-1.43213675357401371002197265625">
        <ele>1571.199951171875</ele>
        <time>2022-08-26T09:31:49.000Z</time>
      </trkpt>
      <trkpt lat="40.20773109979927539825439453125" lon="-1.43223591148853302001953125">
        <ele>1571.4000244140625</ele>
        <time>2022-08-26T09:31:52.000Z</time>
      </trkpt>
      <trkpt lat="40.20788465626537799835205078125" lon="-1.43251796253025531768798828125">
        <ele>1571.800048828125</ele>
        <time>2022-08-26T09:32:01.000Z</time>
      </trkpt>
      <trkpt lat="40.2079774439334869384765625" lon="-1.43265626393258571624755859375">
        <ele>1572.4000244140625</ele>
        <time>2022-08-26T09:32:06.000Z</time>
      </trkpt>
      <trkpt lat="40.20809889771044254302978515625" lon="-1.43281501717865467071533203125">
        <ele>1573.5999755859375</ele>
        <time>2022-08-26T09:32:12.000Z</time>
      </trkpt>
      <trkpt lat="40.208144746720790863037109375" lon="-1.43285726197063922882080078125">
        <ele>1574</ele>
        <time>2022-08-26T09:32:14.000Z</time>
      </trkpt>
      <trkpt lat="40.208216495811939239501953125" lon="-1.4329197071492671966552734375">
        <ele>1574.5999755859375</ele>
        <time>2022-08-26T09:32:17.000Z</time>
      </trkpt>
      <trkpt lat="40.208387486636638641357421875" lon="-1.43307200632989406585693359375">
        <ele>1575.199951171875</ele>
        <time>2022-08-26T09:32:24.000Z</time>
      </trkpt>
      <trkpt lat="40.20846493542194366455078125" lon="-1.4331297576427459716796875">
        <ele>1575.800048828125</ele>
        <time>2022-08-26T09:32:27.000Z</time>
      </trkpt>
      <trkpt lat="40.20849083550274372100830078125" lon="-1.433148868381977081298828125">
        <ele>1576</ele>
        <time>2022-08-26T09:32:28.000Z</time>
      </trkpt>
      <trkpt lat="40.2086645923554897308349609375" lon="-1.433290354907512664794921875">
        <ele>1577</ele>
        <time>2022-08-26T09:32:35.000Z</time>
      </trkpt>
      <trkpt lat="40.208762325346469879150390625" lon="-1.43336637876927852630615234375">
        <ele>1577.4000244140625</ele>
        <time>2022-08-26T09:32:39.000Z</time>
      </trkpt>
      <trkpt lat="40.208901800215244293212890625" lon="-1.43344935961067676544189453125">
        <ele>1578</ele>
        <time>2022-08-26T09:32:45.000Z</time>
      </trkpt>
      <trkpt lat="40.20899961702525615692138671875" lon="-1.4334650337696075439453125">
        <ele>1579.199951171875</ele>
        <time>2022-08-26T09:32:49.000Z</time>
      </trkpt>
      <trkpt lat="40.20918938331305980682373046875" lon="-1.433439888060092926025390625">
        <ele>1580.199951171875</ele>
        <time>2022-08-26T09:32:57.000Z</time>
      </trkpt>
      <trkpt lat="40.2092291973531246185302734375" lon="-1.43342136405408382415771484375">
        <ele>1580.5999755859375</ele>
        <time>2022-08-26T09:32:59.000Z</time>
      </trkpt>
      <trkpt lat="40.20932634361088275909423828125" lon="-1.4333857409656047821044921875">
        <ele>1581.4000244140625</ele>
        <time>2022-08-26T09:33:04.000Z</time>
      </trkpt>
      <trkpt lat="40.20936188288033008575439453125" lon="-1.4333696477115154266357421875">
        <ele>1581.800048828125</ele>
        <time>2022-08-26T09:33:07.000Z</time>
      </trkpt>
      <trkpt lat="40.20939138717949390411376953125" lon="-1.433355398476123809814453125">
        <ele>1582</ele>
        <time>2022-08-26T09:33:12.000Z</time>
      </trkpt>
      <trkpt lat="40.2094887010753154754638671875" lon="-1.4333240501582622528076171875">
        <ele>1582.4000244140625</ele>
        <time>2022-08-26T09:34:23.000Z</time>
      </trkpt>
      <trkpt lat="40.20950772799551486968994140625" lon="-1.4333196915686130523681640625">
        <ele>1582.4000244140625</ele>
        <time>2022-08-26T09:34:24.000Z</time>
      </trkpt>
      <trkpt lat="40.20961702801287174224853515625" lon="-1.4332905225455760955810546875">
        <ele>1582.5999755859375</ele>
        <time>2022-08-26T09:34:29.000Z</time>
      </trkpt>
      <trkpt lat="40.20968995057046413421630859375" lon="-1.4332653768360614776611328125">
        <ele>1583</ele>
        <time>2022-08-26T09:34:32.000Z</time>
      </trkpt>
      <trkpt lat="40.20987736992537975311279296875" lon="-1.43319077789783477783203125">
        <ele>1583.800048828125</ele>
        <time>2022-08-26T09:34:40.000Z</time>
      </trkpt>
      <trkpt lat="40.2099191956222057342529296875" lon="-1.4331711642444133758544921875">
        <ele>1583.800048828125</ele>
        <time>2022-08-26T09:34:42.000Z</time>
      </trkpt>
      <trkpt lat="40.2100761048495769500732421875" lon="-1.433087177574634552001953125">
        <ele>1584.5999755859375</ele>
        <time>2022-08-26T09:34:49.000Z</time>
      </trkpt>
      <trkpt lat="40.2100978977978229522705078125" lon="-1.43307200632989406585693359375">
        <ele>1584.800048828125</ele>
        <time>2022-08-26T09:34:50.000Z</time>
      </trkpt>
      <trkpt lat="40.21026310510933399200439453125" lon="-1.4329539053142070770263671875">
        <ele>1585.800048828125</ele>
        <time>2022-08-26T09:34:57.000Z</time>
      </trkpt>
      <trkpt lat="40.21035882644355297088623046875" lon="-1.432887017726898193359375">
        <ele>1586.199951171875</ele>
        <time>2022-08-26T09:35:01.000Z</time>
      </trkpt>
      <trkpt lat="40.21047768183052539825439453125" lon="-1.4328526519238948822021484375">
        <ele>1586.800048828125</ele>
        <time>2022-08-26T09:35:06.000Z</time>
      </trkpt>
      <trkpt lat="40.2105589024722576141357421875" lon="-1.43286061473190784454345703125">
        <ele>1587.4000244140625</ele>
        <time>2022-08-26T09:35:09.000Z</time>
      </trkpt>
      <trkpt lat="40.210692845284938812255859375" lon="-1.43295030109584331512451171875">
        <ele>1588</ele>
        <time>2022-08-26T09:35:15.000Z</time>
      </trkpt>
      <trkpt lat="40.21071639843285083770751953125" lon="-1.43297393806278705596923828125">
        <ele>1588</ele>
        <time>2022-08-26T09:35:16.000Z</time>
      </trkpt>
      <trkpt lat="40.2108827792108058929443359375" lon="-1.43321651034057140350341796875">
        <ele>1589</ele>
        <time>2022-08-26T09:35:25.000Z</time>
      </trkpt>
      <trkpt lat="40.210902392864227294921875" lon="-1.433246098458766937255859375">
        <ele>1589.199951171875</ele>
        <time>2022-08-26T09:35:26.000Z</time>
      </trkpt>
      <trkpt lat="40.21108000539243221282958984375" lon="-1.433542482554912567138671875">
        <ele>1589.5999755859375</ele>
        <time>2022-08-26T09:35:34.000Z</time>
      </trkpt>
      <trkpt lat="40.21126516163349151611328125" lon="-1.43380089662969112396240234375">
        <ele>1589.800048828125</ele>
        <time>2022-08-26T09:35:42.000Z</time>
      </trkpt>
      <trkpt lat="40.2113957516849040985107421875" lon="-1.43393685109913349151611328125">
        <ele>1589.800048828125</ele>
        <time>2022-08-26T09:35:47.000Z</time>
      </trkpt>
      <trkpt lat="40.2115166187286376953125" lon="-1.43401832319796085357666015625">
        <ele>1590</ele>
        <time>2022-08-26T09:35:51.000Z</time>
      </trkpt>
      <trkpt lat="40.2115486375987529754638671875" lon="-1.43403324298560619354248046875">
        <ele>1590</ele>
        <time>2022-08-26T09:35:52.000Z</time>
      </trkpt>
      <trkpt lat="40.21180017851293087005615234375" lon="-1.434093005955219268798828125">
        <ele>1590.199951171875</ele>
        <time>2022-08-26T09:35:59.000Z</time>
      </trkpt>
      <trkpt lat="40.21216370165348052978515625" lon="-1.434233821928501129150390625">
        <ele>1590.199951171875</ele>
        <time>2022-08-26T09:36:09.000Z</time>
      </trkpt>
      <trkpt lat="40.21253258921205997467041015625" lon="-1.43446591682732105255126953125">
        <ele>1590.199951171875</ele>
        <time>2022-08-26T09:36:19.000Z</time>
      </trkpt>
      <trkpt lat="40.21262579597532749176025390625" lon="-1.43449927680194377899169921875">
        <ele>1590</ele>
        <time>2022-08-26T09:36:21.000Z</time>
      </trkpt>
      <trkpt lat="40.2127740718424320220947265625" lon="-1.43450246192514896392822265625">
        <ele>1589.800048828125</ele>
        <time>2022-08-26T09:36:24.000Z</time>
      </trkpt>
      <trkpt lat="40.2130305580794811248779296875" lon="-1.434363909065723419189453125">
        <ele>1589.199951171875</ele>
        <time>2022-08-26T09:36:29.000Z</time>
      </trkpt>
      <trkpt lat="40.21308210678398609161376953125" lon="-1.434319317340850830078125">
        <ele>1589.199951171875</ele>
        <time>2022-08-26T09:36:30.000Z</time>
      </trkpt>
      <trkpt lat="40.21318973042070865631103515625" lon="-1.4342272840440273284912109375">
        <ele>1588.5999755859375</ele>
        <time>2022-08-26T09:36:32.000Z</time>
      </trkpt>
      <trkpt lat="40.213421992957592010498046875" lon="-1.43407330848276615142822265625">
        <ele>1588</ele>
        <time>2022-08-26T09:36:36.000Z</time>
      </trkpt>
      <trkpt lat="40.21348142065107822418212890625" lon="-1.43406459130346775054931640625">
        <ele>1587.800048828125</ele>
        <time>2022-08-26T09:36:37.000Z</time>
      </trkpt>
      <trkpt lat="40.213545374572277069091796875" lon="-1.4340596459805965423583984375">
        <ele>1587.5999755859375</ele>
        <time>2022-08-26T09:36:38.000Z</time>
      </trkpt>
      <trkpt lat="40.213611759245395660400390625" lon="-1.434069536626338958740234375">
        <ele>1587.4000244140625</ele>
        <time>2022-08-26T09:36:39.000Z</time>
      </trkpt>
      <trkpt lat="40.21380529738962650299072265625" lon="-1.43417120911180973052978515625">
        <ele>1586.4000244140625</ele>
        <time>2022-08-26T09:36:42.000Z</time>
      </trkpt>
      <trkpt lat="40.2138757891952991485595703125" lon="-1.4342175610363483428955078125">
        <ele>1586.199951171875</ele>
        <time>2022-08-26T09:36:43.000Z</time>
      </trkpt>
      <trkpt lat="40.2140062116086483001708984375" lon="-1.434314288198947906494140625">
        <ele>1585.199951171875</ele>
        <time>2022-08-26T09:36:45.000Z</time>
      </trkpt>
      <trkpt lat="40.21432296372950077056884765625" lon="-1.43455040641129016876220703125">
        <ele>1584.199951171875</ele>
        <time>2022-08-26T09:36:50.000Z</time>
      </trkpt>
      <trkpt lat="40.214388929307460784912109375" lon="-1.434593908488750457763671875">
        <ele>1584</ele>
        <time>2022-08-26T09:36:51.000Z</time>
      </trkpt>
      <trkpt lat="40.21477357484400272369384765625" lon="-1.4348115026950836181640625">
        <ele>1583</ele>
        <time>2022-08-26T09:36:57.000Z</time>
      </trkpt>
      <trkpt lat="40.2148916758596897125244140625" lon="-1.43486707471311092376708984375">
        <ele>1582.800048828125</ele>
        <time>2022-08-26T09:36:59.000Z</time>
      </trkpt>
      <trkpt lat="40.21533667109906673431396484375" lon="-1.43506052903831005096435546875">
        <ele>1582.4000244140625</ele>
        <time>2022-08-26T09:37:07.000Z</time>
      </trkpt>
      <trkpt lat="40.215837992727756500244140625" lon="-1.4352602697908878326416015625">
        <ele>1582</ele>
        <time>2022-08-26T09:37:16.000Z</time>
      </trkpt>
      <trkpt lat="40.2162654697895050048828125" lon="-1.43539345823228359222412109375">
        <ele>1581.5999755859375</ele>
        <time>2022-08-26T09:37:24.000Z</time>
      </trkpt>
      <trkpt lat="40.2166709862649440765380859375" lon="-1.435546092689037322998046875">
        <ele>1581.199951171875</ele>
        <time>2022-08-26T09:37:32.000Z</time>
      </trkpt>
      <trkpt lat="40.2169241197407245635986328125" lon="-1.43568380735814571380615234375">
        <ele>1580.800048828125</ele>
        <time>2022-08-26T09:37:37.000Z</time>
      </trkpt>
      <trkpt lat="40.2170816995203495025634765625" lon="-1.43577508628368377685546875">
        <ele>1580.5999755859375</ele>
        <time>2022-08-26T09:37:40.000Z</time>
      </trkpt>
      <trkpt lat="40.21755603142082691192626953125" lon="-1.4360515214502811431884765625">
        <ele>1580</ele>
        <time>2022-08-26T09:37:48.000Z</time>
      </trkpt>
      <trkpt lat="40.21768796257674694061279296875" lon="-1.43610508181154727935791015625">
        <ele>1579.5999755859375</ele>
        <time>2022-08-26T09:37:50.000Z</time>
      </trkpt>
      <trkpt lat="40.2180184610188007354736328125" lon="-1.43617431633174419403076171875">
        <ele>1578.800048828125</ele>
        <time>2022-08-26T09:37:55.000Z</time>
      </trkpt>
      <trkpt lat="40.21808593533933162689208984375" lon="-1.4361832849681377410888671875">
        <ele>1578.5999755859375</ele>
        <time>2022-08-26T09:37:56.000Z</time>
      </trkpt>
      <trkpt lat="40.2185612730681896209716796875" lon="-1.4363271184265613555908203125">
        <ele>1577.800048828125</ele>
        <time>2022-08-26T09:38:03.000Z</time>
      </trkpt>
      <trkpt lat="40.21869664080440998077392578125" lon="-1.43639392219483852386474609375">
        <ele>1577.5999755859375</ele>
        <time>2022-08-26T09:38:05.000Z</time>
      </trkpt>
      <trkpt lat="40.2187590859830379486083984375" lon="-1.436438597738742828369140625">
        <ele>1577.199951171875</ele>
        <time>2022-08-26T09:38:06.000Z</time>
      </trkpt>
      <trkpt lat="40.2188737504184246063232421875" lon="-1.4365510828793048858642578125">
        <ele>1577</ele>
        <time>2022-08-26T09:38:08.000Z</time>
      </trkpt>
      <trkpt lat="40.21901481784880161285400390625" lon="-1.43676121719181537628173828125">
        <ele>1576.5999755859375</ele>
        <time>2022-08-26T09:38:11.000Z</time>
      </trkpt>
      <trkpt lat="40.2190588228404521942138671875" lon="-1.4368360675871372222900390625">
        <ele>1576.4000244140625</ele>
        <time>2022-08-26T09:38:12.000Z</time>
      </trkpt>
      <trkpt lat="40.21910383366048336029052734375" lon="-1.436913013458251953125">
        <ele>1576.4000244140625</ele>
        <time>2022-08-26T09:38:13.000Z</time>
      </trkpt>
      <trkpt lat="40.21928689442574977874755859375" lon="-1.43722213804721832275390625">
        <ele>1575.4000244140625</ele>
        <time>2022-08-26T09:38:17.000Z</time>
      </trkpt>
      <trkpt lat="40.2194799296557903289794921875" lon="-1.43749983049929141998291015625">
        <ele>1574.4000244140625</ele>
        <time>2022-08-26T09:38:21.000Z</time>
      </trkpt>
      <trkpt lat="40.2198167145252227783203125" lon="-1.43779336474835872650146484375">
        <ele>1573.199951171875</ele>
        <time>2022-08-26T09:38:27.000Z</time>
      </trkpt>
      <trkpt lat="40.2202648110687732696533203125" lon="-1.43799017183482646942138671875">
        <ele>1572.800048828125</ele>
        <time>2022-08-26T09:38:33.000Z</time>
      </trkpt>
      <trkpt lat="40.22043295204639434814453125" lon="-1.43806208856403827667236328125">
        <ele>1572.199951171875</ele>
        <time>2022-08-26T09:38:35.000Z</time>
      </trkpt>
      <trkpt lat="40.22075959481298923492431640625" lon="-1.4382375217974185943603515625">
        <ele>1571</ele>
        <time>2022-08-26T09:38:39.000Z</time>
      </trkpt>
      <trkpt lat="40.22097744047641754150390625" lon="-1.438407339155673980712890625">
        <ele>1569.800048828125</ele>
        <time>2022-08-26T09:38:42.000Z</time>
      </trkpt>
      <trkpt lat="40.2211093716323375701904296875" lon="-1.43852912820875644683837890625">
        <ele>1568.800048828125</ele>
        <time>2022-08-26T09:38:44.000Z</time>
      </trkpt>
      <trkpt lat="40.221170224249362945556640625" lon="-1.43859266303479671478271484375">
        <ele>1568.4000244140625</ele>
        <time>2022-08-26T09:38:45.000Z</time>
      </trkpt>
      <trkpt lat="40.221380107104778289794921875" lon="-1.43886188976466655731201171875">
        <ele>1567.5999755859375</ele>
        <time>2022-08-26T09:38:49.000Z</time>
      </trkpt>
      <trkpt lat="40.2214795164763927459716796875" lon="-1.4389965869486331939697265625">
        <ele>1567.4000244140625</ele>
        <time>2022-08-26T09:38:51.000Z</time>
      </trkpt>
      <trkpt lat="40.2218449674546718597412109375" lon="-1.43954333849251270294189453125">
        <ele>1567</ele>
        <time>2022-08-26T09:38:59.000Z</time>
      </trkpt>
      <trkpt lat="40.22200070321559906005859375" lon="-1.43974165432155132293701171875">
        <ele>1566.5999755859375</ele>
        <time>2022-08-26T09:39:02.000Z</time>
      </trkpt>
      <trkpt lat="40.22206130437552928924560546875" lon="-1.4398039318621158599853515625">
        <ele>1566.5999755859375</ele>
        <time>2022-08-26T09:39:03.000Z</time>
      </trkpt>
      <trkpt lat="40.222371183335781097412109375" lon="-1.44013895653188228607177734375">
        <ele>1565.4000244140625</ele>
        <time>2022-08-26T09:39:08.000Z</time>
      </trkpt>
      <trkpt lat="40.22243564017117023468017578125" lon="-1.44021087326109409332275390625">
        <ele>1564.800048828125</ele>
        <time>2022-08-26T09:39:09.000Z</time>
      </trkpt>
      <trkpt lat="40.22256639786064624786376953125" lon="-1.440357975661754608154296875">
        <ele>1564</ele>
        <time>2022-08-26T09:39:11.000Z</time>
      </trkpt>
      <trkpt lat="40.2227766998112201690673828125" lon="-1.44055319018661975860595703125">
        <ele>1563</ele>
        <time>2022-08-26T09:39:14.000Z</time>
      </trkpt>
      <trkpt lat="40.22292380221188068389892578125" lon="-1.44065679050981998443603515625">
        <ele>1562.4000244140625</ele>
        <time>2022-08-26T09:39:16.000Z</time>
      </trkpt>
      <trkpt lat="40.2229976467788219451904296875" lon="-1.440699286758899688720703125">
        <ele>1561.800048828125</ele>
        <time>2022-08-26T09:39:17.000Z</time>
      </trkpt>
      <trkpt lat="40.22330182604491710662841796875" lon="-1.44081495702266693115234375">
        <ele>1560.800048828125</ele>
        <time>2022-08-26T09:39:21.000Z</time>
      </trkpt>
      <trkpt lat="40.2238831110298633575439453125" lon="-1.440950073301792144775390625">
        <ele>1559.800048828125</ele>
        <time>2022-08-26T09:39:28.000Z</time>
      </trkpt>
      <trkpt lat="40.223955027759075164794921875" lon="-1.44096658565104007720947265625">
        <ele>1559.5999755859375</ele>
        <time>2022-08-26T09:39:29.000Z</time>
      </trkpt>
      <trkpt lat="40.224046222865581512451171875" lon="-1.44098661839962005615234375">
        <ele>1559</ele>
        <time>2022-08-26T09:39:32.000Z</time>
      </trkpt>
      <trkpt lat="40.22403708659112453460693359375" lon="-1.44098921678960323333740234375">
        <ele>1558.4000244140625</ele>
        <time>2022-08-26T09:39:33.000Z</time>
      </trkpt>
      <trkpt lat="40.22401864640414714813232421875" lon="-1.44097949378192424774169921875">
        <ele>1558</ele>
        <time>2022-08-26T09:39:34.000Z</time>
      </trkpt>
      <trkpt lat="40.22399903275072574615478515625" lon="-1.44096792675554752349853515625">
        <ele>1557.5999755859375</ele>
        <time>2022-08-26T09:39:35.000Z</time>
      </trkpt>
      <trkpt lat="40.22397807799279689788818359375" lon="-1.44095166586339473724365234375">
        <ele>1557.199951171875</ele>
        <time>2022-08-26T09:39:36.000Z</time>
      </trkpt>
      <trkpt lat="40.22388285957276821136474609375" lon="-1.44089517183601856231689453125">
        <ele>1556</ele>
        <time>2022-08-26T09:39:40.000Z</time>
      </trkpt>
      <trkpt lat="40.22384681738913059234619140625" lon="-1.44088762812316417694091796875">
        <ele>1556</ele>
        <time>2022-08-26T09:39:42.000Z</time>
      </trkpt>
      <trkpt lat="40.22379417903721332550048828125" lon="-1.44085695035755634307861328125">
        <ele>1556.199951171875</ele>
        <time>2022-08-26T09:39:48.000Z</time>
      </trkpt>
      <trkpt lat="40.2238871343433856964111328125" lon="-1.4408825151622295379638671875">
        <ele>1556.5999755859375</ele>
        <time>2022-08-26T09:44:40.000Z</time>
      </trkpt>
      <trkpt lat="40.22391923703253269195556640625" lon="-1.44089265726506710052490234375">
        <ele>1556.5999755859375</ele>
        <time>2022-08-26T09:44:41.000Z</time>
      </trkpt>
      <trkpt lat="40.22415661253035068511962890625" lon="-1.4409753866493701934814453125">
        <ele>1556.4000244140625</ele>
        <time>2022-08-26T09:44:46.000Z</time>
      </trkpt>
      <trkpt lat="40.22456263191998004913330078125" lon="-1.441067419946193695068359375">
        <ele>1555.4000244140625</ele>
        <time>2022-08-26T09:44:52.000Z</time>
      </trkpt>
      <trkpt lat="40.22471845149993896484375" lon="-1.44108879379928112030029296875">
        <ele>1554.5999755859375</ele>
        <time>2022-08-26T09:44:54.000Z</time>
      </trkpt>
      <trkpt lat="40.2250378020107746124267578125" lon="-1.441135816276073455810546875">
        <ele>1553.4000244140625</ele>
        <time>2022-08-26T09:44:58.000Z</time>
      </trkpt>
      <trkpt lat="40.22521139122545719146728515625" lon="-1.44116188399493694305419921875">
        <ele>1552.800048828125</ele>
        <time>2022-08-26T09:45:00.000Z</time>
      </trkpt>
      <trkpt lat="40.2253988943994045257568359375" lon="-1.441179402172565460205078125">
        <ele>1552.4000244140625</ele>
        <time>2022-08-26T09:45:02.000Z</time>
      </trkpt>
      <trkpt lat="40.22568404674530029296875" lon="-1.44116708077490329742431640625">
        <ele>1551.199951171875</ele>
        <time>2022-08-26T09:45:05.000Z</time>
      </trkpt>
      <trkpt lat="40.2258666045963764190673828125" lon="-1.4410851895809173583984375">
        <ele>1550</ele>
        <time>2022-08-26T09:45:07.000Z</time>
      </trkpt>
      <trkpt lat="40.22596123628318309783935546875" lon="-1.4410206489264965057373046875">
        <ele>1549.4000244140625</ele>
        <time>2022-08-26T09:45:08.000Z</time>
      </trkpt>
      <trkpt lat="40.226059891283512115478515625" lon="-1.4409483969211578369140625">
        <ele>1548.800048828125</ele>
        <time>2022-08-26T09:45:09.000Z</time>
      </trkpt>
      <trkpt lat="40.22624529898166656494140625" lon="-1.44078955985605716705322265625">
        <ele>1547.4000244140625</ele>
        <time>2022-08-26T09:45:11.000Z</time>
      </trkpt>
      <trkpt lat="40.22642810828983783721923828125" lon="-1.44064388237893581390380859375">
        <ele>1546.199951171875</ele>
        <time>2022-08-26T09:45:13.000Z</time>
      </trkpt>
      <trkpt lat="40.226518549025058746337890625" lon="-1.44058085046708583831787109375">
        <ele>1545.800048828125</ele>
        <time>2022-08-26T09:45:14.000Z</time>
      </trkpt>
      <trkpt lat="40.226711332798004150390625" lon="-1.44049032591283321380615234375">
        <ele>1544.800048828125</ele>
        <time>2022-08-26T09:45:16.000Z</time>
      </trkpt>
      <trkpt lat="40.226907469332218170166015625" lon="-1.4404392801225185394287109375">
        <ele>1543.800048828125</ele>
        <time>2022-08-26T09:45:18.000Z</time>
      </trkpt>
      <trkpt lat="40.2270075492560863494873046875" lon="-1.44042226485908031463623046875">
        <ele>1543.4000244140625</ele>
        <time>2022-08-26T09:45:19.000Z</time>
      </trkpt>
      <trkpt lat="40.22749520838260650634765625" lon="-1.44030055962502956390380859375">
        <ele>1542</ele>
        <time>2022-08-26T09:45:24.000Z</time>
      </trkpt>
      <trkpt lat="40.22758497856557369232177734375" lon="-1.4402669481933116912841796875">
        <ele>1541.800048828125</ele>
        <time>2022-08-26T09:45:25.000Z</time>
      </trkpt>
      <trkpt lat="40.22774993441998958587646484375" lon="-1.4401693828403949737548828125">
        <ele>1540.800048828125</ele>
        <time>2022-08-26T09:45:27.000Z</time>
      </trkpt>
      <trkpt lat="40.22787163965404033660888671875" lon="-1.44002814777195453643798828125">
        <ele>1539.5999755859375</ele>
        <time>2022-08-26T09:45:29.000Z</time>
      </trkpt>
      <trkpt lat="40.2279134653508663177490234375" lon="-1.43985263071954250335693359375">
        <ele>1538.5999755859375</ele>
        <time>2022-08-26T09:45:31.000Z</time>
      </trkpt>
      <trkpt lat="40.22788253612816333770751953125" lon="-1.439771912992000579833984375">
        <ele>1538</ele>
        <time>2022-08-26T09:45:32.000Z</time>
      </trkpt>
      <trkpt lat="40.227842219173908233642578125" lon="-1.4396959729492664337158203125">
        <ele>1537.4000244140625</ele>
        <time>2022-08-26T09:45:33.000Z</time>
      </trkpt>
      <trkpt lat="40.22774423472583293914794921875" lon="-1.4395804703235626220703125">
        <ele>1536.4000244140625</ele>
        <time>2022-08-26T09:45:35.000Z</time>
      </trkpt>
      <trkpt lat="40.2276988886296749114990234375" lon="-1.4395360462367534637451171875">
        <ele>1536</ele>
        <time>2022-08-26T09:45:36.000Z</time>
      </trkpt>
      <trkpt lat="40.22746243514120578765869140625" lon="-1.4392594434320926666259765625">
        <ele>1535.800048828125</ele>
        <time>2022-08-26T09:45:42.000Z</time>
      </trkpt>
      <trkpt lat="40.22723578847944736480712890625" lon="-1.4389449544250965118408203125">
        <ele>1535.4000244140625</ele>
        <time>2022-08-26T09:45:48.000Z</time>
      </trkpt>
      <trkpt lat="40.22702104412019252777099609375" lon="-1.43878863193094730377197265625">
        <ele>1535.199951171875</ele>
        <time>2022-08-26T09:45:52.000Z</time>
      </trkpt>
      <trkpt lat="40.22696278989315032958984375" lon="-1.43875996582210063934326171875">
        <ele>1535.199951171875</ele>
        <time>2022-08-26T09:45:53.000Z</time>
      </trkpt>
      <trkpt lat="40.22658451460301876068115234375" lon="-1.4386309683322906494140625">
        <ele>1534.4000244140625</ele>
        <time>2022-08-26T09:45:59.000Z</time>
      </trkpt>
      <trkpt lat="40.2264610491693019866943359375" lon="-1.43860640935599803924560546875">
        <ele>1534</ele>
        <time>2022-08-26T09:46:01.000Z</time>
      </trkpt>
      <trkpt lat="40.2261603064835071563720703125" lon="-1.4384993724524974822998046875">
        <ele>1533</ele>
        <time>2022-08-26T09:46:06.000Z</time>
      </trkpt>
      <trkpt lat="40.226102136075496673583984375" lon="-1.43846224062144756317138671875">
        <ele>1532.800048828125</ele>
        <time>2022-08-26T09:46:07.000Z</time>
      </trkpt>
      <trkpt lat="40.22589535452425479888916015625" lon="-1.43827331252396106719970703125">
        <ele>1532.5999755859375</ele>
        <time>2022-08-26T09:46:11.000Z</time>
      </trkpt>
      <trkpt lat="40.225665606558322906494140625" lon="-1.4378710649907588958740234375">
        <ele>1532</ele>
        <time>2022-08-26T09:46:17.000Z</time>
      </trkpt>
      <trkpt lat="40.22553878836333751678466796875" lon="-1.4374561607837677001953125">
        <ele>1530.800048828125</ele>
        <time>2022-08-26T09:46:22.000Z</time>
      </trkpt>
      <trkpt lat="40.22550978697836399078369140625" lon="-1.43737041391432285308837890625">
        <ele>1530.800048828125</ele>
        <time>2022-08-26T09:46:23.000Z</time>
      </trkpt>
      <trkpt lat="40.22528330795466899871826171875" lon="-1.43684671260416507720947265625">
        <ele>1529.800048828125</ele>
        <time>2022-08-26T09:46:29.000Z</time>
      </trkpt>
      <trkpt lat="40.22524391300976276397705078125" lon="-1.43675149418413639068603515625">
        <ele>1529.4000244140625</ele>
        <time>2022-08-26T09:46:30.000Z</time>
      </trkpt>
      <trkpt lat="40.225167386233806610107421875" lon="-1.4365527592599391937255859375">
        <ele>1528.5999755859375</ele>
        <time>2022-08-26T09:46:32.000Z</time>
      </trkpt>
      <trkpt lat="40.22506336681544780731201171875" lon="-1.4362329058349132537841796875">
        <ele>1527.5999755859375</ele>
        <time>2022-08-26T09:46:35.000Z</time>
      </trkpt>
      <trkpt lat="40.2250002510845661163330078125" lon="-1.4360089413821697235107421875">
        <ele>1526.5999755859375</ele>
        <time>2022-08-26T09:46:37.000Z</time>
      </trkpt>
      <trkpt lat="40.22492372430860996246337890625" lon="-1.43563854508101940155029296875">
        <ele>1525.5999755859375</ele>
        <time>2022-08-26T09:46:40.000Z</time>
      </trkpt>
      <trkpt lat="40.22483571432530879974365234375" lon="-1.43525800667703151702880859375">
        <ele>1524.199951171875</ele>
        <time>2022-08-26T09:46:43.000Z</time>
      </trkpt>
      <trkpt lat="40.22480051033198833465576171875" lon="-1.4351328648626804351806640625">
        <ele>1524</ele>
        <time>2022-08-26T09:46:44.000Z</time>
      </trkpt>
      <trkpt lat="40.22473127581179141998291015625" lon="-1.43488191068172454833984375">
        <ele>1522.800048828125</ele>
        <time>2022-08-26T09:46:46.000Z</time>
      </trkpt>
      <trkpt lat="40.224682576954364776611328125" lon="-1.4346309565007686614990234375">
        <ele>1521.5999755859375</ele>
        <time>2022-08-26T09:46:48.000Z</time>
      </trkpt>
      <trkpt lat="40.2246512286365032196044921875" lon="-1.4343845285475254058837890625">
        <ele>1520.4000244140625</ele>
        <time>2022-08-26T09:46:50.000Z</time>
      </trkpt>
      <trkpt lat="40.224635638296604156494140625" lon="-1.434141956269741058349609375">
        <ele>1519.199951171875</ele>
        <time>2022-08-26T09:46:52.000Z</time>
      </trkpt>
      <trkpt lat="40.22465097717940807342529296875" lon="-1.433785222470760345458984375">
        <ele>1518</ele>
        <time>2022-08-26T09:46:55.000Z</time>
      </trkpt>
      <trkpt lat="40.224706046283245086669921875" lon="-1.4334382116794586181640625">
        <ele>1516.800048828125</ele>
        <time>2022-08-26T09:46:58.000Z</time>
      </trkpt>
      <trkpt lat="40.2247680723667144775390625" lon="-1.43321491777896881103515625">
        <ele>1516.199951171875</ele>
        <time>2022-08-26T09:47:00.000Z</time>
      </trkpt>
      <trkpt lat="40.22480889223515987396240234375" lon="-1.43310519866645336151123046875">
        <ele>1515.800048828125</ele>
        <time>2022-08-26T09:47:01.000Z</time>
      </trkpt>
      <trkpt lat="40.2249787934124469757080078125" lon="-1.4327866025269031524658203125">
        <ele>1515.199951171875</ele>
        <time>2022-08-26T09:47:04.000Z</time>
      </trkpt>
      <trkpt lat="40.22507853806018829345703125" lon="-1.43257177434861660003662109375">
        <ele>1514.4000244140625</ele>
        <time>2022-08-26T09:47:06.000Z</time>
      </trkpt>
      <trkpt lat="40.22518775425851345062255859375" lon="-1.43224798142910003662109375">
        <ele>1513.5999755859375</ele>
        <time>2022-08-26T09:47:09.000Z</time>
      </trkpt>
      <trkpt lat="40.22521943785250186920166015625" lon="-1.43214278854429721832275390625">
        <ele>1513</ele>
        <time>2022-08-26T09:47:10.000Z</time>
      </trkpt>
      <trkpt lat="40.22529789246618747711181640625" lon="-1.4318387769162654876708984375">
        <ele>1512</ele>
        <time>2022-08-26T09:47:13.000Z</time>
      </trkpt>
      <trkpt lat="40.225339718163013458251953125" lon="-1.4316547103226184844970703125">
        <ele>1511.4000244140625</ele>
        <time>2022-08-26T09:47:15.000Z</time>
      </trkpt>
      <trkpt lat="40.225495286285877227783203125" lon="-1.43110779114067554473876953125">
        <ele>1511.199951171875</ele>
        <time>2022-08-26T09:47:22.000Z</time>
      </trkpt>
      <trkpt lat="40.22566317580640316009521484375" lon="-1.43079154193401336669921875">
        <ele>1511.5999755859375</ele>
        <time>2022-08-26T09:47:28.000Z</time>
      </trkpt>
      <trkpt lat="40.22577725350856781005859375" lon="-1.4305885322391986846923828125">
        <ele>1512</ele>
        <time>2022-08-26T09:47:34.000Z</time>
      </trkpt>
      <trkpt lat="40.22582679055631160736083984375" lon="-1.43043346703052520751953125">
        <ele>1513</ele>
        <time>2022-08-26T09:47:39.000Z</time>
      </trkpt>
      <trkpt lat="40.22584724240005016326904296875" lon="-1.430329196155071258544921875">
        <ele>1513.4000244140625</ele>
        <time>2022-08-26T09:47:42.000Z</time>
      </trkpt>
      <trkpt lat="40.22581790573894977569580078125" lon="-1.43009710125625133514404296875">
        <ele>1514</ele>
        <time>2022-08-26T09:47:49.000Z</time>
      </trkpt>
      <trkpt lat="40.22580583579838275909423828125" lon="-1.43006457947194576263427734375">
        <ele>1514</ele>
        <time>2022-08-26T09:47:50.000Z</time>
      </trkpt>
      <trkpt lat="40.22570726461708545684814453125" lon="-1.42994605936110019683837890625">
        <ele>1514.4000244140625</ele>
        <time>2022-08-26T09:47:55.000Z</time>
      </trkpt>
      <trkpt lat="40.2255128882825374603271484375" lon="-1.429905407130718231201171875">
        <ele>1515</ele>
        <time>2022-08-26T09:48:02.000Z</time>
      </trkpt>
      <trkpt lat="40.22548967041075229644775390625" lon="-1.42990733496844768524169921875">
        <ele>1515.199951171875</ele>
        <time>2022-08-26T09:48:03.000Z</time>
      </trkpt>
      <trkpt lat="40.2252771891653537750244140625" lon="-1.42999484203755855560302734375">
        <ele>1516.199951171875</ele>
        <time>2022-08-26T09:48:11.000Z</time>
      </trkpt>
      <trkpt lat="40.22524910978972911834716796875" lon="-1.4300051517784595489501953125">
        <ele>1516.199951171875</ele>
        <time>2022-08-26T09:48:12.000Z</time>
      </trkpt>
      <trkpt lat="40.22502279840409755706787109375" lon="-1.4300577901303768157958984375">
        <ele>1517.4000244140625</ele>
        <time>2022-08-26T09:48:21.000Z</time>
      </trkpt>
      <trkpt lat="40.22499849088490009307861328125" lon="-1.43005435355007648468017578125">
        <ele>1517.5999755859375</ele>
        <time>2022-08-26T09:48:22.000Z</time>
      </trkpt>
      <trkpt lat="40.224830769002437591552734375" lon="-1.42998763360083103179931640625">
        <ele>1518</ele>
        <time>2022-08-26T09:48:30.000Z</time>
      </trkpt>
      <trkpt lat="40.22464410401880741119384765625" lon="-1.42995963804423809051513671875">
        <ele>1518.4000244140625</ele>
        <time>2022-08-26T09:48:38.000Z</time>
      </trkpt>
      <trkpt lat="40.22462381981313228607177734375" lon="-1.42996114678680896759033203125">
        <ele>1518.4000244140625</ele>
        <time>2022-08-26T09:48:39.000Z</time>
      </trkpt>
      <trkpt lat="40.22443388588726520538330078125" lon="-1.4299280382692813873291015625">
        <ele>1519.4000244140625</ele>
        <time>2022-08-26T09:48:49.000Z</time>
      </trkpt>
      <trkpt lat="40.22429055534303188323974609375" lon="-1.42992543987929821014404296875">
        <ele>1520.5999755859375</ele>
        <time>2022-08-26T09:48:56.000Z</time>
      </trkpt>
      <trkpt lat="40.2242369949817657470703125" lon="-1.42992812208831310272216796875">
        <ele>1521</ele>
        <time>2022-08-26T09:48:59.000Z</time>
      </trkpt>
      <trkpt lat="40.22413976490497589111328125" lon="-1.42993549816310405731201171875">
        <ele>1521.5999755859375</ele>
        <time>2022-08-26T09:49:06.000Z</time>
      </trkpt>
      <trkpt lat="40.22408436052501201629638671875" lon="-1.42993818037211894989013671875">
        <ele>1522</ele>
        <time>2022-08-26T09:49:09.000Z</time>
      </trkpt>
      <trkpt lat="40.2240517549216747283935546875" lon="-1.4299340732395648956298828125">
        <ele>1522.4000244140625</ele>
        <time>2022-08-26T09:49:12.000Z</time>
      </trkpt>
      <trkpt lat="40.2239820174872875213623046875" lon="-1.4299186505377292633056640625">
        <ele>1523</ele>
        <time>2022-08-26T09:49:16.000Z</time>
      </trkpt>
      <trkpt lat="40.22388403303921222686767578125" lon="-1.4299129508435726165771484375">
        <ele>1523.5999755859375</ele>
        <time>2022-08-26T09:49:21.000Z</time>
      </trkpt>
      <trkpt lat="40.223820917308330535888671875" lon="-1.42991420812904834747314453125">
        <ele>1523.800048828125</ele>
        <time>2022-08-26T09:49:24.000Z</time>
      </trkpt>
      <trkpt lat="40.2236779220402240753173828125" lon="-1.4298968575894832611083984375">
        <ele>1524.5999755859375</ele>
        <time>2022-08-26T09:49:31.000Z</time>
      </trkpt>
      <trkpt lat="40.223627798259258270263671875" lon="-1.4298948459327220916748046875">
        <ele>1524.800048828125</ele>
        <time>2022-08-26T09:49:33.000Z</time>
      </trkpt>
      <trkpt lat="40.22347667254507541656494140625" lon="-1.42986274324357509613037109375">
        <ele>1525.800048828125</ele>
        <time>2022-08-26T09:49:41.000Z</time>
      </trkpt>
      <trkpt lat="40.2234536223113536834716796875" lon="-1.42986215651035308837890625">
        <ele>1525.800048828125</ele>
        <time>2022-08-26T09:49:42.000Z</time>
      </trkpt>
      <trkpt lat="40.22330693900585174560546875" lon="-1.42987716011703014373779296875">
        <ele>1526.800048828125</ele>
        <time>2022-08-26T09:49:49.000Z</time>
      </trkpt>
      <trkpt lat="40.22317257709801197052001953125" lon="-1.4298485778272151947021484375">
        <ele>1527.800048828125</ele>
        <time>2022-08-26T09:49:57.000Z</time>
      </trkpt>
      <trkpt lat="40.22313821129500865936279296875" lon="-1.42984338104724884033203125">
        <ele>1528</ele>
        <time>2022-08-26T09:49:59.000Z</time>
      </trkpt>
      <trkpt lat="40.2230358682572841644287109375" lon="-1.4298378489911556243896484375">
        <ele>1529</ele>
        <time>2022-08-26T09:50:05.000Z</time>
      </trkpt>
      <trkpt lat="40.22294894792139530181884765625" lon="-1.429804824292659759521484375">
        <ele>1530</ele>
        <time>2022-08-26T09:50:10.000Z</time>
      </trkpt>
      <trkpt lat="40.2229315973818302154541015625" lon="-1.42979568801820278167724609375">
        <ele>1530.199951171875</ele>
        <time>2022-08-26T09:50:11.000Z</time>
      </trkpt>
      <trkpt lat="40.22276488132774829864501953125" lon="-1.42970298416912555694580078125">
        <ele>1531.199951171875</ele>
        <time>2022-08-26T09:50:20.000Z</time>
      </trkpt>
      <trkpt lat="40.22254913114011287689208984375" lon="-1.4295495115220546722412109375">
        <ele>1532.199951171875</ele>
        <time>2022-08-26T09:50:31.000Z</time>
      </trkpt>
      <trkpt lat="40.222529433667659759521484375" lon="-1.42953517846763134002685546875">
        <ele>1532.199951171875</ele>
        <time>2022-08-26T09:50:32.000Z</time>
      </trkpt>
      <trkpt lat="40.2223301120102405548095703125" lon="-1.42939972691237926483154296875">
        <ele>1533</ele>
        <time>2022-08-26T09:50:42.000Z</time>
      </trkpt>
      <trkpt lat="40.2222509868443012237548828125" lon="-1.42932831309735774993896484375">
        <ele>1533.4000244140625</ele>
        <time>2022-08-26T09:50:46.000Z</time>
      </trkpt>
      <trkpt lat="40.22209147922694683074951171875" lon="-1.4292252995073795318603515625">
        <ele>1534.199951171875</ele>
        <time>2022-08-26T09:50:53.000Z</time>
      </trkpt>
      <trkpt lat="40.22204387001693248748779296875" lon="-1.42920023761689662933349609375">
        <ele>1534.4000244140625</ele>
        <time>2022-08-26T09:50:55.000Z</time>
      </trkpt>
      <trkpt lat="40.2218211628496646881103515625" lon="-1.4290670491755008697509765625">
        <ele>1534.800048828125</ele>
        <time>2022-08-26T09:51:03.000Z</time>
      </trkpt>
      <trkpt lat="40.22153290919959545135498046875" lon="-1.42895582132041454315185546875">
        <ele>1535</ele>
        <time>2022-08-26T09:51:12.000Z</time>
      </trkpt>
      <trkpt lat="40.22128966636955738067626953125" lon="-1.4288249798119068145751953125">
        <ele>1535.4000244140625</ele>
        <time>2022-08-26T09:51:20.000Z</time>
      </trkpt>
      <trkpt lat="40.2212418057024478912353515625" lon="-1.42876907251775264739990234375">
        <ele>1535.4000244140625</ele>
        <time>2022-08-26T09:51:22.000Z</time>
      </trkpt>
      <trkpt lat="40.221077017486095428466796875" lon="-1.4285728521645069122314453125">
        <ele>1536</ele>
        <time>2022-08-26T09:51:28.000Z</time>
      </trkpt>
      <trkpt lat="40.220924131572246551513671875" lon="-1.4283294416964054107666015625">
        <ele>1536.4000244140625</ele>
        <time>2022-08-26T09:51:35.000Z</time>
      </trkpt>
      <trkpt lat="40.22088356316089630126953125" lon="-1.42826565541326999664306640625">
        <ele>1536.5999755859375</ele>
        <time>2022-08-26T09:51:37.000Z</time>
      </trkpt>
      <trkpt lat="40.22072137333452701568603515625" lon="-1.4280387572944164276123046875">
        <ele>1537</ele>
        <time>2022-08-26T09:51:44.000Z</time>
      </trkpt>
      <trkpt lat="40.2206031046807765960693359375" lon="-1.42776223830878734588623046875">
        <ele>1537.4000244140625</ele>
        <time>2022-08-26T09:51:51.000Z</time>
      </trkpt>
      <trkpt lat="40.22059497423470020294189453125" lon="-1.42771429382264614105224609375">
        <ele>1537.5999755859375</ele>
        <time>2022-08-26T09:51:52.000Z</time>
      </trkpt>
      <trkpt lat="40.2205447666347026824951171875" lon="-1.42737231217324733734130859375">
        <ele>1538.4000244140625</ele>
        <time>2022-08-26T09:51:59.000Z</time>
      </trkpt>
      <trkpt lat="40.22045449353754520416259765625" lon="-1.4268855750560760498046875">
        <ele>1537.800048828125</ele>
        <time>2022-08-26T09:52:08.000Z</time>
      </trkpt>
      <trkpt lat="40.22040612995624542236328125" lon="-1.42661928199231624603271484375">
        <ele>1537.4000244140625</ele>
        <time>2022-08-26T09:52:13.000Z</time>
      </trkpt>
      <trkpt lat="40.220260284841060638427734375" lon="-1.426219381392002105712890625">
        <ele>1537.199951171875</ele>
        <time>2022-08-26T09:52:21.000Z</time>
      </trkpt>
      <trkpt lat="40.22012047469615936279296875" lon="-1.425963230431079864501953125">
        <ele>1537.5999755859375</ele>
        <time>2022-08-26T09:52:28.000Z</time>
      </trkpt>
      <trkpt lat="40.21992157213389873504638671875" lon="-1.42567363567650318145751953125">
        <ele>1538.5999755859375</ele>
        <time>2022-08-26T09:52:35.000Z</time>
      </trkpt>
      <trkpt lat="40.21974739618599414825439453125" lon="-1.4254031516611576080322265625">
        <ele>1538.5999755859375</ele>
        <time>2022-08-26T09:52:42.000Z</time>
      </trkpt>
      <trkpt lat="40.21945050917565822601318359375" lon="-1.42491557635366916656494140625">
        <ele>1538.4000244140625</ele>
        <time>2022-08-26T09:52:53.000Z</time>
      </trkpt>
      <trkpt lat="40.21925470791757106781005859375" lon="-1.42458516173064708709716796875">
        <ele>1538.4000244140625</ele>
        <time>2022-08-26T09:52:59.000Z</time>
      </trkpt>
      <trkpt lat="40.21905622445046901702880859375" lon="-1.42420227639377117156982421875">
        <ele>1537.199951171875</ele>
        <time>2022-08-26T09:53:05.000Z</time>
      </trkpt>
      <trkpt lat="40.218933261930942535400390625" lon="-1.42402960918843746185302734375">
        <ele>1536.4000244140625</ele>
        <time>2022-08-26T09:53:08.000Z</time>
      </trkpt>
      <trkpt lat="40.21879638545215129852294921875" lon="-1.42381654120981693267822265625">
        <ele>1535.5999755859375</ele>
        <time>2022-08-26T09:53:12.000Z</time>
      </trkpt>
      <trkpt lat="40.2186070382595062255859375" lon="-1.42338939942419528961181640625">
        <ele>1535.5999755859375</ele>
        <time>2022-08-26T09:53:20.000Z</time>
      </trkpt>
      <trkpt lat="40.21851249039173126220703125" lon="-1.42294616438448429107666015625">
        <ele>1536.199951171875</ele>
        <time>2022-08-26T09:53:27.000Z</time>
      </trkpt>
      <trkpt lat="40.2184425853192806243896484375" lon="-1.4226250536739826202392578125">
        <ele>1536.199951171875</ele>
        <time>2022-08-26T09:53:33.000Z</time>
      </trkpt>
      <trkpt lat="40.21839204244315624237060546875" lon="-1.42215457744896411895751953125">
        <ele>1536.199951171875</ele>
        <time>2022-08-26T09:53:41.000Z</time>
      </trkpt>
      <trkpt lat="40.21830637939274311065673828125" lon="-1.4216661639511585235595703125">
        <ele>1535.5999755859375</ele>
        <time>2022-08-26T09:53:48.000Z</time>
      </trkpt>
      <trkpt lat="40.21828307770192623138427734375" lon="-1.42161570489406585693359375">
        <ele>1535.4000244140625</ele>
        <time>2022-08-26T09:53:49.000Z</time>
      </trkpt>
      <trkpt lat="40.21825793199241161346435546875" lon="-1.42156834714114665985107421875">
        <ele>1535.199951171875</ele>
        <time>2022-08-26T09:53:50.000Z</time>
      </trkpt>
      <trkpt lat="40.21819104440510272979736328125" lon="-1.4214532636106014251708984375">
        <ele>1535</ele>
        <time>2022-08-26T09:53:53.000Z</time>
      </trkpt>
      <trkpt lat="40.21805249154567718505859375" lon="-1.4211644232273101806640625">
        <ele>1535.199951171875</ele>
        <time>2022-08-26T09:54:00.000Z</time>
      </trkpt>
      <trkpt lat="40.21805056370794773101806640625" lon="-1.4211166463792324066162109375">
        <ele>1535.199951171875</ele>
        <time>2022-08-26T09:54:01.000Z</time>
      </trkpt>
      <trkpt lat="40.21807637996971607208251953125" lon="-1.42085739411413669586181640625">
        <ele>1535.800048828125</ele>
        <time>2022-08-26T09:54:06.000Z</time>
      </trkpt>
      <trkpt lat="40.2181277610361576080322265625" lon="-1.420637704432010650634765625">
        <ele>1536.199951171875</ele>
        <time>2022-08-26T09:54:10.000Z</time>
      </trkpt>
      <trkpt lat="40.21818081848323345184326171875" lon="-1.42044433392584323883056640625">
        <ele>1536.4000244140625</ele>
        <time>2022-08-26T09:54:14.000Z</time>
      </trkpt>
      <trkpt lat="40.2182622067630290985107421875" lon="-1.42005708999931812286376953125">
        <ele>1536.199951171875</ele>
        <time>2022-08-26T09:54:22.000Z</time>
      </trkpt>
      <trkpt lat="40.2182544954121112823486328125" lon="-1.41975232400000095367431640625">
        <ele>1535.800048828125</ele>
        <time>2022-08-26T09:54:30.000Z</time>
      </trkpt>
      <trkpt lat="40.21825592033565044403076171875" lon="-1.41967806033790111541748046875">
        <ele>1535.800048828125</ele>
        <time>2022-08-26T09:54:33.000Z</time>
      </trkpt>
      <trkpt lat="40.21827955730259418487548828125" lon="-1.41967780888080596923828125">
        <ele>1535.800048828125</ele>
        <time>2022-08-26T09:54:35.000Z</time>
      </trkpt>
      <trkpt lat="40.2182851731777191162109375" lon="-1.41969834454357624053955078125">
        <ele>1536</ele>
        <time>2022-08-26T09:54:36.000Z</time>
      </trkpt>
      <trkpt lat="40.2182695828378200531005859375" lon="-1.419837735593318939208984375">
        <ele>1536</ele>
        <time>2022-08-26T09:54:39.000Z</time>
      </trkpt>
      <trkpt lat="40.2182903699576854705810546875" lon="-1.42021827399730682373046875">
        <ele>1536</ele>
        <time>2022-08-26T09:54:46.000Z</time>
      </trkpt>
      <trkpt lat="40.2183280885219573974609375" lon="-1.42056302167475223541259765625">
        <ele>1536.199951171875</ele>
        <time>2022-08-26T09:54:54.000Z</time>
      </trkpt>
      <trkpt lat="40.21833605132997035980224609375" lon="-1.4208242855966091156005859375">
        <ele>1536.800048828125</ele>
        <time>2022-08-26T09:55:03.000Z</time>
      </trkpt>
      <trkpt lat="40.21834996528923511505126953125" lon="-1.42093182541429996490478515625">
        <ele>1537.4000244140625</ele>
        <time>2022-08-26T09:55:08.000Z</time>
      </trkpt>
      <trkpt lat="40.2183557488024234771728515625" lon="-1.42106677405536174774169921875">
        <ele>1538</ele>
        <time>2022-08-26T09:55:14.000Z</time>
      </trkpt>
      <trkpt lat="40.2183755300939083099365234375" lon="-1.4211458154022693634033203125">
        <ele>1538.5999755859375</ele>
        <time>2022-08-26T09:55:18.000Z</time>
      </trkpt>
      <trkpt lat="40.218404866755008697509765625" lon="-1.421198956668376922607421875">
        <ele>1539.199951171875</ele>
        <time>2022-08-26T09:55:22.000Z</time>
      </trkpt>
      <trkpt lat="40.21841953508555889129638671875" lon="-1.42122820951044559478759765625">
        <ele>1539.5999755859375</ele>
        <time>2022-08-26T09:55:25.000Z</time>
      </trkpt>
      <trkpt lat="40.2184787951409816741943359375" lon="-1.42129442654550075531005859375">
        <ele>1540.199951171875</ele>
        <time>2022-08-26T09:55:31.000Z</time>
      </trkpt>
      <trkpt lat="40.21851324476301670074462890625" lon="-1.42132208682596683502197265625">
        <ele>1540.800048828125</ele>
        <time>2022-08-26T09:55:34.000Z</time>
      </trkpt>
      <trkpt lat="40.2185917831957340240478515625" lon="-1.421369947493076324462890625">
        <ele>1541.800048828125</ele>
        <time>2022-08-26T09:55:40.000Z</time>
      </trkpt>
      <trkpt lat="40.2186853252351284027099609375" lon="-1.421524174511432647705078125">
        <ele>1542.4000244140625</ele>
        <time>2022-08-26T09:55:50.000Z</time>
      </trkpt>
      <trkpt lat="40.21874047815799713134765625" lon="-1.421648226678371429443359375">
        <ele>1542.800048828125</ele>
        <time>2022-08-26T09:55:55.000Z</time>
      </trkpt>
      <trkpt lat="40.21876193583011627197265625" lon="-1.4217464625835418701171875">
        <ele>1543</ele>
        <time>2022-08-26T09:55:59.000Z</time>
      </trkpt>
      <trkpt lat="40.218793451786041259765625" lon="-1.42189356498420238494873046875">
        <ele>1543.800048828125</ele>
        <time>2022-08-26T09:56:06.000Z</time>
      </trkpt>
      <trkpt lat="40.2188014984130859375" lon="-1.4219280146062374114990234375">
        <ele>1544.199951171875</ele>
        <time>2022-08-26T09:56:08.000Z</time>
      </trkpt>
      <trkpt lat="40.2188134007155895233154296875" lon="-1.42200596630573272705078125">
        <ele>1545</ele>
        <time>2022-08-26T09:56:12.000Z</time>
      </trkpt>
      <trkpt lat="40.21884114481508731842041015625" lon="-1.42211518250405788421630859375">
        <ele>1546</ele>
        <time>2022-08-26T09:56:18.000Z</time>
      </trkpt>
      <trkpt lat="40.21885581314563751220703125" lon="-1.42214904539287090301513671875">
        <ele>1546.4000244140625</ele>
        <time>2022-08-26T09:56:20.000Z</time>
      </trkpt>
      <trkpt lat="40.21889143623411655426025390625" lon="-1.4222086407244205474853515625">
        <ele>1547</ele>
        <time>2022-08-26T09:56:24.000Z</time>
      </trkpt>
      <trkpt lat="40.21892328746616840362548828125" lon="-1.422290615737438201904296875">
        <ele>1547.5999755859375</ele>
        <time>2022-08-26T09:56:29.000Z</time>
      </trkpt>
      <trkpt lat="40.2189579047262668609619140625" lon="-1.42234199680387973785400390625">
        <ele>1548.199951171875</ele>
        <time>2022-08-26T09:56:32.000Z</time>
      </trkpt>
      <trkpt lat="40.21900174207985401153564453125" lon="-1.4224849082529544830322265625">
        <ele>1549.4000244140625</ele>
        <time>2022-08-26T09:56:39.000Z</time>
      </trkpt>
      <trkpt lat="40.219007693231105804443359375" lon="-1.42250795848667621612548828125">
        <ele>1549.5999755859375</ele>
        <time>2022-08-26T09:56:40.000Z</time>
      </trkpt>
      <trkpt lat="40.21903954446315765380859375" lon="-1.42260954715311527252197265625">
        <ele>1550.4000244140625</ele>
        <time>2022-08-26T09:56:45.000Z</time>
      </trkpt>
      <trkpt lat="40.2190769277513027191162109375" lon="-1.42272739671170711517333984375">
        <ele>1551.199951171875</ele>
        <time>2022-08-26T09:56:51.000Z</time>
      </trkpt>
      <trkpt lat="40.21909243427217006683349609375" lon="-1.422767378389835357666015625">
        <ele>1551.4000244140625</ele>
        <time>2022-08-26T09:56:53.000Z</time>
      </trkpt>
      <trkpt lat="40.21914708428084850311279296875" lon="-1.42288866452872753143310546875">
        <ele>1552.5999755859375</ele>
        <time>2022-08-26T09:56:59.000Z</time>
      </trkpt>
      <trkpt lat="40.21917097270488739013671875" lon="-1.42298120073974132537841796875">
        <ele>1553.199951171875</ele>
        <time>2022-08-26T09:57:03.000Z</time>
      </trkpt>
      <trkpt lat="40.21919620223343372344970703125" lon="-1.42303526401519775390625">
        <ele>1553.5999755859375</ele>
        <time>2022-08-26T09:57:06.000Z</time>
      </trkpt>
      <trkpt lat="40.2192588150501251220703125" lon="-1.42312939278781414031982421875">
        <ele>1554.4000244140625</ele>
        <time>2022-08-26T09:57:11.000Z</time>
      </trkpt>
      <trkpt lat="40.2192948572337627410888671875" lon="-1.42319359816610813140869140625">
        <ele>1554.5999755859375</ele>
        <time>2022-08-26T09:57:14.000Z</time>
      </trkpt>
      <trkpt lat="40.21940030157566070556640625" lon="-1.42334581352770328521728515625">
        <ele>1555.800048828125</ele>
        <time>2022-08-26T09:57:22.000Z</time>
      </trkpt>
      <trkpt lat="40.2194306440651416778564453125" lon="-1.4233784191310405731201171875">
        <ele>1556</ele>
        <time>2022-08-26T09:57:24.000Z</time>
      </trkpt>
      <trkpt lat="40.21955318748950958251953125" lon="-1.4234662614762783050537109375">
        <ele>1556.800048828125</ele>
        <time>2022-08-26T09:57:31.000Z</time>
      </trkpt>
      <trkpt lat="40.21962988190352916717529296875" lon="-1.42351060174405574798583984375">
        <ele>1557</ele>
        <time>2022-08-26T09:57:35.000Z</time>
      </trkpt>
      <trkpt lat="40.21977673284709453582763671875" lon="-1.4236315526068210601806640625">
        <ele>1557.800048828125</ele>
        <time>2022-08-26T09:57:44.000Z</time>
      </trkpt>
      <trkpt lat="40.2198916487395763397216796875" lon="-1.4237264357507228851318359375">
        <ele>1558.800048828125</ele>
        <time>2022-08-26T09:57:52.000Z</time>
      </trkpt>
      <trkpt lat="40.21991268731653690338134765625" lon="-1.423748396337032318115234375">
        <ele>1559</ele>
        <time>2022-08-26T09:57:54.000Z</time>
      </trkpt>
      <trkpt lat="40.2199640683829784393310546875" lon="-1.42378385178744792938232421875">
        <ele>1560.199951171875</ele>
        <time>2022-08-26T09:57:59.000Z</time>
      </trkpt>
      <trkpt lat="40.22001846693456172943115234375" lon="-1.42382978461682796478271484375">
        <ele>1561.199951171875</ele>
        <time>2022-08-26T09:58:04.000Z</time>
      </trkpt>
      <trkpt lat="40.2201139368116855621337890625" lon="-1.4239128492772579193115234375">
        <ele>1562.4000244140625</ele>
        <time>2022-08-26T09:58:11.000Z</time>
      </trkpt>
      <trkpt lat="40.22018342278897762298583984375" lon="-1.423948891460895538330078125">
        <ele>1563.4000244140625</ele>
        <time>2022-08-26T09:58:16.000Z</time>
      </trkpt>
      <trkpt lat="40.2202487178146839141845703125" lon="-1.423965655267238616943359375">
        <ele>1564.4000244140625</ele>
        <time>2022-08-26T09:58:21.000Z</time>
      </trkpt>
      <trkpt lat="40.22026539780199527740478515625" lon="-1.4239664934575557708740234375">
        <ele>1564.800048828125</ele>
        <time>2022-08-26T09:58:22.000Z</time>
      </trkpt>
      <trkpt lat="40.22027797065675258636474609375" lon="-1.42397194169461727142333984375">
        <ele>1565</ele>
        <time>2022-08-26T09:58:23.000Z</time>
      </trkpt>
      <trkpt lat="40.22031518630683422088623046875" lon="-1.423987783491611480712890625">
        <ele>1565.5999755859375</ele>
        <time>2022-08-26T09:58:26.000Z</time>
      </trkpt>
      <trkpt lat="40.220369584858417510986328125" lon="-1.423998512327671051025390625">
        <ele>1566.4000244140625</ele>
        <time>2022-08-26T09:58:31.000Z</time>
      </trkpt>
      <trkpt lat="40.22038911469280719757080078125" lon="-1.42400278709828853607177734375">
        <ele>1566.5999755859375</ele>
        <time>2022-08-26T09:58:33.000Z</time>
      </trkpt>
      <trkpt lat="40.2204022742807865142822265625" lon="-1.42401435412466526031494140625">
        <ele>1567.199951171875</ele>
        <time>2022-08-26T09:58:37.000Z</time>
      </trkpt>
      <trkpt lat="40.220298506319522857666015625" lon="-1.423971690237522125244140625">
        <ele>1567.4000244140625</ele>
        <time>2022-08-26T09:58:43.000Z</time>
      </trkpt>
      <trkpt lat="40.220259614288806915283203125" lon="-1.4239520765841007232666015625">
        <ele>1567.4000244140625</ele>
        <time>2022-08-26T09:58:44.000Z</time>
      </trkpt>
      <trkpt lat="40.21994504146277904510498046875" lon="-1.4237431995570659637451171875">
        <ele>1566.800048828125</ele>
        <time>2022-08-26T09:58:50.000Z</time>
      </trkpt>
      <trkpt lat="40.219642035663127899169921875" lon="-1.42352677881717681884765625">
        <ele>1565.4000244140625</ele>
        <time>2022-08-26T09:58:54.000Z</time>
      </trkpt>
      <trkpt lat="40.21956467069685459136962890625" lon="-1.423464752733707427978515625">
        <ele>1565</ele>
        <time>2022-08-26T09:58:55.000Z</time>
      </trkpt>
      <trkpt lat="40.2194876410067081451416015625" lon="-1.42339543439447879791259765625">
        <ele>1564.5999755859375</ele>
        <time>2022-08-26T09:58:56.000Z</time>
      </trkpt>
      <trkpt lat="40.21941916085779666900634765625" lon="-1.42331563867628574371337890625">
        <ele>1563.800048828125</ele>
        <time>2022-08-26T09:58:57.000Z</time>
      </trkpt>
      <trkpt lat="40.21935797296464443206787109375" lon="-1.42322477884590625762939453125">
        <ele>1562.199951171875</ele>
        <time>2022-08-26T09:58:58.000Z</time>
      </trkpt>
      <trkpt lat="40.21925521083176136016845703125" lon="-1.4230116270482540130615234375">
        <ele>1560.5999755859375</ele>
        <time>2022-08-26T09:59:00.000Z</time>
      </trkpt>
      <trkpt lat="40.21916233934462070465087890625" lon="-1.42278322018682956695556640625">
        <ele>1559.199951171875</ele>
        <time>2022-08-26T09:59:02.000Z</time>
      </trkpt>
      <trkpt lat="40.21907215006649494171142578125" lon="-1.42254450358450412750244140625">
        <ele>1558.199951171875</ele>
        <time>2022-08-26T09:59:04.000Z</time>
      </trkpt>
      <trkpt lat="40.2189840562641620635986328125" lon="-1.422308720648288726806640625">
        <ele>1557</ele>
        <time>2022-08-26T09:59:06.000Z</time>
      </trkpt>
      <trkpt lat="40.2188618481159210205078125" lon="-1.4219771325588226318359375">
        <ele>1555.800048828125</ele>
        <time>2022-08-26T09:59:09.000Z</time>
      </trkpt>
      <trkpt lat="40.2188254706561565399169921875" lon="-1.42187395133078098297119140625">
        <ele>1555</ele>
        <time>2022-08-26T09:59:10.000Z</time>
      </trkpt>
      <trkpt lat="40.2187909372150897979736328125" lon="-1.42176900990307331085205078125">
        <ele>1554</ele>
        <time>2022-08-26T09:59:11.000Z</time>
      </trkpt>
      <trkpt lat="40.218730084598064422607421875" lon="-1.42156013287603855133056640625">
        <ele>1552.5999755859375</ele>
        <time>2022-08-26T09:59:13.000Z</time>
      </trkpt>
      <trkpt lat="40.21869244985282421112060546875" lon="-1.42146374098956584930419921875">
        <ele>1551.800048828125</ele>
        <time>2022-08-26T09:59:14.000Z</time>
      </trkpt>
      <trkpt lat="40.218648277223110198974609375" lon="-1.421374976634979248046875">
        <ele>1551</ele>
        <time>2022-08-26T09:59:15.000Z</time>
      </trkpt>
      <trkpt lat="40.2185347862541675567626953125" lon="-1.4212396927177906036376953125">
        <ele>1549</ele>
        <time>2022-08-26T09:59:17.000Z</time>
      </trkpt>
      <trkpt lat="40.21846982650458812713623046875" lon="-1.42118655145168304443359375">
        <ele>1548.199951171875</ele>
        <time>2022-08-26T09:59:18.000Z</time>
      </trkpt>
      <trkpt lat="40.21841098554432392120361328125" lon="-1.42112712375819683074951171875">
        <ele>1547.5999755859375</ele>
        <time>2022-08-26T09:59:19.000Z</time>
      </trkpt>
      <trkpt lat="40.21832934580743312835693359375" lon="-1.42096585594117641448974609375">
        <ele>1546.199951171875</ele>
        <time>2022-08-26T09:59:21.000Z</time>
      </trkpt>
      <trkpt lat="40.2183004282414913177490234375" lon="-1.420759074389934539794921875">
        <ele>1544.5999755859375</ele>
        <time>2022-08-26T09:59:23.000Z</time>
      </trkpt>
      <trkpt lat="40.21829531528055667877197265625" lon="-1.42065304331481456756591796875">
        <ele>1544</ele>
        <time>2022-08-26T09:59:24.000Z</time>
      </trkpt>
      <trkpt lat="40.218292884528636932373046875" lon="-1.420551203191280364990234375">
        <ele>1543.5999755859375</ele>
        <time>2022-08-26T09:59:25.000Z</time>
      </trkpt>
      <trkpt lat="40.21827000193297863006591796875" lon="-1.42025708220899105072021484375">
        <ele>1542</ele>
        <time>2022-08-26T09:59:28.000Z</time>
      </trkpt>
      <trkpt lat="40.21825726144015789031982421875" lon="-1.420069746673107147216796875">
        <ele>1540.5999755859375</ele>
        <time>2022-08-26T09:59:30.000Z</time>
      </trkpt>
      <trkpt lat="40.21825231611728668212890625" lon="-1.4198959060013294219970703125">
        <ele>1539.199951171875</ele>
        <time>2022-08-26T09:59:32.000Z</time>
      </trkpt>
      <trkpt lat="40.2182543277740478515625" lon="-1.41974276863038539886474609375">
        <ele>1538</ele>
        <time>2022-08-26T09:59:34.000Z</time>
      </trkpt>
      <trkpt lat="40.2182521484792232513427734375" lon="-1.41967420466244220733642578125">
        <ele>1537.5999755859375</ele>
        <time>2022-08-26T09:59:35.000Z</time>
      </trkpt>
      <trkpt lat="40.2182154357433319091796875" lon="-1.419326104223728179931640625">
        <ele>1537.199951171875</ele>
        <time>2022-08-26T09:59:41.000Z</time>
      </trkpt>
      <trkpt lat="40.21818115375936031341552734375" lon="-1.4189837872982025146484375">
        <ele>1537.5999755859375</ele>
        <time>2022-08-26T09:59:48.000Z</time>
      </trkpt>
      <trkpt lat="40.21818048320710659027099609375" lon="-1.418691761791706085205078125">
        <ele>1537.800048828125</ele>
        <time>2022-08-26T09:59:55.000Z</time>
      </trkpt>
      <trkpt lat="40.21824385039508342742919921875" lon="-1.41838205046951770782470703125">
        <ele>1537.800048828125</ele>
        <time>2022-08-26T10:00:02.000Z</time>
      </trkpt>
      <trkpt lat="40.218398161232471466064453125" lon="-1.4180290885269641876220703125">
        <ele>1537.5999755859375</ele>
        <time>2022-08-26T10:00:10.000Z</time>
      </trkpt>
      <trkpt lat="40.21852321922779083251953125" lon="-1.41781794838607311248779296875">
        <ele>1537</ele>
        <time>2022-08-26T10:00:14.000Z</time>
      </trkpt>
      <trkpt lat="40.2186365425586700439453125" lon="-1.4176458679139614105224609375">
        <ele>1536.4000244140625</ele>
        <time>2022-08-26T10:00:17.000Z</time>
      </trkpt>
      <trkpt lat="40.21886243484914302825927734375" lon="-1.41732006333768367767333984375">
        <ele>1536</ele>
        <time>2022-08-26T10:00:22.000Z</time>
      </trkpt>
      <trkpt lat="40.21890853531658649444580078125" lon="-1.41725082881748676300048828125">
        <ele>1535.800048828125</ele>
        <time>2022-08-26T10:00:23.000Z</time>
      </trkpt>
      <trkpt lat="40.219045244157314300537109375" lon="-1.4170386828482151031494140625">
        <ele>1534.800048828125</ele>
        <time>2022-08-26T10:00:26.000Z</time>
      </trkpt>
      <trkpt lat="40.21922327578067779541015625" lon="-1.4167506806552410125732421875">
        <ele>1533.4000244140625</ele>
        <time>2022-08-26T10:00:30.000Z</time>
      </trkpt>
      <trkpt lat="40.2192723937332630157470703125" lon="-1.4166824519634246826171875">
        <ele>1533</ele>
        <time>2022-08-26T10:00:31.000Z</time>
      </trkpt>
      <trkpt lat="40.21938982419669628143310546875" lon="-1.4165421389043331146240234375">
        <ele>1532.4000244140625</ele>
        <time>2022-08-26T10:00:33.000Z</time>
      </trkpt>
      <trkpt lat="40.219619236886501312255859375" lon="-1.41633703373372554779052734375">
        <ele>1531.5999755859375</ele>
        <time>2022-08-26T10:00:36.000Z</time>
      </trkpt>
      <trkpt lat="40.21969676949083805084228515625" lon="-1.416265033185482025146484375">
        <ele>1531.199951171875</ele>
        <time>2022-08-26T10:00:37.000Z</time>
      </trkpt>
      <trkpt lat="40.21992458961904048919677734375" lon="-1.41605137847363948822021484375">
        <ele>1530.199951171875</ele>
        <time>2022-08-26T10:00:40.000Z</time>
      </trkpt>
      <trkpt lat="40.2201789803802967071533203125" lon="-1.4158402383327484130859375">
        <ele>1529</ele>
        <time>2022-08-26T10:00:43.000Z</time>
      </trkpt>
      <trkpt lat="40.22034921683371067047119140625" lon="-1.41570277512073516845703125">
        <ele>1527.800048828125</ele>
        <time>2022-08-26T10:00:45.000Z</time>
      </trkpt>
      <trkpt lat="40.220526494085788726806640625" lon="-1.41556807793676853179931640625">
        <ele>1526.800048828125</ele>
        <time>2022-08-26T10:00:47.000Z</time>
      </trkpt>
      <trkpt lat="40.22084274329245090484619140625" lon="-1.4153897948563098907470703125">
        <ele>1525.4000244140625</ele>
        <time>2022-08-26T10:00:50.000Z</time>
      </trkpt>
      <trkpt lat="40.22107307799160480499267578125" lon="-1.4152912236750125885009765625">
        <ele>1524.199951171875</ele>
        <time>2022-08-26T10:00:52.000Z</time>
      </trkpt>
      <trkpt lat="40.2213132195174694061279296875" lon="-1.4152174629271030426025390625">
        <ele>1523.199951171875</ele>
        <time>2022-08-26T10:00:54.000Z</time>
      </trkpt>
      <trkpt lat="40.2214352600276470184326171875" lon="-1.41519374214112758636474609375">
        <ele>1522.5999755859375</ele>
        <time>2022-08-26T10:00:55.000Z</time>
      </trkpt>
      <trkpt lat="40.22155453450977802276611328125" lon="-1.4151772297918796539306640625">
        <ele>1521.800048828125</ele>
        <time>2022-08-26T10:00:56.000Z</time>
      </trkpt>
      <trkpt lat="40.2217986993491649627685546875" lon="-1.41515082679688930511474609375">
        <ele>1520.4000244140625</ele>
        <time>2022-08-26T10:00:58.000Z</time>
      </trkpt>
      <trkpt lat="40.22202895022928714752197265625" lon="-1.41512073576450347900390625">
        <ele>1519</ele>
        <time>2022-08-26T10:01:00.000Z</time>
      </trkpt>
      <trkpt lat="40.2221390046179294586181640625" lon="-1.41510221175849437713623046875">
        <ele>1518</ele>
        <time>2022-08-26T10:01:01.000Z</time>
      </trkpt>
      <trkpt lat="40.22224604152143001556396484375" lon="-1.41506684012711048126220703125">
        <ele>1517</ele>
        <time>2022-08-26T10:01:02.000Z</time>
      </trkpt>
      <trkpt lat="40.22244133986532688140869140625" lon="-1.41492686234414577484130859375">
        <ele>1515.800048828125</ele>
        <time>2022-08-26T10:01:04.000Z</time>
      </trkpt>
      <trkpt lat="40.22262440063059329986572265625" lon="-1.4147303067147731781005859375">
        <ele>1514.5999755859375</ele>
        <time>2022-08-26T10:01:06.000Z</time>
      </trkpt>
      <trkpt lat="40.222791619598865509033203125" lon="-1.41452168114483356475830078125">
        <ele>1513.4000244140625</ele>
        <time>2022-08-26T10:01:08.000Z</time>
      </trkpt>
      <trkpt lat="40.22293184883892536163330078125" lon="-1.41431699506938457489013671875">
        <ele>1511.800048828125</ele>
        <time>2022-08-26T10:01:10.000Z</time>
      </trkpt>
      <trkpt lat="40.22298733703792095184326171875" lon="-1.4142109639942646026611328125">
        <ele>1511.199951171875</ele>
        <time>2022-08-26T10:01:11.000Z</time>
      </trkpt>
      <trkpt lat="40.22303360514342784881591796875" lon="-1.4140976406633853912353515625">
        <ele>1510.199951171875</ele>
        <time>2022-08-26T10:01:12.000Z</time>
      </trkpt>
      <trkpt lat="40.2231056056916713714599609375" lon="-1.4138693176209926605224609375">
        <ele>1508.800048828125</ele>
        <time>2022-08-26T10:01:14.000Z</time>
      </trkpt>
      <trkpt lat="40.22313368506729602813720703125" lon="-1.41376278363168239593505859375">
        <ele>1508.199951171875</ele>
        <time>2022-08-26T10:01:15.000Z</time>
      </trkpt>
      <trkpt lat="40.22316117770969867706298828125" lon="-1.41365784220397472381591796875">
        <ele>1507.5999755859375</ele>
        <time>2022-08-26T10:01:16.000Z</time>
      </trkpt>
      <trkpt lat="40.22323644720017910003662109375" lon="-1.413462460041046142578125">
        <ele>1506.4000244140625</ele>
        <time>2022-08-26T10:01:18.000Z</time>
      </trkpt>
      <trkpt lat="40.2233332581818103790283203125" lon="-1.4132973365485668182373046875">
        <ele>1505.800048828125</ele>
        <time>2022-08-26T10:01:20.000Z</time>
      </trkpt>
      <trkpt lat="40.2233858965337276458740234375" lon="-1.41322399489581584930419921875">
        <ele>1505.4000244140625</ele>
        <time>2022-08-26T10:01:21.000Z</time>
      </trkpt>
      <trkpt lat="40.22357356734573841094970703125" lon="-1.41303909011185169219970703125">
        <ele>1505</ele>
        <time>2022-08-26T10:01:24.000Z</time>
      </trkpt>
      <trkpt lat="40.22363995201885700225830078125" lon="-1.41298561356961727142333984375">
        <ele>1504.800048828125</ele>
        <time>2022-08-26T10:01:25.000Z</time>
      </trkpt>
      <trkpt lat="40.22370658814907073974609375" lon="-1.4129380881786346435546875">
        <ele>1504.5999755859375</ele>
        <time>2022-08-26T10:01:26.000Z</time>
      </trkpt>
      <trkpt lat="40.22384095005691051483154296875" lon="-1.41285552643239498138427734375">
        <ele>1504.199951171875</ele>
        <time>2022-08-26T10:01:28.000Z</time>
      </trkpt>
      <trkpt lat="40.2239910699427127838134765625" lon="-1.41277438960969448089599609375">
        <ele>1503.800048828125</ele>
        <time>2022-08-26T10:01:30.000Z</time>
      </trkpt>
      <trkpt lat="40.224372781813144683837890625" lon="-1.41256366856396198272705078125">
        <ele>1503</ele>
        <time>2022-08-26T10:01:35.000Z</time>
      </trkpt>
      <trkpt lat="40.22452424280345439910888671875" lon="-1.412464678287506103515625">
        <ele>1502</ele>
        <time>2022-08-26T10:01:37.000Z</time>
      </trkpt>
      <trkpt lat="40.22459079511463642120361328125" lon="-1.41240441240370273590087890625">
        <ele>1501.5999755859375</ele>
        <time>2022-08-26T10:01:38.000Z</time>
      </trkpt>
      <trkpt lat="40.2246901206672191619873046875" lon="-1.41226259060204029083251953125">
        <ele>1500.5999755859375</ele>
        <time>2022-08-26T10:01:40.000Z</time>
      </trkpt>
      <trkpt lat="40.22472976706922054290771484375" lon="-1.41218480654060840606689453125">
        <ele>1500.199951171875</ele>
        <time>2022-08-26T10:01:41.000Z</time>
      </trkpt>
      <trkpt lat="40.22476497106254100799560546875" lon="-1.4121077768504619598388671875">
        <ele>1500</ele>
        <time>2022-08-26T10:01:42.000Z</time>
      </trkpt>
      <trkpt lat="40.224798582494258880615234375" lon="-1.4120330102741718292236328125">
        <ele>1499.5999755859375</ele>
        <time>2022-08-26T10:01:43.000Z</time>
      </trkpt>
      <trkpt lat="40.22491098381578922271728515625" lon="-1.411744840443134307861328125">
        <ele>1499.199951171875</ele>
        <time>2022-08-26T10:01:47.000Z</time>
      </trkpt>
      <trkpt lat="40.22513897158205509185791015625" lon="-1.41135801561176776885986328125">
        <ele>1499</ele>
        <time>2022-08-26T10:01:53.000Z</time>
      </trkpt>
      <trkpt lat="40.22519093938171863555908203125" lon="-1.411300599575042724609375">
        <ele>1499</ele>
        <time>2022-08-26T10:01:54.000Z</time>
      </trkpt>
      <trkpt lat="40.2254283986985683441162109375" lon="-1.41109381802380084991455078125">
        <ele>1498.5999755859375</ele>
        <time>2022-08-26T10:01:58.000Z</time>
      </trkpt>
      <trkpt lat="40.22549352608621120452880859375" lon="-1.41104486770927906036376953125">
        <ele>1498.5999755859375</ele>
        <time>2022-08-26T10:01:59.000Z</time>
      </trkpt>
      <trkpt lat="40.22583517245948314666748046875" lon="-1.41079458408057689666748046875">
        <ele>1497.199951171875</ele>
        <time>2022-08-26T10:02:04.000Z</time>
      </trkpt>
      <trkpt lat="40.2259681932628154754638671875" lon="-1.41070439480245113372802734375">
        <ele>1496.800048828125</ele>
        <time>2022-08-26T10:02:06.000Z</time>
      </trkpt>
      <trkpt lat="40.2261069975793361663818359375" lon="-1.41063214279711246490478515625">
        <ele>1496</ele>
        <time>2022-08-26T10:02:08.000Z</time>
      </trkpt>
      <trkpt lat="40.22634915076196193695068359375" lon="-1.410560309886932373046875">
        <ele>1494.5999755859375</ele>
        <time>2022-08-26T10:02:11.000Z</time>
      </trkpt>
      <trkpt lat="40.22668828256428241729736328125" lon="-1.4105380140244960784912109375">
        <ele>1493.4000244140625</ele>
        <time>2022-08-26T10:02:15.000Z</time>
      </trkpt>
      <trkpt lat="40.22677260451018810272216796875" lon="-1.41054765321314334869384765625">
        <ele>1493.199951171875</ele>
        <time>2022-08-26T10:02:16.000Z</time>
      </trkpt>
      <trkpt lat="40.22703311406075954437255859375" lon="-1.41059693880379199981689453125">
        <ele>1492.4000244140625</ele>
        <time>2022-08-26T10:02:19.000Z</time>
      </trkpt>
      <trkpt lat="40.2271225489675998687744140625" lon="-1.41061051748692989349365234375">
        <ele>1492</ele>
        <time>2022-08-26T10:02:20.000Z</time>
      </trkpt>
      <trkpt lat="40.22721567191183567047119140625" lon="-1.4106094278395175933837890625">
        <ele>1491.5999755859375</ele>
        <time>2022-08-26T10:02:21.000Z</time>
      </trkpt>
      <trkpt lat="40.22730745375156402587890625" lon="-1.41059811227023601531982421875">
        <ele>1491</ele>
        <time>2022-08-26T10:02:22.000Z</time>
      </trkpt>
      <trkpt lat="40.2275966294109821319580078125" lon="-1.41051395796239376068115234375">
        <ele>1490</ele>
        <time>2022-08-26T10:02:25.000Z</time>
      </trkpt>
      <trkpt lat="40.22769243456423282623291015625" lon="-1.41047104261815547943115234375">
        <ele>1489.5999755859375</ele>
        <time>2022-08-26T10:02:26.000Z</time>
      </trkpt>
      <trkpt lat="40.2277847193181514739990234375" lon="-1.4104246906936168670654296875">
        <ele>1488.800048828125</ele>
        <time>2022-08-26T10:02:27.000Z</time>
      </trkpt>
      <trkpt lat="40.22805654443800449371337890625" lon="-1.41026685945689678192138671875">
        <ele>1487.4000244140625</ele>
        <time>2022-08-26T10:02:30.000Z</time>
      </trkpt>
      <trkpt lat="40.22822552360594272613525390625" lon="-1.41015672124922275543212890625">
        <ele>1486</ele>
        <time>2022-08-26T10:02:32.000Z</time>
      </trkpt>
      <trkpt lat="40.2283969335258007049560546875" lon="-1.41006074845790863037109375">
        <ele>1485</ele>
        <time>2022-08-26T10:02:34.000Z</time>
      </trkpt>
      <trkpt lat="40.2286477200686931610107421875" lon="-1.40993225388228893280029296875">
        <ele>1484.199951171875</ele>
        <time>2022-08-26T10:02:37.000Z</time>
      </trkpt>
      <trkpt lat="40.228734053671360015869140625" lon="-1.40989436767995357513427734375">
        <ele>1483.800048828125</ele>
        <time>2022-08-26T10:02:38.000Z</time>
      </trkpt>
      <trkpt lat="40.2291633747518062591552734375" lon="-1.409757994115352630615234375">
        <ele>1482.800048828125</ele>
        <time>2022-08-26T10:02:43.000Z</time>
      </trkpt>
      <trkpt lat="40.2292495407164096832275390625" lon="-1.4097373746335506439208984375">
        <ele>1482.5999755859375</ele>
        <time>2022-08-26T10:02:44.000Z</time>
      </trkpt>
      <trkpt lat="40.22967877797782421112060546875" lon="-1.40965984202921390533447265625">
        <ele>1481.4000244140625</ele>
        <time>2022-08-26T10:02:49.000Z</time>
      </trkpt>
      <trkpt lat="40.229845158755779266357421875" lon="-1.40963452868163585662841796875">
        <ele>1480.800048828125</ele>
        <time>2022-08-26T10:02:51.000Z</time>
      </trkpt>
      <trkpt lat="40.23001246154308319091796875" lon="-1.40960988588631153106689453125">
        <ele>1480.4000244140625</ele>
        <time>2022-08-26T10:02:53.000Z</time>
      </trkpt>
      <trkpt lat="40.23034815676510334014892578125" lon="-1.40958272852003574371337890625">
        <ele>1479.199951171875</ele>
        <time>2022-08-26T10:02:57.000Z</time>
      </trkpt>
      <trkpt lat="40.23042879067361354827880859375" lon="-1.40957392752170562744140625">
        <ele>1479</ele>
        <time>2022-08-26T10:02:58.000Z</time>
      </trkpt>
      <trkpt lat="40.2307301200926303863525390625" lon="-1.4095482788980007171630859375">
        <ele>1478.199951171875</ele>
        <time>2022-08-26T10:03:02.000Z</time>
      </trkpt>
      <trkpt lat="40.23087152279913425445556640625" lon="-1.409560181200504302978515625">
        <ele>1477.5999755859375</ele>
        <time>2022-08-26T10:03:04.000Z</time>
      </trkpt>
      <trkpt lat="40.230943858623504638671875" lon="-1.409576945006847381591796875">
        <ele>1477.4000244140625</ele>
        <time>2022-08-26T10:03:05.000Z</time>
      </trkpt>
      <trkpt lat="40.2311525680124759674072265625" lon="-1.409641988575458526611328125">
        <ele>1477</ele>
        <time>2022-08-26T10:03:08.000Z</time>
      </trkpt>
      <trkpt lat="40.23122557438910007476806640625" lon="-1.4096604287624359130859375">
        <ele>1477</ele>
        <time>2022-08-26T10:03:09.000Z</time>
      </trkpt>
      <trkpt lat="40.23130335845053195953369140625" lon="-1.40967057086527347564697265625">
        <ele>1476.800048828125</ele>
        <time>2022-08-26T10:03:10.000Z</time>
      </trkpt>
      <trkpt lat="40.23154023103415966033935546875" lon="-1.40967451035976409912109375">
        <ele>1476.5999755859375</ele>
        <time>2022-08-26T10:03:13.000Z</time>
      </trkpt>
      <trkpt lat="40.23170552216470241546630859375" lon="-1.409690938889980316162109375">
        <ele>1476.199951171875</ele>
        <time>2022-08-26T10:03:15.000Z</time>
      </trkpt>
      <trkpt lat="40.23195530287921428680419921875" lon="-1.409761346876621246337890625">
        <ele>1475.5999755859375</ele>
        <time>2022-08-26T10:03:18.000Z</time>
      </trkpt>
      <trkpt lat="40.2322157286107540130615234375" lon="-1.40988363884389400482177734375">
        <ele>1474.800048828125</ele>
        <time>2022-08-26T10:03:21.000Z</time>
      </trkpt>
      <trkpt lat="40.23238487541675567626953125" lon="-1.40999830327928066253662109375">
        <ele>1474.5999755859375</ele>
        <time>2022-08-26T10:03:23.000Z</time>
      </trkpt>
      <trkpt lat="40.23262895643711090087890625" lon="-1.4101967029273509979248046875">
        <ele>1473.5999755859375</ele>
        <time>2022-08-26T10:03:26.000Z</time>
      </trkpt>
      <trkpt lat="40.23287169635295867919921875" lon="-1.41037817113101482391357421875">
        <ele>1472.199951171875</ele>
        <time>2022-08-26T10:03:29.000Z</time>
      </trkpt>
      <trkpt lat="40.2329553477466106414794921875" lon="-1.41042142175137996673583984375">
        <ele>1471.5999755859375</ele>
        <time>2022-08-26T10:03:30.000Z</time>
      </trkpt>
      <trkpt lat="40.23303799331188201904296875" lon="-1.41045075841248035430908203125">
        <ele>1471.199951171875</ele>
        <time>2022-08-26T10:03:31.000Z</time>
      </trkpt>
      <trkpt lat="40.233286432921886444091796875" lon="-1.41049535013735294342041015625">
        <ele>1470.199951171875</ele>
        <time>2022-08-26T10:03:34.000Z</time>
      </trkpt>
      <trkpt lat="40.23336924612522125244140625" lon="-1.41050205565989017486572265625">
        <ele>1470</ele>
        <time>2022-08-26T10:03:35.000Z</time>
      </trkpt>
      <trkpt lat="40.23352690972387790679931640625" lon="-1.410525105893611907958984375">
        <ele>1469.5999755859375</ele>
        <time>2022-08-26T10:03:37.000Z</time>
      </trkpt>
      <trkpt lat="40.23367979563772678375244140625" lon="-1.410580091178417205810546875">
        <ele>1469.199951171875</ele>
        <time>2022-08-26T10:03:39.000Z</time>
      </trkpt>
      <trkpt lat="40.23383796215057373046875" lon="-1.41064203344285488128662109375">
        <ele>1468.800048828125</ele>
        <time>2022-08-26T10:03:41.000Z</time>
      </trkpt>
      <trkpt lat="40.2344079315662384033203125" lon="-1.410866416990756988525390625">
        <ele>1468.199951171875</ele>
        <time>2022-08-26T10:03:48.000Z</time>
      </trkpt>
      <trkpt lat="40.23457624018192291259765625" lon="-1.410924084484577178955078125">
        <ele>1467.800048828125</ele>
        <time>2022-08-26T10:03:50.000Z</time>
      </trkpt>
      <trkpt lat="40.2349465526640415191650390625" lon="-1.41103983856737613677978515625">
        <ele>1466.5999755859375</ele>
        <time>2022-08-26T10:03:54.000Z</time>
      </trkpt>
      <trkpt lat="40.23524017073214054107666015625" lon="-1.4111331291496753692626953125">
        <ele>1465.199951171875</ele>
        <time>2022-08-26T10:03:57.000Z</time>
      </trkpt>
      <trkpt lat="40.23543563671410083770751953125" lon="-1.41119205392897129058837890625">
        <ele>1464.199951171875</ele>
        <time>2022-08-26T10:03:59.000Z</time>
      </trkpt>
      <trkpt lat="40.23571961559355258941650390625" lon="-1.4112943969666957855224609375">
        <ele>1462.5999755859375</ele>
        <time>2022-08-26T10:04:02.000Z</time>
      </trkpt>
      <trkpt lat="40.23581164889037609100341796875" lon="-1.41132415272295475006103515625">
        <ele>1462</ele>
        <time>2022-08-26T10:04:03.000Z</time>
      </trkpt>
      <trkpt lat="40.2359019219875335693359375" lon="-1.4113477058708667755126953125">
        <ele>1461.5999755859375</ele>
        <time>2022-08-26T10:04:04.000Z</time>
      </trkpt>
      <trkpt lat="40.23616117425262928009033203125" lon="-1.41142138279974460601806640625">
        <ele>1460.199951171875</ele>
        <time>2022-08-26T10:04:07.000Z</time>
      </trkpt>
      <trkpt lat="40.2363225258886814117431640625" lon="-1.41148944385349750518798828125">
        <ele>1459.199951171875</ele>
        <time>2022-08-26T10:04:09.000Z</time>
      </trkpt>
      <trkpt lat="40.236398465931415557861328125" lon="-1.41153252683579921722412109375">
        <ele>1458.800048828125</ele>
        <time>2022-08-26T10:04:10.000Z</time>
      </trkpt>
      <trkpt lat="40.2366916649043560028076171875" lon="-1.411699913442134857177734375">
        <ele>1458.199951171875</ele>
        <time>2022-08-26T10:04:14.000Z</time>
      </trkpt>
      <trkpt lat="40.23686910979449748992919921875" lon="-1.41167451627552509307861328125">
        <ele>1457.5999755859375</ele>
        <time>2022-08-26T10:04:16.000Z</time>
      </trkpt>
      <trkpt lat="40.23696005344390869140625" lon="-1.4116279967129230499267578125">
        <ele>1457.4000244140625</ele>
        <time>2022-08-26T10:04:17.000Z</time>
      </trkpt>
      <trkpt lat="40.23705116473138332366943359375" lon="-1.411573849618434906005859375">
        <ele>1457.199951171875</ele>
        <time>2022-08-26T10:04:18.000Z</time>
      </trkpt>
      <trkpt lat="40.23713733069598674774169921875" lon="-1.41151844523847103118896484375">
        <ele>1456.5999755859375</ele>
        <time>2022-08-26T10:04:19.000Z</time>
      </trkpt>
      <trkpt lat="40.23729910142719745635986328125" lon="-1.41140679828822612762451171875">
        <ele>1455.4000244140625</ele>
        <time>2022-08-26T10:04:21.000Z</time>
      </trkpt>
      <trkpt lat="40.2373766340315341949462890625" lon="-1.4113503880798816680908203125">
        <ele>1455</ele>
        <time>2022-08-26T10:04:22.000Z</time>
      </trkpt>
      <trkpt lat="40.23744746111333370208740234375" lon="-1.41129062511026859283447265625">
        <ele>1454.4000244140625</ele>
        <time>2022-08-26T10:04:23.000Z</time>
      </trkpt>
      <trkpt lat="40.23756564594805240631103515625" lon="-1.41116355545818805694580078125">
        <ele>1452.800048828125</ele>
        <time>2022-08-26T10:04:25.000Z</time>
      </trkpt>
      <trkpt lat="40.23761224932968616485595703125" lon="-1.41110278666019439697265625">
        <ele>1451.5999755859375</ele>
        <time>2022-08-26T10:04:26.000Z</time>
      </trkpt>
      <trkpt lat="40.2376534044742584228515625" lon="-1.41104687936604022979736328125">
        <ele>1449.199951171875</ele>
        <time>2022-08-26T10:04:27.000Z</time>
      </trkpt>
      <trkpt lat="40.23769221268594264984130859375" lon="-1.41099549829959869384765625">
        <ele>1448.199951171875</ele>
        <time>2022-08-26T10:04:28.000Z</time>
      </trkpt>
      <trkpt lat="40.23776002228260040283203125" lon="-1.41090639866888523101806640625">
        <ele>1446.4000244140625</ele>
        <time>2022-08-26T10:04:30.000Z</time>
      </trkpt>
      <trkpt lat="40.237786509096622467041015625" lon="-1.4108652435243129730224609375">
        <ele>1445.4000244140625</ele>
        <time>2022-08-26T10:04:31.000Z</time>
      </trkpt>
      <trkpt lat="40.237809307873249053955078125" lon="-1.41082760877907276153564453125">
        <ele>1444.5999755859375</ele>
        <time>2022-08-26T10:04:32.000Z</time>
      </trkpt>
      <trkpt lat="40.2378384768962860107421875" lon="-1.4107708632946014404296875">
        <ele>1443.199951171875</ele>
        <time>2022-08-26T10:04:34.000Z</time>
      </trkpt>
      <trkpt lat="40.23786840029060840606689453125" lon="-1.41072182916104793548583984375">
        <ele>1442.199951171875</ele>
        <time>2022-08-26T10:04:36.000Z</time>
      </trkpt>
      <trkpt lat="40.23789689876139163970947265625" lon="-1.4106681011617183685302734375">
        <ele>1441</ele>
        <time>2022-08-26T10:04:39.000Z</time>
      </trkpt>
      <trkpt lat="40.23789773695170879364013671875" lon="-1.41066784970462322235107421875">
        <ele>1440.800048828125</ele>
        <time>2022-08-26T10:04:40.000Z</time>
      </trkpt>
      <trkpt lat="40.2379511296749114990234375" lon="-1.410582102835178375244140625">
        <ele>1438.4000244140625</ele>
        <time>2022-08-26T10:05:03.000Z</time>
      </trkpt>
      <trkpt lat="40.2379791252315044403076171875" lon="-1.41054027713835239410400390625">
        <ele>1438.4000244140625</ele>
        <time>2022-08-26T10:05:04.000Z</time>
      </trkpt>
      <trkpt lat="40.2381028421223163604736328125" lon="-1.4103014767169952392578125">
        <ele>1438.199951171875</ele>
        <time>2022-08-26T10:05:08.000Z</time>
      </trkpt>
      <trkpt lat="40.2382765151560306549072265625" lon="-1.4099030010402202606201171875">
        <ele>1437.5999755859375</ele>
        <time>2022-08-26T10:05:13.000Z</time>
      </trkpt>
      <trkpt lat="40.238344408571720123291015625" lon="-1.40974969603121280670166015625">
        <ele>1437.199951171875</ele>
        <time>2022-08-26T10:05:15.000Z</time>
      </trkpt>
      <trkpt lat="40.238442979753017425537109375" lon="-1.40952472575008869171142578125">
        <ele>1435.800048828125</ele>
        <time>2022-08-26T10:05:18.000Z</time>
      </trkpt>
      <trkpt lat="40.2385172434151172637939453125" lon="-1.409389860928058624267578125">
        <ele>1435</ele>
        <time>2022-08-26T10:05:20.000Z</time>
      </trkpt>
      <trkpt lat="40.23855688981711864471435546875" lon="-1.40933026559650897979736328125">
        <ele>1434.4000244140625</ele>
        <time>2022-08-26T10:05:21.000Z</time>
      </trkpt>
      <trkpt lat="40.23863081820309162139892578125" lon="-1.4092233963310718536376953125">
        <ele>1433.199951171875</ele>
        <time>2022-08-26T10:05:23.000Z</time>
      </trkpt>
      <trkpt lat="40.2386942692101001739501953125" lon="-1.40912993811070919036865234375">
        <ele>1432.4000244140625</ele>
        <time>2022-08-26T10:05:25.000Z</time>
      </trkpt>
      <trkpt lat="40.23872184567153453826904296875" lon="-1.409094817936420440673828125">
        <ele>1432</ele>
        <time>2022-08-26T10:05:26.000Z</time>
      </trkpt>
      <trkpt lat="40.23878328502178192138671875" lon="-1.40902214683592319488525390625">
        <ele>1431.199951171875</ele>
        <time>2022-08-26T10:05:29.000Z</time>
      </trkpt>
      <trkpt lat="40.23882762528955936431884765625" lon="-1.40900932252407073974609375">
        <ele>1430.800048828125</ele>
        <time>2022-08-26T10:05:31.000Z</time>
      </trkpt>
      <trkpt lat="40.2388743124902248382568359375" lon="-1.40901912935078144073486328125">
        <ele>1430.4000244140625</ele>
        <time>2022-08-26T10:05:33.000Z</time>
      </trkpt>
      <trkpt lat="40.23899191059172153472900390625" lon="-1.40908040106296539306640625">
        <ele>1430</ele>
        <time>2022-08-26T10:05:37.000Z</time>
      </trkpt>
      <trkpt lat="40.23903004825115203857421875" lon="-1.40911870636045932769775390625">
        <ele>1429.800048828125</ele>
        <time>2022-08-26T10:05:39.000Z</time>
      </trkpt>
      <trkpt lat="40.23903675377368927001953125" lon="-1.409131698310375213623046875">
        <ele>1429.5999755859375</ele>
        <time>2022-08-26T10:05:42.000Z</time>
      </trkpt>
      <trkpt lat="40.23908193223178386688232421875" lon="-1.40916497446596622467041015625">
        <ele>1428.4000244140625</ele>
        <time>2022-08-26T10:07:07.000Z</time>
      </trkpt>
      <trkpt lat="40.23914060555398464202880859375" lon="-1.4090772159397602081298828125">
        <ele>1428.199951171875</ele>
        <time>2022-08-26T10:07:12.000Z</time>
      </trkpt>
      <trkpt lat="40.23914295248687267303466796875" lon="-1.40907612629234790802001953125">
        <ele>1428.199951171875</ele>
        <time>2022-08-26T10:07:13.000Z</time>
      </trkpt>
      <trkpt lat="40.2391608059406280517578125" lon="-1.40896230004727840423583984375">
        <ele>1427.800048828125</ele>
        <time>2022-08-26T10:08:23.000Z</time>
      </trkpt>
      <trkpt lat="40.23918234743177890777587890625" lon="-1.408911757171154022216796875">
        <ele>1427.800048828125</ele>
        <time>2022-08-26T10:08:25.000Z</time>
      </trkpt>
      <trkpt lat="40.23928192444145679473876953125" lon="-1.408682763576507568359375">
        <ele>1427.800048828125</ele>
        <time>2022-08-26T10:08:30.000Z</time>
      </trkpt>
      <trkpt lat="40.239354930818080902099609375" lon="-1.40850230120122432708740234375">
        <ele>1427.800048828125</ele>
        <time>2022-08-26T10:08:35.000Z</time>
      </trkpt>
      <trkpt lat="40.23947102017700672149658203125" lon="-1.4083778299391269683837890625">
        <ele>1428.4000244140625</ele>
        <time>2022-08-26T10:08:41.000Z</time>
      </trkpt>
      <trkpt lat="40.2395968325436115264892578125" lon="-1.40846407972276210784912109375">
        <ele>1428.4000244140625</ele>
        <time>2022-08-26T10:08:45.000Z</time>
      </trkpt>
      <trkpt lat="40.239793471992015838623046875" lon="-1.4085860364139080047607421875">
        <ele>1428.5999755859375</ele>
        <time>2022-08-26T10:08:52.000Z</time>
      </trkpt>
      <trkpt lat="40.2398957312107086181640625" lon="-1.4085494913160800933837890625">
        <ele>1428.5999755859375</ele>
        <time>2022-08-26T10:08:57.000Z</time>
      </trkpt>
      <trkpt lat="40.23999120108783245086669921875" lon="-1.40852308832108974456787109375">
        <ele>1428.199951171875</ele>
        <time>2022-08-26T10:09:03.000Z</time>
      </trkpt>
      <trkpt lat="40.2400092221796512603759765625" lon="-1.4085464738309383392333984375">
        <ele>1428.199951171875</ele>
        <time>2022-08-26T10:09:04.000Z</time>
      </trkpt>
      <trkpt lat="40.2400715835392475128173828125" lon="-1.40859047882258892059326171875">
        <ele>1428</ele>
        <time>2022-08-26T10:09:08.000Z</time>
      </trkpt>
      <trkpt lat="40.24009622633457183837890625" lon="-1.408539600670337677001953125">
        <ele>1428</ele>
        <time>2022-08-26T10:09:13.000Z</time>
      </trkpt>
      <trkpt lat="40.2400940470397472381591796875" lon="-1.40853901393711566925048828125">
        <ele>1428</ele>
        <time>2022-08-26T10:09:14.000Z</time>
      </trkpt>
      <trkpt lat="40.240067727863788604736328125" lon="-1.4085907302796840667724609375">
        <ele>1430</ele>
        <time>2022-08-26T10:34:49.000Z</time>
      </trkpt>
      <trkpt lat="40.24005238898098468780517578125" lon="-1.4085753075778484344482421875">
        <ele>1430</ele>
        <time>2022-08-26T10:34:51.000Z</time>
      </trkpt>
      <trkpt lat="40.2400323562324047088623046875" lon="-1.4085209928452968597412109375">
        <ele>1430</ele>
        <time>2022-08-26T10:34:55.000Z</time>
      </trkpt>
      <trkpt lat="40.24003696627914905548095703125" lon="-1.40850448049604892730712890625">
        <ele>1430</ele>
        <time>2022-08-26T10:34:56.000Z</time>
      </trkpt>
      <trkpt lat="40.2400875091552734375" lon="-1.408441364765167236328125">
        <ele>1430</ele>
        <time>2022-08-26T10:35:02.000Z</time>
      </trkpt>
      <trkpt lat="40.24012841284275054931640625" lon="-1.40844295732676982879638671875">
        <ele>1429.800048828125</ele>
        <time>2022-08-26T10:35:07.000Z</time>
      </trkpt>
      <trkpt lat="40.24013511836528778076171875" lon="-1.40845351852476596832275390625">
        <ele>1429.800048828125</ele>
        <time>2022-08-26T10:35:09.000Z</time>
      </trkpt>
      <trkpt lat="40.24000260047614574432373046875" lon="-1.40852677635848522186279296875">
        <ele>1429.5999755859375</ele>
        <time>2022-08-26T10:35:21.000Z</time>
      </trkpt>
      <trkpt lat="40.23997494019567966461181640625" lon="-1.4085471443831920623779296875">
        <ele>1429.800048828125</ele>
        <time>2022-08-26T10:35:23.000Z</time>
      </trkpt>
      <trkpt lat="40.239966809749603271484375" lon="-1.40869458205997943878173828125">
        <ele>1429.800048828125</ele>
        <time>2022-08-26T10:35:29.000Z</time>
      </trkpt>
      <trkpt lat="40.2399927936494350433349609375" lon="-1.4087833464145660400390625">
        <ele>1429.800048828125</ele>
        <time>2022-08-26T10:35:31.000Z</time>
      </trkpt>
      <trkpt lat="40.240040905773639678955078125" lon="-1.4089174568653106689453125">
        <ele>1429.800048828125</ele>
        <time>2022-08-26T10:35:34.000Z</time>
      </trkpt>
      <trkpt lat="40.2400652132928371429443359375" lon="-1.409002952277660369873046875">
        <ele>1429.4000244140625</ele>
        <time>2022-08-26T10:35:38.000Z</time>
      </trkpt>
      <trkpt lat="40.2400682307779788970947265625" lon="-1.40902969054877758026123046875">
        <ele>1429</ele>
        <time>2022-08-26T10:35:42.000Z</time>
      </trkpt>
      <trkpt lat="40.240042246878147125244140625" lon="-1.40892759896814823150634765625">
        <ele>1428.800048828125</ele>
        <time>2022-08-26T10:36:22.000Z</time>
      </trkpt>
      <trkpt lat="40.24003545753657817840576171875" lon="-1.40890178270637989044189453125">
        <ele>1428.800048828125</ele>
        <time>2022-08-26T10:36:23.000Z</time>
      </trkpt>
      <trkpt lat="40.2399364672601222991943359375" lon="-1.408688463270664215087890625">
        <ele>1429</ele>
        <time>2022-08-26T10:36:30.000Z</time>
      </trkpt>
      <trkpt lat="40.2397661469876766204833984375" lon="-1.40857589431107044219970703125">
        <ele>1429.800048828125</ele>
        <time>2022-08-26T10:36:37.000Z</time>
      </trkpt>
      <trkpt lat="40.239680148661136627197265625" lon="-1.40853549353778362274169921875">
        <ele>1430</ele>
        <time>2022-08-26T10:36:40.000Z</time>
      </trkpt>
      <trkpt lat="40.23953539319336414337158203125" lon="-1.40844061039388179779052734375">
        <ele>1430.4000244140625</ele>
        <time>2022-08-26T10:36:45.000Z</time>
      </trkpt>
      <trkpt lat="40.23938384838402271270751953125" lon="-1.4083158038556575775146484375">
        <ele>1430.4000244140625</ele>
        <time>2022-08-26T10:36:52.000Z</time>
      </trkpt>
      <trkpt lat="40.23930757306516170501708984375" lon="-1.40838294290006160736083984375">
        <ele>1430.5999755859375</ele>
        <time>2022-08-26T10:36:56.000Z</time>
      </trkpt>
      <trkpt lat="40.23928351700305938720703125" lon="-1.40840993262827396392822265625">
        <ele>1430.5999755859375</ele>
        <time>2022-08-26T10:36:57.000Z</time>
      </trkpt>
      <trkpt lat="40.23906382732093334197998046875" lon="-1.408630795776844024658203125">
        <ele>1430.4000244140625</ele>
        <time>2022-08-26T10:37:05.000Z</time>
      </trkpt>
      <trkpt lat="40.23887758143246173858642578125" lon="-1.40879164449870586395263671875">
        <ele>1430.4000244140625</ele>
        <time>2022-08-26T10:37:13.000Z</time>
      </trkpt>
      <trkpt lat="40.238771550357341766357421875" lon="-1.40886473469436168670654296875">
        <ele>1430.5999755859375</ele>
        <time>2022-08-26T10:37:20.000Z</time>
      </trkpt>
      <trkpt lat="40.23867842741310596466064453125" lon="-1.40883891843259334564208984375">
        <ele>1430.800048828125</ele>
        <time>2022-08-26T10:37:26.000Z</time>
      </trkpt>
      <trkpt lat="40.23865127004683017730712890625" lon="-1.408819220960140228271484375">
        <ele>1430.800048828125</ele>
        <time>2022-08-26T10:37:31.000Z</time>
      </trkpt>
      <trkpt lat="40.23856527172029018402099609375" lon="-1.4087737910449504852294921875">
        <ele>1430.5999755859375</ele>
        <time>2022-08-26T10:37:56.000Z</time>
      </trkpt>
      <trkpt lat="40.2384917624294757843017578125" lon="-1.408623419702053070068359375">
        <ele>1430.5999755859375</ele>
        <time>2022-08-26T10:38:00.000Z</time>
      </trkpt>
      <trkpt lat="40.2384790219366550445556640625" lon="-1.4085625670850276947021484375">
        <ele>1430.5999755859375</ele>
        <time>2022-08-26T10:38:01.000Z</time>
      </trkpt>
      <trkpt lat="40.23845680989325046539306640625" lon="-1.4083476550877094268798828125">
        <ele>1430.5999755859375</ele>
        <time>2022-08-26T10:38:04.000Z</time>
      </trkpt>
      <trkpt lat="40.23841992951929569244384765625" lon="-1.407775171101093292236328125">
        <ele>1429.199951171875</ele>
        <time>2022-08-26T10:38:11.000Z</time>
      </trkpt>
      <trkpt lat="40.2384109608829021453857421875" lon="-1.40768590383231639862060546875">
        <ele>1428.800048828125</ele>
        <time>2022-08-26T10:38:12.000Z</time>
      </trkpt>
      <trkpt lat="40.23835773579776287078857421875" lon="-1.40712599270045757293701171875">
        <ele>1427.800048828125</ele>
        <time>2022-08-26T10:38:18.000Z</time>
      </trkpt>
      <trkpt lat="40.23833560757339000701904296875" lon="-1.4069398306310176849365234375">
        <ele>1427.5999755859375</ele>
        <time>2022-08-26T10:38:20.000Z</time>
      </trkpt>
      <trkpt lat="40.23830861784517765045166015625" lon="-1.40674629248678684234619140625">
        <ele>1426.800048828125</ele>
        <time>2022-08-26T10:38:22.000Z</time>
      </trkpt>
      <trkpt lat="40.23828414268791675567626953125" lon="-1.406554765999317169189453125">
        <ele>1425.800048828125</ele>
        <time>2022-08-26T10:38:24.000Z</time>
      </trkpt>
      <trkpt lat="40.23825648240745067596435546875" lon="-1.40626751817762851715087890625">
        <ele>1424.5999755859375</ele>
        <time>2022-08-26T10:38:27.000Z</time>
      </trkpt>
      <trkpt lat="40.23823385126888751983642578125" lon="-1.40598119236528873443603515625">
        <ele>1424.199951171875</ele>
        <time>2022-08-26T10:38:30.000Z</time>
      </trkpt>
      <trkpt lat="40.23822060786187648773193359375" lon="-1.40578891150653362274169921875">
        <ele>1423.5999755859375</ele>
        <time>2022-08-26T10:38:32.000Z</time>
      </trkpt>
      <trkpt lat="40.23819965310394763946533203125" lon="-1.40540384687483310699462890625">
        <ele>1422.4000244140625</ele>
        <time>2022-08-26T10:38:36.000Z</time>
      </trkpt>
      <trkpt lat="40.2381776086986064910888671875" lon="-1.40493127517402172088623046875">
        <ele>1421.199951171875</ele>
        <time>2022-08-26T10:38:41.000Z</time>
      </trkpt>
      <trkpt lat="40.23817199282348155975341796875" lon="-1.40484091825783252716064453125">
        <ele>1420.800048828125</ele>
        <time>2022-08-26T10:38:42.000Z</time>
      </trkpt>
      <trkpt lat="40.23815564811229705810546875" lon="-1.40457454137504100799560546875">
        <ele>1420</ele>
        <time>2022-08-26T10:38:45.000Z</time>
      </trkpt>
      <trkpt lat="40.2381497807800769805908203125" lon="-1.403972469270229339599609375">
        <ele>1419</ele>
        <time>2022-08-26T10:38:52.000Z</time>
      </trkpt>
      <trkpt lat="40.2381353639066219329833984375" lon="-1.4033158309757709503173828125">
        <ele>1418.199951171875</ele>
        <time>2022-08-26T10:39:01.000Z</time>
      </trkpt>
      <trkpt lat="40.23810443468391895294189453125" lon="-1.4030724205076694488525390625">
        <ele>1418</ele>
        <time>2022-08-26T10:39:06.000Z</time>
      </trkpt>
      <trkpt lat="40.23801173083484172821044921875" lon="-1.4028923772275447845458984375">
        <ele>1418.4000244140625</ele>
        <time>2022-08-26T10:39:13.000Z</time>
      </trkpt>
      <trkpt lat="40.2378007583320140838623046875" lon="-1.40268458984792232513427734375">
        <ele>1419.4000244140625</ele>
        <time>2022-08-26T10:39:21.000Z</time>
      </trkpt>
      <trkpt lat="40.23742784745991230010986328125" lon="-1.40230354852974414825439453125">
        <ele>1419.800048828125</ele>
        <time>2022-08-26T10:39:34.000Z</time>
      </trkpt>
      <trkpt lat="40.2371630631387233734130859375" lon="-1.40203029848635196685791015625">
        <ele>1420</ele>
        <time>2022-08-26T10:39:44.000Z</time>
      </trkpt>
      <trkpt lat="40.23704663850367069244384765625" lon="-1.401900462806224822998046875">
        <ele>1420.199951171875</ele>
        <time>2022-08-26T10:39:49.000Z</time>
      </trkpt>
      <trkpt lat="40.23683893494307994842529296875" lon="-1.40167482197284698486328125">
        <ele>1420.800048828125</ele>
        <time>2022-08-26T10:39:58.000Z</time>
      </trkpt>
      <trkpt lat="40.2366608195006847381591796875" lon="-1.40158572234213352203369140625">
        <ele>1421.199951171875</ele>
        <time>2022-08-26T10:40:04.000Z</time>
      </trkpt>
      <trkpt lat="40.2366272918879985809326171875" lon="-1.40157432295382022857666015625">
        <ele>1421.199951171875</ele>
        <time>2022-08-26T10:40:05.000Z</time>
      </trkpt>
      <trkpt lat="40.236293189227581024169921875" lon="-1.401502825319766998291015625">
        <ele>1421.4000244140625</ele>
        <time>2022-08-26T10:40:15.000Z</time>
      </trkpt>
      <trkpt lat="40.2359768562018871307373046875" lon="-1.4013967104256153106689453125">
        <ele>1422</ele>
        <time>2022-08-26T10:40:24.000Z</time>
      </trkpt>
      <trkpt lat="40.2356828190386295318603515625" lon="-1.401290930807590484619140625">
        <ele>1422</ele>
        <time>2022-08-26T10:40:33.000Z</time>
      </trkpt>
      <trkpt lat="40.23558718152344226837158203125" lon="-1.40125329606235027313232421875">
        <ele>1422.199951171875</ele>
        <time>2022-08-26T10:40:37.000Z</time>
      </trkpt>
      <trkpt lat="40.23547905497252941131591796875" lon="-1.4011814631521701812744140625">
        <ele>1422.800048828125</ele>
        <time>2022-08-26T10:40:42.000Z</time>
      </trkpt>
      <trkpt lat="40.235371850430965423583984375" lon="-1.40110761858522891998291015625">
        <ele>1423.199951171875</ele>
        <time>2022-08-26T10:40:47.000Z</time>
      </trkpt>
      <trkpt lat="40.235224328935146331787109375" lon="-1.40104492194950580596923828125">
        <ele>1424</ele>
        <time>2022-08-26T10:40:53.000Z</time>
      </trkpt>
      <trkpt lat="40.23497999645769596099853515625" lon="-1.40103016979992389678955078125">
        <ele>1424.199951171875</ele>
        <time>2022-08-26T10:41:03.000Z</time>
      </trkpt>
      <trkpt lat="40.23495451547205448150634765625" lon="-1.40103369019925594329833984375">
        <ele>1424.4000244140625</ele>
        <time>2022-08-26T10:41:04.000Z</time>
      </trkpt>
      <trkpt lat="40.2347083389759063720703125" lon="-1.40108213759958744049072265625">
        <ele>1425</ele>
        <time>2022-08-26T10:41:12.000Z</time>
      </trkpt>
      <trkpt lat="40.2343477495014667510986328125" lon="-1.4010800421237945556640625">
        <ele>1425.199951171875</ele>
        <time>2022-08-26T10:41:23.000Z</time>
      </trkpt>
      <trkpt lat="40.2341680414974689483642578125" lon="-1.40100049786269664764404296875">
        <ele>1425.199951171875</ele>
        <time>2022-08-26T10:41:31.000Z</time>
      </trkpt>
      <trkpt lat="40.2341080270707607269287109375" lon="-1.40095540322363376617431640625">
        <ele>1425.5999755859375</ele>
        <time>2022-08-26T10:41:34.000Z</time>
      </trkpt>
      <trkpt lat="40.233961008489131927490234375" lon="-1.40081173740327358245849609375">
        <ele>1426.5999755859375</ele>
        <time>2022-08-26T10:41:42.000Z</time>
      </trkpt>
      <trkpt lat="40.233943574130535125732421875" lon="-1.4007918722927570343017578125">
        <ele>1426.800048828125</ele>
        <time>2022-08-26T10:41:43.000Z</time>
      </trkpt>
      <trkpt lat="40.23387324996292591094970703125" lon="-1.40071601606905460357666015625">
        <ele>1427.800048828125</ele>
        <time>2022-08-26T10:41:47.000Z</time>
      </trkpt>
      <trkpt lat="40.23379110731184482574462890625" lon="-1.40062079764902591705322265625">
        <ele>1428.800048828125</ele>
        <time>2022-08-26T10:41:52.000Z</time>
      </trkpt>
      <trkpt lat="40.23370795883238315582275390625" lon="-1.4005189575254917144775390625">
        <ele>1429.800048828125</ele>
        <time>2022-08-26T10:41:57.000Z</time>
      </trkpt>
      <trkpt lat="40.2335321903228759765625" lon="-1.40033966861665248870849609375">
        <ele>1430.4000244140625</ele>
        <time>2022-08-26T10:42:05.000Z</time>
      </trkpt>
      <trkpt lat="40.233183167874813079833984375" lon="-1.40008619986474514007568359375">
        <ele>1430</ele>
        <time>2022-08-26T10:42:15.000Z</time>
      </trkpt>
      <trkpt lat="40.23300454951822757720947265625" lon="-1.39983071945607662200927734375">
        <ele>1429.800048828125</ele>
        <time>2022-08-26T10:42:22.000Z</time>
      </trkpt>
      <trkpt lat="40.232843197882175445556640625" lon="-1.3994792662560939788818359375">
        <ele>1429.5999755859375</ele>
        <time>2022-08-26T10:42:28.000Z</time>
      </trkpt>
      <trkpt lat="40.23266608826816082000732421875" lon="-1.3990817964076995849609375">
        <ele>1429</ele>
        <time>2022-08-26T10:42:33.000Z</time>
      </trkpt>
      <trkpt lat="40.23263297975063323974609375" lon="-1.39898850582540035247802734375">
        <ele>1428.800048828125</ele>
        <time>2022-08-26T10:42:34.000Z</time>
      </trkpt>
      <trkpt lat="40.23258327506482601165771484375" lon="-1.39876923523843288421630859375">
        <ele>1427.800048828125</ele>
        <time>2022-08-26T10:42:36.000Z</time>
      </trkpt>
      <trkpt lat="40.2325694449245929718017578125" lon="-1.39849900268018245697021484375">
        <ele>1426.800048828125</ele>
        <time>2022-08-26T10:42:38.000Z</time>
      </trkpt>
      <trkpt lat="40.23257221095263957977294921875" lon="-1.39835936017334461212158203125">
        <ele>1426.4000244140625</ele>
        <time>2022-08-26T10:42:39.000Z</time>
      </trkpt>
      <trkpt lat="40.23258193396031856536865234375" lon="-1.39821837656199932098388671875">
        <ele>1426</ele>
        <time>2022-08-26T10:42:40.000Z</time>
      </trkpt>
      <trkpt lat="40.23258880712091922760009765625" lon="-1.3980838470160961151123046875">
        <ele>1424.800048828125</ele>
        <time>2022-08-26T10:42:41.000Z</time>
      </trkpt>
      <trkpt lat="40.23258981294929981231689453125" lon="-1.39794831164181232452392578125">
        <ele>1424</ele>
        <time>2022-08-26T10:42:42.000Z</time>
      </trkpt>
      <trkpt lat="40.23257707245647907257080078125" lon="-1.39781805686652660369873046875">
        <ele>1423.5999755859375</ele>
        <time>2022-08-26T10:42:43.000Z</time>
      </trkpt>
      <trkpt lat="40.23250213824212551116943359375" lon="-1.39758788980543613433837890625">
        <ele>1422.199951171875</ele>
        <time>2022-08-26T10:42:45.000Z</time>
      </trkpt>
      <trkpt lat="40.23244799114763736724853515625" lon="-1.3974840380251407623291015625">
        <ele>1421.5999755859375</ele>
        <time>2022-08-26T10:42:46.000Z</time>
      </trkpt>
      <trkpt lat="40.23239350877702236175537109375" lon="-1.3973821140825748443603515625">
        <ele>1420.4000244140625</ele>
        <time>2022-08-26T10:42:47.000Z</time>
      </trkpt>
      <trkpt lat="40.23233927786350250244140625" lon="-1.3972775079309940338134765625">
        <ele>1419.199951171875</ele>
        <time>2022-08-26T10:42:48.000Z</time>
      </trkpt>
      <trkpt lat="40.2322475798428058624267578125" lon="-1.3970589078962802886962890625">
        <ele>1417</ele>
        <time>2022-08-26T10:42:50.000Z</time>
      </trkpt>
      <trkpt lat="40.2322153933346271514892578125" lon="-1.3969422318041324615478515625">
        <ele>1415.800048828125</ele>
        <time>2022-08-26T10:42:51.000Z</time>
      </trkpt>
      <trkpt lat="40.23219351656734943389892578125" lon="-1.39682128094136714935302734375">
        <ele>1414.800048828125</ele>
        <time>2022-08-26T10:42:52.000Z</time>
      </trkpt>
      <trkpt lat="40.2321825362741947174072265625" lon="-1.39669689349830150604248046875">
        <ele>1414</ele>
        <time>2022-08-26T10:42:53.000Z</time>
      </trkpt>
      <trkpt lat="40.23217641748487949371337890625" lon="-1.396441161632537841796875">
        <ele>1413.199951171875</ele>
        <time>2022-08-26T10:42:55.000Z</time>
      </trkpt>
      <trkpt lat="40.232177339494228363037109375" lon="-1.396313421428203582763671875">
        <ele>1412.5999755859375</ele>
        <time>2022-08-26T10:42:56.000Z</time>
      </trkpt>
      <trkpt lat="40.232198797166347503662109375" lon="-1.39592408202588558197021484375">
        <ele>1411.4000244140625</ele>
        <time>2022-08-26T10:42:59.000Z</time>
      </trkpt>
      <trkpt lat="40.232247076928615570068359375" lon="-1.395662315189838409423828125">
        <ele>1410</ele>
        <time>2022-08-26T10:43:01.000Z</time>
      </trkpt>
      <trkpt lat="40.2323132939636707305908203125" lon="-1.39539401046931743621826171875">
        <ele>1408.199951171875</ele>
        <time>2022-08-26T10:43:03.000Z</time>
      </trkpt>
      <trkpt lat="40.23241437971591949462890625" lon="-1.39513534493744373321533203125">
        <ele>1406.4000244140625</ele>
        <time>2022-08-26T10:43:05.000Z</time>
      </trkpt>
      <trkpt lat="40.23248202167451381683349609375" lon="-1.395017243921756744384765625">
        <ele>1406</ele>
        <time>2022-08-26T10:43:06.000Z</time>
      </trkpt>
      <trkpt lat="40.23264546878635883331298828125" lon="-1.39483527280390262603759765625">
        <ele>1404.800048828125</ele>
        <time>2022-08-26T10:43:08.000Z</time>
      </trkpt>
      <trkpt lat="40.2328483946621417999267578125" lon="-1.39474860392510890960693359375">
        <ele>1402.5999755859375</ele>
        <time>2022-08-26T10:43:10.000Z</time>
      </trkpt>
      <trkpt lat="40.232946462929248809814453125" lon="-1.3947129808366298675537109375">
        <ele>1401.800048828125</ele>
        <time>2022-08-26T10:43:11.000Z</time>
      </trkpt>
      <trkpt lat="40.23304495029151439666748046875" lon="-1.3946834765374660491943359375">
        <ele>1401.4000244140625</ele>
        <time>2022-08-26T10:43:12.000Z</time>
      </trkpt>
      <trkpt lat="40.233317278325557708740234375" lon="-1.3945815525949001312255859375">
        <ele>1400.199951171875</ele>
        <time>2022-08-26T10:43:15.000Z</time>
      </trkpt>
      <trkpt lat="40.2334596030414104461669921875" lon="-1.39448524452745914459228515625">
        <ele>1399</ele>
        <time>2022-08-26T10:43:17.000Z</time>
      </trkpt>
      <trkpt lat="40.23353311233222484588623046875" lon="-1.39427569694817066192626953125">
        <ele>1398</ele>
        <time>2022-08-26T10:43:20.000Z</time>
      </trkpt>
      <trkpt lat="40.2334726788103580474853515625" lon="-1.3941580988466739654541015625">
        <ele>1397.4000244140625</ele>
        <time>2022-08-26T10:43:22.000Z</time>
      </trkpt>
      <trkpt lat="40.23342280648648738861083984375" lon="-1.39411577023565769195556640625">
        <ele>1397</ele>
        <time>2022-08-26T10:43:23.000Z</time>
      </trkpt>
      <trkpt lat="40.233359523117542266845703125" lon="-1.39408743940293788909912109375">
        <ele>1396.5999755859375</ele>
        <time>2022-08-26T10:43:24.000Z</time>
      </trkpt>
      <trkpt lat="40.23314050398766994476318359375" lon="-1.39403698034584522247314453125">
        <ele>1395.5999755859375</ele>
        <time>2022-08-26T10:43:27.000Z</time>
      </trkpt>
      <trkpt lat="40.23264043964445590972900390625" lon="-1.393978558480739593505859375">
        <ele>1395</ele>
        <time>2022-08-26T10:43:33.000Z</time>
      </trkpt>
      <trkpt lat="40.2324705384671688079833984375" lon="-1.3939158618450164794921875">
        <ele>1394.5999755859375</ele>
        <time>2022-08-26T10:43:35.000Z</time>
      </trkpt>
      <trkpt lat="40.23239426314830780029296875" lon="-1.39385760761797428131103515625">
        <ele>1394.4000244140625</ele>
        <time>2022-08-26T10:43:36.000Z</time>
      </trkpt>
      <trkpt lat="40.2323297224938869476318359375" lon="-1.393775381147861480712890625">
        <ele>1394.199951171875</ele>
        <time>2022-08-26T10:43:37.000Z</time>
      </trkpt>
      <trkpt lat="40.23225185461342334747314453125" lon="-1.39355443418025970458984375">
        <ele>1393</ele>
        <time>2022-08-26T10:43:39.000Z</time>
      </trkpt>
      <trkpt lat="40.23223735392093658447265625" lon="-1.39342711307108402252197265625">
        <ele>1392.4000244140625</ele>
        <time>2022-08-26T10:43:40.000Z</time>
      </trkpt>
      <trkpt lat="40.232228972017765045166015625" lon="-1.3932843692600727081298828125">
        <ele>1392</ele>
        <time>2022-08-26T10:43:41.000Z</time>
      </trkpt>
      <trkpt lat="40.23222788237035274505615234375" lon="-1.39314749278128147125244140625">
        <ele>1391.4000244140625</ele>
        <time>2022-08-26T10:43:42.000Z</time>
      </trkpt>
      <trkpt lat="40.23222167976200580596923828125" lon="-1.3928538747131824493408203125">
        <ele>1390</ele>
        <time>2022-08-26T10:43:44.000Z</time>
      </trkpt>
      <trkpt lat="40.2322231046855449676513671875" lon="-1.39271230436861515045166015625">
        <ele>1389</ele>
        <time>2022-08-26T10:43:45.000Z</time>
      </trkpt>
      <trkpt lat="40.23221665062010288238525390625" lon="-1.39257065020501613616943359375">
        <ele>1388.199951171875</ele>
        <time>2022-08-26T10:43:46.000Z</time>
      </trkpt>
      <trkpt lat="40.2321939356625080108642578125" lon="-1.39228868298232555389404296875">
        <ele>1386.5999755859375</ele>
        <time>2022-08-26T10:43:48.000Z</time>
      </trkpt>
      <trkpt lat="40.23215177468955516815185546875" lon="-1.3920140080153942108154296875">
        <ele>1385</ele>
        <time>2022-08-26T10:43:50.000Z</time>
      </trkpt>
      <trkpt lat="40.2320993877947330474853515625" lon="-1.39174939133226871490478515625">
        <ele>1383.199951171875</ele>
        <time>2022-08-26T10:43:52.000Z</time>
      </trkpt>
      <trkpt lat="40.23202856071293354034423828125" lon="-1.3915003649890422821044921875">
        <ele>1382</ele>
        <time>2022-08-26T10:43:54.000Z</time>
      </trkpt>
      <trkpt lat="40.23198681883513927459716796875" lon="-1.39138310216367244720458984375">
        <ele>1381.4000244140625</ele>
        <time>2022-08-26T10:43:55.000Z</time>
      </trkpt>
      <trkpt lat="40.23194138891994953155517578125" lon="-1.39125988818705081939697265625">
        <ele>1380.800048828125</ele>
        <time>2022-08-26T10:43:56.000Z</time>
      </trkpt>
      <trkpt lat="40.23179353214800357818603515625" lon="-1.3909096084535121917724609375">
        <ele>1379.199951171875</ele>
        <time>2022-08-26T10:43:59.000Z</time>
      </trkpt>
      <trkpt lat="40.23166478611528873443603515625" lon="-1.39055564068257808685302734375">
        <ele>1378</ele>
        <time>2022-08-26T10:44:02.000Z</time>
      </trkpt>
      <trkpt lat="40.23159001953899860382080078125" lon="-1.3901934586465358734130859375">
        <ele>1376.5999755859375</ele>
        <time>2022-08-26T10:44:05.000Z</time>
      </trkpt>
      <trkpt lat="40.23157828487455844879150390625" lon="-1.39007468707859516143798828125">
        <ele>1376</ele>
        <time>2022-08-26T10:44:06.000Z</time>
      </trkpt>
      <trkpt lat="40.23157107643783092498779296875" lon="-1.38995767571032047271728515625">
        <ele>1375.5999755859375</ele>
        <time>2022-08-26T10:44:07.000Z</time>
      </trkpt>
      <trkpt lat="40.2315632812678813934326171875" lon="-1.3898424245417118072509765625">
        <ele>1373.800048828125</ele>
        <time>2022-08-26T10:44:08.000Z</time>
      </trkpt>
      <trkpt lat="40.2315401472151279449462890625" lon="-1.389619298279285430908203125">
        <ele>1372.5999755859375</ele>
        <time>2022-08-26T10:44:10.000Z</time>
      </trkpt>
      <trkpt lat="40.2314787916839122772216796875" lon="-1.38929416425526142120361328125">
        <ele>1371.5999755859375</ele>
        <time>2022-08-26T10:44:13.000Z</time>
      </trkpt>
      <trkpt lat="40.23140477947890758514404296875" lon="-1.3888905756175518035888671875">
        <ele>1370.800048828125</ele>
        <time>2022-08-26T10:44:17.000Z</time>
      </trkpt>
      <trkpt lat="40.23140846751630306243896484375" lon="-1.38878638856112957000732421875">
        <ele>1370.5999755859375</ele>
        <time>2022-08-26T10:44:18.000Z</time>
      </trkpt>
      <trkpt lat="40.23142355494201183319091796875" lon="-1.38867926783859729766845703125">
        <ele>1370.4000244140625</ele>
        <time>2022-08-26T10:44:19.000Z</time>
      </trkpt>
      <trkpt lat="40.23149211890995502471923828125" lon="-1.38846938498318195343017578125">
        <ele>1369.800048828125</ele>
        <time>2022-08-26T10:44:21.000Z</time>
      </trkpt>
      <trkpt lat="40.2316747605800628662109375" lon="-1.3881814666092395782470703125">
        <ele>1369.4000244140625</ele>
        <time>2022-08-26T10:44:24.000Z</time>
      </trkpt>
      <trkpt lat="40.23174759931862354278564453125" lon="-1.38809119351208209991455078125">
        <ele>1368.800048828125</ele>
        <time>2022-08-26T10:44:25.000Z</time>
      </trkpt>
      <trkpt lat="40.231817923486232757568359375" lon="-1.38800720684230327606201171875">
        <ele>1368.199951171875</ele>
        <time>2022-08-26T10:44:26.000Z</time>
      </trkpt>
      <trkpt lat="40.232095532119274139404296875" lon="-1.38772607780992984771728515625">
        <ele>1367</ele>
        <time>2022-08-26T10:44:30.000Z</time>
      </trkpt>
      <trkpt lat="40.23226778022944927215576171875" lon="-1.38757771812379360198974609375">
        <ele>1365.4000244140625</ele>
        <time>2022-08-26T10:44:33.000Z</time>
      </trkpt>
      <trkpt lat="40.2323748171329498291015625" lon="-1.38750471174716949462890625">
        <ele>1364.199951171875</ele>
        <time>2022-08-26T10:44:35.000Z</time>
      </trkpt>
      <trkpt lat="40.232431478798389434814453125" lon="-1.38747696764767169952392578125">
        <ele>1363</ele>
        <time>2022-08-26T10:44:36.000Z</time>
      </trkpt>
      <trkpt lat="40.232561565935611724853515625" lon="-1.3874532468616962432861328125">
        <ele>1362</ele>
        <time>2022-08-26T10:44:38.000Z</time>
      </trkpt>
      <trkpt lat="40.2326311357319355010986328125" lon="-1.387462131679058074951171875">
        <ele>1361.4000244140625</ele>
        <time>2022-08-26T10:44:39.000Z</time>
      </trkpt>
      <trkpt lat="40.2327005378901958465576171875" lon="-1.3874887861311435699462890625">
        <ele>1360.800048828125</ele>
        <time>2022-08-26T10:44:40.000Z</time>
      </trkpt>
      <trkpt lat="40.232824422419071197509765625" lon="-1.38757972978055477142333984375">
        <ele>1359.5999755859375</ele>
        <time>2022-08-26T10:44:42.000Z</time>
      </trkpt>
      <trkpt lat="40.232941098511219024658203125" lon="-1.38768978416919708251953125">
        <ele>1358.4000244140625</ele>
        <time>2022-08-26T10:44:44.000Z</time>
      </trkpt>
      <trkpt lat="40.2331280149519443511962890625" lon="-1.38783722184598445892333984375">
        <ele>1357.199951171875</ele>
        <time>2022-08-26T10:44:47.000Z</time>
      </trkpt>
      <trkpt lat="40.23329305462539196014404296875" lon="-1.38777888379991054534912109375">
        <ele>1356.800048828125</ele>
        <time>2022-08-26T10:44:50.000Z</time>
      </trkpt>
      <trkpt lat="40.2333580143749713897705078125" lon="-1.38752390630543231964111328125">
        <ele>1356.4000244140625</ele>
        <time>2022-08-26T10:44:53.000Z</time>
      </trkpt>
      <trkpt lat="40.2333767898380756378173828125" lon="-1.38729893602430820465087890625">
        <ele>1356.4000244140625</ele>
        <time>2022-08-26T10:44:55.000Z</time>
      </trkpt>
      <trkpt lat="40.23343630135059356689453125" lon="-1.3870777375996112823486328125">
        <ele>1355.5999755859375</ele>
        <time>2022-08-26T10:44:57.000Z</time>
      </trkpt>
      <trkpt lat="40.23348483256995677947998046875" lon="-1.38698344118893146514892578125">
        <ele>1355.4000244140625</ele>
        <time>2022-08-26T10:44:58.000Z</time>
      </trkpt>
      <trkpt lat="40.23360662162303924560546875" lon="-1.38681781478226184844970703125">
        <ele>1354.4000244140625</ele>
        <time>2022-08-26T10:45:00.000Z</time>
      </trkpt>
      <trkpt lat="40.23367309011518955230712890625" lon="-1.3867474906146526336669921875">
        <ele>1354</ele>
        <time>2022-08-26T10:45:01.000Z</time>
      </trkpt>
      <trkpt lat="40.23382119834423065185546875" lon="-1.38663844205439090728759765625">
        <ele>1352.4000244140625</ele>
        <time>2022-08-26T10:45:03.000Z</time>
      </trkpt>
      <trkpt lat="40.23390434682369232177734375" lon="-1.38660374097526073455810546875">
        <ele>1351.4000244140625</ele>
        <time>2022-08-26T10:45:04.000Z</time>
      </trkpt>
      <trkpt lat="40.23398657329380512237548828125" lon="-1.38658982701599597930908203125">
        <ele>1351</ele>
        <time>2022-08-26T10:45:05.000Z</time>
      </trkpt>
      <trkpt lat="40.234148092567920684814453125" lon="-1.38660558499395847320556640625">
        <ele>1350.5999755859375</ele>
        <time>2022-08-26T10:45:07.000Z</time>
      </trkpt>
      <trkpt lat="40.23422679863870143890380859375" lon="-1.38662494719028472900390625">
        <ele>1350.4000244140625</ele>
        <time>2022-08-26T10:45:08.000Z</time>
      </trkpt>
      <trkpt lat="40.23438823409378528594970703125" lon="-1.38666861690580844879150390625">
        <ele>1350</ele>
        <time>2022-08-26T10:45:10.000Z</time>
      </trkpt>
      <trkpt lat="40.2346283756196498870849609375" lon="-1.38672879897058010101318359375">
        <ele>1348.800048828125</ele>
        <time>2022-08-26T10:45:13.000Z</time>
      </trkpt>
      <trkpt lat="40.23470364511013031005859375" lon="-1.38673961162567138671875">
        <ele>1348.5999755859375</ele>
        <time>2022-08-26T10:45:14.000Z</time>
      </trkpt>
      <trkpt lat="40.2347769029438495635986328125" lon="-1.3867370970547199249267578125">
        <ele>1348.199951171875</ele>
        <time>2022-08-26T10:45:15.000Z</time>
      </trkpt>
      <trkpt lat="40.234916545450687408447265625" lon="-1.3866888172924518585205078125">
        <ele>1347.800048828125</ele>
        <time>2022-08-26T10:45:17.000Z</time>
      </trkpt>
      <trkpt lat="40.2349797450006008148193359375" lon="-1.38663793914020061492919921875">
        <ele>1347.5999755859375</ele>
        <time>2022-08-26T10:45:18.000Z</time>
      </trkpt>
      <trkpt lat="40.235149227082729339599609375" lon="-1.3864826224744319915771484375">
        <ele>1347.199951171875</ele>
        <time>2022-08-26T10:45:21.000Z</time>
      </trkpt>
      <trkpt lat="40.235253833234310150146484375" lon="-1.38638011179864406585693359375">
        <ele>1347</ele>
        <time>2022-08-26T10:45:23.000Z</time>
      </trkpt>
      <trkpt lat="40.235307477414608001708984375" lon="-1.38633853755891323089599609375">
        <ele>1346.800048828125</ele>
        <time>2022-08-26T10:45:24.000Z</time>
      </trkpt>
      <trkpt lat="40.23545625619590282440185546875" lon="-1.38625748455524444580078125">
        <ele>1346.800048828125</ele>
        <time>2022-08-26T10:45:27.000Z</time>
      </trkpt>
      <trkpt lat="40.23549892008304595947265625" lon="-1.38623996637761592864990234375">
        <ele>1346.800048828125</ele>
        <time>2022-08-26T10:45:28.000Z</time>
      </trkpt>
      <trkpt lat="40.2356509678065776824951171875" lon="-1.38622035272419452667236328125">
        <ele>1346.800048828125</ele>
        <time>2022-08-26T10:45:32.000Z</time>
      </trkpt>
      <trkpt lat="40.2359046041965484619140625" lon="-1.38625471852719783782958984375">
        <ele>1348.199951171875</ele>
        <time>2022-08-26T10:45:40.000Z</time>
      </trkpt>
      <trkpt lat="40.2360667102038860321044921875" lon="-1.3862527906894683837890625">
        <ele>1348.800048828125</ele>
        <time>2022-08-26T10:45:45.000Z</time>
      </trkpt>
      <trkpt lat="40.2362886629998683929443359375" lon="-1.38621767051517963409423828125">
        <ele>1349.800048828125</ele>
        <time>2022-08-26T10:45:52.000Z</time>
      </trkpt>
      <trkpt lat="40.23660826496779918670654296875" lon="-1.38608724810183048248291015625">
        <ele>1350.800048828125</ele>
        <time>2022-08-26T10:46:02.000Z</time>
      </trkpt>
      <trkpt lat="40.23666425608098506927490234375" lon="-1.3860504515469074249267578125">
        <ele>1351</ele>
        <time>2022-08-26T10:46:04.000Z</time>
      </trkpt>
      <trkpt lat="40.23693180643022060394287109375" lon="-1.3858251459896564483642578125">
        <ele>1351.199951171875</ele>
        <time>2022-08-26T10:46:12.000Z</time>
      </trkpt>
      <trkpt lat="40.2370732091367244720458984375" lon="-1.385569162666797637939453125">
        <ele>1351</ele>
        <time>2022-08-26T10:46:18.000Z</time>
      </trkpt>
      <trkpt lat="40.23710480891168117523193359375" lon="-1.3854617066681385040283203125">
        <ele>1351</ele>
        <time>2022-08-26T10:46:20.000Z</time>
      </trkpt>
      <trkpt lat="40.23714068345725536346435546875" lon="-1.3852692581713199615478515625">
        <ele>1351</ele>
        <time>2022-08-26T10:46:23.000Z</time>
      </trkpt>
      <trkpt lat="40.2372378297150135040283203125" lon="-1.38466634787619113922119140625">
        <ele>1350.5999755859375</ele>
        <time>2022-08-26T10:46:32.000Z</time>
      </trkpt>
      <trkpt lat="40.2373209781944751739501953125" lon="-1.38446987606585025787353515625">
        <ele>1350.199951171875</ele>
        <time>2022-08-26T10:46:35.000Z</time>
      </trkpt>
      <trkpt lat="40.23735878057777881622314453125" lon="-1.3844106160104274749755859375">
        <ele>1350</ele>
        <time>2022-08-26T10:46:36.000Z</time>
      </trkpt>
      <trkpt lat="40.23739851079881191253662109375" lon="-1.384353451430797576904296875">
        <ele>1350</ele>
        <time>2022-08-26T10:46:37.000Z</time>
      </trkpt>
      <trkpt lat="40.23771568201482295989990234375" lon="-1.38399948365986347198486328125">
        <ele>1349.199951171875</ele>
        <time>2022-08-26T10:46:44.000Z</time>
      </trkpt>
      <trkpt lat="40.237815678119659423828125" lon="-1.383923627436161041259765625">
        <ele>1349</ele>
        <time>2022-08-26T10:46:46.000Z</time>
      </trkpt>
      <trkpt lat="40.23799764923751354217529296875" lon="-1.383879370987415313720703125">
        <ele>1348.5999755859375</ele>
        <time>2022-08-26T10:46:49.000Z</time>
      </trkpt>
      <trkpt lat="40.23829386569559574127197265625" lon="-1.38397366739809513092041015625">
        <ele>1348.4000244140625</ele>
        <time>2022-08-26T10:46:53.000Z</time>
      </trkpt>
      <trkpt lat="40.2384377829730510711669921875" lon="-1.3840686343610286712646484375">
        <ele>1348</ele>
        <time>2022-08-26T10:46:55.000Z</time>
      </trkpt>
      <trkpt lat="40.23857080377638339996337890625" lon="-1.38418774120509624481201171875">
        <ele>1347.5999755859375</ele>
        <time>2022-08-26T10:46:57.000Z</time>
      </trkpt>
      <trkpt lat="40.23869468830525875091552734375" lon="-1.38431950472295284271240234375">
        <ele>1346.800048828125</ele>
        <time>2022-08-26T10:46:59.000Z</time>
      </trkpt>
      <trkpt lat="40.2388679422438144683837890625" lon="-1.384533829987049102783203125">
        <ele>1345.5999755859375</ele>
        <time>2022-08-26T10:47:02.000Z</time>
      </trkpt>
      <trkpt lat="40.23892368189990520477294921875" lon="-1.3846139609813690185546875">
        <ele>1345.4000244140625</ele>
        <time>2022-08-26T10:47:03.000Z</time>
      </trkpt>
      <trkpt lat="40.23930405266582965850830078125" lon="-1.38514026068150997161865234375">
        <ele>1344.800048828125</ele>
        <time>2022-08-26T10:47:10.000Z</time>
      </trkpt>
      <trkpt lat="40.239355266094207763671875" lon="-1.3851864449679851531982421875">
        <ele>1344.800048828125</ele>
        <time>2022-08-26T10:47:11.000Z</time>
      </trkpt>
      <trkpt lat="40.23940580897033214569091796875" lon="-1.38521268032491207122802734375">
        <ele>1344.5999755859375</ele>
        <time>2022-08-26T10:47:12.000Z</time>
      </trkpt>
      <trkpt lat="40.23950404487550258636474609375" lon="-1.3851519115269184112548828125">
        <ele>1344.199951171875</ele>
        <time>2022-08-26T10:47:14.000Z</time>
      </trkpt>
      <trkpt lat="40.2395629696547985076904296875" lon="-1.3849416933953762054443359375">
        <ele>1343.4000244140625</ele>
        <time>2022-08-26T10:47:17.000Z</time>
      </trkpt>
      <trkpt lat="40.23952013812959194183349609375" lon="-1.38455553911626338958740234375">
        <ele>1342.800048828125</ele>
        <time>2022-08-26T10:47:22.000Z</time>
      </trkpt>
      <trkpt lat="40.23943849839270114898681640625" lon="-1.38430978171527385711669921875">
        <ele>1342.800048828125</ele>
        <time>2022-08-26T10:47:26.000Z</time>
      </trkpt>
      <trkpt lat="40.23938921280205249786376953125" lon="-1.3841910101473331451416015625">
        <ele>1343.199951171875</ele>
        <time>2022-08-26T10:47:28.000Z</time>
      </trkpt>
      <trkpt lat="40.23914001882076263427734375" lon="-1.38372623361647129058837890625">
        <ele>1343.800048828125</ele>
        <time>2022-08-26T10:47:37.000Z</time>
      </trkpt>
      <trkpt lat="40.23894832469522953033447265625" lon="-1.3833588548004627227783203125">
        <ele>1344.4000244140625</ele>
        <time>2022-08-26T10:47:45.000Z</time>
      </trkpt>
      <trkpt lat="40.2389209158718585968017578125" lon="-1.3833226449787616729736328125">
        <ele>1344.5999755859375</ele>
        <time>2022-08-26T10:47:46.000Z</time>
      </trkpt>
      <trkpt lat="40.238778926432132720947265625" lon="-1.383129023015499114990234375">
        <ele>1344.800048828125</ele>
        <time>2022-08-26T10:47:52.000Z</time>
      </trkpt>
      <trkpt lat="40.23871346376836299896240234375" lon="-1.3829099200665950775146484375">
        <ele>1345.5999755859375</ele>
        <time>2022-08-26T10:47:58.000Z</time>
      </trkpt>
      <trkpt lat="40.2387075126171112060546875" lon="-1.3828301243484020233154296875">
        <ele>1346</ele>
        <time>2022-08-26T10:48:00.000Z</time>
      </trkpt>
      <trkpt lat="40.2387557923793792724609375" lon="-1.3825350813567638397216796875">
        <ele>1346.4000244140625</ele>
        <time>2022-08-26T10:48:08.000Z</time>
      </trkpt>
      <trkpt lat="40.23883902467787265777587890625" lon="-1.38243122957646846771240234375">
        <ele>1346.5999755859375</ele>
        <time>2022-08-26T10:48:12.000Z</time>
      </trkpt>
      <trkpt lat="40.238907337188720703125" lon="-1.38236425817012786865234375">
        <ele>1347.199951171875</ele>
        <time>2022-08-26T10:48:15.000Z</time>
      </trkpt>
      <trkpt lat="40.239061228930950164794921875" lon="-1.38226526789367198944091796875">
        <ele>1347.800048828125</ele>
        <time>2022-08-26T10:48:21.000Z</time>
      </trkpt>
      <trkpt lat="40.23916457779705524444580078125" lon="-1.3822125457227230072021484375">
        <ele>1348.4000244140625</ele>
        <time>2022-08-26T10:48:25.000Z</time>
      </trkpt>
      <trkpt lat="40.2393416874110698699951171875" lon="-1.382127888500690460205078125">
        <ele>1349</ele>
        <time>2022-08-26T10:48:31.000Z</time>
      </trkpt>
      <trkpt lat="40.2394788153469562530517578125" lon="-1.38207466341555118560791015625">
        <ele>1349.4000244140625</ele>
        <time>2022-08-26T10:48:35.000Z</time>
      </trkpt>
      <trkpt lat="40.23985072039067745208740234375" lon="-1.38198715634644031524658203125">
        <ele>1349.5999755859375</ele>
        <time>2022-08-26T10:48:45.000Z</time>
      </trkpt>
      <trkpt lat="40.24023612029850482940673828125" lon="-1.381984055042266845703125">
        <ele>1349.800048828125</ele>
        <time>2022-08-26T10:48:54.000Z</time>
      </trkpt>
      <trkpt lat="40.2406388707458972930908203125" lon="-1.38202236033976078033447265625">
        <ele>1350</ele>
        <time>2022-08-26T10:49:03.000Z</time>
      </trkpt>
      <trkpt lat="40.24097456596791744232177734375" lon="-1.38215429149568080902099609375">
        <ele>1350.199951171875</ele>
        <time>2022-08-26T10:49:12.000Z</time>
      </trkpt>
      <trkpt lat="40.2410076744854450225830078125" lon="-1.38216787017881870269775390625">
        <ele>1350.4000244140625</ele>
        <time>2022-08-26T10:49:13.000Z</time>
      </trkpt>
      <trkpt lat="40.24127011187374591827392578125" lon="-1.3822490908205509185791015625">
        <ele>1351.4000244140625</ele>
        <time>2022-08-26T10:49:21.000Z</time>
      </trkpt>
      <trkpt lat="40.24135828949511051177978515625" lon="-1.3822785951197147369384765625">
        <ele>1351.5999755859375</ele>
        <time>2022-08-26T10:49:24.000Z</time>
      </trkpt>
      <trkpt lat="40.24157546460628509521484375" lon="-1.38240356929600238800048828125">
        <ele>1351.800048828125</ele>
        <time>2022-08-26T10:49:32.000Z</time>
      </trkpt>
      <trkpt lat="40.2418575994670391082763671875" lon="-1.38258277438580989837646484375">
        <ele>1352</ele>
        <time>2022-08-26T10:49:40.000Z</time>
      </trkpt>
      <trkpt lat="40.24206270463764667510986328125" lon="-1.3827121071517467498779296875">
        <ele>1352.4000244140625</ele>
        <time>2022-08-26T10:49:47.000Z</time>
      </trkpt>
      <trkpt lat="40.24208650924265384674072265625" lon="-1.38273532502353191375732421875">
        <ele>1352.5999755859375</ele>
        <time>2022-08-26T10:49:48.000Z</time>
      </trkpt>
      <trkpt lat="40.2422384731471538543701171875" lon="-1.3828680105507373809814453125">
        <ele>1353.5999755859375</ele>
        <time>2022-08-26T10:49:54.000Z</time>
      </trkpt>
      <trkpt lat="40.24230058304965496063232421875" lon="-1.38292458839714527130126953125">
        <ele>1353.800048828125</ele>
        <time>2022-08-26T10:49:56.000Z</time>
      </trkpt>
      <trkpt lat="40.24255715310573577880859375" lon="-1.38304679654538631439208984375">
        <ele>1353.800048828125</ele>
        <time>2022-08-26T10:50:03.000Z</time>
      </trkpt>
      <trkpt lat="40.24271733127534389495849609375" lon="-1.3829873688519001007080078125">
        <ele>1354.199951171875</ele>
        <time>2022-08-26T10:50:08.000Z</time>
      </trkpt>
      <trkpt lat="40.24290458299219608306884765625" lon="-1.38273582793772220611572265625">
        <ele>1354.4000244140625</ele>
        <time>2022-08-26T10:50:15.000Z</time>
      </trkpt>
      <trkpt lat="40.24298756383359432220458984375" lon="-1.382618062198162078857421875">
        <ele>1354.800048828125</ele>
        <time>2022-08-26T10:50:18.000Z</time>
      </trkpt>
      <trkpt lat="40.2431785874068737030029296875" lon="-1.38239703141152858734130859375">
        <ele>1355.4000244140625</ele>
        <time>2022-08-26T10:50:24.000Z</time>
      </trkpt>
      <trkpt lat="40.24344890378415584564208984375" lon="-1.3822697103023529052734375">
        <ele>1355.4000244140625</ele>
        <time>2022-08-26T10:50:31.000Z</time>
      </trkpt>
      <trkpt lat="40.24368309415876865386962890625" lon="-1.38229988515377044677734375">
        <ele>1355.4000244140625</ele>
        <time>2022-08-26T10:50:37.000Z</time>
      </trkpt>
      <trkpt lat="40.243960283696651458740234375" lon="-1.3825129531323909759521484375">
        <ele>1355.5999755859375</ele>
        <time>2022-08-26T10:50:45.000Z</time>
      </trkpt>
      <trkpt lat="40.24417930282652378082275390625" lon="-1.38270280323922634124755859375">
        <ele>1356</ele>
        <time>2022-08-26T10:50:51.000Z</time>
      </trkpt>
      <trkpt lat="40.24430193006992340087890625" lon="-1.382781006395816802978515625">
        <ele>1356.4000244140625</ele>
        <time>2022-08-26T10:50:54.000Z</time>
      </trkpt>
      <trkpt lat="40.24466260336339473724365234375" lon="-1.382886953651905059814453125">
        <ele>1356.5999755859375</ele>
        <time>2022-08-26T10:51:02.000Z</time>
      </trkpt>
      <trkpt lat="40.24491758085787296295166015625" lon="-1.3830457068979740142822265625">
        <ele>1357.199951171875</ele>
        <time>2022-08-26T10:51:08.000Z</time>
      </trkpt>
      <trkpt lat="40.24521052837371826171875" lon="-1.383314765989780426025390625">
        <ele>1357.199951171875</ele>
        <time>2022-08-26T10:51:15.000Z</time>
      </trkpt>
      <trkpt lat="40.24552744813263416290283203125" lon="-1.38360000215470790863037109375">
        <ele>1356.199951171875</ele>
        <time>2022-08-26T10:51:21.000Z</time>
      </trkpt>
      <trkpt lat="40.2455815114080905914306640625" lon="-1.3836403191089630126953125">
        <ele>1355.800048828125</ele>
        <time>2022-08-26T10:51:22.000Z</time>
      </trkpt>
      <trkpt lat="40.24576398544013500213623046875" lon="-1.3837370462715625762939453125">
        <ele>1355</ele>
        <time>2022-08-26T10:51:25.000Z</time>
      </trkpt>
      <trkpt lat="40.24595819413661956787109375" lon="-1.38384995050728321075439453125">
        <ele>1354.4000244140625</ele>
        <time>2022-08-26T10:51:28.000Z</time>
      </trkpt>
      <trkpt lat="40.24608425796031951904296875" lon="-1.38395120389759540557861328125">
        <ele>1354.199951171875</ele>
        <time>2022-08-26T10:51:30.000Z</time>
      </trkpt>
      <trkpt lat="40.246175117790699005126953125" lon="-1.38408296741545200347900390625">
        <ele>1354</ele>
        <time>2022-08-26T10:51:32.000Z</time>
      </trkpt>
      <trkpt lat="40.24619934149086475372314453125" lon="-1.38416670262813568115234375">
        <ele>1354</ele>
        <time>2022-08-26T10:51:33.000Z</time>
      </trkpt>
      <trkpt lat="40.24620587937533855438232421875" lon="-1.3843284733593463897705078125">
        <ele>1353.800048828125</ele>
        <time>2022-08-26T10:51:35.000Z</time>
      </trkpt>
      <trkpt lat="40.24618324823677539825439453125" lon="-1.38447289355099201202392578125">
        <ele>1352.800048828125</ele>
        <time>2022-08-26T10:51:37.000Z</time>
      </trkpt>
      <trkpt lat="40.24616740643978118896484375" lon="-1.38454464264214038848876953125">
        <ele>1352.4000244140625</ele>
        <time>2022-08-26T10:51:38.000Z</time>
      </trkpt>
      <trkpt lat="40.24614821188151836395263671875" lon="-1.38461270369589328765869140625">
        <ele>1352.199951171875</ele>
        <time>2022-08-26T10:51:39.000Z</time>
      </trkpt>
      <trkpt lat="40.2461313642561435699462890625" lon="-1.38467900454998016357421875">
        <ele>1352</ele>
        <time>2022-08-26T10:51:40.000Z</time>
      </trkpt>
      <trkpt lat="40.24600672535598278045654296875" lon="-1.38512022793292999267578125">
        <ele>1352</ele>
        <time>2022-08-26T10:51:47.000Z</time>
      </trkpt>
      <trkpt lat="40.24600488133728504180908203125" lon="-1.385176219046115875244140625">
        <ele>1352</ele>
        <time>2022-08-26T10:51:48.000Z</time>
      </trkpt>
      <trkpt lat="40.246063135564327239990234375" lon="-1.3853081502020359039306640625">
        <ele>1351.800048828125</ele>
        <time>2022-08-26T10:51:51.000Z</time>
      </trkpt>
      <trkpt lat="40.2462472021579742431640625" lon="-1.385351903736591339111328125">
        <ele>1351.800048828125</ele>
        <time>2022-08-26T10:51:55.000Z</time>
      </trkpt>
      <trkpt lat="40.24636454880237579345703125" lon="-1.3853430189192295074462890625">
        <ele>1351.5999755859375</ele>
        <time>2022-08-26T10:51:57.000Z</time>
      </trkpt>
      <trkpt lat="40.24650595150887966156005859375" lon="-1.38530622236430644989013671875">
        <ele>1351</ele>
        <time>2022-08-26T10:51:59.000Z</time>
      </trkpt>
      <trkpt lat="40.2465873397886753082275390625" lon="-1.38527085073292255401611328125">
        <ele>1351</ele>
        <time>2022-08-26T10:52:00.000Z</time>
      </trkpt>
      <trkpt lat="40.246680714190006256103515625" lon="-1.38524117879569530487060546875">
        <ele>1350.4000244140625</ele>
        <time>2022-08-26T10:52:01.000Z</time>
      </trkpt>
      <trkpt lat="40.2468748390674591064453125" lon="-1.385197006165981292724609375">
        <ele>1349</ele>
        <time>2022-08-26T10:52:03.000Z</time>
      </trkpt>
      <trkpt lat="40.24697248823940753936767578125" lon="-1.385183595120906829833984375">
        <ele>1348.4000244140625</ele>
        <time>2022-08-26T10:52:04.000Z</time>
      </trkpt>
      <trkpt lat="40.24706737138330936431884765625" lon="-1.38519189320504665374755859375">
        <ele>1348.199951171875</ele>
        <time>2022-08-26T10:52:05.000Z</time>
      </trkpt>
      <trkpt lat="40.2471650205552577972412109375" lon="-1.38522324152290821075439453125">
        <ele>1347.800048828125</ele>
        <time>2022-08-26T10:52:06.000Z</time>
      </trkpt>
      <trkpt lat="40.24734623730182647705078125" lon="-1.3853389956057071685791015625">
        <ele>1346.800048828125</ele>
        <time>2022-08-26T10:52:08.000Z</time>
      </trkpt>
      <trkpt lat="40.247423015534877777099609375" lon="-1.3854120858013629913330078125">
        <ele>1346</ele>
        <time>2022-08-26T10:52:09.000Z</time>
      </trkpt>
      <trkpt lat="40.24748529307544231414794921875" lon="-1.38547696173191070556640625">
        <ele>1345</ele>
        <time>2022-08-26T10:52:10.000Z</time>
      </trkpt>
      <trkpt lat="40.24759442545473575592041015625" lon="-1.385591290891170501708984375">
        <ele>1343.199951171875</ele>
        <time>2022-08-26T10:52:12.000Z</time>
      </trkpt>
      <trkpt lat="40.24764153175055980682373046875" lon="-1.385636888444423675537109375">
        <ele>1342.199951171875</ele>
        <time>2022-08-26T10:52:13.000Z</time>
      </trkpt>
      <trkpt lat="40.247691236436367034912109375" lon="-1.38566547073423862457275390625">
        <ele>1340.800048828125</ele>
        <time>2022-08-26T10:52:14.000Z</time>
      </trkpt>
      <trkpt lat="40.24779014289379119873046875" lon="-1.38563596643507480621337890625">
        <ele>1339.199951171875</ele>
        <time>2022-08-26T10:52:16.000Z</time>
      </trkpt>
      <trkpt lat="40.2478699386119842529296875" lon="-1.38551317155361175537109375">
        <ele>1338</ele>
        <time>2022-08-26T10:52:18.000Z</time>
      </trkpt>
      <trkpt lat="40.2479006163775920867919921875" lon="-1.3854373991489410400390625">
        <ele>1337.199951171875</ele>
        <time>2022-08-26T10:52:19.000Z</time>
      </trkpt>
      <trkpt lat="40.24792492389678955078125" lon="-1.38535064645111560821533203125">
        <ele>1336.5999755859375</ele>
        <time>2022-08-26T10:52:20.000Z</time>
      </trkpt>
      <trkpt lat="40.24796775542199611663818359375" lon="-1.385174207389354705810546875">
        <ele>1335.4000244140625</ele>
        <time>2022-08-26T10:52:22.000Z</time>
      </trkpt>
      <trkpt lat="40.247985608875751495361328125" lon="-1.38507672585546970367431640625">
        <ele>1334.800048828125</ele>
        <time>2022-08-26T10:52:23.000Z</time>
      </trkpt>
      <trkpt lat="40.24803263135254383087158203125" lon="-1.38488997705280780792236328125">
        <ele>1334.199951171875</ele>
        <time>2022-08-26T10:52:25.000Z</time>
      </trkpt>
      <trkpt lat="40.24814930744469165802001953125" lon="-1.38460800983011722564697265625">
        <ele>1333.4000244140625</ele>
        <time>2022-08-26T10:52:28.000Z</time>
      </trkpt>
      <trkpt lat="40.24824611842632293701171875" lon="-1.3844189979135990142822265625">
        <ele>1333</ele>
        <time>2022-08-26T10:52:30.000Z</time>
      </trkpt>
      <trkpt lat="40.248431526124477386474609375" lon="-1.38413258828222751617431640625">
        <ele>1331.800048828125</ele>
        <time>2022-08-26T10:52:33.000Z</time>
      </trkpt>
      <trkpt lat="40.2485919557511806488037109375" lon="-1.38397685252130031585693359375">
        <ele>1330.5999755859375</ele>
        <time>2022-08-26T10:52:35.000Z</time>
      </trkpt>
      <trkpt lat="40.248789601027965545654296875" lon="-1.38386227190494537353515625">
        <ele>1329.5999755859375</ele>
        <time>2022-08-26T10:52:37.000Z</time>
      </trkpt>
      <trkpt lat="40.2488963864743709564208984375" lon="-1.3838262297213077545166015625">
        <ele>1329</ele>
        <time>2022-08-26T10:52:38.000Z</time>
      </trkpt>
      <trkpt lat="40.24912227876484394073486328125" lon="-1.38380586169660091400146484375">
        <ele>1327.800048828125</ele>
        <time>2022-08-26T10:52:40.000Z</time>
      </trkpt>
      <trkpt lat="40.24923727847635746002197265625" lon="-1.38380527496337890625">
        <ele>1327.199951171875</ele>
        <time>2022-08-26T10:52:41.000Z</time>
      </trkpt>
      <trkpt lat="40.24934976361691951751708984375" lon="-1.38380804099142551422119140625">
        <ele>1326.4000244140625</ele>
        <time>2022-08-26T10:52:42.000Z</time>
      </trkpt>
      <trkpt lat="40.2494604885578155517578125" lon="-1.38380787335336208343505859375">
        <ele>1324.4000244140625</ele>
        <time>2022-08-26T10:52:43.000Z</time>
      </trkpt>
      <trkpt lat="40.24966710247099399566650390625" lon="-1.383770741522312164306640625">
        <ele>1323.5999755859375</ele>
        <time>2022-08-26T10:52:45.000Z</time>
      </trkpt>
      <trkpt lat="40.24987011216580867767333984375" lon="-1.38370133936405181884765625">
        <ele>1322.4000244140625</ele>
        <time>2022-08-26T10:52:47.000Z</time>
      </trkpt>
      <trkpt lat="40.24997203610837459564208984375" lon="-1.3836646266281604766845703125">
        <ele>1321.199951171875</ele>
        <time>2022-08-26T10:52:48.000Z</time>
      </trkpt>
      <trkpt lat="40.25007697753608226776123046875" lon="-1.38362783007323741912841796875">
        <ele>1320.199951171875</ele>
        <time>2022-08-26T10:52:49.000Z</time>
      </trkpt>
      <trkpt lat="40.2501825056970119476318359375" lon="-1.38359279371798038482666015625">
        <ele>1319.199951171875</ele>
        <time>2022-08-26T10:52:50.000Z</time>
      </trkpt>
      <trkpt lat="40.25028568692505359649658203125" lon="-1.3835663907229900360107421875">
        <ele>1318.4000244140625</ele>
        <time>2022-08-26T10:52:51.000Z</time>
      </trkpt>
      <trkpt lat="40.2503979206085205078125" lon="-1.38354904018342494964599609375">
        <ele>1317.199951171875</ele>
        <time>2022-08-26T10:52:52.000Z</time>
      </trkpt>
      <trkpt lat="40.2505011856555938720703125" lon="-1.38353747315704822540283203125">
        <ele>1316.199951171875</ele>
        <time>2022-08-26T10:52:53.000Z</time>
      </trkpt>
      <trkpt lat="40.25060780346393585205078125" lon="-1.3835385628044605255126953125">
        <ele>1315.5999755859375</ele>
        <time>2022-08-26T10:52:54.000Z</time>
      </trkpt>
      <trkpt lat="40.2507155947387218475341796875" lon="-1.38354518450796604156494140625">
        <ele>1315.199951171875</ele>
        <time>2022-08-26T10:52:55.000Z</time>
      </trkpt>
      <trkpt lat="40.25092204101383686065673828125" lon="-1.3835298456251621246337890625">
        <ele>1313.199951171875</ele>
        <time>2022-08-26T10:52:57.000Z</time>
      </trkpt>
      <trkpt lat="40.25110962800681591033935546875" lon="-1.383447535336017608642578125">
        <ele>1311</ele>
        <time>2022-08-26T10:52:59.000Z</time>
      </trkpt>
      <trkpt lat="40.25118808262050151824951171875" lon="-1.38338156975805759429931640625">
        <ele>1310</ele>
        <time>2022-08-26T10:53:00.000Z</time>
      </trkpt>
      <trkpt lat="40.251316912472248077392578125" lon="-1.38319909572601318359375">
        <ele>1308.199951171875</ele>
        <time>2022-08-26T10:53:02.000Z</time>
      </trkpt>
      <trkpt lat="40.2513754181563854217529296875" lon="-1.38308753259479999542236328125">
        <ele>1307.199951171875</ele>
        <time>2022-08-26T10:53:03.000Z</time>
      </trkpt>
      <trkpt lat="40.2514337562024593353271484375" lon="-1.38297001831233501434326171875">
        <ele>1306.199951171875</ele>
        <time>2022-08-26T10:53:04.000Z</time>
      </trkpt>
      <trkpt lat="40.25149486027657985687255859375" lon="-1.3828463852405548095703125">
        <ele>1305.4000244140625</ele>
        <time>2022-08-26T10:53:05.000Z</time>
      </trkpt>
      <trkpt lat="40.25155772455036640167236328125" lon="-1.38272375799715518951416015625">
        <ele>1304.4000244140625</ele>
        <time>2022-08-26T10:53:06.000Z</time>
      </trkpt>
      <trkpt lat="40.25162301957607269287109375" lon="-1.38260389678180217742919921875">
        <ele>1303.199951171875</ele>
        <time>2022-08-26T10:53:07.000Z</time>
      </trkpt>
      <trkpt lat="40.2517670206725597381591796875" lon="-1.38237674720585346221923828125">
        <ele>1301.800048828125</ele>
        <time>2022-08-26T10:53:09.000Z</time>
      </trkpt>
      <trkpt lat="40.25194647721946239471435546875" lon="-1.38219435699284076690673828125">
        <ele>1299.800048828125</ele>
        <time>2022-08-26T10:53:11.000Z</time>
      </trkpt>
      <trkpt lat="40.25205175392329692840576171875" lon="-1.38212344609200954437255859375">
        <ele>1298</ele>
        <time>2022-08-26T10:53:12.000Z</time>
      </trkpt>
      <trkpt lat="40.25216214358806610107421875" lon="-1.3820589892566204071044921875">
        <ele>1296.5999755859375</ele>
        <time>2022-08-26T10:53:13.000Z</time>
      </trkpt>
      <trkpt lat="40.25238200090825557708740234375" lon="-1.38193242251873016357421875">
        <ele>1294.5999755859375</ele>
        <time>2022-08-26T10:53:15.000Z</time>
      </trkpt>
      <trkpt lat="40.2524932287633419036865234375" lon="-1.38187366537749767303466796875">
        <ele>1293.4000244140625</ele>
        <time>2022-08-26T10:53:16.000Z</time>
      </trkpt>
      <trkpt lat="40.2526055462658405303955078125" lon="-1.38181767426431179046630859375">
        <ele>1292.4000244140625</ele>
        <time>2022-08-26T10:53:17.000Z</time>
      </trkpt>
      <trkpt lat="40.25271643884479999542236328125" lon="-1.38176168315112590789794921875">
        <ele>1291.199951171875</ele>
        <time>2022-08-26T10:53:18.000Z</time>
      </trkpt>
      <trkpt lat="40.252943672239780426025390625" lon="-1.3816861622035503387451171875">
        <ele>1289.4000244140625</ele>
        <time>2022-08-26T10:53:20.000Z</time>
      </trkpt>
      <trkpt lat="40.2530568279325962066650390625" lon="-1.3816543109714984893798828125">
        <ele>1288.5999755859375</ele>
        <time>2022-08-26T10:53:21.000Z</time>
      </trkpt>
      <trkpt lat="40.25316688232123851776123046875" lon="-1.3816234655678272247314453125">
        <ele>1288.199951171875</ele>
        <time>2022-08-26T10:53:22.000Z</time>
      </trkpt>
      <trkpt lat="40.25337743572890758514404296875" lon="-1.3815483637154102325439453125">
        <ele>1286.5999755859375</ele>
        <time>2022-08-26T10:53:24.000Z</time>
      </trkpt>
      <trkpt lat="40.25356804020702838897705078125" lon="-1.38143579475581645965576171875">
        <ele>1285.4000244140625</ele>
        <time>2022-08-26T10:53:26.000Z</time>
      </trkpt>
      <trkpt lat="40.25375277735292911529541015625" lon="-1.38130369596183300018310546875">
        <ele>1284.199951171875</ele>
        <time>2022-08-26T10:53:28.000Z</time>
      </trkpt>
      <trkpt lat="40.25393516756594181060791015625" lon="-1.3811700046062469482421875">
        <ele>1282.4000244140625</ele>
        <time>2022-08-26T10:53:30.000Z</time>
      </trkpt>
      <trkpt lat="40.25412057526409626007080078125" lon="-1.3810333795845508575439453125">
        <ele>1281</ele>
        <time>2022-08-26T10:53:32.000Z</time>
      </trkpt>
      <trkpt lat="40.2542175538837909698486328125" lon="-1.38096406124532222747802734375">
        <ele>1280.199951171875</ele>
        <time>2022-08-26T10:53:33.000Z</time>
      </trkpt>
      <trkpt lat="40.254313945770263671875" lon="-1.3808905519545078277587890625">
        <ele>1279.4000244140625</ele>
        <time>2022-08-26T10:53:34.000Z</time>
      </trkpt>
      <trkpt lat="40.25450639426708221435546875" lon="-1.3807393424212932586669921875">
        <ele>1278</ele>
        <time>2022-08-26T10:53:36.000Z</time>
      </trkpt>
      <trkpt lat="40.254705883562564849853515625" lon="-1.3806045614182949066162109375">
        <ele>1276.5999755859375</ele>
        <time>2022-08-26T10:53:38.000Z</time>
      </trkpt>
      <trkpt lat="40.25480889715254306793212890625" lon="-1.38054379262030124664306640625">
        <ele>1276.199951171875</ele>
        <time>2022-08-26T10:53:39.000Z</time>
      </trkpt>
      <trkpt lat="40.2549134194850921630859375" lon="-1.38048562221229076385498046875">
        <ele>1274</ele>
        <time>2022-08-26T10:53:40.000Z</time>
      </trkpt>
      <trkpt lat="40.25501559488475322723388671875" lon="-1.3804261945188045501708984375">
        <ele>1272.5999755859375</ele>
        <time>2022-08-26T10:53:41.000Z</time>
      </trkpt>
      <trkpt lat="40.25522388517856597900390625" lon="-1.38029803521931171417236328125">
        <ele>1271.4000244140625</ele>
        <time>2022-08-26T10:53:43.000Z</time>
      </trkpt>
      <trkpt lat="40.2554225362837314605712890625" lon="-1.38017180375754833221435546875">
        <ele>1270</ele>
        <time>2022-08-26T10:53:45.000Z</time>
      </trkpt>
      <trkpt lat="40.25551230646669864654541015625" lon="-1.38011614792048931121826171875">
        <ele>1269.5999755859375</ele>
        <time>2022-08-26T10:53:46.000Z</time>
      </trkpt>
      <trkpt lat="40.25559562258422374725341796875" lon="-1.38006216846406459808349609375">
        <ele>1268.800048828125</ele>
        <time>2022-08-26T10:53:47.000Z</time>
      </trkpt>
      <trkpt lat="40.2557521127164363861083984375" lon="-1.3799578137695789337158203125">
        <ele>1267.199951171875</ele>
        <time>2022-08-26T10:53:49.000Z</time>
      </trkpt>
      <trkpt lat="40.255896784365177154541015625" lon="-1.3798602484166622161865234375">
        <ele>1265.5999755859375</ele>
        <time>2022-08-26T10:53:51.000Z</time>
      </trkpt>
      <trkpt lat="40.255970545113086700439453125" lon="-1.37981691397726535797119140625">
        <ele>1264.5999755859375</ele>
        <time>2022-08-26T10:53:52.000Z</time>
      </trkpt>
      <trkpt lat="40.25604589842259883880615234375" lon="-1.37978506274521350860595703125">
        <ele>1263.800048828125</ele>
        <time>2022-08-26T10:53:53.000Z</time>
      </trkpt>
      <trkpt lat="40.2561192400753498077392578125" lon="-1.37976611964404582977294921875">
        <ele>1263.199951171875</ele>
        <time>2022-08-26T10:53:54.000Z</time>
      </trkpt>
      <trkpt lat="40.2562020532786846160888671875" lon="-1.37977466918528079986572265625">
        <ele>1262.5999755859375</ele>
        <time>2022-08-26T10:53:55.000Z</time>
      </trkpt>
      <trkpt lat="40.2562862075865268707275390625" lon="-1.37979797087609767913818359375">
        <ele>1261.5999755859375</ele>
        <time>2022-08-26T10:53:56.000Z</time>
      </trkpt>
      <trkpt lat="40.256366841495037078857421875" lon="-1.37984097003936767578125">
        <ele>1260.5999755859375</ele>
        <time>2022-08-26T10:53:57.000Z</time>
      </trkpt>
      <trkpt lat="40.25644236244261264801025390625" lon="-1.37989721260964870452880859375">
        <ele>1259.800048828125</ele>
        <time>2022-08-26T10:53:58.000Z</time>
      </trkpt>
      <trkpt lat="40.2565068192780017852783203125" lon="-1.37995605356991291046142578125">
        <ele>1259.199951171875</ele>
        <time>2022-08-26T10:53:59.000Z</time>
      </trkpt>
      <trkpt lat="40.256570018827915191650390625" lon="-1.38001455925405025482177734375">
        <ele>1258.5999755859375</ele>
        <time>2022-08-26T10:54:00.000Z</time>
      </trkpt>
      <trkpt lat="40.25662894360721111297607421875" lon="-1.380067951977252960205078125">
        <ele>1258</ele>
        <time>2022-08-26T10:54:01.000Z</time>
      </trkpt>
      <trkpt lat="40.25675249285995960235595703125" lon="-1.38017063029110431671142578125">
        <ele>1257</ele>
        <time>2022-08-26T10:54:03.000Z</time>
      </trkpt>
      <trkpt lat="40.25681938044726848602294921875" lon="-1.380218155682086944580078125">
        <ele>1256.4000244140625</ele>
        <time>2022-08-26T10:54:04.000Z</time>
      </trkpt>
      <trkpt lat="40.257036052644252777099609375" lon="-1.380305327475070953369140625">
        <ele>1255.5999755859375</ele>
        <time>2022-08-26T10:54:07.000Z</time>
      </trkpt>
      <trkpt lat="40.25730351917445659637451171875" lon="-1.380294598639011383056640625">
        <ele>1254.800048828125</ele>
        <time>2022-08-26T10:54:11.000Z</time>
      </trkpt>
      <trkpt lat="40.257435031235218048095703125" lon="-1.3802769966423511505126953125">
        <ele>1254.5999755859375</ele>
        <time>2022-08-26T10:54:13.000Z</time>
      </trkpt>
      <trkpt lat="40.25770467706024646759033203125" lon="-1.38023198582231998443603515625">
        <ele>1254</ele>
        <time>2022-08-26T10:54:17.000Z</time>
      </trkpt>
      <trkpt lat="40.25792084634304046630859375" lon="-1.38020734302699565887451171875">
        <ele>1253.4000244140625</ele>
        <time>2022-08-26T10:54:20.000Z</time>
      </trkpt>
      <trkpt lat="40.25814439170062541961669921875" lon="-1.38016459532082080841064453125">
        <ele>1253.199951171875</ele>
        <time>2022-08-26T10:54:23.000Z</time>
      </trkpt>
      <trkpt lat="40.25848888792097568511962890625" lon="-1.38011715374886989593505859375">
        <ele>1252.4000244140625</ele>
        <time>2022-08-26T10:54:28.000Z</time>
      </trkpt>
      <trkpt lat="40.25856281630694866180419921875" lon="-1.38010944239795207977294921875">
        <ele>1252.199951171875</ele>
        <time>2022-08-26T10:54:29.000Z</time>
      </trkpt>
      <trkpt lat="40.25881963782012462615966796875" lon="-1.38011396862566471099853515625">
        <ele>1251.199951171875</ele>
        <time>2022-08-26T10:54:32.000Z</time>
      </trkpt>
      <trkpt lat="40.25899750180542469024658203125" lon="-1.38013391755521297454833984375">
        <ele>1250.4000244140625</ele>
        <time>2022-08-26T10:54:34.000Z</time>
      </trkpt>
      <trkpt lat="40.259083919227123260498046875" lon="-1.38015252538025379180908203125">
        <ele>1250</ele>
        <time>2022-08-26T10:54:35.000Z</time>
      </trkpt>
      <trkpt lat="40.259163044393062591552734375" lon="-1.38017934747040271759033203125">
        <ele>1249.5999755859375</ele>
        <time>2022-08-26T10:54:36.000Z</time>
      </trkpt>
      <trkpt lat="40.25924049317836761474609375" lon="-1.38022175990045070648193359375">
        <ele>1248.800048828125</ele>
        <time>2022-08-26T10:54:37.000Z</time>
      </trkpt>
      <trkpt lat="40.2593087218701839447021484375" lon="-1.38027205131947994232177734375">
        <ele>1248.5999755859375</ele>
        <time>2022-08-26T10:54:38.000Z</time>
      </trkpt>
      <trkpt lat="40.2594921179115772247314453125" lon="-1.38051127083599567413330078125">
        <ele>1247.5999755859375</ele>
        <time>2022-08-26T10:54:41.000Z</time>
      </trkpt>
      <trkpt lat="40.259551964700222015380859375" lon="-1.3806116022169589996337890625">
        <ele>1247.5999755859375</ele>
        <time>2022-08-26T10:54:42.000Z</time>
      </trkpt>
      <trkpt lat="40.25969118811190128326416015625" lon="-1.3807966746389865875244140625">
        <ele>1247.199951171875</ele>
        <time>2022-08-26T10:54:44.000Z</time>
      </trkpt>
      <trkpt lat="40.25976645760238170623779296875" lon="-1.38087186031043529510498046875">
        <ele>1247</ele>
        <time>2022-08-26T10:54:45.000Z</time>
      </trkpt>
      <trkpt lat="40.259848348796367645263671875" lon="-1.38095467351377010345458984375">
        <ele>1246.5999755859375</ele>
        <time>2022-08-26T10:54:46.000Z</time>
      </trkpt>
      <trkpt lat="40.25999226607382297515869140625" lon="-1.3811208866536617279052734375">
        <ele>1245.4000244140625</ele>
        <time>2022-08-26T10:54:48.000Z</time>
      </trkpt>
      <trkpt lat="40.26012067683041095733642578125" lon="-1.381302438676357269287109375">
        <ele>1244.4000244140625</ele>
        <time>2022-08-26T10:54:50.000Z</time>
      </trkpt>
      <trkpt lat="40.26018354110419750213623046875" lon="-1.38139857910573482513427734375">
        <ele>1244</ele>
        <time>2022-08-26T10:54:51.000Z</time>
      </trkpt>
      <trkpt lat="40.26029996573925018310546875" lon="-1.38158985413610935211181640625">
        <ele>1242.800048828125</ele>
        <time>2022-08-26T10:54:53.000Z</time>
      </trkpt>
      <trkpt lat="40.26042980141937732696533203125" lon="-1.38172346167266368865966796875">
        <ele>1242.4000244140625</ele>
        <time>2022-08-26T10:54:55.000Z</time>
      </trkpt>
      <trkpt lat="40.260500125586986541748046875" lon="-1.38175648637115955352783203125">
        <ele>1242.199951171875</ele>
        <time>2022-08-26T10:54:56.000Z</time>
      </trkpt>
      <trkpt lat="40.260566174983978271484375" lon="-1.38177148997783660888671875">
        <ele>1241.800048828125</ele>
        <time>2022-08-26T10:54:57.000Z</time>
      </trkpt>
      <trkpt lat="40.260694921016693115234375" lon="-1.38172061182558536529541015625">
        <ele>1241</ele>
        <time>2022-08-26T10:54:59.000Z</time>
      </trkpt>
      <trkpt lat="40.26081629097461700439453125" lon="-1.38162262737751007080078125">
        <ele>1240.4000244140625</ele>
        <time>2022-08-26T10:55:01.000Z</time>
      </trkpt>
      <trkpt lat="40.26092031039297580718994140625" lon="-1.38150519691407680511474609375">
        <ele>1239.5999755859375</ele>
        <time>2022-08-26T10:55:03.000Z</time>
      </trkpt>
      <trkpt lat="40.26096607558429241180419921875" lon="-1.38141986913979053497314453125">
        <ele>1239.199951171875</ele>
        <time>2022-08-26T10:55:04.000Z</time>
      </trkpt>
      <trkpt lat="40.261011086404323577880859375" lon="-1.3813458569347858428955078125">
        <ele>1239</ele>
        <time>2022-08-26T10:55:05.000Z</time>
      </trkpt>
      <trkpt lat="40.26110286824405193328857421875" lon="-1.38117528520524501800537109375">
        <ele>1238.800048828125</ele>
        <time>2022-08-26T10:55:08.000Z</time>
      </trkpt>
      <trkpt lat="40.26125843636691570281982421875" lon="-1.38080262579023838043212890625">
        <ele>1239</ele>
        <time>2022-08-26T10:55:16.000Z</time>
      </trkpt>
      <trkpt lat="40.2613632939755916595458984375" lon="-1.38045377098023891448974609375">
        <ele>1239.199951171875</ele>
        <time>2022-08-26T10:55:23.000Z</time>
      </trkpt>
      <trkpt lat="40.261467061936855316162109375" lon="-1.3800583966076374053955078125">
        <ele>1239.199951171875</ele>
        <time>2022-08-26T10:55:31.000Z</time>
      </trkpt>
      <trkpt lat="40.261581055819988250732421875" lon="-1.379740051925182342529296875">
        <ele>1238.5999755859375</ele>
        <time>2022-08-26T10:55:38.000Z</time>
      </trkpt>
      <trkpt lat="40.26170887984335422515869140625" lon="-1.37964441440999507904052734375">
        <ele>1238.4000244140625</ele>
        <time>2022-08-26T10:55:42.000Z</time>
      </trkpt>
      <trkpt lat="40.26174257509410381317138671875" lon="-1.3796426542103290557861328125">
        <ele>1238.199951171875</ele>
        <time>2022-08-26T10:55:43.000Z</time>
      </trkpt>
      <trkpt lat="40.26189579628407955169677734375" lon="-1.379690431058406829833984375">
        <ele>1238.199951171875</ele>
        <time>2022-08-26T10:55:47.000Z</time>
      </trkpt>
      <trkpt lat="40.2621572278439998626708984375" lon="-1.37974642217159271240234375">
        <ele>1238.199951171875</ele>
        <time>2022-08-26T10:55:54.000Z</time>
      </trkpt>
      <trkpt lat="40.2624774165451526641845703125" lon="-1.37975958175957202911376953125">
        <ele>1238.5999755859375</ele>
        <time>2022-08-26T10:56:02.000Z</time>
      </trkpt>
      <trkpt lat="40.26280472986400127410888671875" lon="-1.3797003217041492462158203125">
        <ele>1238.4000244140625</ele>
        <time>2022-08-26T10:56:10.000Z</time>
      </trkpt>
      <trkpt lat="40.26309424079954624176025390625" lon="-1.37959127314388751983642578125">
        <ele>1238.199951171875</ele>
        <time>2022-08-26T10:56:17.000Z</time>
      </trkpt>
      <trkpt lat="40.2634269185364246368408203125" lon="-1.379534192383289337158203125">
        <ele>1237.800048828125</ele>
        <time>2022-08-26T10:56:23.000Z</time>
      </trkpt>
      <trkpt lat="40.26375188492238521575927734375" lon="-1.379468478262424468994140625">
        <ele>1237.199951171875</ele>
        <time>2022-08-26T10:56:28.000Z</time>
      </trkpt>
      <trkpt lat="40.26387375779449939727783203125" lon="-1.37944039888679981231689453125">
        <ele>1237</ele>
        <time>2022-08-26T10:56:30.000Z</time>
      </trkpt>
      <trkpt lat="40.26408799923956394195556640625" lon="-1.37937569059431552886962890625">
        <ele>1236.199951171875</ele>
        <time>2022-08-26T10:56:34.000Z</time>
      </trkpt>
      <trkpt lat="40.26424004696309566497802734375" lon="-1.379328668117523193359375">
        <ele>1236</ele>
        <time>2022-08-26T10:56:37.000Z</time>
      </trkpt>
      <trkpt lat="40.2645747363567352294921875" lon="-1.379163376986980438232421875">
        <ele>1235.5999755859375</ele>
        <time>2022-08-26T10:56:44.000Z</time>
      </trkpt>
      <trkpt lat="40.26474597863852977752685546875" lon="-1.3789285160601139068603515625">
        <ele>1235.199951171875</ele>
        <time>2022-08-26T10:56:48.000Z</time>
      </trkpt>
      <trkpt lat="40.2647717110812664031982421875" lon="-1.37885726988315582275390625">
        <ele>1235.199951171875</ele>
        <time>2022-08-26T10:56:49.000Z</time>
      </trkpt>
      <trkpt lat="40.26481152512133121490478515625" lon="-1.37871905229985713958740234375">
        <ele>1235</ele>
        <time>2022-08-26T10:56:51.000Z</time>
      </trkpt>
      <trkpt lat="40.26485393755137920379638671875" lon="-1.37858142144978046417236328125">
        <ele>1234.5999755859375</ele>
        <time>2022-08-26T10:56:53.000Z</time>
      </trkpt>
      <trkpt lat="40.264887548983097076416015625" lon="-1.3783013820648193359375">
        <ele>1234</ele>
        <time>2022-08-26T10:56:57.000Z</time>
      </trkpt>
      <trkpt lat="40.264884196221828460693359375" lon="-1.37823122553527355194091796875">
        <ele>1234</ele>
        <time>2022-08-26T10:56:58.000Z</time>
      </trkpt>
      <trkpt lat="40.26485435664653778076171875" lon="-1.37803240679204463958740234375">
        <ele>1233.800048828125</ele>
        <time>2022-08-26T10:57:02.000Z</time>
      </trkpt>
      <trkpt lat="40.2647985331714153289794921875" lon="-1.3778931833803653717041015625">
        <ele>1233.5999755859375</ele>
        <time>2022-08-26T10:57:07.000Z</time>
      </trkpt>
      <trkpt lat="40.2647589705884456634521484375" lon="-1.377773992717266082763671875">
        <ele>1233.800048828125</ele>
        <time>2022-08-26T10:57:13.000Z</time>
      </trkpt>
      <trkpt lat="40.26474731974303722381591796875" lon="-1.37775421142578125">
        <ele>1234</ele>
        <time>2022-08-26T10:57:14.000Z</time>
      </trkpt>
      <trkpt lat="40.26471077464520931243896484375" lon="-1.37765069492161273956298828125">
        <ele>1234.199951171875</ele>
        <time>2022-08-26T10:57:19.000Z</time>
      </trkpt>
      <trkpt lat="40.26468546129763126373291015625" lon="-1.3776115514338016510009765625">
        <ele>1234.5999755859375</ele>
        <time>2022-08-26T10:57:21.000Z</time>
      </trkpt>
      <trkpt lat="40.26463584043085575103759765625" lon="-1.3775411434471607208251953125">
        <ele>1235.199951171875</ele>
        <time>2022-08-26T10:57:25.000Z</time>
      </trkpt>
      <trkpt lat="40.2646158076822757720947265625" lon="-1.37749043293297290802001953125">
        <ele>1235.800048828125</ele>
        <time>2022-08-26T10:57:28.000Z</time>
      </trkpt>
      <trkpt lat="40.264589823782444000244140625" lon="-1.3774529658257961273193359375">
        <ele>1236.199951171875</ele>
        <time>2022-08-26T10:57:30.000Z</time>
      </trkpt>
      <trkpt lat="40.26457138359546661376953125" lon="-1.377413570880889892578125">
        <ele>1236.199951171875</ele>
        <time>2022-08-26T10:57:32.000Z</time>
      </trkpt>
      <trkpt lat="40.264552943408489227294921875" lon="-1.3773701526224613189697265625">
        <ele>1236.5999755859375</ele>
        <time>2022-08-26T10:57:34.000Z</time>
      </trkpt>
      <trkpt lat="40.26451212354004383087158203125" lon="-1.3772325217723846435546875">
        <ele>1237.4000244140625</ele>
        <time>2022-08-26T10:57:40.000Z</time>
      </trkpt>
      <trkpt lat="40.2644984610378742218017578125" lon="-1.3771761953830718994140625">
        <ele>1237.5999755859375</ele>
        <time>2022-08-26T10:57:42.000Z</time>
      </trkpt>
      <trkpt lat="40.264488570392131805419921875" lon="-1.3770543225109577178955078125">
        <ele>1238.5999755859375</ele>
        <time>2022-08-26T10:57:47.000Z</time>
      </trkpt>
      <trkpt lat="40.264501981437206268310546875" lon="-1.376990117132663726806640625">
        <ele>1239.199951171875</ele>
        <time>2022-08-26T10:57:50.000Z</time>
      </trkpt>
      <trkpt lat="40.2645242772996425628662109375" lon="-1.3769347965717315673828125">
        <ele>1239.800048828125</ele>
        <time>2022-08-26T10:57:53.000Z</time>
      </trkpt>
      <trkpt lat="40.26457482017576694488525390625" lon="-1.37686983682215213775634765625">
        <ele>1240.4000244140625</ele>
        <time>2022-08-26T10:57:58.000Z</time>
      </trkpt>
      <trkpt lat="40.26459678076207637786865234375" lon="-1.3768471218645572662353515625">
        <ele>1240.800048828125</ele>
        <time>2022-08-26T10:58:00.000Z</time>
      </trkpt>
      <trkpt lat="40.26466517709195613861083984375" lon="-1.37682683765888214111328125">
        <ele>1241.4000244140625</ele>
        <time>2022-08-26T10:58:05.000Z</time>
      </trkpt>
      <trkpt lat="40.26476022787392139434814453125" lon="-1.37683178298175334930419921875">
        <ele>1241.800048828125</ele>
        <time>2022-08-26T10:58:10.000Z</time>
      </trkpt>
      <trkpt lat="40.26482912711799144744873046875" lon="-1.37683798559010028839111328125">
        <ele>1242</ele>
        <time>2022-08-26T10:58:13.000Z</time>
      </trkpt>
      <trkpt lat="40.2649805881083011627197265625" lon="-1.37686707079410552978515625">
        <ele>1242.4000244140625</ele>
        <time>2022-08-26T10:58:21.000Z</time>
      </trkpt>
      <trkpt lat="40.26505929417908191680908203125" lon="-1.37688945047557353973388671875">
        <ele>1242.800048828125</ele>
        <time>2022-08-26T10:58:25.000Z</time>
      </trkpt>
      <trkpt lat="40.26516088284552097320556640625" lon="-1.37692163698375225067138671875">
        <ele>1243.5999755859375</ele>
        <time>2022-08-26T10:58:31.000Z</time>
      </trkpt>
      <trkpt lat="40.26524570770561695098876953125" lon="-1.3769550807774066925048828125">
        <ele>1244</ele>
        <time>2022-08-26T10:58:36.000Z</time>
      </trkpt>
      <trkpt lat="40.2652565203607082366943359375" lon="-1.37696673162281513214111328125">
        <ele>1244.199951171875</ele>
        <time>2022-08-26T10:58:38.000Z</time>
      </trkpt>
      <trkpt lat="40.26531879790127277374267578125" lon="-1.3769604451954364776611328125">
        <ele>1244.800048828125</ele>
        <time>2022-08-26T10:58:44.000Z</time>
      </trkpt>
      <trkpt lat="40.2653755433857440948486328125" lon="-1.37695499695837497711181640625">
        <ele>1245</ele>
        <time>2022-08-26T10:58:47.000Z</time>
      </trkpt>
      <trkpt lat="40.2654439397156238555908203125" lon="-1.37695918790996074676513671875">
        <ele>1245</ele>
        <time>2022-08-26T10:58:51.000Z</time>
      </trkpt>
      <trkpt lat="40.2655277587473392486572265625" lon="-1.376913003623485565185546875">
        <ele>1245.800048828125</ele>
        <time>2022-08-26T10:58:57.000Z</time>
      </trkpt>
      <trkpt lat="40.26555198244750499725341796875" lon="-1.37689397670328617095947265625">
        <ele>1246</ele>
        <time>2022-08-26T10:58:59.000Z</time>
      </trkpt>
      <trkpt lat="40.26564820669591426849365234375" lon="-1.37676908634603023529052734375">
        <ele>1247</ele>
        <time>2022-08-26T10:59:05.000Z</time>
      </trkpt>
      <trkpt lat="40.26565373875200748443603515625" lon="-1.3767485506832599639892578125">
        <ele>1247</ele>
        <time>2022-08-26T10:59:06.000Z</time>
      </trkpt>
      <trkpt lat="40.26567284949123859405517578125" lon="-1.3766637258231639862060546875">
        <ele>1247.5999755859375</ele>
        <time>2022-08-26T10:59:11.000Z</time>
      </trkpt>
      <trkpt lat="40.26564451865851879119873046875" lon="-1.376513354480266571044921875">
        <ele>1248.5999755859375</ele>
        <time>2022-08-26T10:59:22.000Z</time>
      </trkpt>
      <trkpt lat="40.265533626079559326171875" lon="-1.37637848965823650360107421875">
        <ele>1249</ele>
        <time>2022-08-26T10:59:32.000Z</time>
      </trkpt>
      <trkpt lat="40.2654241584241390228271484375" lon="-1.3763098418712615966796875">
        <ele>1249.5999755859375</ele>
        <time>2022-08-26T10:59:39.000Z</time>
      </trkpt>
      <trkpt lat="40.2654104121029376983642578125" lon="-1.37629651464521884918212890625">
        <ele>1249.5999755859375</ele>
        <time>2022-08-26T10:59:40.000Z</time>
      </trkpt>
      <trkpt lat="40.26530706323683261871337890625" lon="-1.37617832981050014495849609375">
        <ele>1250.5999755859375</ele>
        <time>2022-08-26T10:59:48.000Z</time>
      </trkpt>
      <trkpt lat="40.2652937360107898712158203125" lon="-1.37616257183253765106201171875">
        <ele>1250.800048828125</ele>
        <time>2022-08-26T10:59:49.000Z</time>
      </trkpt>
      <trkpt lat="40.2652263455092906951904296875" lon="-1.37608294375240802764892578125">
        <ele>1251.5999755859375</ele>
        <time>2022-08-26T10:59:54.000Z</time>
      </trkpt>
      <trkpt lat="40.26519457809627056121826171875" lon="-1.37604229152202606201171875">
        <ele>1252</ele>
        <time>2022-08-26T10:59:57.000Z</time>
      </trkpt>
      <trkpt lat="40.26514227502048015594482421875" lon="-1.37596693821251392364501953125">
        <ele>1252.800048828125</ele>
        <time>2022-08-26T11:00:02.000Z</time>
      </trkpt>
      <trkpt lat="40.26511193253099918365478515625" lon="-1.3758946023881435394287109375">
        <ele>1253.4000244140625</ele>
        <time>2022-08-26T11:00:06.000Z</time>
      </trkpt>
      <trkpt lat="40.265087373554706573486328125" lon="-1.37582679279148578643798828125">
        <ele>1253.800048828125</ele>
        <time>2022-08-26T11:00:10.000Z</time>
      </trkpt>
      <trkpt lat="40.26504253037273883819580078125" lon="-1.37574381195008754730224609375">
        <ele>1254.5999755859375</ele>
        <time>2022-08-26T11:00:15.000Z</time>
      </trkpt>
      <trkpt lat="40.2650131098926067352294921875" lon="-1.37570257298648357391357421875">
        <ele>1254.800048828125</ele>
        <time>2022-08-26T11:00:18.000Z</time>
      </trkpt>
      <trkpt lat="40.264941863715648651123046875" lon="-1.37568430043756961822509765625">
        <ele>1255.4000244140625</ele>
        <time>2022-08-26T11:00:22.000Z</time>
      </trkpt>
      <trkpt lat="40.264885537326335906982421875" lon="-1.37569092214107513427734375">
        <ele>1255.5999755859375</ele>
        <time>2022-08-26T11:00:26.000Z</time>
      </trkpt>
      <trkpt lat="40.26486885733902454376220703125" lon="-1.37571816332638263702392578125">
        <ele>1255.800048828125</ele>
        <time>2022-08-26T11:00:28.000Z</time>
      </trkpt>
      <trkpt lat="40.264844633638858795166015625" lon="-1.37574590742588043212890625">
        <ele>1256</ele>
        <time>2022-08-26T11:00:30.000Z</time>
      </trkpt>
      <trkpt lat="40.26478067971765995025634765625" lon="-1.3758188299834728240966796875">
        <ele>1257</ele>
        <time>2022-08-26T11:00:35.000Z</time>
      </trkpt>
      <trkpt lat="40.264766179025173187255859375" lon="-1.37582763098180294036865234375">
        <ele>1257.199951171875</ele>
        <time>2022-08-26T11:00:36.000Z</time>
      </trkpt>
      <trkpt lat="40.26468043215572834014892578125" lon="-1.37583618052303791046142578125">
        <ele>1258</ele>
        <time>2022-08-26T11:00:41.000Z</time>
      </trkpt>
      <trkpt lat="40.26466299779713153839111328125" lon="-1.375838778913021087646484375">
        <ele>1258</ele>
        <time>2022-08-26T11:00:42.000Z</time>
      </trkpt>
      <trkpt lat="40.2645464055240154266357421875" lon="-1.375854872167110443115234375">
        <ele>1259</ele>
        <time>2022-08-26T11:00:49.000Z</time>
      </trkpt>
      <trkpt lat="40.26443400420248508453369140625" lon="-1.3759013079106807708740234375">
        <ele>1259.800048828125</ele>
        <time>2022-08-26T11:00:57.000Z</time>
      </trkpt>
      <trkpt lat="40.26439175941050052642822265625" lon="-1.37593139894306659698486328125">
        <ele>1260</ele>
        <time>2022-08-26T11:01:00.000Z</time>
      </trkpt>
      <trkpt lat="40.26435169391334056854248046875" lon="-1.37597397901117801666259765625">
        <ele>1260.4000244140625</ele>
        <time>2022-08-26T11:01:04.000Z</time>
      </trkpt>
      <trkpt lat="40.26433476246893405914306640625" lon="-1.37600876390933990478515625">
        <ele>1261</ele>
        <time>2022-08-26T11:01:07.000Z</time>
      </trkpt>
      <trkpt lat="40.26432730257511138916015625" lon="-1.3760243542492389678955078125">
        <ele>1261.199951171875</ele>
        <time>2022-08-26T11:01:08.000Z</time>
      </trkpt>
      <trkpt lat="40.2643113769590854644775390625" lon="-1.376047991216182708740234375">
        <ele>1261.4000244140625</ele>
        <time>2022-08-26T11:01:10.000Z</time>
      </trkpt>
      <trkpt lat="40.26428438723087310791015625" lon="-1.3760779984295368194580078125">
        <ele>1261.5999755859375</ele>
        <time>2022-08-26T11:01:12.000Z</time>
      </trkpt>
      <trkpt lat="40.264219008386135101318359375" lon="-1.376136839389801025390625">
        <ele>1262.199951171875</ele>
        <time>2022-08-26T11:01:16.000Z</time>
      </trkpt>
      <trkpt lat="40.26419679634273052215576171875" lon="-1.37614698149263858795166015625">
        <ele>1262.5999755859375</ele>
        <time>2022-08-26T11:01:17.000Z</time>
      </trkpt>
      <trkpt lat="40.26408732868731021881103515625" lon="-1.37619257904589176177978515625">
        <ele>1263.199951171875</ele>
        <time>2022-08-26T11:01:23.000Z</time>
      </trkpt>
      <trkpt lat="40.2640495263040065765380859375" lon="-1.3762084208428859710693359375">
        <ele>1263.4000244140625</ele>
        <time>2022-08-26T11:01:25.000Z</time>
      </trkpt>
      <trkpt lat="40.26392363011837005615234375" lon="-1.37625460512936115264892578125">
        <ele>1264.199951171875</ele>
        <time>2022-08-26T11:01:32.000Z</time>
      </trkpt>
      <trkpt lat="40.26385380886495113372802734375" lon="-1.37626483105123043060302734375">
        <ele>1265</ele>
        <time>2022-08-26T11:01:36.000Z</time>
      </trkpt>
      <trkpt lat="40.26375590823590755462646484375" lon="-1.3762764818966388702392578125">
        <ele>1265.5999755859375</ele>
        <time>2022-08-26T11:01:42.000Z</time>
      </trkpt>
      <trkpt lat="40.26372514665126800537109375" lon="-1.3762674294412136077880859375">
        <ele>1265.800048828125</ele>
        <time>2022-08-26T11:01:44.000Z</time>
      </trkpt>
      <trkpt lat="40.26364895515143871307373046875" lon="-1.37625443749129772186279296875">
        <ele>1266.5999755859375</ele>
        <time>2022-08-26T11:01:49.000Z</time>
      </trkpt>
      <trkpt lat="40.26360821910202503204345703125" lon="-1.37625460512936115264892578125">
        <ele>1267</ele>
        <time>2022-08-26T11:01:52.000Z</time>
      </trkpt>
      <trkpt lat="40.26350378058850765228271484375" lon="-1.37627958320081233978271484375">
        <ele>1267.800048828125</ele>
        <time>2022-08-26T11:01:58.000Z</time>
      </trkpt>
      <trkpt lat="40.26344561018049716949462890625" lon="-1.3762892223894596099853515625">
        <ele>1268.199951171875</ele>
        <time>2022-08-26T11:02:01.000Z</time>
      </trkpt>
      <trkpt lat="40.26336631737649440765380859375" lon="-1.37630690820515155792236328125">
        <ele>1268.800048828125</ele>
        <time>2022-08-26T11:02:05.000Z</time>
      </trkpt>
      <trkpt lat="40.2633169479668140411376953125" lon="-1.37631596066057682037353515625">
        <ele>1269.199951171875</ele>
        <time>2022-08-26T11:02:08.000Z</time>
      </trkpt>
      <trkpt lat="40.26330269873142242431640625" lon="-1.376313865184783935546875">
        <ele>1269.4000244140625</ele>
        <time>2022-08-26T11:02:09.000Z</time>
      </trkpt>
      <trkpt lat="40.26322281919419765472412109375" lon="-1.37631193734705448150634765625">
        <ele>1269.800048828125</ele>
        <time>2022-08-26T11:02:14.000Z</time>
      </trkpt>
      <trkpt lat="40.263119973242282867431640625" lon="-1.37629441916942596435546875">
        <ele>1270.800048828125</ele>
        <time>2022-08-26T11:02:21.000Z</time>
      </trkpt>
      <trkpt lat="40.263103209435939788818359375" lon="-1.37629576027393341064453125">
        <ele>1271.199951171875</ele>
        <time>2022-08-26T11:02:22.000Z</time>
      </trkpt>
      <trkpt lat="40.26298410259187221527099609375" lon="-1.37624857015907764434814453125">
        <ele>1272</ele>
        <time>2022-08-26T11:02:29.000Z</time>
      </trkpt>
      <trkpt lat="40.26296767406165599822998046875" lon="-1.3762439601123332977294921875">
        <ele>1272</ele>
        <time>2022-08-26T11:02:30.000Z</time>
      </trkpt>
      <trkpt lat="40.26283976621925830841064453125" lon="-1.37619425542652606964111328125">
        <ele>1273.199951171875</ele>
        <time>2022-08-26T11:02:38.000Z</time>
      </trkpt>
      <trkpt lat="40.262822248041629791259765625" lon="-1.37618754990398883819580078125">
        <ele>1273.199951171875</ele>
        <time>2022-08-26T11:02:39.000Z</time>
      </trkpt>
      <trkpt lat="40.26272627525031566619873046875" lon="-1.37612946331501007080078125">
        <ele>1274.199951171875</ele>
        <time>2022-08-26T11:02:45.000Z</time>
      </trkpt>
      <trkpt lat="40.2626779116690158843994140625" lon="-1.37610289268195629119873046875">
        <ele>1275</ele>
        <time>2022-08-26T11:02:48.000Z</time>
      </trkpt>
      <trkpt lat="40.2626282908022403717041015625" lon="-1.37607657350599765777587890625">
        <ele>1275.5999755859375</ele>
        <time>2022-08-26T11:02:51.000Z</time>
      </trkpt>
      <trkpt lat="40.2625739760696887969970703125" lon="-1.376029551029205322265625">
        <ele>1276</ele>
        <time>2022-08-26T11:02:55.000Z</time>
      </trkpt>
      <trkpt lat="40.26254958473145961761474609375" lon="-1.37600834481418132781982421875">
        <ele>1276.199951171875</ele>
        <time>2022-08-26T11:02:57.000Z</time>
      </trkpt>
      <trkpt lat="40.26246693916618824005126953125" lon="-1.375945396721363067626953125">
        <ele>1276.5999755859375</ele>
        <time>2022-08-26T11:03:03.000Z</time>
      </trkpt>
      <trkpt lat="40.262455455958843231201171875" lon="-1.37593240477144718170166015625">
        <ele>1276.5999755859375</ele>
        <time>2022-08-26T11:03:04.000Z</time>
      </trkpt>
      <trkpt lat="40.26236652396619319915771484375" lon="-1.37579980306327342987060546875">
        <ele>1277.800048828125</ele>
        <time>2022-08-26T11:03:13.000Z</time>
      </trkpt>
      <trkpt lat="40.262287147343158721923828125" lon="-1.37569402344524860382080078125">
        <ele>1278.5999755859375</ele>
        <time>2022-08-26T11:03:20.000Z</time>
      </trkpt>
      <trkpt lat="40.262237526476383209228515625" lon="-1.37563727796077728271484375">
        <ele>1279</ele>
        <time>2022-08-26T11:03:24.000Z</time>
      </trkpt>
      <trkpt lat="40.26217239908874034881591796875" lon="-1.3755695521831512451171875">
        <ele>1280</ele>
        <time>2022-08-26T11:03:29.000Z</time>
      </trkpt>
      <trkpt lat="40.26203912682831287384033203125" lon="-1.37547726742923259735107421875">
        <ele>1280.800048828125</ele>
        <time>2022-08-26T11:03:38.000Z</time>
      </trkpt>
      <trkpt lat="40.26200945489108562469482421875" lon="-1.37545547448098659515380859375">
        <ele>1281</ele>
        <time>2022-08-26T11:03:40.000Z</time>
      </trkpt>
      <trkpt lat="40.2619449980556964874267578125" lon="-1.37540099211037158966064453125">
        <ele>1281.5999755859375</ele>
        <time>2022-08-26T11:03:45.000Z</time>
      </trkpt>
      <trkpt lat="40.261896550655364990234375" lon="-1.37534617446362972259521484375">
        <ele>1282.199951171875</ele>
        <time>2022-08-26T11:03:49.000Z</time>
      </trkpt>
      <trkpt lat="40.2618367038667201995849609375" lon="-1.37527124024927616119384765625">
        <ele>1282.800048828125</ele>
        <time>2022-08-26T11:03:54.000Z</time>
      </trkpt>
      <trkpt lat="40.26181516237556934356689453125" lon="-1.3752369582653045654296875">
        <ele>1283.199951171875</ele>
        <time>2022-08-26T11:03:56.000Z</time>
      </trkpt>
      <trkpt lat="40.261741317808628082275390625" lon="-1.3751284964382648468017578125">
        <ele>1284</ele>
        <time>2022-08-26T11:04:02.000Z</time>
      </trkpt>
      <trkpt lat="40.26172447018325328826904296875" lon="-1.37509203515946865081787109375">
        <ele>1284.199951171875</ele>
        <time>2022-08-26T11:04:04.000Z</time>
      </trkpt>
      <trkpt lat="40.261674262583255767822265625" lon="-1.37499279342591762542724609375">
        <ele>1284.5999755859375</ele>
        <time>2022-08-26T11:04:09.000Z</time>
      </trkpt>
      <trkpt lat="40.26161483488976955413818359375" lon="-1.37483672238886356353759765625">
        <ele>1285.199951171875</ele>
        <time>2022-08-26T11:04:17.000Z</time>
      </trkpt>
      <trkpt lat="40.26158030144870281219482421875" lon="-1.37477218173444271087646484375">
        <ele>1285.4000244140625</ele>
        <time>2022-08-26T11:04:21.000Z</time>
      </trkpt>
      <trkpt lat="40.26155113242566585540771484375" lon="-1.374744437634944915771484375">
        <ele>1285.5999755859375</ele>
        <time>2022-08-26T11:04:23.000Z</time>
      </trkpt>
      <trkpt lat="40.2614561654627323150634765625" lon="-1.37462097220122814178466796875">
        <ele>1286.4000244140625</ele>
        <time>2022-08-26T11:04:30.000Z</time>
      </trkpt>
      <trkpt lat="40.26143579743802547454833984375" lon="-1.37458493001759052276611328125">
        <ele>1286.5999755859375</ele>
        <time>2022-08-26T11:04:32.000Z</time>
      </trkpt>
      <trkpt lat="40.2612942270934581756591796875" lon="-1.37443455867469310760498046875">
        <ele>1287.4000244140625</ele>
        <time>2022-08-26T11:04:42.000Z</time>
      </trkpt>
      <trkpt lat="40.261186771094799041748046875" lon="-1.374343447387218475341796875">
        <ele>1288.5999755859375</ele>
        <time>2022-08-26T11:04:49.000Z</time>
      </trkpt>
      <trkpt lat="40.2610736154019832611083984375" lon="-1.3742668367922306060791015625">
        <ele>1289.199951171875</ele>
        <time>2022-08-26T11:04:57.000Z</time>
      </trkpt>
      <trkpt lat="40.261049307882785797119140625" lon="-1.37423741631209850311279296875">
        <ele>1289.5999755859375</ele>
        <time>2022-08-26T11:04:59.000Z</time>
      </trkpt>
      <trkpt lat="40.26103614829480648040771484375" lon="-1.37422149069607257843017578125">
        <ele>1289.800048828125</ele>
        <time>2022-08-26T11:05:00.000Z</time>
      </trkpt>
      <trkpt lat="40.2609817497432231903076171875" lon="-1.374162733554840087890625">
        <ele>1290.5999755859375</ele>
        <time>2022-08-26T11:05:04.000Z</time>
      </trkpt>
      <trkpt lat="40.260947383940219879150390625" lon="-1.37411671690642833709716796875">
        <ele>1291</ele>
        <time>2022-08-26T11:05:07.000Z</time>
      </trkpt>
      <trkpt lat="40.2608808316290378570556640625" lon="-1.37403775937855243682861328125">
        <ele>1291.5999755859375</ele>
        <time>2022-08-26T11:05:12.000Z</time>
      </trkpt>
      <trkpt lat="40.26079391129314899444580078125" lon="-1.3739463128149509429931640625">
        <ele>1292</ele>
        <time>2022-08-26T11:05:19.000Z</time>
      </trkpt>
      <trkpt lat="40.260775722563266754150390625" lon="-1.37392510659992694854736328125">
        <ele>1292.4000244140625</ele>
        <time>2022-08-26T11:05:21.000Z</time>
      </trkpt>
      <trkpt lat="40.260697267949581146240234375" lon="-1.3738165609538555145263671875">
        <ele>1293</ele>
        <time>2022-08-26T11:05:28.000Z</time>
      </trkpt>
      <trkpt lat="40.26066851802170276641845703125" lon="-1.37378814630210399627685546875">
        <ele>1293.199951171875</ele>
        <time>2022-08-26T11:05:30.000Z</time>
      </trkpt>
      <trkpt lat="40.26060481555759906768798828125" lon="-1.3736542873084545135498046875">
        <ele>1294.4000244140625</ele>
        <time>2022-08-26T11:05:37.000Z</time>
      </trkpt>
      <trkpt lat="40.260554440319538116455078125" lon="-1.3734896667301654815673828125">
        <ele>1294.800048828125</ele>
        <time>2022-08-26T11:05:45.000Z</time>
      </trkpt>
      <trkpt lat="40.2605338208377361297607421875" lon="-1.37338422238826751708984375">
        <ele>1295.4000244140625</ele>
        <time>2022-08-26T11:05:50.000Z</time>
      </trkpt>
      <trkpt lat="40.260517559945583343505859375" lon="-1.37325220741331577301025390625">
        <ele>1296.4000244140625</ele>
        <time>2022-08-26T11:05:56.000Z</time>
      </trkpt>
      <trkpt lat="40.2605133689939975738525390625" lon="-1.3732318393886089324951171875">
        <ele>1296.5999755859375</ele>
        <time>2022-08-26T11:05:57.000Z</time>
      </trkpt>
      <trkpt lat="40.26049199514091014862060546875" lon="-1.37311776168644428253173828125">
        <ele>1297.5999755859375</ele>
        <time>2022-08-26T11:06:03.000Z</time>
      </trkpt>
      <trkpt lat="40.26048545725643634796142578125" lon="-1.37309898622334003448486328125">
        <ele>1297.800048828125</ele>
        <time>2022-08-26T11:06:04.000Z</time>
      </trkpt>
      <trkpt lat="40.26044656522572040557861328125" lon="-1.3729968108236789703369140625">
        <ele>1298.5999755859375</ele>
        <time>2022-08-26T11:06:09.000Z</time>
      </trkpt>
      <trkpt lat="40.260424353182315826416015625" lon="-1.3729505427181720733642578125">
        <ele>1299</ele>
        <time>2022-08-26T11:06:11.000Z</time>
      </trkpt>
      <trkpt lat="40.26034531183540821075439453125" lon="-1.3728268258273601531982421875">
        <ele>1299.5999755859375</ele>
        <time>2022-08-26T11:06:18.000Z</time>
      </trkpt>
      <trkpt lat="40.26032033376395702362060546875" lon="-1.37279220856726169586181640625">
        <ele>1299.800048828125</ele>
        <time>2022-08-26T11:06:20.000Z</time>
      </trkpt>
      <trkpt lat="40.26030004955828189849853515625" lon="-1.37276086024940013885498046875">
        <ele>1300</ele>
        <time>2022-08-26T11:06:22.000Z</time>
      </trkpt>
      <trkpt lat="40.2602702938020229339599609375" lon="-1.37273521162569522857666015625">
        <ele>1300.199951171875</ele>
        <time>2022-08-26T11:06:25.000Z</time>
      </trkpt>
      <trkpt lat="40.2601673640310764312744140625" lon="-1.3726625405251979827880859375">
        <ele>1301</ele>
        <time>2022-08-26T11:06:31.000Z</time>
      </trkpt>
      <trkpt lat="40.26013626717031002044677734375" lon="-1.37263856828212738037109375">
        <ele>1301.199951171875</ele>
        <time>2022-08-26T11:06:33.000Z</time>
      </trkpt>
      <trkpt lat="40.26002780534327030181884765625" lon="-1.3725857622921466827392578125">
        <ele>1301.800048828125</ele>
        <time>2022-08-26T11:06:39.000Z</time>
      </trkpt>
      <trkpt lat="40.25993878953158855438232421875" lon="-1.37257419526576995849609375">
        <ele>1301.800048828125</ele>
        <time>2022-08-26T11:06:43.000Z</time>
      </trkpt>
      <trkpt lat="40.2598377875983715057373046875" lon="-1.37257629074156284332275390625">
        <ele>1302</ele>
        <time>2022-08-26T11:06:48.000Z</time>
      </trkpt>
      <trkpt lat="40.25970594026148319244384765625" lon="-1.37262624688446521759033203125">
        <ele>1302.5999755859375</ele>
        <time>2022-08-26T11:06:55.000Z</time>
      </trkpt>
      <trkpt lat="40.2596852369606494903564453125" lon="-1.3726313598453998565673828125">
        <ele>1302.800048828125</ele>
        <time>2022-08-26T11:06:56.000Z</time>
      </trkpt>
      <trkpt lat="40.25952673517167568206787109375" lon="-1.372636891901493072509765625">
        <ele>1304</ele>
        <time>2022-08-26T11:07:04.000Z</time>
      </trkpt>
      <trkpt lat="40.25950678624212741851806640625" lon="-1.372637562453746795654296875">
        <ele>1304</ele>
        <time>2022-08-26T11:07:05.000Z</time>
      </trkpt>
      <trkpt lat="40.2594270743429660797119140625" lon="-1.37264099903404712677001953125">
        <ele>1304.5999755859375</ele>
        <time>2022-08-26T11:07:09.000Z</time>
      </trkpt>
      <trkpt lat="40.25934903882443904876708984375" lon="-1.37260579504072666168212890625">
        <ele>1304.800048828125</ele>
        <time>2022-08-26T11:07:13.000Z</time>
      </trkpt>
      <trkpt lat="40.25933026336133480072021484375" lon="-1.37259037233889102935791015625">
        <ele>1305</ele>
        <time>2022-08-26T11:07:14.000Z</time>
      </trkpt>
      <trkpt lat="40.25925298221409320831298828125" lon="-1.37248325161635875701904296875">
        <ele>1305.4000244140625</ele>
        <time>2022-08-26T11:07:20.000Z</time>
      </trkpt>
      <trkpt lat="40.25922347791492938995361328125" lon="-1.37237713672220706939697265625">
        <ele>1306</ele>
        <time>2022-08-26T11:07:25.000Z</time>
      </trkpt>
      <trkpt lat="40.25921878404915332794189453125" lon="-1.37233413755893707275390625">
        <ele>1306.199951171875</ele>
        <time>2022-08-26T11:07:27.000Z</time>
      </trkpt>
      <trkpt lat="40.25918953120708465576171875" lon="-1.37210137210786342620849609375">
        <ele>1306.5999755859375</ele>
        <time>2022-08-26T11:07:36.000Z</time>
      </trkpt>
      <trkpt lat="40.25920805521309375762939453125" lon="-1.37187304906547069549560546875">
        <ele>1307.4000244140625</ele>
        <time>2022-08-26T11:07:45.000Z</time>
      </trkpt>
      <trkpt lat="40.2592014335095882415771484375" lon="-1.37179710902273654937744140625">
        <ele>1307.800048828125</ele>
        <time>2022-08-26T11:07:48.000Z</time>
      </trkpt>
      <trkpt lat="40.259156338870525360107421875" lon="-1.37165025807917118072509765625">
        <ele>1308.4000244140625</ele>
        <time>2022-08-26T11:07:54.000Z</time>
      </trkpt>
      <trkpt lat="40.25913161225616931915283203125" lon="-1.37159577570855617523193359375">
        <ele>1308.800048828125</ele>
        <time>2022-08-26T11:07:56.000Z</time>
      </trkpt>
      <trkpt lat="40.25908517651259899139404296875" lon="-1.37146283872425556182861328125">
        <ele>1309.5999755859375</ele>
        <time>2022-08-26T11:08:02.000Z</time>
      </trkpt>
      <trkpt lat="40.25907687842845916748046875" lon="-1.3714361004531383514404296875">
        <ele>1309.800048828125</ele>
        <time>2022-08-26T11:08:03.000Z</time>
      </trkpt>
      <trkpt lat="40.2590358071029186248779296875" lon="-1.37124943546950817108154296875">
        <ele>1310.5999755859375</ele>
        <time>2022-08-26T11:08:10.000Z</time>
      </trkpt>
      <trkpt lat="40.2590280957520008087158203125" lon="-1.3712288998067378997802734375">
        <ele>1310.800048828125</ele>
        <time>2022-08-26T11:08:11.000Z</time>
      </trkpt>
      <trkpt lat="40.2590311132371425628662109375" lon="-1.37120425701141357421875">
        <ele>1311</ele>
        <time>2022-08-26T11:08:12.000Z</time>
      </trkpt>
      <trkpt lat="40.2590475417673587799072265625" lon="-1.37109654955565929412841796875">
        <ele>1311.4000244140625</ele>
        <time>2022-08-26T11:08:16.000Z</time>
      </trkpt>
      <trkpt lat="40.25905785150825977325439453125" lon="-1.37099144048988819122314453125">
        <ele>1312</ele>
        <time>2022-08-26T11:08:20.000Z</time>
      </trkpt>
      <trkpt lat="40.2590897865593433380126953125" lon="-1.37092170305550098419189453125">
        <ele>1312.4000244140625</ele>
        <time>2022-08-26T11:08:23.000Z</time>
      </trkpt>
      <trkpt lat="40.2592108212411403656005859375" lon="-1.37077309191226959228515625">
        <ele>1313</ele>
        <time>2022-08-26T11:08:32.000Z</time>
      </trkpt>
      <trkpt lat="40.25933981873095035552978515625" lon="-1.3706183619797229766845703125">
        <ele>1313.800048828125</ele>
        <time>2022-08-26T11:08:42.000Z</time>
      </trkpt>
      <trkpt lat="40.259354151785373687744140625" lon="-1.37059933505952358245849609375">
        <ele>1314</ele>
        <time>2022-08-26T11:08:43.000Z</time>
      </trkpt>
      <trkpt lat="40.259428918361663818359375" lon="-1.37046271003782749176025390625">
        <ele>1315.199951171875</ele>
        <time>2022-08-26T11:08:49.000Z</time>
      </trkpt>
      <trkpt lat="40.2594495378434658050537109375" lon="-1.3704185374081134796142578125">
        <ele>1315.5999755859375</ele>
        <time>2022-08-26T11:08:51.000Z</time>
      </trkpt>
      <trkpt lat="40.25949186645448207855224609375" lon="-1.37033027596771717071533203125">
        <ele>1316.199951171875</ele>
        <time>2022-08-26T11:08:55.000Z</time>
      </trkpt>
      <trkpt lat="40.25952656753361225128173828125" lon="-1.3702136836946010589599609375">
        <ele>1317</ele>
        <time>2022-08-26T11:09:00.000Z</time>
      </trkpt>
      <trkpt lat="40.25952422060072422027587890625" lon="-1.3701717741787433624267578125">
        <ele>1317.199951171875</ele>
        <time>2022-08-26T11:09:02.000Z</time>
      </trkpt>
      <trkpt lat="40.25951080955564975738525390625" lon="-1.37004177086055278778076171875">
        <ele>1318</ele>
        <time>2022-08-26T11:09:07.000Z</time>
      </trkpt>
      <trkpt lat="40.2595155872404575347900390625" lon="-1.36999013833701610565185546875">
        <ele>1318.199951171875</ele>
        <time>2022-08-26T11:09:09.000Z</time>
      </trkpt>
      <trkpt lat="40.2594763599336147308349609375" lon="-1.36985854245722293853759765625">
        <ele>1318.800048828125</ele>
        <time>2022-08-26T11:09:14.000Z</time>
      </trkpt>
      <trkpt lat="40.2594632841646671295166015625" lon="-1.3698224164545536041259765625">
        <ele>1319.4000244140625</ele>
        <time>2022-08-26T11:09:16.000Z</time>
      </trkpt>
      <trkpt lat="40.25944224558770656585693359375" lon="-1.36970247142016887664794921875">
        <ele>1320.199951171875</ele>
        <time>2022-08-26T11:09:21.000Z</time>
      </trkpt>
      <trkpt lat="40.2594367973506450653076171875" lon="-1.36949543841183185577392578125">
        <ele>1320.5999755859375</ele>
        <time>2022-08-26T11:09:28.000Z</time>
      </trkpt>
      <trkpt lat="40.25943537242710590362548828125" lon="-1.36942620389163494110107421875">
        <ele>1320.5999755859375</ele>
        <time>2022-08-26T11:09:30.000Z</time>
      </trkpt>
      <trkpt lat="40.25941274128854274749755859375" lon="-1.3691833801567554473876953125">
        <ele>1320.800048828125</ele>
        <time>2022-08-26T11:09:37.000Z</time>
      </trkpt>
      <trkpt lat="40.25936680845916271209716796875" lon="-1.36891608126461505889892578125">
        <ele>1321.199951171875</ele>
        <time>2022-08-26T11:09:46.000Z</time>
      </trkpt>
      <trkpt lat="40.25930629111826419830322265625" lon="-1.36871206574141979217529296875">
        <ele>1321.800048828125</ele>
        <time>2022-08-26T11:09:53.000Z</time>
      </trkpt>
      <trkpt lat="40.25929757393896579742431640625" lon="-1.368685662746429443359375">
        <ele>1321.800048828125</ele>
        <time>2022-08-26T11:09:54.000Z</time>
      </trkpt>
      <trkpt lat="40.2592765353620052337646484375" lon="-1.36854476295411586761474609375">
        <ele>1322.800048828125</ele>
        <time>2022-08-26T11:09:59.000Z</time>
      </trkpt>
      <trkpt lat="40.259275026619434356689453125" lon="-1.36845625005662441253662109375">
        <ele>1323.4000244140625</ele>
        <time>2022-08-26T11:10:02.000Z</time>
      </trkpt>
      <trkpt lat="40.25927779264748096466064453125" lon="-1.36839254759252071380615234375">
        <ele>1323.800048828125</ele>
        <time>2022-08-26T11:10:04.000Z</time>
      </trkpt>
      <trkpt lat="40.259287096560001373291015625" lon="-1.3682161085307598114013671875">
        <ele>1324.4000244140625</ele>
        <time>2022-08-26T11:10:09.000Z</time>
      </trkpt>
      <trkpt lat="40.2593000046908855438232421875" lon="-1.367897093296051025390625">
        <ele>1324.4000244140625</ele>
        <time>2022-08-26T11:10:15.000Z</time>
      </trkpt>
      <trkpt lat="40.25927360169589519500732421875" lon="-1.36751764453947544097900390625">
        <ele>1324.199951171875</ele>
        <time>2022-08-26T11:10:20.000Z</time>
      </trkpt>
      <trkpt lat="40.25923085398972034454345703125" lon="-1.3672444783151149749755859375">
        <ele>1323.5999755859375</ele>
        <time>2022-08-26T11:10:23.000Z</time>
      </trkpt>
      <trkpt lat="40.25922347791492938995361328125" lon="-1.36713995598256587982177734375">
        <ele>1323.199951171875</ele>
        <time>2022-08-26T11:10:24.000Z</time>
      </trkpt>
      <trkpt lat="40.259217359125614166259765625" lon="-1.36703082360327243804931640625">
        <ele>1322.800048828125</ele>
        <time>2022-08-26T11:10:25.000Z</time>
      </trkpt>
      <trkpt lat="40.259227752685546875" lon="-1.36669990606606006622314453125">
        <ele>1321.5999755859375</ele>
        <time>2022-08-26T11:10:28.000Z</time>
      </trkpt>
      <trkpt lat="40.2592451870441436767578125" lon="-1.3665940426290035247802734375">
        <ele>1321.4000244140625</ele>
        <time>2022-08-26T11:10:29.000Z</time>
      </trkpt>
      <trkpt lat="40.25930486619472503662109375" lon="-1.366393379867076873779296875">
        <ele>1320.199951171875</ele>
        <time>2022-08-26T11:10:31.000Z</time>
      </trkpt>
      <trkpt lat="40.25933948345482349395751953125" lon="-1.366293132305145263671875">
        <ele>1319.800048828125</ele>
        <time>2022-08-26T11:10:32.000Z</time>
      </trkpt>
      <trkpt lat="40.25936831720173358917236328125" lon="-1.3661913760006427764892578125">
        <ele>1319.4000244140625</ele>
        <time>2022-08-26T11:10:33.000Z</time>
      </trkpt>
      <trkpt lat="40.25939044542610645294189453125" lon="-1.36608651839196681976318359375">
        <ele>1319</ele>
        <time>2022-08-26T11:10:34.000Z</time>
      </trkpt>
      <trkpt lat="40.259399749338626861572265625" lon="-1.3657521642744541168212890625">
        <ele>1317.800048828125</ele>
        <time>2022-08-26T11:10:37.000Z</time>
      </trkpt>
      <trkpt lat="40.25938927195966243743896484375" lon="-1.3652717135846614837646484375">
        <ele>1316.5999755859375</ele>
        <time>2022-08-26T11:10:41.000Z</time>
      </trkpt>
      <trkpt lat="40.259376950562000274658203125" lon="-1.36514657177031040191650390625">
        <ele>1316.199951171875</ele>
        <time>2022-08-26T11:10:42.000Z</time>
      </trkpt>
      <trkpt lat="40.25933596305549144744873046875" lon="-1.364909112453460693359375">
        <ele>1315.4000244140625</ele>
        <time>2022-08-26T11:10:44.000Z</time>
      </trkpt>
      <trkpt lat="40.25929145514965057373046875" lon="-1.36466427706182003021240234375">
        <ele>1314.199951171875</ele>
        <time>2022-08-26T11:10:46.000Z</time>
      </trkpt>
      <trkpt lat="40.25925767607986927032470703125" lon="-1.36453720740973949432373046875">
        <ele>1313.5999755859375</ele>
        <time>2022-08-26T11:10:47.000Z</time>
      </trkpt>
      <trkpt lat="40.25922129862010478973388671875" lon="-1.3644164241850376129150390625">
        <ele>1313</ele>
        <time>2022-08-26T11:10:48.000Z</time>
      </trkpt>
      <trkpt lat="40.25915608741343021392822265625" lon="-1.36418282054364681243896484375">
        <ele>1311.800048828125</ele>
        <time>2022-08-26T11:10:50.000Z</time>
      </trkpt>
      <trkpt lat="40.2591156028211116790771484375" lon="-1.36394863016903400421142578125">
        <ele>1310.5999755859375</ele>
        <time>2022-08-26T11:10:52.000Z</time>
      </trkpt>
      <trkpt lat="40.25914016179740428924560546875" lon="-1.3637247495353221893310546875">
        <ele>1309.4000244140625</ele>
        <time>2022-08-26T11:10:54.000Z</time>
      </trkpt>
      <trkpt lat="40.25917687453329563140869140625" lon="-1.36362391524016857147216796875">
        <ele>1308.5999755859375</ele>
        <time>2022-08-26T11:10:55.000Z</time>
      </trkpt>
      <trkpt lat="40.25921124033629894256591796875" lon="-1.3635165430605411529541015625">
        <ele>1308.199951171875</ele>
        <time>2022-08-26T11:10:56.000Z</time>
      </trkpt>
      <trkpt lat="40.259272344410419464111328125" lon="-1.36327564716339111328125">
        <ele>1307.199951171875</ele>
        <time>2022-08-26T11:10:58.000Z</time>
      </trkpt>
      <trkpt lat="40.2592989988625049591064453125" lon="-1.36316559277474880218505859375">
        <ele>1306.4000244140625</ele>
        <time>2022-08-26T11:10:59.000Z</time>
      </trkpt>
      <trkpt lat="40.25930981151759624481201171875" lon="-1.36303760111331939697265625">
        <ele>1306</ele>
        <time>2022-08-26T11:11:00.000Z</time>
      </trkpt>
      <trkpt lat="40.259303860366344451904296875" lon="-1.3626632653176784515380859375">
        <ele>1304.800048828125</ele>
        <time>2022-08-26T11:11:03.000Z</time>
      </trkpt>
      <trkpt lat="40.25942246429622173309326171875" lon="-1.3623333536088466644287109375">
        <ele>1303.5999755859375</ele>
        <time>2022-08-26T11:11:06.000Z</time>
      </trkpt>
      <trkpt lat="40.2595745958387851715087890625" lon="-1.36214132420718669891357421875">
        <ele>1302</ele>
        <time>2022-08-26T11:11:08.000Z</time>
      </trkpt>
      <trkpt lat="40.25963536463677883148193359375" lon="-1.36204929091036319732666015625">
        <ele>1301.4000244140625</ele>
        <time>2022-08-26T11:11:09.000Z</time>
      </trkpt>
      <trkpt lat="40.25970183312892913818359375" lon="-1.36194971390068531036376953125">
        <ele>1300.4000244140625</ele>
        <time>2022-08-26T11:11:10.000Z</time>
      </trkpt>
      <trkpt lat="40.2598072774708271026611328125" lon="-1.36174452491104602813720703125">
        <ele>1299</ele>
        <time>2022-08-26T11:11:12.000Z</time>
      </trkpt>
      <trkpt lat="40.25995085947215557098388671875" lon="-1.3614250905811786651611328125">
        <ele>1297.800048828125</ele>
        <time>2022-08-26T11:11:15.000Z</time>
      </trkpt>
      <trkpt lat="40.260088741779327392578125" lon="-1.36111655272543430328369140625">
        <ele>1296.800048828125</ele>
        <time>2022-08-26T11:11:18.000Z</time>
      </trkpt>
      <trkpt lat="40.260189659893512725830078125" lon="-1.36091069318354129791259765625">
        <ele>1295.800048828125</ele>
        <time>2022-08-26T11:11:20.000Z</time>
      </trkpt>
      <trkpt lat="40.2602883987128734588623046875" lon="-1.36070734821259975433349609375">
        <ele>1294.800048828125</ele>
        <time>2022-08-26T11:11:22.000Z</time>
      </trkpt>
      <trkpt lat="40.26034011505544185638427734375" lon="-1.36060492135584354400634765625">
        <ele>1294.5999755859375</ele>
        <time>2022-08-26T11:11:23.000Z</time>
      </trkpt>
      <trkpt lat="40.26046265847980976104736328125" lon="-1.3602828048169612884521484375">
        <ele>1293</ele>
        <time>2022-08-26T11:11:26.000Z</time>
      </trkpt>
      <trkpt lat="40.2604915760457515716552734375" lon="-1.36017157696187496185302734375">
        <ele>1292.5999755859375</ele>
        <time>2022-08-26T11:11:27.000Z</time>
      </trkpt>
      <trkpt lat="40.26051051914691925048828125" lon="-1.36006034910678863525390625">
        <ele>1292.199951171875</ele>
        <time>2022-08-26T11:11:28.000Z</time>
      </trkpt>
      <trkpt lat="40.2605308033525943756103515625" lon="-1.359850801527500152587890625">
        <ele>1291.800048828125</ele>
        <time>2022-08-26T11:11:30.000Z</time>
      </trkpt>
      <trkpt lat="40.2605375088751316070556640625" lon="-1.359762288630008697509765625">
        <ele>1291.4000244140625</ele>
        <time>2022-08-26T11:11:31.000Z</time>
      </trkpt>
      <trkpt lat="40.2605572901666164398193359375" lon="-1.359622478485107421875">
        <ele>1290.199951171875</ele>
        <time>2022-08-26T11:11:33.000Z</time>
      </trkpt>
      <trkpt lat="40.2606038935482501983642578125" lon="-1.359544694423675537109375">
        <ele>1289.5999755859375</ele>
        <time>2022-08-26T11:11:35.000Z</time>
      </trkpt>
      <trkpt lat="40.26063163764774799346923828125" lon="-1.3595301099121570587158203125">
        <ele>1289</ele>
        <time>2022-08-26T11:11:36.000Z</time>
      </trkpt>
      <trkpt lat="40.26069399900734424591064453125" lon="-1.35953488759696483612060546875">
        <ele>1288</ele>
        <time>2022-08-26T11:11:38.000Z</time>
      </trkpt>
      <trkpt lat="40.26073205284774303436279296875" lon="-1.35955500416457653045654296875">
        <ele>1287.5999755859375</ele>
        <time>2022-08-26T11:11:39.000Z</time>
      </trkpt>
      <trkpt lat="40.2607732079923152923583984375" lon="-1.35958291590213775634765625">
        <ele>1287.199951171875</ele>
        <time>2022-08-26T11:11:40.000Z</time>
      </trkpt>
      <trkpt lat="40.26081905700266361236572265625" lon="-1.3596088998019695281982421875">
        <ele>1286.5999755859375</ele>
        <time>2022-08-26T11:11:41.000Z</time>
      </trkpt>
      <trkpt lat="40.26086859405040740966796875" lon="-1.35962993837893009185791015625">
        <ele>1286.199951171875</ele>
        <time>2022-08-26T11:11:42.000Z</time>
      </trkpt>
      <trkpt lat="40.26097998954355716705322265625" lon="-1.359665393829345703125">
        <ele>1285.4000244140625</ele>
        <time>2022-08-26T11:11:44.000Z</time>
      </trkpt>
      <trkpt lat="40.26116497814655303955078125" lon="-1.35972934775054454803466796875">
        <ele>1284.4000244140625</ele>
        <time>2022-08-26T11:11:47.000Z</time>
      </trkpt>
      <trkpt lat="40.26151358149945735931396484375" lon="-1.3598383963108062744140625">
        <ele>1283.5999755859375</ele>
        <time>2022-08-26T11:11:52.000Z</time>
      </trkpt>
      <trkpt lat="40.26158876717090606689453125" lon="-1.35986899025738239288330078125">
        <ele>1283.4000244140625</ele>
        <time>2022-08-26T11:11:53.000Z</time>
      </trkpt>
      <trkpt lat="40.26173670776188373565673828125" lon="-1.35994023643434047698974609375">
        <ele>1282.5999755859375</ele>
        <time>2022-08-26T11:11:55.000Z</time>
      </trkpt>
      <trkpt lat="40.26194524951279163360595703125" lon="-1.3600517995655536651611328125">
        <ele>1281.199951171875</ele>
        <time>2022-08-26T11:11:58.000Z</time>
      </trkpt>
      <trkpt lat="40.26207718066871166229248046875" lon="-1.3601242192089557647705078125">
        <ele>1280.4000244140625</ele>
        <time>2022-08-26T11:12:00.000Z</time>
      </trkpt>
      <trkpt lat="40.26214063167572021484375" lon="-1.360157914459705352783203125">
        <ele>1280.199951171875</ele>
        <time>2022-08-26T11:12:01.000Z</time>
      </trkpt>
      <trkpt lat="40.262369625270366668701171875" lon="-1.36024550534784793853759765625">
        <ele>1279.5999755859375</ele>
        <time>2022-08-26T11:12:05.000Z</time>
      </trkpt>
      <trkpt lat="40.26254723779857158660888671875" lon="-1.3602486066520214080810546875">
        <ele>1279.5999755859375</ele>
        <time>2022-08-26T11:12:10.000Z</time>
      </trkpt>
      <trkpt lat="40.26268042623996734619140625" lon="-1.3602184318006038665771484375">
        <ele>1280.4000244140625</ele>
        <time>2022-08-26T11:12:16.000Z</time>
      </trkpt>
      <trkpt lat="40.26274471543729305267333984375" lon="-1.36019974015653133392333984375">
        <ele>1281.199951171875</ele>
        <time>2022-08-26T11:12:19.000Z</time>
      </trkpt>
      <trkpt lat="40.26285619474947452545166015625" lon="-1.36017878539860248565673828125">
        <ele>1282.199951171875</ele>
        <time>2022-08-26T11:12:24.000Z</time>
      </trkpt>
      <trkpt lat="40.26287765242159366607666015625" lon="-1.36018062941730022430419921875">
        <ele>1282.5999755859375</ele>
        <time>2022-08-26T11:12:25.000Z</time>
      </trkpt>
      <trkpt lat="40.26300857774913311004638671875" lon="-1.36018574237823486328125">
        <ele>1283.800048828125</ele>
        <time>2022-08-26T11:12:31.000Z</time>
      </trkpt>
      <trkpt lat="40.2631773054599761962890625" lon="-1.3601403124630451202392578125">
        <ele>1284.800048828125</ele>
        <time>2022-08-26T11:12:38.000Z</time>
      </trkpt>
      <trkpt lat="40.26320018805563449859619140625" lon="-1.36013050563633441925048828125">
        <ele>1284.800048828125</ele>
        <time>2022-08-26T11:12:39.000Z</time>
      </trkpt>
      <trkpt lat="40.2632904611527919769287109375" lon="-1.36007484979927539825439453125">
        <ele>1285.800048828125</ele>
        <time>2022-08-26T11:12:43.000Z</time>
      </trkpt>
      <trkpt lat="40.2633798122406005859375" lon="-1.36002455838024616241455078125">
        <ele>1286.5999755859375</ele>
        <time>2022-08-26T11:12:47.000Z</time>
      </trkpt>
      <trkpt lat="40.26342147029936313629150390625" lon="-1.35999991558492183685302734375">
        <ele>1286.800048828125</ele>
        <time>2022-08-26T11:12:49.000Z</time>
      </trkpt>
      <trkpt lat="40.2635580115020275115966796875" lon="-1.35995767079293727874755859375">
        <ele>1287.4000244140625</ele>
        <time>2022-08-26T11:12:55.000Z</time>
      </trkpt>
      <trkpt lat="40.26372791267931461334228515625" lon="-1.3599545694887638092041015625">
        <ele>1287.800048828125</ele>
        <time>2022-08-26T11:13:02.000Z</time>
      </trkpt>
      <trkpt lat="40.26392505504190921783447265625" lon="-1.3599431701004505157470703125">
        <ele>1288.5999755859375</ele>
        <time>2022-08-26T11:13:11.000Z</time>
      </trkpt>
      <trkpt lat="40.2639693953096866607666015625" lon="-1.35994493030011653900146484375">
        <ele>1289.199951171875</ele>
        <time>2022-08-26T11:13:13.000Z</time>
      </trkpt>
      <trkpt lat="40.26413829065859317779541015625" lon="-1.35997585952281951904296875">
        <ele>1290.199951171875</ele>
        <time>2022-08-26T11:13:20.000Z</time>
      </trkpt>
      <trkpt lat="40.2643123827874660491943359375" lon="-1.3599993288516998291015625">
        <ele>1291.199951171875</ele>
        <time>2022-08-26T11:13:27.000Z</time>
      </trkpt>
      <trkpt lat="40.26433828286826610565185546875" lon="-1.360006369650363922119140625">
        <ele>1291.4000244140625</ele>
        <time>2022-08-26T11:13:28.000Z</time>
      </trkpt>
      <trkpt lat="40.264474488794803619384765625" lon="-1.36005758307874202728271484375">
        <ele>1292.199951171875</ele>
        <time>2022-08-26T11:13:33.000Z</time>
      </trkpt>
      <trkpt lat="40.26460331864655017852783203125" lon="-1.360102258622646331787109375">
        <ele>1292.800048828125</ele>
        <time>2022-08-26T11:13:37.000Z</time>
      </trkpt>
      <trkpt lat="40.264864750206470489501953125" lon="-1.3601952977478504180908203125">
        <ele>1293</ele>
        <time>2022-08-26T11:13:44.000Z</time>
      </trkpt>
      <trkpt lat="40.26518468745052814483642578125" lon="-1.36030853725969791412353515625">
        <ele>1292.800048828125</ele>
        <time>2022-08-26T11:13:52.000Z</time>
      </trkpt>
      <trkpt lat="40.26549138128757476806640625" lon="-1.36031381785869598388671875">
        <ele>1292.199951171875</ele>
        <time>2022-08-26T11:13:59.000Z</time>
      </trkpt>
      <trkpt lat="40.26586093939840793609619140625" lon="-1.36023578234016895294189453125">
        <ele>1291.800048828125</ele>
        <time>2022-08-26T11:14:08.000Z</time>
      </trkpt>
      <trkpt lat="40.26593185029923915863037109375" lon="-1.360225975513458251953125">
        <ele>1291.800048828125</ele>
        <time>2022-08-26T11:14:10.000Z</time>
      </trkpt>
      <trkpt lat="40.26604123413562774658203125" lon="-1.3601973094046115875244140625">
        <ele>1291.800048828125</ele>
        <time>2022-08-26T11:14:14.000Z</time>
      </trkpt>
      <trkpt lat="40.2660665474832057952880859375" lon="-1.3601835630834102630615234375">
        <ele>1292</ele>
        <time>2022-08-26T11:14:17.000Z</time>
      </trkpt>
      <trkpt lat="40.266128070652484893798828125" lon="-1.360161267220973968505859375">
        <ele>1292</ele>
        <time>2022-08-26T11:15:31.000Z</time>
      </trkpt>
      <trkpt lat="40.2662422321736812591552734375" lon="-1.360130421817302703857421875">
        <ele>1292.199951171875</ele>
        <time>2022-08-26T11:15:35.000Z</time>
      </trkpt>
      <trkpt lat="40.26628003455698490142822265625" lon="-1.36011256836354732513427734375">
        <ele>1292</ele>
        <time>2022-08-26T11:15:36.000Z</time>
      </trkpt>
      <trkpt lat="40.2663181722164154052734375" lon="-1.360089518129825592041015625">
        <ele>1292</ele>
        <time>2022-08-26T11:15:37.000Z</time>
      </trkpt>
      <trkpt lat="40.26646661572158336639404296875" lon="-1.35994434356689453125">
        <ele>1292</ele>
        <time>2022-08-26T11:15:41.000Z</time>
      </trkpt>
      <trkpt lat="40.26666820049285888671875" lon="-1.35963253676891326904296875">
        <ele>1291.5999755859375</ele>
        <time>2022-08-26T11:15:47.000Z</time>
      </trkpt>
      <trkpt lat="40.26686090044677257537841796875" lon="-1.359161473810672760009765625">
        <ele>1291</ele>
        <time>2022-08-26T11:15:54.000Z</time>
      </trkpt>
      <trkpt lat="40.266915969550609588623046875" lon="-1.35902442969381809234619140625">
        <ele>1290.800048828125</ele>
        <time>2022-08-26T11:15:56.000Z</time>
      </trkpt>
      <trkpt lat="40.2670351602137088775634765625" lon="-1.35876157321035861968994140625">
        <ele>1289.5999755859375</ele>
        <time>2022-08-26T11:16:00.000Z</time>
      </trkpt>
      <trkpt lat="40.26711822487413883209228515625" lon="-1.35864808224141597747802734375">
        <ele>1289.199951171875</ele>
        <time>2022-08-26T11:16:02.000Z</time>
      </trkpt>
      <trkpt lat="40.26735945604741573333740234375" lon="-1.35851095430552959442138671875">
        <ele>1288.5999755859375</ele>
        <time>2022-08-26T11:16:06.000Z</time>
      </trkpt>
      <trkpt lat="40.2674264274537563323974609375" lon="-1.35849536396563053131103515625">
        <ele>1288.5999755859375</ele>
        <time>2022-08-26T11:16:07.000Z</time>
      </trkpt>
      <trkpt lat="40.26784359477460384368896484375" lon="-1.3584602437913417816162109375">
        <ele>1287.4000244140625</ele>
        <time>2022-08-26T11:16:13.000Z</time>
      </trkpt>
      <trkpt lat="40.26807962916791439056396484375" lon="-1.35845429264008998870849609375">
        <ele>1286.4000244140625</ele>
        <time>2022-08-26T11:16:16.000Z</time>
      </trkpt>
      <trkpt lat="40.268407277762889862060546875" lon="-1.3584874011576175689697265625">
        <ele>1285.5999755859375</ele>
        <time>2022-08-26T11:16:20.000Z</time>
      </trkpt>
      <trkpt lat="40.2684934437274932861328125" lon="-1.358490251004695892333984375">
        <ele>1285.199951171875</ele>
        <time>2022-08-26T11:16:21.000Z</time>
      </trkpt>
      <trkpt lat="40.26858036406338214874267578125" lon="-1.35847918689250946044921875">
        <ele>1285</ele>
        <time>2022-08-26T11:16:22.000Z</time>
      </trkpt>
      <trkpt lat="40.2687417156994342803955078125" lon="-1.35839662514626979827880859375">
        <ele>1284.4000244140625</ele>
        <time>2022-08-26T11:16:24.000Z</time>
      </trkpt>
      <trkpt lat="40.2688050828874111175537109375" lon="-1.3583301566541194915771484375">
        <ele>1284</ele>
        <time>2022-08-26T11:16:25.000Z</time>
      </trkpt>
      <trkpt lat="40.26891228742897510528564453125" lon="-1.35817534290254116058349609375">
        <ele>1283.199951171875</ele>
        <time>2022-08-26T11:16:27.000Z</time>
      </trkpt>
      <trkpt lat="40.2690146304666996002197265625" lon="-1.3580186851322650909423828125">
        <ele>1282.800048828125</ele>
        <time>2022-08-26T11:16:29.000Z</time>
      </trkpt>
      <trkpt lat="40.26928477920591831207275390625" lon="-1.3575687445700168609619140625">
        <ele>1282.5999755859375</ele>
        <time>2022-08-26T11:16:35.000Z</time>
      </trkpt>
      <trkpt lat="40.269445292651653289794921875" lon="-1.357244364917278289794921875">
        <ele>1282.5999755859375</ele>
        <time>2022-08-26T11:16:40.000Z</time>
      </trkpt>
      <trkpt lat="40.2696778066456317901611328125" lon="-1.35677472688257694244384765625">
        <ele>1282.5999755859375</ele>
        <time>2022-08-26T11:16:48.000Z</time>
      </trkpt>
      <trkpt lat="40.26990856043994426727294921875" lon="-1.3563868962228298187255859375">
        <ele>1282.5999755859375</ele>
        <time>2022-08-26T11:16:56.000Z</time>
      </trkpt>
      <trkpt lat="40.2700952254235744476318359375" lon="-1.3560710661113262176513671875">
        <ele>1283</ele>
        <time>2022-08-26T11:17:04.000Z</time>
      </trkpt>
      <trkpt lat="40.270238220691680908203125" lon="-1.3557927869260311126708984375">
        <ele>1283.4000244140625</ele>
        <time>2022-08-26T11:17:12.000Z</time>
      </trkpt>
      <trkpt lat="40.2703755162656307220458984375" lon="-1.35558106005191802978515625">
        <ele>1284.199951171875</ele>
        <time>2022-08-26T11:17:20.000Z</time>
      </trkpt>
      <trkpt lat="40.2704137377440929412841796875" lon="-1.355530433356761932373046875">
        <ele>1284.4000244140625</ele>
        <time>2022-08-26T11:17:22.000Z</time>
      </trkpt>
      <trkpt lat="40.2706182561814785003662109375" lon="-1.35530437342822551727294921875">
        <ele>1285.199951171875</ele>
        <time>2022-08-26T11:17:32.000Z</time>
      </trkpt>
      <trkpt lat="40.27063879184424877166748046875" lon="-1.3552875258028507232666015625">
        <ele>1285.199951171875</ele>
        <time>2022-08-26T11:17:33.000Z</time>
      </trkpt>
      <trkpt lat="40.270784385502338409423828125" lon="-1.35512013919651508331298828125">
        <ele>1286</ele>
        <time>2022-08-26T11:17:41.000Z</time>
      </trkpt>
      <trkpt lat="40.27085043489933013916015625" lon="-1.35503296740353107452392578125">
        <ele>1286.199951171875</ele>
        <time>2022-08-26T11:17:45.000Z</time>
      </trkpt>
      <trkpt lat="40.2709401212632656097412109375" lon="-1.3549297861754894256591796875">
        <ele>1286.5999755859375</ele>
        <time>2022-08-26T11:17:50.000Z</time>
      </trkpt>
      <trkpt lat="40.27101094834506511688232421875" lon="-1.354848481714725494384765625">
        <ele>1287.199951171875</ele>
        <time>2022-08-26T11:17:54.000Z</time>
      </trkpt>
      <trkpt lat="40.271077416837215423583984375" lon="-1.354774720966815948486328125">
        <ele>1288</ele>
        <time>2022-08-26T11:17:58.000Z</time>
      </trkpt>
      <trkpt lat="40.27112477459013462066650390625" lon="-1.35470909066498279571533203125">
        <ele>1288.199951171875</ele>
        <time>2022-08-26T11:18:01.000Z</time>
      </trkpt>
      <trkpt lat="40.271221585571765899658203125" lon="-1.354582607746124267578125">
        <ele>1288.800048828125</ele>
        <time>2022-08-26T11:18:07.000Z</time>
      </trkpt>
      <trkpt lat="40.27125184424221515655517578125" lon="-1.35453927330672740936279296875">
        <ele>1289.4000244140625</ele>
        <time>2022-08-26T11:18:09.000Z</time>
      </trkpt>
      <trkpt lat="40.27136852033436298370361328125" lon="-1.354401223361492156982421875">
        <ele>1290.199951171875</ele>
        <time>2022-08-26T11:18:16.000Z</time>
      </trkpt>
      <trkpt lat="40.2714197337627410888671875" lon="-1.35433844290673732757568359375">
        <ele>1290.4000244140625</ele>
        <time>2022-08-26T11:18:19.000Z</time>
      </trkpt>
      <trkpt lat="40.27154906652867794036865234375" lon="-1.3542052544653415679931640625">
        <ele>1290.800048828125</ele>
        <time>2022-08-26T11:18:26.000Z</time>
      </trkpt>
      <trkpt lat="40.27172760106623172760009765625" lon="-1.35401330888271331787109375">
        <ele>1291.4000244140625</ele>
        <time>2022-08-26T11:18:35.000Z</time>
      </trkpt>
      <trkpt lat="40.271745286881923675537109375" lon="-1.3539913482964038848876953125">
        <ele>1291.5999755859375</ele>
        <time>2022-08-26T11:18:36.000Z</time>
      </trkpt>
      <trkpt lat="40.27190999127924442291259765625" lon="-1.35379848070442676544189453125">
        <ele>1292.199951171875</ele>
        <time>2022-08-26T11:18:45.000Z</time>
      </trkpt>
      <trkpt lat="40.27194754220545291900634765625" lon="-1.3537479378283023834228515625">
        <ele>1292.5999755859375</ele>
        <time>2022-08-26T11:18:47.000Z</time>
      </trkpt>
      <trkpt lat="40.27202582918107509613037109375" lon="-1.35354794561862945556640625">
        <ele>1293.199951171875</ele>
        <time>2022-08-26T11:18:53.000Z</time>
      </trkpt>
      <trkpt lat="40.2720019407570362091064453125" lon="-1.35332155041396617889404296875">
        <ele>1293.4000244140625</ele>
        <time>2022-08-26T11:18:59.000Z</time>
      </trkpt>
      <trkpt lat="40.27190412394702434539794921875" lon="-1.353014521300792694091796875">
        <ele>1293.5999755859375</ele>
        <time>2022-08-26T11:19:06.000Z</time>
      </trkpt>
      <trkpt lat="40.27184712700545787811279296875" lon="-1.35281712748110294342041015625">
        <ele>1293.5999755859375</ele>
        <time>2022-08-26T11:19:10.000Z</time>
      </trkpt>
      <trkpt lat="40.2717967517673969268798828125" lon="-1.35267949663102626800537109375">
        <ele>1293.5999755859375</ele>
        <time>2022-08-26T11:19:13.000Z</time>
      </trkpt>
      <trkpt lat="40.271743275225162506103515625" lon="-1.35231320746243000030517578125">
        <ele>1293.199951171875</ele>
        <time>2022-08-26T11:19:20.000Z</time>
      </trkpt>
      <trkpt lat="40.271701700985431671142578125" lon="-1.35196586139500141143798828125">
        <ele>1293</ele>
        <time>2022-08-26T11:19:27.000Z</time>
      </trkpt>
      <trkpt lat="40.27167043648660182952880859375" lon="-1.35164625942707061767578125">
        <ele>1293</ele>
        <time>2022-08-26T11:19:34.000Z</time>
      </trkpt>
      <trkpt lat="40.27166842482984066009521484375" lon="-1.35122523643076419830322265625">
        <ele>1293.5999755859375</ele>
        <time>2022-08-26T11:19:43.000Z</time>
      </trkpt>
      <trkpt lat="40.27165719307959079742431640625" lon="-1.35090588591992855072021484375">
        <ele>1294.5999755859375</ele>
        <time>2022-08-26T11:19:51.000Z</time>
      </trkpt>
      <trkpt lat="40.271686948835849761962890625" lon="-1.35068192146718502044677734375">
        <ele>1295.4000244140625</ele>
        <time>2022-08-26T11:19:58.000Z</time>
      </trkpt>
      <trkpt lat="40.27169189415872097015380859375" lon="-1.35064847767353057861328125">
        <ele>1295.4000244140625</ele>
        <time>2022-08-26T11:19:59.000Z</time>
      </trkpt>
      <trkpt lat="40.27175174094736576080322265625" lon="-1.35040766559541225433349609375">
        <ele>1296.5999755859375</ele>
        <time>2022-08-26T11:20:06.000Z</time>
      </trkpt>
      <trkpt lat="40.271758697926998138427734375" lon="-1.350376568734645843505859375">
        <ele>1296.800048828125</ele>
        <time>2022-08-26T11:20:07.000Z</time>
      </trkpt>
      <trkpt lat="40.27182147838175296783447265625" lon="-1.35010289959609508514404296875">
        <ele>1297.4000244140625</ele>
        <time>2022-08-26T11:20:15.000Z</time>
      </trkpt>
      <trkpt lat="40.271845199167728424072265625" lon="-1.35003148578107357025146484375">
        <ele>1297.5999755859375</ele>
        <time>2022-08-26T11:20:17.000Z</time>
      </trkpt>
      <trkpt lat="40.27189976535737514495849609375" lon="-1.34984322823584079742431640625">
        <ele>1298.199951171875</ele>
        <time>2022-08-26T11:20:23.000Z</time>
      </trkpt>
      <trkpt lat="40.271940417587757110595703125" lon="-1.34971263818442821502685546875">
        <ele>1298.800048828125</ele>
        <time>2022-08-26T11:20:27.000Z</time>
      </trkpt>
      <trkpt lat="40.2719650603830814361572265625" lon="-1.349545083940029144287109375">
        <ele>1299.199951171875</ele>
        <time>2022-08-26T11:20:32.000Z</time>
      </trkpt>
      <trkpt lat="40.2719990909099578857421875" lon="-1.349355317652225494384765625">
        <ele>1300</ele>
        <time>2022-08-26T11:20:39.000Z</time>
      </trkpt>
      <trkpt lat="40.27206622995436191558837890625" lon="-1.34912456385791301727294921875">
        <ele>1301.199951171875</ele>
        <time>2022-08-26T11:20:46.000Z</time>
      </trkpt>
      <trkpt lat="40.2721212990581989288330078125" lon="-1.34884276427328586578369140625">
        <ele>1301.800048828125</ele>
        <time>2022-08-26T11:20:55.000Z</time>
      </trkpt>
      <trkpt lat="40.2720746956765651702880859375" lon="-1.3486178778111934661865234375">
        <ele>1302.199951171875</ele>
        <time>2022-08-26T11:21:02.000Z</time>
      </trkpt>
      <trkpt lat="40.272025577723979949951171875" lon="-1.348383016884326934814453125">
        <ele>1302.800048828125</ele>
        <time>2022-08-26T11:21:10.000Z</time>
      </trkpt>
      <trkpt lat="40.2720307745039463043212890625" lon="-1.34820909239351749420166015625">
        <ele>1303</ele>
        <time>2022-08-26T11:21:16.000Z</time>
      </trkpt>
      <trkpt lat="40.27203404344618320465087890625" lon="-1.34818025864660739898681640625">
        <ele>1303.199951171875</ele>
        <time>2022-08-26T11:21:17.000Z</time>
      </trkpt>
      <trkpt lat="40.27211249805986881256103515625" lon="-1.3479748181998729705810546875">
        <ele>1303.5999755859375</ele>
        <time>2022-08-26T11:21:25.000Z</time>
      </trkpt>
      <trkpt lat="40.2721424214541912078857421875" lon="-1.34786560200154781341552734375">
        <ele>1304.199951171875</ele>
        <time>2022-08-26T11:21:29.000Z</time>
      </trkpt>
      <trkpt lat="40.272169746458530426025390625" lon="-1.34778463281691074371337890625">
        <ele>1304.5999755859375</ele>
        <time>2022-08-26T11:21:32.000Z</time>
      </trkpt>
      <trkpt lat="40.27224292047321796417236328125" lon="-1.3476103730499744415283203125">
        <ele>1305.199951171875</ele>
        <time>2022-08-26T11:21:39.000Z</time>
      </trkpt>
      <trkpt lat="40.27231668122112751007080078125" lon="-1.34741415269672870635986328125">
        <ele>1305.800048828125</ele>
        <time>2022-08-26T11:21:46.000Z</time>
      </trkpt>
      <trkpt lat="40.2723449282348155975341796875" lon="-1.3472600094974040985107421875">
        <ele>1306.4000244140625</ele>
        <time>2022-08-26T11:21:51.000Z</time>
      </trkpt>
      <trkpt lat="40.27235448360443115234375" lon="-1.34722505696117877960205078125">
        <ele>1306.4000244140625</ele>
        <time>2022-08-26T11:21:52.000Z</time>
      </trkpt>
      <trkpt lat="40.27240150608122348785400390625" lon="-1.3470308482646942138671875">
        <ele>1306.5999755859375</ele>
        <time>2022-08-26T11:21:58.000Z</time>
      </trkpt>
      <trkpt lat="40.27243335731327533721923828125" lon="-1.346844099462032318115234375">
        <ele>1307</ele>
        <time>2022-08-26T11:22:04.000Z</time>
      </trkpt>
      <trkpt lat="40.27246587909758090972900390625" lon="-1.34671074338257312774658203125">
        <ele>1307.4000244140625</ele>
        <time>2022-08-26T11:22:08.000Z</time>
      </trkpt>
      <trkpt lat="40.27248381637036800384521484375" lon="-1.34661979973316192626953125">
        <ele>1307.800048828125</ele>
        <time>2022-08-26T11:22:11.000Z</time>
      </trkpt>
      <trkpt lat="40.2725383825600147247314453125" lon="-1.3463621400296688079833984375">
        <ele>1308.199951171875</ele>
        <time>2022-08-26T11:22:19.000Z</time>
      </trkpt>
      <trkpt lat="40.2725417353212833404541015625" lon="-1.3463041372597217559814453125">
        <ele>1308.4000244140625</ele>
        <time>2022-08-26T11:22:21.000Z</time>
      </trkpt>
      <trkpt lat="40.27254232205450534820556640625" lon="-1.346274800598621368408203125">
        <ele>1308.4000244140625</ele>
        <time>2022-08-26T11:22:22.000Z</time>
      </trkpt>
      <trkpt lat="40.2725596725940704345703125" lon="-1.346125267446041107177734375">
        <ele>1308.800048828125</ele>
        <time>2022-08-26T11:22:27.000Z</time>
      </trkpt>
      <trkpt lat="40.27258490212261676788330078125" lon="-1.34597095660865306854248046875">
        <ele>1309.5999755859375</ele>
        <time>2022-08-26T11:22:34.000Z</time>
      </trkpt>
      <trkpt lat="40.272594206035137176513671875" lon="-1.345813460648059844970703125">
        <ele>1310</ele>
        <time>2022-08-26T11:22:41.000Z</time>
      </trkpt>
      <trkpt lat="40.27262337505817413330078125" lon="-1.3456791825592517852783203125">
        <ele>1310.5999755859375</ele>
        <time>2022-08-26T11:22:47.000Z</time>
      </trkpt>
      <trkpt lat="40.27263284660875797271728515625" lon="-1.34563811123371124267578125">
        <ele>1310.800048828125</ele>
        <time>2022-08-26T11:22:49.000Z</time>
      </trkpt>
      <trkpt lat="40.27265614829957485198974609375" lon="-1.34552218951284885406494140625">
        <ele>1311.800048828125</ele>
        <time>2022-08-26T11:22:55.000Z</time>
      </trkpt>
      <trkpt lat="40.27266201563179492950439453125" lon="-1.3455011509358882904052734375">
        <ele>1312</ele>
        <time>2022-08-26T11:22:56.000Z</time>
      </trkpt>
      <trkpt lat="40.2726929448544979095458984375" lon="-1.34532571770250797271728515625">
        <ele>1312.5999755859375</ele>
        <time>2022-08-26T11:23:04.000Z</time>
      </trkpt>
      <trkpt lat="40.272695459425449371337890625" lon="-1.34530342184007167816162109375">
        <ele>1312.800048828125</ele>
        <time>2022-08-26T11:23:05.000Z</time>
      </trkpt>
      <trkpt lat="40.27271850965917110443115234375" lon="-1.3451752625405788421630859375">
        <ele>1313.5999755859375</ele>
        <time>2022-08-26T11:23:11.000Z</time>
      </trkpt>
      <trkpt lat="40.272732339799404144287109375" lon="-1.3451289944350719451904296875">
        <ele>1313.800048828125</ele>
        <time>2022-08-26T11:23:13.000Z</time>
      </trkpt>
      <trkpt lat="40.27276217937469482421875" lon="-1.345013491809368133544921875">
        <ele>1314.4000244140625</ele>
        <time>2022-08-26T11:23:18.000Z</time>
      </trkpt>
      <trkpt lat="40.27278858236968517303466796875" lon="-1.34490109048783779144287109375">
        <ele>1314.800048828125</ele>
        <time>2022-08-26T11:23:23.000Z</time>
      </trkpt>
      <trkpt lat="40.27281875722110271453857421875" lon="-1.344808973371982574462890625">
        <ele>1315.5999755859375</ele>
        <time>2022-08-26T11:23:27.000Z</time>
      </trkpt>
      <trkpt lat="40.2728386223316192626953125" lon="-1.34473621845245361328125">
        <ele>1315.800048828125</ele>
        <time>2022-08-26T11:23:30.000Z</time>
      </trkpt>
      <trkpt lat="40.27287055738270282745361328125" lon="-1.3446249067783355712890625">
        <ele>1316.4000244140625</ele>
        <time>2022-08-26T11:23:35.000Z</time>
      </trkpt>
      <trkpt lat="40.27289201505482196807861328125" lon="-1.34455827064812183380126953125">
        <ele>1317</ele>
        <time>2022-08-26T11:23:38.000Z</time>
      </trkpt>
      <trkpt lat="40.27294389903545379638671875" lon="-1.34437034837901592254638671875">
        <ele>1317.4000244140625</ele>
        <time>2022-08-26T11:23:46.000Z</time>
      </trkpt>
      <trkpt lat="40.27297331951558589935302734375" lon="-1.3442395068705081939697265625">
        <ele>1318</ele>
        <time>2022-08-26T11:23:52.000Z</time>
      </trkpt>
      <trkpt lat="40.27297918684780597686767578125" lon="-1.34421729482710361480712890625">
        <ele>1318</ele>
        <time>2022-08-26T11:23:53.000Z</time>
      </trkpt>
      <trkpt lat="40.27302713133394718170166015625" lon="-1.34399819187819957733154296875">
        <ele>1319</ele>
        <time>2022-08-26T11:24:03.000Z</time>
      </trkpt>
      <trkpt lat="40.2730724774301052093505859375" lon="-1.3438417017459869384765625">
        <ele>1320.199951171875</ele>
        <time>2022-08-26T11:24:10.000Z</time>
      </trkpt>
      <trkpt lat="40.27307859621942043304443359375" lon="-1.343819238245487213134765625">
        <ele>1320.4000244140625</ele>
        <time>2022-08-26T11:24:11.000Z</time>
      </trkpt>
      <trkpt lat="40.27310206554830074310302734375" lon="-1.34370750747621059417724609375">
        <ele>1321.199951171875</ele>
        <time>2022-08-26T11:24:16.000Z</time>
      </trkpt>
      <trkpt lat="40.2731224335730075836181640625" lon="-1.3435967825353145599365234375">
        <ele>1322</ele>
        <time>2022-08-26T11:24:21.000Z</time>
      </trkpt>
      <trkpt lat="40.27314481325447559356689453125" lon="-1.3435022346675395965576171875">
        <ele>1322.4000244140625</ele>
        <time>2022-08-26T11:24:25.000Z</time>
      </trkpt>
      <trkpt lat="40.27316073887050151824951171875" lon="-1.3434180803596973419189453125">
        <ele>1322.5999755859375</ele>
        <time>2022-08-26T11:24:29.000Z</time>
      </trkpt>
      <trkpt lat="40.27319007553160190582275390625" lon="-1.3433302380144596099853515625">
        <ele>1323.4000244140625</ele>
        <time>2022-08-26T11:24:33.000Z</time>
      </trkpt>
      <trkpt lat="40.27322980575263500213623046875" lon="-1.34321783669292926788330078125">
        <ele>1324</ele>
        <time>2022-08-26T11:24:38.000Z</time>
      </trkpt>
      <trkpt lat="40.27326417155563831329345703125" lon="-1.34305019862949848175048828125">
        <ele>1324.4000244140625</ele>
        <time>2022-08-26T11:24:45.000Z</time>
      </trkpt>
      <trkpt lat="40.27327322401106357574462890625" lon="-1.34300091303884983062744140625">
        <ele>1324.5999755859375</ele>
        <time>2022-08-26T11:24:47.000Z</time>
      </trkpt>
      <trkpt lat="40.2732763253152370452880859375" lon="-1.34283629246056079864501953125">
        <ele>1325.4000244140625</ele>
        <time>2022-08-26T11:24:53.000Z</time>
      </trkpt>
      <trkpt lat="40.27324187569320201873779296875" lon="-1.3427341170608997344970703125">
        <ele>1325.5999755859375</ele>
        <time>2022-08-26T11:24:57.000Z</time>
      </trkpt>
      <trkpt lat="40.27321186847984790802001953125" lon="-1.3426573388278484344482421875">
        <ele>1326</ele>
        <time>2022-08-26T11:25:00.000Z</time>
      </trkpt>
      <trkpt lat="40.2731309831142425537109375" lon="-1.3424692489206790924072265625">
        <ele>1326.800048828125</ele>
        <time>2022-08-26T11:25:07.000Z</time>
      </trkpt>
      <trkpt lat="40.2731093578040599822998046875" lon="-1.34240730665624141693115234375">
        <ele>1327</ele>
        <time>2022-08-26T11:25:09.000Z</time>
      </trkpt>
      <trkpt lat="40.27307323180139064788818359375" lon="-1.34208829142153263092041015625">
        <ele>1327.4000244140625</ele>
        <time>2022-08-26T11:25:18.000Z</time>
      </trkpt>
      <trkpt lat="40.27306686155498027801513671875" lon="-1.34185695089399814605712890625">
        <ele>1327.800048828125</ele>
        <time>2022-08-26T11:25:23.000Z</time>
      </trkpt>
      <trkpt lat="40.27305127121508121490478515625" lon="-1.34175184182822704315185546875">
        <ele>1327.800048828125</ele>
        <time>2022-08-26T11:25:25.000Z</time>
      </trkpt>
      <trkpt lat="40.272954292595386505126953125" lon="-1.34152318350970745086669921875">
        <ele>1327.5999755859375</ele>
        <time>2022-08-26T11:25:31.000Z</time>
      </trkpt>
      <trkpt lat="40.27279637753963470458984375" lon="-1.34134934283792972564697265625">
        <ele>1327.5999755859375</ele>
        <time>2022-08-26T11:25:39.000Z</time>
      </trkpt>
      <trkpt lat="40.27270509861409664154052734375" lon="-1.34116820991039276123046875">
        <ele>1328.199951171875</ele>
        <time>2022-08-26T11:25:46.000Z</time>
      </trkpt>
      <trkpt lat="40.27267660014331340789794921875" lon="-1.3410506956279277801513671875">
        <ele>1328.800048828125</ele>
        <time>2022-08-26T11:25:50.000Z</time>
      </trkpt>
      <trkpt lat="40.27266805060207843780517578125" lon="-1.3409527949988842010498046875">
        <ele>1329.199951171875</ele>
        <time>2022-08-26T11:25:53.000Z</time>
      </trkpt>
      <trkpt lat="40.27266897261142730712890625" lon="-1.34076043032109737396240234375">
        <ele>1329.800048828125</ele>
        <time>2022-08-26T11:25:59.000Z</time>
      </trkpt>
      <trkpt lat="40.272667296230792999267578125" lon="-1.34072941727936267852783203125">
        <ele>1330</ele>
        <time>2022-08-26T11:26:00.000Z</time>
      </trkpt>
      <trkpt lat="40.27268481440842151641845703125" lon="-1.3404756970703601837158203125">
        <ele>1330.800048828125</ele>
        <time>2022-08-26T11:26:08.000Z</time>
      </trkpt>
      <trkpt lat="40.27268774807453155517578125" lon="-1.34044225327670574188232421875">
        <ele>1330.800048828125</ele>
        <time>2022-08-26T11:26:09.000Z</time>
      </trkpt>
      <trkpt lat="40.272690095007419586181640625" lon="-1.340178139507770538330078125">
        <ele>1331.4000244140625</ele>
        <time>2022-08-26T11:26:17.000Z</time>
      </trkpt>
      <trkpt lat="40.27266084216535091400146484375" lon="-1.33995409123599529266357421875">
        <ele>1331.800048828125</ele>
        <time>2022-08-26T11:26:24.000Z</time>
      </trkpt>
      <trkpt lat="40.272653214633464813232421875" lon="-1.3399224914610385894775390625">
        <ele>1332</ele>
        <time>2022-08-26T11:26:25.000Z</time>
      </trkpt>
      <trkpt lat="40.27256394736468791961669921875" lon="-1.33967782370746135711669921875">
        <ele>1332.800048828125</ele>
        <time>2022-08-26T11:26:33.000Z</time>
      </trkpt>
      <trkpt lat="40.27255631983280181884765625" lon="-1.3396455533802509307861328125">
        <ele>1332.800048828125</ele>
        <time>2022-08-26T11:26:34.000Z</time>
      </trkpt>
      <trkpt lat="40.27249437756836414337158203125" lon="-1.3394383527338504791259765625">
        <ele>1333.5999755859375</ele>
        <time>2022-08-26T11:26:41.000Z</time>
      </trkpt>
      <trkpt lat="40.2724753506481647491455078125" lon="-1.33935344405472278594970703125">
        <ele>1334</ele>
        <time>2022-08-26T11:26:44.000Z</time>
      </trkpt>
      <trkpt lat="40.2724324353039264678955078125" lon="-1.33921698667109012603759765625">
        <ele>1334.5999755859375</ele>
        <time>2022-08-26T11:26:49.000Z</time>
      </trkpt>
      <trkpt lat="40.27240787632763385772705078125" lon="-1.33911120705306529998779296875">
        <ele>1335.199951171875</ele>
        <time>2022-08-26T11:26:53.000Z</time>
      </trkpt>
      <trkpt lat="40.27238809503614902496337890625" lon="-1.339007355272769927978515625">
        <ele>1335.800048828125</ele>
        <time>2022-08-26T11:26:57.000Z</time>
      </trkpt>
      <trkpt lat="40.27236730791628360748291015625" lon="-1.3389696367084980010986328125">
        <ele>1336.199951171875</ele>
        <time>2022-08-26T11:26:59.000Z</time>
      </trkpt>
      <trkpt lat="40.27233210392296314239501953125" lon="-1.3388338498771190643310546875">
        <ele>1336.800048828125</ele>
        <time>2022-08-26T11:27:05.000Z</time>
      </trkpt>
      <trkpt lat="40.27232120744884014129638671875" lon="-1.3387902639806270599365234375">
        <ele>1337.4000244140625</ele>
        <time>2022-08-26T11:27:07.000Z</time>
      </trkpt>
      <trkpt lat="40.27227091602981090545654296875" lon="-1.33864701725542545318603515625">
        <ele>1338.4000244140625</ele>
        <time>2022-08-26T11:27:13.000Z</time>
      </trkpt>
      <trkpt lat="40.27223571203649044036865234375" lon="-1.33843814022839069366455078125">
        <ele>1339.5999755859375</ele>
        <time>2022-08-26T11:27:21.000Z</time>
      </trkpt>
      <trkpt lat="40.27220520190894603729248046875" lon="-1.33829732425510883331298828125">
        <ele>1340.800048828125</ele>
        <time>2022-08-26T11:27:27.000Z</time>
      </trkpt>
      <trkpt lat="40.2721980772912502288818359375" lon="-1.33827888406813144683837890625">
        <ele>1341</ele>
        <time>2022-08-26T11:27:28.000Z</time>
      </trkpt>
      <trkpt lat="40.27215608395636081695556640625" lon="-1.33819724433124065399169921875">
        <ele>1341.800048828125</ele>
        <time>2022-08-26T11:27:32.000Z</time>
      </trkpt>
      <trkpt lat="40.27212909422814846038818359375" lon="-1.33813622407615184783935546875">
        <ele>1342.199951171875</ele>
        <time>2022-08-26T11:27:35.000Z</time>
      </trkpt>
      <trkpt lat="40.272089950740337371826171875" lon="-1.3380586914718151092529296875">
        <ele>1343</ele>
        <time>2022-08-26T11:27:39.000Z</time>
      </trkpt>
      <trkpt lat="40.27205877006053924560546875" lon="-1.3380080647766590118408203125">
        <ele>1343.5999755859375</ele>
        <time>2022-08-26T11:27:42.000Z</time>
      </trkpt>
      <trkpt lat="40.27204141952097415924072265625" lon="-1.33797931484878063201904296875">
        <ele>1344</ele>
        <time>2022-08-26T11:27:44.000Z</time>
      </trkpt>
      <trkpt lat="40.27198106981813907623291015625" lon="-1.33792315609753131866455078125">
        <ele>1344.800048828125</ele>
        <time>2022-08-26T11:27:48.000Z</time>
      </trkpt>
      <trkpt lat="40.27194251306354999542236328125" lon="-1.33788510225713253021240234375">
        <ele>1345.199951171875</ele>
        <time>2022-08-26T11:27:51.000Z</time>
      </trkpt>
      <trkpt lat="40.2718906290829181671142578125" lon="-1.3378474675118923187255859375">
        <ele>1345.5999755859375</ele>
        <time>2022-08-26T11:27:54.000Z</time>
      </trkpt>
      <trkpt lat="40.27185517363250255584716796875" lon="-1.3378239981830120086669921875">
        <ele>1346.199951171875</ele>
        <time>2022-08-26T11:27:56.000Z</time>
      </trkpt>
      <trkpt lat="40.2717866934835910797119140625" lon="-1.33776155300438404083251953125">
        <ele>1346.800048828125</ele>
        <time>2022-08-26T11:28:01.000Z</time>
      </trkpt>
      <trkpt lat="40.27174252085387706756591796875" lon="-1.3377317972481250762939453125">
        <ele>1347.199951171875</ele>
        <time>2022-08-26T11:28:04.000Z</time>
      </trkpt>
      <trkpt lat="40.27167563326656818389892578125" lon="-1.337687037885189056396484375">
        <ele>1347.800048828125</ele>
        <time>2022-08-26T11:28:08.000Z</time>
      </trkpt>
      <trkpt lat="40.27161578647792339324951171875" lon="-1.33764655329287052154541015625">
        <ele>1348.4000244140625</ele>
        <time>2022-08-26T11:28:11.000Z</time>
      </trkpt>
      <trkpt lat="40.2715137787163257598876953125" lon="-1.33757430128753185272216796875">
        <ele>1348.800048828125</ele>
        <time>2022-08-26T11:28:16.000Z</time>
      </trkpt>
      <trkpt lat="40.27137036435306072235107421875" lon="-1.3374820165336132049560546875">
        <ele>1349.800048828125</ele>
        <time>2022-08-26T11:28:24.000Z</time>
      </trkpt>
      <trkpt lat="40.2713528461754322052001953125" lon="-1.33747070096433162689208984375">
        <ele>1350</ele>
        <time>2022-08-26T11:28:25.000Z</time>
      </trkpt>
      <trkpt lat="40.27122586034238338470458984375" lon="-1.3373703695833683013916015625">
        <ele>1351</ele>
        <time>2022-08-26T11:28:32.000Z</time>
      </trkpt>
      <trkpt lat="40.271209515631198883056640625" lon="-1.33735410869121551513671875">
        <ele>1351</ele>
        <time>2022-08-26T11:28:33.000Z</time>
      </trkpt>
      <trkpt lat="40.2711221762001514434814453125" lon="-1.33727288804948329925537109375">
        <ele>1352</ele>
        <time>2022-08-26T11:28:38.000Z</time>
      </trkpt>
      <trkpt lat="40.2710712142288684844970703125" lon="-1.3372181542217731475830078125">
        <ele>1352.199951171875</ele>
        <time>2022-08-26T11:28:41.000Z</time>
      </trkpt>
      <trkpt lat="40.27100005187094211578369140625" lon="-1.33712251670658588409423828125">
        <ele>1353</ele>
        <time>2022-08-26T11:28:46.000Z</time>
      </trkpt>
      <trkpt lat="40.27094992808997631072998046875" lon="-1.337040625512599945068359375">
        <ele>1353.5999755859375</ele>
        <time>2022-08-26T11:28:50.000Z</time>
      </trkpt>
      <trkpt lat="40.270908772945404052734375" lon="-1.3369519449770450592041015625">
        <ele>1354</ele>
        <time>2022-08-26T11:28:54.000Z</time>
      </trkpt>
      <trkpt lat="40.27086828835308551788330078125" lon="-1.3368822075426578521728515625">
        <ele>1354.5999755859375</ele>
        <time>2022-08-26T11:28:58.000Z</time>
      </trkpt>
      <trkpt lat="40.27080726809799671173095703125" lon="-1.33673778735101222991943359375">
        <ele>1354.800048828125</ele>
        <time>2022-08-26T11:29:05.000Z</time>
      </trkpt>
      <trkpt lat="40.270742140710353851318359375" lon="-1.33658288978040218353271484375">
        <ele>1356</ele>
        <time>2022-08-26T11:29:12.000Z</time>
      </trkpt>
      <trkpt lat="40.270738117396831512451171875" lon="-1.33655573241412639617919921875">
        <ele>1356.199951171875</ele>
        <time>2022-08-26T11:29:13.000Z</time>
      </trkpt>
      <trkpt lat="40.27070014737546443939208984375" lon="-1.3363973982632160186767578125">
        <ele>1356.800048828125</ele>
        <time>2022-08-26T11:29:19.000Z</time>
      </trkpt>
      <trkpt lat="40.2706920169293880462646484375" lon="-1.33634568192064762115478515625">
        <ele>1357</ele>
        <time>2022-08-26T11:29:21.000Z</time>
      </trkpt>
      <trkpt lat="40.27069159783422946929931640625" lon="-1.33624677546322345733642578125">
        <ele>1357.5999755859375</ele>
        <time>2022-08-26T11:29:25.000Z</time>
      </trkpt>
      <trkpt lat="40.2706963755190372467041015625" lon="-1.33617435581982135772705078125">
        <ele>1358</ele>
        <time>2022-08-26T11:29:28.000Z</time>
      </trkpt>
      <trkpt lat="40.27072177268564701080322265625" lon="-1.33606572635471820831298828125">
        <ele>1358.800048828125</ele>
        <time>2022-08-26T11:29:32.000Z</time>
      </trkpt>
      <trkpt lat="40.270728729665279388427734375" lon="-1.336016021668910980224609375">
        <ele>1359.199951171875</ele>
        <time>2022-08-26T11:29:34.000Z</time>
      </trkpt>
      <trkpt lat="40.2707496844232082366943359375" lon="-1.33591602556407451629638671875">
        <ele>1359.5999755859375</ele>
        <time>2022-08-26T11:29:38.000Z</time>
      </trkpt>
      <trkpt lat="40.270762927830219268798828125" lon="-1.3358435221016407012939453125">
        <ele>1360.199951171875</ele>
        <time>2022-08-26T11:29:41.000Z</time>
      </trkpt>
      <trkpt lat="40.2707791887223720550537109375" lon="-1.3356966711580753326416015625">
        <ele>1361</ele>
        <time>2022-08-26T11:29:47.000Z</time>
      </trkpt>
      <trkpt lat="40.27078203856945037841796875" lon="-1.33564864285290241241455078125">
        <ele>1361.199951171875</ele>
        <time>2022-08-26T11:29:49.000Z</time>
      </trkpt>
      <trkpt lat="40.27078916318714618682861328125" lon="-1.33551687933504581451416015625">
        <ele>1362.4000244140625</ele>
        <time>2022-08-26T11:29:54.000Z</time>
      </trkpt>
      <trkpt lat="40.2707942761480808258056640625" lon="-1.33546876721084117889404296875">
        <ele>1362.5999755859375</ele>
        <time>2022-08-26T11:29:56.000Z</time>
      </trkpt>
      <trkpt lat="40.27079880237579345703125" lon="-1.3353390991687774658203125">
        <ele>1363.4000244140625</ele>
        <time>2022-08-26T11:30:01.000Z</time>
      </trkpt>
      <trkpt lat="40.270790420472621917724609375" lon="-1.3352604769170284271240234375">
        <ele>1363.800048828125</ele>
        <time>2022-08-26T11:30:04.000Z</time>
      </trkpt>
      <trkpt lat="40.27078899554908275604248046875" lon="-1.33520859293639659881591796875">
        <ele>1364</ele>
        <time>2022-08-26T11:30:06.000Z</time>
      </trkpt>
      <trkpt lat="40.27078748680651187896728515625" lon="-1.3351558707654476165771484375">
        <ele>1364.5999755859375</ele>
        <time>2022-08-26T11:30:08.000Z</time>
      </trkpt>
      <trkpt lat="40.2707760035991668701171875" lon="-1.335010863840579986572265625">
        <ele>1365</ele>
        <time>2022-08-26T11:30:13.000Z</time>
      </trkpt>
      <trkpt lat="40.2707597427070140838623046875" lon="-1.33480156771838665008544921875">
        <ele>1365.199951171875</ele>
        <time>2022-08-26T11:30:19.000Z</time>
      </trkpt>
      <trkpt lat="40.27075395919382572174072265625" lon="-1.3344413973391056060791015625">
        <ele>1365.199951171875</ele>
        <time>2022-08-26T11:30:27.000Z</time>
      </trkpt>
      <trkpt lat="40.27073518373072147369384765625" lon="-1.33410871960222721099853515625">
        <ele>1364.800048828125</ele>
        <time>2022-08-26T11:30:34.000Z</time>
      </trkpt>
      <trkpt lat="40.2707185037434101104736328125" lon="-1.333788447082042694091796875">
        <ele>1364.800048828125</ele>
        <time>2022-08-26T11:30:41.000Z</time>
      </trkpt>
      <trkpt lat="40.27071892283856868743896484375" lon="-1.33337773382663726806640625">
        <ele>1365.5999755859375</ele>
        <time>2022-08-26T11:30:50.000Z</time>
      </trkpt>
      <trkpt lat="40.2707154862582683563232421875" lon="-1.3333349861204624176025390625">
        <ele>1365.800048828125</ele>
        <time>2022-08-26T11:30:51.000Z</time>
      </trkpt>
      <trkpt lat="40.27072177268564701080322265625" lon="-1.33301354013383388519287109375">
        <ele>1366.5999755859375</ele>
        <time>2022-08-26T11:30:59.000Z</time>
      </trkpt>
      <trkpt lat="40.27072780765593051910400390625" lon="-1.33293592371046543121337890625">
        <ele>1366.800048828125</ele>
        <time>2022-08-26T11:31:01.000Z</time>
      </trkpt>
      <trkpt lat="40.2707245387136936187744140625" lon="-1.33273274637758731842041015625">
        <ele>1367.4000244140625</ele>
        <time>2022-08-26T11:31:06.000Z</time>
      </trkpt>
      <trkpt lat="40.27073736302554607391357421875" lon="-1.3325618393719196319580078125">
        <ele>1367.800048828125</ele>
        <time>2022-08-26T11:31:09.000Z</time>
      </trkpt>
      <trkpt lat="40.2707506902515888214111328125" lon="-1.3324884139001369476318359375">
        <ele>1367.800048828125</ele>
        <time>2022-08-26T11:31:10.000Z</time>
      </trkpt>
      <trkpt lat="40.27081380598247051239013671875" lon="-1.332036294043064117431640625">
        <ele>1367.800048828125</ele>
        <time>2022-08-26T11:31:15.000Z</time>
      </trkpt>
      <trkpt lat="40.27081782929599285125732421875" lon="-1.33180503733456134796142578125">
        <ele>1367.4000244140625</ele>
        <time>2022-08-26T11:31:17.000Z</time>
      </trkpt>
      <trkpt lat="40.2707959525287151336669921875" lon="-1.33155609481036663055419921875">
        <ele>1366.800048828125</ele>
        <time>2022-08-26T11:31:19.000Z</time>
      </trkpt>
      <trkpt lat="40.27078111656010150909423828125" lon="-1.331426091492176055908203125">
        <ele>1366.4000244140625</ele>
        <time>2022-08-26T11:31:20.000Z</time>
      </trkpt>
      <trkpt lat="40.27077223174273967742919921875" lon="-1.33099987171590328216552734375">
        <ele>1365.199951171875</ele>
        <time>2022-08-26T11:31:23.000Z</time>
      </trkpt>
      <trkpt lat="40.27077801525592803955078125" lon="-1.330846734344959259033203125">
        <ele>1364.800048828125</ele>
        <time>2022-08-26T11:31:24.000Z</time>
      </trkpt>
      <trkpt lat="40.27080190367996692657470703125" lon="-1.33053182624280452728271484375">
        <ele>1363.800048828125</ele>
        <time>2022-08-26T11:31:26.000Z</time>
      </trkpt>
      <trkpt lat="40.27083341963589191436767578125" lon="-1.33021540939807891845703125">
        <ele>1362.4000244140625</ele>
        <time>2022-08-26T11:31:28.000Z</time>
      </trkpt>
      <trkpt lat="40.270857475697994232177734375" lon="-1.3300533033907413482666015625">
        <ele>1361.5999755859375</ele>
        <time>2022-08-26T11:31:29.000Z</time>
      </trkpt>
      <trkpt lat="40.27087868191301822662353515625" lon="-1.3298888504505157470703125">
        <ele>1361.199951171875</ele>
        <time>2022-08-26T11:31:30.000Z</time>
      </trkpt>
      <trkpt lat="40.2709052525460720062255859375" lon="-1.3295562565326690673828125">
        <ele>1359.5999755859375</ele>
        <time>2022-08-26T11:31:32.000Z</time>
      </trkpt>
      <trkpt lat="40.27092528529465198516845703125" lon="-1.32920882664620876312255859375">
        <ele>1358.199951171875</ele>
        <time>2022-08-26T11:31:34.000Z</time>
      </trkpt>
      <trkpt lat="40.27090567164123058319091796875" lon="-1.328862570226192474365234375">
        <ele>1356.199951171875</ele>
        <time>2022-08-26T11:31:36.000Z</time>
      </trkpt>
      <trkpt lat="40.27087516151368618011474609375" lon="-1.32869736291468143463134765625">
        <ele>1355.4000244140625</ele>
        <time>2022-08-26T11:31:37.000Z</time>
      </trkpt>
      <trkpt lat="40.27082956396043300628662109375" lon="-1.32854112423956394195556640625">
        <ele>1354.5999755859375</ele>
        <time>2022-08-26T11:31:38.000Z</time>
      </trkpt>
      <trkpt lat="40.27070936746895313262939453125" lon="-1.32824440486729145050048828125">
        <ele>1353.199951171875</ele>
        <time>2022-08-26T11:31:40.000Z</time>
      </trkpt>
      <trkpt lat="40.27058648876845836639404296875" lon="-1.32795489393174648284912109375">
        <ele>1351.4000244140625</ele>
        <time>2022-08-26T11:31:42.000Z</time>
      </trkpt>
      <trkpt lat="40.2705185115337371826171875" lon="-1.32781692780554294586181640625">
        <ele>1349.199951171875</ele>
        <time>2022-08-26T11:31:43.000Z</time>
      </trkpt>
      <trkpt lat="40.27044475078582763671875" lon="-1.32768600247800350189208984375">
        <ele>1348.199951171875</ele>
        <time>2022-08-26T11:31:44.000Z</time>
      </trkpt>
      <trkpt lat="40.270364284515380859375" lon="-1.32756278850138187408447265625">
        <ele>1347.199951171875</ele>
        <time>2022-08-26T11:31:45.000Z</time>
      </trkpt>
      <trkpt lat="40.27028105221688747406005859375" lon="-1.32744410075247287750244140625">
        <ele>1346.4000244140625</ele>
        <time>2022-08-26T11:31:46.000Z</time>
      </trkpt>
      <trkpt lat="40.27011173777282238006591796875" lon="-1.32722030393779277801513671875">
        <ele>1344.800048828125</ele>
        <time>2022-08-26T11:31:48.000Z</time>
      </trkpt>
      <trkpt lat="40.26994091458618640899658203125" lon="-1.32702299393713474273681640625">
        <ele>1343</ele>
        <time>2022-08-26T11:31:50.000Z</time>
      </trkpt>
      <trkpt lat="40.26976145803928375244140625" lon="-1.32685669697821140289306640625">
        <ele>1341.199951171875</ele>
        <time>2022-08-26T11:31:52.000Z</time>
      </trkpt>
      <trkpt lat="40.26956833899021148681640625" lon="-1.32671705447137355804443359375">
        <ele>1339.800048828125</ele>
        <time>2022-08-26T11:31:54.000Z</time>
      </trkpt>
      <trkpt lat="40.2692801691591739654541015625" lon="-1.32650013081729412078857421875">
        <ele>1338.4000244140625</ele>
        <time>2022-08-26T11:31:57.000Z</time>
      </trkpt>
      <trkpt lat="40.2690310589969158172607421875" lon="-1.32622897624969482421875">
        <ele>1337.4000244140625</ele>
        <time>2022-08-26T11:32:00.000Z</time>
      </trkpt>
      <trkpt lat="40.26896593160927295684814453125" lon="-1.3261231966316699981689453125">
        <ele>1337.199951171875</ele>
        <time>2022-08-26T11:32:01.000Z</time>
      </trkpt>
      <trkpt lat="40.26886836625635623931884765625" lon="-1.3258958794176578521728515625">
        <ele>1336.4000244140625</ele>
        <time>2022-08-26T11:32:03.000Z</time>
      </trkpt>
      <trkpt lat="40.268825031816959381103515625" lon="-1.32578146643936634063720703125">
        <ele>1336</ele>
        <time>2022-08-26T11:32:04.000Z</time>
      </trkpt>
      <trkpt lat="40.268661081790924072265625" lon="-1.3254814781248569488525390625">
        <ele>1335.199951171875</ele>
        <time>2022-08-26T11:32:07.000Z</time>
      </trkpt>
      <trkpt lat="40.2685938589274883270263671875" lon="-1.3253963179886341094970703125">
        <ele>1335</ele>
        <time>2022-08-26T11:32:08.000Z</time>
      </trkpt>
      <trkpt lat="40.26836746372282505035400390625" lon="-1.3251800648868083953857421875">
        <ele>1333.4000244140625</ele>
        <time>2022-08-26T11:32:11.000Z</time>
      </trkpt>
      <trkpt lat="40.26829068548977375030517578125" lon="-1.32510487921535968780517578125">
        <ele>1333</ele>
        <time>2022-08-26T11:32:12.000Z</time>
      </trkpt>
      <trkpt lat="40.26822010986506938934326171875" lon="-1.3250167854130268096923828125">
        <ele>1332.800048828125</ele>
        <time>2022-08-26T11:32:13.000Z</time>
      </trkpt>
      <trkpt lat="40.26810586452484130859375" lon="-1.32481838576495647430419921875">
        <ele>1332</ele>
        <time>2022-08-26T11:32:15.000Z</time>
      </trkpt>
      <trkpt lat="40.26802279986441135406494140625" lon="-1.32459056563675403594970703125">
        <ele>1331.4000244140625</ele>
        <time>2022-08-26T11:32:17.000Z</time>
      </trkpt>
      <trkpt lat="40.26798659004271030426025390625" lon="-1.3244733028113842010498046875">
        <ele>1331</ele>
        <time>2022-08-26T11:32:18.000Z</time>
      </trkpt>
      <trkpt lat="40.26796848513185977935791015625" lon="-1.32434078492224216461181640625">
        <ele>1330.4000244140625</ele>
        <time>2022-08-26T11:32:19.000Z</time>
      </trkpt>
      <trkpt lat="40.2679189480841159820556640625" lon="-1.32407826371490955352783203125">
        <ele>1329.5999755859375</ele>
        <time>2022-08-26T11:32:21.000Z</time>
      </trkpt>
      <trkpt lat="40.2678941376507282257080078125" lon="-1.32380492985248565673828125">
        <ele>1328.5999755859375</ele>
        <time>2022-08-26T11:32:23.000Z</time>
      </trkpt>
      <trkpt lat="40.2678961493074893951416015625" lon="-1.32366738282144069671630859375">
        <ele>1327.800048828125</ele>
        <time>2022-08-26T11:32:24.000Z</time>
      </trkpt>
      <trkpt lat="40.26790880598127841949462890625" lon="-1.3235328532755374908447265625">
        <ele>1327.4000244140625</ele>
        <time>2022-08-26T11:32:25.000Z</time>
      </trkpt>
      <trkpt lat="40.2679739333689212799072265625" lon="-1.32328726351261138916015625">
        <ele>1326.4000244140625</ele>
        <time>2022-08-26T11:32:27.000Z</time>
      </trkpt>
      <trkpt lat="40.2680594287812709808349609375" lon="-1.323060952126979827880859375">
        <ele>1324.5999755859375</ele>
        <time>2022-08-26T11:32:29.000Z</time>
      </trkpt>
      <trkpt lat="40.2681392244994640350341796875" lon="-1.3228452019393444061279296875">
        <ele>1323.5999755859375</ele>
        <time>2022-08-26T11:32:31.000Z</time>
      </trkpt>
      <trkpt lat="40.2681657113134860992431640625" lon="-1.322733722627162933349609375">
        <ele>1323</ele>
        <time>2022-08-26T11:32:32.000Z</time>
      </trkpt>
      <trkpt lat="40.2681777812540531158447265625" lon="-1.32250347174704074859619140625">
        <ele>1322.4000244140625</ele>
        <time>2022-08-26T11:32:34.000Z</time>
      </trkpt>
      <trkpt lat="40.2681647054851055145263671875" lon="-1.32238763384521007537841796875">
        <ele>1322</ele>
        <time>2022-08-26T11:32:35.000Z</time>
      </trkpt>
      <trkpt lat="40.26812396943569183349609375" lon="-1.3221560418605804443359375">
        <ele>1321.4000244140625</ele>
        <time>2022-08-26T11:32:37.000Z</time>
      </trkpt>
      <trkpt lat="40.268096141517162322998046875" lon="-1.32204062305390834808349609375">
        <ele>1321.199951171875</ele>
        <time>2022-08-26T11:32:38.000Z</time>
      </trkpt>
      <trkpt lat="40.2680232189595699310302734375" lon="-1.32181230001151561737060546875">
        <ele>1320.4000244140625</ele>
        <time>2022-08-26T11:32:40.000Z</time>
      </trkpt>
      <trkpt lat="40.26790025644004344940185546875" lon="-1.32147903554141521453857421875">
        <ele>1319.800048828125</ele>
        <time>2022-08-26T11:32:43.000Z</time>
      </trkpt>
      <trkpt lat="40.2678341232240200042724609375" lon="-1.3212533108890056610107421875">
        <ele>1319</ele>
        <time>2022-08-26T11:32:45.000Z</time>
      </trkpt>
      <trkpt lat="40.2678032778203487396240234375" lon="-1.32114191539585590362548828125">
        <ele>1318.5999755859375</ele>
        <time>2022-08-26T11:32:46.000Z</time>
      </trkpt>
      <trkpt lat="40.26767193339765071868896484375" lon="-1.32059508003294467926025390625">
        <ele>1317.4000244140625</ele>
        <time>2022-08-26T11:32:51.000Z</time>
      </trkpt>
      <trkpt lat="40.2676378190517425537109375" lon="-1.3202404417097568511962890625">
        <ele>1316.199951171875</ele>
        <time>2022-08-26T11:32:54.000Z</time>
      </trkpt>
      <trkpt lat="40.267600603401660919189453125" lon="-1.3197965361177921295166015625">
        <ele>1315.199951171875</ele>
        <time>2022-08-26T11:32:58.000Z</time>
      </trkpt>
      <trkpt lat="40.2675910480320453643798828125" lon="-1.31968866102397441864013671875">
        <ele>1315</ele>
        <time>2022-08-26T11:32:59.000Z</time>
      </trkpt>
      <trkpt lat="40.26755978353321552276611328125" lon="-1.31925162859261035919189453125">
        <ele>1313.800048828125</ele>
        <time>2022-08-26T11:33:03.000Z</time>
      </trkpt>
      <trkpt lat="40.26754100807011127471923828125" lon="-1.31914869882166385650634765625">
        <ele>1313.5999755859375</ele>
        <time>2022-08-26T11:33:04.000Z</time>
      </trkpt>
      <trkpt lat="40.26746951043605804443359375" lon="-1.31882532499730587005615234375">
        <ele>1312.800048828125</ele>
        <time>2022-08-26T11:33:07.000Z</time>
      </trkpt>
      <trkpt lat="40.2674224041402339935302734375" lon="-1.31858266890048980712890625">
        <ele>1312</ele>
        <time>2022-08-26T11:33:09.000Z</time>
      </trkpt>
      <trkpt lat="40.2673935703933238983154296875" lon="-1.31833883933722972869873046875">
        <ele>1311.800048828125</ele>
        <time>2022-08-26T11:33:11.000Z</time>
      </trkpt>
      <trkpt lat="40.2673882059752941131591796875" lon="-1.3179800100624561309814453125">
        <ele>1310.5999755859375</ele>
        <time>2022-08-26T11:33:14.000Z</time>
      </trkpt>
      <trkpt lat="40.26740404777228832244873046875" lon="-1.3177518546581268310546875">
        <ele>1309.5999755859375</ele>
        <time>2022-08-26T11:33:16.000Z</time>
      </trkpt>
      <trkpt lat="40.26742525398731231689453125" lon="-1.31752780638635158538818359375">
        <ele>1308.5999755859375</ele>
        <time>2022-08-26T11:33:18.000Z</time>
      </trkpt>
      <trkpt lat="40.26743489317595958709716796875" lon="-1.31741750054061412811279296875">
        <ele>1308.199951171875</ele>
        <time>2022-08-26T11:33:19.000Z</time>
      </trkpt>
      <trkpt lat="40.26744629256427288055419921875" lon="-1.3173061050474643707275390625">
        <ele>1308</ele>
        <time>2022-08-26T11:33:20.000Z</time>
      </trkpt>
      <trkpt lat="40.26748049072921276092529296875" lon="-1.31697996519505977630615234375">
        <ele>1307</ele>
        <time>2022-08-26T11:33:23.000Z</time>
      </trkpt>
      <trkpt lat="40.26754620485007762908935546875" lon="-1.31663898937404155731201171875">
        <ele>1306.199951171875</ele>
        <time>2022-08-26T11:33:26.000Z</time>
      </trkpt>
      <trkpt lat="40.26757101528346538543701171875" lon="-1.31653010845184326171875">
        <ele>1305.5999755859375</ele>
        <time>2022-08-26T11:33:27.000Z</time>
      </trkpt>
      <trkpt lat="40.26764645241200923919677734375" lon="-1.316315196454524993896484375">
        <ele>1305</ele>
        <time>2022-08-26T11:33:29.000Z</time>
      </trkpt>
      <trkpt lat="40.26769615709781646728515625" lon="-1.3162122666835784912109375">
        <ele>1304.800048828125</ele>
        <time>2022-08-26T11:33:30.000Z</time>
      </trkpt>
      <trkpt lat="40.2677435986697673797607421875" lon="-1.3161152042448520660400390625">
        <ele>1304.5999755859375</ele>
        <time>2022-08-26T11:33:31.000Z</time>
      </trkpt>
      <trkpt lat="40.26791685260832309722900390625" lon="-1.315772049129009246826171875">
        <ele>1303.5999755859375</ele>
        <time>2022-08-26T11:33:35.000Z</time>
      </trkpt>
      <trkpt lat="40.26795960031449794769287109375" lon="-1.31569719873368740081787109375">
        <ele>1303.199951171875</ele>
        <time>2022-08-26T11:33:36.000Z</time>
      </trkpt>
      <trkpt lat="40.2680564112961292266845703125" lon="-1.31556023843586444854736328125">
        <ele>1302.5999755859375</ele>
        <time>2022-08-26T11:33:38.000Z</time>
      </trkpt>
      <trkpt lat="40.2681070379912853240966796875" lon="-1.3155050016939640045166015625">
        <ele>1302.4000244140625</ele>
        <time>2022-08-26T11:33:39.000Z</time>
      </trkpt>
      <trkpt lat="40.26815992780029773712158203125" lon="-1.3154620863497257232666015625">
        <ele>1302.4000244140625</ele>
        <time>2022-08-26T11:33:40.000Z</time>
      </trkpt>
      <trkpt lat="40.268316753208637237548828125" lon="-1.31537449546158313751220703125">
        <ele>1302.199951171875</ele>
        <time>2022-08-26T11:33:43.000Z</time>
      </trkpt>
      <trkpt lat="40.2684164978563785552978515625" lon="-1.3153343461453914642333984375">
        <ele>1302</ele>
        <time>2022-08-26T11:33:45.000Z</time>
      </trkpt>
      <trkpt lat="40.26866535656154155731201171875" lon="-1.315251030027866363525390625">
        <ele>1301.800048828125</ele>
        <time>2022-08-26T11:33:51.000Z</time>
      </trkpt>
      <trkpt lat="40.26897783391177654266357421875" lon="-1.31520467810332775115966796875">
        <ele>1302.199951171875</ele>
        <time>2022-08-26T11:33:59.000Z</time>
      </trkpt>
      <trkpt lat="40.2692392654716968536376953125" lon="-1.315191350877285003662109375">
        <ele>1302.5999755859375</ele>
        <time>2022-08-26T11:34:06.000Z</time>
      </trkpt>
      <trkpt lat="40.26951276697218418121337890625" lon="-1.31516159512102603912353515625">
        <ele>1303.199951171875</ele>
        <time>2022-08-26T11:34:13.000Z</time>
      </trkpt>
      <trkpt lat="40.26970270089805126190185546875" lon="-1.31512664258480072021484375">
        <ele>1303.5999755859375</ele>
        <time>2022-08-26T11:34:18.000Z</time>
      </trkpt>
      <trkpt lat="40.2698058821260929107666015625" lon="-1.315116249024868011474609375">
        <ele>1304</ele>
        <time>2022-08-26T11:34:21.000Z</time>
      </trkpt>
      <trkpt lat="40.270019955933094024658203125" lon="-1.315100155770778656005859375">
        <ele>1304.5999755859375</ele>
        <time>2022-08-26T11:34:28.000Z</time>
      </trkpt>
      <trkpt lat="40.270052142441272735595703125" lon="-1.3150966353714466094970703125">
        <ele>1304.800048828125</ele>
        <time>2022-08-26T11:34:29.000Z</time>
      </trkpt>
      <trkpt lat="40.270207710564136505126953125" lon="-1.31507542915642261505126953125">
        <ele>1305.800048828125</ele>
        <time>2022-08-26T11:34:35.000Z</time>
      </trkpt>
      <trkpt lat="40.27036705054342746734619140625" lon="-1.31504307501018047332763671875">
        <ele>1307.199951171875</ele>
        <time>2022-08-26T11:34:41.000Z</time>
      </trkpt>
      <trkpt lat="40.27039714157581329345703125" lon="-1.31503410637378692626953125">
        <ele>1307.4000244140625</ele>
        <time>2022-08-26T11:34:42.000Z</time>
      </trkpt>
      <trkpt lat="40.2706239558756351470947265625" lon="-1.31497375667095184326171875">
        <ele>1308.4000244140625</ele>
        <time>2022-08-26T11:34:49.000Z</time>
      </trkpt>
      <trkpt lat="40.2706605009734630584716796875" lon="-1.3149638660252094268798828125">
        <ele>1308.5999755859375</ele>
        <time>2022-08-26T11:34:50.000Z</time>
      </trkpt>
      <trkpt lat="40.27091078460216522216796875" lon="-1.3149135746061801910400390625">
        <ele>1309.199951171875</ele>
        <time>2022-08-26T11:34:58.000Z</time>
      </trkpt>
      <trkpt lat="40.27096585370600223541259765625" lon="-1.31490276195108890533447265625">
        <ele>1309.4000244140625</ele>
        <time>2022-08-26T11:35:00.000Z</time>
      </trkpt>
      <trkpt lat="40.27117607183754444122314453125" lon="-1.3148602657020092010498046875">
        <ele>1310.4000244140625</ele>
        <time>2022-08-26T11:35:07.000Z</time>
      </trkpt>
      <trkpt lat="40.27120457030832767486572265625" lon="-1.3148542307317256927490234375">
        <ele>1310.4000244140625</ele>
        <time>2022-08-26T11:35:08.000Z</time>
      </trkpt>
      <trkpt lat="40.27135930024087429046630859375" lon="-1.31481391377747058868408203125">
        <ele>1311.199951171875</ele>
        <time>2022-08-26T11:35:14.000Z</time>
      </trkpt>
      <trkpt lat="40.27144320309162139892578125" lon="-1.3147922046482563018798828125">
        <ele>1311.4000244140625</ele>
        <time>2022-08-26T11:35:18.000Z</time>
      </trkpt>
      <trkpt lat="40.2715037204325199127197265625" lon="-1.3147804699838161468505859375">
        <ele>1311.5999755859375</ele>
        <time>2022-08-26T11:35:21.000Z</time>
      </trkpt>
      <trkpt lat="40.27161193080246448516845703125" lon="-1.31474367342889308929443359375">
        <ele>1312.800048828125</ele>
        <time>2022-08-26T11:35:27.000Z</time>
      </trkpt>
      <trkpt lat="40.27163221500813961029052734375" lon="-1.31473629735410213470458984375">
        <ele>1312.800048828125</ele>
        <time>2022-08-26T11:35:28.000Z</time>
      </trkpt>
      <trkpt lat="40.271752662956714630126953125" lon="-1.31467242725193500518798828125">
        <ele>1313.800048828125</ele>
        <time>2022-08-26T11:35:35.000Z</time>
      </trkpt>
      <trkpt lat="40.271770097315311431884765625" lon="-1.31466287188231945037841796875">
        <ele>1314</ele>
        <time>2022-08-26T11:35:36.000Z</time>
      </trkpt>
      <trkpt lat="40.27192709036171436309814453125" lon="-1.31460101343691349029541015625">
        <ele>1314.800048828125</ele>
        <time>2022-08-26T11:35:45.000Z</time>
      </trkpt>
      <trkpt lat="40.272057093679904937744140625" lon="-1.31453328765928745269775390625">
        <ele>1316</ele>
        <time>2022-08-26T11:35:52.000Z</time>
      </trkpt>
      <trkpt lat="40.27207553386688232421875" lon="-1.3145209662616252899169921875">
        <ele>1316.199951171875</ele>
        <time>2022-08-26T11:35:53.000Z</time>
      </trkpt>
      <trkpt lat="40.2722574211657047271728515625" lon="-1.31442348472774028778076171875">
        <ele>1317.199951171875</ele>
        <time>2022-08-26T11:36:02.000Z</time>
      </trkpt>
      <trkpt lat="40.27227510698139667510986328125" lon="-1.31441191770136356353759765625">
        <ele>1317.199951171875</ele>
        <time>2022-08-26T11:36:03.000Z</time>
      </trkpt>
      <trkpt lat="40.27237082831561565399169921875" lon="-1.31436514668166637420654296875">
        <ele>1318.199951171875</ele>
        <time>2022-08-26T11:36:08.000Z</time>
      </trkpt>
      <trkpt lat="40.27246319688856601715087890625" lon="-1.31432591937482357025146484375">
        <ele>1318.5999755859375</ele>
        <time>2022-08-26T11:36:13.000Z</time>
      </trkpt>
      <trkpt lat="40.2725916914641857147216796875" lon="-1.3142674975097179412841796875">
        <ele>1319.4000244140625</ele>
        <time>2022-08-26T11:36:20.000Z</time>
      </trkpt>
      <trkpt lat="40.27262463234364986419677734375" lon="-1.3142547570168972015380859375">
        <ele>1319.5999755859375</ele>
        <time>2022-08-26T11:36:22.000Z</time>
      </trkpt>
      <trkpt lat="40.27276829816401004791259765625" lon="-1.3141786493360996246337890625">
        <ele>1320.5999755859375</ele>
        <time>2022-08-26T11:36:30.000Z</time>
      </trkpt>
      <trkpt lat="40.27291079051792621612548828125" lon="-1.31407563574612140655517578125">
        <ele>1321.4000244140625</ele>
        <time>2022-08-26T11:36:38.000Z</time>
      </trkpt>
      <trkpt lat="40.27298086322844028472900390625" lon="-1.3140026293694972991943359375">
        <ele>1321.800048828125</ele>
        <time>2022-08-26T11:36:42.000Z</time>
      </trkpt>
      <trkpt lat="40.2730516903102397918701171875" lon="-1.31391805596649646759033203125">
        <ele>1322.800048828125</ele>
        <time>2022-08-26T11:36:47.000Z</time>
      </trkpt>
      <trkpt lat="40.2731127105653285980224609375" lon="-1.313834823668003082275390625">
        <ele>1323.800048828125</ele>
        <time>2022-08-26T11:36:52.000Z</time>
      </trkpt>
      <trkpt lat="40.27312620542943477630615234375" lon="-1.31381948478519916534423828125">
        <ele>1324</ele>
        <time>2022-08-26T11:36:53.000Z</time>
      </trkpt>
      <trkpt lat="40.2731995470821857452392578125" lon="-1.31374136544764041900634765625">
        <ele>1325</ele>
        <time>2022-08-26T11:36:59.000Z</time>
      </trkpt>
      <trkpt lat="40.27321756817400455474853515625" lon="-1.3137270323932170867919921875">
        <ele>1325.199951171875</ele>
        <time>2022-08-26T11:37:00.000Z</time>
      </trkpt>
      <trkpt lat="40.27333407662808895111083984375" lon="-1.31361446343362331390380859375">
        <ele>1326.199951171875</ele>
        <time>2022-08-26T11:37:07.000Z</time>
      </trkpt>
      <trkpt lat="40.27342912741005420684814453125" lon="-1.31351522170007228851318359375">
        <ele>1327.199951171875</ele>
        <time>2022-08-26T11:37:13.000Z</time>
      </trkpt>
      <trkpt lat="40.27353893034160137176513671875" lon="-1.31343425251543521881103515625">
        <ele>1328.199951171875</ele>
        <time>2022-08-26T11:37:20.000Z</time>
      </trkpt>
      <trkpt lat="40.273560471832752227783203125" lon="-1.313414387404918670654296875">
        <ele>1328.4000244140625</ele>
        <time>2022-08-26T11:37:22.000Z</time>
      </trkpt>
      <trkpt lat="40.2736266888678073883056640625" lon="-1.3133602403104305267333984375">
        <ele>1329.199951171875</ele>
        <time>2022-08-26T11:37:27.000Z</time>
      </trkpt>
      <trkpt lat="40.2736514993011951446533203125" lon="-1.313342638313770294189453125">
        <ele>1329.5999755859375</ele>
        <time>2022-08-26T11:37:29.000Z</time>
      </trkpt>
      <trkpt lat="40.27370774187147617340087890625" lon="-1.31329444237053394317626953125">
        <ele>1330</ele>
        <time>2022-08-26T11:37:33.000Z</time>
      </trkpt>
      <trkpt lat="40.2737899683415889739990234375" lon="-1.31325571797788143157958984375">
        <ele>1330.800048828125</ele>
        <time>2022-08-26T11:37:38.000Z</time>
      </trkpt>
      <trkpt lat="40.2738285250961780548095703125" lon="-1.31323358975350856781005859375">
        <ele>1331.4000244140625</ele>
        <time>2022-08-26T11:37:40.000Z</time>
      </trkpt>
      <trkpt lat="40.2738804928958415985107421875" lon="-1.31320140324532985687255859375">
        <ele>1331.800048828125</ele>
        <time>2022-08-26T11:37:43.000Z</time>
      </trkpt>
      <trkpt lat="40.273977220058441162109375" lon="-1.31315178237855434417724609375">
        <ele>1332.5999755859375</ele>
        <time>2022-08-26T11:37:48.000Z</time>
      </trkpt>
      <trkpt lat="40.2740367315709590911865234375" lon="-1.31312764249742031097412109375">
        <ele>1333</ele>
        <time>2022-08-26T11:37:51.000Z</time>
      </trkpt>
      <trkpt lat="40.27413614094257354736328125" lon="-1.3130739144980907440185546875">
        <ele>1333.4000244140625</ele>
        <time>2022-08-26T11:37:56.000Z</time>
      </trkpt>
      <trkpt lat="40.274212919175624847412109375" lon="-1.313040219247341156005859375">
        <ele>1334</ele>
        <time>2022-08-26T11:38:00.000Z</time>
      </trkpt>
      <trkpt lat="40.2742655575275421142578125" lon="-1.31301708519458770751953125">
        <ele>1334.4000244140625</ele>
        <time>2022-08-26T11:38:03.000Z</time>
      </trkpt>
      <trkpt lat="40.274342000484466552734375" lon="-1.3129478506743907928466796875">
        <ele>1335.199951171875</ele>
        <time>2022-08-26T11:38:08.000Z</time>
      </trkpt>
      <trkpt lat="40.27440763078629970550537109375" lon="-1.3128801248967647552490234375">
        <ele>1335.5999755859375</ele>
        <time>2022-08-26T11:38:12.000Z</time>
      </trkpt>
      <trkpt lat="40.2745017595589160919189453125" lon="-1.3127946294844150543212890625">
        <ele>1336.4000244140625</ele>
        <time>2022-08-26T11:38:17.000Z</time>
      </trkpt>
      <trkpt lat="40.27456906624138355255126953125" lon="-1.3127399794757366180419921875">
        <ele>1336.5999755859375</ele>
        <time>2022-08-26T11:38:20.000Z</time>
      </trkpt>
      <trkpt lat="40.2747322618961334228515625" lon="-1.31261207163333892822265625">
        <ele>1337.5999755859375</ele>
        <time>2022-08-26T11:38:28.000Z</time>
      </trkpt>
      <trkpt lat="40.2747548930346965789794921875" lon="-1.31259421817958354949951171875">
        <ele>1337.5999755859375</ele>
        <time>2022-08-26T11:38:29.000Z</time>
      </trkpt>
      <trkpt lat="40.27487383224070072174072265625" lon="-1.312493383884429931640625">
        <ele>1338.5999755859375</ele>
        <time>2022-08-26T11:38:35.000Z</time>
      </trkpt>
      <trkpt lat="40.27489797212183475494384765625" lon="-1.31247485987842082977294921875">
        <ele>1338.5999755859375</ele>
        <time>2022-08-26T11:38:36.000Z</time>
      </trkpt>
      <trkpt lat="40.275055132806301116943359375" lon="-1.31235499866306781768798828125">
        <ele>1339.199951171875</ele>
        <time>2022-08-26T11:38:43.000Z</time>
      </trkpt>
      <trkpt lat="40.27518086135387420654296875" lon="-1.3122719340026378631591796875">
        <ele>1339.5999755859375</ele>
        <time>2022-08-26T11:38:48.000Z</time>
      </trkpt>
      <trkpt lat="40.2752579748630523681640625" lon="-1.31222876720130443572998046875">
        <ele>1340</ele>
        <time>2022-08-26T11:38:51.000Z</time>
      </trkpt>
      <trkpt lat="40.27544262818992137908935546875" lon="-1.31215341389179229736328125">
        <ele>1340.5999755859375</ele>
        <time>2022-08-26T11:38:58.000Z</time>
      </trkpt>
      <trkpt lat="40.27547012083232402801513671875" lon="-1.31214511580765247344970703125">
        <ele>1340.5999755859375</ele>
        <time>2022-08-26T11:38:59.000Z</time>
      </trkpt>
      <trkpt lat="40.27563457377254962921142578125" lon="-1.3121438585221767425537109375">
        <ele>1341</ele>
        <time>2022-08-26T11:39:05.000Z</time>
      </trkpt>
      <trkpt lat="40.27590371668338775634765625" lon="-1.31218836642801761627197265625">
        <ele>1341.5999755859375</ele>
        <time>2022-08-26T11:39:14.000Z</time>
      </trkpt>
      <trkpt lat="40.27593414299190044403076171875" lon="-1.3121914677321910858154296875">
        <ele>1341.5999755859375</ele>
        <time>2022-08-26T11:39:15.000Z</time>
      </trkpt>
      <trkpt lat="40.27618191204965114593505859375" lon="-1.31218953989446163177490234375">
        <ele>1342.199951171875</ele>
        <time>2022-08-26T11:39:22.000Z</time>
      </trkpt>
      <trkpt lat="40.276495479047298431396484375" lon="-1.31213908083736896514892578125">
        <ele>1342.199951171875</ele>
        <time>2022-08-26T11:39:29.000Z</time>
      </trkpt>
      <trkpt lat="40.27684207074344158172607421875" lon="-1.31211460568010807037353515625">
        <ele>1341.4000244140625</ele>
        <time>2022-08-26T11:39:35.000Z</time>
      </trkpt>
      <trkpt lat="40.27713493444025516510009765625" lon="-1.31208996288478374481201171875">
        <ele>1340.5999755859375</ele>
        <time>2022-08-26T11:39:39.000Z</time>
      </trkpt>
      <trkpt lat="40.27728530578315258026123046875" lon="-1.31204637698829174041748046875">
        <ele>1340.4000244140625</ele>
        <time>2022-08-26T11:39:41.000Z</time>
      </trkpt>
      <trkpt lat="40.2775098569691181182861328125" lon="-1.31196456961333751678466796875">
        <ele>1339.4000244140625</ele>
        <time>2022-08-26T11:39:44.000Z</time>
      </trkpt>
      <trkpt lat="40.27774496935307979583740234375" lon="-1.31185434758663177490234375">
        <ele>1338.199951171875</ele>
        <time>2022-08-26T11:39:47.000Z</time>
      </trkpt>
      <trkpt lat="40.27808778919279575347900390625" lon="-1.3116996176540851593017578125">
        <ele>1337</ele>
        <time>2022-08-26T11:39:51.000Z</time>
      </trkpt>
      <trkpt lat="40.27837009169161319732666015625" lon="-1.31158654578030109405517578125">
        <ele>1336.199951171875</ele>
        <time>2022-08-26T11:39:54.000Z</time>
      </trkpt>
      <trkpt lat="40.27846656739711761474609375" lon="-1.3115474022924900054931640625">
        <ele>1335.800048828125</ele>
        <time>2022-08-26T11:39:55.000Z</time>
      </trkpt>
      <trkpt lat="40.278761275112628936767578125" lon="-1.31142259575426578521728515625">
        <ele>1334.199951171875</ele>
        <time>2022-08-26T11:39:58.000Z</time>
      </trkpt>
      <trkpt lat="40.27896403335034847259521484375" lon="-1.31133106537163257598876953125">
        <ele>1333</ele>
        <time>2022-08-26T11:40:00.000Z</time>
      </trkpt>
      <trkpt lat="40.27907073497772216796875" lon="-1.3112791813910007476806640625">
        <ele>1332.4000244140625</ele>
        <time>2022-08-26T11:40:01.000Z</time>
      </trkpt>
      <trkpt lat="40.27917425148189067840576171875" lon="-1.311235092580318450927734375">
        <ele>1331.5999755859375</ele>
        <time>2022-08-26T11:40:02.000Z</time>
      </trkpt>
      <trkpt lat="40.27938446961343288421630859375" lon="-1.3111249543726444244384765625">
        <ele>1330</ele>
        <time>2022-08-26T11:40:04.000Z</time>
      </trkpt>
      <trkpt lat="40.279577337205410003662109375" lon="-1.310978941619396209716796875">
        <ele>1328.5999755859375</ele>
        <time>2022-08-26T11:40:06.000Z</time>
      </trkpt>
      <trkpt lat="40.27975402772426605224609375" lon="-1.31079680286347866058349609375">
        <ele>1327.4000244140625</ele>
        <time>2022-08-26T11:40:08.000Z</time>
      </trkpt>
      <trkpt lat="40.28000607155263423919677734375" lon="-1.3105298392474651336669921875">
        <ele>1326.199951171875</ele>
        <time>2022-08-26T11:40:11.000Z</time>
      </trkpt>
      <trkpt lat="40.2801622264087200164794921875" lon="-1.31035138852894306182861328125">
        <ele>1324.800048828125</ele>
        <time>2022-08-26T11:40:13.000Z</time>
      </trkpt>
      <trkpt lat="40.28039365075528621673583984375" lon="-1.31009909324347972869873046875">
        <ele>1323.4000244140625</ele>
        <time>2022-08-26T11:40:16.000Z</time>
      </trkpt>
      <trkpt lat="40.28047210536897182464599609375" lon="-1.3100138492882251739501953125">
        <ele>1323</ele>
        <time>2022-08-26T11:40:17.000Z</time>
      </trkpt>
      <trkpt lat="40.28054771013557910919189453125" lon="-1.30992525257170200347900390625">
        <ele>1322.199951171875</ele>
        <time>2022-08-26T11:40:18.000Z</time>
      </trkpt>
      <trkpt lat="40.2807741053402423858642578125" lon="-1.3096678443253040313720703125">
        <ele>1320.5999755859375</ele>
        <time>2022-08-26T11:40:21.000Z</time>
      </trkpt>
      <trkpt lat="40.28090980835258960723876953125" lon="-1.309480927884578704833984375">
        <ele>1320</ele>
        <time>2022-08-26T11:40:23.000Z</time>
      </trkpt>
      <trkpt lat="40.280960686504840850830078125" lon="-1.309367604553699493408203125">
        <ele>1319.800048828125</ele>
        <time>2022-08-26T11:40:24.000Z</time>
      </trkpt>
      <trkpt lat="40.28101525269448757171630859375" lon="-1.30911287851631641387939453125">
        <ele>1318.4000244140625</ele>
        <time>2022-08-26T11:40:26.000Z</time>
      </trkpt>
      <trkpt lat="40.28100184164941310882568359375" lon="-1.30870937369763851165771484375">
        <ele>1317.4000244140625</ele>
        <time>2022-08-26T11:40:29.000Z</time>
      </trkpt>
      <trkpt lat="40.28098675422370433807373046875" lon="-1.3085825555026531219482421875">
        <ele>1316.800048828125</ele>
        <time>2022-08-26T11:40:30.000Z</time>
      </trkpt>
      <trkpt lat="40.2809501253068447113037109375" lon="-1.30833973176777362823486328125">
        <ele>1316</ele>
        <time>2022-08-26T11:40:32.000Z</time>
      </trkpt>
      <trkpt lat="40.28091609477996826171875" lon="-1.30810998380184173583984375">
        <ele>1315</ele>
        <time>2022-08-26T11:40:34.000Z</time>
      </trkpt>
      <trkpt lat="40.2808984927833080291748046875" lon="-1.30800244398415088653564453125">
        <ele>1314.5999755859375</ele>
        <time>2022-08-26T11:40:35.000Z</time>
      </trkpt>
      <trkpt lat="40.28088080696761608123779296875" lon="-1.3079009391367435455322265625">
        <ele>1313.800048828125</ele>
        <time>2022-08-26T11:40:36.000Z</time>
      </trkpt>
      <trkpt lat="40.28081023134291172027587890625" lon="-1.30742199718952178955078125">
        <ele>1313</ele>
        <time>2022-08-26T11:40:41.000Z</time>
      </trkpt>
      <trkpt lat="40.28074753470718860626220703125" lon="-1.3070283830165863037109375">
        <ele>1312.800048828125</ele>
        <time>2022-08-26T11:40:46.000Z</time>
      </trkpt>
      <trkpt lat="40.280689783394336700439453125" lon="-1.306695453822612762451171875">
        <ele>1313.199951171875</ele>
        <time>2022-08-26T11:40:52.000Z</time>
      </trkpt>
      <trkpt lat="40.2806309424340724945068359375" lon="-1.3063318468630313873291015625">
        <ele>1314</ele>
        <time>2022-08-26T11:41:00.000Z</time>
      </trkpt>
      <trkpt lat="40.28057754971086978912353515625" lon="-1.3059992529451847076416015625">
        <ele>1315</ele>
        <time>2022-08-26T11:41:08.000Z</time>
      </trkpt>
      <trkpt lat="40.28057076036930084228515625" lon="-1.3059563376009464263916015625">
        <ele>1315</ele>
        <time>2022-08-26T11:41:09.000Z</time>
      </trkpt>
      <trkpt lat="40.2805531583726406097412109375" lon="-1.30568468011915683746337890625">
        <ele>1316.199951171875</ele>
        <time>2022-08-26T11:41:15.000Z</time>
      </trkpt>
      <trkpt lat="40.280551649630069732666015625" lon="-1.3056384958326816558837890625">
        <ele>1316.199951171875</ele>
        <time>2022-08-26T11:41:16.000Z</time>
      </trkpt>
      <trkpt lat="40.28056648559868335723876953125" lon="-1.30526223219931125640869140625">
        <ele>1317.199951171875</ele>
        <time>2022-08-26T11:41:24.000Z</time>
      </trkpt>
      <trkpt lat="40.28057386167347431182861328125" lon="-1.30521462298929691314697265625">
        <ele>1317.199951171875</ele>
        <time>2022-08-26T11:41:25.000Z</time>
      </trkpt>
      <trkpt lat="40.280620716512203216552734375" lon="-1.30489493720233440399169921875">
        <ele>1318</ele>
        <time>2022-08-26T11:41:32.000Z</time>
      </trkpt>
      <trkpt lat="40.28065399266779422760009765625" lon="-1.3046772591769695281982421875">
        <ele>1318.199951171875</ele>
        <time>2022-08-26T11:41:37.000Z</time>
      </trkpt>
      <trkpt lat="40.2806760370731353759765625" lon="-1.3046034984290599822998046875">
        <ele>1318.4000244140625</ele>
        <time>2022-08-26T11:41:39.000Z</time>
      </trkpt>
      <trkpt lat="40.28075641952455043792724609375" lon="-1.304333098232746124267578125">
        <ele>1318.800048828125</ele>
        <time>2022-08-26T11:41:46.000Z</time>
      </trkpt>
      <trkpt lat="40.2808961458504199981689453125" lon="-1.30401181988418102264404296875">
        <ele>1318.800048828125</ele>
        <time>2022-08-26T11:41:52.000Z</time>
      </trkpt>
      <trkpt lat="40.28108566068112850189208984375" lon="-1.303541846573352813720703125">
        <ele>1317.800048828125</ele>
        <time>2022-08-26T11:41:59.000Z</time>
      </trkpt>
      <trkpt lat="40.28113964013755321502685546875" lon="-1.30339197814464569091796875">
        <ele>1317.199951171875</ele>
        <time>2022-08-26T11:42:01.000Z</time>
      </trkpt>
      <trkpt lat="40.2813085354864597320556640625" lon="-1.30290306173264980316162109375">
        <ele>1316.4000244140625</ele>
        <time>2022-08-26T11:42:07.000Z</time>
      </trkpt>
      <trkpt lat="40.28135522268712520599365234375" lon="-1.30273072980344295501708984375">
        <ele>1316.199951171875</ele>
        <time>2022-08-26T11:42:09.000Z</time>
      </trkpt>
      <trkpt lat="40.28142395429313182830810546875" lon="-1.30246393382549285888671875">
        <ele>1315</ele>
        <time>2022-08-26T11:42:12.000Z</time>
      </trkpt>
      <trkpt lat="40.28150685131549835205078125" lon="-1.3021103851497173309326171875">
        <ele>1313.800048828125</ele>
        <time>2022-08-26T11:42:16.000Z</time>
      </trkpt>
      <trkpt lat="40.281528644263744354248046875" lon="-1.3020212016999721527099609375">
        <ele>1313.5999755859375</ele>
        <time>2022-08-26T11:42:17.000Z</time>
      </trkpt>
      <trkpt lat="40.28159695677459239959716796875" lon="-1.30174887366592884063720703125">
        <ele>1312.800048828125</ele>
        <time>2022-08-26T11:42:20.000Z</time>
      </trkpt>
      <trkpt lat="40.28174682520329952239990234375" lon="-1.30119147710502147674560546875">
        <ele>1311.4000244140625</ele>
        <time>2022-08-26T11:42:26.000Z</time>
      </trkpt>
      <trkpt lat="40.28179409913718700408935546875" lon="-1.3010041415691375732421875">
        <ele>1311.199951171875</ele>
        <time>2022-08-26T11:42:28.000Z</time>
      </trkpt>
      <trkpt lat="40.28184640221297740936279296875" lon="-1.300814710557460784912109375">
        <ele>1310.5999755859375</ele>
        <time>2022-08-26T11:42:30.000Z</time>
      </trkpt>
      <trkpt lat="40.28197296895086765289306640625" lon="-1.30043408833444118499755859375">
        <ele>1309.5999755859375</ele>
        <time>2022-08-26T11:42:34.000Z</time>
      </trkpt>
      <trkpt lat="40.2820032276213169097900390625" lon="-1.300334595143795013427734375">
        <ele>1309.199951171875</ele>
        <time>2022-08-26T11:42:35.000Z</time>
      </trkpt>
      <trkpt lat="40.2820846997201442718505859375" lon="-1.30002823658287525177001953125">
        <ele>1308.4000244140625</ele>
        <time>2022-08-26T11:42:38.000Z</time>
      </trkpt>
      <trkpt lat="40.2821678481996059417724609375" lon="-1.29971332848072052001953125">
        <ele>1307.4000244140625</ele>
        <time>2022-08-26T11:42:41.000Z</time>
      </trkpt>
      <trkpt lat="40.28222040273249149322509765625" lon="-1.29949414171278476715087890625">
        <ele>1307</ele>
        <time>2022-08-26T11:42:43.000Z</time>
      </trkpt>
      <trkpt lat="40.2822784893214702606201171875" lon="-1.299141012132167816162109375">
        <ele>1306.199951171875</ele>
        <time>2022-08-26T11:42:46.000Z</time>
      </trkpt>
      <trkpt lat="40.2823056466877460479736328125" lon="-1.29889265634119510650634765625">
        <ele>1305.199951171875</ele>
        <time>2022-08-26T11:42:48.000Z</time>
      </trkpt>
      <trkpt lat="40.282350741326808929443359375" lon="-1.298508010804653167724609375">
        <ele>1304</ele>
        <time>2022-08-26T11:42:51.000Z</time>
      </trkpt>
      <trkpt lat="40.282404385507106781005859375" lon="-1.29824792034924030303955078125">
        <ele>1302.5999755859375</ele>
        <time>2022-08-26T11:42:53.000Z</time>
      </trkpt>
      <trkpt lat="40.28243699111044406890869140625" lon="-1.29812034778296947479248046875">
        <ele>1302.199951171875</ele>
        <time>2022-08-26T11:42:54.000Z</time>
      </trkpt>
      <trkpt lat="40.282511003315448760986328125" lon="-1.297867633402347564697265625">
        <ele>1301.199951171875</ele>
        <time>2022-08-26T11:42:56.000Z</time>
      </trkpt>
      <trkpt lat="40.2826322056353092193603515625" lon="-1.29750176332890987396240234375">
        <ele>1300</ele>
        <time>2022-08-26T11:42:59.000Z</time>
      </trkpt>
      <trkpt lat="40.282712839543819427490234375" lon="-1.29726002924144268035888671875">
        <ele>1299.199951171875</ele>
        <time>2022-08-26T11:43:01.000Z</time>
      </trkpt>
      <trkpt lat="40.2827518992125988006591796875" lon="-1.297139413654804229736328125">
        <ele>1298.5999755859375</ele>
        <time>2022-08-26T11:43:02.000Z</time>
      </trkpt>
      <trkpt lat="40.28285893611609935760498046875" lon="-1.29677589051425457000732421875">
        <ele>1297.5999755859375</ele>
        <time>2022-08-26T11:43:05.000Z</time>
      </trkpt>
      <trkpt lat="40.2829540707170963287353515625" lon="-1.29641312174499034881591796875">
        <ele>1296.199951171875</ele>
        <time>2022-08-26T11:43:08.000Z</time>
      </trkpt>
      <trkpt lat="40.282984077930450439453125" lon="-1.29629258997738361358642578125">
        <ele>1295.199951171875</ele>
        <time>2022-08-26T11:43:09.000Z</time>
      </trkpt>
      <trkpt lat="40.283102430403232574462890625" lon="-1.2958263047039508819580078125">
        <ele>1294</ele>
        <time>2022-08-26T11:43:13.000Z</time>
      </trkpt>
      <trkpt lat="40.2832420729100704193115234375" lon="-1.29537074826657772064208984375">
        <ele>1293</ele>
        <time>2022-08-26T11:43:17.000Z</time>
      </trkpt>
      <trkpt lat="40.28342320583760738372802734375" lon="-1.29491762258112430572509765625">
        <ele>1291.800048828125</ele>
        <time>2022-08-26T11:43:21.000Z</time>
      </trkpt>
      <trkpt lat="40.28349914588034152984619140625" lon="-1.294677145779132843017578125">
        <ele>1291.199951171875</ele>
        <time>2022-08-26T11:43:23.000Z</time>
      </trkpt>
      <trkpt lat="40.283524878323078155517578125" lon="-1.29455015994608402252197265625">
        <ele>1290.800048828125</ele>
        <time>2022-08-26T11:43:24.000Z</time>
      </trkpt>
      <trkpt lat="40.2835649438202381134033203125" lon="-1.29416073672473430633544921875">
        <ele>1289.5999755859375</ele>
        <time>2022-08-26T11:43:27.000Z</time>
      </trkpt>
      <trkpt lat="40.2835978008806705474853515625" lon="-1.293914057314395904541015625">
        <ele>1288.5999755859375</ele>
        <time>2022-08-26T11:43:29.000Z</time>
      </trkpt>
      <trkpt lat="40.28365395963191986083984375" lon="-1.29368967376649379730224609375">
        <ele>1287.5999755859375</ele>
        <time>2022-08-26T11:43:31.000Z</time>
      </trkpt>
      <trkpt lat="40.2837141416966915130615234375" lon="-1.29348934628069400787353515625">
        <ele>1286.199951171875</ele>
        <time>2022-08-26T11:43:33.000Z</time>
      </trkpt>
      <trkpt lat="40.28380910865962505340576171875" lon="-1.2932185269892215728759765625">
        <ele>1285.4000244140625</ele>
        <time>2022-08-26T11:43:36.000Z</time>
      </trkpt>
      <trkpt lat="40.284011363983154296875" lon="-1.292747966945171356201171875">
        <ele>1285.199951171875</ele>
        <time>2022-08-26T11:43:42.000Z</time>
      </trkpt>
      <trkpt lat="40.2842133678495883941650390625" lon="-1.2923464737832546234130859375">
        <ele>1285.5999755859375</ele>
        <time>2022-08-26T11:43:48.000Z</time>
      </trkpt>
      <trkpt lat="40.28446675278246402740478515625" lon="-1.291856802999973297119140625">
        <ele>1285.4000244140625</ele>
        <time>2022-08-26T11:43:56.000Z</time>
      </trkpt>
      <trkpt lat="40.28454168699681758880615234375" lon="-1.29173777997493743896484375">
        <ele>1285.4000244140625</ele>
        <time>2022-08-26T11:43:58.000Z</time>
      </trkpt>
      <trkpt lat="40.28469725511968135833740234375" lon="-1.291506774723529815673828125">
        <ele>1285.199951171875</ele>
        <time>2022-08-26T11:44:02.000Z</time>
      </trkpt>
      <trkpt lat="40.28493748046457767486572265625" lon="-1.29105591215193271636962890625">
        <ele>1284.800048828125</ele>
        <time>2022-08-26T11:44:09.000Z</time>
      </trkpt>
      <trkpt lat="40.2850267477333545684814453125" lon="-1.2908263318240642547607421875">
        <ele>1284.4000244140625</ele>
        <time>2022-08-26T11:44:12.000Z</time>
      </trkpt>
      <trkpt lat="40.28509388677775859832763671875" lon="-1.29057546146214008331298828125">
        <ele>1284</ele>
        <time>2022-08-26T11:44:15.000Z</time>
      </trkpt>
      <trkpt lat="40.28516429476439952850341796875" lon="-1.29030757583677768707275390625">
        <ele>1283.4000244140625</ele>
        <time>2022-08-26T11:44:18.000Z</time>
      </trkpt>
      <trkpt lat="40.28531181626021862030029296875" lon="-1.28979778848588466644287109375">
        <ele>1282.5999755859375</ele>
        <time>2022-08-26T11:44:23.000Z</time>
      </trkpt>
      <trkpt lat="40.28534500859677791595458984375" lon="-1.28968697972595691680908203125">
        <ele>1282.4000244140625</ele>
        <time>2022-08-26T11:44:24.000Z</time>
      </trkpt>
      <trkpt lat="40.2854954637587070465087890625" lon="-1.28921206109225749969482421875">
        <ele>1281</ele>
        <time>2022-08-26T11:44:28.000Z</time>
      </trkpt>
      <trkpt lat="40.2855361998081207275390625" lon="-1.28908515907824039459228515625">
        <ele>1280.5999755859375</ele>
        <time>2022-08-26T11:44:29.000Z</time>
      </trkpt>
      <trkpt lat="40.285623371601104736328125" lon="-1.2888180278241634368896484375">
        <ele>1279.5999755859375</ele>
        <time>2022-08-26T11:44:31.000Z</time>
      </trkpt>
      <trkpt lat="40.28576091863214969635009765625" lon="-1.2884103320538997650146484375">
        <ele>1277.4000244140625</ele>
        <time>2022-08-26T11:44:34.000Z</time>
      </trkpt>
      <trkpt lat="40.28580584563314914703369140625" lon="-1.2882775627076625823974609375">
        <ele>1276.5999755859375</ele>
        <time>2022-08-26T11:44:35.000Z</time>
      </trkpt>
      <trkpt lat="40.28585513122379779815673828125" lon="-1.2881447933614253997802734375">
        <ele>1275.800048828125</ele>
        <time>2022-08-26T11:44:36.000Z</time>
      </trkpt>
      <trkpt lat="40.2859477512538433074951171875" lon="-1.28789694048464298248291015625">
        <ele>1274.199951171875</ele>
        <time>2022-08-26T11:44:38.000Z</time>
      </trkpt>
      <trkpt lat="40.28602645732462406158447265625" lon="-1.287671215832233428955078125">
        <ele>1272.4000244140625</ele>
        <time>2022-08-26T11:44:40.000Z</time>
      </trkpt>
      <trkpt lat="40.28609736822545528411865234375" lon="-1.2874581478536128997802734375">
        <ele>1270.800048828125</ele>
        <time>2022-08-26T11:44:42.000Z</time>
      </trkpt>
      <trkpt lat="40.2861925028264522552490234375" lon="-1.28716436214745044708251953125">
        <ele>1269.5999755859375</ele>
        <time>2022-08-26T11:44:45.000Z</time>
      </trkpt>
      <trkpt lat="40.28622242622077465057373046875" lon="-1.2870719097554683685302734375">
        <ele>1269.5999755859375</ele>
        <time>2022-08-26T11:44:46.000Z</time>
      </trkpt>
      <trkpt lat="40.28633139096200466156005859375" lon="-1.28654208965599536895751953125">
        <ele>1269</ele>
        <time>2022-08-26T11:44:52.000Z</time>
      </trkpt>
      <trkpt lat="40.28636760078370571136474609375" lon="-1.2861230783164501190185546875">
        <ele>1268.800048828125</ele>
        <time>2022-08-26T11:44:57.000Z</time>
      </trkpt>
      <trkpt lat="40.2863725461065769195556640625" lon="-1.28603397868573665618896484375">
        <ele>1268.800048828125</ele>
        <time>2022-08-26T11:44:58.000Z</time>
      </trkpt>
      <trkpt lat="40.28640163131058216094970703125" lon="-1.28529033623635768890380859375">
        <ele>1268.4000244140625</ele>
        <time>2022-08-26T11:45:06.000Z</time>
      </trkpt>
      <trkpt lat="40.286433063447475433349609375" lon="-1.28482832573354244232177734375">
        <ele>1267.800048828125</ele>
        <time>2022-08-26T11:45:11.000Z</time>
      </trkpt>
      <trkpt lat="40.2864610590040683746337890625" lon="-1.2845402397215366363525390625">
        <ele>1267.5999755859375</ele>
        <time>2022-08-26T11:45:14.000Z</time>
      </trkpt>
      <trkpt lat="40.286535657942295074462890625" lon="-1.284030787646770477294921875">
        <ele>1266.800048828125</ele>
        <time>2022-08-26T11:45:19.000Z</time>
      </trkpt>
      <trkpt lat="40.28657278977334499359130859375" lon="-1.28382937051355838775634765625">
        <ele>1266.5999755859375</ele>
        <time>2022-08-26T11:45:21.000Z</time>
      </trkpt>
      <trkpt lat="40.28670254163444042205810546875" lon="-1.2831444852054119110107421875">
        <ele>1265.5999755859375</ele>
        <time>2022-08-26T11:45:28.000Z</time>
      </trkpt>
      <trkpt lat="40.28671947307884693145751953125" lon="-1.28304901532828807830810546875">
        <ele>1265.5999755859375</ele>
        <time>2022-08-26T11:45:29.000Z</time>
      </trkpt>
      <trkpt lat="40.2868342213332653045654296875" lon="-1.28246546722948551177978515625">
        <ele>1264.4000244140625</ele>
        <time>2022-08-26T11:45:35.000Z</time>
      </trkpt>
      <trkpt lat="40.2868714369833469390869140625" lon="-1.282267235219478607177734375">
        <ele>1264</ele>
        <time>2022-08-26T11:45:37.000Z</time>
      </trkpt>
      <trkpt lat="40.286951400339603424072265625" lon="-1.281871609389781951904296875">
        <ele>1263.4000244140625</ele>
        <time>2022-08-26T11:45:41.000Z</time>
      </trkpt>
      <trkpt lat="40.287039913237094879150390625" lon="-1.28148193471133708953857421875">
        <ele>1262.4000244140625</ele>
        <time>2022-08-26T11:45:45.000Z</time>
      </trkpt>
      <trkpt lat="40.28705994598567485809326171875" lon="-1.28138470463454723358154296875">
        <ele>1262.199951171875</ele>
        <time>2022-08-26T11:45:46.000Z</time>
      </trkpt>
      <trkpt lat="40.28721392154693603515625" lon="-1.2806865759193897247314453125">
        <ele>1261.199951171875</ele>
        <time>2022-08-26T11:45:53.000Z</time>
      </trkpt>
      <trkpt lat="40.28729346580803394317626953125" lon="-1.28029958344995975494384765625">
        <ele>1260.4000244140625</ele>
        <time>2022-08-26T11:45:57.000Z</time>
      </trkpt>
      <trkpt lat="40.2873834036290645599365234375" lon="-1.27982097677886486053466796875">
        <ele>1259.199951171875</ele>
        <time>2022-08-26T11:46:02.000Z</time>
      </trkpt>
      <trkpt lat="40.287492536008358001708984375" lon="-1.27922586165368556976318359375">
        <ele>1258</ele>
        <time>2022-08-26T11:46:08.000Z</time>
      </trkpt>
      <trkpt lat="40.28753134422004222869873046875" lon="-1.27902142703533172607421875">
        <ele>1257.5999755859375</ele>
        <time>2022-08-26T11:46:10.000Z</time>
      </trkpt>
      <trkpt lat="40.28760191984474658966064453125" lon="-1.27864248119294643402099609375">
        <ele>1256.800048828125</ele>
        <time>2022-08-26T11:46:14.000Z</time>
      </trkpt>
      <trkpt lat="40.2876417338848114013671875" lon="-1.278362274169921875">
        <ele>1256.199951171875</ele>
        <time>2022-08-26T11:46:17.000Z</time>
      </trkpt>
      <trkpt lat="40.28765581548213958740234375" lon="-1.27808131277561187744140625">
        <ele>1256</ele>
        <time>2022-08-26T11:46:20.000Z</time>
      </trkpt>
      <trkpt lat="40.2876486070454120635986328125" lon="-1.27799120731651782989501953125">
        <ele>1256</ele>
        <time>2022-08-26T11:46:21.000Z</time>
      </trkpt>
      <trkpt lat="40.2876348607242107391357421875" lon="-1.27790520898997783660888671875">
        <ele>1255.800048828125</ele>
        <time>2022-08-26T11:46:22.000Z</time>
      </trkpt>
      <trkpt lat="40.28759387321770191192626953125" lon="-1.2777415104210376739501953125">
        <ele>1255.5999755859375</ele>
        <time>2022-08-26T11:46:24.000Z</time>
      </trkpt>
      <trkpt lat="40.2875094674527645111083984375" lon="-1.27750338055193424224853515625">
        <ele>1255</ele>
        <time>2022-08-26T11:46:27.000Z</time>
      </trkpt>
      <trkpt lat="40.28744366951286792755126953125" lon="-1.27733741886913776397705078125">
        <ele>1254.800048828125</ele>
        <time>2022-08-26T11:46:29.000Z</time>
      </trkpt>
      <trkpt lat="40.2872761152684688568115234375" lon="-1.276917569339275360107421875">
        <ele>1254.5999755859375</ele>
        <time>2022-08-26T11:46:34.000Z</time>
      </trkpt>
      <trkpt lat="40.28700998984277248382568359375" lon="-1.276248358190059661865234375">
        <ele>1253.800048828125</ele>
        <time>2022-08-26T11:46:42.000Z</time>
      </trkpt>
      <trkpt lat="40.2869820781052112579345703125" lon="-1.276160515844821929931640625">
        <ele>1253.800048828125</ele>
        <time>2022-08-26T11:46:43.000Z</time>
      </trkpt>
      <trkpt lat="40.28689783997833728790283203125" lon="-1.27569708041846752166748046875">
        <ele>1253.4000244140625</ele>
        <time>2022-08-26T11:46:48.000Z</time>
      </trkpt>
      <trkpt lat="40.2868972532451152801513671875" lon="-1.27514898777008056640625">
        <ele>1253</ele>
        <time>2022-08-26T11:46:54.000Z</time>
      </trkpt>
      <trkpt lat="40.28690622188150882720947265625" lon="-1.2749627418816089630126953125">
        <ele>1253</ele>
        <time>2022-08-26T11:46:56.000Z</time>
      </trkpt>
      <trkpt lat="40.28689138591289520263671875" lon="-1.27456552349030971527099609375">
        <ele>1252.199951171875</ele>
        <time>2022-08-26T11:47:00.000Z</time>
      </trkpt>
      <trkpt lat="40.286828018724918365478515625" lon="-1.2741885893046855926513671875">
        <ele>1252</ele>
        <time>2022-08-26T11:47:04.000Z</time>
      </trkpt>
      <trkpt lat="40.28680446557700634002685546875" lon="-1.274094879627227783203125">
        <ele>1251.800048828125</ele>
        <time>2022-08-26T11:47:05.000Z</time>
      </trkpt>
      <trkpt lat="40.28662023134529590606689453125" lon="-1.27355768345296382904052734375">
        <ele>1251.199951171875</ele>
        <time>2022-08-26T11:47:11.000Z</time>
      </trkpt>
      <trkpt lat="40.286568515002727508544921875" lon="-1.27338149584829807281494140625">
        <ele>1250.800048828125</ele>
        <time>2022-08-26T11:47:13.000Z</time>
      </trkpt>
      <trkpt lat="40.2864540182054042816162109375" lon="-1.27304789610207080841064453125">
        <ele>1250.199951171875</ele>
        <time>2022-08-26T11:47:17.000Z</time>
      </trkpt>
      <trkpt lat="40.286374725401401519775390625" lon="-1.27278394997119903564453125">
        <ele>1249.800048828125</ele>
        <time>2022-08-26T11:47:20.000Z</time>
      </trkpt>
      <trkpt lat="40.28633214533329010009765625" lon="-1.272599883377552032470703125">
        <ele>1249.4000244140625</ele>
        <time>2022-08-26T11:47:22.000Z</time>
      </trkpt>
      <trkpt lat="40.2863175608217716217041015625" lon="-1.27250743098556995391845703125">
        <ele>1249.199951171875</ele>
        <time>2022-08-26T11:47:23.000Z</time>
      </trkpt>
      <trkpt lat="40.28631336987018585205078125" lon="-1.2723257951438426971435546875">
        <ele>1248.800048828125</ele>
        <time>2022-08-26T11:47:25.000Z</time>
      </trkpt>
      <trkpt lat="40.28632921166718006134033203125" lon="-1.27223736606538295745849609375">
        <ele>1248.5999755859375</ele>
        <time>2022-08-26T11:47:26.000Z</time>
      </trkpt>
      <trkpt lat="40.28636106289923191070556640625" lon="-1.27214868552982807159423828125">
        <ele>1248.5999755859375</ele>
        <time>2022-08-26T11:47:27.000Z</time>
      </trkpt>
      <trkpt lat="40.2865447103977203369140625" lon="-1.27187359146773815155029296875">
        <ele>1248.199951171875</ele>
        <time>2022-08-26T11:47:31.000Z</time>
      </trkpt>
      <trkpt lat="40.28659424744546413421630859375" lon="-1.27181977964937686920166015625">
        <ele>1248</ele>
        <time>2022-08-26T11:47:32.000Z</time>
      </trkpt>
      <trkpt lat="40.286699272692203521728515625" lon="-1.27170276828110218048095703125">
        <ele>1247.4000244140625</ele>
        <time>2022-08-26T11:47:34.000Z</time>
      </trkpt>
      <trkpt lat="40.28697051107883453369140625" lon="-1.2714084796607494354248046875">
        <ele>1246.800048828125</ele>
        <time>2022-08-26T11:47:39.000Z</time>
      </trkpt>
      <trkpt lat="40.28723797760903835296630859375" lon="-1.2710973434150218963623046875">
        <ele>1246.4000244140625</ele>
        <time>2022-08-26T11:47:44.000Z</time>
      </trkpt>
      <trkpt lat="40.28739673085510730743408203125" lon="-1.27091956324875354766845703125">
        <ele>1246</ele>
        <time>2022-08-26T11:47:47.000Z</time>
      </trkpt>
      <trkpt lat="40.28780409134924411773681640625" lon="-1.27044506371021270751953125">
        <ele>1245.4000244140625</ele>
        <time>2022-08-26T11:47:55.000Z</time>
      </trkpt>
      <trkpt lat="40.2878554724156856536865234375" lon="-1.27038513310253620147705078125">
        <ele>1245.4000244140625</ele>
        <time>2022-08-26T11:47:56.000Z</time>
      </trkpt>
      <trkpt lat="40.28825855813920497894287109375" lon="-1.2699017487466335296630859375">
        <ele>1244.5999755859375</ele>
        <time>2022-08-26T11:48:04.000Z</time>
      </trkpt>
      <trkpt lat="40.28841144405305385589599609375" lon="-1.26971508376300334930419921875">
        <ele>1244.4000244140625</ele>
        <time>2022-08-26T11:48:07.000Z</time>
      </trkpt>
      <trkpt lat="40.28861143626272678375244140625" lon="-1.26949614845216274261474609375">
        <ele>1244.199951171875</ele>
        <time>2022-08-26T11:48:11.000Z</time>
      </trkpt>
      <trkpt lat="40.2889229916036128997802734375" lon="-1.2692534923553466796875">
        <ele>1243.5999755859375</ele>
        <time>2022-08-26T11:48:17.000Z</time>
      </trkpt>
      <trkpt lat="40.2890383265912532806396484375" lon="-1.26918082125484943389892578125">
        <ele>1243.4000244140625</ele>
        <time>2022-08-26T11:48:19.000Z</time>
      </trkpt>
      <trkpt lat="40.28929062187671661376953125" lon="-1.2690474651753902435302734375">
        <ele>1243</ele>
        <time>2022-08-26T11:48:23.000Z</time>
      </trkpt>
      <trkpt lat="40.28966269455850124359130859375" lon="-1.268838755786418914794921875">
        <ele>1242.4000244140625</ele>
        <time>2022-08-26T11:48:29.000Z</time>
      </trkpt>
      <trkpt lat="40.28972622938454151153564453125" lon="-1.26879843883216381072998046875">
        <ele>1242.199951171875</ele>
        <time>2022-08-26T11:48:30.000Z</time>
      </trkpt>
      <trkpt lat="40.290054716169834136962890625" lon="-1.2686089240014553070068359375">
        <ele>1241.4000244140625</ele>
        <time>2022-08-26T11:48:35.000Z</time>
      </trkpt>
      <trkpt lat="40.29019025154411792755126953125" lon="-1.2685333192348480224609375">
        <ele>1241.199951171875</ele>
        <time>2022-08-26T11:48:37.000Z</time>
      </trkpt>
      <trkpt lat="40.29049132950603961944580078125" lon="-1.268364675343036651611328125">
        <ele>1240.5999755859375</ele>
        <time>2022-08-26T11:48:41.000Z</time>
      </trkpt>
      <trkpt lat="40.29056911356747150421142578125" lon="-1.268323101103305816650390625">
        <ele>1240.4000244140625</ele>
        <time>2022-08-26T11:48:42.000Z</time>
      </trkpt>
      <trkpt lat="40.2908823452889919281005859375" lon="-1.26814397983253002166748046875">
        <ele>1239.4000244140625</ele>
        <time>2022-08-26T11:48:46.000Z</time>
      </trkpt>
      <trkpt lat="40.2911874465644359588623046875" lon="-1.26795723102986812591552734375">
        <ele>1238.800048828125</ele>
        <time>2022-08-26T11:48:50.000Z</time>
      </trkpt>
      <trkpt lat="40.29126129113137722015380859375" lon="-1.2679132260382175445556640625">
        <ele>1238.4000244140625</ele>
        <time>2022-08-26T11:48:51.000Z</time>
      </trkpt>
      <trkpt lat="40.29170997440814971923828125" lon="-1.26764886081218719482421875">
        <ele>1237.199951171875</ele>
        <time>2022-08-26T11:48:57.000Z</time>
      </trkpt>
      <trkpt lat="40.29222135432064533233642578125" lon="-1.2673228047788143157958984375">
        <ele>1236.199951171875</ele>
        <time>2022-08-26T11:49:04.000Z</time>
      </trkpt>
      <trkpt lat="40.2922861464321613311767578125" lon="-1.267281062901020050048828125">
        <ele>1236.199951171875</ele>
        <time>2022-08-26T11:49:05.000Z</time>
      </trkpt>
      <trkpt lat="40.292581357061862945556640625" lon="-1.26709992997348308563232421875">
        <ele>1235.4000244140625</ele>
        <time>2022-08-26T11:49:10.000Z</time>
      </trkpt>
      <trkpt lat="40.292643718421459197998046875" lon="-1.2670609541237354278564453125">
        <ele>1235</ele>
        <time>2022-08-26T11:49:11.000Z</time>
      </trkpt>
      <trkpt lat="40.29292107559740543365478515625" lon="-1.26691100187599658966064453125">
        <ele>1233.800048828125</ele>
        <time>2022-08-26T11:49:15.000Z</time>
      </trkpt>
      <trkpt lat="40.29338367283344268798828125" lon="-1.26672509126365184783935546875">
        <ele>1233</ele>
        <time>2022-08-26T11:49:21.000Z</time>
      </trkpt>
      <trkpt lat="40.29346187599003314971923828125" lon="-1.266707740724086761474609375">
        <ele>1232.800048828125</ele>
        <time>2022-08-26T11:49:22.000Z</time>
      </trkpt>
      <trkpt lat="40.29370687901973724365234375" lon="-1.26671453006565570831298828125">
        <ele>1232.199951171875</ele>
        <time>2022-08-26T11:49:25.000Z</time>
      </trkpt>
      <trkpt lat="40.29378625564277172088623046875" lon="-1.26673297025263309478759765625">
        <ele>1232</ele>
        <time>2022-08-26T11:49:26.000Z</time>
      </trkpt>
      <trkpt lat="40.2939444221556186676025390625" lon="-1.26679197885096073150634765625">
        <ele>1231.4000244140625</ele>
        <time>2022-08-26T11:49:28.000Z</time>
      </trkpt>
      <trkpt lat="40.2941127307713031768798828125" lon="-1.266853921115398406982421875">
        <ele>1230.800048828125</ele>
        <time>2022-08-26T11:49:30.000Z</time>
      </trkpt>
      <trkpt lat="40.2945452369749546051025390625" lon="-1.26700487919151782989501953125">
        <ele>1229.5999755859375</ele>
        <time>2022-08-26T11:49:35.000Z</time>
      </trkpt>
      <trkpt lat="40.294634588062763214111328125" lon="-1.267035305500030517578125">
        <ele>1229.4000244140625</ele>
        <time>2022-08-26T11:49:36.000Z</time>
      </trkpt>
      <trkpt lat="40.2949153818190097808837890625" lon="-1.267126500606536865234375">
        <ele>1228.4000244140625</ele>
        <time>2022-08-26T11:49:39.000Z</time>
      </trkpt>
      <trkpt lat="40.29521570540964603424072265625" lon="-1.26717302016913890838623046875">
        <ele>1227.5999755859375</ele>
        <time>2022-08-26T11:49:42.000Z</time>
      </trkpt>
      <trkpt lat="40.29531578533351421356201171875" lon="-1.2671685777604579925537109375">
        <ele>1227.4000244140625</ele>
        <time>2022-08-26T11:49:43.000Z</time>
      </trkpt>
      <trkpt lat="40.29562138952314853668212890625" lon="-1.2671437673270702362060546875">
        <ele>1226.199951171875</ele>
        <time>2022-08-26T11:49:46.000Z</time>
      </trkpt>
      <trkpt lat="40.2957304380834102630615234375" lon="-1.26714049838483333587646484375">
        <ele>1225.4000244140625</ele>
        <time>2022-08-26T11:49:47.000Z</time>
      </trkpt>
      <trkpt lat="40.29584049247205257415771484375" lon="-1.2671439349651336669921875">
        <ele>1224.800048828125</ele>
        <time>2022-08-26T11:49:48.000Z</time>
      </trkpt>
      <trkpt lat="40.2961780317127704620361328125" lon="-1.26720772124826908111572265625">
        <ele>1223.4000244140625</ele>
        <time>2022-08-26T11:49:51.000Z</time>
      </trkpt>
      <trkpt lat="40.2964023314416408538818359375" lon="-1.2672785483300685882568359375">
        <ele>1222</ele>
        <time>2022-08-26T11:49:53.000Z</time>
      </trkpt>
      <trkpt lat="40.296622104942798614501953125" lon="-1.26734979450702667236328125">
        <ele>1220.4000244140625</ele>
        <time>2022-08-26T11:49:55.000Z</time>
      </trkpt>
      <trkpt lat="40.29682117514312267303466796875" lon="-1.26740804873406887054443359375">
        <ele>1218.800048828125</ele>
        <time>2022-08-26T11:49:57.000Z</time>
      </trkpt>
      <trkpt lat="40.2969149686396121978759765625" lon="-1.267415173351764678955078125">
        <ele>1218</ele>
        <time>2022-08-26T11:49:58.000Z</time>
      </trkpt>
      <trkpt lat="40.29700507409870624542236328125" lon="-1.26739882864058017730712890625">
        <ele>1217.4000244140625</ele>
        <time>2022-08-26T11:49:59.000Z</time>
      </trkpt>
      <trkpt lat="40.2970849536359310150146484375" lon="-1.267358846962451934814453125">
        <ele>1216.5999755859375</ele>
        <time>2022-08-26T11:50:00.000Z</time>
      </trkpt>
      <trkpt lat="40.2971577085554599761962890625" lon="-1.26730059273540973663330078125">
        <ele>1216</ele>
        <time>2022-08-26T11:50:01.000Z</time>
      </trkpt>
      <trkpt lat="40.2972750551998615264892578125" lon="-1.267150975763797760009765625">
        <ele>1215.199951171875</ele>
        <time>2022-08-26T11:50:03.000Z</time>
      </trkpt>
      <trkpt lat="40.2973271906375885009765625" lon="-1.26707076095044612884521484375">
        <ele>1214.800048828125</ele>
        <time>2022-08-26T11:50:04.000Z</time>
      </trkpt>
      <trkpt lat="40.297375805675983428955078125" lon="-1.26698099076747894287109375">
        <ele>1214.5999755859375</ele>
        <time>2022-08-26T11:50:05.000Z</time>
      </trkpt>
      <trkpt lat="40.29751385562121868133544921875" lon="-1.26671947538852691650390625">
        <ele>1214.199951171875</ele>
        <time>2022-08-26T11:50:08.000Z</time>
      </trkpt>
      <trkpt lat="40.29771049506962299346923828125" lon="-1.2663285434246063232421875">
        <ele>1214.199951171875</ele>
        <time>2022-08-26T11:50:13.000Z</time>
      </trkpt>
      <trkpt lat="40.29801291413605213165283203125" lon="-1.265812218189239501953125">
        <ele>1214.4000244140625</ele>
        <time>2022-08-26T11:50:21.000Z</time>
      </trkpt>
      <trkpt lat="40.2982567436993122100830078125" lon="-1.265374682843685150146484375">
        <ele>1215</ele>
        <time>2022-08-26T11:50:28.000Z</time>
      </trkpt>
      <trkpt lat="40.2984153293073177337646484375" lon="-1.26510553993284702301025390625">
        <ele>1215.199951171875</ele>
        <time>2022-08-26T11:50:33.000Z</time>
      </trkpt>
      <trkpt lat="40.29847894795238971710205078125" lon="-1.265005879104137420654296875">
        <ele>1215.4000244140625</ele>
        <time>2022-08-26T11:50:35.000Z</time>
      </trkpt>
      <trkpt lat="40.298672653734683990478515625" lon="-1.26470840536057949066162109375">
        <ele>1216</ele>
        <time>2022-08-26T11:50:41.000Z</time>
      </trkpt>
      <trkpt lat="40.29870106838643550872802734375" lon="-1.264656521379947662353515625">
        <ele>1216.4000244140625</ele>
        <time>2022-08-26T11:50:42.000Z</time>
      </trkpt>
      <trkpt lat="40.29879528097808361053466796875" lon="-1.2645074911415576934814453125">
        <ele>1217.4000244140625</ele>
        <time>2022-08-26T11:50:45.000Z</time>
      </trkpt>
      <trkpt lat="40.298877172172069549560546875" lon="-1.26438863575458526611328125">
        <ele>1217.800048828125</ele>
        <time>2022-08-26T11:50:48.000Z</time>
      </trkpt>
      <trkpt lat="40.2989863045513629913330078125" lon="-1.264266259968280792236328125">
        <ele>1218.4000244140625</ele>
        <time>2022-08-26T11:50:52.000Z</time>
      </trkpt>
      <trkpt lat="40.29907573945820331573486328125" lon="-1.26417179591953754425048828125">
        <ele>1219.199951171875</ele>
        <time>2022-08-26T11:50:56.000Z</time>
      </trkpt>
      <trkpt lat="40.29912552796304225921630859375" lon="-1.26412653364241123199462890625">
        <ele>1219.5999755859375</ele>
        <time>2022-08-26T11:50:58.000Z</time>
      </trkpt>
      <trkpt lat="40.29927640222012996673583984375" lon="-1.2639817781746387481689453125">
        <ele>1219.5999755859375</ele>
        <time>2022-08-26T11:51:03.000Z</time>
      </trkpt>
      <trkpt lat="40.2995183877646923065185546875" lon="-1.263769380748271942138671875">
        <ele>1219.5999755859375</ele>
        <time>2022-08-26T11:51:10.000Z</time>
      </trkpt>
      <trkpt lat="40.299801863729953765869140625" lon="-1.2635135650634765625">
        <ele>1219.4000244140625</ele>
        <time>2022-08-26T11:51:17.000Z</time>
      </trkpt>
      <trkpt lat="40.3001292608678340911865234375" lon="-1.26320720650255680084228515625">
        <ele>1219</ele>
        <time>2022-08-26T11:51:24.000Z</time>
      </trkpt>
      <trkpt lat="40.3004219569265842437744140625" lon="-1.26285667531192302703857421875">
        <ele>1218.5999755859375</ele>
        <time>2022-08-26T11:51:31.000Z</time>
      </trkpt>
      <trkpt lat="40.3004585020244121551513671875" lon="-1.26280152238905429840087890625">
        <ele>1218.5999755859375</ele>
        <time>2022-08-26T11:51:32.000Z</time>
      </trkpt>
      <trkpt lat="40.30063661746680736541748046875" lon="-1.26241830177605152130126953125">
        <ele>1218.4000244140625</ele>
        <time>2022-08-26T11:51:38.000Z</time>
      </trkpt>
      <trkpt lat="40.300879441201686859130859375" lon="-1.26191739924252033233642578125">
        <ele>1218</ele>
        <time>2022-08-26T11:51:46.000Z</time>
      </trkpt>
      <trkpt lat="40.3011246956884860992431640625" lon="-1.26139235682785511016845703125">
        <ele>1217.800048828125</ele>
        <time>2022-08-26T11:51:55.000Z</time>
      </trkpt>
      <trkpt lat="40.301185548305511474609375" lon="-1.2612730823457241058349609375">
        <ele>1217.5999755859375</ele>
        <time>2022-08-26T11:51:57.000Z</time>
      </trkpt>
      <trkpt lat="40.30139316804707050323486328125" lon="-1.26083470880985260009765625">
        <ele>1217.199951171875</ele>
        <time>2022-08-26T11:52:04.000Z</time>
      </trkpt>
      <trkpt lat="40.30157907865941524505615234375" lon="-1.26042810268700122833251953125">
        <ele>1216.800048828125</ele>
        <time>2022-08-26T11:52:10.000Z</time>
      </trkpt>
      <trkpt lat="40.30164219439029693603515625" lon="-1.26029265113174915313720703125">
        <ele>1216.5999755859375</ele>
        <time>2022-08-26T11:52:12.000Z</time>
      </trkpt>
      <trkpt lat="40.30182567425072193145751953125" lon="-1.2598805129528045654296875">
        <ele>1215.800048828125</ele>
        <time>2022-08-26T11:52:18.000Z</time>
      </trkpt>
      <trkpt lat="40.3018854372203350067138671875" lon="-1.25975000672042369842529296875">
        <ele>1215.4000244140625</ele>
        <time>2022-08-26T11:52:20.000Z</time>
      </trkpt>
      <trkpt lat="40.30203639529645442962646484375" lon="-1.259425543248653411865234375">
        <ele>1214.5999755859375</ele>
        <time>2022-08-26T11:52:25.000Z</time>
      </trkpt>
      <trkpt lat="40.3021712601184844970703125" lon="-1.25917031429708003997802734375">
        <ele>1214</ele>
        <time>2022-08-26T11:52:29.000Z</time>
      </trkpt>
      <trkpt lat="40.302285589277744293212890625" lon="-1.25897593796253204345703125">
        <ele>1213.4000244140625</ele>
        <time>2022-08-26T11:52:32.000Z</time>
      </trkpt>
      <trkpt lat="40.30247342772781848907470703125" lon="-1.258712746202945709228515625">
        <ele>1212.800048828125</ele>
        <time>2022-08-26T11:52:36.000Z</time>
      </trkpt>
      <trkpt lat="40.30257015489041805267333984375" lon="-1.2585798092186450958251953125">
        <ele>1212.4000244140625</ele>
        <time>2022-08-26T11:52:38.000Z</time>
      </trkpt>
      <trkpt lat="40.30286125838756561279296875" lon="-1.25817538239061832427978515625">
        <ele>1211.4000244140625</ele>
        <time>2022-08-26T11:52:44.000Z</time>
      </trkpt>
      <trkpt lat="40.30312386341392993927001953125" lon="-1.257692836225032806396484375">
        <ele>1210.199951171875</ele>
        <time>2022-08-26T11:52:50.000Z</time>
      </trkpt>
      <trkpt lat="40.30316107906401157379150390625" lon="-1.25760574825108051300048828125">
        <ele>1210</ele>
        <time>2022-08-26T11:52:51.000Z</time>
      </trkpt>
      <trkpt lat="40.30327188782393932342529296875" lon="-1.25733434222638607025146484375">
        <ele>1209.199951171875</ele>
        <time>2022-08-26T11:52:54.000Z</time>
      </trkpt>
      <trkpt lat="40.303436927497386932373046875" lon="-1.2569738365709781646728515625">
        <ele>1207.800048828125</ele>
        <time>2022-08-26T11:52:58.000Z</time>
      </trkpt>
      <trkpt lat="40.30348487198352813720703125" lon="-1.2568903528153896331787109375">
        <ele>1207.5999755859375</ele>
        <time>2022-08-26T11:52:59.000Z</time>
      </trkpt>
      <trkpt lat="40.30359475873410701751708984375" lon="-1.2567401491105556488037109375">
        <ele>1207</ele>
        <time>2022-08-26T11:53:01.000Z</time>
      </trkpt>
      <trkpt lat="40.30371897853910923004150390625" lon="-1.25661718659102916717529296875">
        <ele>1206.800048828125</ele>
        <time>2022-08-26T11:53:03.000Z</time>
      </trkpt>
      <trkpt lat="40.30386750586330890655517578125" lon="-1.2565175257623195648193359375">
        <ele>1205.800048828125</ele>
        <time>2022-08-26T11:53:05.000Z</time>
      </trkpt>
      <trkpt lat="40.30394478701055049896240234375" lon="-1.2564702518284320831298828125">
        <ele>1205.5999755859375</ele>
        <time>2022-08-26T11:53:06.000Z</time>
      </trkpt>
      <trkpt lat="40.30402491800487041473388671875" lon="-1.25642289407551288604736328125">
        <ele>1205.4000244140625</ele>
        <time>2022-08-26T11:53:07.000Z</time>
      </trkpt>
      <trkpt lat="40.30426145531237125396728515625" lon="-1.256263554096221923828125">
        <ele>1204.4000244140625</ele>
        <time>2022-08-26T11:53:10.000Z</time>
      </trkpt>
      <trkpt lat="40.30438299290835857391357421875" lon="-1.256099604070186614990234375">
        <ele>1203.800048828125</ele>
        <time>2022-08-26T11:53:12.000Z</time>
      </trkpt>
      <trkpt lat="40.30442540533840656280517578125" lon="-1.2559995241463184356689453125">
        <ele>1203.199951171875</ele>
        <time>2022-08-26T11:53:13.000Z</time>
      </trkpt>
      <trkpt lat="40.3044808097183704376220703125" lon="-1.25577916391193866729736328125">
        <ele>1202.4000244140625</ele>
        <time>2022-08-26T11:53:15.000Z</time>
      </trkpt>
      <trkpt lat="40.3045012615621089935302734375" lon="-1.255665086209774017333984375">
        <ele>1202</ele>
        <time>2022-08-26T11:53:16.000Z</time>
      </trkpt>
      <trkpt lat="40.3045455180108547210693359375" lon="-1.25544053502380847930908203125">
        <ele>1201</ele>
        <time>2022-08-26T11:53:18.000Z</time>
      </trkpt>
      <trkpt lat="40.30465163290500640869140625" lon="-1.2551284767687320709228515625">
        <ele>1199.800048828125</ele>
        <time>2022-08-26T11:53:21.000Z</time>
      </trkpt>
      <trkpt lat="40.3049005754292011260986328125" lon="-1.25477165915071964263916015625">
        <ele>1198.5999755859375</ele>
        <time>2022-08-26T11:53:25.000Z</time>
      </trkpt>
      <trkpt lat="40.30510869808495044708251953125" lon="-1.25451986677944660186767578125">
        <ele>1197.199951171875</ele>
        <time>2022-08-26T11:53:28.000Z</time>
      </trkpt>
      <trkpt lat="40.30532528646290302276611328125" lon="-1.254303194582462310791015625">
        <ele>1196</ele>
        <time>2022-08-26T11:53:31.000Z</time>
      </trkpt>
      <trkpt lat="40.30540072359144687652587890625" lon="-1.2542510591447353363037109375">
        <ele>1195.800048828125</ele>
        <time>2022-08-26T11:53:32.000Z</time>
      </trkpt>
      <trkpt lat="40.30557406134903430938720703125" lon="-1.254179812967777252197265625">
        <ele>1195</ele>
        <time>2022-08-26T11:53:34.000Z</time>
      </trkpt>
      <trkpt lat="40.30567011795938014984130859375" lon="-1.254157684743404388427734375">
        <ele>1194.5999755859375</ele>
        <time>2022-08-26T11:53:35.000Z</time>
      </trkpt>
      <trkpt lat="40.30576852150261402130126953125" lon="-1.25413597561419010162353515625">
        <ele>1194</ele>
        <time>2022-08-26T11:53:36.000Z</time>
      </trkpt>
      <trkpt lat="40.30617521144449710845947265625" lon="-1.2540562637150287628173828125">
        <ele>1192.800048828125</ele>
        <time>2022-08-26T11:53:40.000Z</time>
      </trkpt>
      <trkpt lat="40.30628484673798084259033203125" lon="-1.254034303128719329833984375">
        <ele>1192.4000244140625</ele>
        <time>2022-08-26T11:53:41.000Z</time>
      </trkpt>
      <trkpt lat="40.3065068833529949188232421875" lon="-1.25400119461119174957275390625">
        <ele>1191.5999755859375</ele>
        <time>2022-08-26T11:53:43.000Z</time>
      </trkpt>
      <trkpt lat="40.3067335300147533416748046875" lon="-1.25396951101720333099365234375">
        <ele>1190.4000244140625</ele>
        <time>2022-08-26T11:53:45.000Z</time>
      </trkpt>
      <trkpt lat="40.30695321969687938690185546875" lon="-1.25393497757613658905029296875">
        <ele>1189.5999755859375</ele>
        <time>2022-08-26T11:53:47.000Z</time>
      </trkpt>
      <trkpt lat="40.3070621006190776824951171875" lon="-1.2539179623126983642578125">
        <ele>1189</ele>
        <time>2022-08-26T11:53:48.000Z</time>
      </trkpt>
      <trkpt lat="40.307275839149951934814453125" lon="-1.25388502143323421478271484375">
        <ele>1188</ele>
        <time>2022-08-26T11:53:50.000Z</time>
      </trkpt>
      <trkpt lat="40.30768378637731075286865234375" lon="-1.25381528399884700775146484375">
        <ele>1186.5999755859375</ele>
        <time>2022-08-26T11:53:54.000Z</time>
      </trkpt>
      <trkpt lat="40.30777934007346630096435546875" lon="-1.25379852019250392913818359375">
        <ele>1186</ele>
        <time>2022-08-26T11:53:55.000Z</time>
      </trkpt>
      <trkpt lat="40.3079639934003353118896484375" lon="-1.2537639029324054718017578125">
        <ele>1185.4000244140625</ele>
        <time>2022-08-26T11:53:57.000Z</time>
      </trkpt>
      <trkpt lat="40.308235399425029754638671875" lon="-1.253709085285663604736328125">
        <ele>1184.199951171875</ele>
        <time>2022-08-26T11:54:00.000Z</time>
      </trkpt>
      <trkpt lat="40.3083264268934726715087890625" lon="-1.25368972308933734893798828125">
        <ele>1184</ele>
        <time>2022-08-26T11:54:01.000Z</time>
      </trkpt>
      <trkpt lat="40.3085869364440441131591796875" lon="-1.25363356433808803558349609375">
        <ele>1182.800048828125</ele>
        <time>2022-08-26T11:54:04.000Z</time>
      </trkpt>
      <trkpt lat="40.30891324393451213836669921875" lon="-1.25355578027665615081787109375">
        <ele>1182</ele>
        <time>2022-08-26T11:54:08.000Z</time>
      </trkpt>
      <trkpt lat="40.309077613055706024169921875" lon="-1.25351873226463794708251953125">
        <ele>1181.800048828125</ele>
        <time>2022-08-26T11:54:10.000Z</time>
      </trkpt>
      <trkpt lat="40.30949729494750499725341796875" lon="-1.25343793071806430816650390625">
        <ele>1181</ele>
        <time>2022-08-26T11:54:15.000Z</time>
      </trkpt>
      <trkpt lat="40.30966040678322315216064453125" lon="-1.2533895671367645263671875">
        <ele>1180.5999755859375</ele>
        <time>2022-08-26T11:54:17.000Z</time>
      </trkpt>
      <trkpt lat="40.309815891087055206298828125" lon="-1.25331790186464786529541015625">
        <ele>1180.4000244140625</ele>
        <time>2022-08-26T11:54:19.000Z</time>
      </trkpt>
      <trkpt lat="40.30988973565399646759033203125" lon="-1.2532710470259189605712890625">
        <ele>1180.199951171875</ele>
        <time>2022-08-26T11:54:20.000Z</time>
      </trkpt>
      <trkpt lat="40.31007640063762664794921875" lon="-1.2530903331935405731201171875">
        <ele>1179.800048828125</ele>
        <time>2022-08-26T11:54:23.000Z</time>
      </trkpt>
      <trkpt lat="40.310132391750812530517578125" lon="-1.25302637927234172821044921875">
        <ele>1179.5999755859375</ele>
        <time>2022-08-26T11:54:24.000Z</time>
      </trkpt>
      <trkpt lat="40.3102763928472995758056640625" lon="-1.2528442405164241790771484375">
        <ele>1179.199951171875</ele>
        <time>2022-08-26T11:54:27.000Z</time>
      </trkpt>
      <trkpt lat="40.310331881046295166015625" lon="-1.2526975572109222412109375">
        <ele>1178.800048828125</ele>
        <time>2022-08-26T11:54:29.000Z</time>
      </trkpt>
      <trkpt lat="40.3103466331958770751953125" lon="-1.25261700712144374847412109375">
        <ele>1178.800048828125</ele>
        <time>2022-08-26T11:54:30.000Z</time>
      </trkpt>
      <trkpt lat="40.31035794876515865325927734375" lon="-1.25253654085099697113037109375">
        <ele>1178.5999755859375</ele>
        <time>2022-08-26T11:54:31.000Z</time>
      </trkpt>
      <trkpt lat="40.310394577682018280029296875" lon="-1.25222708098590373992919921875">
        <ele>1178.5999755859375</ele>
        <time>2022-08-26T11:54:35.000Z</time>
      </trkpt>
      <trkpt lat="40.31045584939420223236083984375" lon="-1.251709163188934326171875">
        <ele>1179</ele>
        <time>2022-08-26T11:54:43.000Z</time>
      </trkpt>
      <trkpt lat="40.31050513498485088348388671875" lon="-1.2513512559235095977783203125">
        <ele>1180</ele>
        <time>2022-08-26T11:54:50.000Z</time>
      </trkpt>
      <trkpt lat="40.310518629848957061767578125" lon="-1.25125863589346408843994140625">
        <ele>1180.199951171875</ele>
        <time>2022-08-26T11:54:52.000Z</time>
      </trkpt>
      <trkpt lat="40.3105493076145648956298828125" lon="-1.2510855495929718017578125">
        <ele>1181</ele>
        <time>2022-08-26T11:54:56.000Z</time>
      </trkpt>
      <trkpt lat="40.31059213913977146148681640625" lon="-1.25093207694590091705322265625">
        <ele>1181.5999755859375</ele>
        <time>2022-08-26T11:55:00.000Z</time>
      </trkpt>
      <trkpt lat="40.3106177039444446563720703125" lon="-1.2508557178080081939697265625">
        <ele>1182.199951171875</ele>
        <time>2022-08-26T11:55:02.000Z</time>
      </trkpt>
      <trkpt lat="40.31066657043993473052978515625" lon="-1.25070258043706417083740234375">
        <ele>1183.4000244140625</ele>
        <time>2022-08-26T11:55:06.000Z</time>
      </trkpt>
      <trkpt lat="40.31070026569068431854248046875" lon="-1.2505851499736309051513671875">
        <ele>1183.800048828125</ele>
        <time>2022-08-26T11:55:09.000Z</time>
      </trkpt>
      <trkpt lat="40.3107618726789951324462890625" lon="-1.25039680860936641693115234375">
        <ele>1184.5999755859375</ele>
        <time>2022-08-26T11:55:14.000Z</time>
      </trkpt>
      <trkpt lat="40.31083337031304836273193359375" lon="-1.2501969002187252044677734375">
        <ele>1185.5999755859375</ele>
        <time>2022-08-26T11:55:20.000Z</time>
      </trkpt>
      <trkpt lat="40.31084527261555194854736328125" lon="-1.2501640431582927703857421875">
        <ele>1185.5999755859375</ele>
        <time>2022-08-26T11:55:21.000Z</time>
      </trkpt>
      <trkpt lat="40.3109073825180530548095703125" lon="-1.2499994225800037384033203125">
        <ele>1186.800048828125</ele>
        <time>2022-08-26T11:55:26.000Z</time>
      </trkpt>
      <trkpt lat="40.31096111051738262176513671875" lon="-1.249829269945621490478515625">
        <ele>1187.199951171875</ele>
        <time>2022-08-26T11:55:31.000Z</time>
      </trkpt>
      <trkpt lat="40.31099371612071990966796875" lon="-1.24972860328853130340576171875">
        <ele>1188</ele>
        <time>2022-08-26T11:55:34.000Z</time>
      </trkpt>
      <trkpt lat="40.31108499504625797271728515625" lon="-1.24946155585348606109619140625">
        <ele>1189.199951171875</ele>
        <time>2022-08-26T11:55:42.000Z</time>
      </trkpt>
      <trkpt lat="40.31115674413740634918212890625" lon="-1.24926944263279438018798828125">
        <ele>1190.199951171875</ele>
        <time>2022-08-26T11:55:48.000Z</time>
      </trkpt>
      <trkpt lat="40.3112000785768032073974609375" lon="-1.2491766549646854400634765625">
        <ele>1190.5999755859375</ele>
        <time>2022-08-26T11:55:51.000Z</time>
      </trkpt>
      <trkpt lat="40.3113026730716228485107421875" lon="-1.24886442907154560089111328125">
        <ele>1191.199951171875</ele>
        <time>2022-08-26T11:56:00.000Z</time>
      </trkpt>
      <trkpt lat="40.31137769110500812530517578125" lon="-1.24840996228158473968505859375">
        <ele>1192</ele>
        <time>2022-08-26T11:56:12.000Z</time>
      </trkpt>
      <trkpt lat="40.311419852077960968017578125" lon="-1.24818130396306514739990234375">
        <ele>1192.199951171875</ele>
        <time>2022-08-26T11:56:18.000Z</time>
      </trkpt>
      <trkpt lat="40.3114686347544193267822265625" lon="-1.24791358597576618194580078125">
        <ele>1193.199951171875</ele>
        <time>2022-08-26T11:56:25.000Z</time>
      </trkpt>
      <trkpt lat="40.3114907629787921905517578125" lon="-1.24779908917844295501708984375">
        <ele>1193.4000244140625</ele>
        <time>2022-08-26T11:56:28.000Z</time>
      </trkpt>
      <trkpt lat="40.3115497715771198272705078125" lon="-1.24751041643321514129638671875">
        <ele>1194</ele>
        <time>2022-08-26T11:56:36.000Z</time>
      </trkpt>
      <trkpt lat="40.31157835386693477630615234375" lon="-1.247321404516696929931640625">
        <ele>1194.4000244140625</ele>
        <time>2022-08-26T11:56:41.000Z</time>
      </trkpt>
      <trkpt lat="40.31162680126726627349853515625" lon="-1.24712417833507061004638671875">
        <ele>1195.199951171875</ele>
        <time>2022-08-26T11:56:46.000Z</time>
      </trkpt>
      <trkpt lat="40.31165848486125469207763671875" lon="-1.2469712086021900177001953125">
        <ele>1195.800048828125</ele>
        <time>2022-08-26T11:56:50.000Z</time>
      </trkpt>
      <trkpt lat="40.31169645488262176513671875" lon="-1.24677632935345172882080078125">
        <ele>1196.4000244140625</ele>
        <time>2022-08-26T11:56:55.000Z</time>
      </trkpt>
      <trkpt lat="40.3117199242115020751953125" lon="-1.24665864743292331695556640625">
        <ele>1197</ele>
        <time>2022-08-26T11:56:58.000Z</time>
      </trkpt>
      <trkpt lat="40.3117479197680950164794921875" lon="-1.24649025499820709228515625">
        <ele>1198</ele>
        <time>2022-08-26T11:57:03.000Z</time>
      </trkpt>
      <trkpt lat="40.31175420619547367095947265625" lon="-1.24645630829036235809326171875">
        <ele>1198.199951171875</ele>
        <time>2022-08-26T11:57:04.000Z</time>
      </trkpt>
      <trkpt lat="40.3118297271430492401123046875" lon="-1.246129833161830902099609375">
        <ele>1199.199951171875</ele>
        <time>2022-08-26T11:57:13.000Z</time>
      </trkpt>
      <trkpt lat="40.31184121035039424896240234375" lon="-1.24609219841659069061279296875">
        <ele>1199.4000244140625</ele>
        <time>2022-08-26T11:57:14.000Z</time>
      </trkpt>
      <trkpt lat="40.31194464303553104400634765625" lon="-1.24580251984298229217529296875">
        <ele>1200.4000244140625</ele>
        <time>2022-08-26T11:57:22.000Z</time>
      </trkpt>
      <trkpt lat="40.31196073628962039947509765625" lon="-1.2457695789635181427001953125">
        <ele>1200.5999755859375</ele>
        <time>2022-08-26T11:57:23.000Z</time>
      </trkpt>
      <trkpt lat="40.31204237602651119232177734375" lon="-1.24557159841060638427734375">
        <ele>1201.4000244140625</ele>
        <time>2022-08-26T11:57:29.000Z</time>
      </trkpt>
      <trkpt lat="40.31209702603518962860107421875" lon="-1.24544084072113037109375">
        <ele>1202.199951171875</ele>
        <time>2022-08-26T11:57:33.000Z</time>
      </trkpt>
      <trkpt lat="40.3121784143149852752685546875" lon="-1.2452415190637111663818359375">
        <ele>1202.5999755859375</ele>
        <time>2022-08-26T11:57:39.000Z</time>
      </trkpt>
      <trkpt lat="40.31225561164319515228271484375" lon="-1.245064325630664825439453125">
        <ele>1203.4000244140625</ele>
        <time>2022-08-26T11:57:44.000Z</time>
      </trkpt>
      <trkpt lat="40.31228846870362758636474609375" lon="-1.24498880468308925628662109375">
        <ele>1203.5999755859375</ele>
        <time>2022-08-26T11:57:46.000Z</time>
      </trkpt>
      <trkpt lat="40.31239022500813007354736328125" lon="-1.2447426281869411468505859375">
        <ele>1204.5999755859375</ele>
        <time>2022-08-26T11:57:52.000Z</time>
      </trkpt>
      <trkpt lat="40.312408246099948883056640625" lon="-1.24470122158527374267578125">
        <ele>1204.800048828125</ele>
        <time>2022-08-26T11:57:53.000Z</time>
      </trkpt>
      <trkpt lat="40.312602706253528594970703125" lon="-1.24432261101901531219482421875">
        <ele>1205.4000244140625</ele>
        <time>2022-08-26T11:58:02.000Z</time>
      </trkpt>
      <trkpt lat="40.31282390467822551727294921875" lon="-1.2439688108861446380615234375">
        <ele>1205.5999755859375</ele>
        <time>2022-08-26T11:58:10.000Z</time>
      </trkpt>
      <trkpt lat="40.31314350664615631103515625" lon="-1.24354091472923755645751953125">
        <ele>1205.4000244140625</ele>
        <time>2022-08-26T11:58:19.000Z</time>
      </trkpt>
      <trkpt lat="40.31341801397502422332763671875" lon="-1.243142522871494293212890625">
        <ele>1204.5999755859375</ele>
        <time>2022-08-26T11:58:25.000Z</time>
      </trkpt>
      <trkpt lat="40.31352714635431766510009765625" lon="-1.24298729002475738525390625">
        <ele>1204</ele>
        <time>2022-08-26T11:58:27.000Z</time>
      </trkpt>
      <trkpt lat="40.3137624263763427734375" lon="-1.24263650737702846527099609375">
        <ele>1202.5999755859375</ele>
        <time>2022-08-26T11:58:31.000Z</time>
      </trkpt>
      <trkpt lat="40.31401631422340869903564453125" lon="-1.2422503530979156494140625">
        <ele>1201.4000244140625</ele>
        <time>2022-08-26T11:58:35.000Z</time>
      </trkpt>
      <trkpt lat="40.31421412713825702667236328125" lon="-1.24193762429058551788330078125">
        <ele>1200.199951171875</ele>
        <time>2022-08-26T11:58:38.000Z</time>
      </trkpt>
      <trkpt lat="40.31441730447113513946533203125" lon="-1.2416252307593822479248046875">
        <ele>1199</ele>
        <time>2022-08-26T11:58:41.000Z</time>
      </trkpt>
      <trkpt lat="40.3146188892424106597900390625" lon="-1.24131484888494014739990234375">
        <ele>1197.800048828125</ele>
        <time>2022-08-26T11:58:44.000Z</time>
      </trkpt>
      <trkpt lat="40.31482734717428684234619140625" lon="-1.24100513756275177001953125">
        <ele>1196.4000244140625</ele>
        <time>2022-08-26T11:58:47.000Z</time>
      </trkpt>
      <trkpt lat="40.314897336065769195556640625" lon="-1.24090254306793212890625">
        <ele>1195.199951171875</ele>
        <time>2022-08-26T11:58:48.000Z</time>
      </trkpt>
      <trkpt lat="40.31504158861935138702392578125" lon="-1.24069592915475368499755859375">
        <ele>1194.4000244140625</ele>
        <time>2022-08-26T11:58:50.000Z</time>
      </trkpt>
      <trkpt lat="40.31511769630014896392822265625" lon="-1.24059366993606090545654296875">
        <ele>1194</ele>
        <time>2022-08-26T11:58:51.000Z</time>
      </trkpt>
      <trkpt lat="40.31543185003101825714111328125" lon="-1.24020039103925228118896484375">
        <ele>1192.800048828125</ele>
        <time>2022-08-26T11:58:55.000Z</time>
      </trkpt>
      <trkpt lat="40.3155925311148166656494140625" lon="-1.24000425450503826141357421875">
        <ele>1191.800048828125</ele>
        <time>2022-08-26T11:58:57.000Z</time>
      </trkpt>
      <trkpt lat="40.315830744802951812744140625" lon="-1.23971843160688877105712890625">
        <ele>1190.5999755859375</ele>
        <time>2022-08-26T11:59:00.000Z</time>
      </trkpt>
      <trkpt lat="40.31606719829142093658447265625" lon="-1.23944048769772052764892578125">
        <ele>1189</ele>
        <time>2022-08-26T11:59:03.000Z</time>
      </trkpt>
      <trkpt lat="40.31622494570910930633544921875" lon="-1.23925893567502498626708984375">
        <ele>1188</ele>
        <time>2022-08-26T11:59:05.000Z</time>
      </trkpt>
      <trkpt lat="40.31630314886569976806640625" lon="-1.2391686625778675079345703125">
        <ele>1187.5999755859375</ele>
        <time>2022-08-26T11:59:06.000Z</time>
      </trkpt>
      <trkpt lat="40.31660129316151142120361328125" lon="-1.23880815692245960235595703125">
        <ele>1186.5999755859375</ele>
        <time>2022-08-26T11:59:10.000Z</time>
      </trkpt>
      <trkpt lat="40.316742360591888427734375" lon="-1.2386328913271427154541015625">
        <ele>1185.4000244140625</ele>
        <time>2022-08-26T11:59:12.000Z</time>
      </trkpt>
      <trkpt lat="40.316937826573848724365234375" lon="-1.2383727170526981353759765625">
        <ele>1183.800048828125</ele>
        <time>2022-08-26T11:59:15.000Z</time>
      </trkpt>
      <trkpt lat="40.31706430949270725250244140625" lon="-1.2382097728550434112548828125">
        <ele>1182.5999755859375</ele>
        <time>2022-08-26T11:59:17.000Z</time>
      </trkpt>
      <trkpt lat="40.31724854372441768646240234375" lon="-1.2379747442901134490966796875">
        <ele>1181.4000244140625</ele>
        <time>2022-08-26T11:59:20.000Z</time>
      </trkpt>
      <trkpt lat="40.31742271967232227325439453125" lon="-1.23774734325706958770751953125">
        <ele>1180.199951171875</ele>
        <time>2022-08-26T11:59:23.000Z</time>
      </trkpt>
      <trkpt lat="40.31765992753207683563232421875" lon="-1.23744718730449676513671875">
        <ele>1179.4000244140625</ele>
        <time>2022-08-26T11:59:27.000Z</time>
      </trkpt>
      <trkpt lat="40.31772044487297534942626953125" lon="-1.23737099580466747283935546875">
        <ele>1179.199951171875</ele>
        <time>2022-08-26T11:59:28.000Z</time>
      </trkpt>
      <trkpt lat="40.31799939461052417755126953125" lon="-1.23699012212455272674560546875">
        <ele>1178.199951171875</ele>
        <time>2022-08-26T11:59:33.000Z</time>
      </trkpt>
      <trkpt lat="40.31804868020117282867431640625" lon="-1.23691116459667682647705078125">
        <ele>1177.800048828125</ele>
        <time>2022-08-26T11:59:34.000Z</time>
      </trkpt>
      <trkpt lat="40.31821028329432010650634765625" lon="-1.23658745549619197845458984375">
        <ele>1177</ele>
        <time>2022-08-26T11:59:38.000Z</time>
      </trkpt>
      <trkpt lat="40.31823165714740753173828125" lon="-1.23649240471422672271728515625">
        <ele>1176.800048828125</ele>
        <time>2022-08-26T11:59:39.000Z</time>
      </trkpt>
      <trkpt lat="40.31828555278480052947998046875" lon="-1.23620121739804744720458984375">
        <ele>1176.199951171875</ele>
        <time>2022-08-26T11:59:42.000Z</time>
      </trkpt>
      <trkpt lat="40.31831740401685237884521484375" lon="-1.23611605726182460784912109375">
        <ele>1176</ele>
        <time>2022-08-26T11:59:43.000Z</time>
      </trkpt>
      <trkpt lat="40.31841161660850048065185546875" lon="-1.23596585355699062347412109375">
        <ele>1175.199951171875</ele>
        <time>2022-08-26T11:59:45.000Z</time>
      </trkpt>
      <trkpt lat="40.31846609897911548614501953125" lon="-1.23590097762644290924072265625">
        <ele>1175.199951171875</ele>
        <time>2022-08-26T11:59:46.000Z</time>
      </trkpt>
      <trkpt lat="40.3185221739113330841064453125" lon="-1.2358390353620052337646484375">
        <ele>1175</ele>
        <time>2022-08-26T11:59:47.000Z</time>
      </trkpt>
      <trkpt lat="40.3188929893076419830322265625" lon="-1.23551490716636180877685546875">
        <ele>1174.5999755859375</ele>
        <time>2022-08-26T11:59:53.000Z</time>
      </trkpt>
      <trkpt lat="40.31928869895637035369873046875" lon="-1.235259510576725006103515625">
        <ele>1174</ele>
        <time>2022-08-26T11:59:59.000Z</time>
      </trkpt>
      <trkpt lat="40.31935407780110836029052734375" lon="-1.23522698879241943359375">
        <ele>1174</ele>
        <time>2022-08-26T12:00:00.000Z</time>
      </trkpt>
      <trkpt lat="40.3196641243994235992431640625" lon="-1.2350263260304927825927734375">
        <ele>1173.4000244140625</ele>
        <time>2022-08-26T12:00:05.000Z</time>
      </trkpt>
      <trkpt lat="40.3197777830064296722412109375" lon="-1.23479506932199001312255859375">
        <ele>1173.199951171875</ele>
        <time>2022-08-26T12:00:08.000Z</time>
      </trkpt>
      <trkpt lat="40.31979613937437534332275390625" lon="-1.2346119247376918792724609375">
        <ele>1172.800048828125</ele>
        <time>2022-08-26T12:00:10.000Z</time>
      </trkpt>
      <trkpt lat="40.3198012523353099822998046875" lon="-1.23451896943151950836181640625">
        <ele>1172.5999755859375</ele>
        <time>2022-08-26T12:00:11.000Z</time>
      </trkpt>
      <trkpt lat="40.319805443286895751953125" lon="-1.23442525975406169891357421875">
        <ele>1172.199951171875</ele>
        <time>2022-08-26T12:00:12.000Z</time>
      </trkpt>
      <trkpt lat="40.3198148310184478759765625" lon="-1.23414278961718082427978515625">
        <ele>1171.800048828125</ele>
        <time>2022-08-26T12:00:15.000Z</time>
      </trkpt>
      <trkpt lat="40.3198631107807159423828125" lon="-1.23376023955643177032470703125">
        <ele>1171.4000244140625</ele>
        <time>2022-08-26T12:00:19.000Z</time>
      </trkpt>
      <trkpt lat="40.32001121900975704193115234375" lon="-1.2330445088446140289306640625">
        <ele>1171</ele>
        <time>2022-08-26T12:00:26.000Z</time>
      </trkpt>
      <trkpt lat="40.32003619708120822906494140625" lon="-1.232940740883350372314453125">
        <ele>1170.800048828125</ele>
        <time>2022-08-26T12:00:27.000Z</time>
      </trkpt>
      <trkpt lat="40.320161841809749603271484375" lon="-1.23242248781025409698486328125">
        <ele>1169.800048828125</ele>
        <time>2022-08-26T12:00:32.000Z</time>
      </trkpt>
      <trkpt lat="40.320313386619091033935546875" lon="-1.23193382285535335540771484375">
        <ele>1169.199951171875</ele>
        <time>2022-08-26T12:00:37.000Z</time>
      </trkpt>
      <trkpt lat="40.32042176462709903717041015625" lon="-1.23165286146104335784912109375">
        <ele>1168.5999755859375</ele>
        <time>2022-08-26T12:00:40.000Z</time>
      </trkpt>
      <trkpt lat="40.32068143598735332489013671875" lon="-1.23098247684538364410400390625">
        <ele>1168</ele>
        <time>2022-08-26T12:00:47.000Z</time>
      </trkpt>
      <trkpt lat="40.32075352035462856292724609375" lon="-1.23078818432986736297607421875">
        <ele>1168</ele>
        <time>2022-08-26T12:00:49.000Z</time>
      </trkpt>
      <trkpt lat="40.32086332328617572784423828125" lon="-1.23049557209014892578125">
        <ele>1167.800048828125</ele>
        <time>2022-08-26T12:00:52.000Z</time>
      </trkpt>
      <trkpt lat="40.3210924006998538970947265625" lon="-1.22978369705379009246826171875">
        <ele>1166.5999755859375</ele>
        <time>2022-08-26T12:00:59.000Z</time>
      </trkpt>
      <trkpt lat="40.32118015922605991363525390625" lon="-1.22948194853961467742919921875">
        <ele>1165.5999755859375</ele>
        <time>2022-08-26T12:01:02.000Z</time>
      </trkpt>
      <trkpt lat="40.32138300128281116485595703125" lon="-1.22881424613296985626220703125">
        <ele>1164.4000244140625</ele>
        <time>2022-08-26T12:01:09.000Z</time>
      </trkpt>
      <trkpt lat="40.32164082862436771392822265625" lon="-1.22811016626656055450439453125">
        <ele>1164</ele>
        <time>2022-08-26T12:01:17.000Z</time>
      </trkpt>
      <trkpt lat="40.3216754458844661712646484375" lon="-1.22802249155938625335693359375">
        <ele>1164</ele>
        <time>2022-08-26T12:01:18.000Z</time>
      </trkpt>
      <trkpt lat="40.32185976393520832061767578125" lon="-1.227590739727020263671875">
        <ele>1163.5999755859375</ele>
        <time>2022-08-26T12:01:23.000Z</time>
      </trkpt>
      <trkpt lat="40.32202656380832195281982421875" lon="-1.22726242057979106903076171875">
        <ele>1163</ele>
        <time>2022-08-26T12:01:27.000Z</time>
      </trkpt>
      <trkpt lat="40.32214994542300701141357421875" lon="-1.22701984830200672149658203125">
        <ele>1162.5999755859375</ele>
        <time>2022-08-26T12:01:30.000Z</time>
      </trkpt>
      <trkpt lat="40.3223986364901065826416015625" lon="-1.2265438400208950042724609375">
        <ele>1161.800048828125</ele>
        <time>2022-08-26T12:01:36.000Z</time>
      </trkpt>
      <trkpt lat="40.32251925207674503326416015625" lon="-1.22631241567432880401611328125">
        <ele>1161.4000244140625</ele>
        <time>2022-08-26T12:01:39.000Z</time>
      </trkpt>
      <trkpt lat="40.3227035701274871826171875" lon="-1.22594445012509822845458984375">
        <ele>1160.5999755859375</ele>
        <time>2022-08-26T12:01:44.000Z</time>
      </trkpt>
      <trkpt lat="40.32280574552714824676513671875" lon="-1.2257391773164272308349609375">
        <ele>1160.4000244140625</ele>
        <time>2022-08-26T12:01:47.000Z</time>
      </trkpt>
      <trkpt lat="40.3229253552854061126708984375" lon="-1.2254893966019153594970703125">
        <ele>1160.4000244140625</ele>
        <time>2022-08-26T12:01:51.000Z</time>
      </trkpt>
      <trkpt lat="40.32306608743965625762939453125" lon="-1.2250481732189655303955078125">
        <ele>1161.199951171875</ele>
        <time>2022-08-26T12:01:58.000Z</time>
      </trkpt>
      <trkpt lat="40.32308821566402912139892578125" lon="-1.22491858899593353271484375">
        <ele>1161.800048828125</ele>
        <time>2022-08-26T12:02:00.000Z</time>
      </trkpt>
      <trkpt lat="40.32312056981027126312255859375" lon="-1.2245130725204944610595703125">
        <ele>1162.5999755859375</ele>
        <time>2022-08-26T12:02:06.000Z</time>
      </trkpt>
      <trkpt lat="40.32312224619090557098388671875" lon="-1.22444476000964641571044921875">
        <ele>1162.800048828125</ele>
        <time>2022-08-26T12:02:07.000Z</time>
      </trkpt>
      <trkpt lat="40.32309844158589839935302734375" lon="-1.223813854157924652099609375">
        <ele>1163.5999755859375</ele>
        <time>2022-08-26T12:02:16.000Z</time>
      </trkpt>
      <trkpt lat="40.3230477310717105865478515625" lon="-1.22316953726112842559814453125">
        <ele>1163.800048828125</ele>
        <time>2022-08-26T12:02:25.000Z</time>
      </trkpt>
      <trkpt lat="40.32299685291945934295654296875" lon="-1.22267014347016811370849609375">
        <ele>1163.800048828125</ele>
        <time>2022-08-26T12:02:32.000Z</time>
      </trkpt>
      <trkpt lat="40.32300204969942569732666015625" lon="-1.22206228785216808319091796875">
        <ele>1163.4000244140625</ele>
        <time>2022-08-26T12:02:40.000Z</time>
      </trkpt>
      <trkpt lat="40.32310665585100650787353515625" lon="-1.22155216522514820098876953125">
        <ele>1162.800048828125</ele>
        <time>2022-08-26T12:02:47.000Z</time>
      </trkpt>
      <trkpt lat="40.32330346293747425079345703125" lon="-1.22096207924187183380126953125">
        <ele>1162.4000244140625</ele>
        <time>2022-08-26T12:02:55.000Z</time>
      </trkpt>
      <trkpt lat="40.3233635611832141876220703125" lon="-1.22080785222351551055908203125">
        <ele>1162.199951171875</ele>
        <time>2022-08-26T12:02:57.000Z</time>
      </trkpt>
      <trkpt lat="40.323616527020931243896484375" lon="-1.22025556862354278564453125">
        <ele>1161.199951171875</ele>
        <time>2022-08-26T12:03:04.000Z</time>
      </trkpt>
      <trkpt lat="40.32365617342293262481689453125" lon="-1.22017401270568370819091796875">
        <ele>1161</ele>
        <time>2022-08-26T12:03:05.000Z</time>
      </trkpt>
      <trkpt lat="40.3238979913294315338134765625" lon="-1.2196814082562923431396484375">
        <ele>1160</ele>
        <time>2022-08-26T12:03:11.000Z</time>
      </trkpt>
      <trkpt lat="40.3239818103611469268798828125" lon="-1.21951050125062465667724609375">
        <ele>1159.4000244140625</ele>
        <time>2022-08-26T12:03:13.000Z</time>
      </trkpt>
      <trkpt lat="40.324113406240940093994140625" lon="-1.21924102306365966796875">
        <ele>1159.199951171875</ele>
        <time>2022-08-26T12:03:16.000Z</time>
      </trkpt>
      <trkpt lat="40.32428934238851070404052734375" lon="-1.21887012384831905364990234375">
        <ele>1158.199951171875</ele>
        <time>2022-08-26T12:03:20.000Z</time>
      </trkpt>
      <trkpt lat="40.32433376647531986236572265625" lon="-1.21877457015216350555419921875">
        <ele>1157.800048828125</ele>
        <time>2022-08-26T12:03:21.000Z</time>
      </trkpt>
      <trkpt lat="40.32450777478516101837158203125" lon="-1.218379028141498565673828125">
        <ele>1156.4000244140625</ele>
        <time>2022-08-26T12:03:25.000Z</time>
      </trkpt>
      <trkpt lat="40.32460383139550685882568359375" lon="-1.21817777864634990692138671875">
        <ele>1156.199951171875</ele>
        <time>2022-08-26T12:03:27.000Z</time>
      </trkpt>
      <trkpt lat="40.32479912973940372467041015625" lon="-1.21776471845805644989013671875">
        <ele>1155.199951171875</ele>
        <time>2022-08-26T12:03:31.000Z</time>
      </trkpt>
      <trkpt lat="40.32499526627361774444580078125" lon="-1.21735467575490474700927734375">
        <ele>1154.199951171875</ele>
        <time>2022-08-26T12:03:35.000Z</time>
      </trkpt>
      <trkpt lat="40.3251536004245281219482421875" lon="-1.21706298552453517913818359375">
        <ele>1153.4000244140625</ele>
        <time>2022-08-26T12:03:38.000Z</time>
      </trkpt>
      <trkpt lat="40.32520967535674571990966796875" lon="-1.21696852147579193115234375">
        <ele>1153.199951171875</ele>
        <time>2022-08-26T12:03:39.000Z</time>
      </trkpt>
      <trkpt lat="40.32544612884521484375" lon="-1.2166106142103672027587890625">
        <ele>1152</ele>
        <time>2022-08-26T12:03:43.000Z</time>
      </trkpt>
      <trkpt lat="40.3255666606128215789794921875" lon="-1.21643543243408203125">
        <ele>1151.5999755859375</ele>
        <time>2022-08-26T12:03:45.000Z</time>
      </trkpt>
      <trkpt lat="40.32586933113634586334228515625" lon="-1.2159942090511322021484375">
        <ele>1150.5999755859375</ele>
        <time>2022-08-26T12:03:50.000Z</time>
      </trkpt>
      <trkpt lat="40.32599288038909435272216796875" lon="-1.2158196978271007537841796875">
        <ele>1149.4000244140625</ele>
        <time>2022-08-26T12:03:52.000Z</time>
      </trkpt>
      <trkpt lat="40.3261701576411724090576171875" lon="-1.21556865982711315155029296875">
        <ele>1148.5999755859375</ele>
        <time>2022-08-26T12:03:55.000Z</time>
      </trkpt>
      <trkpt lat="40.32622857950627803802490234375" lon="-1.215488947927951812744140625">
        <ele>1148.4000244140625</ele>
        <time>2022-08-26T12:03:56.000Z</time>
      </trkpt>
      <trkpt lat="40.32651591114699840545654296875" lon="-1.21510614641010761260986328125">
        <ele>1147.4000244140625</ele>
        <time>2022-08-26T12:04:01.000Z</time>
      </trkpt>
      <trkpt lat="40.32668438740074634552001953125" lon="-1.21488335542380809783935546875">
        <ele>1146.5999755859375</ele>
        <time>2022-08-26T12:04:04.000Z</time>
      </trkpt>
      <trkpt lat="40.32679653726518154144287109375" lon="-1.2147404439747333526611328125">
        <ele>1146.199951171875</ele>
        <time>2022-08-26T12:04:06.000Z</time>
      </trkpt>
      <trkpt lat="40.3271826915442943572998046875" lon="-1.21426091529428958892822265625">
        <ele>1145.4000244140625</ele>
        <time>2022-08-26T12:04:13.000Z</time>
      </trkpt>
      <trkpt lat="40.32729081809520721435546875" lon="-1.21412672102451324462890625">
        <ele>1145.199951171875</ele>
        <time>2022-08-26T12:04:15.000Z</time>
      </trkpt>
      <trkpt lat="40.3276721946895122528076171875" lon="-1.213659010827541351318359375">
        <ele>1144.4000244140625</ele>
        <time>2022-08-26T12:04:22.000Z</time>
      </trkpt>
      <trkpt lat="40.32782432623207569122314453125" lon="-1.21346396394073963165283203125">
        <ele>1144</ele>
        <time>2022-08-26T12:04:25.000Z</time>
      </trkpt>
      <trkpt lat="40.32795307226479053497314453125" lon="-1.2132457830011844635009765625">
        <ele>1143.5999755859375</ele>
        <time>2022-08-26T12:04:28.000Z</time>
      </trkpt>
      <trkpt lat="40.328013338148593902587890625" lon="-1.213072277605533599853515625">
        <ele>1143.4000244140625</ele>
        <time>2022-08-26T12:04:30.000Z</time>
      </trkpt>
      <trkpt lat="40.32803504727780818939208984375" lon="-1.212981082499027252197265625">
        <ele>1143.4000244140625</ele>
        <time>2022-08-26T12:04:31.000Z</time>
      </trkpt>
      <trkpt lat="40.32806304283440113067626953125" lon="-1.21261303313076496124267578125">
        <ele>1143</ele>
        <time>2022-08-26T12:04:35.000Z</time>
      </trkpt>
      <trkpt lat="40.32805784605443477630615234375" lon="-1.2125229276716709136962890625">
        <ele>1143</ele>
        <time>2022-08-26T12:04:36.000Z</time>
      </trkpt>
      <trkpt lat="40.3280034475028514862060546875" lon="-1.2119412235915660858154296875">
        <ele>1142.800048828125</ele>
        <time>2022-08-26T12:04:43.000Z</time>
      </trkpt>
      <trkpt lat="40.3279179520905017852783203125" lon="-1.21132322587072849273681640625">
        <ele>1143</ele>
        <time>2022-08-26T12:04:52.000Z</time>
      </trkpt>
      <trkpt lat="40.32779113389551639556884765625" lon="-1.2108415178954601287841796875">
        <ele>1144.4000244140625</ele>
        <time>2022-08-26T12:05:00.000Z</time>
      </trkpt>
      <trkpt lat="40.3277717716991901397705078125" lon="-1.21078343130648136138916015625">
        <ele>1144.5999755859375</ele>
        <time>2022-08-26T12:05:01.000Z</time>
      </trkpt>
      <trkpt lat="40.32760807313024997711181640625" lon="-1.2102956883609294891357421875">
        <ele>1144.800048828125</ele>
        <time>2022-08-26T12:05:09.000Z</time>
      </trkpt>
      <trkpt lat="40.32739081420004367828369140625" lon="-1.20971851050853729248046875">
        <ele>1144.4000244140625</ele>
        <time>2022-08-26T12:05:18.000Z</time>
      </trkpt>
      <trkpt lat="40.327149331569671630859375" lon="-1.209223307669162750244140625">
        <ele>1144.199951171875</ele>
        <time>2022-08-26T12:05:26.000Z</time>
      </trkpt>
      <trkpt lat="40.3269634209573268890380859375" lon="-1.20892968960106372833251953125">
        <ele>1144.199951171875</ele>
        <time>2022-08-26T12:05:32.000Z</time>
      </trkpt>
      <trkpt lat="40.32671338878571987152099609375" lon="-1.20853054337203502655029296875">
        <ele>1144.199951171875</ele>
        <time>2022-08-26T12:05:40.000Z</time>
      </trkpt>
      <trkpt lat="40.32640007324516773223876953125" lon="-1.207962334156036376953125">
        <ele>1144.4000244140625</ele>
        <time>2022-08-26T12:05:50.000Z</time>
      </trkpt>
      <trkpt lat="40.3262643702328205108642578125" lon="-1.20752178132534027099609375">
        <ele>1144.5999755859375</ele>
        <time>2022-08-26T12:05:57.000Z</time>
      </trkpt>
      <trkpt lat="40.3262013383209705352783203125" lon="-1.206889785826206207275390625">
        <ele>1145.5999755859375</ele>
        <time>2022-08-26T12:06:07.000Z</time>
      </trkpt>
      <trkpt lat="40.32624316401779651641845703125" lon="-1.2063758075237274169921875">
        <ele>1145.800048828125</ele>
        <time>2022-08-26T12:06:15.000Z</time>
      </trkpt>
      <trkpt lat="40.32637216150760650634765625" lon="-1.20587565936148166656494140625">
        <ele>1146.199951171875</ele>
        <time>2022-08-26T12:06:23.000Z</time>
      </trkpt>
      <trkpt lat="40.32639504410326480865478515625" lon="-1.20581455528736114501953125">
        <ele>1146.199951171875</ele>
        <time>2022-08-26T12:06:24.000Z</time>
      </trkpt>
      <trkpt lat="40.32655413262546062469482421875" lon="-1.20548975653946399688720703125">
        <ele>1146.5999755859375</ele>
        <time>2022-08-26T12:06:30.000Z</time>
      </trkpt>
      <trkpt lat="40.32680642791092395782470703125" lon="-1.205124221742153167724609375">
        <ele>1146.800048828125</ele>
        <time>2022-08-26T12:06:38.000Z</time>
      </trkpt>
      <trkpt lat="40.32711890526115894317626953125" lon="-1.20482088066637516021728515625">
        <ele>1147</ele>
        <time>2022-08-26T12:06:45.000Z</time>
      </trkpt>
      <trkpt lat="40.32753347419202327728271484375" lon="-1.20460362173616886138916015625">
        <ele>1147</ele>
        <time>2022-08-26T12:06:52.000Z</time>
      </trkpt>
      <trkpt lat="40.32809145748615264892578125" lon="-1.204440593719482421875">
        <ele>1146</ele>
        <time>2022-08-26T12:07:00.000Z</time>
      </trkpt>
      <trkpt lat="40.32823763787746429443359375" lon="-1.2044075690209865570068359375">
        <ele>1145.4000244140625</ele>
        <time>2022-08-26T12:07:02.000Z</time>
      </trkpt>
      <trkpt lat="40.32867106609046459197998046875" lon="-1.20431411080062389373779296875">
        <ele>1144.800048828125</ele>
        <time>2022-08-26T12:07:08.000Z</time>
      </trkpt>
      <trkpt lat="40.32889318652451038360595703125" lon="-1.2042526714503765106201171875">
        <ele>1144.5999755859375</ele>
        <time>2022-08-26T12:07:11.000Z</time>
      </trkpt>
      <trkpt lat="40.329248495399951934814453125" lon="-1.20416256599128246307373046875">
        <ele>1143.800048828125</ele>
        <time>2022-08-26T12:07:16.000Z</time>
      </trkpt>
      <trkpt lat="40.32939760945737361907958984375" lon="-1.20413004420697689056396484375">
        <ele>1143.4000244140625</ele>
        <time>2022-08-26T12:07:18.000Z</time>
      </trkpt>
      <trkpt lat="40.32970011234283447265625" lon="-1.20406215079128742218017578125">
        <ele>1142.4000244140625</ele>
        <time>2022-08-26T12:07:22.000Z</time>
      </trkpt>
      <trkpt lat="40.3298516571521759033203125" lon="-1.20402820408344268798828125">
        <ele>1142</ele>
        <time>2022-08-26T12:07:24.000Z</time>
      </trkpt>
      <trkpt lat="40.33007604070007801055908203125" lon="-1.20396609418094158172607421875">
        <ele>1141.199951171875</ele>
        <time>2022-08-26T12:07:27.000Z</time>
      </trkpt>
      <trkpt lat="40.33046311698853969573974609375" lon="-1.20386266149580478668212890625">
        <ele>1140</ele>
        <time>2022-08-26T12:07:32.000Z</time>
      </trkpt>
      <trkpt lat="40.33096401952207088470458984375" lon="-1.203669793903827667236328125">
        <ele>1138.800048828125</ele>
        <time>2022-08-26T12:07:38.000Z</time>
      </trkpt>
      <trkpt lat="40.3312437236309051513671875" lon="-1.2035529501736164093017578125">
        <ele>1137.800048828125</ele>
        <time>2022-08-26T12:07:41.000Z</time>
      </trkpt>
      <trkpt lat="40.3315441310405731201171875" lon="-1.203431747853755950927734375">
        <ele>1136.5999755859375</ele>
        <time>2022-08-26T12:07:44.000Z</time>
      </trkpt>
      <trkpt lat="40.331865660846233367919921875" lon="-1.20332370512187480926513671875">
        <ele>1135</ele>
        <time>2022-08-26T12:07:47.000Z</time>
      </trkpt>
      <trkpt lat="40.332094989717006683349609375" lon="-1.20327509008347988128662109375">
        <ele>1134.199951171875</ele>
        <time>2022-08-26T12:07:49.000Z</time>
      </trkpt>
      <trkpt lat="40.33221359364688396453857421875" lon="-1.20325899682939052581787109375">
        <ele>1133.4000244140625</ele>
        <time>2022-08-26T12:07:50.000Z</time>
      </trkpt>
      <trkpt lat="40.3323358856141567230224609375" lon="-1.203248687088489532470703125">
        <ele>1131.5999755859375</ele>
        <time>2022-08-26T12:07:51.000Z</time>
      </trkpt>
      <trkpt lat="40.332581140100955963134765625" lon="-1.2032448314130306243896484375">
        <ele>1130.199951171875</ele>
        <time>2022-08-26T12:07:53.000Z</time>
      </trkpt>
      <trkpt lat="40.33270477317273616790771484375" lon="-1.20325447060167789459228515625">
        <ele>1129.4000244140625</ele>
        <time>2022-08-26T12:07:54.000Z</time>
      </trkpt>
      <trkpt lat="40.33282983116805553436279296875" lon="-1.20327140204608440399169921875">
        <ele>1128.4000244140625</ele>
        <time>2022-08-26T12:07:55.000Z</time>
      </trkpt>
      <trkpt lat="40.33308229409158229827880859375" lon="-1.20332546532154083251953125">
        <ele>1126.800048828125</ele>
        <time>2022-08-26T12:07:57.000Z</time>
      </trkpt>
      <trkpt lat="40.33334079198539257049560546875" lon="-1.20338422246277332305908203125">
        <ele>1125.5999755859375</ele>
        <time>2022-08-26T12:07:59.000Z</time>
      </trkpt>
      <trkpt lat="40.333603732287883758544921875" lon="-1.2034174986183643341064453125">
        <ele>1124.199951171875</ele>
        <time>2022-08-26T12:08:01.000Z</time>
      </trkpt>
      <trkpt lat="40.33386466093361377716064453125" lon="-1.20343233458697795867919921875">
        <ele>1123</ele>
        <time>2022-08-26T12:08:03.000Z</time>
      </trkpt>
      <trkpt lat="40.33399365842342376708984375" lon="-1.20343518443405628204345703125">
        <ele>1121.800048828125</ele>
        <time>2022-08-26T12:08:04.000Z</time>
      </trkpt>
      <trkpt lat="40.334122739732265472412109375" lon="-1.20343543589115142822265625">
        <ele>1120.800048828125</ele>
        <time>2022-08-26T12:08:05.000Z</time>
      </trkpt>
      <trkpt lat="40.33438400365412235260009765625" lon="-1.20343937538564205169677734375">
        <ele>1119</ele>
        <time>2022-08-26T12:08:07.000Z</time>
      </trkpt>
      <trkpt lat="40.3346513025462627410888671875" lon="-1.2034768424928188323974609375">
        <ele>1117</ele>
        <time>2022-08-26T12:08:09.000Z</time>
      </trkpt>
      <trkpt lat="40.33492044545710086822509765625" lon="-1.20354004204273223876953125">
        <ele>1115.5999755859375</ele>
        <time>2022-08-26T12:08:11.000Z</time>
      </trkpt>
      <trkpt lat="40.3351946175098419189453125" lon="-1.2036109529435634613037109375">
        <ele>1114</ele>
        <time>2022-08-26T12:08:13.000Z</time>
      </trkpt>
      <trkpt lat="40.33546661026775836944580078125" lon="-1.20368848554790019989013671875">
        <ele>1112.5999755859375</ele>
        <time>2022-08-26T12:08:15.000Z</time>
      </trkpt>
      <trkpt lat="40.33560206182301044464111328125" lon="-1.20372804813086986541748046875">
        <ele>1111.800048828125</ele>
        <time>2022-08-26T12:08:16.000Z</time>
      </trkpt>
      <trkpt lat="40.33573307096958160400390625" lon="-1.20376668870449066162109375">
        <ele>1111</ele>
        <time>2022-08-26T12:08:17.000Z</time>
      </trkpt>
      <trkpt lat="40.33599802292883396148681640625" lon="-1.20383642613887786865234375">
        <ele>1109.5999755859375</ele>
        <time>2022-08-26T12:08:19.000Z</time>
      </trkpt>
      <trkpt lat="40.336130373179912567138671875" lon="-1.20386727154254913330078125">
        <ele>1108.199951171875</ele>
        <time>2022-08-26T12:08:20.000Z</time>
      </trkpt>
      <trkpt lat="40.3363977558910846710205078125" lon="-1.2039204128086566925048828125">
        <ele>1106.800048828125</ele>
        <time>2022-08-26T12:08:22.000Z</time>
      </trkpt>
      <trkpt lat="40.336669497191905975341796875" lon="-1.20394773781299591064453125">
        <ele>1105.199951171875</ele>
        <time>2022-08-26T12:08:24.000Z</time>
      </trkpt>
      <trkpt lat="40.33694517798721790313720703125" lon="-1.20393432676792144775390625">
        <ele>1103.4000244140625</ele>
        <time>2022-08-26T12:08:26.000Z</time>
      </trkpt>
      <trkpt lat="40.33721842803061008453369140625" lon="-1.20386299677193164825439453125">
        <ele>1102</ele>
        <time>2022-08-26T12:08:28.000Z</time>
      </trkpt>
      <trkpt lat="40.337484888732433319091796875" lon="-1.20375906117260456085205078125">
        <ele>1100.800048828125</ele>
        <time>2022-08-26T12:08:30.000Z</time>
      </trkpt>
      <trkpt lat="40.337734334170818328857421875" lon="-1.20360768400132656097412109375">
        <ele>1099.199951171875</ele>
        <time>2022-08-26T12:08:32.000Z</time>
      </trkpt>
      <trkpt lat="40.3379745595157146453857421875" lon="-1.203423030674457550048828125">
        <ele>1098</ele>
        <time>2022-08-26T12:08:34.000Z</time>
      </trkpt>
      <trkpt lat="40.33821201883256435394287109375" lon="-1.2032240442931652069091796875">
        <ele>1096.4000244140625</ele>
        <time>2022-08-26T12:08:36.000Z</time>
      </trkpt>
      <trkpt lat="40.33844721503555774688720703125" lon="-1.20302313007414340972900390625">
        <ele>1094.800048828125</ele>
        <time>2022-08-26T12:08:38.000Z</time>
      </trkpt>
      <trkpt lat="40.33868978731334209442138671875" lon="-1.20285850949585437774658203125">
        <ele>1093.4000244140625</ele>
        <time>2022-08-26T12:08:40.000Z</time>
      </trkpt>
      <trkpt lat="40.3388144262135028839111328125" lon="-1.20279011316597461700439453125">
        <ele>1092.4000244140625</ele>
        <time>2022-08-26T12:08:41.000Z</time>
      </trkpt>
      <trkpt lat="40.3390662185847759246826171875" lon="-1.202689446508884429931640625">
        <ele>1090.5999755859375</ele>
        <time>2022-08-26T12:08:43.000Z</time>
      </trkpt>
      <trkpt lat="40.3393216989934444427490234375" lon="-1.2026363052427768707275390625">
        <ele>1088.800048828125</ele>
        <time>2022-08-26T12:08:45.000Z</time>
      </trkpt>
      <trkpt lat="40.3394480980932712554931640625" lon="-1.202623732388019561767578125">
        <ele>1087.800048828125</ele>
        <time>2022-08-26T12:08:46.000Z</time>
      </trkpt>
      <trkpt lat="40.33957424573600292205810546875" lon="-1.20261711068451404571533203125">
        <ele>1086.800048828125</ele>
        <time>2022-08-26T12:08:47.000Z</time>
      </trkpt>
      <trkpt lat="40.33982335589826107025146484375" lon="-1.20261694304645061492919921875">
        <ele>1084.199951171875</ele>
        <time>2022-08-26T12:08:49.000Z</time>
      </trkpt>
      <trkpt lat="40.33994589932262897491455078125" lon="-1.2026171945035457611083984375">
        <ele>1083.4000244140625</ele>
        <time>2022-08-26T12:08:50.000Z</time>
      </trkpt>
      <trkpt lat="40.3400680236518383026123046875" lon="-1.2026212178170680999755859375">
        <ele>1082.5999755859375</ele>
        <time>2022-08-26T12:08:51.000Z</time>
      </trkpt>
      <trkpt lat="40.34031202085316181182861328125" lon="-1.20262834243476390838623046875">
        <ele>1081.4000244140625</ele>
        <time>2022-08-26T12:08:53.000Z</time>
      </trkpt>
      <trkpt lat="40.3405585326254367828369140625" lon="-1.20263705961406230926513671875">
        <ele>1080</ele>
        <time>2022-08-26T12:08:55.000Z</time>
      </trkpt>
      <trkpt lat="40.340807475149631500244140625" lon="-1.2026383168995380401611328125">
        <ele>1078.4000244140625</ele>
        <time>2022-08-26T12:08:57.000Z</time>
      </trkpt>
      <trkpt lat="40.3411714173853397369384765625" lon="-1.2026153504848480224609375">
        <ele>1077</ele>
        <time>2022-08-26T12:09:00.000Z</time>
      </trkpt>
      <trkpt lat="40.3412912786006927490234375" lon="-1.2026046216487884521484375">
        <ele>1075.800048828125</ele>
        <time>2022-08-26T12:09:01.000Z</time>
      </trkpt>
      <trkpt lat="40.34153058193624019622802734375" lon="-1.20257955975830554962158203125">
        <ele>1074.5999755859375</ele>
        <time>2022-08-26T12:09:03.000Z</time>
      </trkpt>
      <trkpt lat="40.3416480123996734619140625" lon="-1.20256229303777217864990234375">
        <ele>1074.4000244140625</ele>
        <time>2022-08-26T12:09:04.000Z</time>
      </trkpt>
      <trkpt lat="40.34187356941401958465576171875" lon="-1.202512420713901519775390625">
        <ele>1073.199951171875</ele>
        <time>2022-08-26T12:09:06.000Z</time>
      </trkpt>
      <trkpt lat="40.34209116362035274505615234375" lon="-1.20243639685213565826416015625">
        <ele>1072</ele>
        <time>2022-08-26T12:09:08.000Z</time>
      </trkpt>
      <trkpt lat="40.3421960212290287017822265625" lon="-1.2023873627185821533203125">
        <ele>1071.199951171875</ele>
        <time>2022-08-26T12:09:09.000Z</time>
      </trkpt>
      <trkpt lat="40.34229752607643604278564453125" lon="-1.20233011431992053985595703125">
        <ele>1070.800048828125</ele>
        <time>2022-08-26T12:09:10.000Z</time>
      </trkpt>
      <trkpt lat="40.342489890754222869873046875" lon="-1.2021873705089092254638671875">
        <ele>1069.800048828125</ele>
        <time>2022-08-26T12:09:12.000Z</time>
      </trkpt>
      <trkpt lat="40.34257899038493633270263671875" lon="-1.20210547931492328643798828125">
        <ele>1069.199951171875</ele>
        <time>2022-08-26T12:09:13.000Z</time>
      </trkpt>
      <trkpt lat="40.342753417789936065673828125" lon="-1.201937086880207061767578125">
        <ele>1068.4000244140625</ele>
        <time>2022-08-26T12:09:15.000Z</time>
      </trkpt>
      <trkpt lat="40.3429252468049526214599609375" lon="-1.2017645873129367828369140625">
        <ele>1066.5999755859375</ele>
        <time>2022-08-26T12:09:17.000Z</time>
      </trkpt>
      <trkpt lat="40.34317678771913051605224609375" lon="-1.20150919072329998016357421875">
        <ele>1065.4000244140625</ele>
        <time>2022-08-26T12:09:20.000Z</time>
      </trkpt>
      <trkpt lat="40.34334392286837100982666015625" lon="-1.20134524069726467132568359375">
        <ele>1064.4000244140625</ele>
        <time>2022-08-26T12:09:22.000Z</time>
      </trkpt>
      <trkpt lat="40.343596301972866058349609375" lon="-1.20110484771430492401123046875">
        <ele>1063</ele>
        <time>2022-08-26T12:09:25.000Z</time>
      </trkpt>
      <trkpt lat="40.3438509441912174224853515625" lon="-1.20087250135838985443115234375">
        <ele>1061.800048828125</ele>
        <time>2022-08-26T12:09:28.000Z</time>
      </trkpt>
      <trkpt lat="40.343936271965503692626953125" lon="-1.2007939629256725311279296875">
        <ele>1061.4000244140625</ele>
        <time>2022-08-26T12:09:29.000Z</time>
      </trkpt>
      <trkpt lat="40.34410885535180568695068359375" lon="-1.20064585469663143157958984375">
        <ele>1060.800048828125</ele>
        <time>2022-08-26T12:09:31.000Z</time>
      </trkpt>
      <trkpt lat="40.34446709789335727691650390625" lon="-1.200384087860584259033203125">
        <ele>1059.5999755859375</ele>
        <time>2022-08-26T12:09:35.000Z</time>
      </trkpt>
      <trkpt lat="40.3448398411273956298828125" lon="-1.2001485563814640045166015625">
        <ele>1058.4000244140625</ele>
        <time>2022-08-26T12:09:39.000Z</time>
      </trkpt>
      <trkpt lat="40.3452031128108501434326171875" lon="-1.199902631342411041259765625">
        <ele>1057.4000244140625</ele>
        <time>2022-08-26T12:09:43.000Z</time>
      </trkpt>
      <trkpt lat="40.3452896140515804290771484375" lon="-1.19983146898448467254638671875">
        <ele>1057.199951171875</ele>
        <time>2022-08-26T12:09:44.000Z</time>
      </trkpt>
      <trkpt lat="40.345451049506664276123046875" lon="-1.19966827332973480224609375">
        <ele>1056.199951171875</ele>
        <time>2022-08-26T12:09:46.000Z</time>
      </trkpt>
      <trkpt lat="40.34567493014037609100341796875" lon="-1.19941421784460544586181640625">
        <ele>1055</ele>
        <time>2022-08-26T12:09:49.000Z</time>
      </trkpt>
      <trkpt lat="40.3458845615386962890625" lon="-1.19915689341723918914794921875">
        <ele>1053.800048828125</ele>
        <time>2022-08-26T12:09:52.000Z</time>
      </trkpt>
      <trkpt lat="40.346092097461223602294921875" lon="-1.19890091009438037872314453125">
        <ele>1052.800048828125</ele>
        <time>2022-08-26T12:09:55.000Z</time>
      </trkpt>
      <trkpt lat="40.3461596556007862091064453125" lon="-1.1988154985010623931884765625">
        <ele>1052.4000244140625</ele>
        <time>2022-08-26T12:09:56.000Z</time>
      </trkpt>
      <trkpt lat="40.34636325202882289886474609375" lon="-1.1985553242266178131103515625">
        <ele>1051.5999755859375</ele>
        <time>2022-08-26T12:09:59.000Z</time>
      </trkpt>
      <trkpt lat="40.34656542353332042694091796875" lon="-1.19827612303197383880615234375">
        <ele>1050.5999755859375</ele>
        <time>2022-08-26T12:10:02.000Z</time>
      </trkpt>
      <trkpt lat="40.346694253385066986083984375" lon="-1.1980743706226348876953125">
        <ele>1049.800048828125</ele>
        <time>2022-08-26T12:10:04.000Z</time>
      </trkpt>
      <trkpt lat="40.3467537648975849151611328125" lon="-1.197967417538166046142578125">
        <ele>1049.199951171875</ele>
        <time>2022-08-26T12:10:05.000Z</time>
      </trkpt>
      <trkpt lat="40.34686817787587642669677734375" lon="-1.19775543920695781707763671875">
        <ele>1048</ele>
        <time>2022-08-26T12:10:07.000Z</time>
      </trkpt>
      <trkpt lat="40.34703564830124378204345703125" lon="-1.19742603041231632232666015625">
        <ele>1047.199951171875</ele>
        <time>2022-08-26T12:10:10.000Z</time>
      </trkpt>
      <trkpt lat="40.34714427776634693145751953125" lon="-1.19720256887376308441162109375">
        <ele>1046.5999755859375</ele>
        <time>2022-08-26T12:10:12.000Z</time>
      </trkpt>
      <trkpt lat="40.34725022502243518829345703125" lon="-1.19697374291718006134033203125">
        <ele>1045.5999755859375</ele>
        <time>2022-08-26T12:10:14.000Z</time>
      </trkpt>
      <trkpt lat="40.34748022444546222686767578125" lon="-1.19653754867613315582275390625">
        <ele>1044.5999755859375</ele>
        <time>2022-08-26T12:10:18.000Z</time>
      </trkpt>
      <trkpt lat="40.3476105630397796630859375" lon="-1.19633722119033336639404296875">
        <ele>1044.199951171875</ele>
        <time>2022-08-26T12:10:20.000Z</time>
      </trkpt>
      <trkpt lat="40.3478117287158966064453125" lon="-1.1960399150848388671875">
        <ele>1043.4000244140625</ele>
        <time>2022-08-26T12:10:23.000Z</time>
      </trkpt>
      <trkpt lat="40.3481609188020229339599609375" lon="-1.1955653317272663116455078125">
        <ele>1042.199951171875</ele>
        <time>2022-08-26T12:10:28.000Z</time>
      </trkpt>
      <trkpt lat="40.34830416552722454071044921875" lon="-1.19538612663745880126953125">
        <ele>1041.800048828125</ele>
        <time>2022-08-26T12:10:30.000Z</time>
      </trkpt>
      <trkpt lat="40.34844598732888698577880859375" lon="-1.19521169923245906829833984375">
        <ele>1041.199951171875</ele>
        <time>2022-08-26T12:10:32.000Z</time>
      </trkpt>
      <trkpt lat="40.34871898591518402099609375" lon="-1.19488279335200786590576171875">
        <ele>1040.199951171875</ele>
        <time>2022-08-26T12:10:36.000Z</time>
      </trkpt>
      <trkpt lat="40.34884748049080371856689453125" lon="-1.19472186081111431121826171875">
        <ele>1039.4000244140625</ele>
        <time>2022-08-26T12:10:38.000Z</time>
      </trkpt>
      <trkpt lat="40.3489679284393787384033203125" lon="-1.19454802013933658599853515625">
        <ele>1039.199951171875</ele>
        <time>2022-08-26T12:10:40.000Z</time>
      </trkpt>
      <trkpt lat="40.34920438192784786224365234375" lon="-1.1941762827336788177490234375">
        <ele>1038.199951171875</ele>
        <time>2022-08-26T12:10:44.000Z</time>
      </trkpt>
      <trkpt lat="40.34937604330480098724365234375" lon="-1.19389574043452739715576171875">
        <ele>1037</ele>
        <time>2022-08-26T12:10:47.000Z</time>
      </trkpt>
      <trkpt lat="40.3495915420353412628173828125" lon="-1.1935172975063323974609375">
        <ele>1036</ele>
        <time>2022-08-26T12:10:51.000Z</time>
      </trkpt>
      <trkpt lat="40.349698998034000396728515625" lon="-1.193326525390148162841796875">
        <ele>1035.199951171875</ele>
        <time>2022-08-26T12:10:53.000Z</time>
      </trkpt>
      <trkpt lat="40.34975741989910602569580078125" lon="-1.19323432445526123046875">
        <ele>1034.800048828125</ele>
        <time>2022-08-26T12:10:54.000Z</time>
      </trkpt>
      <trkpt lat="40.3500173427164554595947265625" lon="-1.19289561174809932708740234375">
        <ele>1033.5999755859375</ele>
        <time>2022-08-26T12:10:58.000Z</time>
      </trkpt>
      <trkpt lat="40.35008833743631839752197265625" lon="-1.192818917334079742431640625">
        <ele>1033.199951171875</ele>
        <time>2022-08-26T12:10:59.000Z</time>
      </trkpt>
      <trkpt lat="40.35023770295083522796630859375" lon="-1.19266862981021404266357421875">
        <ele>1032.4000244140625</ele>
        <time>2022-08-26T12:11:01.000Z</time>
      </trkpt>
      <trkpt lat="40.3504642657935619354248046875" lon="-1.1924475990235805511474609375">
        <ele>1031.199951171875</ele>
        <time>2022-08-26T12:11:04.000Z</time>
      </trkpt>
      <trkpt lat="40.35054079256951808929443359375" lon="-1.192373000085353851318359375">
        <ele>1030.800048828125</ele>
        <time>2022-08-26T12:11:05.000Z</time>
      </trkpt>
      <trkpt lat="40.35068714059889316558837890625" lon="-1.19222489185631275177001953125">
        <ele>1030</ele>
        <time>2022-08-26T12:11:07.000Z</time>
      </trkpt>
      <trkpt lat="40.35090020857751369476318359375" lon="-1.191998161375522613525390625">
        <ele>1028.5999755859375</ele>
        <time>2022-08-26T12:11:10.000Z</time>
      </trkpt>
      <trkpt lat="40.3510344028472900390625" lon="-1.1918434314429759979248046875">
        <ele>1027.5999755859375</ele>
        <time>2022-08-26T12:11:12.000Z</time>
      </trkpt>
      <trkpt lat="40.35130404867231845855712890625" lon="-1.191520392894744873046875">
        <ele>1026.4000244140625</ele>
        <time>2022-08-26T12:11:16.000Z</time>
      </trkpt>
      <trkpt lat="40.35148861818015575408935546875" lon="-1.19126281701028347015380859375">
        <ele>1025.800048828125</ele>
        <time>2022-08-26T12:11:19.000Z</time>
      </trkpt>
      <trkpt lat="40.35154259763658046722412109375" lon="-1.19116927497088909149169921875">
        <ele>1025.5999755859375</ele>
        <time>2022-08-26T12:11:20.000Z</time>
      </trkpt>
      <trkpt lat="40.351755917072296142578125" lon="-1.19078203104436397552490234375">
        <ele>1024.4000244140625</ele>
        <time>2022-08-26T12:11:24.000Z</time>
      </trkpt>
      <trkpt lat="40.35186613909900188446044921875" lon="-1.19058069773018360137939453125">
        <ele>1024.199951171875</ele>
        <time>2022-08-26T12:11:26.000Z</time>
      </trkpt>
      <trkpt lat="40.35202614963054656982421875" lon="-1.19027626700699329376220703125">
        <ele>1023.20001220703125</ele>
        <time>2022-08-26T12:11:29.000Z</time>
      </trkpt>
      <trkpt lat="40.35229227505624294281005859375" lon="-1.18980310857295989990234375">
        <ele>1022.20001220703125</ele>
        <time>2022-08-26T12:11:34.000Z</time>
      </trkpt>
      <trkpt lat="40.3526267968118190765380859375" lon="-1.18930866010487079620361328125">
        <ele>1020.79998779296875</ele>
        <time>2022-08-26T12:11:40.000Z</time>
      </trkpt>
      <trkpt lat="40.35269443877041339874267578125" lon="-1.18923984467983245849609375">
        <ele>1020.5999755859375</ele>
        <time>2022-08-26T12:11:41.000Z</time>
      </trkpt>
      <trkpt lat="40.35308268852531909942626953125" lon="-1.1889261938631534576416015625">
        <ele>1020</ele>
        <time>2022-08-26T12:11:46.000Z</time>
      </trkpt>
      <trkpt lat="40.3531665913760662078857421875" lon="-1.18886123411357402801513671875">
        <ele>1019.79998779296875</ele>
        <time>2022-08-26T12:11:47.000Z</time>
      </trkpt>
      <trkpt lat="40.3534948267042636871337890625" lon="-1.1885433085262775421142578125">
        <ele>1018.20001220703125</ele>
        <time>2022-08-26T12:11:51.000Z</time>
      </trkpt>
      <trkpt lat="40.35366757772862911224365234375" lon="-1.18837617337703704833984375">
        <ele>1017</ele>
        <time>2022-08-26T12:11:53.000Z</time>
      </trkpt>
      <trkpt lat="40.3538482077419757843017578125" lon="-1.1882201023399829864501953125">
        <ele>1016</ele>
        <time>2022-08-26T12:11:55.000Z</time>
      </trkpt>
      <trkpt lat="40.3540393151342868804931640625" lon="-1.1880702339112758636474609375">
        <ele>1015</ele>
        <time>2022-08-26T12:11:57.000Z</time>
      </trkpt>
      <trkpt lat="40.354139395058155059814453125" lon="-1.18799823336303234100341796875">
        <ele>1014.4000244140625</ele>
        <time>2022-08-26T12:11:58.000Z</time>
      </trkpt>
      <trkpt lat="40.3543444164097309112548828125" lon="-1.18785859085619449615478515625">
        <ele>1013</ele>
        <time>2022-08-26T12:12:00.000Z</time>
      </trkpt>
      <trkpt lat="40.35454868339002132415771484375" lon="-1.18770067580044269561767578125">
        <ele>1011.79998779296875</ele>
        <time>2022-08-26T12:12:02.000Z</time>
      </trkpt>
      <trkpt lat="40.35464691929519176483154296875" lon="-1.18760445155203342437744140625">
        <ele>1011.20001220703125</ele>
        <time>2022-08-26T12:12:03.000Z</time>
      </trkpt>
      <trkpt lat="40.35473409108817577362060546875" lon="-1.187493391335010528564453125">
        <ele>1010.79998779296875</ele>
        <time>2022-08-26T12:12:04.000Z</time>
      </trkpt>
      <trkpt lat="40.35486401058733463287353515625" lon="-1.18721787817776203155517578125">
        <ele>1009.4000244140625</ele>
        <time>2022-08-26T12:12:06.000Z</time>
      </trkpt>
      <trkpt lat="40.3549472428858280181884765625" lon="-1.18691436946392059326171875">
        <ele>1008</ele>
        <time>2022-08-26T12:12:08.000Z</time>
      </trkpt>
      <trkpt lat="40.35498303361237049102783203125" lon="-1.18676525540649890899658203125">
        <ele>1006.5999755859375</ele>
        <time>2022-08-26T12:12:09.000Z</time>
      </trkpt>
      <trkpt lat="40.35502083599567413330078125" lon="-1.18662293069064617156982421875">
        <ele>1006</ele>
        <time>2022-08-26T12:12:10.000Z</time>
      </trkpt>
      <trkpt lat="40.35506241023540496826171875" lon="-1.1864872276782989501953125">
        <ele>1005.20001220703125</ele>
        <time>2022-08-26T12:12:11.000Z</time>
      </trkpt>
      <trkpt lat="40.35516072995960712432861328125" lon="-1.1862377822399139404296875">
        <ele>1004</ele>
        <time>2022-08-26T12:12:13.000Z</time>
      </trkpt>
      <trkpt lat="40.3552218340337276458740234375" lon="-1.1861273087561130523681640625">
        <ele>1003.20001220703125</ele>
        <time>2022-08-26T12:12:14.000Z</time>
      </trkpt>
      <trkpt lat="40.355294756591320037841796875" lon="-1.18602898903191089630126953125">
        <ele>1002.4000244140625</ele>
        <time>2022-08-26T12:12:15.000Z</time>
      </trkpt>
      <trkpt lat="40.35546750761568546295166015625" lon="-1.18586638011038303375244140625">
        <ele>1001.4000244140625</ele>
        <time>2022-08-26T12:12:17.000Z</time>
      </trkpt>
      <trkpt lat="40.35556255839765071868896484375" lon="-1.185792200267314910888671875">
        <ele>1001</ele>
        <time>2022-08-26T12:12:18.000Z</time>
      </trkpt>
      <trkpt lat="40.35574243403971195220947265625" lon="-1.18561961688101291656494140625">
        <ele>1000.4000244140625</ele>
        <time>2022-08-26T12:12:20.000Z</time>
      </trkpt>
      <trkpt lat="40.35580814816057682037353515625" lon="-1.18550126440823078155517578125">
        <ele>1000</ele>
        <time>2022-08-26T12:12:21.000Z</time>
      </trkpt>
      <trkpt lat="40.355870425701141357421875" lon="-1.18521007709205150604248046875">
        <ele>999</ele>
        <time>2022-08-26T12:12:23.000Z</time>
      </trkpt>
      <trkpt lat="40.3558809868991374969482421875" lon="-1.18505417369306087493896484375">
        <ele>998.5999755859375</ele>
        <time>2022-08-26T12:12:24.000Z</time>
      </trkpt>
      <trkpt lat="40.3558809868991374969482421875" lon="-1.1847389303147792816162109375">
        <ele>997.20001220703125</ele>
        <time>2022-08-26T12:12:26.000Z</time>
      </trkpt>
      <trkpt lat="40.35587486810982227325439453125" lon="-1.1845773272216320037841796875">
        <ele>996.4000244140625</ele>
        <time>2022-08-26T12:12:27.000Z</time>
      </trkpt>
      <trkpt lat="40.35586933605372905731201171875" lon="-1.1844174005091190338134765625">
        <ele>995.5999755859375</ele>
        <time>2022-08-26T12:12:28.000Z</time>
      </trkpt>
      <trkpt lat="40.355858691036701202392578125" lon="-1.1841096170246601104736328125">
        <ele>993.5999755859375</ele>
        <time>2022-08-26T12:12:30.000Z</time>
      </trkpt>
      <trkpt lat="40.35585642792284488677978515625" lon="-1.1838330142199993133544921875">
        <ele>992.20001220703125</ele>
        <time>2022-08-26T12:12:32.000Z</time>
      </trkpt>
      <trkpt lat="40.355864055454730987548828125" lon="-1.18370871059596538543701171875">
        <ele>991.5999755859375</ele>
        <time>2022-08-26T12:12:33.000Z</time>
      </trkpt>
      <trkpt lat="40.3558824956417083740234375" lon="-1.183591447770595550537109375">
        <ele>990.79998779296875</ele>
        <time>2022-08-26T12:12:34.000Z</time>
      </trkpt>
      <trkpt lat="40.3559681586921215057373046875" lon="-1.183396987617015838623046875">
        <ele>989</ele>
        <time>2022-08-26T12:12:36.000Z</time>
      </trkpt>
      <trkpt lat="40.35604099743068218231201171875" lon="-1.18333705700933933258056640625">
        <ele>987.20001220703125</ele>
        <time>2022-08-26T12:12:37.000Z</time>
      </trkpt>
      <trkpt lat="40.35612917505204677581787109375" lon="-1.18330948054790496826171875">
        <ele>985.79998779296875</ele>
        <time>2022-08-26T12:12:38.000Z</time>
      </trkpt>
      <trkpt lat="40.35622305236756801605224609375" lon="-1.183307804167270660400390625">
        <ele>984.5999755859375</ele>
        <time>2022-08-26T12:12:39.000Z</time>
      </trkpt>
      <trkpt lat="40.356321372091770172119140625" lon="-1.183323562145233154296875">
        <ele>983.5999755859375</ele>
        <time>2022-08-26T12:12:40.000Z</time>
      </trkpt>
      <trkpt lat="40.35642120055854320526123046875" lon="-1.183349378407001495361328125">
        <ele>982.5999755859375</ele>
        <time>2022-08-26T12:12:41.000Z</time>
      </trkpt>
      <trkpt lat="40.35651943646371364593505859375" lon="-1.18337921798229217529296875">
        <ele>981.79998779296875</ele>
        <time>2022-08-26T12:12:42.000Z</time>
      </trkpt>
      <trkpt lat="40.3567061014473438262939453125" lon="-1.18342976085841655731201171875">
        <ele>980.20001220703125</ele>
        <time>2022-08-26T12:12:44.000Z</time>
      </trkpt>
      <trkpt lat="40.356794111430644989013671875" lon="-1.18342272005975246429443359375">
        <ele>979.4000244140625</ele>
        <time>2022-08-26T12:12:45.000Z</time>
      </trkpt>
      <trkpt lat="40.35686862654983997344970703125" lon="-1.183377541601657867431640625">
        <ele>978.4000244140625</ele>
        <time>2022-08-26T12:12:46.000Z</time>
      </trkpt>
      <trkpt lat="40.35691958852112293243408203125" lon="-1.18329850025475025177001953125">
        <ele>977.79998779296875</ele>
        <time>2022-08-26T12:12:47.000Z</time>
      </trkpt>
      <trkpt lat="40.3569525294005870819091796875" lon="-1.18320219218730926513671875">
        <ele>977.20001220703125</ele>
        <time>2022-08-26T12:12:48.000Z</time>
      </trkpt>
      <trkpt lat="40.3569904156029224395751953125" lon="-1.1829978413879871368408203125">
        <ele>976.4000244140625</ele>
        <time>2022-08-26T12:12:50.000Z</time>
      </trkpt>
      <trkpt lat="40.3570051677525043487548828125" lon="-1.1828962527215480804443359375">
        <ele>976</ele>
        <time>2022-08-26T12:12:51.000Z</time>
      </trkpt>
      <trkpt lat="40.35711689852178096771240234375" lon="-1.1823893152177333831787109375">
        <ele>975.79998779296875</ele>
        <time>2022-08-26T12:12:56.000Z</time>
      </trkpt>
      <trkpt lat="40.35715453326702117919921875" lon="-1.18229694664478302001953125">
        <ele>975.79998779296875</ele>
        <time>2022-08-26T12:12:57.000Z</time>
      </trkpt>
      <trkpt lat="40.35731672309339046478271484375" lon="-1.1819675378501415252685546875">
        <ele>975.5999755859375</ele>
        <time>2022-08-26T12:13:01.000Z</time>
      </trkpt>
      <trkpt lat="40.35734421573579311370849609375" lon="-1.1818786896765232086181640625">
        <ele>975.5999755859375</ele>
        <time>2022-08-26T12:13:02.000Z</time>
      </trkpt>
      <trkpt lat="40.35748779773712158203125" lon="-1.1813683994114398956298828125">
        <ele>975.20001220703125</ele>
        <time>2022-08-26T12:13:08.000Z</time>
      </trkpt>
      <trkpt lat="40.35754823125898838043212890625" lon="-1.1812416650354862213134765625">
        <ele>975</ele>
        <time>2022-08-26T12:13:11.000Z</time>
      </trkpt>
      <trkpt lat="40.35761763341724872589111328125" lon="-1.18111032061278820037841796875">
        <ele>975</ele>
        <time>2022-08-26T12:13:17.000Z</time>
      </trkpt>
      <trkpt lat="40.35765803419053554534912109375" lon="-1.1810847558081150054931640625">
        <ele>974.79998779296875</ele>
        <time>2022-08-26T12:13:20.000Z</time>
      </trkpt>
      <trkpt lat="40.3576755523681640625" lon="-1.1811011843383312225341796875">
        <ele>974.79998779296875</ele>
        <time>2022-08-26T12:13:21.000Z</time>
      </trkpt>
      <trkpt lat="40.3576485626399517059326171875" lon="-1.1812086403369903564453125">
        <ele>974.5999755859375</ele>
        <time>2022-08-26T12:13:24.000Z</time>
      </trkpt>
      <trkpt lat="40.35752409137785434722900390625" lon="-1.1815001629292964935302734375">
        <ele>974.5999755859375</ele>
        <time>2022-08-26T12:13:30.000Z</time>
      </trkpt>
      <trkpt lat="40.3574557788670063018798828125" lon="-1.18166268803179264068603515625">
        <ele>974.5999755859375</ele>
        <time>2022-08-26T12:13:33.000Z</time>
      </trkpt>
      <trkpt lat="40.35738294012844562530517578125" lon="-1.18189268745481967926025390625">
        <ele>974.5999755859375</ele>
        <time>2022-08-26T12:13:37.000Z</time>
      </trkpt>
      <trkpt lat="40.3573233447968959808349609375" lon="-1.1820463277399539947509765625">
        <ele>974.4000244140625</ele>
        <time>2022-08-26T12:13:40.000Z</time>
      </trkpt>
      <trkpt lat="40.357258804142475128173828125" lon="-1.1821200884878635406494140625">
        <ele>974.20001220703125</ele>
        <time>2022-08-26T12:13:42.000Z</time>
      </trkpt>
      <trkpt lat="40.3571297228336334228515625" lon="-1.18208999745547771453857421875">
        <ele>974.20001220703125</ele>
        <time>2022-08-26T12:13:45.000Z</time>
      </trkpt>
      <trkpt lat="40.35708638839423656463623046875" lon="-1.18205579929053783416748046875">
        <ele>974.20001220703125</ele>
        <time>2022-08-26T12:13:46.000Z</time>
      </trkpt>
      <trkpt lat="40.3569625876843929290771484375" lon="-1.181941218674182891845703125">
        <ele>974.20001220703125</ele>
        <time>2022-08-26T12:13:49.000Z</time>
      </trkpt>
      <trkpt lat="40.35688840784132480621337890625" lon="-1.181824207305908203125">
        <ele>974.20001220703125</ele>
        <time>2022-08-26T12:13:51.000Z</time>
      </trkpt>
      <trkpt lat="40.3568200953304767608642578125" lon="-1.1815638653934001922607421875">
        <ele>973.4000244140625</ele>
        <time>2022-08-26T12:13:54.000Z</time>
      </trkpt>
      <trkpt lat="40.35679872147738933563232421875" lon="-1.1814719997346401214599609375">
        <ele>972.79998779296875</ele>
        <time>2022-08-26T12:13:55.000Z</time>
      </trkpt>
      <trkpt lat="40.35675379447638988494873046875" lon="-1.1812869273126125335693359375">
        <ele>971.79998779296875</ele>
        <time>2022-08-26T12:13:57.000Z</time>
      </trkpt>
      <trkpt lat="40.35670794546604156494140625" lon="-1.1811005137860774993896484375">
        <ele>970.4000244140625</ele>
        <time>2022-08-26T12:13:59.000Z</time>
      </trkpt>
      <trkpt lat="40.3566437400877475738525390625" lon="-1.180826760828495025634765625">
        <ele>969.4000244140625</ele>
        <time>2022-08-26T12:14:02.000Z</time>
      </trkpt>
      <trkpt lat="40.35660275258123874664306640625" lon="-1.1806515790522098541259765625">
        <ele>968.79998779296875</ele>
        <time>2022-08-26T12:14:04.000Z</time>
      </trkpt>
      <trkpt lat="40.35656285472214221954345703125" lon="-1.18048251606523990631103515625">
        <ele>968.5999755859375</ele>
        <time>2022-08-26T12:14:06.000Z</time>
      </trkpt>
      <trkpt lat="40.35641198046505451202392578125" lon="-1.179901063442230224609375">
        <ele>967.79998779296875</ele>
        <time>2022-08-26T12:14:13.000Z</time>
      </trkpt>
      <trkpt lat="40.35624970681965351104736328125" lon="-1.179361604154109954833984375">
        <ele>967.4000244140625</ele>
        <time>2022-08-26T12:14:20.000Z</time>
      </trkpt>
      <trkpt lat="40.35620637238025665283203125" lon="-1.17920226417481899261474609375">
        <ele>967.4000244140625</ele>
        <time>2022-08-26T12:14:22.000Z</time>
      </trkpt>
      <trkpt lat="40.3561882674694061279296875" lon="-1.179028339684009552001953125">
        <ele>967.4000244140625</ele>
        <time>2022-08-26T12:14:24.000Z</time>
      </trkpt>
      <trkpt lat="40.3561931289732456207275390625" lon="-1.1787767149507999420166015625">
        <ele>967.20001220703125</ele>
        <time>2022-08-26T12:14:27.000Z</time>
      </trkpt>
      <trkpt lat="40.356200002133846282958984375" lon="-1.1786218173801898956298828125">
        <ele>967</ele>
        <time>2022-08-26T12:14:29.000Z</time>
      </trkpt>
      <trkpt lat="40.3561475314199924468994140625" lon="-1.17831897921860218048095703125">
        <ele>966.5999755859375</ele>
        <time>2022-08-26T12:14:33.000Z</time>
      </trkpt>
      <trkpt lat="40.3561250679194927215576171875" lon="-1.17824873887002468109130859375">
        <ele>966.5999755859375</ele>
        <time>2022-08-26T12:14:34.000Z</time>
      </trkpt>
      <trkpt lat="40.35600093193352222442626953125" lon="-1.17780332453548908233642578125">
        <ele>966.20001220703125</ele>
        <time>2022-08-26T12:14:40.000Z</time>
      </trkpt>
      <trkpt lat="40.355814434587955474853515625" lon="-1.177408955991268157958984375">
        <ele>966</ele>
        <time>2022-08-26T12:14:46.000Z</time>
      </trkpt>
      <trkpt lat="40.35560647957026958465576171875" lon="-1.177020370960235595703125">
        <ele>965.79998779296875</ele>
        <time>2022-08-26T12:14:52.000Z</time>
      </trkpt>
      <trkpt lat="40.35557060502469539642333984375" lon="-1.17695507593452930450439453125">
        <ele>965.79998779296875</ele>
        <time>2022-08-26T12:14:53.000Z</time>
      </trkpt>
      <trkpt lat="40.35535519011318683624267578125" lon="-1.1764705181121826171875">
        <ele>965.5999755859375</ele>
        <time>2022-08-26T12:15:00.000Z</time>
      </trkpt>
      <trkpt lat="40.35506911575794219970703125" lon="-1.17578177712857723236083984375">
        <ele>965.5999755859375</ele>
        <time>2022-08-26T12:15:10.000Z</time>
      </trkpt>
      <trkpt lat="40.35502620041370391845703125" lon="-1.17564565502107143402099609375">
        <ele>965.4000244140625</ele>
        <time>2022-08-26T12:15:12.000Z</time>
      </trkpt>
      <trkpt lat="40.35502645187079906463623046875" lon="-1.17550634779036045074462890625">
        <ele>965.5999755859375</ele>
        <time>2022-08-26T12:15:14.000Z</time>
      </trkpt>
      <trkpt lat="40.3550749830901622772216796875" lon="-1.175291351974010467529296875">
        <ele>965.4000244140625</ele>
        <time>2022-08-26T12:15:17.000Z</time>
      </trkpt>
      <trkpt lat="40.35511882044374942779541015625" lon="-1.17514575831592082977294921875">
        <ele>965.4000244140625</ele>
        <time>2022-08-26T12:15:19.000Z</time>
      </trkpt>
      <trkpt lat="40.3551356680691242218017578125" lon="-1.175071410834789276123046875">
        <ele>965.4000244140625</ele>
        <time>2022-08-26T12:15:20.000Z</time>
      </trkpt>
      <trkpt lat="40.355162657797336578369140625" lon="-1.17477645166218280792236328125">
        <ele>965.20001220703125</ele>
        <time>2022-08-26T12:15:24.000Z</time>
      </trkpt>
      <trkpt lat="40.35518738441169261932373046875" lon="-1.1744285188615322113037109375">
        <ele>965.20001220703125</ele>
        <time>2022-08-26T12:15:29.000Z</time>
      </trkpt>
      <trkpt lat="40.355170033872127532958984375" lon="-1.17429591715335845947265625">
        <ele>965.20001220703125</ele>
        <time>2022-08-26T12:15:31.000Z</time>
      </trkpt>
      <trkpt lat="40.3551370091736316680908203125" lon="-1.17418049834668636322021484375">
        <ele>965.20001220703125</ele>
        <time>2022-08-26T12:15:33.000Z</time>
      </trkpt>
      <trkpt lat="40.35510758869349956512451171875" lon="-1.17406683973968029022216796875">
        <ele>965.20001220703125</ele>
        <time>2022-08-26T12:15:35.000Z</time>
      </trkpt>
      <trkpt lat="40.35510105080902576446533203125" lon="-1.17400665767490863800048828125">
        <ele>965.20001220703125</ele>
        <time>2022-08-26T12:15:36.000Z</time>
      </trkpt>
      <trkpt lat="40.35515268333256244659423828125" lon="-1.173749752342700958251953125">
        <ele>965.20001220703125</ele>
        <time>2022-08-26T12:15:40.000Z</time>
      </trkpt>
      <trkpt lat="40.3551500849425792694091796875" lon="-1.1736205033957958221435546875">
        <ele>965.20001220703125</ele>
        <time>2022-08-26T12:15:42.000Z</time>
      </trkpt>
      <trkpt lat="40.35512200556695461273193359375" lon="-1.173576749861240386962890625">
        <ele>965.20001220703125</ele>
        <time>2022-08-26T12:15:43.000Z</time>
      </trkpt>
      <trkpt lat="40.35496224649250507354736328125" lon="-1.17335353977978229522705078125">
        <ele>964.4000244140625</ele>
        <time>2022-08-26T12:15:48.000Z</time>
      </trkpt>
      <trkpt lat="40.3549388609826564788818359375" lon="-1.17329352535307407379150390625">
        <ele>964.4000244140625</ele>
        <time>2022-08-26T12:15:49.000Z</time>
      </trkpt>
      <trkpt lat="40.35491949878633022308349609375" lon="-1.17322881706058979034423828125">
        <ele>964.20001220703125</ele>
        <time>2022-08-26T12:15:50.000Z</time>
      </trkpt>
      <trkpt lat="40.3548959456384181976318359375" lon="-1.17309319786727428436279296875">
        <ele>964</ele>
        <time>2022-08-26T12:15:52.000Z</time>
      </trkpt>
      <trkpt lat="40.35488144494593143463134765625" lon="-1.172955147922039031982421875">
        <ele>963.79998779296875</ele>
        <time>2022-08-26T12:15:54.000Z</time>
      </trkpt>
      <trkpt lat="40.35485990345478057861328125" lon="-1.17281726561486721038818359375">
        <ele>963.5999755859375</ele>
        <time>2022-08-26T12:15:56.000Z</time>
      </trkpt>
      <trkpt lat="40.35482126288115978240966796875" lon="-1.17267854511737823486328125">
        <ele>963.5999755859375</ele>
        <time>2022-08-26T12:15:58.000Z</time>
      </trkpt>
      <trkpt lat="40.35473979078233242034912109375" lon="-1.17249623872339725494384765625">
        <ele>963.4000244140625</ele>
        <time>2022-08-26T12:16:01.000Z</time>
      </trkpt>
      <trkpt lat="40.35468019545078277587890625" lon="-1.172381155192852020263671875">
        <ele>963.20001220703125</ele>
        <time>2022-08-26T12:16:03.000Z</time>
      </trkpt>
      <trkpt lat="40.354653708636760711669921875" lon="-1.172323487699031829833984375">
        <ele>963.20001220703125</ele>
        <time>2022-08-26T12:16:04.000Z</time>
      </trkpt>
      <trkpt lat="40.35457097925245761871337890625" lon="-1.17209927178919315338134765625">
        <ele>963</ele>
        <time>2022-08-26T12:16:08.000Z</time>
      </trkpt>
      <trkpt lat="40.35454717464745044708251953125" lon="-1.1719729565083980560302734375">
        <ele>962.79998779296875</ele>
        <time>2022-08-26T12:16:10.000Z</time>
      </trkpt>
      <trkpt lat="40.35446955822408199310302734375" lon="-1.17147766984999179840087890625">
        <ele>962.4000244140625</ele>
        <time>2022-08-26T12:16:17.000Z</time>
      </trkpt>
      <trkpt lat="40.35440820269286632537841796875" lon="-1.17120626382529735565185546875">
        <ele>962.4000244140625</ele>
        <time>2022-08-26T12:16:21.000Z</time>
      </trkpt>
      <trkpt lat="40.3543571569025516510009765625" lon="-1.17098665796220302581787109375">
        <ele>962.4000244140625</ele>
        <time>2022-08-26T12:16:24.000Z</time>
      </trkpt>
      <trkpt lat="40.35433528013527393341064453125" lon="-1.17091692052781581878662109375">
        <ele>962.20001220703125</ele>
        <time>2022-08-26T12:16:25.000Z</time>
      </trkpt>
      <trkpt lat="40.354270823299884796142578125" lon="-1.170740984380245208740234375">
        <ele>962.20001220703125</ele>
        <time>2022-08-26T12:16:28.000Z</time>
      </trkpt>
      <trkpt lat="40.3542329370975494384765625" lon="-1.17062506265938282012939453125">
        <ele>962.20001220703125</ele>
        <time>2022-08-26T12:16:30.000Z</time>
      </trkpt>
      <trkpt lat="40.3541363775730133056640625" lon="-1.170460693538188934326171875">
        <ele>961.79998779296875</ele>
        <time>2022-08-26T12:16:33.000Z</time>
      </trkpt>
      <trkpt lat="40.3540601022541522979736328125" lon="-1.1703575961291790008544921875">
        <ele>961.5999755859375</ele>
        <time>2022-08-26T12:16:35.000Z</time>
      </trkpt>
      <trkpt lat="40.35393646918237209320068359375" lon="-1.17022776044905185699462890625">
        <ele>961.5999755859375</ele>
        <time>2022-08-26T12:16:38.000Z</time>
      </trkpt>
      <trkpt lat="40.35389942117035388946533203125" lon="-1.17010639049112796783447265625">
        <ele>961.5999755859375</ele>
        <time>2022-08-26T12:16:40.000Z</time>
      </trkpt>
      <trkpt lat="40.3538998402655124664306640625" lon="-1.17003967054188251495361328125">
        <ele>961.5999755859375</ele>
        <time>2022-08-26T12:16:41.000Z</time>
      </trkpt>
      <trkpt lat="40.353938899934291839599609375" lon="-1.169831044971942901611328125">
        <ele>961.20001220703125</ele>
        <time>2022-08-26T12:16:44.000Z</time>
      </trkpt>
      <trkpt lat="40.35397033207118511199951171875" lon="-1.16968545131385326385498046875">
        <ele>961.20001220703125</ele>
        <time>2022-08-26T12:16:46.000Z</time>
      </trkpt>
      <trkpt lat="40.3541000001132488250732421875" lon="-1.1692568846046924591064453125">
        <ele>960.5999755859375</ele>
        <time>2022-08-26T12:16:52.000Z</time>
      </trkpt>
      <trkpt lat="40.35409237258136272430419921875" lon="-1.1689819581806659698486328125">
        <ele>960.5999755859375</ele>
        <time>2022-08-26T12:16:56.000Z</time>
      </trkpt>
      <trkpt lat="40.35408415831625461578369140625" lon="-1.16891481913626194000244140625">
        <ele>960.5999755859375</ele>
        <time>2022-08-26T12:16:57.000Z</time>
      </trkpt>
      <trkpt lat="40.35408868454396724700927734375" lon="-1.16870175115764141082763671875">
        <ele>960.4000244140625</ele>
        <time>2022-08-26T12:17:00.000Z</time>
      </trkpt>
      <trkpt lat="40.35407678224146366119384765625" lon="-1.168549619615077972412109375">
        <ele>960.4000244140625</ele>
        <time>2022-08-26T12:17:02.000Z</time>
      </trkpt>
      <trkpt lat="40.35404426045715808868408203125" lon="-1.16832808591425418853759765625">
        <ele>960.4000244140625</ele>
        <time>2022-08-26T12:17:05.000Z</time>
      </trkpt>
      <trkpt lat="40.35401961766183376312255859375" lon="-1.1680512316524982452392578125">
        <ele>960.20001220703125</ele>
        <time>2022-08-26T12:17:09.000Z</time>
      </trkpt>
      <trkpt lat="40.353985838592052459716796875" lon="-1.16792994551360607147216796875">
        <ele>960.20001220703125</ele>
        <time>2022-08-26T12:17:11.000Z</time>
      </trkpt>
      <trkpt lat="40.3539541549980640411376953125" lon="-1.16781259886920452117919921875">
        <ele>960</ele>
        <time>2022-08-26T12:17:13.000Z</time>
      </trkpt>
      <trkpt lat="40.35396815277636051177978515625" lon="-1.16768871434032917022705078125">
        <ele>960</ele>
        <time>2022-08-26T12:17:15.000Z</time>
      </trkpt>
      <trkpt lat="40.35402833484113216400146484375" lon="-1.16756482981145381927490234375">
        <ele>959.79998779296875</ele>
        <time>2022-08-26T12:17:17.000Z</time>
      </trkpt>
      <trkpt lat="40.35405834205448627471923828125" lon="-1.1675030551850795745849609375">
        <ele>959.79998779296875</ele>
        <time>2022-08-26T12:17:18.000Z</time>
      </trkpt>
      <trkpt lat="40.35408164374530315399169921875" lon="-1.16743675433099269866943359375">
        <ele>959.79998779296875</ele>
        <time>2022-08-26T12:17:19.000Z</time>
      </trkpt>
      <trkpt lat="40.35412137396633625030517578125" lon="-1.167235672473907470703125">
        <ele>959.79998779296875</ele>
        <time>2022-08-26T12:17:22.000Z</time>
      </trkpt>
      <trkpt lat="40.35413973033428192138671875" lon="-1.167101226747035980224609375">
        <ele>960</ele>
        <time>2022-08-26T12:17:24.000Z</time>
      </trkpt>
      <trkpt lat="40.35414249636232852935791015625" lon="-1.1670303158462047576904296875">
        <ele>960</ele>
        <time>2022-08-26T12:17:25.000Z</time>
      </trkpt>
      <trkpt lat="40.35410754382610321044921875" lon="-1.1665106378495693206787109375">
        <ele>960</ele>
        <time>2022-08-26T12:17:32.000Z</time>
      </trkpt>
      <trkpt lat="40.35403906367719173431396484375" lon="-1.16615599952638149261474609375">
        <ele>960</ele>
        <time>2022-08-26T12:17:37.000Z</time>
      </trkpt>
      <trkpt lat="40.3540215454995632171630859375" lon="-1.1660885252058506011962890625">
        <ele>960</ele>
        <time>2022-08-26T12:17:38.000Z</time>
      </trkpt>
      <trkpt lat="40.35395440645515918731689453125" lon="-1.1657301150262355804443359375">
        <ele>959.79998779296875</ele>
        <time>2022-08-26T12:17:43.000Z</time>
      </trkpt>
      <trkpt lat="40.3539578430354595184326171875" lon="-1.16565476171672344207763671875">
        <ele>959.79998779296875</ele>
        <time>2022-08-26T12:17:44.000Z</time>
      </trkpt>
      <trkpt lat="40.3539930470287799835205078125" lon="-1.1654263548552989959716796875">
        <ele>959.5999755859375</ele>
        <time>2022-08-26T12:17:47.000Z</time>
      </trkpt>
      <trkpt lat="40.35400704480707645416259765625" lon="-1.16527774371206760406494140625">
        <ele>959.5999755859375</ele>
        <time>2022-08-26T12:17:49.000Z</time>
      </trkpt>
      <trkpt lat="40.3540356270968914031982421875" lon="-1.16483920253813266754150390625">
        <ele>959.4000244140625</ele>
        <time>2022-08-26T12:17:55.000Z</time>
      </trkpt>
      <trkpt lat="40.35403302870690822601318359375" lon="-1.16455891169607639312744140625">
        <ele>959.5999755859375</ele>
        <time>2022-08-26T12:17:59.000Z</time>
      </trkpt>
      <trkpt lat="40.35400821827352046966552734375" lon="-1.1644151620566844940185546875">
        <ele>959.5999755859375</ele>
        <time>2022-08-26T12:18:01.000Z</time>
      </trkpt>
      <trkpt lat="40.35387997515499591827392578125" lon="-1.16408248431980609893798828125">
        <ele>959.5999755859375</ele>
        <time>2022-08-26T12:18:06.000Z</time>
      </trkpt>
      <trkpt lat="40.3537640534341335296630859375" lon="-1.16372407414019107818603515625">
        <ele>959.5999755859375</ele>
        <time>2022-08-26T12:18:12.000Z</time>
      </trkpt>
      <trkpt lat="40.35368031822144985198974609375" lon="-1.16321512497961521148681640625">
        <ele>959.5999755859375</ele>
        <time>2022-08-26T12:18:20.000Z</time>
      </trkpt>
      <trkpt lat="40.35366439260542392730712890625" lon="-1.1630435474216938018798828125">
        <ele>959.4000244140625</ele>
        <time>2022-08-26T12:18:24.000Z</time>
      </trkpt>
      <trkpt lat="40.3536453656852245330810546875" lon="-1.16302368231117725372314453125">
        <ele>959.4000244140625</ele>
        <time>2022-08-26T12:18:25.000Z</time>
      </trkpt>
      <trkpt lat="40.35356104373931884765625" lon="-1.16295327432453632354736328125">
        <ele>959</ele>
        <time>2022-08-26T12:18:28.000Z</time>
      </trkpt>
      <trkpt lat="40.35349910147488117218017578125" lon="-1.1628247797489166259765625">
        <ele>959</ele>
        <time>2022-08-26T12:18:31.000Z</time>
      </trkpt>
      <trkpt lat="40.35348820500075817108154296875" lon="-1.16277205757796764373779296875">
        <ele>958.79998779296875</ele>
        <time>2022-08-26T12:18:32.000Z</time>
      </trkpt>
      <trkpt lat="40.353477895259857177734375" lon="-1.16260961629450321197509765625">
        <ele>958.79998779296875</ele>
        <time>2022-08-26T12:18:35.000Z</time>
      </trkpt>
      <trkpt lat="40.3535152785480022430419921875" lon="-1.16250551305711269378662109375">
        <ele>958.79998779296875</ele>
        <time>2022-08-26T12:18:37.000Z</time>
      </trkpt>
      <trkpt lat="40.3536332957446575164794921875" lon="-1.162366457283496856689453125">
        <ele>958.4000244140625</ele>
        <time>2022-08-26T12:18:40.000Z</time>
      </trkpt>
      <trkpt lat="40.35367277450859546661376953125" lon="-1.16231960244476795196533203125">
        <ele>958.20001220703125</ele>
        <time>2022-08-26T12:18:41.000Z</time>
      </trkpt>
      <trkpt lat="40.35375081002712249755859375" lon="-1.16212002933025360107421875">
        <ele>958</ele>
        <time>2022-08-26T12:18:45.000Z</time>
      </trkpt>
      <trkpt lat="40.3536597825586795806884765625" lon="-1.162005700170993804931640625">
        <ele>958</ele>
        <time>2022-08-26T12:18:48.000Z</time>
      </trkpt>
      <trkpt lat="40.3535605408251285552978515625" lon="-1.1619954742491245269775390625">
        <ele>958</ele>
        <time>2022-08-26T12:18:50.000Z</time>
      </trkpt>
      <trkpt lat="40.35340036265552043914794921875" lon="-1.1619852483272552490234375">
        <ele>957.5999755859375</ele>
        <time>2022-08-26T12:18:53.000Z</time>
      </trkpt>
      <trkpt lat="40.35328955389559268951416015625" lon="-1.16197653114795684814453125">
        <ele>957.4000244140625</ele>
        <time>2022-08-26T12:18:55.000Z</time>
      </trkpt>
      <trkpt lat="40.35288319922983646392822265625" lon="-1.16193487308919429779052734375">
        <ele>957.20001220703125</ele>
        <time>2022-08-26T12:19:02.000Z</time>
      </trkpt>
      <trkpt lat="40.35252043046057224273681640625" lon="-1.161889694631099700927734375">
        <ele>957.20001220703125</ele>
        <time>2022-08-26T12:19:09.000Z</time>
      </trkpt>
      <trkpt lat="40.3524742461740970611572265625" lon="-1.1618725955486297607421875">
        <ele>957.20001220703125</ele>
        <time>2022-08-26T12:19:10.000Z</time>
      </trkpt>
      <trkpt lat="40.35236905328929424285888671875" lon="-1.16174896247684955596923828125">
        <ele>957</ele>
        <time>2022-08-26T12:19:13.000Z</time>
      </trkpt>
      <trkpt lat="40.35231708548963069915771484375" lon="-1.161553747951984405517578125">
        <ele>957</ele>
        <time>2022-08-26T12:19:16.000Z</time>
      </trkpt>
      <trkpt lat="40.35229462198913097381591796875" lon="-1.1614067293703556060791015625">
        <ele>957</ele>
        <time>2022-08-26T12:19:18.000Z</time>
      </trkpt>
      <trkpt lat="40.3522405587136745452880859375" lon="-1.16099157370626926422119140625">
        <ele>956.5999755859375</ele>
        <time>2022-08-26T12:19:24.000Z</time>
      </trkpt>
      <trkpt lat="40.35223058424890041351318359375" lon="-1.16093088872730731964111328125">
        <ele>956.4000244140625</ele>
        <time>2022-08-26T12:19:25.000Z</time>
      </trkpt>
      <trkpt lat="40.352152548730373382568359375" lon="-1.16042797453701496124267578125">
        <ele>956.20001220703125</ele>
        <time>2022-08-26T12:19:32.000Z</time>
      </trkpt>
      <trkpt lat="40.3520618565380573272705078125" lon="-1.15992791019380092620849609375">
        <ele>956</ele>
        <time>2022-08-26T12:19:39.000Z</time>
      </trkpt>
      <trkpt lat="40.3520437516272068023681640625" lon="-1.15986588411033153533935546875">
        <ele>956</ele>
        <time>2022-08-26T12:19:40.000Z</time>
      </trkpt>
      <trkpt lat="40.3519611060619354248046875" lon="-1.15963504649698734283447265625">
        <ele>955.79998779296875</ele>
        <time>2022-08-26T12:19:44.000Z</time>
      </trkpt>
      <trkpt lat="40.35194157622754573822021484375" lon="-1.15957704372704029083251953125">
        <ele>955.79998779296875</ele>
        <time>2022-08-26T12:19:45.000Z</time>
      </trkpt>
      <trkpt lat="40.35187250934541225433349609375" lon="-1.1591635644435882568359375">
        <ele>955.5999755859375</ele>
        <time>2022-08-26T12:19:51.000Z</time>
      </trkpt>
      <trkpt lat="40.35191592760384082794189453125" lon="-1.158740110695362091064453125">
        <ele>955.5999755859375</ele>
        <time>2022-08-26T12:19:57.000Z</time>
      </trkpt>
      <trkpt lat="40.3519679792225360870361328125" lon="-1.15846392698585987091064453125">
        <ele>955.4000244140625</ele>
        <time>2022-08-26T12:20:01.000Z</time>
      </trkpt>
      <trkpt lat="40.35203495062887668609619140625" lon="-1.1581783555448055267333984375">
        <ele>955.20001220703125</ele>
        <time>2022-08-26T12:20:05.000Z</time>
      </trkpt>
      <trkpt lat="40.35206026397645473480224609375" lon="-1.158032007515430450439453125">
        <ele>955.20001220703125</ele>
        <time>2022-08-26T12:20:07.000Z</time>
      </trkpt>
      <trkpt lat="40.35206411965191364288330078125" lon="-1.15795631892979145050048828125">
        <ele>955</ele>
        <time>2022-08-26T12:20:08.000Z</time>
      </trkpt>
      <trkpt lat="40.3520591743290424346923828125" lon="-1.157801337540149688720703125">
        <ele>954.79998779296875</ele>
        <time>2022-08-26T12:20:10.000Z</time>
      </trkpt>
      <trkpt lat="40.3520665504038333892822265625" lon="-1.15735382772982120513916015625">
        <ele>954.5999755859375</ele>
        <time>2022-08-26T12:20:16.000Z</time>
      </trkpt>
      <trkpt lat="40.35205992870032787322998046875" lon="-1.15727998316287994384765625">
        <ele>954.5999755859375</ele>
        <time>2022-08-26T12:20:17.000Z</time>
      </trkpt>
      <trkpt lat="40.3519743494689464569091796875" lon="-1.15700581111013889312744140625">
        <ele>954.20001220703125</ele>
        <time>2022-08-26T12:20:21.000Z</time>
      </trkpt>
      <trkpt lat="40.35180578939616680145263671875" lon="-1.15659425966441631317138671875">
        <ele>954</ele>
        <time>2022-08-26T12:20:27.000Z</time>
      </trkpt>
      <trkpt lat="40.35173571668565273284912109375" lon="-1.15640013478696346282958984375">
        <ele>954</ele>
        <time>2022-08-26T12:20:30.000Z</time>
      </trkpt>
      <trkpt lat="40.3516213037073612213134765625" lon="-1.1561573110520839691162109375">
        <ele>953.79998779296875</ele>
        <time>2022-08-26T12:20:34.000Z</time>
      </trkpt>
      <trkpt lat="40.35154527984559535980224609375" lon="-1.1560522019863128662109375">
        <ele>953.79998779296875</ele>
        <time>2022-08-26T12:20:36.000Z</time>
      </trkpt>
      <trkpt lat="40.3513336367905139923095703125" lon="-1.15585975348949432373046875">
        <ele>953.5999755859375</ele>
        <time>2022-08-26T12:20:41.000Z</time>
      </trkpt>
      <trkpt lat="40.3511173836886882781982421875" lon="-1.15566152147948741912841796875">
        <ele>953.20001220703125</ele>
        <time>2022-08-26T12:20:46.000Z</time>
      </trkpt>
      <trkpt lat="40.35099911503493785858154296875" lon="-1.15551232360303401947021484375">
        <ele>953</ele>
        <time>2022-08-26T12:20:49.000Z</time>
      </trkpt>
      <trkpt lat="40.3507978655397891998291015625" lon="-1.155154667794704437255859375">
        <ele>953</ele>
        <time>2022-08-26T12:20:55.000Z</time>
      </trkpt>
      <trkpt lat="40.35062544979155063629150390625" lon="-1.1546896398067474365234375">
        <ele>952.79998779296875</ele>
        <time>2022-08-26T12:21:02.000Z</time>
      </trkpt>
      <trkpt lat="40.350427888333797454833984375" lon="-1.1541451513767242431640625">
        <ele>952.4000244140625</ele>
        <time>2022-08-26T12:21:10.000Z</time>
      </trkpt>
      <trkpt lat="40.35027877427637577056884765625" lon="-1.1537490226328372955322265625">
        <ele>952.4000244140625</ele>
        <time>2022-08-26T12:21:16.000Z</time>
      </trkpt>
      <trkpt lat="40.35023535601794719696044921875" lon="-1.15360678173601627349853515625">
        <ele>952.4000244140625</ele>
        <time>2022-08-26T12:21:18.000Z</time>
      </trkpt>
      <trkpt lat="40.35009227693080902099609375" lon="-1.15308475680649280548095703125">
        <ele>951.79998779296875</ele>
        <time>2022-08-26T12:21:26.000Z</time>
      </trkpt>
      <trkpt lat="40.34996663220226764678955078125" lon="-1.15262056700885295867919921875">
        <ele>951.79998779296875</ele>
        <time>2022-08-26T12:21:33.000Z</time>
      </trkpt>
      <trkpt lat="40.34986789338290691375732421875" lon="-1.15222745575010776519775390625">
        <ele>951.79998779296875</ele>
        <time>2022-08-26T12:21:39.000Z</time>
      </trkpt>
      <trkpt lat="40.34986236132681369781494140625" lon="-1.152157969772815704345703125">
        <ele>951.79998779296875</ele>
        <time>2022-08-26T12:21:40.000Z</time>
      </trkpt>
      <trkpt lat="40.34986671991646289825439453125" lon="-1.1519536189734935760498046875">
        <ele>951.79998779296875</ele>
        <time>2022-08-26T12:21:43.000Z</time>
      </trkpt>
      <trkpt lat="40.34988868050277233123779296875" lon="-1.15176645107567310333251953125">
        <ele>951.5999755859375</ele>
        <time>2022-08-26T12:21:46.000Z</time>
      </trkpt>
      <trkpt lat="40.34990184009075164794921875" lon="-1.15170903503894805908203125">
        <ele>951.5999755859375</ele>
        <time>2022-08-26T12:21:47.000Z</time>
      </trkpt>
      <trkpt lat="40.3499797917902469635009765625" lon="-1.15129102952778339385986328125">
        <ele>951.20001220703125</ele>
        <time>2022-08-26T12:21:54.000Z</time>
      </trkpt>
      <trkpt lat="40.34995950758457183837890625" lon="-1.15080739371478557586669921875">
        <ele>951.20001220703125</ele>
        <time>2022-08-26T12:22:01.000Z</time>
      </trkpt>
      <trkpt lat="40.34996193833649158477783203125" lon="-1.1506115086376667022705078125">
        <ele>951.4000244140625</ele>
        <time>2022-08-26T12:22:04.000Z</time>
      </trkpt>
      <trkpt lat="40.3499891795217990875244140625" lon="-1.15041310898959636688232421875">
        <ele>951.4000244140625</ele>
        <time>2022-08-26T12:22:07.000Z</time>
      </trkpt>
      <trkpt lat="40.35006889142096042633056640625" lon="-1.1498910002410411834716796875">
        <ele>951</ele>
        <time>2022-08-26T12:22:14.000Z</time>
      </trkpt>
      <trkpt lat="40.35008749924600124359130859375" lon="-1.14948187954723834991455078125">
        <ele>950.79998779296875</ele>
        <time>2022-08-26T12:22:20.000Z</time>
      </trkpt>
      <trkpt lat="40.35009252838790416717529296875" lon="-1.1494169197976589202880859375">
        <ele>950.5999755859375</ele>
        <time>2022-08-26T12:22:21.000Z</time>
      </trkpt>
      <trkpt lat="40.35012580454349517822265625" lon="-1.14890235476195812225341796875">
        <ele>950.5999755859375</ele>
        <time>2022-08-26T12:22:28.000Z</time>
      </trkpt>
      <trkpt lat="40.350150950253009796142578125" lon="-1.14846222102642059326171875">
        <ele>950.20001220703125</ele>
        <time>2022-08-26T12:22:34.000Z</time>
      </trkpt>
      <trkpt lat="40.35007542930543422698974609375" lon="-1.1479546129703521728515625">
        <ele>950</ele>
        <time>2022-08-26T12:22:41.000Z</time>
      </trkpt>
      <trkpt lat="40.35004198551177978515625" lon="-1.147832572460174560546875">
        <ele>949.79998779296875</ele>
        <time>2022-08-26T12:22:43.000Z</time>
      </trkpt>
      <trkpt lat="40.3499378822743892669677734375" lon="-1.14755270071327686309814453125">
        <ele>949.5999755859375</ele>
        <time>2022-08-26T12:22:48.000Z</time>
      </trkpt>
      <trkpt lat="40.349906869232654571533203125" lon="-1.14742496050894260406494140625">
        <ele>949.5999755859375</ele>
        <time>2022-08-26T12:22:50.000Z</time>
      </trkpt>
      <trkpt lat="40.34989069215953350067138671875" lon="-1.14720233716070652008056640625">
        <ele>949.4000244140625</ele>
        <time>2022-08-26T12:22:53.000Z</time>
      </trkpt>
      <trkpt lat="40.3498999960720539093017578125" lon="-1.14697225391864776611328125">
        <ele>949.20001220703125</ele>
        <time>2022-08-26T12:22:56.000Z</time>
      </trkpt>
      <trkpt lat="40.349934361875057220458984375" lon="-1.1468275822699069976806640625">
        <ele>949.4000244140625</ele>
        <time>2022-08-26T12:22:58.000Z</time>
      </trkpt>
      <trkpt lat="40.34997786395251750946044921875" lon="-1.14669405855238437652587890625">
        <ele>949.4000244140625</ele>
        <time>2022-08-26T12:23:00.000Z</time>
      </trkpt>
      <trkpt lat="40.35006654448807239532470703125" lon="-1.1464514024555683135986328125">
        <ele>949.20001220703125</ele>
        <time>2022-08-26T12:23:04.000Z</time>
      </trkpt>
      <trkpt lat="40.35011281259357929229736328125" lon="-1.14631502889096736907958984375">
        <ele>949</ele>
        <time>2022-08-26T12:23:06.000Z</time>
      </trkpt>
      <trkpt lat="40.35012982785701751708984375" lon="-1.1462445370852947235107421875">
        <ele>949</ele>
        <time>2022-08-26T12:23:07.000Z</time>
      </trkpt>
      <trkpt lat="40.35015589557588100433349609375" lon="-1.14609961397945880889892578125">
        <ele>948.79998779296875</ele>
        <time>2022-08-26T12:23:09.000Z</time>
      </trkpt>
      <trkpt lat="40.35028732381761074066162109375" lon="-1.14569677971303462982177734375">
        <ele>948.5999755859375</ele>
        <time>2022-08-26T12:23:15.000Z</time>
      </trkpt>
      <trkpt lat="40.35033996216952800750732421875" lon="-1.1455692909657955169677734375">
        <ele>948.5999755859375</ele>
        <time>2022-08-26T12:23:17.000Z</time>
      </trkpt>
      <trkpt lat="40.35046552307903766632080078125" lon="-1.14523242227733135223388671875">
        <ele>948.5999755859375</ele>
        <time>2022-08-26T12:23:22.000Z</time>
      </trkpt>
      <trkpt lat="40.35047985613346099853515625" lon="-1.1451652832329273223876953125">
        <ele>948.5999755859375</ele>
        <time>2022-08-26T12:23:23.000Z</time>
      </trkpt>
      <trkpt lat="40.3505068458616733551025390625" lon="-1.14490418694913387298583984375">
        <ele>948.79998779296875</ele>
        <time>2022-08-26T12:23:27.000Z</time>
      </trkpt>
      <trkpt lat="40.350532829761505126953125" lon="-1.14448928274214267730712890625">
        <ele>948.79998779296875</ele>
        <time>2022-08-26T12:23:33.000Z</time>
      </trkpt>
      <trkpt lat="40.35060801543295383453369140625" lon="-1.14402584731578826904296875">
        <ele>948.5999755859375</ele>
        <time>2022-08-26T12:23:40.000Z</time>
      </trkpt>
      <trkpt lat="40.35064321942627429962158203125" lon="-1.1435921676456928253173828125">
        <ele>948.20001220703125</ele>
        <time>2022-08-26T12:23:46.000Z</time>
      </trkpt>
      <trkpt lat="40.3506449796259403228759765625" lon="-1.143515221774578094482421875">
        <ele>948.20001220703125</ele>
        <time>2022-08-26T12:23:47.000Z</time>
      </trkpt>
      <trkpt lat="40.35063852556049823760986328125" lon="-1.14311330951750278472900390625">
        <ele>948</ele>
        <time>2022-08-26T12:23:52.000Z</time>
      </trkpt>
      <trkpt lat="40.350639112293720245361328125" lon="-1.14267309196293354034423828125">
        <ele>947.79998779296875</ele>
        <time>2022-08-26T12:23:58.000Z</time>
      </trkpt>
      <trkpt lat="40.35064238123595714569091796875" lon="-1.14247930236160755157470703125">
        <ele>947.79998779296875</ele>
        <time>2022-08-26T12:24:01.000Z</time>
      </trkpt>
      <trkpt lat="40.35064472816884517669677734375" lon="-1.142211668193340301513671875">
        <ele>947.5999755859375</ele>
        <time>2022-08-26T12:24:05.000Z</time>
      </trkpt>
      <trkpt lat="40.3506865538656711578369140625" lon="-1.14179265685379505157470703125">
        <ele>947.4000244140625</ele>
        <time>2022-08-26T12:24:12.000Z</time>
      </trkpt>
      <trkpt lat="40.3506744839251041412353515625" lon="-1.1416120268404483795166015625">
        <ele>947.5999755859375</ele>
        <time>2022-08-26T12:24:15.000Z</time>
      </trkpt>
      <trkpt lat="40.35064858384430408477783203125" lon="-1.1414266191422939300537109375">
        <ele>947.5999755859375</ele>
        <time>2022-08-26T12:24:18.000Z</time>
      </trkpt>
      <trkpt lat="40.3506226837635040283203125" lon="-1.14131790585815906524658203125">
        <ele>947.5999755859375</ele>
        <time>2022-08-26T12:24:20.000Z</time>
      </trkpt>
      <trkpt lat="40.35055587999522686004638671875" lon="-1.1411362700164318084716796875">
        <ele>947.5999755859375</ele>
        <time>2022-08-26T12:24:23.000Z</time>
      </trkpt>
      <trkpt lat="40.35045261494815349578857421875" lon="-1.1408831365406513214111328125">
        <ele>947.4000244140625</ele>
        <time>2022-08-26T12:24:27.000Z</time>
      </trkpt>
      <trkpt lat="40.350342057645320892333984375" lon="-1.14067669026553630828857421875">
        <ele>947.20001220703125</ele>
        <time>2022-08-26T12:24:30.000Z</time>
      </trkpt>
      <trkpt lat="40.3501320071518421173095703125" lon="-1.14025424234569072723388671875">
        <ele>947</ele>
        <time>2022-08-26T12:24:37.000Z</time>
      </trkpt>
      <trkpt lat="40.35008247010409832000732421875" lon="-1.1400744505226612091064453125">
        <ele>947</ele>
        <time>2022-08-26T12:24:40.000Z</time>
      </trkpt>
      <trkpt lat="40.35007417201995849609375" lon="-1.1399410106241703033447265625">
        <ele>947.20001220703125</ele>
        <time>2022-08-26T12:24:42.000Z</time>
      </trkpt>
      <trkpt lat="40.350087918341159820556640625" lon="-1.13980430178344249725341796875">
        <ele>947.5999755859375</ele>
        <time>2022-08-26T12:24:44.000Z</time>
      </trkpt>
      <trkpt lat="40.35010158084332942962646484375" lon="-1.1395074985921382904052734375">
        <ele>947.79998779296875</ele>
        <time>2022-08-26T12:24:48.000Z</time>
      </trkpt>
      <trkpt lat="40.35007408820092678070068359375" lon="-1.13884021528065204620361328125">
        <ele>947.20001220703125</ele>
        <time>2022-08-26T12:24:57.000Z</time>
      </trkpt>
      <trkpt lat="40.34997736103832721710205078125" lon="-1.13819262944161891937255859375">
        <ele>946.79998779296875</ele>
        <time>2022-08-26T12:25:05.000Z</time>
      </trkpt>
      <trkpt lat="40.3498842380940914154052734375" lon="-1.13786120899021625518798828125">
        <ele>946.5999755859375</ele>
        <time>2022-08-26T12:25:10.000Z</time>
      </trkpt>
      <trkpt lat="40.34982942044734954833984375" lon="-1.137676723301410675048828125">
        <ele>946.4000244140625</ele>
        <time>2022-08-26T12:25:13.000Z</time>
      </trkpt>
      <trkpt lat="40.34981760196387767791748046875" lon="-1.13754822872579097747802734375">
        <ele>946.5999755859375</ele>
        <time>2022-08-26T12:25:15.000Z</time>
      </trkpt>
      <trkpt lat="40.34981005825102329254150390625" lon="-1.13748067058622837066650390625">
        <ele>946.4000244140625</ele>
        <time>2022-08-26T12:25:16.000Z</time>
      </trkpt>
      <trkpt lat="40.34975540824234485626220703125" lon="-1.1371977813541889190673828125">
        <ele>946.20001220703125</ele>
        <time>2022-08-26T12:25:20.000Z</time>
      </trkpt>
      <trkpt lat="40.34968382678925991058349609375" lon="-1.1367521993815898895263671875">
        <ele>946</ele>
        <time>2022-08-26T12:25:27.000Z</time>
      </trkpt>
      <trkpt lat="40.34966471605002880096435546875" lon="-1.136487163603305816650390625">
        <ele>945.79998779296875</ele>
        <time>2022-08-26T12:25:32.000Z</time>
      </trkpt>
      <trkpt lat="40.34965574741363525390625" lon="-1.13637962378561496734619140625">
        <ele>946</ele>
        <time>2022-08-26T12:25:34.000Z</time>
      </trkpt>
      <trkpt lat="40.34964644350111484527587890625" lon="-1.13627803511917591094970703125">
        <ele>945.79998779296875</ele>
        <time>2022-08-26T12:25:36.000Z</time>
      </trkpt>
      <trkpt lat="40.349610485136508941650390625" lon="-1.13578853197395801544189453125">
        <ele>945.5999755859375</ele>
        <time>2022-08-26T12:25:45.000Z</time>
      </trkpt>
      <trkpt lat="40.34961350262165069580078125" lon="-1.13572298549115657806396484375">
        <ele>945.5999755859375</ele>
        <time>2022-08-26T12:25:46.000Z</time>
      </trkpt>
      <trkpt lat="40.34964703023433685302734375" lon="-1.13544906489551067352294921875">
        <ele>945.5999755859375</ele>
        <time>2022-08-26T12:25:50.000Z</time>
      </trkpt>
      <trkpt lat="40.34964677877724170684814453125" lon="-1.13538444042205810546875">
        <ele>945.4000244140625</ele>
        <time>2022-08-26T12:25:51.000Z</time>
      </trkpt>
      <trkpt lat="40.3496394865214824676513671875" lon="-1.1352508328855037689208984375">
        <ele>945.5999755859375</ele>
        <time>2022-08-26T12:25:53.000Z</time>
      </trkpt>
      <trkpt lat="40.34962582401931285858154296875" lon="-1.135125271975994110107421875">
        <ele>945.5999755859375</ele>
        <time>2022-08-26T12:25:55.000Z</time>
      </trkpt>
      <trkpt lat="40.34960051067173480987548828125" lon="-1.1347023211419582366943359375">
        <ele>945.4000244140625</ele>
        <time>2022-08-26T12:26:01.000Z</time>
      </trkpt>
      <trkpt lat="40.34958994947373867034912109375" lon="-1.13463233225047588348388671875">
        <ele>945.4000244140625</ele>
        <time>2022-08-26T12:26:02.000Z</time>
      </trkpt>
      <trkpt lat="40.34952742047607898712158203125" lon="-1.13438003696501255035400390625">
        <ele>945.20001220703125</ele>
        <time>2022-08-26T12:26:06.000Z</time>
      </trkpt>
      <trkpt lat="40.34943337552249431610107421875" lon="-1.1340317688882350921630859375">
        <ele>945.20001220703125</ele>
        <time>2022-08-26T12:26:11.000Z</time>
      </trkpt>
      <trkpt lat="40.349379815161228179931640625" lon="-1.1338168568909168243408203125">
        <ele>945</ele>
        <time>2022-08-26T12:26:14.000Z</time>
      </trkpt>
      <trkpt lat="40.34928023815155029296875" lon="-1.1333568580448627471923828125">
        <ele>945</ele>
        <time>2022-08-26T12:26:21.000Z</time>
      </trkpt>
      <trkpt lat="40.3491506539285182952880859375" lon="-1.13289208151400089263916015625">
        <ele>944.79998779296875</ele>
        <time>2022-08-26T12:26:28.000Z</time>
      </trkpt>
      <trkpt lat="40.3490470536053180694580078125" lon="-1.13239788450300693511962890625">
        <ele>944.5999755859375</ele>
        <time>2022-08-26T12:26:35.000Z</time>
      </trkpt>
      <trkpt lat="40.34890280105173587799072265625" lon="-1.1319158412516117095947265625">
        <ele>944.5999755859375</ele>
        <time>2022-08-26T12:26:42.000Z</time>
      </trkpt>
      <trkpt lat="40.34884513355791568756103515625" lon="-1.13169162534177303314208984375">
        <ele>944.4000244140625</ele>
        <time>2022-08-26T12:26:45.000Z</time>
      </trkpt>
      <trkpt lat="40.34874689765274524688720703125" lon="-1.13130488432943820953369140625">
        <ele>944</ele>
        <time>2022-08-26T12:26:50.000Z</time>
      </trkpt>
      <trkpt lat="40.34871202893555164337158203125" lon="-1.13090925849974155426025390625">
        <ele>943.79998779296875</ele>
        <time>2022-08-26T12:26:55.000Z</time>
      </trkpt>
      <trkpt lat="40.3487070836126804351806640625" lon="-1.13068185746669769287109375">
        <ele>943.4000244140625</ele>
        <time>2022-08-26T12:26:58.000Z</time>
      </trkpt>
      <trkpt lat="40.3487258590757846832275390625" lon="-1.13040165044367313385009765625">
        <ele>943.20001220703125</ele>
        <time>2022-08-26T12:27:02.000Z</time>
      </trkpt>
      <trkpt lat="40.34875377081334590911865234375" lon="-1.13020366989076137542724609375">
        <ele>943.20001220703125</ele>
        <time>2022-08-26T12:27:05.000Z</time>
      </trkpt>
      <trkpt lat="40.34881864674389362335205078125" lon="-1.13000594079494476318359375">
        <ele>943</ele>
        <time>2022-08-26T12:27:08.000Z</time>
      </trkpt>
      <trkpt lat="40.34900388680398464202880859375" lon="-1.12946924753487110137939453125">
        <ele>943</ele>
        <time>2022-08-26T12:27:16.000Z</time>
      </trkpt>
      <trkpt lat="40.34904445521533489227294921875" lon="-1.12928082235157489776611328125">
        <ele>942.79998779296875</ele>
        <time>2022-08-26T12:27:19.000Z</time>
      </trkpt>
      <trkpt lat="40.3490554355084896087646484375" lon="-1.12915459088981151580810546875">
        <ele>942.79998779296875</ele>
        <time>2022-08-26T12:27:21.000Z</time>
      </trkpt>
      <trkpt lat="40.34908468835055828094482421875" lon="-1.128965578973293304443359375">
        <ele>942.5999755859375</ele>
        <time>2022-08-26T12:27:24.000Z</time>
      </trkpt>
      <trkpt lat="40.34915995784103870391845703125" lon="-1.1286371760070323944091796875">
        <ele>942.79998779296875</ele>
        <time>2022-08-26T12:27:29.000Z</time>
      </trkpt>
      <trkpt lat="40.34925299696624279022216796875" lon="-1.12809763289988040924072265625">
        <ele>942.79998779296875</ele>
        <time>2022-08-26T12:27:37.000Z</time>
      </trkpt>
      <trkpt lat="40.3493486344814300537109375" lon="-1.127498410642147064208984375">
        <ele>942.79998779296875</ele>
        <time>2022-08-26T12:27:45.000Z</time>
      </trkpt>
      <trkpt lat="40.34943622536957263946533203125" lon="-1.1270345561206340789794921875">
        <ele>942.5999755859375</ele>
        <time>2022-08-26T12:27:52.000Z</time>
      </trkpt>
      <trkpt lat="40.349432788789272308349609375" lon="-1.1266748048365116119384765625">
        <ele>942.5999755859375</ele>
        <time>2022-08-26T12:27:57.000Z</time>
      </trkpt>
      <trkpt lat="40.34940253011882305145263671875" lon="-1.12620751373469829559326171875">
        <ele>942.79998779296875</ele>
        <time>2022-08-26T12:28:04.000Z</time>
      </trkpt>
      <trkpt lat="40.34938174299895763397216796875" lon="-1.12586955539882183074951171875">
        <ele>943</ele>
        <time>2022-08-26T12:28:10.000Z</time>
      </trkpt>
      <trkpt lat="40.3493732772767543792724609375" lon="-1.1257387138903141021728515625">
        <ele>943</ele>
        <time>2022-08-26T12:28:13.000Z</time>
      </trkpt>
      <trkpt lat="40.34937336109578609466552734375" lon="-1.12559764645993709564208984375">
        <ele>943</ele>
        <time>2022-08-26T12:28:15.000Z</time>
      </trkpt>
      <trkpt lat="40.34939565695822238922119140625" lon="-1.12522599287331104278564453125">
        <ele>943</ele>
        <time>2022-08-26T12:28:20.000Z</time>
      </trkpt>
      <trkpt lat="40.34940035082399845123291015625" lon="-1.12507998012006282806396484375">
        <ele>943</ele>
        <time>2022-08-26T12:28:22.000Z</time>
      </trkpt>
      <trkpt lat="40.3494272567331790924072265625" lon="-1.1245870403945446014404296875">
        <ele>943</ele>
        <time>2022-08-26T12:28:29.000Z</time>
      </trkpt>
      <trkpt lat="40.34946438856422901153564453125" lon="-1.1241200007498264312744140625">
        <ele>943.20001220703125</ele>
        <time>2022-08-26T12:28:36.000Z</time>
      </trkpt>
      <trkpt lat="40.34946857951581478118896484375" lon="-1.12379922531545162200927734375">
        <ele>943.5999755859375</ele>
        <time>2022-08-26T12:28:42.000Z</time>
      </trkpt>
      <trkpt lat="40.34947335720062255859375" lon="-1.12351960502564907073974609375">
        <ele>944.20001220703125</ele>
        <time>2022-08-26T12:28:48.000Z</time>
      </trkpt>
      <trkpt lat="40.34947914071381092071533203125" lon="-1.12339354120194911956787109375">
        <ele>944.4000244140625</ele>
        <time>2022-08-26T12:28:51.000Z</time>
      </trkpt>
      <trkpt lat="40.34948877990245819091796875" lon="-1.12310587428510189056396484375">
        <ele>945.4000244140625</ele>
        <time>2022-08-26T12:28:58.000Z</time>
      </trkpt>
      <trkpt lat="40.34949238412082195281982421875" lon="-1.12306647934019565582275390625">
        <ele>945.5999755859375</ele>
        <time>2022-08-26T12:28:59.000Z</time>
      </trkpt>
      <trkpt lat="40.34945399500429630279541015625" lon="-1.12288559786975383758544921875">
        <ele>946.5999755859375</ele>
        <time>2022-08-26T12:29:03.000Z</time>
      </trkpt>
      <trkpt lat="40.34932374022901058197021484375" lon="-1.1224684305489063262939453125">
        <ele>947.4000244140625</ele>
        <time>2022-08-26T12:29:10.000Z</time>
      </trkpt>
      <trkpt lat="40.34914202056825160980224609375" lon="-1.121872477233409881591796875">
        <ele>947</ele>
        <time>2022-08-26T12:29:19.000Z</time>
      </trkpt>
      <trkpt lat="40.34891587682068347930908203125" lon="-1.1211873404681682586669921875">
        <ele>946</ele>
        <time>2022-08-26T12:29:28.000Z</time>
      </trkpt>
      <trkpt lat="40.3488894738256931304931640625" lon="-1.1211097240447998046875">
        <ele>945.79998779296875</ele>
        <time>2022-08-26T12:29:29.000Z</time>
      </trkpt>
      <trkpt lat="40.34872376359999179840087890625" lon="-1.1206488870084285736083984375">
        <ele>944.79998779296875</ele>
        <time>2022-08-26T12:29:35.000Z</time>
      </trkpt>
      <trkpt lat="40.34864061512053012847900390625" lon="-1.1204259283840656280517578125">
        <ele>944.20001220703125</ele>
        <time>2022-08-26T12:29:38.000Z</time>
      </trkpt>
      <trkpt lat="40.3484941832721233367919921875" lon="-1.12003306858241558074951171875">
        <ele>943.5999755859375</ele>
        <time>2022-08-26T12:29:43.000Z</time>
      </trkpt>
      <trkpt lat="40.34842704422771930694580078125" lon="-1.11985939554870128631591796875">
        <ele>943.4000244140625</ele>
        <time>2022-08-26T12:29:45.000Z</time>
      </trkpt>
      <trkpt lat="40.34823861904442310333251953125" lon="-1.119368635118007659912109375">
        <ele>942.79998779296875</ele>
        <time>2022-08-26T12:29:50.000Z</time>
      </trkpt>
      <trkpt lat="40.34819704480469226837158203125" lon="-1.1192631907761096954345703125">
        <ele>942.5999755859375</ele>
        <time>2022-08-26T12:29:51.000Z</time>
      </trkpt>
      <trkpt lat="40.348025299608707427978515625" lon="-1.1188445985317230224609375">
        <ele>941.5999755859375</ele>
        <time>2022-08-26T12:29:55.000Z</time>
      </trkpt>
      <trkpt lat="40.3479460068047046661376953125" lon="-1.118649803102016448974609375">
        <ele>940.79998779296875</ele>
        <time>2022-08-26T12:29:57.000Z</time>
      </trkpt>
      <trkpt lat="40.347874425351619720458984375" lon="-1.11846565268933773040771484375">
        <ele>940</ele>
        <time>2022-08-26T12:29:59.000Z</time>
      </trkpt>
      <trkpt lat="40.34769681282341480255126953125" lon="-1.11801571212708950042724609375">
        <ele>939.5999755859375</ele>
        <time>2022-08-26T12:30:04.000Z</time>
      </trkpt>
      <trkpt lat="40.347481481730937957763671875" lon="-1.11760340631008148193359375">
        <ele>941</ele>
        <time>2022-08-26T12:30:10.000Z</time>
      </trkpt>
      <trkpt lat="40.34744066186249256134033203125" lon="-1.11754096113145351409912109375">
        <ele>941.4000244140625</ele>
        <time>2022-08-26T12:30:11.000Z</time>
      </trkpt>
      <trkpt lat="40.34711091779172420501708984375" lon="-1.1170607618987560272216796875">
        <ele>941.79998779296875</ele>
        <time>2022-08-26T12:30:19.000Z</time>
      </trkpt>
      <trkpt lat="40.34675200469791889190673828125" lon="-1.1164505593478679656982421875">
        <ele>941.79998779296875</ele>
        <time>2022-08-26T12:30:28.000Z</time>
      </trkpt>
      <trkpt lat="40.34671344794332981109619140625" lon="-1.11638442613184452056884765625">
        <ele>941.5999755859375</ele>
        <time>2022-08-26T12:30:29.000Z</time>
      </trkpt>
      <trkpt lat="40.34635202027857303619384765625" lon="-1.11585703678429126739501953125">
        <ele>940.79998779296875</ele>
        <time>2022-08-26T12:30:38.000Z</time>
      </trkpt>
      <trkpt lat="40.3463165648281574249267578125" lon="-1.1157930828630924224853515625">
        <ele>940.79998779296875</ele>
        <time>2022-08-26T12:30:39.000Z</time>
      </trkpt>
      <trkpt lat="40.34612554125487804412841796875" lon="-1.11547482199966907501220703125">
        <ele>940.5999755859375</ele>
        <time>2022-08-26T12:30:44.000Z</time>
      </trkpt>
      <trkpt lat="40.3460044227540493011474609375" lon="-1.115290336310863494873046875">
        <ele>940.4000244140625</ele>
        <time>2022-08-26T12:30:47.000Z</time>
      </trkpt>
      <trkpt lat="40.3457410633563995361328125" lon="-1.11489093862473964691162109375">
        <ele>940.20001220703125</ele>
        <time>2022-08-26T12:30:54.000Z</time>
      </trkpt>
      <trkpt lat="40.34558373503386974334716796875" lon="-1.11465574242174625396728515625">
        <ele>939.79998779296875</ele>
        <time>2022-08-26T12:30:58.000Z</time>
      </trkpt>
      <trkpt lat="40.345386005938053131103515625" lon="-1.11434527672827243804931640625">
        <ele>939.5999755859375</ele>
        <time>2022-08-26T12:31:03.000Z</time>
      </trkpt>
      <trkpt lat="40.3450656495988368988037109375" lon="-1.11383532173931598663330078125">
        <ele>939.20001220703125</ele>
        <time>2022-08-26T12:31:11.000Z</time>
      </trkpt>
      <trkpt lat="40.344799272716045379638671875" lon="-1.11341605894267559051513671875">
        <ele>939.20001220703125</ele>
        <time>2022-08-26T12:31:18.000Z</time>
      </trkpt>
      <trkpt lat="40.34465317614376544952392578125" lon="-1.113187484443187713623046875">
        <ele>938.79998779296875</ele>
        <time>2022-08-26T12:31:22.000Z</time>
      </trkpt>
      <trkpt lat="40.34450364299118518829345703125" lon="-1.1129509471356868743896484375">
        <ele>938.79998779296875</ele>
        <time>2022-08-26T12:31:26.000Z</time>
      </trkpt>
      <trkpt lat="40.34424430690705776214599609375" lon="-1.11251450143754482269287109375">
        <ele>938.5999755859375</ele>
        <time>2022-08-26T12:31:34.000Z</time>
      </trkpt>
      <trkpt lat="40.34410114400088787078857421875" lon="-1.11220152117311954498291015625">
        <ele>938.79998779296875</ele>
        <time>2022-08-26T12:31:40.000Z</time>
      </trkpt>
      <trkpt lat="40.34395127557218074798583984375" lon="-1.11179097555577754974365234375">
        <ele>939.5999755859375</ele>
        <time>2022-08-26T12:31:48.000Z</time>
      </trkpt>
      <trkpt lat="40.34388472326099872589111328125" lon="-1.11160405911505222320556640625">
        <ele>940</ele>
        <time>2022-08-26T12:31:52.000Z</time>
      </trkpt>
      <trkpt lat="40.34382797777652740478515625" lon="-1.1114710383117198944091796875">
        <ele>940.5999755859375</ele>
        <time>2022-08-26T12:31:55.000Z</time>
      </trkpt>
      <trkpt lat="40.34377994947135448455810546875" lon="-1.11139015294611454010009765625">
        <ele>941</ele>
        <time>2022-08-26T12:31:57.000Z</time>
      </trkpt>
      <trkpt lat="40.343727059662342071533203125" lon="-1.111311949789524078369140625">
        <ele>941.4000244140625</ele>
        <time>2022-08-26T12:31:59.000Z</time>
      </trkpt>
      <trkpt lat="40.34365857951343059539794921875" lon="-1.111263670027256011962890625">
        <ele>941.79998779296875</ele>
        <time>2022-08-26T12:32:01.000Z</time>
      </trkpt>
      <trkpt lat="40.343582890927791595458984375" lon="-1.111225448548793792724609375">
        <ele>942</ele>
        <time>2022-08-26T12:32:03.000Z</time>
      </trkpt>
      <trkpt lat="40.34341433085501194000244140625" lon="-1.1111257039010524749755859375">
        <ele>943.20001220703125</ele>
        <time>2022-08-26T12:32:07.000Z</time>
      </trkpt>
      <trkpt lat="40.34337191842496395111083984375" lon="-1.1110948584973812103271484375">
        <ele>943.20001220703125</ele>
        <time>2022-08-26T12:32:08.000Z</time>
      </trkpt>
      <trkpt lat="40.34314124844968318939208984375" lon="-1.110881455242633819580078125">
        <ele>943.4000244140625</ele>
        <time>2022-08-26T12:32:12.000Z</time>
      </trkpt>
      <trkpt lat="40.342771522700786590576171875" lon="-1.1106258071959018707275390625">
        <ele>943</ele>
        <time>2022-08-26T12:32:17.000Z</time>
      </trkpt>
      <trkpt lat="40.34255149774253368377685546875" lon="-1.11047468148171901702880859375">
        <ele>942.20001220703125</ele>
        <time>2022-08-26T12:32:20.000Z</time>
      </trkpt>
      <trkpt lat="40.34234211780130863189697265625" lon="-1.11034325323998928070068359375">
        <ele>941</ele>
        <time>2022-08-26T12:32:23.000Z</time>
      </trkpt>
      <trkpt lat="40.34227606840431690216064453125" lon="-1.1103052832186222076416015625">
        <ele>940.4000244140625</ele>
        <time>2022-08-26T12:32:24.000Z</time>
      </trkpt>
      <trkpt lat="40.34214279614388942718505859375" lon="-1.11025071702897548675537109375">
        <ele>940</ele>
        <time>2022-08-26T12:32:26.000Z</time>
      </trkpt>
      <trkpt lat="40.34194012172520160675048828125" lon="-1.1101842485368251800537109375">
        <ele>939.5999755859375</ele>
        <time>2022-08-26T12:32:29.000Z</time>
      </trkpt>
      <trkpt lat="40.34187055192887783050537109375" lon="-1.11016589216887950897216796875">
        <ele>939.5999755859375</ele>
        <time>2022-08-26T12:32:30.000Z</time>
      </trkpt>
      <trkpt lat="40.33412433229386806488037109375" lon="-1.10746792517602443695068359375">
        <ele>912.5999755859375</ele>
        <time>2022-08-26T14:05:57.000Z</time>
      </trkpt>
      <trkpt lat="40.33393238671123981475830078125" lon="-1.107567250728607177734375">
        <ele>912.79998779296875</ele>
        <time>2022-08-26T14:06:03.000Z</time>
      </trkpt>
      <trkpt lat="40.33369216136634349822998046875" lon="-1.10770865343511104583740234375">
        <ele>912.79998779296875</ele>
        <time>2022-08-26T14:06:10.000Z</time>
      </trkpt>
      <trkpt lat="40.333426035940647125244140625" lon="-1.1078376509249210357666015625">
        <ele>912.79998779296875</ele>
        <time>2022-08-26T14:06:16.000Z</time>
      </trkpt>
      <trkpt lat="40.3331304900348186492919921875" lon="-1.10800051130354404449462890625">
        <ele>912.79998779296875</ele>
        <time>2022-08-26T14:06:23.000Z</time>
      </trkpt>
      <trkpt lat="40.33308262936770915985107421875" lon="-1.10802255570888519287109375">
        <ele>912.79998779296875</ele>
        <time>2022-08-26T14:06:24.000Z</time>
      </trkpt>
      <trkpt lat="40.33285908401012420654296875" lon="-1.1080663092434406280517578125">
        <ele>912.5999755859375</ele>
        <time>2022-08-26T14:06:29.000Z</time>
      </trkpt>
      <trkpt lat="40.33262095414102077484130859375" lon="-1.1081678979098796844482421875">
        <ele>912.4000244140625</ele>
        <time>2022-08-26T14:06:37.000Z</time>
      </trkpt>
      <trkpt lat="40.33248416148126125335693359375" lon="-1.10829303972423076629638671875">
        <ele>911.79998779296875</ele>
        <time>2022-08-26T14:06:43.000Z</time>
      </trkpt>
      <trkpt lat="40.33223471604287624359130859375" lon="-1.10836763866245746612548828125">
        <ele>911.5999755859375</ele>
        <time>2022-08-26T14:06:49.000Z</time>
      </trkpt>
      <trkpt lat="40.33203690312802791595458984375" lon="-1.1083303391933441162109375">
        <ele>911.5999755859375</ele>
        <time>2022-08-26T14:06:52.000Z</time>
      </trkpt>
      <trkpt lat="40.331965573132038116455078125" lon="-1.10829739831387996673583984375">
        <ele>911.5999755859375</ele>
        <time>2022-08-26T14:06:53.000Z</time>
      </trkpt>
      <trkpt lat="40.3318480588495731353759765625" lon="-1.10824115574359893798828125">
        <ele>911.4000244140625</ele>
        <time>2022-08-26T14:06:55.000Z</time>
      </trkpt>
      <trkpt lat="40.331785194575786590576171875" lon="-1.10815490595996379852294921875">
        <ele>911.4000244140625</ele>
        <time>2022-08-26T14:06:57.000Z</time>
      </trkpt>
      <trkpt lat="40.3317716158926486968994140625" lon="-1.1080696620047092437744140625">
        <ele>911.4000244140625</ele>
        <time>2022-08-26T14:06:59.000Z</time>
      </trkpt>
      <trkpt lat="40.33178293146193027496337890625" lon="-1.107982657849788665771484375">
        <ele>911.4000244140625</ele>
        <time>2022-08-26T14:07:01.000Z</time>
      </trkpt>
      <trkpt lat="40.3317763097584247589111328125" lon="-1.107829771935939788818359375">
        <ele>911.4000244140625</ele>
        <time>2022-08-26T14:07:04.000Z</time>
      </trkpt>
      <trkpt lat="40.33177069388329982757568359375" lon="-1.1075928993523120880126953125">
        <ele>912</ele>
        <time>2022-08-26T14:07:10.000Z</time>
      </trkpt>
      <trkpt lat="40.33175694756209850311279296875" lon="-1.10743875615298748016357421875">
        <ele>912.20001220703125</ele>
        <time>2022-08-26T14:07:14.000Z</time>
      </trkpt>
      <trkpt lat="40.33169207163155078887939453125" lon="-1.10712979920208454132080078125">
        <ele>912.4000244140625</ele>
        <time>2022-08-26T14:07:21.000Z</time>
      </trkpt>
      <trkpt lat="40.33163205720484256744384765625" lon="-1.10681556165218353271484375">
        <ele>912.5999755859375</ele>
        <time>2022-08-26T14:07:28.000Z</time>
      </trkpt>
      <trkpt lat="40.3316039778292179107666015625" lon="-1.10665320418775081634521484375">
        <ele>912.79998779296875</ele>
        <time>2022-08-26T14:07:32.000Z</time>
      </trkpt>
      <trkpt lat="40.3315667621791362762451171875" lon="-1.10644851811230182647705078125">
        <ele>914</ele>
        <time>2022-08-26T14:07:38.000Z</time>
      </trkpt>
      <trkpt lat="40.3314846195280551910400390625" lon="-1.10610670410096645355224609375">
        <ele>915</ele>
        <time>2022-08-26T14:07:48.000Z</time>
      </trkpt>
      <trkpt lat="40.3314584679901599884033203125" lon="-1.10605305992066860198974609375">
        <ele>915.20001220703125</ele>
        <time>2022-08-26T14:07:51.000Z</time>
      </trkpt>
      <trkpt lat="40.3314584679901599884033203125" lon="-1.10605305992066860198974609375">
        <ele>915.4000244140625</ele>
        <time>2022-08-26T14:07:52.000Z</time>
      </trkpt>
      <trkpt lat="40.33130147494375705718994140625" lon="-1.106115169823169708251953125">
        <ele>915.79998779296875</ele>
        <time>2022-08-26T14:07:56.000Z</time>
      </trkpt>
      <trkpt lat="40.33123961649835109710693359375" lon="-1.10616889782249927520751953125">
        <ele>916.20001220703125</ele>
        <time>2022-08-26T14:07:58.000Z</time>
      </trkpt>
      <trkpt lat="40.33111070282757282257080078125" lon="-1.10629429109394550323486328125">
        <ele>916.4000244140625</ele>
        <time>2022-08-26T14:08:02.000Z</time>
      </trkpt>
      <trkpt lat="40.33087215386331081390380859375" lon="-1.10653803683817386627197265625">
        <ele>916.4000244140625</ele>
        <time>2022-08-26T14:08:08.000Z</time>
      </trkpt>
      <trkpt lat="40.33059538342058658599853515625" lon="-1.1068713851273059844970703125">
        <ele>915.5999755859375</ele>
        <time>2022-08-26T14:08:13.000Z</time>
      </trkpt>
      <trkpt lat="40.33053972758352756500244140625" lon="-1.10694053582847118377685546875">
        <ele>915.20001220703125</ele>
        <time>2022-08-26T14:08:14.000Z</time>
      </trkpt>
      <trkpt lat="40.3302370570600032806396484375" lon="-1.1072988621890544891357421875">
        <ele>914.20001220703125</ele>
        <time>2022-08-26T14:08:19.000Z</time>
      </trkpt>
      <trkpt lat="40.32999624498188495635986328125" lon="-1.1075151152908802032470703125">
        <ele>913</ele>
        <time>2022-08-26T14:08:22.000Z</time>
      </trkpt>
      <trkpt lat="40.32985677011311054229736328125" lon="-1.10762827098369598388671875">
        <ele>912.20001220703125</ele>
        <time>2022-08-26T14:08:24.000Z</time>
      </trkpt>
      <trkpt lat="40.32979667186737060546875" lon="-1.10767663456499576568603515625">
        <ele>911.79998779296875</ele>
        <time>2022-08-26T14:08:25.000Z</time>
      </trkpt>
      <trkpt lat="40.3296184726059436798095703125" lon="-1.107857935130596160888671875">
        <ele>911</ele>
        <time>2022-08-26T14:08:29.000Z</time>
      </trkpt>
      <trkpt lat="40.32957564108073711395263671875" lon="-1.10788869671523571014404296875">
        <ele>910.79998779296875</ele>
        <time>2022-08-26T14:08:30.000Z</time>
      </trkpt>
      <trkpt lat="40.32948662526905536651611328125" lon="-1.10791937448084354400634765625">
        <ele>910.20001220703125</ele>
        <time>2022-08-26T14:08:33.000Z</time>
      </trkpt>
      <trkpt lat="40.32944790087640285491943359375" lon="-1.10792892985045909881591796875">
        <ele>910.20001220703125</ele>
        <time>2022-08-26T14:08:34.000Z</time>
      </trkpt>
      <trkpt lat="40.32933063805103302001953125" lon="-1.1077876947820186614990234375">
        <ele>909.79998779296875</ele>
        <time>2022-08-26T14:08:38.000Z</time>
      </trkpt>
      <trkpt lat="40.329306833446025848388671875" lon="-1.10769423656165599822998046875">
        <ele>909.5999755859375</ele>
        <time>2022-08-26T14:08:40.000Z</time>
      </trkpt>
      <trkpt lat="40.3292588889598846435546875" lon="-1.10757370479404926300048828125">
        <ele>909.5999755859375</ele>
        <time>2022-08-26T14:08:43.000Z</time>
      </trkpt>
      <trkpt lat="40.3291779197752475738525390625" lon="-1.107517294585704803466796875">
        <ele>909.4000244140625</ele>
        <time>2022-08-26T14:08:47.000Z</time>
      </trkpt>
      <trkpt lat="40.32917750068008899688720703125" lon="-1.107518635690212249755859375">
        <ele>909.4000244140625</ele>
        <time>2022-08-26T14:08:48.000Z</time>
      </trkpt>
      <trkpt lat="40.329059064388275146484375" lon="-1.10736432485282421112060546875">
        <ele>909.20001220703125</ele>
        <time>2022-08-26T14:10:15.000Z</time>
      </trkpt>
      <trkpt lat="40.32903634943068027496337890625" lon="-1.10726474784314632415771484375">
        <ele>909.20001220703125</ele>
        <time>2022-08-26T14:10:17.000Z</time>
      </trkpt>
      <trkpt lat="40.32899728976190090179443359375" lon="-1.10697783529758453369140625">
        <ele>909.79998779296875</ele>
        <time>2022-08-26T14:10:24.000Z</time>
      </trkpt>
      <trkpt lat="40.3289933502674102783203125" lon="-1.10693533904850482940673828125">
        <ele>910</ele>
        <time>2022-08-26T14:10:25.000Z</time>
      </trkpt>
      <trkpt lat="40.328972227871417999267578125" lon="-1.1067188344895839691162109375">
        <ele>910.79998779296875</ele>
        <time>2022-08-26T14:10:31.000Z</time>
      </trkpt>
      <trkpt lat="40.3289388678967952728271484375" lon="-1.10668555833399295806884765625">
        <ele>911</ele>
        <time>2022-08-26T14:10:32.000Z</time>
      </trkpt>
      <trkpt lat="40.328829400241374969482421875" lon="-1.10657357610762119293212890625">
        <ele>911.5999755859375</ele>
        <time>2022-08-26T14:10:36.000Z</time>
      </trkpt>
      <trkpt lat="40.32868087291717529296875" lon="-1.10642923973500728607177734375">
        <ele>912.4000244140625</ele>
        <time>2022-08-26T14:10:42.000Z</time>
      </trkpt>
      <trkpt lat="40.32863058149814605712890625" lon="-1.10639856196939945220947265625">
        <ele>912.5999755859375</ele>
        <time>2022-08-26T14:10:44.000Z</time>
      </trkpt>
      <trkpt lat="40.3284842334687709808349609375" lon="-1.10622840933501720428466796875">
        <ele>912.79998779296875</ele>
        <time>2022-08-26T14:10:52.000Z</time>
      </trkpt>
      <trkpt lat="40.32851658761501312255859375" lon="-1.10611827112734317779541015625">
        <ele>913</ele>
        <time>2022-08-26T14:10:57.000Z</time>
      </trkpt>
      <trkpt lat="40.3285328485071659088134765625" lon="-1.1061099730432033538818359375">
        <ele>913</ele>
        <time>2022-08-26T14:11:00.000Z</time>
      </trkpt>
      <trkpt lat="40.3284756839275360107421875" lon="-1.1061170138418674468994140625">
        <ele>913.20001220703125</ele>
        <time>2022-08-26T14:11:32.000Z</time>
      </trkpt>
      <trkpt lat="40.32846000976860523223876953125" lon="-1.10609471797943115234375">
        <ele>913.20001220703125</ele>
        <time>2022-08-26T14:11:33.000Z</time>
      </trkpt>
      <trkpt lat="40.32839949242770671844482421875" lon="-1.10599338077008724212646484375">
        <ele>913.4000244140625</ele>
        <time>2022-08-26T14:11:36.000Z</time>
      </trkpt>
      <trkpt lat="40.3283115662634372711181640625" lon="-1.10587150789797306060791015625">
        <ele>913.4000244140625</ele>
        <time>2022-08-26T14:11:39.000Z</time>
      </trkpt>
      <trkpt lat="40.32820285297930240631103515625" lon="-1.1057039536535739898681640625">
        <ele>913.5999755859375</ele>
        <time>2022-08-26T14:11:43.000Z</time>
      </trkpt>
      <trkpt lat="40.32803873531520366668701171875" lon="-1.105476804077625274658203125">
        <ele>913.79998779296875</ele>
        <time>2022-08-26T14:11:49.000Z</time>
      </trkpt>
      <trkpt lat="40.327842347323894500732421875" lon="-1.10519860871136188507080078125">
        <ele>914</ele>
        <time>2022-08-26T14:11:57.000Z</time>
      </trkpt>
      <trkpt lat="40.32777906395494937896728515625" lon="-1.10488613136112689971923828125">
        <ele>914.5999755859375</ele>
        <time>2022-08-26T14:12:03.000Z</time>
      </trkpt>
      <trkpt lat="40.32777906395494937896728515625" lon="-1.10488613136112689971923828125">
        <ele>914.5999755859375</ele>
        <time>2022-08-26T14:12:04.000Z</time>
      </trkpt>
      <trkpt lat="40.32779398374259471893310546875" lon="-1.104279197752475738525390625">
        <ele>915.4000244140625</ele>
        <time>2022-08-26T14:12:17.000Z</time>
      </trkpt>
      <trkpt lat="40.3277426026761531829833984375" lon="-1.103967390954494476318359375">
        <ele>915.79998779296875</ele>
        <time>2022-08-26T14:12:24.000Z</time>
      </trkpt>
      <trkpt lat="40.3275384195148944854736328125" lon="-1.10366086475551128387451171875">
        <ele>916.5999755859375</ele>
        <time>2022-08-26T14:12:32.000Z</time>
      </trkpt>
      <trkpt lat="40.3274475596845149993896484375" lon="-1.10333413816988468170166015625">
        <ele>916.5999755859375</ele>
        <time>2022-08-26T14:12:38.000Z</time>
      </trkpt>
      <trkpt lat="40.32748754136264324188232421875" lon="-1.10308670438826084136962890625">
        <ele>916.79998779296875</ele>
        <time>2022-08-26T14:12:44.000Z</time>
      </trkpt>
      <trkpt lat="40.3275280259549617767333984375" lon="-1.10300053842365741729736328125">
        <ele>916.79998779296875</ele>
        <time>2022-08-26T14:12:46.000Z</time>
      </trkpt>
      <trkpt lat="40.32763673923909664154052734375" lon="-1.1028661765158176422119140625">
        <ele>917</ele>
        <time>2022-08-26T14:12:50.000Z</time>
      </trkpt>
      <trkpt lat="40.32797880470752716064453125" lon="-1.10255612991750240325927734375">
        <ele>917.79998779296875</ele>
        <time>2022-08-26T14:13:01.000Z</time>
      </trkpt>
      <trkpt lat="40.32799749635159969329833984375" lon="-1.1022871546447277069091796875">
        <ele>917.79998779296875</ele>
        <time>2022-08-26T14:13:06.000Z</time>
      </trkpt>
      <trkpt lat="40.3280068002641201019287109375" lon="-1.1018177680671215057373046875">
        <ele>918.20001220703125</ele>
        <time>2022-08-26T14:13:15.000Z</time>
      </trkpt>
      <trkpt lat="40.3280473686754703521728515625" lon="-1.10157678835093975067138671875">
        <ele>918.4000244140625</ele>
        <time>2022-08-26T14:13:22.000Z</time>
      </trkpt>
      <trkpt lat="40.3280733525753021240234375" lon="-1.10133673064410686492919921875">
        <ele>918.79998779296875</ele>
        <time>2022-08-26T14:13:28.000Z</time>
      </trkpt>
      <trkpt lat="40.32798207364976406097412109375" lon="-1.10098569653928279876708984375">
        <ele>918.79998779296875</ele>
        <time>2022-08-26T14:13:36.000Z</time>
      </trkpt>
      <trkpt lat="40.32783891074359416961669921875" lon="-1.10063348896801471710205078125">
        <ele>919</ele>
        <time>2022-08-26T14:13:43.000Z</time>
      </trkpt>
      <trkpt lat="40.32754638232290744781494140625" lon="-1.100137196481227874755859375">
        <ele>918.4000244140625</ele>
        <time>2022-08-26T14:13:54.000Z</time>
      </trkpt>
      <trkpt lat="40.32718663103878498077392578125" lon="-1.09957535751163959503173828125">
        <ele>918</ele>
        <time>2022-08-26T14:14:07.000Z</time>
      </trkpt>
      <trkpt lat="40.32702938653528690338134765625" lon="-1.099311411380767822265625">
        <ele>918</ele>
        <time>2022-08-26T14:14:14.000Z</time>
      </trkpt>
      <trkpt lat="40.32706073485314846038818359375" lon="-1.09911133535206317901611328125">
        <ele>917.79998779296875</ele>
        <time>2022-08-26T14:14:19.000Z</time>
      </trkpt>
      <trkpt lat="40.32723541371524333953857421875" lon="-1.09892986714839935302734375">
        <ele>918</ele>
        <time>2022-08-26T14:14:25.000Z</time>
      </trkpt>
      <trkpt lat="40.327593572437763214111328125" lon="-1.09868989326059818267822265625">
        <ele>919.20001220703125</ele>
        <time>2022-08-26T14:14:36.000Z</time>
      </trkpt>
      <trkpt lat="40.3277151100337505340576171875" lon="-1.0986735485494136810302734375">
        <ele>919.5999755859375</ele>
        <time>2022-08-26T14:14:39.000Z</time>
      </trkpt>
      <trkpt lat="40.327739082276821136474609375" lon="-1.09867111779749393463134765625">
        <ele>919.79998779296875</ele>
        <time>2022-08-26T14:14:41.000Z</time>
      </trkpt>
      <trkpt lat="40.327768586575984954833984375" lon="-1.09864932484924793243408203125">
        <ele>919.79998779296875</ele>
        <time>2022-08-26T14:14:43.000Z</time>
      </trkpt>
      <trkpt lat="40.3277731128036975860595703125" lon="-1.09861613251268863677978515625">
        <ele>920</ele>
        <time>2022-08-26T14:14:45.000Z</time>
      </trkpt>
      <trkpt lat="40.3277648985385894775390625" lon="-1.098563410341739654541015625">
        <ele>920.20001220703125</ele>
        <time>2022-08-26T14:14:47.000Z</time>
      </trkpt>
      <trkpt lat="40.3277483023703098297119140625" lon="-1.09843374229967594146728515625">
        <ele>920.4000244140625</ele>
        <time>2022-08-26T14:14:51.000Z</time>
      </trkpt>
      <trkpt lat="40.32771469093859195709228515625" lon="-1.0982511006295680999755859375">
        <ele>920.5999755859375</ele>
        <time>2022-08-26T14:14:56.000Z</time>
      </trkpt>
      <trkpt lat="40.3277000226080417633056640625" lon="-1.09818295575678348541259765625">
        <ele>920.5999755859375</ele>
        <time>2022-08-26T14:14:58.000Z</time>
      </trkpt>
      <trkpt lat="40.32762818969786167144775390625" lon="-1.09784197993576526641845703125">
        <ele>920.5999755859375</ele>
        <time>2022-08-26T14:15:07.000Z</time>
      </trkpt>
      <trkpt lat="40.32750271260738372802734375" lon="-1.09757074154913425445556640625">
        <ele>920.20001220703125</ele>
        <time>2022-08-26T14:15:14.000Z</time>
      </trkpt>
      <trkpt lat="40.32746675424277782440185546875" lon="-1.09754182398319244384765625">
        <ele>920</ele>
        <time>2022-08-26T14:15:18.000Z</time>
      </trkpt>
      <trkpt lat="40.32749642618000507354736328125" lon="-1.09762966632843017578125">
        <ele>920.20001220703125</ele>
        <time>2022-08-26T14:16:06.000Z</time>
      </trkpt>
      <trkpt lat="40.32752676866948604583740234375" lon="-1.09771306626498699188232421875">
        <ele>920.20001220703125</ele>
        <time>2022-08-26T14:16:08.000Z</time>
      </trkpt>
      <trkpt lat="40.32763673923909664154052734375" lon="-1.09800157137215137481689453125">
        <ele>920.5999755859375</ele>
        <time>2022-08-26T14:16:15.000Z</time>
      </trkpt>
      <trkpt lat="40.32768971286714076995849609375" lon="-1.09796938486397266387939453125">
        <ele>920.5999755859375</ele>
        <time>2022-08-26T14:16:18.000Z</time>
      </trkpt>
      <trkpt lat="40.32767697237432003021240234375" lon="-1.09781918115913867950439453125">
        <ele>920.5999755859375</ele>
        <time>2022-08-26T14:16:21.000Z</time>
      </trkpt>
      <trkpt lat="40.32766557298600673675537109375" lon="-1.09775832854211330413818359375">
        <ele>920.79998779296875</ele>
        <time>2022-08-26T14:16:22.000Z</time>
      </trkpt>
      <trkpt lat="40.327550657093524932861328125" lon="-1.09737225808203220367431640625">
        <ele>920.79998779296875</ele>
        <time>2022-08-26T14:16:28.000Z</time>
      </trkpt>
      <trkpt lat="40.327369607985019683837890625" lon="-1.09687487594783306121826171875">
        <ele>921</ele>
        <time>2022-08-26T14:16:36.000Z</time>
      </trkpt>
      <trkpt lat="40.3273258544504642486572265625" lon="-1.09664722345769405364990234375">
        <ele>921</ele>
        <time>2022-08-26T14:16:39.000Z</time>
      </trkpt>
      <trkpt lat="40.32728386111557483673095703125" lon="-1.0965482331812381744384765625">
        <ele>921.20001220703125</ele>
        <time>2022-08-26T14:16:42.000Z</time>
      </trkpt>
      <trkpt lat="40.32706559635698795318603515625" lon="-1.09613827429711818695068359375">
        <ele>921.5999755859375</ele>
        <time>2022-08-26T14:16:51.000Z</time>
      </trkpt>
      <trkpt lat="40.32690935768187046051025390625" lon="-1.09596326015889644622802734375">
        <ele>922</ele>
        <time>2022-08-26T14:16:55.000Z</time>
      </trkpt>
      <trkpt lat="40.32678782008588314056396484375" lon="-1.095846332609653472900390625">
        <ele>922.5999755859375</ele>
        <time>2022-08-26T14:17:00.000Z</time>
      </trkpt>
      <trkpt lat="40.32663904130458831787109375" lon="-1.09570853412151336669921875">
        <ele>923</ele>
        <time>2022-08-26T14:17:04.000Z</time>
      </trkpt>
      <trkpt lat="40.32645556144416332244873046875" lon="-1.0955752618610858917236328125">
        <ele>924.20001220703125</ele>
        <time>2022-08-26T14:17:11.000Z</time>
      </trkpt>
      <trkpt lat="40.3264249674975872039794921875" lon="-1.09555388800799846649169921875">
        <ele>924.4000244140625</ele>
        <time>2022-08-26T14:17:12.000Z</time>
      </trkpt>
      <trkpt lat="40.3261979855597019195556640625" lon="-1.09541307203471660614013671875">
        <ele>925.4000244140625</ele>
        <time>2022-08-26T14:17:19.000Z</time>
      </trkpt>
      <trkpt lat="40.326001346111297607421875" lon="-1.09528432600200176239013671875">
        <ele>926</ele>
        <time>2022-08-26T14:17:25.000Z</time>
      </trkpt>
      <trkpt lat="40.325907133519649505615234375" lon="-1.0952175222337245941162109375">
        <ele>926.4000244140625</ele>
        <time>2022-08-26T14:17:28.000Z</time>
      </trkpt>
      <trkpt lat="40.3256940655410289764404296875" lon="-1.09507310204207897186279296875">
        <ele>926.79998779296875</ele>
        <time>2022-08-26T14:17:35.000Z</time>
      </trkpt>
      <trkpt lat="40.3254302032291889190673828125" lon="-1.09489020891487598419189453125">
        <ele>926.5999755859375</ele>
        <time>2022-08-26T14:17:42.000Z</time>
      </trkpt>
      <trkpt lat="40.32503600232303142547607421875" lon="-1.094629950821399688720703125">
        <ele>926.20001220703125</ele>
        <time>2022-08-26T14:17:48.000Z</time>
      </trkpt>
      <trkpt lat="40.32484388910233974456787109375" lon="-1.0944956727325916290283203125">
        <ele>925.20001220703125</ele>
        <time>2022-08-26T14:17:52.000Z</time>
      </trkpt>
      <trkpt lat="40.3246456570923328399658203125" lon="-1.09435544349253177642822265625">
        <ele>924</ele>
        <time>2022-08-26T14:17:55.000Z</time>
      </trkpt>
      <trkpt lat="40.32453526742756366729736328125" lon="-1.0942970216274261474609375">
        <ele>923.5999755859375</ele>
        <time>2022-08-26T14:17:57.000Z</time>
      </trkpt>
      <trkpt lat="40.3245065174996852874755859375" lon="-1.09427313320338726043701171875">
        <ele>923</ele>
        <time>2022-08-26T14:17:58.000Z</time>
      </trkpt>
      <trkpt lat="40.32448514364659786224365234375" lon="-1.09426810406148433685302734375">
        <ele>922.79998779296875</ele>
        <time>2022-08-26T14:18:00.000Z</time>
      </trkpt>
      <trkpt lat="40.3244820423424243927001953125" lon="-1.0942807607352733612060546875">
        <ele>922.79998779296875</ele>
        <time>2022-08-26T14:18:02.000Z</time>
      </trkpt>
      <trkpt lat="40.3244538791477680206298828125" lon="-1.09426978044211864471435546875">
        <ele>922</ele>
        <time>2022-08-26T14:18:58.000Z</time>
      </trkpt>
      <trkpt lat="40.32441087998449802398681640625" lon="-1.09424429945647716522216796875">
        <ele>922</ele>
        <time>2022-08-26T14:19:00.000Z</time>
      </trkpt>
      <trkpt lat="40.3242270648479461669921875" lon="-1.09419576823711395263671875">
        <ele>922</ele>
        <time>2022-08-26T14:19:05.000Z</time>
      </trkpt>
      <trkpt lat="40.32413260079920291900634765625" lon="-1.0942009650170803070068359375">
        <ele>922</ele>
        <time>2022-08-26T14:19:07.000Z</time>
      </trkpt>
      <trkpt lat="40.323983319103717803955078125" lon="-1.09424245543777942657470703125">
        <ele>922</ele>
        <time>2022-08-26T14:19:10.000Z</time>
      </trkpt>
      <trkpt lat="40.32371803186833858489990234375" lon="-1.09443658031523227691650390625">
        <ele>922</ele>
        <time>2022-08-26T14:19:16.000Z</time>
      </trkpt>
      <trkpt lat="40.32363974489271640777587890625" lon="-1.094533391296863555908203125">
        <ele>922</ele>
        <time>2022-08-26T14:19:18.000Z</time>
      </trkpt>
      <trkpt lat="40.3234581090509891510009765625" lon="-1.09481192193925380706787109375">
        <ele>922</ele>
        <time>2022-08-26T14:19:23.000Z</time>
      </trkpt>
      <trkpt lat="40.32318913377821445465087890625" lon="-1.09539563767611980438232421875">
        <ele>922</ele>
        <time>2022-08-26T14:19:32.000Z</time>
      </trkpt>
      <trkpt lat="40.32304613851010799407958984375" lon="-1.09599259681999683380126953125">
        <ele>921.79998779296875</ele>
        <time>2022-08-26T14:19:40.000Z</time>
      </trkpt>
      <trkpt lat="40.32300339080393314361572265625" lon="-1.09652384184300899505615234375">
        <ele>921</ele>
        <time>2022-08-26T14:19:47.000Z</time>
      </trkpt>
      <trkpt lat="40.3230024687945842742919921875" lon="-1.09660229645669460296630859375">
        <ele>920.79998779296875</ele>
        <time>2022-08-26T14:19:48.000Z</time>
      </trkpt>
      <trkpt lat="40.3230561129748821258544921875" lon="-1.09716991893947124481201171875">
        <ele>920</ele>
        <time>2022-08-26T14:19:55.000Z</time>
      </trkpt>
      <trkpt lat="40.3230913169682025909423828125" lon="-1.09733261168003082275390625">
        <ele>919.79998779296875</ele>
        <time>2022-08-26T14:19:56.000Z</time>
      </trkpt>
      <trkpt lat="40.3231729567050933837890625" lon="-1.0975611023604869842529296875">
        <ele>919.5999755859375</ele>
        <time>2022-08-26T14:20:00.000Z</time>
      </trkpt>
      <trkpt lat="40.323382504284381866455078125" lon="-1.09784482978284358978271484375">
        <ele>919</ele>
        <time>2022-08-26T14:20:05.000Z</time>
      </trkpt>
      <trkpt lat="40.323437489569187164306640625" lon="-1.097883470356464385986328125">
        <ele>919</ele>
        <time>2022-08-26T14:20:06.000Z</time>
      </trkpt>
      <trkpt lat="40.32355458475649356842041015625" lon="-1.097943149507045745849609375">
        <ele>919</ele>
        <time>2022-08-26T14:20:08.000Z</time>
      </trkpt>
      <trkpt lat="40.32361711375415325164794921875" lon="-1.0979560576379299163818359375">
        <ele>918.79998779296875</ele>
        <time>2022-08-26T14:20:09.000Z</time>
      </trkpt>
      <trkpt lat="40.323935709893703460693359375" lon="-1.09794926829636096954345703125">
        <ele>918.5999755859375</ele>
        <time>2022-08-26T14:20:14.000Z</time>
      </trkpt>
      <trkpt lat="40.324209295213222503662109375" lon="-1.09779219143092632293701171875">
        <ele>918.5999755859375</ele>
        <time>2022-08-26T14:20:19.000Z</time>
      </trkpt>
      <trkpt lat="40.324376262724399566650390625" lon="-1.09760829247534275054931640625">
        <ele>918.5999755859375</ele>
        <time>2022-08-26T14:20:23.000Z</time>
      </trkpt>
      <trkpt lat="40.3244421444833278656005859375" lon="-1.09750687144696712493896484375">
        <ele>918.5999755859375</ele>
        <time>2022-08-26T14:20:25.000Z</time>
      </trkpt>
      <trkpt lat="40.32455764710903167724609375" lon="-1.09712247736752033233642578125">
        <ele>919.20001220703125</ele>
        <time>2022-08-26T14:20:31.000Z</time>
      </trkpt>
      <trkpt lat="40.32457918860018253326416015625" lon="-1.09662475995719432830810546875">
        <ele>920.20001220703125</ele>
        <time>2022-08-26T14:20:41.000Z</time>
      </trkpt>
      <trkpt lat="40.32460500486195087432861328125" lon="-1.09613760374486446380615234375">
        <ele>921.20001220703125</ele>
        <time>2022-08-26T14:20:51.000Z</time>
      </trkpt>
      <trkpt lat="40.32462126575410366058349609375" lon="-1.09588664956390857696533203125">
        <ele>922.20001220703125</ele>
        <time>2022-08-26T14:20:56.000Z</time>
      </trkpt>
      <trkpt lat="40.3246369399130344390869140625" lon="-1.09568682499229907989501953125">
        <ele>922.4000244140625</ele>
        <time>2022-08-26T14:20:59.000Z</time>
      </trkpt>
      <trkpt lat="40.32471363432705402374267578125" lon="-1.09525130130350589752197265625">
        <ele>923.4000244140625</ele>
        <time>2022-08-26T14:21:09.000Z</time>
      </trkpt>
      <trkpt lat="40.3247237764298915863037109375" lon="-1.09520251862704753875732421875">
        <ele>923.5999755859375</ele>
        <time>2022-08-26T14:21:10.000Z</time>
      </trkpt>
      <trkpt lat="40.3248344175517559051513671875" lon="-1.09482365660369396209716796875">
        <ele>924.79998779296875</ele>
        <time>2022-08-26T14:21:18.000Z</time>
      </trkpt>
      <trkpt lat="40.3248682804405689239501953125" lon="-1.09472282230854034423828125">
        <ele>925</ele>
        <time>2022-08-26T14:21:20.000Z</time>
      </trkpt>
      <trkpt lat="40.3250075876712799072265625" lon="-1.09432560391724109649658203125">
        <ele>925.79998779296875</ele>
        <time>2022-08-26T14:21:28.000Z</time>
      </trkpt>
      <trkpt lat="40.32508294098079204559326171875" lon="-1.09414338134229183197021484375">
        <ele>926</ele>
        <time>2022-08-26T14:21:32.000Z</time>
      </trkpt>
      <trkpt lat="40.3252605535089969635009765625" lon="-1.093740798532962799072265625">
        <ele>927</ele>
        <time>2022-08-26T14:21:41.000Z</time>
      </trkpt>
      <trkpt lat="40.32539784908294677734375" lon="-1.09345254488289356231689453125">
        <ele>928</ele>
        <time>2022-08-26T14:21:48.000Z</time>
      </trkpt>
      <trkpt lat="40.32544076442718505859375" lon="-1.0933701507747173309326171875">
        <ele>928</ele>
        <time>2022-08-26T14:21:50.000Z</time>
      </trkpt>
      <trkpt lat="40.32571895979344844818115234375" lon="-1.092878468334674835205078125">
        <ele>929.20001220703125</ele>
        <time>2022-08-26T14:22:01.000Z</time>
      </trkpt>
      <trkpt lat="40.3257674910128116607666015625" lon="-1.09280093573033809661865234375">
        <ele>929.4000244140625</ele>
        <time>2022-08-26T14:22:03.000Z</time>
      </trkpt>
      <trkpt lat="40.3260383941233158111572265625" lon="-1.09238351695239543914794921875">
        <ele>930</ele>
        <time>2022-08-26T14:22:14.000Z</time>
      </trkpt>
      <trkpt lat="40.32611475326120853424072265625" lon="-1.092275641858577728271484375">
        <ele>930.20001220703125</ele>
        <time>2022-08-26T14:22:18.000Z</time>
      </trkpt>
      <trkpt lat="40.32627216540277004241943359375" lon="-1.09205796383321285247802734375">
        <ele>930.5999755859375</ele>
        <time>2022-08-26T14:22:24.000Z</time>
      </trkpt>
      <trkpt lat="40.3265191800892353057861328125" lon="-1.09172252006828784942626953125">
        <ele>931.20001220703125</ele>
        <time>2022-08-26T14:22:33.000Z</time>
      </trkpt>
      <trkpt lat="40.32660291530191898345947265625" lon="-1.0916149802505970001220703125">
        <ele>931.4000244140625</ele>
        <time>2022-08-26T14:22:36.000Z</time>
      </trkpt>
      <trkpt lat="40.32692880369722843170166015625" lon="-1.09124240465462207794189453125">
        <ele>932.20001220703125</ele>
        <time>2022-08-26T14:22:47.000Z</time>
      </trkpt>
      <trkpt lat="40.32699317671358585357666015625" lon="-1.09118255786597728729248046875">
        <ele>932.4000244140625</ele>
        <time>2022-08-26T14:22:49.000Z</time>
      </trkpt>
      <trkpt lat="40.32705503515899181365966796875" lon="-1.091121621429920196533203125">
        <ele>932.4000244140625</ele>
        <time>2022-08-26T14:22:51.000Z</time>
      </trkpt>
      <trkpt lat="40.32744496129453182220458984375" lon="-1.09070680104196071624755859375">
        <ele>933.20001220703125</ele>
        <time>2022-08-26T14:23:04.000Z</time>
      </trkpt>
      <trkpt lat="40.32757001928985118865966796875" lon="-1.09058392234146595001220703125">
        <ele>933.4000244140625</ele>
        <time>2022-08-26T14:23:08.000Z</time>
      </trkpt>
      <trkpt lat="40.3278804011642932891845703125" lon="-1.0902976803481578826904296875">
        <ele>934.20001220703125</ele>
        <time>2022-08-26T14:23:18.000Z</time>
      </trkpt>
      <trkpt lat="40.32803420908749103546142578125" lon="-1.09015879221260547637939453125">
        <ele>934.4000244140625</ele>
        <time>2022-08-26T14:23:23.000Z</time>
      </trkpt>
      <trkpt lat="40.32824895344674587249755859375" lon="-1.08996324241161346435546875">
        <ele>935</ele>
        <time>2022-08-26T14:23:30.000Z</time>
      </trkpt>
      <trkpt lat="40.32845648936927318572998046875" lon="-1.08974330127239227294921875">
        <ele>935.4000244140625</ele>
        <time>2022-08-26T14:23:36.000Z</time>
      </trkpt>
      <trkpt lat="40.3286924399435520172119140625" lon="-1.0895198397338390350341796875">
        <ele>936.20001220703125</ele>
        <time>2022-08-26T14:23:45.000Z</time>
      </trkpt>
      <trkpt lat="40.32872068695724010467529296875" lon="-1.0894930176436901092529296875">
        <ele>936.4000244140625</ele>
        <time>2022-08-26T14:23:46.000Z</time>
      </trkpt>
      <trkpt lat="40.32913827337324619293212890625" lon="-1.0891222022473812103271484375">
        <ele>937.4000244140625</ele>
        <time>2022-08-26T14:24:00.000Z</time>
      </trkpt>
      <trkpt lat="40.32947338186204433441162109375" lon="-1.08879120089113712310791015625">
        <ele>938.4000244140625</ele>
        <time>2022-08-26T14:24:12.000Z</time>
      </trkpt>
      <trkpt lat="40.32952585257589817047119140625" lon="-1.0887339524924755096435546875">
        <ele>938.5999755859375</ele>
        <time>2022-08-26T14:24:13.000Z</time>
      </trkpt>
      <trkpt lat="40.3297100029885768890380859375" lon="-1.08848442323505878448486328125">
        <ele>939.5999755859375</ele>
        <time>2022-08-26T14:24:22.000Z</time>
      </trkpt>
      <trkpt lat="40.33000010065734386444091796875" lon="-1.08806801028549671173095703125">
        <ele>940.4000244140625</ele>
        <time>2022-08-26T14:24:35.000Z</time>
      </trkpt>
      <trkpt lat="40.33006967045366764068603515625" lon="-1.087971366941928863525390625">
        <ele>940.79998779296875</ele>
        <time>2022-08-26T14:24:38.000Z</time>
      </trkpt>
      <trkpt lat="40.33033286221325397491455078125" lon="-1.08758621849119663238525390625">
        <ele>941.79998779296875</ele>
        <time>2022-08-26T14:24:49.000Z</time>
      </trkpt>
      <trkpt lat="40.33050301484763622283935546875" lon="-1.08731129206717014312744140625">
        <ele>943</ele>
        <time>2022-08-26T14:24:57.000Z</time>
      </trkpt>
      <trkpt lat="40.3306118957698345184326171875" lon="-1.08714415691792964935302734375">
        <ele>943.4000244140625</ele>
        <time>2022-08-26T14:25:02.000Z</time>
      </trkpt>
      <trkpt lat="40.3307279013097286224365234375" lon="-1.0869519598782062530517578125">
        <ele>944</ele>
        <time>2022-08-26T14:25:08.000Z</time>
      </trkpt>
      <trkpt lat="40.33083829097449779510498046875" lon="-1.086742579936981201171875">
        <ele>944.20001220703125</ele>
        <time>2022-08-26T14:25:13.000Z</time>
      </trkpt>
      <trkpt lat="40.3309605829417705535888671875" lon="-1.0864245705306529998779296875">
        <ele>945</ele>
        <time>2022-08-26T14:25:22.000Z</time>
      </trkpt>
      <trkpt lat="40.3310346789658069610595703125" lon="-1.086227595806121826171875">
        <ele>945.5999755859375</ele>
        <time>2022-08-26T14:25:27.000Z</time>
      </trkpt>
      <trkpt lat="40.331132747232913970947265625" lon="-1.08596079982817173004150390625">
        <ele>946.20001220703125</ele>
        <time>2022-08-26T14:25:33.000Z</time>
      </trkpt>
      <trkpt lat="40.331202484667301177978515625" lon="-1.08576156198978424072265625">
        <ele>946.5999755859375</ele>
        <time>2022-08-26T14:25:39.000Z</time>
      </trkpt>
      <trkpt lat="40.331279598176479339599609375" lon="-1.08551706187427043914794921875">
        <ele>947.20001220703125</ele>
        <time>2022-08-26T14:25:45.000Z</time>
      </trkpt>
      <trkpt lat="40.33134472556412220001220703125" lon="-1.08526074327528476715087890625">
        <ele>947.79998779296875</ele>
        <time>2022-08-26T14:25:51.000Z</time>
      </trkpt>
      <trkpt lat="40.33138831146061420440673828125" lon="-1.0850388742983341217041015625">
        <ele>948.20001220703125</ele>
        <time>2022-08-26T14:25:56.000Z</time>
      </trkpt>
      <trkpt lat="40.3313837014138698577880859375" lon="-1.08490099199116230010986328125">
        <ele>948.4000244140625</ele>
        <time>2022-08-26T14:26:00.000Z</time>
      </trkpt>
      <trkpt lat="40.3313723020255565643310546875" lon="-1.08464450575411319732666015625">
        <ele>948.5999755859375</ele>
        <time>2022-08-26T14:26:06.000Z</time>
      </trkpt>
      <trkpt lat="40.33147565089166164398193359375" lon="-1.08443361707031726837158203125">
        <ele>948.79998779296875</ele>
        <time>2022-08-26T14:26:11.000Z</time>
      </trkpt>
      <trkpt lat="40.33158143050968647003173828125" lon="-1.0843837447464466094970703125">
        <ele>949</ele>
        <time>2022-08-26T14:26:14.000Z</time>
      </trkpt>
      <trkpt lat="40.331622920930385589599609375" lon="-1.08438651077449321746826171875">
        <ele>949</ele>
        <time>2022-08-26T14:26:15.000Z</time>
      </trkpt>
      <trkpt lat="40.3316660039126873016357421875" lon="-1.084400005638599395751953125">
        <ele>949.20001220703125</ele>
        <time>2022-08-26T14:26:16.000Z</time>
      </trkpt>
      <trkpt lat="40.3317823447287082672119140625" lon="-1.084515340626239776611328125">
        <ele>949.5999755859375</ele>
        <time>2022-08-26T14:26:19.000Z</time>
      </trkpt>
      <trkpt lat="40.33190212212502956390380859375" lon="-1.0847934521734714508056640625">
        <ele>949.5999755859375</ele>
        <time>2022-08-26T14:26:22.000Z</time>
      </trkpt>
      <trkpt lat="40.33190212212502956390380859375" lon="-1.0847934521734714508056640625">
        <ele>949.79998779296875</ele>
        <time>2022-08-26T14:26:23.000Z</time>
      </trkpt>
      <trkpt lat="40.3319707699120044708251953125" lon="-1.0849191807210445404052734375">
        <ele>949.5999755859375</ele>
        <time>2022-08-26T14:26:25.000Z</time>
      </trkpt>
      <trkpt lat="40.33211938105523586273193359375" lon="-1.08512914739549160003662109375">
        <ele>949.79998779296875</ele>
        <time>2022-08-26T14:26:28.000Z</time>
      </trkpt>
      <trkpt lat="40.332189537584781646728515625" lon="-1.08524599112570285797119140625">
        <ele>949.79998779296875</ele>
        <time>2022-08-26T14:26:30.000Z</time>
      </trkpt>
      <trkpt lat="40.3322718478739261627197265625" lon="-1.0854512639343738555908203125">
        <ele>949.20001220703125</ele>
        <time>2022-08-26T14:26:34.000Z</time>
      </trkpt>
      <trkpt lat="40.33238475210964679718017578125" lon="-1.08593297190964221954345703125">
        <ele>948.79998779296875</ele>
        <time>2022-08-26T14:26:40.000Z</time>
      </trkpt>
      <trkpt lat="40.3325347043573856353759765625" lon="-1.08664132654666900634765625">
        <ele>948</ele>
        <time>2022-08-26T14:26:49.000Z</time>
      </trkpt>
      <trkpt lat="40.332563705742359161376953125" lon="-1.08670628629624843597412109375">
        <ele>948</ele>
        <time>2022-08-26T14:26:50.000Z</time>
      </trkpt>
      <trkpt lat="40.332600586116313934326171875" lon="-1.086758673191070556640625">
        <ele>947.79998779296875</ele>
        <time>2022-08-26T14:26:51.000Z</time>
      </trkpt>
      <trkpt lat="40.332746766507625579833984375" lon="-1.086797229945659637451171875">
        <ele>947.79998779296875</ele>
        <time>2022-08-26T14:26:54.000Z</time>
      </trkpt>
      <trkpt lat="40.33290409483015537261962890625" lon="-1.08676160685718059539794921875">
        <ele>947.79998779296875</ele>
        <time>2022-08-26T14:26:57.000Z</time>
      </trkpt>
      <trkpt lat="40.33300853334367275238037109375" lon="-1.0867286659777164459228515625">
        <ele>947.79998779296875</ele>
        <time>2022-08-26T14:26:59.000Z</time>
      </trkpt>
      <trkpt lat="40.33328211866319179534912109375" lon="-1.08656362630426883697509765625">
        <ele>948.4000244140625</ele>
        <time>2022-08-26T14:27:06.000Z</time>
      </trkpt>
      <trkpt lat="40.33328178338706493377685546875" lon="-1.08637285418808460235595703125">
        <ele>949</ele>
        <time>2022-08-26T14:27:10.000Z</time>
      </trkpt>
      <trkpt lat="40.33328111283481121063232421875" lon="-1.08632155694067478179931640625">
        <ele>949</ele>
        <time>2022-08-26T14:27:11.000Z</time>
      </trkpt>
      <trkpt lat="40.33333559520542621612548828125" lon="-1.0861690901219844818115234375">
        <ele>949.5999755859375</ele>
        <time>2022-08-26T14:27:15.000Z</time>
      </trkpt>
      <trkpt lat="40.3333933465182781219482421875" lon="-1.08607378788292407989501953125">
        <ele>950</ele>
        <time>2022-08-26T14:27:19.000Z</time>
      </trkpt>
      <trkpt lat="40.3334020636975765228271484375" lon="-1.08604311011731624603271484375">
        <ele>950.20001220703125</ele>
        <time>2022-08-26T14:27:21.000Z</time>
      </trkpt>
      <trkpt lat="40.3333975374698638916015625" lon="-1.08601176179945468902587890625">
        <ele>950.4000244140625</ele>
        <time>2022-08-26T14:27:26.000Z</time>
      </trkpt>
      <trkpt lat="40.33336677588522434234619140625" lon="-1.08593984507024288177490234375">
        <ele>949.79998779296875</ele>
        <time>2022-08-26T14:28:28.000Z</time>
      </trkpt>
      <trkpt lat="40.33336208201944828033447265625" lon="-1.08591637574136257171630859375">
        <ele>949.79998779296875</ele>
        <time>2022-08-26T14:28:29.000Z</time>
      </trkpt>
      <trkpt lat="40.3332612477242946624755859375" lon="-1.08569718897342681884765625">
        <ele>950</ele>
        <time>2022-08-26T14:28:37.000Z</time>
      </trkpt>
      <trkpt lat="40.33311800099909305572509765625" lon="-1.08558210544288158416748046875">
        <ele>950.20001220703125</ele>
        <time>2022-08-26T14:28:43.000Z</time>
      </trkpt>
      <trkpt lat="40.33305563963949680328369140625" lon="-1.0853406228125095367431640625">
        <ele>950.4000244140625</ele>
        <time>2022-08-26T14:28:49.000Z</time>
      </trkpt>
      <trkpt lat="40.3330067731440067291259765625" lon="-1.084953211247920989990234375">
        <ele>951</ele>
        <time>2022-08-26T14:28:59.000Z</time>
      </trkpt>
      <trkpt lat="40.3329947032034397125244140625" lon="-1.08481985516846179962158203125">
        <ele>951.20001220703125</ele>
        <time>2022-08-26T14:29:02.000Z</time>
      </trkpt>
      <trkpt lat="40.33296444453299045562744140625" lon="-1.08431828208267688751220703125">
        <ele>951.5999755859375</ele>
        <time>2022-08-26T14:29:13.000Z</time>
      </trkpt>
      <trkpt lat="40.33295036293566226959228515625" lon="-1.08404226601123809814453125">
        <ele>951.79998779296875</ele>
        <time>2022-08-26T14:29:21.000Z</time>
      </trkpt>
      <trkpt lat="40.3329011611640453338623046875" lon="-1.08389340341091156005859375">
        <ele>951.79998779296875</ele>
        <time>2022-08-26T14:29:27.000Z</time>
      </trkpt>
      <trkpt lat="40.33289319835603237152099609375" lon="-1.083883680403232574462890625">
        <ele>951.79998779296875</ele>
        <time>2022-08-26T14:29:31.000Z</time>
      </trkpt>
      <trkpt lat="40.33289202488958835601806640625" lon="-1.08380598016083240509033203125">
        <ele>951.4000244140625</ele>
        <time>2022-08-26T14:30:27.000Z</time>
      </trkpt>
      <trkpt lat="40.3328783623874187469482421875" lon="-1.08362250030040740966796875">
        <ele>951.4000244140625</ele>
        <time>2022-08-26T14:30:32.000Z</time>
      </trkpt>
      <trkpt lat="40.33282362855970859527587890625" lon="-1.0832930915057659149169921875">
        <ele>951.5999755859375</ele>
        <time>2022-08-26T14:30:40.000Z</time>
      </trkpt>
      <trkpt lat="40.332781635224819183349609375" lon="-1.0829688794910907745361328125">
        <ele>951.79998779296875</ele>
        <time>2022-08-26T14:30:50.000Z</time>
      </trkpt>
      <trkpt lat="40.33277216367423534393310546875" lon="-1.082896292209625244140625">
        <ele>951.79998779296875</ele>
        <time>2022-08-26T14:30:52.000Z</time>
      </trkpt>
      <trkpt lat="40.3327563218772411346435546875" lon="-1.0826508700847625732421875">
        <ele>951.79998779296875</ele>
        <time>2022-08-26T14:30:58.000Z</time>
      </trkpt>
      <trkpt lat="40.33272958360612392425537109375" lon="-1.08232707716524600982666015625">
        <ele>952</ele>
        <time>2022-08-26T14:31:07.000Z</time>
      </trkpt>
      <trkpt lat="40.33268314786255359649658203125" lon="-1.0819258354604244232177734375">
        <ele>951.79998779296875</ele>
        <time>2022-08-26T14:31:16.000Z</time>
      </trkpt>
      <trkpt lat="40.33261475153267383575439453125" lon="-1.0814336501061916351318359375">
        <ele>951.79998779296875</ele>
        <time>2022-08-26T14:31:29.000Z</time>
      </trkpt>
      <trkpt lat="40.33257183618843555450439453125" lon="-1.08107976615428924560546875">
        <ele>952</ele>
        <time>2022-08-26T14:31:38.000Z</time>
      </trkpt>
      <trkpt lat="40.33253856003284454345703125" lon="-1.08089645393192768096923828125">
        <ele>952.20001220703125</ele>
        <time>2022-08-26T14:31:45.000Z</time>
      </trkpt>
      <trkpt lat="40.3325038589537143707275390625" lon="-1.08084213919937610626220703125">
        <ele>952.4000244140625</ele>
        <time>2022-08-26T14:31:48.000Z</time>
      </trkpt>
      <trkpt lat="40.332465805113315582275390625" lon="-1.08083660714328289031982421875">
        <ele>952.5999755859375</ele>
        <time>2022-08-26T14:31:50.000Z</time>
      </trkpt>
      <trkpt lat="40.33244778402149677276611328125" lon="-1.0808381997048854827880859375">
        <ele>952.5999755859375</ele>
        <time>2022-08-26T14:31:51.000Z</time>
      </trkpt>
      <trkpt lat="40.33240319229662418365478515625" lon="-1.08084775507450103759765625">
        <ele>952.5999755859375</ele>
        <time>2022-08-26T14:31:54.000Z</time>
      </trkpt>
      <trkpt lat="40.3323429264128208160400390625" lon="-1.0808563046157360076904296875">
        <ele>952.79998779296875</ele>
        <time>2022-08-26T14:31:58.000Z</time>
      </trkpt>
      <trkpt lat="40.332225076854228973388671875" lon="-1.08085806481540203094482421875">
        <ele>952.79998779296875</ele>
        <time>2022-08-26T14:32:06.000Z</time>
      </trkpt>
      <trkpt lat="40.332206301391124725341796875" lon="-1.08088421635329723358154296875">
        <ele>952.79998779296875</ele>
        <time>2022-08-26T14:32:08.000Z</time>
      </trkpt>
      <trkpt lat="40.33217637799680233001708984375" lon="-1.08090341091156005859375">
        <ele>952.79998779296875</ele>
        <time>2022-08-26T14:32:10.000Z</time>
      </trkpt>
      <trkpt lat="40.33214620314538478851318359375" lon="-1.08089259825646877288818359375">
        <ele>952.79998779296875</ele>
        <time>2022-08-26T14:32:13.000Z</time>
      </trkpt>
      <trkpt lat="40.33214293420314788818359375" lon="-1.08088002540171146392822265625">
        <ele>952.79998779296875</ele>
        <time>2022-08-26T14:32:14.000Z</time>
      </trkpt>
      <trkpt lat="40.33213681541383266448974609375" lon="-1.0808495990931987762451171875">
        <ele>953</ele>
        <time>2022-08-26T14:32:20.000Z</time>
      </trkpt>
      <trkpt lat="40.33206020481884479522705078125" lon="-1.08062521554529666900634765625">
        <ele>954.20001220703125</ele>
        <time>2022-08-26T14:33:16.000Z</time>
      </trkpt>
      <trkpt lat="40.33201075159013271331787109375" lon="-1.08031139709055423736572265625">
        <ele>954.20001220703125</ele>
        <time>2022-08-26T14:33:24.000Z</time>
      </trkpt>
      <trkpt lat="40.3319518268108367919921875" lon="-1.07979289256036281585693359375">
        <ele>954</ele>
        <time>2022-08-26T14:33:35.000Z</time>
      </trkpt>
      <trkpt lat="40.3318527527153491973876953125" lon="-1.0791738890111446380615234375">
        <ele>954.20001220703125</ele>
        <time>2022-08-26T14:33:48.000Z</time>
      </trkpt>
      <trkpt lat="40.33177857287228107452392578125" lon="-1.078621186316013336181640625">
        <ele>955</ele>
        <time>2022-08-26T14:34:01.000Z</time>
      </trkpt>
      <trkpt lat="40.3317696042358875274658203125" lon="-1.0785760916769504547119140625">
        <ele>955</ele>
        <time>2022-08-26T14:34:02.000Z</time>
      </trkpt>
      <trkpt lat="40.33169793896377086639404296875" lon="-1.0781098902225494384765625">
        <ele>955.20001220703125</ele>
        <time>2022-08-26T14:34:12.000Z</time>
      </trkpt>
      <trkpt lat="40.33169207163155078887939453125" lon="-1.0780658014118671417236328125">
        <ele>955.20001220703125</ele>
        <time>2022-08-26T14:34:13.000Z</time>
      </trkpt>
      <trkpt lat="40.3316069953143596649169921875" lon="-1.07761837542057037353515625">
        <ele>956</ele>
        <time>2022-08-26T14:34:24.000Z</time>
      </trkpt>
      <trkpt lat="40.3315722942352294921875" lon="-1.07732878066599369049072265625">
        <ele>956.20001220703125</ele>
        <time>2022-08-26T14:34:30.000Z</time>
      </trkpt>
      <trkpt lat="40.33153139054775238037109375" lon="-1.077120490372180938720703125">
        <ele>957.20001220703125</ele>
        <time>2022-08-26T14:34:35.000Z</time>
      </trkpt>
      <trkpt lat="40.3315258584916591644287109375" lon="-1.0770785808563232421875">
        <ele>957.4000244140625</ele>
        <time>2022-08-26T14:34:36.000Z</time>
      </trkpt>
      <trkpt lat="40.33145637251436710357666015625" lon="-1.07671170495450496673583984375">
        <ele>958.5999755859375</ele>
        <time>2022-08-26T14:34:45.000Z</time>
      </trkpt>
      <trkpt lat="40.33144933171570301055908203125" lon="-1.0766723938286304473876953125">
        <ele>958.5999755859375</ele>
        <time>2022-08-26T14:34:47.000Z</time>
      </trkpt>
      <trkpt lat="40.3313830308616161346435546875" lon="-1.076400317251682281494140625">
        <ele>959.4000244140625</ele>
        <time>2022-08-26T14:34:54.000Z</time>
      </trkpt>
      <trkpt lat="40.33132997341454029083251953125" lon="-1.0762050189077854156494140625">
        <ele>960</ele>
        <time>2022-08-26T14:34:59.000Z</time>
      </trkpt>
      <trkpt lat="40.3312851302325725555419921875" lon="-1.076063029468059539794921875">
        <ele>960.5999755859375</ele>
        <time>2022-08-26T14:35:02.000Z</time>
      </trkpt>
      <trkpt lat="40.3312117047607898712158203125" lon="-1.0758285038173198699951171875">
        <ele>961.4000244140625</ele>
        <time>2022-08-26T14:35:09.000Z</time>
      </trkpt>
      <trkpt lat="40.3309706412255764007568359375" lon="-1.07524839229881763458251953125">
        <ele>961</ele>
        <time>2022-08-26T14:35:22.000Z</time>
      </trkpt>
      <trkpt lat="40.33076788298785686492919921875" lon="-1.074795685708522796630859375">
        <ele>959.79998779296875</ele>
        <time>2022-08-26T14:35:33.000Z</time>
      </trkpt>
      <trkpt lat="40.33074441365897655487060546875" lon="-1.0747076757252216339111328125">
        <ele>959.4000244140625</ele>
        <time>2022-08-26T14:35:35.000Z</time>
      </trkpt>
      <trkpt lat="40.33074726350605487823486328125" lon="-1.074494607746601104736328125">
        <ele>958.79998779296875</ele>
        <time>2022-08-26T14:35:39.000Z</time>
      </trkpt>
      <trkpt lat="40.33083929680287837982177734375" lon="-1.07422965578734874725341796875">
        <ele>958.5999755859375</ele>
        <time>2022-08-26T14:35:44.000Z</time>
      </trkpt>
      <trkpt lat="40.3308948688209056854248046875" lon="-1.07414449565112590789794921875">
        <ele>958.4000244140625</ele>
        <time>2022-08-26T14:35:46.000Z</time>
      </trkpt>
      <trkpt lat="40.33107273280620574951171875" lon="-1.073920615017414093017578125">
        <ele>958.4000244140625</ele>
        <time>2022-08-26T14:35:52.000Z</time>
      </trkpt>
      <trkpt lat="40.3312492556869983673095703125" lon="-1.073636300861835479736328125">
        <ele>958.5999755859375</ele>
        <time>2022-08-26T14:36:00.000Z</time>
      </trkpt>
      <trkpt lat="40.33146031200885772705078125" lon="-1.07336916960775852203369140625">
        <ele>959.4000244140625</ele>
        <time>2022-08-26T14:36:09.000Z</time>
      </trkpt>
      <trkpt lat="40.3316053189337253570556640625" lon="-1.07313782908022403717041015625">
        <ele>959.5999755859375</ele>
        <time>2022-08-26T14:36:17.000Z</time>
      </trkpt>
      <trkpt lat="40.33160473220050334930419921875" lon="-1.0731332190334796905517578125">
        <ele>959.5999755859375</ele>
        <time>2022-08-26T14:36:19.000Z</time>
      </trkpt>
      <trkpt lat="40.3316541016101837158203125" lon="-1.073053590953350067138671875">
        <ele>960.79998779296875</ele>
        <time>2022-08-26T14:37:00.000Z</time>
      </trkpt>
      <trkpt lat="40.3316649980843067169189453125" lon="-1.07303188182413578033447265625">
        <ele>960.79998779296875</ele>
        <time>2022-08-26T14:37:01.000Z</time>
      </trkpt>
      <trkpt lat="40.33174202777445316314697265625" lon="-1.0728205740451812744140625">
        <ele>961.20001220703125</ele>
        <time>2022-08-26T14:37:10.000Z</time>
      </trkpt>
      <trkpt lat="40.33178058452904224395751953125" lon="-1.072694845497608184814453125">
        <ele>962</ele>
        <time>2022-08-26T14:37:15.000Z</time>
      </trkpt>
      <trkpt lat="40.33182232640683650970458984375" lon="-1.072576157748699188232421875">
        <ele>963</ele>
        <time>2022-08-26T14:37:20.000Z</time>
      </trkpt>
      <trkpt lat="40.33185685984790325164794921875" lon="-1.07245068065822124481201171875">
        <ele>964.20001220703125</ele>
        <time>2022-08-26T14:37:25.000Z</time>
      </trkpt>
      <trkpt lat="40.3318832628428936004638671875" lon="-1.07235051691532135009765625">
        <ele>965.20001220703125</ele>
        <time>2022-08-26T14:37:29.000Z</time>
      </trkpt>
      <trkpt lat="40.3318886272609233856201171875" lon="-1.07232595793902873992919921875">
        <ele>965.4000244140625</ele>
        <time>2022-08-26T14:37:30.000Z</time>
      </trkpt>
      <trkpt lat="40.331898517906665802001953125" lon="-1.07225035317242145538330078125">
        <ele>966.4000244140625</ele>
        <time>2022-08-26T14:37:33.000Z</time>
      </trkpt>
      <trkpt lat="40.33192626200616359710693359375" lon="-1.07209713198244571685791015625">
        <ele>967.4000244140625</ele>
        <time>2022-08-26T14:37:39.000Z</time>
      </trkpt>
      <trkpt lat="40.33193229697644710540771484375" lon="-1.07205069623887538909912109375">
        <ele>967.79998779296875</ele>
        <time>2022-08-26T14:37:41.000Z</time>
      </trkpt>
      <trkpt lat="40.331944786012172698974609375" lon="-1.07198347337543964385986328125">
        <ele>968.79998779296875</ele>
        <time>2022-08-26T14:37:44.000Z</time>
      </trkpt>
      <trkpt lat="40.33196263946592807769775390625" lon="-1.0718202777206897735595703125">
        <ele>969.79998779296875</ele>
        <time>2022-08-26T14:37:51.000Z</time>
      </trkpt>
      <trkpt lat="40.33196414820849895477294921875" lon="-1.07179689221084117889404296875">
        <ele>970</ele>
        <time>2022-08-26T14:37:52.000Z</time>
      </trkpt>
      <trkpt lat="40.33198066055774688720703125" lon="-1.07165909372270107269287109375">
        <ele>970.79998779296875</ele>
        <time>2022-08-26T14:37:58.000Z</time>
      </trkpt>
      <trkpt lat="40.33198040910065174102783203125" lon="-1.07163528911769390106201171875">
        <ele>970.79998779296875</ele>
        <time>2022-08-26T14:37:59.000Z</time>
      </trkpt>
      <trkpt lat="40.3319774754345417022705078125" lon="-1.0715089738368988037109375">
        <ele>971.79998779296875</ele>
        <time>2022-08-26T14:38:04.000Z</time>
      </trkpt>
      <trkpt lat="40.33197202719748020172119140625" lon="-1.0713847540318965911865234375">
        <ele>972.79998779296875</ele>
        <time>2022-08-26T14:38:09.000Z</time>
      </trkpt>
      <trkpt lat="40.3319747932255268096923828125" lon="-1.07133907265961170196533203125">
        <ele>973</ele>
        <time>2022-08-26T14:38:11.000Z</time>
      </trkpt>
      <trkpt lat="40.33196926116943359375" lon="-1.07122055254876613616943359375">
        <ele>974</ele>
        <time>2022-08-26T14:38:16.000Z</time>
      </trkpt>
      <trkpt lat="40.331966914236545562744140625" lon="-1.07117210514843463897705078125">
        <ele>974.4000244140625</ele>
        <time>2022-08-26T14:38:18.000Z</time>
      </trkpt>
      <trkpt lat="40.33194847404956817626953125" lon="-1.07110739685595035552978515625">
        <ele>975.4000244140625</ele>
        <time>2022-08-26T14:38:21.000Z</time>
      </trkpt>
      <trkpt lat="40.3319251723587512969970703125" lon="-1.07101620174944400787353515625">
        <ele>976.5999755859375</ele>
        <time>2022-08-26T14:38:25.000Z</time>
      </trkpt>
      <trkpt lat="40.331919305026531219482421875" lon="-1.07099189423024654388427734375">
        <ele>976.5999755859375</ele>
        <time>2022-08-26T14:38:26.000Z</time>
      </trkpt>
      <trkpt lat="40.33190849237143993377685546875" lon="-1.0708898864686489105224609375">
        <ele>977.5999755859375</ele>
        <time>2022-08-26T14:38:31.000Z</time>
      </trkpt>
      <trkpt lat="40.331895165145397186279296875" lon="-1.07084101997315883636474609375">
        <ele>977.79998779296875</ele>
        <time>2022-08-26T14:38:33.000Z</time>
      </trkpt>
      <trkpt lat="40.3318312950432300567626953125" lon="-1.0706283710896968841552734375">
        <ele>978.79998779296875</ele>
        <time>2022-08-26T14:38:39.000Z</time>
      </trkpt>
      <trkpt lat="40.33181528560817241668701171875" lon="-1.07055989094078540802001953125">
        <ele>978.79998779296875</ele>
        <time>2022-08-26T14:38:42.000Z</time>
      </trkpt>
      <trkpt lat="40.33174387179315090179443359375" lon="-1.07017214410006999969482421875">
        <ele>978.79998779296875</ele>
        <time>2022-08-26T14:38:51.000Z</time>
      </trkpt>
      <trkpt lat="40.3316717036068439483642578125" lon="-1.06958289630711078643798828125">
        <ele>978</ele>
        <time>2022-08-26T14:39:05.000Z</time>
      </trkpt>
      <trkpt lat="40.3316016308963298797607421875" lon="-1.0693083889782428741455078125">
        <ele>977.5999755859375</ele>
        <time>2022-08-26T14:39:11.000Z</time>
      </trkpt>
      <trkpt lat="40.33151605166494846343994140625" lon="-1.06902725994586944580078125">
        <ele>977.4000244140625</ele>
        <time>2022-08-26T14:39:17.000Z</time>
      </trkpt>
      <trkpt lat="40.33140541054308414459228515625" lon="-1.06859299354255199432373046875">
        <ele>976.5999755859375</ele>
        <time>2022-08-26T14:39:26.000Z</time>
      </trkpt>
      <trkpt lat="40.33144564367830753326416015625" lon="-1.06834061443805694580078125">
        <ele>976.4000244140625</ele>
        <time>2022-08-26T14:39:31.000Z</time>
      </trkpt>
      <trkpt lat="40.3314832784235477447509765625" lon="-1.06821446679532527923583984375">
        <ele>976.20001220703125</ele>
        <time>2022-08-26T14:39:32.000Z</time>
      </trkpt>
      <trkpt lat="40.33152795396745204925537109375" lon="-1.06808069162070751190185546875">
        <ele>975.20001220703125</ele>
        <time>2022-08-26T14:39:35.000Z</time>
      </trkpt>
      <trkpt lat="40.3315577097237110137939453125" lon="-1.06800877489149570465087890625">
        <ele>975.20001220703125</ele>
        <time>2022-08-26T14:39:36.000Z</time>
      </trkpt>
      <trkpt lat="40.3317077457904815673828125" lon="-1.06765975244343280792236328125">
        <ele>974.20001220703125</ele>
        <time>2022-08-26T14:39:40.000Z</time>
      </trkpt>
      <trkpt lat="40.33173850737512111663818359375" lon="-1.0675616003572940826416015625">
        <ele>974</ele>
        <time>2022-08-26T14:39:41.000Z</time>
      </trkpt>
      <trkpt lat="40.3318034671247005462646484375" lon="-1.067321039736270904541015625">
        <ele>971.79998779296875</ele>
        <time>2022-08-26T14:39:44.000Z</time>
      </trkpt>
      <trkpt lat="40.33183288760483264923095703125" lon="-1.067151390016078948974609375">
        <ele>971</ele>
        <time>2022-08-26T14:39:48.000Z</time>
      </trkpt>
      <trkpt lat="40.331835485994815826416015625" lon="-1.066964976489543914794921875">
        <ele>971.4000244140625</ele>
        <time>2022-08-26T14:39:56.000Z</time>
      </trkpt>
      <trkpt lat="40.331830121576786041259765625" lon="-1.06681318022310733795166015625">
        <ele>972.79998779296875</ele>
        <time>2022-08-26T14:40:03.000Z</time>
      </trkpt>
      <trkpt lat="40.33179902471601963043212890625" lon="-1.06670605950057506561279296875">
        <ele>973.5999755859375</ele>
        <time>2022-08-26T14:40:07.000Z</time>
      </trkpt>
      <trkpt lat="40.33179550431668758392333984375" lon="-1.06668342836201190948486328125">
        <ele>974</ele>
        <time>2022-08-26T14:40:09.000Z</time>
      </trkpt>
      <trkpt lat="40.331778824329376220703125" lon="-1.06647245585918426513671875">
        <ele>974.5999755859375</ele>
        <time>2022-08-26T14:40:18.000Z</time>
      </trkpt>
      <trkpt lat="40.33177320845425128936767578125" lon="-1.066424846649169921875">
        <ele>975</ele>
        <time>2022-08-26T14:40:20.000Z</time>
      </trkpt>
      <trkpt lat="40.33175677992403507232666015625" lon="-1.0661608166992664337158203125">
        <ele>976</ele>
        <time>2022-08-26T14:40:30.000Z</time>
      </trkpt>
      <trkpt lat="40.33175376243889331817626953125" lon="-1.066112034022808074951171875">
        <ele>976.20001220703125</ele>
        <time>2022-08-26T14:40:31.000Z</time>
      </trkpt>
      <trkpt lat="40.331735573709011077880859375" lon="-1.06591095216572284698486328125">
        <ele>977.20001220703125</ele>
        <time>2022-08-26T14:40:40.000Z</time>
      </trkpt>
      <trkpt lat="40.331736914813518524169921875" lon="-1.0657824575901031494140625">
        <ele>977.79998779296875</ele>
        <time>2022-08-26T14:40:45.000Z</time>
      </trkpt>
      <trkpt lat="40.33172509633004665374755859375" lon="-1.0655586607754230499267578125">
        <ele>978.20001220703125</ele>
        <time>2022-08-26T14:40:53.000Z</time>
      </trkpt>
      <trkpt lat="40.33170615322887897491455078125" lon="-1.06544307433068752288818359375">
        <ele>978.5999755859375</ele>
        <time>2022-08-26T14:40:57.000Z</time>
      </trkpt>
      <trkpt lat="40.331702716648578643798828125" lon="-1.0654325969517230987548828125">
        <ele>979.20001220703125</ele>
        <time>2022-08-26T14:41:00.000Z</time>
      </trkpt>
      <trkpt lat="40.33170196227729320526123046875" lon="-1.06543234549462795257568359375">
        <ele>979.20001220703125</ele>
        <time>2022-08-26T14:41:01.000Z</time>
      </trkpt>
      <trkpt lat="40.33171470277011394500732421875" lon="-1.0653561539947986602783203125">
        <ele>980</ele>
        <time>2022-08-26T14:42:03.000Z</time>
      </trkpt>
      <trkpt lat="40.3317142836749553680419921875" lon="-1.06533586978912353515625">
        <ele>980</ele>
        <time>2022-08-26T14:42:04.000Z</time>
      </trkpt>
      <trkpt lat="40.33171202056109905242919921875" lon="-1.065272502601146697998046875">
        <ele>980.20001220703125</ele>
        <time>2022-08-26T14:42:06.000Z</time>
      </trkpt>
      <trkpt lat="40.33169290982186794281005859375" lon="-1.065079383552074432373046875">
        <ele>981.4000244140625</ele>
        <time>2022-08-26T14:42:14.000Z</time>
      </trkpt>
      <trkpt lat="40.33168938942253589630126953125" lon="-1.0649028606712818145751953125">
        <ele>982.5999755859375</ele>
        <time>2022-08-26T14:42:21.000Z</time>
      </trkpt>
      <trkpt lat="40.3317050635814666748046875" lon="-1.06480537913739681243896484375">
        <ele>983.4000244140625</ele>
        <time>2022-08-26T14:42:26.000Z</time>
      </trkpt>
      <trkpt lat="40.3317065723240375518798828125" lon="-1.064780317246913909912109375">
        <ele>983.5999755859375</ele>
        <time>2022-08-26T14:42:27.000Z</time>
      </trkpt>
      <trkpt lat="40.33172987401485443115234375" lon="-1.06459951959550380706787109375">
        <ele>984.5999755859375</ele>
        <time>2022-08-26T14:42:34.000Z</time>
      </trkpt>
      <trkpt lat="40.3317937441170215606689453125" lon="-1.06441562063992023468017578125">
        <ele>985.79998779296875</ele>
        <time>2022-08-26T14:42:41.000Z</time>
      </trkpt>
      <trkpt lat="40.3318373300135135650634765625" lon="-1.06423725374042987823486328125">
        <ele>986.20001220703125</ele>
        <time>2022-08-26T14:42:47.000Z</time>
      </trkpt>
      <trkpt lat="40.33182349987328052520751953125" lon="-1.0640096850693225860595703125">
        <ele>986.20001220703125</ele>
        <time>2022-08-26T14:42:53.000Z</time>
      </trkpt>
      <trkpt lat="40.331794582307338714599609375" lon="-1.06382754631340503692626953125">
        <ele>986.20001220703125</ele>
        <time>2022-08-26T14:42:56.000Z</time>
      </trkpt>
      <trkpt lat="40.33171704970300197601318359375" lon="-1.0636314935982227325439453125">
        <ele>986</ele>
        <time>2022-08-26T14:42:59.000Z</time>
      </trkpt>
      <trkpt lat="40.33157506026327610015869140625" lon="-1.0634527914226055145263671875">
        <ele>985</ele>
        <time>2022-08-26T14:43:03.000Z</time>
      </trkpt>
      <trkpt lat="40.33142703585326671600341796875" lon="-1.06334156356751918792724609375">
        <ele>984.79998779296875</ele>
        <time>2022-08-26T14:43:04.000Z</time>
      </trkpt>
      <trkpt lat="40.33123743720352649688720703125" lon="-1.06322186999022960662841796875">
        <ele>983.4000244140625</ele>
        <time>2022-08-26T14:43:06.000Z</time>
      </trkpt>
      <trkpt lat="40.33123743720352649688720703125" lon="-1.06322186999022960662841796875">
        <ele>982.20001220703125</ele>
        <time>2022-08-26T14:43:07.000Z</time>
      </trkpt>
      <trkpt lat="40.330922864377498626708984375" lon="-1.0630236379802227020263671875">
        <ele>980.4000244140625</ele>
        <time>2022-08-26T14:43:09.000Z</time>
      </trkpt>
      <trkpt lat="40.330922864377498626708984375" lon="-1.0630236379802227020263671875">
        <ele>979.20001220703125</ele>
        <time>2022-08-26T14:43:10.000Z</time>
      </trkpt>
      <trkpt lat="40.3307034261524677276611328125" lon="-1.06288324110209941864013671875">
        <ele>978</ele>
        <time>2022-08-26T14:43:11.000Z</time>
      </trkpt>
      <trkpt lat="40.3307034261524677276611328125" lon="-1.06288324110209941864013671875">
        <ele>976.20001220703125</ele>
        <time>2022-08-26T14:43:12.000Z</time>
      </trkpt>
      <trkpt lat="40.3305944614112377166748046875" lon="-1.0628140904009342193603515625">
        <ele>974.5999755859375</ele>
        <time>2022-08-26T14:43:13.000Z</time>
      </trkpt>
      <trkpt lat="40.33048876561224460601806640625" lon="-1.0627436824142932891845703125">
        <ele>972.79998779296875</ele>
        <time>2022-08-26T14:43:14.000Z</time>
      </trkpt>
      <trkpt lat="40.330287180840969085693359375" lon="-1.06259800493717193603515625">
        <ele>971.20001220703125</ele>
        <time>2022-08-26T14:43:15.000Z</time>
      </trkpt>
      <trkpt lat="40.330287180840969085693359375" lon="-1.06259800493717193603515625">
        <ele>969.5999755859375</ele>
        <time>2022-08-26T14:43:16.000Z</time>
      </trkpt>
      <trkpt lat="40.330193303525447845458984375" lon="-1.06251544319093227386474609375">
        <ele>967.79998779296875</ele>
        <time>2022-08-26T14:43:17.000Z</time>
      </trkpt>
      <trkpt lat="40.33010638318955898284912109375" lon="-1.06242374517023563385009765625">
        <ele>965.79998779296875</ele>
        <time>2022-08-26T14:43:18.000Z</time>
      </trkpt>
      <trkpt lat="40.33002457581460475921630859375" lon="-1.06232416816055774688720703125">
        <ele>964</ele>
        <time>2022-08-26T14:43:19.000Z</time>
      </trkpt>
      <trkpt lat="40.32989817671477794647216796875" lon="-1.0621083341538906097412109375">
        <ele>962.4000244140625</ele>
        <time>2022-08-26T14:43:20.000Z</time>
      </trkpt>
      <trkpt lat="40.32989817671477794647216796875" lon="-1.0621083341538906097412109375">
        <ele>960.5999755859375</ele>
        <time>2022-08-26T14:43:21.000Z</time>
      </trkpt>
      <trkpt lat="40.3298588655889034271240234375" lon="-1.06200749985873699188232421875">
        <ele>959.20001220703125</ele>
        <time>2022-08-26T14:43:22.000Z</time>
      </trkpt>
      <trkpt lat="40.32984151504933834075927734375" lon="-1.0619175620377063751220703125">
        <ele>957.79998779296875</ele>
        <time>2022-08-26T14:43:23.000Z</time>
      </trkpt>
      <trkpt lat="40.329842269420623779296875" lon="-1.06184137053787708282470703125">
        <ele>956.4000244140625</ele>
        <time>2022-08-26T14:43:24.000Z</time>
      </trkpt>
      <trkpt lat="40.32985677011311054229736328125" lon="-1.0617737285792827606201171875">
        <ele>955</ele>
        <time>2022-08-26T14:43:25.000Z</time>
      </trkpt>
      <trkpt lat="40.3298709355294704437255859375" lon="-1.0617147199809551239013671875">
        <ele>953.5999755859375</ele>
        <time>2022-08-26T14:43:26.000Z</time>
      </trkpt>
      <trkpt lat="40.32988426275551319122314453125" lon="-1.0616570524871349334716796875">
        <ele>952.4000244140625</ele>
        <time>2022-08-26T14:43:27.000Z</time>
      </trkpt>
      <trkpt lat="40.3298999369144439697265625" lon="-1.0616030730307102203369140625">
        <ele>950.79998779296875</ele>
        <time>2022-08-26T14:43:28.000Z</time>
      </trkpt>
      <trkpt lat="40.3299133479595184326171875" lon="-1.0615547932684421539306640625">
        <ele>949.5999755859375</ele>
        <time>2022-08-26T14:43:29.000Z</time>
      </trkpt>
      <trkpt lat="40.32992114312946796417236328125" lon="-1.0614897496998310089111328125">
        <ele>948.4000244140625</ele>
        <time>2022-08-26T14:43:32.000Z</time>
      </trkpt>
      <trkpt lat="40.329923070967197418212890625" lon="-1.0614957846701145172119140625">
        <ele>948.4000244140625</ele>
        <time>2022-08-26T14:43:33.000Z</time>
      </trkpt>
      <trkpt lat="40.32996120862662792205810546875" lon="-1.0614652745425701141357421875">
        <ele>948</ele>
        <time>2022-08-26T14:44:20.000Z</time>
      </trkpt>
      <trkpt lat="40.3299795649945735931396484375" lon="-1.06140869669616222381591796875">
        <ele>948</ele>
        <time>2022-08-26T14:44:22.000Z</time>
      </trkpt>
      <trkpt lat="40.33003874123096466064453125" lon="-1.06110694818198680877685546875">
        <ele>948.20001220703125</ele>
        <time>2022-08-26T14:44:29.000Z</time>
      </trkpt>
      <trkpt lat="40.33013488166034221649169921875" lon="-1.060612834990024566650390625">
        <ele>949.20001220703125</ele>
        <time>2022-08-26T14:44:41.000Z</time>
      </trkpt>
      <trkpt lat="40.3301508910953998565673828125" lon="-1.06048886664211750030517578125">
        <ele>949.5999755859375</ele>
        <time>2022-08-26T14:44:44.000Z</time>
      </trkpt>
      <trkpt lat="40.3301840834319591522216796875" lon="-1.0602894611656665802001953125">
        <ele>950</ele>
        <time>2022-08-26T14:44:50.000Z</time>
      </trkpt>
      <trkpt lat="40.330250300467014312744140625" lon="-1.05998679064214229583740234375">
        <ele>950.4000244140625</ele>
        <time>2022-08-26T14:44:57.000Z</time>
      </trkpt>
      <trkpt lat="40.3302819840610027313232421875" lon="-1.05977590195834636688232421875">
        <ele>950.5999755859375</ele>
        <time>2022-08-26T14:45:01.000Z</time>
      </trkpt>
      <trkpt lat="40.33030738122761249542236328125" lon="-1.05960876680910587310791015625">
        <ele>951.20001220703125</ele>
        <time>2022-08-26T14:45:06.000Z</time>
      </trkpt>
      <trkpt lat="40.3303473629057407379150390625" lon="-1.0594164021313190460205078125">
        <ele>951.5999755859375</ele>
        <time>2022-08-26T14:45:13.000Z</time>
      </trkpt>
      <trkpt lat="40.33038566820323467254638671875" lon="-1.05929343961179256439208984375">
        <ele>952.20001220703125</ele>
        <time>2022-08-26T14:46:31.000Z</time>
      </trkpt>
      <trkpt lat="40.33039287663996219635009765625" lon="-1.059174835681915283203125">
        <ele>952.20001220703125</ele>
        <time>2022-08-26T14:46:34.000Z</time>
      </trkpt>
      <trkpt lat="40.33043864183127880096435546875" lon="-1.05891088955104351043701171875">
        <ele>952.5999755859375</ele>
        <time>2022-08-26T14:46:42.000Z</time>
      </trkpt>
      <trkpt lat="40.33047619275748729705810546875" lon="-1.058665215969085693359375">
        <ele>953.4000244140625</ele>
        <time>2022-08-26T14:46:50.000Z</time>
      </trkpt>
      <trkpt lat="40.33052179031074047088623046875" lon="-1.05838903225958347320556640625">
        <ele>954.4000244140625</ele>
        <time>2022-08-26T14:46:59.000Z</time>
      </trkpt>
      <trkpt lat="40.33052782528102397918701171875" lon="-1.058356761932373046875">
        <ele>954.5999755859375</ele>
        <time>2022-08-26T14:47:00.000Z</time>
      </trkpt>
      <trkpt lat="40.33055665902793407440185546875" lon="-1.05811201035976409912109375">
        <ele>955.5999755859375</ele>
        <time>2022-08-26T14:47:08.000Z</time>
      </trkpt>
      <trkpt lat="40.3305629454553127288818359375" lon="-1.05793272145092487335205078125">
        <ele>956.5999755859375</ele>
        <time>2022-08-26T14:47:14.000Z</time>
      </trkpt>
      <trkpt lat="40.33056235872209072113037109375" lon="-1.05787597596645355224609375">
        <ele>956.79998779296875</ele>
        <time>2022-08-26T14:47:16.000Z</time>
      </trkpt>
      <trkpt lat="40.33055682666599750518798828125" lon="-1.05781923048198223114013671875">
        <ele>957.20001220703125</ele>
        <time>2022-08-26T14:47:18.000Z</time>
      </trkpt>
      <trkpt lat="40.33055104315280914306640625" lon="-1.0577594675123691558837890625">
        <ele>957.5999755859375</ele>
        <time>2022-08-26T14:47:20.000Z</time>
      </trkpt>
      <trkpt lat="40.3305123187601566314697265625" lon="-1.05758336372673511505126953125">
        <ele>958.79998779296875</ele>
        <time>2022-08-26T14:47:26.000Z</time>
      </trkpt>
      <trkpt lat="40.3305052779614925384521484375" lon="-1.05755184777081012725830078125">
        <ele>959</ele>
        <time>2022-08-26T14:47:27.000Z</time>
      </trkpt>
      <trkpt lat="40.33044911921024322509765625" lon="-1.057335846126079559326171875">
        <ele>960</ele>
        <time>2022-08-26T14:47:34.000Z</time>
      </trkpt>
      <trkpt lat="40.33041919581592082977294921875" lon="-1.05725060217082500457763671875">
        <ele>960.20001220703125</ele>
        <time>2022-08-26T14:47:37.000Z</time>
      </trkpt>
      <trkpt lat="40.330383740365505218505859375" lon="-1.05712269432842731475830078125">
        <ele>961.20001220703125</ele>
        <time>2022-08-26T14:47:41.000Z</time>
      </trkpt>
      <trkpt lat="40.33031576313078403472900390625" lon="-1.05694348923861980438232421875">
        <ele>962</ele>
        <time>2022-08-26T14:47:47.000Z</time>
      </trkpt>
      <trkpt lat="40.33029262907803058624267578125" lon="-1.05687945149838924407958984375">
        <ele>962.20001220703125</ele>
        <time>2022-08-26T14:47:49.000Z</time>
      </trkpt>
      <trkpt lat="40.330201685428619384765625" lon="-1.0565663874149322509765625">
        <ele>963</ele>
        <time>2022-08-26T14:47:58.000Z</time>
      </trkpt>
      <trkpt lat="40.3301815688610076904296875" lon="-1.05649287812411785125732421875">
        <ele>963.20001220703125</ele>
        <time>2022-08-26T14:48:00.000Z</time>
      </trkpt>
      <trkpt lat="40.33014292828738689422607421875" lon="-1.05621074326336383819580078125">
        <ele>964</ele>
        <time>2022-08-26T14:48:08.000Z</time>
      </trkpt>
      <trkpt lat="40.33014862798154354095458984375" lon="-1.055738590657711029052734375">
        <ele>964.20001220703125</ele>
        <time>2022-08-26T14:48:19.000Z</time>
      </trkpt>
      <trkpt lat="40.3301884420216083526611328125" lon="-1.05556952767074108123779296875">
        <ele>964.20001220703125</ele>
        <time>2022-08-26T14:48:23.000Z</time>
      </trkpt>
      <trkpt lat="40.33024393022060394287109375" lon="-1.0553991235792636871337890625">
        <ele>964.5999755859375</ele>
        <time>2022-08-26T14:48:26.000Z</time>
      </trkpt>
      <trkpt lat="40.3303986601531505584716796875" lon="-1.0549330897629261016845703125">
        <ele>964.79998779296875</ele>
        <time>2022-08-26T14:48:36.000Z</time>
      </trkpt>
      <trkpt lat="40.33044702373445034027099609375" lon="-1.0547956265509128570556640625">
        <ele>965.4000244140625</ele>
        <time>2022-08-26T14:48:40.000Z</time>
      </trkpt>
      <trkpt lat="40.3305297531187534332275390625" lon="-1.05446496047079563140869140625">
        <ele>965.79998779296875</ele>
        <time>2022-08-26T14:48:46.000Z</time>
      </trkpt>
      <trkpt lat="40.33056856133043766021728515625" lon="-1.0541931353509426116943359375">
        <ele>966.4000244140625</ele>
        <time>2022-08-26T14:48:53.000Z</time>
      </trkpt>
      <trkpt lat="40.330570824444293975830078125" lon="-1.0539695061743259429931640625">
        <ele>966.5999755859375</ele>
        <time>2022-08-26T14:48:57.000Z</time>
      </trkpt>
      <trkpt lat="40.33049195073544979095458984375" lon="-1.05349785648286342620849609375">
        <ele>967.4000244140625</ele>
        <time>2022-08-26T14:49:08.000Z</time>
      </trkpt>
      <trkpt lat="40.3304637037217617034912109375" lon="-1.05341822840273380279541015625">
        <ele>967.4000244140625</ele>
        <time>2022-08-26T14:49:10.000Z</time>
      </trkpt>
      <trkpt lat="40.33035314641892910003662109375" lon="-1.05308228172361850738525390625">
        <ele>968.4000244140625</ele>
        <time>2022-08-26T14:49:18.000Z</time>
      </trkpt>
      <trkpt lat="40.33032682724297046661376953125" lon="-1.0530005581676959991455078125">
        <ele>968.5999755859375</ele>
        <time>2022-08-26T14:49:20.000Z</time>
      </trkpt>
      <trkpt lat="40.33026010729372501373291015625" lon="-1.05270727537572383880615234375">
        <ele>969.20001220703125</ele>
        <time>2022-08-26T14:49:28.000Z</time>
      </trkpt>
      <trkpt lat="40.33024703152477741241455078125" lon="-1.05257115326821804046630859375">
        <ele>969.5999755859375</ele>
        <time>2022-08-26T14:49:31.000Z</time>
      </trkpt>
      <trkpt lat="40.3302283398807048797607421875" lon="-1.05238641612231731414794921875">
        <ele>970</ele>
        <time>2022-08-26T14:49:36.000Z</time>
      </trkpt>
      <trkpt lat="40.3302296809852123260498046875" lon="-1.05212892405688762664794921875">
        <ele>970.4000244140625</ele>
        <time>2022-08-26T14:49:43.000Z</time>
      </trkpt>
      <trkpt lat="40.33021300099790096282958984375" lon="-1.05205348692834377288818359375">
        <ele>970.5999755859375</ele>
        <time>2022-08-26T14:49:47.000Z</time>
      </trkpt>
      <trkpt lat="40.3302098996937274932861328125" lon="-1.052034460008144378662109375">
        <ele>970.79998779296875</ele>
        <time>2022-08-26T14:49:50.000Z</time>
      </trkpt>
      <trkpt lat="40.33023144118487834930419921875" lon="-1.051833964884281158447265625">
        <ele>972</ele>
        <time>2022-08-26T14:50:42.000Z</time>
      </trkpt>
      <trkpt lat="40.33024636097252368927001953125" lon="-1.05177436955273151397705078125">
        <ele>972</ele>
        <time>2022-08-26T14:50:46.000Z</time>
      </trkpt>
      <trkpt lat="40.330290533602237701416015625" lon="-1.05158007703721523284912109375">
        <ele>972.79998779296875</ele>
        <time>2022-08-26T14:50:53.000Z</time>
      </trkpt>
      <trkpt lat="40.330308973789215087890625" lon="-1.05152023024857044219970703125">
        <ele>973</ele>
        <time>2022-08-26T14:50:55.000Z</time>
      </trkpt>
      <trkpt lat="40.33038432709872722625732421875" lon="-1.05138276703655719757080078125">
        <ele>974.20001220703125</ele>
        <time>2022-08-26T14:51:01.000Z</time>
      </trkpt>
      <trkpt lat="40.33039824105799198150634765625" lon="-1.05135954916477203369140625">
        <ele>974.4000244140625</ele>
        <time>2022-08-26T14:51:02.000Z</time>
      </trkpt>
      <trkpt lat="40.33045850694179534912109375" lon="-1.051249913871288299560546875">
        <ele>975.20001220703125</ele>
        <time>2022-08-26T14:51:07.000Z</time>
      </trkpt>
      <trkpt lat="40.3304861672222614288330078125" lon="-1.05121663771569728851318359375">
        <ele>975.5999755859375</ele>
        <time>2022-08-26T14:51:11.000Z</time>
      </trkpt>
      <trkpt lat="40.3304861672222614288330078125" lon="-1.05121663771569728851318359375">
        <ele>975.79998779296875</ele>
        <time>2022-08-26T14:51:12.000Z</time>
      </trkpt>
      <trkpt lat="40.33058113418519496917724609375" lon="-1.05113633908331394195556640625">
        <ele>975.5999755859375</ele>
        <time>2022-08-26T14:51:56.000Z</time>
      </trkpt>
      <trkpt lat="40.33062740229070186614990234375" lon="-1.05106945149600505828857421875">
        <ele>975.79998779296875</ele>
        <time>2022-08-26T14:51:59.000Z</time>
      </trkpt>
      <trkpt lat="40.33068037591874599456787109375" lon="-1.05099317617714405059814453125">
        <ele>976</ele>
        <time>2022-08-26T14:52:02.000Z</time>
      </trkpt>
      <trkpt lat="40.33073821105062961578369140625" lon="-1.05089896358549594879150390625">
        <ele>976</ele>
        <time>2022-08-26T14:52:05.000Z</time>
      </trkpt>
      <trkpt lat="40.3308413922786712646484375" lon="-1.05067902244627475738525390625">
        <ele>976.20001220703125</ele>
        <time>2022-08-26T14:52:11.000Z</time>
      </trkpt>
      <trkpt lat="40.33089344389736652374267578125" lon="-1.05056704021990299224853515625">
        <ele>976.20001220703125</ele>
        <time>2022-08-26T14:52:14.000Z</time>
      </trkpt>
      <trkpt lat="40.331000983715057373046875" lon="-1.05023712851107120513916015625">
        <ele>976.4000244140625</ele>
        <time>2022-08-26T14:52:23.000Z</time>
      </trkpt>
      <trkpt lat="40.33099494874477386474609375" lon="-1.049885340034961700439453125">
        <ele>976.4000244140625</ele>
        <time>2022-08-26T14:52:29.000Z</time>
      </trkpt>
      <trkpt lat="40.3309988044202327728271484375" lon="-1.0495054721832275390625">
        <ele>976.4000244140625</ele>
        <time>2022-08-26T14:52:36.000Z</time>
      </trkpt>
      <trkpt lat="40.3309934400022029876708984375" lon="-1.04914345778524875640869140625">
        <ele>976.20001220703125</ele>
        <time>2022-08-26T14:52:45.000Z</time>
      </trkpt>
      <trkpt lat="40.330958403646945953369140625" lon="-1.04899384081363677978515625">
        <ele>976.5999755859375</ele>
        <time>2022-08-26T14:52:51.000Z</time>
      </trkpt>
      <trkpt lat="40.33091724850237369537353515625" lon="-1.04883114807307720184326171875">
        <ele>977.4000244140625</ele>
        <time>2022-08-26T14:52:57.000Z</time>
      </trkpt>
      <trkpt lat="40.3309089504182338714599609375" lon="-1.0488032363355159759521484375">
        <ele>977.5999755859375</ele>
        <time>2022-08-26T14:52:58.000Z</time>
      </trkpt>
      <trkpt lat="40.3308908455073833465576171875" lon="-1.04870684444904327392578125">
        <ele>978.20001220703125</ele>
        <time>2022-08-26T14:53:02.000Z</time>
      </trkpt>
      <trkpt lat="40.33087559044361114501953125" lon="-1.04862495325505733489990234375">
        <ele>978.4000244140625</ele>
        <time>2022-08-26T14:53:06.000Z</time>
      </trkpt>
      <trkpt lat="40.3308345191180706024169921875" lon="-1.04838171042501926422119140625">
        <ele>979</ele>
        <time>2022-08-26T14:53:13.000Z</time>
      </trkpt>
      <trkpt lat="40.33081465400755405426025390625" lon="-1.04830007068812847137451171875">
        <ele>979.20001220703125</ele>
        <time>2022-08-26T14:53:16.000Z</time>
      </trkpt>
      <trkpt lat="40.33079571090638637542724609375" lon="-1.0481812991201877593994140625">
        <ele>979.5999755859375</ele>
        <time>2022-08-26T14:53:20.000Z</time>
      </trkpt>
      <trkpt lat="40.330719016492366790771484375" lon="-1.047932691872119903564453125">
        <ele>980.20001220703125</ele>
        <time>2022-08-26T14:53:28.000Z</time>
      </trkpt>
      <trkpt lat="40.3307054378092288970947265625" lon="-1.04781911708414554595947265625">
        <ele>980.4000244140625</ele>
        <time>2022-08-26T14:53:31.000Z</time>
      </trkpt>
      <trkpt lat="40.33068238757550716400146484375" lon="-1.04765005409717559814453125">
        <ele>981</ele>
        <time>2022-08-26T14:53:35.000Z</time>
      </trkpt>
      <trkpt lat="40.33068624325096607208251953125" lon="-1.0474128462374210357666015625">
        <ele>981.20001220703125</ele>
        <time>2022-08-26T14:53:43.000Z</time>
      </trkpt>
      <trkpt lat="40.330660678446292877197265625" lon="-1.04713817127048969268798828125">
        <ele>981.20001220703125</ele>
        <time>2022-08-26T14:53:49.000Z</time>
      </trkpt>
      <trkpt lat="40.330615080893039703369140625" lon="-1.04693147353827953338623046875">
        <ele>981.4000244140625</ele>
        <time>2022-08-26T14:53:55.000Z</time>
      </trkpt>
      <trkpt lat="40.3306134045124053955078125" lon="-1.0467681102454662322998046875">
        <ele>981.79998779296875</ele>
        <time>2022-08-26T14:53:59.000Z</time>
      </trkpt>
      <trkpt lat="40.33063285052776336669921875" lon="-1.04646292515099048614501953125">
        <ele>982.20001220703125</ele>
        <time>2022-08-26T14:54:06.000Z</time>
      </trkpt>
      <trkpt lat="40.33065942116081714630126953125" lon="-1.04618196375668048858642578125">
        <ele>982.4000244140625</ele>
        <time>2022-08-26T14:54:15.000Z</time>
      </trkpt>
      <trkpt lat="40.33067551441490650177001953125" lon="-1.04610401205718517303466796875">
        <ele>982.5999755859375</ele>
        <time>2022-08-26T14:54:16.000Z</time>
      </trkpt>
      <trkpt lat="40.3307201899588108062744140625" lon="-1.04586211033165454864501953125">
        <ele>982.79998779296875</ele>
        <time>2022-08-26T14:54:23.000Z</time>
      </trkpt>
      <trkpt lat="40.3307356126606464385986328125" lon="-1.0455718450248241424560546875">
        <ele>983</ele>
        <time>2022-08-26T14:54:30.000Z</time>
      </trkpt>
      <trkpt lat="40.33075665123760700225830078125" lon="-1.04542273096740245819091796875">
        <ele>983.4000244140625</ele>
        <time>2022-08-26T14:54:36.000Z</time>
      </trkpt>
      <trkpt lat="40.33076989464461803436279296875" lon="-1.04530689306557178497314453125">
        <ele>983.79998779296875</ele>
        <time>2022-08-26T14:54:40.000Z</time>
      </trkpt>
      <trkpt lat="40.33079353161156177520751953125" lon="-1.04520228691399097442626953125">
        <ele>984.5999755859375</ele>
        <time>2022-08-26T14:54:43.000Z</time>
      </trkpt>
      <trkpt lat="40.33081121742725372314453125" lon="-1.04507136158645153045654296875">
        <ele>985</ele>
        <time>2022-08-26T14:54:48.000Z</time>
      </trkpt>
      <trkpt lat="40.33082555048167705535888671875" lon="-1.044978238642215728759765625">
        <ele>985.5999755859375</ele>
        <time>2022-08-26T14:54:53.000Z</time>
      </trkpt>
      <trkpt lat="40.33085371367633342742919921875" lon="-1.04487396776676177978515625">
        <ele>986</ele>
        <time>2022-08-26T14:54:56.000Z</time>
      </trkpt>
      <trkpt lat="40.33089570701122283935546875" lon="-1.04467975907027721405029296875">
        <ele>986.79998779296875</ele>
        <time>2022-08-26T14:55:01.000Z</time>
      </trkpt>
      <trkpt lat="40.33091154880821704864501953125" lon="-1.04457096196711063385009765625">
        <ele>987.4000244140625</ele>
        <time>2022-08-26T14:55:04.000Z</time>
      </trkpt>
      <trkpt lat="40.33094935119152069091796875" lon="-1.044384799897670745849609375">
        <ele>987.79998779296875</ele>
        <time>2022-08-26T14:55:10.000Z</time>
      </trkpt>
      <trkpt lat="40.330983884632587432861328125" lon="-1.04426133446395397186279296875">
        <ele>988</ele>
        <time>2022-08-26T14:55:13.000Z</time>
      </trkpt>
      <trkpt lat="40.33108840696513652801513671875" lon="-1.04396511800587177276611328125">
        <ele>988</ele>
        <time>2022-08-26T14:55:19.000Z</time>
      </trkpt>
      <trkpt lat="40.33118731342256069183349609375" lon="-1.0435511358082294464111328125">
        <ele>987.5999755859375</ele>
        <time>2022-08-26T14:55:26.000Z</time>
      </trkpt>
      <trkpt lat="40.331201143562793731689453125" lon="-1.0432584397494792938232421875">
        <ele>987</ele>
        <time>2022-08-26T14:55:33.000Z</time>
      </trkpt>
      <trkpt lat="40.33120055682957172393798828125" lon="-1.04299499653279781341552734375">
        <ele>987.20001220703125</ele>
        <time>2022-08-26T14:55:41.000Z</time>
      </trkpt>
      <trkpt lat="40.3311969526112079620361328125" lon="-1.04264128021895885467529296875">
        <ele>988.20001220703125</ele>
        <time>2022-08-26T14:55:50.000Z</time>
      </trkpt>
      <trkpt lat="40.3311832062900066375732421875" lon="-1.0423605702817440032958984375">
        <ele>988.79998779296875</ele>
        <time>2022-08-26T14:55:56.000Z</time>
      </trkpt>
      <trkpt lat="40.33118261955678462982177734375" lon="-1.04232427664101123809814453125">
        <ele>989</ele>
        <time>2022-08-26T14:55:58.000Z</time>
      </trkpt>
      <trkpt lat="40.3311919234693050384521484375" lon="-1.04192680679261684417724609375">
        <ele>989.5999755859375</ele>
        <time>2022-08-26T14:56:06.000Z</time>
      </trkpt>
      <trkpt lat="40.33119133673608303070068359375" lon="-1.0418050177395343780517578125">
        <ele>989.79998779296875</ele>
        <time>2022-08-26T14:56:09.000Z</time>
      </trkpt>
      <trkpt lat="40.33119477331638336181640625" lon="-1.041658334434032440185546875">
        <ele>990</ele>
        <time>2022-08-26T14:56:14.000Z</time>
      </trkpt>
      <trkpt lat="40.33119569532573223114013671875" lon="-1.04143277741968631744384765625">
        <ele>990.5999755859375</ele>
        <time>2022-08-26T14:56:20.000Z</time>
      </trkpt>
      <trkpt lat="40.33121899701654911041259765625" lon="-1.0411616228520870208740234375">
        <ele>991</ele>
        <time>2022-08-26T14:56:29.000Z</time>
      </trkpt>
      <trkpt lat="40.33122293651103973388671875" lon="-1.0411358065903186798095703125">
        <ele>991</ele>
        <time>2022-08-26T14:56:30.000Z</time>
      </trkpt>
      <trkpt lat="40.33126342110335826873779296875" lon="-1.0408719442784786224365234375">
        <ele>991.20001220703125</ele>
        <time>2022-08-26T14:56:37.000Z</time>
      </trkpt>
      <trkpt lat="40.33133693039417266845703125" lon="-1.0405235923826694488525390625">
        <ele>991.20001220703125</ele>
        <time>2022-08-26T14:56:45.000Z</time>
      </trkpt>
      <trkpt lat="40.33141781575977802276611328125" lon="-1.04006535373628139495849609375">
        <ele>991.20001220703125</ele>
        <time>2022-08-26T14:56:55.000Z</time>
      </trkpt>
      <trkpt lat="40.3314919956028461456298828125" lon="-1.03971549309790134429931640625">
        <ele>991.5999755859375</ele>
        <time>2022-08-26T14:57:04.000Z</time>
      </trkpt>
      <trkpt lat="40.33154739998281002044677734375" lon="-1.039581634104251861572265625">
        <ele>992</ele>
        <time>2022-08-26T14:57:09.000Z</time>
      </trkpt>
      <trkpt lat="40.33159266225993633270263671875" lon="-1.03949421085417270660400390625">
        <ele>992.20001220703125</ele>
        <time>2022-08-26T14:57:11.000Z</time>
      </trkpt>
      <trkpt lat="40.3317223303020000457763671875" lon="-1.039230935275554656982421875">
        <ele>992.79998779296875</ele>
        <time>2022-08-26T14:57:18.000Z</time>
      </trkpt>
      <trkpt lat="40.331859290599822998046875" lon="-1.0389823280274868011474609375">
        <ele>993</ele>
        <time>2022-08-26T14:57:26.000Z</time>
      </trkpt>
      <trkpt lat="40.3319590352475643157958984375" lon="-1.0388016141951084136962890625">
        <ele>993</ele>
        <time>2022-08-26T14:57:30.000Z</time>
      </trkpt>
      <trkpt lat="40.3320488892495632171630859375" lon="-1.03863791562616825103759765625">
        <ele>993</ele>
        <time>2022-08-26T14:57:36.000Z</time>
      </trkpt>
      <trkpt lat="40.33214184455573558807373046875" lon="-1.0384301282465457916259765625">
        <ele>993.20001220703125</ele>
        <time>2022-08-26T14:57:41.000Z</time>
      </trkpt>
      <trkpt lat="40.3321702592074871063232421875" lon="-1.038351841270923614501953125">
        <ele>993.20001220703125</ele>
        <time>2022-08-26T14:57:44.000Z</time>
      </trkpt>
      <trkpt lat="40.33230026252567768096923828125" lon="-1.03791388683021068572998046875">
        <ele>993.79998779296875</ele>
        <time>2022-08-26T14:57:54.000Z</time>
      </trkpt>
      <trkpt lat="40.33235223032534122467041015625" lon="-1.0376916825771331787109375">
        <ele>994.20001220703125</ele>
        <time>2022-08-26T14:57:59.000Z</time>
      </trkpt>
      <trkpt lat="40.33240352757275104522705078125" lon="-1.0374256409704685211181640625">
        <ele>994.79998779296875</ele>
        <time>2022-08-26T14:58:06.000Z</time>
      </trkpt>
      <trkpt lat="40.33240922726690769195556640625" lon="-1.0373859107494354248046875">
        <ele>995</ele>
        <time>2022-08-26T14:58:07.000Z</time>
      </trkpt>
      <trkpt lat="40.3324461914598941802978515625" lon="-1.03715448640286922454833984375">
        <ele>995.20001220703125</ele>
        <time>2022-08-26T14:58:14.000Z</time>
      </trkpt>
      <trkpt lat="40.33245817758142948150634765625" lon="-1.03690252639353275299072265625">
        <ele>995.4000244140625</ele>
        <time>2022-08-26T14:58:21.000Z</time>
      </trkpt>
      <trkpt lat="40.3324860893189907073974609375" lon="-1.03655450977385044097900390625">
        <ele>996</ele>
        <time>2022-08-26T14:58:31.000Z</time>
      </trkpt>
      <trkpt lat="40.33248424530029296875" lon="-1.03652366437017917633056640625">
        <ele>996.20001220703125</ele>
        <time>2022-08-26T14:58:33.000Z</time>
      </trkpt>
      <trkpt lat="40.33247812651097774505615234375" lon="-1.0362218320369720458984375">
        <ele>996.79998779296875</ele>
        <time>2022-08-26T14:58:41.000Z</time>
      </trkpt>
      <trkpt lat="40.33250033855438232421875" lon="-1.0360090993344783782958984375">
        <ele>997.79998779296875</ele>
        <time>2022-08-26T14:58:48.000Z</time>
      </trkpt>
      <trkpt lat="40.3325078822672367095947265625" lon="-1.03598152287304401397705078125">
        <ele>998</ele>
        <time>2022-08-26T14:58:49.000Z</time>
      </trkpt>
      <trkpt lat="40.33251953311264514923095703125" lon="-1.0358096100389957427978515625">
        <ele>999.20001220703125</ele>
        <time>2022-08-26T14:58:54.000Z</time>
      </trkpt>
      <trkpt lat="40.33252380788326263427734375" lon="-1.03570793755352497100830078125">
        <ele>999.5999755859375</ele>
        <time>2022-08-26T14:58:56.000Z</time>
      </trkpt>
      <trkpt lat="40.3325430862605571746826171875" lon="-1.03550744242966175079345703125">
        <ele>1000.20001220703125</ele>
        <time>2022-08-26T14:59:03.000Z</time>
      </trkpt>
      <trkpt lat="40.3325581736862659454345703125" lon="-1.0352946259081363677978515625">
        <ele>1000.79998779296875</ele>
        <time>2022-08-26T14:59:10.000Z</time>
      </trkpt>
      <trkpt lat="40.33256630413234233856201171875" lon="-1.03519932366907596588134765625">
        <ele>1001.4000244140625</ele>
        <time>2022-08-26T14:59:13.000Z</time>
      </trkpt>
      <trkpt lat="40.33258910290896892547607421875" lon="-1.0350240580737590789794921875">
        <ele>1002</ele>
        <time>2022-08-26T14:59:18.000Z</time>
      </trkpt>
      <trkpt lat="40.33259765245020389556884765625" lon="-1.034913919866085052490234375">
        <ele>1002.4000244140625</ele>
        <time>2022-08-26T14:59:21.000Z</time>
      </trkpt>
      <trkpt lat="40.332605279982089996337890625" lon="-1.0348161868751049041748046875">
        <ele>1002.79998779296875</ele>
        <time>2022-08-26T14:59:25.000Z</time>
      </trkpt>
      <trkpt lat="40.33262430690228939056396484375" lon="-1.034515611827373504638671875">
        <ele>1003.20001220703125</ele>
        <time>2022-08-26T14:59:32.000Z</time>
      </trkpt>
      <trkpt lat="40.332646854221820831298828125" lon="-1.03427479974925518035888671875">
        <ele>1003.4000244140625</ele>
        <time>2022-08-26T14:59:38.000Z</time>
      </trkpt>
      <trkpt lat="40.33265129663050174713134765625" lon="-1.034231297671794891357421875">
        <ele>1003.4000244140625</ele>
        <time>2022-08-26T14:59:39.000Z</time>
      </trkpt>
      <trkpt lat="40.3326792083680629730224609375" lon="-1.03393189609050750732421875">
        <ele>1003.5999755859375</ele>
        <time>2022-08-26T14:59:46.000Z</time>
      </trkpt>
      <trkpt lat="40.33271022140979766845703125" lon="-1.0336366854608058929443359375">
        <ele>1004</ele>
        <time>2022-08-26T14:59:53.000Z</time>
      </trkpt>
      <trkpt lat="40.332752801477909088134765625" lon="-1.0333500243723392486572265625">
        <ele>1004.4000244140625</ele>
        <time>2022-08-26T15:00:00.000Z</time>
      </trkpt>
      <trkpt lat="40.332761518657207489013671875" lon="-1.03319202549755573272705078125">
        <ele>1004.5999755859375</ele>
        <time>2022-08-26T15:00:03.000Z</time>
      </trkpt>
      <trkpt lat="40.332763530313968658447265625" lon="-1.03310284204781055450439453125">
        <ele>1004.5999755859375</ele>
        <time>2022-08-26T15:00:06.000Z</time>
      </trkpt>
      <trkpt lat="40.3327484428882598876953125" lon="-1.03277795948088169097900390625">
        <ele>1004.5999755859375</ele>
        <time>2022-08-26T15:00:13.000Z</time>
      </trkpt>
      <trkpt lat="40.33272857777774333953857421875" lon="-1.0324893705546855926513671875">
        <ele>1004.79998779296875</ele>
        <time>2022-08-26T15:00:20.000Z</time>
      </trkpt>
      <trkpt lat="40.332654230296611785888671875" lon="-1.03214420378208160400390625">
        <ele>1005.4000244140625</ele>
        <time>2022-08-26T15:00:28.000Z</time>
      </trkpt>
      <trkpt lat="40.332654230296611785888671875" lon="-1.03214420378208160400390625">
        <ele>1005.5999755859375</ele>
        <time>2022-08-26T15:00:29.000Z</time>
      </trkpt>
      <trkpt lat="40.33262439072132110595703125" lon="-1.0319544374942779541015625">
        <ele>1006</ele>
        <time>2022-08-26T15:00:34.000Z</time>
      </trkpt>
      <trkpt lat="40.332601256668567657470703125" lon="-1.03171865455806255340576171875">
        <ele>1006.5999755859375</ele>
        <time>2022-08-26T15:00:40.000Z</time>
      </trkpt>
      <trkpt lat="40.33256395719945430755615234375" lon="-1.03133845143020153045654296875">
        <ele>1007.5999755859375</ele>
        <time>2022-08-26T15:00:49.000Z</time>
      </trkpt>
      <trkpt lat="40.3325642086565494537353515625" lon="-1.03124775923788547515869140625">
        <ele>1007.79998779296875</ele>
        <time>2022-08-26T15:00:51.000Z</time>
      </trkpt>
      <trkpt lat="40.332524813711643218994140625" lon="-1.0309222899377346038818359375">
        <ele>1008</ele>
        <time>2022-08-26T15:00:58.000Z</time>
      </trkpt>
      <trkpt lat="40.3324963152408599853515625" lon="-1.03061475791037082672119140625">
        <ele>1008.4000244140625</ele>
        <time>2022-08-26T15:01:06.000Z</time>
      </trkpt>
      <trkpt lat="40.3324641287326812744140625" lon="-1.03030613623559474945068359375">
        <ele>1008.5999755859375</ele>
        <time>2022-08-26T15:01:13.000Z</time>
      </trkpt>
      <trkpt lat="40.33243219368159770965576171875" lon="-1.03008016012609004974365234375">
        <ele>1008.79998779296875</ele>
        <time>2022-08-26T15:01:18.000Z</time>
      </trkpt>
      <trkpt lat="40.33242397941648960113525390625" lon="-1.02994772605597972869873046875">
        <ele>1009.20001220703125</ele>
        <time>2022-08-26T15:01:21.000Z</time>
      </trkpt>
      <trkpt lat="40.3324314393103122711181640625" lon="-1.0297282040119171142578125">
        <ele>1009.5999755859375</ele>
        <time>2022-08-26T15:01:28.000Z</time>
      </trkpt>
      <trkpt lat="40.33244409598410129547119140625" lon="-1.0295603983104228973388671875">
        <ele>1009.79998779296875</ele>
        <time>2022-08-26T15:01:31.000Z</time>
      </trkpt>
      <trkpt lat="40.33246723003685474395751953125" lon="-1.02943760342895984649658203125">
        <ele>1010.4000244140625</ele>
        <time>2022-08-26T15:01:34.000Z</time>
      </trkpt>
      <trkpt lat="40.3324887715280055999755859375" lon="-1.02912177331745624542236328125">
        <ele>1010.79998779296875</ele>
        <time>2022-08-26T15:01:43.000Z</time>
      </trkpt>
      <trkpt lat="40.33243068493902683258056640625" lon="-1.0289290733635425567626953125">
        <ele>1010.79998779296875</ele>
        <time>2022-08-26T15:01:48.000Z</time>
      </trkpt>
      <trkpt lat="40.3324374742805957794189453125" lon="-1.02893049828708171844482421875">
        <ele>1010.79998779296875</ele>
        <time>2022-08-26T15:01:50.000Z</time>
      </trkpt>
      <trkpt lat="40.33237670548260211944580078125" lon="-1.028823293745517730712890625">
        <ele>1011</ele>
        <time>2022-08-26T15:02:27.000Z</time>
      </trkpt>
      <trkpt lat="40.3323657251894474029541015625" lon="-1.0288009978830814361572265625">
        <ele>1011</ele>
        <time>2022-08-26T15:02:28.000Z</time>
      </trkpt>
      <trkpt lat="40.33226774074137210845947265625" lon="-1.02859622798860073089599609375">
        <ele>1011.20001220703125</ele>
        <time>2022-08-26T15:02:35.000Z</time>
      </trkpt>
      <trkpt lat="40.33210446126759052276611328125" lon="-1.028319038450717926025390625">
        <ele>1011.79998779296875</ele>
        <time>2022-08-26T15:02:44.000Z</time>
      </trkpt>
      <trkpt lat="40.33206104300916194915771484375" lon="-1.02823027409613132476806640625">
        <ele>1012</ele>
        <time>2022-08-26T15:02:47.000Z</time>
      </trkpt>
      <trkpt lat="40.3319813311100006103515625" lon="-1.02808191440999507904052734375">
        <ele>1012.4000244140625</ele>
        <time>2022-08-26T15:02:52.000Z</time>
      </trkpt>
      <trkpt lat="40.3319164551794528961181640625" lon="-1.02794998325407505035400390625">
        <ele>1013.20001220703125</ele>
        <time>2022-08-26T15:02:56.000Z</time>
      </trkpt>
      <trkpt lat="40.33187664113938808441162109375" lon="-1.02786784060299396514892578125">
        <ele>1013.4000244140625</ele>
        <time>2022-08-26T15:02:59.000Z</time>
      </trkpt>
      <trkpt lat="40.33182115294039249420166015625" lon="-1.02765846066176891326904296875">
        <ele>1014</ele>
        <time>2022-08-26T15:03:06.000Z</time>
      </trkpt>
      <trkpt lat="40.3318155370652675628662109375" lon="-1.02762761525809764862060546875">
        <ele>1014.20001220703125</ele>
        <time>2022-08-26T15:03:07.000Z</time>
      </trkpt>
      <trkpt lat="40.33177974633872509002685546875" lon="-1.027432568371295928955078125">
        <ele>1015.20001220703125</ele>
        <time>2022-08-26T15:03:14.000Z</time>
      </trkpt>
      <trkpt lat="40.3317655809223651885986328125" lon="-1.02737314067780971527099609375">
        <ele>1015.4000244140625</ele>
        <time>2022-08-26T15:03:15.000Z</time>
      </trkpt>
      <trkpt lat="40.33174504525959491729736328125" lon="-1.02723173797130584716796875">
        <ele>1015.5999755859375</ele>
        <time>2022-08-26T15:03:21.000Z</time>
      </trkpt>
      <trkpt lat="40.331718139350414276123046875" lon="-1.02703048847615718841552734375">
        <ele>1016.20001220703125</ele>
        <time>2022-08-26T15:03:27.000Z</time>
      </trkpt>
      <trkpt lat="40.331700704991817474365234375" lon="-1.02692202664911746978759765625">
        <ele>1016.4000244140625</ele>
        <time>2022-08-26T15:03:29.000Z</time>
      </trkpt>
      <trkpt lat="40.331687629222869873046875" lon="-1.026678197085857391357421875">
        <ele>1016.79998779296875</ele>
        <time>2022-08-26T15:03:36.000Z</time>
      </trkpt>
      <trkpt lat="40.3316911496222019195556640625" lon="-1.026438139379024505615234375">
        <ele>1017.20001220703125</ele>
        <time>2022-08-26T15:03:43.000Z</time>
      </trkpt>
      <trkpt lat="40.33169374801218509674072265625" lon="-1.02636764757335186004638671875">
        <ele>1017.4000244140625</ele>
        <time>2022-08-26T15:03:46.000Z</time>
      </trkpt>
      <trkpt lat="40.33172861672937870025634765625" lon="-1.02611652575433254241943359375">
        <ele>1017.5999755859375</ele>
        <time>2022-08-26T15:03:53.000Z</time>
      </trkpt>
      <trkpt lat="40.3317702747881412506103515625" lon="-1.0258036293089389801025390625">
        <ele>1018</ele>
        <time>2022-08-26T15:04:02.000Z</time>
      </trkpt>
      <trkpt lat="40.33182266168296337127685546875" lon="-1.02559969760477542877197265625">
        <ele>1018.4000244140625</ele>
        <time>2022-08-26T15:04:08.000Z</time>
      </trkpt>
      <trkpt lat="40.3318391740322113037109375" lon="-1.025529205799102783203125">
        <ele>1018.4000244140625</ele>
        <time>2022-08-26T15:04:10.000Z</time>
      </trkpt>
      <trkpt lat="40.33194243907928466796875" lon="-1.0252071730792522430419921875">
        <ele>1019.20001220703125</ele>
        <time>2022-08-26T15:04:19.000Z</time>
      </trkpt>
      <trkpt lat="40.33210337162017822265625" lon="-1.02484851144254207611083984375">
        <ele>1019.79998779296875</ele>
        <time>2022-08-26T15:04:29.000Z</time>
      </trkpt>
      <trkpt lat="40.33221527002751827239990234375" lon="-1.02461683563888072967529296875">
        <ele>1020.20001220703125</ele>
        <time>2022-08-26T15:04:36.000Z</time>
      </trkpt>
      <trkpt lat="40.3322522342205047607421875" lon="-1.02453804574906826019287109375">
        <ele>1020.4000244140625</ele>
        <time>2022-08-26T15:04:40.000Z</time>
      </trkpt>
      <trkpt lat="40.33225692808628082275390625" lon="-1.02454391308128833770751953125">
        <ele>1020.4000244140625</ele>
        <time>2022-08-26T15:04:41.000Z</time>
      </trkpt>
      <trkpt lat="40.33232993446290493011474609375" lon="-1.02448917925357818603515625">
        <ele>1021.20001220703125</ele>
        <time>2022-08-26T15:05:41.000Z</time>
      </trkpt>
      <trkpt lat="40.33238232135772705078125" lon="-1.02442924864590167999267578125">
        <ele>1021.20001220703125</ele>
        <time>2022-08-26T15:05:43.000Z</time>
      </trkpt>
      <trkpt lat="40.33255171962082386016845703125" lon="-1.02424048818647861480712890625">
        <ele>1021.20001220703125</ele>
        <time>2022-08-26T15:05:50.000Z</time>
      </trkpt>
      <trkpt lat="40.33270712010562419891357421875" lon="-1.02408349514007568359375">
        <ele>1021.20001220703125</ele>
        <time>2022-08-26T15:05:56.000Z</time>
      </trkpt>
      <trkpt lat="40.3327311761677265167236328125" lon="-1.02405625395476818084716796875">
        <ele>1021.4000244140625</ele>
        <time>2022-08-26T15:05:57.000Z</time>
      </trkpt>
      <trkpt lat="40.33288590610027313232421875" lon="-1.023892052471637725830078125">
        <ele>1021.79998779296875</ele>
        <time>2022-08-26T15:06:04.000Z</time>
      </trkpt>
      <trkpt lat="40.33303015865385532379150390625" lon="-1.02372466586530208587646484375">
        <ele>1022.4000244140625</ele>
        <time>2022-08-26T15:06:11.000Z</time>
      </trkpt>
      <trkpt lat="40.33326409757137298583984375" lon="-1.02353137917816638946533203125">
        <ele>1023.20001220703125</ele>
        <time>2022-08-26T15:06:21.000Z</time>
      </trkpt>
      <trkpt lat="40.333469621837139129638671875" lon="-1.023423671722412109375">
        <ele>1024.199951171875</ele>
        <time>2022-08-26T15:06:29.000Z</time>
      </trkpt>
      <trkpt lat="40.333498455584049224853515625" lon="-1.02341252379119396209716796875">
        <ele>1024.199951171875</ele>
        <time>2022-08-26T15:06:30.000Z</time>
      </trkpt>
      <trkpt lat="40.3337891399860382080078125" lon="-1.02331277914345264434814453125">
        <ele>1024.800048828125</ele>
        <time>2022-08-26T15:06:39.000Z</time>
      </trkpt>
      <trkpt lat="40.33404889516532421112060546875" lon="-1.0232179798185825347900390625">
        <ele>1025.199951171875</ele>
        <time>2022-08-26T15:06:47.000Z</time>
      </trkpt>
      <trkpt lat="40.33418283797800540924072265625" lon="-1.02312988601624965667724609375">
        <ele>1025.4000244140625</ele>
        <time>2022-08-26T15:06:52.000Z</time>
      </trkpt>
      <trkpt lat="40.33424184657633304595947265625" lon="-1.0230778343975543975830078125">
        <ele>1025.4000244140625</ele>
        <time>2022-08-26T15:06:54.000Z</time>
      </trkpt>
      <trkpt lat="40.3345026075839996337890625" lon="-1.022819168865680694580078125">
        <ele>1025.4000244140625</ele>
        <time>2022-08-26T15:07:02.000Z</time>
      </trkpt>
      <trkpt lat="40.3346824832260608673095703125" lon="-1.022650189697742462158203125">
        <ele>1025.5999755859375</ele>
        <time>2022-08-26T15:07:08.000Z</time>
      </trkpt>
      <trkpt lat="40.334878452122211456298828125" lon="-1.02241055108606815338134765625">
        <ele>1026</ele>
        <time>2022-08-26T15:07:15.000Z</time>
      </trkpt>
      <trkpt lat="40.33490150235593318939208984375" lon="-1.022378616034984588623046875">
        <ele>1026.199951171875</ele>
        <time>2022-08-26T15:07:16.000Z</time>
      </trkpt>
      <trkpt lat="40.33505086787045001983642578125" lon="-1.022160351276397705078125">
        <ele>1026.5999755859375</ele>
        <time>2022-08-26T15:07:22.000Z</time>
      </trkpt>
      <trkpt lat="40.33521180041134357452392578125" lon="-1.021950803697109222412109375">
        <ele>1027.199951171875</ele>
        <time>2022-08-26T15:07:29.000Z</time>
      </trkpt>
      <trkpt lat="40.33523811958730220794677734375" lon="-1.02191249839961528778076171875">
        <ele>1027.4000244140625</ele>
        <time>2022-08-26T15:07:30.000Z</time>
      </trkpt>
      <trkpt lat="40.33548873849213123321533203125" lon="-1.02159599773585796356201171875">
        <ele>1028.199951171875</ele>
        <time>2022-08-26T15:07:39.000Z</time>
      </trkpt>
      <trkpt lat="40.33569526858627796173095703125" lon="-1.02130472660064697265625">
        <ele>1029</ele>
        <time>2022-08-26T15:07:46.000Z</time>
      </trkpt>
      <trkpt lat="40.33577607013285160064697265625" lon="-1.02119970135390758514404296875">
        <ele>1029.4000244140625</ele>
        <time>2022-08-26T15:07:50.000Z</time>
      </trkpt>
      <trkpt lat="40.33583004958927631378173828125" lon="-1.02113314904272556304931640625">
        <ele>1029.5999755859375</ele>
        <time>2022-08-26T15:07:52.000Z</time>
      </trkpt>
      <trkpt lat="40.33600774593651294708251953125" lon="-1.02087096311151981353759765625">
        <ele>1030</ele>
        <time>2022-08-26T15:07:58.000Z</time>
      </trkpt>
      <trkpt lat="40.336202792823314666748046875" lon="-1.02064289152622222900390625">
        <ele>1030.4000244140625</ele>
        <time>2022-08-26T15:08:06.000Z</time>
      </trkpt>
      <trkpt lat="40.33640353940427303314208984375" lon="-1.02037467062473297119140625">
        <ele>1030.800048828125</ele>
        <time>2022-08-26T15:08:13.000Z</time>
      </trkpt>
      <trkpt lat="40.3365513123571872711181640625" lon="-1.02016470395028591156005859375">
        <ele>1031.4000244140625</ele>
        <time>2022-08-26T15:08:19.000Z</time>
      </trkpt>
      <trkpt lat="40.3366358019411563873291015625" lon="-1.02008155547082424163818359375">
        <ele>1031.5999755859375</ele>
        <time>2022-08-26T15:08:22.000Z</time>
      </trkpt>
      <trkpt lat="40.33680989407002925872802734375" lon="-1.01984300650656223297119140625">
        <ele>1032.4000244140625</ele>
        <time>2022-08-26T15:08:29.000Z</time>
      </trkpt>
      <trkpt lat="40.336837805807590484619140625" lon="-1.01980746723711490631103515625">
        <ele>1032.5999755859375</ele>
        <time>2022-08-26T15:08:30.000Z</time>
      </trkpt>
      <trkpt lat="40.33702027983963489532470703125" lon="-1.01955198682844638824462890625">
        <ele>1033</ele>
        <time>2022-08-26T15:08:38.000Z</time>
      </trkpt>
      <trkpt lat="40.337087251245975494384765625" lon="-1.0194786451756954193115234375">
        <ele>1033.4000244140625</ele>
        <time>2022-08-26T15:08:41.000Z</time>
      </trkpt>
      <trkpt lat="40.3372198529541492462158203125" lon="-1.019346378743648529052734375">
        <ele>1034.199951171875</ele>
        <time>2022-08-26T15:08:46.000Z</time>
      </trkpt>
      <trkpt lat="40.3373103775084018707275390625" lon="-1.01922710426151752471923828125">
        <ele>1034.5999755859375</ele>
        <time>2022-08-26T15:08:49.000Z</time>
      </trkpt>
      <trkpt lat="40.337439291179180145263671875" lon="-1.019045300781726837158203125">
        <ele>1035</ele>
        <time>2022-08-26T15:08:53.000Z</time>
      </trkpt>
      <trkpt lat="40.33756393007934093475341796875" lon="-1.01890155114233493804931640625">
        <ele>1035.5999755859375</ele>
        <time>2022-08-26T15:08:58.000Z</time>
      </trkpt>
      <trkpt lat="40.3376138024032115936279296875" lon="-1.018858216702938079833984375">
        <ele>1035.5999755859375</ele>
        <time>2022-08-26T15:09:00.000Z</time>
      </trkpt>
      <trkpt lat="40.3377117030322551727294921875" lon="-1.0187780857086181640625">
        <ele>1036</ele>
        <time>2022-08-26T15:09:05.000Z</time>
      </trkpt>
      <trkpt lat="40.3378381021320819854736328125" lon="-1.018644981086254119873046875">
        <ele>1036.199951171875</ele>
        <time>2022-08-26T15:09:11.000Z</time>
      </trkpt>
      <trkpt lat="40.3378893993794918060302734375" lon="-1.01860885508358478546142578125">
        <ele>1036.5999755859375</ele>
        <time>2022-08-26T15:09:13.000Z</time>
      </trkpt>
      <trkpt lat="40.33791529946029186248779296875" lon="-1.01859569549560546875">
        <ele>1036.5999755859375</ele>
        <time>2022-08-26T15:09:14.000Z</time>
      </trkpt>
      <trkpt lat="40.33794044516980648040771484375" lon="-1.01858236826956272125244140625">
        <ele>1036.800048828125</ele>
        <time>2022-08-26T15:09:16.000Z</time>
      </trkpt>
      <trkpt lat="40.33811244182288646697998046875" lon="-1.018400229513645172119140625">
        <ele>1037.4000244140625</ele>
        <time>2022-08-26T15:09:22.000Z</time>
      </trkpt>
      <trkpt lat="40.33813767135143280029296875" lon="-1.0183856450021266937255859375">
        <ele>1037.4000244140625</ele>
        <time>2022-08-26T15:09:23.000Z</time>
      </trkpt>
      <trkpt lat="40.338255353271961212158203125" lon="-1.01827508769929409027099609375">
        <ele>1038.199951171875</ele>
        <time>2022-08-26T15:09:28.000Z</time>
      </trkpt>
      <trkpt lat="40.3383333049714565277099609375" lon="-1.0182019136846065521240234375">
        <ele>1038.5999755859375</ele>
        <time>2022-08-26T15:09:32.000Z</time>
      </trkpt>
      <trkpt lat="40.33838971517980098724365234375" lon="-1.01814768277108669281005859375">
        <ele>1039</ele>
        <time>2022-08-26T15:09:35.000Z</time>
      </trkpt>
      <trkpt lat="40.3384234942495822906494140625" lon="-1.018110550940036773681640625">
        <ele>1039.5999755859375</ele>
        <time>2022-08-26T15:09:38.000Z</time>
      </trkpt>
      <trkpt lat="40.3385760448873043060302734375" lon="-1.01797878742218017578125">
        <ele>1040.5999755859375</ele>
        <time>2022-08-26T15:09:45.000Z</time>
      </trkpt>
      <trkpt lat="40.3386216424405574798583984375" lon="-1.0179256461560726165771484375">
        <ele>1040.800048828125</ele>
        <time>2022-08-26T15:09:50.000Z</time>
      </trkpt>
      <trkpt lat="40.33870160579681396484375" lon="-1.0178183577954769134521484375">
        <ele>1041.800048828125</ele>
        <time>2022-08-26T15:10:19.000Z</time>
      </trkpt>
      <trkpt lat="40.33872373402118682861328125" lon="-1.0177912004292011260986328125">
        <ele>1041.5999755859375</ele>
        <time>2022-08-26T15:10:21.000Z</time>
      </trkpt>
      <trkpt lat="40.33893889747560024261474609375" lon="-1.0175766237080097198486328125">
        <ele>1041.800048828125</ele>
        <time>2022-08-26T15:10:29.000Z</time>
      </trkpt>
      <trkpt lat="40.339067392051219940185546875" lon="-1.01746221072971820831298828125">
        <ele>1042.4000244140625</ele>
        <time>2022-08-26T15:10:36.000Z</time>
      </trkpt>
      <trkpt lat="40.33915800042450428009033203125" lon="-1.0173927247524261474609375">
        <ele>1043</ele>
        <time>2022-08-26T15:10:39.000Z</time>
      </trkpt>
      <trkpt lat="40.33926662988960742950439453125" lon="-1.01733128540217876434326171875">
        <ele>1043.5999755859375</ele>
        <time>2022-08-26T15:10:43.000Z</time>
      </trkpt>
      <trkpt lat="40.3392901830375194549560546875" lon="-1.017315275967121124267578125">
        <ele>1044</ele>
        <time>2022-08-26T15:10:45.000Z</time>
      </trkpt>
      <trkpt lat="40.3395141474902629852294921875" lon="-1.0171923972666263580322265625">
        <ele>1045</ele>
        <time>2022-08-26T15:10:52.000Z</time>
      </trkpt>
      <trkpt lat="40.33970835618674755096435546875" lon="-1.017085611820220947265625">
        <ele>1045.800048828125</ele>
        <time>2022-08-26T15:11:00.000Z</time>
      </trkpt>
      <trkpt lat="40.33976376056671142578125" lon="-1.01705384440720081329345703125">
        <ele>1046</ele>
        <time>2022-08-26T15:11:02.000Z</time>
      </trkpt>
      <trkpt lat="40.33985034562647342681884765625" lon="-1.01701243780553340911865234375">
        <ele>1046.199951171875</ele>
        <time>2022-08-26T15:11:05.000Z</time>
      </trkpt>
      <trkpt lat="40.340124852955341339111328125" lon="-1.016864664852619171142578125">
        <ele>1046.800048828125</ele>
        <time>2022-08-26T15:11:13.000Z</time>
      </trkpt>
      <trkpt lat="40.340354852378368377685546875" lon="-1.0167129524052143096923828125">
        <ele>1047</ele>
        <time>2022-08-26T15:11:20.000Z</time>
      </trkpt>
      <trkpt lat="40.3403882123529911041259765625" lon="-1.01668889634311199188232421875">
        <ele>1047.199951171875</ele>
        <time>2022-08-26T15:11:21.000Z</time>
      </trkpt>
      <trkpt lat="40.3406017832458019256591796875" lon="-1.0164995491504669189453125">
        <ele>1047.4000244140625</ele>
        <time>2022-08-26T15:11:28.000Z</time>
      </trkpt>
      <trkpt lat="40.34077855758368968963623046875" lon="-1.01625689305365085601806640625">
        <ele>1047.5999755859375</ele>
        <time>2022-08-26T15:11:35.000Z</time>
      </trkpt>
      <trkpt lat="40.34082884900271892547607421875" lon="-1.01614759303629398345947265625">
        <ele>1048.199951171875</ele>
        <time>2022-08-26T15:11:39.000Z</time>
      </trkpt>
      <trkpt lat="40.34084728918969631195068359375" lon="-1.01607634685933589935302734375">
        <ele>1048.4000244140625</ele>
        <time>2022-08-26T15:11:42.000Z</time>
      </trkpt>
      <trkpt lat="40.34089523367583751678466796875" lon="-1.01582908071577548980712890625">
        <ele>1049.199951171875</ele>
        <time>2022-08-26T15:11:48.000Z</time>
      </trkpt>
      <trkpt lat="40.340926162898540496826171875" lon="-1.01577560417354106903076171875">
        <ele>1049.4000244140625</ele>
        <time>2022-08-26T15:11:50.000Z</time>
      </trkpt>
      <trkpt lat="40.34098483622074127197265625" lon="-1.0157285816967487335205078125">
        <ele>1049.800048828125</ele>
        <time>2022-08-26T15:11:53.000Z</time>
      </trkpt>
      <trkpt lat="40.3410007618367671966552734375" lon="-1.0157383047044277191162109375">
        <ele>1049.800048828125</ele>
        <time>2022-08-26T15:11:54.000Z</time>
      </trkpt>
      <trkpt lat="40.34105122089385986328125" lon="-1.01580326445400714874267578125">
        <ele>1050.199951171875</ele>
        <time>2022-08-26T15:11:57.000Z</time>
      </trkpt>
      <trkpt lat="40.34110151231288909912109375" lon="-1.0158834792673587799072265625">
        <ele>1050.5999755859375</ele>
        <time>2022-08-26T15:12:00.000Z</time>
      </trkpt>
      <trkpt lat="40.3411464393138885498046875" lon="-1.0159612633287906646728515625">
        <ele>1051.4000244140625</ele>
        <time>2022-08-26T15:12:03.000Z</time>
      </trkpt>
      <trkpt lat="40.34124677069485187530517578125" lon="-1.01613468490540981292724609375">
        <ele>1051.800048828125</ele>
        <time>2022-08-26T15:12:09.000Z</time>
      </trkpt>
      <trkpt lat="40.34134718589484691619873046875" lon="-1.016314141452312469482421875">
        <ele>1052.199951171875</ele>
        <time>2022-08-26T15:12:16.000Z</time>
      </trkpt>
      <trkpt lat="40.3413677215576171875" lon="-1.01636250503361225128173828125">
        <ele>1052.4000244140625</ele>
        <time>2022-08-26T15:12:18.000Z</time>
      </trkpt>
      <trkpt lat="40.34142949618399143218994140625" lon="-1.01647934876382350921630859375">
        <ele>1053</ele>
        <time>2022-08-26T15:12:24.000Z</time>
      </trkpt>
      <trkpt lat="40.341451875865459442138671875" lon="-1.01652167737483978271484375">
        <ele>1053.4000244140625</ele>
        <time>2022-08-26T15:12:25.000Z</time>
      </trkpt>
      <trkpt lat="40.3415204398334026336669921875" lon="-1.01664396934211254119873046875">
        <ele>1054.5999755859375</ele>
        <time>2022-08-26T15:12:31.000Z</time>
      </trkpt>
      <trkpt lat="40.341528318822383880615234375" lon="-1.0166640020906925201416015625">
        <ele>1054.800048828125</ele>
        <time>2022-08-26T15:12:32.000Z</time>
      </trkpt>
      <trkpt lat="40.3415596671402454376220703125" lon="-1.0167109407484531402587890625">
        <ele>1055.5999755859375</ele>
        <time>2022-08-26T15:12:35.000Z</time>
      </trkpt>
      <trkpt lat="40.341604761779308319091796875" lon="-1.01679149083793163299560546875">
        <ele>1056.5999755859375</ele>
        <time>2022-08-26T15:12:40.000Z</time>
      </trkpt>
      <trkpt lat="40.34161440096795558929443359375" lon="-1.01680942811071872711181640625">
        <ele>1056.800048828125</ele>
        <time>2022-08-26T15:12:41.000Z</time>
      </trkpt>
      <trkpt lat="40.341658405959606170654296875" lon="-1.0168802551925182342529296875">
        <ele>1058</ele>
        <time>2022-08-26T15:12:46.000Z</time>
      </trkpt>
      <trkpt lat="40.3416936099529266357421875" lon="-1.01693666540086269378662109375">
        <ele>1058.4000244140625</ele>
        <time>2022-08-26T15:12:48.000Z</time>
      </trkpt>
      <trkpt lat="40.34170425496995449066162109375" lon="-1.01695359684526920318603515625">
        <ele>1059.199951171875</ele>
        <time>2022-08-26T15:12:50.000Z</time>
      </trkpt>
      <trkpt lat="40.34173929132521152496337890625" lon="-1.01702467538416385650634765625">
        <ele>1060.4000244140625</ele>
        <time>2022-08-26T15:12:53.000Z</time>
      </trkpt>
      <trkpt lat="40.34176175482571125030517578125" lon="-1.01708452217280864715576171875">
        <ele>1061.199951171875</ele>
        <time>2022-08-26T15:12:57.000Z</time>
      </trkpt>
      <trkpt lat="40.34176938235759735107421875" lon="-1.01710162125527858734130859375">
        <ele>1061.5999755859375</ele>
        <time>2022-08-26T15:12:58.000Z</time>
      </trkpt>
      <trkpt lat="40.34179578535258769989013671875" lon="-1.017200946807861328125">
        <ele>1062.5999755859375</ele>
        <time>2022-08-26T15:13:02.000Z</time>
      </trkpt>
      <trkpt lat="40.341799557209014892578125" lon="-1.01721628569066524505615234375">
        <ele>1063.199951171875</ele>
        <time>2022-08-26T15:13:05.000Z</time>
      </trkpt>
      <trkpt lat="40.3418708033859729766845703125" lon="-1.01716364733874797821044921875">
        <ele>1067.4000244140625</ele>
        <time>2022-08-26T15:14:43.000Z</time>
      </trkpt>
      <trkpt lat="40.34186149947345256805419921875" lon="-1.0170572809875011444091796875">
        <ele>1068</ele>
        <time>2022-08-26T15:14:45.000Z</time>
      </trkpt>
      <trkpt lat="40.3418349288403987884521484375" lon="-1.0169218294322490692138671875">
        <ele>1068.5999755859375</ele>
        <time>2022-08-26T15:14:48.000Z</time>
      </trkpt>
      <trkpt lat="40.34175655804574489593505859375" lon="-1.01665033958852291107177734375">
        <ele>1068.800048828125</ele>
        <time>2022-08-26T15:14:54.000Z</time>
      </trkpt>
      <trkpt lat="40.341632254421710968017578125" lon="-1.0162452422082424163818359375">
        <ele>1069</ele>
        <time>2022-08-26T15:15:03.000Z</time>
      </trkpt>
      <trkpt lat="40.3415160812437534332275390625" lon="-1.01589982397854328155517578125">
        <ele>1069</ele>
        <time>2022-08-26T15:15:11.000Z</time>
      </trkpt>
      <trkpt lat="40.3413967229425907135009765625" lon="-1.01561383344233036041259765625">
        <ele>1069.800048828125</ele>
        <time>2022-08-26T15:15:18.000Z</time>
      </trkpt>
      <trkpt lat="40.3411811403930187225341796875" lon="-1.01529330946505069732666015625">
        <ele>1071</ele>
        <time>2022-08-26T15:15:27.000Z</time>
      </trkpt>
      <trkpt lat="40.34110696054995059967041015625" lon="-1.01520764641463756561279296875">
        <ele>1071</ele>
        <time>2022-08-26T15:15:30.000Z</time>
      </trkpt>
      <trkpt lat="40.34101425670087337493896484375" lon="-1.01510521955788135528564453125">
        <ele>1071.4000244140625</ele>
        <time>2022-08-26T15:15:35.000Z</time>
      </trkpt>
      <trkpt lat="40.34089590422809123992919921875" lon="-1.01496708579361438751220703125">
        <ele>1072</ele>
        <time>2022-08-26T15:15:39.000Z</time>
      </trkpt>
      <trkpt lat="40.34076849929988384246826171875" lon="-1.01480363868176937103271484375">
        <ele>1072.800048828125</ele>
        <time>2022-08-26T15:15:44.000Z</time>
      </trkpt>
      <trkpt lat="40.3405608795583248138427734375" lon="-1.01455687545239925384521484375">
        <ele>1073.199951171875</ele>
        <time>2022-08-26T15:15:53.000Z</time>
      </trkpt>
      <trkpt lat="40.3405402600765228271484375" lon="-1.0145313106477260589599609375">
        <ele>1073.4000244140625</ele>
        <time>2022-08-26T15:15:54.000Z</time>
      </trkpt>
      <trkpt lat="40.340356864035129547119140625" lon="-1.01431480608880519866943359375">
        <ele>1074</ele>
        <time>2022-08-26T15:16:02.000Z</time>
      </trkpt>
      <trkpt lat="40.3403134457767009735107421875" lon="-1.01426250301301479339599609375">
        <ele>1074.5999755859375</ele>
        <time>2022-08-26T15:16:04.000Z</time>
      </trkpt>
      <trkpt lat="40.340177826583385467529296875" lon="-1.01409587077796459197998046875">
        <ele>1075.4000244140625</ele>
        <time>2022-08-26T15:16:11.000Z</time>
      </trkpt>
      <trkpt lat="40.33998596481978893280029296875" lon="-1.01390920579433441162109375">
        <ele>1075.800048828125</ele>
        <time>2022-08-26T15:16:19.000Z</time>
      </trkpt>
      <trkpt lat="40.3398199193179607391357421875" lon="-1.0137355327606201171875">
        <ele>1076</ele>
        <time>2022-08-26T15:16:26.000Z</time>
      </trkpt>
      <trkpt lat="40.33960408531129360198974609375" lon="-1.013507209718227386474609375">
        <ele>1077</ele>
        <time>2022-08-26T15:16:35.000Z</time>
      </trkpt>
      <trkpt lat="40.33958229236304759979248046875" lon="-1.01347929798066616058349609375">
        <ele>1077.199951171875</ele>
        <time>2022-08-26T15:16:36.000Z</time>
      </trkpt>
      <trkpt lat="40.339452959597110748291015625" lon="-1.01334803737699985504150390625">
        <ele>1077.5999755859375</ele>
        <time>2022-08-26T15:16:42.000Z</time>
      </trkpt>
      <trkpt lat="40.3393619321286678314208984375" lon="-1.0132757015526294708251953125">
        <ele>1078.199951171875</ele>
        <time>2022-08-26T15:16:46.000Z</time>
      </trkpt>
      <trkpt lat="40.3393227048218250274658203125" lon="-1.01322147063910961151123046875">
        <ele>1078.4000244140625</ele>
        <time>2022-08-26T15:16:48.000Z</time>
      </trkpt>
      <trkpt lat="40.3391668014228343963623046875" lon="-1.0130259208381175994873046875">
        <ele>1079.199951171875</ele>
        <time>2022-08-26T15:16:55.000Z</time>
      </trkpt>
      <trkpt lat="40.33914660103619098663330078125" lon="-1.012992896139621734619140625">
        <ele>1079.199951171875</ele>
        <time>2022-08-26T15:16:56.000Z</time>
      </trkpt>
      <trkpt lat="40.3389743529260158538818359375" lon="-1.0127784870564937591552734375">
        <ele>1079.5999755859375</ele>
        <time>2022-08-26T15:17:03.000Z</time>
      </trkpt>
      <trkpt lat="40.3388047032058238983154296875" lon="-1.01254773326218128204345703125">
        <ele>1079.800048828125</ele>
        <time>2022-08-26T15:17:11.000Z</time>
      </trkpt>
      <trkpt lat="40.33867185004055500030517578125" lon="-1.01238478906452655792236328125">
        <ele>1080.4000244140625</ele>
        <time>2022-08-26T15:17:17.000Z</time>
      </trkpt>
      <trkpt lat="40.33865273930132389068603515625" lon="-1.0123609006404876708984375">
        <ele>1080.5999755859375</ele>
        <time>2022-08-26T15:17:18.000Z</time>
      </trkpt>
      <trkpt lat="40.33850672654807567596435546875" lon="-1.01221279241144657135009765625">
        <ele>1081</ele>
        <time>2022-08-26T15:17:25.000Z</time>
      </trkpt>
      <trkpt lat="40.3383569419384002685546875" lon="-1.01207993924617767333984375">
        <ele>1081.4000244140625</ele>
        <time>2022-08-26T15:17:32.000Z</time>
      </trkpt>
      <trkpt lat="40.338334478437900543212890625" lon="-1.01205714046955108642578125">
        <ele>1081.5999755859375</ele>
        <time>2022-08-26T15:17:33.000Z</time>
      </trkpt>
      <trkpt lat="40.3382246755063533782958984375" lon="-1.0119171626865863800048828125">
        <ele>1081.800048828125</ele>
        <time>2022-08-26T15:17:39.000Z</time>
      </trkpt>
      <trkpt lat="40.33816449344158172607421875" lon="-1.01185069419443607330322265625">
        <ele>1082.4000244140625</ele>
        <time>2022-08-26T15:17:43.000Z</time>
      </trkpt>
      <trkpt lat="40.338087379932403564453125" lon="-1.01175162009894847869873046875">
        <ele>1082.4000244140625</ele>
        <time>2022-08-26T15:17:47.000Z</time>
      </trkpt>
      <trkpt lat="40.3379219211637973785400390625" lon="-1.01155288517475128173828125">
        <ele>1081.4000244140625</ele>
        <time>2022-08-26T15:17:55.000Z</time>
      </trkpt>
      <trkpt lat="40.33789618872106075286865234375" lon="-1.01152044720947742462158203125">
        <ele>1081.4000244140625</ele>
        <time>2022-08-26T15:17:56.000Z</time>
      </trkpt>
      <trkpt lat="40.33774615265429019927978515625" lon="-1.0113344527781009674072265625">
        <ele>1080.5999755859375</ele>
        <time>2022-08-26T15:18:03.000Z</time>
      </trkpt>
      <trkpt lat="40.3375440649688243865966796875" lon="-1.01110763847827911376953125">
        <ele>1081</ele>
        <time>2022-08-26T15:18:12.000Z</time>
      </trkpt>
      <trkpt lat="40.33735270611941814422607421875" lon="-1.01088476367294788360595703125">
        <ele>1082.199951171875</ele>
        <time>2022-08-26T15:18:21.000Z</time>
      </trkpt>
      <trkpt lat="40.33715740777552127838134765625" lon="-1.0106940753757953643798828125">
        <ele>1082.4000244140625</ele>
        <time>2022-08-26T15:18:29.000Z</time>
      </trkpt>
      <trkpt lat="40.33710745163261890411376953125" lon="-1.0106464661657810211181640625">
        <ele>1082.5999755859375</ele>
        <time>2022-08-26T15:18:31.000Z</time>
      </trkpt>
      <trkpt lat="40.3369640372693538665771484375" lon="-1.01055501960217952728271484375">
        <ele>1082.5999755859375</ele>
        <time>2022-08-26T15:18:36.000Z</time>
      </trkpt>
      <trkpt lat="40.33664443530142307281494140625" lon="-1.01040800102055072784423828125">
        <ele>1083.5999755859375</ele>
        <time>2022-08-26T15:18:46.000Z</time>
      </trkpt>
      <trkpt lat="40.33650915138423442840576171875" lon="-1.01038050837814807891845703125">
        <ele>1084.5999755859375</ele>
        <time>2022-08-26T15:18:50.000Z</time>
      </trkpt>
      <trkpt lat="40.3363689221441745758056640625" lon="-1.01036391220986843109130859375">
        <ele>1085.199951171875</ele>
        <time>2022-08-26T15:18:54.000Z</time>
      </trkpt>
      <trkpt lat="40.336064659059047698974609375" lon="-1.01036458276212215423583984375">
        <ele>1085.5999755859375</ele>
        <time>2022-08-26T15:19:03.000Z</time>
      </trkpt>
      <trkpt lat="40.33603087998926639556884765625" lon="-1.01036810316145420074462890625">
        <ele>1085.800048828125</ele>
        <time>2022-08-26T15:19:04.000Z</time>
      </trkpt>
      <trkpt lat="40.33580138348042964935302734375" lon="-1.0104164667427539825439453125">
        <ele>1086.4000244140625</ele>
        <time>2022-08-26T15:19:11.000Z</time>
      </trkpt>
      <trkpt lat="40.3354703821241855621337890625" lon="-1.0104955919086933135986328125">
        <ele>1087</ele>
        <time>2022-08-26T15:19:21.000Z</time>
      </trkpt>
      <trkpt lat="40.3354408778250217437744140625" lon="-1.01050439290702342987060546875">
        <ele>1087.4000244140625</ele>
        <time>2022-08-26T15:19:22.000Z</time>
      </trkpt>
      <trkpt lat="40.33536133356392383575439453125" lon="-1.01053222082555294036865234375">
        <ele>1088.199951171875</ele>
        <time>2022-08-26T15:19:25.000Z</time>
      </trkpt>
      <trkpt lat="40.3352169133722782135009765625" lon="-1.01057077758014202117919921875">
        <ele>1088.800048828125</ele>
        <time>2022-08-26T15:19:30.000Z</time>
      </trkpt>
      <trkpt lat="40.33515916205942630767822265625" lon="-1.01059022359549999237060546875">
        <ele>1089.4000244140625</ele>
        <time>2022-08-26T15:19:32.000Z</time>
      </trkpt>
      <trkpt lat="40.33504852093756198883056640625" lon="-1.01062978617846965789794921875">
        <ele>1090</ele>
        <time>2022-08-26T15:19:36.000Z</time>
      </trkpt>
      <trkpt lat="40.3349621035158634185791015625" lon="-1.0106548480689525604248046875">
        <ele>1090.4000244140625</ele>
        <time>2022-08-26T15:19:39.000Z</time>
      </trkpt>
      <trkpt lat="40.3348216228187084197998046875" lon="-1.0107158683240413665771484375">
        <ele>1090.800048828125</ele>
        <time>2022-08-26T15:19:44.000Z</time>
      </trkpt>
      <trkpt lat="40.33463311381638050079345703125" lon="-1.0107815824449062347412109375">
        <ele>1091</ele>
        <time>2022-08-26T15:19:51.000Z</time>
      </trkpt>
      <trkpt lat="40.33447402529418468475341796875" lon="-1.01081100292503833770751953125">
        <ele>1091</ele>
        <time>2022-08-26T15:19:58.000Z</time>
      </trkpt>
      <trkpt lat="40.33429917879402637481689453125" lon="-1.01080245338380336761474609375">
        <ele>1091.4000244140625</ele>
        <time>2022-08-26T15:20:05.000Z</time>
      </trkpt>
      <trkpt lat="40.334092564880847930908203125" lon="-1.01080597378313541412353515625">
        <ele>1091</ele>
        <time>2022-08-26T15:20:13.000Z</time>
      </trkpt>
      <trkpt lat="40.3338535130023956298828125" lon="-1.010827012360095977783203125">
        <ele>1090.5999755859375</ele>
        <time>2022-08-26T15:20:21.000Z</time>
      </trkpt>
      <trkpt lat="40.333598367869853973388671875" lon="-1.01086950860917568206787109375">
        <ele>1091.199951171875</ele>
        <time>2022-08-26T15:20:29.000Z</time>
      </trkpt>
      <trkpt lat="40.33327625133097171783447265625" lon="-1.01086380891501903533935546875">
        <ele>1091.4000244140625</ele>
        <time>2022-08-26T15:20:39.000Z</time>
      </trkpt>
      <trkpt lat="40.33321187831461429595947265625" lon="-1.01085877977311611175537109375">
        <ele>1091.4000244140625</ele>
        <time>2022-08-26T15:20:41.000Z</time>
      </trkpt>
      <trkpt lat="40.333041809499263763427734375" lon="-1.01082625798881053924560546875">
        <ele>1091.800048828125</ele>
        <time>2022-08-26T15:20:47.000Z</time>
      </trkpt>
      <trkpt lat="40.332772918045520782470703125" lon="-1.010779403150081634521484375">
        <ele>1092.5999755859375</ele>
        <time>2022-08-26T15:20:56.000Z</time>
      </trkpt>
      <trkpt lat="40.3327160887420177459716796875" lon="-1.01076875813305377960205078125">
        <ele>1092.800048828125</ele>
        <time>2022-08-26T15:20:58.000Z</time>
      </trkpt>
      <trkpt lat="40.33253378234803676605224609375" lon="-1.010723076760768890380859375">
        <ele>1093.199951171875</ele>
        <time>2022-08-26T15:21:05.000Z</time>
      </trkpt>
      <trkpt lat="40.33242724835872650146484375" lon="-1.0106974281370639801025390625">
        <ele>1093.800048828125</ele>
        <time>2022-08-26T15:21:09.000Z</time>
      </trkpt>
      <trkpt lat="40.33232054673135280609130859375" lon="-1.010666750371456146240234375">
        <ele>1095</ele>
        <time>2022-08-26T15:21:13.000Z</time>
      </trkpt>
      <trkpt lat="40.332272015511989593505859375" lon="-1.0106555186212062835693359375">
        <ele>1095.4000244140625</ele>
        <time>2022-08-26T15:21:15.000Z</time>
      </trkpt>
      <trkpt lat="40.3321534954011440277099609375" lon="-1.01059894077479839324951171875">
        <ele>1096.199951171875</ele>
        <time>2022-08-26T15:21:20.000Z</time>
      </trkpt>
      <trkpt lat="40.332106053829193115234375" lon="-1.0105799138545989990234375">
        <ele>1096.5999755859375</ele>
        <time>2022-08-26T15:21:22.000Z</time>
      </trkpt>
      <trkpt lat="40.33196381293237209320068359375" lon="-1.010509841144084930419921875">
        <ele>1096.800048828125</ele>
        <time>2022-08-26T15:21:28.000Z</time>
      </trkpt>
      <trkpt lat="40.3317354060709476470947265625" lon="-1.01038252003490924835205078125">
        <ele>1095</ele>
        <time>2022-08-26T15:21:38.000Z</time>
      </trkpt>
      <trkpt lat="40.33170900307595729827880859375" lon="-1.0103707015514373779296875">
        <ele>1094.5999755859375</ele>
        <time>2022-08-26T15:21:39.000Z</time>
      </trkpt>
      <trkpt lat="40.3316542692482471466064453125" lon="-1.01034186780452728271484375">
        <ele>1094</ele>
        <time>2022-08-26T15:21:41.000Z</time>
      </trkpt>
      <trkpt lat="40.331542789936065673828125" lon="-1.0102729685604572296142578125">
        <ele>1093.800048828125</ele>
        <time>2022-08-26T15:21:45.000Z</time>
      </trkpt>
      <trkpt lat="40.33142603002488613128662109375" lon="-1.01021043956279754638671875">
        <ele>1093.800048828125</ele>
        <time>2022-08-26T15:21:49.000Z</time>
      </trkpt>
      <trkpt lat="40.3311771713197231292724609375" lon="-1.01004087366163730621337890625">
        <ele>1095.199951171875</ele>
        <time>2022-08-26T15:21:58.000Z</time>
      </trkpt>
      <trkpt lat="40.3311476670205593109130859375" lon="-1.0100228525698184967041015625">
        <ele>1095.4000244140625</ele>
        <time>2022-08-26T15:21:59.000Z</time>
      </trkpt>
      <trkpt lat="40.33091054297983646392822265625" lon="-1.009886898100376129150390625">
        <ele>1095.5999755859375</ele>
        <time>2022-08-26T15:22:07.000Z</time>
      </trkpt>
      <trkpt lat="40.33063746057450771331787109375" lon="-1.0097120516002178192138671875">
        <ele>1095.800048828125</ele>
        <time>2022-08-26T15:22:16.000Z</time>
      </trkpt>
      <trkpt lat="40.3304979018867015838623046875" lon="-1.00962362252175807952880859375">
        <ele>1096.4000244140625</ele>
        <time>2022-08-26T15:22:21.000Z</time>
      </trkpt>
      <trkpt lat="40.33041567541658878326416015625" lon="-1.00956981070339679718017578125">
        <ele>1096.800048828125</ele>
        <time>2022-08-26T15:22:24.000Z</time>
      </trkpt>
      <trkpt lat="40.3302608616650104522705078125" lon="-1.00948096252977848052978515625">
        <ele>1097.5999755859375</ele>
        <time>2022-08-26T15:22:30.000Z</time>
      </trkpt>
      <trkpt lat="40.330215431749820709228515625" lon="-1.00945380516350269317626953125">
        <ele>1097.800048828125</ele>
        <time>2022-08-26T15:22:32.000Z</time>
      </trkpt>
      <trkpt lat="40.33014334738254547119140625" lon="-1.0094237141311168670654296875">
        <ele>1098.5999755859375</ele>
        <time>2022-08-26T15:22:35.000Z</time>
      </trkpt>
      <trkpt lat="40.33002390526235103607177734375" lon="-1.00934819318354129791259765625">
        <ele>1099.800048828125</ele>
        <time>2022-08-26T15:22:40.000Z</time>
      </trkpt>
      <trkpt lat="40.3297954984009265899658203125" lon="-1.009192205965518951416015625">
        <ele>1100.199951171875</ele>
        <time>2022-08-26T15:22:50.000Z</time>
      </trkpt>
      <trkpt lat="40.32958972267806529998779296875" lon="-1.00908315740525722503662109375">
        <ele>1100.4000244140625</ele>
        <time>2022-08-26T15:22:59.000Z</time>
      </trkpt>
      <trkpt lat="40.329340361058712005615234375" lon="-1.00893211551010608673095703125">
        <ele>1100.800048828125</ele>
        <time>2022-08-26T15:23:09.000Z</time>
      </trkpt>
      <trkpt lat="40.32931865192949771881103515625" lon="-1.00891359150409698486328125">
        <ele>1100.800048828125</ele>
        <time>2022-08-26T15:23:10.000Z</time>
      </trkpt>
      <trkpt lat="40.32914397306740283966064453125" lon="-1.008818708360195159912109375">
        <ele>1101.199951171875</ele>
        <time>2022-08-26T15:23:17.000Z</time>
      </trkpt>
      <trkpt lat="40.32895806245505809783935546875" lon="-1.0087192989885807037353515625">
        <ele>1101.800048828125</ele>
        <time>2022-08-26T15:23:24.000Z</time>
      </trkpt>
      <trkpt lat="40.32888178713619709014892578125" lon="-1.00866775028407573699951171875">
        <ele>1102</ele>
        <time>2022-08-26T15:23:27.000Z</time>
      </trkpt>
      <trkpt lat="40.32862245105206966400146484375" lon="-1.0084738768637180328369140625">
        <ele>1102.4000244140625</ele>
        <time>2022-08-26T15:23:37.000Z</time>
      </trkpt>
      <trkpt lat="40.32840619795024394989013671875" lon="-1.00833985023200511932373046875">
        <ele>1102.199951171875</ele>
        <time>2022-08-26T15:23:45.000Z</time>
      </trkpt>
      <trkpt lat="40.32818801701068878173828125" lon="-1.00820138119161128997802734375">
        <ele>1102.5999755859375</ele>
        <time>2022-08-26T15:23:53.000Z</time>
      </trkpt>
      <trkpt lat="40.32802415080368518829345703125" lon="-1.00808587856590747833251953125">
        <ele>1102.800048828125</ele>
        <time>2022-08-26T15:24:00.000Z</time>
      </trkpt>
      <trkpt lat="40.3279977478086948394775390625" lon="-1.0080698691308498382568359375">
        <ele>1102.800048828125</ele>
        <time>2022-08-26T15:24:01.000Z</time>
      </trkpt>
      <trkpt lat="40.32787713222205638885498046875" lon="-1.00799091160297393798828125">
        <ele>1102.800048828125</ele>
        <time>2022-08-26T15:24:06.000Z</time>
      </trkpt>
      <trkpt lat="40.32770496793091297149658203125" lon="-1.007896363735198974609375">
        <ele>1104</ele>
        <time>2022-08-26T15:24:12.000Z</time>
      </trkpt>
      <trkpt lat="40.327647216618061065673828125" lon="-1.00786325521767139434814453125">
        <ele>1104.4000244140625</ele>
        <time>2022-08-26T15:24:14.000Z</time>
      </trkpt>
      <trkpt lat="40.327530205249786376953125" lon="-1.0077969543635845184326171875">
        <ele>1105</ele>
        <time>2022-08-26T15:24:18.000Z</time>
      </trkpt>
      <trkpt lat="40.327433645725250244140625" lon="-1.00776870734989643096923828125">
        <ele>1105.199951171875</ele>
        <time>2022-08-26T15:24:22.000Z</time>
      </trkpt>
      <trkpt lat="40.327123515307903289794921875" lon="-1.00769695825874805450439453125">
        <ele>1105.5999755859375</ele>
        <time>2022-08-26T15:24:31.000Z</time>
      </trkpt>
      <trkpt lat="40.32683040015399456024169921875" lon="-1.0076802782714366912841796875">
        <ele>1105.800048828125</ele>
        <time>2022-08-26T15:24:41.000Z</time>
      </trkpt>
      <trkpt lat="40.32673115842044353485107421875" lon="-1.00768991746008396148681640625">
        <ele>1106</ele>
        <time>2022-08-26T15:24:44.000Z</time>
      </trkpt>
      <trkpt lat="40.32653870992362499237060546875" lon="-1.0077412985265254974365234375">
        <ele>1106.199951171875</ele>
        <time>2022-08-26T15:24:50.000Z</time>
      </trkpt>
      <trkpt lat="40.3263032622635364532470703125" lon="-1.00783660076558589935302734375">
        <ele>1106.4000244140625</ele>
        <time>2022-08-26T15:24:57.000Z</time>
      </trkpt>
      <trkpt lat="40.32608977518975734710693359375" lon="-1.00792679004371166229248046875">
        <ele>1106.800048828125</ele>
        <time>2022-08-26T15:25:04.000Z</time>
      </trkpt>
      <trkpt lat="40.325849466025829315185546875" lon="-1.00802686996757984161376953125">
        <ele>1106.800048828125</ele>
        <time>2022-08-26T15:25:12.000Z</time>
      </trkpt>
      <trkpt lat="40.32564922235906124114990234375" lon="-1.00809819996356964111328125">
        <ele>1107.199951171875</ele>
        <time>2022-08-26T15:25:18.000Z</time>
      </trkpt>
      <trkpt lat="40.3255971707403659820556640625" lon="-1.008116640150547027587890625">
        <ele>1107.800048828125</ele>
        <time>2022-08-26T15:25:20.000Z</time>
      </trkpt>
      <trkpt lat="40.32543003559112548828125" lon="-1.00819165818393230438232421875">
        <ele>1108.199951171875</ele>
        <time>2022-08-26T15:25:25.000Z</time>
      </trkpt>
      <trkpt lat="40.32535753212869167327880859375" lon="-1.00822183303534984588623046875">
        <ele>1108.4000244140625</ele>
        <time>2022-08-26T15:25:27.000Z</time>
      </trkpt>
      <trkpt lat="40.32518930733203887939453125" lon="-1.00828955881297588348388671875">
        <ele>1109.199951171875</ele>
        <time>2022-08-26T15:25:32.000Z</time>
      </trkpt>
      <trkpt lat="40.3250201605260372161865234375" lon="-1.00833616219460964202880859375">
        <ele>1109.800048828125</ele>
        <time>2022-08-26T15:25:37.000Z</time>
      </trkpt>
      <trkpt lat="40.3248538635671138763427734375" lon="-1.008365415036678314208984375">
        <ele>1110.199951171875</ele>
        <time>2022-08-26T15:25:43.000Z</time>
      </trkpt>
      <trkpt lat="40.32479527406394481658935546875" lon="-1.00837052799761295318603515625">
        <ele>1110.4000244140625</ele>
        <time>2022-08-26T15:25:44.000Z</time>
      </trkpt>
      <trkpt lat="40.3244716487824916839599609375" lon="-1.0083226673305034637451171875">
        <ele>1111.4000244140625</ele>
        <time>2022-08-26T15:25:53.000Z</time>
      </trkpt>
      <trkpt lat="40.324154309928417205810546875" lon="-1.00823541171848773956298828125">
        <ele>1112.199951171875</ele>
        <time>2022-08-26T15:26:02.000Z</time>
      </trkpt>
      <trkpt lat="40.32405599020421504974365234375" lon="-1.00819366984069347381591796875">
        <ele>1112.4000244140625</ele>
        <time>2022-08-26T15:26:05.000Z</time>
      </trkpt>
      <trkpt lat="40.3238756954669952392578125" lon="-1.0080666840076446533203125">
        <ele>1112.5999755859375</ele>
        <time>2022-08-26T15:26:11.000Z</time>
      </trkpt>
      <trkpt lat="40.3236022777855396270751953125" lon="-1.00783844478428363800048828125">
        <ele>1113.4000244140625</ele>
        <time>2022-08-26T15:26:20.000Z</time>
      </trkpt>
      <trkpt lat="40.32343556173145771026611328125" lon="-1.00769997574388980865478515625">
        <ele>1113.5999755859375</ele>
        <time>2022-08-26T15:26:26.000Z</time>
      </trkpt>
      <trkpt lat="40.32332793809473514556884765625" lon="-1.0075934417545795440673828125">
        <ele>1114</ele>
        <time>2022-08-26T15:26:31.000Z</time>
      </trkpt>
      <trkpt lat="40.32302015461027622222900390625" lon="-1.007298566401004791259765625">
        <ele>1114.4000244140625</ele>
        <time>2022-08-26T15:26:41.000Z</time>
      </trkpt>
      <trkpt lat="40.32290280796587467193603515625" lon="-1.00719831883907318115234375">
        <ele>1114.800048828125</ele>
        <time>2022-08-26T15:26:45.000Z</time>
      </trkpt>
      <trkpt lat="40.32274388708174228668212890625" lon="-1.00704819895327091217041015625">
        <ele>1115.199951171875</ele>
        <time>2022-08-26T15:26:51.000Z</time>
      </trkpt>
      <trkpt lat="40.32251355238258838653564453125" lon="-1.0068337060511112213134765625">
        <ele>1115.800048828125</ele>
        <time>2022-08-26T15:27:00.000Z</time>
      </trkpt>
      <trkpt lat="40.32227064482867717742919921875" lon="-1.006612591445446014404296875">
        <ele>1116.4000244140625</ele>
        <time>2022-08-26T15:27:11.000Z</time>
      </trkpt>
      <trkpt lat="40.3220665454864501953125" lon="-1.00640832446515560150146484375">
        <ele>1116.800048828125</ele>
        <time>2022-08-26T15:27:18.000Z</time>
      </trkpt>
      <trkpt lat="40.3218105621635913848876953125" lon="-1.00616692565381526947021484375">
        <ele>1117</ele>
        <time>2022-08-26T15:27:27.000Z</time>
      </trkpt>
      <trkpt lat="40.32149984501302242279052734375" lon="-1.00587774999439716339111328125">
        <ele>1117.199951171875</ele>
        <time>2022-08-26T15:27:38.000Z</time>
      </trkpt>
      <trkpt lat="40.3213277645409107208251953125" lon="-1.00573626346886157989501953125">
        <ele>1117.800048828125</ele>
        <time>2022-08-26T15:27:44.000Z</time>
      </trkpt>
      <trkpt lat="40.3213277645409107208251953125" lon="-1.00573626346886157989501953125">
        <ele>1117.800048828125</ele>
        <time>2022-08-26T15:27:45.000Z</time>
      </trkpt>
      <trkpt lat="40.321063064038753509521484375" lon="-1.005539037287235260009765625">
        <ele>1118.5999755859375</ele>
        <time>2022-08-26T15:27:54.000Z</time>
      </trkpt>
      <trkpt lat="40.3209180571138858795166015625" lon="-1.00544591434299945831298828125">
        <ele>1118.800048828125</ele>
        <time>2022-08-26T15:27:58.000Z</time>
      </trkpt>
      <trkpt lat="40.320853851735591888427734375" lon="-1.00541238673031330108642578125">
        <ele>1118.800048828125</ele>
        <time>2022-08-26T15:28:00.000Z</time>
      </trkpt>
      <trkpt lat="40.32059242017567157745361328125" lon="-1.00529369898140430450439453125">
        <ele>1120</ele>
        <time>2022-08-26T15:28:08.000Z</time>
      </trkpt>
      <trkpt lat="40.32059242017567157745361328125" lon="-1.00529369898140430450439453125">
        <ele>1120</ele>
        <time>2022-08-26T15:28:09.000Z</time>
      </trkpt>
      <trkpt lat="40.32033124007284641265869140625" lon="-1.00515824742615222930908203125">
        <ele>1120.199951171875</ele>
        <time>2022-08-26T15:28:16.000Z</time>
      </trkpt>
      <trkpt lat="40.3200540505349636077880859375" lon="-1.00500200875103473663330078125">
        <ele>1120.5999755859375</ele>
        <time>2022-08-26T15:28:25.000Z</time>
      </trkpt>
      <trkpt lat="40.3197546489536762237548828125" lon="-1.00483872927725315093994140625">
        <ele>1121</ele>
        <time>2022-08-26T15:28:35.000Z</time>
      </trkpt>
      <trkpt lat="40.31972254626452922821044921875" lon="-1.0048237256705760955810546875">
        <ele>1121</ele>
        <time>2022-08-26T15:28:37.000Z</time>
      </trkpt>
      <trkpt lat="40.3194723464548587799072265625" lon="-1.004709899425506591796875">
        <ele>1121.4000244140625</ele>
        <time>2022-08-26T15:28:44.000Z</time>
      </trkpt>
      <trkpt lat="40.3193248249590396881103515625" lon="-1.0046560876071453094482421875">
        <ele>1121.5999755859375</ele>
        <time>2022-08-26T15:28:50.000Z</time>
      </trkpt>
      <trkpt lat="40.31901695765554904937744140625" lon="-1.00449037738144397735595703125">
        <ele>1122</ele>
        <time>2022-08-26T15:28:59.000Z</time>
      </trkpt>
      <trkpt lat="40.31892643310129642486572265625" lon="-1.0044321231544017791748046875">
        <ele>1122.199951171875</ele>
        <time>2022-08-26T15:29:02.000Z</time>
      </trkpt>
      <trkpt lat="40.3188054822385311126708984375" lon="-1.004360876977443695068359375">
        <ele>1122.4000244140625</ele>
        <time>2022-08-26T15:29:06.000Z</time>
      </trkpt>
      <trkpt lat="40.3186556138098239898681640625" lon="-1.00422617979347705841064453125">
        <ele>1122.800048828125</ele>
        <time>2022-08-26T15:29:12.000Z</time>
      </trkpt>
      <trkpt lat="40.31855427660048007965087890625" lon="-1.0041189752519130706787109375">
        <ele>1123.199951171875</ele>
        <time>2022-08-26T15:29:17.000Z</time>
      </trkpt>
      <trkpt lat="40.31850482337176799774169921875" lon="-1.004059128463268280029296875">
        <ele>1123.4000244140625</ele>
        <time>2022-08-26T15:29:19.000Z</time>
      </trkpt>
      <trkpt lat="40.318321846425533294677734375" lon="-1.00383457727730274200439453125">
        <ele>1123.5999755859375</ele>
        <time>2022-08-26T15:29:26.000Z</time>
      </trkpt>
      <trkpt lat="40.3182050026953220367431640625" lon="-1.003615222871303558349609375">
        <ele>1124.4000244140625</ele>
        <time>2022-08-26T15:29:34.000Z</time>
      </trkpt>
      <trkpt lat="40.3181934356689453125" lon="-1.00359745323657989501953125">
        <ele>1124.4000244140625</ele>
        <time>2022-08-26T15:29:35.000Z</time>
      </trkpt>
      <trkpt lat="40.31817323528230190277099609375" lon="-1.0035456530749797821044921875">
        <ele>1124.5999755859375</ele>
        <time>2022-08-26T15:29:40.000Z</time>
      </trkpt>
      <trkpt lat="40.31811959110200405120849609375" lon="-1.003422774374485015869140625">
        <ele>1123.5999755859375</ele>
        <time>2022-08-26T15:32:04.000Z</time>
      </trkpt>
      <trkpt lat="40.31809545122087001800537109375" lon="-1.00336636416614055633544921875">
        <ele>1123.5999755859375</ele>
        <time>2022-08-26T15:32:06.000Z</time>
      </trkpt>
      <trkpt lat="40.31800056807696819305419921875" lon="-1.0031094588339328765869140625">
        <ele>1123.5999755859375</ele>
        <time>2022-08-26T15:32:12.000Z</time>
      </trkpt>
      <trkpt lat="40.3179334290325641632080078125" lon="-1.00291659124195575714111328125">
        <ele>1124.199951171875</ele>
        <time>2022-08-26T15:32:18.000Z</time>
      </trkpt>
      <trkpt lat="40.31785774044692516326904296875" lon="-1.002639569342136383056640625">
        <ele>1124.5999755859375</ele>
        <time>2022-08-26T15:32:26.000Z</time>
      </trkpt>
      <trkpt lat="40.31776654534041881561279296875" lon="-1.0024828277528285980224609375">
        <ele>1124.800048828125</ele>
        <time>2022-08-26T15:32:31.000Z</time>
      </trkpt>
      <trkpt lat="40.317670404911041259765625" lon="-1.00231041200459003448486328125">
        <ele>1125</ele>
        <time>2022-08-26T15:32:37.000Z</time>
      </trkpt>
      <trkpt lat="40.3176323510706424713134765625" lon="-1.00219088606536388397216796875">
        <ele>1125</ele>
        <time>2022-08-26T15:32:40.000Z</time>
      </trkpt>
      <trkpt lat="40.31758524477481842041015625" lon="-1.002010591328144073486328125">
        <ele>1125.199951171875</ele>
        <time>2022-08-26T15:32:44.000Z</time>
      </trkpt>
      <trkpt lat="40.31756655313074588775634765625" lon="-1.00168126635253429412841796875">
        <ele>1125.4000244140625</ele>
        <time>2022-08-26T15:32:52.000Z</time>
      </trkpt>
      <trkpt lat="40.31720713712275028228759765625" lon="-1.00066311657428741455078125">
        <ele>1126.4000244140625</ele>
        <time>2022-08-26T15:33:18.000Z</time>
      </trkpt>
      <trkpt lat="40.3171059675514698028564453125" lon="-1.000706367194652557373046875">
        <ele>1126.4000244140625</ele>
        <time>2022-08-26T15:33:20.000Z</time>
      </trkpt>
      <trkpt lat="40.31706816516816616058349609375" lon="-1.00045650266110897064208984375">
        <ele>1126.5999755859375</ele>
        <time>2022-08-26T15:33:28.000Z</time>
      </trkpt>
      <trkpt lat="40.316971354186534881591796875" lon="-1.00012592040002346038818359375">
        <ele>1126.5999755859375</ele>
        <time>2022-08-26T15:33:36.000Z</time>
      </trkpt>
      <trkpt lat="40.31687521375715732574462890625" lon="-0.99983456544578075408935546875">
        <ele>1126.800048828125</ele>
        <time>2022-08-26T15:33:43.000Z</time>
      </trkpt>
      <trkpt lat="40.3167224116623401641845703125" lon="-0.99948487244546413421630859375">
        <ele>1127</ele>
        <time>2022-08-26T15:33:52.000Z</time>
      </trkpt>
      <trkpt lat="40.31652485020458698272705078125" lon="-0.99912193603813648223876953125">
        <ele>1127.199951171875</ele>
        <time>2022-08-26T15:34:02.000Z</time>
      </trkpt>
      <trkpt lat="40.31630960293114185333251953125" lon="-0.99884432740509510040283203125">
        <ele>1127.4000244140625</ele>
        <time>2022-08-26T15:34:11.000Z</time>
      </trkpt>
      <trkpt lat="40.31606845557689666748046875" lon="-0.99860711954534053802490234375">
        <ele>1128</ele>
        <time>2022-08-26T15:34:20.000Z</time>
      </trkpt>
      <trkpt lat="40.31583300791680812835693359375" lon="-0.9984456002712249755859375">
        <ele>1128.5999755859375</ele>
        <time>2022-08-26T15:34:28.000Z</time>
      </trkpt>
      <trkpt lat="40.31565229408442974090576171875" lon="-0.99832850508391857147216796875">
        <ele>1129</ele>
        <time>2022-08-26T15:34:34.000Z</time>
      </trkpt>
      <trkpt lat="40.315582640469074249267578125" lon="-0.9983170218765735626220703125">
        <ele>1129</ele>
        <time>2022-08-26T15:34:36.000Z</time>
      </trkpt>
      <trkpt lat="40.31525633297860622406005859375" lon="-0.998278968036174774169921875">
        <ele>1129.199951171875</ele>
        <time>2022-08-26T15:34:45.000Z</time>
      </trkpt>
      <trkpt lat="40.31488434411585330963134765625" lon="-0.99826832301914691925048828125">
        <ele>1129.199951171875</ele>
        <time>2022-08-26T15:34:55.000Z</time>
      </trkpt>
      <trkpt lat="40.31458293087780475616455078125" lon="-0.99830369465053081512451171875">
        <ele>1129.5999755859375</ele>
        <time>2022-08-26T15:35:03.000Z</time>
      </trkpt>
      <trkpt lat="40.314511097967624664306640625" lon="-0.99830947816371917724609375">
        <ele>1129.800048828125</ele>
        <time>2022-08-26T15:35:05.000Z</time>
      </trkpt>
      <trkpt lat="40.31415260396897792816162109375" lon="-0.998336970806121826171875">
        <ele>1130.4000244140625</ele>
        <time>2022-08-26T15:35:15.000Z</time>
      </trkpt>
      <trkpt lat="40.31404380686581134796142578125" lon="-0.99835398606956005096435546875">
        <ele>1130.800048828125</ele>
        <time>2022-08-26T15:35:18.000Z</time>
      </trkpt>
      <trkpt lat="40.313898883759975433349609375" lon="-0.99833537824451923370361328125">
        <ele>1131.4000244140625</ele>
        <time>2022-08-26T15:35:23.000Z</time>
      </trkpt>
      <trkpt lat="40.31372127123177051544189453125" lon="-0.99830604158341884613037109375">
        <ele>1131.800048828125</ele>
        <time>2022-08-26T15:35:29.000Z</time>
      </trkpt>
      <trkpt lat="40.31369444914162158966064453125" lon="-0.9982980787754058837890625">
        <ele>1131.800048828125</ele>
        <time>2022-08-26T15:35:30.000Z</time>
      </trkpt>
      <trkpt lat="40.31356318853795528411865234375" lon="-0.99824686534702777862548828125">
        <ele>1132</ele>
        <time>2022-08-26T15:35:34.000Z</time>
      </trkpt>
      <trkpt lat="40.312464237213134765625" lon="-0.99790588952600955963134765625">
        <ele>1134</ele>
        <time>2022-08-26T15:36:12.000Z</time>
      </trkpt>
      <trkpt lat="40.312343537807464599609375" lon="-0.99781134165823459625244140625">
        <ele>1134.199951171875</ele>
        <time>2022-08-26T15:36:16.000Z</time>
      </trkpt>
      <trkpt lat="40.31222258694469928741455078125" lon="-0.9976320527493953704833984375">
        <ele>1134.5999755859375</ele>
        <time>2022-08-26T15:36:21.000Z</time>
      </trkpt>
      <trkpt lat="40.312194339931011199951171875" lon="-0.99760045297443866729736328125">
        <ele>1134.800048828125</ele>
        <time>2022-08-26T15:36:22.000Z</time>
      </trkpt>
      <trkpt lat="40.31194615177810192108154296875" lon="-0.99748444743454456329345703125">
        <ele>1135</ele>
        <time>2022-08-26T15:36:29.000Z</time>
      </trkpt>
      <trkpt lat="40.3116547130048274993896484375" lon="-0.997363664209842681884765625">
        <ele>1135.4000244140625</ele>
        <time>2022-08-26T15:36:37.000Z</time>
      </trkpt>
      <trkpt lat="40.31141121871769428253173828125" lon="-0.99724707193672657012939453125">
        <ele>1135.800048828125</ele>
        <time>2022-08-26T15:36:44.000Z</time>
      </trkpt>
      <trkpt lat="40.31130895949900150299072265625" lon="-0.99719996564090251922607421875">
        <ele>1136</ele>
        <time>2022-08-26T15:36:48.000Z</time>
      </trkpt>
      <trkpt lat="40.31098357401788234710693359375" lon="-0.9970245324075222015380859375">
        <ele>1136.4000244140625</ele>
        <time>2022-08-26T15:36:57.000Z</time>
      </trkpt>
      <trkpt lat="40.31073597259819507598876953125" lon="-0.9968706406652927398681640625">
        <ele>1136.800048828125</ele>
        <time>2022-08-26T15:37:05.000Z</time>
      </trkpt>
      <trkpt lat="40.31070445664227008819580078125" lon="-0.9968525357544422149658203125">
        <ele>1136.800048828125</ele>
        <time>2022-08-26T15:37:06.000Z</time>
      </trkpt>
      <trkpt lat="40.310494489967823028564453125" lon="-0.99673233926296234130859375">
        <ele>1137</ele>
        <time>2022-08-26T15:37:13.000Z</time>
      </trkpt>
      <trkpt lat="40.31033389270305633544921875" lon="-0.99663066677749156951904296875">
        <ele>1137.800048828125</ele>
        <time>2022-08-26T15:37:19.000Z</time>
      </trkpt>
      <trkpt lat="40.31023255549371242523193359375" lon="-0.99654399789869785308837890625">
        <ele>1138</ele>
        <time>2022-08-26T15:37:23.000Z</time>
      </trkpt>
      <trkpt lat="40.3100420348346233367919921875" lon="-0.99637350998818874359130859375">
        <ele>1138.800048828125</ele>
        <time>2022-08-26T15:37:31.000Z</time>
      </trkpt>
      <trkpt lat="40.30984648503363132476806640625" lon="-0.996196232736110687255859375">
        <ele>1139.199951171875</ele>
        <time>2022-08-26T15:37:39.000Z</time>
      </trkpt>
      <trkpt lat="40.30959921889007091522216796875" lon="-0.9960482083261013031005859375">
        <ele>1139.5999755859375</ele>
        <time>2022-08-26T15:37:48.000Z</time>
      </trkpt>
      <trkpt lat="40.30935698188841342926025390625" lon="-0.99597888998687267303466796875">
        <ele>1139.800048828125</ele>
        <time>2022-08-26T15:37:57.000Z</time>
      </trkpt>
      <trkpt lat="40.30909798108041286468505859375" lon="-0.99586791358888149261474609375">
        <ele>1139.800048828125</ele>
        <time>2022-08-26T15:38:04.000Z</time>
      </trkpt>
      <trkpt lat="40.30890963971614837646484375" lon="-0.99576649256050586700439453125">
        <ele>1140.4000244140625</ele>
        <time>2022-08-26T15:38:11.000Z</time>
      </trkpt>
      <trkpt lat="40.30872364528477191925048828125" lon="-0.99564738571643829345703125">
        <ele>1140.800048828125</ele>
        <time>2022-08-26T15:38:16.000Z</time>
      </trkpt>
      <trkpt lat="40.30846833251416683197021484375" lon="-0.995492152869701385498046875">
        <ele>1141.199951171875</ele>
        <time>2022-08-26T15:38:25.000Z</time>
      </trkpt>
      <trkpt lat="40.308205895125865936279296875" lon="-0.9953377582132816314697265625">
        <ele>1141.5999755859375</ele>
        <time>2022-08-26T15:38:33.000Z</time>
      </trkpt>
      <trkpt lat="40.308151580393314361572265625" lon="-0.9952995367348194122314453125">
        <ele>1141.5999755859375</ele>
        <time>2022-08-26T15:38:34.000Z</time>
      </trkpt>
      <trkpt lat="40.30797665007412433624267578125" lon="-0.99522066302597522735595703125">
        <ele>1142.199951171875</ele>
        <time>2022-08-26T15:38:41.000Z</time>
      </trkpt>
      <trkpt lat="40.30782879330217838287353515625" lon="-0.99511153064668178558349609375">
        <ele>1142.5999755859375</ele>
        <time>2022-08-26T15:38:46.000Z</time>
      </trkpt>
      <trkpt lat="40.307804904878139495849609375" lon="-0.995090492069721221923828125">
        <ele>1142.5999755859375</ele>
        <time>2022-08-26T15:38:47.000Z</time>
      </trkpt>
      <trkpt lat="40.30756157822906970977783203125" lon="-0.994944311678409576416015625">
        <ele>1143.4000244140625</ele>
        <time>2022-08-26T15:38:55.000Z</time>
      </trkpt>
      <trkpt lat="40.3074724785983562469482421875" lon="-0.99489494226872920989990234375">
        <ele>1143.5999755859375</ele>
        <time>2022-08-26T15:38:58.000Z</time>
      </trkpt>
      <trkpt lat="40.30734591186046600341796875" lon="-0.99481598474085330963134765625">
        <ele>1143.5999755859375</ele>
        <time>2022-08-26T15:39:03.000Z</time>
      </trkpt>
      <trkpt lat="40.30701256357133388519287109375" lon="-0.99466343410313129425048828125">
        <ele>1144.4000244140625</ele>
        <time>2022-08-26T15:39:13.000Z</time>
      </trkpt>
      <trkpt lat="40.30694584362208843231201171875" lon="-0.99463493563234806060791015625">
        <ele>1144.5999755859375</ele>
        <time>2022-08-26T15:39:15.000Z</time>
      </trkpt>
      <trkpt lat="40.3065752796828746795654296875" lon="-0.99452228285372257232666015625">
        <ele>1145.199951171875</ele>
        <time>2022-08-26T15:39:25.000Z</time>
      </trkpt>
      <trkpt lat="40.30635508708655834197998046875" lon="-0.99447668530046939849853515625">
        <ele>1145.5999755859375</ele>
        <time>2022-08-26T15:39:32.000Z</time>
      </trkpt>
      <trkpt lat="40.30635508708655834197998046875" lon="-0.99447668530046939849853515625">
        <ele>1145.5999755859375</ele>
        <time>2022-08-26T15:39:33.000Z</time>
      </trkpt>
      <trkpt lat="40.3061833418905735015869140625" lon="-0.99444516934454441070556640625">
        <ele>1146</ele>
        <time>2022-08-26T15:39:39.000Z</time>
      </trkpt>
      <trkpt lat="40.30584630556404590606689453125" lon="-0.99444382824003696441650390625">
        <ele>1146.5999755859375</ele>
        <time>2022-08-26T15:39:49.000Z</time>
      </trkpt>
      <trkpt lat="40.30584630556404590606689453125" lon="-0.99444382824003696441650390625">
        <ele>1146.5999755859375</ele>
        <time>2022-08-26T15:39:50.000Z</time>
      </trkpt>
      <trkpt lat="40.3054789267480373382568359375" lon="-0.99448238499462604522705078125">
        <ele>1147.5999755859375</ele>
        <time>2022-08-26T15:40:00.000Z</time>
      </trkpt>
      <trkpt lat="40.30540977604687213897705078125" lon="-0.99448892287909984588623046875">
        <ele>1147.5999755859375</ele>
        <time>2022-08-26T15:40:01.000Z</time>
      </trkpt>
      <trkpt lat="40.30510903336107730865478515625" lon="-0.99453753791749477386474609375">
        <ele>1148.4000244140625</ele>
        <time>2022-08-26T15:40:10.000Z</time>
      </trkpt>
      <trkpt lat="40.3049921058118343353271484375" lon="-0.994564108550548553466796875">
        <ele>1148.4000244140625</ele>
        <time>2022-08-26T15:40:12.000Z</time>
      </trkpt>
      <trkpt lat="40.30476168729364871978759765625" lon="-0.99459118209779262542724609375">
        <ele>1149</ele>
        <time>2022-08-26T15:40:19.000Z</time>
      </trkpt>
      <trkpt lat="40.30461349524557590484619140625" lon="-0.99461473524570465087890625">
        <ele>1149.5999755859375</ele>
        <time>2022-08-26T15:40:23.000Z</time>
      </trkpt>
      <trkpt lat="40.3043842501938343048095703125" lon="-0.99464331753551959991455078125">
        <ele>1150</ele>
        <time>2022-08-26T15:40:29.000Z</time>
      </trkpt>
      <trkpt lat="40.30420462600886821746826171875" lon="-0.99465605802834033966064453125">
        <ele>1150.5999755859375</ele>
        <time>2022-08-26T15:40:34.000Z</time>
      </trkpt>
      <trkpt lat="40.3040137700736522674560546875" lon="-0.994665361940860748291015625">
        <ele>1150.800048828125</ele>
        <time>2022-08-26T15:40:38.000Z</time>
      </trkpt>
      <trkpt lat="40.30362543649971485137939453125" lon="-0.99471867084503173828125">
        <ele>1151.4000244140625</ele>
        <time>2022-08-26T15:40:50.000Z</time>
      </trkpt>
      <trkpt lat="40.30321455560624599456787109375" lon="-0.9947875700891017913818359375">
        <ele>1152.4000244140625</ele>
        <time>2022-08-26T15:41:02.000Z</time>
      </trkpt>
      <trkpt lat="40.30306803993880748748779296875" lon="-0.9948013164103031158447265625">
        <ele>1152.4000244140625</ele>
        <time>2022-08-26T15:41:05.000Z</time>
      </trkpt>
      <trkpt lat="40.3028969652950763702392578125" lon="-0.9948237799108028411865234375">
        <ele>1152.800048828125</ele>
        <time>2022-08-26T15:41:11.000Z</time>
      </trkpt>
      <trkpt lat="40.3026582486927509307861328125" lon="-0.99484297446906566619873046875">
        <ele>1153.4000244140625</ele>
        <time>2022-08-26T15:41:19.000Z</time>
      </trkpt>
      <trkpt lat="40.3026693128049373626708984375" lon="-0.9948385320603847503662109375">
        <ele>1153.4000244140625</ele>
        <time>2022-08-26T15:41:21.000Z</time>
      </trkpt>
      <trkpt lat="40.3025985695421695709228515625" lon="-0.9948321618139743804931640625">
        <ele>1153.199951171875</ele>
        <time>2022-08-26T15:42:12.000Z</time>
      </trkpt>
      <trkpt lat="40.3025757707655429840087890625" lon="-0.9948301501572132110595703125">
        <ele>1153.199951171875</ele>
        <time>2022-08-26T15:42:13.000Z</time>
      </trkpt>
      <trkpt lat="40.3022958151996135711669921875" lon="-0.99483291618525981903076171875">
        <ele>1153.199951171875</ele>
        <time>2022-08-26T15:42:21.000Z</time>
      </trkpt>
      <trkpt lat="40.30193748883903026580810546875" lon="-0.99488832056522369384765625">
        <ele>1153.800048828125</ele>
        <time>2022-08-26T15:42:33.000Z</time>
      </trkpt>
      <trkpt lat="40.3015756420791149139404296875" lon="-0.9949280507862567901611328125">
        <ele>1154</ele>
        <time>2022-08-26T15:42:44.000Z</time>
      </trkpt>
      <trkpt lat="40.30119485221803188323974609375" lon="-0.9949736483395099639892578125">
        <ele>1154.4000244140625</ele>
        <time>2022-08-26T15:42:55.000Z</time>
      </trkpt>
      <trkpt lat="40.301092006266117095947265625" lon="-0.9949867241084575653076171875">
        <ele>1154.5999755859375</ele>
        <time>2022-08-26T15:42:58.000Z</time>
      </trkpt>
      <trkpt lat="40.30095865018665790557861328125" lon="-0.99500843323767185211181640625">
        <ele>1154.800048828125</ele>
        <time>2022-08-26T15:43:02.000Z</time>
      </trkpt>
      <trkpt lat="40.30068556778132915496826171875" lon="-0.99504866637289524078369140625">
        <ele>1155</ele>
        <time>2022-08-26T15:43:10.000Z</time>
      </trkpt>
      <trkpt lat="40.30028843320906162261962890625" lon="-0.9950839541852474212646484375">
        <ele>1155.5999755859375</ele>
        <time>2022-08-26T15:43:21.000Z</time>
      </trkpt>
      <trkpt lat="40.30025306157767772674560546875" lon="-0.9950826130807399749755859375">
        <ele>1155.5999755859375</ele>
        <time>2022-08-26T15:43:22.000Z</time>
      </trkpt>
      <trkpt lat="40.2998593635857105255126953125" lon="-0.9950517676770687103271484375">
        <ele>1155.800048828125</ele>
        <time>2022-08-26T15:43:33.000Z</time>
      </trkpt>
      <trkpt lat="40.299600027501583099365234375" lon="-0.99503315985202789306640625">
        <ele>1156.199951171875</ele>
        <time>2022-08-26T15:43:40.000Z</time>
      </trkpt>
      <trkpt lat="40.299455858767032623291015625" lon="-0.9950058348476886749267578125">
        <ele>1156.4000244140625</ele>
        <time>2022-08-26T15:43:43.000Z</time>
      </trkpt>
      <trkpt lat="40.29921035282313823699951171875" lon="-0.99495269358158111572265625">
        <ele>1156.4000244140625</ele>
        <time>2022-08-26T15:43:51.000Z</time>
      </trkpt>
      <trkpt lat="40.29884423129260540008544921875" lon="-0.99485814571380615234375">
        <ele>1156.800048828125</ele>
        <time>2022-08-26T15:44:01.000Z</time>
      </trkpt>
      <trkpt lat="40.29853695072233676910400390625" lon="-0.99474423564970493316650390625">
        <ele>1157.199951171875</ele>
        <time>2022-08-26T15:44:10.000Z</time>
      </trkpt>
      <trkpt lat="40.29850132763385772705078125" lon="-0.994726717472076416015625">
        <ele>1157.199951171875</ele>
        <time>2022-08-26T15:44:11.000Z</time>
      </trkpt>
      <trkpt lat="40.29813461937010288238525390625" lon="-0.9945367835462093353271484375">
        <ele>1158</ele>
        <time>2022-08-26T15:44:20.000Z</time>
      </trkpt>
      <trkpt lat="40.298024229705333709716796875" lon="-0.99447299726307392120361328125">
        <ele>1158.4000244140625</ele>
        <time>2022-08-26T15:44:24.000Z</time>
      </trkpt>
      <trkpt lat="40.2977595292031764984130859375" lon="-0.99432463757693767547607421875">
        <ele>1158.800048828125</ele>
        <time>2022-08-26T15:44:31.000Z</time>
      </trkpt>
      <trkpt lat="40.297465659677982330322265625" lon="-0.994106791913509368896484375">
        <ele>1159.4000244140625</ele>
        <time>2022-08-26T15:44:39.000Z</time>
      </trkpt>
      <trkpt lat="40.29718595556914806365966796875" lon="-0.99390554241836071014404296875">
        <ele>1160.199951171875</ele>
        <time>2022-08-26T15:44:47.000Z</time>
      </trkpt>
      <trkpt lat="40.2970554493367671966552734375" lon="-0.99381686188280582427978515625">
        <ele>1160.4000244140625</ele>
        <time>2022-08-26T15:44:51.000Z</time>
      </trkpt>
      <trkpt lat="40.29694053344428539276123046875" lon="-0.99373656325042247772216796875">
        <ele>1160.5999755859375</ele>
        <time>2022-08-26T15:44:55.000Z</time>
      </trkpt>
      <trkpt lat="40.29672972857952117919921875" lon="-0.99355853162705898284912109375">
        <ele>1161.4000244140625</ele>
        <time>2022-08-26T15:45:02.000Z</time>
      </trkpt>
      <trkpt lat="40.296705253422260284423828125" lon="-0.9935379959642887115478515625">
        <ele>1161.199951171875</ele>
        <time>2022-08-26T15:45:03.000Z</time>
      </trkpt>
      <trkpt lat="40.29645538888871669769287109375" lon="-0.99335468374192714691162109375">
        <ele>1162</ele>
        <time>2022-08-26T15:45:12.000Z</time>
      </trkpt>
      <trkpt lat="40.2963379584252834320068359375" lon="-0.9932801686227321624755859375">
        <ele>1162.199951171875</ele>
        <time>2022-08-26T15:45:16.000Z</time>
      </trkpt>
      <trkpt lat="40.29625631868839263916015625" lon="-0.9932124428451061248779296875">
        <ele>1162.5999755859375</ele>
        <time>2022-08-26T15:45:19.000Z</time>
      </trkpt>
      <trkpt lat="40.2960036881268024444580078125" lon="-0.99302695132791996002197265625">
        <ele>1163</ele>
        <time>2022-08-26T15:45:27.000Z</time>
      </trkpt>
      <trkpt lat="40.29591609723865985870361328125" lon="-0.99294112063944339752197265625">
        <ele>1163.199951171875</ele>
        <time>2022-08-26T15:45:30.000Z</time>
      </trkpt>
      <trkpt lat="40.295730270445346832275390625" lon="-0.9927735663950443267822265625">
        <ele>1163.4000244140625</ele>
        <time>2022-08-26T15:45:36.000Z</time>
      </trkpt>
      <trkpt lat="40.29550789855420589447021484375" lon="-0.99260768853127956390380859375">
        <ele>1164</ele>
        <time>2022-08-26T15:45:43.000Z</time>
      </trkpt>
      <trkpt lat="40.2954786457121372222900390625" lon="-0.99258841015398502349853515625">
        <ele>1164</ele>
        <time>2022-08-26T15:45:44.000Z</time>
      </trkpt>
      <trkpt lat="40.295288376510143280029296875" lon="-0.9924302436411380767822265625">
        <ele>1164.5999755859375</ele>
        <time>2022-08-26T15:45:51.000Z</time>
      </trkpt>
      <trkpt lat="40.29517597518861293792724609375" lon="-0.99233024753630161285400390625">
        <ele>1165.199951171875</ele>
        <time>2022-08-26T15:45:55.000Z</time>
      </trkpt>
      <trkpt lat="40.29510003514587879180908203125" lon="-0.99225782789289951324462890625">
        <ele>1165.4000244140625</ele>
        <time>2022-08-26T15:45:58.000Z</time>
      </trkpt>
      <trkpt lat="40.2949385158717632293701171875" lon="-0.9920775331556797027587890625">
        <ele>1166</ele>
        <time>2022-08-26T15:46:04.000Z</time>
      </trkpt>
      <trkpt lat="40.2947509288787841796875" lon="-0.99195398390293121337890625">
        <ele>1166.199951171875</ele>
        <time>2022-08-26T15:46:11.000Z</time>
      </trkpt>
      <trkpt lat="40.2947509288787841796875" lon="-0.99195398390293121337890625">
        <ele>1166.199951171875</ele>
        <time>2022-08-26T15:46:12.000Z</time>
      </trkpt>
      <trkpt lat="40.29461891390383243560791015625" lon="-0.991861112415790557861328125">
        <ele>1166.4000244140625</ele>
        <time>2022-08-26T15:46:18.000Z</time>
      </trkpt>
      <trkpt lat="40.29449410736560821533203125" lon="-0.991776622831821441650390625">
        <ele>1166.800048828125</ele>
        <time>2022-08-26T15:46:26.000Z</time>
      </trkpt>
      <trkpt lat="40.29433719813823699951171875" lon="-0.9916795603930950164794921875">
        <ele>1167</ele>
        <time>2022-08-26T15:46:33.000Z</time>
      </trkpt>
      <trkpt lat="40.29431079514324665069580078125" lon="-0.99166153930127620697021484375">
        <ele>1167</ele>
        <time>2022-08-26T15:46:34.000Z</time>
      </trkpt>
      <trkpt lat="40.29401893727481365203857421875" lon="-0.991472192108631134033203125">
        <ele>1167.800048828125</ele>
        <time>2022-08-26T15:46:45.000Z</time>
      </trkpt>
      <trkpt lat="40.2938046120107173919677734375" lon="-0.99136297591030597686767578125">
        <ele>1168</ele>
        <time>2022-08-26T15:46:52.000Z</time>
      </trkpt>
      <trkpt lat="40.29370428062975406646728515625" lon="-0.99131318740546703338623046875">
        <ele>1168</ele>
        <time>2022-08-26T15:46:55.000Z</time>
      </trkpt>
      <trkpt lat="40.2933043800294399261474609375" lon="-0.9911444596946239471435546875">
        <ele>1168.800048828125</ele>
        <time>2022-08-26T15:47:07.000Z</time>
      </trkpt>
      <trkpt lat="40.29311168007552623748779296875" lon="-0.9910649992525577545166015625">
        <ele>1169</ele>
        <time>2022-08-26T15:47:13.000Z</time>
      </trkpt>
      <trkpt lat="40.29294588603079319000244140625" lon="-0.99102728068828582763671875">
        <ele>1169</ele>
        <time>2022-08-26T15:47:18.000Z</time>
      </trkpt>
      <trkpt lat="40.29264899902045726776123046875" lon="-0.99094321019947528839111328125">
        <ele>1169.199951171875</ele>
        <time>2022-08-26T15:47:27.000Z</time>
      </trkpt>
      <trkpt lat="40.29234892688691616058349609375" lon="-0.99086257629096508026123046875">
        <ele>1169.4000244140625</ele>
        <time>2022-08-26T15:47:36.000Z</time>
      </trkpt>
      <trkpt lat="40.2921111322939395904541015625" lon="-0.99079250358045101165771484375">
        <ele>1169.800048828125</ele>
        <time>2022-08-26T15:47:43.000Z</time>
      </trkpt>
      <trkpt lat="40.2920786105096340179443359375" lon="-0.99078747443854808807373046875">
        <ele>1170</ele>
        <time>2022-08-26T15:47:44.000Z</time>
      </trkpt>
      <trkpt lat="40.29178080148994922637939453125" lon="-0.9907329082489013671875">
        <ele>1170.199951171875</ele>
        <time>2022-08-26T15:47:53.000Z</time>
      </trkpt>
      <trkpt lat="40.291421301662921905517578125" lon="-0.990622937679290771484375">
        <ele>1170.5999755859375</ele>
        <time>2022-08-26T15:48:04.000Z</time>
      </trkpt>
      <trkpt lat="40.2913892827928066253662109375" lon="-0.99060893990099430084228515625">
        <ele>1170.5999755859375</ele>
        <time>2022-08-26T15:48:05.000Z</time>
      </trkpt>
      <trkpt lat="40.29117680154740810394287109375" lon="-0.99053802900016307830810546875">
        <ele>1171.199951171875</ele>
        <time>2022-08-26T15:48:12.000Z</time>
      </trkpt>
      <trkpt lat="40.290845967829227447509765625" lon="-0.99044498987495899200439453125">
        <ele>1171.5999755859375</ele>
        <time>2022-08-26T15:48:22.000Z</time>
      </trkpt>
      <trkpt lat="40.29053105972707271575927734375" lon="-0.990366451442241668701171875">
        <ele>1172.4000244140625</ele>
        <time>2022-08-26T15:48:32.000Z</time>
      </trkpt>
      <trkpt lat="40.2903212606906890869140625" lon="-0.99032160826027393341064453125">
        <ele>1172.5999755859375</ele>
        <time>2022-08-26T15:48:39.000Z</time>
      </trkpt>
      <trkpt lat="40.29019745998084545135498046875" lon="-0.9902804531157016754150390625">
        <ele>1172.4000244140625</ele>
        <time>2022-08-26T15:48:43.000Z</time>
      </trkpt>
      <trkpt lat="40.28996360488235950469970703125" lon="-0.99020845256745815277099609375">
        <ele>1173</ele>
        <time>2022-08-26T15:48:50.000Z</time>
      </trkpt>
      <trkpt lat="40.2895492874085903167724609375" lon="-0.9901215322315692901611328125">
        <ele>1173.5999755859375</ele>
        <time>2022-08-26T15:49:03.000Z</time>
      </trkpt>
      <trkpt lat="40.2894937992095947265625" lon="-0.990106947720050811767578125">
        <ele>1173.5999755859375</ele>
        <time>2022-08-26T15:49:04.000Z</time>
      </trkpt>
      <trkpt lat="40.28932607732713222503662109375" lon="-0.990064032375812530517578125">
        <ele>1174.4000244140625</ele>
        <time>2022-08-26T15:49:10.000Z</time>
      </trkpt>
      <trkpt lat="40.28921778313815593719482421875" lon="-0.990021787583827972412109375">
        <ele>1175</ele>
        <time>2022-08-26T15:49:14.000Z</time>
      </trkpt>
      <trkpt lat="40.28899901546537876129150390625" lon="-0.98997308872640132904052734375">
        <ele>1175.4000244140625</ele>
        <time>2022-08-26T15:49:22.000Z</time>
      </trkpt>
      <trkpt lat="40.28893128968775272369384765625" lon="-0.98995699547231197357177734375">
        <ele>1175.4000244140625</ele>
        <time>2022-08-26T15:49:24.000Z</time>
      </trkpt>
      <trkpt lat="40.28860892169177532196044921875" lon="-0.98987116478383541107177734375">
        <ele>1175.5999755859375</ele>
        <time>2022-08-26T15:49:33.000Z</time>
      </trkpt>
      <trkpt lat="40.288238190114498138427734375" lon="-0.98977209068834781646728515625">
        <ele>1176.199951171875</ele>
        <time>2022-08-26T15:49:46.000Z</time>
      </trkpt>
      <trkpt lat="40.28821078129112720489501953125" lon="-0.98976823501288890838623046875">
        <ele>1176.4000244140625</ele>
        <time>2022-08-26T15:49:47.000Z</time>
      </trkpt>
      <trkpt lat="40.287950523197650909423828125" lon="-0.9897014312446117401123046875">
        <ele>1177</ele>
        <time>2022-08-26T15:49:56.000Z</time>
      </trkpt>
      <trkpt lat="40.2878107130527496337890625" lon="-0.98966010846197605133056640625">
        <ele>1177.199951171875</ele>
        <time>2022-08-26T15:50:01.000Z</time>
      </trkpt>
      <trkpt lat="40.28762890957295894622802734375" lon="-0.98960696719586849212646484375">
        <ele>1177.5999755859375</ele>
        <time>2022-08-26T15:50:07.000Z</time>
      </trkpt>
      <trkpt lat="40.28739773668348789215087890625" lon="-0.98954561166465282440185546875">
        <ele>1178</ele>
        <time>2022-08-26T15:50:15.000Z</time>
      </trkpt>
      <trkpt lat="40.2873708307743072509765625" lon="-0.98953991197049617767333984375">
        <ele>1178.199951171875</ele>
        <time>2022-08-26T15:50:17.000Z</time>
      </trkpt>
      <trkpt lat="40.2870441041886806488037109375" lon="-0.9894560091197490692138671875">
        <ele>1179</ele>
        <time>2022-08-26T15:50:28.000Z</time>
      </trkpt>
      <trkpt lat="40.28680278919637203216552734375" lon="-0.98938249982893466949462890625">
        <ele>1179.199951171875</ele>
        <time>2022-08-26T15:50:35.000Z</time>
      </trkpt>
      <trkpt lat="40.286700613796710968017578125" lon="-0.989348553121089935302734375">
        <ele>1179.4000244140625</ele>
        <time>2022-08-26T15:50:38.000Z</time>
      </trkpt>
      <trkpt lat="40.28646298684179782867431640625" lon="-0.98929767496883869171142578125">
        <ele>1180</ele>
        <time>2022-08-26T15:50:46.000Z</time>
      </trkpt>
      <trkpt lat="40.28640498407185077667236328125" lon="-0.9892793186008930206298828125">
        <ele>1180</ele>
        <time>2022-08-26T15:50:48.000Z</time>
      </trkpt>
      <trkpt lat="40.286141373217105865478515625" lon="-0.9891973435878753662109375">
        <ele>1180.800048828125</ele>
        <time>2022-08-26T15:50:57.000Z</time>
      </trkpt>
      <trkpt lat="40.28598748147487640380859375" lon="-0.98913766443729400634765625">
        <ele>1181</ele>
        <time>2022-08-26T15:51:03.000Z</time>
      </trkpt>
      <trkpt lat="40.28593115508556365966796875" lon="-0.9891250915825366973876953125">
        <ele>1181.199951171875</ele>
        <time>2022-08-26T15:51:05.000Z</time>
      </trkpt>
      <trkpt lat="40.28568279929459095001220703125" lon="-0.9890503250062465667724609375">
        <ele>1181.5999755859375</ele>
        <time>2022-08-26T15:51:14.000Z</time>
      </trkpt>
      <trkpt lat="40.28544324450194835662841796875" lon="-0.9889950044453144073486328125">
        <ele>1181.800048828125</ele>
        <time>2022-08-26T15:51:22.000Z</time>
      </trkpt>
      <trkpt lat="40.285412482917308807373046875" lon="-0.98898670636117458343505859375">
        <ele>1181.800048828125</ele>
        <time>2022-08-26T15:51:23.000Z</time>
      </trkpt>
      <trkpt lat="40.28519757091999053955078125" lon="-0.988940186798572540283203125">
        <ele>1182.199951171875</ele>
        <time>2022-08-26T15:51:30.000Z</time>
      </trkpt>
      <trkpt lat="40.285003446042537689208984375" lon="-0.98889148794114589691162109375">
        <ele>1182.4000244140625</ele>
        <time>2022-08-26T15:51:36.000Z</time>
      </trkpt>
      <trkpt lat="40.28477839194238185882568359375" lon="-0.9888317249715328216552734375">
        <ele>1182.5999755859375</ele>
        <time>2022-08-26T15:51:43.000Z</time>
      </trkpt>
      <trkpt lat="40.28472022153437137603759765625" lon="-0.98881311714649200439453125">
        <ele>1182.800048828125</ele>
        <time>2022-08-26T15:51:45.000Z</time>
      </trkpt>
      <trkpt lat="40.28453565202653408050537109375" lon="-0.9887505881488323211669921875">
        <ele>1183.199951171875</ele>
        <time>2022-08-26T15:51:52.000Z</time>
      </trkpt>
      <trkpt lat="40.2842163853347301483154296875" lon="-0.9886728040874004364013671875">
        <ele>1183.4000244140625</ele>
        <time>2022-08-26T15:52:02.000Z</time>
      </trkpt>
      <trkpt lat="40.2839454822242259979248046875" lon="-0.988602228462696075439453125">
        <ele>1183.5999755859375</ele>
        <time>2022-08-26T15:52:10.000Z</time>
      </trkpt>
      <trkpt lat="40.28381749056279659271240234375" lon="-0.9885715506970882415771484375">
        <ele>1183.800048828125</ele>
        <time>2022-08-26T15:52:14.000Z</time>
      </trkpt>
      <trkpt lat="40.28358933515846729278564453125" lon="-0.988507010042667388916015625">
        <ele>1184.199951171875</ele>
        <time>2022-08-26T15:52:21.000Z</time>
      </trkpt>
      <trkpt lat="40.28332673013210296630859375" lon="-0.98843920044600963592529296875">
        <ele>1184.5999755859375</ele>
        <time>2022-08-26T15:52:29.000Z</time>
      </trkpt>
      <trkpt lat="40.2832692302763462066650390625" lon="-0.98841338418424129486083984375">
        <ele>1184.800048828125</ele>
        <time>2022-08-26T15:52:31.000Z</time>
      </trkpt>
      <trkpt lat="40.28304015286266803741455078125" lon="-0.98837365396320819854736328125">
        <ele>1185.4000244140625</ele>
        <time>2022-08-26T15:52:38.000Z</time>
      </trkpt>
      <trkpt lat="40.28295616619288921356201171875" lon="-0.98836091347038745880126953125">
        <ele>1185.5999755859375</ele>
        <time>2022-08-26T15:52:41.000Z</time>
      </trkpt>
      <trkpt lat="40.28274645097553730010986328125" lon="-0.98830282688140869140625">
        <ele>1186.199951171875</ele>
        <time>2022-08-26T15:52:48.000Z</time>
      </trkpt>
      <trkpt lat="40.2826147712767124176025390625" lon="-0.98827525041997432708740234375">
        <ele>1186.4000244140625</ele>
        <time>2022-08-26T15:52:53.000Z</time>
      </trkpt>
      <trkpt lat="40.28248007409274578094482421875" lon="-0.98823753185570240020751953125">
        <ele>1186.5999755859375</ele>
        <time>2022-08-26T15:52:57.000Z</time>
      </trkpt>
      <trkpt lat="40.28225108049809932708740234375" lon="-0.98818053491413593292236328125">
        <ele>1187</ele>
        <time>2022-08-26T15:53:04.000Z</time>
      </trkpt>
      <trkpt lat="40.28206734918057918548583984375" lon="-0.988131500780582427978515625">
        <ele>1187.5999755859375</ele>
        <time>2022-08-26T15:53:10.000Z</time>
      </trkpt>
      <trkpt lat="40.28196894563734531402587890625" lon="-0.98810895346105098724365234375">
        <ele>1187.800048828125</ele>
        <time>2022-08-26T15:53:13.000Z</time>
      </trkpt>
      <trkpt lat="40.28174648992717266082763671875" lon="-0.98804558627307415008544921875">
        <ele>1188</ele>
        <time>2022-08-26T15:53:20.000Z</time>
      </trkpt>
      <trkpt lat="40.2815868146717548370361328125" lon="-0.98800753243267536163330078125">
        <ele>1188.5999755859375</ele>
        <time>2022-08-26T15:53:25.000Z</time>
      </trkpt>
      <trkpt lat="40.28137047775089740753173828125" lon="-0.9879445843398571014404296875">
        <ele>1189.199951171875</ele>
        <time>2022-08-26T15:53:32.000Z</time>
      </trkpt>
      <trkpt lat="40.28121046721935272216796875" lon="-0.98790426738560199737548828125">
        <ele>1189.4000244140625</ele>
        <time>2022-08-26T15:53:37.000Z</time>
      </trkpt>
      <trkpt lat="40.28099094517529010772705078125" lon="-0.98784626461565494537353515625">
        <ele>1189.800048828125</ele>
        <time>2022-08-26T15:53:45.000Z</time>
      </trkpt>
      <trkpt lat="40.2807643823325634002685546875" lon="-0.98776546306908130645751953125">
        <ele>1190.199951171875</ele>
        <time>2022-08-26T15:53:53.000Z</time>
      </trkpt>
      <trkpt lat="40.28056078590452671051025390625" lon="-0.9877051971852779388427734375">
        <ele>1190.4000244140625</ele>
        <time>2022-08-26T15:54:00.000Z</time>
      </trkpt>
      <trkpt lat="40.28053865768015384674072265625" lon="-0.9876984916627407073974609375">
        <ele>1190.4000244140625</ele>
        <time>2022-08-26T15:54:01.000Z</time>
      </trkpt>
      <trkpt lat="40.2804723568260669708251953125" lon="-0.98774618469178676605224609375">
        <ele>1190.4000244140625</ele>
        <time>2022-08-26T15:54:05.000Z</time>
      </trkpt>
      <trkpt lat="40.2804589457809925079345703125" lon="-0.98793628625571727752685546875">
        <ele>1190.4000244140625</ele>
        <time>2022-08-26T15:54:10.000Z</time>
      </trkpt>
      <trkpt lat="40.28048031963407993316650390625" lon="-0.988219678401947021484375">
        <ele>1190.199951171875</ele>
        <time>2022-08-26T15:54:14.000Z</time>
      </trkpt>
      <trkpt lat="40.280516110360622406005859375" lon="-0.98839343525469303131103515625">
        <ele>1190</ele>
        <time>2022-08-26T15:54:15.000Z</time>
      </trkpt>
      <trkpt lat="40.28058090247213840484619140625" lon="-0.9886436350643634796142578125">
        <ele>1189.4000244140625</ele>
        <time>2022-08-26T15:54:19.000Z</time>
      </trkpt>
      <trkpt lat="40.28059355914592742919921875" lon="-0.98872267641127109527587890625">
        <ele>1189.199951171875</ele>
        <time>2022-08-26T15:54:20.000Z</time>
      </trkpt>
      <trkpt lat="40.2802088297903537750244140625" lon="-0.9894928894937038421630859375">
        <ele>1185</ele>
        <time>2022-08-26T15:54:35.000Z</time>
      </trkpt>
      <trkpt lat="40.2802088297903537750244140625" lon="-0.9894928894937038421630859375">
        <ele>1184.800048828125</ele>
        <time>2022-08-26T15:54:36.000Z</time>
      </trkpt>
      <trkpt lat="40.2801008708775043487548828125" lon="-0.98953203298151493072509765625">
        <ele>1184.800048828125</ele>
        <time>2022-08-26T15:54:42.000Z</time>
      </trkpt>
      <trkpt lat="40.28001713566482067108154296875" lon="-0.98948710598051548004150390625">
        <ele>1185.199951171875</ele>
        <time>2022-08-26T15:54:48.000Z</time>
      </trkpt>
      <trkpt lat="40.27988956309854984283447265625" lon="-0.98934528417885303497314453125">
        <ele>1186</ele>
        <time>2022-08-26T15:54:56.000Z</time>
      </trkpt>
      <trkpt lat="40.2798769064247608184814453125" lon="-0.98932986147701740264892578125">
        <ele>1186.4000244140625</ele>
        <time>2022-08-26T15:54:58.000Z</time>
      </trkpt>
      <trkpt lat="40.279742293059825897216796875" lon="-0.98922844044864177703857421875">
        <ele>1187.4000244140625</ele>
        <time>2022-08-26T15:55:05.000Z</time>
      </trkpt>
      <trkpt lat="40.27972443960607051849365234375" lon="-0.9892206452786922454833984375">
        <ele>1187.5999755859375</ele>
        <time>2022-08-26T15:55:06.000Z</time>
      </trkpt>
      <trkpt lat="40.2796150557696819305419921875" lon="-0.98916289396584033966064453125">
        <ele>1188.5999755859375</ele>
        <time>2022-08-26T15:55:12.000Z</time>
      </trkpt>
      <trkpt lat="40.27951388619840145111083984375" lon="-0.9891046397387981414794921875">
        <ele>1189.199951171875</ele>
        <time>2022-08-26T15:55:18.000Z</time>
      </trkpt>
      <trkpt lat="40.2794797718524932861328125" lon="-0.98908913321793079376220703125">
        <ele>1189.5999755859375</ele>
        <time>2022-08-26T15:55:20.000Z</time>
      </trkpt>
      <trkpt lat="40.2793957851827144622802734375" lon="-0.9890680946409702301025390625">
        <ele>1190.199951171875</ele>
        <time>2022-08-26T15:55:26.000Z</time>
      </trkpt>
      <trkpt lat="40.2793414704501628875732421875" lon="-0.9890550188720226287841796875">
        <ele>1190.4000244140625</ele>
        <time>2022-08-26T15:55:29.000Z</time>
      </trkpt>
      <trkpt lat="40.2792164124548435211181640625" lon="-0.9890283644199371337890625">
        <ele>1191.5999755859375</ele>
        <time>2022-08-26T15:55:36.000Z</time>
      </trkpt>
      <trkpt lat="40.2791423164308071136474609375" lon="-0.98902325145900249481201171875">
        <ele>1192.5999755859375</ele>
        <time>2022-08-26T15:55:41.000Z</time>
      </trkpt>
      <trkpt lat="40.27900175191462039947509765625" lon="-0.98898989148437976837158203125">
        <ele>1193.5999755859375</ele>
        <time>2022-08-26T15:55:47.000Z</time>
      </trkpt>
      <trkpt lat="40.27898146770894527435302734375" lon="-0.98898653872311115264892578125">
        <ele>1193.5999755859375</ele>
        <time>2022-08-26T15:55:49.000Z</time>
      </trkpt>
      <trkpt lat="40.2788119018077850341796875" lon="-0.98897463642060756683349609375">
        <ele>1194.800048828125</ele>
        <time>2022-08-26T15:55:57.000Z</time>
      </trkpt>
      <trkpt lat="40.2787916176021099090576171875" lon="-0.98897430114448070526123046875">
        <ele>1195</ele>
        <time>2022-08-26T15:55:58.000Z</time>
      </trkpt>
      <trkpt lat="40.27864736504852771759033203125" lon="-0.98898067139089107513427734375">
        <ele>1195.800048828125</ele>
        <time>2022-08-26T15:56:05.000Z</time>
      </trkpt>
      <trkpt lat="40.27862674556672573089599609375" lon="-0.98898016847670078277587890625">
        <ele>1196</ele>
        <time>2022-08-26T15:56:06.000Z</time>
      </trkpt>
      <trkpt lat="40.27841870673000812530517578125" lon="-0.98899425007402896881103515625">
        <ele>1197</ele>
        <time>2022-08-26T15:56:13.000Z</time>
      </trkpt>
      <trkpt lat="40.278391130268573760986328125" lon="-0.98899408243596553802490234375">
        <ele>1197.4000244140625</ele>
        <time>2022-08-26T15:56:15.000Z</time>
      </trkpt>
      <trkpt lat="40.2781834267079830169677734375" lon="-0.98900355398654937744140625">
        <ele>1197.800048828125</ele>
        <time>2022-08-26T15:56:23.000Z</time>
      </trkpt>
      <trkpt lat="40.27796499431133270263671875" lon="-0.9890047274529933929443359375">
        <ele>1197.800048828125</ele>
        <time>2022-08-26T15:56:31.000Z</time>
      </trkpt>
      <trkpt lat="40.27793549001216888427734375" lon="-0.9890050627291202545166015625">
        <ele>1197.800048828125</ele>
        <time>2022-08-26T15:56:32.000Z</time>
      </trkpt>
      <trkpt lat="40.27767137624323368072509765625" lon="-0.988934822380542755126953125">
        <ele>1198.4000244140625</ele>
        <time>2022-08-26T15:56:41.000Z</time>
      </trkpt>
      <trkpt lat="40.27749937959015369415283203125" lon="-0.98883549682796001434326171875">
        <ele>1199</ele>
        <time>2022-08-26T15:56:47.000Z</time>
      </trkpt>
      <trkpt lat="40.2774129621684551239013671875" lon="-0.988783277571201324462890625">
        <ele>1199.4000244140625</ele>
        <time>2022-08-26T15:56:50.000Z</time>
      </trkpt>
      <trkpt lat="40.2773125469684600830078125" lon="-0.98870758898556232452392578125">
        <ele>1200</ele>
        <time>2022-08-26T15:56:54.000Z</time>
      </trkpt>
      <trkpt lat="40.27721188031136989593505859375" lon="-0.988600887358188629150390625">
        <ele>1200.4000244140625</ele>
        <time>2022-08-26T15:56:58.000Z</time>
      </trkpt>
      <trkpt lat="40.27698322199285030364990234375" lon="-0.9883137233555316925048828125">
        <ele>1200.800048828125</ele>
        <time>2022-08-26T15:57:07.000Z</time>
      </trkpt>
      <trkpt lat="40.2769626863300800323486328125" lon="-0.98826971836388111114501953125">
        <ele>1200.800048828125</ele>
        <time>2022-08-26T15:57:08.000Z</time>
      </trkpt>
      <trkpt lat="40.2768218703567981719970703125" lon="-0.98796780221164226531982421875">
        <ele>1201</ele>
        <time>2022-08-26T15:57:15.000Z</time>
      </trkpt>
      <trkpt lat="40.27667124755680561065673828125" lon="-0.9875771217048168182373046875">
        <ele>1201</ele>
        <time>2022-08-26T15:57:24.000Z</time>
      </trkpt>
      <trkpt lat="40.2765318565070629119873046875" lon="-0.9870996885001659393310546875">
        <ele>1201</ele>
        <time>2022-08-26T15:57:34.000Z</time>
      </trkpt>
      <trkpt lat="40.2763377316296100616455078125" lon="-0.9866306371986865997314453125">
        <ele>1201.199951171875</ele>
        <time>2022-08-26T15:57:44.000Z</time>
      </trkpt>
      <trkpt lat="40.27611049823462963104248046875" lon="-0.98632402718067169189453125">
        <ele>1201.199951171875</ele>
        <time>2022-08-26T15:57:52.000Z</time>
      </trkpt>
      <trkpt lat="40.275806486606597900390625" lon="-0.986013896763324737548828125">
        <ele>1201</ele>
        <time>2022-08-26T15:58:01.000Z</time>
      </trkpt>
      <trkpt lat="40.275373645126819610595703125" lon="-0.9856667183339595794677734375">
        <ele>1201</ele>
        <time>2022-08-26T15:58:12.000Z</time>
      </trkpt>
      <trkpt lat="40.27512855827808380126953125" lon="-0.98550603725016117095947265625">
        <ele>1200.800048828125</ele>
        <time>2022-08-26T15:58:19.000Z</time>
      </trkpt>
      <trkpt lat="40.27491725049912929534912109375" lon="-0.98536186851561069488525390625">
        <ele>1200.199951171875</ele>
        <time>2022-08-26T15:58:27.000Z</time>
      </trkpt>
      <trkpt lat="40.27469948865473270416259765625" lon="-0.98522356711328029632568359375">
        <ele>1200.4000244140625</ele>
        <time>2022-08-26T15:58:34.000Z</time>
      </trkpt>
      <trkpt lat="40.27443864382803440093994140625" lon="-0.9850404225289821624755859375">
        <ele>1200.4000244140625</ele>
        <time>2022-08-26T15:58:42.000Z</time>
      </trkpt>
      <trkpt lat="40.2741886116564273834228515625" lon="-0.9848714433610439300537109375">
        <ele>1200.4000244140625</ele>
        <time>2022-08-26T15:58:50.000Z</time>
      </trkpt>
      <trkpt lat="40.273997001349925994873046875" lon="-0.9847339801490306854248046875">
        <ele>1200.4000244140625</ele>
        <time>2022-08-26T15:58:57.000Z</time>
      </trkpt>
      <trkpt lat="40.27373112738132476806640625" lon="-0.98455854691565036773681640625">
        <ele>1200.5999755859375</ele>
        <time>2022-08-26T15:59:06.000Z</time>
      </trkpt>
      <trkpt lat="40.2734942547976970672607421875" lon="-0.98441236652433872222900390625">
        <ele>1200.5999755859375</ele>
        <time>2022-08-26T15:59:14.000Z</time>
      </trkpt>
      <trkpt lat="40.27327976189553737640380859375" lon="-0.98427657969295978546142578125">
        <ele>1200.5999755859375</ele>
        <time>2022-08-26T15:59:21.000Z</time>
      </trkpt>
      <trkpt lat="40.27301103807985782623291015625" lon="-0.98404792137444019317626953125">
        <ele>1200.199951171875</ele>
        <time>2022-08-26T15:59:30.000Z</time>
      </trkpt>
      <trkpt lat="40.27298874221742153167724609375" lon="-0.98403082229197025299072265625">
        <ele>1199.800048828125</ele>
        <time>2022-08-26T15:59:35.000Z</time>
      </trkpt>
      <trkpt lat="40.27291045524179935455322265625" lon="-0.98395203240215778350830078125">
        <ele>1202.4000244140625</ele>
        <time>2022-08-26T16:01:12.000Z</time>
      </trkpt>
      <trkpt lat="40.2728790231049060821533203125" lon="-0.98392420448362827301025390625">
        <ele>1202.4000244140625</ele>
        <time>2022-08-26T16:01:13.000Z</time>
      </trkpt>
      <trkpt lat="40.272614657878875732421875" lon="-0.98369252867996692657470703125">
        <ele>1203</ele>
        <time>2022-08-26T16:01:20.000Z</time>
      </trkpt>
      <trkpt lat="40.27225054800510406494140625" lon="-0.98341961391270160675048828125">
        <ele>1203</ele>
        <time>2022-08-26T16:01:29.000Z</time>
      </trkpt>
      <trkpt lat="40.2718550898134708404541015625" lon="-0.9831249900162220001220703125">
        <ele>1203.199951171875</ele>
        <time>2022-08-26T16:01:39.000Z</time>
      </trkpt>
      <trkpt lat="40.2714470587670803070068359375" lon="-0.98296187818050384521484375">
        <ele>1203.199951171875</ele>
        <time>2022-08-26T16:01:48.000Z</time>
      </trkpt>
      <trkpt lat="40.27112561278045177459716796875" lon="-0.98285601474344730377197265625">
        <ele>1203.4000244140625</ele>
        <time>2022-08-26T16:01:56.000Z</time>
      </trkpt>
      <trkpt lat="40.2706249617040157318115234375" lon="-0.98269893787801265716552734375">
        <ele>1202.800048828125</ele>
        <time>2022-08-26T16:02:06.000Z</time>
      </trkpt>
      <trkpt lat="40.270227156579494476318359375" lon="-0.9825650788843631744384765625">
        <ele>1202.800048828125</ele>
        <time>2022-08-26T16:02:15.000Z</time>
      </trkpt>
      <trkpt lat="40.269816108047962188720703125" lon="-0.9824125282466411590576171875">
        <ele>1203.199951171875</ele>
        <time>2022-08-26T16:02:25.000Z</time>
      </trkpt>
      <trkpt lat="40.26972516439855098724365234375" lon="-0.98237740807235240936279296875">
        <ele>1203.4000244140625</ele>
        <time>2022-08-26T16:02:27.000Z</time>
      </trkpt>
      <trkpt lat="40.269331634044647216796875" lon="-0.98223692737519741058349609375">
        <ele>1203.5999755859375</ele>
        <time>2022-08-26T16:02:36.000Z</time>
      </trkpt>
      <trkpt lat="40.2689291350543498992919921875" lon="-0.98211036063730716705322265625">
        <ele>1203.199951171875</ele>
        <time>2022-08-26T16:02:45.000Z</time>
      </trkpt>
      <trkpt lat="40.268613807857036590576171875" lon="-0.98197541199624538421630859375">
        <ele>1202.800048828125</ele>
        <time>2022-08-26T16:02:52.000Z</time>
      </trkpt>
      <trkpt lat="40.268306024372577667236328125" lon="-0.98184566013514995574951171875">
        <ele>1202.4000244140625</ele>
        <time>2022-08-26T16:02:59.000Z</time>
      </trkpt>
      <trkpt lat="40.2682002447545528411865234375" lon="-0.98179201595485210418701171875">
        <ele>1202</ele>
        <time>2022-08-26T16:03:03.000Z</time>
      </trkpt>
      <trkpt lat="40.26782431639730930328369140625" lon="-0.98161465488374233245849609375">
        <ele>1201.5999755859375</ele>
        <time>2022-08-26T16:03:12.000Z</time>
      </trkpt>
      <trkpt lat="40.26740941219031810760498046875" lon="-0.98140175454318523406982421875">
        <ele>1202</ele>
        <time>2022-08-26T16:03:23.000Z</time>
      </trkpt>
      <trkpt lat="40.2668940089643001556396484375" lon="-0.9810808114707469940185546875">
        <ele>1202</ele>
        <time>2022-08-26T16:03:34.000Z</time>
      </trkpt>
      <trkpt lat="40.26640199124813079833984375" lon="-0.9807800687849521636962890625">
        <ele>1202.199951171875</ele>
        <time>2022-08-26T16:03:45.000Z</time>
      </trkpt>
      <trkpt lat="40.265982560813426971435546875" lon="-0.9805338084697723388671875">
        <ele>1202.199951171875</ele>
        <time>2022-08-26T16:03:55.000Z</time>
      </trkpt>
      <trkpt lat="40.265729762613773345947265625" lon="-0.9803884662687778472900390625">
        <ele>1202</ele>
        <time>2022-08-26T16:04:03.000Z</time>
      </trkpt>
      <trkpt lat="40.26536087505519390106201171875" lon="-0.98018000833690166473388671875">
        <ele>1202.199951171875</ele>
        <time>2022-08-26T16:04:13.000Z</time>
      </trkpt>
      <trkpt lat="40.26496608741581439971923828125" lon="-0.97994707524776458740234375">
        <ele>1202.4000244140625</ele>
        <time>2022-08-26T16:04:23.000Z</time>
      </trkpt>
      <trkpt lat="40.26465327478945255279541015625" lon="-0.97974582575261592864990234375">
        <ele>1202.5999755859375</ele>
        <time>2022-08-26T16:04:31.000Z</time>
      </trkpt>
      <trkpt lat="40.26426049880683422088623046875" lon="-0.97949403338134288787841796875">
        <ele>1202.800048828125</ele>
        <time>2022-08-26T16:04:41.000Z</time>
      </trkpt>
      <trkpt lat="40.2637588419020175933837890625" lon="-0.97919404506683349609375">
        <ele>1203</ele>
        <time>2022-08-26T16:04:53.000Z</time>
      </trkpt>
      <trkpt lat="40.26367326267063617706298828125" lon="-0.9791415743529796600341796875">
        <ele>1203</ele>
        <time>2022-08-26T16:04:55.000Z</time>
      </trkpt>
      <trkpt lat="40.2631848491728305816650390625" lon="-0.97886438481509685516357421875">
        <ele>1203</ele>
        <time>2022-08-26T16:05:05.000Z</time>
      </trkpt>
      <trkpt lat="40.26280171237885951995849609375" lon="-0.9786514006555080413818359375">
        <ele>1202.4000244140625</ele>
        <time>2022-08-26T16:05:15.000Z</time>
      </trkpt>
      <trkpt lat="40.2623647637665271759033203125" lon="-0.97839985974133014678955078125">
        <ele>1202.199951171875</ele>
        <time>2022-08-26T16:05:25.000Z</time>
      </trkpt>
      <trkpt lat="40.26192463003098964691162109375" lon="-0.97814018838107585906982421875">
        <ele>1202</ele>
        <time>2022-08-26T16:05:35.000Z</time>
      </trkpt>
      <trkpt lat="40.26157393120229244232177734375" lon="-0.97792376764118671417236328125">
        <ele>1201.5999755859375</ele>
        <time>2022-08-26T16:05:43.000Z</time>
      </trkpt>
      <trkpt lat="40.26124821044504642486572265625" lon="-0.97772444598376750946044921875">
        <ele>1201</ele>
        <time>2022-08-26T16:05:50.000Z</time>
      </trkpt>
      <trkpt lat="40.2611202187836170196533203125" lon="-0.97764850594103336334228515625">
        <ele>1201</ele>
        <time>2022-08-26T16:05:53.000Z</time>
      </trkpt>
      <trkpt lat="40.2606290392577648162841796875" lon="-0.977360419929027557373046875">
        <ele>1201</ele>
        <time>2022-08-26T16:06:04.000Z</time>
      </trkpt>
      <trkpt lat="40.2602481655776500701904296875" lon="-0.9771463461220264434814453125">
        <ele>1200.800048828125</ele>
        <time>2022-08-26T16:06:12.000Z</time>
      </trkpt>
      <trkpt lat="40.25974877178668975830078125" lon="-0.9768538177013397216796875">
        <ele>1200.4000244140625</ele>
        <time>2022-08-26T16:06:21.000Z</time>
      </trkpt>
      <trkpt lat="40.25974877178668975830078125" lon="-0.9768538177013397216796875">
        <ele>1200.4000244140625</ele>
        <time>2022-08-26T16:06:22.000Z</time>
      </trkpt>
      <trkpt lat="40.259415842592716217041015625" lon="-0.9766404144465923309326171875">
        <ele>1200</ele>
        <time>2022-08-26T16:06:29.000Z</time>
      </trkpt>
      <trkpt lat="40.25937301106750965118408203125" lon="-0.9766132570803165435791015625">
        <ele>1200</ele>
        <time>2022-08-26T16:06:30.000Z</time>
      </trkpt>
      <trkpt lat="40.2589528262615203857421875" lon="-0.9763658232986927032470703125">
        <ele>1199.199951171875</ele>
        <time>2022-08-26T16:06:39.000Z</time>
      </trkpt>
      <trkpt lat="40.258900187909603118896484375" lon="-0.9763353131711483001708984375">
        <ele>1199.199951171875</ele>
        <time>2022-08-26T16:06:40.000Z</time>
      </trkpt>
      <trkpt lat="40.25844949297606945037841796875" lon="-0.9760679304599761962890625">
        <ele>1198.800048828125</ele>
        <time>2022-08-26T16:06:49.000Z</time>
      </trkpt>
      <trkpt lat="40.25801681913435459136962890625" lon="-0.97581152804195880889892578125">
        <ele>1199.199951171875</ele>
        <time>2022-08-26T16:06:59.000Z</time>
      </trkpt>
      <trkpt lat="40.25756654329597949981689453125" lon="-0.97555093467235565185546875">
        <ele>1198.5999755859375</ele>
        <time>2022-08-26T16:07:10.000Z</time>
      </trkpt>
      <trkpt lat="40.25721006095409393310546875" lon="-0.9753345139324665069580078125">
        <ele>1198.4000244140625</ele>
        <time>2022-08-26T16:07:19.000Z</time>
      </trkpt>
      <trkpt lat="40.2568553388118743896484375" lon="-0.97511666826903820037841796875">
        <ele>1198.199951171875</ele>
        <time>2022-08-26T16:07:28.000Z</time>
      </trkpt>
      <trkpt lat="40.256496928632259368896484375" lon="-0.9749063663184642791748046875">
        <ele>1198.4000244140625</ele>
        <time>2022-08-26T16:07:37.000Z</time>
      </trkpt>
      <trkpt lat="40.25619442574679851531982421875" lon="-0.97472741268575191497802734375">
        <ele>1198.4000244140625</ele>
        <time>2022-08-26T16:07:45.000Z</time>
      </trkpt>
      <trkpt lat="40.2558040805160999298095703125" lon="-0.97447930835187435150146484375">
        <ele>1198.4000244140625</ele>
        <time>2022-08-26T16:07:55.000Z</time>
      </trkpt>
      <trkpt lat="40.2555673755705356597900390625" lon="-0.97433027811348438262939453125">
        <ele>1198.4000244140625</ele>
        <time>2022-08-26T16:08:02.000Z</time>
      </trkpt>
      <trkpt lat="40.255287587642669677734375" lon="-0.97412022762000560760498046875">
        <ele>1198.5999755859375</ele>
        <time>2022-08-26T16:08:09.000Z</time>
      </trkpt>
      <trkpt lat="40.25497787632048130035400390625" lon="-0.97389869391918182373046875">
        <ele>1198.800048828125</ele>
        <time>2022-08-26T16:08:17.000Z</time>
      </trkpt>
      <trkpt lat="40.254703871905803680419921875" lon="-0.97373801283538341522216796875">
        <ele>1199</ele>
        <time>2022-08-26T16:08:24.000Z</time>
      </trkpt>
      <trkpt lat="40.25452458299696445465087890625" lon="-0.97364463843405246734619140625">
        <ele>1199</ele>
        <time>2022-08-26T16:08:28.000Z</time>
      </trkpt>
      <trkpt lat="40.25439164601266384124755859375" lon="-0.9735689498484134674072265625">
        <ele>1199</ele>
        <time>2022-08-26T16:08:31.000Z</time>
      </trkpt>
      <trkpt lat="40.25406156666576862335205078125" lon="-0.97341296263039112091064453125">
        <ele>1199.199951171875</ele>
        <time>2022-08-26T16:08:38.000Z</time>
      </trkpt>
      <trkpt lat="40.25368806906044483184814453125" lon="-0.97321741282939910888671875">
        <ele>1199.199951171875</ele>
        <time>2022-08-26T16:08:47.000Z</time>
      </trkpt>
      <trkpt lat="40.253293700516223907470703125" lon="-0.97300090827047824859619140625">
        <ele>1199.199951171875</ele>
        <time>2022-08-26T16:08:56.000Z</time>
      </trkpt>
      <trkpt lat="40.2528033591806888580322265625" lon="-0.97272120416164398193359375">
        <ele>1198.800048828125</ele>
        <time>2022-08-26T16:09:05.000Z</time>
      </trkpt>
      <trkpt lat="40.25238971225917339324951171875" lon="-0.97247603349387645721435546875">
        <ele>1198.5999755859375</ele>
        <time>2022-08-26T16:09:13.000Z</time>
      </trkpt>
      <trkpt lat="40.25190532207489013671875" lon="-0.9721752069890499114990234375">
        <ele>1198.5999755859375</ele>
        <time>2022-08-26T16:09:23.000Z</time>
      </trkpt>
      <trkpt lat="40.2516044117510318756103515625" lon="-0.97200773656368255615234375">
        <ele>1198.4000244140625</ele>
        <time>2022-08-26T16:09:29.000Z</time>
      </trkpt>
      <trkpt lat="40.25119059719145298004150390625" lon="-0.97175963222980499267578125">
        <ele>1198.5999755859375</ele>
        <time>2022-08-26T16:09:37.000Z</time>
      </trkpt>
      <trkpt lat="40.251011140644550323486328125" lon="-0.97165879793465137481689453125">
        <ele>1198.4000244140625</ele>
        <time>2022-08-26T16:09:41.000Z</time>
      </trkpt>
      <trkpt lat="40.2508295886218547821044921875" lon="-0.97154396586120128631591796875">
        <ele>1198.4000244140625</ele>
        <time>2022-08-26T16:09:45.000Z</time>
      </trkpt>
      <trkpt lat="40.2504624612629413604736328125" lon="-0.9713172353804111480712890625">
        <ele>1198.4000244140625</ele>
        <time>2022-08-26T16:09:54.000Z</time>
      </trkpt>
      <trkpt lat="40.24996398948132991790771484375" lon="-0.9710158221423625946044921875">
        <ele>1198.5999755859375</ele>
        <time>2022-08-26T16:10:04.000Z</time>
      </trkpt>
      <trkpt lat="40.249509774148464202880859375" lon="-0.97074097953736782073974609375">
        <ele>1198.800048828125</ele>
        <time>2022-08-26T16:10:13.000Z</time>
      </trkpt>
      <trkpt lat="40.24892647750675678253173828125" lon="-0.97037854604423046112060546875">
        <ele>1198.4000244140625</ele>
        <time>2022-08-26T16:10:23.000Z</time>
      </trkpt>
      <trkpt lat="40.248485505580902099609375" lon="-0.97011686302721500396728515625">
        <ele>1198.199951171875</ele>
        <time>2022-08-26T16:10:33.000Z</time>
      </trkpt>
      <trkpt lat="40.24796582758426666259765625" lon="-0.96981771290302276611328125">
        <ele>1198.4000244140625</ele>
        <time>2022-08-26T16:10:43.000Z</time>
      </trkpt>
      <trkpt lat="40.2479155361652374267578125" lon="-0.9697873704135417938232421875">
        <ele>1198.4000244140625</ele>
        <time>2022-08-26T16:10:44.000Z</time>
      </trkpt>
      <trkpt lat="40.2474335767328739166259765625" lon="-0.96947128884494304656982421875">
        <ele>1197.800048828125</ele>
        <time>2022-08-26T16:10:55.000Z</time>
      </trkpt>
      <trkpt lat="40.24734565056860446929931640625" lon="-0.969412364065647125244140625">
        <ele>1197.5999755859375</ele>
        <time>2022-08-26T16:10:56.000Z</time>
      </trkpt>
      <trkpt lat="40.24703250266611576080322265625" lon="-0.96922804601490497589111328125">
        <ele>1197</ele>
        <time>2022-08-26T16:11:04.000Z</time>
      </trkpt>
      <trkpt lat="40.2466258965432643890380859375" lon="-0.9689686261117458343505859375">
        <ele>1197</ele>
        <time>2022-08-26T16:11:14.000Z</time>
      </trkpt>
      <trkpt lat="40.2463268302381038665771484375" lon="-0.96879034303128719329833984375">
        <ele>1196.800048828125</ele>
        <time>2022-08-26T16:11:23.000Z</time>
      </trkpt>
      <trkpt lat="40.24607428349554538726806640625" lon="-0.96862186677753925323486328125">
        <ele>1197</ele>
        <time>2022-08-26T16:11:31.000Z</time>
      </trkpt>
      <trkpt lat="40.246061123907566070556640625" lon="-0.968606360256671905517578125">
        <ele>1197.199951171875</ele>
        <time>2022-08-26T16:11:34.000Z</time>
      </trkpt>
      <trkpt lat="40.2459942363202571868896484375" lon="-0.968552045524120330810546875">
        <ele>1197.199951171875</ele>
        <time>2022-08-26T16:13:01.000Z</time>
      </trkpt>
      <trkpt lat="40.24584562517702579498291015625" lon="-0.96843729726970195770263671875">
        <ele>1197.199951171875</ele>
        <time>2022-08-26T16:13:06.000Z</time>
      </trkpt>
      <trkpt lat="40.24560414254665374755859375" lon="-0.96824853681027889251708984375">
        <ele>1197.199951171875</ele>
        <time>2022-08-26T16:13:13.000Z</time>
      </trkpt>
      <trkpt lat="40.2455600537359714508056640625" lon="-0.96822791732847690582275390625">
        <ele>1197.199951171875</ele>
        <time>2022-08-26T16:13:14.000Z</time>
      </trkpt>
      <trkpt lat="40.24544312618672847747802734375" lon="-0.96816337667405605316162109375">
        <ele>1197.4000244140625</ele>
        <time>2022-08-26T16:13:17.000Z</time>
      </trkpt>
      <trkpt lat="40.2454041503369808197021484375" lon="-0.96814242191612720489501953125">
        <ele>1197.4000244140625</ele>
        <time>2022-08-26T16:13:18.000Z</time>
      </trkpt>
      <trkpt lat="40.2453186549246311187744140625" lon="-0.9681017696857452392578125">
        <ele>1197.4000244140625</ele>
        <time>2022-08-26T16:13:20.000Z</time>
      </trkpt>
      <trkpt lat="40.24518781341612339019775390625" lon="-0.9680583514273166656494140625">
        <ele>1197.4000244140625</ele>
        <time>2022-08-26T16:13:23.000Z</time>
      </trkpt>
      <trkpt lat="40.24506560526788234710693359375" lon="-0.9680090658366680145263671875">
        <ele>1197.4000244140625</ele>
        <time>2022-08-26T16:13:26.000Z</time>
      </trkpt>
      <trkpt lat="40.24494230747222900390625" lon="-0.9679649770259857177734375">
        <ele>1197.5999755859375</ele>
        <time>2022-08-26T16:13:29.000Z</time>
      </trkpt>
      <trkpt lat="40.2446635253727436065673828125" lon="-0.96785567700862884521484375">
        <ele>1197.5999755859375</ele>
        <time>2022-08-26T16:13:36.000Z</time>
      </trkpt>
      <trkpt lat="40.2443723380565643310546875" lon="-0.9678618796169757843017578125">
        <ele>1197.800048828125</ele>
        <time>2022-08-26T16:13:42.000Z</time>
      </trkpt>
      <trkpt lat="40.243907310068607330322265625" lon="-0.9678638912737369537353515625">
        <ele>1197.5999755859375</ele>
        <time>2022-08-26T16:13:52.000Z</time>
      </trkpt>
      <trkpt lat="40.2434550225734710693359375" lon="-0.9679068066179752349853515625">
        <ele>1197.199951171875</ele>
        <time>2022-08-26T16:14:02.000Z</time>
      </trkpt>
      <trkpt lat="40.24314514361321926116943359375" lon="-0.9679837524890899658203125">
        <ele>1196.5999755859375</ele>
        <time>2022-08-26T16:14:10.000Z</time>
      </trkpt>
      <trkpt lat="40.24267223663628101348876953125" lon="-0.96817108802497386932373046875">
        <ele>1196.5999755859375</ele>
        <time>2022-08-26T16:14:20.000Z</time>
      </trkpt>
      <trkpt lat="40.24227459914982318878173828125" lon="-0.96836638636887073516845703125">
        <ele>1196.5999755859375</ele>
        <time>2022-08-26T16:14:30.000Z</time>
      </trkpt>
      <trkpt lat="40.24205901660025119781494140625" lon="-0.9685267321765422821044921875">
        <ele>1196.5999755859375</ele>
        <time>2022-08-26T16:14:37.000Z</time>
      </trkpt>
      <trkpt lat="40.24184293113648891448974609375" lon="-0.968694202601909637451171875">
        <ele>1196.4000244140625</ele>
        <time>2022-08-26T16:14:45.000Z</time>
      </trkpt>
      <trkpt lat="40.24181040935218334197998046875" lon="-0.96872471272945404052734375">
        <ele>1196.4000244140625</ele>
        <time>2022-08-26T16:14:46.000Z</time>
      </trkpt>
      <trkpt lat="40.2416765503585338592529296875" lon="-0.96884541213512420654296875">
        <ele>1195.800048828125</ele>
        <time>2022-08-26T16:14:50.000Z</time>
      </trkpt>
      <trkpt lat="40.2415776439011096954345703125" lon="-0.96894892863929271697998046875">
        <ele>1195.4000244140625</ele>
        <time>2022-08-26T16:14:53.000Z</time>
      </trkpt>
      <trkpt lat="40.24154520593583583831787109375" lon="-0.968981198966503143310546875">
        <ele>1195.4000244140625</ele>
        <time>2022-08-26T16:14:54.000Z</time>
      </trkpt>
      <trkpt lat="40.2411525137722492218017578125" lon="-0.9693501703441143035888671875">
        <ele>1195.4000244140625</ele>
        <time>2022-08-26T16:15:05.000Z</time>
      </trkpt>
      <trkpt lat="40.2409107796847820281982421875" lon="-0.96959550864994525909423828125">
        <ele>1195.4000244140625</ele>
        <time>2022-08-26T16:15:13.000Z</time>
      </trkpt>
      <trkpt lat="40.24068555794656276702880859375" lon="-0.9698064811527729034423828125">
        <ele>1196.4000244140625</ele>
        <time>2022-08-26T16:15:20.000Z</time>
      </trkpt>
      <trkpt lat="40.24064817465841770172119140625" lon="-0.9698413498699665069580078125">
        <ele>1199.5999755859375</ele>
        <time>2022-08-26T16:15:21.000Z</time>
      </trkpt>
      <trkpt lat="40.24060995317995548248291015625" lon="-0.9698789007961750030517578125">
        <ele>1202.5999755859375</ele>
        <time>2022-08-26T16:15:22.000Z</time>
      </trkpt>
      <trkpt lat="40.240570642054080963134765625" lon="-0.96991837956011295318603515625">
        <ele>1204.4000244140625</ele>
        <time>2022-08-26T16:15:23.000Z</time>
      </trkpt>
      <trkpt lat="40.24053074419498443603515625" lon="-0.96995827741920948028564453125">
        <ele>1205.800048828125</ele>
        <time>2022-08-26T16:15:24.000Z</time>
      </trkpt>
      <trkpt lat="40.2404507808387279510498046875" lon="-0.97003404982388019561767578125">
        <ele>1206.800048828125</ele>
        <time>2022-08-26T16:15:26.000Z</time>
      </trkpt>
      <trkpt lat="40.240334607660770416259765625" lon="-0.9701514802873134613037109375">
        <ele>1207.4000244140625</ele>
        <time>2022-08-26T16:15:29.000Z</time>
      </trkpt>
      <trkpt lat="40.23989296518266201019287109375" lon="-0.9705749340355396270751953125">
        <ele>1207</ele>
        <time>2022-08-26T16:15:41.000Z</time>
      </trkpt>
      <trkpt lat="40.2398117445409297943115234375" lon="-0.970654226839542388916015625">
        <ele>1206.800048828125</ele>
        <time>2022-08-26T16:15:42.000Z</time>
      </trkpt>
      <trkpt lat="40.23941502906382083892822265625" lon="-0.97103836946189403533935546875">
        <ele>1206.4000244140625</ele>
        <time>2022-08-26T16:15:52.000Z</time>
      </trkpt>
      <trkpt lat="40.239136330783367156982421875" lon="-0.97132452763617038726806640625">
        <ele>1206.199951171875</ele>
        <time>2022-08-26T16:15:59.000Z</time>
      </trkpt>
      <trkpt lat="40.2389805950224399566650390625" lon="-0.9714862145483493804931640625">
        <ele>1205.4000244140625</ele>
        <time>2022-08-26T16:16:03.000Z</time>
      </trkpt>
      <trkpt lat="40.23894161917269229888916015625" lon="-0.971523262560367584228515625">
        <ele>1205.199951171875</ele>
        <time>2022-08-26T16:16:04.000Z</time>
      </trkpt>
      <trkpt lat="40.23852805607020854949951171875" lon="-0.97191293723881244659423828125">
        <ele>1204.4000244140625</ele>
        <time>2022-08-26T16:16:16.000Z</time>
      </trkpt>
      <trkpt lat="40.2382912673056125640869140625" lon="-0.97214008681476116180419921875">
        <ele>1204.199951171875</ele>
        <time>2022-08-26T16:16:22.000Z</time>
      </trkpt>
      <trkpt lat="40.23813578300178050994873046875" lon="-0.9723006002604961395263671875">
        <ele>1204</ele>
        <time>2022-08-26T16:16:27.000Z</time>
      </trkpt>
      <trkpt lat="40.23775239475071430206298828125" lon="-0.9726647101342678070068359375">
        <ele>1203.800048828125</ele>
        <time>2022-08-26T16:16:40.000Z</time>
      </trkpt>
      <trkpt lat="40.23736867122352123260498046875" lon="-0.97300107590854167938232421875">
        <ele>1203.800048828125</ele>
        <time>2022-08-26T16:16:50.000Z</time>
      </trkpt>
      <trkpt lat="40.23715124465525150299072265625" lon="-0.97316988743841648101806640625">
        <ele>1203.5999755859375</ele>
        <time>2022-08-26T16:16:56.000Z</time>
      </trkpt>
      <trkpt lat="40.23707203567028045654296875" lon="-0.973211042582988739013671875">
        <ele>1203.4000244140625</ele>
        <time>2022-08-26T16:16:58.000Z</time>
      </trkpt>
      <trkpt lat="40.23703339509665966033935546875" lon="-0.97323342226445674896240234375">
        <ele>1203.4000244140625</ele>
        <time>2022-08-26T16:16:59.000Z</time>
      </trkpt>
      <trkpt lat="40.2369156293570995330810546875" lon="-0.9732997231185436248779296875">
        <ele>1202.800048828125</ele>
        <time>2022-08-26T16:17:02.000Z</time>
      </trkpt>
      <trkpt lat="40.2368321456015110015869140625" lon="-0.973336435854434967041015625">
        <ele>1202.4000244140625</ele>
        <time>2022-08-26T16:17:04.000Z</time>
      </trkpt>
      <trkpt lat="40.2367575466632843017578125" lon="-0.97338077612221240997314453125">
        <ele>1202.199951171875</ele>
        <time>2022-08-26T16:17:06.000Z</time>
      </trkpt>
      <trkpt lat="40.2366407029330730438232421875" lon="-0.973439700901508331298828125">
        <ele>1201.5999755859375</ele>
        <time>2022-08-26T16:17:09.000Z</time>
      </trkpt>
      <trkpt lat="40.23660290054976940155029296875" lon="-0.97345654852688312530517578125">
        <ele>1201.4000244140625</ele>
        <time>2022-08-26T16:17:10.000Z</time>
      </trkpt>
      <trkpt lat="40.23653165437281131744384765625" lon="-0.97350449301302433013916015625">
        <ele>1201</ele>
        <time>2022-08-26T16:17:12.000Z</time>
      </trkpt>
      <trkpt lat="40.2364928461611270904541015625" lon="-0.97352444194257259368896484375">
        <ele>1200.800048828125</ele>
        <time>2022-08-26T16:17:13.000Z</time>
      </trkpt>
      <trkpt lat="40.23641497828066349029541015625" lon="-0.97358085215091705322265625">
        <ele>1200.4000244140625</ele>
        <time>2022-08-26T16:17:15.000Z</time>
      </trkpt>
      <trkpt lat="40.23629511706531047821044921875" lon="-0.9736708737909793853759765625">
        <ele>1199.800048828125</ele>
        <time>2022-08-26T16:17:18.000Z</time>
      </trkpt>
      <trkpt lat="40.23617173545062541961669921875" lon="-0.9737397730350494384765625">
        <ele>1199.199951171875</ele>
        <time>2022-08-26T16:17:21.000Z</time>
      </trkpt>
      <trkpt lat="40.2359641157090663909912109375" lon="-0.97384446300566196441650390625">
        <ele>1198.199951171875</ele>
        <time>2022-08-26T16:17:26.000Z</time>
      </trkpt>
      <trkpt lat="40.2356291748583316802978515625" lon="-0.97396910190582275390625">
        <ele>1197</ele>
        <time>2022-08-26T16:17:33.000Z</time>
      </trkpt>
      <trkpt lat="40.23553244769573211669921875" lon="-0.97398628480732440948486328125">
        <ele>1196.800048828125</ele>
        <time>2022-08-26T16:17:35.000Z</time>
      </trkpt>
      <trkpt lat="40.23510195314884185791015625" lon="-0.9740115143358707427978515625">
        <ele>1196.4000244140625</ele>
        <time>2022-08-26T16:17:44.000Z</time>
      </trkpt>
      <trkpt lat="40.23474027402698993682861328125" lon="-0.9739756397902965545654296875">
        <ele>1196.5999755859375</ele>
        <time>2022-08-26T16:17:52.000Z</time>
      </trkpt>
      <trkpt lat="40.2343435585498809814453125" lon="-0.9738904796540737152099609375">
        <ele>1197.800048828125</ele>
        <time>2022-08-26T16:18:01.000Z</time>
      </trkpt>
      <trkpt lat="40.23425512947142124176025390625" lon="-0.9738626517355442047119140625">
        <ele>1198.199951171875</ele>
        <time>2022-08-26T16:18:03.000Z</time>
      </trkpt>
      <trkpt lat="40.23395572789013385772705078125" lon="-0.97374103032052516937255859375">
        <ele>1199.199951171875</ele>
        <time>2022-08-26T16:18:10.000Z</time>
      </trkpt>
      <trkpt lat="40.2339108847081661224365234375" lon="-0.973719321191310882568359375">
        <ele>1199.4000244140625</ele>
        <time>2022-08-26T16:18:11.000Z</time>
      </trkpt>
      <trkpt lat="40.2336423285305500030517578125" lon="-0.97358462400734424591064453125">
        <ele>1200.4000244140625</ele>
        <time>2022-08-26T16:18:18.000Z</time>
      </trkpt>
      <trkpt lat="40.2334864251315593719482421875" lon="-0.973483957350254058837890625">
        <ele>1200.800048828125</ele>
        <time>2022-08-26T16:18:21.000Z</time>
      </trkpt>
      <trkpt lat="40.23336832411587238311767578125" lon="-0.973398126661777496337890625">
        <ele>1201.5999755859375</ele>
        <time>2022-08-26T16:18:25.000Z</time>
      </trkpt>
      <trkpt lat="40.233130864799022674560546875" lon="-0.97320559434592723846435546875">
        <ele>1202.199951171875</ele>
        <time>2022-08-26T16:18:30.000Z</time>
      </trkpt>
      <trkpt lat="40.23298543877899646759033203125" lon="-0.97308305092155933380126953125">
        <ele>1202.800048828125</ele>
        <time>2022-08-26T16:18:34.000Z</time>
      </trkpt>
      <trkpt lat="40.23283674381673336029052734375" lon="-0.97294072620570659637451171875">
        <ele>1203.199951171875</ele>
        <time>2022-08-26T16:18:38.000Z</time>
      </trkpt>
      <trkpt lat="40.23258361034095287322998046875" lon="-0.9726910293102264404296875">
        <ele>1203.800048828125</ele>
        <time>2022-08-26T16:18:45.000Z</time>
      </trkpt>
      <trkpt lat="40.23247875273227691650390625" lon="-0.97259782254695892333984375">
        <ele>1204</ele>
        <time>2022-08-26T16:18:48.000Z</time>
      </trkpt>
      <trkpt lat="40.2321956120431423187255859375" lon="-0.9723461978137493133544921875">
        <ele>1204.800048828125</ele>
        <time>2022-08-26T16:18:57.000Z</time>
      </trkpt>
      <trkpt lat="40.23212738335132598876953125" lon="-0.9722838364541530609130859375">
        <ele>1204.800048828125</ele>
        <time>2022-08-26T16:18:58.000Z</time>
      </trkpt>
      <trkpt lat="40.23192211054265499114990234375" lon="-0.972101949155330657958984375">
        <ele>1205.199951171875</ele>
        <time>2022-08-26T16:19:05.000Z</time>
      </trkpt>
      <trkpt lat="40.23164818994700908660888671875" lon="-0.97185728140175342559814453125">
        <ele>1206</ele>
        <time>2022-08-26T16:19:11.000Z</time>
      </trkpt>
      <trkpt lat="40.2312590181827545166015625" lon="-0.97150214016437530517578125">
        <ele>1206.5999755859375</ele>
        <time>2022-08-26T16:19:21.000Z</time>
      </trkpt>
      <trkpt lat="40.23090505041182041168212890625" lon="-0.9711586497724056243896484375">
        <ele>1207.199951171875</ele>
        <time>2022-08-26T16:19:30.000Z</time>
      </trkpt>
      <trkpt lat="40.23078359663486480712890625" lon="-0.97104205749928951263427734375">
        <ele>1207.4000244140625</ele>
        <time>2022-08-26T16:19:33.000Z</time>
      </trkpt>
      <trkpt lat="40.230664573609828948974609375" lon="-0.97092655487358570098876953125">
        <ele>1207.4000244140625</ele>
        <time>2022-08-26T16:19:37.000Z</time>
      </trkpt>
      <trkpt lat="40.2302610687911510467529296875" lon="-0.97056646831333637237548828125">
        <ele>1207.800048828125</ele>
        <time>2022-08-26T16:19:45.000Z</time>
      </trkpt>
      <trkpt lat="40.22985060699284076690673828125" lon="-0.970205962657928466796875">
        <ele>1208.4000244140625</ele>
        <time>2022-08-26T16:19:54.000Z</time>
      </trkpt>
      <trkpt lat="40.22967047989368438720703125" lon="-0.97004310227930545806884765625">
        <ele>1208.5999755859375</ele>
        <time>2022-08-26T16:19:58.000Z</time>
      </trkpt>
      <trkpt lat="40.22946638055145740509033203125" lon="-0.9698586165904998779296875">
        <ele>1208.5999755859375</ele>
        <time>2022-08-26T16:20:03.000Z</time>
      </trkpt>
      <trkpt lat="40.229283235967159271240234375" lon="-0.96970011480152606964111328125">
        <ele>1208.800048828125</ele>
        <time>2022-08-26T16:20:07.000Z</time>
      </trkpt>
      <trkpt lat="40.22899984382092952728271484375" lon="-0.96945184282958507537841796875">
        <ele>1209.199951171875</ele>
        <time>2022-08-26T16:20:13.000Z</time>
      </trkpt>
      <trkpt lat="40.22866389714181423187255859375" lon="-0.9691433049738407135009765625">
        <ele>1209.4000244140625</ele>
        <time>2022-08-26T16:20:20.000Z</time>
      </trkpt>
      <trkpt lat="40.22822602652013301849365234375" lon="-0.96872077323496341705322265625">
        <ele>1209.800048828125</ele>
        <time>2022-08-26T16:20:29.000Z</time>
      </trkpt>
      <trkpt lat="40.22822602652013301849365234375" lon="-0.96872077323496341705322265625">
        <ele>1209.800048828125</ele>
        <time>2022-08-26T16:20:30.000Z</time>
      </trkpt>
      <trkpt lat="40.22772663272917270660400390625" lon="-0.9682608582079410552978515625">
        <ele>1210</ele>
        <time>2022-08-26T16:20:39.000Z</time>
      </trkpt>
      <trkpt lat="40.22752664051949977874755859375" lon="-0.96807704307138919830322265625">
        <ele>1210.199951171875</ele>
        <time>2022-08-26T16:20:43.000Z</time>
      </trkpt>
      <trkpt lat="40.22728406824171543121337890625" lon="-0.96784754656255245208740234375">
        <ele>1210.199951171875</ele>
        <time>2022-08-26T16:20:48.000Z</time>
      </trkpt>
      <trkpt lat="40.22679758258163928985595703125" lon="-0.96739324741065502166748046875">
        <ele>1210.5999755859375</ele>
        <time>2022-08-26T16:20:58.000Z</time>
      </trkpt>
      <trkpt lat="40.22645744495093822479248046875" lon="-0.9670873917639255523681640625">
        <ele>1210.800048828125</ele>
        <time>2022-08-26T16:21:06.000Z</time>
      </trkpt>
      <trkpt lat="40.22612753324210643768310546875" lon="-0.96675588749349117279052734375">
        <ele>1210.800048828125</ele>
        <time>2022-08-26T16:21:12.000Z</time>
      </trkpt>
      <trkpt lat="40.2258059196174144744873046875" lon="-0.96642245538532733917236328125">
        <ele>1211</ele>
        <time>2022-08-26T16:21:20.000Z</time>
      </trkpt>
      <trkpt lat="40.22552470676600933074951171875" lon="-0.96614333800971508026123046875">
        <ele>1211.199951171875</ele>
        <time>2022-08-26T16:21:25.000Z</time>
      </trkpt>
      <trkpt lat="40.22516596131026744842529296875" lon="-0.9657700918614864349365234375">
        <ele>1211.199951171875</ele>
        <time>2022-08-26T16:21:32.000Z</time>
      </trkpt>
      <trkpt lat="40.22471199743449687957763671875" lon="-0.9652879647910594940185546875">
        <ele>1211.4000244140625</ele>
        <time>2022-08-26T16:21:42.000Z</time>
      </trkpt>
      <trkpt lat="40.22438585758209228515625" lon="-0.964929051697254180908203125">
        <ele>1211.800048828125</ele>
        <time>2022-08-26T16:21:50.000Z</time>
      </trkpt>
      <trkpt lat="40.22406793199479579925537109375" lon="-0.9645480103790760040283203125">
        <ele>1211.800048828125</ele>
        <time>2022-08-26T16:21:58.000Z</time>
      </trkpt>
      <trkpt lat="40.2237744815647602081298828125" lon="-0.96418264321982860565185546875">
        <ele>1212</ele>
        <time>2022-08-26T16:22:05.000Z</time>
      </trkpt>
      <trkpt lat="40.22347533144056797027587890625" lon="-0.9637919627130031585693359375">
        <ele>1212</ele>
        <time>2022-08-26T16:22:13.000Z</time>
      </trkpt>
      <trkpt lat="40.223121531307697296142578125" lon="-0.96330002881586551666259765625">
        <ele>1212.199951171875</ele>
        <time>2022-08-26T16:22:21.000Z</time>
      </trkpt>
      <trkpt lat="40.22280209697782993316650390625" lon="-0.96286316402256488800048828125">
        <ele>1212.4000244140625</ele>
        <time>2022-08-26T16:22:29.000Z</time>
      </trkpt>
      <trkpt lat="40.22244905121624469757080078125" lon="-0.9623941965401172637939453125">
        <ele>1212.4000244140625</ele>
        <time>2022-08-26T16:22:38.000Z</time>
      </trkpt>
      <trkpt lat="40.2221158705651760101318359375" lon="-0.96193377859890460968017578125">
        <ele>1212.4000244140625</ele>
        <time>2022-08-26T16:22:47.000Z</time>
      </trkpt>
      <trkpt lat="40.22181320004165172576904296875" lon="-0.96149439923465251922607421875">
        <ele>1212.800048828125</ele>
        <time>2022-08-26T16:22:55.000Z</time>
      </trkpt>
      <trkpt lat="40.22160717286169528961181640625" lon="-0.961212851107120513916015625">
        <ele>1212.5999755859375</ele>
        <time>2022-08-26T16:23:01.000Z</time>
      </trkpt>
      <trkpt lat="40.22138857282698154449462890625" lon="-0.9609179757535457611083984375">
        <ele>1212.800048828125</ele>
        <time>2022-08-26T16:23:08.000Z</time>
      </trkpt>
      <trkpt lat="40.22104407660663127899169921875" lon="-0.9604831226170063018798828125">
        <ele>1213</ele>
        <time>2022-08-26T16:23:16.000Z</time>
      </trkpt>
      <trkpt lat="40.2207509614527225494384765625" lon="-0.96007869578897953033447265625">
        <ele>1213</ele>
        <time>2022-08-26T16:23:25.000Z</time>
      </trkpt>
      <trkpt lat="40.2203536592423915863037109375" lon="-0.9595896117389202117919921875">
        <ele>1213.199951171875</ele>
        <time>2022-08-26T16:23:34.000Z</time>
      </trkpt>
      <trkpt lat="40.22010211832821369171142578125" lon="-0.95928241498768329620361328125">
        <ele>1213.4000244140625</ele>
        <time>2022-08-26T16:23:41.000Z</time>
      </trkpt>
      <trkpt lat="40.219800956547260284423828125" lon="-0.95890422351658344268798828125">
        <ele>1213.4000244140625</ele>
        <time>2022-08-26T16:23:48.000Z</time>
      </trkpt>
      <trkpt lat="40.21960993297398090362548828125" lon="-0.9586357511579990386962890625">
        <ele>1213.4000244140625</ele>
        <time>2022-08-26T16:23:54.000Z</time>
      </trkpt>
      <trkpt lat="40.2194608189165592193603515625" lon="-0.95845696516335010528564453125">
        <ele>1213.199951171875</ele>
        <time>2022-08-26T16:23:58.000Z</time>
      </trkpt>
      <trkpt lat="40.21935738623142242431640625" lon="-0.958325453102588653564453125">
        <ele>1213.199951171875</ele>
        <time>2022-08-26T16:24:01.000Z</time>
      </trkpt>
      <trkpt lat="40.2192257903516292572021484375" lon="-0.9581314958631992340087890625">
        <ele>1213</ele>
        <time>2022-08-26T16:24:06.000Z</time>
      </trkpt>
      <trkpt lat="40.2192016504704952239990234375" lon="-0.9580865688621997833251953125">
        <ele>1213</ele>
        <time>2022-08-26T16:24:07.000Z</time>
      </trkpt>
      <trkpt lat="40.2191754989326000213623046875" lon="-0.95803870819509029388427734375">
        <ele>1213</ele>
        <time>2022-08-26T16:24:08.000Z</time>
      </trkpt>
      <trkpt lat="40.21896301768720149993896484375" lon="-0.95768482424318790435791015625">
        <ele>1213</ele>
        <time>2022-08-26T16:24:15.000Z</time>
      </trkpt>
      <trkpt lat="40.21870250813663005828857421875" lon="-0.9572265855967998504638671875">
        <ele>1212.5999755859375</ele>
        <time>2022-08-26T16:24:25.000Z</time>
      </trkpt>
      <trkpt lat="40.2183946408331394195556640625" lon="-0.95666491426527500152587890625">
        <ele>1212.4000244140625</ele>
        <time>2022-08-26T16:24:34.000Z</time>
      </trkpt>
      <trkpt lat="40.2182464487850666046142578125" lon="-0.9563837014138698577880859375">
        <ele>1212.4000244140625</ele>
        <time>2022-08-26T16:24:39.000Z</time>
      </trkpt>
      <trkpt lat="40.21817880682647228240966796875" lon="-0.956258811056613922119140625">
        <ele>1212.4000244140625</ele>
        <time>2022-08-26T16:24:41.000Z</time>
      </trkpt>
      <trkpt lat="40.217895917594432830810546875" lon="-0.95575782470405101776123046875">
        <ele>1212.5999755859375</ele>
        <time>2022-08-26T16:24:49.000Z</time>
      </trkpt>
      <trkpt lat="40.217595510184764862060546875" lon="-0.955219455063343048095703125">
        <ele>1212.5999755859375</ele>
        <time>2022-08-26T16:24:59.000Z</time>
      </trkpt>
      <trkpt lat="40.21725243888795375823974609375" lon="-0.954596512019634246826171875">
        <ele>1212.4000244140625</ele>
        <time>2022-08-26T16:25:08.000Z</time>
      </trkpt>
      <trkpt lat="40.21722142584621906280517578125" lon="-0.95453490503132343292236328125">
        <ele>1212.199951171875</ele>
        <time>2022-08-26T16:25:09.000Z</time>
      </trkpt>
      <trkpt lat="40.21693593822419643402099609375" lon="-0.95398119650781154632568359375">
        <ele>1212.199951171875</ele>
        <time>2022-08-26T16:25:19.000Z</time>
      </trkpt>
      <trkpt lat="40.2166934497654438018798828125" lon="-0.95353075303137302398681640625">
        <ele>1212.199951171875</ele>
        <time>2022-08-26T16:25:27.000Z</time>
      </trkpt>
      <trkpt lat="40.21651734597980976104736328125" lon="-0.953073687851428985595703125">
        <ele>1212.199951171875</ele>
        <time>2022-08-26T16:25:34.000Z</time>
      </trkpt>
      <trkpt lat="40.2164835669100284576416015625" lon="-0.95293077640235424041748046875">
        <ele>1212.199951171875</ele>
        <time>2022-08-26T16:25:35.000Z</time>
      </trkpt>
      <trkpt lat="40.216427743434906005859375" lon="-0.95262265764176845550537109375">
        <ele>1212</ele>
        <time>2022-08-26T16:25:40.000Z</time>
      </trkpt>
      <trkpt lat="40.21634233184158802032470703125" lon="-0.9519426338374614715576171875">
        <ele>1212</ele>
        <time>2022-08-26T16:25:49.000Z</time>
      </trkpt>
      <trkpt lat="40.21629656665027141571044921875" lon="-0.95155589282512664794921875">
        <ele>1212.199951171875</ele>
        <time>2022-08-26T16:25:54.000Z</time>
      </trkpt>
      <trkpt lat="40.21625809371471405029296875" lon="-0.951308794319629669189453125">
        <ele>1212</ele>
        <time>2022-08-26T16:25:57.000Z</time>
      </trkpt>
      <trkpt lat="40.21622749976813793182373046875" lon="-0.951006375253200531005859375">
        <ele>1212</ele>
        <time>2022-08-26T16:26:00.000Z</time>
      </trkpt>
      <trkpt lat="40.2162096463143825531005859375" lon="-0.95084820874035358428955078125">
        <ele>1212</ele>
        <time>2022-08-26T16:26:02.000Z</time>
      </trkpt>
      <trkpt lat="40.21608886308968067169189453125" lon="-0.95006952993571758270263671875">
        <ele>1211.800048828125</ele>
        <time>2022-08-26T16:26:12.000Z</time>
      </trkpt>
      <trkpt lat="40.2160775475203990936279296875" lon="-0.94999711029231548309326171875">
        <ele>1211.800048828125</ele>
        <time>2022-08-26T16:26:13.000Z</time>
      </trkpt>
      <trkpt lat="40.21596162579953670501708984375" lon="-0.94924039207398891448974609375">
        <ele>1211.800048828125</ele>
        <time>2022-08-26T16:26:24.000Z</time>
      </trkpt>
      <trkpt lat="40.21588660776615142822265625" lon="-0.94874284230172634124755859375">
        <ele>1211.800048828125</ele>
        <time>2022-08-26T16:26:32.000Z</time>
      </trkpt>
      <trkpt lat="40.21578870713710784912109375" lon="-0.9482747130095958709716796875">
        <ele>1211.800048828125</ele>
        <time>2022-08-26T16:26:38.000Z</time>
      </trkpt>
      <trkpt lat="40.21576465107500553131103515625" lon="-0.948218889534473419189453125">
        <ele>1211.5999755859375</ele>
        <time>2022-08-26T16:26:39.000Z</time>
      </trkpt>
      <trkpt lat="40.21564898081123828887939453125" lon="-0.9479401074349880218505859375">
        <ele>1211.5999755859375</ele>
        <time>2022-08-26T16:26:46.000Z</time>
      </trkpt>
      <trkpt lat="40.2155662514269351959228515625" lon="-0.94753526151180267333984375">
        <ele>1211.5999755859375</ele>
        <time>2022-08-26T16:26:56.000Z</time>
      </trkpt>
      <trkpt lat="40.21554755978286266326904296875" lon="-0.947463847696781158447265625">
        <ele>1211.5999755859375</ele>
        <time>2022-08-26T16:26:58.000Z</time>
      </trkpt>
      <trkpt lat="40.21544764749705791473388671875" lon="-0.94715950079262256622314453125">
        <ele>1211.5999755859375</ele>
        <time>2022-08-26T16:27:06.000Z</time>
      </trkpt>
      <trkpt lat="40.21528956480324268341064453125" lon="-0.94673353247344493865966796875">
        <ele>1211.800048828125</ele>
        <time>2022-08-26T16:27:16.000Z</time>
      </trkpt>
      <trkpt lat="40.21513290703296661376953125" lon="-0.9463545866310596466064453125">
        <ele>1211.800048828125</ele>
        <time>2022-08-26T16:27:27.000Z</time>
      </trkpt>
      <trkpt lat="40.2150492556393146514892578125" lon="-0.94615258276462554931640625">
        <ele>1211.800048828125</ele>
        <time>2022-08-26T16:27:34.000Z</time>
      </trkpt>
      <trkpt lat="40.21493718959391117095947265625" lon="-0.94586583785712718963623046875">
        <ele>1211.800048828125</ele>
        <time>2022-08-26T16:27:39.000Z</time>
      </trkpt>
      <trkpt lat="40.21490483544766902923583984375" lon="-0.9457986988127231597900390625">
        <ele>1211.800048828125</ele>
        <time>2022-08-26T16:27:40.000Z</time>
      </trkpt>
      <trkpt lat="40.21476552821695804595947265625" lon="-0.94561790116131305694580078125">
        <ele>1212</ele>
        <time>2022-08-26T16:27:43.000Z</time>
      </trkpt>
      <trkpt lat="40.2146449126303195953369140625" lon="-0.94551882706582546234130859375">
        <ele>1211.800048828125</ele>
        <time>2022-08-26T16:27:44.000Z</time>
      </trkpt>
      <trkpt lat="40.2146449126303195953369140625" lon="-0.94551882706582546234130859375">
        <ele>1211.800048828125</ele>
        <time>2022-08-26T16:27:45.000Z</time>
      </trkpt>
      <trkpt lat="40.21447174251079559326171875" lon="-0.94538949429988861083984375">
        <ele>1211.800048828125</ele>
        <time>2022-08-26T16:27:48.000Z</time>
      </trkpt>
      <trkpt lat="40.21435665898025035858154296875" lon="-0.94519696198403835296630859375">
        <ele>1211.4000244140625</ele>
        <time>2022-08-26T16:27:51.000Z</time>
      </trkpt>
      <trkpt lat="40.2141671441495418548583984375" lon="-0.944789014756679534912109375">
        <ele>1211</ele>
        <time>2022-08-26T16:27:56.000Z</time>
      </trkpt>
      <trkpt lat="40.2140819840133190155029296875" lon="-0.944623388350009918212890625">
        <ele>1211</ele>
        <time>2022-08-26T16:27:58.000Z</time>
      </trkpt>
      <trkpt lat="40.213934294879436492919921875" lon="-0.9444277547299861907958984375">
        <ele>1210.800048828125</ele>
        <time>2022-08-26T16:28:00.000Z</time>
      </trkpt>
      <trkpt lat="40.2138851769268512725830078125" lon="-0.94437218271195888519287109375">
        <ele>1210.5999755859375</ele>
        <time>2022-08-26T16:28:02.000Z</time>
      </trkpt>
      <trkpt lat="40.21362676285207271575927734375" lon="-0.94413195736706256866455078125">
        <ele>1210.4000244140625</ele>
        <time>2022-08-26T16:28:06.000Z</time>
      </trkpt>
      <trkpt lat="40.2135260961949825286865234375" lon="-0.9440669976174831390380859375">
        <ele>1210.199951171875</ele>
        <time>2022-08-26T16:28:08.000Z</time>
      </trkpt>
      <trkpt lat="40.21333205513656139373779296875" lon="-0.943960882723331451416015625">
        <ele>1210.199951171875</ele>
        <time>2022-08-26T16:28:12.000Z</time>
      </trkpt>
      <trkpt lat="40.2132407762110233306884765625" lon="-0.9438956715166568756103515625">
        <ele>1210</ele>
        <time>2022-08-26T16:28:15.000Z</time>
      </trkpt>
      <trkpt lat="40.21288982592523097991943359375" lon="-0.94362334348261356353759765625">
        <ele>1209.800048828125</ele>
        <time>2022-08-26T16:28:22.000Z</time>
      </trkpt>
      <trkpt lat="40.21280215121805667877197265625" lon="-0.943555198609828948974609375">
        <ele>1209.800048828125</ele>
        <time>2022-08-26T16:28:25.000Z</time>
      </trkpt>
      <trkpt lat="40.21253443323075771331787109375" lon="-0.9433706291019916534423828125">
        <ele>1209.800048828125</ele>
        <time>2022-08-26T16:28:30.000Z</time>
      </trkpt>
      <trkpt lat="40.21253443323075771331787109375" lon="-0.9433706291019916534423828125">
        <ele>1209.800048828125</ele>
        <time>2022-08-26T16:28:31.000Z</time>
      </trkpt>
      <trkpt lat="40.212162025272846221923828125" lon="-0.94313115812838077545166015625">
        <ele>1209.5999755859375</ele>
        <time>2022-08-26T16:28:39.000Z</time>
      </trkpt>
      <trkpt lat="40.21182029508054256439208984375" lon="-0.94286679290235042572021484375">
        <ele>1209.5999755859375</ele>
        <time>2022-08-26T16:28:46.000Z</time>
      </trkpt>
      <trkpt lat="40.21141377277672290802001953125" lon="-0.94256320036947727203369140625">
        <ele>1209.5999755859375</ele>
        <time>2022-08-26T16:28:53.000Z</time>
      </trkpt>
      <trkpt lat="40.2112827636301517486572265625" lon="-0.94246856868267059326171875">
        <ele>1209.4000244140625</ele>
        <time>2022-08-26T16:28:56.000Z</time>
      </trkpt>
      <trkpt lat="40.21090817637741565704345703125" lon="-0.94217729754745960235595703125">
        <ele>1209.4000244140625</ele>
        <time>2022-08-26T16:29:06.000Z</time>
      </trkpt>
      <trkpt lat="40.2104824595153331756591796875" lon="-0.94183229841291904449462890625">
        <ele>1209.4000244140625</ele>
        <time>2022-08-26T16:29:15.000Z</time>
      </trkpt>
      <trkpt lat="40.21028305403888225555419921875" lon="-0.9416687674820423126220703125">
        <ele>1209.5999755859375</ele>
        <time>2022-08-26T16:29:20.000Z</time>
      </trkpt>
      <trkpt lat="40.21021767519414424896240234375" lon="-0.94158603809773921966552734375">
        <ele>1209.4000244140625</ele>
        <time>2022-08-26T16:29:22.000Z</time>
      </trkpt>
      <trkpt lat="40.20999102853238582611083984375" lon="-0.941291749477386474609375">
        <ele>1209.4000244140625</ele>
        <time>2022-08-26T16:29:29.000Z</time>
      </trkpt>
      <trkpt lat="40.20992715843021869659423828125" lon="-0.9411992132663726806640625">
        <ele>1209.199951171875</ele>
        <time>2022-08-26T16:29:31.000Z</time>
      </trkpt>
      <trkpt lat="40.20973470993340015411376953125" lon="-0.94089947640895843505859375">
        <ele>1208.800048828125</ele>
        <time>2022-08-26T16:29:37.000Z</time>
      </trkpt>
      <trkpt lat="40.209502279758453369140625" lon="-0.94048851169645786285400390625">
        <ele>1208.800048828125</ele>
        <time>2022-08-26T16:29:45.000Z</time>
      </trkpt>
      <trkpt lat="40.20943882875144481658935546875" lon="-0.94038122333586215972900390625">
        <ele>1208.5999755859375</ele>
        <time>2022-08-26T16:29:47.000Z</time>
      </trkpt>
      <trkpt lat="40.20923498086631298065185546875" lon="-0.9400410018861293792724609375">
        <ele>1208.4000244140625</ele>
        <time>2022-08-26T16:29:54.000Z</time>
      </trkpt>
      <trkpt lat="40.208877660334110260009765625" lon="-0.9394495747983455657958984375">
        <ele>1208.199951171875</ele>
        <time>2022-08-26T16:30:04.000Z</time>
      </trkpt>
      <trkpt lat="40.20879258401691913604736328125" lon="-0.9392862953245639801025390625">
        <ele>1208</ele>
        <time>2022-08-26T16:30:07.000Z</time>
      </trkpt>
      <trkpt lat="40.20867456682026386260986328125" lon="-0.93907984904944896697998046875">
        <ele>1208</ele>
        <time>2022-08-26T16:30:11.000Z</time>
      </trkpt>
      <trkpt lat="40.20853727124631404876708984375" lon="-0.93885739333927631378173828125">
        <ele>1207</ele>
        <time>2022-08-26T16:30:14.000Z</time>
      </trkpt>
      <trkpt lat="40.20839880220592021942138671875" lon="-0.93862035311758518218994140625">
        <ele>1206.4000244140625</ele>
        <time>2022-08-26T16:30:18.000Z</time>
      </trkpt>
      <trkpt lat="40.20836192183196544647216796875" lon="-0.93855950050055980682373046875">
        <ele>1206.199951171875</ele>
        <time>2022-08-26T16:30:19.000Z</time>
      </trkpt>
      <trkpt lat="40.2081113867461681365966796875" lon="-0.938127078115940093994140625">
        <ele>1205.199951171875</ele>
        <time>2022-08-26T16:30:26.000Z</time>
      </trkpt>
      <trkpt lat="40.2080413140356540679931640625" lon="-0.93800361268222332000732421875">
        <ele>1205</ele>
        <time>2022-08-26T16:30:28.000Z</time>
      </trkpt>
      <trkpt lat="40.20787216722965240478515625" lon="-0.93760161660611629486083984375">
        <ele>1204.4000244140625</ele>
        <time>2022-08-26T16:30:34.000Z</time>
      </trkpt>
      <trkpt lat="40.20781978033483028411865234375" lon="-0.9374644048511981964111328125">
        <ele>1204.4000244140625</ele>
        <time>2022-08-26T16:30:36.000Z</time>
      </trkpt>
      <trkpt lat="40.20759581588208675384521484375" lon="-0.93684473074972629547119140625">
        <ele>1204</ele>
        <time>2022-08-26T16:30:45.000Z</time>
      </trkpt>
      <trkpt lat="40.207509733736515045166015625" lon="-0.93645027838647365570068359375">
        <ele>1203.800048828125</ele>
        <time>2022-08-26T16:30:51.000Z</time>
      </trkpt>
      <trkpt lat="40.20748198963701725006103515625" lon="-0.93631180934607982635498046875">
        <ele>1203.5999755859375</ele>
        <time>2022-08-26T16:30:54.000Z</time>
      </trkpt>
      <trkpt lat="40.20732474513351917266845703125" lon="-0.93559943139553070068359375">
        <ele>1203.4000244140625</ele>
        <time>2022-08-26T16:31:04.000Z</time>
      </trkpt>
      <trkpt lat="40.2072827517986297607421875" lon="-0.93540069647133350372314453125">
        <ele>1203.199951171875</ele>
        <time>2022-08-26T16:31:07.000Z</time>
      </trkpt>
      <trkpt lat="40.2072332985699176788330078125" lon="-0.935161225497722625732421875">
        <ele>1203</ele>
        <time>2022-08-26T16:31:11.000Z</time>
      </trkpt>
      <trkpt lat="40.2071980945765972137451171875" lon="-0.9349987842142581939697265625">
        <ele>1203.199951171875</ele>
        <time>2022-08-26T16:31:14.000Z</time>
      </trkpt>
      <trkpt lat="40.2071394212543964385986328125" lon="-0.93465789221227169036865234375">
        <ele>1202.800048828125</ele>
        <time>2022-08-26T16:31:21.000Z</time>
      </trkpt>
      <trkpt lat="40.20703263580799102783203125" lon="-0.93417291529476642608642578125">
        <ele>1202.5999755859375</ele>
        <time>2022-08-26T16:31:29.000Z</time>
      </trkpt>
      <trkpt lat="40.20698963664472103118896484375" lon="-0.93399337492883205413818359375">
        <ele>1202.5999755859375</ele>
        <time>2022-08-26T16:31:32.000Z</time>
      </trkpt>
      <trkpt lat="40.20690791308879852294921875" lon="-0.93365709297358989715576171875">
        <ele>1202.4000244140625</ele>
        <time>2022-08-26T16:31:38.000Z</time>
      </trkpt>
      <trkpt lat="40.2068842761218547821044921875" lon="-0.933549888432025909423828125">
        <ele>1202.4000244140625</ele>
        <time>2022-08-26T16:31:39.000Z</time>
      </trkpt>
      <trkpt lat="40.20680758170783519744873046875" lon="-0.93319617211818695068359375">
        <ele>1202.199951171875</ele>
        <time>2022-08-26T16:31:46.000Z</time>
      </trkpt>
      <trkpt lat="40.20667581818997859954833984375" lon="-0.93293507583439350128173828125">
        <ele>1202.199951171875</ele>
        <time>2022-08-26T16:31:53.000Z</time>
      </trkpt>
      <trkpt lat="40.206625945866107940673828125" lon="-0.93288495205342769622802734375">
        <ele>1202</ele>
        <time>2022-08-26T16:31:55.000Z</time>
      </trkpt>
      <trkpt lat="40.20655880682170391082763671875" lon="-0.93285243026912212371826171875">
        <ele>1201.800048828125</ele>
        <time>2022-08-26T16:31:58.000Z</time>
      </trkpt>
      <trkpt lat="40.20637088455259799957275390625" lon="-0.93281219713389873504638671875">
        <ele>1201.800048828125</ele>
        <time>2022-08-26T16:32:07.000Z</time>
      </trkpt>
      <trkpt lat="40.2062080241739749908447265625" lon="-0.93273307196795940399169921875">
        <ele>1201.800048828125</ele>
        <time>2022-08-26T16:32:16.000Z</time>
      </trkpt>
      <trkpt lat="40.2060601674020290374755859375" lon="-0.932586304843425750732421875">
        <ele>1201.5999755859375</ele>
        <time>2022-08-26T16:32:24.000Z</time>
      </trkpt>
      <trkpt lat="40.205885656177997589111328125" lon="-0.93234633095562458038330078125">
        <ele>1201.4000244140625</ele>
        <time>2022-08-26T16:32:34.000Z</time>
      </trkpt>
      <trkpt lat="40.20564685575664043426513671875" lon="-0.932058580219745635986328125">
        <ele>1201.199951171875</ele>
        <time>2022-08-26T16:32:41.000Z</time>
      </trkpt>
      <trkpt lat="40.2054452709853649139404296875" lon="-0.93182296492159366607666015625">
        <ele>1201</ele>
        <time>2022-08-26T16:32:48.000Z</time>
      </trkpt>
      <trkpt lat="40.2052340470254421234130859375" lon="-0.9316024370491504669189453125">
        <ele>1200.800048828125</ele>
        <time>2022-08-26T16:32:52.000Z</time>
      </trkpt>
      <trkpt lat="40.20487220026552677154541015625" lon="-0.93130119144916534423828125">
        <ele>1200.4000244140625</ele>
        <time>2022-08-26T16:32:58.000Z</time>
      </trkpt>
      <trkpt lat="40.20440683700144290924072265625" lon="-0.93102517537772655487060546875">
        <ele>1200</ele>
        <time>2022-08-26T16:33:06.000Z</time>
      </trkpt>
      <trkpt lat="40.2041722275316715240478515625" lon="-0.93085435219109058380126953125">
        <ele>1199.5999755859375</ele>
        <time>2022-08-26T16:33:11.000Z</time>
      </trkpt>
      <trkpt lat="40.204122103750705718994140625" lon="-0.9307957626879215240478515625">
        <ele>1199.5999755859375</ele>
        <time>2022-08-26T16:33:12.000Z</time>
      </trkpt>
      <trkpt lat="40.203862600028514862060546875" lon="-0.93043886125087738037109375">
        <ele>1199.5999755859375</ele>
        <time>2022-08-26T16:33:17.000Z</time>
      </trkpt>
      <trkpt lat="40.20381658338010311126708984375" lon="-0.9303625859320163726806640625">
        <ele>1199.4000244140625</ele>
        <time>2022-08-26T16:33:18.000Z</time>
      </trkpt>
      <trkpt lat="40.20352304913103580474853515625" lon="-0.929903090000152587890625">
        <ele>1199.199951171875</ele>
        <time>2022-08-26T16:33:24.000Z</time>
      </trkpt>
      <trkpt lat="40.2030996792018413543701171875" lon="-0.92934477142989635467529296875">
        <ele>1199</ele>
        <time>2022-08-26T16:33:30.000Z</time>
      </trkpt>
      <trkpt lat="40.2030996792018413543701171875" lon="-0.92934477142989635467529296875">
        <ele>1198.800048828125</ele>
        <time>2022-08-26T16:33:31.000Z</time>
      </trkpt>
      <trkpt lat="40.2030373178422451019287109375" lon="-0.92927034012973308563232421875">
        <ele>1198.800048828125</ele>
        <time>2022-08-26T16:33:32.000Z</time>
      </trkpt>
      <trkpt lat="40.2026996947824954986572265625" lon="-0.928945876657962799072265625">
        <ele>1198.4000244140625</ele>
        <time>2022-08-26T16:33:37.000Z</time>
      </trkpt>
      <trkpt lat="40.20261897705495357513427734375" lon="-0.9288930706679821014404296875">
        <ele>1198.199951171875</ele>
        <time>2022-08-26T16:33:38.000Z</time>
      </trkpt>
      <trkpt lat="40.2023734711110591888427734375" lon="-0.92879944480955600738525390625">
        <ele>1198.199951171875</ele>
        <time>2022-08-26T16:33:41.000Z</time>
      </trkpt>
      <trkpt lat="40.2022219263017177581787109375" lon="-0.9287512488663196563720703125">
        <ele>1197.800048828125</ele>
        <time>2022-08-26T16:33:43.000Z</time>
      </trkpt>
      <trkpt lat="40.20185773260891437530517578125" lon="-0.92863264493644237518310546875">
        <ele>1197.4000244140625</ele>
        <time>2022-08-26T16:33:48.000Z</time>
      </trkpt>
      <trkpt lat="40.2015409804880619049072265625" lon="-0.92852644622325897216796875">
        <ele>1197</ele>
        <time>2022-08-26T16:33:53.000Z</time>
      </trkpt>
      <trkpt lat="40.20129446871578693389892578125" lon="-0.92844136990606784820556640625">
        <ele>1197</ele>
        <time>2022-08-26T16:33:56.000Z</time>
      </trkpt>
      <trkpt lat="40.20111543126404285430908203125" lon="-0.92837632633745670318603515625">
        <ele>1196.800048828125</ele>
        <time>2022-08-26T16:33:59.000Z</time>
      </trkpt>
      <trkpt lat="40.20095868967473506927490234375" lon="-0.92832737602293491363525390625">
        <ele>1196.5999755859375</ele>
        <time>2022-08-26T16:34:03.000Z</time>
      </trkpt>
      <trkpt lat="40.2008258365094661712646484375" lon="-0.9282751567661762237548828125">
        <ele>1196.5999755859375</ele>
        <time>2022-08-26T16:34:05.000Z</time>
      </trkpt>
      <trkpt lat="40.20070840604603290557861328125" lon="-0.92820131219923496246337890625">
        <ele>1196.5999755859375</ele>
        <time>2022-08-26T16:34:08.000Z</time>
      </trkpt>
      <trkpt lat="40.20063380710780620574951171875" lon="-0.92814448289573192596435546875">
        <ele>1196.5999755859375</ele>
        <time>2022-08-26T16:34:10.000Z</time>
      </trkpt>
      <trkpt lat="40.20046516321599483489990234375" lon="-0.9279973804950714111328125">
        <ele>1196.4000244140625</ele>
        <time>2022-08-26T16:34:14.000Z</time>
      </trkpt>
      <trkpt lat="40.20042090676724910736083984375" lon="-0.9279509447515010833740234375">
        <ele>1196.4000244140625</ele>
        <time>2022-08-26T16:34:15.000Z</time>
      </trkpt>
      <trkpt lat="40.20010205917060375213623046875" lon="-0.9275368787348270416259765625">
        <ele>1196.4000244140625</ele>
        <time>2022-08-26T16:34:23.000Z</time>
      </trkpt>
      <trkpt lat="40.2000728063285350799560546875" lon="-0.927478037774562835693359375">
        <ele>1196.4000244140625</ele>
        <time>2022-08-26T16:34:24.000Z</time>
      </trkpt>
      <trkpt lat="40.199947245419025421142578125" lon="-0.92724728398025035858154296875">
        <ele>1196.4000244140625</ele>
        <time>2022-08-26T16:34:28.000Z</time>
      </trkpt>
      <trkpt lat="40.1998974569141864776611328125" lon="-0.927115269005298614501953125">
        <ele>1196.4000244140625</ele>
        <time>2022-08-26T16:34:30.000Z</time>
      </trkpt>
      <trkpt lat="40.19970911554992198944091796875" lon="-0.92656885273754596710205078125">
        <ele>1196.199951171875</ele>
        <time>2022-08-26T16:34:38.000Z</time>
      </trkpt>
      <trkpt lat="40.1995284855365753173828125" lon="-0.92603073455393314361572265625">
        <ele>1196</ele>
        <time>2022-08-26T16:34:46.000Z</time>
      </trkpt>
      <trkpt lat="40.19932941533625125885009765625" lon="-0.92547543346881866455078125">
        <ele>1196</ele>
        <time>2022-08-26T16:34:54.000Z</time>
      </trkpt>
      <trkpt lat="40.1991430856287479400634765625" lon="-0.9249649755656719207763671875">
        <ele>1196.199951171875</ele>
        <time>2022-08-26T16:35:01.000Z</time>
      </trkpt>
      <trkpt lat="40.198923312127590179443359375" lon="-0.92435619793832302093505859375">
        <ele>1196</ele>
        <time>2022-08-26T16:35:09.000Z</time>
      </trkpt>
      <trkpt lat="40.19874335266649723052978515625" lon="-0.9238367713987827301025390625">
        <ele>1196</ele>
        <time>2022-08-26T16:35:16.000Z</time>
      </trkpt>
      <trkpt lat="40.19858124665915966033935546875" lon="-0.92346503399312496185302734375">
        <ele>1195.5999755859375</ele>
        <time>2022-08-26T16:35:22.000Z</time>
      </trkpt>
      <trkpt lat="40.198518298566341400146484375" lon="-0.9233464300632476806640625">
        <ele>1195.4000244140625</ele>
        <time>2022-08-26T16:35:24.000Z</time>
      </trkpt>
      <trkpt lat="40.19839114509522914886474609375" lon="-0.9231184422969818115234375">
        <ele>1195</ele>
        <time>2022-08-26T16:35:28.000Z</time>
      </trkpt>
      <trkpt lat="40.1981774903833866119384765625" lon="-0.92280822806060314178466796875">
        <ele>1194.800048828125</ele>
        <time>2022-08-26T16:35:34.000Z</time>
      </trkpt>
      <trkpt lat="40.19813767634332180023193359375" lon="-0.92276548035442829132080078125">
        <ele>1194.800048828125</ele>
        <time>2022-08-26T16:35:35.000Z</time>
      </trkpt>
      <trkpt lat="40.19791069440543651580810546875" lon="-0.92254386283457279205322265625">
        <ele>1194.4000244140625</ele>
        <time>2022-08-26T16:35:40.000Z</time>
      </trkpt>
      <trkpt lat="40.197696872055530548095703125" lon="-0.9223702736198902130126953125">
        <ele>1194.4000244140625</ele>
        <time>2022-08-26T16:35:45.000Z</time>
      </trkpt>
      <trkpt lat="40.19748489372432231903076171875" lon="-0.92222803272306919097900390625">
        <ele>1194.199951171875</ele>
        <time>2022-08-26T16:35:48.000Z</time>
      </trkpt>
      <trkpt lat="40.197132267057895660400390625" lon="-0.92202753759920597076416015625">
        <ele>1193.800048828125</ele>
        <time>2022-08-26T16:35:55.000Z</time>
      </trkpt>
      <trkpt lat="40.197012238204479217529296875" lon="-0.92195377685129642486572265625">
        <ele>1193.800048828125</ele>
        <time>2022-08-26T16:35:57.000Z</time>
      </trkpt>
      <trkpt lat="40.19666665233671665191650390625" lon="-0.92177289538085460662841796875">
        <ele>1193.199951171875</ele>
        <time>2022-08-26T16:36:02.000Z</time>
      </trkpt>
      <trkpt lat="40.1963777281343936920166015625" lon="-0.92162973247468471527099609375">
        <ele>1192.5999755859375</ele>
        <time>2022-08-26T16:36:06.000Z</time>
      </trkpt>
      <trkpt lat="40.1960357464849948883056640625" lon="-0.92144650407135486602783203125">
        <ele>1192</ele>
        <time>2022-08-26T16:36:11.000Z</time>
      </trkpt>
      <trkpt lat="40.19589836709201335906982421875" lon="-0.9213731624186038970947265625">
        <ele>1191.800048828125</ele>
        <time>2022-08-26T16:36:13.000Z</time>
      </trkpt>
      <trkpt lat="40.1955164037644863128662109375" lon="-0.9211646206676959991455078125">
        <ele>1191.5999755859375</ele>
        <time>2022-08-26T16:36:19.000Z</time>
      </trkpt>
      <trkpt lat="40.194988511502742767333984375" lon="-0.92088223434984683990478515625">
        <ele>1191.5999755859375</ele>
        <time>2022-08-26T16:36:28.000Z</time>
      </trkpt>
      <trkpt lat="40.19460520707070827484130859375" lon="-0.92065843753516674041748046875">
        <ele>1191.800048828125</ele>
        <time>2022-08-26T16:36:34.000Z</time>
      </trkpt>
      <trkpt lat="40.19413791596889495849609375" lon="-0.92038652859628200531005859375">
        <ele>1192</ele>
        <time>2022-08-26T16:36:42.000Z</time>
      </trkpt>
      <trkpt lat="40.19377573393285274505615234375" lon="-0.92018486000597476959228515625">
        <ele>1192.199951171875</ele>
        <time>2022-08-26T16:36:48.000Z</time>
      </trkpt>
      <trkpt lat="40.19329394213855266571044921875" lon="-0.91994849033653736114501953125">
        <ele>1192.199951171875</ele>
        <time>2022-08-26T16:36:55.000Z</time>
      </trkpt>
      <trkpt lat="40.19296101294457912445068359375" lon="-0.91977573931217193603515625">
        <ele>1192.199951171875</ele>
        <time>2022-08-26T16:37:02.000Z</time>
      </trkpt>
      <trkpt lat="40.19255968742072582244873046875" lon="-0.919549427926540374755859375">
        <ele>1192.199951171875</ele>
        <time>2022-08-26T16:37:10.000Z</time>
      </trkpt>
      <trkpt lat="40.1921309530735015869140625" lon="-0.919281542301177978515625">
        <ele>1192.800048828125</ele>
        <time>2022-08-26T16:37:18.000Z</time>
      </trkpt>
      <trkpt lat="40.19177597947418689727783203125" lon="-0.919046513736248016357421875">
        <ele>1192.800048828125</ele>
        <time>2022-08-26T16:37:25.000Z</time>
      </trkpt>
      <trkpt lat="40.19147724844515323638916015625" lon="-0.91877368278801441192626953125">
        <ele>1193</ele>
        <time>2022-08-26T16:37:31.000Z</time>
      </trkpt>
      <trkpt lat="40.1913086883723735809326171875" lon="-0.9185685776174068450927734375">
        <ele>1193.199951171875</ele>
        <time>2022-08-26T16:37:34.000Z</time>
      </trkpt>
      <trkpt lat="40.19122730009257793426513671875" lon="-0.9184485487639904022216796875">
        <ele>1193.199951171875</ele>
        <time>2022-08-26T16:37:37.000Z</time>
      </trkpt>
      <trkpt lat="40.19084374420344829559326171875" lon="-0.91788855381309986114501953125">
        <ele>1193.4000244140625</ele>
        <time>2022-08-26T16:37:46.000Z</time>
      </trkpt>
      <trkpt lat="40.190484412014484405517578125" lon="-0.91743961907923221588134765625">
        <ele>1193.5999755859375</ele>
        <time>2022-08-26T16:37:54.000Z</time>
      </trkpt>
      <trkpt lat="40.1902120001614093780517578125" lon="-0.9169790334999561309814453125">
        <ele>1193.800048828125</ele>
        <time>2022-08-26T16:38:01.000Z</time>
      </trkpt>
      <trkpt lat="40.1899422705173492431640625" lon="-0.9164182841777801513671875">
        <ele>1194</ele>
        <time>2022-08-26T16:38:09.000Z</time>
      </trkpt>
      <trkpt lat="40.1897370815277099609375" lon="-0.91591226868331432342529296875">
        <ele>1193.800048828125</ele>
        <time>2022-08-26T16:38:16.000Z</time>
      </trkpt>
      <trkpt lat="40.18957472406327724456787109375" lon="-0.91549267061054706573486328125">
        <ele>1194</ele>
        <time>2022-08-26T16:38:20.000Z</time>
      </trkpt>
      <trkpt lat="40.189473219215869903564453125" lon="-0.91524012386798858642578125">
        <ele>1194.199951171875</ele>
        <time>2022-08-26T16:38:24.000Z</time>
      </trkpt>
      <trkpt lat="40.18919753842055797576904296875" lon="-0.9145392291247844696044921875">
        <ele>1194</ele>
        <time>2022-08-26T16:38:32.000Z</time>
      </trkpt>
      <trkpt lat="40.18916375935077667236328125" lon="-0.91444979421794414520263671875">
        <ele>1194.199951171875</ele>
        <time>2022-08-26T16:38:33.000Z</time>
      </trkpt>
      <trkpt lat="40.18894155509769916534423828125" lon="-0.91387881897389888763427734375">
        <ele>1194.4000244140625</ele>
        <time>2022-08-26T16:38:40.000Z</time>
      </trkpt>
      <trkpt lat="40.18870619125664234161376953125" lon="-0.91324992477893829345703125">
        <ele>1194.4000244140625</ele>
        <time>2022-08-26T16:38:47.000Z</time>
      </trkpt>
      <trkpt lat="40.188481472432613372802734375" lon="-0.91264433227479457855224609375">
        <ele>1194.4000244140625</ele>
        <time>2022-08-26T16:38:54.000Z</time>
      </trkpt>
      <trkpt lat="40.1882734335958957672119140625" lon="-0.91212716884911060333251953125">
        <ele>1194.199951171875</ele>
        <time>2022-08-26T16:39:00.000Z</time>
      </trkpt>
      <trkpt lat="40.1882060430943965911865234375" lon="-0.91194461099803447723388671875">
        <ele>1194.199951171875</ele>
        <time>2022-08-26T16:39:02.000Z</time>
      </trkpt>
      <trkpt lat="40.1880303584039211273193359375" lon="-0.9114774875342845916748046875">
        <ele>1194.4000244140625</ele>
        <time>2022-08-26T16:39:07.000Z</time>
      </trkpt>
      <trkpt lat="40.187794826924800872802734375" lon="-0.91084339655935764312744140625">
        <ele>1194.199951171875</ele>
        <time>2022-08-26T16:39:14.000Z</time>
      </trkpt>
      <trkpt lat="40.18772953189909458160400390625" lon="-0.9106798656284809112548828125">
        <ele>1194.199951171875</ele>
        <time>2022-08-26T16:39:16.000Z</time>
      </trkpt>
      <trkpt lat="40.18753574229776859283447265625" lon="-0.9101808071136474609375">
        <ele>1193.800048828125</ele>
        <time>2022-08-26T16:39:21.000Z</time>
      </trkpt>
      <trkpt lat="40.18753574229776859283447265625" lon="-0.9101808071136474609375">
        <ele>1193.5999755859375</ele>
        <time>2022-08-26T16:39:22.000Z</time>
      </trkpt>
      <trkpt lat="40.18733357079327106475830078125" lon="-0.90967210941016674041748046875">
        <ele>1193.5999755859375</ele>
        <time>2022-08-26T16:39:28.000Z</time>
      </trkpt>
      <trkpt lat="40.18722410313785076141357421875" lon="-0.90944345109164714813232421875">
        <ele>1193.5999755859375</ele>
        <time>2022-08-26T16:39:30.000Z</time>
      </trkpt>
      <trkpt lat="40.187098793685436248779296875" lon="-0.9092192351818084716796875">
        <ele>1193.800048828125</ele>
        <time>2022-08-26T16:39:33.000Z</time>
      </trkpt>
      <trkpt lat="40.18683853559195995330810546875" lon="-0.90880827046930789947509765625">
        <ele>1193.800048828125</ele>
        <time>2022-08-26T16:39:39.000Z</time>
      </trkpt>
      <trkpt lat="40.18649169243872165679931640625" lon="-0.908359587192535400390625">
        <ele>1193.5999755859375</ele>
        <time>2022-08-26T16:39:46.000Z</time>
      </trkpt>
      <trkpt lat="40.18643855117261409759521484375" lon="-0.90829831548035144805908203125">
        <ele>1193.5999755859375</ele>
        <time>2022-08-26T16:39:48.000Z</time>
      </trkpt>
      <trkpt lat="40.18617083318531513214111328125" lon="-0.90803042985498905181884765625">
        <ele>1193.4000244140625</ele>
        <time>2022-08-26T16:39:53.000Z</time>
      </trkpt>
      <trkpt lat="40.18573321402072906494140625" lon="-0.9076499752700328826904296875">
        <ele>1193.4000244140625</ele>
        <time>2022-08-26T16:40:01.000Z</time>
      </trkpt>
      <trkpt lat="40.18535577692091464996337890625" lon="-0.9074196405708789825439453125">
        <ele>1193.199951171875</ele>
        <time>2022-08-26T16:40:07.000Z</time>
      </trkpt>
      <trkpt lat="40.1849179901182651519775390625" lon="-0.90719215571880340576171875">
        <ele>1193.199951171875</ele>
        <time>2022-08-26T16:40:14.000Z</time>
      </trkpt>
      <trkpt lat="40.184377022087574005126953125" lon="-0.906898789107799530029296875">
        <ele>1193.199951171875</ele>
        <time>2022-08-26T16:40:23.000Z</time>
      </trkpt>
      <trkpt lat="40.18379221670329570770263671875" lon="-0.9066495113074779510498046875">
        <ele>1193.199951171875</ele>
        <time>2022-08-26T16:40:31.000Z</time>
      </trkpt>
      <trkpt lat="40.183652155101299285888671875" lon="-0.9065965376794338226318359375">
        <ele>1193</ele>
        <time>2022-08-26T16:40:33.000Z</time>
      </trkpt>
      <trkpt lat="40.183271281421184539794921875" lon="-0.90642948634922504425048828125">
        <ele>1193</ele>
        <time>2022-08-26T16:40:38.000Z</time>
      </trkpt>
      <trkpt lat="40.18312635831534862518310546875" lon="-0.90634885244071483612060546875">
        <ele>1193.199951171875</ele>
        <time>2022-08-26T16:40:40.000Z</time>
      </trkpt>
      <trkpt lat="40.18259502947330474853515625" lon="-0.90600200928747653961181640625">
        <ele>1193</ele>
        <time>2022-08-26T16:40:48.000Z</time>
      </trkpt>
      <trkpt lat="40.182203091681003570556640625" lon="-0.90561778284609317779541015625">
        <ele>1193</ele>
        <time>2022-08-26T16:40:55.000Z</time>
      </trkpt>
      <trkpt lat="40.18181928433477878570556640625" lon="-0.90519256889820098876953125">
        <ele>1193</ele>
        <time>2022-08-26T16:41:02.000Z</time>
      </trkpt>
      <trkpt lat="40.18163270317018032073974609375" lon="-0.904952175915241241455078125">
        <ele>1193</ele>
        <time>2022-08-26T16:41:06.000Z</time>
      </trkpt>
      <trkpt lat="40.18155626021325588226318359375" lon="-0.9048520959913730621337890625">
        <ele>1193</ele>
        <time>2022-08-26T16:41:08.000Z</time>
      </trkpt>
      <trkpt lat="40.1814830861985683441162109375" lon="-0.9047562070190906524658203125">
        <ele>1192.800048828125</ele>
        <time>2022-08-26T16:41:10.000Z</time>
      </trkpt>
      <trkpt lat="40.18132634460926055908203125" lon="-0.90452344156801700592041015625">
        <ele>1193</ele>
        <time>2022-08-26T16:41:14.000Z</time>
      </trkpt>
      <trkpt lat="40.18113615922629833221435546875" lon="-0.90415656566619873046875">
        <ele>1193</ele>
        <time>2022-08-26T16:41:20.000Z</time>
      </trkpt>
      <trkpt lat="40.1809295453131198883056640625" lon="-0.90359606780111789703369140625">
        <ele>1193.199951171875</ele>
        <time>2022-08-26T16:41:28.000Z</time>
      </trkpt>
      <trkpt lat="40.18076651729643344879150390625" lon="-0.90309508144855499267578125">
        <ele>1193</ele>
        <time>2022-08-26T16:41:35.000Z</time>
      </trkpt>
      <trkpt lat="40.180711448192596435546875" lon="-0.90295166708528995513916015625">
        <ele>1193</ele>
        <time>2022-08-26T16:41:37.000Z</time>
      </trkpt>
      <trkpt lat="40.18055110238492488861083984375" lon="-0.90247339569032192230224609375">
        <ele>1193</ele>
        <time>2022-08-26T16:41:44.000Z</time>
      </trkpt>
      <trkpt lat="40.18036820925772190093994140625" lon="-0.901919268071651458740234375">
        <ele>1193</ele>
        <time>2022-08-26T16:41:52.000Z</time>
      </trkpt>
      <trkpt lat="40.18024549819529056549072265625" lon="-0.90151953510940074920654296875">
        <ele>1192.800048828125</ele>
        <time>2022-08-26T16:41:57.000Z</time>
      </trkpt>
      <trkpt lat="40.18022672273218631744384765625" lon="-0.90145298279821872711181640625">
        <ele>1192.5999755859375</ele>
        <time>2022-08-26T16:41:58.000Z</time>
      </trkpt>
      <trkpt lat="40.18022672273218631744384765625" lon="-0.90145298279821872711181640625">
        <ele>1192.5999755859375</ele>
        <time>2022-08-26T16:41:59.000Z</time>
      </trkpt>
      <trkpt lat="40.18007232807576656341552734375" lon="-0.90098552405834197998046875">
        <ele>1192.800048828125</ele>
        <time>2022-08-26T16:42:06.000Z</time>
      </trkpt>
      <trkpt lat="40.17990217544138431549072265625" lon="-0.90043810196220874786376953125">
        <ele>1192.5999755859375</ele>
        <time>2022-08-26T16:42:14.000Z</time>
      </trkpt>
      <trkpt lat="40.17975649796426296234130859375" lon="-0.89994306676089763641357421875">
        <ele>1192.4000244140625</ele>
        <time>2022-08-26T16:42:20.000Z</time>
      </trkpt>
      <trkpt lat="40.17975649796426296234130859375" lon="-0.89994306676089763641357421875">
        <ele>1192.5999755859375</ele>
        <time>2022-08-26T16:42:21.000Z</time>
      </trkpt>
      <trkpt lat="40.17952616326510906219482421875" lon="-0.89925684034824371337890625">
        <ele>1192.4000244140625</ele>
        <time>2022-08-26T16:42:30.000Z</time>
      </trkpt>
      <trkpt lat="40.17950889654457569122314453125" lon="-0.89918483980000019073486328125">
        <ele>1192.199951171875</ele>
        <time>2022-08-26T16:42:31.000Z</time>
      </trkpt>
      <trkpt lat="40.1794449426233768463134765625" lon="-0.8989586122334003448486328125">
        <ele>1192</ele>
        <time>2022-08-26T16:42:35.000Z</time>
      </trkpt>
      <trkpt lat="40.17934360541403293609619140625" lon="-0.8987182192504405975341796875">
        <ele>1191.800048828125</ele>
        <time>2022-08-26T16:42:38.000Z</time>
      </trkpt>
      <trkpt lat="40.1791626401245594024658203125" lon="-0.898365341126918792724609375">
        <ele>1191.199951171875</ele>
        <time>2022-08-26T16:42:43.000Z</time>
      </trkpt>
      <trkpt lat="40.178925096988677978515625" lon="-0.89796493761241436004638671875">
        <ele>1190.4000244140625</ele>
        <time>2022-08-26T16:42:48.000Z</time>
      </trkpt>
      <trkpt lat="40.178925096988677978515625" lon="-0.89796493761241436004638671875">
        <ele>1190.199951171875</ele>
        <time>2022-08-26T16:42:49.000Z</time>
      </trkpt>
      <trkpt lat="40.17867305316030979156494140625" lon="-0.8975967206060886383056640625">
        <ele>1190</ele>
        <time>2022-08-26T16:42:55.000Z</time>
      </trkpt>
      <trkpt lat="40.17839075066149234771728515625" lon="-0.897243507206439971923828125">
        <ele>1189.800048828125</ele>
        <time>2022-08-26T16:43:01.000Z</time>
      </trkpt>
      <trkpt lat="40.17823149450123310089111328125" lon="-0.8970455266535282135009765625">
        <ele>1190</ele>
        <time>2022-08-26T16:43:03.000Z</time>
      </trkpt>
      <trkpt lat="40.177919603884220123291015625" lon="-0.89666674844920635223388671875">
        <ele>1189.5999755859375</ele>
        <time>2022-08-26T16:43:10.000Z</time>
      </trkpt>
      <trkpt lat="40.17767317593097686767578125" lon="-0.89635125361382961273193359375">
        <ele>1189.199951171875</ele>
        <time>2022-08-26T16:43:14.000Z</time>
      </trkpt>
      <trkpt lat="40.177511237561702728271484375" lon="-0.896143130958080291748046875">
        <ele>1189</ele>
        <time>2022-08-26T16:43:18.000Z</time>
      </trkpt>
      <trkpt lat="40.17726707272231578826904296875" lon="-0.89585571549832820892333984375">
        <ele>1188.4000244140625</ele>
        <time>2022-08-26T16:43:22.000Z</time>
      </trkpt>
      <trkpt lat="40.177024416625499725341796875" lon="-0.89555698446929454803466796875">
        <ele>1188.4000244140625</ele>
        <time>2022-08-26T16:43:26.000Z</time>
      </trkpt>
      <trkpt lat="40.17663306556642055511474609375" lon="-0.8950653858482837677001953125">
        <ele>1188.4000244140625</ele>
        <time>2022-08-26T16:43:33.000Z</time>
      </trkpt>
      <trkpt lat="40.1762262918055057525634765625" lon="-0.89455199427902698516845703125">
        <ele>1188.199951171875</ele>
        <time>2022-08-26T16:43:39.000Z</time>
      </trkpt>
      <trkpt lat="40.1762262918055057525634765625" lon="-0.89455199427902698516845703125">
        <ele>1188.4000244140625</ele>
        <time>2022-08-26T16:43:40.000Z</time>
      </trkpt>
      <trkpt lat="40.1760995574295520782470703125" lon="-0.894408412277698516845703125">
        <ele>1188.199951171875</ele>
        <time>2022-08-26T16:43:42.000Z</time>
      </trkpt>
      <trkpt lat="40.175845921039581298828125" lon="-0.89410641230642795562744140625">
        <ele>1188</ele>
        <time>2022-08-26T16:43:46.000Z</time>
      </trkpt>
      <trkpt lat="40.17542171292006969451904296875" lon="-0.8935737423598766326904296875">
        <ele>1188.199951171875</ele>
        <time>2022-08-26T16:43:53.000Z</time>
      </trkpt>
      <trkpt lat="40.1749674975872039794921875" lon="-0.893038474023342132568359375">
        <ele>1188</ele>
        <time>2022-08-26T16:44:00.000Z</time>
      </trkpt>
      <trkpt lat="40.1745499111711978912353515625" lon="-0.89252759702503681182861328125">
        <ele>1188.199951171875</ele>
        <time>2022-08-26T16:44:06.000Z</time>
      </trkpt>
      <trkpt lat="40.17416090704500675201416015625" lon="-0.89204144664108753204345703125">
        <ele>1188.199951171875</ele>
        <time>2022-08-26T16:44:12.000Z</time>
      </trkpt>
      <trkpt lat="40.17397549934685230255126953125" lon="-0.89181505143642425537109375">
        <ele>1188.199951171875</ele>
        <time>2022-08-26T16:44:14.000Z</time>
      </trkpt>
      <trkpt lat="40.17357283271849155426025390625" lon="-0.8913029171526432037353515625">
        <ele>1188</ele>
        <time>2022-08-26T16:44:22.000Z</time>
      </trkpt>
      <trkpt lat="40.17330025322735309600830078125" lon="-0.89095045812427997589111328125">
        <ele>1188</ele>
        <time>2022-08-26T16:44:27.000Z</time>
      </trkpt>
      <trkpt lat="40.17310294322669506072998046875" lon="-0.89068341068923473358154296875">
        <ele>1187.800048828125</ele>
        <time>2022-08-26T16:44:31.000Z</time>
      </trkpt>
      <trkpt lat="40.17277588136494159698486328125" lon="-0.8902694284915924072265625">
        <ele>1187.800048828125</ele>
        <time>2022-08-26T16:44:37.000Z</time>
      </trkpt>
      <trkpt lat="40.1723568700253963470458984375" lon="-0.88975989259779453277587890625">
        <ele>1187.800048828125</ele>
        <time>2022-08-26T16:44:44.000Z</time>
      </trkpt>
      <trkpt lat="40.17224949784576892852783203125" lon="-0.88961790315806865692138671875">
        <ele>1187.800048828125</ele>
        <time>2022-08-26T16:44:46.000Z</time>
      </trkpt>
      <trkpt lat="40.1719870604574680328369140625" lon="-0.8892801962792873382568359375">
        <ele>1187.800048828125</ele>
        <time>2022-08-26T16:44:51.000Z</time>
      </trkpt>
      <trkpt lat="40.17175965942442417144775390625" lon="-0.88901122100651264190673828125">
        <ele>1187.800048828125</ele>
        <time>2022-08-26T16:44:55.000Z</time>
      </trkpt>
      <trkpt lat="40.17129966057837009429931640625" lon="-0.88845700956881046295166015625">
        <ele>1187.5999755859375</ele>
        <time>2022-08-26T16:45:02.000Z</time>
      </trkpt>
      <trkpt lat="40.17118667252361774444580078125" lon="-0.8883236534893512725830078125">
        <ele>1187.5999755859375</ele>
        <time>2022-08-26T16:45:05.000Z</time>
      </trkpt>
      <trkpt lat="40.1710385642945766448974609375" lon="-0.8881201408803462982177734375">
        <ele>1187.5999755859375</ele>
        <time>2022-08-26T16:45:08.000Z</time>
      </trkpt>
      <trkpt lat="40.170841254293918609619140625" lon="-0.88786440901458263397216796875">
        <ele>1187.199951171875</ele>
        <time>2022-08-26T16:45:12.000Z</time>
      </trkpt>
      <trkpt lat="40.170524418354034423828125" lon="-0.8874757401645183563232421875">
        <ele>1187.199951171875</ele>
        <time>2022-08-26T16:45:18.000Z</time>
      </trkpt>
      <trkpt lat="40.170115716755390167236328125" lon="-0.8869676291942596435546875">
        <ele>1187.199951171875</ele>
        <time>2022-08-26T16:45:26.000Z</time>
      </trkpt>
      <trkpt lat="40.170066095888614654541015625" lon="-0.8869040943682193756103515625">
        <ele>1187.199951171875</ele>
        <time>2022-08-26T16:45:27.000Z</time>
      </trkpt>
      <trkpt lat="40.16962227411568164825439453125" lon="-0.88636212050914764404296875">
        <ele>1187</ele>
        <time>2022-08-26T16:45:35.000Z</time>
      </trkpt>
      <trkpt lat="40.16956628300249576568603515625" lon="-0.88629263453185558319091796875">
        <ele>1187</ele>
        <time>2022-08-26T16:45:36.000Z</time>
      </trkpt>
      <trkpt lat="40.169187672436237335205078125" lon="-0.88581922464072704315185546875">
        <ele>1186.800048828125</ele>
        <time>2022-08-26T16:45:43.000Z</time>
      </trkpt>
      <trkpt lat="40.1690316013991832733154296875" lon="-0.8856236748397350311279296875">
        <ele>1186.800048828125</ele>
        <time>2022-08-26T16:45:46.000Z</time>
      </trkpt>
      <trkpt lat="40.16862298361957073211669921875" lon="-0.885123945772647857666015625">
        <ele>1186.5999755859375</ele>
        <time>2022-08-26T16:45:54.000Z</time>
      </trkpt>
      <trkpt lat="40.168567411601543426513671875" lon="-0.885057561099529266357421875">
        <ele>1186.4000244140625</ele>
        <time>2022-08-26T16:45:55.000Z</time>
      </trkpt>
      <trkpt lat="40.16846138052642345428466796875" lon="-0.8849202655255794525146484375">
        <ele>1186.5999755859375</ele>
        <time>2022-08-26T16:45:57.000Z</time>
      </trkpt>
      <trkpt lat="40.16807413659989833831787109375" lon="-0.884421877562999725341796875">
        <ele>1186.4000244140625</ele>
        <time>2022-08-26T16:46:04.000Z</time>
      </trkpt>
      <trkpt lat="40.16763844527304172515869140625" lon="-0.88388937525451183319091796875">
        <ele>1186.4000244140625</ele>
        <time>2022-08-26T16:46:12.000Z</time>
      </trkpt>
      <trkpt lat="40.16749151051044464111328125" lon="-0.88370262645184993743896484375">
        <ele>1186.4000244140625</ele>
        <time>2022-08-26T16:46:15.000Z</time>
      </trkpt>
      <trkpt lat="40.16731305979192256927490234375" lon="-0.88346810080111026763916015625">
        <ele>1186</ele>
        <time>2022-08-26T16:46:19.000Z</time>
      </trkpt>
      <trkpt lat="40.16692866571247577667236328125" lon="-0.88296015746891498565673828125">
        <ele>1185.800048828125</ele>
        <time>2022-08-26T16:46:28.000Z</time>
      </trkpt>
      <trkpt lat="40.16689111478626728057861328125" lon="-0.8829067647457122802734375">
        <ele>1186</ele>
        <time>2022-08-26T16:46:29.000Z</time>
      </trkpt>
      <trkpt lat="40.16660495661199092864990234375" lon="-0.88256201706826686859130859375">
        <ele>1185.800048828125</ele>
        <time>2022-08-26T16:46:36.000Z</time>
      </trkpt>
      <trkpt lat="40.1663557626307010650634765625" lon="-0.8822672255337238311767578125">
        <ele>1185.5999755859375</ele>
        <time>2022-08-26T16:46:42.000Z</time>
      </trkpt>
      <trkpt lat="40.16611997969448566436767578125" lon="-0.88198953308165073394775390625">
        <ele>1185.5999755859375</ele>
        <time>2022-08-26T16:46:46.000Z</time>
      </trkpt>
      <trkpt lat="40.16598402522504329681396484375" lon="-0.881816111505031585693359375">
        <ele>1185.5999755859375</ele>
        <time>2022-08-26T16:46:50.000Z</time>
      </trkpt>
      <trkpt lat="40.16570356674492359161376953125" lon="-0.88145677931606769561767578125">
        <ele>1185.5999755859375</ele>
        <time>2022-08-26T16:46:57.000Z</time>
      </trkpt>
      <trkpt lat="40.1654920913279056549072265625" lon="-0.881177745759487152099609375">
        <ele>1185.5999755859375</ele>
        <time>2022-08-26T16:47:04.000Z</time>
      </trkpt>
      <trkpt lat="40.16537918709218502044677734375" lon="-0.8810505084693431854248046875">
        <ele>1185.5999755859375</ele>
        <time>2022-08-26T16:47:09.000Z</time>
      </trkpt>
      <trkpt lat="40.165348760783672332763671875" lon="-0.881055034697055816650390625">
        <ele>1185.5999755859375</ele>
        <time>2022-08-26T16:47:11.000Z</time>
      </trkpt>
      <trkpt lat="40.1653268001973628997802734375" lon="-0.88106685318052768707275390625">
        <ele>1185.5999755859375</ele>
        <time>2022-08-26T16:47:13.000Z</time>
      </trkpt>
      <trkpt lat="40.1653167419135570526123046875" lon="-0.88107976131141185760498046875">
        <ele>1185.5999755859375</ele>
        <time>2022-08-26T16:47:14.000Z</time>
      </trkpt>
      <trkpt lat="40.16523518599569797515869140625" lon="-0.88115385733544826507568359375">
        <ele>1185.5999755859375</ele>
        <time>2022-08-26T16:47:18.000Z</time>
      </trkpt>
      <trkpt lat="40.165148265659809112548828125" lon="-0.881252177059650421142578125">
        <ele>1185.5999755859375</ele>
        <time>2022-08-26T16:47:23.000Z</time>
      </trkpt>
      <trkpt lat="40.16499160788953304290771484375" lon="-0.88135577738285064697265625">
        <ele>1185.4000244140625</ele>
        <time>2022-08-26T16:47:30.000Z</time>
      </trkpt>
      <trkpt lat="40.16495816409587860107421875" lon="-0.88132652454078197479248046875">
        <ele>1185.4000244140625</ele>
        <time>2022-08-26T16:47:31.000Z</time>
      </trkpt>
      <trkpt lat="40.1649038493633270263671875" lon="-0.88123901747167110443115234375">
        <ele>1185.4000244140625</ele>
        <time>2022-08-26T16:47:33.000Z</time>
      </trkpt>
      <trkpt lat="40.164873339235782623291015625" lon="-0.88118889369070529937744140625">
        <ele>1185.4000244140625</ele>
        <time>2022-08-26T16:47:34.000Z</time>
      </trkpt>
      <trkpt lat="40.1646770350635051727294921875" lon="-0.880926959216594696044921875">
        <ele>1184.800048828125</ele>
        <time>2022-08-26T16:47:39.000Z</time>
      </trkpt>
      <trkpt lat="40.1646042801439762115478515625" lon="-0.88082872331142425537109375">
        <ele>1184.800048828125</ele>
        <time>2022-08-26T16:47:41.000Z</time>
      </trkpt>
      <trkpt lat="40.16436807811260223388671875" lon="-0.88054575026035308837890625">
        <ele>1184.800048828125</ele>
        <time>2022-08-26T16:47:47.000Z</time>
      </trkpt>
      <trkpt lat="40.1643199659883975982666015625" lon="-0.88050576858222484588623046875">
        <ele>1184.5999755859375</ele>
        <time>2022-08-26T16:47:48.000Z</time>
      </trkpt>
      <trkpt lat="40.16407513059675693511962890625" lon="-0.88038154877722263336181640625">
        <ele>1184.800048828125</ele>
        <time>2022-08-26T16:47:51.000Z</time>
      </trkpt>
      <trkpt lat="40.16407513059675693511962890625" lon="-0.88038154877722263336181640625">
        <ele>1184.800048828125</ele>
        <time>2022-08-26T16:47:52.000Z</time>
      </trkpt>
      <trkpt lat="40.16364681534469127655029296875" lon="-0.8801896870136260986328125">
        <ele>1184.800048828125</ele>
        <time>2022-08-26T16:47:59.000Z</time>
      </trkpt>
      <trkpt lat="40.163469873368740081787109375" lon="-0.88012405671179294586181640625">
        <ele>1184.5999755859375</ele>
        <time>2022-08-26T16:48:02.000Z</time>
      </trkpt>
      <trkpt lat="40.16325286589562892913818359375" lon="-0.88002003729343414306640625">
        <ele>1184.5999755859375</ele>
        <time>2022-08-26T16:48:06.000Z</time>
      </trkpt>
      <trkpt lat="40.162807367742061614990234375" lon="-0.87980889715254306793212890625">
        <ele>1184.4000244140625</ele>
        <time>2022-08-26T16:48:13.000Z</time>
      </trkpt>
      <trkpt lat="40.16268432140350341796875" lon="-0.879734717309474945068359375">
        <ele>1184.199951171875</ele>
        <time>2022-08-26T16:48:14.000Z</time>
      </trkpt>
      <trkpt lat="40.162497572600841522216796875" lon="-0.87959884665906429290771484375">
        <ele>1184</ele>
        <time>2022-08-26T16:48:18.000Z</time>
      </trkpt>
      <trkpt lat="40.1624380610883235931396484375" lon="-0.87953858077526092529296875">
        <ele>1183.800048828125</ele>
        <time>2022-08-26T16:48:19.000Z</time>
      </trkpt>
      <trkpt lat="40.16202290542423725128173828125" lon="-0.878950171172618865966796875">
        <ele>1183.5999755859375</ele>
        <time>2022-08-26T16:48:26.000Z</time>
      </trkpt>
      <trkpt lat="40.161983929574489593505859375" lon="-0.8788695372641086578369140625">
        <ele>1183.5999755859375</ele>
        <time>2022-08-26T16:48:28.000Z</time>
      </trkpt>
      <trkpt lat="40.1618560217320919036865234375" lon="-0.878528058528900146484375">
        <ele>1183.4000244140625</ele>
        <time>2022-08-26T16:48:32.000Z</time>
      </trkpt>
      <trkpt lat="40.16173574142158031463623046875" lon="-0.87793705053627490997314453125">
        <ele>1183.199951171875</ele>
        <time>2022-08-26T16:48:38.000Z</time>
      </trkpt>
      <trkpt lat="40.1617262698709964752197265625" lon="-0.87752021849155426025390625">
        <ele>1183</ele>
        <time>2022-08-26T16:48:42.000Z</time>
      </trkpt>
      <trkpt lat="40.16173138283193111419677734375" lon="-0.8773007802665233612060546875">
        <ele>1183.199951171875</ele>
        <time>2022-08-26T16:48:43.000Z</time>
      </trkpt>
      <trkpt lat="40.1617527566850185394287109375" lon="-0.8765403740108013153076171875">
        <ele>1182.5999755859375</ele>
        <time>2022-08-26T16:48:50.000Z</time>
      </trkpt>
      <trkpt lat="40.16175770200788974761962890625" lon="-0.87643635459244251251220703125">
        <ele>1182.800048828125</ele>
        <time>2022-08-26T16:48:52.000Z</time>
      </trkpt>
      <trkpt lat="40.16176776029169559478759765625" lon="-0.876028239727020263671875">
        <ele>1182.5999755859375</ele>
        <time>2022-08-26T16:48:55.000Z</time>
      </trkpt>
      <trkpt lat="40.16175569035112857818603515625" lon="-0.875518955290317535400390625">
        <ele>1182.199951171875</ele>
        <time>2022-08-26T16:49:00.000Z</time>
      </trkpt>
      <trkpt lat="40.16175828874111175537109375" lon="-0.875005312263965606689453125">
        <ele>1182.199951171875</ele>
        <time>2022-08-26T16:49:06.000Z</time>
      </trkpt>
      <trkpt lat="40.16176097095012664794921875" lon="-0.874389074742794036865234375">
        <ele>1182</ele>
        <time>2022-08-26T16:49:11.000Z</time>
      </trkpt>
      <trkpt lat="40.1617551036179065704345703125" lon="-0.873802341520786285400390625">
        <ele>1181.5999755859375</ele>
        <time>2022-08-26T16:49:17.000Z</time>
      </trkpt>
      <trkpt lat="40.16175401397049427032470703125" lon="-0.8736080490052700042724609375">
        <ele>1181.4000244140625</ele>
        <time>2022-08-26T16:49:19.000Z</time>
      </trkpt>
      <trkpt lat="40.16174764372408390045166015625" lon="-0.8728154562413692474365234375">
        <ele>1181.199951171875</ele>
        <time>2022-08-26T16:49:27.000Z</time>
      </trkpt>
      <trkpt lat="40.16174890100955963134765625" lon="-0.8725170604884624481201171875">
        <ele>1181</ele>
        <time>2022-08-26T16:49:30.000Z</time>
      </trkpt>
      <trkpt lat="40.161767341196537017822265625" lon="-0.87172756902873516082763671875">
        <ele>1180.5999755859375</ele>
        <time>2022-08-26T16:49:38.000Z</time>
      </trkpt>
      <trkpt lat="40.1617695204913616180419921875" lon="-0.8712473697960376739501953125">
        <ele>1180.4000244140625</ele>
        <time>2022-08-26T16:49:43.000Z</time>
      </trkpt>
      <trkpt lat="40.1617683470249176025390625" lon="-0.8711491338908672332763671875">
        <ele>1180.5999755859375</ele>
        <time>2022-08-26T16:49:44.000Z</time>
      </trkpt>
      <trkpt lat="40.1617648266255855560302734375" lon="-0.87035603821277618408203125">
        <ele>1180</ele>
        <time>2022-08-26T16:49:52.000Z</time>
      </trkpt>
      <trkpt lat="40.16176859848201274871826171875" lon="-0.86995312012732028961181640625">
        <ele>1180</ele>
        <time>2022-08-26T16:49:56.000Z</time>
      </trkpt>
      <trkpt lat="40.16173674724996089935302734375" lon="-0.86917745880782604217529296875">
        <ele>1179.800048828125</ele>
        <time>2022-08-26T16:50:04.000Z</time>
      </trkpt>
      <trkpt lat="40.16169265843927860260009765625" lon="-0.86859290488064289093017578125">
        <ele>1179.4000244140625</ele>
        <time>2022-08-26T16:50:11.000Z</time>
      </trkpt>
      <trkpt lat="40.16166868619620800018310546875" lon="-0.8682992868125438690185546875">
        <ele>1179.4000244140625</ele>
        <time>2022-08-26T16:50:14.000Z</time>
      </trkpt>
      <trkpt lat="40.161584280431270599365234375" lon="-0.86765530519187450408935546875">
        <ele>1178.800048828125</ele>
        <time>2022-08-26T16:50:21.000Z</time>
      </trkpt>
      <trkpt lat="40.16155284829437732696533203125" lon="-0.86746394634246826171875">
        <ele>1178.800048828125</ele>
        <time>2022-08-26T16:50:23.000Z</time>
      </trkpt>
      <trkpt lat="40.16143508255481719970703125" lon="-0.86675383150577545166015625">
        <ele>1178.5999755859375</ele>
        <time>2022-08-26T16:50:30.000Z</time>
      </trkpt>
      <trkpt lat="40.161383114755153656005859375" lon="-0.86645032279193401336669921875">
        <ele>1178.4000244140625</ele>
        <time>2022-08-26T16:50:33.000Z</time>
      </trkpt>
      <trkpt lat="40.16136559657752513885498046875" lon="-0.86635041050612926483154296875">
        <ele>1178.4000244140625</ele>
        <time>2022-08-26T16:50:34.000Z</time>
      </trkpt>
      <trkpt lat="40.161222852766513824462890625" lon="-0.86558178998529911041259765625">
        <ele>1178.199951171875</ele>
        <time>2022-08-26T16:50:42.000Z</time>
      </trkpt>
      <trkpt lat="40.16112738288938999176025390625" lon="-0.86510553024709224700927734375">
        <ele>1177.800048828125</ele>
        <time>2022-08-26T16:50:47.000Z</time>
      </trkpt>
      <trkpt lat="40.16105127520859241485595703125" lon="-0.8647440187633037567138671875">
        <ele>1177.800048828125</ele>
        <time>2022-08-26T16:50:50.000Z</time>
      </trkpt>
      <trkpt lat="40.160916410386562347412109375" lon="-0.8643319644033908843994140625">
        <ele>1177.5999755859375</ele>
        <time>2022-08-26T16:50:56.000Z</time>
      </trkpt>
      <trkpt lat="40.1608354412019252777099609375" lon="-0.86417086422443389892578125">
        <ele>1177.5999755859375</ele>
        <time>2022-08-26T16:50:57.000Z</time>
      </trkpt>
      <trkpt lat="40.16070040874183177947998046875" lon="-0.86394782178103923797607421875">
        <ele>1177.5999755859375</ele>
        <time>2022-08-26T16:51:00.000Z</time>
      </trkpt>
      <trkpt lat="40.16054869629442691802978515625" lon="-0.8637371845543384552001953125">
        <ele>1177.800048828125</ele>
        <time>2022-08-26T16:51:03.000Z</time>
      </trkpt>
      <trkpt lat="40.16049186699092388153076171875" lon="-0.863672979176044464111328125">
        <ele>1177.5999755859375</ele>
        <time>2022-08-26T16:51:05.000Z</time>
      </trkpt>
      <trkpt lat="40.16030025668442249298095703125" lon="-0.86347558535635471343994140625">
        <ele>1177.5999755859375</ele>
        <time>2022-08-26T16:51:08.000Z</time>
      </trkpt>
      <trkpt lat="40.1602376438677310943603515625" lon="-0.86343317292630672454833984375">
        <ele>1177.4000244140625</ele>
        <time>2022-08-26T16:51:10.000Z</time>
      </trkpt>
      <trkpt lat="40.16018073074519634246826171875" lon="-0.86340182460844516754150390625">
        <ele>1177.4000244140625</ele>
        <time>2022-08-26T16:51:11.000Z</time>
      </trkpt>
      <trkpt lat="40.15993782319128513336181640625" lon="-0.86328975856304168701171875">
        <ele>1177.4000244140625</ele>
        <time>2022-08-26T16:51:15.000Z</time>
      </trkpt>
      <trkpt lat="40.1597183011472225189208984375" lon="-0.8632379584014415740966796875">
        <ele>1177</ele>
        <time>2022-08-26T16:51:18.000Z</time>
      </trkpt>
      <trkpt lat="40.15950514934957027435302734375" lon="-0.8632144890725612640380859375">
        <ele>1177</ele>
        <time>2022-08-26T16:51:20.000Z</time>
      </trkpt>
      <trkpt lat="40.1590239442884922027587890625" lon="-0.86325396783649921417236328125">
        <ele>1177</ele>
        <time>2022-08-26T16:51:27.000Z</time>
      </trkpt>
      <trkpt lat="40.1586301624774932861328125" lon="-0.86333057843148708343505859375">
        <ele>1176.5999755859375</ele>
        <time>2022-08-26T16:51:32.000Z</time>
      </trkpt>
      <trkpt lat="40.15840058214962482452392578125" lon="-0.8633858151733875274658203125">
        <ele>1176.5999755859375</ele>
        <time>2022-08-26T16:51:35.000Z</time>
      </trkpt>
      <trkpt lat="40.1578058861196041107177734375" lon="-0.8635088615119457244873046875">
        <ele>1176.4000244140625</ele>
        <time>2022-08-26T16:51:43.000Z</time>
      </trkpt>
      <trkpt lat="40.15765593387186527252197265625" lon="-0.8635417185723781585693359375">
        <ele>1176.4000244140625</ele>
        <time>2022-08-26T16:51:45.000Z</time>
      </trkpt>
      <trkpt lat="40.15728704631328582763671875" lon="-0.86362578906118869781494140625">
        <ele>1176.4000244140625</ele>
        <time>2022-08-26T16:51:50.000Z</time>
      </trkpt>
      <trkpt lat="40.15684842132031917572021484375" lon="-0.86371111683547496795654296875">
        <ele>1176.199951171875</ele>
        <time>2022-08-26T16:51:56.000Z</time>
      </trkpt>
      <trkpt lat="40.1562944613397121429443359375" lon="-0.86368798278272151947021484375">
        <ele>1176.199951171875</ele>
        <time>2022-08-26T16:52:03.000Z</time>
      </trkpt>
      <trkpt lat="40.15592456795275211334228515625" lon="-0.8635718934237957000732421875">
        <ele>1176.4000244140625</ele>
        <time>2022-08-26T16:52:09.000Z</time>
      </trkpt>
      <trkpt lat="40.15561879612505435943603515625" lon="-0.8634339272975921630859375">
        <ele>1176.4000244140625</ele>
        <time>2022-08-26T16:52:14.000Z</time>
      </trkpt>
      <trkpt lat="40.1555028744041919708251953125" lon="-0.86336159147322177886962890625">
        <ele>1176.199951171875</ele>
        <time>2022-08-26T16:52:16.000Z</time>
      </trkpt>
      <trkpt lat="40.15504161827266216278076171875" lon="-0.8630434982478618621826171875">
        <ele>1176.199951171875</ele>
        <time>2022-08-26T16:52:25.000Z</time>
      </trkpt>
      <trkpt lat="40.15463836491107940673828125" lon="-0.86276915855705738067626953125">
        <ele>1176.4000244140625</ele>
        <time>2022-08-26T16:52:32.000Z</time>
      </trkpt>
      <trkpt lat="40.15457508154213428497314453125" lon="-0.8627300150692462921142578125">
        <ele>1176.199951171875</ele>
        <time>2022-08-26T16:52:33.000Z</time>
      </trkpt>
      <trkpt lat="40.15406864695250988006591796875" lon="-0.86239918135106563568115234375">
        <ele>1176.4000244140625</ele>
        <time>2022-08-26T16:52:41.000Z</time>
      </trkpt>
      <trkpt lat="40.15367142856121063232421875" lon="-0.86202233098447322845458984375">
        <ele>1176.4000244140625</ele>
        <time>2022-08-26T16:52:47.000Z</time>
      </trkpt>
      <trkpt lat="40.153400860726833343505859375" lon="-0.861604996025562286376953125">
        <ele>1176.199951171875</ele>
        <time>2022-08-26T16:52:54.000Z</time>
      </trkpt>
      <trkpt lat="40.15322458930313587188720703125" lon="-0.86116368882358074188232421875">
        <ele>1176.4000244140625</ele>
        <time>2022-08-26T16:52:59.000Z</time>
      </trkpt>
      <trkpt lat="40.15319935977458953857421875" lon="-0.861084647476673126220703125">
        <ele>1176.199951171875</ele>
        <time>2022-08-26T16:53:00.000Z</time>
      </trkpt>
      <trkpt lat="40.15311948023736476898193359375" lon="-0.86068726144731044769287109375">
        <ele>1176</ele>
        <time>2022-08-26T16:53:05.000Z</time>
      </trkpt>
      <trkpt lat="40.15311948023736476898193359375" lon="-0.86068726144731044769287109375">
        <ele>1176.199951171875</ele>
        <time>2022-08-26T16:53:06.000Z</time>
      </trkpt>
      <trkpt lat="40.1530473120510578155517578125" lon="-0.85991461761295795440673828125">
        <ele>1176</ele>
        <time>2022-08-26T16:53:14.000Z</time>
      </trkpt>
      <trkpt lat="40.15301018022000789642333984375" lon="-0.85923434235155582427978515625">
        <ele>1176.199951171875</ele>
        <time>2022-08-26T16:53:23.000Z</time>
      </trkpt>
      <trkpt lat="40.152997188270092010498046875" lon="-0.85899227298796176910400390625">
        <ele>1176.4000244140625</ele>
        <time>2022-08-26T16:53:25.000Z</time>
      </trkpt>
      <trkpt lat="40.1529755629599094390869140625" lon="-0.8586741797626018524169921875">
        <ele>1176.4000244140625</ele>
        <time>2022-08-26T16:53:29.000Z</time>
      </trkpt>
      <trkpt lat="40.15289627015590667724609375" lon="-0.8582011051476001739501953125">
        <ele>1176.4000244140625</ele>
        <time>2022-08-26T16:53:35.000Z</time>
      </trkpt>
      <trkpt lat="40.1528193242847919464111328125" lon="-0.85789659060537815093994140625">
        <ele>1176.4000244140625</ele>
        <time>2022-08-26T16:53:39.000Z</time>
      </trkpt>
      <trkpt lat="40.1527695357799530029296875" lon="-0.85775376297533512115478515625">
        <ele>1176.4000244140625</ele>
        <time>2022-08-26T16:53:41.000Z</time>
      </trkpt>
      <trkpt lat="40.1526808552443981170654296875" lon="-0.85752996616065502166748046875">
        <ele>1176.4000244140625</ele>
        <time>2022-08-26T16:53:44.000Z</time>
      </trkpt>
      <trkpt lat="40.1525940187275409698486328125" lon="-0.85730767808854579925537109375">
        <ele>1176.4000244140625</ele>
        <time>2022-08-26T16:53:47.000Z</time>
      </trkpt>
      <trkpt lat="40.15245663933455944061279296875" lon="-0.856997631490230560302734375">
        <ele>1176</ele>
        <time>2022-08-26T16:53:52.000Z</time>
      </trkpt>
      <trkpt lat="40.152258239686489105224609375" lon="-0.8565616048872470855712890625">
        <ele>1176</ele>
        <time>2022-08-26T16:53:57.000Z</time>
      </trkpt>
      <trkpt lat="40.15217098407447338104248046875" lon="-0.85639388300478458404541015625">
        <ele>1175.800048828125</ele>
        <time>2022-08-26T16:53:59.000Z</time>
      </trkpt>
      <trkpt lat="40.151834785938262939453125" lon="-0.85570924915373325347900390625">
        <ele>1175.199951171875</ele>
        <time>2022-08-26T16:54:08.000Z</time>
      </trkpt>
      <trkpt lat="40.151482410728931427001953125" lon="-0.8550672791898250579833984375">
        <ele>1175</ele>
        <time>2022-08-26T16:54:16.000Z</time>
      </trkpt>
      <trkpt lat="40.15144812874495983123779296875" lon="-0.8549891598522663116455078125">
        <ele>1175</ele>
        <time>2022-08-26T16:54:17.000Z</time>
      </trkpt>
      <trkpt lat="40.15125886537134647369384765625" lon="-0.85457869805395603179931640625">
        <ele>1175</ele>
        <time>2022-08-26T16:54:22.000Z</time>
      </trkpt>
      <trkpt lat="40.1511952467262744903564453125" lon="-0.85440888069570064544677734375">
        <ele>1174.800048828125</ele>
        <time>2022-08-26T16:54:25.000Z</time>
      </trkpt>
      <trkpt lat="40.15106423757970333099365234375" lon="-0.85389171727001667022705078125">
        <ele>1174.800048828125</ele>
        <time>2022-08-26T16:54:31.000Z</time>
      </trkpt>
      <trkpt lat="40.15103523619472980499267578125" lon="-0.8537218160927295684814453125">
        <ele>1174.5999755859375</ele>
        <time>2022-08-26T16:54:32.000Z</time>
      </trkpt>
      <trkpt lat="40.15102718956768512725830078125" lon="-0.85362886078655719757080078125">
        <ele>1174.5999755859375</ele>
        <time>2022-08-26T16:54:34.000Z</time>
      </trkpt>
      <trkpt lat="40.151021741330623626708984375" lon="-0.8534358255565166473388671875">
        <ele>1174.4000244140625</ele>
        <time>2022-08-26T16:54:36.000Z</time>
      </trkpt>
      <trkpt lat="40.15103657729923725128173828125" lon="-0.8531471528112888336181640625">
        <ele>1174.4000244140625</ele>
        <time>2022-08-26T16:54:38.000Z</time>
      </trkpt>
      <trkpt lat="40.151091478765010833740234375" lon="-0.852793268859386444091796875">
        <ele>1174.199951171875</ele>
        <time>2022-08-26T16:54:42.000Z</time>
      </trkpt>
      <trkpt lat="40.1511975936591625213623046875" lon="-0.85224031470715999603271484375">
        <ele>1174.199951171875</ele>
        <time>2022-08-26T16:54:48.000Z</time>
      </trkpt>
      <trkpt lat="40.1512165367603302001953125" lon="-0.85214828141033649444580078125">
        <ele>1174</ele>
        <time>2022-08-26T16:54:49.000Z</time>
      </trkpt>
      <trkpt lat="40.1513498090207576751708984375" lon="-0.85149751044809818267822265625">
        <ele>1173.5999755859375</ele>
        <time>2022-08-26T16:54:56.000Z</time>
      </trkpt>
      <trkpt lat="40.15136581845581531524658203125" lon="-0.8513956703245639801025390625">
        <ele>1173.4000244140625</ele>
        <time>2022-08-26T16:54:58.000Z</time>
      </trkpt>
      <trkpt lat="40.15143337659537792205810546875" lon="-0.85099543444812297821044921875">
        <ele>1172.5999755859375</ele>
        <time>2022-08-26T16:55:02.000Z</time>
      </trkpt>
      <trkpt lat="40.15151736326515674591064453125" lon="-0.850524790585041046142578125">
        <ele>1172.199951171875</ele>
        <time>2022-08-26T16:55:07.000Z</time>
      </trkpt>
      <trkpt lat="40.151560865342617034912109375" lon="-0.85023435764014720916748046875">
        <ele>1172</ele>
        <time>2022-08-26T16:55:10.000Z</time>
      </trkpt>
      <trkpt lat="40.1516304351389408111572265625" lon="-0.8498339541256427764892578125">
        <ele>1171.800048828125</ele>
        <time>2022-08-26T16:55:14.000Z</time>
      </trkpt>
      <trkpt lat="40.15175339765846729278564453125" lon="-0.84906332194805145263671875">
        <ele>1171.5999755859375</ele>
        <time>2022-08-26T16:55:22.000Z</time>
      </trkpt>
      <trkpt lat="40.15180201269686222076416015625" lon="-0.8488110266625881195068359375">
        <ele>1171.5999755859375</ele>
        <time>2022-08-26T16:55:24.000Z</time>
      </trkpt>
      <trkpt lat="40.15187946148216724395751953125" lon="-0.84844515658915042877197265625">
        <ele>1171.5999755859375</ele>
        <time>2022-08-26T16:55:29.000Z</time>
      </trkpt>
      <trkpt lat="40.1519388891756534576416015625" lon="-0.84775750525295734405517578125">
        <ele>1171.4000244140625</ele>
        <time>2022-08-26T16:55:35.000Z</time>
      </trkpt>
      <trkpt lat="40.1519335247576236724853515625" lon="-0.84744720719754695892333984375">
        <ele>1171.4000244140625</ele>
        <time>2022-08-26T16:55:38.000Z</time>
      </trkpt>
      <trkpt lat="40.15189790166914463043212890625" lon="-0.84714780561625957489013671875">
        <ele>1171.199951171875</ele>
        <time>2022-08-26T16:55:42.000Z</time>
      </trkpt>
      <trkpt lat="40.151782818138599395751953125" lon="-0.84649569354951381683349609375">
        <ele>1171.199951171875</ele>
        <time>2022-08-26T16:55:48.000Z</time>
      </trkpt>
      <trkpt lat="40.1517551578581333160400390625" lon="-0.84640734829008579254150390625">
        <ele>1171</ele>
        <time>2022-08-26T16:55:49.000Z</time>
      </trkpt>
      <trkpt lat="40.15162565745413303375244140625" lon="-0.846062935888767242431640625">
        <ele>1171.199951171875</ele>
        <time>2022-08-26T16:55:54.000Z</time>
      </trkpt>
      <trkpt lat="40.15146665275096893310546875" lon="-0.84574266336858272552490234375">
        <ele>1171</ele>
        <time>2022-08-26T16:55:57.000Z</time>
      </trkpt>
      <trkpt lat="40.151214860379695892333984375" lon="-0.84522063843905925750732421875">
        <ele>1170.800048828125</ele>
        <time>2022-08-26T16:56:05.000Z</time>
      </trkpt>
      <trkpt lat="40.1510252617299556732177734375" lon="-0.84483683109283447265625">
        <ele>1170.800048828125</ele>
        <time>2022-08-26T16:56:10.000Z</time>
      </trkpt>
      <trkpt lat="40.15091772191226482391357421875" lon="-0.84461345337331295013427734375">
        <ele>1170.5999755859375</ele>
        <time>2022-08-26T16:56:13.000Z</time>
      </trkpt>
      <trkpt lat="40.1506571285426616668701171875" lon="-0.84406435489654541015625">
        <ele>1170.5999755859375</ele>
        <time>2022-08-26T16:56:20.000Z</time>
      </trkpt>
      <trkpt lat="40.15046375803649425506591796875" lon="-0.8436823077499866485595703125">
        <ele>1170.4000244140625</ele>
        <time>2022-08-26T16:56:24.000Z</time>
      </trkpt>
      <trkpt lat="40.150377340614795684814453125" lon="-0.84351710043847560882568359375">
        <ele>1170.4000244140625</ele>
        <time>2022-08-26T16:56:27.000Z</time>
      </trkpt>
      <trkpt lat="40.1501072756946086883544921875" lon="-0.84305458702147006988525390625">
        <ele>1170.4000244140625</ele>
        <time>2022-08-26T16:56:33.000Z</time>
      </trkpt>
      <trkpt lat="40.149893872439861297607421875" lon="-0.84279173053801059722900390625">
        <ele>1170.199951171875</ele>
        <time>2022-08-26T16:56:38.000Z</time>
      </trkpt>
      <trkpt lat="40.14985204674303531646728515625" lon="-0.84274948574602603912353515625">
        <ele>1170.199951171875</ele>
        <time>2022-08-26T16:56:39.000Z</time>
      </trkpt>
      <trkpt lat="40.14961685054004192352294921875" lon="-0.842578411102294921875">
        <ele>1170.199951171875</ele>
        <time>2022-08-26T16:56:42.000Z</time>
      </trkpt>
      <trkpt lat="40.149538479745388031005859375" lon="-0.8425380103290081024169921875">
        <ele>1170.199951171875</ele>
        <time>2022-08-26T16:56:43.000Z</time>
      </trkpt>
      <trkpt lat="40.14918032102286815643310546875" lon="-0.84241689182817935943603515625">
        <ele>1170</ele>
        <time>2022-08-26T16:56:49.000Z</time>
      </trkpt>
      <trkpt lat="40.14872702769935131072998046875" lon="-0.8423318155109882354736328125">
        <ele>1169.800048828125</ele>
        <time>2022-08-26T16:56:55.000Z</time>
      </trkpt>
      <trkpt lat="40.14857766218483448028564453125" lon="-0.84231111221015453338623046875">
        <ele>1169.800048828125</ele>
        <time>2022-08-26T16:56:57.000Z</time>
      </trkpt>
      <trkpt lat="40.1480595767498016357421875" lon="-0.8422044105827808380126953125">
        <ele>1169.199951171875</ele>
        <time>2022-08-26T16:57:04.000Z</time>
      </trkpt>
      <trkpt lat="40.14777450822293758392333984375" lon="-0.8421272970736026763916015625">
        <ele>1168.800048828125</ele>
        <time>2022-08-26T16:57:08.000Z</time>
      </trkpt>
      <trkpt lat="40.14763268642127513885498046875" lon="-0.84205663762986660003662109375">
        <ele>1168.800048828125</ele>
        <time>2022-08-26T16:57:10.000Z</time>
      </trkpt>
      <trkpt lat="40.14718844555318355560302734375" lon="-0.84177383221685886383056640625">
        <ele>1168.4000244140625</ele>
        <time>2022-08-26T16:57:15.000Z</time>
      </trkpt>
      <trkpt lat="40.147125162184238433837890625" lon="-0.84171398542821407318115234375">
        <ele>1168.4000244140625</ele>
        <time>2022-08-26T16:57:16.000Z</time>
      </trkpt>
      <trkpt lat="40.1468359865248203277587890625" lon="-0.841377787292003631591796875">
        <ele>1168</ele>
        <time>2022-08-26T16:57:22.000Z</time>
      </trkpt>
      <trkpt lat="40.146701373159885406494140625" lon="-0.84115206263959407806396484375">
        <ele>1168</ele>
        <time>2022-08-26T16:57:24.000Z</time>
      </trkpt>
      <trkpt lat="40.146591402590274810791015625" lon="-0.84090982563793659210205078125">
        <ele>1167.800048828125</ele>
        <time>2022-08-26T16:57:27.000Z</time>
      </trkpt>
      <trkpt lat="40.14644865877926349639892578125" lon="-0.84045133553445339202880859375">
        <ele>1167.5999755859375</ele>
        <time>2022-08-26T16:57:32.000Z</time>
      </trkpt>
      <trkpt lat="40.14642703346908092498779296875" lon="-0.84035745821893215179443359375">
        <ele>1167.5999755859375</ele>
        <time>2022-08-26T16:57:34.000Z</time>
      </trkpt>
      <trkpt lat="40.14639417640864849090576171875" lon="-0.84016651846468448638916015625">
        <ele>1167.5999755859375</ele>
        <time>2022-08-26T16:57:36.000Z</time>
      </trkpt>
      <trkpt lat="40.14636819250881671905517578125" lon="-0.8399753272533416748046875">
        <ele>1167.4000244140625</ele>
        <time>2022-08-26T16:57:38.000Z</time>
      </trkpt>
      <trkpt lat="40.14637137763202190399169921875" lon="-0.8394806273281574249267578125">
        <ele>1167.199951171875</ele>
        <time>2022-08-26T16:57:43.000Z</time>
      </trkpt>
      <trkpt lat="40.146378166973590850830078125" lon="-0.83896656520664691925048828125">
        <ele>1167</ele>
        <time>2022-08-26T16:57:47.000Z</time>
      </trkpt>
      <trkpt lat="40.1463833637535572052001953125" lon="-0.8386628888547420501708984375">
        <ele>1166.5999755859375</ele>
        <time>2022-08-26T16:57:51.000Z</time>
      </trkpt>
      <trkpt lat="40.14638411812484264373779296875" lon="-0.837980769574642181396484375">
        <ele>1166.199951171875</ele>
        <time>2022-08-26T16:57:58.000Z</time>
      </trkpt>
      <trkpt lat="40.1463831961154937744140625" lon="-0.8378773368895053863525390625">
        <ele>1166.4000244140625</ele>
        <time>2022-08-26T16:57:59.000Z</time>
      </trkpt>
      <trkpt lat="40.146395601332187652587890625" lon="-0.83709320984780788421630859375">
        <ele>1166.199951171875</ele>
        <time>2022-08-26T16:58:07.000Z</time>
      </trkpt>
      <trkpt lat="40.1463940925896167755126953125" lon="-0.8368607796728610992431640625">
        <ele>1166</ele>
        <time>2022-08-26T16:58:11.000Z</time>
      </trkpt>
      <trkpt lat="40.14639652334153652191162109375" lon="-0.83683487959206104278564453125">
        <ele>1166</ele>
        <time>2022-08-26T16:58:12.000Z</time>
      </trkpt>
      <trkpt lat="40.1463992893695831298828125" lon="-0.83669389598071575164794921875">
        <ele>1165.800048828125</ele>
        <time>2022-08-26T16:58:15.000Z</time>
      </trkpt>
      <trkpt lat="40.14641412533819675445556640625" lon="-0.83629961125552654266357421875">
        <ele>1165.5999755859375</ele>
        <time>2022-08-26T16:58:20.000Z</time>
      </trkpt>
      <trkpt lat="40.14641739428043365478515625" lon="-0.83613281138241291046142578125">
        <ele>1165.5999755859375</ele>
        <time>2022-08-26T16:58:22.000Z</time>
      </trkpt>
      <trkpt lat="40.1464235968887805938720703125" lon="-0.835729725658893585205078125">
        <ele>1165.199951171875</ele>
        <time>2022-08-26T16:58:27.000Z</time>
      </trkpt>
      <trkpt lat="40.14641731046140193939208984375" lon="-0.83526075817644596099853515625">
        <ele>1165</ele>
        <time>2022-08-26T16:58:32.000Z</time>
      </trkpt>
      <trkpt lat="40.1464366726577281951904296875" lon="-0.83470822311937808990478515625">
        <ele>1164.4000244140625</ele>
        <time>2022-08-26T16:58:38.000Z</time>
      </trkpt>
      <trkpt lat="40.146448910236358642578125" lon="-0.8344394154846668243408203125">
        <ele>1164.199951171875</ele>
        <time>2022-08-26T16:58:40.000Z</time>
      </trkpt>
      <trkpt lat="40.1464638300240039825439453125" lon="-0.83380431868135929107666015625">
        <ele>1163.5999755859375</ele>
        <time>2022-08-26T16:58:48.000Z</time>
      </trkpt>
      <trkpt lat="40.14645452611148357391357421875" lon="-0.83317249082028865814208984375">
        <ele>1162.5999755859375</ele>
        <time>2022-08-26T16:58:55.000Z</time>
      </trkpt>
      <trkpt lat="40.146457292139530181884765625" lon="-0.8326072990894317626953125">
        <ele>1162</ele>
        <time>2022-08-26T16:59:01.000Z</time>
      </trkpt>
      <trkpt lat="40.146461315453052520751953125" lon="-0.83231753669679164886474609375">
        <ele>1161.4000244140625</ele>
        <time>2022-08-26T16:59:04.000Z</time>
      </trkpt>
      <trkpt lat="40.1464403606951236724853515625" lon="-0.8317250199615955352783203125">
        <ele>1161.199951171875</ele>
        <time>2022-08-26T16:59:09.000Z</time>
      </trkpt>
      <trkpt lat="40.14642921276390552520751953125" lon="-0.8316304720938205718994140625">
        <ele>1160.800048828125</ele>
        <time>2022-08-26T16:59:11.000Z</time>
      </trkpt>
      <trkpt lat="40.146308429539203643798828125" lon="-0.83101012744009494781494140625">
        <ele>1160.4000244140625</ele>
        <time>2022-08-26T16:59:17.000Z</time>
      </trkpt>
      <trkpt lat="40.14628286473453044891357421875" lon="-0.83092178218066692352294921875">
        <ele>1160.199951171875</ele>
        <time>2022-08-26T16:59:18.000Z</time>
      </trkpt>
      <trkpt lat="40.14608488418161869049072265625" lon="-0.83041124045848846435546875">
        <ele>1159.5999755859375</ele>
        <time>2022-08-26T16:59:24.000Z</time>
      </trkpt>
      <trkpt lat="40.145829655230045318603515625" lon="-0.829907320439815521240234375">
        <ele>1159.199951171875</ele>
        <time>2022-08-26T16:59:32.000Z</time>
      </trkpt>
      <trkpt lat="40.14575698412954807281494140625" lon="-0.8297748863697052001953125">
        <ele>1159</ele>
        <time>2022-08-26T16:59:34.000Z</time>
      </trkpt>
      <trkpt lat="40.1456108875572681427001953125" lon="-0.82951404154300689697265625">
        <ele>1158.199951171875</ele>
        <time>2022-08-26T16:59:38.000Z</time>
      </trkpt>
      <trkpt lat="40.14557518064975738525390625" lon="-0.82945092581212520599365234375">
        <ele>1158</ele>
        <time>2022-08-26T16:59:39.000Z</time>
      </trkpt>
      <trkpt lat="40.1452223025262355804443359375" lon="-0.8288600854575634002685546875">
        <ele>1157.5999755859375</ele>
        <time>2022-08-26T16:59:47.000Z</time>
      </trkpt>
      <trkpt lat="40.1451815664768218994140625" lon="-0.8287933655083179473876953125">
        <ele>1157.5999755859375</ele>
        <time>2022-08-26T16:59:48.000Z</time>
      </trkpt>
      <trkpt lat="40.1448551751673221588134765625" lon="-0.82824124954640865325927734375">
        <ele>1157</ele>
        <time>2022-08-26T16:59:57.000Z</time>
      </trkpt>
      <trkpt lat="40.1448239944875240325927734375" lon="-0.82818894647061824798583984375">
        <ele>1156.800048828125</ele>
        <time>2022-08-26T16:59:58.000Z</time>
      </trkpt>
      <trkpt lat="40.144649483263492584228515625" lon="-0.82789842970669269561767578125">
        <ele>1156.4000244140625</ele>
        <time>2022-08-26T17:00:05.000Z</time>
      </trkpt>
      <trkpt lat="40.1445584557950496673583984375" lon="-0.8277444541454315185546875">
        <ele>1156.199951171875</ele>
        <time>2022-08-26T17:00:08.000Z</time>
      </trkpt>
      <trkpt lat="40.144337676465511322021484375" lon="-0.82735796459019184112548828125">
        <ele>1155.5999755859375</ele>
        <time>2022-08-26T17:00:15.000Z</time>
      </trkpt>
      <trkpt lat="40.1440568827092647552490234375" lon="-0.82686133682727813720703125">
        <ele>1155.199951171875</ele>
        <time>2022-08-26T17:00:23.000Z</time>
      </trkpt>
      <trkpt lat="40.1439019851386547088623046875" lon="-0.8265909366309642791748046875">
        <ele>1155</ele>
        <time>2022-08-26T17:00:27.000Z</time>
      </trkpt>
      <trkpt lat="40.14378036372363567352294921875" lon="-0.82638365216553211212158203125">
        <ele>1155</ele>
        <time>2022-08-26T17:00:30.000Z</time>
      </trkpt>
      <trkpt lat="40.14350191690027713775634765625" lon="-0.8258856832981109619140625">
        <ele>1154.5999755859375</ele>
        <time>2022-08-26T17:00:37.000Z</time>
      </trkpt>
      <trkpt lat="40.14338406734168529510498046875" lon="-0.8256826736032962799072265625">
        <ele>1154.5999755859375</ele>
        <time>2022-08-26T17:00:39.000Z</time>
      </trkpt>
      <trkpt lat="40.14314635656774044036865234375" lon="-0.82527204416692256927490234375">
        <ele>1154</ele>
        <time>2022-08-26T17:00:45.000Z</time>
      </trkpt>
      <trkpt lat="40.1430202089250087738037109375" lon="-0.82509032450616359710693359375">
        <ele>1153.800048828125</ele>
        <time>2022-08-26T17:00:48.000Z</time>
      </trkpt>
      <trkpt lat="40.14289137907326221466064453125" lon="-0.82492318935692310333251953125">
        <ele>1153.5999755859375</ele>
        <time>2022-08-26T17:00:52.000Z</time>
      </trkpt>
      <trkpt lat="40.1425047218799591064453125" lon="-0.82449160516262054443359375">
        <ele>1153.199951171875</ele>
        <time>2022-08-26T17:01:00.000Z</time>
      </trkpt>
      <trkpt lat="40.14244948513805866241455078125" lon="-0.82443670369684696197509765625">
        <ele>1153.199951171875</ele>
        <time>2022-08-26T17:01:01.000Z</time>
      </trkpt>
      <trkpt lat="40.14202670194208621978759765625" lon="-0.823975615203380584716796875">
        <ele>1153.199951171875</ele>
        <time>2022-08-26T17:01:08.000Z</time>
      </trkpt>
      <trkpt lat="40.14202670194208621978759765625" lon="-0.823975615203380584716796875">
        <ele>1153</ele>
        <time>2022-08-26T17:01:09.000Z</time>
      </trkpt>
      <trkpt lat="40.14181078411638736724853515625" lon="-0.82374201156198978424072265625">
        <ele>1152.800048828125</ele>
        <time>2022-08-26T17:01:13.000Z</time>
      </trkpt>
      <trkpt lat="40.1414856500923633575439453125" lon="-0.82336147315800189971923828125">
        <ele>1152.4000244140625</ele>
        <time>2022-08-26T17:01:19.000Z</time>
      </trkpt>
      <trkpt lat="40.1413562335073947906494140625" lon="-0.82318645901978015899658203125">
        <ele>1152.4000244140625</ele>
        <time>2022-08-26T17:01:23.000Z</time>
      </trkpt>
      <trkpt lat="40.1411714963614940643310546875" lon="-0.8228680305182933807373046875">
        <ele>1151.800048828125</ele>
        <time>2022-08-26T17:01:28.000Z</time>
      </trkpt>
      <trkpt lat="40.14097041450440883636474609375" lon="-0.8224244602024555206298828125">
        <ele>1151.800048828125</ele>
        <time>2022-08-26T17:01:35.000Z</time>
      </trkpt>
      <trkpt lat="40.1407691650092601776123046875" lon="-0.82204065285623073577880859375">
        <ele>1151.5999755859375</ele>
        <time>2022-08-26T17:01:42.000Z</time>
      </trkpt>
      <trkpt lat="40.14069548808038234710693359375" lon="-0.82189832814037799835205078125">
        <ele>1151.199951171875</ele>
        <time>2022-08-26T17:01:46.000Z</time>
      </trkpt>
      <trkpt lat="40.1405864395201206207275390625" lon="-0.8216583542525768280029296875">
        <ele>1151</ele>
        <time>2022-08-26T17:01:49.000Z</time>
      </trkpt>
      <trkpt lat="40.1405535824596881866455078125" lon="-0.821595489978790283203125">
        <ele>1151.199951171875</ele>
        <time>2022-08-26T17:01:50.000Z</time>
      </trkpt>
      <trkpt lat="40.14034545980393886566162109375" lon="-0.821183435618877410888671875">
        <ele>1150.5999755859375</ele>
        <time>2022-08-26T17:01:58.000Z</time>
      </trkpt>
      <trkpt lat="40.140207074582576751708984375" lon="-0.8209423720836639404296875">
        <ele>1150.800048828125</ele>
        <time>2022-08-26T17:02:01.000Z</time>
      </trkpt>
      <trkpt lat="40.14009551145136356353759765625" lon="-0.820781774818897247314453125">
        <ele>1150.4000244140625</ele>
        <time>2022-08-26T17:02:05.000Z</time>
      </trkpt>
      <trkpt lat="40.1398117840290069580078125" lon="-0.82046166993677616119384765625">
        <ele>1150.4000244140625</ele>
        <time>2022-08-26T17:02:12.000Z</time>
      </trkpt>
      <trkpt lat="40.1397774182260036468505859375" lon="-0.820436440408229827880859375">
        <ele>1150.4000244140625</ele>
        <time>2022-08-26T17:02:13.000Z</time>
      </trkpt>
      <trkpt lat="40.13956812210381031036376953125" lon="-0.82029872573912143707275390625">
        <ele>1149.5999755859375</ele>
        <time>2022-08-26T17:02:19.000Z</time>
      </trkpt>
      <trkpt lat="40.139533169567584991455078125" lon="-0.82027710042893886566162109375">
        <ele>1149.5999755859375</ele>
        <time>2022-08-26T17:02:20.000Z</time>
      </trkpt>
      <trkpt lat="40.13935706578195095062255859375" lon="-0.82019747234880924224853515625">
        <ele>1149</ele>
        <time>2022-08-26T17:02:26.000Z</time>
      </trkpt>
      <trkpt lat="40.139332003891468048095703125" lon="-0.82018439657986164093017578125">
        <ele>1148.800048828125</ele>
        <time>2022-08-26T17:02:27.000Z</time>
      </trkpt>
      <trkpt lat="40.1392037607729434967041015625" lon="-0.82013703882694244384765625">
        <ele>1148.5999755859375</ele>
        <time>2022-08-26T17:02:31.000Z</time>
      </trkpt>
      <trkpt lat="40.13900100253522396087646484375" lon="-0.82007425837218761444091796875">
        <ele>1148.199951171875</ele>
        <time>2022-08-26T17:02:36.000Z</time>
      </trkpt>
      <trkpt lat="40.13890989124774932861328125" lon="-0.8200383000075817108154296875">
        <ele>1148</ele>
        <time>2022-08-26T17:02:39.000Z</time>
      </trkpt>
      <trkpt lat="40.13871467672288417816162109375" lon="-0.819959007203578948974609375">
        <ele>1147.5999755859375</ele>
        <time>2022-08-26T17:02:43.000Z</time>
      </trkpt>
      <trkpt lat="40.138473026454448699951171875" lon="-0.8198679797351360321044921875">
        <ele>1147</ele>
        <time>2022-08-26T17:02:48.000Z</time>
      </trkpt>
      <trkpt lat="40.1383243314921855926513671875" lon="-0.81981517374515533447265625">
        <ele>1146.800048828125</ele>
        <time>2022-08-26T17:02:51.000Z</time>
      </trkpt>
      <trkpt lat="40.1380597986280918121337890625" lon="-0.8197264932096004486083984375">
        <ele>1146.199951171875</ele>
        <time>2022-08-26T17:02:56.000Z</time>
      </trkpt>
      <trkpt lat="40.137947984039783477783203125" lon="-0.81968550570309162139892578125">
        <ele>1145.800048828125</ele>
        <time>2022-08-26T17:02:58.000Z</time>
      </trkpt>
      <trkpt lat="40.13762385584414005279541015625" lon="-0.8195930533111095428466796875">
        <ele>1145.199951171875</ele>
        <time>2022-08-26T17:03:04.000Z</time>
      </trkpt>
      <trkpt lat="40.137566439807415008544921875" lon="-0.81958492286503314971923828125">
        <ele>1145</ele>
        <time>2022-08-26T17:03:05.000Z</time>
      </trkpt>
      <trkpt lat="40.13717089779675006866455078125" lon="-0.81956698559224605560302734375">
        <ele>1144.4000244140625</ele>
        <time>2022-08-26T17:03:12.000Z</time>
      </trkpt>
      <trkpt lat="40.13711624778807163238525390625" lon="-0.8195682428777217864990234375">
        <ele>1144.4000244140625</ele>
        <time>2022-08-26T17:03:13.000Z</time>
      </trkpt>
      <trkpt lat="40.13683143071830272674560546875" lon="-0.8196031115949153900146484375">
        <ele>1143.4000244140625</ele>
        <time>2022-08-26T17:03:18.000Z</time>
      </trkpt>
      <trkpt lat="40.13659137301146984100341796875" lon="-0.81965449266135692596435546875">
        <ele>1143.4000244140625</ele>
        <time>2022-08-26T17:03:21.000Z</time>
      </trkpt>
      <trkpt lat="40.1362764649093151092529296875" lon="-0.8197415806353092193603515625">
        <ele>1142.800048828125</ele>
        <time>2022-08-26T17:03:27.000Z</time>
      </trkpt>
      <trkpt lat="40.135974548757076263427734375" lon="-0.819831602275371551513671875">
        <ele>1142.199951171875</ele>
        <time>2022-08-26T17:03:34.000Z</time>
      </trkpt>
      <trkpt lat="40.1358774863183498382568359375" lon="-0.81985582597553730010986328125">
        <ele>1142</ele>
        <time>2022-08-26T17:03:36.000Z</time>
      </trkpt>
      <trkpt lat="40.13548697344958782196044921875" lon="-0.81996294669806957244873046875">
        <ele>1141.5999755859375</ele>
        <time>2022-08-26T17:03:43.000Z</time>
      </trkpt>
      <trkpt lat="40.13529016636312007904052734375" lon="-0.82001726143062114715576171875">
        <ele>1141.199951171875</ele>
        <time>2022-08-26T17:03:47.000Z</time>
      </trkpt>
      <trkpt lat="40.1348845660686492919921875" lon="-0.8201288245618343353271484375">
        <ele>1140.800048828125</ele>
        <time>2022-08-26T17:03:56.000Z</time>
      </trkpt>
      <trkpt lat="40.1347818039357662200927734375" lon="-0.8201657049357891082763671875">
        <ele>1140.800048828125</ele>
        <time>2022-08-26T17:03:58.000Z</time>
      </trkpt>
      <trkpt lat="40.1344223879277706146240234375" lon="-0.82027542404830455780029296875">
        <ele>1140.5999755859375</ele>
        <time>2022-08-26T17:04:05.000Z</time>
      </trkpt>
      <trkpt lat="40.1341739483177661895751953125" lon="-0.8203185908496379852294921875">
        <ele>1140.4000244140625</ele>
        <time>2022-08-26T17:04:10.000Z</time>
      </trkpt>
      <trkpt lat="40.13397973962128162384033203125" lon="-0.82036511041224002838134765625">
        <ele>1140.4000244140625</ele>
        <time>2022-08-26T17:04:13.000Z</time>
      </trkpt>
      <trkpt lat="40.1335828565061092376708984375" lon="-0.82046150229871273040771484375">
        <ele>1139.800048828125</ele>
        <time>2022-08-26T17:04:21.000Z</time>
      </trkpt>
      <trkpt lat="40.13315278105437755584716796875" lon="-0.8205278031527996063232421875">
        <ele>1139.4000244140625</ele>
        <time>2022-08-26T17:04:30.000Z</time>
      </trkpt>
      <trkpt lat="40.13305194675922393798828125" lon="-0.82053023390471935272216796875">
        <ele>1139.199951171875</ele>
        <time>2022-08-26T17:04:32.000Z</time>
      </trkpt>
      <trkpt lat="40.1326481066644191741943359375" lon="-0.820505507290363311767578125">
        <ele>1138.5999755859375</ele>
        <time>2022-08-26T17:04:40.000Z</time>
      </trkpt>
      <trkpt lat="40.1322886906564235687255859375" lon="-0.820408947765827178955078125">
        <ele>1138.4000244140625</ele>
        <time>2022-08-26T17:04:48.000Z</time>
      </trkpt>
      <trkpt lat="40.13204075396060943603515625" lon="-0.82028045319020748138427734375">
        <ele>1138</ele>
        <time>2022-08-26T17:04:52.000Z</time>
      </trkpt>
      <trkpt lat="40.1318984292447566986083984375" lon="-0.82017324864864349365234375">
        <ele>1137.5999755859375</ele>
        <time>2022-08-26T17:04:55.000Z</time>
      </trkpt>
      <trkpt lat="40.1315453834831714630126953125" lon="-0.819803439080715179443359375">
        <ele>1137.4000244140625</ele>
        <time>2022-08-26T17:05:03.000Z</time>
      </trkpt>
      <trkpt lat="40.1315078325569629669189453125" lon="-0.8197487890720367431640625">
        <ele>1137.4000244140625</ele>
        <time>2022-08-26T17:05:05.000Z</time>
      </trkpt>
      <trkpt lat="40.13126433826982975006103515625" lon="-0.819332040846347808837890625">
        <ele>1137</ele>
        <time>2022-08-26T17:05:12.000Z</time>
      </trkpt>
      <trkpt lat="40.1311561278998851776123046875" lon="-0.8190787397325038909912109375">
        <ele>1136.800048828125</ele>
        <time>2022-08-26T17:05:15.000Z</time>
      </trkpt>
      <trkpt lat="40.13106099329888820648193359375" lon="-0.81877975724637508392333984375">
        <ele>1136.5999755859375</ele>
        <time>2022-08-26T17:05:19.000Z</time>
      </trkpt>
      <trkpt lat="40.13097952120006084442138671875" lon="-0.81838077865540981292724609375">
        <ele>1136.199951171875</ele>
        <time>2022-08-26T17:05:24.000Z</time>
      </trkpt>
      <trkpt lat="40.13095940463244915008544921875" lon="-0.81822588108479976654052734375">
        <ele>1136</ele>
        <time>2022-08-26T17:05:27.000Z</time>
      </trkpt>
      <trkpt lat="40.13097801245748996734619140625" lon="-0.81770821474492549896240234375">
        <ele>1136.199951171875</ele>
        <time>2022-08-26T17:05:34.000Z</time>
      </trkpt>
      <trkpt lat="40.1311008073389530181884765625" lon="-0.8170409314334392547607421875">
        <ele>1136</ele>
        <time>2022-08-26T17:05:43.000Z</time>
      </trkpt>
      <trkpt lat="40.13115135021507740020751953125" lon="-0.81682140938937664031982421875">
        <ele>1136</ele>
        <time>2022-08-26T17:05:46.000Z</time>
      </trkpt>
      <trkpt lat="40.131259225308895111083984375" lon="-0.81634028814733028411865234375">
        <ele>1135.800048828125</ele>
        <time>2022-08-26T17:05:52.000Z</time>
      </trkpt>
      <trkpt lat="40.13128864578902721405029296875" lon="-0.8162017352879047393798828125">
        <ele>1135.5999755859375</ele>
        <time>2022-08-26T17:05:55.000Z</time>
      </trkpt>
      <trkpt lat="40.13141169212758541107177734375" lon="-0.81566772423684597015380859375">
        <ele>1135</ele>
        <time>2022-08-26T17:06:02.000Z</time>
      </trkpt>
      <trkpt lat="40.1315061561763286590576171875" lon="-0.81524510867893695831298828125">
        <ele>1135</ele>
        <time>2022-08-26T17:06:09.000Z</time>
      </trkpt>
      <trkpt lat="40.1315162144601345062255859375" lon="-0.81519112922251224517822265625">
        <ele>1135</ele>
        <time>2022-08-26T17:06:10.000Z</time>
      </trkpt>
      <trkpt lat="40.13260376639664173126220703125" lon="-0.8109868504106998443603515625">
        <ele>1132.800048828125</ele>
        <time>2022-08-26T17:07:21.000Z</time>
      </trkpt>
      <trkpt lat="40.132680125534534454345703125" lon="-0.8105188049376010894775390625">
        <ele>1132.5999755859375</ele>
        <time>2022-08-26T17:07:27.000Z</time>
      </trkpt>
      <trkpt lat="40.13273569755256175994873046875" lon="-0.81030984409153461456298828125">
        <ele>1132.199951171875</ele>
        <time>2022-08-26T17:07:30.000Z</time>
      </trkpt>
      <trkpt lat="40.13280920684337615966796875" lon="-0.8099453151226043701171875">
        <ele>1131.800048828125</ele>
        <time>2022-08-26T17:07:35.000Z</time>
      </trkpt>
      <trkpt lat="40.1328948698937892913818359375" lon="-0.809596963226795196533203125">
        <ele>1131.4000244140625</ele>
        <time>2022-08-26T17:07:40.000Z</time>
      </trkpt>
      <trkpt lat="40.13298128731548786163330078125" lon="-0.80926445312798023223876953125">
        <ele>1131.199951171875</ele>
        <time>2022-08-26T17:07:45.000Z</time>
      </trkpt>
      <trkpt lat="40.133082456886768341064453125" lon="-0.8088776282966136932373046875">
        <ele>1130.800048828125</ele>
        <time>2022-08-26T17:07:51.000Z</time>
      </trkpt>
      <trkpt lat="40.1331034116446971893310546875" lon="-0.8087951503694057464599609375">
        <ele>1130.800048828125</ele>
        <time>2022-08-26T17:07:52.000Z</time>
      </trkpt>
      <trkpt lat="40.1332153938710689544677734375" lon="-0.8083250932395458221435546875">
        <ele>1130.4000244140625</ele>
        <time>2022-08-26T17:07:57.000Z</time>
      </trkpt>
      <trkpt lat="40.13326191343367099761962890625" lon="-0.80816902220249176025390625">
        <ele>1130.199951171875</ele>
        <time>2022-08-26T17:08:00.000Z</time>
      </trkpt>
      <trkpt lat="40.13330667279660701751708984375" lon="-0.80800130032002925872802734375">
        <ele>1129.800048828125</ele>
        <time>2022-08-26T17:08:01.000Z</time>
      </trkpt>
      <trkpt lat="40.13338982127606868743896484375" lon="-0.80762830562889575958251953125">
        <ele>1129</ele>
        <time>2022-08-26T17:08:06.000Z</time>
      </trkpt>
      <trkpt lat="40.13341999612748622894287109375" lon="-0.80754247494041919708251953125">
        <ele>1129</ele>
        <time>2022-08-26T17:08:07.000Z</time>
      </trkpt>
      <trkpt lat="40.13353130780160427093505859375" lon="-0.80709085799753665924072265625">
        <ele>1128</ele>
        <time>2022-08-26T17:08:12.000Z</time>
      </trkpt>
      <trkpt lat="40.13361529447138309478759765625" lon="-0.806725323200225830078125">
        <ele>1127.199951171875</ele>
        <time>2022-08-26T17:08:16.000Z</time>
      </trkpt>
      <trkpt lat="40.13365753926336765289306640625" lon="-0.8065404184162616729736328125">
        <ele>1126.199951171875</ele>
        <time>2022-08-26T17:08:18.000Z</time>
      </trkpt>
      <trkpt lat="40.13369726948440074920654296875" lon="-0.80636146478354930877685546875">
        <ele>1125.5999755859375</ele>
        <time>2022-08-26T17:08:20.000Z</time>
      </trkpt>
      <trkpt lat="40.13373649679124355316162109375" lon="-0.8060896396636962890625">
        <ele>1125.199951171875</ele>
        <time>2022-08-26T17:08:23.000Z</time>
      </trkpt>
      <trkpt lat="40.133775807917118072509765625" lon="-0.80573097802698612213134765625">
        <ele>1124.199951171875</ele>
        <time>2022-08-26T17:08:26.000Z</time>
      </trkpt>
      <trkpt lat="40.133775807917118072509765625" lon="-0.80573097802698612213134765625">
        <ele>1123.800048828125</ele>
        <time>2022-08-26T17:08:27.000Z</time>
      </trkpt>
      <trkpt lat="40.1337930746376514434814453125" lon="-0.80545739270746707916259765625">
        <ele>1123.199951171875</ele>
        <time>2022-08-26T17:08:30.000Z</time>
      </trkpt>
      <trkpt lat="40.1337907277047634124755859375" lon="-0.8051708154380321502685546875">
        <ele>1122.199951171875</ele>
        <time>2022-08-26T17:08:33.000Z</time>
      </trkpt>
      <trkpt lat="40.1337863691151142120361328125" lon="-0.8050729148089885711669921875">
        <ele>1121.800048828125</ele>
        <time>2022-08-26T17:08:34.000Z</time>
      </trkpt>
      <trkpt lat="40.13376734219491481781005859375" lon="-0.80477996729314327239990234375">
        <ele>1121</ele>
        <time>2022-08-26T17:08:37.000Z</time>
      </trkpt>
      <trkpt lat="40.13373280875384807586669921875" lon="-0.8044808171689510345458984375">
        <ele>1120</ele>
        <time>2022-08-26T17:08:40.000Z</time>
      </trkpt>
      <trkpt lat="40.1336998678743839263916015625" lon="-0.80427956767380237579345703125">
        <ele>1119.5999755859375</ele>
        <time>2022-08-26T17:08:41.000Z</time>
      </trkpt>
      <trkpt lat="40.13365904800593852996826171875" lon="-0.80408058129251003265380859375">
        <ele>1118.800048828125</ele>
        <time>2022-08-26T17:08:43.000Z</time>
      </trkpt>
      <trkpt lat="40.133607499301433563232421875" lon="-0.80388645641505718231201171875">
        <ele>1117.800048828125</ele>
        <time>2022-08-26T17:08:46.000Z</time>
      </trkpt>
      <trkpt lat="40.13352745212614536285400390625" lon="-0.80359795130789279937744140625">
        <ele>1116.4000244140625</ele>
        <time>2022-08-26T17:08:48.000Z</time>
      </trkpt>
      <trkpt lat="40.13347011990845203399658203125" lon="-0.803415141999721527099609375">
        <ele>1115.5999755859375</ele>
        <time>2022-08-26T17:08:51.000Z</time>
      </trkpt>
      <trkpt lat="40.133339278399944305419921875" lon="-0.80306318588554859161376953125">
        <ele>1114.4000244140625</ele>
        <time>2022-08-26T17:08:54.000Z</time>
      </trkpt>
      <trkpt lat="40.13326694257557392120361328125" lon="-0.80289739184081554412841796875">
        <ele>1114</ele>
        <time>2022-08-26T17:08:56.000Z</time>
      </trkpt>
      <trkpt lat="40.13318815268576145172119140625" lon="-0.80274266190826892852783203125">
        <ele>1113.199951171875</ele>
        <time>2022-08-26T17:08:58.000Z</time>
      </trkpt>
      <trkpt lat="40.133108608424663543701171875" lon="-0.8025935478508472442626953125">
        <ele>1112.199951171875</ele>
        <time>2022-08-26T17:09:01.000Z</time>
      </trkpt>
      <trkpt lat="40.13293736614286899566650390625" lon="-0.8023196272552013397216796875">
        <ele>1111.199951171875</ele>
        <time>2022-08-26T17:09:04.000Z</time>
      </trkpt>
      <trkpt lat="40.1328972168266773223876953125" lon="-0.80225634388625621795654296875">
        <ele>1110</ele>
        <time>2022-08-26T17:09:06.000Z</time>
      </trkpt>
      <trkpt lat="40.13276972807943820953369140625" lon="-0.80207143910229206085205078125">
        <ele>1109</ele>
        <time>2022-08-26T17:09:09.000Z</time>
      </trkpt>
      <trkpt lat="40.13267853297293186187744140625" lon="-0.8019602112472057342529296875">
        <ele>1108.199951171875</ele>
        <time>2022-08-26T17:09:11.000Z</time>
      </trkpt>
      <trkpt lat="40.13263377360999584197998046875" lon="-0.80190396867692470550537109375">
        <ele>1107.800048828125</ele>
        <time>2022-08-26T17:09:12.000Z</time>
      </trkpt>
      <trkpt lat="40.13244199566543102264404296875" lon="-0.8016779087483882904052734375">
        <ele>1107</ele>
        <time>2022-08-26T17:09:15.000Z</time>
      </trkpt>
      <trkpt lat="40.13228709809482097625732421875" lon="-0.8015196584165096282958984375">
        <ele>1105.4000244140625</ele>
        <time>2022-08-26T17:09:18.000Z</time>
      </trkpt>
      <trkpt lat="40.1321290992200374603271484375" lon="-0.80136870034039020538330078125">
        <ele>1104.199951171875</ele>
        <time>2022-08-26T17:09:21.000Z</time>
      </trkpt>
      <trkpt lat="40.1319668255746364593505859375" lon="-0.801233164966106414794921875">
        <ele>1103.199951171875</ele>
        <time>2022-08-26T17:09:24.000Z</time>
      </trkpt>
      <trkpt lat="40.13180815614759922027587890625" lon="-0.80110467039048671722412109375">
        <ele>1102</ele>
        <time>2022-08-26T17:09:27.000Z</time>
      </trkpt>
      <trkpt lat="40.1317549310624599456787109375" lon="-0.8010589890182018280029296875">
        <ele>1101.5999755859375</ele>
        <time>2022-08-26T17:09:28.000Z</time>
      </trkpt>
      <trkpt lat="40.1316469721496105194091796875" lon="-0.80096687190234661102294921875">
        <ele>1101</ele>
        <time>2022-08-26T17:09:30.000Z</time>
      </trkpt>
      <trkpt lat="40.131482183933258056640625" lon="-0.8008303306996822357177734375">
        <ele>1099.800048828125</ele>
        <time>2022-08-26T17:09:33.000Z</time>
      </trkpt>
      <trkpt lat="40.1313717104494571685791015625" lon="-0.80073796212673187255859375">
        <ele>1098.5999755859375</ele>
        <time>2022-08-26T17:09:36.000Z</time>
      </trkpt>
      <trkpt lat="40.1311616599559783935546875" lon="-0.8005624450743198394775390625">
        <ele>1097.4000244140625</ele>
        <time>2022-08-26T17:09:39.000Z</time>
      </trkpt>
      <trkpt lat="40.13102109543979167938232421875" lon="-0.80044618807733058929443359375">
        <ele>1096.199951171875</ele>
        <time>2022-08-26T17:09:42.000Z</time>
      </trkpt>
      <trkpt lat="40.1308263838291168212890625" lon="-0.8002808131277561187744140625">
        <ele>1095.199951171875</ele>
        <time>2022-08-26T17:09:46.000Z</time>
      </trkpt>
      <trkpt lat="40.13077835552394390106201171875" lon="-0.80024116672575473785400390625">
        <ele>1093.800048828125</ele>
        <time>2022-08-26T17:09:48.000Z</time>
      </trkpt>
      <trkpt lat="40.13073158450424671173095703125" lon="-0.80020244233310222625732421875">
        <ele>1093.5999755859375</ele>
        <time>2022-08-26T17:09:49.000Z</time>
      </trkpt>
      <trkpt lat="40.13063888065516948699951171875" lon="-0.80012750811874866485595703125">
        <ele>1092.800048828125</ele>
        <time>2022-08-26T17:09:51.000Z</time>
      </trkpt>
      <trkpt lat="40.130404941737651824951171875" lon="-0.79992525279521942138671875">
        <ele>1091.5999755859375</ele>
        <time>2022-08-26T17:09:55.000Z</time>
      </trkpt>
      <trkpt lat="40.130306370556354522705078125" lon="-0.79984101466834545135498046875">
        <ele>1090.199951171875</ele>
        <time>2022-08-26T17:09:58.000Z</time>
      </trkpt>
      <trkpt lat="40.1302575878798961639404296875" lon="-0.79980053007602691650390625">
        <ele>1090</ele>
        <time>2022-08-26T17:09:59.000Z</time>
      </trkpt>
      <trkpt lat="40.13010629452764987945556640625" lon="-0.79967471770942211151123046875">
        <ele>1089.199951171875</ele>
        <time>2022-08-26T17:10:01.000Z</time>
      </trkpt>
      <trkpt lat="40.12995324097573757171630859375" lon="-0.7995450496673583984375">
        <ele>1088.199951171875</ele>
        <time>2022-08-26T17:10:04.000Z</time>
      </trkpt>
      <trkpt lat="40.12985316105186939239501953125" lon="-0.79945779405534267425537109375">
        <ele>1087.4000244140625</ele>
        <time>2022-08-26T17:10:07.000Z</time>
      </trkpt>
      <trkpt lat="40.12965501286089420318603515625" lon="-0.79928730614483356475830078125">
        <ele>1086</ele>
        <time>2022-08-26T17:10:10.000Z</time>
      </trkpt>
      <trkpt lat="40.12950648553669452667236328125" lon="-0.79916895367205142974853515625">
        <ele>1084.800048828125</ele>
        <time>2022-08-26T17:10:14.000Z</time>
      </trkpt>
      <trkpt lat="40.12932158075273036956787109375" lon="-0.79900785349309444427490234375">
        <ele>1083.4000244140625</ele>
        <time>2022-08-26T17:10:18.000Z</time>
      </trkpt>
      <trkpt lat="40.12922602705657482147216796875" lon="-0.79891967587172985076904296875">
        <ele>1082.800048828125</ele>
        <time>2022-08-26T17:10:20.000Z</time>
      </trkpt>
      <trkpt lat="40.12912561185657978057861328125" lon="-0.79883225262165069580078125">
        <ele>1082.4000244140625</ele>
        <time>2022-08-26T17:10:21.000Z</time>
      </trkpt>
      <trkpt lat="40.128973983228206634521484375" lon="-0.79870426096022129058837890625">
        <ele>1081.199951171875</ele>
        <time>2022-08-26T17:10:24.000Z</time>
      </trkpt>
      <trkpt lat="40.12882252223789691925048828125" lon="-0.7985722459852695465087890625">
        <ele>1080.199951171875</ele>
        <time>2022-08-26T17:10:27.000Z</time>
      </trkpt>
      <trkpt lat="40.1287736557424068450927734375" lon="-0.798530839383602142333984375">
        <ele>1079.5999755859375</ele>
        <time>2022-08-26T17:10:29.000Z</time>
      </trkpt>
      <trkpt lat="40.128724873065948486328125" lon="-0.7984924502670764923095703125">
        <ele>1079</ele>
        <time>2022-08-26T17:10:30.000Z</time>
      </trkpt>
      <trkpt lat="40.12854181230068206787109375" lon="-0.79835347831249237060546875">
        <ele>1077.5999755859375</ele>
        <time>2022-08-26T17:10:33.000Z</time>
      </trkpt>
      <trkpt lat="40.1285009086132049560546875" lon="-0.7983204536139965057373046875">
        <ele>1077</ele>
        <time>2022-08-26T17:10:35.000Z</time>
      </trkpt>
      <trkpt lat="40.12841532938182353973388671875" lon="-0.79823839478194713592529296875">
        <ele>1076.5999755859375</ele>
        <time>2022-08-26T17:10:36.000Z</time>
      </trkpt>
      <trkpt lat="40.128271579742431640625" lon="-0.798115096986293792724609375">
        <ele>1075.5999755859375</ele>
        <time>2022-08-26T17:10:39.000Z</time>
      </trkpt>
      <trkpt lat="40.12817041017115116119384765625" lon="-0.79802800901234149932861328125">
        <ele>1075</ele>
        <time>2022-08-26T17:10:41.000Z</time>
      </trkpt>
      <trkpt lat="40.12812011875212192535400390625" lon="-0.79798190854489803314208984375">
        <ele>1074.4000244140625</ele>
        <time>2022-08-26T17:10:42.000Z</time>
      </trkpt>
      <trkpt lat="40.12796647846698760986328125" lon="-0.7978463731706142425537109375">
        <ele>1073.5999755859375</ele>
        <time>2022-08-26T17:10:45.000Z</time>
      </trkpt>
      <trkpt lat="40.12786162085831165313720703125" lon="-0.79775811173021793365478515625">
        <ele>1072.4000244140625</ele>
        <time>2022-08-26T17:10:47.000Z</time>
      </trkpt>
      <trkpt lat="40.1277001015841960906982421875" lon="-0.79762618057429790496826171875">
        <ele>1071</ele>
        <time>2022-08-26T17:10:50.000Z</time>
      </trkpt>
      <trkpt lat="40.12759172357618808746337890625" lon="-0.7975382544100284576416015625">
        <ele>1070.199951171875</ele>
        <time>2022-08-26T17:10:52.000Z</time>
      </trkpt>
      <trkpt lat="40.12753740884363651275634765625" lon="-0.79749374650418758392333984375">
        <ele>1069.800048828125</ele>
        <time>2022-08-26T17:10:53.000Z</time>
      </trkpt>
      <trkpt lat="40.127426683902740478515625" lon="-0.79740238375961780548095703125">
        <ele>1068.5999755859375</ele>
        <time>2022-08-26T17:10:56.000Z</time>
      </trkpt>
      <trkpt lat="40.12720741331577301025390625" lon="-0.7972137071192264556884765625">
        <ele>1067.4000244140625</ele>
        <time>2022-08-26T17:11:00.000Z</time>
      </trkpt>
      <trkpt lat="40.12704405002295970916748046875" lon="-0.79707716591656208038330078125">
        <ele>1066.199951171875</ele>
        <time>2022-08-26T17:11:03.000Z</time>
      </trkpt>
      <trkpt lat="40.1269886456429958343505859375" lon="-0.79703223891556262969970703125">
        <ele>1065.800048828125</ele>
        <time>2022-08-26T17:11:04.000Z</time>
      </trkpt>
      <trkpt lat="40.1268293894827365875244140625" lon="-0.79690449871122837066650390625">
        <ele>1065</ele>
        <time>2022-08-26T17:11:06.000Z</time>
      </trkpt>
      <trkpt lat="40.1266661100089550018310546875" lon="-0.7967899180948734283447265625">
        <ele>1064</ele>
        <time>2022-08-26T17:11:09.000Z</time>
      </trkpt>
      <trkpt lat="40.12655136175453662872314453125" lon="-0.7967107929289340972900390625">
        <ele>1062.800048828125</ele>
        <time>2022-08-26T17:11:12.000Z</time>
      </trkpt>
      <trkpt lat="40.1262612640857696533203125" lon="-0.79651088453829288482666015625">
        <ele>1061.4000244140625</ele>
        <time>2022-08-26T17:11:16.000Z</time>
      </trkpt>
      <trkpt lat="40.12614031322300434112548828125" lon="-0.79643301665782928466796875">
        <ele>1060.4000244140625</ele>
        <time>2022-08-26T17:11:18.000Z</time>
      </trkpt>
      <trkpt lat="40.12590645812451839447021484375" lon="-0.7962916977703571319580078125">
        <ele>1059.4000244140625</ele>
        <time>2022-08-26T17:11:22.000Z</time>
      </trkpt>
      <trkpt lat="40.1257327012717723846435546875" lon="-0.79617661423981189727783203125">
        <ele>1058.4000244140625</ele>
        <time>2022-08-26T17:11:25.000Z</time>
      </trkpt>
      <trkpt lat="40.12555249035358428955078125" lon="-0.796046443283557891845703125">
        <ele>1057.199951171875</ele>
        <time>2022-08-26T17:11:28.000Z</time>
      </trkpt>
      <trkpt lat="40.12555249035358428955078125" lon="-0.796046443283557891845703125">
        <ele>1057</ele>
        <time>2022-08-26T17:11:29.000Z</time>
      </trkpt>
      <trkpt lat="40.12535140849649906158447265625" lon="-0.7959158532321453094482421875">
        <ele>1056.199951171875</ele>
        <time>2022-08-26T17:11:31.000Z</time>
      </trkpt>
      <trkpt lat="40.12522660195827484130859375" lon="-0.79583932645618915557861328125">
        <ele>1055</ele>
        <time>2022-08-26T17:11:34.000Z</time>
      </trkpt>
      <trkpt lat="40.12516616843640804290771484375" lon="-0.79580009914934635162353515625">
        <ele>1054.5999755859375</ele>
        <time>2022-08-26T17:11:35.000Z</time>
      </trkpt>
      <trkpt lat="40.1249950937926769256591796875" lon="-0.79567889682948589324951171875">
        <ele>1053.800048828125</ele>
        <time>2022-08-26T17:11:37.000Z</time>
      </trkpt>
      <trkpt lat="40.124881267547607421875" lon="-0.79558937810361385345458984375">
        <ele>1052.800048828125</ele>
        <time>2022-08-26T17:11:40.000Z</time>
      </trkpt>
      <trkpt lat="40.12471019290387630462646484375" lon="-0.79543900676071643829345703125">
        <ele>1051.4000244140625</ele>
        <time>2022-08-26T17:11:43.000Z</time>
      </trkpt>
      <trkpt lat="40.124603323638439178466796875" lon="-0.7953301258385181427001953125">
        <ele>1051</ele>
        <time>2022-08-26T17:11:44.000Z</time>
      </trkpt>
      <trkpt lat="40.12454842217266559600830078125" lon="-0.7952734641730785369873046875">
        <ele>1050.199951171875</ele>
        <time>2022-08-26T17:11:46.000Z</time>
      </trkpt>
      <trkpt lat="40.12438849546015262603759765625" lon="-0.79509333707392215728759765625">
        <ele>1048.800048828125</ele>
        <time>2022-08-26T17:11:49.000Z</time>
      </trkpt>
      <trkpt lat="40.12423493899405002593994140625" lon="-0.7949115335941314697265625">
        <ele>1047.5999755859375</ele>
        <time>2022-08-26T17:11:52.000Z</time>
      </trkpt>
      <trkpt lat="40.12414156459271907806396484375" lon="-0.79478572122752666473388671875">
        <ele>1046.5999755859375</ele>
        <time>2022-08-26T17:11:54.000Z</time>
      </trkpt>
      <trkpt lat="40.12405313551425933837890625" lon="-0.79466141760349273681640625">
        <ele>1046.199951171875</ele>
        <time>2022-08-26T17:11:55.000Z</time>
      </trkpt>
      <trkpt lat="40.12391340918838977813720703125" lon="-0.794474668800830841064453125">
        <ele>1045</ele>
        <time>2022-08-26T17:11:58.000Z</time>
      </trkpt>
      <trkpt lat="40.1237817294895648956298828125" lon="-0.79430066049098968505859375">
        <ele>1044</ele>
        <time>2022-08-26T17:12:01.000Z</time>
      </trkpt>
      <trkpt lat="40.12362775392830371856689453125" lon="-0.79410159029066562652587890625">
        <ele>1042.5999755859375</ele>
        <time>2022-08-26T17:12:05.000Z</time>
      </trkpt>
      <trkpt lat="40.12351040728390216827392578125" lon="-0.79395540989935398101806640625">
        <ele>1041.5999755859375</ele>
        <time>2022-08-26T17:12:08.000Z</time>
      </trkpt>
      <trkpt lat="40.12351040728390216827392578125" lon="-0.79395540989935398101806640625">
        <ele>1041.199951171875</ele>
        <time>2022-08-26T17:12:09.000Z</time>
      </trkpt>
      <trkpt lat="40.12339741922914981842041015625" lon="-0.7938099838793277740478515625">
        <ele>1040.199951171875</ele>
        <time>2022-08-26T17:12:11.000Z</time>
      </trkpt>
      <trkpt lat="40.12331896461546421051025390625" lon="-0.79370982013642787933349609375">
        <ele>1039</ele>
        <time>2022-08-26T17:12:14.000Z</time>
      </trkpt>
      <trkpt lat="40.12320647947490215301513671875" lon="-0.79356162808835506439208984375">
        <ele>1037.199951171875</ele>
        <time>2022-08-26T17:12:17.000Z</time>
      </trkpt>
      <trkpt lat="40.12313523329794406890869140625" lon="-0.7934626378118991851806640625">
        <ele>1036.5999755859375</ele>
        <time>2022-08-26T17:12:19.000Z</time>
      </trkpt>
      <trkpt lat="40.12310053221881389617919921875" lon="-0.79341175965964794158935546875">
        <ele>1036.199951171875</ele>
        <time>2022-08-26T17:12:20.000Z</time>
      </trkpt>
      <trkpt lat="40.1229817606508731842041015625" lon="-0.79326122067868709564208984375">
        <ele>1035</ele>
        <time>2022-08-26T17:12:23.000Z</time>
      </trkpt>
      <trkpt lat="40.1228198222815990447998046875" lon="-0.79305301420390605926513671875">
        <ele>1033.800048828125</ele>
        <time>2022-08-26T17:12:26.000Z</time>
      </trkpt>
      <trkpt lat="40.122780092060565948486328125" lon="-0.7929979451000690460205078125">
        <ele>1033.4000244140625</ele>
        <time>2022-08-26T17:12:27.000Z</time>
      </trkpt>
      <trkpt lat="40.122664757072925567626953125" lon="-0.79283793456852436065673828125">
        <ele>1032.4000244140625</ele>
        <time>2022-08-26T17:12:30.000Z</time>
      </trkpt>
      <trkpt lat="40.12254497967660427093505859375" lon="-0.7926821149885654449462890625">
        <ele>1031.199951171875</ele>
        <time>2022-08-26T17:12:33.000Z</time>
      </trkpt>
      <trkpt lat="40.12246518395841121673583984375" lon="-0.7925781793892383575439453125">
        <ele>1030.199951171875</ele>
        <time>2022-08-26T17:12:36.000Z</time>
      </trkpt>
      <trkpt lat="40.12235303409397602081298828125" lon="-0.79242646694183349609375">
        <ele>1029.199951171875</ele>
        <time>2022-08-26T17:12:38.000Z</time>
      </trkpt>
      <trkpt lat="40.12235303409397602081298828125" lon="-0.79242646694183349609375">
        <ele>1029</ele>
        <time>2022-08-26T17:12:39.000Z</time>
      </trkpt>
      <trkpt lat="40.12217567302286624908447265625" lon="-0.79217509366571903228759765625">
        <ele>1027.5999755859375</ele>
        <time>2022-08-26T17:12:43.000Z</time>
      </trkpt>
      <trkpt lat="40.12207978405058383941650390625" lon="-0.792022459208965301513671875">
        <ele>1025.800048828125</ele>
        <time>2022-08-26T17:12:47.000Z</time>
      </trkpt>
      <trkpt lat="40.122006274759769439697265625" lon="-0.79187485389411449432373046875">
        <ele>1024.5999755859375</ele>
        <time>2022-08-26T17:12:50.000Z</time>
      </trkpt>
      <trkpt lat="40.1219494454562664031982421875" lon="-0.7917235605418682098388671875">
        <ele>1023.5999755859375</ele>
        <time>2022-08-26T17:12:53.000Z</time>
      </trkpt>
      <trkpt lat="40.12187861837446689605712890625" lon="-0.7914970815181732177734375">
        <ele>1022.4000244140625</ele>
        <time>2022-08-26T17:12:57.000Z</time>
      </trkpt>
      <trkpt lat="40.12181240133941173553466796875" lon="-0.79124822281301021575927734375">
        <ele>1021.20001220703125</ele>
        <time>2022-08-26T17:13:01.000Z</time>
      </trkpt>
      <trkpt lat="40.1217455975711345672607421875" lon="-0.79090255312621593475341796875">
        <ele>1019.79998779296875</ele>
        <time>2022-08-26T17:13:05.000Z</time>
      </trkpt>
      <trkpt lat="40.121697150170803070068359375" lon="-0.7906349189579486846923828125">
        <ele>1018.5999755859375</ele>
        <time>2022-08-26T17:13:09.000Z</time>
      </trkpt>
      <trkpt lat="40.12166957370936870574951171875" lon="-0.79049594700336456298828125">
        <ele>1017.5999755859375</ele>
        <time>2022-08-26T17:13:12.000Z</time>
      </trkpt>
      <trkpt lat="40.1216118223965167999267578125" lon="-0.7902533747255802154541015625">
        <ele>1016.20001220703125</ele>
        <time>2022-08-26T17:13:15.000Z</time>
      </trkpt>
      <trkpt lat="40.12158156372606754302978515625" lon="-0.790122449398040771484375">
        <ele>1014.79998779296875</ele>
        <time>2022-08-26T17:13:17.000Z</time>
      </trkpt>
      <trkpt lat="40.1215424202382564544677734375" lon="-0.78993729315698146820068359375">
        <ele>1013.5999755859375</ele>
        <time>2022-08-26T17:13:21.000Z</time>
      </trkpt>
      <trkpt lat="40.12148517183959484100341796875" lon="-0.789634287357330322265625">
        <ele>1012.4000244140625</ele>
        <time>2022-08-26T17:13:25.000Z</time>
      </trkpt>
      <trkpt lat="40.12148517183959484100341796875" lon="-0.789634287357330322265625">
        <ele>1012</ele>
        <time>2022-08-26T17:13:26.000Z</time>
      </trkpt>
      <trkpt lat="40.12144225649535655975341796875" lon="-0.789409317076206207275390625">
        <ele>1010.79998779296875</ele>
        <time>2022-08-26T17:13:29.000Z</time>
      </trkpt>
      <trkpt lat="40.12141576968133449554443359375" lon="-0.78923556022346019744873046875">
        <ele>1009.79998779296875</ele>
        <time>2022-08-26T17:13:32.000Z</time>
      </trkpt>
      <trkpt lat="40.12138031423091888427734375" lon="-0.7890571095049381256103515625">
        <ele>1008.5999755859375</ele>
        <time>2022-08-26T17:13:36.000Z</time>
      </trkpt>
      <trkpt lat="40.1213573478162288665771484375" lon="-0.788931883871555328369140625">
        <ele>1008</ele>
        <time>2022-08-26T17:13:37.000Z</time>
      </trkpt>
      <trkpt lat="40.12133614160120487213134765625" lon="-0.78882333822548389434814453125">
        <ele>1007.4000244140625</ele>
        <time>2022-08-26T17:13:39.000Z</time>
      </trkpt>
      <trkpt lat="40.12129607610404491424560546875" lon="-0.788647234439849853515625">
        <ele>1006.20001220703125</ele>
        <time>2022-08-26T17:13:43.000Z</time>
      </trkpt>
      <trkpt lat="40.121277384459972381591796875" lon="-0.7885511778295040130615234375">
        <ele>1005.4000244140625</ele>
        <time>2022-08-26T17:13:45.000Z</time>
      </trkpt>
      <trkpt lat="40.12126422487199306488037109375" lon="-0.78845520503818988800048828125">
        <ele>1004.5999755859375</ele>
        <time>2022-08-26T17:13:47.000Z</time>
      </trkpt>
      <trkpt lat="40.12124779634177684783935546875" lon="-0.78828052617609500885009765625">
        <ele>1003.4000244140625</ele>
        <time>2022-08-26T17:13:51.000Z</time>
      </trkpt>
      <trkpt lat="40.1212428510189056396484375" lon="-0.78824414871633052825927734375">
        <ele>1003</ele>
        <time>2022-08-26T17:13:53.000Z</time>
      </trkpt>
      <trkpt lat="40.12123153544962406158447265625" lon="-0.7881280593574047088623046875">
        <ele>1002.4000244140625</ele>
        <time>2022-08-26T17:13:56.000Z</time>
      </trkpt>
      <trkpt lat="40.121223740279674530029296875" lon="-0.7880251295864582061767578125">
        <ele>1001.5999755859375</ele>
        <time>2022-08-26T17:13:58.000Z</time>
      </trkpt>
      <trkpt lat="40.12121041305363178253173828125" lon="-0.7879215292632579803466796875">
        <ele>1001.20001220703125</ele>
        <time>2022-08-26T17:14:00.000Z</time>
      </trkpt>
      <trkpt lat="40.121149308979511260986328125" lon="-0.7876405678689479827880859375">
        <ele>999.79998779296875</ele>
        <time>2022-08-26T17:14:05.000Z</time>
      </trkpt>
      <trkpt lat="40.1210854388773441314697265625" lon="-0.78732280991971492767333984375">
        <ele>998.4000244140625</ele>
        <time>2022-08-26T17:14:10.000Z</time>
      </trkpt>
      <trkpt lat="40.1210854388773441314697265625" lon="-0.78732280991971492767333984375">
        <ele>998.20001220703125</ele>
        <time>2022-08-26T17:14:11.000Z</time>
      </trkpt>
      <trkpt lat="40.12104243971407413482666015625" lon="-0.7870866917073726654052734375">
        <ele>997.20001220703125</ele>
        <time>2022-08-26T17:14:15.000Z</time>
      </trkpt>
      <trkpt lat="40.12100706808269023895263671875" lon="-0.78693573363125324249267578125">
        <ele>995.79998779296875</ele>
        <time>2022-08-26T17:14:18.000Z</time>
      </trkpt>
      <trkpt lat="40.12100706808269023895263671875" lon="-0.78693573363125324249267578125">
        <ele>995.4000244140625</ele>
        <time>2022-08-26T17:14:19.000Z</time>
      </trkpt>
      <trkpt lat="40.12096683494746685028076171875" lon="-0.78674621880054473876953125">
        <ele>994.20001220703125</ele>
        <time>2022-08-26T17:14:23.000Z</time>
      </trkpt>
      <trkpt lat="40.12092408724129199981689453125" lon="-0.78650238923728466033935546875">
        <ele>993.20001220703125</ele>
        <time>2022-08-26T17:14:27.000Z</time>
      </trkpt>
      <trkpt lat="40.12092408724129199981689453125" lon="-0.78650238923728466033935546875">
        <ele>993</ele>
        <time>2022-08-26T17:14:28.000Z</time>
      </trkpt>
      <trkpt lat="40.12089424766600131988525390625" lon="-0.7863279618322849273681640625">
        <ele>992.20001220703125</ele>
        <time>2022-08-26T17:14:31.000Z</time>
      </trkpt>
      <trkpt lat="40.12085921131074428558349609375" lon="-0.78616225160658359527587890625">
        <ele>990.79998779296875</ele>
        <time>2022-08-26T17:14:35.000Z</time>
      </trkpt>
      <trkpt lat="40.12084932066500186920166015625" lon="-0.7861231081187725067138671875">
        <ele>990.5999755859375</ele>
        <time>2022-08-26T17:14:37.000Z</time>
      </trkpt>
      <trkpt lat="40.12081998400390148162841796875" lon="-0.7859769277274608612060546875">
        <ele>989.4000244140625</ele>
        <time>2022-08-26T17:14:41.000Z</time>
      </trkpt>
      <trkpt lat="40.120768435299396514892578125" lon="-0.785831250250339508056640625">
        <ele>988.5999755859375</ele>
        <time>2022-08-26T17:14:44.000Z</time>
      </trkpt>
      <trkpt lat="40.1207359135150909423828125" lon="-0.78575388528406620025634765625">
        <ele>987.79998779296875</ele>
        <time>2022-08-26T17:14:46.000Z</time>
      </trkpt>
      <trkpt lat="40.12062728404998779296875" lon="-0.785499997437000274658203125">
        <ele>986.5999755859375</ele>
        <time>2022-08-26T17:14:53.000Z</time>
      </trkpt>
      <trkpt lat="40.1205795072019100189208984375" lon="-0.7854146696627140045166015625">
        <ele>986.4000244140625</ele>
        <time>2022-08-26T17:14:54.000Z</time>
      </trkpt>
      <trkpt lat="40.12049560435116291046142578125" lon="-0.78525298275053501129150390625">
        <ele>985.20001220703125</ele>
        <time>2022-08-26T17:14:59.000Z</time>
      </trkpt>
      <trkpt lat="40.12034841813147068023681640625" lon="-0.7849513180553913116455078125">
        <ele>983.79998779296875</ele>
        <time>2022-08-26T17:15:06.000Z</time>
      </trkpt>
      <trkpt lat="40.12021648697555065155029296875" lon="-0.78474068082869052886962890625">
        <ele>982.4000244140625</ele>
        <time>2022-08-26T17:15:12.000Z</time>
      </trkpt>
      <trkpt lat="40.12013174593448638916015625" lon="-0.7846103422343730926513671875">
        <ele>981.4000244140625</ele>
        <time>2022-08-26T17:15:17.000Z</time>
      </trkpt>
      <trkpt lat="40.12007365934550762176513671875" lon="-0.78450162895023822784423828125">
        <ele>981.20001220703125</ele>
        <time>2022-08-26T17:15:19.000Z</time>
      </trkpt>
      <trkpt lat="40.11997659690678119659423828125" lon="-0.78432041220366954803466796875">
        <ele>980.20001220703125</ele>
        <time>2022-08-26T17:15:24.000Z</time>
      </trkpt>
      <trkpt lat="40.11993728578090667724609375" lon="-0.78424044884741306304931640625">
        <ele>979.5999755859375</ele>
        <time>2022-08-26T17:15:26.000Z</time>
      </trkpt>
      <trkpt lat="40.11983343400061130523681640625" lon="-0.7840430550277233123779296875">
        <ele>978.79998779296875</ele>
        <time>2022-08-26T17:15:31.000Z</time>
      </trkpt>
      <trkpt lat="40.11977341957390308380126953125" lon="-0.7839238643646240234375">
        <ele>978.4000244140625</ele>
        <time>2022-08-26T17:15:34.000Z</time>
      </trkpt>
      <trkpt lat="40.11970317922532558441162109375" lon="-0.78376360237598419189453125">
        <ele>977.5999755859375</ele>
        <time>2022-08-26T17:15:38.000Z</time>
      </trkpt>
      <trkpt lat="40.1196199469268321990966796875" lon="-0.78362404368817806243896484375">
        <ele>976.79998779296875</ele>
        <time>2022-08-26T17:15:42.000Z</time>
      </trkpt>
      <trkpt lat="40.119532607495784759521484375" lon="-0.78347249887883663177490234375">
        <ele>976</ele>
        <time>2022-08-26T17:15:45.000Z</time>
      </trkpt>
      <trkpt lat="40.11947670020163059234619140625" lon="-0.78335934318602085113525390625">
        <ele>975.5999755859375</ele>
        <time>2022-08-26T17:15:47.000Z</time>
      </trkpt>
      <trkpt lat="40.11938148178160190582275390625" lon="-0.78317712061107158660888671875">
        <ele>975.20001220703125</ele>
        <time>2022-08-26T17:15:50.000Z</time>
      </trkpt>
      <trkpt lat="40.11913572438061237335205078125" lon="-0.78276087529957294464111328125">
        <ele>974</ele>
        <time>2022-08-26T17:15:56.000Z</time>
      </trkpt>
      <trkpt lat="40.11888208799064159393310546875" lon="-0.78229417093098163604736328125">
        <ele>972.79998779296875</ele>
        <time>2022-08-26T17:16:03.000Z</time>
      </trkpt>
      <trkpt lat="40.11883732862770557403564453125" lon="-0.78222577460110187530517578125">
        <ele>972.5999755859375</ele>
        <time>2022-08-26T17:16:05.000Z</time>
      </trkpt>
      <trkpt lat="40.11855469085276126861572265625" lon="-0.78177415765821933746337890625">
        <ele>971.20001220703125</ele>
        <time>2022-08-26T17:16:12.000Z</time>
      </trkpt>
      <trkpt lat="40.1184776611626148223876953125" lon="-0.7816518656909465789794921875">
        <ele>971.20001220703125</ele>
        <time>2022-08-26T17:16:13.000Z</time>
      </trkpt>
      <trkpt lat="40.11835101060569286346435546875" lon="-0.78142312355339527130126953125">
        <ele>970.20001220703125</ele>
        <time>2022-08-26T17:16:18.000Z</time>
      </trkpt>
      <trkpt lat="40.11816191487014293670654296875" lon="-0.781083069741725921630859375">
        <ele>969.79998779296875</ele>
        <time>2022-08-26T17:16:24.000Z</time>
      </trkpt>
      <trkpt lat="40.1181423850357532501220703125" lon="-0.78103889711201190948486328125">
        <ele>969.5999755859375</ele>
        <time>2022-08-26T17:16:25.000Z</time>
      </trkpt>
      <trkpt lat="40.1179190911352634429931640625" lon="-0.78067839145660400390625">
        <ele>968.5999755859375</ele>
        <time>2022-08-26T17:16:34.000Z</time>
      </trkpt>
      <trkpt lat="40.11780166067183017730712890625" lon="-0.78047228045761585235595703125">
        <ele>968.20001220703125</ele>
        <time>2022-08-26T17:16:41.000Z</time>
      </trkpt>
      <trkpt lat="40.1177812926471233367919921875" lon="-0.78043489716947078704833984375">
        <ele>968.20001220703125</ele>
        <time>2022-08-26T17:16:42.000Z</time>
      </trkpt>
      <trkpt lat="40.1175362057983875274658203125" lon="-0.780046395957469940185546875">
        <ele>967.4000244140625</ele>
        <time>2022-08-26T17:16:51.000Z</time>
      </trkpt>
      <trkpt lat="40.1173558272421360015869140625" lon="-0.7796311564743518829345703125">
        <ele>967.5999755859375</ele>
        <time>2022-08-26T17:17:00.000Z</time>
      </trkpt>
      <trkpt lat="40.1172227226197719573974609375" lon="-0.77928339131176471710205078125">
        <ele>967.5999755859375</ele>
        <time>2022-08-26T17:17:06.000Z</time>
      </trkpt>
      <trkpt lat="40.117103867232799530029296875" lon="-0.77895130030810832977294921875">
        <ele>967.5999755859375</ele>
        <time>2022-08-26T17:17:10.000Z</time>
      </trkpt>
      <trkpt lat="40.1168827526271343231201171875" lon="-0.7783383317291736602783203125">
        <ele>967</ele>
        <time>2022-08-26T17:17:16.000Z</time>
      </trkpt>
      <trkpt lat="40.1166916452348232269287109375" lon="-0.77775386162102222442626953125">
        <ele>966</ele>
        <time>2022-08-26T17:17:23.000Z</time>
      </trkpt>
      <trkpt lat="40.116536580026149749755859375" lon="-0.7773157395422458648681640625">
        <ele>965</ele>
        <time>2022-08-26T17:17:27.000Z</time>
      </trkpt>
      <trkpt lat="40.11647321283817291259765625" lon="-0.77714483253657817840576171875">
        <ele>964.5999755859375</ele>
        <time>2022-08-26T17:17:29.000Z</time>
      </trkpt>
      <trkpt lat="40.1163245178759098052978515625" lon="-0.77670780010521411895751953125">
        <ele>963.5999755859375</ele>
        <time>2022-08-26T17:17:34.000Z</time>
      </trkpt>
      <trkpt lat="40.11626726947724819183349609375" lon="-0.77654385007917881011962890625">
        <ele>963.20001220703125</ele>
        <time>2022-08-26T17:17:37.000Z</time>
      </trkpt>
      <trkpt lat="40.1160029880702495574951171875" lon="-0.77579970471560955047607421875">
        <ele>962.4000244140625</ele>
        <time>2022-08-26T17:17:45.000Z</time>
      </trkpt>
      <trkpt lat="40.1159763336181640625" lon="-0.7757204957306385040283203125">
        <ele>962.20001220703125</ele>
        <time>2022-08-26T17:17:46.000Z</time>
      </trkpt>
      <trkpt lat="40.11589360423386096954345703125" lon="-0.775486640632152557373046875">
        <ele>962</ele>
        <time>2022-08-26T17:17:49.000Z</time>
      </trkpt>
      <trkpt lat="40.115705095231533050537109375" lon="-0.77494986355304718017578125">
        <ele>961.4000244140625</ele>
        <time>2022-08-26T17:17:56.000Z</time>
      </trkpt>
      <trkpt lat="40.11555681936442852020263671875" lon="-0.77449631877243518829345703125">
        <ele>960.4000244140625</ele>
        <time>2022-08-26T17:18:03.000Z</time>
      </trkpt>
      <trkpt lat="40.11547517962753772735595703125" lon="-0.7742737792432308197021484375">
        <ele>960.20001220703125</ele>
        <time>2022-08-26T17:18:05.000Z</time>
      </trkpt>
      <trkpt lat="40.1153465174138545989990234375" lon="-0.77392567880451679229736328125">
        <ele>959.4000244140625</ele>
        <time>2022-08-26T17:18:10.000Z</time>
      </trkpt>
      <trkpt lat="40.1153193600475788116455078125" lon="-0.7738630659878253936767578125">
        <ele>959.4000244140625</ele>
        <time>2022-08-26T17:18:12.000Z</time>
      </trkpt>
      <trkpt lat="40.1152036897838115692138671875" lon="-0.77356710098683834075927734375">
        <ele>959</ele>
        <time>2022-08-26T17:18:16.000Z</time>
      </trkpt>
      <trkpt lat="40.1152036897838115692138671875" lon="-0.77356710098683834075927734375">
        <ele>958.5999755859375</ele>
        <time>2022-08-26T17:18:17.000Z</time>
      </trkpt>
      <trkpt lat="40.1151389814913272857666015625" lon="-0.77345545403659343719482421875">
        <ele>958.5999755859375</ele>
        <time>2022-08-26T17:18:18.000Z</time>
      </trkpt>
      <trkpt lat="40.11495918966829776763916015625" lon="-0.7731894962489604949951171875">
        <ele>958.20001220703125</ele>
        <time>2022-08-26T17:18:23.000Z</time>
      </trkpt>
      <trkpt lat="40.11484100483357906341552734375" lon="-0.77305496670305728912353515625">
        <ele>958</ele>
        <time>2022-08-26T17:18:26.000Z</time>
      </trkpt>
      <trkpt lat="40.11473824270069599151611328125" lon="-0.7729521207511425018310546875">
        <ele>957.79998779296875</ele>
        <time>2022-08-26T17:18:29.000Z</time>
      </trkpt>
      <trkpt lat="40.11463045142590999603271484375" lon="-0.7728558965027332305908203125">
        <ele>957.79998779296875</ele>
        <time>2022-08-26T17:18:32.000Z</time>
      </trkpt>
      <trkpt lat="40.11445275507867336273193359375" lon="-0.77274014241993427276611328125">
        <ele>957.5999755859375</ele>
        <time>2022-08-26T17:18:36.000Z</time>
      </trkpt>
      <trkpt lat="40.11411077342927455902099609375" lon="-0.7725789584219455718994140625">
        <ele>957.20001220703125</ele>
        <time>2022-08-26T17:18:44.000Z</time>
      </trkpt>
      <trkpt lat="40.11376208625733852386474609375" lon="-0.7725119031965732574462890625">
        <ele>957.20001220703125</ele>
        <time>2022-08-26T17:18:50.000Z</time>
      </trkpt>
      <trkpt lat="40.11333075352013111114501953125" lon="-0.77254937030375003814697265625">
        <ele>957</ele>
        <time>2022-08-26T17:19:00.000Z</time>
      </trkpt>
      <trkpt lat="40.112846195697784423828125" lon="-0.772714577615261077880859375">
        <ele>956.5999755859375</ele>
        <time>2022-08-26T17:19:09.000Z</time>
      </trkpt>
      <trkpt lat="40.11241125874221324920654296875" lon="-0.77294357120990753173828125">
        <ele>956</ele>
        <time>2022-08-26T17:19:18.000Z</time>
      </trkpt>
      <trkpt lat="40.1121456362307071685791015625" lon="-0.77315739355981349945068359375">
        <ele>955.4000244140625</ele>
        <time>2022-08-26T17:19:25.000Z</time>
      </trkpt>
      <trkpt lat="40.1118395291268825531005859375" lon="-0.7735477387905120849609375">
        <ele>955.20001220703125</ele>
        <time>2022-08-26T17:19:32.000Z</time>
      </trkpt>
      <trkpt lat="40.11170734651386737823486328125" lon="-0.7737554423511028289794921875">
        <ele>954.79998779296875</ele>
        <time>2022-08-26T17:19:36.000Z</time>
      </trkpt>
      <trkpt lat="40.1115773431956768035888671875" lon="-0.77396272681653499603271484375">
        <ele>954.20001220703125</ele>
        <time>2022-08-26T17:19:40.000Z</time>
      </trkpt>
      <trkpt lat="40.1113242097198963165283203125" lon="-0.7743596099317073822021484375">
        <ele>953.20001220703125</ele>
        <time>2022-08-26T17:19:47.000Z</time>
      </trkpt>
      <trkpt lat="40.1112843118607997894287109375" lon="-0.77441048808395862579345703125">
        <ele>953</ele>
        <time>2022-08-26T17:19:48.000Z</time>
      </trkpt>
      <trkpt lat="40.11115866713225841522216796875" lon="-0.7745430059731006622314453125">
        <ele>952.5999755859375</ele>
        <time>2022-08-26T17:19:51.000Z</time>
      </trkpt>
      <trkpt lat="40.11106914840638637542724609375" lon="-0.7746305130422115325927734375">
        <ele>952.20001220703125</ele>
        <time>2022-08-26T17:19:53.000Z</time>
      </trkpt>
      <trkpt lat="40.11099572293460369110107421875" lon="-0.77470335178077220916748046875">
        <ele>951.79998779296875</ele>
        <time>2022-08-26T17:19:55.000Z</time>
      </trkpt>
      <trkpt lat="40.11092162691056728363037109375" lon="-0.7747445069253444671630859375">
        <ele>951.5999755859375</ele>
        <time>2022-08-26T17:19:57.000Z</time>
      </trkpt>
      <trkpt lat="40.10738731361925601959228515625" lon="-0.77573583461344242095947265625">
        <ele>942.20001220703125</ele>
        <time>2022-08-26T17:21:02.000Z</time>
      </trkpt>
      <trkpt lat="40.107376836240291595458984375" lon="-0.77572912909090518951416015625">
        <ele>942.20001220703125</ele>
        <time>2022-08-26T17:21:03.000Z</time>
      </trkpt>
      <trkpt lat="40.10732419788837432861328125" lon="-0.7756926678121089935302734375">
        <ele>941.79998779296875</ele>
        <time>2022-08-26T17:21:05.000Z</time>
      </trkpt>
      <trkpt lat="40.1072428934276103973388671875" lon="-0.775690488517284393310546875">
        <ele>941</ele>
        <time>2022-08-26T17:21:09.000Z</time>
      </trkpt>
      <trkpt lat="40.1072428934276103973388671875" lon="-0.775690488517284393310546875">
        <ele>940.79998779296875</ele>
        <time>2022-08-26T17:21:10.000Z</time>
      </trkpt>
      <trkpt lat="40.10723023675382137298583984375" lon="-0.77569694258272647857666015625">
        <ele>940.4000244140625</ele>
        <time>2022-08-26T17:21:12.000Z</time>
      </trkpt>
      <trkpt lat="40.10713770054280757904052734375" lon="-0.77574354596436023712158203125">
        <ele>936.20001220703125</ele>
        <time>2022-08-26T17:22:42.000Z</time>
      </trkpt>
      <trkpt lat="40.10711322538554668426513671875" lon="-0.775748156011104583740234375">
        <ele>936.20001220703125</ele>
        <time>2022-08-26T17:22:43.000Z</time>
      </trkpt>
      <trkpt lat="40.1069324277341365814208984375" lon="-0.77577305026352405548095703125">
        <ele>935.5999755859375</ele>
        <time>2022-08-26T17:22:47.000Z</time>
      </trkpt>
      <trkpt lat="40.1068905182182788848876953125" lon="-0.77578193508088588714599609375">
        <ele>935.5999755859375</ele>
        <time>2022-08-26T17:22:48.000Z</time>
      </trkpt>
      <trkpt lat="40.10647150687873363494873046875" lon="-0.7758204080164432525634765625">
        <ele>935.4000244140625</ele>
        <time>2022-08-26T17:22:57.000Z</time>
      </trkpt>
      <trkpt lat="40.10612466372549533843994140625" lon="-0.77577330172061920166015625">
        <ele>935.20001220703125</ele>
        <time>2022-08-26T17:23:05.000Z</time>
      </trkpt>
      <trkpt lat="40.1058018766343593597412109375" lon="-0.77565930783748626708984375">
        <ele>935.20001220703125</ele>
        <time>2022-08-26T17:23:11.000Z</time>
      </trkpt>
      <trkpt lat="40.10575468651950359344482421875" lon="-0.775630809366703033447265625">
        <ele>935</ele>
        <time>2022-08-26T17:23:13.000Z</time>
      </trkpt>
      <trkpt lat="40.1053663529455661773681640625" lon="-0.7753241993486881256103515625">
        <ele>933.5999755859375</ele>
        <time>2022-08-26T17:23:20.000Z</time>
      </trkpt>
      <trkpt lat="40.1053663529455661773681640625" lon="-0.7753241993486881256103515625">
        <ele>933.4000244140625</ele>
        <time>2022-08-26T17:23:21.000Z</time>
      </trkpt>
      <trkpt lat="40.10514398105442523956298828125" lon="-0.7750543020665645599365234375">
        <ele>932.4000244140625</ele>
        <time>2022-08-26T17:23:25.000Z</time>
      </trkpt>
      <trkpt lat="40.10507072322070598602294921875" lon="-0.77493988908827304840087890625">
        <ele>932</ele>
        <time>2022-08-26T17:23:28.000Z</time>
      </trkpt>
      <trkpt lat="40.10494465939700603485107421875" lon="-0.77469446696341037750244140625">
        <ele>932</ele>
        <time>2022-08-26T17:23:31.000Z</time>
      </trkpt>
      <trkpt lat="40.10489453561604022979736328125" lon="-0.7745624519884586334228515625">
        <ele>931.79998779296875</ele>
        <time>2022-08-26T17:23:33.000Z</time>
      </trkpt>
      <trkpt lat="40.1048724912106990814208984375" lon="-0.7744967378675937652587890625">
        <ele>931.4000244140625</ele>
        <time>2022-08-26T17:23:34.000Z</time>
      </trkpt>
      <trkpt lat="40.10478992946445941925048828125" lon="-0.7742156088352203369140625">
        <ele>931</ele>
        <time>2022-08-26T17:23:38.000Z</time>
      </trkpt>
      <trkpt lat="40.10475724004209041595458984375" lon="-0.77407755888998508453369140625">
        <ele>930.4000244140625</ele>
        <time>2022-08-26T17:23:40.000Z</time>
      </trkpt>
      <trkpt lat="40.1046002469956874847412109375" lon="-0.77354078181087970733642578125">
        <ele>929</ele>
        <time>2022-08-26T17:23:49.000Z</time>
      </trkpt>
      <trkpt lat="40.10456261225044727325439453125" lon="-0.7734141312539577484130859375">
        <ele>928.79998779296875</ele>
        <time>2022-08-26T17:23:50.000Z</time>
      </trkpt>
      <trkpt lat="40.104425735771656036376953125" lon="-0.7729008235037326812744140625">
        <ele>928.5999755859375</ele>
        <time>2022-08-26T17:23:59.000Z</time>
      </trkpt>
      <trkpt lat="40.104329846799373626708984375" lon="-0.772428251802921295166015625">
        <ele>928.4000244140625</ele>
        <time>2022-08-26T17:24:05.000Z</time>
      </trkpt>
      <trkpt lat="40.10433445684611797332763671875" lon="-0.7723112404346466064453125">
        <ele>928.4000244140625</ele>
        <time>2022-08-26T17:24:07.000Z</time>
      </trkpt>
      <trkpt lat="40.10433579795062541961669921875" lon="-0.77219121158123016357421875">
        <ele>928.4000244140625</ele>
        <time>2022-08-26T17:24:09.000Z</time>
      </trkpt>
      <trkpt lat="40.104346610605716705322265625" lon="-0.77185266651213169097900390625">
        <ele>928.4000244140625</ele>
        <time>2022-08-26T17:24:14.000Z</time>
      </trkpt>
      <trkpt lat="40.10435038246214389801025390625" lon="-0.77178628183901309967041015625">
        <ele>928.5999755859375</ele>
        <time>2022-08-26T17:24:15.000Z</time>
      </trkpt>
      <trkpt lat="40.10443277657032012939453125" lon="-0.77132209204137325286865234375">
        <ele>928.20001220703125</ele>
        <time>2022-08-26T17:24:22.000Z</time>
      </trkpt>
      <trkpt lat="40.104633271694183349609375" lon="-0.77088539488613605499267578125">
        <ele>928.20001220703125</ele>
        <time>2022-08-26T17:24:30.000Z</time>
      </trkpt>
      <trkpt lat="40.10480920784175395965576171875" lon="-0.7705230452120304107666015625">
        <ele>928</ele>
        <time>2022-08-26T17:24:38.000Z</time>
      </trkpt>
      <trkpt lat="40.104960501194000244140625" lon="-0.77030352316796779632568359375">
        <ele>928</ele>
        <time>2022-08-26T17:24:44.000Z</time>
      </trkpt>
      <trkpt lat="40.10510441847145557403564453125" lon="-0.77013102360069751739501953125">
        <ele>928.20001220703125</ele>
        <time>2022-08-26T17:24:49.000Z</time>
      </trkpt>
      <trkpt lat="40.1051655225455760955810546875" lon="-0.770062543451786041259765625">
        <ele>928.20001220703125</ele>
        <time>2022-08-26T17:24:51.000Z</time>
      </trkpt>
      <trkpt lat="40.1052899099886417388916015625" lon="-0.76981636695563793182373046875">
        <ele>928.79998779296875</ele>
        <time>2022-08-26T17:24:57.000Z</time>
      </trkpt>
      <trkpt lat="40.10528479702770709991455078125" lon="-0.76973489485681056976318359375">
        <ele>929</ele>
        <time>2022-08-26T17:24:58.000Z</time>
      </trkpt>
      <trkpt lat="40.1053224317729473114013671875" lon="-0.76924304477870464324951171875">
        <ele>929.20001220703125</ele>
        <time>2022-08-26T17:25:04.000Z</time>
      </trkpt>
      <trkpt lat="40.105400718748569488525390625" lon="-0.76889301650226116180419921875">
        <ele>928.79998779296875</ele>
        <time>2022-08-26T17:25:10.000Z</time>
      </trkpt>
      <trkpt lat="40.10544556193053722381591796875" lon="-0.768694616854190826416015625">
        <ele>927.79998779296875</ele>
        <time>2022-08-26T17:25:16.000Z</time>
      </trkpt>
      <trkpt lat="40.1055232621729373931884765625" lon="-0.7683289982378482818603515625">
        <ele>927</ele>
        <time>2022-08-26T17:25:23.000Z</time>
      </trkpt>
      <trkpt lat="40.10559945367276668548583984375" lon="-0.7680302672088146209716796875">
        <ele>926.79998779296875</ele>
        <time>2022-08-26T17:25:28.000Z</time>
      </trkpt>
      <trkpt lat="40.10564940981566905975341796875" lon="-0.76786221005022525787353515625">
        <ele>926.79998779296875</ele>
        <time>2022-08-26T17:25:31.000Z</time>
      </trkpt>
      <trkpt lat="40.105811767280101776123046875" lon="-0.767262317240238189697265625">
        <ele>926.4000244140625</ele>
        <time>2022-08-26T17:25:41.000Z</time>
      </trkpt>
      <trkpt lat="40.1060285232961177825927734375" lon="-0.766782201826572418212890625">
        <ele>926.4000244140625</ele>
        <time>2022-08-26T17:25:50.000Z</time>
      </trkpt>
      <trkpt lat="40.10610781610012054443359375" lon="-0.76665873639285564422607421875">
        <ele>926.4000244140625</ele>
        <time>2022-08-26T17:25:53.000Z</time>
      </trkpt>
      <trkpt lat="40.10617998428642749786376953125" lon="-0.76658480800688266754150390625">
        <ele>926.5999755859375</ele>
        <time>2022-08-26T17:25:55.000Z</time>
      </trkpt>
      <trkpt lat="40.10652632452547550201416015625" lon="-0.76626394875347614288330078125">
        <ele>926.5999755859375</ele>
        <time>2022-08-26T17:26:03.000Z</time>
      </trkpt>
      <trkpt lat="40.10687551461160182952880859375" lon="-0.76600109227001667022705078125">
        <ele>926.79998779296875</ele>
        <time>2022-08-26T17:26:11.000Z</time>
      </trkpt>
      <trkpt lat="40.10692588984966278076171875" lon="-0.76597929932177066802978515625">
        <ele>926.5999755859375</ele>
        <time>2022-08-26T17:26:12.000Z</time>
      </trkpt>
      <trkpt lat="40.10702135972678661346435546875" lon="-0.76593697071075439453125">
        <ele>926.5999755859375</ele>
        <time>2022-08-26T17:26:14.000Z</time>
      </trkpt>
      <trkpt lat="40.10705254040658473968505859375" lon="-0.76590805314481258392333984375">
        <ele>926.79998779296875</ele>
        <time>2022-08-26T17:26:15.000Z</time>
      </trkpt>
      <trkpt lat="40.107095204293727874755859375" lon="-0.76578131876885890960693359375">
        <ele>926.79998779296875</ele>
        <time>2022-08-26T17:26:17.000Z</time>
      </trkpt>
      <trkpt lat="40.10720743797719478607177734375" lon="-0.76566950418055057525634765625">
        <ele>926.79998779296875</ele>
        <time>2022-08-26T17:26:20.000Z</time>
      </trkpt>
      <trkpt lat="40.10730768553912639617919921875" lon="-0.76563631184399127960205078125">
        <ele>926.79998779296875</ele>
        <time>2022-08-26T17:26:22.000Z</time>
      </trkpt>
      <trkpt lat="40.107466019690036773681640625" lon="-0.76553807593882083892822265625">
        <ele>927</ele>
        <time>2022-08-26T17:26:26.000Z</time>
      </trkpt>
      <trkpt lat="40.107466019690036773681640625" lon="-0.76553807593882083892822265625">
        <ele>927.20001220703125</ele>
        <time>2022-08-26T17:26:27.000Z</time>
      </trkpt>
      <trkpt lat="40.107673890888690948486328125" lon="-0.7653477229177951812744140625">
        <ele>927.20001220703125</ele>
        <time>2022-08-26T17:26:32.000Z</time>
      </trkpt>
      <trkpt lat="40.10772292502224445343017578125" lon="-0.76526516117155551910400390625">
        <ele>927.20001220703125</ele>
        <time>2022-08-26T17:26:34.000Z</time>
      </trkpt>
      <trkpt lat="40.1079674251377582550048828125" lon="-0.764859057962894439697265625">
        <ele>927</ele>
        <time>2022-08-26T17:26:43.000Z</time>
      </trkpt>
      <trkpt lat="40.10815090499818325042724609375" lon="-0.76446854509413242340087890625">
        <ele>927</ele>
        <time>2022-08-26T17:26:51.000Z</time>
      </trkpt>
      <trkpt lat="40.10824620723724365234375" lon="-0.76396831311285495758056640625">
        <ele>926.79998779296875</ele>
        <time>2022-08-26T17:26:59.000Z</time>
      </trkpt>
      <trkpt lat="40.10826238431036472320556640625" lon="-0.7637699134647846221923828125">
        <ele>926.79998779296875</ele>
        <time>2022-08-26T17:27:02.000Z</time>
      </trkpt>
      <trkpt lat="40.10826607234776020050048828125" lon="-0.76345114968717098236083984375">
        <ele>926.79998779296875</ele>
        <time>2022-08-26T17:27:07.000Z</time>
      </trkpt>
      <trkpt lat="40.10827177204191684722900390625" lon="-0.76303356327116489410400390625">
        <ele>926.5999755859375</ele>
        <time>2022-08-26T17:27:14.000Z</time>
      </trkpt>
      <trkpt lat="40.10827546007931232452392578125" lon="-0.76291772536933422088623046875">
        <ele>926.4000244140625</ele>
        <time>2022-08-26T17:27:17.000Z</time>
      </trkpt>
      <trkpt lat="40.10826841928064823150634765625" lon="-0.76262217946350574493408203125">
        <ele>926.20001220703125</ele>
        <time>2022-08-26T17:27:21.000Z</time>
      </trkpt>
      <trkpt lat="40.10826188139617443084716796875" lon="-0.76212680898606777191162109375">
        <ele>926</ele>
        <time>2022-08-26T17:27:30.000Z</time>
      </trkpt>
      <trkpt lat="40.10824930854141712188720703125" lon="-0.761457346379756927490234375">
        <ele>926.20001220703125</ele>
        <time>2022-08-26T17:27:40.000Z</time>
      </trkpt>
      <trkpt lat="40.10824930854141712188720703125" lon="-0.761457346379756927490234375">
        <ele>926.20001220703125</ele>
        <time>2022-08-26T17:27:41.000Z</time>
      </trkpt>
      <trkpt lat="40.10824696160852909088134765625" lon="-0.7613334618508815765380859375">
        <ele>926.4000244140625</ele>
        <time>2022-08-26T17:27:42.000Z</time>
      </trkpt>
      <trkpt lat="40.108225755393505096435546875" lon="-0.76101738028228282928466796875">
        <ele>926.4000244140625</ele>
        <time>2022-08-26T17:27:47.000Z</time>
      </trkpt>
      <trkpt lat="40.10825249366462230682373046875" lon="-0.76051329262554645538330078125">
        <ele>926.79998779296875</ele>
        <time>2022-08-26T17:27:56.000Z</time>
      </trkpt>
      <trkpt lat="40.10828417725861072540283203125" lon="-0.7603956945240497589111328125">
        <ele>926.5999755859375</ele>
        <time>2022-08-26T17:27:58.000Z</time>
      </trkpt>
      <trkpt lat="40.10838056914508342742919921875" lon="-0.7600641064345836639404296875">
        <ele>926.79998779296875</ele>
        <time>2022-08-26T17:28:03.000Z</time>
      </trkpt>
      <trkpt lat="40.10858324356377124786376953125" lon="-0.75961240567266941070556640625">
        <ele>926.79998779296875</ele>
        <time>2022-08-26T17:28:12.000Z</time>
      </trkpt>
      <trkpt lat="40.10866840369999408721923828125" lon="-0.75946672819554805755615234375">
        <ele>927.20001220703125</ele>
        <time>2022-08-26T17:28:15.000Z</time>
      </trkpt>
      <trkpt lat="40.10882799513638019561767578125" lon="-0.75924863107502460479736328125">
        <ele>927.4000244140625</ele>
        <time>2022-08-26T17:28:21.000Z</time>
      </trkpt>
      <trkpt lat="40.1092143170535564422607421875" lon="-0.758828110992908477783203125">
        <ele>927.5999755859375</ele>
        <time>2022-08-26T17:28:30.000Z</time>
      </trkpt>
      <trkpt lat="40.10929285548627376556396484375" lon="-0.75875108130276203155517578125">
        <ele>927.79998779296875</ele>
        <time>2022-08-26T17:28:32.000Z</time>
      </trkpt>
      <trkpt lat="40.10962461121380329132080078125" lon="-0.758388899266719818115234375">
        <ele>928.20001220703125</ele>
        <time>2022-08-26T17:28:41.000Z</time>
      </trkpt>
      <trkpt lat="40.10968764312565326690673828125" lon="-0.75831606052815914154052734375">
        <ele>928.4000244140625</ele>
        <time>2022-08-26T17:28:43.000Z</time>
      </trkpt>
      <trkpt lat="40.10978504084050655364990234375" lon="-0.75819812715053558349609375">
        <ele>928.5999755859375</ele>
        <time>2022-08-26T17:28:47.000Z</time>
      </trkpt>
      <trkpt lat="40.10996776632964611053466796875" lon="-0.7579860650002956390380859375">
        <ele>928.79998779296875</ele>
        <time>2022-08-26T17:28:53.000Z</time>
      </trkpt>
      <trkpt lat="40.11000464670360088348388671875" lon="-0.7579475082457065582275390625">
        <ele>929</ele>
        <time>2022-08-26T17:28:54.000Z</time>
      </trkpt>
      <trkpt lat="40.11021419428288936614990234375" lon="-0.75772471725940704345703125">
        <ele>929.20001220703125</ele>
        <time>2022-08-26T17:29:00.000Z</time>
      </trkpt>
      <trkpt lat="40.11051594279706478118896484375" lon="-0.75747820548713207244873046875">
        <ele>929.4000244140625</ele>
        <time>2022-08-26T17:29:08.000Z</time>
      </trkpt>
      <trkpt lat="40.11079221032559871673583984375" lon="-0.75731475837528705596923828125">
        <ele>929.4000244140625</ele>
        <time>2022-08-26T17:29:15.000Z</time>
      </trkpt>
      <trkpt lat="40.11083520948886871337890625" lon="-0.757294557988643646240234375">
        <ele>929.5999755859375</ele>
        <time>2022-08-26T17:29:16.000Z</time>
      </trkpt>
      <trkpt lat="40.1112118922173976898193359375" lon="-0.75717947445809841156005859375">
        <ele>929.79998779296875</ele>
        <time>2022-08-26T17:29:25.000Z</time>
      </trkpt>
      <trkpt lat="40.11140576563775539398193359375" lon="-0.75715952552855014801025390625">
        <ele>929.79998779296875</ele>
        <time>2022-08-26T17:29:29.000Z</time>
      </trkpt>
      <trkpt lat="40.1116038300096988677978515625" lon="-0.75715969316661357879638671875">
        <ele>929.79998779296875</ele>
        <time>2022-08-26T17:29:33.000Z</time>
      </trkpt>
      <trkpt lat="40.111996270716190338134765625" lon="-0.75718425214290618896484375">
        <ele>929.79998779296875</ele>
        <time>2022-08-26T17:29:41.000Z</time>
      </trkpt>
      <trkpt lat="40.11244378052651882171630859375" lon="-0.75722591020166873931884765625">
        <ele>930</ele>
        <time>2022-08-26T17:29:51.000Z</time>
      </trkpt>
      <trkpt lat="40.1125379092991352081298828125" lon="-0.75723529793322086334228515625">
        <ele>930.20001220703125</ele>
        <time>2022-08-26T17:29:53.000Z</time>
      </trkpt>
      <trkpt lat="40.112774111330509185791015625" lon="-0.75723253190517425537109375">
        <ele>930.79998779296875</ele>
        <time>2022-08-26T17:29:59.000Z</time>
      </trkpt>
      <trkpt lat="40.11283077299594879150390625" lon="-0.757236219942569732666015625">
        <ele>931</ele>
        <time>2022-08-26T17:30:00.000Z</time>
      </trkpt>
      <trkpt lat="40.11296194978058338165283203125" lon="-0.7572628743946552276611328125">
        <ele>931.5999755859375</ele>
        <time>2022-08-26T17:30:04.000Z</time>
      </trkpt>
      <trkpt lat="40.11311466805636882781982421875" lon="-0.75727636925876140594482421875">
        <ele>931.79998779296875</ele>
        <time>2022-08-26T17:30:08.000Z</time>
      </trkpt>
      <trkpt lat="40.11362562887370586395263671875" lon="-0.75729212723672389984130859375">
        <ele>931.79998779296875</ele>
        <time>2022-08-26T17:30:20.000Z</time>
      </trkpt>
      <trkpt lat="40.1139526069164276123046875" lon="-0.75724418275058269500732421875">
        <ele>931.79998779296875</ele>
        <time>2022-08-26T17:30:27.000Z</time>
      </trkpt>
      <trkpt lat="40.11400013230741024017333984375" lon="-0.7572293467819690704345703125">
        <ele>932</ele>
        <time>2022-08-26T17:30:29.000Z</time>
      </trkpt>
      <trkpt lat="40.1144047267735004425048828125" lon="-0.7570311985909938812255859375">
        <ele>932.4000244140625</ele>
        <time>2022-08-26T17:30:37.000Z</time>
      </trkpt>
      <trkpt lat="40.1144407689571380615234375" lon="-0.7570070587098598480224609375">
        <ele>932.4000244140625</ele>
        <time>2022-08-26T17:30:39.000Z</time>
      </trkpt>
      <trkpt lat="40.11464872397482395172119140625" lon="-0.75683682225644588470458984375">
        <ele>932.79998779296875</ele>
        <time>2022-08-26T17:30:44.000Z</time>
      </trkpt>
      <trkpt lat="40.11480353772640228271484375" lon="-0.7566925697028636932373046875">
        <ele>933.4000244140625</ele>
        <time>2022-08-26T17:30:49.000Z</time>
      </trkpt>
      <trkpt lat="40.114861540496349334716796875" lon="-0.75661587528884410858154296875">
        <ele>933.79998779296875</ele>
        <time>2022-08-26T17:30:51.000Z</time>
      </trkpt>
      <trkpt lat="40.11498450301587581634521484375" lon="-0.756412111222743988037109375">
        <ele>934.4000244140625</ele>
        <time>2022-08-26T17:30:56.000Z</time>
      </trkpt>
      <trkpt lat="40.1150067150592803955078125" lon="-0.75636726804077625274658203125">
        <ele>934.4000244140625</ele>
        <time>2022-08-26T17:30:57.000Z</time>
      </trkpt>
      <trkpt lat="40.1151530630886554718017578125" lon="-0.756071470677852630615234375">
        <ele>934.5999755859375</ele>
        <time>2022-08-26T17:31:03.000Z</time>
      </trkpt>
      <trkpt lat="40.11526219546794891357421875" lon="-0.75577751733362674713134765625">
        <ele>934.79998779296875</ele>
        <time>2022-08-26T17:31:09.000Z</time>
      </trkpt>
      <trkpt lat="40.11527569033205509185791015625" lon="-0.75572521425783634185791015625">
        <ele>934.79998779296875</ele>
        <time>2022-08-26T17:31:10.000Z</time>
      </trkpt>
      <trkpt lat="40.11531718075275421142578125" lon="-0.7555529661476612091064453125">
        <ele>935</ele>
        <time>2022-08-26T17:31:13.000Z</time>
      </trkpt>
      <trkpt lat="40.11534039862453937530517578125" lon="-0.75537401251494884490966796875">
        <ele>935.4000244140625</ele>
        <time>2022-08-26T17:31:16.000Z</time>
      </trkpt>
      <trkpt lat="40.11534743942320346832275390625" lon="-0.75531315989792346954345703125">
        <ele>935.4000244140625</ele>
        <time>2022-08-26T17:31:17.000Z</time>
      </trkpt>
      <trkpt lat="40.11537694372236728668212890625" lon="-0.7550654746592044830322265625">
        <ele>935.4000244140625</ele>
        <time>2022-08-26T17:31:21.000Z</time>
      </trkpt>
      <trkpt lat="40.115406699478626251220703125" lon="-0.75487981550395488739013671875">
        <ele>935.4000244140625</ele>
        <time>2022-08-26T17:31:24.000Z</time>
      </trkpt>
      <trkpt lat="40.1154182665050029754638671875" lon="-0.75475282967090606689453125">
        <ele>935.4000244140625</ele>
        <time>2022-08-26T17:31:26.000Z</time>
      </trkpt>
      <trkpt lat="40.1154015026986598968505859375" lon="-0.7545558549463748931884765625">
        <ele>935.20001220703125</ele>
        <time>2022-08-26T17:31:29.000Z</time>
      </trkpt>
      <trkpt lat="40.11538515798747539520263671875" lon="-0.75448888354003429412841796875">
        <ele>935.20001220703125</ele>
        <time>2022-08-26T17:31:30.000Z</time>
      </trkpt>
      <trkpt lat="40.1152145862579345703125" lon="-0.75377725996077060699462890625">
        <ele>935.20001220703125</ele>
        <time>2022-08-26T17:31:41.000Z</time>
      </trkpt>
      <trkpt lat="40.1151121594011783599853515625" lon="-0.75334223918616771697998046875">
        <ele>935.4000244140625</ele>
        <time>2022-08-26T17:31:49.000Z</time>
      </trkpt>
      <trkpt lat="40.1150866784155368804931640625" lon="-0.75321835465729236602783203125">
        <ele>935.5999755859375</ele>
        <time>2022-08-26T17:31:51.000Z</time>
      </trkpt>
      <trkpt lat="40.11498584412038326263427734375" lon="-0.75273857451975345611572265625">
        <ele>936</ele>
        <time>2022-08-26T17:31:58.000Z</time>
      </trkpt>
      <trkpt lat="40.1149126701056957244873046875" lon="-0.75244151987135410308837890625">
        <ele>936</ele>
        <time>2022-08-26T17:32:04.000Z</time>
      </trkpt>
      <trkpt lat="40.1148928888142108917236328125" lon="-0.75232802890241146087646484375">
        <ele>936.20001220703125</ele>
        <time>2022-08-26T17:32:05.000Z</time>
      </trkpt>
      <trkpt lat="40.11487302370369434356689453125" lon="-0.7520364224910736083984375">
        <ele>936.4000244140625</ele>
        <time>2022-08-26T17:32:11.000Z</time>
      </trkpt>
      <trkpt lat="40.114836394786834716796875" lon="-0.75179963372647762298583984375">
        <ele>937</ele>
        <time>2022-08-26T17:32:15.000Z</time>
      </trkpt>
      <trkpt lat="40.11479741893708705902099609375" lon="-0.7516141422092914581298828125">
        <ele>937.4000244140625</ele>
        <time>2022-08-26T17:32:18.000Z</time>
      </trkpt>
      <trkpt lat="40.11471225880086421966552734375" lon="-0.75129412114620208740234375">
        <ele>938</ele>
        <time>2022-08-26T17:32:23.000Z</time>
      </trkpt>
      <trkpt lat="40.11469666846096515655517578125" lon="-0.75123737566173076629638671875">
        <ele>938</ele>
        <time>2022-08-26T17:32:24.000Z</time>
      </trkpt>
      <trkpt lat="40.1146062277257442474365234375" lon="-0.7509228028357028961181640625">
        <ele>938.4000244140625</ele>
        <time>2022-08-26T17:32:30.000Z</time>
      </trkpt>
      <trkpt lat="40.1145428605377674102783203125" lon="-0.7507558353245258331298828125">
        <ele>938.79998779296875</ele>
        <time>2022-08-26T17:32:33.000Z</time>
      </trkpt>
      <trkpt lat="40.11440531350672245025634765625" lon="-0.75041879899799823760986328125">
        <ele>939.5999755859375</ele>
        <time>2022-08-26T17:32:38.000Z</time>
      </trkpt>
      <trkpt lat="40.1142971031367778778076171875" lon="-0.75005452148616313934326171875">
        <ele>940</ele>
        <time>2022-08-26T17:32:45.000Z</time>
      </trkpt>
      <trkpt lat="40.11418939568102359771728515625" lon="-0.7497392781078815460205078125">
        <ele>940.20001220703125</ele>
        <time>2022-08-26T17:32:51.000Z</time>
      </trkpt>
      <trkpt lat="40.11408126913011074066162109375" lon="-0.7494244538247585296630859375">
        <ele>939.5999755859375</ele>
        <time>2022-08-26T17:32:57.000Z</time>
      </trkpt>
      <trkpt lat="40.114010609686374664306640625" lon="-0.74922488071024417877197265625">
        <ele>939.5999755859375</ele>
        <time>2022-08-26T17:32:59.000Z</time>
      </trkpt>
      <trkpt lat="40.113974399864673614501953125" lon="-0.74908590875566005706787109375">
        <ele>939.4000244140625</ele>
        <time>2022-08-26T17:33:02.000Z</time>
      </trkpt>
      <trkpt lat="40.11381656862795352935791015625" lon="-0.74856321327388286590576171875">
        <ele>938.5999755859375</ele>
        <time>2022-08-26T17:33:09.000Z</time>
      </trkpt>
      <trkpt lat="40.11370073072612285614013671875" lon="-0.74809064157307147979736328125">
        <ele>938.5999755859375</ele>
        <time>2022-08-26T17:33:15.000Z</time>
      </trkpt>
      <trkpt lat="40.1136309094727039337158203125" lon="-0.747620165348052978515625">
        <ele>938.5999755859375</ele>
        <time>2022-08-26T17:33:24.000Z</time>
      </trkpt>
      <trkpt lat="40.11357734911143779754638671875" lon="-0.74704525060951709747314453125">
        <ele>938.79998779296875</ele>
        <time>2022-08-26T17:33:33.000Z</time>
      </trkpt>
      <trkpt lat="40.11354147456586360931396484375" lon="-0.74664040468633174896240234375">
        <ele>939.4000244140625</ele>
        <time>2022-08-26T17:33:40.000Z</time>
      </trkpt>
      <trkpt lat="40.11351834051311016082763671875" lon="-0.74635139666497707366943359375">
        <ele>939.5999755859375</ele>
        <time>2022-08-26T17:33:45.000Z</time>
      </trkpt>
      <trkpt lat="40.11348615400493144989013671875" lon="-0.74598343111574649810791015625">
        <ele>939.79998779296875</ele>
        <time>2022-08-26T17:33:50.000Z</time>
      </trkpt>
      <trkpt lat="40.1134295761585235595703125" lon="-0.74528756551444530487060546875">
        <ele>940</ele>
        <time>2022-08-26T17:34:00.000Z</time>
      </trkpt>
      <trkpt lat="40.1133828051388263702392578125" lon="-0.74494273401796817779541015625">
        <ele>940</ele>
        <time>2022-08-26T17:34:05.000Z</time>
      </trkpt>
      <trkpt lat="40.113362856209278106689453125" lon="-0.744778029620647430419921875">
        <ele>940.4000244140625</ele>
        <time>2022-08-26T17:34:09.000Z</time>
      </trkpt>
      <trkpt lat="40.11332304216921329498291015625" lon="-0.7445481978356838226318359375">
        <ele>940.4000244140625</ele>
        <time>2022-08-26T17:34:14.000Z</time>
      </trkpt>
      <trkpt lat="40.11327995918691158294677734375" lon="-0.74443973600864410400390625">
        <ele>940.79998779296875</ele>
        <time>2022-08-26T17:34:16.000Z</time>
      </trkpt>
      <trkpt lat="40.1131559908390045166015625" lon="-0.7441998459398746490478515625">
        <ele>941</ele>
        <time>2022-08-26T17:34:20.000Z</time>
      </trkpt>
      <trkpt lat="40.11294208467006683349609375" lon="-0.74387890286743640899658203125">
        <ele>941.4000244140625</ele>
        <time>2022-08-26T17:34:26.000Z</time>
      </trkpt>
      <trkpt lat="40.1126291044056415557861328125" lon="-0.7435199059545993804931640625">
        <ele>941.4000244140625</ele>
        <time>2022-08-26T17:34:33.000Z</time>
      </trkpt>
      <trkpt lat="40.11258325539529323577880859375" lon="-0.7434769906103610992431640625">
        <ele>941.5999755859375</ele>
        <time>2022-08-26T17:34:34.000Z</time>
      </trkpt>
      <trkpt lat="40.11222191154956817626953125" lon="-0.74322226457297801971435546875">
        <ele>941.5999755859375</ele>
        <time>2022-08-26T17:34:41.000Z</time>
      </trkpt>
      <trkpt lat="40.11161447502672672271728515625" lon="-0.74294348247349262237548828125">
        <ele>941.5999755859375</ele>
        <time>2022-08-26T17:34:52.000Z</time>
      </trkpt>
      <trkpt lat="40.111076273024082183837890625" lon="-0.742715410888195037841796875">
        <ele>941.4000244140625</ele>
        <time>2022-08-26T17:35:02.000Z</time>
      </trkpt>
      <trkpt lat="40.11102254502475261688232421875" lon="-0.74269051663577556610107421875">
        <ele>941.4000244140625</ele>
        <time>2022-08-26T17:35:03.000Z</time>
      </trkpt>
      <trkpt lat="40.11096739210188388824462890625" lon="-0.74266637675464153289794921875">
        <ele>941.4000244140625</ele>
        <time>2022-08-26T17:35:04.000Z</time>
      </trkpt>
      <trkpt lat="40.11045525781810283660888671875" lon="-0.7424815557897090911865234375">
        <ele>941.5999755859375</ele>
        <time>2022-08-26T17:35:14.000Z</time>
      </trkpt>
      <trkpt lat="40.10992870666086673736572265625" lon="-0.74237368069589138031005859375">
        <ele>941.5999755859375</ele>
        <time>2022-08-26T17:35:22.000Z</time>
      </trkpt>
      <trkpt lat="40.109871290624141693115234375" lon="-0.74236772954463958740234375">
        <ele>941.5999755859375</ele>
        <time>2022-08-26T17:35:24.000Z</time>
      </trkpt>
      <trkpt lat="40.109411291778087615966796875" lon="-0.7423625327646732330322265625">
        <ele>941.79998779296875</ele>
        <time>2022-08-26T17:35:31.000Z</time>
      </trkpt>
      <trkpt lat="40.109411291778087615966796875" lon="-0.7423625327646732330322265625">
        <ele>942</ele>
        <time>2022-08-26T17:35:32.000Z</time>
      </trkpt>
      <trkpt lat="40.10900787077844142913818359375" lon="-0.7423739321529865264892578125">
        <ele>942</ele>
        <time>2022-08-26T17:35:39.000Z</time>
      </trkpt>
      <trkpt lat="40.1085015200078487396240234375" lon="-0.7424287497997283935546875">
        <ele>941.79998779296875</ele>
        <time>2022-08-26T17:35:48.000Z</time>
      </trkpt>
      <trkpt lat="40.10793733410537242889404296875" lon="-0.7424735091626644134521484375">
        <ele>941.79998779296875</ele>
        <time>2022-08-26T17:35:58.000Z</time>
      </trkpt>
      <trkpt lat="40.10788419283926486968994140625" lon="-0.74247929267585277557373046875">
        <ele>941.79998779296875</ele>
        <time>2022-08-26T17:35:59.000Z</time>
      </trkpt>
      <trkpt lat="40.10756081901490688323974609375" lon="-0.74250812642276287078857421875">
        <ele>941.79998779296875</ele>
        <time>2022-08-26T17:36:05.000Z</time>
      </trkpt>
      <trkpt lat="40.1071004010736942291259765625" lon="-0.7425113953649997711181640625">
        <ele>941.5999755859375</ele>
        <time>2022-08-26T17:36:14.000Z</time>
      </trkpt>
      <trkpt lat="40.1071004010736942291259765625" lon="-0.7425113953649997711181640625">
        <ele>941.5999755859375</ele>
        <time>2022-08-26T17:36:15.000Z</time>
      </trkpt>
      <trkpt lat="40.10667468421161174774169921875" lon="-0.7425010018050670623779296875">
        <ele>941.5999755859375</ele>
        <time>2022-08-26T17:36:22.000Z</time>
      </trkpt>
      <trkpt lat="40.10629699565470218658447265625" lon="-0.742421709001064300537109375">
        <ele>941.4000244140625</ele>
        <time>2022-08-26T17:36:30.000Z</time>
      </trkpt>
      <trkpt lat="40.105842612683773040771484375" lon="-0.74233612976968288421630859375">
        <ele>941.5999755859375</ele>
        <time>2022-08-26T17:36:38.000Z</time>
      </trkpt>
      <trkpt lat="40.105312876403331756591796875" lon="-0.7422327809035778045654296875">
        <ele>941.79998779296875</ele>
        <time>2022-08-26T17:36:47.000Z</time>
      </trkpt>
      <trkpt lat="40.105041973292827606201171875" lon="-0.74219061993062496185302734375">
        <ele>941.79998779296875</ele>
        <time>2022-08-26T17:36:52.000Z</time>
      </trkpt>
      <trkpt lat="40.1048761792480945587158203125" lon="-0.74215189553797245025634765625">
        <ele>941.79998779296875</ele>
        <time>2022-08-26T17:36:55.000Z</time>
      </trkpt>
      <trkpt lat="40.10434049181640148162841796875" lon="-0.7420480437576770782470703125">
        <ele>941.5999755859375</ele>
        <time>2022-08-26T17:37:05.000Z</time>
      </trkpt>
      <trkpt lat="40.10390262119472026824951171875" lon="-0.74196833185851573944091796875">
        <ele>941.5999755859375</ele>
        <time>2022-08-26T17:37:13.000Z</time>
      </trkpt>
      <trkpt lat="40.103419907391071319580078125" lon="-0.74184830300509929656982421875">
        <ele>941.20001220703125</ele>
        <time>2022-08-26T17:37:22.000Z</time>
      </trkpt>
      <trkpt lat="40.10288254357874393463134765625" lon="-0.74173246510326862335205078125">
        <ele>941.5999755859375</ele>
        <time>2022-08-26T17:37:32.000Z</time>
      </trkpt>
      <trkpt lat="40.10257157497107982635498046875" lon="-0.7416614703834056854248046875">
        <ele>941.4000244140625</ele>
        <time>2022-08-26T17:37:39.000Z</time>
      </trkpt>
      <trkpt lat="40.10242690332233905792236328125" lon="-0.74163707904517650604248046875">
        <ele>941.5999755859375</ele>
        <time>2022-08-26T17:37:42.000Z</time>
      </trkpt>
      <trkpt lat="40.10216203518211841583251953125" lon="-0.74158050119876861572265625">
        <ele>941.4000244140625</ele>
        <time>2022-08-26T17:37:47.000Z</time>
      </trkpt>
      <trkpt lat="40.10161134414374828338623046875" lon="-0.74146508239209651947021484375">
        <ele>941.4000244140625</ele>
        <time>2022-08-26T17:37:57.000Z</time>
      </trkpt>
      <trkpt lat="40.10122485458850860595703125" lon="-0.7413969375193119049072265625">
        <ele>941.4000244140625</ele>
        <time>2022-08-26T17:38:04.000Z</time>
      </trkpt>
      <trkpt lat="40.10072655044496059417724609375" lon="-0.74129962362349033355712890625">
        <ele>941.4000244140625</ele>
        <time>2022-08-26T17:38:13.000Z</time>
      </trkpt>
      <trkpt lat="40.1004270650446414947509765625" lon="-0.7412420399487018585205078125">
        <ele>941.4000244140625</ele>
        <time>2022-08-26T17:38:20.000Z</time>
      </trkpt>
      <trkpt lat="40.09998433291912078857421875" lon="-0.7411555387079715728759765625">
        <ele>941.20001220703125</ele>
        <time>2022-08-26T17:38:28.000Z</time>
      </trkpt>
      <trkpt lat="40.09993068873882293701171875" lon="-0.74114506132900714874267578125">
        <ele>941.4000244140625</ele>
        <time>2022-08-26T17:38:30.000Z</time>
      </trkpt>
      <trkpt lat="40.09946943260729312896728515625" lon="-0.74105168692767620086669921875">
        <ele>941.4000244140625</ele>
        <time>2022-08-26T17:38:38.000Z</time>
      </trkpt>
      <trkpt lat="40.09893030859529972076416015625" lon="-0.740941464900970458984375">
        <ele>941.5999755859375</ele>
        <time>2022-08-26T17:38:49.000Z</time>
      </trkpt>
      <trkpt lat="40.0988288037478923797607421875" lon="-0.74091908521950244903564453125">
        <ele>941.5999755859375</ele>
        <time>2022-08-26T17:38:50.000Z</time>
      </trkpt>
      <trkpt lat="40.09852663613855838775634765625" lon="-0.74085001833736896514892578125">
        <ele>941.20001220703125</ele>
        <time>2022-08-26T17:38:57.000Z</time>
      </trkpt>
      <trkpt lat="40.0980999134480953216552734375" lon="-0.740748345851898193359375">
        <ele>941.4000244140625</ele>
        <time>2022-08-26T17:39:06.000Z</time>
      </trkpt>
      <trkpt lat="40.09805272333323955535888671875" lon="-0.74072831310331821441650390625">
        <ele>941.5999755859375</ele>
        <time>2022-08-26T17:39:07.000Z</time>
      </trkpt>
      <trkpt lat="40.0976265035569667816162109375" lon="-0.7406392134726047515869140625">
        <ele>942</ele>
        <time>2022-08-26T17:39:16.000Z</time>
      </trkpt>
      <trkpt lat="40.0972057320177555084228515625" lon="-0.74056268669664859771728515625">
        <ele>942</ele>
        <time>2022-08-26T17:39:25.000Z</time>
      </trkpt>
      <trkpt lat="40.0968811847269535064697265625" lon="-0.74049462564289569854736328125">
        <ele>941.5999755859375</ele>
        <time>2022-08-26T17:39:33.000Z</time>
      </trkpt>
      <trkpt lat="40.0965117104351520538330078125" lon="-0.74043653905391693115234375">
        <ele>941.4000244140625</ele>
        <time>2022-08-26T17:39:40.000Z</time>
      </trkpt>
      <trkpt lat="40.09603570215404033660888671875" lon="-0.7403421588242053985595703125">
        <ele>941.5999755859375</ele>
        <time>2022-08-26T17:39:50.000Z</time>
      </trkpt>
      <trkpt lat="40.09560101665556430816650390625" lon="-0.74025037698447704315185546875">
        <ele>942</ele>
        <time>2022-08-26T17:40:00.000Z</time>
      </trkpt>
      <trkpt lat="40.0953595340251922607421875" lon="-0.74020989239215850830078125">
        <ele>942.20001220703125</ele>
        <time>2022-08-26T17:40:05.000Z</time>
      </trkpt>
      <trkpt lat="40.094966925680637359619140625" lon="-0.74013470672070980072021484375">
        <ele>942.79998779296875</ele>
        <time>2022-08-26T17:40:12.000Z</time>
      </trkpt>
      <trkpt lat="40.09450986050069332122802734375" lon="-0.73998936451971530914306640625">
        <ele>942.5999755859375</ele>
        <time>2022-08-26T17:40:22.000Z</time>
      </trkpt>
      <trkpt lat="40.0942935235798358917236328125" lon="-0.739872269332408905029296875">
        <ele>942.79998779296875</ele>
        <time>2022-08-26T17:40:27.000Z</time>
      </trkpt>
      <trkpt lat="40.09421582333743572235107421875" lon="-0.739810578525066375732421875">
        <ele>942.79998779296875</ele>
        <time>2022-08-26T17:40:29.000Z</time>
      </trkpt>
      <trkpt lat="40.09417525492608547210693359375" lon="-0.73977780528366565704345703125">
        <ele>942.79998779296875</ele>
        <time>2022-08-26T17:40:30.000Z</time>
      </trkpt>
      <trkpt lat="40.09388222359120845794677734375" lon="-0.73945996351540088653564453125">
        <ele>942.79998779296875</ele>
        <time>2022-08-26T17:40:38.000Z</time>
      </trkpt>
      <trkpt lat="40.0936246477067470550537109375" lon="-0.73906056582927703857421875">
        <ele>943.20001220703125</ele>
        <time>2022-08-26T17:40:47.000Z</time>
      </trkpt>
      <trkpt lat="40.09344904683530330657958984375" lon="-0.7387512736022472381591796875">
        <ele>943.20001220703125</ele>
        <time>2022-08-26T17:40:53.000Z</time>
      </trkpt>
      <trkpt lat="40.093384422361850738525390625" lon="-0.738643147051334381103515625">
        <ele>943.20001220703125</ele>
        <time>2022-08-26T17:40:55.000Z</time>
      </trkpt>
      <trkpt lat="40.09315098635852336883544921875" lon="-0.7382580824196338653564453125">
        <ele>943.4000244140625</ele>
        <time>2022-08-26T17:41:02.000Z</time>
      </trkpt>
      <trkpt lat="40.09279089979827404022216796875" lon="-0.7376656495034694671630859375">
        <ele>943.79998779296875</ele>
        <time>2022-08-26T17:41:13.000Z</time>
      </trkpt>
      <trkpt lat="40.092729963362216949462890625" lon="-0.7375603727996349334716796875">
        <ele>943.79998779296875</ele>
        <time>2022-08-26T17:41:15.000Z</time>
      </trkpt>
      <trkpt lat="40.09269534610211849212646484375" lon="-0.73750731535255908966064453125">
        <ele>943.79998779296875</ele>
        <time>2022-08-26T17:41:16.000Z</time>
      </trkpt>
      <trkpt lat="40.0925748981535434722900390625" lon="-0.73736046440899372100830078125">
        <ele>944</ele>
        <time>2022-08-26T17:41:19.000Z</time>
      </trkpt>
      <trkpt lat="40.0922694616019725799560546875" lon="-0.7370618171989917755126953125">
        <ele>944.20001220703125</ele>
        <time>2022-08-26T17:41:26.000Z</time>
      </trkpt>
      <trkpt lat="40.09197701700031757354736328125" lon="-0.7368846237659454345703125">
        <ele>944.4000244140625</ele>
        <time>2022-08-26T17:41:32.000Z</time>
      </trkpt>
      <trkpt lat="40.091928653419017791748046875" lon="-0.73686257936060428619384765625">
        <ele>944.4000244140625</ele>
        <time>2022-08-26T17:41:33.000Z</time>
      </trkpt>
      <trkpt lat="40.0915677286684513092041015625" lon="-0.7367671094834804534912109375">
        <ele>944.79998779296875</ele>
        <time>2022-08-26T17:41:40.000Z</time>
      </trkpt>
      <trkpt lat="40.09114821441471576690673828125" lon="-0.7367312349379062652587890625">
        <ele>945</ele>
        <time>2022-08-26T17:41:48.000Z</time>
      </trkpt>
      <trkpt lat="40.09104344062507152557373046875" lon="-0.736722014844417572021484375">
        <ele>945</ele>
        <time>2022-08-26T17:41:50.000Z</time>
      </trkpt>
      <trkpt lat="40.09049442596733570098876953125" lon="-0.73668010532855987548828125">
        <ele>945.20001220703125</ele>
        <time>2022-08-26T17:42:01.000Z</time>
      </trkpt>
      <trkpt lat="40.08991062641143798828125" lon="-0.73664012365043163299560546875">
        <ele>945.5999755859375</ele>
        <time>2022-08-26T17:42:13.000Z</time>
      </trkpt>
      <trkpt lat="40.08981448598206043243408203125" lon="-0.73663241229951381683349609375">
        <ele>945.5999755859375</ele>
        <time>2022-08-26T17:42:15.000Z</time>
      </trkpt>
      <trkpt lat="40.08925993926823139190673828125" lon="-0.73658446781337261199951171875">
        <ele>945.79998779296875</ele>
        <time>2022-08-26T17:42:28.000Z</time>
      </trkpt>
      <trkpt lat="40.088923908770084381103515625" lon="-0.73654733598232269287109375">
        <ele>946</ele>
        <time>2022-08-26T17:42:35.000Z</time>
      </trkpt>
      <trkpt lat="40.08873322047293186187744140625" lon="-0.73653048835694789886474609375">
        <ele>946.4000244140625</ele>
        <time>2022-08-26T17:42:39.000Z</time>
      </trkpt>
      <trkpt lat="40.088289566338062286376953125" lon="-0.7364838011562824249267578125">
        <ele>946.4000244140625</ele>
        <time>2022-08-26T17:42:48.000Z</time>
      </trkpt>
      <trkpt lat="40.08798203431069850921630859375" lon="-0.73647885583341121673583984375">
        <ele>946.5999755859375</ele>
        <time>2022-08-26T17:42:55.000Z</time>
      </trkpt>
      <trkpt lat="40.08784071542322635650634765625" lon="-0.7364697195589542388916015625">
        <ele>946.79998779296875</ele>
        <time>2022-08-26T17:42:59.000Z</time>
      </trkpt>
      <trkpt lat="40.0876436568796634674072265625" lon="-0.73646091856062412261962890625">
        <ele>946.79998779296875</ele>
        <time>2022-08-26T17:43:02.000Z</time>
      </trkpt>
      <trkpt lat="40.087287090718746185302734375" lon="-0.7364328391849994659423828125">
        <ele>947.4000244140625</ele>
        <time>2022-08-26T17:43:11.000Z</time>
      </trkpt>
      <trkpt lat="40.0868725217878818511962890625" lon="-0.73639235459268093109130859375">
        <ele>947.4000244140625</ele>
        <time>2022-08-26T17:43:20.000Z</time>
      </trkpt>
      <trkpt lat="40.0865161232650279998779296875" lon="-0.73633753694593906402587890625">
        <ele>947.5999755859375</ele>
        <time>2022-08-26T17:43:27.000Z</time>
      </trkpt>
      <trkpt lat="40.08624563924968242645263671875" lon="-0.73631641454994678497314453125">
        <ele>948</ele>
        <time>2022-08-26T17:43:34.000Z</time>
      </trkpt>
      <trkpt lat="40.08611421100795269012451171875" lon="-0.736295878887176513671875">
        <ele>948.20001220703125</ele>
        <time>2022-08-26T17:43:36.000Z</time>
      </trkpt>
      <trkpt lat="40.0857942737638950347900390625" lon="-0.73625505901873111724853515625">
        <ele>948.4000244140625</ele>
        <time>2022-08-26T17:43:44.000Z</time>
      </trkpt>
      <trkpt lat="40.08546209894120693206787109375" lon="-0.73622991330921649932861328125">
        <ele>948.79998779296875</ele>
        <time>2022-08-26T17:43:51.000Z</time>
      </trkpt>
      <trkpt lat="40.08541381917893886566162109375" lon="-0.73623058386147022247314453125">
        <ele>948.79998779296875</ele>
        <time>2022-08-26T17:43:52.000Z</time>
      </trkpt>
      <trkpt lat="40.08498768322169780731201171875" lon="-0.73621599934995174407958984375">
        <ele>948.79998779296875</ele>
        <time>2022-08-26T17:44:01.000Z</time>
      </trkpt>
      <trkpt lat="40.0845430232584476470947265625" lon="-0.7361887581646442413330078125">
        <ele>949</ele>
        <time>2022-08-26T17:44:10.000Z</time>
      </trkpt>
      <trkpt lat="40.08436105214059352874755859375" lon="-0.736169479787349700927734375">
        <ele>949.20001220703125</ele>
        <time>2022-08-26T17:44:13.000Z</time>
      </trkpt>
      <trkpt lat="40.0841963477432727813720703125" lon="-0.73615011759102344512939453125">
        <ele>949.4000244140625</ele>
        <time>2022-08-26T17:44:18.000Z</time>
      </trkpt>
      <trkpt lat="40.083791501820087432861328125" lon="-0.73605992831289768218994140625">
        <ele>949.79998779296875</ele>
        <time>2022-08-26T17:44:26.000Z</time>
      </trkpt>
      <trkpt lat="40.083707682788372039794921875" lon="-0.7360303401947021484375">
        <ele>950</ele>
        <time>2022-08-26T17:44:29.000Z</time>
      </trkpt>
      <trkpt lat="40.08350190706551074981689453125" lon="-0.73591777123510837554931640625">
        <ele>950</ele>
        <time>2022-08-26T17:44:34.000Z</time>
      </trkpt>
      <trkpt lat="40.08332739584147930145263671875" lon="-0.735813416540622711181640625">
        <ele>950.20001220703125</ele>
        <time>2022-08-26T17:44:37.000Z</time>
      </trkpt>
      <trkpt lat="40.0832076184451580047607421875" lon="-0.7357193715870380401611328125">
        <ele>950.20001220703125</ele>
        <time>2022-08-26T17:44:41.000Z</time>
      </trkpt>
      <trkpt lat="40.08282800205051898956298828125" lon="-0.73533606715500354766845703125">
        <ele>950.20001220703125</ele>
        <time>2022-08-26T17:44:50.000Z</time>
      </trkpt>
      <trkpt lat="40.08252340368926525115966796875" lon="-0.73486701585352420806884765625">
        <ele>950.4000244140625</ele>
        <time>2022-08-26T17:45:00.000Z</time>
      </trkpt>
      <trkpt lat="40.08249641396105289459228515625" lon="-0.7348194904625415802001953125">
        <ele>950.4000244140625</ele>
        <time>2022-08-26T17:45:01.000Z</time>
      </trkpt>
      <trkpt lat="40.08224579505622386932373046875" lon="-0.73437265120446681976318359375">
        <ele>950.5999755859375</ele>
        <time>2022-08-26T17:45:11.000Z</time>
      </trkpt>
      <trkpt lat="40.08191035129129886627197265625" lon="-0.73377233929932117462158203125">
        <ele>950.79998779296875</ele>
        <time>2022-08-26T17:45:22.000Z</time>
      </trkpt>
      <trkpt lat="40.08188118226826190948486328125" lon="-0.7337222993373870849609375">
        <ele>950.79998779296875</ele>
        <time>2022-08-26T17:45:23.000Z</time>
      </trkpt>
      <trkpt lat="40.08182485587894916534423828125" lon="-0.73362213559448719024658203125">
        <ele>950.79998779296875</ele>
        <time>2022-08-26T17:45:25.000Z</time>
      </trkpt>
      <trkpt lat="40.08153802715241909027099609375" lon="-0.73312726803123950958251953125">
        <ele>951.20001220703125</ele>
        <time>2022-08-26T17:45:36.000Z</time>
      </trkpt>
      <trkpt lat="40.081313140690326690673828125" lon="-0.7327102683484554290771484375">
        <ele>951.4000244140625</ele>
        <time>2022-08-26T17:45:44.000Z</time>
      </trkpt>
      <trkpt lat="40.0811116397380828857421875" lon="-0.7323615811765193939208984375">
        <ele>951.79998779296875</ele>
        <time>2022-08-26T17:45:53.000Z</time>
      </trkpt>
      <trkpt lat="40.08090251125395298004150390625" lon="-0.73199856095016002655029296875">
        <ele>952</ele>
        <time>2022-08-26T17:46:02.000Z</time>
      </trkpt>
      <trkpt lat="40.080825649201869964599609375" lon="-0.7318737544119358062744140625">
        <ele>952</ele>
        <time>2022-08-26T17:46:06.000Z</time>
      </trkpt>
      <trkpt lat="40.0806957297027111053466796875" lon="-0.73164417408406734466552734375">
        <ele>952.20001220703125</ele>
        <time>2022-08-26T17:46:11.000Z</time>
      </trkpt>
      <trkpt lat="40.0804550014436244964599609375" lon="-0.731316693127155303955078125">
        <ele>952.5999755859375</ele>
        <time>2022-08-26T17:46:21.000Z</time>
      </trkpt>
      <trkpt lat="40.08039708249270915985107421875" lon="-0.731246285140514373779296875">
        <ele>952.79998779296875</ele>
        <time>2022-08-26T17:46:23.000Z</time>
      </trkpt>
      <trkpt lat="40.08021938614547252655029296875" lon="-0.7310405932366847991943359375">
        <ele>953</ele>
        <time>2022-08-26T17:46:29.000Z</time>
      </trkpt>
      <trkpt lat="40.079965330660343170166015625" lon="-0.73086147196590900421142578125">
        <ele>953.20001220703125</ele>
        <time>2022-08-26T17:46:35.000Z</time>
      </trkpt>
      <trkpt lat="40.079965330660343170166015625" lon="-0.73086147196590900421142578125">
        <ele>953.20001220703125</ele>
        <time>2022-08-26T17:46:36.000Z</time>
      </trkpt>
      <trkpt lat="40.0797566212713718414306640625" lon="-0.73074705898761749267578125">
        <ele>953.20001220703125</ele>
        <time>2022-08-26T17:46:41.000Z</time>
      </trkpt>
      <trkpt lat="40.07968537509441375732421875" lon="-0.73068930767476558685302734375">
        <ele>953.4000244140625</ele>
        <time>2022-08-26T17:46:43.000Z</time>
      </trkpt>
      <trkpt lat="40.07965226657688617706298828125" lon="-0.7306587137281894683837890625">
        <ele>953.4000244140625</ele>
        <time>2022-08-26T17:46:44.000Z</time>
      </trkpt>
      <trkpt lat="40.0793566368520259857177734375" lon="-0.73043592274188995361328125">
        <ele>953.4000244140625</ele>
        <time>2022-08-26T17:46:52.000Z</time>
      </trkpt>
      <trkpt lat="40.07897014729678630828857421875" lon="-0.73017767630517482757568359375">
        <ele>953.5999755859375</ele>
        <time>2022-08-26T17:47:02.000Z</time>
      </trkpt>
      <trkpt lat="40.07868315093219280242919921875" lon="-0.7299881614744663238525390625">
        <ele>953.79998779296875</ele>
        <time>2022-08-26T17:47:10.000Z</time>
      </trkpt>
      <trkpt lat="40.078604780137538909912109375" lon="-0.72993225418031215667724609375">
        <ele>953.79998779296875</ele>
        <time>2022-08-26T17:47:12.000Z</time>
      </trkpt>
      <trkpt lat="40.078370757400989532470703125" lon="-0.7297739200294017791748046875">
        <ele>954</ele>
        <time>2022-08-26T17:47:18.000Z</time>
      </trkpt>
      <trkpt lat="40.0781110860407352447509765625" lon="-0.7295965589582920074462890625">
        <ele>954</ele>
        <time>2022-08-26T17:47:24.000Z</time>
      </trkpt>
      <trkpt lat="40.07767883129417896270751953125" lon="-0.7293154299259185791015625">
        <ele>954.5999755859375</ele>
        <time>2022-08-26T17:47:33.000Z</time>
      </trkpt>
      <trkpt lat="40.07767883129417896270751953125" lon="-0.7293154299259185791015625">
        <ele>954.5999755859375</ele>
        <time>2022-08-26T17:47:34.000Z</time>
      </trkpt>
      <trkpt lat="40.07733986712992191314697265625" lon="-0.729094482958316802978515625">
        <ele>954.5999755859375</ele>
        <time>2022-08-26T17:47:42.000Z</time>
      </trkpt>
      <trkpt lat="40.07698195986449718475341796875" lon="-0.72885970585048198699951171875">
        <ele>955</ele>
        <time>2022-08-26T17:47:51.000Z</time>
      </trkpt>
      <trkpt lat="40.07674056105315685272216796875" lon="-0.7287000305950641632080078125">
        <ele>955</ele>
        <time>2022-08-26T17:47:57.000Z</time>
      </trkpt>
      <trkpt lat="40.07658398710191249847412109375" lon="-0.728587210178375244140625">
        <ele>955.20001220703125</ele>
        <time>2022-08-26T17:48:01.000Z</time>
      </trkpt>
      <trkpt lat="40.07619917392730712890625" lon="-0.72832460515201091766357421875">
        <ele>955.20001220703125</ele>
        <time>2022-08-26T17:48:11.000Z</time>
      </trkpt>
      <trkpt lat="40.0760139338672161102294921875" lon="-0.72820373810827732086181640625">
        <ele>955.5999755859375</ele>
        <time>2022-08-26T17:48:16.000Z</time>
      </trkpt>
      <trkpt lat="40.07582307793200016021728515625" lon="-0.72808085940778255462646484375">
        <ele>956</ele>
        <time>2022-08-26T17:48:20.000Z</time>
      </trkpt>
      <trkpt lat="40.0754241831600666046142578125" lon="-0.727836191654205322265625">
        <ele>956.4000244140625</ele>
        <time>2022-08-26T17:48:30.000Z</time>
      </trkpt>
      <trkpt lat="40.0754241831600666046142578125" lon="-0.727836191654205322265625">
        <ele>956.5999755859375</ele>
        <time>2022-08-26T17:48:31.000Z</time>
      </trkpt>
      <trkpt lat="40.07517549209296703338623046875" lon="-0.72766193188726902008056640625">
        <ele>957</ele>
        <time>2022-08-26T17:48:39.000Z</time>
      </trkpt>
      <trkpt lat="40.0751499272882938385009765625" lon="-0.7276442460715770721435546875">
        <ele>957.5999755859375</ele>
        <time>2022-08-26T17:48:41.000Z</time>
      </trkpt>
      <trkpt lat="40.07498019374907016754150390625" lon="-0.727487504482269287109375">
        <ele>958.5999755859375</ele>
        <time>2022-08-26T17:48:48.000Z</time>
      </trkpt>
      <trkpt lat="40.07495555095374584197998046875" lon="-0.72745732963085174560546875">
        <ele>958.79998779296875</ele>
        <time>2022-08-26T17:48:49.000Z</time>
      </trkpt>
      <trkpt lat="40.074774920940399169921875" lon="-0.7273171842098236083984375">
        <ele>959.5999755859375</ele>
        <time>2022-08-26T17:48:55.000Z</time>
      </trkpt>
      <trkpt lat="40.07460870780050754547119140625" lon="-0.727205537259578704833984375">
        <ele>960.5999755859375</ele>
        <time>2022-08-26T17:49:00.000Z</time>
      </trkpt>
      <trkpt lat="40.07440955378115177154541015625" lon="-0.727085508406162261962890625">
        <ele>961</ele>
        <time>2022-08-26T17:49:06.000Z</time>
      </trkpt>
      <trkpt lat="40.0740949809551239013671875" lon="-0.726906470954418182373046875">
        <ele>960.79998779296875</ele>
        <time>2022-08-26T17:49:15.000Z</time>
      </trkpt>
      <trkpt lat="40.07386690936982631683349609375" lon="-0.7267996855080127716064453125">
        <ele>961</ele>
        <time>2022-08-26T17:49:20.000Z</time>
      </trkpt>
      <trkpt lat="40.073312781751155853271484375" lon="-0.72657396085560321807861328125">
        <ele>960.79998779296875</ele>
        <time>2022-08-26T17:49:31.000Z</time>
      </trkpt>
      <trkpt lat="40.0732661783695220947265625" lon="-0.7265545986592769622802734375">
        <ele>960.79998779296875</ele>
        <time>2022-08-26T17:49:33.000Z</time>
      </trkpt>
      <trkpt lat="40.07294456474483013153076171875" lon="-0.72645418345928192138671875">
        <ele>960.20001220703125</ele>
        <time>2022-08-26T17:49:39.000Z</time>
      </trkpt>
      <trkpt lat="40.0725366175174713134765625" lon="-0.72634547017514705657958984375">
        <ele>960</ele>
        <time>2022-08-26T17:49:47.000Z</time>
      </trkpt>
      <trkpt lat="40.07222925312817096710205078125" lon="-0.72629098780453205108642578125">
        <ele>959.5999755859375</ele>
        <time>2022-08-26T17:49:53.000Z</time>
      </trkpt>
      <trkpt lat="40.0719342939555644989013671875" lon="-0.72625477798283100128173828125">
        <ele>959.4000244140625</ele>
        <time>2022-08-26T17:49:59.000Z</time>
      </trkpt>
      <trkpt lat="40.0715296156704425811767578125" lon="-0.72622762061655521392822265625">
        <ele>959.4000244140625</ele>
        <time>2022-08-26T17:50:07.000Z</time>
      </trkpt>
      <trkpt lat="40.0711185671389102935791015625" lon="-0.72621219791471958160400390625">
        <ele>959.5999755859375</ele>
        <time>2022-08-26T17:50:14.000Z</time>
      </trkpt>
      <trkpt lat="40.07076174952089786529541015625" lon="-0.726232565939426422119140625">
        <ele>959.79998779296875</ele>
        <time>2022-08-26T17:50:21.000Z</time>
      </trkpt>
      <trkpt lat="40.07038414478302001953125" lon="-0.726366005837917327880859375">
        <ele>959.5999755859375</ele>
        <time>2022-08-26T17:50:29.000Z</time>
      </trkpt>
      <trkpt lat="40.06999379955232143402099609375" lon="-0.72664855979382991790771484375">
        <ele>959.20001220703125</ele>
        <time>2022-08-26T17:50:37.000Z</time>
      </trkpt>
      <trkpt lat="40.0695457868278026580810546875" lon="-0.72702557779848575592041015625">
        <ele>957.79998779296875</ele>
        <time>2022-08-26T17:50:46.000Z</time>
      </trkpt>
      <trkpt lat="40.06949457339942455291748046875" lon="-0.7270689122378826141357421875">
        <ele>957.79998779296875</ele>
        <time>2022-08-26T17:50:47.000Z</time>
      </trkpt>
      <trkpt lat="40.06904077716171741485595703125" lon="-0.7274756021797657012939453125">
        <ele>956.5999755859375</ele>
        <time>2022-08-26T17:50:56.000Z</time>
      </trkpt>
      <trkpt lat="40.06904077716171741485595703125" lon="-0.7274756021797657012939453125">
        <ele>956.5999755859375</ele>
        <time>2022-08-26T17:50:57.000Z</time>
      </trkpt>
      <trkpt lat="40.06866258569061756134033203125" lon="-0.7277750037610530853271484375">
        <ele>955.5999755859375</ele>
        <time>2022-08-26T17:51:04.000Z</time>
      </trkpt>
      <trkpt lat="40.068461000919342041015625" lon="-0.7279396243393421173095703125">
        <ele>955.20001220703125</ele>
        <time>2022-08-26T17:51:08.000Z</time>
      </trkpt>
      <trkpt lat="40.06819537840783596038818359375" lon="-0.7281629182398319244384765625">
        <ele>954.4000244140625</ele>
        <time>2022-08-26T17:51:13.000Z</time>
      </trkpt>
      <trkpt lat="40.06814290769398212432861328125" lon="-0.728210024535655975341796875">
        <ele>954.20001220703125</ele>
        <time>2022-08-26T17:51:14.000Z</time>
      </trkpt>
      <trkpt lat="40.06776320748031139373779296875" lon="-0.7285317219793796539306640625">
        <ele>953</ele>
        <time>2022-08-26T17:51:22.000Z</time>
      </trkpt>
      <trkpt lat="40.06770403124392032623291015625" lon="-0.72856952436268329620361328125">
        <ele>953</ele>
        <time>2022-08-26T17:51:23.000Z</time>
      </trkpt>
      <trkpt lat="40.06746967323124408721923828125" lon="-0.7286785729229450225830078125">
        <ele>952.5999755859375</ele>
        <time>2022-08-26T17:51:27.000Z</time>
      </trkpt>
      <trkpt lat="40.0670654140412807464599609375" lon="-0.72876088321208953857421875">
        <ele>952</ele>
        <time>2022-08-26T17:51:34.000Z</time>
      </trkpt>
      <trkpt lat="40.06667205132544040679931640625" lon="-0.7287348993122577667236328125">
        <ele>952</ele>
        <time>2022-08-26T17:51:41.000Z</time>
      </trkpt>
      <trkpt lat="40.0662641040980815887451171875" lon="-0.72858125902712345123291015625">
        <ele>952</ele>
        <time>2022-08-26T17:51:48.000Z</time>
      </trkpt>
      <trkpt lat="40.0658833980560302734375" lon="-0.728346817195415496826171875">
        <ele>951.79998779296875</ele>
        <time>2022-08-26T17:51:56.000Z</time>
      </trkpt>
      <trkpt lat="40.06541174836456775665283203125" lon="-0.727961920201778411865234375">
        <ele>952</ele>
        <time>2022-08-26T17:52:08.000Z</time>
      </trkpt>
      <trkpt lat="40.06537235341966152191162109375" lon="-0.727924369275569915771484375">
        <ele>952</ele>
        <time>2022-08-26T17:52:09.000Z</time>
      </trkpt>
      <trkpt lat="40.0649186410009860992431640625" lon="-0.7274754345417022705078125">
        <ele>952.20001220703125</ele>
        <time>2022-08-26T17:52:20.000Z</time>
      </trkpt>
      <trkpt lat="40.0648435391485691070556640625" lon="-0.72739899158477783203125">
        <ele>952.4000244140625</ele>
        <time>2022-08-26T17:52:22.000Z</time>
      </trkpt>
      <trkpt lat="40.0644630007445812225341796875" lon="-0.727020800113677978515625">
        <ele>952.4000244140625</ele>
        <time>2022-08-26T17:52:32.000Z</time>
      </trkpt>
      <trkpt lat="40.06401197053492069244384765625" lon="-0.72664906270802021026611328125">
        <ele>952.79998779296875</ele>
        <time>2022-08-26T17:52:43.000Z</time>
      </trkpt>
      <trkpt lat="40.06384014151990413665771484375" lon="-0.72654814459383487701416015625">
        <ele>953</ele>
        <time>2022-08-26T17:52:47.000Z</time>
      </trkpt>
      <trkpt lat="40.063617937266826629638671875" lon="-0.7264389283955097198486328125">
        <ele>953.20001220703125</ele>
        <time>2022-08-26T17:52:53.000Z</time>
      </trkpt>
      <trkpt lat="40.06315290927886962890625" lon="-0.72630976326763629913330078125">
        <ele>953.5999755859375</ele>
        <time>2022-08-26T17:53:02.000Z</time>
      </trkpt>
      <trkpt lat="40.06305844523012638092041015625" lon="-0.7262826897203922271728515625">
        <ele>953.5999755859375</ele>
        <time>2022-08-26T17:53:04.000Z</time>
      </trkpt>
      <trkpt lat="40.06279793567955493927001953125" lon="-0.72622443549335002899169921875">
        <ele>954.20001220703125</ele>
        <time>2022-08-26T17:53:10.000Z</time>
      </trkpt>
      <trkpt lat="40.06235805340111255645751953125" lon="-0.72613877244293689727783203125">
        <ele>954.20001220703125</ele>
        <time>2022-08-26T17:53:20.000Z</time>
      </trkpt>
      <trkpt lat="40.06194398738443851470947265625" lon="-0.726190321147441864013671875">
        <ele>954.4000244140625</ele>
        <time>2022-08-26T17:53:30.000Z</time>
      </trkpt>
      <trkpt lat="40.0618991442024707794189453125" lon="-0.7262013852596282958984375">
        <ele>954.4000244140625</ele>
        <time>2022-08-26T17:53:31.000Z</time>
      </trkpt>
      <trkpt lat="40.0616201944649219512939453125" lon="-0.72629836387932300567626953125">
        <ele>954.79998779296875</ele>
        <time>2022-08-26T17:53:37.000Z</time>
      </trkpt>
      <trkpt lat="40.06128852255642414093017578125" lon="-0.726484358310699462890625">
        <ele>955</ele>
        <time>2022-08-26T17:53:46.000Z</time>
      </trkpt>
      <trkpt lat="40.06125264801084995269775390625" lon="-0.7265106774866580963134765625">
        <ele>955.20001220703125</ele>
        <time>2022-08-26T17:53:47.000Z</time>
      </trkpt>
      <trkpt lat="40.0609845109283924102783203125" lon="-0.72671310044825077056884765625">
        <ele>955.20001220703125</ele>
        <time>2022-08-26T17:53:55.000Z</time>
      </trkpt>
      <trkpt lat="40.06075962446630001068115234375" lon="-0.7269160263240337371826171875">
        <ele>955</ele>
        <time>2022-08-26T17:54:02.000Z</time>
      </trkpt>
      <trkpt lat="40.06050012074410915374755859375" lon="-0.7271399907767772674560546875">
        <ele>954.79998779296875</ele>
        <time>2022-08-26T17:54:10.000Z</time>
      </trkpt>
      <trkpt lat="40.0602321512997150421142578125" lon="-0.72737149894237518310546875">
        <ele>954.79998779296875</ele>
        <time>2022-08-26T17:54:18.000Z</time>
      </trkpt>
      <trkpt lat="40.05992562510073184967041015625" lon="-0.72764634154736995697021484375">
        <ele>954.5999755859375</ele>
        <time>2022-08-26T17:54:26.000Z</time>
      </trkpt>
      <trkpt lat="40.0595230422914028167724609375" lon="-0.72800852358341217041015625">
        <ele>954.5999755859375</ele>
        <time>2022-08-26T17:54:37.000Z</time>
      </trkpt>
      <trkpt lat="40.0591979920864105224609375" lon="-0.72829878889024257659912109375">
        <ele>955</ele>
        <time>2022-08-26T17:54:47.000Z</time>
      </trkpt>
      <trkpt lat="40.058906637132167816162109375" lon="-0.72855527512729167938232421875">
        <ele>955.4000244140625</ele>
        <time>2022-08-26T17:54:55.000Z</time>
      </trkpt>
      <trkpt lat="40.0586695969104766845703125" lon="-0.72876314632594585418701171875">
        <ele>955.4000244140625</ele>
        <time>2022-08-26T17:55:02.000Z</time>
      </trkpt>
      <trkpt lat="40.05847052671015262603759765625" lon="-0.728935562074184417724609375">
        <ele>955.4000244140625</ele>
        <time>2022-08-26T17:55:11.000Z</time>
      </trkpt>
      <trkpt lat="40.0582127831876277923583984375" lon="-0.72915785014629364013671875">
        <ele>955.5999755859375</ele>
        <time>2022-08-26T17:55:19.000Z</time>
      </trkpt>
      <trkpt lat="40.05808227695524692535400390625" lon="-0.7292736880481243133544921875">
        <ele>956</ele>
        <time>2022-08-26T17:55:24.000Z</time>
      </trkpt>
      <trkpt lat="40.05801421590149402618408203125" lon="-0.72933831252157688140869140625">
        <ele>955.79998779296875</ele>
        <time>2022-08-26T17:55:27.000Z</time>
      </trkpt>
      <trkpt lat="40.05780533887445926666259765625" lon="-0.72951030917465686798095703125">
        <ele>956</ele>
        <time>2022-08-26T17:55:34.000Z</time>
      </trkpt>
      <trkpt lat="40.0575781054794788360595703125" lon="-0.7297055236995220184326171875">
        <ele>956</ele>
        <time>2022-08-26T17:55:41.000Z</time>
      </trkpt>
      <trkpt lat="40.0573118962347507476806640625" lon="-0.72993929497897624969482421875">
        <ele>956.20001220703125</ele>
        <time>2022-08-26T17:55:50.000Z</time>
      </trkpt>
      <trkpt lat="40.05708508193492889404296875" lon="-0.73014917783439159393310546875">
        <ele>956.4000244140625</ele>
        <time>2022-08-26T17:55:57.000Z</time>
      </trkpt>
      <trkpt lat="40.0569793023169040679931640625" lon="-0.730233080685138702392578125">
        <ele>956.5999755859375</ele>
        <time>2022-08-26T17:56:00.000Z</time>
      </trkpt>
      <trkpt lat="40.05681124515831470489501953125" lon="-0.73036090470850467681884765625">
        <ele>957</ele>
        <time>2022-08-26T17:56:05.000Z</time>
      </trkpt>
      <trkpt lat="40.0564364902675151824951171875" lon="-0.730563662946224212646484375">
        <ele>957.20001220703125</ele>
        <time>2022-08-26T17:56:14.000Z</time>
      </trkpt>
      <trkpt lat="40.0563647411763668060302734375" lon="-0.730588473379611968994140625">
        <ele>957.4000244140625</ele>
        <time>2022-08-26T17:56:17.000Z</time>
      </trkpt>
      <trkpt lat="40.0561323948204517364501953125" lon="-0.73064622469246387481689453125">
        <ele>957.5999755859375</ele>
        <time>2022-08-26T17:56:23.000Z</time>
      </trkpt>
      <trkpt lat="40.05578395910561084747314453125" lon="-0.73067924939095973968505859375">
        <ele>957.79998779296875</ele>
        <time>2022-08-26T17:56:31.000Z</time>
      </trkpt>
      <trkpt lat="40.05535782314836978912353515625" lon="-0.73062677867710590362548828125">
        <ele>958</ele>
        <time>2022-08-26T17:56:42.000Z</time>
      </trkpt>
      <trkpt lat="40.05512882955372333526611328125" lon="-0.73057782836258411407470703125">
        <ele>958.20001220703125</ele>
        <time>2022-08-26T17:56:48.000Z</time>
      </trkpt>
      <trkpt lat="40.05501248873770236968994140625" lon="-0.7305586338043212890625">
        <ele>958.4000244140625</ele>
        <time>2022-08-26T17:56:51.000Z</time>
      </trkpt>
      <trkpt lat="40.05458660423755645751953125" lon="-0.73047221638262271881103515625">
        <ele>958.5999755859375</ele>
        <time>2022-08-26T17:57:02.000Z</time>
      </trkpt>
      <trkpt lat="40.0543510727584362030029296875" lon="-0.73043868876993656158447265625">
        <ele>959</ele>
        <time>2022-08-26T17:57:09.000Z</time>
      </trkpt>
      <trkpt lat="40.054236240684986114501953125" lon="-0.7304193265736103057861328125">
        <ele>959</ele>
        <time>2022-08-26T17:57:11.000Z</time>
      </trkpt>
      <trkpt lat="40.05393155850470066070556640625" lon="-0.73034766130149364471435546875">
        <ele>959.20001220703125</ele>
        <time>2022-08-26T17:57:19.000Z</time>
      </trkpt>
      <trkpt lat="40.053618662059307098388671875" lon="-0.73028546757996082305908203125">
        <ele>959.5999755859375</ele>
        <time>2022-08-26T17:57:27.000Z</time>
      </trkpt>
      <trkpt lat="40.0535822845995426177978515625" lon="-0.73027624748647212982177734375">
        <ele>959.5999755859375</ele>
        <time>2022-08-26T17:57:28.000Z</time>
      </trkpt>
      <trkpt lat="40.05327190272510051727294921875" lon="-0.73021237738430500030517578125">
        <ele>960</ele>
        <time>2022-08-26T17:57:36.000Z</time>
      </trkpt>
      <trkpt lat="40.052926652133464813232421875" lon="-0.73015135712921619415283203125">
        <ele>960.20001220703125</ele>
        <time>2022-08-26T17:57:45.000Z</time>
      </trkpt>
      <trkpt lat="40.05261207930743694305419921875" lon="-0.7300890795886516571044921875">
        <ele>960.4000244140625</ele>
        <time>2022-08-26T17:57:53.000Z</time>
      </trkpt>
      <trkpt lat="40.0524852611124515533447265625" lon="-0.730070807039737701416015625">
        <ele>960.20001220703125</ele>
        <time>2022-08-26T17:57:56.000Z</time>
      </trkpt>
      <trkpt lat="40.052236653864383697509765625" lon="-0.73003065772354602813720703125">
        <ele>960.4000244140625</ele>
        <time>2022-08-26T17:58:03.000Z</time>
      </trkpt>
      <trkpt lat="40.05166291259229183197021484375" lon="-0.72991834022104740142822265625">
        <ele>960.79998779296875</ele>
        <time>2022-08-26T17:58:15.000Z</time>
      </trkpt>
      <trkpt lat="40.0514827854931354522705078125" lon="-0.7298879139125347137451171875">
        <ele>961</ele>
        <time>2022-08-26T17:58:19.000Z</time>
      </trkpt>
      <trkpt lat="40.05104432813823223114013671875" lon="-0.72979982011020183563232421875">
        <ele>961.5999755859375</ele>
        <time>2022-08-26T17:58:29.000Z</time>
      </trkpt>
      <trkpt lat="40.050680972635746002197265625" lon="-0.7297212816774845123291015625">
        <ele>962</ele>
        <time>2022-08-26T17:58:38.000Z</time>
      </trkpt>
      <trkpt lat="40.05058474838733673095703125" lon="-0.72970493696630001068115234375">
        <ele>962</ele>
        <time>2022-08-26T17:58:39.000Z</time>
      </trkpt>
      <trkpt lat="40.05013145506381988525390625" lon="-0.7296300865709781646728515625">
        <ele>962.5999755859375</ele>
        <time>2022-08-26T17:58:49.000Z</time>
      </trkpt>
      <trkpt lat="40.0497685186564922332763671875" lon="-0.72956085205078125">
        <ele>963</ele>
        <time>2022-08-26T17:58:57.000Z</time>
      </trkpt>
      <trkpt lat="40.0496357493102550506591796875" lon="-0.729539729654788970947265625">
        <ele>962.79998779296875</ele>
        <time>2022-08-26T17:59:00.000Z</time>
      </trkpt>
      <trkpt lat="40.0492496788501739501953125" lon="-0.72946655564010143280029296875">
        <ele>963.5999755859375</ele>
        <time>2022-08-26T17:59:10.000Z</time>
      </trkpt>
      <trkpt lat="40.049158819019794464111328125" lon="-0.7294361293315887451171875">
        <ele>963.79998779296875</ele>
        <time>2022-08-26T17:59:13.000Z</time>
      </trkpt>
      <trkpt lat="40.04899696446955204010009765625" lon="-0.72938960976898670196533203125">
        <ele>963.79998779296875</ele>
        <time>2022-08-26T17:59:18.000Z</time>
      </trkpt>
      <trkpt lat="40.0487601757049560546875" lon="-0.729332529008388519287109375">
        <ele>963.79998779296875</ele>
        <time>2022-08-26T17:59:26.000Z</time>
      </trkpt>
      <trkpt lat="40.04852724261581897735595703125" lon="-0.72929053567349910736083984375">
        <ele>964</ele>
        <time>2022-08-26T17:59:34.000Z</time>
      </trkpt>
      <trkpt lat="40.0481987558305263519287109375" lon="-0.72923705913126468658447265625">
        <ele>964.4000244140625</ele>
        <time>2022-08-26T17:59:43.000Z</time>
      </trkpt>
      <trkpt lat="40.04788418300449848175048828125" lon="-0.72918710298836231231689453125">
        <ele>964.4000244140625</ele>
        <time>2022-08-26T17:59:51.000Z</time>
      </trkpt>
      <trkpt lat="40.04765032790601253509521484375" lon="-0.72914251126348972320556640625">
        <ele>964.5999755859375</ele>
        <time>2022-08-26T17:59:58.000Z</time>
      </trkpt>
      <trkpt lat="40.04719200544059276580810546875" lon="-0.72905953042209148406982421875">
        <ele>965</ele>
        <time>2022-08-26T18:00:08.000Z</time>
      </trkpt>
      <trkpt lat="40.047153532505035400390625" lon="-0.7290544174611568450927734375">
        <ele>965</ele>
        <time>2022-08-26T18:00:09.000Z</time>
      </trkpt>
      <trkpt lat="40.0468848086893558502197265625" lon="-0.72900705970823764801025390625">
        <ele>965.4000244140625</ele>
        <time>2022-08-26T18:00:18.000Z</time>
      </trkpt>
      <trkpt lat="40.046549029648303985595703125" lon="-0.72899029590189456939697265625">
        <ele>965.4000244140625</ele>
        <time>2022-08-26T18:00:27.000Z</time>
      </trkpt>
      <trkpt lat="40.04625557921826839447021484375" lon="-0.72901611216366291046142578125">
        <ele>965.79998779296875</ele>
        <time>2022-08-26T18:00:35.000Z</time>
      </trkpt>
      <trkpt lat="40.046219788491725921630859375" lon="-0.729020051658153533935546875">
        <ele>965.79998779296875</ele>
        <time>2022-08-26T18:00:36.000Z</time>
      </trkpt>
      <trkpt lat="40.0459607876837253570556640625" lon="-0.72906196117401123046875">
        <ele>965.79998779296875</ele>
        <time>2022-08-26T18:00:43.000Z</time>
      </trkpt>
      <trkpt lat="40.04575232975184917449951171875" lon="-0.72913639247417449951171875">
        <ele>966</ele>
        <time>2022-08-26T18:00:51.000Z</time>
      </trkpt>
      <trkpt lat="40.04549324512481689453125" lon="-0.72925306856632232666015625">
        <ele>966.4000244140625</ele>
        <time>2022-08-26T18:00:58.000Z</time>
      </trkpt>
      <trkpt lat="40.04523516632616519927978515625" lon="-0.72940570302307605743408203125">
        <ele>966.5999755859375</ele>
        <time>2022-08-26T18:01:05.000Z</time>
      </trkpt>
      <trkpt lat="40.0451286323368549346923828125" lon="-0.72947778739035129547119140625">
        <ele>966.5999755859375</ele>
        <time>2022-08-26T18:01:07.000Z</time>
      </trkpt>
      <trkpt lat="40.04474918358027935028076171875" lon="-0.7297403924167156219482421875">
        <ele>967.20001220703125</ele>
        <time>2022-08-26T18:01:18.000Z</time>
      </trkpt>
      <trkpt lat="40.04442715086042881011962890625" lon="-0.72996024973690509796142578125">
        <ele>967.20001220703125</ele>
        <time>2022-08-26T18:01:26.000Z</time>
      </trkpt>
      <trkpt lat="40.04435263574123382568359375" lon="-0.7300109602510929107666015625">
        <ele>967.4000244140625</ele>
        <time>2022-08-26T18:01:28.000Z</time>
      </trkpt>
      <trkpt lat="40.0441615283489227294921875" lon="-0.7301517762243747711181640625">
        <ele>967.5999755859375</ele>
        <time>2022-08-26T18:01:33.000Z</time>
      </trkpt>
      <trkpt lat="40.0437994301319122314453125" lon="-0.73038621805608272552490234375">
        <ele>968.20001220703125</ele>
        <time>2022-08-26T18:01:42.000Z</time>
      </trkpt>
      <trkpt lat="40.0436862744390964508056640625" lon="-0.7304660975933074951171875">
        <ele>968.4000244140625</ele>
        <time>2022-08-26T18:01:45.000Z</time>
      </trkpt>
      <trkpt lat="40.04351436160504817962646484375" lon="-0.73058134876191616058349609375">
        <ele>968.4000244140625</ele>
        <time>2022-08-26T18:01:50.000Z</time>
      </trkpt>
      <trkpt lat="40.043301545083522796630859375" lon="-0.73073364794254302978515625">
        <ele>968.4000244140625</ele>
        <time>2022-08-26T18:01:57.000Z</time>
      </trkpt>
      <trkpt lat="40.04302888177335262298583984375" lon="-0.73091293685138225555419921875">
        <ele>968.4000244140625</ele>
        <time>2022-08-26T18:02:04.000Z</time>
      </trkpt>
      <trkpt lat="40.04271590150892734527587890625" lon="-0.73107873089611530303955078125">
        <ele>968.5999755859375</ele>
        <time>2022-08-26T18:02:13.000Z</time>
      </trkpt>
      <trkpt lat="40.04237584769725799560546875" lon="-0.73120328597724437713623046875">
        <ele>968.79998779296875</ele>
        <time>2022-08-26T18:02:21.000Z</time>
      </trkpt>
      <trkpt lat="40.042294375598430633544921875" lon="-0.73122289963066577911376953125">
        <ele>969</ele>
        <time>2022-08-26T18:02:23.000Z</time>
      </trkpt>
      <trkpt lat="40.042071752250194549560546875" lon="-0.73126338422298431396484375">
        <ele>968.79998779296875</ele>
        <time>2022-08-26T18:02:28.000Z</time>
      </trkpt>
      <trkpt lat="40.0418682396411895751953125" lon="-0.73128752410411834716796875">
        <ele>969</ele>
        <time>2022-08-26T18:02:35.000Z</time>
      </trkpt>
      <trkpt lat="40.041693560779094696044921875" lon="-0.73128609918057918548583984375">
        <ele>969.20001220703125</ele>
        <time>2022-08-26T18:02:42.000Z</time>
      </trkpt>
      <trkpt lat="40.0415254198014736175537109375" lon="-0.7312652282416820526123046875">
        <ele>969.4000244140625</ele>
        <time>2022-08-26T18:02:50.000Z</time>
      </trkpt>
      <trkpt lat="40.04133355803787708282470703125" lon="-0.73124988935887813568115234375">
        <ele>969.5999755859375</ele>
        <time>2022-08-26T18:02:57.000Z</time>
      </trkpt>
      <trkpt lat="40.0411790795624256134033203125" lon="-0.7312090694904327392578125">
        <ele>969.5999755859375</ele>
        <time>2022-08-26T18:03:02.000Z</time>
      </trkpt>
      <trkpt lat="40.041145384311676025390625" lon="-0.73119792155921459197998046875">
        <ele>969.5999755859375</ele>
        <time>2022-08-26T18:03:04.000Z</time>
      </trkpt>
      <trkpt lat="40.04087238572537899017333984375" lon="-0.73107487522065639495849609375">
        <ele>970</ele>
        <time>2022-08-26T18:03:11.000Z</time>
      </trkpt>
      <trkpt lat="40.0406604073941707611083984375" lon="-0.73096155188977718353271484375">
        <ele>970.4000244140625</ele>
        <time>2022-08-26T18:03:18.000Z</time>
      </trkpt>
      <trkpt lat="40.0404823757708072662353515625" lon="-0.73084135539829730987548828125">
        <ele>970.5999755859375</ele>
        <time>2022-08-26T18:03:24.000Z</time>
      </trkpt>
      <trkpt lat="40.0404481776058673858642578125" lon="-0.73081671260297298431396484375">
        <ele>970.4000244140625</ele>
        <time>2022-08-26T18:03:25.000Z</time>
      </trkpt>
      <trkpt lat="40.04015841521322727203369140625" lon="-0.73055528104305267333984375">
        <ele>971</ele>
        <time>2022-08-26T18:03:34.000Z</time>
      </trkpt>
      <trkpt lat="40.03989220596849918365478515625" lon="-0.73023836128413677215576171875">
        <ele>971.20001220703125</ele>
        <time>2022-08-26T18:03:41.000Z</time>
      </trkpt>
      <trkpt lat="40.0398270785808563232421875" lon="-0.73015169240534305572509765625">
        <ele>971.4000244140625</ele>
        <time>2022-08-26T18:03:43.000Z</time>
      </trkpt>
      <trkpt lat="40.039678551256656646728515625" lon="-0.72993560694158077239990234375">
        <ele>971.79998779296875</ele>
        <time>2022-08-26T18:03:48.000Z</time>
      </trkpt>
      <trkpt lat="40.03945098258554935455322265625" lon="-0.72953310795128345489501953125">
        <ele>972.20001220703125</ele>
        <time>2022-08-26T18:03:57.000Z</time>
      </trkpt>
      <trkpt lat="40.039256773889064788818359375" lon="-0.7292170263826847076416015625">
        <ele>972.4000244140625</ele>
        <time>2022-08-26T18:04:04.000Z</time>
      </trkpt>
      <trkpt lat="40.0389789976179599761962890625" lon="-0.7287121005356311798095703125">
        <ele>972.5999755859375</ele>
        <time>2022-08-26T18:04:14.000Z</time>
      </trkpt>
      <trkpt lat="40.038683116436004638671875" lon="-0.72812243364751338958740234375">
        <ele>973</ele>
        <time>2022-08-26T18:04:26.000Z</time>
      </trkpt>
      <trkpt lat="40.03861396573483943939208984375" lon="-0.72797558270394802093505859375">
        <ele>973</ele>
        <time>2022-08-26T18:04:29.000Z</time>
      </trkpt>
      <trkpt lat="40.0385240279138088226318359375" lon="-0.72776402346789836883544921875">
        <ele>973.4000244140625</ele>
        <time>2022-08-26T18:04:34.000Z</time>
      </trkpt>
      <trkpt lat="40.03832462243735790252685546875" lon="-0.72723479010164737701416015625">
        <ele>973.5999755859375</ele>
        <time>2022-08-26T18:04:43.000Z</time>
      </trkpt>
      <trkpt lat="40.0381827168166637420654296875" lon="-0.7267906330525875091552734375">
        <ele>973.79998779296875</ele>
        <time>2022-08-26T18:04:51.000Z</time>
      </trkpt>
      <trkpt lat="40.0381448306143283843994140625" lon="-0.72667923755943775177001953125">
        <ele>974</ele>
        <time>2022-08-26T18:04:53.000Z</time>
      </trkpt>
      <trkpt lat="40.03798951394855976104736328125" lon="-0.726167522370815277099609375">
        <ele>974.20001220703125</ele>
        <time>2022-08-26T18:05:02.000Z</time>
      </trkpt>
      <trkpt lat="40.0378256477415561676025390625" lon="-0.72564692236483097076416015625">
        <ele>974.4000244140625</ele>
        <time>2022-08-26T18:05:11.000Z</time>
      </trkpt>
      <trkpt lat="40.0376140885055065155029296875" lon="-0.72494904510676860809326171875">
        <ele>974.5999755859375</ele>
        <time>2022-08-26T18:05:23.000Z</time>
      </trkpt>
      <trkpt lat="40.03752683289349079132080078125" lon="-0.72465173900127410888671875">
        <ele>974.79998779296875</ele>
        <time>2022-08-26T18:05:29.000Z</time>
      </trkpt>
      <trkpt lat="40.037433542311191558837890625" lon="-0.7243692688643932342529296875">
        <ele>975</ele>
        <time>2022-08-26T18:05:34.000Z</time>
      </trkpt>
      <trkpt lat="40.03726380877196788787841796875" lon="-0.72385537438094615936279296875">
        <ele>975.20001220703125</ele>
        <time>2022-08-26T18:05:43.000Z</time>
      </trkpt>
      <trkpt lat="40.03708108328282833099365234375" lon="-0.72328188456594944000244140625">
        <ele>975.4000244140625</ele>
        <time>2022-08-26T18:05:53.000Z</time>
      </trkpt>
      <trkpt lat="40.03699039109051227569580078125" lon="-0.7230067066848278045654296875">
        <ele>975.5999755859375</ele>
        <time>2022-08-26T18:05:58.000Z</time>
      </trkpt>
      <trkpt lat="40.036920569837093353271484375" lon="-0.7227820716798305511474609375">
        <ele>975.5999755859375</ele>
        <time>2022-08-26T18:06:01.000Z</time>
      </trkpt>
      <trkpt lat="40.03672619350254535675048828125" lon="-0.7221899740397930145263671875">
        <ele>975.79998779296875</ele>
        <time>2022-08-26T18:06:12.000Z</time>
      </trkpt>
      <trkpt lat="40.03650105558335781097412109375" lon="-0.7214513607323169708251953125">
        <ele>976.20001220703125</ele>
        <time>2022-08-26T18:06:23.000Z</time>
      </trkpt>
      <trkpt lat="40.03650105558335781097412109375" lon="-0.7214513607323169708251953125">
        <ele>976.20001220703125</ele>
        <time>2022-08-26T18:06:24.000Z</time>
      </trkpt>
      <trkpt lat="40.03646233119070529937744140625" lon="-0.721334852278232574462890625">
        <ele>976.4000244140625</ele>
        <time>2022-08-26T18:06:26.000Z</time>
      </trkpt>
      <trkpt lat="40.03631900064647197723388671875" lon="-0.72086445987224578857421875">
        <ele>976.5999755859375</ele>
        <time>2022-08-26T18:06:34.000Z</time>
      </trkpt>
      <trkpt lat="40.0361231155693531036376953125" lon="-0.72026641108095645904541015625">
        <ele>977.20001220703125</ele>
        <time>2022-08-26T18:06:44.000Z</time>
      </trkpt>
      <trkpt lat="40.0359745882451534271240234375" lon="-0.7198286242783069610595703125">
        <ele>977.4000244140625</ele>
        <time>2022-08-26T18:06:51.000Z</time>
      </trkpt>
      <trkpt lat="40.03575439564883708953857421875" lon="-0.71937994100153446197509765625">
        <ele>977.5999755859375</ele>
        <time>2022-08-26T18:07:00.000Z</time>
      </trkpt>
      <trkpt lat="40.0354604423046112060546875" lon="-0.7189709879457950592041015625">
        <ele>978</ele>
        <time>2022-08-26T18:07:09.000Z</time>
      </trkpt>
      <trkpt lat="40.03534317947924137115478515625" lon="-0.71884400211274623870849609375">
        <ele>978.20001220703125</ele>
        <time>2022-08-26T18:07:12.000Z</time>
      </trkpt>
      <trkpt lat="40.03515676595270633697509765625" lon="-0.718666724860668182373046875">
        <ele>978.4000244140625</ele>
        <time>2022-08-26T18:07:18.000Z</time>
      </trkpt>
      <trkpt lat="40.03478729166090488433837890625" lon="-0.71843580342829227447509765625">
        <ele>978.79998779296875</ele>
        <time>2022-08-26T18:07:27.000Z</time>
      </trkpt>
      <trkpt lat="40.03437657840549945831298828125" lon="-0.718287527561187744140625">
        <ele>979</ele>
        <time>2022-08-26T18:07:35.000Z</time>
      </trkpt>
      <trkpt lat="40.03432813100516796112060546875" lon="-0.71827788837254047393798828125">
        <ele>979</ele>
        <time>2022-08-26T18:07:37.000Z</time>
      </trkpt>
      <trkpt lat="40.0339397974312305450439453125" lon="-0.7182431034743785858154296875">
        <ele>979.20001220703125</ele>
        <time>2022-08-26T18:07:44.000Z</time>
      </trkpt>
      <trkpt lat="40.0336011685431003570556640625" lon="-0.7182880304753780364990234375">
        <ele>979.20001220703125</ele>
        <time>2022-08-26T18:07:52.000Z</time>
      </trkpt>
      <trkpt lat="40.03334426321089267730712890625" lon="-0.71835215203464031219482421875">
        <ele>979</ele>
        <time>2022-08-26T18:07:59.000Z</time>
      </trkpt>
      <trkpt lat="40.033014602959156036376953125" lon="-0.71843815036118030548095703125">
        <ele>979.20001220703125</ele>
        <time>2022-08-26T18:08:05.000Z</time>
      </trkpt>
      <trkpt lat="40.0326771475374698638916015625" lon="-0.71852548979222774505615234375">
        <ele>979.4000244140625</ele>
        <time>2022-08-26T18:08:12.000Z</time>
      </trkpt>
      <trkpt lat="40.032386295497417449951171875" lon="-0.718609727919101715087890625">
        <ele>979.5999755859375</ele>
        <time>2022-08-26T18:08:18.000Z</time>
      </trkpt>
      <trkpt lat="40.03205663524568080902099609375" lon="-0.718698240816593170166015625">
        <ele>979.79998779296875</ele>
        <time>2022-08-26T18:08:26.000Z</time>
      </trkpt>
      <trkpt lat="40.03195605240762233734130859375" lon="-0.71873419918119907379150390625">
        <ele>979.79998779296875</ele>
        <time>2022-08-26T18:08:27.000Z</time>
      </trkpt>
      <trkpt lat="40.03175388090312480926513671875" lon="-0.71882891468703746795654296875">
        <ele>979.79998779296875</ele>
        <time>2022-08-26T18:08:31.000Z</time>
      </trkpt>
      <trkpt lat="40.03151549957692623138427734375" lon="-0.71898330934345722198486328125">
        <ele>979.79998779296875</ele>
        <time>2022-08-26T18:08:37.000Z</time>
      </trkpt>
      <trkpt lat="40.0314302556216716766357421875" lon="-0.71904860436916351318359375">
        <ele>979.79998779296875</ele>
        <time>2022-08-26T18:08:39.000Z</time>
      </trkpt>
      <trkpt lat="40.03126186318695545196533203125" lon="-0.71918807923793792724609375">
        <ele>980</ele>
        <time>2022-08-26T18:08:43.000Z</time>
      </trkpt>
      <trkpt lat="40.03100386820733547210693359375" lon="-0.71944481693208217620849609375">
        <ele>980.20001220703125</ele>
        <time>2022-08-26T18:08:50.000Z</time>
      </trkpt>
      <trkpt lat="40.03080303780734539031982421875" lon="-0.71968185715377330780029296875">
        <ele>980.4000244140625</ele>
        <time>2022-08-26T18:08:56.000Z</time>
      </trkpt>
      <trkpt lat="40.03077822737395763397216796875" lon="-0.71972628124058246612548828125">
        <ele>980.4000244140625</ele>
        <time>2022-08-26T18:08:57.000Z</time>
      </trkpt>
      <trkpt lat="40.03063908778131008148193359375" lon="-0.71994446218013763427734375">
        <ele>980.5999755859375</ele>
        <time>2022-08-26T18:09:02.000Z</time>
      </trkpt>
      <trkpt lat="40.03059516660869121551513671875" lon="-0.72002870030701160430908203125">
        <ele>980.5999755859375</ele>
        <time>2022-08-26T18:09:04.000Z</time>
      </trkpt>
      <trkpt lat="40.03039802424609661102294921875" lon="-0.7203801535069942474365234375">
        <ele>980.5999755859375</ele>
        <time>2022-08-26T18:09:12.000Z</time>
      </trkpt>
      <trkpt lat="40.0303240120410919189453125" lon="-0.72049607522785663604736328125">
        <ele>980.79998779296875</ele>
        <time>2022-08-26T18:09:15.000Z</time>
      </trkpt>
      <trkpt lat="40.03020691685378551483154296875" lon="-0.7206279225647449493408203125">
        <ele>980.79998779296875</ele>
        <time>2022-08-26T18:09:19.000Z</time>
      </trkpt>
      <trkpt lat="40.03004581667482852935791015625" lon="-0.72086437605321407318115234375">
        <ele>981.20001220703125</ele>
        <time>2022-08-26T18:09:26.000Z</time>
      </trkpt>
      <trkpt lat="40.02993735484778881072998046875" lon="-0.72103486396372318267822265625">
        <ele>981.4000244140625</ele>
        <time>2022-08-26T18:09:33.000Z</time>
      </trkpt>
      <trkpt lat="40.02994037233293056488037109375" lon="-0.7210875861346721649169921875">
        <ele>981.5999755859375</ele>
        <time>2022-08-26T18:09:37.000Z</time>
      </trkpt>
      <trkpt lat="40.02998161129653453826904296875" lon="-0.72107459418475627899169921875">
        <ele>981.5999755859375</ele>
        <time>2022-08-26T18:09:41.000Z</time>
      </trkpt>
      <trkpt lat="40.0300070084631443023681640625" lon="-0.721105523407459259033203125">
        <ele>981.5999755859375</ele>
        <time>2022-08-26T18:09:42.000Z</time>
      </trkpt>
      <trkpt lat="40.03005336038768291473388671875" lon="-0.72118087671697139739990234375">
        <ele>981.5999755859375</ele>
        <time>2022-08-26T18:09:47.000Z</time>
      </trkpt>
      <trkpt lat="40.03005118109285831451416015625" lon="-0.7212029211223125457763671875">
        <ele>981.5999755859375</ele>
        <time>2022-08-26T18:09:49.000Z</time>
      </trkpt>
      <trkpt lat="40.0300462357699871063232421875" lon="-0.72123837657272815704345703125">
        <ele>981.79998779296875</ele>
        <time>2022-08-26T18:09:51.000Z</time>
      </trkpt>
      <trkpt lat="40.030056126415729522705078125" lon="-0.721256397664546966552734375">
        <ele>982</ele>
        <time>2022-08-26T18:09:53.000Z</time>
      </trkpt>
      <trkpt lat="40.030003488063812255859375" lon="-0.721095465123653411865234375">
        <ele>988.5999755859375</ele>
        <time>2022-08-26T18:15:08.000Z</time>
      </trkpt>
      <trkpt lat="40.0299996323883533477783203125" lon="-0.7210810482501983642578125">
        <ele>988.5999755859375</ele>
        <time>2022-08-26T18:15:09.000Z</time>
      </trkpt>
      <trkpt lat="40.02996065653860569000244140625" lon="-0.7210711576044559478759765625">
        <ele>988.5999755859375</ele>
        <time>2022-08-26T18:15:12.000Z</time>
      </trkpt>
      <trkpt lat="40.02994070760905742645263671875" lon="-0.72107878513634204864501953125">
        <ele>988.5999755859375</ele>
        <time>2022-08-26T18:15:13.000Z</time>
      </trkpt>
      <trkpt lat="40.02980827353894710540771484375" lon="-0.7211911864578723907470703125">
        <ele>988.5999755859375</ele>
        <time>2022-08-26T18:15:18.000Z</time>
      </trkpt>
      <trkpt lat="40.02971221692860126495361328125" lon="-0.72136871516704559326171875">
        <ele>988.79998779296875</ele>
        <time>2022-08-26T18:15:27.000Z</time>
      </trkpt>
      <trkpt lat="40.02954558469355106353759765625" lon="-0.7215727306902408599853515625">
        <ele>988.79998779296875</ele>
        <time>2022-08-26T18:15:34.000Z</time>
      </trkpt>
      <trkpt lat="40.029389597475528717041015625" lon="-0.7218094356358051300048828125">
        <ele>988.79998779296875</ele>
        <time>2022-08-26T18:15:42.000Z</time>
      </trkpt>
      <trkpt lat="40.02912732772529125213623046875" lon="-0.722187459468841552734375">
        <ele>988.79998779296875</ele>
        <time>2022-08-26T18:15:53.000Z</time>
      </trkpt>
      <trkpt lat="40.02883262000977993011474609375" lon="-0.72260647080838680267333984375">
        <ele>989</ele>
        <time>2022-08-26T18:16:03.000Z</time>
      </trkpt>
      <trkpt lat="40.0286380760371685028076171875" lon="-0.72281710803508758544921875">
        <ele>989.20001220703125</ele>
        <time>2022-08-26T18:16:10.000Z</time>
      </trkpt>
      <trkpt lat="40.02838552929461002349853515625" lon="-0.72299924679100513458251953125">
        <ele>989</ele>
        <time>2022-08-26T18:16:18.000Z</time>
      </trkpt>
      <trkpt lat="40.0281318090856075286865234375" lon="-0.72315464727580547332763671875">
        <ele>989</ele>
        <time>2022-08-26T18:16:24.000Z</time>
      </trkpt>
      <trkpt lat="40.027823187410831451416015625" lon="-0.72328523732721805572509765625">
        <ele>989</ele>
        <time>2022-08-26T18:16:30.000Z</time>
      </trkpt>
      <trkpt lat="40.02751196734607219696044921875" lon="-0.7233718223869800567626953125">
        <ele>989.20001220703125</ele>
        <time>2022-08-26T18:16:38.000Z</time>
      </trkpt>
      <trkpt lat="40.0270880945026874542236328125" lon="-0.72338263504207134246826171875">
        <ele>989.5999755859375</ele>
        <time>2022-08-26T18:16:47.000Z</time>
      </trkpt>
      <trkpt lat="40.02671853639185428619384765625" lon="-0.72334022261202335357666015625">
        <ele>989.79998779296875</ele>
        <time>2022-08-26T18:16:55.000Z</time>
      </trkpt>
      <trkpt lat="40.02649775706231594085693359375" lon="-0.7232712395489215850830078125">
        <ele>990</ele>
        <time>2022-08-26T18:17:00.000Z</time>
      </trkpt>
      <trkpt lat="40.02639248035848140716552734375" lon="-0.7231944613158702850341796875">
        <ele>990</ele>
        <time>2022-08-26T18:17:03.000Z</time>
      </trkpt>
      <trkpt lat="40.0260608084499835968017578125" lon="-0.72294526733458042144775390625">
        <ele>990.20001220703125</ele>
        <time>2022-08-26T18:17:10.000Z</time>
      </trkpt>
      <trkpt lat="40.02575076185166835784912109375" lon="-0.72263538837432861328125">
        <ele>990.5999755859375</ele>
        <time>2022-08-26T18:17:19.000Z</time>
      </trkpt>
      <trkpt lat="40.02547868527472019195556640625" lon="-0.722300112247467041015625">
        <ele>991</ele>
        <time>2022-08-26T18:17:27.000Z</time>
      </trkpt>
      <trkpt lat="40.02539184875786304473876953125" lon="-0.72217396460473537445068359375">
        <ele>991</ele>
        <time>2022-08-26T18:17:29.000Z</time>
      </trkpt>
      <trkpt lat="40.0252906791865825653076171875" lon="-0.721982605755329132080078125">
        <ele>991.20001220703125</ele>
        <time>2022-08-26T18:17:33.000Z</time>
      </trkpt>
      <trkpt lat="40.0252906791865825653076171875" lon="-0.721982605755329132080078125">
        <ele>991.20001220703125</ele>
        <time>2022-08-26T18:17:34.000Z</time>
      </trkpt>
      <trkpt lat="40.02516738139092922210693359375" lon="-0.72162629105150699615478515625">
        <ele>991.20001220703125</ele>
        <time>2022-08-26T18:17:41.000Z</time>
      </trkpt>
      <trkpt lat="40.025104098021984100341796875" lon="-0.72134650312364101409912109375">
        <ele>991.20001220703125</ele>
        <time>2022-08-26T18:17:45.000Z</time>
      </trkpt>
      <trkpt lat="40.02508205361664295196533203125" lon="-0.72117601521313190460205078125">
        <ele>991.20001220703125</ele>
        <time>2022-08-26T18:17:48.000Z</time>
      </trkpt>
      <trkpt lat="40.0250016711652278900146484375" lon="-0.72054326534271240234375">
        <ele>991.20001220703125</ele>
        <time>2022-08-26T18:17:59.000Z</time>
      </trkpt>
      <trkpt lat="40.02490117214620113372802734375" lon="-0.7198380120098590850830078125">
        <ele>991.5999755859375</ele>
        <time>2022-08-26T18:18:11.000Z</time>
      </trkpt>
      <trkpt lat="40.02489010803401470184326171875" lon="-0.7197786681354045867919921875">
        <ele>991.5999755859375</ele>
        <time>2022-08-26T18:18:12.000Z</time>
      </trkpt>
      <trkpt lat="40.02482472918927669525146484375" lon="-0.71938027627766132354736328125">
        <ele>992</ele>
        <time>2022-08-26T18:18:19.000Z</time>
      </trkpt>
      <trkpt lat="40.02481274306774139404296875" lon="-0.71932964958250522613525390625">
        <ele>992</ele>
        <time>2022-08-26T18:18:21.000Z</time>
      </trkpt>
      <trkpt lat="40.02470151521265506744384765625" lon="-0.7188073731958866119384765625">
        <ele>992.20001220703125</ele>
        <time>2022-08-26T18:18:29.000Z</time>
      </trkpt>
      <trkpt lat="40.02456941641867160797119140625" lon="-0.71837914176285266876220703125">
        <ele>992.4000244140625</ele>
        <time>2022-08-26T18:18:37.000Z</time>
      </trkpt>
      <trkpt lat="40.02445626072585582733154296875" lon="-0.71800849400460720062255859375">
        <ele>992.5999755859375</ele>
        <time>2022-08-26T18:18:45.000Z</time>
      </trkpt>
      <trkpt lat="40.0243505649268627166748046875" lon="-0.7175594754517078399658203125">
        <ele>992.79998779296875</ele>
        <time>2022-08-26T18:18:53.000Z</time>
      </trkpt>
      <trkpt lat="40.0243012793362140655517578125" lon="-0.71707106195390224456787109375">
        <ele>993</ele>
        <time>2022-08-26T18:19:01.000Z</time>
      </trkpt>
      <trkpt lat="40.02421058714389801025390625" lon="-0.71660586632788181304931640625">
        <ele>993</ele>
        <time>2022-08-26T18:19:09.000Z</time>
      </trkpt>
      <trkpt lat="40.0241413526237010955810546875" lon="-0.71617872454226016998291015625">
        <ele>993</ele>
        <time>2022-08-26T18:19:16.000Z</time>
      </trkpt>
      <trkpt lat="40.02408921718597412109375" lon="-0.7159025408327579498291015625">
        <ele>993.20001220703125</ele>
        <time>2022-08-26T18:19:21.000Z</time>
      </trkpt>
      <trkpt lat="40.02407781779766082763671875" lon="-0.71584294550120830535888671875">
        <ele>993.4000244140625</ele>
        <time>2022-08-26T18:19:22.000Z</time>
      </trkpt>
      <trkpt lat="40.02405233681201934814453125" lon="-0.715385377407073974609375">
        <ele>993.5999755859375</ele>
        <time>2022-08-26T18:19:30.000Z</time>
      </trkpt>
      <trkpt lat="40.02405711449682712554931640625" lon="-0.7149952836334705352783203125">
        <ele>993.5999755859375</ele>
        <time>2022-08-26T18:19:37.000Z</time>
      </trkpt>
      <trkpt lat="40.02408477477729320526123046875" lon="-0.71446361951529979705810546875">
        <ele>993.79998779296875</ele>
        <time>2022-08-26T18:19:47.000Z</time>
      </trkpt>
      <trkpt lat="40.024162642657756805419921875" lon="-0.71386448107659816741943359375">
        <ele>993.79998779296875</ele>
        <time>2022-08-26T18:19:56.000Z</time>
      </trkpt>
      <trkpt lat="40.02428359352052211761474609375" lon="-0.71334631182253360748291015625">
        <ele>993.79998779296875</ele>
        <time>2022-08-26T18:20:06.000Z</time>
      </trkpt>
      <trkpt lat="40.02441619522869586944580078125" lon="-0.71285898797214031219482421875">
        <ele>993.79998779296875</ele>
        <time>2022-08-26T18:20:15.000Z</time>
      </trkpt>
      <trkpt lat="40.02460260875523090362548828125" lon="-0.71218826808035373687744140625">
        <ele>994.20001220703125</ele>
        <time>2022-08-26T18:20:27.000Z</time>
      </trkpt>
      <trkpt lat="40.0247557461261749267578125" lon="-0.7116314582526683807373046875">
        <ele>994.4000244140625</ele>
        <time>2022-08-26T18:20:36.000Z</time>
      </trkpt>
      <trkpt lat="40.02496453933417797088623046875" lon="-0.7109478302299976348876953125">
        <ele>994.4000244140625</ele>
        <time>2022-08-26T18:20:48.000Z</time>
      </trkpt>
      <trkpt lat="40.024976693093776702880859375" lon="-0.71089259348809719085693359375">
        <ele>994.4000244140625</ele>
        <time>2022-08-26T18:20:49.000Z</time>
      </trkpt>
      <trkpt lat="40.02499169670045375823974609375" lon="-0.71084213443100452423095703125">
        <ele>994.4000244140625</ele>
        <time>2022-08-26T18:20:50.000Z</time>
      </trkpt>
      <trkpt lat="40.0250749289989471435546875" lon="-0.71052647195756435394287109375">
        <ele>994.5999755859375</ele>
        <time>2022-08-26T18:20:56.000Z</time>
      </trkpt>
      <trkpt lat="40.0252289883792400360107421875" lon="-0.70997561328113079071044921875">
        <ele>994.5999755859375</ele>
        <time>2022-08-26T18:21:06.000Z</time>
      </trkpt>
      <trkpt lat="40.02536930143833160400390625" lon="-0.7093545980751514434814453125">
        <ele>994.79998779296875</ele>
        <time>2022-08-26T18:21:17.000Z</time>
      </trkpt>
      <trkpt lat="40.02543644048273563385009765625" lon="-0.7087946869432926177978515625">
        <ele>995</ele>
        <time>2022-08-26T18:21:27.000Z</time>
      </trkpt>
      <trkpt lat="40.02545244991779327392578125" lon="-0.708613805472850799560546875">
        <ele>995</ele>
        <time>2022-08-26T18:21:29.000Z</time>
      </trkpt>
      <trkpt lat="40.0254465825855731964111328125" lon="-0.7083320058882236480712890625">
        <ele>995</ele>
        <time>2022-08-26T18:21:34.000Z</time>
      </trkpt>
      <trkpt lat="40.02539469860494136810302734375" lon="-0.70783236064016819000244140625">
        <ele>995</ele>
        <time>2022-08-26T18:21:43.000Z</time>
      </trkpt>
      <trkpt lat="40.0252967141568660736083984375" lon="-0.7073127664625644683837890625">
        <ele>995</ele>
        <time>2022-08-26T18:21:53.000Z</time>
      </trkpt>
      <trkpt lat="40.02511725760996341705322265625" lon="-0.70682871155440807342529296875">
        <ele>995</ele>
        <time>2022-08-26T18:22:01.000Z</time>
      </trkpt>
      <trkpt lat="40.02488516271114349365234375" lon="-0.7063971273601055145263671875">
        <ele>995.4000244140625</ele>
        <time>2022-08-26T18:22:11.000Z</time>
      </trkpt>
      <trkpt lat="40.024687014520168304443359375" lon="-0.70603880099952220916748046875">
        <ele>995.5999755859375</ele>
        <time>2022-08-26T18:22:19.000Z</time>
      </trkpt>
      <trkpt lat="40.02452532760798931121826171875" lon="-0.70572548545897006988525390625">
        <ele>995.79998779296875</ele>
        <time>2022-08-26T18:22:26.000Z</time>
      </trkpt>
      <trkpt lat="40.02436204813420772552490234375" lon="-0.705409906804561614990234375">
        <ele>995.79998779296875</ele>
        <time>2022-08-26T18:22:33.000Z</time>
      </trkpt>
      <trkpt lat="40.0241688452661037445068359375" lon="-0.705026350915431976318359375">
        <ele>996.20001220703125</ele>
        <time>2022-08-26T18:22:40.000Z</time>
      </trkpt>
      <trkpt lat="40.02404621802270412445068359375" lon="-0.7047857902944087982177734375">
        <ele>996.4000244140625</ele>
        <time>2022-08-26T18:22:46.000Z</time>
      </trkpt>
      <trkpt lat="40.02396642230451107025146484375" lon="-0.70463298819959163665771484375">
        <ele>996.5999755859375</ele>
        <time>2022-08-26T18:22:49.000Z</time>
      </trkpt>
      <trkpt lat="40.02384320832788944244384765625" lon="-0.70442679338157176971435546875">
        <ele>996.5999755859375</ele>
        <time>2022-08-26T18:22:53.000Z</time>
      </trkpt>
      <trkpt lat="40.02381973899900913238525390625" lon="-0.70437834598124027252197265625">
        <ele>996.4000244140625</ele>
        <time>2022-08-26T18:22:55.000Z</time>
      </trkpt>
      <trkpt lat="40.02364070154726505279541015625" lon="-0.7040904276072978973388671875">
        <ele>996.4000244140625</ele>
        <time>2022-08-26T18:23:00.000Z</time>
      </trkpt>
      <trkpt lat="40.0236159749329090118408203125" lon="-0.7040441595017910003662109375">
        <ele>996.20001220703125</ele>
        <time>2022-08-26T18:23:01.000Z</time>
      </trkpt>
      <trkpt lat="40.02344070933759212493896484375" lon="-0.703719444572925567626953125">
        <ele>996.4000244140625</ele>
        <time>2022-08-26T18:23:09.000Z</time>
      </trkpt>
      <trkpt lat="40.02326586283743381500244140625" lon="-0.70340193808078765869140625">
        <ele>997.20001220703125</ele>
        <time>2022-08-26T18:23:16.000Z</time>
      </trkpt>
      <trkpt lat="40.02308799885213375091552734375" lon="-0.70308736525475978851318359375">
        <ele>997.20001220703125</ele>
        <time>2022-08-26T18:23:23.000Z</time>
      </trkpt>
      <trkpt lat="40.02287426032125949859619140625" lon="-0.702769272029399871826171875">
        <ele>997.20001220703125</ele>
        <time>2022-08-26T18:23:30.000Z</time>
      </trkpt>
      <trkpt lat="40.02269656397402286529541015625" lon="-0.70249493233859539031982421875">
        <ele>997.4000244140625</ele>
        <time>2022-08-26T18:23:36.000Z</time>
      </trkpt>
      <trkpt lat="40.0223489664494991302490234375" lon="-0.70210198871791362762451171875">
        <ele>997.5999755859375</ele>
        <time>2022-08-26T18:23:46.000Z</time>
      </trkpt>
      <trkpt lat="40.0220789015293121337890625" lon="-0.70182119496166706085205078125">
        <ele>997.5999755859375</ele>
        <time>2022-08-26T18:23:55.000Z</time>
      </trkpt>
      <trkpt lat="40.02197119407355785369873046875" lon="-0.70171214640140533447265625">
        <ele>997.79998779296875</ele>
        <time>2022-08-26T18:23:58.000Z</time>
      </trkpt>
      <trkpt lat="40.02151857130229473114013671875" lon="-0.70129766128957271575927734375">
        <ele>998.20001220703125</ele>
        <time>2022-08-26T18:24:09.000Z</time>
      </trkpt>
      <trkpt lat="40.02104767598211765289306640625" lon="-0.7009644806385040283203125">
        <ele>998.4000244140625</ele>
        <time>2022-08-26T18:24:21.000Z</time>
      </trkpt>
      <trkpt lat="40.02085992135107517242431640625" lon="-0.70084579288959503173828125">
        <ele>998.79998779296875</ele>
        <time>2022-08-26T18:24:26.000Z</time>
      </trkpt>
      <trkpt lat="40.02059228718280792236328125" lon="-0.7007069885730743408203125">
        <ele>998.79998779296875</ele>
        <time>2022-08-26T18:24:33.000Z</time>
      </trkpt>
      <trkpt lat="40.0201512314379215240478515625" lon="-0.70051646791398525238037109375">
        <ele>998.79998779296875</ele>
        <time>2022-08-26T18:24:45.000Z</time>
      </trkpt>
      <trkpt lat="40.01973389647901058197021484375" lon="-0.700351931154727935791015625">
        <ele>999.4000244140625</ele>
        <time>2022-08-26T18:24:55.000Z</time>
      </trkpt>
      <trkpt lat="40.01937389373779296875" lon="-0.7001925073564052581787109375">
        <ele>999.4000244140625</ele>
        <time>2022-08-26T18:25:06.000Z</time>
      </trkpt>
      <trkpt lat="40.01900282688438892364501953125" lon="-0.70003333501517772674560546875">
        <ele>999.5999755859375</ele>
        <time>2022-08-26T18:25:16.000Z</time>
      </trkpt>
      <trkpt lat="40.01879788935184478759765625" lon="-0.6999387033283710479736328125">
        <ele>1000</ele>
        <time>2022-08-26T18:25:22.000Z</time>
      </trkpt>
      <trkpt lat="40.01864089630544185638427734375" lon="-0.699861757457256317138671875">
        <ele>1000</ele>
        <time>2022-08-26T18:25:26.000Z</time>
      </trkpt>
      <trkpt lat="40.01826354302465915679931640625" lon="-0.6996684707701206207275390625">
        <ele>1000.5999755859375</ele>
        <time>2022-08-26T18:25:37.000Z</time>
      </trkpt>
      <trkpt lat="40.01816061325371265411376953125" lon="-0.69961776025593280792236328125">
        <ele>1000.79998779296875</ele>
        <time>2022-08-26T18:25:41.000Z</time>
      </trkpt>
      <trkpt lat="40.01797973178327083587646484375" lon="-0.69953913800418376922607421875">
        <ele>1001.20001220703125</ele>
        <time>2022-08-26T18:25:47.000Z</time>
      </trkpt>
      <trkpt lat="40.01792541705071926116943359375" lon="-0.69955405779182910919189453125">
        <ele>1001.20001220703125</ele>
        <time>2022-08-26T18:25:48.000Z</time>
      </trkpt>
      <trkpt lat="40.017864145338535308837890625" lon="-0.699565708637237548828125">
        <ele>1001.20001220703125</ele>
        <time>2022-08-26T18:25:51.000Z</time>
      </trkpt>
      <trkpt lat="40.01775316894054412841796875" lon="-0.6994646228849887847900390625">
        <ele>1001.20001220703125</ele>
        <time>2022-08-26T18:25:55.000Z</time>
      </trkpt>
      <trkpt lat="40.01771888695657253265380859375" lon="-0.69943503476679325103759765625">
        <ele>1001.20001220703125</ele>
        <time>2022-08-26T18:25:56.000Z</time>
      </trkpt>
      <trkpt lat="40.01754856668412685394287109375" lon="-0.6993419118225574493408203125">
        <ele>1001</ele>
        <time>2022-08-26T18:26:00.000Z</time>
      </trkpt>
      <trkpt lat="40.0171887315809726715087890625" lon="-0.6991700828075408935546875">
        <ele>999.5999755859375</ele>
        <time>2022-08-26T18:26:08.000Z</time>
      </trkpt>
      <trkpt lat="40.0171464867889881134033203125" lon="-0.69914854131639003753662109375">
        <ele>999.4000244140625</ele>
        <time>2022-08-26T18:26:09.000Z</time>
      </trkpt>
      <trkpt lat="40.01693635247647762298583984375" lon="-0.69904737174510955810546875">
        <ele>998.4000244140625</ele>
        <time>2022-08-26T18:26:14.000Z</time>
      </trkpt>
      <trkpt lat="40.01676318235695362091064453125" lon="-0.6989244930446147918701171875">
        <ele>997.79998779296875</ele>
        <time>2022-08-26T18:26:19.000Z</time>
      </trkpt>
      <trkpt lat="40.0167555548250675201416015625" lon="-0.69883137010037899017333984375">
        <ele>997.5999755859375</ele>
        <time>2022-08-26T18:26:21.000Z</time>
      </trkpt>
      <trkpt lat="40.01679302193224430084228515625" lon="-0.698717795312404632568359375">
        <ele>997.4000244140625</ele>
        <time>2022-08-26T18:26:22.000Z</time>
      </trkpt>
      <trkpt lat="40.01681498251855373382568359375" lon="-0.6986656598746776580810546875">
        <ele>997.4000244140625</ele>
        <time>2022-08-26T18:26:23.000Z</time>
      </trkpt>
      <trkpt lat="40.01688840799033641815185546875" lon="-0.6985369138419628143310546875">
        <ele>996.79998779296875</ele>
        <time>2022-08-26T18:26:26.000Z</time>
      </trkpt>
      <trkpt lat="40.01695328392088413238525390625" lon="-0.69848720915615558624267578125">
        <ele>996</ele>
        <time>2022-08-26T18:26:29.000Z</time>
      </trkpt>
      <trkpt lat="40.01697725616395473480224609375" lon="-0.69848720915615558624267578125">
        <ele>995.79998779296875</ele>
        <time>2022-08-26T18:26:30.000Z</time>
      </trkpt>
      <trkpt lat="40.01697725616395473480224609375" lon="-0.69848720915615558624267578125">
        <ele>995.5999755859375</ele>
        <time>2022-08-26T18:26:31.000Z</time>
      </trkpt>
      <trkpt lat="40.01709678210318088531494140625" lon="-0.69848679006099700927734375">
        <ele>995.20001220703125</ele>
        <time>2022-08-26T18:26:36.000Z</time>
      </trkpt>
      <trkpt lat="40.0171012245118618011474609375" lon="-0.6984420306980609893798828125">
        <ele>995.4000244140625</ele>
        <time>2022-08-26T18:26:39.000Z</time>
      </trkpt>
      <trkpt lat="40.01708655618131160736083984375" lon="-0.69843322969973087310791015625">
        <ele>995.4000244140625</ele>
        <time>2022-08-26T18:26:41.000Z</time>
      </trkpt>
      <trkpt lat="40.01695713959634304046630859375" lon="-0.698379836976528167724609375">
        <ele>995.79998779296875</ele>
        <time>2022-08-26T18:26:45.000Z</time>
      </trkpt>
      <trkpt lat="40.0167934410274028778076171875" lon="-0.6982861272990703582763671875">
        <ele>996.20001220703125</ele>
        <time>2022-08-26T18:26:53.000Z</time>
      </trkpt>
      <trkpt lat="40.01657190732657909393310546875" lon="-0.6981459818780422210693359375">
        <ele>996.5999755859375</ele>
        <time>2022-08-26T18:27:01.000Z</time>
      </trkpt>
      <trkpt lat="40.0164784491062164306640625" lon="-0.6981134600937366485595703125">
        <ele>997</ele>
        <time>2022-08-26T18:27:04.000Z</time>
      </trkpt>
      <trkpt lat="40.01626848243176937103271484375" lon="-0.698042549192905426025390625">
        <ele>997.4000244140625</ele>
        <time>2022-08-26T18:27:10.000Z</time>
      </trkpt>
      <trkpt lat="40.01602658070623874664306640625" lon="-0.697994269430637359619140625">
        <ele>997.4000244140625</ele>
        <time>2022-08-26T18:27:20.000Z</time>
      </trkpt>
      <trkpt lat="40.015965141355991363525390625" lon="-0.697937272489070892333984375">
        <ele>997.20001220703125</ele>
        <time>2022-08-26T18:27:23.000Z</time>
      </trkpt>
      <trkpt lat="40.01595751382410526275634765625" lon="-0.69790466688573360443115234375">
        <ele>997.20001220703125</ele>
        <time>2022-08-26T18:27:24.000Z</time>
      </trkpt>
      <trkpt lat="40.01600864343345165252685546875" lon="-0.69771674461662769317626953125">
        <ele>997</ele>
        <time>2022-08-26T18:27:27.000Z</time>
      </trkpt>
      <trkpt lat="40.0160330347716808319091796875" lon="-0.69763359613716602325439453125">
        <ele>996.5999755859375</ele>
        <time>2022-08-26T18:27:31.000Z</time>
      </trkpt>
      <trkpt lat="40.01603999175131320953369140625" lon="-0.6976316682994365692138671875">
        <ele>996</ele>
        <time>2022-08-26T18:27:34.000Z</time>
      </trkpt>
      <trkpt lat="40.01606916077435016632080078125" lon="-0.69765262305736541748046875">
        <ele>995.4000244140625</ele>
        <time>2022-08-26T18:27:36.000Z</time>
      </trkpt>
      <trkpt lat="40.01606916077435016632080078125" lon="-0.69765262305736541748046875">
        <ele>995.4000244140625</ele>
        <time>2022-08-26T18:27:37.000Z</time>
      </trkpt>
      <trkpt lat="40.016142167150974273681640625" lon="-0.69768321700394153594970703125">
        <ele>995</ele>
        <time>2022-08-26T18:27:40.000Z</time>
      </trkpt>
      <trkpt lat="40.01619773916900157928466796875" lon="-0.697699896991252899169921875">
        <ele>994.79998779296875</ele>
        <time>2022-08-26T18:27:42.000Z</time>
      </trkpt>
      <trkpt lat="40.0163867510855197906494140625" lon="-0.6977342627942562103271484375">
        <ele>994.5999755859375</ele>
        <time>2022-08-26T18:27:49.000Z</time>
      </trkpt>
      <trkpt lat="40.01661725342273712158203125" lon="-0.69784708321094512939453125">
        <ele>993.79998779296875</ele>
        <time>2022-08-26T18:27:58.000Z</time>
      </trkpt>
      <trkpt lat="40.01663736999034881591796875" lon="-0.69785655476152896881103515625">
        <ele>993.79998779296875</ele>
        <time>2022-08-26T18:27:59.000Z</time>
      </trkpt>
      <trkpt lat="40.01679025590419769287109375" lon="-0.69791472516953945159912109375">
        <ele>993.4000244140625</ele>
        <time>2022-08-26T18:28:06.000Z</time>
      </trkpt>
      <trkpt lat="40.016971640288829803466796875" lon="-0.69798228330910205841064453125">
        <ele>993</ele>
        <time>2022-08-26T18:28:12.000Z</time>
      </trkpt>
      <trkpt lat="40.017034001648426055908203125" lon="-0.6980031542479991912841796875">
        <ele>992.5999755859375</ele>
        <time>2022-08-26T18:28:14.000Z</time>
      </trkpt>
      <trkpt lat="40.0171867199242115020751953125" lon="-0.69805688224732875823974609375">
        <ele>992.20001220703125</ele>
        <time>2022-08-26T18:28:18.000Z</time>
      </trkpt>
      <trkpt lat="40.01737237907946109771728515625" lon="-0.6980990432202816009521484375">
        <ele>991.5999755859375</ele>
        <time>2022-08-26T18:28:24.000Z</time>
      </trkpt>
      <trkpt lat="40.01744781620800495147705078125" lon="-0.6981104426085948944091796875">
        <ele>990.5999755859375</ele>
        <time>2022-08-26T18:28:29.000Z</time>
      </trkpt>
      <trkpt lat="40.01745200715959072113037109375" lon="-0.6981104426085948944091796875">
        <ele>990.4000244140625</ele>
        <time>2022-08-26T18:28:30.000Z</time>
      </trkpt>
      <trkpt lat="40.01745318062603473663330078125" lon="-0.69810683839023113250732421875">
        <ele>990.20001220703125</ele>
        <time>2022-08-26T18:28:32.000Z</time>
      </trkpt>
      <trkpt lat="40.01732292585074901580810546875" lon="-0.69791472516953945159912109375">
        <ele>985.4000244140625</ele>
        <time>2022-08-26T18:30:16.000Z</time>
      </trkpt>
      <trkpt lat="40.017291493713855743408203125" lon="-0.697895698249340057373046875">
        <ele>985.4000244140625</ele>
        <time>2022-08-26T18:30:17.000Z</time>
      </trkpt>
      <trkpt lat="40.0170727260410785675048828125" lon="-0.69767944514751434326171875">
        <ele>984.79998779296875</ele>
        <time>2022-08-26T18:30:25.000Z</time>
      </trkpt>
      <trkpt lat="40.0168692134320735931396484375" lon="-0.6975545547902584075927734375">
        <ele>984.4000244140625</ele>
        <time>2022-08-26T18:30:33.000Z</time>
      </trkpt>
      <trkpt lat="40.01672429032623767852783203125" lon="-0.6975042633712291717529296875">
        <ele>984.4000244140625</ele>
        <time>2022-08-26T18:30:39.000Z</time>
      </trkpt>
      <trkpt lat="40.0165265612304210662841796875" lon="-0.69741382263600826263427734375">
        <ele>984.79998779296875</ele>
        <time>2022-08-26T18:30:46.000Z</time>
      </trkpt>
      <trkpt lat="40.01650300808250904083251953125" lon="-0.697399489581584930419921875">
        <ele>985</ele>
        <time>2022-08-26T18:30:48.000Z</time>
      </trkpt>
      <trkpt lat="40.016506277024745941162109375" lon="-0.69735263474285602569580078125">
        <ele>985</ele>
        <time>2022-08-26T18:30:50.000Z</time>
      </trkpt>
      <trkpt lat="40.01651625148952007293701171875" lon="-0.69729111157357692718505859375">
        <ele>985</ele>
        <time>2022-08-26T18:30:52.000Z</time>
      </trkpt>
      <trkpt lat="40.0165074504911899566650390625" lon="-0.6971750222146511077880859375">
        <ele>985</ele>
        <time>2022-08-26T18:30:56.000Z</time>
      </trkpt>
      <trkpt lat="40.0166003219783306121826171875" lon="-0.69691099226474761962890625">
        <ele>985</ele>
        <time>2022-08-26T18:31:04.000Z</time>
      </trkpt>
      <trkpt lat="40.01660476438701152801513671875" lon="-0.69682289846241474151611328125">
        <ele>985</ele>
        <time>2022-08-26T18:31:07.000Z</time>
      </trkpt>
      <trkpt lat="40.0165723264217376708984375" lon="-0.69680529646575450897216796875">
        <ele>985</ele>
        <time>2022-08-26T18:31:09.000Z</time>
      </trkpt>
      <trkpt lat="40.0165305845439434051513671875" lon="-0.69680378772318363189697265625">
        <ele>985</ele>
        <time>2022-08-26T18:31:11.000Z</time>
      </trkpt>
      <trkpt lat="40.016421787440776824951171875" lon="-0.69680596701800823211669921875">
        <ele>985.20001220703125</ele>
        <time>2022-08-26T18:31:15.000Z</time>
      </trkpt>
      <trkpt lat="40.01620746217668056488037109375" lon="-0.69674578495323657989501953125">
        <ele>985.4000244140625</ele>
        <time>2022-08-26T18:31:22.000Z</time>
      </trkpt>
      <trkpt lat="40.01594804227352142333984375" lon="-0.696655176579952239990234375">
        <ele>985.79998779296875</ele>
        <time>2022-08-26T18:31:32.000Z</time>
      </trkpt>
      <trkpt lat="40.01584620214998722076416015625" lon="-0.6966385804116725921630859375">
        <ele>986</ele>
        <time>2022-08-26T18:31:36.000Z</time>
      </trkpt>
      <trkpt lat="40.01576590351760387420654296875" lon="-0.69661435671150684356689453125">
        <ele>986.4000244140625</ele>
        <time>2022-08-26T18:31:39.000Z</time>
      </trkpt>
      <trkpt lat="40.01551411114633083343505859375" lon="-0.69657295010983943939208984375">
        <ele>986.79998779296875</ele>
        <time>2022-08-26T18:31:48.000Z</time>
      </trkpt>
      <trkpt lat="40.0153899751603603363037109375" lon="-0.69655082188546657562255859375">
        <ele>987</ele>
        <time>2022-08-26T18:31:54.000Z</time>
      </trkpt>
      <trkpt lat="40.01537145115435123443603515625" lon="-0.69656138308346271514892578125">
        <ele>987.20001220703125</ele>
        <time>2022-08-26T18:31:55.000Z</time>
      </trkpt>
      <trkpt lat="40.01534613780677318572998046875" lon="-0.696565993130207061767578125">
        <ele>987.5999755859375</ele>
        <time>2022-08-26T18:32:00.000Z</time>
      </trkpt>
      <trkpt lat="40.0153473950922489166259765625" lon="-0.69656389765441417694091796875">
        <ele>987.79998779296875</ele>
        <time>2022-08-26T18:32:02.000Z</time>
      </trkpt>
      <trkpt lat="40.0151348300278186798095703125" lon="-0.696610920131206512451171875">
        <ele>983.79998779296875</ele>
        <time>2022-08-26T18:49:14.000Z</time>
      </trkpt>
      <trkpt lat="40.0151593051850795745849609375" lon="-0.69660999812185764312744140625">
        <ele>983.79998779296875</ele>
        <time>2022-08-26T18:49:15.000Z</time>
      </trkpt>
      <trkpt lat="40.0153722055256366729736328125" lon="-0.69653414189815521240234375">
        <ele>970</ele>
        <time>2022-08-26T19:09:49.000Z</time>
      </trkpt>
      <trkpt lat="40.01537245698273181915283203125" lon="-0.6965333037078380584716796875">
        <ele>970.20001220703125</ele>
        <time>2022-08-26T19:09:50.000Z</time>
      </trkpt>
      <trkpt lat="40.01534647308290004730224609375" lon="-0.696485526859760284423828125">
        <ele>971</ele>
        <time>2022-08-26T19:10:40.000Z</time>
      </trkpt>
      <trkpt lat="40.0153044797480106353759765625" lon="-0.696468092501163482666015625">
        <ele>971</ele>
        <time>2022-08-26T19:10:42.000Z</time>
      </trkpt>
      <trkpt lat="40.01514748670160770416259765625" lon="-0.69643129594624042510986328125">
        <ele>971</ele>
        <time>2022-08-26T19:10:49.000Z</time>
      </trkpt>
      <trkpt lat="40.0151291303336620330810546875" lon="-0.696427188813686370849609375">
        <ele>971</ele>
        <time>2022-08-26T19:10:50.000Z</time>
      </trkpt>
      <trkpt lat="40.0150407850742340087890625" lon="-0.69643766619265079498291015625">
        <ele>971.20001220703125</ele>
        <time>2022-08-26T19:10:56.000Z</time>
      </trkpt>
      <trkpt lat="40.0150037370622158050537109375" lon="-0.69646448828279972076416015625">
        <ele>971.5999755859375</ele>
        <time>2022-08-26T19:10:59.000Z</time>
      </trkpt>
      <trkpt lat="40.0149943493306636810302734375" lon="-0.6965039670467376708984375">
        <ele>971.5999755859375</ele>
        <time>2022-08-26T19:11:01.000Z</time>
      </trkpt>
      <trkpt lat="40.014989487826824188232421875" lon="-0.69653841666877269744873046875">
        <ele>971.5999755859375</ele>
        <time>2022-08-26T19:11:03.000Z</time>
      </trkpt>
      <trkpt lat="40.01496207900345325469970703125" lon="-0.6965715251863002777099609375">
        <ele>971.79998779296875</ele>
        <time>2022-08-26T19:11:06.000Z</time>
      </trkpt>
      <trkpt lat="40.0149474106729030609130859375" lon="-0.69657932035624980926513671875">
        <ele>971.79998779296875</ele>
        <time>2022-08-26T19:11:07.000Z</time>
      </trkpt>
      <trkpt lat="40.01486736349761486053466796875" lon="-0.69658451713621616363525390625">
        <ele>971.79998779296875</ele>
        <time>2022-08-26T19:11:11.000Z</time>
      </trkpt>
      <trkpt lat="40.01482998020946979522705078125" lon="-0.69659373722970485687255859375">
        <ele>971.79998779296875</ele>
        <time>2022-08-26T19:11:13.000Z</time>
      </trkpt>
      <trkpt lat="40.0147180818021297454833984375" lon="-0.69662441499531269073486328125">
        <ele>971.79998779296875</ele>
        <time>2022-08-26T19:11:19.000Z</time>
      </trkpt>
      <trkpt lat="40.0146989710628986358642578125" lon="-0.696627683937549591064453125">
        <ele>972</ele>
        <time>2022-08-26T19:11:20.000Z</time>
      </trkpt>
      <trkpt lat="40.01460961997509002685546875" lon="-0.69664143025875091552734375">
        <ele>972.79998779296875</ele>
        <time>2022-08-26T19:11:25.000Z</time>
      </trkpt>
      <trkpt lat="40.01456041820347309112548828125" lon="-0.69664352573454380035400390625">
        <ele>973</ele>
        <time>2022-08-26T19:11:27.000Z</time>
      </trkpt>
      <trkpt lat="40.0143982283771038055419921875" lon="-0.69662558846175670623779296875">
        <ele>973.79998779296875</ele>
        <time>2022-08-26T19:11:33.000Z</time>
      </trkpt>
      <trkpt lat="40.0143432430922985076904296875" lon="-0.6966231577098369598388671875">
        <ele>974.20001220703125</ele>
        <time>2022-08-26T19:11:35.000Z</time>
      </trkpt>
      <trkpt lat="40.0141796283423900604248046875" lon="-0.6966080702841281890869140625">
        <ele>975.20001220703125</ele>
        <time>2022-08-26T19:11:41.000Z</time>
      </trkpt>
      <trkpt lat="40.01399933360517024993896484375" lon="-0.69657881744205951690673828125">
        <ele>976</ele>
        <time>2022-08-26T19:11:48.000Z</time>
      </trkpt>
      <trkpt lat="40.01392641104757785797119140625" lon="-0.6965634785592555999755859375">
        <ele>976.20001220703125</ele>
        <time>2022-08-26T19:11:51.000Z</time>
      </trkpt>
      <trkpt lat="40.01390243880450725555419921875" lon="-0.69655853323638439178466796875">
        <ele>976.4000244140625</ele>
        <time>2022-08-26T19:11:52.000Z</time>
      </trkpt>
      <trkpt lat="40.013776123523712158203125" lon="-0.69653950631618499755859375">
        <ele>977.20001220703125</ele>
        <time>2022-08-26T19:11:58.000Z</time>
      </trkpt>
      <trkpt lat="40.0137560069561004638671875" lon="-0.696535147726535797119140625">
        <ele>977.20001220703125</ele>
        <time>2022-08-26T19:11:59.000Z</time>
      </trkpt>
      <trkpt lat="40.01364561729133129119873046875" lon="-0.69649935699999332427978515625">
        <ele>978.20001220703125</ele>
        <time>2022-08-26T19:12:05.000Z</time>
      </trkpt>
      <trkpt lat="40.013614855706691741943359375" lon="-0.69649198092520236968994140625">
        <ele>978.5999755859375</ele>
        <time>2022-08-26T19:12:07.000Z</time>
      </trkpt>
      <trkpt lat="40.0135184638202190399169921875" lon="-0.696466751396656036376953125">
        <ele>979.20001220703125</ele>
        <time>2022-08-26T19:12:13.000Z</time>
      </trkpt>
      <trkpt lat="40.0133860297501087188720703125" lon="-0.69644085131585597991943359375">
        <ele>980</ele>
        <time>2022-08-26T19:12:19.000Z</time>
      </trkpt>
      <trkpt lat="40.01328594982624053955078125" lon="-0.69649256765842437744140625">
        <ele>980.20001220703125</ele>
        <time>2022-08-26T19:12:23.000Z</time>
      </trkpt>
      <trkpt lat="40.0132636539638042449951171875" lon="-0.69651427678763866424560546875">
        <ele>980.4000244140625</ele>
        <time>2022-08-26T19:12:24.000Z</time>
      </trkpt>
      <trkpt lat="40.01319617964327335357666015625" lon="-0.69666950963437557220458984375">
        <ele>981.20001220703125</ele>
        <time>2022-08-26T19:12:29.000Z</time>
      </trkpt>
      <trkpt lat="40.0131805054843425750732421875" lon="-0.69674176163971424102783203125">
        <ele>981.4000244140625</ele>
        <time>2022-08-26T19:12:31.000Z</time>
      </trkpt>
      <trkpt lat="40.01313976943492889404296875" lon="-0.6969728507101535797119140625">
        <ele>982</ele>
        <time>2022-08-26T19:12:37.000Z</time>
      </trkpt>
      <trkpt lat="40.01308235339820384979248046875" lon="-0.69720108993351459503173828125">
        <ele>982.20001220703125</ele>
        <time>2022-08-26T19:12:43.000Z</time>
      </trkpt>
      <trkpt lat="40.0130586326122283935546875" lon="-0.69722481071949005126953125">
        <ele>982.20001220703125</ele>
        <time>2022-08-26T19:12:44.000Z</time>
      </trkpt>
      <trkpt lat="40.01294204033911228179931640625" lon="-0.6972336955368518829345703125">
        <ele>982.20001220703125</ele>
        <time>2022-08-26T19:12:48.000Z</time>
      </trkpt>
      <trkpt lat="40.012912116944789886474609375" lon="-0.69722338579595088958740234375">
        <ele>982</ele>
        <time>2022-08-26T19:12:49.000Z</time>
      </trkpt>
      <trkpt lat="40.0127260386943817138671875" lon="-0.697119869291782379150390625">
        <ele>981.79998779296875</ele>
        <time>2022-08-26T19:12:55.000Z</time>
      </trkpt>
      <trkpt lat="40.01268890686333179473876953125" lon="-0.6970952264964580535888671875">
        <ele>981.79998779296875</ele>
        <time>2022-08-26T19:12:56.000Z</time>
      </trkpt>
      <trkpt lat="40.01255563460290431976318359375" lon="-0.69705138914287090301513671875">
        <ele>981.4000244140625</ele>
        <time>2022-08-26T19:12:59.000Z</time>
      </trkpt>
      <trkpt lat="40.01224248670041561126708984375" lon="-0.69700394757091999053955078125">
        <ele>980.5999755859375</ele>
        <time>2022-08-26T19:13:06.000Z</time>
      </trkpt>
      <trkpt lat="40.01218901015818119049072265625" lon="-0.69698316045105457305908203125">
        <ele>980.20001220703125</ele>
        <time>2022-08-26T19:13:08.000Z</time>
      </trkpt>
      <trkpt lat="40.0120876729488372802734375" lon="-0.6969617865979671478271484375">
        <ele>979.5999755859375</ele>
        <time>2022-08-26T19:13:11.000Z</time>
      </trkpt>
      <trkpt lat="40.012012235820293426513671875" lon="-0.69694879464805126190185546875">
        <ele>979.20001220703125</ele>
        <time>2022-08-26T19:13:13.000Z</time>
      </trkpt>
      <trkpt lat="40.01180461607873439788818359375" lon="-0.696920044720172882080078125">
        <ele>978.5999755859375</ele>
        <time>2022-08-26T19:13:18.000Z</time>
      </trkpt>
      <trkpt lat="40.01162004657089710235595703125" lon="-0.69690403528511524200439453125">
        <ele>978.20001220703125</ele>
        <time>2022-08-26T19:13:22.000Z</time>
      </trkpt>
      <trkpt lat="40.01136674545705318450927734375" lon="-0.69689464755356311798095703125">
        <ele>977.79998779296875</ele>
        <time>2022-08-26T19:13:27.000Z</time>
      </trkpt>
      <trkpt lat="40.010800547897815704345703125" lon="-0.69685307331383228302001953125">
        <ele>977.4000244140625</ele>
        <time>2022-08-26T19:13:37.000Z</time>
      </trkpt>
      <trkpt lat="40.0105586461722850799560546875" lon="-0.69683932699263095855712890625">
        <ele>977</ele>
        <time>2022-08-26T19:13:41.000Z</time>
      </trkpt>
      <trkpt lat="40.01020937226712703704833984375" lon="-0.69681954570114612579345703125">
        <ele>976.20001220703125</ele>
        <time>2022-08-26T19:13:47.000Z</time>
      </trkpt>
      <trkpt lat="40.0099155865609645843505859375" lon="-0.6967964954674243927001953125">
        <ele>975.79998779296875</ele>
        <time>2022-08-26T19:13:52.000Z</time>
      </trkpt>
      <trkpt lat="40.00985800288617610931396484375" lon="-0.6967921368777751922607421875">
        <ele>975.79998779296875</ele>
        <time>2022-08-26T19:13:53.000Z</time>
      </trkpt>
      <trkpt lat="40.00963278114795684814453125" lon="-0.696778558194637298583984375">
        <ele>975.79998779296875</ele>
        <time>2022-08-26T19:13:57.000Z</time>
      </trkpt>
      <trkpt lat="40.00903976149857044219970703125" lon="-0.69675676524639129638671875">
        <ele>975.5999755859375</ele>
        <time>2022-08-26T19:14:07.000Z</time>
      </trkpt>
      <trkpt lat="40.0088624842464923858642578125" lon="-0.69674897007644176483154296875">
        <ele>975.5999755859375</ele>
        <time>2022-08-26T19:14:11.000Z</time>
      </trkpt>
      <trkpt lat="40.00884714536368846893310546875" lon="-0.69673673249781131744384765625">
        <ele>975.4000244140625</ele>
        <time>2022-08-26T19:14:12.000Z</time>
      </trkpt>
      <trkpt lat="40.00881663523614406585693359375" lon="-0.69668375886976718902587890625">
        <ele>975</ele>
        <time>2022-08-26T19:14:15.000Z</time>
      </trkpt>
      <trkpt lat="40.00879467464983463287353515625" lon="-0.69667738862335681915283203125">
        <ele>974.5999755859375</ele>
        <time>2022-08-26T19:14:17.000Z</time>
      </trkpt>
      <trkpt lat="40.0087950937449932098388671875" lon="-0.69667839445173740386962890625">
        <ele>974.20001220703125</ele>
        <time>2022-08-26T19:14:18.000Z</time>
      </trkpt>
      <trkpt lat="40.0087501667439937591552734375" lon="-0.69668979384005069732666015625">
        <ele>973.5999755859375</ele>
        <time>2022-08-26T19:15:05.000Z</time>
      </trkpt>
      <trkpt lat="40.0085838697850704193115234375" lon="-0.69668124429881572723388671875">
        <ele>973.5999755859375</ele>
        <time>2022-08-26T19:15:10.000Z</time>
      </trkpt>
      <trkpt lat="40.00826627947390079498291015625" lon="-0.6966607086360454559326171875">
        <ele>973.4000244140625</ele>
        <time>2022-08-26T19:15:18.000Z</time>
      </trkpt>
      <trkpt lat="40.00783109106123447418212890625" lon="-0.69664251990616321563720703125">
        <ele>973.20001220703125</ele>
        <time>2022-08-26T19:15:28.000Z</time>
      </trkpt>
      <trkpt lat="40.0075225532054901123046875" lon="-0.69661217741668224334716796875">
        <ele>972.5999755859375</ele>
        <time>2022-08-26T19:15:35.000Z</time>
      </trkpt>
      <trkpt lat="40.007145367562770843505859375" lon="-0.69659843109548091888427734375">
        <ele>972.4000244140625</ele>
        <time>2022-08-26T19:15:43.000Z</time>
      </trkpt>
      <trkpt lat="40.00701637007296085357666015625" lon="-0.69658921100199222564697265625">
        <ele>972.20001220703125</ele>
        <time>2022-08-26T19:15:46.000Z</time>
      </trkpt>
      <trkpt lat="40.00686381943523883819580078125" lon="-0.69657512940466403961181640625">
        <ele>972</ele>
        <time>2022-08-26T19:15:50.000Z</time>
      </trkpt>
      <trkpt lat="40.0066171400249004364013671875" lon="-0.6965718604624271392822265625">
        <ele>971.79998779296875</ele>
        <time>2022-08-26T19:15:56.000Z</time>
      </trkpt>
      <trkpt lat="40.0062550418078899383544921875" lon="-0.6965638138353824615478515625">
        <ele>971.4000244140625</ele>
        <time>2022-08-26T19:16:04.000Z</time>
      </trkpt>
      <trkpt lat="40.0058971345424652099609375" lon="-0.69654763676226139068603515625">
        <ele>971.20001220703125</ele>
        <time>2022-08-26T19:16:11.000Z</time>
      </trkpt>
      <trkpt lat="40.005796886980533599853515625" lon="-0.69654528982937335968017578125">
        <ele>971.20001220703125</ele>
        <time>2022-08-26T19:16:13.000Z</time>
      </trkpt>
      <trkpt lat="40.00538282096385955810546875" lon="-0.69653690792620182037353515625">
        <ele>971</ele>
        <time>2022-08-26T19:16:21.000Z</time>
      </trkpt>
      <trkpt lat="40.00517067499458789825439453125" lon="-0.69652886129915714263916015625">
        <ele>970.79998779296875</ele>
        <time>2022-08-26T19:16:25.000Z</time>
      </trkpt>
      <trkpt lat="40.00475811772048473358154296875" lon="-0.6964987702667713165283203125">
        <ele>970.20001220703125</ele>
        <time>2022-08-26T19:16:33.000Z</time>
      </trkpt>
      <trkpt lat="40.0046579539775848388671875" lon="-0.69648862816393375396728515625">
        <ele>970.20001220703125</ele>
        <time>2022-08-26T19:16:35.000Z</time>
      </trkpt>
      <trkpt lat="40.004204325377941131591796875" lon="-0.6964722834527492523193359375">
        <ele>970</ele>
        <time>2022-08-26T19:16:44.000Z</time>
      </trkpt>
      <trkpt lat="40.00370987690985202789306640625" lon="-0.69645627401769161224365234375">
        <ele>969.20001220703125</ele>
        <time>2022-08-26T19:16:54.000Z</time>
      </trkpt>
      <trkpt lat="40.00317963771522045135498046875" lon="-0.69643749855458736419677734375">
        <ele>969</ele>
        <time>2022-08-26T19:17:05.000Z</time>
      </trkpt>
      <trkpt lat="40.0027058087289333343505859375" lon="-0.6964196451008319854736328125">
        <ele>968.5999755859375</ele>
        <time>2022-08-26T19:17:15.000Z</time>
      </trkpt>
      <trkpt lat="40.00224371440708637237548828125" lon="-0.6964032165706157684326171875">
        <ele>968.5999755859375</ele>
        <time>2022-08-26T19:17:25.000Z</time>
      </trkpt>
      <trkpt lat="40.00172252766788005828857421875" lon="-0.69639123044908046722412109375">
        <ele>968.5999755859375</ele>
        <time>2022-08-26T19:17:36.000Z</time>
      </trkpt>
      <trkpt lat="40.00150837004184722900390625" lon="-0.69638804532587528228759765625">
        <ele>968.5999755859375</ele>
        <time>2022-08-26T19:17:41.000Z</time>
      </trkpt>
      <trkpt lat="40.00142765231430530548095703125" lon="-0.69639156572520732879638671875">
        <ele>968.5999755859375</ele>
        <time>2022-08-26T19:17:43.000Z</time>
      </trkpt>
      <trkpt lat="40.0010441802442073822021484375" lon="-0.69636457599699497222900390625">
        <ele>968.4000244140625</ele>
        <time>2022-08-26T19:17:52.000Z</time>
      </trkpt>
      <trkpt lat="40.00048016197979450225830078125" lon="-0.69634211249649524688720703125">
        <ele>968.20001220703125</ele>
        <time>2022-08-26T19:18:04.000Z</time>
      </trkpt>
      <trkpt lat="40.00043204985558986663818359375" lon="-0.69633926264941692352294921875">
        <ele>968.20001220703125</ele>
        <time>2022-08-26T19:18:05.000Z</time>
      </trkpt>
      <trkpt lat="40.00014186836779117584228515625" lon="-0.69632769562304019927978515625">
        <ele>967.79998779296875</ele>
        <time>2022-08-26T19:18:11.000Z</time>
      </trkpt>
      <trkpt lat="39.99984808266162872314453125" lon="-0.696315877139568328857421875">
        <ele>967.79998779296875</ele>
        <time>2022-08-26T19:18:17.000Z</time>
      </trkpt>
      <trkpt lat="39.999353885650634765625" lon="-0.69630741141736507415771484375">
        <ele>967.4000244140625</ele>
        <time>2022-08-26T19:18:27.000Z</time>
      </trkpt>
      <trkpt lat="39.998949877917766571044921875" lon="-0.69629182107746601104736328125">
        <ele>966.79998779296875</ele>
        <time>2022-08-26T19:18:35.000Z</time>
      </trkpt>
      <trkpt lat="39.99884719960391521453857421875" lon="-0.6962855346500873565673828125">
        <ele>966.5999755859375</ele>
        <time>2022-08-26T19:18:37.000Z</time>
      </trkpt>
      <trkpt lat="39.99833003617823123931884765625" lon="-0.69626449607312679290771484375">
        <ele>966.20001220703125</ele>
        <time>2022-08-26T19:18:47.000Z</time>
      </trkpt>
      <trkpt lat="39.9977920018136501312255859375" lon="-0.69624337367713451385498046875">
        <ele>965.79998779296875</ele>
        <time>2022-08-26T19:18:57.000Z</time>
      </trkpt>
      <trkpt lat="39.9977373518049716949462890625" lon="-0.69624035619199275970458984375">
        <ele>965.5999755859375</ele>
        <time>2022-08-26T19:18:58.000Z</time>
      </trkpt>
      <trkpt lat="39.99717660248279571533203125" lon="-0.696219988167285919189453125">
        <ele>964.79998779296875</ele>
        <time>2022-08-26T19:19:08.000Z</time>
      </trkpt>
      <trkpt lat="39.99673001468181610107421875" lon="-0.69620548747479915618896484375">
        <ele>964.5999755859375</ele>
        <time>2022-08-26T19:19:16.000Z</time>
      </trkpt>
      <trkpt lat="39.99661224894225597381591796875" lon="-0.6962049007415771484375">
        <ele>964.4000244140625</ele>
        <time>2022-08-26T19:19:18.000Z</time>
      </trkpt>
      <trkpt lat="39.9960797466337680816650390625" lon="-0.6961933337152004241943359375">
        <ele>963.79998779296875</ele>
        <time>2022-08-26T19:19:27.000Z</time>
      </trkpt>
      <trkpt lat="39.9958919920027256011962890625" lon="-0.6961886398494243621826171875">
        <ele>963.4000244140625</ele>
        <time>2022-08-26T19:19:30.000Z</time>
      </trkpt>
      <trkpt lat="39.99546443112194538116455078125" lon="-0.69617112167179584503173828125">
        <ele>962.5999755859375</ele>
        <time>2022-08-26T19:19:37.000Z</time>
      </trkpt>
      <trkpt lat="39.995406679809093475341796875" lon="-0.69616760127246379852294921875">
        <ele>962.20001220703125</ele>
        <time>2022-08-26T19:19:38.000Z</time>
      </trkpt>
      <trkpt lat="39.994919188320636749267578125" lon="-0.6961346603929996490478515625">
        <ele>961.79998779296875</ele>
        <time>2022-08-26T19:19:47.000Z</time>
      </trkpt>
      <trkpt lat="39.99437897466123104095458984375" lon="-0.69611814804375171661376953125">
        <ele>961.79998779296875</ele>
        <time>2022-08-26T19:19:57.000Z</time>
      </trkpt>
      <trkpt lat="39.99386684037744998931884765625" lon="-0.6960994563996791839599609375">
        <ele>961.4000244140625</ele>
        <time>2022-08-26T19:20:07.000Z</time>
      </trkpt>
      <trkpt lat="39.9937673471868038177490234375" lon="-0.69609199650585651397705078125">
        <ele>961.20001220703125</ele>
        <time>2022-08-26T19:20:09.000Z</time>
      </trkpt>
      <trkpt lat="39.99345109798014163970947265625" lon="-0.69607975892722606658935546875">
        <ele>961</ele>
        <time>2022-08-26T19:20:15.000Z</time>
      </trkpt>
      <trkpt lat="39.992867968976497650146484375" lon="-0.69605058990418910980224609375">
        <ele>960.4000244140625</ele>
        <time>2022-08-26T19:20:26.000Z</time>
      </trkpt>
      <trkpt lat="39.992814995348453521728515625" lon="-0.6960495002567768096923828125">
        <ele>960.4000244140625</ele>
        <time>2022-08-26T19:20:27.000Z</time>
      </trkpt>
      <trkpt lat="39.99224561266601085662841796875" lon="-0.69603256881237030029296875">
        <ele>960</ele>
        <time>2022-08-26T19:20:38.000Z</time>
      </trkpt>
      <trkpt lat="39.9916882999241352081298828125" lon="-0.69600817747414112091064453125">
        <ele>959.79998779296875</ele>
        <time>2022-08-26T19:20:49.000Z</time>
      </trkpt>
      <trkpt lat="39.9911183305084705352783203125" lon="-0.69598705507814884185791015625">
        <ele>959.5999755859375</ele>
        <time>2022-08-26T19:21:00.000Z</time>
      </trkpt>
      <trkpt lat="39.99060510657727718353271484375" lon="-0.6959743984043598175048828125">
        <ele>959.5999755859375</ele>
        <time>2022-08-26T19:21:10.000Z</time>
      </trkpt>
      <trkpt lat="39.99050452373921871185302734375" lon="-0.6959807686507701873779296875">
        <ele>959.5999755859375</ele>
        <time>2022-08-26T19:21:12.000Z</time>
      </trkpt>
      <trkpt lat="39.99006380327045917510986328125" lon="-0.69596492685377597808837890625">
        <ele>959.79998779296875</ele>
        <time>2022-08-26T19:21:21.000Z</time>
      </trkpt>
      <trkpt lat="39.98998048715293407440185546875" lon="-0.69596358574926853179931640625">
        <ele>959.79998779296875</ele>
        <time>2022-08-26T19:21:23.000Z</time>
      </trkpt>
      <trkpt lat="39.9897128529846668243408203125" lon="-0.6959479115903377532958984375">
        <ele>959.79998779296875</ele>
        <time>2022-08-26T19:21:30.000Z</time>
      </trkpt>
      <trkpt lat="39.9894365854561328887939453125" lon="-0.6959415413439273834228515625">
        <ele>959.79998779296875</ele>
        <time>2022-08-26T19:21:37.000Z</time>
      </trkpt>
      <trkpt lat="39.98909376561641693115234375" lon="-0.69592687301337718963623046875">
        <ele>959.79998779296875</ele>
        <time>2022-08-26T19:21:45.000Z</time>
      </trkpt>
      <trkpt lat="39.98877164907753467559814453125" lon="-0.6959153898060321807861328125">
        <ele>959.79998779296875</ele>
        <time>2022-08-26T19:21:52.000Z</time>
      </trkpt>
      <trkpt lat="39.98835607431828975677490234375" lon="-0.695896111428737640380859375">
        <ele>959.79998779296875</ele>
        <time>2022-08-26T19:22:01.000Z</time>
      </trkpt>
      <trkpt lat="39.98798341490328311920166015625" lon="-0.695877335965633392333984375">
        <ele>959.79998779296875</ele>
        <time>2022-08-26T19:22:09.000Z</time>
      </trkpt>
      <trkpt lat="39.9876224063336849212646484375" lon="-0.69586501456797122955322265625">
        <ele>959.79998779296875</ele>
        <time>2022-08-26T19:22:17.000Z</time>
      </trkpt>
      <trkpt lat="39.9873147904872894287109375" lon="-0.69585076533257961273193359375">
        <ele>959.79998779296875</ele>
        <time>2022-08-26T19:22:24.000Z</time>
      </trkpt>
      <trkpt lat="39.9869367666542530059814453125" lon="-0.695837102830410003662109375">
        <ele>959.79998779296875</ele>
        <time>2022-08-26T19:22:32.000Z</time>
      </trkpt>
      <trkpt lat="39.9863838963210582733154296875" lon="-0.695816315710544586181640625">
        <ele>959.79998779296875</ele>
        <time>2022-08-26T19:22:43.000Z</time>
      </trkpt>
      <trkpt lat="39.986283481121063232421875" lon="-0.695811621844768524169921875">
        <ele>959.79998779296875</ele>
        <time>2022-08-26T19:22:45.000Z</time>
      </trkpt>
      <trkpt lat="39.9858923815190792083740234375" lon="-0.6957963667809963226318359375">
        <ele>960.20001220703125</ele>
        <time>2022-08-26T19:22:53.000Z</time>
      </trkpt>
      <trkpt lat="39.985337667167186737060546875" lon="-0.69578354246914386749267578125">
        <ele>960.20001220703125</ele>
        <time>2022-08-26T19:23:04.000Z</time>
      </trkpt>
      <trkpt lat="39.98528729192912578582763671875" lon="-0.695781446993350982666015625">
        <ele>960.20001220703125</ele>
        <time>2022-08-26T19:23:05.000Z</time>
      </trkpt>
      <trkpt lat="39.984834082424640655517578125" lon="-0.695759989321231842041015625">
        <ele>960.20001220703125</ele>
        <time>2022-08-26T19:23:14.000Z</time>
      </trkpt>
      <trkpt lat="39.9843350239098072052001953125" lon="-0.69574582390487194061279296875">
        <ele>960.20001220703125</ele>
        <time>2022-08-26T19:23:24.000Z</time>
      </trkpt>
      <trkpt lat="39.983893297612667083740234375" lon="-0.6957266293466091156005859375">
        <ele>960.20001220703125</ele>
        <time>2022-08-26T19:23:33.000Z</time>
      </trkpt>
      <trkpt lat="39.98333481140434741973876953125" lon="-0.6957028247416019439697265625">
        <ele>960.20001220703125</ele>
        <time>2022-08-26T19:23:44.000Z</time>
      </trkpt>
      <trkpt lat="39.983284771442413330078125" lon="-0.69570005871355533599853515625">
        <ele>960</ele>
        <time>2022-08-26T19:23:45.000Z</time>
      </trkpt>
      <trkpt lat="39.982766769826412200927734375" lon="-0.6956736557185649871826171875">
        <ele>960</ele>
        <time>2022-08-26T19:23:55.000Z</time>
      </trkpt>
      <trkpt lat="39.98217375017702579498291015625" lon="-0.695651359856128692626953125">
        <ele>960.20001220703125</ele>
        <time>2022-08-26T19:24:06.000Z</time>
      </trkpt>
      <trkpt lat="39.98201114125549793243408203125" lon="-0.69564591161906719207763671875">
        <ele>960</ele>
        <time>2022-08-26T19:24:09.000Z</time>
      </trkpt>
      <trkpt lat="39.98142239637672901153564453125" lon="-0.69561959244310855865478515625">
        <ele>960</ele>
        <time>2022-08-26T19:24:20.000Z</time>
      </trkpt>
      <trkpt lat="39.981001876294612884521484375" lon="-0.69560475647449493408203125">
        <ele>960.20001220703125</ele>
        <time>2022-08-26T19:24:28.000Z</time>
      </trkpt>
      <trkpt lat="39.980948232114315032958984375" lon="-0.69560232572257518768310546875">
        <ele>960.20001220703125</ele>
        <time>2022-08-26T19:24:29.000Z</time>
      </trkpt>
      <trkpt lat="39.98035605065524578094482421875" lon="-0.69558187387883663177490234375">
        <ele>960</ele>
        <time>2022-08-26T19:24:40.000Z</time>
      </trkpt>
      <trkpt lat="39.98030282557010650634765625" lon="-0.6955804489552974700927734375">
        <ele>960.20001220703125</ele>
        <time>2022-08-26T19:24:41.000Z</time>
      </trkpt>
      <trkpt lat="39.9797259829938411712646484375" lon="-0.69555572234094142913818359375">
        <ele>960.20001220703125</ele>
        <time>2022-08-26T19:24:52.000Z</time>
      </trkpt>
      <trkpt lat="39.979621879756450653076171875" lon="-0.69555186666548252105712890625">
        <ele>960.20001220703125</ele>
        <time>2022-08-26T19:24:54.000Z</time>
      </trkpt>
      <trkpt lat="39.97903791256248950958251953125" lon="-0.69553275592625141143798828125">
        <ele>960.20001220703125</ele>
        <time>2022-08-26T19:25:05.000Z</time>
      </trkpt>
      <trkpt lat="39.9784831143915653228759765625" lon="-0.6955036707222461700439453125">
        <ele>960.20001220703125</ele>
        <time>2022-08-26T19:25:15.000Z</time>
      </trkpt>
      <trkpt lat="39.9783718027174472808837890625" lon="-0.6954981386661529541015625">
        <ele>960.20001220703125</ele>
        <time>2022-08-26T19:25:17.000Z</time>
      </trkpt>
      <trkpt lat="39.9778900109231472015380859375" lon="-0.69548632018268108367919921875">
        <ele>960</ele>
        <time>2022-08-26T19:25:26.000Z</time>
      </trkpt>
      <trkpt lat="39.9773485399782657623291015625" lon="-0.69546570070087909698486328125">
        <ele>960</ele>
        <time>2022-08-26T19:25:37.000Z</time>
      </trkpt>
      <trkpt lat="39.977001361548900604248046875" lon="-0.6954538822174072265625">
        <ele>960.20001220703125</ele>
        <time>2022-08-26T19:25:44.000Z</time>
      </trkpt>
      <trkpt lat="39.97669131495058536529541015625" lon="-0.6954423151910305023193359375">
        <ele>960.5999755859375</ele>
        <time>2022-08-26T19:25:50.000Z</time>
      </trkpt>
      <trkpt lat="39.97643449343740940093994140625" lon="-0.6954302452504634857177734375">
        <ele>960.79998779296875</ele>
        <time>2022-08-26T19:25:55.000Z</time>
      </trkpt>
      <trkpt lat="39.97585999779403209686279296875" lon="-0.6954040937125682830810546875">
        <ele>961</ele>
        <time>2022-08-26T19:26:06.000Z</time>
      </trkpt>
      <trkpt lat="39.97580752708017826080322265625" lon="-0.69540266878902912139892578125">
        <ele>961</ele>
        <time>2022-08-26T19:26:07.000Z</time>
      </trkpt>
      <trkpt lat="39.9752265773713588714599609375" lon="-0.69538414478302001953125">
        <ele>961.20001220703125</ele>
        <time>2022-08-26T19:26:18.000Z</time>
      </trkpt>
      <trkpt lat="39.975121803581714630126953125" lon="-0.69537987001240253448486328125">
        <ele>961.4000244140625</ele>
        <time>2022-08-26T19:26:20.000Z</time>
      </trkpt>
      <trkpt lat="39.9746539257466793060302734375" lon="-0.69536210037767887115478515625">
        <ele>961.5999755859375</ele>
        <time>2022-08-26T19:26:29.000Z</time>
      </trkpt>
      <trkpt lat="39.97444580309092998504638671875" lon="-0.6953559815883636474609375">
        <ele>961.5999755859375</ele>
        <time>2022-08-26T19:26:33.000Z</time>
      </trkpt>
      <trkpt lat="39.97398211620748043060302734375" lon="-0.69534013979136943817138671875">
        <ele>962</ele>
        <time>2022-08-26T19:26:42.000Z</time>
      </trkpt>
      <trkpt lat="39.97353167273104190826416015625" lon="-0.6953299976885318756103515625">
        <ele>962</ele>
        <time>2022-08-26T19:26:51.000Z</time>
      </trkpt>
      <trkpt lat="39.97315834276378154754638671875" lon="-0.69532446563243865966796875">
        <ele>961.20001220703125</ele>
        <time>2022-08-26T19:26:59.000Z</time>
      </trkpt>
      <trkpt lat="39.97306982986629009246826171875" lon="-0.69531616754829883575439453125">
        <ele>960.5999755859375</ele>
        <time>2022-08-26T19:27:01.000Z</time>
      </trkpt>
      <trkpt lat="39.97297444380819797515869140625" lon="-0.69525129161775112152099609375">
        <ele>959.79998779296875</ele>
        <time>2022-08-26T19:27:04.000Z</time>
      </trkpt>
      <trkpt lat="39.97295768000185489654541015625" lon="-0.69521047174930572509765625">
        <ele>959.5999755859375</ele>
        <time>2022-08-26T19:27:05.000Z</time>
      </trkpt>
      <trkpt lat="39.9729547463357448577880859375" lon="-0.6951167620718479156494140625">
        <ele>959.4000244140625</ele>
        <time>2022-08-26T19:27:07.000Z</time>
      </trkpt>
      <trkpt lat="39.9729601107537746429443359375" lon="-0.69506839849054813385009765625">
        <ele>959.20001220703125</ele>
        <time>2022-08-26T19:27:08.000Z</time>
      </trkpt>
      <trkpt lat="39.9729842506349086761474609375" lon="-0.69477193057537078857421875">
        <ele>958.79998779296875</ele>
        <time>2022-08-26T19:27:14.000Z</time>
      </trkpt>
      <trkpt lat="39.972957931458950042724609375" lon="-0.6946453638374805450439453125">
        <ele>958.5999755859375</ele>
        <time>2022-08-26T19:27:17.000Z</time>
      </trkpt>
      <trkpt lat="39.972920380532741546630859375" lon="-0.6945655681192874908447265625">
        <ele>958.4000244140625</ele>
        <time>2022-08-26T19:27:19.000Z</time>
      </trkpt>
      <trkpt lat="39.9727720208466053009033203125" lon="-0.69436565972864627838134765625">
        <ele>958.20001220703125</ele>
        <time>2022-08-26T19:27:25.000Z</time>
      </trkpt>
      <trkpt lat="39.97265274636447429656982421875" lon="-0.694127194583415985107421875">
        <ele>958.5999755859375</ele>
        <time>2022-08-26T19:27:31.000Z</time>
      </trkpt>
      <trkpt lat="39.9725333042442798614501953125" lon="-0.69371857680380344390869140625">
        <ele>959.20001220703125</ele>
        <time>2022-08-26T19:27:39.000Z</time>
      </trkpt>
      <trkpt lat="39.9723851121962070465087890625" lon="-0.69347717799246311187744140625">
        <ele>959.4000244140625</ele>
        <time>2022-08-26T19:27:45.000Z</time>
      </trkpt>
      <trkpt lat="39.97224220074713230133056640625" lon="-0.69331121630966663360595703125">
        <ele>959.5999755859375</ele>
        <time>2022-08-26T19:27:50.000Z</time>
      </trkpt>
      <trkpt lat="39.9721601419150829315185546875" lon="-0.69321968592703342437744140625">
        <ele>959.79998779296875</ele>
        <time>2022-08-26T19:27:53.000Z</time>
      </trkpt>
      <trkpt lat="39.97181304730474948883056640625" lon="-0.69291223771870136260986328125">
        <ele>960.5999755859375</ele>
        <time>2022-08-26T19:28:04.000Z</time>
      </trkpt>
      <trkpt lat="39.9717480875551700592041015625" lon="-0.692862533032894134521484375">
        <ele>960.79998779296875</ele>
        <time>2022-08-26T19:28:06.000Z</time>
      </trkpt>
      <trkpt lat="39.97139177285134792327880859375" lon="-0.69259992800652980804443359375">
        <ele>961.4000244140625</ele>
        <time>2022-08-26T19:28:17.000Z</time>
      </trkpt>
      <trkpt lat="39.97135992161929607391357421875" lon="-0.6925807334482669830322265625">
        <ele>961.5999755859375</ele>
        <time>2022-08-26T19:28:18.000Z</time>
      </trkpt>
      <trkpt lat="39.97116110287606716156005859375" lon="-0.692519210278987884521484375">
        <ele>962.4000244140625</ele>
        <time>2022-08-26T19:28:24.000Z</time>
      </trkpt>
      <trkpt lat="39.97112564742565155029296875" lon="-0.69252398796379566192626953125">
        <ele>962.5999755859375</ele>
        <time>2022-08-26T19:28:25.000Z</time>
      </trkpt>
      <trkpt lat="39.97095608152449131011962890625" lon="-0.69259540177881717681884765625">
        <ele>963.20001220703125</ele>
        <time>2022-08-26T19:28:30.000Z</time>
      </trkpt>
      <trkpt lat="39.97066992335021495819091796875" lon="-0.69278843700885772705078125">
        <ele>963.5999755859375</ele>
        <time>2022-08-26T19:28:38.000Z</time>
      </trkpt>
      <trkpt lat="39.97059591114521026611328125" lon="-0.69283864460885524749755859375">
        <ele>963.79998779296875</ele>
        <time>2022-08-26T19:28:40.000Z</time>
      </trkpt>
      <trkpt lat="39.9702678434550762176513671875" lon="-0.69307350553572177886962890625">
        <ele>964.5999755859375</ele>
        <time>2022-08-26T19:28:49.000Z</time>
      </trkpt>
      <trkpt lat="39.97019567526876926422119140625" lon="-0.69312597624957561492919921875">
        <ele>964.79998779296875</ele>
        <time>2022-08-26T19:28:51.000Z</time>
      </trkpt>
      <trkpt lat="39.9698668532073497772216796875" lon="-0.69335295818746089935302734375">
        <ele>965.4000244140625</ele>
        <time>2022-08-26T19:29:00.000Z</time>
      </trkpt>
      <trkpt lat="39.96957155875861644744873046875" lon="-0.69355060346424579620361328125">
        <ele>965.79998779296875</ele>
        <time>2022-08-26T19:29:08.000Z</time>
      </trkpt>
      <trkpt lat="39.96946041472256183624267578125" lon="-0.6936247833073139190673828125">
        <ele>966</ele>
        <time>2022-08-26T19:29:11.000Z</time>
      </trkpt>
      <trkpt lat="39.9693488515913486480712890625" lon="-0.69369502365589141845703125">
        <ele>966.20001220703125</ele>
        <time>2022-08-26T19:29:14.000Z</time>
      </trkpt>
      <trkpt lat="39.96919236145913600921630859375" lon="-0.6937723048031330108642578125">
        <ele>966.4000244140625</ele>
        <time>2022-08-26T19:29:18.000Z</time>
      </trkpt>
      <trkpt lat="39.96885842643678188323974609375" lon="-0.69385721348226070404052734375">
        <ele>966.79998779296875</ele>
        <time>2022-08-26T19:29:26.000Z</time>
      </trkpt>
      <trkpt lat="39.96877326630055904388427734375" lon="-0.6938702054321765899658203125">
        <ele>967</ele>
        <time>2022-08-26T19:29:28.000Z</time>
      </trkpt>
      <trkpt lat="39.96851460076868534088134765625" lon="-0.69389727897942066192626953125">
        <ele>967.20001220703125</ele>
        <time>2022-08-26T19:29:34.000Z</time>
      </trkpt>
      <trkpt lat="39.968151748180389404296875" lon="-0.69393734447658061981201171875">
        <ele>967.4000244140625</ele>
        <time>2022-08-26T19:29:43.000Z</time>
      </trkpt>
      <trkpt lat="39.96798737905919551849365234375" lon="-0.69396886043250560760498046875">
        <ele>967.4000244140625</ele>
        <time>2022-08-26T19:29:47.000Z</time>
      </trkpt>
      <trkpt lat="39.96782057918608188629150390625" lon="-0.69403306581079959869384765625">
        <ele>967.79998779296875</ele>
        <time>2022-08-26T19:29:51.000Z</time>
      </trkpt>
      <trkpt lat="39.967429228127002716064453125" lon="-0.6941974349319934844970703125">
        <ele>967.79998779296875</ele>
        <time>2022-08-26T19:30:00.000Z</time>
      </trkpt>
      <trkpt lat="39.96738128364086151123046875" lon="-0.69420732557773590087890625">
        <ele>967.79998779296875</ele>
        <time>2022-08-26T19:30:01.000Z</time>
      </trkpt>
      <trkpt lat="39.96724675409495830535888671875" lon="-0.69419232197105884552001953125">
        <ele>967.79998779296875</ele>
        <time>2022-08-26T19:30:04.000Z</time>
      </trkpt>
      <trkpt lat="39.96716276742517948150634765625" lon="-0.6941575370728969573974609375">
        <ele>967.79998779296875</ele>
        <time>2022-08-26T19:30:06.000Z</time>
      </trkpt>
      <trkpt lat="39.9669476039707660675048828125" lon="-0.6940800882875919342041015625">
        <ele>967.4000244140625</ele>
        <time>2022-08-26T19:30:11.000Z</time>
      </trkpt>
      <trkpt lat="39.966545440256595611572265625" lon="-0.69403457455337047576904296875">
        <ele>967.4000244140625</ele>
        <time>2022-08-26T19:30:20.000Z</time>
      </trkpt>
      <trkpt lat="39.9661814980208873748779296875" lon="-0.69396886043250560760498046875">
        <ele>967.4000244140625</ele>
        <time>2022-08-26T19:30:28.000Z</time>
      </trkpt>
      <trkpt lat="39.96588368900120258331298828125" lon="-0.69390901364386081695556640625">
        <ele>968</ele>
        <time>2022-08-26T19:30:35.000Z</time>
      </trkpt>
      <trkpt lat="39.96579953469336032867431640625" lon="-0.6939050741493701934814453125">
        <ele>968.20001220703125</ele>
        <time>2022-08-26T19:30:37.000Z</time>
      </trkpt>
      <trkpt lat="39.96554019860923290252685546875" lon="-0.69390557706356048583984375">
        <ele>968.79998779296875</ele>
        <time>2022-08-26T19:30:43.000Z</time>
      </trkpt>
      <trkpt lat="39.96540893800556659698486328125" lon="-0.6939007155597209930419921875">
        <ele>969</ele>
        <time>2022-08-26T19:30:46.000Z</time>
      </trkpt>
      <trkpt lat="39.96527935378253459930419921875" lon="-0.693917311728000640869140625">
        <ele>969.4000244140625</ele>
        <time>2022-08-26T19:30:49.000Z</time>
      </trkpt>
      <trkpt lat="39.96514893136918544769287109375" lon="-0.69397397339344024658203125">
        <ele>969.20001220703125</ele>
        <time>2022-08-26T19:30:52.000Z</time>
      </trkpt>
      <trkpt lat="39.96484123170375823974609375" lon="-0.69418326951563358306884765625">
        <ele>969.4000244140625</ele>
        <time>2022-08-26T19:30:59.000Z</time>
      </trkpt>
      <trkpt lat="39.96479622088372707366943359375" lon="-0.69420673884451389312744140625">
        <ele>969.4000244140625</ele>
        <time>2022-08-26T19:31:00.000Z</time>
      </trkpt>
      <trkpt lat="39.9646623618900775909423828125" lon="-0.69422769360244274139404296875">
        <ele>969.5999755859375</ele>
        <time>2022-08-26T19:31:03.000Z</time>
      </trkpt>
      <trkpt lat="39.9645041115581989288330078125" lon="-0.69414085708558559417724609375">
        <ele>969.5999755859375</ele>
        <time>2022-08-26T19:31:07.000Z</time>
      </trkpt>
      <trkpt lat="39.96444803662598133087158203125" lon="-0.69405033253133296966552734375">
        <ele>969.79998779296875</ele>
        <time>2022-08-26T19:31:09.000Z</time>
      </trkpt>
      <trkpt lat="39.96442238800227642059326171875" lon="-0.6940016336739063262939453125">
        <ele>970</ele>
        <time>2022-08-26T19:31:10.000Z</time>
      </trkpt>
      <trkpt lat="39.96436689980328083038330078125" lon="-0.69390532560646533966064453125">
        <ele>970.20001220703125</ele>
        <time>2022-08-26T19:31:12.000Z</time>
      </trkpt>
      <trkpt lat="39.9643358029425144195556640625" lon="-0.69386039860546588897705078125">
        <ele>970.20001220703125</ele>
        <time>2022-08-26T19:31:13.000Z</time>
      </trkpt>
      <trkpt lat="39.9641822464764118194580078125" lon="-0.693750344216823577880859375">
        <ele>970.5999755859375</ele>
        <time>2022-08-26T19:31:17.000Z</time>
      </trkpt>
      <trkpt lat="39.964036233723163604736328125" lon="-0.6938034854829311370849609375">
        <ele>970.5999755859375</ele>
        <time>2022-08-26T19:31:21.000Z</time>
      </trkpt>
      <trkpt lat="39.96397814713418483734130859375" lon="-0.69387598894536495208740234375">
        <ele>971</ele>
        <time>2022-08-26T19:31:23.000Z</time>
      </trkpt>
      <trkpt lat="39.96395149268209934234619140625" lon="-0.69391773082315921783447265625">
        <ele>971.20001220703125</ele>
        <time>2022-08-26T19:31:24.000Z</time>
      </trkpt>
      <trkpt lat="39.96387739665806293487548828125" lon="-0.69405217655003070831298828125">
        <ele>971.4000244140625</ele>
        <time>2022-08-26T19:31:27.000Z</time>
      </trkpt>
      <trkpt lat="39.96385007165372371673583984375" lon="-0.694096349179744720458984375">
        <ele>971.5999755859375</ele>
        <time>2022-08-26T19:31:28.000Z</time>
      </trkpt>
      <trkpt lat="39.9637443758547306060791015625" lon="-0.69421160034835338592529296875">
        <ele>972.4000244140625</ele>
        <time>2022-08-26T19:31:31.000Z</time>
      </trkpt>
      <trkpt lat="39.9637051485478878021240234375" lon="-0.69424328394234180450439453125">
        <ele>972.4000244140625</ele>
        <time>2022-08-26T19:31:32.000Z</time>
      </trkpt>
      <trkpt lat="39.96352569200098514556884765625" lon="-0.6943335570394992828369140625">
        <ele>972.5999755859375</ele>
        <time>2022-08-26T19:31:36.000Z</time>
      </trkpt>
      <trkpt lat="39.96347464621067047119140625" lon="-0.69434453733265399932861328125">
        <ele>972.5999755859375</ele>
        <time>2022-08-26T19:31:37.000Z</time>
      </trkpt>
      <trkpt lat="39.9633212573826313018798828125" lon="-0.694343782961368560791015625">
        <ele>972.5999755859375</ele>
        <time>2022-08-26T19:31:40.000Z</time>
      </trkpt>
      <trkpt lat="39.96326945722103118896484375" lon="-0.69434487260878086090087890625">
        <ele>972.5999755859375</ele>
        <time>2022-08-26T19:31:41.000Z</time>
      </trkpt>
      <trkpt lat="39.963220171630382537841796875" lon="-0.69436331279575824737548828125">
        <ele>972.4000244140625</ele>
        <time>2022-08-26T19:31:42.000Z</time>
      </trkpt>
      <trkpt lat="39.9630515277385711669921875" lon="-0.694534890353679656982421875">
        <ele>972</ele>
        <time>2022-08-26T19:31:46.000Z</time>
      </trkpt>
      <trkpt lat="39.96275573037564754486083984375" lon="-0.69472038187086582183837890625">
        <ele>971.5999755859375</ele>
        <time>2022-08-26T19:31:52.000Z</time>
      </trkpt>
      <trkpt lat="39.9625970609486103057861328125" lon="-0.6947900354862213134765625">
        <ele>971.20001220703125</ele>
        <time>2022-08-26T19:31:55.000Z</time>
      </trkpt>
      <trkpt lat="39.96225365437567234039306640625" lon="-0.69492389447987079620361328125">
        <ele>970.79998779296875</ele>
        <time>2022-08-26T19:32:01.000Z</time>
      </trkpt>
      <trkpt lat="39.961932711303234100341796875" lon="-0.6951187737286090850830078125">
        <ele>970.20001220703125</ele>
        <time>2022-08-26T19:32:07.000Z</time>
      </trkpt>
      <trkpt lat="39.96188619174063205718994140625" lon="-0.695158503949642181396484375">
        <ele>970</ele>
        <time>2022-08-26T19:32:08.000Z</time>
      </trkpt>
      <trkpt lat="39.96175375767052173614501953125" lon="-0.69527559913694858551025390625">
        <ele>969.5999755859375</ele>
        <time>2022-08-26T19:32:11.000Z</time>
      </trkpt>
      <trkpt lat="39.961651079356670379638671875" lon="-0.69533075205981731414794921875">
        <ele>969.20001220703125</ele>
        <time>2022-08-26T19:32:13.000Z</time>
      </trkpt>
      <trkpt lat="39.96159768663346767425537109375" lon="-0.69535371847450733184814453125">
        <ele>969</ele>
        <time>2022-08-26T19:32:14.000Z</time>
      </trkpt>
      <trkpt lat="39.9611748196184635162353515625" lon="-0.69553233683109283447265625">
        <ele>968</ele>
        <time>2022-08-26T19:32:22.000Z</time>
      </trkpt>
      <trkpt lat="39.96078380383551120758056640625" lon="-0.69569938816130161285400390625">
        <ele>967.4000244140625</ele>
        <time>2022-08-26T19:32:30.000Z</time>
      </trkpt>
      <trkpt lat="39.9603453464806079864501953125" lon="-0.695893764495849609375">
        <ele>967.5999755859375</ele>
        <time>2022-08-26T19:32:39.000Z</time>
      </trkpt>
      <trkpt lat="39.95995701290667057037353515625" lon="-0.6960639171302318572998046875">
        <ele>967.79998779296875</ele>
        <time>2022-08-26T19:32:47.000Z</time>
      </trkpt>
      <trkpt lat="39.95955853722989559173583984375" lon="-0.6962342374026775360107421875">
        <ele>967.5999755859375</ele>
        <time>2022-08-26T19:32:55.000Z</time>
      </trkpt>
      <trkpt lat="39.95908412151038646697998046875" lon="-0.69641905836760997772216796875">
        <ele>967</ele>
        <time>2022-08-26T19:33:04.000Z</time>
      </trkpt>
      <trkpt lat="39.95891631580889225006103515625" lon="-0.69646784104406833648681640625">
        <ele>966.79998779296875</ele>
        <time>2022-08-26T19:33:07.000Z</time>
      </trkpt>
      <trkpt lat="39.9585157446563243865966796875" lon="-0.69653975777328014373779296875">
        <ele>966.20001220703125</ele>
        <time>2022-08-26T19:33:14.000Z</time>
      </trkpt>
      <trkpt lat="39.95821642689406871795654296875" lon="-0.6965581141412258148193359375">
        <ele>965.79998779296875</ele>
        <time>2022-08-26T19:33:19.000Z</time>
      </trkpt>
      <trkpt lat="39.9580289237201213836669921875" lon="-0.696549899876117706298828125">
        <ele>965.20001220703125</ele>
        <time>2022-08-26T19:33:22.000Z</time>
      </trkpt>
      <trkpt lat="39.95778609998524188995361328125" lon="-0.69652148522436618804931640625">
        <ele>964.5999755859375</ele>
        <time>2022-08-26T19:33:26.000Z</time>
      </trkpt>
      <trkpt lat="39.957557022571563720703125" lon="-0.69647370837628841400146484375">
        <ele>964</ele>
        <time>2022-08-26T19:33:30.000Z</time>
      </trkpt>
      <trkpt lat="39.95744009502232074737548828125" lon="-0.69644554518163204193115234375">
        <ele>963.5999755859375</ele>
        <time>2022-08-26T19:33:32.000Z</time>
      </trkpt>
      <trkpt lat="39.957146309316158294677734375" lon="-0.69637698121368885040283203125">
        <ele>963</ele>
        <time>2022-08-26T19:33:37.000Z</time>
      </trkpt>
      <trkpt lat="39.956961236894130706787109375" lon="-0.6963398493826389312744140625">
        <ele>962.4000244140625</ele>
        <time>2022-08-26T19:33:40.000Z</time>
      </trkpt>
      <trkpt lat="39.956658147275447845458984375" lon="-0.6962808407843112945556640625">
        <ele>961.79998779296875</ele>
        <time>2022-08-26T19:33:45.000Z</time>
      </trkpt>
      <trkpt lat="39.95647181756794452667236328125" lon="-0.69624270312488079071044921875">
        <ele>961.4000244140625</ele>
        <time>2022-08-26T19:33:48.000Z</time>
      </trkpt>
      <trkpt lat="39.95610619895160198211669921875" lon="-0.6961644999682903289794921875">
        <ele>960.20001220703125</ele>
        <time>2022-08-26T19:33:54.000Z</time>
      </trkpt>
      <trkpt lat="39.9556082300841808319091796875" lon="-0.6960629113018512725830078125">
        <ele>959</ele>
        <time>2022-08-26T19:34:02.000Z</time>
      </trkpt>
      <trkpt lat="39.95547940023243427276611328125" lon="-0.69603525102138519287109375">
        <ele>958.79998779296875</ele>
        <time>2022-08-26T19:34:04.000Z</time>
      </trkpt>
      <trkpt lat="39.95515954680740833282470703125" lon="-0.6959621608257293701171875">
        <ele>957.79998779296875</ele>
        <time>2022-08-26T19:34:09.000Z</time>
      </trkpt>
      <trkpt lat="39.9548374302685260772705078125" lon="-0.695892758667469024658203125">
        <ele>957.20001220703125</ele>
        <time>2022-08-26T19:34:14.000Z</time>
      </trkpt>
      <trkpt lat="39.95471295900642871856689453125" lon="-0.6958627514541149139404296875">
        <ele>956.79998779296875</ele>
        <time>2022-08-26T19:34:16.000Z</time>
      </trkpt>
      <trkpt lat="39.9543234519660472869873046875" lon="-0.69577817805111408233642578125">
        <ele>955.5999755859375</ele>
        <time>2022-08-26T19:34:22.000Z</time>
      </trkpt>
      <trkpt lat="39.953748621046543121337890625" lon="-0.69561841897666454315185546875">
        <ele>955</ele>
        <time>2022-08-26T19:34:31.000Z</time>
      </trkpt>
      <trkpt lat="39.9536342918872833251953125" lon="-0.695566199719905853271484375">
        <ele>954.4000244140625</ele>
        <time>2022-08-26T19:34:33.000Z</time>
      </trkpt>
      <trkpt lat="39.9534121714532375335693359375" lon="-0.69543921388685703277587890625">
        <ele>953.79998779296875</ele>
        <time>2022-08-26T19:34:37.000Z</time>
      </trkpt>
      <trkpt lat="39.953188709914684295654296875" lon="-0.69527258165180683135986328125">
        <ele>953.4000244140625</ele>
        <time>2022-08-26T19:34:41.000Z</time>
      </trkpt>
      <trkpt lat="39.953026436269283294677734375" lon="-0.69512422196567058563232421875">
        <ele>952.5999755859375</ele>
        <time>2022-08-26T19:34:44.000Z</time>
      </trkpt>
      <trkpt lat="39.95292258448898792266845703125" lon="-0.6950212083756923675537109375">
        <ele>952.20001220703125</ele>
        <time>2022-08-26T19:34:46.000Z</time>
      </trkpt>
      <trkpt lat="39.9525756575167179107666015625" lon="-0.6946269236505031585693359375">
        <ele>951</ele>
        <time>2022-08-26T19:34:53.000Z</time>
      </trkpt>
      <trkpt lat="39.95216703973710536956787109375" lon="-0.69416700862348079681396484375">
        <ele>950</ele>
        <time>2022-08-26T19:35:01.000Z</time>
      </trkpt>
      <trkpt lat="39.9520670436322689056396484375" lon="-0.69405469112098217010498046875">
        <ele>949.79998779296875</ele>
        <time>2022-08-26T19:35:03.000Z</time>
      </trkpt>
      <trkpt lat="39.95182455517351627349853515625" lon="-0.69376652128994464874267578125">
        <ele>949</ele>
        <time>2022-08-26T19:35:08.000Z</time>
      </trkpt>
      <trkpt lat="39.951622970402240753173828125" lon="-0.69353333674371242523193359375">
        <ele>947.79998779296875</ele>
        <time>2022-08-26T19:35:12.000Z</time>
      </trkpt>
      <trkpt lat="39.95157376863062381744384765625" lon="-0.69347667507827281951904296875">
        <ele>947.5999755859375</ele>
        <time>2022-08-26T19:35:13.000Z</time>
      </trkpt>
      <trkpt lat="39.95115249417722225189208984375" lon="-0.693026818335056304931640625">
        <ele>946.79998779296875</ele>
        <time>2022-08-26T19:35:21.000Z</time>
      </trkpt>
      <trkpt lat="39.9510955810546875" lon="-0.69297191686928272247314453125">
        <ele>946.5999755859375</ele>
        <time>2022-08-26T19:35:22.000Z</time>
      </trkpt>
      <trkpt lat="39.95074965991079807281494140625" lon="-0.6926538236439228057861328125">
        <ele>945.4000244140625</ele>
        <time>2022-08-26T19:35:28.000Z</time>
      </trkpt>
      <trkpt lat="39.95063348673284053802490234375" lon="-0.6925549171864986419677734375">
        <ele>945</ele>
        <time>2022-08-26T19:35:30.000Z</time>
      </trkpt>
      <trkpt lat="39.9503324925899505615234375" lon="-0.6923215650022029876708984375">
        <ele>944.4000244140625</ele>
        <time>2022-08-26T19:35:35.000Z</time>
      </trkpt>
      <trkpt lat="39.9501435644924640655517578125" lon="-0.69220128469169139862060546875">
        <ele>943.79998779296875</ele>
        <time>2022-08-26T19:35:38.000Z</time>
      </trkpt>
      <trkpt lat="39.949955306947231292724609375" lon="-0.69207555614411830902099609375">
        <ele>943.4000244140625</ele>
        <time>2022-08-26T19:35:41.000Z</time>
      </trkpt>
      <trkpt lat="39.94975288398563861846923828125" lon="-0.69195301271975040435791015625">
        <ele>942.79998779296875</ele>
        <time>2022-08-26T19:35:44.000Z</time>
      </trkpt>
      <trkpt lat="39.94954333640635013580322265625" lon="-0.691843293607234954833984375">
        <ele>942.20001220703125</ele>
        <time>2022-08-26T19:35:47.000Z</time>
      </trkpt>
      <trkpt lat="39.94905500672757625579833984375" lon="-0.69161153398454189300537109375">
        <ele>941.5999755859375</ele>
        <time>2022-08-26T19:35:54.000Z</time>
      </trkpt>
      <trkpt lat="39.94885434396564960479736328125" lon="-0.691516064107418060302734375">
        <ele>941.20001220703125</ele>
        <time>2022-08-26T19:35:57.000Z</time>
      </trkpt>
      <trkpt lat="39.94852610863745212554931640625" lon="-0.69136158563196659088134765625">
        <ele>940</ele>
        <time>2022-08-26T19:36:02.000Z</time>
      </trkpt>
      <trkpt lat="39.9484614841639995574951171875" lon="-0.6913308240473270416259765625">
        <ele>939.79998779296875</ele>
        <time>2022-08-26T19:36:03.000Z</time>
      </trkpt>
      <trkpt lat="39.9481332488358020782470703125" lon="-0.69118338637053966522216796875">
        <ele>938.79998779296875</ele>
        <time>2022-08-26T19:36:08.000Z</time>
      </trkpt>
      <trkpt lat="39.947935603559017181396484375" lon="-0.69108867086470127105712890625">
        <ele>938.4000244140625</ele>
        <time>2022-08-26T19:36:11.000Z</time>
      </trkpt>
      <trkpt lat="39.9477386288344860076904296875" lon="-0.6909962184727191925048828125">
        <ele>937.79998779296875</ele>
        <time>2022-08-26T19:36:14.000Z</time>
      </trkpt>
      <trkpt lat="39.9475475214421749114990234375" lon="-0.69090661592781543731689453125">
        <ele>937.5999755859375</ele>
        <time>2022-08-26T19:36:17.000Z</time>
      </trkpt>
      <trkpt lat="39.94728759862482547760009765625" lon="-0.6907628662884235382080078125">
        <ele>936.79998779296875</ele>
        <time>2022-08-26T19:36:21.000Z</time>
      </trkpt>
      <trkpt lat="39.94709976017475128173828125" lon="-0.69062934257090091705322265625">
        <ele>936.4000244140625</ele>
        <time>2022-08-26T19:36:24.000Z</time>
      </trkpt>
      <trkpt lat="39.94687420316040515899658203125" lon="-0.69040051661431789398193359375">
        <ele>935.5999755859375</ele>
        <time>2022-08-26T19:36:28.000Z</time>
      </trkpt>
      <trkpt lat="39.94676188565790653228759765625" lon="-0.69026858545839786529541015625">
        <ele>935.20001220703125</ele>
        <time>2022-08-26T19:36:30.000Z</time>
      </trkpt>
      <trkpt lat="39.9466121010482311248779296875" lon="-0.69006222300231456756591796875">
        <ele>934.5999755859375</ele>
        <time>2022-08-26T19:36:33.000Z</time>
      </trkpt>
      <trkpt lat="39.94652937166392803192138671875" lon="-0.6899089179933071136474609375">
        <ele>934.20001220703125</ele>
        <time>2022-08-26T19:36:35.000Z</time>
      </trkpt>
      <trkpt lat="39.9463395215570926666259765625" lon="-0.68949191831052303314208984375">
        <ele>933.4000244140625</ele>
        <time>2022-08-26T19:36:40.000Z</time>
      </trkpt>
      <trkpt lat="39.946279339492321014404296875" lon="-0.68931707181036472320556640625">
        <ele>933.20001220703125</ele>
        <time>2022-08-26T19:36:42.000Z</time>
      </trkpt>
      <trkpt lat="39.946152269840240478515625" lon="-0.688855312764644622802734375">
        <ele>932.20001220703125</ele>
        <time>2022-08-26T19:36:47.000Z</time>
      </trkpt>
      <trkpt lat="39.94611647911369800567626953125" lon="-0.68867702968418598175048828125">
        <ele>932</ele>
        <time>2022-08-26T19:36:49.000Z</time>
      </trkpt>
      <trkpt lat="39.94608228094875812530517578125" lon="-0.68822507746517658233642578125">
        <ele>931.20001220703125</ele>
        <time>2022-08-26T19:36:54.000Z</time>
      </trkpt>
      <trkpt lat="39.94608764536678791046142578125" lon="-0.688130445778369903564453125">
        <ele>930.79998779296875</ele>
        <time>2022-08-26T19:36:55.000Z</time>
      </trkpt>
      <trkpt lat="39.946138858795166015625" lon="-0.68763591349124908447265625">
        <ele>929.79998779296875</ele>
        <time>2022-08-26T19:37:00.000Z</time>
      </trkpt>
      <trkpt lat="39.946170710027217864990234375" lon="-0.68743717856705188751220703125">
        <ele>929.5999755859375</ele>
        <time>2022-08-26T19:37:02.000Z</time>
      </trkpt>
      <trkpt lat="39.94626919738948345184326171875" lon="-0.687055550515651702880859375">
        <ele>928.79998779296875</ele>
        <time>2022-08-26T19:37:06.000Z</time>
      </trkpt>
      <trkpt lat="39.94632996618747711181640625" lon="-0.68687089718878269195556640625">
        <ele>928.5999755859375</ele>
        <time>2022-08-26T19:37:08.000Z</time>
      </trkpt>
      <trkpt lat="39.94650363922119140625" lon="-0.68642648868262767791748046875">
        <ele>927.79998779296875</ele>
        <time>2022-08-26T19:37:13.000Z</time>
      </trkpt>
      <trkpt lat="39.94665141217410564422607421875" lon="-0.68607495166361331939697265625">
        <ele>927.20001220703125</ele>
        <time>2022-08-26T19:37:17.000Z</time>
      </trkpt>
      <trkpt lat="39.9467597901821136474609375" lon="-0.6858141906559467315673828125">
        <ele>926.5999755859375</ele>
        <time>2022-08-26T19:37:20.000Z</time>
      </trkpt>
      <trkpt lat="39.94694008491933345794677734375" lon="-0.685381852090358734130859375">
        <ele>925.79998779296875</ele>
        <time>2022-08-26T19:37:25.000Z</time>
      </trkpt>
      <trkpt lat="39.9470831640064716339111328125" lon="-0.6850321590900421142578125">
        <ele>924.5999755859375</ele>
        <time>2022-08-26T19:37:29.000Z</time>
      </trkpt>
      <trkpt lat="39.94735666550695896148681640625" lon="-0.6844455935060977935791015625">
        <ele>923.4000244140625</ele>
        <time>2022-08-26T19:37:36.000Z</time>
      </trkpt>
      <trkpt lat="39.94744333438575267791748046875" lon="-0.68428776226937770843505859375">
        <ele>923</ele>
        <time>2022-08-26T19:37:38.000Z</time>
      </trkpt>
      <trkpt lat="39.9476316757500171661376953125" lon="-0.68398383446037769317626953125">
        <ele>922.4000244140625</ele>
        <time>2022-08-26T19:37:42.000Z</time>
      </trkpt>
      <trkpt lat="39.94785882532596588134765625" lon="-0.68361519835889339447021484375">
        <ele>921.79998779296875</ele>
        <time>2022-08-26T19:37:47.000Z</time>
      </trkpt>
      <trkpt lat="39.9480832926928997039794921875" lon="-0.68326056003570556640625">
        <ele>921.20001220703125</ele>
        <time>2022-08-26T19:37:52.000Z</time>
      </trkpt>
      <trkpt lat="39.94831555522978305816650390625" lon="-0.6829143874347209930419921875">
        <ele>921</ele>
        <time>2022-08-26T19:37:57.000Z</time>
      </trkpt>
      <trkpt lat="39.94860473088920116424560546875" lon="-0.68255044519901275634765625">
        <ele>920.5999755859375</ele>
        <time>2022-08-26T19:38:03.000Z</time>
      </trkpt>
      <trkpt lat="39.94875736534595489501953125" lon="-0.68233712576329708099365234375">
        <ele>920.20001220703125</ele>
        <time>2022-08-26T19:38:06.000Z</time>
      </trkpt>
      <trkpt lat="39.94885752908885478973388671875" lon="-0.68217359483242034912109375">
        <ele>920</ele>
        <time>2022-08-26T19:38:08.000Z</time>
      </trkpt>
      <trkpt lat="39.94909222237765789031982421875" lon="-0.6816839240491390228271484375">
        <ele>919</ele>
        <time>2022-08-26T19:38:14.000Z</time>
      </trkpt>
      <trkpt lat="39.94921828620135784149169921875" lon="-0.681428946554660797119140625">
        <ele>918.20001220703125</ele>
        <time>2022-08-26T19:38:18.000Z</time>
      </trkpt>
      <trkpt lat="39.94929120875895023345947265625" lon="-0.6813265196979045867919921875">
        <ele>918</ele>
        <time>2022-08-26T19:38:20.000Z</time>
      </trkpt>
      <trkpt lat="39.9495792947709560394287109375" lon="-0.6808977015316486358642578125">
        <ele>918</ele>
        <time>2022-08-26T19:38:28.000Z</time>
      </trkpt>
      <trkpt lat="39.9498545564711093902587890625" lon="-0.68045069463551044464111328125">
        <ele>918</ele>
        <time>2022-08-26T19:38:36.000Z</time>
      </trkpt>
      <trkpt lat="39.95009042322635650634765625" lon="-0.68006965331733226776123046875">
        <ele>917.4000244140625</ele>
        <time>2022-08-26T19:38:43.000Z</time>
      </trkpt>
      <trkpt lat="39.95028446428477764129638671875" lon="-0.67976019345223903656005859375">
        <ele>917</ele>
        <time>2022-08-26T19:38:48.000Z</time>
      </trkpt>
      <trkpt lat="39.9503259547054767608642578125" lon="-0.67969179712235927581787109375">
        <ele>916.79998779296875</ele>
        <time>2022-08-26T19:38:49.000Z</time>
      </trkpt>
      <trkpt lat="39.95061739347875118255615234375" lon="-0.67912920378148555755615234375">
        <ele>916.20001220703125</ele>
        <time>2022-08-26T19:38:57.000Z</time>
      </trkpt>
      <trkpt lat="39.9506719596683979034423828125" lon="-0.67898520268499851226806640625">
        <ele>916</ele>
        <time>2022-08-26T19:38:59.000Z</time>
      </trkpt>
      <trkpt lat="39.95080045424401760101318359375" lon="-0.6786241941154003143310546875">
        <ele>915.20001220703125</ele>
        <time>2022-08-26T19:39:04.000Z</time>
      </trkpt>
      <trkpt lat="39.9508452974259853363037109375" lon="-0.67847759462893009185791015625">
        <ele>915</ele>
        <time>2022-08-26T19:39:06.000Z</time>
      </trkpt>
      <trkpt lat="39.95092727243900299072265625" lon="-0.678176768124103546142578125">
        <ele>914.5999755859375</ele>
        <time>2022-08-26T19:39:10.000Z</time>
      </trkpt>
      <trkpt lat="39.9509720318019390106201171875" lon="-0.677911229431629180908203125">
        <ele>913.79998779296875</ele>
        <time>2022-08-26T19:39:13.000Z</time>
      </trkpt>
      <trkpt lat="39.9510136060416698455810546875" lon="-0.677644349634647369384765625">
        <ele>913.4000244140625</ele>
        <time>2022-08-26T19:39:16.000Z</time>
      </trkpt>
      <trkpt lat="39.95104855857789516448974609375" lon="-0.67727713845670223236083984375">
        <ele>912.4000244140625</ele>
        <time>2022-08-26T19:39:20.000Z</time>
      </trkpt>
      <trkpt lat="39.9510602094233036041259765625" lon="-0.6770021282136440277099609375">
        <ele>911.79998779296875</ele>
        <time>2022-08-26T19:39:23.000Z</time>
      </trkpt>
      <trkpt lat="39.9510555155575275421142578125" lon="-0.67682267166674137115478515625">
        <ele>911.4000244140625</ele>
        <time>2022-08-26T19:39:25.000Z</time>
      </trkpt>
      <trkpt lat="39.95103992521762847900390625" lon="-0.67645705305039882659912109375">
        <ele>910.79998779296875</ele>
        <time>2022-08-26T19:39:29.000Z</time>
      </trkpt>
      <trkpt lat="39.95098896324634552001953125" lon="-0.67608766257762908935546875">
        <ele>910.20001220703125</ele>
        <time>2022-08-26T19:39:33.000Z</time>
      </trkpt>
      <trkpt lat="39.950919561088085174560546875" lon="-0.67571408115327358245849609375">
        <ele>909.5999755859375</ele>
        <time>2022-08-26T19:39:37.000Z</time>
      </trkpt>
      <trkpt lat="39.95082861743867397308349609375" lon="-0.67535416223108768463134765625">
        <ele>909</ele>
        <time>2022-08-26T19:39:41.000Z</time>
      </trkpt>
      <trkpt lat="39.9508000351488590240478515625" lon="-0.67526799626648426055908203125">
        <ele>909</ele>
        <time>2022-08-26T19:39:42.000Z</time>
      </trkpt>
      <trkpt lat="39.9507370032370090484619140625" lon="-0.67509633488953113555908203125">
        <ele>908.5999755859375</ele>
        <time>2022-08-26T19:39:44.000Z</time>
      </trkpt>
      <trkpt lat="39.950639270246028900146484375" lon="-0.6748504936695098876953125">
        <ele>908</ele>
        <time>2022-08-26T19:39:47.000Z</time>
      </trkpt>
      <trkpt lat="39.9504986219108104705810546875" lon="-0.67453776486217975616455078125">
        <ele>907.4000244140625</ele>
        <time>2022-08-26T19:39:51.000Z</time>
      </trkpt>
      <trkpt lat="39.95037071406841278076171875" lon="-0.67429854534566402435302734375">
        <ele>906.79998779296875</ele>
        <time>2022-08-26T19:39:54.000Z</time>
      </trkpt>
      <trkpt lat="39.95022746734321117401123046875" lon="-0.6740698032081127166748046875">
        <ele>906.20001220703125</ele>
        <time>2022-08-26T19:39:57.000Z</time>
      </trkpt>
      <trkpt lat="39.94996913708746433258056640625" lon="-0.67373058758676052093505859375">
        <ele>905.79998779296875</ele>
        <time>2022-08-26T19:40:02.000Z</time>
      </trkpt>
      <trkpt lat="39.94986821897327899932861328125" lon="-0.67360687069594860076904296875">
        <ele>905.20001220703125</ele>
        <time>2022-08-26T19:40:04.000Z</time>
      </trkpt>
      <trkpt lat="39.9498163349926471710205078125" lon="-0.6735484488308429718017578125">
        <ele>905</ele>
        <time>2022-08-26T19:40:05.000Z</time>
      </trkpt>
      <trkpt lat="39.94970611296594142913818359375" lon="-0.67343520931899547576904296875">
        <ele>904.79998779296875</ele>
        <time>2022-08-26T19:40:07.000Z</time>
      </trkpt>
      <trkpt lat="39.94959077797830104827880859375" lon="-0.67331601865589618682861328125">
        <ele>904.4000244140625</ele>
        <time>2022-08-26T19:40:09.000Z</time>
      </trkpt>
      <trkpt lat="39.94918660260736942291259765625" lon="-0.67300421185791492462158203125">
        <ele>903.20001220703125</ele>
        <time>2022-08-26T19:40:15.000Z</time>
      </trkpt>
      <trkpt lat="39.94911502115428447723388671875" lon="-0.67295752465724945068359375">
        <ele>903.20001220703125</ele>
        <time>2022-08-26T19:40:16.000Z</time>
      </trkpt>
      <trkpt lat="39.94873884133994579315185546875" lon="-0.67275107838213443756103515625">
        <ele>902.20001220703125</ele>
        <time>2022-08-26T19:40:21.000Z</time>
      </trkpt>
      <trkpt lat="39.948584027588367462158203125" lon="-0.67268787883222103118896484375">
        <ele>901.79998779296875</ele>
        <time>2022-08-26T19:40:23.000Z</time>
      </trkpt>
      <trkpt lat="39.94834874756634235382080078125" lon="-0.6726120226085186004638671875">
        <ele>901</ele>
        <time>2022-08-26T19:40:26.000Z</time>
      </trkpt>
      <trkpt lat="39.948042221367359161376953125" lon="-0.672543458640575408935546875">
        <ele>900.20001220703125</ele>
        <time>2022-08-26T19:40:30.000Z</time>
      </trkpt>
      <trkpt lat="39.9478921853005886077880859375" lon="-0.6725238449871540069580078125">
        <ele>900</ele>
        <time>2022-08-26T19:40:32.000Z</time>
      </trkpt>
      <trkpt lat="39.94752354919910430908203125" lon="-0.67250397987663745880126953125">
        <ele>898.79998779296875</ele>
        <time>2022-08-26T19:40:37.000Z</time>
      </trkpt>
      <trkpt lat="39.94745154865086078643798828125" lon="-0.67250800319015979766845703125">
        <ele>898.5999755859375</ele>
        <time>2022-08-26T19:40:38.000Z</time>
      </trkpt>
      <trkpt lat="39.947159104049205780029296875" lon="-0.67252979613840579986572265625">
        <ele>897.5999755859375</ele>
        <time>2022-08-26T19:40:42.000Z</time>
      </trkpt>
      <trkpt lat="39.94678954593837261199951171875" lon="-0.67255091853439807891845703125">
        <ele>896.5999755859375</ele>
        <time>2022-08-26T19:40:47.000Z</time>
      </trkpt>
      <trkpt lat="39.946442283689975738525390625" lon="-0.672570951282978057861328125">
        <ele>895.5999755859375</ele>
        <time>2022-08-26T19:40:52.000Z</time>
      </trkpt>
      <trkpt lat="39.94623617269098758697509765625" lon="-0.67258092574775218963623046875">
        <ele>895</ele>
        <time>2022-08-26T19:40:55.000Z</time>
      </trkpt>
      <trkpt lat="39.94594666175544261932373046875" lon="-0.67260540090501308441162109375">
        <ele>894.5999755859375</ele>
        <time>2022-08-26T19:40:59.000Z</time>
      </trkpt>
      <trkpt lat="39.945646338164806365966796875" lon="-0.6726261042058467864990234375">
        <ele>893.79998779296875</ele>
        <time>2022-08-26T19:41:03.000Z</time>
      </trkpt>
      <trkpt lat="39.94549370370805263519287109375" lon="-0.67263188771903514862060546875">
        <ele>893.4000244140625</ele>
        <time>2022-08-26T19:41:05.000Z</time>
      </trkpt>
      <trkpt lat="39.945028759539127349853515625" lon="-0.6726002879440784454345703125">
        <ele>892.79998779296875</ele>
        <time>2022-08-26T19:41:11.000Z</time>
      </trkpt>
      <trkpt lat="39.944720976054668426513671875" lon="-0.67252837121486663818359375">
        <ele>892.4000244140625</ele>
        <time>2022-08-26T19:41:15.000Z</time>
      </trkpt>
      <trkpt lat="39.944500029087066650390625" lon="-0.6724420376121997833251953125">
        <ele>891.79998779296875</ele>
        <time>2022-08-26T19:41:18.000Z</time>
      </trkpt>
      <trkpt lat="39.944278411567211151123046875" lon="-0.6723290495574474334716796875">
        <ele>891.4000244140625</ele>
        <time>2022-08-26T19:41:21.000Z</time>
      </trkpt>
      <trkpt lat="39.94405067525804042816162109375" lon="-0.67219250835478305816650390625">
        <ele>890.79998779296875</ele>
        <time>2022-08-26T19:41:24.000Z</time>
      </trkpt>
      <trkpt lat="39.94390952400863170623779296875" lon="-0.67208136431872844696044921875">
        <ele>890.20001220703125</ele>
        <time>2022-08-26T19:41:26.000Z</time>
      </trkpt>
      <trkpt lat="39.94371104054152965545654296875" lon="-0.67190702073276042938232421875">
        <ele>889.20001220703125</ele>
        <time>2022-08-26T19:41:29.000Z</time>
      </trkpt>
      <trkpt lat="39.94364800862967967987060546875" lon="-0.6718469224870204925537109375">
        <ele>889</ele>
        <time>2022-08-26T19:41:30.000Z</time>
      </trkpt>
      <trkpt lat="39.9434658698737621307373046875" lon="-0.67165472544729709625244140625">
        <ele>888.20001220703125</ele>
        <time>2022-08-26T19:41:33.000Z</time>
      </trkpt>
      <trkpt lat="39.9432358704507350921630859375" lon="-0.671370327472686767578125">
        <ele>887.5999755859375</ele>
        <time>2022-08-26T19:41:37.000Z</time>
      </trkpt>
      <trkpt lat="39.94292892515659332275390625" lon="-0.670869089663028717041015625">
        <ele>887</ele>
        <time>2022-08-26T19:41:43.000Z</time>
      </trkpt>
      <trkpt lat="39.94269381277263164520263671875" lon="-0.67030121572315692901611328125">
        <ele>886</ele>
        <time>2022-08-26T19:41:49.000Z</time>
      </trkpt>
      <trkpt lat="39.94266246445477008819580078125" lon="-0.670203231275081634521484375">
        <ele>885.79998779296875</ele>
        <time>2022-08-26T19:41:50.000Z</time>
      </trkpt>
      <trkpt lat="39.94254243560135364532470703125" lon="-0.669706352055072784423828125">
        <ele>885</ele>
        <time>2022-08-26T19:41:55.000Z</time>
      </trkpt>
      <trkpt lat="39.942524246871471405029296875" lon="-0.66960518248379230499267578125">
        <ele>884.79998779296875</ele>
        <time>2022-08-26T19:41:56.000Z</time>
      </trkpt>
      <trkpt lat="39.94247236289083957672119140625" lon="-0.6691905297338962554931640625">
        <ele>883.79998779296875</ele>
        <time>2022-08-26T19:42:00.000Z</time>
      </trkpt>
      <trkpt lat="39.9424563534557819366455078125" lon="-0.6688706763088703155517578125">
        <ele>883.20001220703125</ele>
        <time>2022-08-26T19:42:03.000Z</time>
      </trkpt>
      <trkpt lat="39.942457191646099090576171875" lon="-0.66865970380604267120361328125">
        <ele>882.5999755859375</ele>
        <time>2022-08-26T19:42:05.000Z</time>
      </trkpt>
      <trkpt lat="39.94249097071588039398193359375" lon="-0.6682487390935420989990234375">
        <ele>881.79998779296875</ele>
        <time>2022-08-26T19:42:09.000Z</time>
      </trkpt>
      <trkpt lat="39.94250102899968624114990234375" lon="-0.6681478209793567657470703125">
        <ele>881.5999755859375</ele>
        <time>2022-08-26T19:42:10.000Z</time>
      </trkpt>
      <trkpt lat="39.942607395350933074951171875" lon="-0.66756083630025386810302734375">
        <ele>880.79998779296875</ele>
        <time>2022-08-26T19:42:16.000Z</time>
      </trkpt>
      <trkpt lat="39.94268962182104587554931640625" lon="-0.6672784499824047088623046875">
        <ele>880.79998779296875</ele>
        <time>2022-08-26T19:42:19.000Z</time>
      </trkpt>
      <trkpt lat="39.9428271688520908355712890625" lon="-0.66690755076706409454345703125">
        <ele>880</ele>
        <time>2022-08-26T19:42:23.000Z</time>
      </trkpt>
      <trkpt lat="39.942908473312854766845703125" lon="-0.66672616638243198394775390625">
        <ele>879.5999755859375</ele>
        <time>2022-08-26T19:42:25.000Z</time>
      </trkpt>
      <trkpt lat="39.943145178258419036865234375" lon="-0.66629667766392230987548828125">
        <ele>878.79998779296875</ele>
        <time>2022-08-26T19:42:30.000Z</time>
      </trkpt>
      <trkpt lat="39.9431973136961460113525390625" lon="-0.6662159599363803863525390625">
        <ele>878.5999755859375</ele>
        <time>2022-08-26T19:42:31.000Z</time>
      </trkpt>
      <trkpt lat="39.94358715601265430450439453125" lon="-0.66564741544425487518310546875">
        <ele>877.4000244140625</ele>
        <time>2022-08-26T19:42:38.000Z</time>
      </trkpt>
      <trkpt lat="39.94398999027907848358154296875" lon="-0.66506520844995975494384765625">
        <ele>876.4000244140625</ele>
        <time>2022-08-26T19:42:45.000Z</time>
      </trkpt>
      <trkpt lat="39.944047071039676666259765625" lon="-0.6649828143417835235595703125">
        <ele>876.20001220703125</ele>
        <time>2022-08-26T19:42:46.000Z</time>
      </trkpt>
      <trkpt lat="39.94438829831779003143310546875" lon="-0.6644946523010730743408203125">
        <ele>875.4000244140625</ele>
        <time>2022-08-26T19:42:52.000Z</time>
      </trkpt>
      <trkpt lat="39.94466674514114856719970703125" lon="-0.6640893034636974334716796875">
        <ele>874.20001220703125</ele>
        <time>2022-08-26T19:42:57.000Z</time>
      </trkpt>
      <trkpt lat="39.9447208084166049957275390625" lon="-0.66400657407939434051513671875">
        <ele>874.20001220703125</ele>
        <time>2022-08-26T19:42:58.000Z</time>
      </trkpt>
      <trkpt lat="39.9449685774743556976318359375" lon="-0.66358186304569244384765625">
        <ele>873.20001220703125</ele>
        <time>2022-08-26T19:43:03.000Z</time>
      </trkpt>
      <trkpt lat="39.94505935348570346832275390625" lon="-0.66340617835521697998046875">
        <ele>872.79998779296875</ele>
        <time>2022-08-26T19:43:05.000Z</time>
      </trkpt>
      <trkpt lat="39.94527040980756282806396484375" lon="-0.66296956501901149749755859375">
        <ele>872.20001220703125</ele>
        <time>2022-08-26T19:43:10.000Z</time>
      </trkpt>
      <trkpt lat="39.94539731182157993316650390625" lon="-0.66271224059164524078369140625">
        <ele>871.5999755859375</ele>
        <time>2022-08-26T19:43:13.000Z</time>
      </trkpt>
      <trkpt lat="39.945527650415897369384765625" lon="-0.662453658878803253173828125">
        <ele>871</ele>
        <time>2022-08-26T19:43:16.000Z</time>
      </trkpt>
      <trkpt lat="39.94574122130870819091796875" lon="-0.66200673580169677734375">
        <ele>870</ele>
        <time>2022-08-26T19:43:21.000Z</time>
      </trkpt>
      <trkpt lat="39.9457832984626293182373046875" lon="-0.66191964782774448394775390625">
        <ele>869.79998779296875</ele>
        <time>2022-08-26T19:43:22.000Z</time>
      </trkpt>
      <trkpt lat="39.9458661116659641265869140625" lon="-0.66174915991723537445068359375">
        <ele>869</ele>
        <time>2022-08-26T19:43:24.000Z</time>
      </trkpt>
      <trkpt lat="39.94611664675176143646240234375" lon="-0.6612317450344562530517578125">
        <ele>868</ele>
        <time>2022-08-26T19:43:30.000Z</time>
      </trkpt>
      <trkpt lat="39.94624145328998565673828125" lon="-0.66097316332161426544189453125">
        <ele>867.20001220703125</ele>
        <time>2022-08-26T19:43:33.000Z</time>
      </trkpt>
      <trkpt lat="39.9463240988552570343017578125" lon="-0.660805441439151763916015625">
        <ele>866.79998779296875</ele>
        <time>2022-08-26T19:43:35.000Z</time>
      </trkpt>
      <trkpt lat="39.94655636139214038848876953125" lon="-0.660325326025485992431640625">
        <ele>866</ele>
        <time>2022-08-26T19:43:41.000Z</time>
      </trkpt>
      <trkpt lat="39.94663179852068424224853515625" lon="-0.66016615368425846099853515625">
        <ele>865.79998779296875</ele>
        <time>2022-08-26T19:43:43.000Z</time>
      </trkpt>
      <trkpt lat="39.946898259222507476806640625" lon="-0.65962853841483592987060546875">
        <ele>865.20001220703125</ele>
        <time>2022-08-26T19:43:50.000Z</time>
      </trkpt>
      <trkpt lat="39.947171509265899658203125" lon="-0.65910969860851764678955078125">
        <ele>864.5999755859375</ele>
        <time>2022-08-26T19:43:57.000Z</time>
      </trkpt>
      <trkpt lat="39.94721350260078907012939453125" lon="-0.65903996117413043975830078125">
        <ele>864.4000244140625</ele>
        <time>2022-08-26T19:43:58.000Z</time>
      </trkpt>
      <trkpt lat="39.9475000798702239990234375" lon="-0.6586472690105438232421875">
        <ele>863.79998779296875</ele>
        <time>2022-08-26T19:44:04.000Z</time>
      </trkpt>
      <trkpt lat="39.9476189352571964263916015625" lon="-0.6585257314145565032958984375">
        <ele>863.5999755859375</ele>
        <time>2022-08-26T19:44:06.000Z</time>
      </trkpt>
      <trkpt lat="39.9478836357593536376953125" lon="-0.65829866565763950347900390625">
        <ele>863</ele>
        <time>2022-08-26T19:44:10.000Z</time>
      </trkpt>
      <trkpt lat="39.94816350750625133514404296875" lon="-0.65810806117951869964599609375">
        <ele>862.5999755859375</ele>
        <time>2022-08-26T19:44:14.000Z</time>
      </trkpt>
      <trkpt lat="39.948305077850818634033203125" lon="-0.6580409221351146697998046875">
        <ele>862</ele>
        <time>2022-08-26T19:44:16.000Z</time>
      </trkpt>
      <trkpt lat="39.94844765402376651763916015625" lon="-0.657979734241962432861328125">
        <ele>861.20001220703125</ele>
        <time>2022-08-26T19:44:18.000Z</time>
      </trkpt>
      <trkpt lat="39.94896925985813140869140625" lon="-0.65775518305599689483642578125">
        <ele>860.4000244140625</ele>
        <time>2022-08-26T19:44:25.000Z</time>
      </trkpt>
      <trkpt lat="39.9490512348711490631103515625" lon="-0.6577219069004058837890625">
        <ele>860.20001220703125</ele>
        <time>2022-08-26T19:44:26.000Z</time>
      </trkpt>
      <trkpt lat="39.9495653808116912841796875" lon="-0.657517053186893463134765625">
        <ele>859.4000244140625</ele>
        <time>2022-08-26T19:44:32.000Z</time>
      </trkpt>
      <trkpt lat="39.94964995421469211578369140625" lon="-0.65748528577387332916259765625">
        <ele>859</ele>
        <time>2022-08-26T19:44:33.000Z</time>
      </trkpt>
      <trkpt lat="39.94996930472552776336669921875" lon="-0.6573683582246303558349609375">
        <ele>857.79998779296875</ele>
        <time>2022-08-26T19:44:37.000Z</time>
      </trkpt>
      <trkpt lat="39.95012789033353328704833984375" lon="-0.65730256028473377227783203125">
        <ele>857.4000244140625</ele>
        <time>2022-08-26T19:44:39.000Z</time>
      </trkpt>
      <trkpt lat="39.95044623501598834991455078125" lon="-0.65717565827071666717529296875">
        <ele>856.79998779296875</ele>
        <time>2022-08-26T19:44:43.000Z</time>
      </trkpt>
      <trkpt lat="39.9506106041371822357177734375" lon="-0.65711111761629581451416015625">
        <ele>855.79998779296875</ele>
        <time>2022-08-26T19:44:45.000Z</time>
      </trkpt>
      <trkpt lat="39.950773380696773529052734375" lon="-0.65704557113349437713623046875">
        <ele>854.5999755859375</ele>
        <time>2022-08-26T19:44:47.000Z</time>
      </trkpt>
      <trkpt lat="39.9512623809278011322021484375" lon="-0.6568513624370098114013671875">
        <ele>853.5999755859375</ele>
        <time>2022-08-26T19:44:53.000Z</time>
      </trkpt>
      <trkpt lat="39.951516687870025634765625" lon="-0.65675287507474422454833984375">
        <ele>852.79998779296875</ele>
        <time>2022-08-26T19:44:56.000Z</time>
      </trkpt>
      <trkpt lat="39.9517699889838695526123046875" lon="-0.6566562317311763763427734375">
        <ele>852.4000244140625</ele>
        <time>2022-08-26T19:44:59.000Z</time>
      </trkpt>
      <trkpt lat="39.95217927731573581695556640625" lon="-0.65649152733385562896728515625">
        <ele>851.4000244140625</ele>
        <time>2022-08-26T19:45:04.000Z</time>
      </trkpt>
      <trkpt lat="39.95226033031940460205078125" lon="-0.65645950846374034881591796875">
        <ele>851.20001220703125</ele>
        <time>2022-08-26T19:45:05.000Z</time>
      </trkpt>
      <trkpt lat="39.95274706743657588958740234375" lon="-0.6562656350433826446533203125">
        <ele>850.20001220703125</ele>
        <time>2022-08-26T19:45:11.000Z</time>
      </trkpt>
      <trkpt lat="39.952911436557769775390625" lon="-0.65620168112218379974365234375">
        <ele>850</ele>
        <time>2022-08-26T19:45:13.000Z</time>
      </trkpt>
      <trkpt lat="39.95316230691969394683837890625" lon="-0.65610143356025218963623046875">
        <ele>849</ele>
        <time>2022-08-26T19:45:16.000Z</time>
      </trkpt>
      <trkpt lat="39.95349624194204807281494140625" lon="-0.65596514381468296051025390625">
        <ele>848.20001220703125</ele>
        <time>2022-08-26T19:45:20.000Z</time>
      </trkpt>
      <trkpt lat="39.9535788036882877349853515625" lon="-0.65593396313488483428955078125">
        <ele>848</ele>
        <time>2022-08-26T19:45:21.000Z</time>
      </trkpt>
      <trkpt lat="39.954047687351703643798828125" lon="-0.65574252046644687652587890625">
        <ele>846.79998779296875</ele>
        <time>2022-08-26T19:45:27.000Z</time>
      </trkpt>
      <trkpt lat="39.95420300401747226715087890625" lon="-0.655681751668453216552734375">
        <ele>846.4000244140625</ele>
        <time>2022-08-26T19:45:29.000Z</time>
      </trkpt>
      <trkpt lat="39.95451162569224834442138671875" lon="-0.65555870532989501953125">
        <ele>845.79998779296875</ele>
        <time>2022-08-26T19:45:33.000Z</time>
      </trkpt>
      <trkpt lat="39.9548709578812122344970703125" lon="-0.6554190628230571746826171875">
        <ele>844.79998779296875</ele>
        <time>2022-08-26T19:45:38.000Z</time>
      </trkpt>
      <trkpt lat="39.95493658818304538726806640625" lon="-0.65539115108549594879150390625">
        <ele>844.5999755859375</ele>
        <time>2022-08-26T19:45:39.000Z</time>
      </trkpt>
      <trkpt lat="39.95530086569488048553466796875" lon="-0.6552360020577907562255859375">
        <ele>843.79998779296875</ele>
        <time>2022-08-26T19:45:45.000Z</time>
      </trkpt>
      <trkpt lat="39.955663718283176422119140625" lon="-0.65508462488651275634765625">
        <ele>843.5999755859375</ele>
        <time>2022-08-26T19:45:51.000Z</time>
      </trkpt>
      <trkpt lat="39.9557285942137241363525390625" lon="-0.6550576351583003997802734375">
        <ele>843.5999755859375</ele>
        <time>2022-08-26T19:45:52.000Z</time>
      </trkpt>
      <trkpt lat="39.95622270740568637847900390625" lon="-0.654859654605388641357421875">
        <ele>843.4000244140625</ele>
        <time>2022-08-26T19:45:59.000Z</time>
      </trkpt>
      <trkpt lat="39.95667968876659870147705078125" lon="-0.65461163409054279327392578125">
        <ele>842.4000244140625</ele>
        <time>2022-08-26T19:46:05.000Z</time>
      </trkpt>
      <trkpt lat="39.95675210841000080108642578125" lon="-0.654563605785369873046875">
        <ele>842.20001220703125</ele>
        <time>2022-08-26T19:46:06.000Z</time>
      </trkpt>
      <trkpt lat="39.956870041787624359130859375" lon="-0.65447509288787841796875">
        <ele>841.4000244140625</ele>
        <time>2022-08-26T19:46:08.000Z</time>
      </trkpt>
      <trkpt lat="39.956975989043712615966796875" lon="-0.654394291341304779052734375">
        <ele>840.20001220703125</ele>
        <time>2022-08-26T19:46:10.000Z</time>
      </trkpt>
      <trkpt lat="39.9571260251104831695556640625" lon="-0.65426512621343135833740234375">
        <ele>839.20001220703125</ele>
        <time>2022-08-26T19:46:13.000Z</time>
      </trkpt>
      <trkpt lat="39.95725535787642002105712890625" lon="-0.65413520671427249908447265625">
        <ele>838</ele>
        <time>2022-08-26T19:46:16.000Z</time>
      </trkpt>
      <trkpt lat="39.95742266066372394561767578125" lon="-0.65395214594900608062744140625">
        <ele>836.79998779296875</ele>
        <time>2022-08-26T19:46:20.000Z</time>
      </trkpt>
      <trkpt lat="39.95755501091480255126953125" lon="-0.65379582345485687255859375">
        <ele>836</ele>
        <time>2022-08-26T19:46:23.000Z</time>
      </trkpt>
      <trkpt lat="39.95764662511646747589111328125" lon="-0.65367772243916988372802734375">
        <ele>835.79998779296875</ele>
        <time>2022-08-26T19:46:25.000Z</time>
      </trkpt>
      <trkpt lat="39.95786623097956180572509765625" lon="-0.65335283987224102020263671875">
        <ele>835.5999755859375</ele>
        <time>2022-08-26T19:46:30.000Z</time>
      </trkpt>
      <trkpt lat="39.95805348269641399383544921875" lon="-0.65299325622618198394775390625">
        <ele>835.20001220703125</ele>
        <time>2022-08-26T19:46:35.000Z</time>
      </trkpt>
      <trkpt lat="39.95815448462963104248046875" lon="-0.65279913134872913360595703125">
        <ele>834.79998779296875</ele>
        <time>2022-08-26T19:46:38.000Z</time>
      </trkpt>
      <trkpt lat="39.95892855338752269744873046875" lon="-0.65020442940294742584228515625">
        <ele>829.5999755859375</ele>
        <time>2022-08-26T19:47:07.000Z</time>
      </trkpt>
      <trkpt lat="39.9589428864419460296630859375" lon="-0.65012798644602298736572265625">
        <ele>829.5999755859375</ele>
        <time>2022-08-26T19:47:08.000Z</time>
      </trkpt>
      <trkpt lat="39.9589442275464534759521484375" lon="-0.65003025345504283905029296875">
        <ele>829.20001220703125</ele>
        <time>2022-08-26T19:47:09.000Z</time>
      </trkpt>
      <trkpt lat="39.95905998162925243377685546875" lon="-0.64969263039529323577880859375">
        <ele>828.79998779296875</ele>
        <time>2022-08-26T19:47:13.000Z</time>
      </trkpt>
      <trkpt lat="39.95913240127265453338623046875" lon="-0.64953186549246311187744140625">
        <ele>828.79998779296875</ele>
        <time>2022-08-26T19:47:15.000Z</time>
      </trkpt>
      <trkpt lat="39.95925477705895900726318359375" lon="-0.64930890686810016632080078125">
        <ele>828.5999755859375</ele>
        <time>2022-08-26T19:47:18.000Z</time>
      </trkpt>
      <trkpt lat="39.9593023024499416351318359375" lon="-0.6492365710437297821044921875">
        <ele>828.5999755859375</ele>
        <time>2022-08-26T19:47:19.000Z</time>
      </trkpt>
      <trkpt lat="39.95951143093407154083251953125" lon="-0.6489522568881511688232421875">
        <ele>828.4000244140625</ele>
        <time>2022-08-26T19:47:23.000Z</time>
      </trkpt>
      <trkpt lat="39.95977629907429218292236328125" lon="-0.64857817254960536956787109375">
        <ele>827.79998779296875</ele>
        <time>2022-08-26T19:47:28.000Z</time>
      </trkpt>
      <trkpt lat="39.95988794602453708648681640625" lon="-0.64842897467315196990966796875">
        <ele>827.4000244140625</ele>
        <time>2022-08-26T19:47:30.000Z</time>
      </trkpt>
      <trkpt lat="39.95999624021351337432861328125" lon="-0.64828212372958660125732421875">
        <ele>826.20001220703125</ele>
        <time>2022-08-26T19:47:32.000Z</time>
      </trkpt>
      <trkpt lat="39.96027016080915927886962890625" lon="-0.64791415818035602569580078125">
        <ele>825.20001220703125</ele>
        <time>2022-08-26T19:47:37.000Z</time>
      </trkpt>
      <trkpt lat="39.96037778444588184356689453125" lon="-0.64777434803545475006103515625">
        <ele>824.5999755859375</ele>
        <time>2022-08-26T19:47:39.000Z</time>
      </trkpt>
      <trkpt lat="39.96054232120513916015625" lon="-0.6475603580474853515625">
        <ele>823.79998779296875</ele>
        <time>2022-08-26T19:47:42.000Z</time>
      </trkpt>
      <trkpt lat="39.96069612912833690643310546875" lon="-0.64733848907053470611572265625">
        <ele>823.4000244140625</ele>
        <time>2022-08-26T19:47:45.000Z</time>
      </trkpt>
      <trkpt lat="39.96091187931597232818603515625" lon="-0.647048391401767730712890625">
        <ele>822.79998779296875</ele>
        <time>2022-08-26T19:47:49.000Z</time>
      </trkpt>
      <trkpt lat="39.961134083569049835205078125" lon="-0.6467649154365062713623046875">
        <ele>822.20001220703125</ele>
        <time>2022-08-26T19:47:53.000Z</time>
      </trkpt>
      <trkpt lat="39.961238689720630645751953125" lon="-0.64662686549127101898193359375">
        <ele>821.79998779296875</ele>
        <time>2022-08-26T19:47:55.000Z</time>
      </trkpt>
      <trkpt lat="39.96155141852796077728271484375" lon="-0.64621397294104099273681640625">
        <ele>820.5999755859375</ele>
        <time>2022-08-26T19:48:01.000Z</time>
      </trkpt>
      <trkpt lat="39.961653091013431549072265625" lon="-0.64607910811901092529296875">
        <ele>820.20001220703125</ele>
        <time>2022-08-26T19:48:03.000Z</time>
      </trkpt>
      <trkpt lat="39.96179466135799884796142578125" lon="-0.64587526023387908935546875">
        <ele>819.5999755859375</ele>
        <time>2022-08-26T19:48:06.000Z</time>
      </trkpt>
      <trkpt lat="39.96192298829555511474609375" lon="-0.6456739269196987152099609375">
        <ele>818.79998779296875</ele>
        <time>2022-08-26T19:48:09.000Z</time>
      </trkpt>
      <trkpt lat="39.96199130080640316009521484375" lon="-0.64557082951068878173828125">
        <ele>818.4000244140625</ele>
        <time>2022-08-26T19:48:11.000Z</time>
      </trkpt>
      <trkpt lat="39.96205299161374568939208984375" lon="-0.64547787420451641082763671875">
        <ele>817.79998779296875</ele>
        <time>2022-08-26T19:48:13.000Z</time>
      </trkpt>
      <trkpt lat="39.96234409511089324951171875" lon="-0.6448910571634769439697265625">
        <ele>816.5999755859375</ele>
        <time>2022-08-26T19:48:21.000Z</time>
      </trkpt>
      <trkpt lat="39.96238893829286098480224609375" lon="-0.64470221288502216339111328125">
        <ele>816.4000244140625</ele>
        <time>2022-08-26T19:48:23.000Z</time>
      </trkpt>
      <trkpt lat="39.96249957941472530364990234375" lon="-0.64441186375916004180908203125">
        <ele>816.20001220703125</ele>
        <time>2022-08-26T19:48:26.000Z</time>
      </trkpt>
      <trkpt lat="39.96257954277098178863525390625" lon="-0.64423148520290851593017578125">
        <ele>815.5999755859375</ele>
        <time>2022-08-26T19:48:28.000Z</time>
      </trkpt>
      <trkpt lat="39.9626818858087062835693359375" lon="-0.6439675390720367431640625">
        <ele>815</ele>
        <time>2022-08-26T19:48:31.000Z</time>
      </trkpt>
      <trkpt lat="39.96280585415661334991455078125" lon="-0.64361407421529293060302734375">
        <ele>814.4000244140625</ele>
        <time>2022-08-26T19:48:35.000Z</time>
      </trkpt>
      <trkpt lat="39.96292152442038059234619140625" lon="-0.64325868152081966400146484375">
        <ele>813.79998779296875</ele>
        <time>2022-08-26T19:48:39.000Z</time>
      </trkpt>
      <trkpt lat="39.963002242147922515869140625" lon="-0.64300672151148319244384765625">
        <ele>813</ele>
        <time>2022-08-26T19:48:42.000Z</time>
      </trkpt>
      <trkpt lat="39.9630493484437465667724609375" lon="-0.6428509019315242767333984375">
        <ele>812.79998779296875</ele>
        <time>2022-08-26T19:48:44.000Z</time>
      </trkpt>
      <trkpt lat="39.96356961317360401153564453125" lon="-0.64155983738601207733154296875">
        <ele>810</ele>
        <time>2022-08-26T19:49:01.000Z</time>
      </trkpt>
      <trkpt lat="39.9635660089552402496337890625" lon="-0.6412388943135738372802734375">
        <ele>809.79998779296875</ele>
        <time>2022-08-26T19:49:03.000Z</time>
      </trkpt>
      <trkpt lat="39.96359609998762607574462890625" lon="-0.64116421155631542205810546875">
        <ele>809.5999755859375</ele>
        <time>2022-08-26T19:49:04.000Z</time>
      </trkpt>
      <trkpt lat="39.963617809116840362548828125" lon="-0.64108081161975860595703125">
        <ele>809.4000244140625</ele>
        <time>2022-08-26T19:49:05.000Z</time>
      </trkpt>
      <trkpt lat="39.96369835920631885528564453125" lon="-0.64077093265950679779052734375">
        <ele>809</ele>
        <time>2022-08-26T19:49:09.000Z</time>
      </trkpt>
      <trkpt lat="39.96383699588477611541748046875" lon="-0.64032065682113170623779296875">
        <ele>808.5999755859375</ele>
        <time>2022-08-26T19:49:15.000Z</time>
      </trkpt>
      <trkpt lat="39.9638627283275127410888671875" lon="-0.6402424536645412445068359375">
        <ele>808.5999755859375</ele>
        <time>2022-08-26T19:49:16.000Z</time>
      </trkpt>
      <trkpt lat="39.96388996951282024383544921875" lon="-0.64016592688858509063720703125">
        <ele>808.5999755859375</ele>
        <time>2022-08-26T19:49:17.000Z</time>
      </trkpt>
      <trkpt lat="39.9639653228223323822021484375" lon="-0.63991363160312175750732421875">
        <ele>808.4000244140625</ele>
        <time>2022-08-26T19:49:20.000Z</time>
      </trkpt>
      <trkpt lat="39.96410253457725048065185546875" lon="-0.63950501382350921630859375">
        <ele>807.5999755859375</ele>
        <time>2022-08-26T19:49:25.000Z</time>
      </trkpt>
      <trkpt lat="39.96417872607707977294921875" lon="-0.6392617709934711456298828125">
        <ele>806.4000244140625</ele>
        <time>2022-08-26T19:49:28.000Z</time>
      </trkpt>
      <trkpt lat="39.964259527623653411865234375" lon="-0.63901995308697223663330078125">
        <ele>806</ele>
        <time>2022-08-26T19:49:31.000Z</time>
      </trkpt>
      <trkpt lat="39.96444870717823505401611328125" lon="-0.638459958136081695556640625">
        <ele>805.20001220703125</ele>
        <time>2022-08-26T19:49:38.000Z</time>
      </trkpt>
      <trkpt lat="39.96447485871613025665283203125" lon="-0.63838292844593524932861328125">
        <ele>805.20001220703125</ele>
        <time>2022-08-26T19:49:39.000Z</time>
      </trkpt>
      <trkpt lat="39.964600838720798492431640625" lon="-0.63802569173276424407958984375">
        <ele>804.20001220703125</ele>
        <time>2022-08-26T19:49:44.000Z</time>
      </trkpt>
      <trkpt lat="39.96464031748473644256591796875" lon="-0.6378908269107341766357421875">
        <ele>803.79998779296875</ele>
        <time>2022-08-26T19:49:46.000Z</time>
      </trkpt>
      <trkpt lat="39.9646554887294769287109375" lon="-0.637822262942790985107421875">
        <ele>803.4000244140625</ele>
        <time>2022-08-26T19:49:47.000Z</time>
      </trkpt>
      <trkpt lat="39.96470217593014240264892578125" lon="-0.63769075088202953338623046875">
        <ele>803</ele>
        <time>2022-08-26T19:49:49.000Z</time>
      </trkpt>
      <trkpt lat="39.9647491984069347381591796875" lon="-0.63756435178220272064208984375">
        <ele>802.5999755859375</ele>
        <time>2022-08-26T19:49:51.000Z</time>
      </trkpt>
      <trkpt lat="39.96482203714549541473388671875" lon="-0.63739503733813762664794921875">
        <ele>801.79998779296875</ele>
        <time>2022-08-26T19:49:54.000Z</time>
      </trkpt>
      <trkpt lat="39.9648501165211200714111328125" lon="-0.6373416446149349212646484375">
        <ele>801.5999755859375</ele>
        <time>2022-08-26T19:49:55.000Z</time>
      </trkpt>
      <trkpt lat="39.9649047665297985076904296875" lon="-0.63723846338689327239990234375">
        <ele>801.4000244140625</ele>
        <time>2022-08-26T19:49:57.000Z</time>
      </trkpt>
      <trkpt lat="39.96501314453780651092529296875" lon="-0.6370352022349834442138671875">
        <ele>800.79998779296875</ele>
        <time>2022-08-26T19:50:01.000Z</time>
      </trkpt>
      <trkpt lat="39.9650683812797069549560546875" lon="-0.63693118281662464141845703125">
        <ele>800.20001220703125</ele>
        <time>2022-08-26T19:50:03.000Z</time>
      </trkpt>
      <trkpt lat="39.9651481769979000091552734375" lon="-0.636780895292758941650390625">
        <ele>799.5999755859375</ele>
        <time>2022-08-26T19:50:06.000Z</time>
      </trkpt>
      <trkpt lat="39.9652762524783611297607421875" lon="-0.63653237186372280120849609375">
        <ele>799.20001220703125</ele>
        <time>2022-08-26T19:50:11.000Z</time>
      </trkpt>
      <trkpt lat="39.96539904735982418060302734375" lon="-0.6363297812640666961669921875">
        <ele>798.5999755859375</ele>
        <time>2022-08-26T19:50:15.000Z</time>
      </trkpt>
      <trkpt lat="39.96548504568636417388916015625" lon="-0.63618251122534275054931640625">
        <ele>798.4000244140625</ele>
        <time>2022-08-26T19:50:18.000Z</time>
      </trkpt>
      <trkpt lat="39.96572912670671939849853515625" lon="-0.635820664465427398681640625">
        <ele>797.79998779296875</ele>
        <time>2022-08-26T19:50:26.000Z</time>
      </trkpt>
      <trkpt lat="39.9657607264816761016845703125" lon="-0.63577271997928619384765625">
        <ele>797.5999755859375</ele>
        <time>2022-08-26T19:50:27.000Z</time>
      </trkpt>
      <trkpt lat="39.9658613093197345733642578125" lon="-0.63563735224306583404541015625">
        <ele>797</ele>
        <time>2022-08-26T19:50:30.000Z</time>
      </trkpt>
      <trkpt lat="39.96593951247632503509521484375" lon="-0.63554012216627597808837890625">
        <ele>796.79998779296875</ele>
        <time>2022-08-26T19:50:32.000Z</time>
      </trkpt>
      <trkpt lat="39.9661184661090373992919921875" lon="-0.63531498424708843231201171875">
        <ele>796.5999755859375</ele>
        <time>2022-08-26T19:50:36.000Z</time>
      </trkpt>
      <trkpt lat="39.96620337478816509246826171875" lon="-0.63520400784909725189208984375">
        <ele>796.4000244140625</ele>
        <time>2022-08-26T19:50:38.000Z</time>
      </trkpt>
      <trkpt lat="39.96647846885025501251220703125" lon="-0.634851716458797454833984375">
        <ele>795.4000244140625</ele>
        <time>2022-08-26T19:50:44.000Z</time>
      </trkpt>
      <trkpt lat="39.96652423404157161712646484375" lon="-0.634793378412723541259765625">
        <ele>795.4000244140625</ele>
        <time>2022-08-26T19:50:45.000Z</time>
      </trkpt>
      <trkpt lat="39.96674199588596820831298828125" lon="-0.6345249898731708526611328125">
        <ele>795.20001220703125</ele>
        <time>2022-08-26T19:50:50.000Z</time>
      </trkpt>
      <trkpt lat="39.96679387986660003662109375" lon="-0.63448064960539340972900390625">
        <ele>795</ele>
        <time>2022-08-26T19:50:51.000Z</time>
      </trkpt>
      <trkpt lat="39.96699504554271697998046875" lon="-0.63422315753996372222900390625">
        <ele>794.5999755859375</ele>
        <time>2022-08-26T19:50:55.000Z</time>
      </trkpt>
      <trkpt lat="39.96704240329563617706298828125" lon="-0.63415392301976680755615234375">
        <ele>794.4000244140625</ele>
        <time>2022-08-26T19:50:56.000Z</time>
      </trkpt>
      <trkpt lat="39.96724340133368968963623046875" lon="-0.6338111869990825653076171875">
        <ele>793.79998779296875</ele>
        <time>2022-08-26T19:51:01.000Z</time>
      </trkpt>
      <trkpt lat="39.96736250817775726318359375" lon="-0.6335560418665409088134765625">
        <ele>793.20001220703125</ele>
        <time>2022-08-26T19:51:05.000Z</time>
      </trkpt>
      <trkpt lat="39.9675095267593860626220703125" lon="-0.633214227855205535888671875">
        <ele>792</ele>
        <time>2022-08-26T19:51:11.000Z</time>
      </trkpt>
      <trkpt lat="39.96753995306789875030517578125" lon="-0.63315161503851413726806640625">
        <ele>791.79998779296875</ele>
        <time>2022-08-26T19:51:12.000Z</time>
      </trkpt>
      <trkpt lat="39.967693425714969635009765625" lon="-0.63272447325289249420166015625">
        <ele>791.20001220703125</ele>
        <time>2022-08-26T19:51:18.000Z</time>
      </trkpt>
      <trkpt lat="39.96772049926221370697021484375" lon="-0.63265020959079265594482421875">
        <ele>791</ele>
        <time>2022-08-26T19:51:19.000Z</time>
      </trkpt>
      <trkpt lat="39.96792233549058437347412109375" lon="-0.63210253603756427764892578125">
        <ele>789.79998779296875</ele>
        <time>2022-08-26T19:51:26.000Z</time>
      </trkpt>
      <trkpt lat="39.96815619058907032012939453125" lon="-0.63146911561489105224609375">
        <ele>788.79998779296875</ele>
        <time>2022-08-26T19:51:34.000Z</time>
      </trkpt>
      <trkpt lat="39.96819357387721538543701171875" lon="-0.63139493577182292938232421875">
        <ele>788.79998779296875</ele>
        <time>2022-08-26T19:51:35.000Z</time>
      </trkpt>
      <trkpt lat="39.96845760382711887359619140625" lon="-0.63087643124163150787353515625">
        <ele>788</ele>
        <time>2022-08-26T19:51:42.000Z</time>
      </trkpt>
      <trkpt lat="39.96849632821977138519287109375" lon="-0.63080434687435626983642578125">
        <ele>787.79998779296875</ele>
        <time>2022-08-26T19:51:43.000Z</time>
      </trkpt>
      <trkpt lat="39.9687694944441318511962890625" lon="-0.6303192861378192901611328125">
        <ele>787</ele>
        <time>2022-08-26T19:51:50.000Z</time>
      </trkpt>
      <trkpt lat="39.96880553662776947021484375" lon="-0.63026606105268001556396484375">
        <ele>786.79998779296875</ele>
        <time>2022-08-26T19:51:51.000Z</time>
      </trkpt>
      <trkpt lat="39.96902547776699066162109375" lon="-0.62992273829877376556396484375">
        <ele>786</ele>
        <time>2022-08-26T19:51:56.000Z</time>
      </trkpt>
      <trkpt lat="39.96902547776699066162109375" lon="-0.62992273829877376556396484375">
        <ele>785.5999755859375</ele>
        <time>2022-08-26T19:51:57.000Z</time>
      </trkpt>
      <trkpt lat="39.9692308343946933746337890625" lon="-0.6295997835695743560791015625">
        <ele>785</ele>
        <time>2022-08-26T19:52:01.000Z</time>
      </trkpt>
      <trkpt lat="39.96932580135762691497802734375" lon="-0.62934882938861846923828125">
        <ele>784.5999755859375</ele>
        <time>2022-08-26T19:52:04.000Z</time>
      </trkpt>
      <trkpt lat="39.96944549493491649627685546875" lon="-0.62910667620599269866943359375">
        <ele>784.20001220703125</ele>
        <time>2022-08-26T19:52:07.000Z</time>
      </trkpt>
      <trkpt lat="39.96959544718265533447265625" lon="-0.62875312753021717071533203125">
        <ele>783.4000244140625</ele>
        <time>2022-08-26T19:52:11.000Z</time>
      </trkpt>
      <trkpt lat="39.9696926772594451904296875" lon="-0.62848742119967937469482421875">
        <ele>782.5999755859375</ele>
        <time>2022-08-26T19:52:14.000Z</time>
      </trkpt>
      <trkpt lat="39.96972151100635528564453125" lon="-0.6283954717218875885009765625">
        <ele>782.4000244140625</ele>
        <time>2022-08-26T19:52:15.000Z</time>
      </trkpt>
      <trkpt lat="39.96984489262104034423828125" lon="-0.6279225647449493408203125">
        <ele>781.5999755859375</ele>
        <time>2022-08-26T19:52:20.000Z</time>
      </trkpt>
      <trkpt lat="39.9698769114911556243896484375" lon="-0.62772609293460845947265625">
        <ele>781.20001220703125</ele>
        <time>2022-08-26T19:52:22.000Z</time>
      </trkpt>
      <trkpt lat="39.96994757093489170074462890625" lon="-0.62724421732127666473388671875">
        <ele>780.5999755859375</ele>
        <time>2022-08-26T19:52:27.000Z</time>
      </trkpt>
      <trkpt lat="39.96996718458831310272216796875" lon="-0.62705646269023418426513671875">
        <ele>780.20001220703125</ele>
        <time>2022-08-26T19:52:29.000Z</time>
      </trkpt>
      <trkpt lat="39.969988055527210235595703125" lon="-0.62666133977472782135009765625">
        <ele>779.4000244140625</ele>
        <time>2022-08-26T19:52:33.000Z</time>
      </trkpt>
      <trkpt lat="39.9699852056801319122314453125" lon="-0.62645833007991313934326171875">
        <ele>778.5999755859375</ele>
        <time>2022-08-26T19:52:35.000Z</time>
      </trkpt>
      <trkpt lat="39.96996282599866390228271484375" lon="-0.62606438063085079193115234375">
        <ele>777.79998779296875</ele>
        <time>2022-08-26T19:52:39.000Z</time>
      </trkpt>
      <trkpt lat="39.96994421817362308502197265625" lon="-0.6258648075163364410400390625">
        <ele>777.5999755859375</ele>
        <time>2022-08-26T19:52:41.000Z</time>
      </trkpt>
      <trkpt lat="39.96986224316060543060302734375" lon="-0.62537907622754573822021484375">
        <ele>776.5999755859375</ele>
        <time>2022-08-26T19:52:46.000Z</time>
      </trkpt>
      <trkpt lat="39.9698433838784694671630859375" lon="-0.62528394162654876708984375">
        <ele>776.4000244140625</ele>
        <time>2022-08-26T19:52:47.000Z</time>
      </trkpt>
      <trkpt lat="39.96975881047546863555908203125" lon="-0.62490181066095829010009765625">
        <ele>775.4000244140625</ele>
        <time>2022-08-26T19:52:51.000Z</time>
      </trkpt>
      <trkpt lat="39.9697045795619487762451171875" lon="-0.62460861168801784515380859375">
        <ele>774.79998779296875</ele>
        <time>2022-08-26T19:52:54.000Z</time>
      </trkpt>
      <trkpt lat="39.9696241132915019989013671875" lon="-0.62421114183962345123291015625">
        <ele>774.4000244140625</ele>
        <time>2022-08-26T19:52:58.000Z</time>
      </trkpt>
      <trkpt lat="39.969557560980319976806640625" lon="-0.62391861341893672943115234375">
        <ele>773.5999755859375</ele>
        <time>2022-08-26T19:53:01.000Z</time>
      </trkpt>
      <trkpt lat="39.9695144779980182647705078125" lon="-0.62372532673180103302001953125">
        <ele>773.20001220703125</ele>
        <time>2022-08-26T19:53:03.000Z</time>
      </trkpt>
      <trkpt lat="39.969440884888172149658203125" lon="-0.6233334727585315704345703125">
        <ele>772.79998779296875</ele>
        <time>2022-08-26T19:53:07.000Z</time>
      </trkpt>
      <trkpt lat="39.96937408111989498138427734375" lon="-0.6230411119759082794189453125">
        <ele>772.20001220703125</ele>
        <time>2022-08-26T19:53:10.000Z</time>
      </trkpt>
      <trkpt lat="39.96926955878734588623046875" lon="-0.62256191857159137725830078125">
        <ele>771.20001220703125</ele>
        <time>2022-08-26T19:53:15.000Z</time>
      </trkpt>
      <trkpt lat="39.96918884105980396270751953125" lon="-0.6222850643098354339599609375">
        <ele>770.79998779296875</ele>
        <time>2022-08-26T19:53:18.000Z</time>
      </trkpt>
      <trkpt lat="39.9690920300781726837158203125" lon="-0.62201030552387237548828125">
        <ele>769.79998779296875</ele>
        <time>2022-08-26T19:53:21.000Z</time>
      </trkpt>
      <trkpt lat="39.9690541438758373260498046875" lon="-0.62192187644541263580322265625">
        <ele>769.5999755859375</ele>
        <time>2022-08-26T19:53:22.000Z</time>
      </trkpt>
      <trkpt lat="39.96877594850957393646240234375" lon="-0.62141192145645618438720703125">
        <ele>768.79998779296875</ele>
        <time>2022-08-26T19:53:28.000Z</time>
      </trkpt>
      <trkpt lat="39.9685069732367992401123046875" lon="-0.6210405193269252777099609375">
        <ele>767.5999755859375</ele>
        <time>2022-08-26T19:53:33.000Z</time>
      </trkpt>
      <trkpt lat="39.968390129506587982177734375" lon="-0.620907582342624664306640625">
        <ele>767</ele>
        <time>2022-08-26T19:53:35.000Z</time>
      </trkpt>
      <trkpt lat="39.96826951391994953155517578125" lon="-0.62078629620373249053955078125">
        <ele>766.5999755859375</ele>
        <time>2022-08-26T19:53:37.000Z</time>
      </trkpt>
      <trkpt lat="39.96802358888089656829833984375" lon="-0.62058362178504467010498046875">
        <ele>765.79998779296875</ele>
        <time>2022-08-26T19:53:41.000Z</time>
      </trkpt>
      <trkpt lat="39.96789249591529369354248046875" lon="-0.6204963661730289459228515625">
        <ele>765.5999755859375</ele>
        <time>2022-08-26T19:53:43.000Z</time>
      </trkpt>
      <trkpt lat="39.967549927532672882080078125" lon="-0.620311461389064788818359375">
        <ele>764.5999755859375</ele>
        <time>2022-08-26T19:53:48.000Z</time>
      </trkpt>
      <trkpt lat="39.9670064449310302734375" lon="-0.62015932984650135040283203125">
        <ele>763.79998779296875</ele>
        <time>2022-08-26T19:53:55.000Z</time>
      </trkpt>
      <trkpt lat="39.96684090234339237213134765625" lon="-0.6201533786952495574951171875">
        <ele>763.4000244140625</ele>
        <time>2022-08-26T19:53:57.000Z</time>
      </trkpt>
      <trkpt lat="39.9665249884128570556640625" lon="-0.6201694719493389129638671875">
        <ele>762.79998779296875</ele>
        <time>2022-08-26T19:54:01.000Z</time>
      </trkpt>
      <trkpt lat="39.9662143550813198089599609375" lon="-0.620224289596080780029296875">
        <ele>762.20001220703125</ele>
        <time>2022-08-26T19:54:05.000Z</time>
      </trkpt>
      <trkpt lat="39.9660582840442657470703125" lon="-0.6202593259513378143310546875">
        <ele>761.5999755859375</ele>
        <time>2022-08-26T19:54:07.000Z</time>
      </trkpt>
      <trkpt lat="39.96598058380186557769775390625" lon="-0.620276927947998046875">
        <ele>761.20001220703125</ele>
        <time>2022-08-26T19:54:08.000Z</time>
      </trkpt>
      <trkpt lat="39.965589232742786407470703125" lon="-0.62036183662712574005126953125">
        <ele>760.20001220703125</ele>
        <time>2022-08-26T19:54:13.000Z</time>
      </trkpt>
      <trkpt lat="39.965443722903728485107421875" lon="-0.620398633182048797607421875">
        <ele>759.79998779296875</ele>
        <time>2022-08-26T19:54:15.000Z</time>
      </trkpt>
      <trkpt lat="39.9650680460035800933837890625" lon="-0.620475746691226959228515625">
        <ele>759</ele>
        <time>2022-08-26T19:54:20.000Z</time>
      </trkpt>
      <trkpt lat="39.96484064497053623199462890625" lon="-0.62051706947386264801025390625">
        <ele>758.4000244140625</ele>
        <time>2022-08-26T19:54:23.000Z</time>
      </trkpt>
      <trkpt lat="39.9646868370473384857177734375" lon="-0.6205496750771999359130859375">
        <ele>758</ele>
        <time>2022-08-26T19:54:25.000Z</time>
      </trkpt>
      <trkpt lat="39.96435265056788921356201171875" lon="-0.620619915425777435302734375">
        <ele>757.20001220703125</ele>
        <time>2022-08-26T19:54:29.000Z</time>
      </trkpt>
      <trkpt lat="39.96409717015922069549560546875" lon="-0.6206683628261089324951171875">
        <ele>757</ele>
        <time>2022-08-26T19:54:32.000Z</time>
      </trkpt>
      <trkpt lat="39.9637775681912899017333984375" lon="-0.62073516659438610076904296875">
        <ele>756.4000244140625</ele>
        <time>2022-08-26T19:54:36.000Z</time>
      </trkpt>
      <trkpt lat="39.96354044415056705474853515625" lon="-0.6207729689776897430419921875">
        <ele>755.79998779296875</ele>
        <time>2022-08-26T19:54:39.000Z</time>
      </trkpt>
      <trkpt lat="39.96321924962103366851806640625" lon="-0.62078730203211307525634765625">
        <ele>755</ele>
        <time>2022-08-26T19:54:43.000Z</time>
      </trkpt>
      <trkpt lat="39.96313928626477718353271484375" lon="-0.6207857094705104827880859375">
        <ele>754.79998779296875</ele>
        <time>2022-08-26T19:54:44.000Z</time>
      </trkpt>
      <trkpt lat="39.962636791169643402099609375" lon="-0.62073315493762493133544921875">
        <ele>754</ele>
        <time>2022-08-26T19:54:50.000Z</time>
      </trkpt>
      <trkpt lat="39.96212591417133808135986328125" lon="-0.62060357071459293365478515625">
        <ele>752.79998779296875</ele>
        <time>2022-08-26T19:54:56.000Z</time>
      </trkpt>
      <trkpt lat="39.96196112595498561859130859375" lon="-0.62056266702711582183837890625">
        <ele>752.20001220703125</ele>
        <time>2022-08-26T19:54:58.000Z</time>
      </trkpt>
      <trkpt lat="39.96170782484114170074462890625" lon="-0.62049510888755321502685546875">
        <ele>751.79998779296875</ele>
        <time>2022-08-26T19:55:01.000Z</time>
      </trkpt>
      <trkpt lat="39.961447902023792266845703125" lon="-0.62042176723480224609375">
        <ele>751</ele>
        <time>2022-08-26T19:55:04.000Z</time>
      </trkpt>
      <trkpt lat="39.961360394954681396484375" lon="-0.62039787881076335906982421875">
        <ele>750.5999755859375</ele>
        <time>2022-08-26T19:55:05.000Z</time>
      </trkpt>
      <trkpt lat="39.96094155125319957733154296875" lon="-0.6202653609216213226318359375">
        <ele>750</ele>
        <time>2022-08-26T19:55:10.000Z</time>
      </trkpt>
      <trkpt lat="39.96086091734468936920166015625" lon="-0.62023602426052093505859375">
        <ele>749.79998779296875</ele>
        <time>2022-08-26T19:55:11.000Z</time>
      </trkpt>
      <trkpt lat="39.96070568449795246124267578125" lon="-0.62017299234867095947265625">
        <ele>749.4000244140625</ele>
        <time>2022-08-26T19:55:13.000Z</time>
      </trkpt>
      <trkpt lat="39.9604087136685848236083984375" lon="-0.62000141479074954986572265625">
        <ele>748.5999755859375</ele>
        <time>2022-08-26T19:55:17.000Z</time>
      </trkpt>
      <trkpt lat="39.960336796939373016357421875" lon="-0.6199483573436737060546875">
        <ele>748.4000244140625</ele>
        <time>2022-08-26T19:55:18.000Z</time>
      </trkpt>
      <trkpt lat="39.9600539915263652801513671875" lon="-0.6197054497897624969482421875">
        <ele>747.20001220703125</ele>
        <time>2022-08-26T19:55:22.000Z</time>
      </trkpt>
      <trkpt lat="39.95998735539615154266357421875" lon="-0.61963998712599277496337890625">
        <ele>747</ele>
        <time>2022-08-26T19:55:23.000Z</time>
      </trkpt>
      <trkpt lat="39.95962701737880706787109375" lon="-0.6191951595246791839599609375">
        <ele>746.4000244140625</ele>
        <time>2022-08-26T19:55:29.000Z</time>
      </trkpt>
      <trkpt lat="39.95957027189433574676513671875" lon="-0.619109831750392913818359375">
        <ele>746.20001220703125</ele>
        <time>2022-08-26T19:55:30.000Z</time>
      </trkpt>
      <trkpt lat="39.959314204752445220947265625" lon="-0.6186421215534210205078125">
        <ele>745.4000244140625</ele>
        <time>2022-08-26T19:55:35.000Z</time>
      </trkpt>
      <trkpt lat="39.95927028357982635498046875" lon="-0.61854430474340915679931640625">
        <ele>745.4000244140625</ele>
        <time>2022-08-26T19:55:36.000Z</time>
      </trkpt>
      <trkpt lat="39.9590210057795047760009765625" lon="-0.6179606728255748748779296875">
        <ele>744.4000244140625</ele>
        <time>2022-08-26T19:55:42.000Z</time>
      </trkpt>
      <trkpt lat="39.958978928625583648681640625" lon="-0.61786620877683162689208984375">
        <ele>744.20001220703125</ele>
        <time>2022-08-26T19:55:43.000Z</time>
      </trkpt>
      <trkpt lat="39.95881162583827972412109375" lon="-0.617492459714412689208984375">
        <ele>743.20001220703125</ele>
        <time>2022-08-26T19:55:47.000Z</time>
      </trkpt>
      <trkpt lat="39.958604760468006134033203125" lon="-0.6170118413865566253662109375">
        <ele>742.20001220703125</ele>
        <time>2022-08-26T19:55:52.000Z</time>
      </trkpt>
      <trkpt lat="39.95856176130473613739013671875" lon="-0.61691486276686191558837890625">
        <ele>742</ele>
        <time>2022-08-26T19:55:53.000Z</time>
      </trkpt>
      <trkpt lat="39.95824459008872509002685546875" lon="-0.6162549555301666259765625">
        <ele>741</ele>
        <time>2022-08-26T19:56:00.000Z</time>
      </trkpt>
      <trkpt lat="39.95813646353781223297119140625" lon="-0.61607516370713710784912109375">
        <ele>740.5999755859375</ele>
        <time>2022-08-26T19:56:02.000Z</time>
      </trkpt>
      <trkpt lat="39.95789355598390102386474609375" lon="-0.6157471798360347747802734375">
        <ele>739.79998779296875</ele>
        <time>2022-08-26T19:56:06.000Z</time>
      </trkpt>
      <trkpt lat="39.95776355266571044921875" lon="-0.61560108326375484466552734375">
        <ele>739.5999755859375</ele>
        <time>2022-08-26T19:56:08.000Z</time>
      </trkpt>
      <trkpt lat="39.9574857763946056365966796875" lon="-0.6153418309986591339111328125">
        <ele>738.79998779296875</ele>
        <time>2022-08-26T19:56:12.000Z</time>
      </trkpt>
      <trkpt lat="39.95726625435054302215576171875" lon="-0.61517410911619663238525390625">
        <ele>738</ele>
        <time>2022-08-26T19:56:15.000Z</time>
      </trkpt>
      <trkpt lat="39.957114793360233306884765625" lon="-0.61508006416261196136474609375">
        <ele>737.5999755859375</ele>
        <time>2022-08-26T19:56:17.000Z</time>
      </trkpt>
      <trkpt lat="39.95680290274322032928466796875" lon="-0.61492986045777797698974609375">
        <ele>736.79998779296875</ele>
        <time>2022-08-26T19:56:21.000Z</time>
      </trkpt>
      <trkpt lat="39.95672193355858325958251953125" lon="-0.614899434149265289306640625">
        <ele>736.5999755859375</ele>
        <time>2022-08-26T19:56:22.000Z</time>
      </trkpt>
      <trkpt lat="39.95631256140768527984619140625" lon="-0.61478443443775177001953125">
        <ele>735.4000244140625</ele>
        <time>2022-08-26T19:56:27.000Z</time>
      </trkpt>
      <trkpt lat="39.9562318436801433563232421875" lon="-0.61476943083107471466064453125">
        <ele>735.20001220703125</ele>
        <time>2022-08-26T19:56:28.000Z</time>
      </trkpt>
      <trkpt lat="39.955901764333248138427734375" lon="-0.614748559892177581787109375">
        <ele>734.20001220703125</ele>
        <time>2022-08-26T19:56:32.000Z</time>
      </trkpt>
      <trkpt lat="39.95573370717465877532958984375" lon="-0.6147591210901737213134765625">
        <ele>733.79998779296875</ele>
        <time>2022-08-26T19:56:34.000Z</time>
      </trkpt>
      <trkpt lat="39.9553923122584819793701171875" lon="-0.61481796205043792724609375">
        <ele>733.20001220703125</ele>
        <time>2022-08-26T19:56:38.000Z</time>
      </trkpt>
      <trkpt lat="39.95514345355331897735595703125" lon="-0.61488778330385684967041015625">
        <ele>733</ele>
        <time>2022-08-26T19:56:41.000Z</time>
      </trkpt>
      <trkpt lat="39.95481991209089756011962890625" lon="-0.61503027565777301788330078125">
        <ele>732.20001220703125</ele>
        <time>2022-08-26T19:56:45.000Z</time>
      </trkpt>
      <trkpt lat="39.95465814135968685150146484375" lon="-0.61512012965977191925048828125">
        <ele>732</ele>
        <time>2022-08-26T19:56:47.000Z</time>
      </trkpt>
      <trkpt lat="39.95433057658374309539794921875" lon="-0.61530469916760921478271484375">
        <ele>731</ele>
        <time>2022-08-26T19:56:51.000Z</time>
      </trkpt>
      <trkpt lat="39.9538316018879413604736328125" lon="-0.61558750458061695098876953125">
        <ele>730.20001220703125</ele>
        <time>2022-08-26T19:56:57.000Z</time>
      </trkpt>
      <trkpt lat="39.95375029742717742919921875" lon="-0.61563343740999698638916015625">
        <ele>730</ele>
        <time>2022-08-26T19:56:58.000Z</time>
      </trkpt>
      <trkpt lat="39.95326037518680095672607421875" lon="-0.6158594973385334014892578125">
        <ele>729</ele>
        <time>2022-08-26T19:57:04.000Z</time>
      </trkpt>
      <trkpt lat="39.9527536891400814056396484375" lon="-0.61595748178660869598388671875">
        <ele>727.5999755859375</ele>
        <time>2022-08-26T19:57:10.000Z</time>
      </trkpt>
      <trkpt lat="39.95231959037482738494873046875" lon="-0.6159322522580623626708984375">
        <ele>726.5999755859375</ele>
        <time>2022-08-26T19:57:15.000Z</time>
      </trkpt>
      <trkpt lat="39.9521515332162380218505859375" lon="-0.6158960424363613128662109375">
        <ele>726.20001220703125</ele>
        <time>2022-08-26T19:57:17.000Z</time>
      </trkpt>
      <trkpt lat="39.9519862420856952667236328125" lon="-0.61584533192217350006103515625">
        <ele>725.5999755859375</ele>
        <time>2022-08-26T19:57:19.000Z</time>
      </trkpt>
      <trkpt lat="39.95167351327836513519287109375" lon="-0.615695379674434661865234375">
        <ele>725</ele>
        <time>2022-08-26T19:57:23.000Z</time>
      </trkpt>
      <trkpt lat="39.95159908197820186614990234375" lon="-0.6156527996063232421875">
        <ele>724.5999755859375</ele>
        <time>2022-08-26T19:57:24.000Z</time>
      </trkpt>
      <trkpt lat="39.95130655355751514434814453125" lon="-0.61543260701000690460205078125">
        <ele>723.5999755859375</ele>
        <time>2022-08-26T19:57:28.000Z</time>
      </trkpt>
      <trkpt lat="39.95090204291045665740966796875" lon="-0.61499859206378459930419921875">
        <ele>722.5999755859375</ele>
        <time>2022-08-26T19:57:34.000Z</time>
      </trkpt>
      <trkpt lat="39.95059442706406116485595703125" lon="-0.6144607253372669219970703125">
        <ele>721.4000244140625</ele>
        <time>2022-08-26T19:57:40.000Z</time>
      </trkpt>
      <trkpt lat="39.95038655586540699005126953125" lon="-0.613957308232784271240234375">
        <ele>720.4000244140625</ele>
        <time>2022-08-26T19:57:45.000Z</time>
      </trkpt>
      <trkpt lat="39.95032235048711299896240234375" lon="-0.6137435697019100189208984375">
        <ele>720.20001220703125</ele>
        <time>2022-08-26T19:57:47.000Z</time>
      </trkpt>
      <trkpt lat="39.95020165108144283294677734375" lon="-0.613097660243511199951171875">
        <ele>719.20001220703125</ele>
        <time>2022-08-26T19:57:53.000Z</time>
      </trkpt>
      <trkpt lat="39.9501921795308589935302734375" lon="-0.61299380846321582794189453125">
        <ele>719</ele>
        <time>2022-08-26T19:57:54.000Z</time>
      </trkpt>
      <trkpt lat="39.95018756948411464691162109375" lon="-0.6125883758068084716796875">
        <ele>718</ele>
        <time>2022-08-26T19:57:58.000Z</time>
      </trkpt>
      <trkpt lat="39.95022679679095745086669921875" lon="-0.61218847520649433135986328125">
        <ele>717</ele>
        <time>2022-08-26T19:58:02.000Z</time>
      </trkpt>
      <trkpt lat="39.95025848038494586944580078125" lon="-0.6119981221854686737060546875">
        <ele>716.4000244140625</ele>
        <time>2022-08-26T19:58:04.000Z</time>
      </trkpt>
      <trkpt lat="39.95037767104804515838623046875" lon="-0.61153183691203594207763671875">
        <ele>715.79998779296875</ele>
        <time>2022-08-26T19:58:09.000Z</time>
      </trkpt>
      <trkpt lat="39.950438775122165679931640625" lon="-0.61134424991905689239501953125">
        <ele>715.5999755859375</ele>
        <time>2022-08-26T19:58:11.000Z</time>
      </trkpt>
      <trkpt lat="39.9506370909512042999267578125" lon="-0.61078467406332492828369140625">
        <ele>714.79998779296875</ele>
        <time>2022-08-26T19:58:17.000Z</time>
      </trkpt>
      <trkpt lat="39.95070691220462322235107421875" lon="-0.6105983443558216094970703125">
        <ele>714.4000244140625</ele>
        <time>2022-08-26T19:58:19.000Z</time>
      </trkpt>
      <trkpt lat="39.95081000961363315582275390625" lon="-0.61032048426568508148193359375">
        <ele>713.5999755859375</ele>
        <time>2022-08-26T19:58:22.000Z</time>
      </trkpt>
      <trkpt lat="39.950981251895427703857421875" lon="-0.609851516783237457275390625">
        <ele>712.79998779296875</ele>
        <time>2022-08-26T19:58:27.000Z</time>
      </trkpt>
      <trkpt lat="39.95101578533649444580078125" lon="-0.60975621454417705535888671875">
        <ele>712.5999755859375</ele>
        <time>2022-08-26T19:58:28.000Z</time>
      </trkpt>
      <trkpt lat="39.95115458965301513671875" lon="-0.60937332920730113983154296875">
        <ele>711.5999755859375</ele>
        <time>2022-08-26T19:58:32.000Z</time>
      </trkpt>
      <trkpt lat="39.9513277597725391387939453125" lon="-0.6088936328887939453125">
        <ele>710.5999755859375</ele>
        <time>2022-08-26T19:58:37.000Z</time>
      </trkpt>
      <trkpt lat="39.95146497152745723724365234375" lon="-0.60851066373288631439208984375">
        <ele>709.79998779296875</ele>
        <time>2022-08-26T19:58:41.000Z</time>
      </trkpt>
      <trkpt lat="39.95150017552077770233154296875" lon="-0.6084160320460796356201171875">
        <ele>709.5999755859375</ele>
        <time>2022-08-26T19:58:42.000Z</time>
      </trkpt>
      <trkpt lat="39.95169840753078460693359375" lon="-0.607866011559963226318359375">
        <ele>708.4000244140625</ele>
        <time>2022-08-26T19:58:48.000Z</time>
      </trkpt>
      <trkpt lat="39.95179287157952785491943359375" lon="-0.60759603045880794525146484375">
        <ele>708</ele>
        <time>2022-08-26T19:58:51.000Z</time>
      </trkpt>
      <trkpt lat="39.95188021101057529449462890625" lon="-0.60732378624379634857177734375">
        <ele>707.4000244140625</ele>
        <time>2022-08-26T19:58:54.000Z</time>
      </trkpt>
      <trkpt lat="39.95198280550539493560791015625" lon="-0.6069730035960674285888671875">
        <ele>706.79998779296875</ele>
        <time>2022-08-26T19:58:58.000Z</time>
      </trkpt>
      <trkpt lat="39.95199923403561115264892578125" lon="-0.60688532888889312744140625">
        <ele>706.20001220703125</ele>
        <time>2022-08-26T19:58:59.000Z</time>
      </trkpt>
      <trkpt lat="39.9520517885684967041015625" lon="-0.6064368970692157745361328125">
        <ele>705.4000244140625</ele>
        <time>2022-08-26T19:59:04.000Z</time>
      </trkpt>
      <trkpt lat="39.9520539678633213043212890625" lon="-0.60634545050561428070068359375">
        <ele>705.20001220703125</ele>
        <time>2022-08-26T19:59:05.000Z</time>
      </trkpt>
      <trkpt lat="39.9520479328930377960205078125" lon="-0.60576257295906543731689453125">
        <ele>704.4000244140625</ele>
        <time>2022-08-26T19:59:11.000Z</time>
      </trkpt>
      <trkpt lat="39.95203594677150249481201171875" lon="-0.6055671907961368560791015625">
        <ele>704</ele>
        <time>2022-08-26T19:59:13.000Z</time>
      </trkpt>
      <trkpt lat="39.95199638418853282928466796875" lon="-0.6049144081771373748779296875">
        <ele>703.20001220703125</ele>
        <time>2022-08-26T19:59:20.000Z</time>
      </trkpt>
      <trkpt lat="39.9519936181604862213134765625" lon="-0.6048235483467578887939453125">
        <ele>702.79998779296875</ele>
        <time>2022-08-26T19:59:21.000Z</time>
      </trkpt>
      <trkpt lat="39.95196403004229068756103515625" lon="-0.6041959114372730255126953125">
        <ele>701.79998779296875</ele>
        <time>2022-08-26T19:59:28.000Z</time>
      </trkpt>
      <trkpt lat="39.951946847140789031982421875" lon="-0.60392073355615139007568359375">
        <ele>700.79998779296875</ele>
        <time>2022-08-26T19:59:31.000Z</time>
      </trkpt>
      <trkpt lat="39.9519131518900394439697265625" lon="-0.6033536978065967559814453125">
        <ele>700</ele>
        <time>2022-08-26T19:59:37.000Z</time>
      </trkpt>
      <trkpt lat="39.9519015848636627197265625" lon="-0.6031578965485095977783203125">
        <ele>699.5999755859375</ele>
        <time>2022-08-26T19:59:39.000Z</time>
      </trkpt>
      <trkpt lat="39.9518591724336147308349609375" lon="-0.6023736856877803802490234375">
        <ele>698.4000244140625</ele>
        <time>2022-08-26T19:59:47.000Z</time>
      </trkpt>
      <trkpt lat="39.95185154490172863006591796875" lon="-0.60217729769647121429443359375">
        <ele>698.20001220703125</ele>
        <time>2022-08-26T19:59:49.000Z</time>
      </trkpt>
      <trkpt lat="39.95185070671141147613525390625" lon="-0.601705648005008697509765625">
        <ele>697.4000244140625</ele>
        <time>2022-08-26T19:59:54.000Z</time>
      </trkpt>
      <trkpt lat="39.95186269283294677734375" lon="-0.60152417980134487152099609375">
        <ele>697</ele>
        <time>2022-08-26T19:59:56.000Z</time>
      </trkpt>
      <trkpt lat="39.9518987350165843963623046875" lon="-0.60115076601505279541015625">
        <ele>696.4000244140625</ele>
        <time>2022-08-26T20:00:00.000Z</time>
      </trkpt>
      <trkpt lat="39.95195724070072174072265625" lon="-0.60079026035964488983154296875">
        <ele>695.79998779296875</ele>
        <time>2022-08-26T20:00:04.000Z</time>
      </trkpt>
      <trkpt lat="39.95200996287167072296142578125" lon="-0.60053746215999126434326171875">
        <ele>695.4000244140625</ele>
        <time>2022-08-26T20:00:07.000Z</time>
      </trkpt>
      <trkpt lat="39.95209696702659130096435546875" lon="-0.60020620934665203094482421875">
        <ele>694.5999755859375</ele>
        <time>2022-08-26T20:00:11.000Z</time>
      </trkpt>
      <trkpt lat="39.9521223641932010650634765625" lon="-0.600126497447490692138671875">
        <ele>694.4000244140625</ele>
        <time>2022-08-26T20:00:12.000Z</time>
      </trkpt>
      <trkpt lat="39.9522625096142292022705078125" lon="-0.59974654577672481536865234375">
        <ele>693.4000244140625</ele>
        <time>2022-08-26T20:00:17.000Z</time>
      </trkpt>
      <trkpt lat="39.95236233808100223541259765625" lon="-0.59952266514301300048828125">
        <ele>692.79998779296875</ele>
        <time>2022-08-26T20:00:20.000Z</time>
      </trkpt>
      <trkpt lat="39.9525106139481067657470703125" lon="-0.59921898879110813140869140625">
        <ele>692.20001220703125</ele>
        <time>2022-08-26T20:00:24.000Z</time>
      </trkpt>
      <trkpt lat="39.9526450596749782562255859375" lon="-0.59901128523051738739013671875">
        <ele>692</ele>
        <time>2022-08-26T20:00:27.000Z</time>
      </trkpt>
      <trkpt lat="39.95290934108197689056396484375" lon="-0.598629154264926910400390625">
        <ele>691.20001220703125</ele>
        <time>2022-08-26T20:00:33.000Z</time>
      </trkpt>
      <trkpt lat="39.95318342931568622589111328125" lon="-0.59829823672771453857421875">
        <ele>690.5999755859375</ele>
        <time>2022-08-26T20:00:39.000Z</time>
      </trkpt>
      <trkpt lat="39.9535375647246837615966796875" lon="-0.59797427617013454437255859375">
        <ele>690.4000244140625</ele>
        <time>2022-08-26T20:00:46.000Z</time>
      </trkpt>
      <trkpt lat="39.95358911342918872833251953125" lon="-0.597932450473308563232421875">
        <ele>690.20001220703125</ele>
        <time>2022-08-26T20:00:47.000Z</time>
      </trkpt>
      <trkpt lat="39.9536931328475475311279296875" lon="-0.59785542078316211700439453125">
        <ele>690.20001220703125</ele>
        <time>2022-08-26T20:00:49.000Z</time>
      </trkpt>
      <trkpt lat="39.953793548047542572021484375" lon="-0.5977750383317470550537109375">
        <ele>689.79998779296875</ele>
        <time>2022-08-26T20:00:51.000Z</time>
      </trkpt>
      <trkpt lat="39.95420761406421661376953125" lon="-0.59754713438451290130615234375">
        <ele>689.79998779296875</ele>
        <time>2022-08-26T20:00:58.000Z</time>
      </trkpt>
      <trkpt lat="39.9545306526124477386474609375" lon="-0.59742056764662265777587890625">
        <ele>689.20001220703125</ele>
        <time>2022-08-26T20:01:03.000Z</time>
      </trkpt>
      <trkpt lat="39.95460047386586666107177734375" lon="-0.59739290736615657806396484375">
        <ele>689</ele>
        <time>2022-08-26T20:01:04.000Z</time>
      </trkpt>
      <trkpt lat="39.95481647551059722900390625" lon="-0.59730741195380687713623046875">
        <ele>688.20001220703125</ele>
        <time>2022-08-26T20:01:07.000Z</time>
      </trkpt>
      <trkpt lat="39.95509366504848003387451171875" lon="-0.59719190932810306549072265625">
        <ele>687</ele>
        <time>2022-08-26T20:01:11.000Z</time>
      </trkpt>
      <trkpt lat="39.955162815749645233154296875" lon="-0.59716693125665187835693359375">
        <ele>686.5999755859375</ele>
        <time>2022-08-26T20:01:12.000Z</time>
      </trkpt>
      <trkpt lat="39.95537194423377513885498046875" lon="-0.59709032066166400909423828125">
        <ele>686</ele>
        <time>2022-08-26T20:01:15.000Z</time>
      </trkpt>
      <trkpt lat="39.9558593519032001495361328125" lon="-0.5969063378870487213134765625">
        <ele>685</ele>
        <time>2022-08-26T20:01:22.000Z</time>
      </trkpt>
      <trkpt lat="39.9559287540614604949951171875" lon="-0.596880018711090087890625">
        <ele>684.79998779296875</ele>
        <time>2022-08-26T20:01:23.000Z</time>
      </trkpt>
      <trkpt lat="39.9564004875719547271728515625" lon="-0.59666267596185207366943359375">
        <ele>684</ele>
        <time>2022-08-26T20:01:30.000Z</time>
      </trkpt>
      <trkpt lat="39.95652562938630580902099609375" lon="-0.5965821258723735809326171875">
        <ele>683.5999755859375</ele>
        <time>2022-08-26T20:01:32.000Z</time>
      </trkpt>
      <trkpt lat="39.95689895935356616973876953125" lon="-0.59631298296153545379638671875">
        <ele>682.4000244140625</ele>
        <time>2022-08-26T20:01:38.000Z</time>
      </trkpt>
      <trkpt lat="39.95695763267576694488525390625" lon="-0.59626453556120395660400390625">
        <ele>682.20001220703125</ele>
        <time>2022-08-26T20:01:39.000Z</time>
      </trkpt>
      <trkpt lat="39.95717824436724185943603515625" lon="-0.59605264104902744293212890625">
        <ele>681.20001220703125</ele>
        <time>2022-08-26T20:01:43.000Z</time>
      </trkpt>
      <trkpt lat="39.95738930068910121917724609375" lon="-0.595830939710140228271484375">
        <ele>680.4000244140625</ele>
        <time>2022-08-26T20:01:47.000Z</time>
      </trkpt>
      <trkpt lat="39.95754428207874298095703125" lon="-0.59565064497292041778564453125">
        <ele>680.20001220703125</ele>
        <time>2022-08-26T20:01:50.000Z</time>
      </trkpt>
      <trkpt lat="39.9576866067945957183837890625" lon="-0.59545367024838924407958984375">
        <ele>679.5999755859375</ele>
        <time>2022-08-26T20:01:53.000Z</time>
      </trkpt>
      <trkpt lat="39.95786882936954498291015625" lon="-0.595171786844730377197265625">
        <ele>679</ele>
        <time>2022-08-26T20:01:57.000Z</time>
      </trkpt>
      <trkpt lat="39.95799623429775238037109375" lon="-0.59495997615158557891845703125">
        <ele>678.5999755859375</ele>
        <time>2022-08-26T20:02:00.000Z</time>
      </trkpt>
      <trkpt lat="39.95814803056418895721435546875" lon="-0.5946549586951732635498046875">
        <ele>678</ele>
        <time>2022-08-26T20:02:04.000Z</time>
      </trkpt>
      <trkpt lat="39.958281219005584716796875" lon="-0.59432529844343662261962890625">
        <ele>677.20001220703125</ele>
        <time>2022-08-26T20:02:08.000Z</time>
      </trkpt>
      <trkpt lat="39.95833863504230976104736328125" lon="-0.594154559075832366943359375">
        <ele>677</ele>
        <time>2022-08-26T20:02:10.000Z</time>
      </trkpt>
      <trkpt lat="39.95848850347101688385009765625" lon="-0.59361384250223636627197265625">
        <ele>676</ele>
        <time>2022-08-26T20:02:16.000Z</time>
      </trkpt>
      <trkpt lat="39.95857022702693939208984375" lon="-0.5931455455720424652099609375">
        <ele>675.20001220703125</ele>
        <time>2022-08-26T20:02:21.000Z</time>
      </trkpt>
      <trkpt lat="39.95859025977551937103271484375" lon="-0.59295485727488994598388671875">
        <ele>674.5999755859375</ele>
        <time>2022-08-26T20:02:23.000Z</time>
      </trkpt>
      <trkpt lat="39.95862789452075958251953125" lon="-0.5925775878131389617919921875">
        <ele>674</ele>
        <time>2022-08-26T20:02:27.000Z</time>
      </trkpt>
      <trkpt lat="39.95865647681057453155517578125" lon="-0.5922983027994632720947265625">
        <ele>673.5999755859375</ele>
        <time>2022-08-26T20:02:30.000Z</time>
      </trkpt>
      <trkpt lat="39.95864742435514926910400390625" lon="-0.5918379686772823333740234375">
        <ele>673.20001220703125</ele>
        <time>2022-08-26T20:02:35.000Z</time>
      </trkpt>
      <trkpt lat="39.9586210213601589202880859375" lon="-0.59166320599615573883056640625">
        <ele>673</ele>
        <time>2022-08-26T20:02:37.000Z</time>
      </trkpt>
      <trkpt lat="39.958556480705738067626953125" lon="-0.59130848385393619537353515625">
        <ele>671.4000244140625</ele>
        <time>2022-08-26T20:02:41.000Z</time>
      </trkpt>
      <trkpt lat="39.958539716899394989013671875" lon="-0.59121494181454181671142578125">
        <ele>671</ele>
        <time>2022-08-26T20:02:42.000Z</time>
      </trkpt>
      <trkpt lat="39.95847844518721103668212890625" lon="-0.59084228239953517913818359375">
        <ele>670.4000244140625</ele>
        <time>2022-08-26T20:02:46.000Z</time>
      </trkpt>
      <trkpt lat="39.9584097974002361297607421875" lon="-0.590473227202892303466796875">
        <ele>670.20001220703125</ele>
        <time>2022-08-26T20:02:50.000Z</time>
      </trkpt>
      <trkpt lat="39.9582860805094242095947265625" lon="-0.5899409763514995574951171875">
        <ele>669.20001220703125</ele>
        <time>2022-08-26T20:02:56.000Z</time>
      </trkpt>
      <trkpt lat="39.95823536999523639678955078125" lon="-0.58976436965167522430419921875">
        <ele>668.5999755859375</ele>
        <time>2022-08-26T20:02:58.000Z</time>
      </trkpt>
      <trkpt lat="39.95817862451076507568359375" lon="-0.589592121541500091552734375">
        <ele>668.20001220703125</ele>
        <time>2022-08-26T20:03:00.000Z</time>
      </trkpt>
      <trkpt lat="39.9580510519444942474365234375" lon="-0.589255504310131072998046875">
        <ele>667.5999755859375</ele>
        <time>2022-08-26T20:03:04.000Z</time>
      </trkpt>
      <trkpt lat="39.9579782970249652862548828125" lon="-0.58908476494252681732177734375">
        <ele>667</ele>
        <time>2022-08-26T20:03:06.000Z</time>
      </trkpt>
      <trkpt lat="39.9577273428440093994140625" lon="-0.58860649354755878448486328125">
        <ele>666.20001220703125</ele>
        <time>2022-08-26T20:03:12.000Z</time>
      </trkpt>
      <trkpt lat="39.95763120241463184356689453125" lon="-0.58845645748078823089599609375">
        <ele>666</ele>
        <time>2022-08-26T20:03:14.000Z</time>
      </trkpt>
      <trkpt lat="39.95731017552316188812255859375" lon="-0.58802403509616851806640625">
        <ele>665</ele>
        <time>2022-08-26T20:03:20.000Z</time>
      </trkpt>
      <trkpt lat="39.95725066401064395904541015625" lon="-0.5879571475088596343994140625">
        <ele>664.79998779296875</ele>
        <time>2022-08-26T20:03:21.000Z</time>
      </trkpt>
      <trkpt lat="39.9568242765963077545166015625" lon="-0.58753159828484058380126953125">
        <ele>663.79998779296875</ele>
        <time>2022-08-26T20:03:28.000Z</time>
      </trkpt>
      <trkpt lat="39.956623613834381103515625" lon="-0.587377957999706268310546875">
        <ele>663.20001220703125</ele>
        <time>2022-08-26T20:03:31.000Z</time>
      </trkpt>
      <trkpt lat="39.9565578997135162353515625" lon="-0.58732590638101100921630859375">
        <ele>663.20001220703125</ele>
        <time>2022-08-26T20:03:32.000Z</time>
      </trkpt>
      <trkpt lat="39.956422783434391021728515625" lon="-0.58723370544612407684326171875">
        <ele>662.79998779296875</ele>
        <time>2022-08-26T20:03:34.000Z</time>
      </trkpt>
      <trkpt lat="39.956086836755275726318359375" lon="-0.58704310096800327301025390625">
        <ele>661.79998779296875</ele>
        <time>2022-08-26T20:03:39.000Z</time>
      </trkpt>
      <trkpt lat="39.95601475238800048828125" lon="-0.587011836469173431396484375">
        <ele>661.5999755859375</ele>
        <time>2022-08-26T20:03:40.000Z</time>
      </trkpt>
      <trkpt lat="39.95564754121005535125732421875" lon="-0.5868889577686786651611328125">
        <ele>660.79998779296875</ele>
        <time>2022-08-26T20:03:45.000Z</time>
      </trkpt>
      <trkpt lat="39.955497421324253082275390625" lon="-0.58685366995632648468017578125">
        <ele>660.5999755859375</ele>
        <time>2022-08-26T20:03:47.000Z</time>
      </trkpt>
      <trkpt lat="39.95519693009555339813232421875" lon="-0.5868150293827056884765625">
        <ele>660</ele>
        <time>2022-08-26T20:03:51.000Z</time>
      </trkpt>
      <trkpt lat="39.9550422839820384979248046875" lon="-0.5868044681847095489501953125">
        <ele>659.5999755859375</ele>
        <time>2022-08-26T20:03:53.000Z</time>
      </trkpt>
      <trkpt lat="39.9547361768782138824462890625" lon="-0.58681435883045196533203125">
        <ele>659</ele>
        <time>2022-08-26T20:03:57.000Z</time>
      </trkpt>
      <trkpt lat="39.95451598428189754486083984375" lon="-0.58683313429355621337890625">
        <ele>658.20001220703125</ele>
        <time>2022-08-26T20:04:00.000Z</time>
      </trkpt>
      <trkpt lat="39.95429570786654949188232421875" lon="-0.58688267134130001068115234375">
        <ele>657.5999755859375</ele>
        <time>2022-08-26T20:04:03.000Z</time>
      </trkpt>
      <trkpt lat="39.95407543145120143890380859375" lon="-0.586932040750980377197265625">
        <ele>657.20001220703125</ele>
        <time>2022-08-26T20:04:06.000Z</time>
      </trkpt>
      <trkpt lat="39.95377267710864543914794921875" lon="-0.58699130080640316009521484375">
        <ele>656.20001220703125</ele>
        <time>2022-08-26T20:04:10.000Z</time>
      </trkpt>
      <trkpt lat="39.95369539596140384674072265625" lon="-0.5870083160698413848876953125">
        <ele>656</ele>
        <time>2022-08-26T20:04:11.000Z</time>
      </trkpt>
      <trkpt lat="39.953228272497653961181640625" lon="-0.58711619116365909576416015625">
        <ele>654.79998779296875</ele>
        <time>2022-08-26T20:04:17.000Z</time>
      </trkpt>
      <trkpt lat="39.9530695192515850067138671875" lon="-0.5871481262147426605224609375">
        <ele>654.4000244140625</ele>
        <time>2022-08-26T20:04:19.000Z</time>
      </trkpt>
      <trkpt lat="39.95279937051236629486083984375" lon="-0.58720336295664310455322265625">
        <ele>653.79998779296875</ele>
        <time>2022-08-26T20:04:23.000Z</time>
      </trkpt>
      <trkpt lat="39.95247985236346721649169921875" lon="-0.58727058582007884979248046875">
        <ele>652.79998779296875</ele>
        <time>2022-08-26T20:04:28.000Z</time>
      </trkpt>
      <trkpt lat="39.95234926231205463409423828125" lon="-0.5872996710240840911865234375">
        <ele>652.4000244140625</ele>
        <time>2022-08-26T20:04:30.000Z</time>
      </trkpt>
      <trkpt lat="39.952219761908054351806640625" lon="-0.58732842095196247100830078125">
        <ele>652</ele>
        <time>2022-08-26T20:04:32.000Z</time>
      </trkpt>
      <trkpt lat="39.95179572142660617828369140625" lon="-0.5874176882207393646240234375">
        <ele>651.20001220703125</ele>
        <time>2022-08-26T20:04:38.000Z</time>
      </trkpt>
      <trkpt lat="39.9516502954065799713134765625" lon="-0.58745406568050384521484375">
        <ele>650.79998779296875</ele>
        <time>2022-08-26T20:04:40.000Z</time>
      </trkpt>
      <trkpt lat="39.95127352885901927947998046875" lon="-0.58753989636898040771484375">
        <ele>650.20001220703125</ele>
        <time>2022-08-26T20:04:45.000Z</time>
      </trkpt>
      <trkpt lat="39.95096490718424320220947265625" lon="-0.58760737068951129913330078125">
        <ele>649.5999755859375</ele>
        <time>2022-08-26T20:04:49.000Z</time>
      </trkpt>
      <trkpt lat="39.9506605602800846099853515625" lon="-0.587668977677822113037109375">
        <ele>649</ele>
        <time>2022-08-26T20:04:53.000Z</time>
      </trkpt>
      <trkpt lat="39.95058453641831874847412109375" lon="-0.58768414892256259918212890625">
        <ele>648.5999755859375</ele>
        <time>2022-08-26T20:04:54.000Z</time>
      </trkpt>
      <trkpt lat="39.950184635818004608154296875" lon="-0.5877056904137134552001953125">
        <ele>647.5999755859375</ele>
        <time>2022-08-26T20:04:59.000Z</time>
      </trkpt>
      <trkpt lat="39.9497891776263713836669921875" lon="-0.5875973962247371673583984375">
        <ele>646.79998779296875</ele>
        <time>2022-08-26T20:05:04.000Z</time>
      </trkpt>
      <trkpt lat="39.94963486678898334503173828125" lon="-0.58753243647515773773193359375">
        <ele>646.79998779296875</ele>
        <time>2022-08-26T20:05:06.000Z</time>
      </trkpt>
      <trkpt lat="39.94933546520769596099853515625" lon="-0.58734216727316379547119140625">
        <ele>645.79998779296875</ele>
        <time>2022-08-26T20:05:10.000Z</time>
      </trkpt>
      <trkpt lat="39.9492649734020233154296875" lon="-0.58728265576064586639404296875">
        <ele>645.5999755859375</ele>
        <time>2022-08-26T20:05:11.000Z</time>
      </trkpt>
      <trkpt lat="39.949000440537929534912109375" lon="-0.58699917979538440704345703125">
        <ele>644.79998779296875</ele>
        <time>2022-08-26T20:05:15.000Z</time>
      </trkpt>
      <trkpt lat="39.94888451881706714630126953125" lon="-0.5868373252451419830322265625">
        <ele>644.5999755859375</ele>
        <time>2022-08-26T20:05:17.000Z</time>
      </trkpt>
      <trkpt lat="39.9487414397299289703369140625" lon="-0.5865709483623504638671875">
        <ele>644.20001220703125</ele>
        <time>2022-08-26T20:05:20.000Z</time>
      </trkpt>
      <trkpt lat="39.94865921325981616973876953125" lon="-0.586387552320957183837890625">
        <ele>643.5999755859375</ele>
        <time>2022-08-26T20:05:22.000Z</time>
      </trkpt>
      <trkpt lat="39.9485372565686702728271484375" lon="-0.5860081873834133148193359375">
        <ele>642.5999755859375</ele>
        <time>2022-08-26T20:05:26.000Z</time>
      </trkpt>
      <trkpt lat="39.94851303286850452423095703125" lon="-0.5859111249446868896484375">
        <ele>642.4000244140625</ele>
        <time>2022-08-26T20:05:27.000Z</time>
      </trkpt>
      <trkpt lat="39.94843684136867523193359375" lon="-0.58542137034237384796142578125">
        <ele>641.5999755859375</ele>
        <time>2022-08-26T20:05:32.000Z</time>
      </trkpt>
      <trkpt lat="39.94843390770256519317626953125" lon="-0.58532439172267913818359375">
        <ele>641.4000244140625</ele>
        <time>2022-08-26T20:05:33.000Z</time>
      </trkpt>
      <trkpt lat="39.94843474589288234710693359375" lon="-0.58522640727460384368896484375">
        <ele>641.20001220703125</ele>
        <time>2022-08-26T20:05:34.000Z</time>
      </trkpt>
      <trkpt lat="39.9484393559396266937255859375" lon="-0.58502708561718463897705078125">
        <ele>640.79998779296875</ele>
        <time>2022-08-26T20:05:36.000Z</time>
      </trkpt>
      <trkpt lat="39.94849073700606822967529296875" lon="-0.58461268432438373565673828125">
        <ele>640.20001220703125</ele>
        <time>2022-08-26T20:05:40.000Z</time>
      </trkpt>
      <trkpt lat="39.9485161341726779937744140625" lon="-0.58451193384826183319091796875">
        <ele>640</ele>
        <time>2022-08-26T20:05:41.000Z</time>
      </trkpt>
      <trkpt lat="39.948716126382350921630859375" lon="-0.5839469097554683685302734375">
        <ele>639.20001220703125</ele>
        <time>2022-08-26T20:05:47.000Z</time>
      </trkpt>
      <trkpt lat="39.94891821406781673431396484375" lon="-0.58352655731141567230224609375">
        <ele>638.20001220703125</ele>
        <time>2022-08-26T20:05:52.000Z</time>
      </trkpt>
      <trkpt lat="39.94904578663408756256103515625" lon="-0.583276189863681793212890625">
        <ele>637.4000244140625</ele>
        <time>2022-08-26T20:05:55.000Z</time>
      </trkpt>
      <trkpt lat="39.94912474416196346282958984375" lon="-0.58310679160058498382568359375">
        <ele>637.20001220703125</ele>
        <time>2022-08-26T20:05:57.000Z</time>
      </trkpt>
      <trkpt lat="39.9493184499442577362060546875" lon="-0.5827117525041103363037109375">
        <ele>636.5999755859375</ele>
        <time>2022-08-26T20:06:02.000Z</time>
      </trkpt>
      <trkpt lat="39.94953579269349575042724609375" lon="-0.58228385634720325469970703125">
        <ele>636.20001220703125</ele>
        <time>2022-08-26T20:06:08.000Z</time>
      </trkpt>
      <trkpt lat="39.949603937566280364990234375" lon="-0.58214924298226833343505859375">
        <ele>636.20001220703125</ele>
        <time>2022-08-26T20:06:10.000Z</time>
      </trkpt>
      <trkpt lat="39.949918426573276519775390625" lon="-0.58155186474323272705078125">
        <ele>635.79998779296875</ele>
        <time>2022-08-26T20:06:19.000Z</time>
      </trkpt>
      <trkpt lat="39.95016527362167835235595703125" lon="-0.581071414053440093994140625">
        <ele>635.5999755859375</ele>
        <time>2022-08-26T20:06:26.000Z</time>
      </trkpt>
      <trkpt lat="39.95050926692783832550048828125" lon="-0.58043162338435649871826171875">
        <ele>635.4000244140625</ele>
        <time>2022-08-26T20:06:35.000Z</time>
      </trkpt>
      <trkpt lat="39.9505495838820934295654296875" lon="-0.58035752736032009124755859375">
        <ele>635.4000244140625</ele>
        <time>2022-08-26T20:06:36.000Z</time>
      </trkpt>
      <trkpt lat="39.9506277032196521759033203125" lon="-0.58020480908453464508056640625">
        <ele>635.20001220703125</ele>
        <time>2022-08-26T20:06:38.000Z</time>
      </trkpt>
      <trkpt lat="39.95084538124501705169677734375" lon="-0.579722933471202850341796875">
        <ele>634.5999755859375</ele>
        <time>2022-08-26T20:06:44.000Z</time>
      </trkpt>
      <trkpt lat="39.9509421922266483306884765625" lon="-0.579374246299266815185546875">
        <ele>634.4000244140625</ele>
        <time>2022-08-26T20:06:48.000Z</time>
      </trkpt>
      <trkpt lat="39.95097580365836620330810546875" lon="-0.5792014114558696746826171875">
        <ele>634</ele>
        <time>2022-08-26T20:06:50.000Z</time>
      </trkpt>
      <trkpt lat="39.9510115943849086761474609375" lon="-0.57875742204487323760986328125">
        <ele>633.4000244140625</ele>
        <time>2022-08-26T20:06:55.000Z</time>
      </trkpt>
      <trkpt lat="39.9509639851748943328857421875" lon="-0.57818963192403316497802734375">
        <ele>632.20001220703125</ele>
        <time>2022-08-26T20:07:01.000Z</time>
      </trkpt>
      <trkpt lat="39.9508288688957691192626953125" lon="-0.57765536941587924957275390625">
        <ele>631</ele>
        <time>2022-08-26T20:07:07.000Z</time>
      </trkpt>
      <trkpt lat="39.95062309317290782928466796875" lon="-0.57710501365363597869873046875">
        <ele>629.5999755859375</ele>
        <time>2022-08-26T20:07:13.000Z</time>
      </trkpt>
      <trkpt lat="39.95058671571314334869384765625" lon="-0.5770130641758441925048828125">
        <ele>629.4000244140625</ele>
        <time>2022-08-26T20:07:14.000Z</time>
      </trkpt>
      <trkpt lat="39.9503340013325214385986328125" lon="-0.57640227489173412322998046875">
        <ele>629</ele>
        <time>2022-08-26T20:07:21.000Z</time>
      </trkpt>
      <trkpt lat="39.95030139572918415069580078125" lon="-0.57631677947938442230224609375">
        <ele>628.5999755859375</ele>
        <time>2022-08-26T20:07:22.000Z</time>
      </trkpt>
      <trkpt lat="39.95013174600899219512939453125" lon="-0.575868599116802215576171875">
        <ele>627.79998779296875</ele>
        <time>2022-08-26T20:07:27.000Z</time>
      </trkpt>
      <trkpt lat="39.9500664509832859039306640625" lon="-0.57568327523767948150634765625">
        <ele>627.20001220703125</ele>
        <time>2022-08-26T20:07:29.000Z</time>
      </trkpt>
      <trkpt lat="39.949954636394977569580078125" lon="-0.575301647186279296875">
        <ele>626.20001220703125</ele>
        <time>2022-08-26T20:07:33.000Z</time>
      </trkpt>
      <trkpt lat="39.949857406318187713623046875" lon="-0.5747036822140216827392578125">
        <ele>625</ele>
        <time>2022-08-26T20:07:39.000Z</time>
      </trkpt>
      <trkpt lat="39.9498488567769527435302734375" lon="-0.57460485957562923431396484375">
        <ele>624.79998779296875</ele>
        <time>2022-08-26T20:07:40.000Z</time>
      </trkpt>
      <trkpt lat="39.94983234442770481109619140625" lon="-0.57403564453125">
        <ele>623.79998779296875</ele>
        <time>2022-08-26T20:07:46.000Z</time>
      </trkpt>
      <trkpt lat="39.94982982985675334930419921875" lon="-0.57394352741539478302001953125">
        <ele>623.5999755859375</ele>
        <time>2022-08-26T20:07:47.000Z</time>
      </trkpt>
      <trkpt lat="39.94981993921101093292236328125" lon="-0.57340599596500396728515625">
        <ele>622.79998779296875</ele>
        <time>2022-08-26T20:07:53.000Z</time>
      </trkpt>
      <trkpt lat="39.9498121440410614013671875" lon="-0.57305437512695789337158203125">
        <ele>622</ele>
        <time>2022-08-26T20:07:57.000Z</time>
      </trkpt>
      <trkpt lat="39.94981281459331512451171875" lon="-0.57287894189357757568359375">
        <ele>621.79998779296875</ele>
        <time>2022-08-26T20:07:59.000Z</time>
      </trkpt>
      <trkpt lat="39.94981491006910800933837890625" lon="-0.5727895908057689666748046875">
        <ele>621.79998779296875</ele>
        <time>2022-08-26T20:08:00.000Z</time>
      </trkpt>
      <trkpt lat="39.94981348514556884765625" lon="-0.57270250283181667327880859375">
        <ele>621.5999755859375</ele>
        <time>2022-08-26T20:08:01.000Z</time>
      </trkpt>
      <trkpt lat="39.94980820454657077789306640625" lon="-0.57244308292865753173828125">
        <ele>620.79998779296875</ele>
        <time>2022-08-26T20:08:04.000Z</time>
      </trkpt>
      <trkpt lat="39.949799068272113800048828125" lon="-0.571930110454559326171875">
        <ele>620.20001220703125</ele>
        <time>2022-08-26T20:08:10.000Z</time>
      </trkpt>
      <trkpt lat="39.94979378767311573028564453125" lon="-0.57166926562786102294921875">
        <ele>619.79998779296875</ele>
        <time>2022-08-26T20:08:13.000Z</time>
      </trkpt>
      <trkpt lat="39.949780963361263275146484375" lon="-0.57129912078380584716796875">
        <ele>619</ele>
        <time>2022-08-26T20:08:17.000Z</time>
      </trkpt>
      <trkpt lat="39.94975791312754154205322265625" lon="-0.571031905710697174072265625">
        <ele>618.5999755859375</ele>
        <time>2022-08-26T20:08:20.000Z</time>
      </trkpt>
      <trkpt lat="39.949753470718860626220703125" lon="-0.57086116634309291839599609375">
        <ele>618.4000244140625</ele>
        <time>2022-08-26T20:08:22.000Z</time>
      </trkpt>
      <trkpt lat="39.94969840161502361297607421875" lon="-0.5704466812312602996826171875">
        <ele>617.5999755859375</ele>
        <time>2022-08-26T20:08:27.000Z</time>
      </trkpt>
      <trkpt lat="39.94969404302537441253662109375" lon="-0.57036093436181545257568359375">
        <ele>617.4000244140625</ele>
        <time>2022-08-26T20:08:28.000Z</time>
      </trkpt>
      <trkpt lat="39.94967141188681125640869140625" lon="-0.57006270624697208404541015625">
        <ele>616.5999755859375</ele>
        <time>2022-08-26T20:08:32.000Z</time>
      </trkpt>
      <trkpt lat="39.949671663343906402587890625" lon="-0.56991769932210445404052734375">
        <ele>616.5999755859375</ele>
        <time>2022-08-26T20:08:34.000Z</time>
      </trkpt>
      <trkpt lat="39.9489994347095489501953125" lon="-0.56755970232188701629638671875">
        <ele>611.5999755859375</ele>
        <time>2022-08-26T20:09:06.000Z</time>
      </trkpt>
      <trkpt lat="39.94892709888517856597900390625" lon="-0.5675391666591167449951171875">
        <ele>611.4000244140625</ele>
        <time>2022-08-26T20:09:07.000Z</time>
      </trkpt>
      <trkpt lat="39.94884210638701915740966796875" lon="-0.56730438955128192901611328125">
        <ele>611.20001220703125</ele>
        <time>2022-08-26T20:09:10.000Z</time>
      </trkpt>
      <trkpt lat="39.94879298843443393707275390625" lon="-0.56715301238000392913818359375">
        <ele>611</ele>
        <time>2022-08-26T20:09:12.000Z</time>
      </trkpt>
      <trkpt lat="39.9487243406474590301513671875" lon="-0.5670057423412799835205078125">
        <ele>610.4000244140625</ele>
        <time>2022-08-26T20:09:14.000Z</time>
      </trkpt>
      <trkpt lat="39.94869106449186801910400390625" lon="-0.56694279424846172332763671875">
        <ele>610.20001220703125</ele>
        <time>2022-08-26T20:09:15.000Z</time>
      </trkpt>
      <trkpt lat="39.94866088964045047760009765625" lon="-0.5668914131820201873779296875">
        <ele>610.20001220703125</ele>
        <time>2022-08-26T20:09:16.000Z</time>
      </trkpt>
      <trkpt lat="39.9485379271209239959716796875" lon="-0.5666912533342838287353515625">
        <ele>609.5999755859375</ele>
        <time>2022-08-26T20:09:21.000Z</time>
      </trkpt>
      <trkpt lat="39.94849207811057567596435546875" lon="-0.566610954701900482177734375">
        <ele>609.20001220703125</ele>
        <time>2022-08-26T20:09:23.000Z</time>
      </trkpt>
      <trkpt lat="39.948464334011077880859375" lon="-0.5665655247867107391357421875">
        <ele>608.5999755859375</ele>
        <time>2022-08-26T20:09:24.000Z</time>
      </trkpt>
      <trkpt lat="39.94841295294463634490966796875" lon="-0.5664706416428089141845703125">
        <ele>608.20001220703125</ele>
        <time>2022-08-26T20:09:26.000Z</time>
      </trkpt>
      <trkpt lat="39.94835595600306987762451171875" lon="-0.56635270826518535614013671875">
        <ele>608.20001220703125</ele>
        <time>2022-08-26T20:09:30.000Z</time>
      </trkpt>
      <trkpt lat="39.94833081029355525970458984375" lon="-0.566295124590396881103515625">
        <ele>608.20001220703125</ele>
        <time>2022-08-26T20:09:33.000Z</time>
      </trkpt>
      <trkpt lat="39.9483102746307849884033203125" lon="-0.56628515012562274932861328125">
        <ele>608.4000244140625</ele>
        <time>2022-08-26T20:09:35.000Z</time>
      </trkpt>
      <trkpt lat="39.9482985399663448333740234375" lon="-0.56626486591994762420654296875">
        <ele>609</ele>
        <time>2022-08-26T20:09:37.000Z</time>
      </trkpt>
      <trkpt lat="39.9482861347496509552001953125" lon="-0.56621289812028408050537109375">
        <ele>610</ele>
        <time>2022-08-26T20:09:42.000Z</time>
      </trkpt>
      <trkpt lat="39.9482894875109195709228515625" lon="-0.56620300747454166412353515625">
        <ele>610</ele>
        <time>2022-08-26T20:09:43.000Z</time>
      </trkpt>
      <trkpt lat="39.94831454940140247344970703125" lon="-0.56620853953063488006591796875">
        <ele>610</ele>
        <time>2022-08-26T20:09:45.000Z</time>
      </trkpt>
      <trkpt lat="39.94828772731125354766845703125" lon="-0.56625128723680973052978515625">
        <ele>610.20001220703125</ele>
        <time>2022-08-26T20:09:48.000Z</time>
      </trkpt>
      <trkpt lat="39.94820374064147472381591796875" lon="-0.56619512848556041717529296875">
        <ele>610.20001220703125</ele>
        <time>2022-08-26T20:09:52.000Z</time>
      </trkpt>
      <trkpt lat="39.94816862046718597412109375" lon="-0.56613645516335964202880859375">
        <ele>610</ele>
        <time>2022-08-26T20:09:54.000Z</time>
      </trkpt>
      <trkpt lat="39.94809393770992755889892578125" lon="-0.56598306633532047271728515625">
        <ele>609.5999755859375</ele>
        <time>2022-08-26T20:09:59.000Z</time>
      </trkpt>
      <trkpt lat="39.94808572344481945037841796875" lon="-0.56596579961478710174560546875">
        <ele>609</ele>
        <time>2022-08-26T20:10:01.000Z</time>
      </trkpt>
      <trkpt lat="39.94808547198772430419921875" lon="-0.5659657157957553863525390625">
        <ele>608.79998779296875</ele>
        <time>2022-08-26T20:10:02.000Z</time>
      </trkpt>
      <trkpt lat="39.948159568011760711669921875" lon="-0.5661353655159473419189453125">
        <ele>607.4000244140625</ele>
        <time>2022-08-26T20:15:33.000Z</time>
      </trkpt>
      <trkpt lat="39.9481265433132648468017578125" lon="-0.5660837329924106597900390625">
        <ele>607.4000244140625</ele>
        <time>2022-08-26T20:15:35.000Z</time>
      </trkpt>
      <trkpt lat="39.94805906899273395538330078125" lon="-0.5659536458551883697509765625">
        <ele>607.4000244140625</ele>
        <time>2022-08-26T20:15:39.000Z</time>
      </trkpt>
      <trkpt lat="39.94801104068756103515625" lon="-0.56587594561278820037841796875">
        <ele>607.20001220703125</ele>
        <time>2022-08-26T20:15:41.000Z</time>
      </trkpt>
      <trkpt lat="39.94784030131995677947998046875" lon="-0.56556522846221923828125">
        <ele>606.4000244140625</ele>
        <time>2022-08-26T20:15:48.000Z</time>
      </trkpt>
      <trkpt lat="39.9476705677807331085205078125" lon="-0.5652743764221668243408203125">
        <ele>605.20001220703125</ele>
        <time>2022-08-26T20:15:54.000Z</time>
      </trkpt>
      <trkpt lat="39.94761608541011810302734375" lon="-0.56517018936574459075927734375">
        <ele>605</ele>
        <time>2022-08-26T20:15:56.000Z</time>
      </trkpt>
      <trkpt lat="39.9475022591650485992431640625" lon="-0.56495971977710723876953125">
        <ele>604.20001220703125</ele>
        <time>2022-08-26T20:16:00.000Z</time>
      </trkpt>
      <trkpt lat="39.9473252333700656890869140625" lon="-0.56464229710400104522705078125">
        <ele>603.5999755859375</ele>
        <time>2022-08-26T20:16:06.000Z</time>
      </trkpt>
      <trkpt lat="39.94726262055337429046630859375" lon="-0.56453366763889789581298828125">
        <ele>603.20001220703125</ele>
        <time>2022-08-26T20:16:08.000Z</time>
      </trkpt>
      <trkpt lat="39.94699942879378795623779296875" lon="-0.56406713090837001800537109375">
        <ele>602.5999755859375</ele>
        <time>2022-08-26T20:16:16.000Z</time>
      </trkpt>
      <trkpt lat="39.94689867831766605377197265625" lon="-0.5638776160776615142822265625">
        <ele>602</ele>
        <time>2022-08-26T20:16:19.000Z</time>
      </trkpt>
      <trkpt lat="39.94675417430698871612548828125" lon="-0.56362339295446872711181640625">
        <ele>601.5999755859375</ele>
        <time>2022-08-26T20:16:23.000Z</time>
      </trkpt>
      <trkpt lat="39.9466110952198505401611328125" lon="-0.56336690671741962432861328125">
        <ele>601</ele>
        <time>2022-08-26T20:16:27.000Z</time>
      </trkpt>
      <trkpt lat="39.94643968529999256134033203125" lon="-0.5631155334413051605224609375">
        <ele>600.4000244140625</ele>
        <time>2022-08-26T20:16:31.000Z</time>
      </trkpt>
      <trkpt lat="39.94608546607196331024169921875" lon="-0.562741868197917938232421875">
        <ele>599.79998779296875</ele>
        <time>2022-08-26T20:16:38.000Z</time>
      </trkpt>
      <trkpt lat="39.9457366950809955596923828125" lon="-0.56252854876220226287841796875">
        <ele>598.79998779296875</ele>
        <time>2022-08-26T20:16:44.000Z</time>
      </trkpt>
      <trkpt lat="39.9454081244766712188720703125" lon="-0.56242167949676513671875">
        <ele>597.5999755859375</ele>
        <time>2022-08-26T20:16:49.000Z</time>
      </trkpt>
      <trkpt lat="39.94489741511642932891845703125" lon="-0.5623561330139636993408203125">
        <ele>596.5999755859375</ele>
        <time>2022-08-26T20:16:56.000Z</time>
      </trkpt>
      <trkpt lat="39.94434957392513751983642578125" lon="-0.56227440945804119110107421875">
        <ele>596.20001220703125</ele>
        <time>2022-08-26T20:17:03.000Z</time>
      </trkpt>
      <trkpt lat="39.944197274744510650634765625" lon="-0.562248341739177703857421875">
        <ele>595.79998779296875</ele>
        <time>2022-08-26T20:17:05.000Z</time>
      </trkpt>
      <trkpt lat="39.9440472386777400970458984375" lon="-0.56222596205770969390869140625">
        <ele>595.5999755859375</ele>
        <time>2022-08-26T20:17:07.000Z</time>
      </trkpt>
      <trkpt lat="39.9435899220407009124755859375" lon="-0.5621589906513690948486328125">
        <ele>594.20001220703125</ele>
        <time>2022-08-26T20:17:13.000Z</time>
      </trkpt>
      <trkpt lat="39.94305993430316448211669921875" lon="-0.56206226348876953125">
        <ele>593.20001220703125</ele>
        <time>2022-08-26T20:17:20.000Z</time>
      </trkpt>
      <trkpt lat="39.94298365898430347442626953125" lon="-0.56204172782599925994873046875">
        <ele>592.79998779296875</ele>
        <time>2022-08-26T20:17:21.000Z</time>
      </trkpt>
      <trkpt lat="39.94267939589917659759521484375" lon="-0.56191407144069671630859375">
        <ele>592.20001220703125</ele>
        <time>2022-08-26T20:17:25.000Z</time>
      </trkpt>
      <trkpt lat="39.9426055513322353363037109375" lon="-0.5618696473538875579833984375">
        <ele>591.79998779296875</ele>
        <time>2022-08-26T20:17:26.000Z</time>
      </trkpt>
      <trkpt lat="39.94226231239736080169677734375" lon="-0.5615799687802791595458984375">
        <ele>591.20001220703125</ele>
        <time>2022-08-26T20:17:31.000Z</time>
      </trkpt>
      <trkpt lat="39.94220078922808170318603515625" lon="-0.56151115335524082183837890625">
        <ele>591.20001220703125</ele>
        <time>2022-08-26T20:17:32.000Z</time>
      </trkpt>
      <trkpt lat="39.9419125355780124664306640625" lon="-0.56114234961569309234619140625">
        <ele>590</ele>
        <time>2022-08-26T20:17:37.000Z</time>
      </trkpt>
      <trkpt lat="39.94185612536966800689697265625" lon="-0.5610685050487518310546875">
        <ele>590</ele>
        <time>2022-08-26T20:17:38.000Z</time>
      </trkpt>
      <trkpt lat="39.9416902475059032440185546875" lon="-0.56084579788148403167724609375">
        <ele>588.79998779296875</ele>
        <time>2022-08-26T20:17:41.000Z</time>
      </trkpt>
      <trkpt lat="39.9414042569696903228759765625" lon="-0.560460649430751800537109375">
        <ele>587.79998779296875</ele>
        <time>2022-08-26T20:17:46.000Z</time>
      </trkpt>
      <trkpt lat="39.94128498248755931854248046875" lon="-0.560301728546619415283203125">
        <ele>587.4000244140625</ele>
        <time>2022-08-26T20:17:48.000Z</time>
      </trkpt>
      <trkpt lat="39.94098189286887645721435546875" lon="-0.55989705026149749755859375">
        <ele>586.79998779296875</ele>
        <time>2022-08-26T20:17:53.000Z</time>
      </trkpt>
      <trkpt lat="39.94073915295302867889404296875" lon="-0.559594295918941497802734375">
        <ele>586</ele>
        <time>2022-08-26T20:17:57.000Z</time>
      </trkpt>
      <trkpt lat="39.94061828590929508209228515625" lon="-0.55945071391761302947998046875">
        <ele>585.5999755859375</ele>
        <time>2022-08-26T20:17:59.000Z</time>
      </trkpt>
      <trkpt lat="39.94023590348660945892333984375" lon="-0.5590194649994373321533203125">
        <ele>584.5999755859375</ele>
        <time>2022-08-26T20:18:05.000Z</time>
      </trkpt>
      <trkpt lat="39.93989626877009868621826171875" lon="-0.55867857299745082855224609375">
        <ele>583.5999755859375</ele>
        <time>2022-08-26T20:18:10.000Z</time>
      </trkpt>
      <trkpt lat="39.939693175256252288818359375" lon="-0.558491908013820648193359375">
        <ele>583.4000244140625</ele>
        <time>2022-08-26T20:18:13.000Z</time>
      </trkpt>
      <trkpt lat="39.93949226103723049163818359375" lon="-0.5583140440285205841064453125">
        <ele>582.5999755859375</ele>
        <time>2022-08-26T20:18:16.000Z</time>
      </trkpt>
      <trkpt lat="39.9391558952629566192626953125" lon="-0.5580389499664306640625">
        <ele>581.5999755859375</ele>
        <time>2022-08-26T20:18:21.000Z</time>
      </trkpt>
      <trkpt lat="39.93901549838483333587646484375" lon="-0.55792956613004207611083984375">
        <ele>581</ele>
        <time>2022-08-26T20:18:23.000Z</time>
      </trkpt>
      <trkpt lat="39.93887267075479030609130859375" lon="-0.5578195117413997650146484375">
        <ele>580.4000244140625</ele>
        <time>2022-08-26T20:18:25.000Z</time>
      </trkpt>
      <trkpt lat="39.9385897815227508544921875" lon="-0.55760585702955722808837890625">
        <ele>579.79998779296875</ele>
        <time>2022-08-26T20:18:29.000Z</time>
      </trkpt>
      <trkpt lat="39.93838794529438018798828125" lon="-0.557431764900684356689453125">
        <ele>579.4000244140625</ele>
        <time>2022-08-26T20:18:32.000Z</time>
      </trkpt>
      <trkpt lat="39.93811159394681453704833984375" lon="-0.55720620788633823394775390625">
        <ele>578.4000244140625</ele>
        <time>2022-08-26T20:18:36.000Z</time>
      </trkpt>
      <trkpt lat="39.93797396309673786163330078125" lon="-0.55709355510771274566650390625">
        <ele>577.79998779296875</ele>
        <time>2022-08-26T20:18:38.000Z</time>
      </trkpt>
      <trkpt lat="39.9377577938139438629150390625" lon="-0.55692382156848907470703125">
        <ele>577.4000244140625</ele>
        <time>2022-08-26T20:18:41.000Z</time>
      </trkpt>
      <trkpt lat="39.93747423402965068817138671875" lon="-0.5566812492907047271728515625">
        <ele>576.79998779296875</ele>
        <time>2022-08-26T20:18:45.000Z</time>
      </trkpt>
      <trkpt lat="39.9372786842286586761474609375" lon="-0.55648553185164928436279296875">
        <ele>576.4000244140625</ele>
        <time>2022-08-26T20:18:48.000Z</time>
      </trkpt>
      <trkpt lat="39.93696109391748905181884765625" lon="-0.55612443946301937103271484375">
        <ele>575.20001220703125</ele>
        <time>2022-08-26T20:18:53.000Z</time>
      </trkpt>
      <trkpt lat="39.93661307729780673980712890625" lon="-0.55565572343766689300537109375">
        <ele>574.20001220703125</ele>
        <time>2022-08-26T20:18:59.000Z</time>
      </trkpt>
      <trkpt lat="39.9365075491368770599365234375" lon="-0.5554975569248199462890625">
        <ele>573.79998779296875</ele>
        <time>2022-08-26T20:19:01.000Z</time>
      </trkpt>
      <trkpt lat="39.9363570101559162139892578125" lon="-0.555253140628337860107421875">
        <ele>572.5999755859375</ele>
        <time>2022-08-26T20:19:04.000Z</time>
      </trkpt>
      <trkpt lat="39.9361655674874782562255859375" lon="-0.5548985861241817474365234375">
        <ele>571.5999755859375</ele>
        <time>2022-08-26T20:19:08.000Z</time>
      </trkpt>
      <trkpt lat="39.93612022139132022857666015625" lon="-0.554808564484119415283203125">
        <ele>571.4000244140625</ele>
        <time>2022-08-26T20:19:09.000Z</time>
      </trkpt>
      <trkpt lat="39.9359134398400783538818359375" lon="-0.55435870774090290069580078125">
        <ele>570.5999755859375</ele>
        <time>2022-08-26T20:19:14.000Z</time>
      </trkpt>
      <trkpt lat="39.93575057946145534515380859375" lon="-0.55399627424776554107666015625">
        <ele>569.79998779296875</ele>
        <time>2022-08-26T20:19:18.000Z</time>
      </trkpt>
      <trkpt lat="39.93566818535327911376953125" lon="-0.5538119561970233917236328125">
        <ele>569.5999755859375</ele>
        <time>2022-08-26T20:19:20.000Z</time>
      </trkpt>
      <trkpt lat="39.9354594759643077850341796875" lon="-0.5533435754477977752685546875">
        <ele>568.4000244140625</ele>
        <time>2022-08-26T20:19:25.000Z</time>
      </trkpt>
      <trkpt lat="39.93533751927316188812255859375" lon="-0.55307107977569103240966796875">
        <ele>568</ele>
        <time>2022-08-26T20:19:28.000Z</time>
      </trkpt>
      <trkpt lat="39.93521816097199916839599609375" lon="-0.55280688218772411346435546875">
        <ele>567.5999755859375</ele>
        <time>2022-08-26T20:19:31.000Z</time>
      </trkpt>
      <trkpt lat="39.9350584857165813446044921875" lon="-0.55244989693164825439453125">
        <ele>566.4000244140625</ele>
        <time>2022-08-26T20:19:35.000Z</time>
      </trkpt>
      <trkpt lat="39.93494264781475067138671875" lon="-0.55217589251697063446044921875">
        <ele>566</ele>
        <time>2022-08-26T20:19:38.000Z</time>
      </trkpt>
      <trkpt lat="39.9348331801593303680419921875" lon="-0.5519085936248302459716796875">
        <ele>565.4000244140625</ele>
        <time>2022-08-26T20:19:41.000Z</time>
      </trkpt>
      <trkpt lat="39.934680461883544921875" lon="-0.5514556355774402618408203125">
        <ele>564.5999755859375</ele>
        <time>2022-08-26T20:19:46.000Z</time>
      </trkpt>
      <trkpt lat="39.93465238250792026519775390625" lon="-0.55136200971901416778564453125">
        <ele>564.4000244140625</ele>
        <time>2022-08-26T20:19:47.000Z</time>
      </trkpt>
      <trkpt lat="39.93450402282178401947021484375" lon="-0.550812073051929473876953125">
        <ele>563.4000244140625</ele>
        <time>2022-08-26T20:19:53.000Z</time>
      </trkpt>
      <trkpt lat="39.9344321899116039276123046875" lon="-0.55053748190402984619140625">
        <ele>562.5999755859375</ele>
        <time>2022-08-26T20:19:56.000Z</time>
      </trkpt>
      <trkpt lat="39.93440712802112102508544921875" lon="-0.55044402368366718292236328125">
        <ele>562.4000244140625</ele>
        <time>2022-08-26T20:19:57.000Z</time>
      </trkpt>
      <trkpt lat="39.93428005836904048919677734375" lon="-0.54995669983327388763427734375">
        <ele>561.20001220703125</ele>
        <time>2022-08-26T20:20:02.000Z</time>
      </trkpt>
      <trkpt lat="39.93417059071362018585205078125" lon="-0.5495806038379669189453125">
        <ele>560.79998779296875</ele>
        <time>2022-08-26T20:20:06.000Z</time>
      </trkpt>
      <trkpt lat="39.93404955603182315826416015625" lon="-0.54922546260058879852294921875">
        <ele>560.20001220703125</ele>
        <time>2022-08-26T20:20:10.000Z</time>
      </trkpt>
      <trkpt lat="39.93393790908157825469970703125" lon="-0.54897735826671123504638671875">
        <ele>559.4000244140625</ele>
        <time>2022-08-26T20:20:13.000Z</time>
      </trkpt>
      <trkpt lat="39.9338494800031185150146484375" lon="-0.5488180182874202728271484375">
        <ele>559</ele>
        <time>2022-08-26T20:20:15.000Z</time>
      </trkpt>
      <trkpt lat="39.93364035151898860931396484375" lon="-0.54851417429745197296142578125">
        <ele>558.20001220703125</ele>
        <time>2022-08-26T20:20:19.000Z</time>
      </trkpt>
      <trkpt lat="39.9335225857794284820556640625" lon="-0.54837436415255069732666015625">
        <ele>558</ele>
        <time>2022-08-26T20:20:21.000Z</time>
      </trkpt>
      <trkpt lat="39.9332614056766033172607421875" lon="-0.54813154041767120361328125">
        <ele>557.5999755859375</ele>
        <time>2022-08-26T20:20:25.000Z</time>
      </trkpt>
      <trkpt lat="39.9329853057861328125" lon="-0.547928027808666229248046875">
        <ele>557</ele>
        <time>2022-08-26T20:20:29.000Z</time>
      </trkpt>
      <trkpt lat="39.93262714706361293792724609375" lon="-0.5476720444858074188232421875">
        <ele>555.79998779296875</ele>
        <time>2022-08-26T20:20:34.000Z</time>
      </trkpt>
      <trkpt lat="39.93221274577081203460693359375" lon="-0.547397620975971221923828125">
        <ele>554.5999755859375</ele>
        <time>2022-08-26T20:20:40.000Z</time>
      </trkpt>
      <trkpt lat="39.932076036930084228515625" lon="-0.54732796736061573028564453125">
        <ele>554</ele>
        <time>2022-08-26T20:20:42.000Z</time>
      </trkpt>
      <trkpt lat="39.93186590261757373809814453125" lon="-0.54724046029150485992431640625">
        <ele>553.79998779296875</ele>
        <time>2022-08-26T20:20:45.000Z</time>
      </trkpt>
      <trkpt lat="39.93163816630840301513671875" lon="-0.54718044586479663848876953125">
        <ele>553</ele>
        <time>2022-08-26T20:20:48.000Z</time>
      </trkpt>
      <trkpt lat="39.93155895732343196868896484375" lon="-0.5471674539148807525634765625">
        <ele>552.79998779296875</ele>
        <time>2022-08-26T20:20:49.000Z</time>
      </trkpt>
      <trkpt lat="39.93123407475650310516357421875" lon="-0.54715228267014026641845703125">
        <ele>552</ele>
        <time>2022-08-26T20:20:53.000Z</time>
      </trkpt>
      <trkpt lat="39.93107398040592670440673828125" lon="-0.54715387523174285888671875">
        <ele>551.5999755859375</ele>
        <time>2022-08-26T20:20:55.000Z</time>
      </trkpt>
      <trkpt lat="39.93084599263966083526611328125" lon="-0.54719922132790088653564453125">
        <ele>551</ele>
        <time>2022-08-26T20:20:58.000Z</time>
      </trkpt>
      <trkpt lat="39.9306995607912540435791015625" lon="-0.5472529493272304534912109375">
        <ele>550.4000244140625</ele>
        <time>2022-08-26T20:21:00.000Z</time>
      </trkpt>
      <trkpt lat="39.93039387278258800506591796875" lon="-0.54739317856729030609130859375">
        <ele>549.5999755859375</ele>
        <time>2022-08-26T20:21:04.000Z</time>
      </trkpt>
      <trkpt lat="39.9303180165588855743408203125" lon="-0.5474386923015117645263671875">
        <ele>549.20001220703125</ele>
        <time>2022-08-26T20:21:05.000Z</time>
      </trkpt>
      <trkpt lat="39.92996513843536376953125" lon="-0.5477183125913143157958984375">
        <ele>548.79998779296875</ele>
        <time>2022-08-26T20:21:10.000Z</time>
      </trkpt>
      <trkpt lat="39.9297235719859600067138671875" lon="-0.5479818396270275115966796875">
        <ele>548.20001220703125</ele>
        <time>2022-08-26T20:21:14.000Z</time>
      </trkpt>
      <trkpt lat="39.92961041629314422607421875" lon="-0.548135228455066680908203125">
        <ele>547.5999755859375</ele>
        <time>2022-08-26T20:21:16.000Z</time>
      </trkpt>
      <trkpt lat="39.92940497584640979766845703125" lon="-0.54847779683768749237060546875">
        <ele>547.20001220703125</ele>
        <time>2022-08-26T20:21:20.000Z</time>
      </trkpt>
      <trkpt lat="39.9292556941509246826171875" lon="-0.5487321875989437103271484375">
        <ele>546.5999755859375</ele>
        <time>2022-08-26T20:21:23.000Z</time>
      </trkpt>
      <trkpt lat="39.92915670387446880340576171875" lon="-0.54890460334718227386474609375">
        <ele>546.20001220703125</ele>
        <time>2022-08-26T20:21:25.000Z</time>
      </trkpt>
      <trkpt lat="39.9288962781429290771484375" lon="-0.5494369380176067352294921875">
        <ele>545</ele>
        <time>2022-08-26T20:21:31.000Z</time>
      </trkpt>
      <trkpt lat="39.9287449009716510772705078125" lon="-0.549880675971508026123046875">
        <ele>543.79998779296875</ele>
        <time>2022-08-26T20:21:36.000Z</time>
      </trkpt>
      <trkpt lat="39.92872436530888080596923828125" lon="-0.5499717034399509429931640625">
        <ele>543.5999755859375</ele>
        <time>2022-08-26T20:21:37.000Z</time>
      </trkpt>
      <trkpt lat="39.92863551713526248931884765625" lon="-0.5504501424729824066162109375">
        <ele>542.79998779296875</ele>
        <time>2022-08-26T20:21:42.000Z</time>
      </trkpt>
      <trkpt lat="39.92861975915729999542236328125" lon="-0.55054913274943828582763671875">
        <ele>542.4000244140625</ele>
        <time>2022-08-26T20:21:43.000Z</time>
      </trkpt>
      <trkpt lat="39.928574077785015106201171875" lon="-0.55113938637077808380126953125">
        <ele>541.79998779296875</ele>
        <time>2022-08-26T20:21:49.000Z</time>
      </trkpt>
      <trkpt lat="39.92857432924211025238037109375" lon="-0.55132630281150341033935546875">
        <ele>541.5999755859375</ele>
        <time>2022-08-26T20:21:51.000Z</time>
      </trkpt>
      <trkpt lat="39.92857935838401317596435546875" lon="-0.5517265386879444122314453125">
        <ele>540.5999755859375</ele>
        <time>2022-08-26T20:21:55.000Z</time>
      </trkpt>
      <trkpt lat="39.92857986129820346832275390625" lon="-0.55183223448693752288818359375">
        <ele>540.5999755859375</ele>
        <time>2022-08-26T20:21:56.000Z</time>
      </trkpt>
      <trkpt lat="39.928585477173328399658203125" lon="-0.55236331187188625335693359375">
        <ele>539.79998779296875</ele>
        <time>2022-08-26T20:22:01.000Z</time>
      </trkpt>
      <trkpt lat="39.92858941666781902313232421875" lon="-0.55267444811761379241943359375">
        <ele>539.4000244140625</ele>
        <time>2022-08-26T20:22:04.000Z</time>
      </trkpt>
      <trkpt lat="39.9285990558564662933349609375" lon="-0.5530800484120845794677734375">
        <ele>538.5999755859375</ele>
        <time>2022-08-26T20:22:08.000Z</time>
      </trkpt>
      <trkpt lat="39.928609617054462432861328125" lon="-0.55374699644744396209716796875">
        <ele>537.4000244140625</ele>
        <time>2022-08-26T20:22:15.000Z</time>
      </trkpt>
      <trkpt lat="39.9286198429763317108154296875" lon="-0.55430791340768337249755859375">
        <ele>536.4000244140625</ele>
        <time>2022-08-26T20:22:21.000Z</time>
      </trkpt>
      <trkpt lat="39.9286188371479511260986328125" lon="-0.55439852178096771240234375">
        <ele>536.4000244140625</ele>
        <time>2022-08-26T20:22:22.000Z</time>
      </trkpt>
      <trkpt lat="39.92862914688885211944580078125" lon="-0.55513487197458744049072265625">
        <ele>535.4000244140625</ele>
        <time>2022-08-26T20:22:30.000Z</time>
      </trkpt>
      <trkpt lat="39.92863048799335956573486328125" lon="-0.55522707290947437286376953125">
        <ele>535.4000244140625</ele>
        <time>2022-08-26T20:22:31.000Z</time>
      </trkpt>
      <trkpt lat="39.9286389537155628204345703125" lon="-0.5558393709361553192138671875">
        <ele>535</ele>
        <time>2022-08-26T20:22:38.000Z</time>
      </trkpt>
      <trkpt lat="39.928653202950954437255859375" lon="-0.55641344748437404632568359375">
        <ele>534.4000244140625</ele>
        <time>2022-08-26T20:22:45.000Z</time>
      </trkpt>
      <trkpt lat="39.92865395732223987579345703125" lon="-0.55649089626967906951904296875">
        <ele>534.4000244140625</ele>
        <time>2022-08-26T20:22:46.000Z</time>
      </trkpt>
      <trkpt lat="39.92866225540637969970703125" lon="-0.557145439088344573974609375">
        <ele>534.20001220703125</ele>
        <time>2022-08-26T20:22:54.000Z</time>
      </trkpt>
      <trkpt lat="39.92866921238601207733154296875" lon="-0.55786217562854290008544921875">
        <ele>534.5999755859375</ele>
        <time>2022-08-26T20:23:01.000Z</time>
      </trkpt>
      <trkpt lat="39.92867122404277324676513671875" lon="-0.55796854197978973388671875">
        <ele>534.79998779296875</ele>
        <time>2022-08-26T20:23:02.000Z</time>
      </trkpt>
      <trkpt lat="39.9286791868507862091064453125" lon="-0.55818119086325168609619140625">
        <ele>535.4000244140625</ele>
        <time>2022-08-26T20:23:04.000Z</time>
      </trkpt>
      <trkpt lat="39.9286909215152263641357421875" lon="-0.55861772038042545318603515625">
        <ele>535.79998779296875</ele>
        <time>2022-08-26T20:23:08.000Z</time>
      </trkpt>
      <trkpt lat="39.9287090264260768890380859375" lon="-0.55941852740943431854248046875">
        <ele>535.5999755859375</ele>
        <time>2022-08-26T20:23:15.000Z</time>
      </trkpt>
      <trkpt lat="39.928710199892520904541015625" lon="-0.55964953266084194183349609375">
        <ele>534.79998779296875</ele>
        <time>2022-08-26T20:23:17.000Z</time>
      </trkpt>
      <trkpt lat="39.928714223206043243408203125" lon="-0.55988472886383533477783203125">
        <ele>534.5999755859375</ele>
        <time>2022-08-26T20:23:19.000Z</time>
      </trkpt>
      <trkpt lat="39.9287246167659759521484375" lon="-0.5605791695415973663330078125">
        <ele>533.4000244140625</ele>
        <time>2022-08-26T20:23:25.000Z</time>
      </trkpt>
      <trkpt lat="39.92872604168951511383056640625" lon="-0.56069408543407917022705078125">
        <ele>533.20001220703125</ele>
        <time>2022-08-26T20:23:26.000Z</time>
      </trkpt>
      <trkpt lat="39.9287365190684795379638671875" lon="-0.56136078201234340667724609375">
        <ele>532.20001220703125</ele>
        <time>2022-08-26T20:23:32.000Z</time>
      </trkpt>
      <trkpt lat="39.92873978801071643829345703125" lon="-0.56157804094254970550537109375">
        <ele>532</ele>
        <time>2022-08-26T20:23:34.000Z</time>
      </trkpt>
      <trkpt lat="39.92870307527482509613037109375" lon="-0.56219478137791156768798828125">
        <ele>531.79998779296875</ele>
        <time>2022-08-26T20:23:40.000Z</time>
      </trkpt>
      <trkpt lat="39.92858271114528179168701171875" lon="-0.56266148574650287628173828125">
        <ele>531.5999755859375</ele>
        <time>2022-08-26T20:23:45.000Z</time>
      </trkpt>
      <trkpt lat="39.9285222776234149932861328125" lon="-0.56282644160091876983642578125">
        <ele>531.4000244140625</ele>
        <time>2022-08-26T20:23:47.000Z</time>
      </trkpt>
      <trkpt lat="39.92844742722809314727783203125" lon="-0.56297983042895793914794921875">
        <ele>531.20001220703125</ele>
        <time>2022-08-26T20:23:49.000Z</time>
      </trkpt>
      <trkpt lat="39.928406774997711181640625" lon="-0.56305593810975551605224609375">
        <ele>531.20001220703125</ele>
        <time>2022-08-26T20:23:50.000Z</time>
      </trkpt>
      <trkpt lat="39.92822773754596710205078125" lon="-0.56332415901124477386474609375">
        <ele>530.79998779296875</ele>
        <time>2022-08-26T20:23:54.000Z</time>
      </trkpt>
      <trkpt lat="39.928177781403064727783203125" lon="-0.5633837543427944183349609375">
        <ele>530.79998779296875</ele>
        <time>2022-08-26T20:23:55.000Z</time>
      </trkpt>
      <trkpt lat="39.92790025658905506134033203125" lon="-0.5636461079120635986328125">
        <ele>530</ele>
        <time>2022-08-26T20:24:00.000Z</time>
      </trkpt>
      <trkpt lat="39.92784024216234683990478515625" lon="-0.56369497440755367279052734375">
        <ele>529.79998779296875</ele>
        <time>2022-08-26T20:24:01.000Z</time>
      </trkpt>
      <trkpt lat="39.92736096493899822235107421875" lon="-0.5640791170299053192138671875">
        <ele>529.20001220703125</ele>
        <time>2022-08-26T20:24:09.000Z</time>
      </trkpt>
      <trkpt lat="39.92729960940778255462646484375" lon="-0.5641263909637928009033203125">
        <ele>529.20001220703125</ele>
        <time>2022-08-26T20:24:10.000Z</time>
      </trkpt>
      <trkpt lat="39.92724009789526462554931640625" lon="-0.56417374871671199798583984375">
        <ele>529</ele>
        <time>2022-08-26T20:24:11.000Z</time>
      </trkpt>
      <trkpt lat="39.92690800689160823822021484375" lon="-0.5644278042018413543701171875">
        <ele>529</ele>
        <time>2022-08-26T20:24:17.000Z</time>
      </trkpt>
      <trkpt lat="39.92661572992801666259765625" lon="-0.564665012061595916748046875">
        <ele>528.5999755859375</ele>
        <time>2022-08-26T20:24:23.000Z</time>
      </trkpt>
      <trkpt lat="39.92631842382252216339111328125" lon="-0.56491370312869548797607421875">
        <ele>528.20001220703125</ele>
        <time>2022-08-26T20:24:29.000Z</time>
      </trkpt>
      <trkpt lat="39.92599840275943279266357421875" lon="-0.565159879624843597412109375">
        <ele>528</ele>
        <time>2022-08-26T20:24:35.000Z</time>
      </trkpt>
      <trkpt lat="39.9255483783781528472900390625" lon="-0.56552491150796413421630859375">
        <ele>527.5999755859375</ele>
        <time>2022-08-26T20:24:43.000Z</time>
      </trkpt>
      <trkpt lat="39.92531343363225460052490234375" lon="-0.5657125823199748992919921875">
        <ele>527.20001220703125</ele>
        <time>2022-08-26T20:24:47.000Z</time>
      </trkpt>
      <trkpt lat="39.92508293129503726959228515625" lon="-0.56590109132230281829833984375">
        <ele>526.79998779296875</ele>
        <time>2022-08-26T20:24:51.000Z</time>
      </trkpt>
      <trkpt lat="39.9245790950953960418701171875" lon="-0.56631498970091342926025390625">
        <ele>526.20001220703125</ele>
        <time>2022-08-26T20:25:00.000Z</time>
      </trkpt>
      <trkpt lat="39.9244171567261219024658203125" lon="-0.566445328295230865478515625">
        <ele>526.20001220703125</ele>
        <time>2022-08-26T20:25:03.000Z</time>
      </trkpt>
      <trkpt lat="39.92409579455852508544921875" lon="-0.56669837795197963714599609375">
        <ele>525.79998779296875</ele>
        <time>2022-08-26T20:25:09.000Z</time>
      </trkpt>
      <trkpt lat="39.923850037157535552978515625" lon="-0.5668994598090648651123046875">
        <ele>525.5999755859375</ele>
        <time>2022-08-26T20:25:14.000Z</time>
      </trkpt>
      <trkpt lat="39.92374987341463565826416015625" lon="-0.5669812671840190887451171875">
        <ele>525.20001220703125</ele>
        <time>2022-08-26T20:25:16.000Z</time>
      </trkpt>
      <trkpt lat="39.92344225756824016571044921875" lon="-0.5672421120107173919677734375">
        <ele>524.4000244140625</ele>
        <time>2022-08-26T20:25:22.000Z</time>
      </trkpt>
      <trkpt lat="39.9233975820243358612060546875" lon="-0.56729148142039775848388671875">
        <ele>524.20001220703125</ele>
        <time>2022-08-26T20:25:23.000Z</time>
      </trkpt>
      <trkpt lat="39.9233548343181610107421875" lon="-0.5673420242965221405029296875">
        <ele>524.20001220703125</ele>
        <time>2022-08-26T20:25:24.000Z</time>
      </trkpt>
      <trkpt lat="39.9232674948871135711669921875" lon="-0.5674503184854984283447265625">
        <ele>524</ele>
        <time>2022-08-26T20:25:26.000Z</time>
      </trkpt>
      <trkpt lat="39.92322675883769989013671875" lon="-0.5675120092928409576416015625">
        <ele>524</ele>
        <time>2022-08-26T20:25:27.000Z</time>
      </trkpt>
      <trkpt lat="39.922943450510501861572265625" lon="-0.56798013858497142791748046875">
        <ele>523.20001220703125</ele>
        <time>2022-08-26T20:25:34.000Z</time>
      </trkpt>
      <trkpt lat="39.92286331951618194580078125" lon="-0.56811341084539890289306640625">
        <ele>523.20001220703125</ele>
        <time>2022-08-26T20:25:36.000Z</time>
      </trkpt>
      <trkpt lat="39.92266709916293621063232421875" lon="-0.568513311445713043212890625">
        <ele>522.20001220703125</ele>
        <time>2022-08-26T20:25:42.000Z</time>
      </trkpt>
      <trkpt lat="39.9225989542901515960693359375" lon="-0.568658150732517242431640625">
        <ele>522</ele>
        <time>2022-08-26T20:25:44.000Z</time>
      </trkpt>
      <trkpt lat="39.9225627444684505462646484375" lon="-0.568731911480426788330078125">
        <ele>521.79998779296875</ele>
        <time>2022-08-26T20:25:45.000Z</time>
      </trkpt>
      <trkpt lat="39.922488816082477569580078125" lon="-0.5688658542931079864501953125">
        <ele>521.4000244140625</ele>
        <time>2022-08-26T20:25:47.000Z</time>
      </trkpt>
      <trkpt lat="39.92241983301937580108642578125" lon="-0.568988732993602752685546875">
        <ele>521</ele>
        <time>2022-08-26T20:25:49.000Z</time>
      </trkpt>
      <trkpt lat="39.9222700484097003936767578125" lon="-0.5692192353308200836181640625">
        <ele>520.4000244140625</ele>
        <time>2022-08-26T20:25:53.000Z</time>
      </trkpt>
      <trkpt lat="39.9192914552986621856689453125" lon="-0.57447980158030986785888671875">
        <ele>508.600006103515625</ele>
        <time>2022-08-26T20:27:16.000Z</time>
      </trkpt>
      <trkpt lat="39.9191137589514255523681640625" lon="-0.57469747960567474365234375">
        <ele>508.20001220703125</ele>
        <time>2022-08-26T20:27:19.000Z</time>
      </trkpt>
      <trkpt lat="39.91896430961787700653076171875" lon="-0.57487760670483112335205078125">
        <ele>507.600006103515625</ele>
        <time>2022-08-26T20:27:23.000Z</time>
      </trkpt>
      <trkpt lat="39.9189095757901668548583984375" lon="-0.574920438230037689208984375">
        <ele>507.399993896484375</ele>
        <time>2022-08-26T20:27:24.000Z</time>
      </trkpt>
      <trkpt lat="39.91869893856346607208251953125" lon="-0.57505823671817779541015625">
        <ele>506.79998779296875</ele>
        <time>2022-08-26T20:27:28.000Z</time>
      </trkpt>
      <trkpt lat="39.918587207794189453125" lon="-0.57511313818395137786865234375">
        <ele>506.600006103515625</ele>
        <time>2022-08-26T20:27:30.000Z</time>
      </trkpt>
      <trkpt lat="39.91824480704963207244873046875" lon="-0.5752305686473846435546875">
        <ele>505.399993896484375</ele>
        <time>2022-08-26T20:27:36.000Z</time>
      </trkpt>
      <trkpt lat="39.917977340519428253173828125" lon="-0.57525931857526302337646484375">
        <ele>504.600006103515625</ele>
        <time>2022-08-26T20:27:41.000Z</time>
      </trkpt>
      <trkpt lat="39.91786343045532703399658203125" lon="-0.5752454884350299835205078125">
        <ele>504.600006103515625</ele>
        <time>2022-08-26T20:27:43.000Z</time>
      </trkpt>
      <trkpt lat="39.917701743543148040771484375" lon="-0.57519712485373020172119140625">
        <ele>504.20001220703125</ele>
        <time>2022-08-26T20:27:46.000Z</time>
      </trkpt>
      <trkpt lat="39.91754441522061824798583984375" lon="-0.57513694278895854949951171875">
        <ele>503.79998779296875</ele>
        <time>2022-08-26T20:27:49.000Z</time>
      </trkpt>
      <trkpt lat="39.917166642844676971435546875" lon="-0.57492253370583057403564453125">
        <ele>503.20001220703125</ele>
        <time>2022-08-26T20:27:56.000Z</time>
      </trkpt>
      <trkpt lat="39.9171145074069499969482421875" lon="-0.57488548569381237030029296875">
        <ele>503.20001220703125</ele>
        <time>2022-08-26T20:27:57.000Z</time>
      </trkpt>
      <trkpt lat="39.91676255129277706146240234375" lon="-0.5746087990701198577880859375">
        <ele>502.20001220703125</ele>
        <time>2022-08-26T20:28:04.000Z</time>
      </trkpt>
      <trkpt lat="39.91671343334019184112548828125" lon="-0.57456898503005504608154296875">
        <ele>502</ele>
        <time>2022-08-26T20:28:05.000Z</time>
      </trkpt>
      <trkpt lat="39.91636566817760467529296875" lon="-0.574294812977313995361328125">
        <ele>501.20001220703125</ele>
        <time>2022-08-26T20:28:12.000Z</time>
      </trkpt>
      <trkpt lat="39.91631864570081233978271484375" lon="-0.57425432838499546051025390625">
        <ele>501</ele>
        <time>2022-08-26T20:28:13.000Z</time>
      </trkpt>
      <trkpt lat="39.9161274544894695281982421875" lon="-0.57410093955695629119873046875">
        <ele>500</ele>
        <time>2022-08-26T20:28:17.000Z</time>
      </trkpt>
      <trkpt lat="39.9159909971058368682861328125" lon="-0.57398593984544277191162109375">
        <ele>499.399993896484375</ele>
        <time>2022-08-26T20:28:20.000Z</time>
      </trkpt>
      <trkpt lat="39.9156785197556018829345703125" lon="-0.57371822185814380645751953125">
        <ele>499</ele>
        <time>2022-08-26T20:28:27.000Z</time>
      </trkpt>
      <trkpt lat="39.91558673791587352752685546875" lon="-0.57363934814929962158203125">
        <ele>498.600006103515625</ele>
        <time>2022-08-26T20:28:29.000Z</time>
      </trkpt>
      <trkpt lat="39.915318600833415985107421875" lon="-0.57342334650456905364990234375">
        <ele>498</ele>
        <time>2022-08-26T20:28:35.000Z</time>
      </trkpt>
      <trkpt lat="39.9152787029743194580078125" lon="-0.57337942533195018768310546875">
        <ele>497.79998779296875</ele>
        <time>2022-08-26T20:28:36.000Z</time>
      </trkpt>
      <trkpt lat="39.91514015011489391326904296875" lon="-0.57318513281643390655517578125">
        <ele>497.600006103515625</ele>
        <time>2022-08-26T20:28:40.000Z</time>
      </trkpt>
      <trkpt lat="39.915091954171657562255859375" lon="-0.57307147420942783355712890625">
        <ele>497.600006103515625</ele>
        <time>2022-08-26T20:28:42.000Z</time>
      </trkpt>
      <trkpt lat="39.91497888229787349700927734375" lon="-0.57288103736937046051025390625">
        <ele>496.79998779296875</ele>
        <time>2022-08-26T20:28:46.000Z</time>
      </trkpt>
      <trkpt lat="39.9148292653262615203857421875" lon="-0.57268154807388782501220703125">
        <ele>496.399993896484375</ele>
        <time>2022-08-26T20:28:52.000Z</time>
      </trkpt>
      <trkpt lat="39.9147491343319416046142578125" lon="-0.57244802825152873992919921875">
        <ele>496.399993896484375</ele>
        <time>2022-08-26T20:28:59.000Z</time>
      </trkpt>
      <trkpt lat="39.9147451110184192657470703125" lon="-0.5723889358341693878173828125">
        <ele>496.20001220703125</ele>
        <time>2022-08-26T20:29:02.000Z</time>
      </trkpt>
      <trkpt lat="39.914758019149303436279296875" lon="-0.57236068882048130035400390625">
        <ele>496.20001220703125</ele>
        <time>2022-08-26T20:29:04.000Z</time>
      </trkpt>
      <trkpt lat="39.91474251262843608856201171875" lon="-0.57234727777540683746337890625">
        <ele>495.79998779296875</ele>
        <time>2022-08-26T20:29:08.000Z</time>
      </trkpt>
      <trkpt lat="39.91474217735230922698974609375" lon="-0.5723493732511997222900390625">
        <ele>495.600006103515625</ele>
        <time>2022-08-26T20:29:09.000Z</time>
      </trkpt>
      <trkpt lat="39.9147127568721771240234375" lon="-0.57229598052799701690673828125">
        <ele>494.600006103515625</ele>
        <time>2022-08-26T20:30:37.000Z</time>
      </trkpt>
      <trkpt lat="39.9146991781890392303466796875" lon="-0.5722457729279994964599609375">
        <ele>494.600006103515625</ele>
        <time>2022-08-26T20:30:39.000Z</time>
      </trkpt>
      <trkpt lat="39.91467562504112720489501953125" lon="-0.5721889436244964599609375">
        <ele>494.600006103515625</ele>
        <time>2022-08-26T20:30:41.000Z</time>
      </trkpt>
      <trkpt lat="39.91463966667652130126953125" lon="-0.57208408601582050323486328125">
        <ele>495</ele>
        <time>2022-08-26T20:30:45.000Z</time>
      </trkpt>
      <trkpt lat="39.9145811609923839569091796875" lon="-0.57184838689863681793212890625">
        <ele>495.399993896484375</ele>
        <time>2022-08-26T20:30:51.000Z</time>
      </trkpt>
      <trkpt lat="39.91450748406350612640380859375" lon="-0.57155191898345947265625">
        <ele>495.399993896484375</ele>
        <time>2022-08-26T20:30:57.000Z</time>
      </trkpt>
      <trkpt lat="39.9144772253930568695068359375" lon="-0.5713896453380584716796875">
        <ele>494.399993896484375</ele>
        <time>2022-08-26T20:31:02.000Z</time>
      </trkpt>
      <trkpt lat="39.91446674801409244537353515625" lon="-0.57135678827762603759765625">
        <ele>493.399993896484375</ele>
        <time>2022-08-26T20:31:05.000Z</time>
      </trkpt>
      <trkpt lat="39.9144634790718555450439453125" lon="-0.57134874165058135986328125">
        <ele>493</ele>
        <time>2022-08-26T20:31:07.000Z</time>
      </trkpt>
      <trkpt lat="39.914430789649486541748046875" lon="-0.57131563313305377960205078125">
        <ele>492</ele>
        <time>2022-08-26T20:31:23.000Z</time>
      </trkpt>
      <trkpt lat="39.91438577882945537567138671875" lon="-0.57130859233438968658447265625">
        <ele>492</ele>
        <time>2022-08-26T20:31:25.000Z</time>
      </trkpt>
      <trkpt lat="39.9142556078732013702392578125" lon="-0.57132652960717678070068359375">
        <ele>492</ele>
        <time>2022-08-26T20:31:29.000Z</time>
      </trkpt>
      <trkpt lat="39.914221577346324920654296875" lon="-0.5713361687958240509033203125">
        <ele>492</ele>
        <time>2022-08-26T20:31:30.000Z</time>
      </trkpt>
      <trkpt lat="39.914093501865863800048828125" lon="-0.57138235308229923248291015625">
        <ele>491.79998779296875</ele>
        <time>2022-08-26T20:31:35.000Z</time>
      </trkpt>
      <trkpt lat="39.9140906520187854766845703125" lon="-0.5713867954909801483154296875">
        <ele>491.399993896484375</ele>
        <time>2022-08-26T20:31:37.000Z</time>
      </trkpt>
      <trkpt lat="39.91325740702450275421142578125" lon="-0.57186414487659931182861328125">
        <ele>492.399993896484375</ele>
        <time>2022-08-26T20:47:48.000Z</time>
      </trkpt>
      <trkpt lat="39.91322505287826061248779296875" lon="-0.571889542043209075927734375">
        <ele>492.399993896484375</ele>
        <time>2022-08-26T20:47:49.000Z</time>
      </trkpt>
      <trkpt lat="39.9129678122699260711669921875" lon="-0.57207553647458553314208984375">
        <ele>492.20001220703125</ele>
        <time>2022-08-26T20:47:56.000Z</time>
      </trkpt>
      <trkpt lat="39.91275633685290813446044921875" lon="-0.5722238123416900634765625">
        <ele>491.600006103515625</ele>
        <time>2022-08-26T20:48:02.000Z</time>
      </trkpt>
      <trkpt lat="39.91268710233271121978759765625" lon="-0.572273097932338714599609375">
        <ele>491.20001220703125</ele>
        <time>2022-08-26T20:48:05.000Z</time>
      </trkpt>
      <trkpt lat="39.91266430355608463287353515625" lon="-0.572270415723323822021484375">
        <ele>491</ele>
        <time>2022-08-26T20:48:06.000Z</time>
      </trkpt>
      <trkpt lat="39.91264485754072666168212890625" lon="-0.57225122116506099700927734375">
        <ele>490.79998779296875</ele>
        <time>2022-08-26T20:48:07.000Z</time>
      </trkpt>
      <trkpt lat="39.91261568851768970489501953125" lon="-0.57208643294870853424072265625">
        <ele>490.399993896484375</ele>
        <time>2022-08-26T20:48:11.000Z</time>
      </trkpt>
      <trkpt lat="39.91259389556944370269775390625" lon="-0.571944527328014373779296875">
        <ele>490</ele>
        <time>2022-08-26T20:48:14.000Z</time>
      </trkpt>
      <trkpt lat="39.9125648103654384613037109375" lon="-0.57179742492735385894775390625">
        <ele>490</ele>
        <time>2022-08-26T20:48:17.000Z</time>
      </trkpt>
      <trkpt lat="39.91247571073472499847412109375" lon="-0.5714585445821285247802734375">
        <ele>489.399993896484375</ele>
        <time>2022-08-26T20:48:23.000Z</time>
      </trkpt>
      <trkpt lat="39.91241871379315853118896484375" lon="-0.57127942331135272979736328125">
        <ele>489</ele>
        <time>2022-08-26T20:48:26.000Z</time>
      </trkpt>
      <trkpt lat="39.91235911846160888671875" lon="-0.5711182393133640289306640625">
        <ele>488.600006103515625</ele>
        <time>2022-08-26T20:48:29.000Z</time>
      </trkpt>
      <trkpt lat="39.91231419146060943603515625" lon="-0.57093760930001735687255859375">
        <ele>487.79998779296875</ele>
        <time>2022-08-26T20:48:32.000Z</time>
      </trkpt>
      <trkpt lat="39.91229474544525146484375" lon="-0.570879019796848297119140625">
        <ele>487.600006103515625</ele>
        <time>2022-08-26T20:48:33.000Z</time>
      </trkpt>
      <trkpt lat="39.91226750425994396209716796875" lon="-0.57081892155110836029052734375">
        <ele>487.600006103515625</ele>
        <time>2022-08-26T20:48:34.000Z</time>
      </trkpt>
      <trkpt lat="39.91217899136245250701904296875" lon="-0.5705261416733264923095703125">
        <ele>487.20001220703125</ele>
        <time>2022-08-26T20:48:39.000Z</time>
      </trkpt>
      <trkpt lat="39.91216843016445636749267578125" lon="-0.57047165930271148681640625">
        <ele>486.79998779296875</ele>
        <time>2022-08-26T20:48:40.000Z</time>
      </trkpt>
      <trkpt lat="39.91215401329100131988525390625" lon="-0.5703588388860225677490234375">
        <ele>485.600006103515625</ele>
        <time>2022-08-26T20:48:42.000Z</time>
      </trkpt>
      <trkpt lat="39.91214496083557605743408203125" lon="-0.57025364600121974945068359375">
        <ele>484.399993896484375</ele>
        <time>2022-08-26T20:48:44.000Z</time>
      </trkpt>
      <trkpt lat="39.91213691420853137969970703125" lon="-0.5702079646289348602294921875">
        <ele>484</ele>
        <time>2022-08-26T20:48:45.000Z</time>
      </trkpt>
      <trkpt lat="39.91213574074208736419677734375" lon="-0.57016320526599884033203125">
        <ele>483.399993896484375</ele>
        <time>2022-08-26T20:48:46.000Z</time>
      </trkpt>
      <trkpt lat="39.91207069717347621917724609375" lon="-0.57005750946700572967529296875">
        <ele>482.600006103515625</ele>
        <time>2022-08-26T20:48:50.000Z</time>
      </trkpt>
      <trkpt lat="39.91192351095378398895263671875" lon="-0.56990361772477626800537109375">
        <ele>481.399993896484375</ele>
        <time>2022-08-26T20:48:55.000Z</time>
      </trkpt>
      <trkpt lat="39.9118489958345890045166015625" lon="-0.56981275789439678192138671875">
        <ele>481.399993896484375</ele>
        <time>2022-08-26T20:48:57.000Z</time>
      </trkpt>
      <trkpt lat="39.91171605885028839111328125" lon="-0.5696748755872249603271484375">
        <ele>481</ele>
        <time>2022-08-26T20:49:00.000Z</time>
      </trkpt>
      <trkpt lat="39.91157448850572109222412109375" lon="-0.56951570324599742889404296875">
        <ele>480</ele>
        <time>2022-08-26T20:49:04.000Z</time>
      </trkpt>
      <trkpt lat="39.9115432240068912506103515625" lon="-0.56948485784232616424560546875">
        <ele>480</ele>
        <time>2022-08-26T20:49:05.000Z</time>
      </trkpt>
      <trkpt lat="39.91148597560822963714599609375" lon="-0.56942853145301342010498046875">
        <ele>479.20001220703125</ele>
        <time>2022-08-26T20:49:07.000Z</time>
      </trkpt>
      <trkpt lat="39.91141472943127155303955078125" lon="-0.56936348788440227508544921875">
        <ele>478</ele>
        <time>2022-08-26T20:49:10.000Z</time>
      </trkpt>
      <trkpt lat="39.9113883264362812042236328125" lon="-0.56934253312647342681884765625">
        <ele>478</ele>
        <time>2022-08-26T20:49:11.000Z</time>
      </trkpt>
      <trkpt lat="39.91127843968570232391357421875" lon="-0.56924396194517612457275390625">
        <ele>477</ele>
        <time>2022-08-26T20:49:16.000Z</time>
      </trkpt>
      <trkpt lat="39.911277852952480316162109375" lon="-0.56924262084066867828369140625">
        <ele>476.79998779296875</ele>
        <time>2022-08-26T20:49:17.000Z</time>
      </trkpt>
      <trkpt lat="39.91124725900590419769287109375" lon="-0.5691464804112911224365234375">
        <ele>476.399993896484375</ele>
        <time>2022-08-26T20:53:00.000Z</time>
      </trkpt>
      <trkpt lat="39.91120685823261737823486328125" lon="-0.56909811682999134063720703125">
        <ele>476.399993896484375</ele>
        <time>2022-08-26T20:53:02.000Z</time>
      </trkpt>
      <trkpt lat="39.9111120589077472686767578125" lon="-0.56886275298893451690673828125">
        <ele>475.79998779296875</ele>
        <time>2022-08-26T20:53:08.000Z</time>
      </trkpt>
      <trkpt lat="39.911027736961841583251953125" lon="-0.56871070526540279388427734375">
        <ele>475.20001220703125</ele>
        <time>2022-08-26T20:53:11.000Z</time>
      </trkpt>
      <trkpt lat="39.91096864454448223114013671875" lon="-0.5686117149889469146728515625">
        <ele>474.79998779296875</ele>
        <time>2022-08-26T20:53:13.000Z</time>
      </trkpt>
      <trkpt lat="39.910941235721111297607421875" lon="-0.56855731643736362457275390625">
        <ele>474.600006103515625</ele>
        <time>2022-08-26T20:53:14.000Z</time>
      </trkpt>
      <trkpt lat="39.910874180495738983154296875" lon="-0.56843929924070835113525390625">
        <ele>474.20001220703125</ele>
        <time>2022-08-26T20:53:16.000Z</time>
      </trkpt>
      <trkpt lat="39.91080184467136859893798828125" lon="-0.5682999081909656524658203125">
        <ele>473.79998779296875</ele>
        <time>2022-08-26T20:53:18.000Z</time>
      </trkpt>
      <trkpt lat="39.91071752272546291351318359375" lon="-0.56806378997862339019775390625">
        <ele>473.20001220703125</ele>
        <time>2022-08-26T20:53:21.000Z</time>
      </trkpt>
      <trkpt lat="39.91066002286970615386962890625" lon="-0.56791978888213634490966796875">
        <ele>472.79998779296875</ele>
        <time>2022-08-26T20:53:23.000Z</time>
      </trkpt>
      <trkpt lat="39.91054904647171497344970703125" lon="-0.56772868148982524871826171875">
        <ele>472</ele>
        <time>2022-08-26T20:53:26.000Z</time>
      </trkpt>
      <trkpt lat="39.9104187078773975372314453125" lon="-0.56757596321403980255126953125">
        <ele>471.20001220703125</ele>
        <time>2022-08-26T20:53:29.000Z</time>
      </trkpt>
      <trkpt lat="39.91037772037088871002197265625" lon="-0.56753254495561122894287109375">
        <ele>471</ele>
        <time>2022-08-26T20:53:30.000Z</time>
      </trkpt>
      <trkpt lat="39.91023740731179714202880859375" lon="-0.5673765577375888824462890625">
        <ele>469.79998779296875</ele>
        <time>2022-08-26T20:53:34.000Z</time>
      </trkpt>
      <trkpt lat="39.9102021194994449615478515625" lon="-0.56733339093625545501708984375">
        <ele>469.600006103515625</ele>
        <time>2022-08-26T20:53:35.000Z</time>
      </trkpt>
      <trkpt lat="39.91010212339460849761962890625" lon="-0.5672045610845088958740234375">
        <ele>468.399993896484375</ele>
        <time>2022-08-26T20:53:38.000Z</time>
      </trkpt>
      <trkpt lat="39.91005635820329189300537109375" lon="-0.5671365000307559967041015625">
        <ele>467.600006103515625</ele>
        <time>2022-08-26T20:53:41.000Z</time>
      </trkpt>
      <trkpt lat="39.91005317308008670806884765625" lon="-0.5671341530978679656982421875">
        <ele>467</ele>
        <time>2022-08-26T20:53:42.000Z</time>
      </trkpt>
      <trkpt lat="39.9100442044436931610107421875" lon="-0.56714513339102268218994140625">
        <ele>466.399993896484375</ele>
        <time>2022-08-26T20:53:44.000Z</time>
      </trkpt>
      <trkpt lat="39.9100220762193202972412109375" lon="-0.5670613981783390045166015625">
        <ele>464.79998779296875</ele>
        <time>2022-08-26T20:53:52.000Z</time>
      </trkpt>
      <trkpt lat="39.910042025148868560791015625" lon="-0.5668635852634906768798828125">
        <ele>464.79998779296875</ele>
        <time>2022-08-26T20:53:56.000Z</time>
      </trkpt>
      <trkpt lat="39.91004261188209056854248046875" lon="-0.56672033853828907012939453125">
        <ele>464.79998779296875</ele>
        <time>2022-08-26T20:53:59.000Z</time>
      </trkpt>
      <trkpt lat="39.910036660730838775634765625" lon="-0.56663467548787593841552734375">
        <ele>464.600006103515625</ele>
        <time>2022-08-26T20:54:01.000Z</time>
      </trkpt>
      <trkpt lat="39.9100140295922756195068359375" lon="-0.56642948649823665618896484375">
        <ele>464</ele>
        <time>2022-08-26T20:54:06.000Z</time>
      </trkpt>
      <trkpt lat="39.91000070236623287200927734375" lon="-0.56637248955667018890380859375">
        <ele>463.79998779296875</ele>
        <time>2022-08-26T20:54:07.000Z</time>
      </trkpt>
      <trkpt lat="39.909915626049041748046875" lon="-0.5660532228648662567138671875">
        <ele>462.79998779296875</ele>
        <time>2022-08-26T20:54:12.000Z</time>
      </trkpt>
      <trkpt lat="39.90985753946006298065185546875" lon="-0.5659003369510173797607421875">
        <ele>462.399993896484375</ele>
        <time>2022-08-26T20:54:14.000Z</time>
      </trkpt>
      <trkpt lat="39.90979232825338840484619140625" lon="-0.56566153652966022491455078125">
        <ele>461.79998779296875</ele>
        <time>2022-08-26T20:54:17.000Z</time>
      </trkpt>
      <trkpt lat="39.90972946397960186004638671875" lon="-0.56533765979111194610595703125">
        <ele>461.20001220703125</ele>
        <time>2022-08-26T20:54:21.000Z</time>
      </trkpt>
      <trkpt lat="39.9096502549946308135986328125" lon="-0.56499685160815715789794921875">
        <ele>460.79998779296875</ele>
        <time>2022-08-26T20:54:25.000Z</time>
      </trkpt>
      <trkpt lat="39.9096063338220119476318359375" lon="-0.56483021937310695648193359375">
        <ele>460.399993896484375</ele>
        <time>2022-08-26T20:54:27.000Z</time>
      </trkpt>
      <trkpt lat="39.9095399491488933563232421875" lon="-0.56458395905792713165283203125">
        <ele>459.79998779296875</ele>
        <time>2022-08-26T20:54:30.000Z</time>
      </trkpt>
      <trkpt lat="39.90937692113220691680908203125" lon="-0.56391608901321887969970703125">
        <ele>458.79998779296875</ele>
        <time>2022-08-26T20:54:38.000Z</time>
      </trkpt>
      <trkpt lat="39.9092291481792926788330078125" lon="-0.56333455257117748260498046875">
        <ele>457.600006103515625</ele>
        <time>2022-08-26T20:54:45.000Z</time>
      </trkpt>
      <trkpt lat="39.90916452370584011077880859375" lon="-0.56309130974113941192626953125">
        <ele>457.20001220703125</ele>
        <time>2022-08-26T20:54:48.000Z</time>
      </trkpt>
      <trkpt lat="39.909057319164276123046875" lon="-0.5626883916556835174560546875">
        <ele>456.399993896484375</ele>
        <time>2022-08-26T20:54:53.000Z</time>
      </trkpt>
      <trkpt lat="39.90901163779199123382568359375" lon="-0.56252854876220226287841796875">
        <ele>456</ele>
        <time>2022-08-26T20:54:55.000Z</time>
      </trkpt>
      <trkpt lat="39.908949024975299835205078125" lon="-0.56230609305202960968017578125">
        <ele>455.79998779296875</ele>
        <time>2022-08-26T20:54:58.000Z</time>
      </trkpt>
      <trkpt lat="39.9089066125452518463134765625" lon="-0.5620986409485340118408203125">
        <ele>455.399993896484375</ele>
        <time>2022-08-26T20:55:01.000Z</time>
      </trkpt>
      <trkpt lat="39.9087446741759777069091796875" lon="-0.56140311062335968017578125">
        <ele>454.79998779296875</ele>
        <time>2022-08-26T20:55:11.000Z</time>
      </trkpt>
      <trkpt lat="39.90872531197965145111083984375" lon="-0.5613332055509090423583984375">
        <ele>454.79998779296875</ele>
        <time>2022-08-26T20:55:12.000Z</time>
      </trkpt>
      <trkpt lat="39.90855381824076175689697265625" lon="-0.560859628021717071533203125">
        <ele>454.79998779296875</ele>
        <time>2022-08-26T20:55:19.000Z</time>
      </trkpt>
      <trkpt lat="39.90831770002841949462890625" lon="-0.56033953092992305755615234375">
        <ele>455.20001220703125</ele>
        <time>2022-08-26T20:55:28.000Z</time>
      </trkpt>
      <trkpt lat="39.908177889883518218994140625" lon="-0.56024984456598758697509765625">
        <ele>455.20001220703125</ele>
        <time>2022-08-26T20:55:32.000Z</time>
      </trkpt>
      <trkpt lat="39.9081482179462909698486328125" lon="-0.5602128803730010986328125">
        <ele>455.20001220703125</ele>
        <time>2022-08-26T20:55:33.000Z</time>
      </trkpt>
      <trkpt lat="39.908070266246795654296875" lon="-0.5600685440003871917724609375">
        <ele>455.20001220703125</ele>
        <time>2022-08-26T20:55:36.000Z</time>
      </trkpt>
      <trkpt lat="39.90777052938938140869140625" lon="-0.55960410274565219879150390625">
        <ele>455.20001220703125</ele>
        <time>2022-08-26T20:55:45.000Z</time>
      </trkpt>
      <trkpt lat="39.90742561407387256622314453125" lon="-0.5591587722301483154296875">
        <ele>455.600006103515625</ele>
        <time>2022-08-26T20:55:55.000Z</time>
      </trkpt>
      <trkpt lat="39.90714414976537227630615234375" lon="-0.5589510686695575714111328125">
        <ele>456</ele>
        <time>2022-08-26T20:56:03.000Z</time>
      </trkpt>
      <trkpt lat="39.90688213147222995758056640625" lon="-0.55884889326989650726318359375">
        <ele>456.79998779296875</ele>
        <time>2022-08-26T20:56:10.000Z</time>
      </trkpt>
      <trkpt lat="39.90680367685854434967041015625" lon="-0.55882575921714305877685546875">
        <ele>457</ele>
        <time>2022-08-26T20:56:12.000Z</time>
      </trkpt>
      <trkpt lat="39.90656755864620208740234375" lon="-0.5588511563837528228759765625">
        <ele>457.79998779296875</ele>
        <time>2022-08-26T20:56:19.000Z</time>
      </trkpt>
      <trkpt lat="39.90653662942349910736083984375" lon="-0.55886113084852695465087890625">
        <ele>458</ele>
        <time>2022-08-26T20:56:20.000Z</time>
      </trkpt>
      <trkpt lat="39.9063759483397006988525390625" lon="-0.55893925018608570098876953125">
        <ele>459</ele>
        <time>2022-08-26T20:56:25.000Z</time>
      </trkpt>
      <trkpt lat="39.90634568966925144195556640625" lon="-0.558958947658538818359375">
        <ele>459.20001220703125</ele>
        <time>2022-08-26T20:56:26.000Z</time>
      </trkpt>
      <trkpt lat="39.90611099638044834136962890625" lon="-0.5591006018221378326416015625">
        <ele>460.20001220703125</ele>
        <time>2022-08-26T20:56:33.000Z</time>
      </trkpt>
      <trkpt lat="39.90608149208128452301025390625" lon="-0.55912180803716182708740234375">
        <ele>460.399993896484375</ele>
        <time>2022-08-26T20:56:34.000Z</time>
      </trkpt>
      <trkpt lat="39.905798770487308502197265625" lon="-0.559255667030811309814453125">
        <ele>461.20001220703125</ele>
        <time>2022-08-26T20:56:43.000Z</time>
      </trkpt>
      <trkpt lat="39.90573205053806304931640625" lon="-0.55926949717104434967041015625">
        <ele>461.399993896484375</ele>
        <time>2022-08-26T20:56:45.000Z</time>
      </trkpt>
      <trkpt lat="39.90562400780618190765380859375" lon="-0.55927603505551815032958984375">
        <ele>462.20001220703125</ele>
        <time>2022-08-26T20:56:48.000Z</time>
      </trkpt>
      <trkpt lat="39.90549199283123016357421875" lon="-0.55931962095201015472412109375">
        <ele>463.20001220703125</ele>
        <time>2022-08-26T20:56:52.000Z</time>
      </trkpt>
      <trkpt lat="39.90546357817947864532470703125" lon="-0.55934359319508075714111328125">
        <ele>463.399993896484375</ele>
        <time>2022-08-26T20:56:53.000Z</time>
      </trkpt>
      <trkpt lat="39.90532125346362590789794921875" lon="-0.55949731729924678802490234375">
        <ele>463.79998779296875</ele>
        <time>2022-08-26T20:56:58.000Z</time>
      </trkpt>
      <trkpt lat="39.90508270449936389923095703125" lon="-0.55970954708755016326904296875">
        <ele>463.79998779296875</ele>
        <time>2022-08-26T20:57:06.000Z</time>
      </trkpt>
      <trkpt lat="39.90475983358919620513916015625" lon="-0.560026466846466064453125">
        <ele>463.600006103515625</ele>
        <time>2022-08-26T20:57:15.000Z</time>
      </trkpt>
      <trkpt lat="39.904435537755489349365234375" lon="-0.56032964028418064117431640625">
        <ele>463</ele>
        <time>2022-08-26T20:57:23.000Z</time>
      </trkpt>
      <trkpt lat="39.904197491705417633056640625" lon="-0.5605667643249034881591796875">
        <ele>462.600006103515625</ele>
        <time>2022-08-26T20:57:29.000Z</time>
      </trkpt>
      <trkpt lat="39.90413881838321685791015625" lon="-0.56061563082039356231689453125">
        <ele>462.600006103515625</ele>
        <time>2022-08-26T20:57:30.000Z</time>
      </trkpt>
      <trkpt lat="39.90365308709442615509033203125" lon="-0.56091620586812496185302734375">
        <ele>462.20001220703125</ele>
        <time>2022-08-26T20:57:38.000Z</time>
      </trkpt>
      <trkpt lat="39.9032018892467021942138671875" lon="-0.56105886586010456085205078125">
        <ele>461.600006103515625</ele>
        <time>2022-08-26T20:57:45.000Z</time>
      </trkpt>
      <trkpt lat="39.90282445214688777923583984375" lon="-0.56108267046511173248291015625">
        <ele>460.600006103515625</ele>
        <time>2022-08-26T20:57:51.000Z</time>
      </trkpt>
      <trkpt lat="39.90276041440665721893310546875" lon="-0.5610777251422405242919921875">
        <ele>460.600006103515625</ele>
        <time>2022-08-26T20:57:52.000Z</time>
      </trkpt>
      <trkpt lat="39.9022738449275493621826171875" lon="-0.56099273264408111572265625">
        <ele>460</ele>
        <time>2022-08-26T20:57:59.000Z</time>
      </trkpt>
      <trkpt lat="39.9022020958364009857177734375" lon="-0.560970939695835113525390625">
        <ele>459.79998779296875</ele>
        <time>2022-08-26T20:58:00.000Z</time>
      </trkpt>
      <trkpt lat="39.90206588990986347198486328125" lon="-0.560903213918209075927734375">
        <ele>459.399993896484375</ele>
        <time>2022-08-26T20:58:02.000Z</time>
      </trkpt>
      <trkpt lat="39.9019159376621246337890625" lon="-0.560822747647762298583984375">
        <ele>458.79998779296875</ele>
        <time>2022-08-26T20:58:04.000Z</time>
      </trkpt>
      <trkpt lat="39.90184393711388111114501953125" lon="-0.5607769824564456939697265625">
        <ele>458.600006103515625</ele>
        <time>2022-08-26T20:58:05.000Z</time>
      </trkpt>
      <trkpt lat="39.90151938982307910919189453125" lon="-0.56052200496196746826171875">
        <ele>458</ele>
        <time>2022-08-26T20:58:10.000Z</time>
      </trkpt>
      <trkpt lat="39.901391565799713134765625" lon="-0.56041714735329151153564453125">
        <ele>457.399993896484375</ele>
        <time>2022-08-26T20:58:12.000Z</time>
      </trkpt>
      <trkpt lat="39.901061989367008209228515625" lon="-0.5601640976965427398681640625">
        <ele>456.20001220703125</ele>
        <time>2022-08-26T20:58:17.000Z</time>
      </trkpt>
      <trkpt lat="39.9006135575473308563232421875" lon="-0.5597480200231075286865234375">
        <ele>455.399993896484375</ele>
        <time>2022-08-26T20:58:24.000Z</time>
      </trkpt>
      <trkpt lat="39.9004060216248035430908203125" lon="-0.55958264507353305816650390625">
        <ele>455.20001220703125</ele>
        <time>2022-08-26T20:58:27.000Z</time>
      </trkpt>
      <trkpt lat="39.90011123009026050567626953125" lon="-0.559393130242824554443359375">
        <ele>454.79998779296875</ele>
        <time>2022-08-26T20:58:31.000Z</time>
      </trkpt>
      <trkpt lat="39.89986077882349491119384765625" lon="-0.55917478166520595550537109375">
        <ele>454</ele>
        <time>2022-08-26T20:58:35.000Z</time>
      </trkpt>
      <trkpt lat="39.89977419376373291015625" lon="-0.55904855020344257354736328125">
        <ele>453.600006103515625</ele>
        <time>2022-08-26T20:58:37.000Z</time>
      </trkpt>
      <trkpt lat="39.8997156880795955657958984375" lon="-0.55890890769660472869873046875">
        <ele>453</ele>
        <time>2022-08-26T20:58:39.000Z</time>
      </trkpt>
      <trkpt lat="39.899294413626194000244140625" lon="-0.55854798294603824615478515625">
        <ele>452.20001220703125</ele>
        <time>2022-08-26T20:58:46.000Z</time>
      </trkpt>
      <trkpt lat="39.8991787433624267578125" lon="-0.558449663221836090087890625">
        <ele>452.20001220703125</ele>
        <time>2022-08-26T20:58:48.000Z</time>
      </trkpt>
      <trkpt lat="39.8990002088248729705810546875" lon="-0.558298118412494659423828125">
        <ele>452.20001220703125</ele>
        <time>2022-08-26T20:58:51.000Z</time>
      </trkpt>
      <trkpt lat="39.89876844920217990875244140625" lon="-0.55808915756642818450927734375">
        <ele>451.399993896484375</ele>
        <time>2022-08-26T20:58:55.000Z</time>
      </trkpt>
      <trkpt lat="39.89865613169968128204345703125" lon="-0.55798186920583248138427734375">
        <ele>451</ele>
        <time>2022-08-26T20:58:57.000Z</time>
      </trkpt>
      <trkpt lat="39.898367710411548614501953125" lon="-0.55771146900951862335205078125">
        <ele>450.399993896484375</ele>
        <time>2022-08-26T20:59:02.000Z</time>
      </trkpt>
      <trkpt lat="39.89825095050036907196044921875" lon="-0.55753779597580432891845703125">
        <ele>450</ele>
        <time>2022-08-26T20:59:05.000Z</time>
      </trkpt>
      <trkpt lat="39.89821381866931915283203125" lon="-0.5573870055377483367919921875">
        <ele>449.600006103515625</ele>
        <time>2022-08-26T20:59:07.000Z</time>
      </trkpt>
      <trkpt lat="39.89812128245830535888671875" lon="-0.557258091866970062255859375">
        <ele>449.399993896484375</ele>
        <time>2022-08-26T20:59:09.000Z</time>
      </trkpt>
      <trkpt lat="39.89800586365163326263427734375" lon="-0.55712104775011539459228515625">
        <ele>448.79998779296875</ele>
        <time>2022-08-26T20:59:11.000Z</time>
      </trkpt>
      <trkpt lat="39.89793646149337291717529296875" lon="-0.5570480413734912872314453125">
        <ele>448.600006103515625</ele>
        <time>2022-08-26T20:59:12.000Z</time>
      </trkpt>
      <trkpt lat="39.89761912263929843902587890625" lon="-0.55666356347501277923583984375">
        <ele>447.79998779296875</ele>
        <time>2022-08-26T20:59:17.000Z</time>
      </trkpt>
      <trkpt lat="39.89741594530642032623291015625" lon="-0.556425936520099639892578125">
        <ele>447.399993896484375</ele>
        <time>2022-08-26T20:59:20.000Z</time>
      </trkpt>
      <trkpt lat="39.89707295782864093780517578125" lon="-0.5559516884386539459228515625">
        <ele>446.600006103515625</ele>
        <time>2022-08-26T20:59:26.000Z</time>
      </trkpt>
      <trkpt lat="39.89696449600160121917724609375" lon="-0.55547584779560565948486328125">
        <ele>445.79998779296875</ele>
        <time>2022-08-26T20:59:31.000Z</time>
      </trkpt>
      <trkpt lat="39.8969323933124542236328125" lon="-0.55539689026772975921630859375">
        <ele>445.600006103515625</ele>
        <time>2022-08-26T20:59:32.000Z</time>
      </trkpt>
      <trkpt lat="39.896679930388927459716796875" lon="-0.55489582009613513946533203125">
        <ele>444.79998779296875</ele>
        <time>2022-08-26T20:59:38.000Z</time>
      </trkpt>
      <trkpt lat="39.89663693122565746307373046875" lon="-0.5548097379505634307861328125">
        <ele>444.399993896484375</ele>
        <time>2022-08-26T20:59:39.000Z</time>
      </trkpt>
      <trkpt lat="39.896408356726169586181640625" lon="-0.55440179072320461273193359375">
        <ele>443.399993896484375</ele>
        <time>2022-08-26T20:59:44.000Z</time>
      </trkpt>
      <trkpt lat="39.8961751721799373626708984375" lon="-0.55399023927748203277587890625">
        <ele>442.399993896484375</ele>
        <time>2022-08-26T20:59:49.000Z</time>
      </trkpt>
      <trkpt lat="39.8960883356630802154541015625" lon="-0.553824864327907562255859375">
        <ele>442.20001220703125</ele>
        <time>2022-08-26T20:59:51.000Z</time>
      </trkpt>
      <trkpt lat="39.895807541906833648681640625" lon="-0.55327744223177433013916015625">
        <ele>441</ele>
        <time>2022-08-26T20:59:58.000Z</time>
      </trkpt>
      <trkpt lat="39.895767308771610260009765625" lon="-0.55320083163678646087646484375">
        <ele>440.79998779296875</ele>
        <time>2022-08-26T20:59:59.000Z</time>
      </trkpt>
      <trkpt lat="39.89556505344808101654052734375" lon="-0.55283001624047756195068359375">
        <ele>440.20001220703125</ele>
        <time>2022-08-26T21:00:04.000Z</time>
      </trkpt>
      <trkpt lat="39.89537981338798999786376953125" lon="-0.55249121971428394317626953125">
        <ele>439.600006103515625</ele>
        <time>2022-08-26T21:00:09.000Z</time>
      </trkpt>
      <trkpt lat="39.895073957741260528564453125" lon="-0.55190331302583217620849609375">
        <ele>439.399993896484375</ele>
        <time>2022-08-26T21:00:18.000Z</time>
      </trkpt>
      <trkpt lat="39.89504554308950901031494140625" lon="-0.55184371769428253173828125">
        <ele>439.399993896484375</ele>
        <time>2022-08-26T21:00:19.000Z</time>
      </trkpt>
      <trkpt lat="39.8949100077152252197265625" lon="-0.551546327769756317138671875">
        <ele>439.20001220703125</ele>
        <time>2022-08-26T21:00:24.000Z</time>
      </trkpt>
      <trkpt lat="39.89476609043776988983154296875" lon="-0.551249273121356964111328125">
        <ele>439.399993896484375</ele>
        <time>2022-08-26T21:00:29.000Z</time>
      </trkpt>
      <trkpt lat="39.89458839409053325653076171875" lon="-0.55094107054173946380615234375">
        <ele>439.399993896484375</ele>
        <time>2022-08-26T21:00:36.000Z</time>
      </trkpt>
      <trkpt lat="39.89432620815932750701904296875" lon="-0.55066597647964954376220703125">
        <ele>439.399993896484375</ele>
        <time>2022-08-26T21:00:43.000Z</time>
      </trkpt>
      <trkpt lat="39.89414012990891933441162109375" lon="-0.55048107169568538665771484375">
        <ele>440.20001220703125</ele>
        <time>2022-08-26T21:00:47.000Z</time>
      </trkpt>
      <trkpt lat="39.8941058479249477386474609375" lon="-0.55042709223926067352294921875">
        <ele>440.399993896484375</ele>
        <time>2022-08-26T21:00:48.000Z</time>
      </trkpt>
      <trkpt lat="39.89403317682445049285888671875" lon="-0.55032332427799701690673828125">
        <ele>440.399993896484375</ele>
        <time>2022-08-26T21:00:50.000Z</time>
      </trkpt>
      <trkpt lat="39.89399327896535396575927734375" lon="-0.5502699315547943115234375">
        <ele>440.600006103515625</ele>
        <time>2022-08-26T21:00:51.000Z</time>
      </trkpt>
      <trkpt lat="39.89387978799641132354736328125" lon="-0.5499757267534732818603515625">
        <ele>440.600006103515625</ele>
        <time>2022-08-26T21:00:56.000Z</time>
      </trkpt>
      <trkpt lat="39.8938235454261302947998046875" lon="-0.54985075257718563079833984375">
        <ele>440.600006103515625</ele>
        <time>2022-08-26T21:00:58.000Z</time>
      </trkpt>
      <trkpt lat="39.89367820322513580322265625" lon="-0.5496652610599994659423828125">
        <ele>440.600006103515625</ele>
        <time>2022-08-26T21:01:02.000Z</time>
      </trkpt>
      <trkpt lat="39.8934805579483509063720703125" lon="-0.54925127886235713958740234375">
        <ele>440.600006103515625</ele>
        <time>2022-08-26T21:01:09.000Z</time>
      </trkpt>
      <trkpt lat="39.89329171366989612579345703125" lon="-0.54890594445168972015380859375">
        <ele>440.79998779296875</ele>
        <time>2022-08-26T21:01:15.000Z</time>
      </trkpt>
      <trkpt lat="39.89302550442516803741455078125" lon="-0.54857200942933559417724609375">
        <ele>440.79998779296875</ele>
        <time>2022-08-26T21:01:23.000Z</time>
      </trkpt>
      <trkpt lat="39.892716296017169952392578125" lon="-0.54829180240631103515625">
        <ele>441.20001220703125</ele>
        <time>2022-08-26T21:01:31.000Z</time>
      </trkpt>
      <trkpt lat="39.89242066629230976104736328125" lon="-0.5480683408677577972412109375">
        <ele>441.399993896484375</ele>
        <time>2022-08-26T21:01:38.000Z</time>
      </trkpt>
      <trkpt lat="39.8920791037380695343017578125" lon="-0.54795124568045139312744140625">
        <ele>441.399993896484375</ele>
        <time>2022-08-26T21:01:45.000Z</time>
      </trkpt>
      <trkpt lat="39.891545511782169342041015625" lon="-0.54791335947811603546142578125">
        <ele>441.399993896484375</ele>
        <time>2022-08-26T21:01:54.000Z</time>
      </trkpt>
      <trkpt lat="39.891125746071338653564453125" lon="-0.547862313687801361083984375">
        <ele>441.399993896484375</ele>
        <time>2022-08-26T21:02:02.000Z</time>
      </trkpt>
      <trkpt lat="39.891021810472011566162109375" lon="-0.54783054627478122711181640625">
        <ele>441.399993896484375</ele>
        <time>2022-08-26T21:02:04.000Z</time>
      </trkpt>
      <trkpt lat="39.89087931811809539794921875" lon="-0.54778293706476688385009765625">
        <ele>441.399993896484375</ele>
        <time>2022-08-26T21:02:07.000Z</time>
      </trkpt>
      <trkpt lat="39.89082810468971729278564453125" lon="-0.5477756448090076446533203125">
        <ele>441.399993896484375</ele>
        <time>2022-08-26T21:02:08.000Z</time>
      </trkpt>
      <trkpt lat="39.8904054053127765655517578125" lon="-0.5477491579949855804443359375">
        <ele>441.399993896484375</ele>
        <time>2022-08-26T21:02:16.000Z</time>
      </trkpt>
      <trkpt lat="39.88989871926605701446533203125" lon="-0.54767279885709285736083984375">
        <ele>441.399993896484375</ele>
        <time>2022-08-26T21:02:25.000Z</time>
      </trkpt>
      <trkpt lat="39.88949856720864772796630859375" lon="-0.5475198291242122650146484375">
        <ele>441.399993896484375</ele>
        <time>2022-08-26T21:02:33.000Z</time>
      </trkpt>
      <trkpt lat="39.8890763707458972930908203125" lon="-0.54726761765778064727783203125">
        <ele>441.399993896484375</ele>
        <time>2022-08-26T21:02:42.000Z</time>
      </trkpt>
      <trkpt lat="39.88876230083405971527099609375" lon="-0.54699051193892955780029296875">
        <ele>441.20001220703125</ele>
        <time>2022-08-26T21:02:49.000Z</time>
      </trkpt>
      <trkpt lat="39.88842970691621303558349609375" lon="-0.54654627107083797454833984375">
        <ele>441.20001220703125</ele>
        <time>2022-08-26T21:02:58.000Z</time>
      </trkpt>
      <trkpt lat="39.888221584260463714599609375" lon="-0.546280480921268463134765625">
        <ele>441.20001220703125</ele>
        <time>2022-08-26T21:03:03.000Z</time>
      </trkpt>
      <trkpt lat="39.88811857067048549652099609375" lon="-0.54612399078905582427978515625">
        <ele>441.399993896484375</ele>
        <time>2022-08-26T21:03:06.000Z</time>
      </trkpt>
      <trkpt lat="39.88795881159603595733642578125" lon="-0.54570875130593776702880859375">
        <ele>441.600006103515625</ele>
        <time>2022-08-26T21:03:13.000Z</time>
      </trkpt>
      <trkpt lat="39.88784305751323699951171875" lon="-0.54526769556105136871337890625">
        <ele>441.600006103515625</ele>
        <time>2022-08-26T21:03:19.000Z</time>
      </trkpt>
      <trkpt lat="39.88774113357067108154296875" lon="-0.54498824290931224822998046875">
        <ele>441.399993896484375</ele>
        <time>2022-08-26T21:03:24.000Z</time>
      </trkpt>
      <trkpt lat="39.88769964314997196197509765625" lon="-0.54483703337609767913818359375">
        <ele>441</ele>
        <time>2022-08-26T21:03:27.000Z</time>
      </trkpt>
      <trkpt lat="39.8876920156180858612060546875" lon="-0.54472446441650390625">
        <ele>440.79998779296875</ele>
        <time>2022-08-26T21:03:29.000Z</time>
      </trkpt>
      <trkpt lat="39.88765622489154338836669921875" lon="-0.544657744467258453369140625">
        <ele>440.600006103515625</ele>
        <time>2022-08-26T21:03:31.000Z</time>
      </trkpt>
      <trkpt lat="39.8876457475125789642333984375" lon="-0.544615499675273895263671875">
        <ele>440.399993896484375</ele>
        <time>2022-08-26T21:03:32.000Z</time>
      </trkpt>
      <trkpt lat="39.88764231093227863311767578125" lon="-0.5443878471851348876953125">
        <ele>440</ele>
        <time>2022-08-26T21:03:36.000Z</time>
      </trkpt>
      <trkpt lat="39.887705929577350616455078125" lon="-0.5442126654088497161865234375">
        <ele>439.79998779296875</ele>
        <time>2022-08-26T21:03:37.000Z</time>
      </trkpt>
      <trkpt lat="39.887717664241790771484375" lon="-0.5441311933100223541259765625">
        <ele>439.600006103515625</ele>
        <time>2022-08-26T21:03:38.000Z</time>
      </trkpt>
      <trkpt lat="39.887726046144962310791015625" lon="-0.5439005233347415924072265625">
        <ele>438.600006103515625</ele>
        <time>2022-08-26T21:03:42.000Z</time>
      </trkpt>
      <trkpt lat="39.88764096982777118682861328125" lon="-0.543836653232574462890625">
        <ele>437.79998779296875</ele>
        <time>2022-08-26T21:03:45.000Z</time>
      </trkpt>
      <trkpt lat="39.88760744221508502960205078125" lon="-0.543814189732074737548828125">
        <ele>437.600006103515625</ele>
        <time>2022-08-26T21:03:46.000Z</time>
      </trkpt>
      <trkpt lat="39.8875800333917140960693359375" lon="-0.5437922291457653045654296875">
        <ele>437.600006103515625</ele>
        <time>2022-08-26T21:03:47.000Z</time>
      </trkpt>
      <trkpt lat="39.88740812055766582489013671875" lon="-0.5436985194683074951171875">
        <ele>437.399993896484375</ele>
        <time>2022-08-26T21:03:51.000Z</time>
      </trkpt>
      <trkpt lat="39.88708323799073696136474609375" lon="-0.54348469711840152740478515625">
        <ele>438.20001220703125</ele>
        <time>2022-08-26T21:03:59.000Z</time>
      </trkpt>
      <trkpt lat="39.88699791021645069122314453125" lon="-0.54342962801456451416015625">
        <ele>438.600006103515625</ele>
        <time>2022-08-26T21:04:01.000Z</time>
      </trkpt>
      <trkpt lat="39.88672633655369281768798828125" lon="-0.54324748925864696502685546875">
        <ele>439.600006103515625</ele>
        <time>2022-08-26T21:04:07.000Z</time>
      </trkpt>
      <trkpt lat="39.8866037093102931976318359375" lon="-0.54316484369337558746337890625">
        <ele>439.79998779296875</ele>
        <time>2022-08-26T21:04:10.000Z</time>
      </trkpt>
      <trkpt lat="39.886401034891605377197265625" lon="-0.5430046655237674713134765625">
        <ele>440.20001220703125</ele>
        <time>2022-08-26T21:04:16.000Z</time>
      </trkpt>
      <trkpt lat="39.88616290502250194549560546875" lon="-0.54283912293612957000732421875">
        <ele>441</ele>
        <time>2022-08-26T21:04:22.000Z</time>
      </trkpt>
      <trkpt lat="39.88612485118210315704345703125" lon="-0.54281213320791721343994140625">
        <ele>441</ele>
        <time>2022-08-26T21:04:23.000Z</time>
      </trkpt>
      <trkpt lat="39.8858889006078243255615234375" lon="-0.5426643602550029754638671875">
        <ele>441.399993896484375</ele>
        <time>2022-08-26T21:04:29.000Z</time>
      </trkpt>
      <trkpt lat="39.8855304904282093048095703125" lon="-0.54236202500760555267333984375">
        <ele>441.399993896484375</ele>
        <time>2022-08-26T21:04:37.000Z</time>
      </trkpt>
      <trkpt lat="39.88511793315410614013671875" lon="-0.54195751436054706573486328125">
        <ele>441.399993896484375</ele>
        <time>2022-08-26T21:04:47.000Z</time>
      </trkpt>
      <trkpt lat="39.88471484743058681488037109375" lon="-0.5415314622223377227783203125">
        <ele>441.600006103515625</ele>
        <time>2022-08-26T21:04:57.000Z</time>
      </trkpt>
      <trkpt lat="39.88443539477884769439697265625" lon="-0.5411130376160144805908203125">
        <ele>441.600006103515625</ele>
        <time>2022-08-26T21:05:05.000Z</time>
      </trkpt>
      <trkpt lat="39.88426364958286285400390625" lon="-0.54074339568614959716796875">
        <ele>441.399993896484375</ele>
        <time>2022-08-26T21:05:12.000Z</time>
      </trkpt>
      <trkpt lat="39.88409869372844696044921875" lon="-0.54032505489885807037353515625">
        <ele>441.399993896484375</ele>
        <time>2022-08-26T21:05:19.000Z</time>
      </trkpt>
      <trkpt lat="39.8839121125638484954833984375" lon="-0.5398996733129024505615234375">
        <ele>441.399993896484375</ele>
        <time>2022-08-26T21:05:26.000Z</time>
      </trkpt>
      <trkpt lat="39.8838041536509990692138671875" lon="-0.53959809243679046630859375">
        <ele>441.399993896484375</ele>
        <time>2022-08-26T21:05:31.000Z</time>
      </trkpt>
      <trkpt lat="39.88365084864199161529541015625" lon="-0.53912728093564510345458984375">
        <ele>441.399993896484375</ele>
        <time>2022-08-26T21:05:39.000Z</time>
      </trkpt>
      <trkpt lat="39.88359251059591770172119140625" lon="-0.53893030621111392974853515625">
        <ele>441.600006103515625</ele>
        <time>2022-08-26T21:05:42.000Z</time>
      </trkpt>
      <trkpt lat="39.8835858888924121856689453125" lon="-0.53871036507189273834228515625">
        <ele>441.399993896484375</ele>
        <time>2022-08-26T21:05:45.000Z</time>
      </trkpt>
      <trkpt lat="39.88360223360359668731689453125" lon="-0.53818012587726116180419921875">
        <ele>441.399993896484375</ele>
        <time>2022-08-26T21:05:52.000Z</time>
      </trkpt>
      <trkpt lat="39.88362318836152553558349609375" lon="-0.538087002933025360107421875">
        <ele>441.399993896484375</ele>
        <time>2022-08-26T21:05:53.000Z</time>
      </trkpt>
      <trkpt lat="39.88363391719758510589599609375" lon="-0.53769380785524845123291015625">
        <ele>441.399993896484375</ele>
        <time>2022-08-26T21:05:58.000Z</time>
      </trkpt>
      <trkpt lat="39.88361514173448085784912109375" lon="-0.537450648844242095947265625">
        <ele>441.399993896484375</ele>
        <time>2022-08-26T21:06:01.000Z</time>
      </trkpt>
      <trkpt lat="39.88359787501394748687744140625" lon="-0.53692116402089595794677734375">
        <ele>441.399993896484375</ele>
        <time>2022-08-26T21:06:08.000Z</time>
      </trkpt>
      <trkpt lat="39.88352847285568714141845703125" lon="-0.536530315876007080078125">
        <ele>441.399993896484375</ele>
        <time>2022-08-26T21:06:14.000Z</time>
      </trkpt>
      <trkpt lat="39.8835017345845699310302734375" lon="-0.53615438751876354217529296875">
        <ele>441.399993896484375</ele>
        <time>2022-08-26T21:06:19.000Z</time>
      </trkpt>
      <trkpt lat="39.88350315950810909271240234375" lon="-0.536082051694393157958984375">
        <ele>441.399993896484375</ele>
        <time>2022-08-26T21:06:20.000Z</time>
      </trkpt>
      <trkpt lat="39.8834843002259731292724609375" lon="-0.53579798899590969085693359375">
        <ele>441.600006103515625</ele>
        <time>2022-08-26T21:06:25.000Z</time>
      </trkpt>
      <trkpt lat="39.8834635131061077117919921875" lon="-0.53574937395751476287841796875">
        <ele>441.600006103515625</ele>
        <time>2022-08-26T21:06:26.000Z</time>
      </trkpt>
      <trkpt lat="39.8834625072777271270751953125" lon="-0.53555390797555446624755859375">
        <ele>441.600006103515625</ele>
        <time>2022-08-26T21:06:29.000Z</time>
      </trkpt>
      <trkpt lat="39.88347549922764301300048828125" lon="-0.5354632996022701263427734375">
        <ele>441.600006103515625</ele>
        <time>2022-08-26T21:06:30.000Z</time>
      </trkpt>
      <trkpt lat="39.88351623527705669403076171875" lon="-0.5353687517344951629638671875">
        <ele>441.600006103515625</ele>
        <time>2022-08-26T21:06:31.000Z</time>
      </trkpt>
      <trkpt lat="39.88353936932981014251708984375" lon="-0.53505585528910160064697265625">
        <ele>441.600006103515625</ele>
        <time>2022-08-26T21:06:35.000Z</time>
      </trkpt>
      <trkpt lat="39.883586727082729339599609375" lon="-0.53456869907677173614501953125">
        <ele>441.600006103515625</ele>
        <time>2022-08-26T21:06:41.000Z</time>
      </trkpt>
      <trkpt lat="39.88359502516686916351318359375" lon="-0.534488819539546966552734375">
        <ele>441.600006103515625</ele>
        <time>2022-08-26T21:06:42.000Z</time>
      </trkpt>
      <trkpt lat="39.88360374234616756439208984375" lon="-0.5339889228343963623046875">
        <ele>441.399993896484375</ele>
        <time>2022-08-26T21:06:49.000Z</time>
      </trkpt>
      <trkpt lat="39.883596785366535186767578125" lon="-0.53385422565042972564697265625">
        <ele>441.399993896484375</ele>
        <time>2022-08-26T21:06:51.000Z</time>
      </trkpt>
      <trkpt lat="39.88360139541327953338623046875" lon="-0.53363964892923831939697265625">
        <ele>441.399993896484375</ele>
        <time>2022-08-26T21:06:54.000Z</time>
      </trkpt>
      <trkpt lat="39.8836090229451656341552734375" lon="-0.53349799476563930511474609375">
        <ele>441.399993896484375</ele>
        <time>2022-08-26T21:06:56.000Z</time>
      </trkpt>
      <trkpt lat="39.88363374955952167510986328125" lon="-0.533231198787689208984375">
        <ele>441.20001220703125</ele>
        <time>2022-08-26T21:07:00.000Z</time>
      </trkpt>
      <trkpt lat="39.8836552910506725311279296875" lon="-0.5328300409018993377685546875">
        <ele>441.600006103515625</ele>
        <time>2022-08-26T21:07:06.000Z</time>
      </trkpt>
      <trkpt lat="39.8837525211274623870849609375" lon="-0.53223970346152782440185546875">
        <ele>441.600006103515625</ele>
        <time>2022-08-26T21:07:14.000Z</time>
      </trkpt>
      <trkpt lat="39.88387900404632091522216796875" lon="-0.5317216180264949798583984375">
        <ele>441.600006103515625</ele>
        <time>2022-08-26T21:07:21.000Z</time>
      </trkpt>
      <trkpt lat="39.884073548018932342529296875" lon="-0.53110831417143344879150390625">
        <ele>441.600006103515625</ele>
        <time>2022-08-26T21:07:30.000Z</time>
      </trkpt>
      <trkpt lat="39.88423020578920841217041015625" lon="-0.530606321990489959716796875">
        <ele>441.600006103515625</ele>
        <time>2022-08-26T21:07:38.000Z</time>
      </trkpt>
      <trkpt lat="39.884380996227264404296875" lon="-0.530077926814556121826171875">
        <ele>441.399993896484375</ele>
        <time>2022-08-26T21:07:46.000Z</time>
      </trkpt>
      <trkpt lat="39.88455542363226413726806640625" lon="-0.52956118248403072357177734375">
        <ele>441.600006103515625</ele>
        <time>2022-08-26T21:07:54.000Z</time>
      </trkpt>
      <trkpt lat="39.88471853546798229217529296875" lon="-0.52909883670508861541748046875">
        <ele>441.600006103515625</ele>
        <time>2022-08-26T21:08:01.000Z</time>
      </trkpt>
      <trkpt lat="39.88497518934309482574462890625" lon="-0.52849148400127887725830078125">
        <ele>441.600006103515625</ele>
        <time>2022-08-26T21:08:10.000Z</time>
      </trkpt>
      <trkpt lat="39.885158836841583251953125" lon="-0.52802628837525844573974609375">
        <ele>441.600006103515625</ele>
        <time>2022-08-26T21:08:17.000Z</time>
      </trkpt>
      <trkpt lat="39.885405264794826507568359375" lon="-0.52753913216292858123779296875">
        <ele>441.600006103515625</ele>
        <time>2022-08-26T21:08:24.000Z</time>
      </trkpt>
      <trkpt lat="39.885658733546733856201171875" lon="-0.52698978222906589508056640625">
        <ele>441.600006103515625</ele>
        <time>2022-08-26T21:08:31.000Z</time>
      </trkpt>
      <trkpt lat="39.88579242490231990814208984375" lon="-0.526534728705883026123046875">
        <ele>441.600006103515625</ele>
        <time>2022-08-26T21:08:37.000Z</time>
      </trkpt>
      <trkpt lat="39.8858687840402126312255859375" lon="-0.5262475647032260894775390625">
        <ele>441.79998779296875</ele>
        <time>2022-08-26T21:08:42.000Z</time>
      </trkpt>
      <trkpt lat="39.8859385214745998382568359375" lon="-0.52594305016100406646728515625">
        <ele>441.79998779296875</ele>
        <time>2022-08-26T21:08:49.000Z</time>
      </trkpt>
      <trkpt lat="39.8866117559373378753662109375" lon="-0.52408612333238124847412109375">
        <ele>440.600006103515625</ele>
        <time>2022-08-26T21:09:08.000Z</time>
      </trkpt>
      <trkpt lat="39.88660991191864013671875" lon="-0.5239408649504184722900390625">
        <ele>440.399993896484375</ele>
        <time>2022-08-26T21:09:10.000Z</time>
      </trkpt>
      <trkpt lat="39.8865993507206439971923828125" lon="-0.5237021483480930328369140625">
        <ele>440.20001220703125</ele>
        <time>2022-08-26T21:09:13.000Z</time>
      </trkpt>
      <trkpt lat="39.886568002402782440185546875" lon="-0.52364607341587543487548828125">
        <ele>440.20001220703125</ele>
        <time>2022-08-26T21:09:14.000Z</time>
      </trkpt>
      <trkpt lat="39.886467754840850830078125" lon="-0.52295356057584285736083984375">
        <ele>440</ele>
        <time>2022-08-26T21:09:22.000Z</time>
      </trkpt>
      <trkpt lat="39.88646037876605987548828125" lon="-0.52286605350673198699951171875">
        <ele>440</ele>
        <time>2022-08-26T21:09:23.000Z</time>
      </trkpt>
      <trkpt lat="39.886374883353710174560546875" lon="-0.52230329252779483795166015625">
        <ele>439.79998779296875</ele>
        <time>2022-08-26T21:09:30.000Z</time>
      </trkpt>
      <trkpt lat="39.8862932436168193817138671875" lon="-0.52174153737723827362060546875">
        <ele>439.399993896484375</ele>
        <time>2022-08-26T21:09:37.000Z</time>
      </trkpt>
      <trkpt lat="39.8862546868622303009033203125" lon="-0.52149854600429534912109375">
        <ele>439.20001220703125</ele>
        <time>2022-08-26T21:09:40.000Z</time>
      </trkpt>
      <trkpt lat="39.886100292205810546875" lon="-0.520956404507160186767578125">
        <ele>439</ele>
        <time>2022-08-26T21:09:47.000Z</time>
      </trkpt>
      <trkpt lat="39.8858862183988094329833984375" lon="-0.52057159133255481719970703125">
        <ele>438.79998779296875</ele>
        <time>2022-08-26T21:09:53.000Z</time>
      </trkpt>
      <trkpt lat="39.88555069081485271453857421875" lon="-0.5201918072998523712158203125">
        <ele>438.399993896484375</ele>
        <time>2022-08-26T21:10:00.000Z</time>
      </trkpt>
      <trkpt lat="39.8851207830011844635009765625" lon="-0.5196701176464557647705078125">
        <ele>437.79998779296875</ele>
        <time>2022-08-26T21:10:09.000Z</time>
      </trkpt>
      <trkpt lat="39.88507208414375782012939453125" lon="-0.51962477155029773712158203125">
        <ele>437.79998779296875</ele>
        <time>2022-08-26T21:10:10.000Z</time>
      </trkpt>
      <trkpt lat="39.88351807929575443267822265625" lon="-0.5182953178882598876953125">
        <ele>436.79998779296875</ele>
        <time>2022-08-26T21:10:45.000Z</time>
      </trkpt>
      <trkpt lat="39.8834910057485103607177734375" lon="-0.51824678666889667510986328125">
        <ele>436.79998779296875</ele>
        <time>2022-08-26T21:10:46.000Z</time>
      </trkpt>
      <trkpt lat="39.88337374292314052581787109375" lon="-0.51815073005855083465576171875">
        <ele>436.79998779296875</ele>
        <time>2022-08-26T21:10:49.000Z</time>
      </trkpt>
      <trkpt lat="39.883200824260711669921875" lon="-0.518113933503627777099609375">
        <ele>436.79998779296875</ele>
        <time>2022-08-26T21:10:52.000Z</time>
      </trkpt>
      <trkpt lat="39.88269262947142124176025390625" lon="-0.51793112419545650482177734375">
        <ele>436.79998779296875</ele>
        <time>2022-08-26T21:11:01.000Z</time>
      </trkpt>
      <trkpt lat="39.88223724067211151123046875" lon="-0.5177426151931285858154296875">
        <ele>436.600006103515625</ele>
        <time>2022-08-26T21:11:10.000Z</time>
      </trkpt>
      <trkpt lat="39.8816912434995174407958984375" lon="-0.51749861799180507659912109375">
        <ele>436.79998779296875</ele>
        <time>2022-08-26T21:11:20.000Z</time>
      </trkpt>
      <trkpt lat="39.88163349218666553497314453125" lon="-0.5174757353961467742919921875">
        <ele>436.79998779296875</ele>
        <time>2022-08-26T21:11:21.000Z</time>
      </trkpt>
      <trkpt lat="39.88106955774128437042236328125" lon="-0.51727004349231719970703125">
        <ele>437</ele>
        <time>2022-08-26T21:11:30.000Z</time>
      </trkpt>
      <trkpt lat="39.88055490888655185699462890625" lon="-0.51705236546695232391357421875">
        <ele>437</ele>
        <time>2022-08-26T21:11:39.000Z</time>
      </trkpt>
      <trkpt lat="39.88045088946819305419921875" lon="-0.51700442098081111907958984375">
        <ele>436.79998779296875</ele>
        <time>2022-08-26T21:11:41.000Z</time>
      </trkpt>
      <trkpt lat="39.8799863643944263458251953125" lon="-0.51683091558516025543212890625">
        <ele>436.79998779296875</ele>
        <time>2022-08-26T21:11:50.000Z</time>
      </trkpt>
      <trkpt lat="39.87959970720112323760986328125" lon="-0.516739971935749053955078125">
        <ele>436.79998779296875</ele>
        <time>2022-08-26T21:11:57.000Z</time>
      </trkpt>
      <trkpt lat="39.87925588153302669525146484375" lon="-0.51657442934811115264892578125">
        <ele>436.79998779296875</ele>
        <time>2022-08-26T21:12:04.000Z</time>
      </trkpt>
      <trkpt lat="39.87876688130199909210205078125" lon="-0.51628441549837589263916015625">
        <ele>437.600006103515625</ele>
        <time>2022-08-26T21:12:14.000Z</time>
      </trkpt>
      <trkpt lat="39.8784256540238857269287109375" lon="-0.5159462057054042816162109375">
        <ele>437.600006103515625</ele>
        <time>2022-08-26T21:12:22.000Z</time>
      </trkpt>
      <trkpt lat="39.87816439010202884674072265625" lon="-0.51560346968472003936767578125">
        <ele>437.20001220703125</ele>
        <time>2022-08-26T21:12:29.000Z</time>
      </trkpt>
      <trkpt lat="39.87780665047466754913330078125" lon="-0.515185631811618804931640625">
        <ele>437.20001220703125</ele>
        <time>2022-08-26T21:12:38.000Z</time>
      </trkpt>
      <trkpt lat="39.87753457389771938323974609375" lon="-0.51482856273651123046875">
        <ele>437.20001220703125</ele>
        <time>2022-08-26T21:12:46.000Z</time>
      </trkpt>
      <trkpt lat="39.877291582524776458740234375" lon="-0.5145750939846038818359375">
        <ele>437.20001220703125</ele>
        <time>2022-08-26T21:12:53.000Z</time>
      </trkpt>
      <trkpt lat="39.87699260003864765167236328125" lon="-0.5143851600587368011474609375">
        <ele>437</ele>
        <time>2022-08-26T21:13:01.000Z</time>
      </trkpt>
      <trkpt lat="39.876651875674724578857421875" lon="-0.51423872821033000946044921875">
        <ele>437</ele>
        <time>2022-08-26T21:13:10.000Z</time>
      </trkpt>
      <trkpt lat="39.8763813078403472900390625" lon="-0.51411668770015239715576171875">
        <ele>437</ele>
        <time>2022-08-26T21:13:17.000Z</time>
      </trkpt>
      <trkpt lat="39.87615960650146007537841796875" lon="-0.51404711790382862091064453125">
        <ele>437.20001220703125</ele>
        <time>2022-08-26T21:13:22.000Z</time>
      </trkpt>
      <trkpt lat="39.876007474958896636962890625" lon="-0.51401384174823760986328125">
        <ele>437.20001220703125</ele>
        <time>2022-08-26T21:13:25.000Z</time>
      </trkpt>
      <trkpt lat="39.87553331069648265838623046875" lon="-0.5138912983238697052001953125">
        <ele>437.20001220703125</ele>
        <time>2022-08-26T21:13:34.000Z</time>
      </trkpt>
      <trkpt lat="39.8751771636307239532470703125" lon="-0.51364311017096042633056640625">
        <ele>437</ele>
        <time>2022-08-26T21:13:42.000Z</time>
      </trkpt>
      <trkpt lat="39.87490952946245670318603515625" lon="-0.513292662799358367919921875">
        <ele>437</ele>
        <time>2022-08-26T21:13:49.000Z</time>
      </trkpt>
      <trkpt lat="39.87469621002674102783203125" lon="-0.512926541268825531005859375">
        <ele>437</ele>
        <time>2022-08-26T21:13:55.000Z</time>
      </trkpt>
      <trkpt lat="39.87437057308852672576904296875" lon="-0.512303598225116729736328125">
        <ele>437</ele>
        <time>2022-08-26T21:14:05.000Z</time>
      </trkpt>
      <trkpt lat="39.87412146292626857757568359375" lon="-0.51185742951929569244384765625">
        <ele>437</ele>
        <time>2022-08-26T21:14:13.000Z</time>
      </trkpt>
      <trkpt lat="39.87380697391927242279052734375" lon="-0.51135040819644927978515625">
        <ele>437</ele>
        <time>2022-08-26T21:14:23.000Z</time>
      </trkpt>
      <trkpt lat="39.87358870916068553924560546875" lon="-0.51103013567626476287841796875">
        <ele>437.20001220703125</ele>
        <time>2022-08-26T21:14:30.000Z</time>
      </trkpt>
      <trkpt lat="39.8733745515346527099609375" lon="-0.51078638993203639984130859375">
        <ele>437.20001220703125</ele>
        <time>2022-08-26T21:14:36.000Z</time>
      </trkpt>
      <trkpt lat="39.87306400202214717864990234375" lon="-0.51059360615909099578857421875">
        <ele>437.20001220703125</ele>
        <time>2022-08-26T21:14:43.000Z</time>
      </trkpt>
      <trkpt lat="39.8728345893323421478271484375" lon="-0.5104778520762920379638671875">
        <ele>437.600006103515625</ele>
        <time>2022-08-26T21:14:48.000Z</time>
      </trkpt>
      <trkpt lat="39.87261724658310413360595703125" lon="-0.51035388372838497161865234375">
        <ele>437.79998779296875</ele>
        <time>2022-08-26T21:14:54.000Z</time>
      </trkpt>
      <trkpt lat="39.8722961358726024627685546875" lon="-0.51029789261519908905029296875">
        <ele>437.79998779296875</ele>
        <time>2022-08-26T21:15:01.000Z</time>
      </trkpt>
      <trkpt lat="39.8718130029737949371337890625" lon="-0.51040618680417537689208984375">
        <ele>437.399993896484375</ele>
        <time>2022-08-26T21:15:10.000Z</time>
      </trkpt>
      <trkpt lat="39.8716004379093647003173828125" lon="-0.5104835517704486846923828125">
        <ele>437.399993896484375</ele>
        <time>2022-08-26T21:15:14.000Z</time>
      </trkpt>
      <trkpt lat="39.87146071158349514007568359375" lon="-0.51054633222520351409912109375">
        <ele>437.20001220703125</ele>
        <time>2022-08-26T21:15:17.000Z</time>
      </trkpt>
      <trkpt lat="39.87116684205830097198486328125" lon="-0.51075252704322338104248046875">
        <ele>437</ele>
        <time>2022-08-26T21:15:24.000Z</time>
      </trkpt>
      <trkpt lat="39.8708698712289333343505859375" lon="-0.510968863964080810546875">
        <ele>436.600006103515625</ele>
        <time>2022-08-26T21:15:31.000Z</time>
      </trkpt>
      <trkpt lat="39.87056686542928218841552734375" lon="-0.51117246039211750030517578125">
        <ele>436.399993896484375</ele>
        <time>2022-08-26T21:15:39.000Z</time>
      </trkpt>
      <trkpt lat="39.870310127735137939453125" lon="-0.51137857139110565185546875">
        <ele>436</ele>
        <time>2022-08-26T21:15:47.000Z</time>
      </trkpt>
      <trkpt lat="39.87016252242028713226318359375" lon="-0.51148024387657642364501953125">
        <ele>436</ele>
        <time>2022-08-26T21:15:52.000Z</time>
      </trkpt>
      <trkpt lat="39.87004316411912441253662109375" lon="-0.51156238652765750885009765625">
        <ele>435.79998779296875</ele>
        <time>2022-08-26T21:15:56.000Z</time>
      </trkpt>
      <trkpt lat="39.869870580732822418212890625" lon="-0.51167956553399562835693359375">
        <ele>435.399993896484375</ele>
        <time>2022-08-26T21:16:02.000Z</time>
      </trkpt>
      <trkpt lat="39.86976563930511474609375" lon="-0.5117614567279815673828125">
        <ele>435.20001220703125</ele>
        <time>2022-08-26T21:16:08.000Z</time>
      </trkpt>
      <trkpt lat="39.8697453550994396209716796875" lon="-0.511773861944675445556640625">
        <ele>435.20001220703125</ele>
        <time>2022-08-26T21:16:09.000Z</time>
      </trkpt>
      <trkpt lat="39.8695819079875946044921875" lon="-0.5118679068982601165771484375">
        <ele>435</ele>
        <time>2022-08-26T21:16:16.000Z</time>
      </trkpt>
      <trkpt lat="39.86941133625805377960205078125" lon="-0.511952228844165802001953125">
        <ele>434.600006103515625</ele>
        <time>2022-08-26T21:16:24.000Z</time>
      </trkpt>
      <trkpt lat="39.86922861076891422271728515625" lon="-0.512034706771373748779296875">
        <ele>434.399993896484375</ele>
        <time>2022-08-26T21:16:30.000Z</time>
      </trkpt>
      <trkpt lat="39.8691438697278499603271484375" lon="-0.51207284443080425262451171875">
        <ele>434.399993896484375</ele>
        <time>2022-08-26T21:16:36.000Z</time>
      </trkpt>
      <trkpt lat="39.869146049022674560546875" lon="-0.51207058131694793701171875">
        <ele>434.399993896484375</ele>
        <time>2022-08-26T21:16:38.000Z</time>
      </trkpt>
      <trkpt lat="39.86911914311349391937255859375" lon="-0.51207670010626316070556640625">
        <ele>433</ele>
        <time>2022-08-26T21:20:49.000Z</time>
      </trkpt>
      <trkpt lat="39.86907589249312877655029296875" lon="-0.5120871774852275848388671875">
        <ele>433</ele>
        <time>2022-08-26T21:20:51.000Z</time>
      </trkpt>
      <trkpt lat="39.868859387934207916259765625" lon="-0.51215104758739471435546875">
        <ele>433.20001220703125</ele>
        <time>2022-08-26T21:21:00.000Z</time>
      </trkpt>
      <trkpt lat="39.86864908598363399505615234375" lon="-0.51218767650425434112548828125">
        <ele>433.20001220703125</ele>
        <time>2022-08-26T21:21:08.000Z</time>
      </trkpt>
      <trkpt lat="39.8683965392410755157470703125" lon="-0.51222120411694049835205078125">
        <ele>432.79998779296875</ele>
        <time>2022-08-26T21:21:15.000Z</time>
      </trkpt>
      <trkpt lat="39.86817047931253910064697265625" lon="-0.512231178581714630126953125">
        <ele>432.600006103515625</ele>
        <time>2022-08-26T21:21:21.000Z</time>
      </trkpt>
      <trkpt lat="39.86785045824944972991943359375" lon="-0.51223821938037872314453125">
        <ele>432.399993896484375</ele>
        <time>2022-08-26T21:21:28.000Z</time>
      </trkpt>
      <trkpt lat="39.8675446026027202606201171875" lon="-0.5122548155486583709716796875">
        <ele>432.399993896484375</ele>
        <time>2022-08-26T21:21:35.000Z</time>
      </trkpt>
      <trkpt lat="39.86720773391425609588623046875" lon="-0.5122657120227813720703125">
        <ele>432.20001220703125</ele>
        <time>2022-08-26T21:21:42.000Z</time>
      </trkpt>
      <trkpt lat="39.8667084239423274993896484375" lon="-0.51228574477136135101318359375">
        <ele>432.20001220703125</ele>
        <time>2022-08-26T21:21:52.000Z</time>
      </trkpt>
      <trkpt lat="39.8666031472384929656982421875" lon="-0.5122916959226131439208984375">
        <ele>432.20001220703125</ele>
        <time>2022-08-26T21:21:54.000Z</time>
      </trkpt>
      <trkpt lat="39.86621045507490634918212890625" lon="-0.5123225413262844085693359375">
        <ele>431.79998779296875</ele>
        <time>2022-08-26T21:22:01.000Z</time>
      </trkpt>
      <trkpt lat="39.8659771867096424102783203125" lon="-0.51233880221843719482421875">
        <ele>431.20001220703125</ele>
        <time>2022-08-26T21:22:06.000Z</time>
      </trkpt>
      <trkpt lat="39.86577593721449375152587890625" lon="-0.51235531456768512725830078125">
        <ele>430</ele>
        <time>2022-08-26T21:22:11.000Z</time>
      </trkpt>
      <trkpt lat="39.8656771145761013031005859375" lon="-0.51236403174698352813720703125">
        <ele>429.600006103515625</ele>
        <time>2022-08-26T21:22:13.000Z</time>
      </trkpt>
      <trkpt lat="39.865463040769100189208984375" lon="-0.512398816645145416259765625">
        <ele>429</ele>
        <time>2022-08-26T21:22:17.000Z</time>
      </trkpt>
      <trkpt lat="39.8653639666736125946044921875" lon="-0.5123984813690185546875">
        <ele>428.79998779296875</ele>
        <time>2022-08-26T21:22:19.000Z</time>
      </trkpt>
      <trkpt lat="39.86499977298080921173095703125" lon="-0.5123882554471492767333984375">
        <ele>428</ele>
        <time>2022-08-26T21:22:26.000Z</time>
      </trkpt>
      <trkpt lat="39.86487689428031444549560546875" lon="-0.51242739893496036529541015625">
        <ele>428</ele>
        <time>2022-08-26T21:22:28.000Z</time>
      </trkpt>
      <trkpt lat="39.86477203667163848876953125" lon="-0.512452460825443267822265625">
        <ele>428</ele>
        <time>2022-08-26T21:22:30.000Z</time>
      </trkpt>
      <trkpt lat="39.86439024098217487335205078125" lon="-0.51252429373562335968017578125">
        <ele>428.20001220703125</ele>
        <time>2022-08-26T21:22:37.000Z</time>
      </trkpt>
      <trkpt lat="39.864024706184864044189453125" lon="-0.5125475116074085235595703125">
        <ele>429</ele>
        <time>2022-08-26T21:22:45.000Z</time>
      </trkpt>
      <trkpt lat="39.86398220993578433990478515625" lon="-0.51254843361675739288330078125">
        <ele>429</ele>
        <time>2022-08-26T21:22:46.000Z</time>
      </trkpt>
      <trkpt lat="39.8636114783585071563720703125" lon="-0.5125324241816997528076171875">
        <ele>430.20001220703125</ele>
        <time>2022-08-26T21:22:55.000Z</time>
      </trkpt>
      <trkpt lat="39.8635722510516643524169921875" lon="-0.5125312507152557373046875">
        <ele>430.20001220703125</ele>
        <time>2022-08-26T21:22:56.000Z</time>
      </trkpt>
      <trkpt lat="39.8633189499378204345703125" lon="-0.51251825876533985137939453125">
        <ele>431.20001220703125</ele>
        <time>2022-08-26T21:23:03.000Z</time>
      </trkpt>
      <trkpt lat="39.86328181810677051544189453125" lon="-0.51251423545181751251220703125">
        <ele>431.399993896484375</ele>
        <time>2022-08-26T21:23:04.000Z</time>
      </trkpt>
      <trkpt lat="39.86293204128742218017578125" lon="-0.51247618161141872406005859375">
        <ele>431.79998779296875</ele>
        <time>2022-08-26T21:23:12.000Z</time>
      </trkpt>
      <trkpt lat="39.8624004609882831573486328125" lon="-0.51234793849289417266845703125">
        <ele>431.399993896484375</ele>
        <time>2022-08-26T21:23:23.000Z</time>
      </trkpt>
      <trkpt lat="39.86228831112384796142578125" lon="-0.5123305879533290863037109375">
        <ele>431.399993896484375</ele>
        <time>2022-08-26T21:23:25.000Z</time>
      </trkpt>
      <trkpt lat="39.86211891286075115203857421875" lon="-0.51233905367553234100341796875">
        <ele>431.20001220703125</ele>
        <time>2022-08-26T21:23:28.000Z</time>
      </trkpt>
      <trkpt lat="39.8613191954791545867919921875" lon="-0.512475930154323577880859375">
        <ele>429.399993896484375</ele>
        <time>2022-08-26T21:23:41.000Z</time>
      </trkpt>
      <trkpt lat="39.86132246442139148712158203125" lon="-0.51267734728753566741943359375">
        <ele>429.399993896484375</ele>
        <time>2022-08-26T21:23:42.000Z</time>
      </trkpt>
      <trkpt lat="39.86121132038533687591552734375" lon="-0.5128915049135684967041015625">
        <ele>429.399993896484375</ele>
        <time>2022-08-26T21:23:45.000Z</time>
      </trkpt>
      <trkpt lat="39.8611277528107166290283203125" lon="-0.51298848353326320648193359375">
        <ele>429.399993896484375</ele>
        <time>2022-08-26T21:23:47.000Z</time>
      </trkpt>
      <trkpt lat="39.86094444058835506439208984375" lon="-0.51323826424777507781982421875">
        <ele>429.20001220703125</ele>
        <time>2022-08-26T21:23:53.000Z</time>
      </trkpt>
      <trkpt lat="39.8608910478651523590087890625" lon="-0.51336281932890415191650390625">
        <ele>428.79998779296875</ele>
        <time>2022-08-26T21:23:56.000Z</time>
      </trkpt>
      <trkpt lat="39.8607723601162433624267578125" lon="-0.51362249068915843963623046875">
        <ele>428.399993896484375</ele>
        <time>2022-08-26T21:24:02.000Z</time>
      </trkpt>
      <trkpt lat="39.86057228408753871917724609375" lon="-0.51410478539764881134033203125">
        <ele>428.20001220703125</ele>
        <time>2022-08-26T21:24:12.000Z</time>
      </trkpt>
      <trkpt lat="39.86035351641476154327392578125" lon="-0.5145682208240032196044921875">
        <ele>428.20001220703125</ele>
        <time>2022-08-26T21:24:20.000Z</time>
      </trkpt>
      <trkpt lat="39.86017875373363494873046875" lon="-0.51493576727807521820068359375">
        <ele>428</ele>
        <time>2022-08-26T21:24:26.000Z</time>
      </trkpt>
      <trkpt lat="39.86007540486752986907958984375" lon="-0.5151029862463474273681640625">
        <ele>427.399993896484375</ele>
        <time>2022-08-26T21:24:29.000Z</time>
      </trkpt>
      <trkpt lat="39.85974683426320552825927734375" lon="-0.51554135978221893310546875">
        <ele>427</ele>
        <time>2022-08-26T21:24:38.000Z</time>
      </trkpt>
      <trkpt lat="39.85966603271663188934326171875" lon="-0.51562978886067867279052734375">
        <ele>427</ele>
        <time>2022-08-26T21:24:40.000Z</time>
      </trkpt>
      <trkpt lat="39.85940669663250446319580078125" lon="-0.51585693843662738800048828125">
        <ele>426.399993896484375</ele>
        <time>2022-08-26T21:24:46.000Z</time>
      </trkpt>
      <trkpt lat="39.8589883558452129364013671875" lon="-0.51614929921925067901611328125">
        <ele>426</ele>
        <time>2022-08-26T21:24:55.000Z</time>
      </trkpt>
      <trkpt lat="39.85882717184722423553466796875" lon="-0.51622021012008190155029296875">
        <ele>426</ele>
        <time>2022-08-26T21:24:58.000Z</time>
      </trkpt>
      <trkpt lat="39.85855576582252979278564453125" lon="-0.5162997543811798095703125">
        <ele>425.79998779296875</ele>
        <time>2022-08-26T21:25:03.000Z</time>
      </trkpt>
      <trkpt lat="39.85810046084225177764892578125" lon="-0.5163854174315929412841796875">
        <ele>425</ele>
        <time>2022-08-26T21:25:11.000Z</time>
      </trkpt>
      <trkpt lat="39.858042038977146148681640625" lon="-0.51639405079185962677001953125">
        <ele>425</ele>
        <time>2022-08-26T21:25:12.000Z</time>
      </trkpt>
      <trkpt lat="39.85753401182591915130615234375" lon="-0.51646965555846691131591796875">
        <ele>424.20001220703125</ele>
        <time>2022-08-26T21:25:21.000Z</time>
      </trkpt>
      <trkpt lat="39.8574822954833507537841796875" lon="-0.516477786004543304443359375">
        <ele>424</ele>
        <time>2022-08-26T21:25:22.000Z</time>
      </trkpt>
      <trkpt lat="39.8570336960256099700927734375" lon="-0.51657124422490596771240234375">
        <ele>423.20001220703125</ele>
        <time>2022-08-26T21:25:31.000Z</time>
      </trkpt>
      <trkpt lat="39.8569287545979022979736328125" lon="-0.51659069024026393890380859375">
        <ele>423</ele>
        <time>2022-08-26T21:25:33.000Z</time>
      </trkpt>
      <trkpt lat="39.8565391637384891510009765625" lon="-0.51666545681655406951904296875">
        <ele>422.399993896484375</ele>
        <time>2022-08-26T21:25:40.000Z</time>
      </trkpt>
      <trkpt lat="39.85611177049577236175537109375" lon="-0.51674944348633289337158203125">
        <ele>421.79998779296875</ele>
        <time>2022-08-26T21:25:49.000Z</time>
      </trkpt>
      <trkpt lat="39.855642803013324737548828125" lon="-0.51683007739484310150146484375">
        <ele>420.79998779296875</ele>
        <time>2022-08-26T21:25:59.000Z</time>
      </trkpt>
      <trkpt lat="39.8554015718400478363037109375" lon="-0.516872741281986236572265625">
        <ele>420.20001220703125</ele>
        <time>2022-08-26T21:26:04.000Z</time>
      </trkpt>
      <trkpt lat="39.8550877533853054046630859375" lon="-0.51692403852939605712890625">
        <ele>419.79998779296875</ele>
        <time>2022-08-26T21:26:10.000Z</time>
      </trkpt>
      <trkpt lat="39.85486261546611785888671875" lon="-0.51695815287530422210693359375">
        <ele>419.399993896484375</ele>
        <time>2022-08-26T21:26:14.000Z</time>
      </trkpt>
      <trkpt lat="39.85452557913959026336669921875" lon="-0.51702185533940792083740234375">
        <ele>418.600006103515625</ele>
        <time>2022-08-26T21:26:20.000Z</time>
      </trkpt>
      <trkpt lat="39.8542616330087184906005859375" lon="-0.51708036102354526519775390625">
        <ele>418.399993896484375</ele>
        <time>2022-08-26T21:26:25.000Z</time>
      </trkpt>
      <trkpt lat="39.85390196554362773895263671875" lon="-0.51714666187763214111328125">
        <ele>418.20001220703125</ele>
        <time>2022-08-26T21:26:32.000Z</time>
      </trkpt>
      <trkpt lat="39.85373063944280147552490234375" lon="-0.51716635935008525848388671875">
        <ele>417.79998779296875</ele>
        <time>2022-08-26T21:26:35.000Z</time>
      </trkpt>
      <trkpt lat="39.85341950319707393646240234375" lon="-0.517215393483638763427734375">
        <ele>417</ele>
        <time>2022-08-26T21:26:40.000Z</time>
      </trkpt>
      <trkpt lat="39.8532445728778839111328125" lon="-0.51724724471569061279296875">
        <ele>416.600006103515625</ele>
        <time>2022-08-26T21:26:43.000Z</time>
      </trkpt>
      <trkpt lat="39.85318866558372974395751953125" lon="-0.51725931465625762939453125">
        <ele>416.20001220703125</ele>
        <time>2022-08-26T21:26:44.000Z</time>
      </trkpt>
      <trkpt lat="39.8529684729874134063720703125" lon="-0.51731421612203121185302734375">
        <ele>415.600006103515625</ele>
        <time>2022-08-26T21:26:48.000Z</time>
      </trkpt>
      <trkpt lat="39.852851964533329010009765625" lon="-0.517338775098323822021484375">
        <ele>415.399993896484375</ele>
        <time>2022-08-26T21:26:50.000Z</time>
      </trkpt>
      <trkpt lat="39.8525818996131420135498046875" lon="-0.5173868872225284576416015625">
        <ele>414.79998779296875</ele>
        <time>2022-08-26T21:26:55.000Z</time>
      </trkpt>
      <trkpt lat="39.85224503092467784881591796875" lon="-0.5174375139176845550537109375">
        <ele>414.399993896484375</ele>
        <time>2022-08-26T21:27:01.000Z</time>
      </trkpt>
      <trkpt lat="39.85219373367726802825927734375" lon="-0.51744430325925350189208984375">
        <ele>414.399993896484375</ele>
        <time>2022-08-26T21:27:02.000Z</time>
      </trkpt>
      <trkpt lat="39.85211242921650409698486328125" lon="-0.51746257580816745758056640625">
        <ele>414.20001220703125</ele>
        <time>2022-08-26T21:27:05.000Z</time>
      </trkpt>
      <trkpt lat="39.85211276449263095855712890625" lon="-0.51746073178946971893310546875">
        <ele>414</ele>
        <time>2022-08-26T21:27:07.000Z</time>
      </trkpt>
      <trkpt lat="39.85205610282719135284423828125" lon="-0.51747263409197330474853515625">
        <ele>411.600006103515625</ele>
        <time>2022-08-26T21:28:41.000Z</time>
      </trkpt>
      <trkpt lat="39.85203229822218418121337890625" lon="-0.51747732795774936676025390625">
        <ele>411.600006103515625</ele>
        <time>2022-08-26T21:28:42.000Z</time>
      </trkpt>
      <trkpt lat="39.85179274342954158782958984375" lon="-0.51751873455941677093505859375">
        <ele>411.399993896484375</ele>
        <time>2022-08-26T21:28:49.000Z</time>
      </trkpt>
      <trkpt lat="39.85144036822021007537841796875" lon="-0.517565421760082244873046875">
        <ele>411</ele>
        <time>2022-08-26T21:28:57.000Z</time>
      </trkpt>
      <trkpt lat="39.85089504159986972808837890625" lon="-0.51763138733804225921630859375">
        <ele>410.600006103515625</ele>
        <time>2022-08-26T21:29:08.000Z</time>
      </trkpt>
      <trkpt lat="39.850839637219905853271484375" lon="-0.51763323135673999786376953125">
        <ele>410.399993896484375</ele>
        <time>2022-08-26T21:29:09.000Z</time>
      </trkpt>
      <trkpt lat="39.8503332026302814483642578125" lon="-0.51757254637777805328369140625">
        <ele>409.600006103515625</ele>
        <time>2022-08-26T21:29:18.000Z</time>
      </trkpt>
      <trkpt lat="39.85023312270641326904296875" lon="-0.51756248809397220611572265625">
        <ele>409.399993896484375</ele>
        <time>2022-08-26T21:29:20.000Z</time>
      </trkpt>
      <trkpt lat="39.84994285739958286285400390625" lon="-0.51751052029430866241455078125">
        <ele>409</ele>
        <time>2022-08-26T21:29:26.000Z</time>
      </trkpt>
      <trkpt lat="39.84959534369409084320068359375" lon="-0.5173288844525814056396484375">
        <ele>408.399993896484375</ele>
        <time>2022-08-26T21:29:33.000Z</time>
      </trkpt>
      <trkpt lat="39.849546812474727630615234375" lon="-0.51729644648730754852294921875">
        <ele>408.20001220703125</ele>
        <time>2022-08-26T21:29:34.000Z</time>
      </trkpt>
      <trkpt lat="39.8493609018623828887939453125" lon="-0.5171528644859790802001953125">
        <ele>407.20001220703125</ele>
        <time>2022-08-26T21:29:38.000Z</time>
      </trkpt>
      <trkpt lat="39.84907977283000946044921875" lon="-0.5169292353093624114990234375">
        <ele>406.399993896484375</ele>
        <time>2022-08-26T21:29:44.000Z</time>
      </trkpt>
      <trkpt lat="39.848937951028347015380859375" lon="-0.51681985147297382354736328125">
        <ele>406</ele>
        <time>2022-08-26T21:29:47.000Z</time>
      </trkpt>
      <trkpt lat="39.84863586723804473876953125" lon="-0.5165688134729862213134765625">
        <ele>405.399993896484375</ele>
        <time>2022-08-26T21:29:54.000Z</time>
      </trkpt>
      <trkpt lat="39.8485787026584148406982421875" lon="-0.51644970662891864776611328125">
        <ele>405.399993896484375</ele>
        <time>2022-08-26T21:29:58.000Z</time>
      </trkpt>
      <trkpt lat="39.84848289750516414642333984375" lon="-0.51634979434311389923095703125">
        <ele>406.399993896484375</ele>
        <time>2022-08-26T21:30:04.000Z</time>
      </trkpt>
      <trkpt lat="39.84838717617094516754150390625" lon="-0.51626865752041339874267578125">
        <ele>407.20001220703125</ele>
        <time>2022-08-26T21:30:08.000Z</time>
      </trkpt>
      <trkpt lat="39.84824560582637786865234375" lon="-0.51621819846332073211669921875">
        <ele>407.20001220703125</ele>
        <time>2022-08-26T21:30:13.000Z</time>
      </trkpt>
      <trkpt lat="39.84816874377429485321044921875" lon="-0.516227670013904571533203125">
        <ele>407.20001220703125</ele>
        <time>2022-08-26T21:30:15.000Z</time>
      </trkpt>
      <trkpt lat="39.84808140434324741363525390625" lon="-0.5161815695464611053466796875">
        <ele>407.399993896484375</ele>
        <time>2022-08-26T21:30:17.000Z</time>
      </trkpt>
      <trkpt lat="39.84785274602472782135009765625" lon="-0.516065061092376708984375">
        <ele>406.79998779296875</ele>
        <time>2022-08-26T21:30:22.000Z</time>
      </trkpt>
      <trkpt lat="39.84781485982239246368408203125" lon="-0.5160464532673358917236328125">
        <ele>406.600006103515625</ele>
        <time>2022-08-26T21:30:23.000Z</time>
      </trkpt>
      <trkpt lat="39.84777563251554965972900390625" lon="-0.5160296894609928131103515625">
        <ele>406.20001220703125</ele>
        <time>2022-08-26T21:30:24.000Z</time>
      </trkpt>
      <trkpt lat="39.847604222595691680908203125" lon="-0.5160102434456348419189453125">
        <ele>405.20001220703125</ele>
        <time>2022-08-26T21:30:28.000Z</time>
      </trkpt>
      <trkpt lat="39.84756222926080226898193359375" lon="-0.51600496284663677215576171875">
        <ele>404.79998779296875</ele>
        <time>2022-08-26T21:30:29.000Z</time>
      </trkpt>
      <trkpt lat="39.84732820652425289154052734375" lon="-0.51597093231976032257080078125">
        <ele>404.20001220703125</ele>
        <time>2022-08-26T21:30:35.000Z</time>
      </trkpt>
      <trkpt lat="39.84729987569153308868408203125" lon="-0.51596648991107940673828125">
        <ele>404</ele>
        <time>2022-08-26T21:30:36.000Z</time>
      </trkpt>
      <trkpt lat="39.84716811217367649078369140625" lon="-0.515951402485370635986328125">
        <ele>403.79998779296875</ele>
        <time>2022-08-26T21:30:42.000Z</time>
      </trkpt>
      <trkpt lat="39.847123436629772186279296875" lon="-0.51590035669505596160888671875">
        <ele>403.600006103515625</ele>
        <time>2022-08-26T21:30:47.000Z</time>
      </trkpt>
      <trkpt lat="39.84713257290422916412353515625" lon="-0.51589231006801128387451171875">
        <ele>403.600006103515625</ele>
        <time>2022-08-26T21:30:48.000Z</time>
      </trkpt>
      <trkpt lat="39.84713248908519744873046875" lon="-0.5159376561641693115234375">
        <ele>403.20001220703125</ele>
        <time>2022-08-26T21:31:07.000Z</time>
      </trkpt>
      <trkpt lat="39.84709183685481548309326171875" lon="-0.51593991927802562713623046875">
        <ele>403.20001220703125</ele>
        <time>2022-08-26T21:31:08.000Z</time>
      </trkpt>
      <trkpt lat="39.84678447246551513671875" lon="-0.51596959121525287628173828125">
        <ele>403</ele>
        <time>2022-08-26T21:31:15.000Z</time>
      </trkpt>
      <trkpt lat="39.84670207835733890533447265625" lon="-0.51598501391708850860595703125">
        <ele>402.79998779296875</ele>
        <time>2022-08-26T21:31:17.000Z</time>
      </trkpt>
      <trkpt lat="39.84632019884884357452392578125" lon="-0.51607646048069000244140625">
        <ele>402</ele>
        <time>2022-08-26T21:31:27.000Z</time>
      </trkpt>
      <trkpt lat="39.846061952412128448486328125" lon="-0.51618768833577632904052734375">
        <ele>401.79998779296875</ele>
        <time>2022-08-26T21:31:33.000Z</time>
      </trkpt>
      <trkpt lat="39.8458948172628879547119140625" lon="-0.5162690766155719757080078125">
        <ele>401.600006103515625</ele>
        <time>2022-08-26T21:31:37.000Z</time>
      </trkpt>
      <trkpt lat="39.8455893807113170623779296875" lon="-0.51644601859152317047119140625">
        <ele>401.20001220703125</ele>
        <time>2022-08-26T21:31:44.000Z</time>
      </trkpt>
      <trkpt lat="39.8453117720782756805419921875" lon="-0.51660192199051380157470703125">
        <ele>400.600006103515625</ele>
        <time>2022-08-26T21:31:50.000Z</time>
      </trkpt>
      <trkpt lat="39.84521546401083469390869140625" lon="-0.51666595973074436187744140625">
        <ele>400.399993896484375</ele>
        <time>2022-08-26T21:31:52.000Z</time>
      </trkpt>
      <trkpt lat="39.8448427207767963409423828125" lon="-0.5169282294809818267822265625">
        <ele>399.79998779296875</ele>
        <time>2022-08-26T21:31:59.000Z</time>
      </trkpt>
      <trkpt lat="39.84474238939583301544189453125" lon="-0.51700056530535221099853515625">
        <ele>399.600006103515625</ele>
        <time>2022-08-26T21:32:01.000Z</time>
      </trkpt>
      <trkpt lat="39.8443491943180561065673828125" lon="-0.5172611586749553680419921875">
        <ele>399.20001220703125</ele>
        <time>2022-08-26T21:32:08.000Z</time>
      </trkpt>
      <trkpt lat="39.84406529925763607025146484375" lon="-0.51743189804255962371826171875">
        <ele>398.79998779296875</ele>
        <time>2022-08-26T21:32:13.000Z</time>
      </trkpt>
      <trkpt lat="39.84379154630005359649658203125" lon="-0.51762484945356845855712890625">
        <ele>398.20001220703125</ele>
        <time>2022-08-26T21:32:18.000Z</time>
      </trkpt>
      <trkpt lat="39.843409918248653411865234375" lon="-0.51788628101348876953125">
        <ele>398</ele>
        <time>2022-08-26T21:32:26.000Z</time>
      </trkpt>
      <trkpt lat="39.8431599698960781097412109375" lon="-0.51806188188493251800537109375">
        <ele>398</ele>
        <time>2022-08-26T21:32:33.000Z</time>
      </trkpt>
      <trkpt lat="39.84272654168307781219482421875" lon="-0.51833278499543666839599609375">
        <ele>399.79998779296875</ele>
        <time>2022-08-26T21:32:45.000Z</time>
      </trkpt>
      <trkpt lat="39.84269066713750362396240234375" lon="-0.518353320658206939697265625">
        <ele>400</ele>
        <time>2022-08-26T21:32:46.000Z</time>
      </trkpt>
      <trkpt lat="39.84239579178392887115478515625" lon="-0.518458597362041473388671875">
        <ele>401</ele>
        <time>2022-08-26T21:32:54.000Z</time>
      </trkpt>
      <trkpt lat="39.8423588275909423828125" lon="-0.51846924237906932830810546875">
        <ele>401</ele>
        <time>2022-08-26T21:32:55.000Z</time>
      </trkpt>
      <trkpt lat="39.8421134054660797119140625" lon="-0.5185043625533580780029296875">
        <ele>402</ele>
        <time>2022-08-26T21:33:02.000Z</time>
      </trkpt>
      <trkpt lat="39.8420693166553974151611328125" lon="-0.51852573640644550323486328125">
        <ele>402.20001220703125</ele>
        <time>2022-08-26T21:33:04.000Z</time>
      </trkpt>
      <trkpt lat="39.84193780459463596343994140625" lon="-0.51853361539542675018310546875">
        <ele>403.20001220703125</ele>
        <time>2022-08-26T21:33:08.000Z</time>
      </trkpt>
      <trkpt lat="39.84185867942869663238525390625" lon="-0.51852506585419178009033203125">
        <ele>403.399993896484375</ele>
        <time>2022-08-26T21:33:10.000Z</time>
      </trkpt>
      <trkpt lat="39.84161744825541973114013671875" lon="-0.51849053241312503814697265625">
        <ele>403.399993896484375</ele>
        <time>2022-08-26T21:33:14.000Z</time>
      </trkpt>
      <trkpt lat="39.8411861993372440338134765625" lon="-0.5184289254248142242431640625">
        <ele>403.20001220703125</ele>
        <time>2022-08-26T21:33:19.000Z</time>
      </trkpt>
      <trkpt lat="39.8408867977559566497802734375" lon="-0.5183757841587066650390625">
        <ele>401.79998779296875</ele>
        <time>2022-08-26T21:33:22.000Z</time>
      </trkpt>
      <trkpt lat="39.84060642309486865997314453125" lon="-0.51833077333867549896240234375">
        <ele>400.20001220703125</ele>
        <time>2022-08-26T21:33:25.000Z</time>
      </trkpt>
      <trkpt lat="39.84042839147150516510009765625" lon="-0.51830093376338481903076171875">
        <ele>399</ele>
        <time>2022-08-26T21:33:27.000Z</time>
      </trkpt>
      <trkpt lat="39.84025404788553714752197265625" lon="-0.5182599462568759918212890625">
        <ele>398</ele>
        <time>2022-08-26T21:33:29.000Z</time>
      </trkpt>
      <trkpt lat="39.8399906046688556671142578125" lon="-0.51818409003317356109619140625">
        <ele>396.79998779296875</ele>
        <time>2022-08-26T21:33:32.000Z</time>
      </trkpt>
      <trkpt lat="39.8396422527730464935302734375" lon="-0.5180919729173183441162109375">
        <ele>395.399993896484375</ele>
        <time>2022-08-26T21:33:36.000Z</time>
      </trkpt>
      <trkpt lat="39.8393948189914226531982421875" lon="-0.51802500151097774505615234375">
        <ele>394.20001220703125</ele>
        <time>2022-08-26T21:33:39.000Z</time>
      </trkpt>
      <trkpt lat="39.83907706104218959808349609375" lon="-0.517907403409481048583984375">
        <ele>393</ele>
        <time>2022-08-26T21:33:43.000Z</time>
      </trkpt>
      <trkpt lat="39.83883683569729328155517578125" lon="-0.51782081834971904754638671875">
        <ele>391.79998779296875</ele>
        <time>2022-08-26T21:33:46.000Z</time>
      </trkpt>
      <trkpt lat="39.83867087401449680328369140625" lon="-0.5177687667310237884521484375">
        <ele>391</ele>
        <time>2022-08-26T21:33:48.000Z</time>
      </trkpt>
      <trkpt lat="39.83858772553503513336181640625" lon="-0.5177416093647480010986328125">
        <ele>390.20001220703125</ele>
        <time>2022-08-26T21:33:49.000Z</time>
      </trkpt>
      <trkpt lat="39.83804055489599704742431640625" lon="-0.51753424108028411865234375">
        <ele>389.399993896484375</ele>
        <time>2022-08-26T21:33:56.000Z</time>
      </trkpt>
      <trkpt lat="39.83789093792438507080078125" lon="-0.51746785640716552734375">
        <ele>389.20001220703125</ele>
        <time>2022-08-26T21:33:58.000Z</time>
      </trkpt>
      <trkpt lat="39.83781457878649234771728515625" lon="-0.51743206568062305450439453125">
        <ele>389.20001220703125</ele>
        <time>2022-08-26T21:33:59.000Z</time>
      </trkpt>
      <trkpt lat="39.8372963257133960723876953125" lon="-0.51717080175876617431640625">
        <ele>388.600006103515625</ele>
        <time>2022-08-26T21:34:06.000Z</time>
      </trkpt>
      <trkpt lat="39.8372262530028820037841796875" lon="-0.51713635213673114776611328125">
        <ele>388.399993896484375</ele>
        <time>2022-08-26T21:34:07.000Z</time>
      </trkpt>
      <trkpt lat="39.8371561802923679351806640625" lon="-0.517102740705013275146484375">
        <ele>388.20001220703125</ele>
        <time>2022-08-26T21:34:08.000Z</time>
      </trkpt>
      <trkpt lat="39.836811684072017669677734375" lon="-0.51692328415811061859130859375">
        <ele>387.20001220703125</ele>
        <time>2022-08-26T21:34:13.000Z</time>
      </trkpt>
      <trkpt lat="39.83645419590175151824951171875" lon="-0.5167461745440959930419921875">
        <ele>386.399993896484375</ele>
        <time>2022-08-26T21:34:18.000Z</time>
      </trkpt>
      <trkpt lat="39.836312122642993927001953125" lon="-0.5166794545948505401611328125">
        <ele>386.20001220703125</ele>
        <time>2022-08-26T21:34:20.000Z</time>
      </trkpt>
      <trkpt lat="39.8358348570764064788818359375" lon="-0.51642036996781826019287109375">
        <ele>385.20001220703125</ele>
        <time>2022-08-26T21:34:27.000Z</time>
      </trkpt>
      <trkpt lat="39.8357728309929370880126953125" lon="-0.51637158729135990142822265625">
        <ele>385.20001220703125</ele>
        <time>2022-08-26T21:34:28.000Z</time>
      </trkpt>
      <trkpt lat="39.83554224483668804168701171875" lon="-0.51613270305097103118896484375">
        <ele>384.600006103515625</ele>
        <time>2022-08-26T21:34:32.000Z</time>
      </trkpt>
      <trkpt lat="39.8354382254183292388916015625" lon="-0.51599155180156230926513671875">
        <ele>384</ele>
        <time>2022-08-26T21:34:34.000Z</time>
      </trkpt>
      <trkpt lat="39.83525809831917285919189453125" lon="-0.51566465757787227630615234375">
        <ele>383.600006103515625</ele>
        <time>2022-08-26T21:34:38.000Z</time>
      </trkpt>
      <trkpt lat="39.83509347774088382720947265625" lon="-0.515237264335155487060546875">
        <ele>383</ele>
        <time>2022-08-26T21:34:43.000Z</time>
      </trkpt>
      <trkpt lat="39.835069589316844940185546875" lon="-0.51514950580894947052001953125">
        <ele>382.79998779296875</ele>
        <time>2022-08-26T21:34:44.000Z</time>
      </trkpt>
      <trkpt lat="39.834996499121189117431640625" lon="-0.5147306621074676513671875">
        <ele>382</ele>
        <time>2022-08-26T21:34:49.000Z</time>
      </trkpt>
      <trkpt lat="39.83499105088412761688232421875" lon="-0.51463569514453411102294921875">
        <ele>381.79998779296875</ele>
        <time>2022-08-26T21:34:50.000Z</time>
      </trkpt>
      <trkpt lat="39.83498568646609783172607421875" lon="-0.51418575458228588104248046875">
        <ele>380.79998779296875</ele>
        <time>2022-08-26T21:34:55.000Z</time>
      </trkpt>
      <trkpt lat="39.8349963314831256866455078125" lon="-0.51409724168479442596435546875">
        <ele>380.79998779296875</ele>
        <time>2022-08-26T21:34:56.000Z</time>
      </trkpt>
      <trkpt lat="39.835017286241054534912109375" lon="-0.51400219090282917022705078125">
        <ele>380.600006103515625</ele>
        <time>2022-08-26T21:34:57.000Z</time>
      </trkpt>
      <trkpt lat="39.8351089842617511749267578125" lon="-0.51362232305109500885009765625">
        <ele>380.399993896484375</ele>
        <time>2022-08-26T21:35:01.000Z</time>
      </trkpt>
      <trkpt lat="39.83520160429179668426513671875" lon="-0.513212867081165313720703125">
        <ele>379.79998779296875</ele>
        <time>2022-08-26T21:35:05.000Z</time>
      </trkpt>
      <trkpt lat="39.83526907861232757568359375" lon="-0.51292276941239833831787109375">
        <ele>379.399993896484375</ele>
        <time>2022-08-26T21:35:08.000Z</time>
      </trkpt>
      <trkpt lat="39.83541794121265411376953125" lon="-0.51239353604614734649658203125">
        <ele>378.600006103515625</ele>
        <time>2022-08-26T21:35:14.000Z</time>
      </trkpt>
      <trkpt lat="39.83549279160797595977783203125" lon="-0.5121502093970775604248046875">
        <ele>378</ele>
        <time>2022-08-26T21:35:17.000Z</time>
      </trkpt>
      <trkpt lat="39.83564467169344425201416015625" lon="-0.51172080449759960174560546875">
        <ele>377.600006103515625</ele>
        <time>2022-08-26T21:35:22.000Z</time>
      </trkpt>
      <trkpt lat="39.83571826480329036712646484375" lon="-0.51156473346054553985595703125">
        <ele>377.399993896484375</ele>
        <time>2022-08-26T21:35:24.000Z</time>
      </trkpt>
      <trkpt lat="39.83597642742097377777099609375" lon="-0.51100976765155792236328125">
        <ele>377.20001220703125</ele>
        <time>2022-08-26T21:35:31.000Z</time>
      </trkpt>
      <trkpt lat="39.83623693697154521942138671875" lon="-0.5104744993150234222412109375">
        <ele>377</ele>
        <time>2022-08-26T21:35:39.000Z</time>
      </trkpt>
      <trkpt lat="39.83647380955517292022705078125" lon="-0.5099534802138805389404296875">
        <ele>376.79998779296875</ele>
        <time>2022-08-26T21:35:47.000Z</time>
      </trkpt>
      <trkpt lat="39.836593754589557647705078125" lon="-0.50968685187399387359619140625">
        <ele>376.79998779296875</ele>
        <time>2022-08-26T21:35:52.000Z</time>
      </trkpt>
      <trkpt lat="39.83677924610674381256103515625" lon="-0.50930363126099109649658203125">
        <ele>376.79998779296875</ele>
        <time>2022-08-26T21:35:58.000Z</time>
      </trkpt>
      <trkpt lat="39.83701712451875209808349609375" lon="-0.50865889526903629302978515625">
        <ele>376.79998779296875</ele>
        <time>2022-08-26T21:36:07.000Z</time>
      </trkpt>
      <trkpt lat="39.83718819916248321533203125" lon="-0.5080142430961132049560546875">
        <ele>377</ele>
        <time>2022-08-26T21:36:15.000Z</time>
      </trkpt>
      <trkpt lat="39.83729406259953975677490234375" lon="-0.50740278325974941253662109375">
        <ele>376.79998779296875</ele>
        <time>2022-08-26T21:36:22.000Z</time>
      </trkpt>
      <trkpt lat="39.83730462379753589630126953125" lon="-0.50723548047244548797607421875">
        <ele>376.600006103515625</ele>
        <time>2022-08-26T21:36:24.000Z</time>
      </trkpt>
      <trkpt lat="39.837326668202877044677734375" lon="-0.506615303456783294677734375">
        <ele>376</ele>
        <time>2022-08-26T21:36:31.000Z</time>
      </trkpt>
      <trkpt lat="39.83730931766331195831298828125" lon="-0.50633006729185581207275390625">
        <ele>375.79998779296875</ele>
        <time>2022-08-26T21:36:34.000Z</time>
      </trkpt>
      <trkpt lat="39.8372503928840160369873046875" lon="-0.5057363770902156829833984375">
        <ele>374.79998779296875</ele>
        <time>2022-08-26T21:36:40.000Z</time>
      </trkpt>
      <trkpt lat="39.83723337762057781219482421875" lon="-0.505640320479869842529296875">
        <ele>374.600006103515625</ele>
        <time>2022-08-26T21:36:41.000Z</time>
      </trkpt>
      <trkpt lat="39.83710102736949920654296875" lon="-0.50503422506153583526611328125">
        <ele>373.79998779296875</ele>
        <time>2022-08-26T21:36:48.000Z</time>
      </trkpt>
      <trkpt lat="39.83707630075514316558837890625" lon="-0.504948981106281280517578125">
        <ele>373.600006103515625</ele>
        <time>2022-08-26T21:36:49.000Z</time>
      </trkpt>
      <trkpt lat="39.83689893968403339385986328125" lon="-0.5044603161513805389404296875">
        <ele>373</ele>
        <time>2022-08-26T21:36:55.000Z</time>
      </trkpt>
      <trkpt lat="39.8368401825428009033203125" lon="-0.50431069917976856231689453125">
        <ele>372.399993896484375</ele>
        <time>2022-08-26T21:36:57.000Z</time>
      </trkpt>
      <trkpt lat="39.836652763187885284423828125" lon="-0.50387701950967311859130859375">
        <ele>371.399993896484375</ele>
        <time>2022-08-26T21:37:03.000Z</time>
      </trkpt>
      <trkpt lat="39.83658872544765472412109375" lon="-0.50374089740216732025146484375">
        <ele>371</ele>
        <time>2022-08-26T21:37:05.000Z</time>
      </trkpt>
      <trkpt lat="39.83649912290275096893310546875" lon="-0.5035378038883209228515625">
        <ele>370.399993896484375</ele>
        <time>2022-08-26T21:37:08.000Z</time>
      </trkpt>
      <trkpt lat="39.836228303611278533935546875" lon="-0.5029810778796672821044921875">
        <ele>369.20001220703125</ele>
        <time>2022-08-26T21:37:16.000Z</time>
      </trkpt>
      <trkpt lat="39.8359253816306591033935546875" lon="-0.5023155547678470611572265625">
        <ele>368.79998779296875</ele>
        <time>2022-08-26T21:37:24.000Z</time>
      </trkpt>
      <trkpt lat="39.83570988290011882781982421875" lon="-0.50186653621494770050048828125">
        <ele>368.399993896484375</ele>
        <time>2022-08-26T21:37:29.000Z</time>
      </trkpt>
      <trkpt lat="39.8355341143906116485595703125" lon="-0.5014931224286556243896484375">
        <ele>368.20001220703125</ele>
        <time>2022-08-26T21:37:33.000Z</time>
      </trkpt>
      <trkpt lat="39.83523798175156116485595703125" lon="-0.500859282910823822021484375">
        <ele>367.399993896484375</ele>
        <time>2022-08-26T21:37:40.000Z</time>
      </trkpt>
      <trkpt lat="39.83507570810616016387939453125" lon="-0.5005338974297046661376953125">
        <ele>366.600006103515625</ele>
        <time>2022-08-26T21:37:44.000Z</time>
      </trkpt>
      <trkpt lat="39.83499708585441112518310546875" lon="-0.50038662739098072052001953125">
        <ele>366.399993896484375</ele>
        <time>2022-08-26T21:37:46.000Z</time>
      </trkpt>
      <trkpt lat="39.83484839089214801788330078125" lon="-0.5001191608607769012451171875">
        <ele>365.79998779296875</ele>
        <time>2022-08-26T21:37:50.000Z</time>
      </trkpt>
      <trkpt lat="39.83470045030117034912109375" lon="-0.4998402111232280731201171875">
        <ele>365.399993896484375</ele>
        <time>2022-08-26T21:37:54.000Z</time>
      </trkpt>
      <trkpt lat="39.83462207950651645660400390625" lon="-0.4997007362544536590576171875">
        <ele>365</ele>
        <time>2022-08-26T21:37:56.000Z</time>
      </trkpt>
      <trkpt lat="39.8344233445823192596435546875" lon="-0.49931458197534084320068359375">
        <ele>364.20001220703125</ele>
        <time>2022-08-26T21:38:01.000Z</time>
      </trkpt>
      <trkpt lat="39.83438135124742984771728515625" lon="-0.49921416677534580230712890625">
        <ele>364</ele>
        <time>2022-08-26T21:38:02.000Z</time>
      </trkpt>
      <trkpt lat="39.8341142199933528900146484375" lon="-0.4986100830137729644775390625">
        <ele>363.20001220703125</ele>
        <time>2022-08-26T21:38:08.000Z</time>
      </trkpt>
      <trkpt lat="39.83408027328550815582275390625" lon="-0.4985141940414905548095703125">
        <ele>363</ele>
        <time>2022-08-26T21:38:09.000Z</time>
      </trkpt>
      <trkpt lat="39.83394264243543148040771484375" lon="-0.49812787212431430816650390625">
        <ele>362.20001220703125</ele>
        <time>2022-08-26T21:38:13.000Z</time>
      </trkpt>
      <trkpt lat="39.8337422311305999755859375" lon="-0.497570224106311798095703125">
        <ele>361.399993896484375</ele>
        <time>2022-08-26T21:38:19.000Z</time>
      </trkpt>
      <trkpt lat="39.8336133174598217010498046875" lon="-0.49721441231667995452880859375">
        <ele>361</ele>
        <time>2022-08-26T21:38:23.000Z</time>
      </trkpt>
      <trkpt lat="39.83347878791391849517822265625" lon="-0.49686052836477756500244140625">
        <ele>360.600006103515625</ele>
        <time>2022-08-26T21:38:27.000Z</time>
      </trkpt>
      <trkpt lat="39.83331064693629741668701171875" lon="-0.496426932513713836669921875">
        <ele>359.79998779296875</ele>
        <time>2022-08-26T21:38:32.000Z</time>
      </trkpt>
      <trkpt lat="39.83314049430191516876220703125" lon="-0.49600523896515369415283203125">
        <ele>359</ele>
        <time>2022-08-26T21:38:37.000Z</time>
      </trkpt>
      <trkpt lat="39.83310520648956298828125" lon="-0.49591756425797939300537109375">
        <ele>358.79998779296875</ele>
        <time>2022-08-26T21:38:38.000Z</time>
      </trkpt>
      <trkpt lat="39.8328436911106109619140625" lon="-0.4952905140817165374755859375">
        <ele>358.20001220703125</ele>
        <time>2022-08-26T21:38:45.000Z</time>
      </trkpt>
      <trkpt lat="39.83271871693432331085205078125" lon="-0.49506177194416522979736328125">
        <ele>357.600006103515625</ele>
        <time>2022-08-26T21:38:48.000Z</time>
      </trkpt>
      <trkpt lat="39.83265216462314128875732421875" lon="-0.4949528910219669342041015625">
        <ele>357.20001220703125</ele>
        <time>2022-08-26T21:38:50.000Z</time>
      </trkpt>
      <trkpt lat="39.832552336156368255615234375" lon="-0.4947899468243122100830078125">
        <ele>356.600006103515625</ele>
        <time>2022-08-26T21:38:54.000Z</time>
      </trkpt>
      <trkpt lat="39.83251470141112804412841796875" lon="-0.49474828876554965972900390625">
        <ele>356.399993896484375</ele>
        <time>2022-08-26T21:38:55.000Z</time>
      </trkpt>
      <trkpt lat="39.83234773389995098114013671875" lon="-0.49447168596088886260986328125">
        <ele>355.399993896484375</ele>
        <time>2022-08-26T21:38:59.000Z</time>
      </trkpt>
      <trkpt lat="39.83230884186923503875732421875" lon="-0.4943914711475372314453125">
        <ele>355.399993896484375</ele>
        <time>2022-08-26T21:39:00.000Z</time>
      </trkpt>
      <trkpt lat="39.8319842107594013214111328125" lon="-0.49388797022402286529541015625">
        <ele>354.79998779296875</ele>
        <time>2022-08-26T21:39:07.000Z</time>
      </trkpt>
      <trkpt lat="39.83171590603888034820556640625" lon="-0.4935571365058422088623046875">
        <ele>354.399993896484375</ele>
        <time>2022-08-26T21:39:11.000Z</time>
      </trkpt>
      <trkpt lat="39.83157978393137454986572265625" lon="-0.493382625281810760498046875">
        <ele>354.399993896484375</ele>
        <time>2022-08-26T21:39:13.000Z</time>
      </trkpt>
      <trkpt lat="39.831170998513698577880859375" lon="-0.492878369987010955810546875">
        <ele>354.20001220703125</ele>
        <time>2022-08-26T21:39:19.000Z</time>
      </trkpt>
      <trkpt lat="39.830910153687000274658203125" lon="-0.49256731756031513214111328125">
        <ele>353.600006103515625</ele>
        <time>2022-08-26T21:39:23.000Z</time>
      </trkpt>
      <trkpt lat="39.830851815640926361083984375" lon="-0.492488443851470947265625">
        <ele>353.399993896484375</ele>
        <time>2022-08-26T21:39:24.000Z</time>
      </trkpt>
      <trkpt lat="39.8306548409163951873779296875" lon="-0.4921255074441432952880859375">
        <ele>352.600006103515625</ele>
        <time>2022-08-26T21:39:28.000Z</time>
      </trkpt>
      <trkpt lat="39.8306149430572986602783203125" lon="-0.49202986992895603179931640625">
        <ele>352.399993896484375</ele>
        <time>2022-08-26T21:39:29.000Z</time>
      </trkpt>
      <trkpt lat="39.83055568300187587738037109375" lon="-0.49181646667420864105224609375">
        <ele>352</ele>
        <time>2022-08-26T21:39:31.000Z</time>
      </trkpt>
      <trkpt lat="39.830540679395198822021484375" lon="-0.49171051941812038421630859375">
        <ele>351.79998779296875</ele>
        <time>2022-08-26T21:39:32.000Z</time>
      </trkpt>
      <trkpt lat="39.83049030415713787078857421875" lon="-0.4913624189794063568115234375">
        <ele>351.20001220703125</ele>
        <time>2022-08-26T21:39:35.000Z</time>
      </trkpt>
      <trkpt lat="39.8304576985538005828857421875" lon="-0.4911260493099689483642578125">
        <ele>351</ele>
        <time>2022-08-26T21:39:37.000Z</time>
      </trkpt>
      <trkpt lat="39.83033875934779644012451171875" lon="-0.49037075601518154144287109375">
        <ele>350.20001220703125</ele>
        <time>2022-08-26T21:39:44.000Z</time>
      </trkpt>
      <trkpt lat="39.8302538506686687469482421875" lon="-0.489793159067630767822265625">
        <ele>349</ele>
        <time>2022-08-26T21:39:50.000Z</time>
      </trkpt>
      <trkpt lat="39.83022250235080718994140625" lon="-0.48961956985294818878173828125">
        <ele>348.79998779296875</ele>
        <time>2022-08-26T21:39:52.000Z</time>
      </trkpt>
      <trkpt lat="39.83010088093578815460205078125" lon="-0.48902093432843685150146484375">
        <ele>348</ele>
        <time>2022-08-26T21:39:59.000Z</time>
      </trkpt>
      <trkpt lat="39.83007623814046382904052734375" lon="-0.48894189298152923583984375">
        <ele>348</ele>
        <time>2022-08-26T21:40:00.000Z</time>
      </trkpt>
      <trkpt lat="39.829999543726444244384765625" lon="-0.488588847219944000244140625">
        <ele>347.399993896484375</ele>
        <time>2022-08-26T21:40:05.000Z</time>
      </trkpt>
      <trkpt lat="39.8299521021544933319091796875" lon="-0.4883616976439952850341796875">
        <ele>347</ele>
        <time>2022-08-26T21:40:08.000Z</time>
      </trkpt>
      <trkpt lat="39.829922430217266082763671875" lon="-0.4882124997675418853759765625">
        <ele>346.79998779296875</ele>
        <time>2022-08-26T21:40:10.000Z</time>
      </trkpt>
      <trkpt lat="39.82991983182728290557861328125" lon="-0.488133542239665985107421875">
        <ele>346.79998779296875</ele>
        <time>2022-08-26T21:40:11.000Z</time>
      </trkpt>
      <trkpt lat="39.82989937998354434967041015625" lon="-0.48755527473986148834228515625">
        <ele>346</ele>
        <time>2022-08-26T21:40:18.000Z</time>
      </trkpt>
      <trkpt lat="39.82989669777452945709228515625" lon="-0.48747095279395580291748046875">
        <ele>345.79998779296875</ele>
        <time>2022-08-26T21:40:19.000Z</time>
      </trkpt>
      <trkpt lat="39.82992335222661495208740234375" lon="-0.4869293980300426483154296875">
        <ele>345.20001220703125</ele>
        <time>2022-08-26T21:40:25.000Z</time>
      </trkpt>
      <trkpt lat="39.83005930669605731964111328125" lon="-0.486271418631076812744140625">
        <ele>344.79998779296875</ele>
        <time>2022-08-26T21:40:32.000Z</time>
      </trkpt>
      <trkpt lat="39.8301183991134166717529296875" lon="-0.4860042035579681396484375">
        <ele>344.79998779296875</ele>
        <time>2022-08-26T21:40:35.000Z</time>
      </trkpt>
      <trkpt lat="39.83019559644162654876708984375" lon="-0.48567689023911952972412109375">
        <ele>344.399993896484375</ele>
        <time>2022-08-26T21:40:39.000Z</time>
      </trkpt>
      <trkpt lat="39.83033456839621067047119140625" lon="-0.48497867770493030548095703125">
        <ele>344</ele>
        <time>2022-08-26T21:40:47.000Z</time>
      </trkpt>
      <trkpt lat="39.83035124838352203369140625" lon="-0.48489418812096118927001953125">
        <ele>344</ele>
        <time>2022-08-26T21:40:48.000Z</time>
      </trkpt>
      <trkpt lat="39.8304560221731662750244140625" lon="-0.48434534110128879547119140625">
        <ele>343.79998779296875</ele>
        <time>2022-08-26T21:40:55.000Z</time>
      </trkpt>
      <trkpt lat="39.830475635826587677001953125" lon="-0.48426705412566661834716796875">
        <ele>343.79998779296875</ele>
        <time>2022-08-26T21:40:56.000Z</time>
      </trkpt>
      <trkpt lat="39.8306189663708209991455078125" lon="-0.48379875719547271728515625">
        <ele>343.399993896484375</ele>
        <time>2022-08-26T21:41:02.000Z</time>
      </trkpt>
      <trkpt lat="39.8307524062693119049072265625" lon="-0.48311336897313594818115234375">
        <ele>342.600006103515625</ele>
        <time>2022-08-26T21:41:10.000Z</time>
      </trkpt>
      <trkpt lat="39.8307849280536174774169921875" lon="-0.48293248750269412994384765625">
        <ele>342.600006103515625</ele>
        <time>2022-08-26T21:41:12.000Z</time>
      </trkpt>
      <trkpt lat="39.830945022404193878173828125" lon="-0.48218700103461742401123046875">
        <ele>342</ele>
        <time>2022-08-26T21:41:20.000Z</time>
      </trkpt>
      <trkpt lat="39.8309876024723052978515625" lon="-0.4820005036890506744384765625">
        <ele>341.79998779296875</ele>
        <time>2022-08-26T21:41:22.000Z</time>
      </trkpt>
      <trkpt lat="39.83101014979183673858642578125" lon="-0.48191048204898834228515625">
        <ele>341.79998779296875</ele>
        <time>2022-08-26T21:41:23.000Z</time>
      </trkpt>
      <trkpt lat="39.83114912174642086029052734375" lon="-0.48116591759026050567626953125">
        <ele>340.79998779296875</ele>
        <time>2022-08-26T21:41:31.000Z</time>
      </trkpt>
      <trkpt lat="39.8311681486666202545166015625" lon="-0.4810714535415172576904296875">
        <ele>340.600006103515625</ele>
        <time>2022-08-26T21:41:32.000Z</time>
      </trkpt>
      <trkpt lat="39.831266216933727264404296875" lon="-0.4804089479148387908935546875">
        <ele>339.600006103515625</ele>
        <time>2022-08-26T21:41:39.000Z</time>
      </trkpt>
      <trkpt lat="39.83126864768564701080322265625" lon="-0.48031548969447612762451171875">
        <ele>339.600006103515625</ele>
        <time>2022-08-26T21:41:40.000Z</time>
      </trkpt>
      <trkpt lat="39.83127049170434474945068359375" lon="-0.47972406260669231414794921875">
        <ele>338.600006103515625</ele>
        <time>2022-08-26T21:41:46.000Z</time>
      </trkpt>
      <trkpt lat="39.8312719166278839111328125" lon="-0.47951736487448215484619140625">
        <ele>338.20001220703125</ele>
        <time>2022-08-26T21:41:48.000Z</time>
      </trkpt>
      <trkpt lat="39.83123662881553173065185546875" lon="-0.47875293530523777008056640625">
        <ele>337.399993896484375</ele>
        <time>2022-08-26T21:41:55.000Z</time>
      </trkpt>
      <trkpt lat="39.83123059384524822235107421875" lon="-0.478544645011425018310546875">
        <ele>337.20001220703125</ele>
        <time>2022-08-26T21:41:57.000Z</time>
      </trkpt>
      <trkpt lat="39.8312191106379032135009765625" lon="-0.47803594730794429779052734375">
        <ele>336.20001220703125</ele>
        <time>2022-08-26T21:42:02.000Z</time>
      </trkpt>
      <trkpt lat="39.83120645396411418914794921875" lon="-0.47762774862349033355712890625">
        <ele>335.399993896484375</ele>
        <time>2022-08-26T21:42:06.000Z</time>
      </trkpt>
      <trkpt lat="39.831198155879974365234375" lon="-0.47743245027959346771240234375">
        <ele>335.20001220703125</ele>
        <time>2022-08-26T21:42:08.000Z</time>
      </trkpt>
      <trkpt lat="39.83116873539984226226806640625" lon="-0.4768587090075016021728515625">
        <ele>334</ele>
        <time>2022-08-26T21:42:14.000Z</time>
      </trkpt>
      <trkpt lat="39.8311592638492584228515625" lon="-0.4767639935016632080078125">
        <ele>333.79998779296875</ele>
        <time>2022-08-26T21:42:15.000Z</time>
      </trkpt>
      <trkpt lat="39.83101400546729564666748046875" lon="-0.47609151341021060943603515625">
        <ele>333.20001220703125</ele>
        <time>2022-08-26T21:42:22.000Z</time>
      </trkpt>
      <trkpt lat="39.830983579158782958984375" lon="-0.47599461860954761505126953125">
        <ele>333</ele>
        <time>2022-08-26T21:42:23.000Z</time>
      </trkpt>
      <trkpt lat="39.8307560943067073822021484375" lon="-0.47532490454614162445068359375">
        <ele>332</ele>
        <time>2022-08-26T21:42:30.000Z</time>
      </trkpt>
      <trkpt lat="39.83056657947599887847900390625" lon="-0.47475091181695461273193359375">
        <ele>330.79998779296875</ele>
        <time>2022-08-26T21:42:36.000Z</time>
      </trkpt>
      <trkpt lat="39.83037882484495639801025390625" lon="-0.474182702600955963134765625">
        <ele>330</ele>
        <time>2022-08-26T21:42:42.000Z</time>
      </trkpt>
      <trkpt lat="39.8303492367267608642578125" lon="-0.4740967042744159698486328125">
        <ele>329.79998779296875</ele>
        <time>2022-08-26T21:42:43.000Z</time>
      </trkpt>
      <trkpt lat="39.83029735274612903594970703125" lon="-0.4739216901361942291259765625">
        <ele>329.399993896484375</ele>
        <time>2022-08-26T21:42:46.000Z</time>
      </trkpt>
      <trkpt lat="39.830203391611576080322265625" lon="-0.47380945645272731781005859375">
        <ele>328.79998779296875</ele>
        <time>2022-08-26T21:42:50.000Z</time>
      </trkpt>
      <trkpt lat="39.83018226921558380126953125" lon="-0.4736995697021484375">
        <ele>327.79998779296875</ele>
        <time>2022-08-26T21:42:53.000Z</time>
      </trkpt>
      <trkpt lat="39.83017715625464916229248046875" lon="-0.47365623526275157928466796875">
        <ele>327.399993896484375</ele>
        <time>2022-08-26T21:42:54.000Z</time>
      </trkpt>
      <trkpt lat="39.83008998446166515350341796875" lon="-0.4733416624367237091064453125">
        <ele>327</ele>
        <time>2022-08-26T21:43:00.000Z</time>
      </trkpt>
      <trkpt lat="39.82995637692511081695556640625" lon="-0.47295098192989826202392578125">
        <ele>327</ele>
        <time>2022-08-26T21:43:06.000Z</time>
      </trkpt>
      <trkpt lat="39.8298079334199428558349609375" lon="-0.47249550931155681610107421875">
        <ele>326.600006103515625</ele>
        <time>2022-08-26T21:43:13.000Z</time>
      </trkpt>
      <trkpt lat="39.82978538610041141510009765625" lon="-0.4724196530878543853759765625">
        <ele>326.399993896484375</ele>
        <time>2022-08-26T21:43:14.000Z</time>
      </trkpt>
      <trkpt lat="39.8296399600803852081298828125" lon="-0.47199192456901073455810546875">
        <ele>325.600006103515625</ele>
        <time>2022-08-26T21:43:20.000Z</time>
      </trkpt>
      <trkpt lat="39.82957416214048862457275390625" lon="-0.471770055592060089111328125">
        <ele>325.399993896484375</ele>
        <time>2022-08-26T21:43:23.000Z</time>
      </trkpt>
      <trkpt lat="39.82933343388140201568603515625" lon="-0.471114255487918853759765625">
        <ele>325.20001220703125</ele>
        <time>2022-08-26T21:43:32.000Z</time>
      </trkpt>
      <trkpt lat="39.82928364537656307220458984375" lon="-0.47096438705921173095703125">
        <ele>325.20001220703125</ele>
        <time>2022-08-26T21:43:34.000Z</time>
      </trkpt>
      <trkpt lat="39.8290716670453548431396484375" lon="-0.47030867077410221099853515625">
        <ele>325.20001220703125</ele>
        <time>2022-08-26T21:43:43.000Z</time>
      </trkpt>
      <trkpt lat="39.82905448414385318756103515625" lon="-0.47024496830999851226806640625">
        <ele>325.20001220703125</ele>
        <time>2022-08-26T21:43:44.000Z</time>
      </trkpt>
      <trkpt lat="39.828868322074413299560546875" lon="-0.46988010406494140625">
        <ele>325.20001220703125</ele>
        <time>2022-08-26T21:43:50.000Z</time>
      </trkpt>
      <trkpt lat="39.8284906335175037384033203125" lon="-0.469368137419223785400390625">
        <ele>325.79998779296875</ele>
        <time>2022-08-26T21:43:58.000Z</time>
      </trkpt>
      <trkpt lat="39.82806776650249958038330078125" lon="-0.4689069651067256927490234375">
        <ele>325.79998779296875</ele>
        <time>2022-08-26T21:44:06.000Z</time>
      </trkpt>
      <trkpt lat="39.82801730744540691375732421875" lon="-0.46885172836482524871826171875">
        <ele>325.79998779296875</ele>
        <time>2022-08-26T21:44:07.000Z</time>
      </trkpt>
      <trkpt lat="39.82756367884576320648193359375" lon="-0.46834713779389858245849609375">
        <ele>325.600006103515625</ele>
        <time>2022-08-26T21:44:16.000Z</time>
      </trkpt>
      <trkpt lat="39.82746385037899017333984375" lon="-0.4682300426065921783447265625">
        <ele>325.399993896484375</ele>
        <time>2022-08-26T21:44:18.000Z</time>
      </trkpt>
      <trkpt lat="39.82704668305814266204833984375" lon="-0.46770592220127582550048828125">
        <ele>325.20001220703125</ele>
        <time>2022-08-26T21:44:27.000Z</time>
      </trkpt>
      <trkpt lat="39.82673370279371738433837890625" lon="-0.46731113456189632415771484375">
        <ele>325.20001220703125</ele>
        <time>2022-08-26T21:44:34.000Z</time>
      </trkpt>
      <trkpt lat="39.82649364508688449859619140625" lon="-0.46674527227878570556640625">
        <ele>325.20001220703125</ele>
        <time>2022-08-26T21:44:42.000Z</time>
      </trkpt>
      <trkpt lat="39.82641837559640407562255859375" lon="-0.4662390053272247314453125">
        <ele>325.20001220703125</ele>
        <time>2022-08-26T21:44:49.000Z</time>
      </trkpt>
      <trkpt lat="39.826387278735637664794921875" lon="-0.465585552155971527099609375">
        <ele>325</ele>
        <time>2022-08-26T21:44:57.000Z</time>
      </trkpt>
      <trkpt lat="39.8263492248952388763427734375" lon="-0.4648387245833873748779296875">
        <ele>325</ele>
        <time>2022-08-26T21:45:06.000Z</time>
      </trkpt>
      <trkpt lat="39.82630991376936435699462890625" lon="-0.46413506381213665008544921875">
        <ele>325.20001220703125</ele>
        <time>2022-08-26T21:45:15.000Z</time>
      </trkpt>
      <trkpt lat="39.82630438171327114105224609375" lon="-0.46405543573200702667236328125">
        <ele>325.20001220703125</ele>
        <time>2022-08-26T21:45:16.000Z</time>
      </trkpt>
      <trkpt lat="39.8262164555490016937255859375" lon="-0.46336728148162364959716796875">
        <ele>325.20001220703125</ele>
        <time>2022-08-26T21:45:25.000Z</time>
      </trkpt>
      <trkpt lat="39.82608812861144542694091796875" lon="-0.46297819353640079498291015625">
        <ele>325.20001220703125</ele>
        <time>2022-08-26T21:45:31.000Z</time>
      </trkpt>
      <trkpt lat="39.82601336203515529632568359375" lon="-0.46277283690869808197021484375">
        <ele>325</ele>
        <time>2022-08-26T21:45:34.000Z</time>
      </trkpt>
      <trkpt lat="39.82585251331329345703125" lon="-0.462421886622905731201171875">
        <ele>325</ele>
        <time>2022-08-26T21:45:39.000Z</time>
      </trkpt>
      <trkpt lat="39.8255573026835918426513671875" lon="-0.46183221973478794097900390625">
        <ele>324.79998779296875</ele>
        <time>2022-08-26T21:45:47.000Z</time>
      </trkpt>
      <trkpt lat="39.825494103133678436279296875" lon="-0.46169844456017017364501953125">
        <ele>324.79998779296875</ele>
        <time>2022-08-26T21:45:49.000Z</time>
      </trkpt>
      <trkpt lat="39.8251985572278499603271484375" lon="-0.46107047237455844879150390625">
        <ele>324.600006103515625</ele>
        <time>2022-08-26T21:45:58.000Z</time>
      </trkpt>
      <trkpt lat="39.82492522336542606353759765625" lon="-0.4604600183665752410888671875">
        <ele>324.600006103515625</ele>
        <time>2022-08-26T21:46:07.000Z</time>
      </trkpt>
      <trkpt lat="39.8246316052973270416259765625" lon="-0.459849648177623748779296875">
        <ele>324.79998779296875</ele>
        <time>2022-08-26T21:46:16.000Z</time>
      </trkpt>
      <trkpt lat="39.82435374520719051361083984375" lon="-0.45921488665044307708740234375">
        <ele>324.79998779296875</ele>
        <time>2022-08-26T21:46:24.000Z</time>
      </trkpt>
      <trkpt lat="39.82407831586897373199462890625" lon="-0.45863427221775054931640625">
        <ele>324</ele>
        <time>2022-08-26T21:46:31.000Z</time>
      </trkpt>
      <trkpt lat="39.824041686952114105224609375" lon="-0.45854936353862285614013671875">
        <ele>323.79998779296875</ele>
        <time>2022-08-26T21:46:32.000Z</time>
      </trkpt>
      <trkpt lat="39.82372577302157878875732421875" lon="-0.4578726924955844879150390625">
        <ele>323</ele>
        <time>2022-08-26T21:46:40.000Z</time>
      </trkpt>
      <trkpt lat="39.8236874677240848541259765625" lon="-0.4577858559787273406982421875">
        <ele>323</ele>
        <time>2022-08-26T21:46:41.000Z</time>
      </trkpt>
      <trkpt lat="39.82364413328468799591064453125" lon="-0.45769927091896533966064453125">
        <ele>322.79998779296875</ele>
        <time>2022-08-26T21:46:42.000Z</time>
      </trkpt>
      <trkpt lat="39.82343726791441440582275390625" lon="-0.4572631604969501495361328125">
        <ele>321.79998779296875</ele>
        <time>2022-08-26T21:46:47.000Z</time>
      </trkpt>
      <trkpt lat="39.82322872616350650787353515625" lon="-0.45682453550398349761962890625">
        <ele>321.20001220703125</ele>
        <time>2022-08-26T21:46:52.000Z</time>
      </trkpt>
      <trkpt lat="39.823102913796901702880859375" lon="-0.45657123439013957977294921875">
        <ele>321</ele>
        <time>2022-08-26T21:46:55.000Z</time>
      </trkpt>
      <trkpt lat="39.82289160601794719696044921875" lon="-0.45614023692905902862548828125">
        <ele>320.20001220703125</ele>
        <time>2022-08-26T21:47:00.000Z</time>
      </trkpt>
      <trkpt lat="39.82284349389374256134033203125" lon="-0.45605541206896305084228515625">
        <ele>320</ele>
        <time>2022-08-26T21:47:01.000Z</time>
      </trkpt>
      <trkpt lat="39.82257678173482418060302734375" lon="-0.45566146261990070343017578125">
        <ele>318.79998779296875</ele>
        <time>2022-08-26T21:47:06.000Z</time>
      </trkpt>
      <trkpt lat="39.8225160129368305206298828125" lon="-0.45559373684227466583251953125">
        <ele>318.600006103515625</ele>
        <time>2022-08-26T21:47:07.000Z</time>
      </trkpt>
      <trkpt lat="39.822194986045360565185546875" lon="-0.4552776552736759185791015625">
        <ele>317.600006103515625</ele>
        <time>2022-08-26T21:47:12.000Z</time>
      </trkpt>
      <trkpt lat="39.8220576904714107513427734375" lon="-0.4551690258085727691650390625">
        <ele>317.20001220703125</ele>
        <time>2022-08-26T21:47:14.000Z</time>
      </trkpt>
      <trkpt lat="39.8216406069695949554443359375" lon="-0.45486233197152614593505859375">
        <ele>316.600006103515625</ele>
        <time>2022-08-26T21:47:20.000Z</time>
      </trkpt>
      <trkpt lat="39.8213710449635982513427734375" lon="-0.45467709191143512725830078125">
        <ele>315.79998779296875</ele>
        <time>2022-08-26T21:47:24.000Z</time>
      </trkpt>
      <trkpt lat="39.82123936526477336883544921875" lon="-0.454580448567867279052734375">
        <ele>315.399993896484375</ele>
        <time>2022-08-26T21:47:26.000Z</time>
      </trkpt>
      <trkpt lat="39.820896796882152557373046875" lon="-0.45433209277689456939697265625">
        <ele>314.399993896484375</ele>
        <time>2022-08-26T21:47:31.000Z</time>
      </trkpt>
      <trkpt lat="39.82060753740370273590087890625" lon="-0.4541236348450183868408203125">
        <ele>313.79998779296875</ele>
        <time>2022-08-26T21:47:35.000Z</time>
      </trkpt>
      <trkpt lat="39.8204554058611392974853515625" lon="-0.45400821603834629058837890625">
        <ele>313.399993896484375</ele>
        <time>2022-08-26T21:47:37.000Z</time>
      </trkpt>
      <trkpt lat="39.8200054652988910675048828125" lon="-0.45365986414253711700439453125">
        <ele>312.600006103515625</ele>
        <time>2022-08-26T21:47:43.000Z</time>
      </trkpt>
      <trkpt lat="39.8198599554598331451416015625" lon="-0.4535516537725925445556640625">
        <ele>312.20001220703125</ele>
        <time>2022-08-26T21:47:45.000Z</time>
      </trkpt>
      <trkpt lat="39.81957974843680858612060546875" lon="-0.4533592052757740020751953125">
        <ele>311.20001220703125</ele>
        <time>2022-08-26T21:47:49.000Z</time>
      </trkpt>
      <trkpt lat="39.81936718337237834930419921875" lon="-0.453209839761257171630859375">
        <ele>310.79998779296875</ele>
        <time>2022-08-26T21:47:52.000Z</time>
      </trkpt>
      <trkpt lat="39.81915746815502643585205078125" lon="-0.45305267907679080963134765625">
        <ele>310.20001220703125</ele>
        <time>2022-08-26T21:47:55.000Z</time>
      </trkpt>
      <trkpt lat="39.81869168579578399658203125" lon="-0.4526480846107006072998046875">
        <ele>309</ele>
        <time>2022-08-26T21:48:02.000Z</time>
      </trkpt>
      <trkpt lat="39.81840209104120731353759765625" lon="-0.45224617235362529754638671875">
        <ele>308.399993896484375</ele>
        <time>2022-08-26T21:48:07.000Z</time>
      </trkpt>
      <trkpt lat="39.818318188190460205078125" lon="-0.4520529694855213165283203125">
        <ele>308.20001220703125</ele>
        <time>2022-08-26T21:48:09.000Z</time>
      </trkpt>
      <trkpt lat="39.81822120957076549530029296875" lon="-0.45174258761107921600341796875">
        <ele>307.600006103515625</ele>
        <time>2022-08-26T21:48:12.000Z</time>
      </trkpt>
      <trkpt lat="39.81813336722552776336669921875" lon="-0.4511876218020915985107421875">
        <ele>307.20001220703125</ele>
        <time>2022-08-26T21:48:17.000Z</time>
      </trkpt>
      <trkpt lat="39.81812900863587856292724609375" lon="-0.45108192600309848785400390625">
        <ele>307</ele>
        <time>2022-08-26T21:48:18.000Z</time>
      </trkpt>
      <trkpt lat="39.8180970735847949981689453125" lon="-0.45055411756038665771484375">
        <ele>306</ele>
        <time>2022-08-26T21:48:23.000Z</time>
      </trkpt>
      <trkpt lat="39.8180799745023250579833984375" lon="-0.45034314505755901336669921875">
        <ele>305.600006103515625</ele>
        <time>2022-08-26T21:48:25.000Z</time>
      </trkpt>
      <trkpt lat="39.81804854236543178558349609375" lon="-0.4498109780251979827880859375">
        <ele>305</ele>
        <time>2022-08-26T21:48:30.000Z</time>
      </trkpt>
      <trkpt lat="39.8180325329303741455078125" lon="-0.4495176114141941070556640625">
        <ele>304.600006103515625</ele>
        <time>2022-08-26T21:48:33.000Z</time>
      </trkpt>
      <trkpt lat="39.8179545812308788299560546875" lon="-0.4487719573080539703369140625">
        <ele>304</ele>
        <time>2022-08-26T21:48:41.000Z</time>
      </trkpt>
      <trkpt lat="39.8179498873651027679443359375" lon="-0.44869040139019489288330078125">
        <ele>304</ele>
        <time>2022-08-26T21:48:42.000Z</time>
      </trkpt>
      <trkpt lat="39.8179237358272075653076171875" lon="-0.448439531028270721435546875">
        <ele>304</ele>
        <time>2022-08-26T21:48:45.000Z</time>
      </trkpt>
      <trkpt lat="39.8178674094378948211669921875" lon="-0.448133088648319244384765625">
        <ele>303.600006103515625</ele>
        <time>2022-08-26T21:48:49.000Z</time>
      </trkpt>
      <trkpt lat="39.81773321516811847686767578125" lon="-0.44760796241462230682373046875">
        <ele>303.399993896484375</ele>
        <time>2022-08-26T21:48:56.000Z</time>
      </trkpt>
      <trkpt lat="39.8175059817731380462646484375" lon="-0.44703464023768901824951171875">
        <ele>303.79998779296875</ele>
        <time>2022-08-26T21:49:04.000Z</time>
      </trkpt>
      <trkpt lat="39.8172065801918506622314453125" lon="-0.44644606299698352813720703125">
        <ele>304.399993896484375</ele>
        <time>2022-08-26T21:49:13.000Z</time>
      </trkpt>
      <trkpt lat="39.8169551230967044830322265625" lon="-0.44604406692087650299072265625">
        <ele>304.79998779296875</ele>
        <time>2022-08-26T21:49:20.000Z</time>
      </trkpt>
      <trkpt lat="39.8167636804282665252685546875" lon="-0.445637293159961700439453125">
        <ele>305.20001220703125</ele>
        <time>2022-08-26T21:49:26.000Z</time>
      </trkpt>
      <trkpt lat="39.8166966252028942108154296875" lon="-0.44548566453158855438232421875">
        <ele>305.20001220703125</ele>
        <time>2022-08-26T21:49:28.000Z</time>
      </trkpt>
      <trkpt lat="39.8164156638085842132568359375" lon="-0.444839335978031158447265625">
        <ele>305.600006103515625</ele>
        <time>2022-08-26T21:49:36.000Z</time>
      </trkpt>
      <trkpt lat="39.8163117282092571258544921875" lon="-0.4446192272007465362548828125">
        <ele>305.600006103515625</ele>
        <time>2022-08-26T21:49:39.000Z</time>
      </trkpt>
      <trkpt lat="39.81603152118623256683349609375" lon="-0.444056801497936248779296875">
        <ele>306.20001220703125</ele>
        <time>2022-08-26T21:49:47.000Z</time>
      </trkpt>
      <trkpt lat="39.81597603298723697662353515625" lon="-0.44392294250428676605224609375">
        <ele>306.20001220703125</ele>
        <time>2022-08-26T21:49:49.000Z</time>
      </trkpt>
      <trkpt lat="39.81576162390410900115966796875" lon="-0.44344601221382617950439453125">
        <ele>306.600006103515625</ele>
        <time>2022-08-26T21:49:56.000Z</time>
      </trkpt>
      <trkpt lat="39.8154554329812526702880859375" lon="-0.4428573511540889739990234375">
        <ele>307.20001220703125</ele>
        <time>2022-08-26T21:50:06.000Z</time>
      </trkpt>
      <trkpt lat="39.8151620663702487945556640625" lon="-0.44225133955478668212890625">
        <ele>307.20001220703125</ele>
        <time>2022-08-26T21:50:15.000Z</time>
      </trkpt>
      <trkpt lat="39.81513063423335552215576171875" lon="-0.44218428432941436767578125">
        <ele>307.20001220703125</ele>
        <time>2022-08-26T21:50:16.000Z</time>
      </trkpt>
      <trkpt lat="39.8149163089692592620849609375" lon="-0.4417355172336101531982421875">
        <ele>307.600006103515625</ele>
        <time>2022-08-26T21:50:24.000Z</time>
      </trkpt>
      <trkpt lat="39.81458664871752262115478515625" lon="-0.4411249794065952301025390625">
        <ele>307.79998779296875</ele>
        <time>2022-08-26T21:50:35.000Z</time>
      </trkpt>
      <trkpt lat="39.81430987827479839324951171875" lon="-0.440575964748859405517578125">
        <ele>308</ele>
        <time>2022-08-26T21:50:44.000Z</time>
      </trkpt>
      <trkpt lat="39.81403226964175701141357421875" lon="-0.43999434448778629302978515625">
        <ele>308.20001220703125</ele>
        <time>2022-08-26T21:50:52.000Z</time>
      </trkpt>
      <trkpt lat="39.81373152695596218109130859375" lon="-0.43934139423072338104248046875">
        <ele>308.600006103515625</ele>
        <time>2022-08-26T21:51:02.000Z</time>
      </trkpt>
      <trkpt lat="39.81370939873158931732177734375" lon="-0.43928473256528377532958984375">
        <ele>308.600006103515625</ele>
        <time>2022-08-26T21:51:03.000Z</time>
      </trkpt>
      <trkpt lat="39.81346607208251953125" lon="-0.43864720501005649566650390625">
        <ele>309</ele>
        <time>2022-08-26T21:51:13.000Z</time>
      </trkpt>
      <trkpt lat="39.81328678317368030548095703125" lon="-0.43806700967252254486083984375">
        <ele>309.20001220703125</ele>
        <time>2022-08-26T21:51:21.000Z</time>
      </trkpt>
      <trkpt lat="39.81316725723445415496826171875" lon="-0.43754330836236476898193359375">
        <ele>309.600006103515625</ele>
        <time>2022-08-26T21:51:28.000Z</time>
      </trkpt>
      <trkpt lat="39.81310690753161907196044921875" lon="-0.4373051784932613372802734375">
        <ele>309.600006103515625</ele>
        <time>2022-08-26T21:51:31.000Z</time>
      </trkpt>
      <trkpt lat="39.8129328154027462005615234375" lon="-0.436584167182445526123046875">
        <ele>309.600006103515625</ele>
        <time>2022-08-26T21:51:40.000Z</time>
      </trkpt>
      <trkpt lat="39.81283365748822689056396484375" lon="-0.43602366931736469268798828125">
        <ele>309.600006103515625</ele>
        <time>2022-08-26T21:51:47.000Z</time>
      </trkpt>
      <trkpt lat="39.8127859644591808319091796875" lon="-0.43539200909435749053955078125">
        <ele>309.600006103515625</ele>
        <time>2022-08-26T21:51:55.000Z</time>
      </trkpt>
      <trkpt lat="39.81273743323981761932373046875" lon="-0.4346694052219390869140625">
        <ele>309.20001220703125</ele>
        <time>2022-08-26T21:52:04.000Z</time>
      </trkpt>
      <trkpt lat="39.8127190768718719482421875" lon="-0.43440327979624271392822265625">
        <ele>309</ele>
        <time>2022-08-26T21:52:07.000Z</time>
      </trkpt>
      <trkpt lat="39.81270038522779941558837890625" lon="-0.43431241996586322784423828125">
        <ele>309</ele>
        <time>2022-08-26T21:52:08.000Z</time>
      </trkpt>
      <trkpt lat="39.8125566355884075164794921875" lon="-0.4339970089495182037353515625">
        <ele>308.79998779296875</ele>
        <time>2022-08-26T21:52:12.000Z</time>
      </trkpt>
      <trkpt lat="39.81251053512096405029296875" lon="-0.43392978608608245849609375">
        <ele>308.79998779296875</ele>
        <time>2022-08-26T21:52:13.000Z</time>
      </trkpt>
      <trkpt lat="39.81241372413933277130126953125" lon="-0.43381101451814174652099609375">
        <ele>308.20001220703125</ele>
        <time>2022-08-26T21:52:15.000Z</time>
      </trkpt>
      <trkpt lat="39.81226687319576740264892578125" lon="-0.43365217745304107666015625">
        <ele>307</ele>
        <time>2022-08-26T21:52:18.000Z</time>
      </trkpt>
      <trkpt lat="39.81198406778275966644287109375" lon="-0.43332369066774845123291015625">
        <ele>307</ele>
        <time>2022-08-26T21:52:25.000Z</time>
      </trkpt>
      <trkpt lat="39.81162029318511486053466796875" lon="-0.4328964650630950927734375">
        <ele>308.20001220703125</ele>
        <time>2022-08-26T21:52:34.000Z</time>
      </trkpt>
      <trkpt lat="39.81134503148496150970458984375" lon="-0.43265037238597869873046875">
        <ele>308.600006103515625</ele>
        <time>2022-08-26T21:52:41.000Z</time>
      </trkpt>
      <trkpt lat="39.81111402623355388641357421875" lon="-0.43246588669717311859130859375">
        <ele>309.20001220703125</ele>
        <time>2022-08-26T21:52:48.000Z</time>
      </trkpt>
      <trkpt lat="39.811049737036228179931640625" lon="-0.4324217140674591064453125">
        <ele>309.600006103515625</ele>
        <time>2022-08-26T21:52:50.000Z</time>
      </trkpt>
      <trkpt lat="39.8109184764325618743896484375" lon="-0.4323333688080310821533203125">
        <ele>310.399993896484375</ele>
        <time>2022-08-26T21:52:54.000Z</time>
      </trkpt>
      <trkpt lat="39.81071387417614459991455078125" lon="-0.4322066344320774078369140625">
        <ele>311.20001220703125</ele>
        <time>2022-08-26T21:53:00.000Z</time>
      </trkpt>
      <trkpt lat="39.8106388561427593231201171875" lon="-0.4321590252220630645751953125">
        <ele>311.600006103515625</ele>
        <time>2022-08-26T21:53:02.000Z</time>
      </trkpt>
      <trkpt lat="39.81042914092540740966796875" lon="-0.4320302791893482208251953125">
        <ele>312.600006103515625</ele>
        <time>2022-08-26T21:53:07.000Z</time>
      </trkpt>
      <trkpt lat="39.81038329191505908966064453125" lon="-0.43200655840337276458740234375">
        <ele>312.600006103515625</ele>
        <time>2022-08-26T21:53:08.000Z</time>
      </trkpt>
      <trkpt lat="39.81013066135346889495849609375" lon="-0.431903041899204254150390625">
        <ele>313.20001220703125</ele>
        <time>2022-08-26T21:53:14.000Z</time>
      </trkpt>
      <trkpt lat="39.80986964888870716094970703125" lon="-0.431820563971996307373046875">
        <ele>313.20001220703125</ele>
        <time>2022-08-26T21:53:20.000Z</time>
      </trkpt>
      <trkpt lat="39.809817261993885040283203125" lon="-0.43180757202208042144775390625">
        <ele>313.20001220703125</ele>
        <time>2022-08-26T21:53:21.000Z</time>
      </trkpt>
      <trkpt lat="39.80965976603329181671142578125" lon="-0.43177152983844280242919921875">
        <ele>313.600006103515625</ele>
        <time>2022-08-26T21:53:24.000Z</time>
      </trkpt>
      <trkpt lat="39.80951048433780670166015625" lon="-0.431728027760982513427734375">
        <ele>313.79998779296875</ele>
        <time>2022-08-26T21:53:27.000Z</time>
      </trkpt>
      <trkpt lat="39.8091398365795612335205078125" lon="-0.4315875470638275146484375">
        <ele>314.399993896484375</ele>
        <time>2022-08-26T21:53:35.000Z</time>
      </trkpt>
      <trkpt lat="39.80902709998190402984619140625" lon="-0.4315773211419582366943359375">
        <ele>314.79998779296875</ele>
        <time>2022-08-26T21:53:38.000Z</time>
      </trkpt>
      <trkpt lat="39.80889282189309597015380859375" lon="-0.4315665923058986663818359375">
        <ele>315</ele>
        <time>2022-08-26T21:53:42.000Z</time>
      </trkpt>
      <trkpt lat="39.808754436671733856201171875" lon="-0.43154790066182613372802734375">
        <ele>316</ele>
        <time>2022-08-26T21:53:46.000Z</time>
      </trkpt>
      <trkpt lat="39.80855536647140979766845703125" lon="-0.4314955137670040130615234375">
        <ele>317.20001220703125</ele>
        <time>2022-08-26T21:53:51.000Z</time>
      </trkpt>
      <trkpt lat="39.8082573898136615753173828125" lon="-0.43138361535966396331787109375">
        <ele>318.20001220703125</ele>
        <time>2022-08-26T21:53:58.000Z</time>
      </trkpt>
      <trkpt lat="39.8078916035592555999755859375" lon="-0.43119527399539947509765625">
        <ele>318</ele>
        <time>2022-08-26T21:54:06.000Z</time>
      </trkpt>
      <trkpt lat="39.80755590833723545074462890625" lon="-0.43090852908790111541748046875">
        <ele>317</ele>
        <time>2022-08-26T21:54:12.000Z</time>
      </trkpt>
      <trkpt lat="39.80739447288215160369873046875" lon="-0.43073083274066448211669921875">
        <ele>316</ele>
        <time>2022-08-26T21:54:15.000Z</time>
      </trkpt>
      <trkpt lat="39.80727410875260829925537109375" lon="-0.4306080378592014312744140625">
        <ele>315</ele>
        <time>2022-08-26T21:54:17.000Z</time>
      </trkpt>
      <trkpt lat="39.8071405850350856781005859375" lon="-0.4304717481136322021484375">
        <ele>313.399993896484375</ele>
        <time>2022-08-26T21:54:19.000Z</time>
      </trkpt>
      <trkpt lat="39.8070044629275798797607421875" lon="-0.4303161799907684326171875">
        <ele>312.20001220703125</ele>
        <time>2022-08-26T21:54:21.000Z</time>
      </trkpt>
      <trkpt lat="39.80686591006815433502197265625" lon="-0.430136807262897491455078125">
        <ele>311</ele>
        <time>2022-08-26T21:54:23.000Z</time>
      </trkpt>
      <trkpt lat="39.806795753538608551025390625" lon="-0.43004301376640796661376953125">
        <ele>310.399993896484375</ele>
        <time>2022-08-26T21:54:24.000Z</time>
      </trkpt>
      <trkpt lat="39.806657619774341583251953125" lon="-0.429857186973094940185546875">
        <ele>309.600006103515625</ele>
        <time>2022-08-26T21:54:26.000Z</time>
      </trkpt>
      <trkpt lat="39.806537590920925140380859375" lon="-0.429660379886627197265625">
        <ele>308.399993896484375</ele>
        <time>2022-08-26T21:54:28.000Z</time>
      </trkpt>
      <trkpt lat="39.806426949799060821533203125" lon="-0.42945141904056072235107421875">
        <ele>306.79998779296875</ele>
        <time>2022-08-26T21:54:30.000Z</time>
      </trkpt>
      <trkpt lat="39.80631488375365734100341796875" lon="-0.4292287118732929229736328125">
        <ele>304.79998779296875</ele>
        <time>2022-08-26T21:54:32.000Z</time>
      </trkpt>
      <trkpt lat="39.80625906027853488922119140625" lon="-0.42911480180919170379638671875">
        <ele>303.79998779296875</ele>
        <time>2022-08-26T21:54:33.000Z</time>
      </trkpt>
      <trkpt lat="39.80620474554598331451416015625" lon="-0.4290013946592807769775390625">
        <ele>301.600006103515625</ele>
        <time>2022-08-26T21:54:34.000Z</time>
      </trkpt>
      <trkpt lat="39.8061035759747028350830078125" lon="-0.4287874884903430938720703125">
        <ele>300</ele>
        <time>2022-08-26T21:54:36.000Z</time>
      </trkpt>
      <trkpt lat="39.80606024153530597686767578125" lon="-0.4286932758986949920654296875">
        <ele>299.399993896484375</ele>
        <time>2022-08-26T21:54:37.000Z</time>
      </trkpt>
      <trkpt lat="39.8060210980474948883056640625" lon="-0.42861088179051876068115234375">
        <ele>298.399993896484375</ele>
        <time>2022-08-26T21:54:38.000Z</time>
      </trkpt>
      <trkpt lat="39.8059557192027568817138671875" lon="-0.428455062210559844970703125">
        <ele>296.79998779296875</ele>
        <time>2022-08-26T21:54:40.000Z</time>
      </trkpt>
      <trkpt lat="39.805928058922290802001953125" lon="-0.42837350629270076751708984375">
        <ele>295.600006103515625</ele>
        <time>2022-08-26T21:54:41.000Z</time>
      </trkpt>
      <trkpt lat="39.8059035837650299072265625" lon="-0.42828381992876529693603515625">
        <ele>294.399993896484375</ele>
        <time>2022-08-26T21:54:42.000Z</time>
      </trkpt>
      <trkpt lat="39.80586276389658451080322265625" lon="-0.4280830733478069305419921875">
        <ele>292.600006103515625</ele>
        <time>2022-08-26T21:54:44.000Z</time>
      </trkpt>
      <trkpt lat="39.80583778582513332366943359375" lon="-0.427976958453655242919921875">
        <ele>291.600006103515625</ele>
        <time>2022-08-26T21:54:45.000Z</time>
      </trkpt>
      <trkpt lat="39.80581062845885753631591796875" lon="-0.42787201702594757080078125">
        <ele>290.600006103515625</ele>
        <time>2022-08-26T21:54:46.000Z</time>
      </trkpt>
      <trkpt lat="39.80577710084617137908935546875" lon="-0.42776732705533504486083984375">
        <ele>289.79998779296875</ele>
        <time>2022-08-26T21:54:47.000Z</time>
      </trkpt>
      <trkpt lat="39.80565304867923259735107421875" lon="-0.42745904065668582916259765625">
        <ele>288.399993896484375</ele>
        <time>2022-08-26T21:54:50.000Z</time>
      </trkpt>
      <trkpt lat="39.80558213777840137481689453125" lon="-0.42724764905869960784912109375">
        <ele>287.399993896484375</ele>
        <time>2022-08-26T21:54:52.000Z</time>
      </trkpt>
      <trkpt lat="39.8055201955139636993408203125" lon="-0.4270319826900959014892578125">
        <ele>286.20001220703125</ele>
        <time>2022-08-26T21:54:54.000Z</time>
      </trkpt>
      <trkpt lat="39.80546579696238040924072265625" lon="-0.4268158972263336181640625">
        <ele>285</ele>
        <time>2022-08-26T21:54:56.000Z</time>
      </trkpt>
      <trkpt lat="39.8054290004074573516845703125" lon="-0.42659285478293895721435546875">
        <ele>283.79998779296875</ele>
        <time>2022-08-26T21:54:58.000Z</time>
      </trkpt>
      <trkpt lat="39.80538466013967990875244140625" lon="-0.42626269161701202392578125">
        <ele>281.399993896484375</ele>
        <time>2022-08-26T21:55:01.000Z</time>
      </trkpt>
      <trkpt lat="39.8053693212568759918212890625" lon="-0.42615230195224285125732421875">
        <ele>280.399993896484375</ele>
        <time>2022-08-26T21:55:02.000Z</time>
      </trkpt>
      <trkpt lat="39.8053537309169769287109375" lon="-0.42604140937328338623046875">
        <ele>279.600006103515625</ele>
        <time>2022-08-26T21:55:03.000Z</time>
      </trkpt>
      <trkpt lat="39.80532162822782993316650390625" lon="-0.4258176125586032867431640625">
        <ele>278.600006103515625</ele>
        <time>2022-08-26T21:55:05.000Z</time>
      </trkpt>
      <trkpt lat="39.80523730628192424774169921875" lon="-0.42525359429419040679931640625">
        <ele>277.399993896484375</ele>
        <time>2022-08-26T21:55:10.000Z</time>
      </trkpt>
      <trkpt lat="39.80520579032599925994873046875" lon="-0.4250404424965381622314453125">
        <ele>276.79998779296875</ele>
        <time>2022-08-26T21:55:12.000Z</time>
      </trkpt>
      <trkpt lat="39.80518416501581668853759765625" lon="-0.42486727237701416015625">
        <ele>276</ele>
        <time>2022-08-26T21:55:14.000Z</time>
      </trkpt>
      <trkpt lat="39.8051674850285053253173828125" lon="-0.42480046860873699188232421875">
        <ele>275.79998779296875</ele>
        <time>2022-08-26T21:55:15.000Z</time>
      </trkpt>
      <trkpt lat="39.80513705871999263763427734375" lon="-0.42474925518035888671875">
        <ele>275.600006103515625</ele>
        <time>2022-08-26T21:55:16.000Z</time>
      </trkpt>
      <trkpt lat="39.80503597296774387359619140625" lon="-0.42469033040106296539306640625">
        <ele>275</ele>
        <time>2022-08-26T21:55:18.000Z</time>
      </trkpt>
      <trkpt lat="39.80497679673135280609130859375" lon="-0.4246686212718486785888671875">
        <ele>274.79998779296875</ele>
        <time>2022-08-26T21:55:19.000Z</time>
      </trkpt>
      <trkpt lat="39.80485442094504833221435546875" lon="-0.4246247000992298126220703125">
        <ele>274.20001220703125</ele>
        <time>2022-08-26T21:55:21.000Z</time>
      </trkpt>
      <trkpt lat="39.80467035435140132904052734375" lon="-0.42456627823412418365478515625">
        <ele>273</ele>
        <time>2022-08-26T21:55:24.000Z</time>
      </trkpt>
      <trkpt lat="39.80449601076543331146240234375" lon="-0.42450827546417713165283203125">
        <ele>272.20001220703125</ele>
        <time>2022-08-26T21:55:27.000Z</time>
      </trkpt>
      <trkpt lat="39.80443532578647136688232421875" lon="-0.42448430322110652923583984375">
        <ele>272</ele>
        <time>2022-08-26T21:55:28.000Z</time>
      </trkpt>
      <trkpt lat="39.80407104827463626861572265625" lon="-0.424303673207759857177734375">
        <ele>271.600006103515625</ele>
        <time>2022-08-26T21:55:34.000Z</time>
      </trkpt>
      <trkpt lat="39.80374348349869251251220703125" lon="-0.4240959696471691131591796875">
        <ele>271.399993896484375</ele>
        <time>2022-08-26T21:55:40.000Z</time>
      </trkpt>
      <trkpt lat="39.8033093847334384918212890625" lon="-0.4238441772758960723876953125">
        <ele>271.399993896484375</ele>
        <time>2022-08-26T21:55:47.000Z</time>
      </trkpt>
      <trkpt lat="39.80275106616318225860595703125" lon="-0.42349473573267459869384765625">
        <ele>271</ele>
        <time>2022-08-26T21:55:55.000Z</time>
      </trkpt>
      <trkpt lat="39.80224966071546077728271484375" lon="-0.42317907325923442840576171875">
        <ele>270.399993896484375</ele>
        <time>2022-08-26T21:56:02.000Z</time>
      </trkpt>
      <trkpt lat="39.80203877203166484832763671875" lon="-0.42304806411266326904296875">
        <ele>270</ele>
        <time>2022-08-26T21:56:05.000Z</time>
      </trkpt>
      <trkpt lat="39.80190365575253963470458984375" lon="-0.42297220788896083831787109375">
        <ele>269.20001220703125</ele>
        <time>2022-08-26T21:56:07.000Z</time>
      </trkpt>
      <trkpt lat="39.80183936655521392822265625" lon="-0.42292744852602481842041015625">
        <ele>268.399993896484375</ele>
        <time>2022-08-26T21:56:08.000Z</time>
      </trkpt>
      <trkpt lat="39.80171975679695606231689453125" lon="-0.42283860035240650177001953125">
        <ele>267.399993896484375</ele>
        <time>2022-08-26T21:56:10.000Z</time>
      </trkpt>
      <trkpt lat="39.80147349648177623748779296875" lon="-0.42267649434506893157958984375">
        <ele>267</ele>
        <time>2022-08-26T21:56:14.000Z</time>
      </trkpt>
      <trkpt lat="39.8010999150574207305908203125" lon="-0.42235144414007663726806640625">
        <ele>267</ele>
        <time>2022-08-26T21:56:21.000Z</time>
      </trkpt>
      <trkpt lat="39.80078400112688541412353515625" lon="-0.42192011140286922454833984375">
        <ele>267.399993896484375</ele>
        <time>2022-08-26T21:56:28.000Z</time>
      </trkpt>
      <trkpt lat="39.8007294349372386932373046875" lon="-0.42186923325061798095703125">
        <ele>267.399993896484375</ele>
        <time>2022-08-26T21:56:29.000Z</time>
      </trkpt>
      <trkpt lat="39.8006087355315685272216796875" lon="-0.42181114666163921356201171875">
        <ele>267.399993896484375</ele>
        <time>2022-08-26T21:56:31.000Z</time>
      </trkpt>
      <trkpt lat="39.8003706894814968109130859375" lon="-0.42170033790171146392822265625">
        <ele>267.399993896484375</ele>
        <time>2022-08-26T21:56:35.000Z</time>
      </trkpt>
      <trkpt lat="39.80031830258667469024658203125" lon="-0.4216561652719974517822265625">
        <ele>267.399993896484375</ele>
        <time>2022-08-26T21:56:36.000Z</time>
      </trkpt>
      <trkpt lat="39.80018704198300838470458984375" lon="-0.42148492299020290374755859375">
        <ele>267.20001220703125</ele>
        <time>2022-08-26T21:56:39.000Z</time>
      </trkpt>
      <trkpt lat="39.8001086711883544921875" lon="-0.4213507287204265594482421875">
        <ele>267.20001220703125</ele>
        <time>2022-08-26T21:56:41.000Z</time>
      </trkpt>
      <trkpt lat="39.79999677278101444244384765625" lon="-0.421039424836635589599609375">
        <ele>267</ele>
        <time>2022-08-26T21:56:45.000Z</time>
      </trkpt>
      <trkpt lat="39.7999821044504642486572265625" lon="-0.420958288013935089111328125">
        <ele>266.79998779296875</ele>
        <time>2022-08-26T21:56:46.000Z</time>
      </trkpt>
      <trkpt lat="39.7999133728444576263427734375" lon="-0.420441292226314544677734375">
        <ele>266.600006103515625</ele>
        <time>2022-08-26T21:56:53.000Z</time>
      </trkpt>
      <trkpt lat="39.799828045070171356201171875" lon="-0.4200491867959499359130859375">
        <ele>266.399993896484375</ele>
        <time>2022-08-26T21:57:00.000Z</time>
      </trkpt>
      <trkpt lat="39.79964691214263439178466796875" lon="-0.419613830745220184326171875">
        <ele>266.600006103515625</ele>
        <time>2022-08-26T21:57:10.000Z</time>
      </trkpt>
      <trkpt lat="39.79954876005649566650390625" lon="-0.4194161854684352874755859375">
        <ele>266.600006103515625</ele>
        <time>2022-08-26T21:57:15.000Z</time>
      </trkpt>
      <trkpt lat="39.79946519248187541961669921875" lon="-0.419274866580963134765625">
        <ele>266.399993896484375</ele>
        <time>2022-08-26T21:57:19.000Z</time>
      </trkpt>
      <trkpt lat="39.799453206360340118408203125" lon="-0.419252403080463409423828125">
        <ele>266.399993896484375</ele>
        <time>2022-08-26T21:57:20.000Z</time>
      </trkpt>
      <trkpt lat="39.79945748113095760345458984375" lon="-0.41924159042537212371826171875">
        <ele>266.20001220703125</ele>
        <time>2022-08-26T21:57:22.000Z</time>
      </trkpt>
      <trkpt lat="39.79946820996701717376708984375" lon="-0.41926438920199871063232421875">
        <ele>266.20001220703125</ele>
        <time>2022-08-26T21:57:24.000Z</time>
      </trkpt>
      <trkpt lat="39.79948732070624828338623046875" lon="-0.41933186352252960205078125">
        <ele>266</ele>
        <time>2022-08-26T21:57:27.000Z</time>
      </trkpt>
      <trkpt lat="39.79953409172594547271728515625" lon="-0.41942213661968708038330078125">
        <ele>266</ele>
        <time>2022-08-26T21:57:30.000Z</time>
      </trkpt>
      <trkpt lat="39.79958773590624332427978515625" lon="-0.4195342026650905609130859375">
        <ele>266</ele>
        <time>2022-08-26T21:57:33.000Z</time>
      </trkpt>
      <trkpt lat="39.79971698485314846038818359375" lon="-0.41984223760664463043212890625">
        <ele>266.399993896484375</ele>
        <time>2022-08-26T21:57:41.000Z</time>
      </trkpt>
      <trkpt lat="39.79980633594095706939697265625" lon="-0.4200468398630619049072265625">
        <ele>266.600006103515625</ele>
        <time>2022-08-26T21:57:49.000Z</time>
      </trkpt>
      <trkpt lat="39.7998915798962116241455078125" lon="-0.420315898954868316650390625">
        <ele>267</ele>
        <time>2022-08-26T21:57:58.000Z</time>
      </trkpt>
      <trkpt lat="39.79996006004512310028076171875" lon="-0.42062929831445217132568359375">
        <ele>267</ele>
        <time>2022-08-26T21:58:06.000Z</time>
      </trkpt>
      <trkpt lat="39.80002158321440219879150390625" lon="-0.42105794884264469146728515625">
        <ele>266.20001220703125</ele>
        <time>2022-08-26T21:58:15.000Z</time>
      </trkpt>
      <trkpt lat="39.8000736348330974578857421875" lon="-0.4212427698075771331787109375">
        <ele>265.79998779296875</ele>
        <time>2022-08-26T21:58:19.000Z</time>
      </trkpt>
      <trkpt lat="39.80013616383075714111328125" lon="-0.421408228576183319091796875">
        <ele>265.600006103515625</ele>
        <time>2022-08-26T21:58:23.000Z</time>
      </trkpt>
      <trkpt lat="39.80022677220404148101806640625" lon="-0.42156086303293704986572265625">
        <ele>265.600006103515625</ele>
        <time>2022-08-26T21:58:29.000Z</time>
      </trkpt>
      <trkpt lat="39.8002406023442745208740234375" lon="-0.4215683229267597198486328125">
        <ele>265.600006103515625</ele>
        <time>2022-08-26T21:58:32.000Z</time>
      </trkpt>
    </trkseg>
  </trk>
</gpx>
